<?xml version="1.0" encoding="UTF-8"?>
<gpx version="1.1" creator="https://www.youtrack.es" xsi:schemaLocation="http://www.topografix.com/GPX/1/1 http://www.topografix.com/GPX/1/1/gpx.xsd http://www.garmin.com/xmlschemas/GpxExtensions/v3 http://www.garmin.com/xmlschemas/GpxExtensionsv3.xsd http://www.garmin.com/xmlschemas/TrackPointExtension/v1 http://www.garmin.com/xmlschemas/TrackPointExtensionv1.xsd" xmlns:gpxtpx="http://www.garmin.com/xmlschemas/TrackPointExtension/v1" xmlns:gpxx="http://www.garmin.com/xmlschemas/GpxExtensions/v3" xmlns:xsi="http://www.w3.org/2001/XMLSchema-instance">
  <metadata>
    <link href="https://www.youtrack.es">
      <text>YouTrack.es</text>
    </link>
    <time>2026-05-09T01:00:10Z</time>
  </metadata>
  <trk>
    <src>https://www.youtrack.es</src>
    <link href="https://www.youtrack.es/ruta/22446-gr83-mataro-prada-de-conflent--3-dies-">
      <text>YouTrack.es</text>
    </link>
    <trkseg>
      <trkpt lat="41.538650" lon="2.454655">
        <ele>9.367</ele>
        <time>2021-05-26T07:01:15Z</time>
      </trkpt>
      <trkpt lat="41.538661" lon="2.454663">
        <ele>9.481</ele>
        <time>2021-05-26T07:01:27Z</time>
      </trkpt>
      <trkpt lat="41.538684" lon="2.454686">
        <ele>9.519</ele>
        <time>2021-05-26T07:01:29Z</time>
      </trkpt>
      <trkpt lat="41.538700" lon="2.454722">
        <ele>9.608</ele>
        <time>2021-05-26T07:01:32Z</time>
      </trkpt>
      <trkpt lat="41.538710" lon="2.454759">
        <ele>10.013</ele>
        <time>2021-05-26T07:01:34Z</time>
      </trkpt>
      <trkpt lat="41.538722" lon="2.454792">
        <ele>10.320</ele>
        <time>2021-05-26T07:01:36Z</time>
      </trkpt>
      <trkpt lat="41.538735" lon="2.454819">
        <ele>10.657</ele>
        <time>2021-05-26T07:01:38Z</time>
      </trkpt>
      <trkpt lat="41.538745" lon="2.454844">
        <ele>10.810</ele>
        <time>2021-05-26T07:01:40Z</time>
      </trkpt>
      <trkpt lat="41.538754" lon="2.454871">
        <ele>11.135</ele>
        <time>2021-05-26T07:01:42Z</time>
      </trkpt>
      <trkpt lat="41.538767" lon="2.454899">
        <ele>11.461</ele>
        <time>2021-05-26T07:01:47Z</time>
      </trkpt>
      <trkpt lat="41.538779" lon="2.454924">
        <ele>11.748</ele>
        <time>2021-05-26T07:01:49Z</time>
      </trkpt>
      <trkpt lat="41.538798" lon="2.454951">
        <ele>12.035</ele>
        <time>2021-05-26T07:01:53Z</time>
      </trkpt>
      <trkpt lat="41.538812" lon="2.454969">
        <ele>12.255</ele>
        <time>2021-05-26T07:01:55Z</time>
      </trkpt>
      <trkpt lat="41.538826" lon="2.454987">
        <ele>12.507</ele>
        <time>2021-05-26T07:01:56Z</time>
      </trkpt>
      <trkpt lat="41.538840" lon="2.455003">
        <ele>12.617</ele>
        <time>2021-05-26T07:01:58Z</time>
      </trkpt>
      <trkpt lat="41.538855" lon="2.455020">
        <ele>12.808</ele>
        <time>2021-05-26T07:02:00Z</time>
      </trkpt>
      <trkpt lat="41.538874" lon="2.455043">
        <ele>13.152</ele>
        <time>2021-05-26T07:02:04Z</time>
      </trkpt>
      <trkpt lat="41.538893" lon="2.455064">
        <ele>13.429</ele>
        <time>2021-05-26T07:02:07Z</time>
      </trkpt>
      <trkpt lat="41.538905" lon="2.455083">
        <ele>13.516</ele>
        <time>2021-05-26T07:02:09Z</time>
      </trkpt>
      <trkpt lat="41.538918" lon="2.455104">
        <ele>13.599</ele>
        <time>2021-05-26T07:02:11Z</time>
      </trkpt>
      <trkpt lat="41.538939" lon="2.455121">
        <ele>13.484</ele>
        <time>2021-05-26T07:02:12Z</time>
      </trkpt>
      <trkpt lat="41.538954" lon="2.455139">
        <ele>13.450</ele>
        <time>2021-05-26T07:02:14Z</time>
      </trkpt>
      <trkpt lat="41.538973" lon="2.455159">
        <ele>13.467</ele>
        <time>2021-05-26T07:02:16Z</time>
      </trkpt>
      <trkpt lat="41.538996" lon="2.455178">
        <ele>13.324</ele>
        <time>2021-05-26T07:02:18Z</time>
      </trkpt>
      <trkpt lat="41.539024" lon="2.455197">
        <ele>13.169</ele>
        <time>2021-05-26T07:02:20Z</time>
      </trkpt>
      <trkpt lat="41.539051" lon="2.455218">
        <ele>12.904</ele>
        <time>2021-05-26T07:02:22Z</time>
      </trkpt>
      <trkpt lat="41.539080" lon="2.455234">
        <ele>12.724</ele>
        <time>2021-05-26T07:02:24Z</time>
      </trkpt>
      <trkpt lat="41.539106" lon="2.455233">
        <ele>12.508</ele>
        <time>2021-05-26T07:02:26Z</time>
      </trkpt>
      <trkpt lat="41.539130" lon="2.455227">
        <ele>12.213</ele>
        <time>2021-05-26T07:02:28Z</time>
      </trkpt>
      <trkpt lat="41.539153" lon="2.455221">
        <ele>11.940</ele>
        <time>2021-05-26T07:02:31Z</time>
      </trkpt>
      <trkpt lat="41.539177" lon="2.455226">
        <ele>11.837</ele>
        <time>2021-05-26T07:02:32Z</time>
      </trkpt>
      <trkpt lat="41.539197" lon="2.455231">
        <ele>11.720</ele>
        <time>2021-05-26T07:02:34Z</time>
      </trkpt>
      <trkpt lat="41.539215" lon="2.455242">
        <ele>11.685</ele>
        <time>2021-05-26T07:02:36Z</time>
      </trkpt>
      <trkpt lat="41.539243" lon="2.455275">
        <ele>11.451</ele>
        <time>2021-05-26T07:02:38Z</time>
      </trkpt>
      <trkpt lat="41.539259" lon="2.455299">
        <ele>11.438</ele>
        <time>2021-05-26T07:02:39Z</time>
      </trkpt>
      <trkpt lat="41.539279" lon="2.455324">
        <ele>11.445</ele>
        <time>2021-05-26T07:02:40Z</time>
      </trkpt>
      <trkpt lat="41.539303" lon="2.455346">
        <ele>11.418</ele>
        <time>2021-05-26T07:02:41Z</time>
      </trkpt>
      <trkpt lat="41.539326" lon="2.455370">
        <ele>11.498</ele>
        <time>2021-05-26T07:02:42Z</time>
      </trkpt>
      <trkpt lat="41.539347" lon="2.455397">
        <ele>11.417</ele>
        <time>2021-05-26T07:02:43Z</time>
      </trkpt>
      <trkpt lat="41.539367" lon="2.455426">
        <ele>11.508</ele>
        <time>2021-05-26T07:02:44Z</time>
      </trkpt>
      <trkpt lat="41.539386" lon="2.455454">
        <ele>11.638</ele>
        <time>2021-05-26T07:02:45Z</time>
      </trkpt>
      <trkpt lat="41.539403" lon="2.455483">
        <ele>11.755</ele>
        <time>2021-05-26T07:02:47Z</time>
      </trkpt>
      <trkpt lat="41.539421" lon="2.455511">
        <ele>11.882</ele>
        <time>2021-05-26T07:02:48Z</time>
      </trkpt>
      <trkpt lat="41.539438" lon="2.455546">
        <ele>12.055</ele>
        <time>2021-05-26T07:02:49Z</time>
      </trkpt>
      <trkpt lat="41.539473" lon="2.455607">
        <ele>12.410</ele>
        <time>2021-05-26T07:02:50Z</time>
      </trkpt>
      <trkpt lat="41.539491" lon="2.455638">
        <ele>12.646</ele>
        <time>2021-05-26T07:02:51Z</time>
      </trkpt>
      <trkpt lat="41.539508" lon="2.455667">
        <ele>12.873</ele>
        <time>2021-05-26T07:02:52Z</time>
      </trkpt>
      <trkpt lat="41.539525" lon="2.455700">
        <ele>13.050</ele>
        <time>2021-05-26T07:02:53Z</time>
      </trkpt>
      <trkpt lat="41.539541" lon="2.455729">
        <ele>13.228</ele>
        <time>2021-05-26T07:02:54Z</time>
      </trkpt>
      <trkpt lat="41.539558" lon="2.455761">
        <ele>13.389</ele>
        <time>2021-05-26T07:02:55Z</time>
      </trkpt>
      <trkpt lat="41.539576" lon="2.455793">
        <ele>13.517</ele>
        <time>2021-05-26T07:02:56Z</time>
      </trkpt>
      <trkpt lat="41.539594" lon="2.455826">
        <ele>13.608</ele>
        <time>2021-05-26T07:02:57Z</time>
      </trkpt>
      <trkpt lat="41.539612" lon="2.455861">
        <ele>13.729</ele>
        <time>2021-05-26T07:02:58Z</time>
      </trkpt>
      <trkpt lat="41.539633" lon="2.455892">
        <ele>13.876</ele>
        <time>2021-05-26T07:02:59Z</time>
      </trkpt>
      <trkpt lat="41.539653" lon="2.455921">
        <ele>13.883</ele>
        <time>2021-05-26T07:03:00Z</time>
      </trkpt>
      <trkpt lat="41.539672" lon="2.455950">
        <ele>13.856</ele>
        <time>2021-05-26T07:03:01Z</time>
      </trkpt>
      <trkpt lat="41.539691" lon="2.455986">
        <ele>13.761</ele>
        <time>2021-05-26T07:03:02Z</time>
      </trkpt>
      <trkpt lat="41.539709" lon="2.456022">
        <ele>13.647</ele>
        <time>2021-05-26T07:03:04Z</time>
      </trkpt>
      <trkpt lat="41.539727" lon="2.456057">
        <ele>13.444</ele>
        <time>2021-05-26T07:03:05Z</time>
      </trkpt>
      <trkpt lat="41.539761" lon="2.456126">
        <ele>13.241</ele>
        <time>2021-05-26T07:03:06Z</time>
      </trkpt>
      <trkpt lat="41.539775" lon="2.456163">
        <ele>13.059</ele>
        <time>2021-05-26T07:03:07Z</time>
      </trkpt>
      <trkpt lat="41.539806" lon="2.456230">
        <ele>12.703</ele>
        <time>2021-05-26T07:03:09Z</time>
      </trkpt>
      <trkpt lat="41.539822" lon="2.456260">
        <ele>12.623</ele>
        <time>2021-05-26T07:03:10Z</time>
      </trkpt>
      <trkpt lat="41.539835" lon="2.456295">
        <ele>12.508</ele>
        <time>2021-05-26T07:03:11Z</time>
      </trkpt>
      <trkpt lat="41.539869" lon="2.456355">
        <ele>12.382</ele>
        <time>2021-05-26T07:03:13Z</time>
      </trkpt>
      <trkpt lat="41.539886" lon="2.456384">
        <ele>12.219</ele>
        <time>2021-05-26T07:03:14Z</time>
      </trkpt>
      <trkpt lat="41.539904" lon="2.456412">
        <ele>12.376</ele>
        <time>2021-05-26T07:03:15Z</time>
      </trkpt>
      <trkpt lat="41.539921" lon="2.456439">
        <ele>12.469</ele>
        <time>2021-05-26T07:03:16Z</time>
      </trkpt>
      <trkpt lat="41.539939" lon="2.456469">
        <ele>12.614</ele>
        <time>2021-05-26T07:03:17Z</time>
      </trkpt>
      <trkpt lat="41.539957" lon="2.456498">
        <ele>12.790</ele>
        <time>2021-05-26T07:03:18Z</time>
      </trkpt>
      <trkpt lat="41.539978" lon="2.456526">
        <ele>12.827</ele>
        <time>2021-05-26T07:03:19Z</time>
      </trkpt>
      <trkpt lat="41.539998" lon="2.456554">
        <ele>13.084</ele>
        <time>2021-05-26T07:03:21Z</time>
      </trkpt>
      <trkpt lat="41.540035" lon="2.456608">
        <ele>12.988</ele>
        <time>2021-05-26T07:03:22Z</time>
      </trkpt>
      <trkpt lat="41.540054" lon="2.456634">
        <ele>12.824</ele>
        <time>2021-05-26T07:03:23Z</time>
      </trkpt>
      <trkpt lat="41.540073" lon="2.456659">
        <ele>12.726</ele>
        <time>2021-05-26T07:03:24Z</time>
      </trkpt>
      <trkpt lat="41.540090" lon="2.456686">
        <ele>12.608</ele>
        <time>2021-05-26T07:03:25Z</time>
      </trkpt>
      <trkpt lat="41.540108" lon="2.456712">
        <ele>12.485</ele>
        <time>2021-05-26T07:03:26Z</time>
      </trkpt>
      <trkpt lat="41.540146" lon="2.456767">
        <ele>11.962</ele>
        <time>2021-05-26T07:03:28Z</time>
      </trkpt>
      <trkpt lat="41.540165" lon="2.456796">
        <ele>11.759</ele>
        <time>2021-05-26T07:03:30Z</time>
      </trkpt>
      <trkpt lat="41.540183" lon="2.456826">
        <ele>11.472</ele>
        <time>2021-05-26T07:03:31Z</time>
      </trkpt>
      <trkpt lat="41.540203" lon="2.456855">
        <ele>11.167</ele>
        <time>2021-05-26T07:03:32Z</time>
      </trkpt>
      <trkpt lat="41.540241" lon="2.456908">
        <ele>10.583</ele>
        <time>2021-05-26T07:03:33Z</time>
      </trkpt>
      <trkpt lat="41.540261" lon="2.456937">
        <ele>10.260</ele>
        <time>2021-05-26T07:03:34Z</time>
      </trkpt>
      <trkpt lat="41.540282" lon="2.456963">
        <ele>9.957</ele>
        <time>2021-05-26T07:03:35Z</time>
      </trkpt>
      <trkpt lat="41.540303" lon="2.456989">
        <ele>9.636</ele>
        <time>2021-05-26T07:03:36Z</time>
      </trkpt>
      <trkpt lat="41.540324" lon="2.457010">
        <ele>9.417</ele>
        <time>2021-05-26T07:03:37Z</time>
      </trkpt>
      <trkpt lat="41.540377" lon="2.457031">
        <ele>8.918</ele>
        <time>2021-05-26T07:03:39Z</time>
      </trkpt>
      <trkpt lat="41.540403" lon="2.457026">
        <ele>8.708</ele>
        <time>2021-05-26T07:03:40Z</time>
      </trkpt>
      <trkpt lat="41.540428" lon="2.457018">
        <ele>8.590</ele>
        <time>2021-05-26T07:03:41Z</time>
      </trkpt>
      <trkpt lat="41.540453" lon="2.457008">
        <ele>8.417</ele>
        <time>2021-05-26T07:03:42Z</time>
      </trkpt>
      <trkpt lat="41.540477" lon="2.456998">
        <ele>8.224</ele>
        <time>2021-05-26T07:03:43Z</time>
      </trkpt>
      <trkpt lat="41.540499" lon="2.456988">
        <ele>8.157</ele>
        <time>2021-05-26T07:03:44Z</time>
      </trkpt>
      <trkpt lat="41.540518" lon="2.456979">
        <ele>8.092</ele>
        <time>2021-05-26T07:03:45Z</time>
      </trkpt>
      <trkpt lat="41.540562" lon="2.456957">
        <ele>7.958</ele>
        <time>2021-05-26T07:03:47Z</time>
      </trkpt>
      <trkpt lat="41.540581" lon="2.456944">
        <ele>7.915</ele>
        <time>2021-05-26T07:03:48Z</time>
      </trkpt>
      <trkpt lat="41.540604" lon="2.456933">
        <ele>7.962</ele>
        <time>2021-05-26T07:03:50Z</time>
      </trkpt>
      <trkpt lat="41.540632" lon="2.456928">
        <ele>7.843</ele>
        <time>2021-05-26T07:03:51Z</time>
      </trkpt>
      <trkpt lat="41.540664" lon="2.456926">
        <ele>7.764</ele>
        <time>2021-05-26T07:03:52Z</time>
      </trkpt>
      <trkpt lat="41.540722" lon="2.456915">
        <ele>7.610</ele>
        <time>2021-05-26T07:03:53Z</time>
      </trkpt>
      <trkpt lat="41.540748" lon="2.456907">
        <ele>7.608</ele>
        <time>2021-05-26T07:03:54Z</time>
      </trkpt>
      <trkpt lat="41.540774" lon="2.456895">
        <ele>7.671</ele>
        <time>2021-05-26T07:03:55Z</time>
      </trkpt>
      <trkpt lat="41.540799" lon="2.456882">
        <ele>7.648</ele>
        <time>2021-05-26T07:03:56Z</time>
      </trkpt>
      <trkpt lat="41.540851" lon="2.456851">
        <ele>7.825</ele>
        <time>2021-05-26T07:03:58Z</time>
      </trkpt>
      <trkpt lat="41.540875" lon="2.456833">
        <ele>8.028</ele>
        <time>2021-05-26T07:03:59Z</time>
      </trkpt>
      <trkpt lat="41.540900" lon="2.456811">
        <ele>8.393</ele>
        <time>2021-05-26T07:04:00Z</time>
      </trkpt>
      <trkpt lat="41.540916" lon="2.456797">
        <ele>8.519</ele>
        <time>2021-05-26T07:04:01Z</time>
      </trkpt>
      <trkpt lat="41.540937" lon="2.456784">
        <ele>8.786</ele>
        <time>2021-05-26T07:04:02Z</time>
      </trkpt>
      <trkpt lat="41.540959" lon="2.456772">
        <ele>8.923</ele>
        <time>2021-05-26T07:04:03Z</time>
      </trkpt>
      <trkpt lat="41.541019" lon="2.456665">
        <ele>9.753</ele>
        <time>2021-05-26T07:04:07Z</time>
      </trkpt>
      <trkpt lat="41.541102" lon="2.456570">
        <ele>10.304</ele>
        <time>2021-05-26T07:04:11Z</time>
      </trkpt>
      <trkpt lat="41.541127" lon="2.456550">
        <ele>10.414</ele>
        <time>2021-05-26T07:04:12Z</time>
      </trkpt>
      <trkpt lat="41.541147" lon="2.456524">
        <ele>10.408</ele>
        <time>2021-05-26T07:04:13Z</time>
      </trkpt>
      <trkpt lat="41.541168" lon="2.456497">
        <ele>10.572</ele>
        <time>2021-05-26T07:04:14Z</time>
      </trkpt>
      <trkpt lat="41.541187" lon="2.456472">
        <ele>10.569</ele>
        <time>2021-05-26T07:04:15Z</time>
      </trkpt>
      <trkpt lat="41.541211" lon="2.456443">
        <ele>10.586</ele>
        <time>2021-05-26T07:04:17Z</time>
      </trkpt>
      <trkpt lat="41.541232" lon="2.456396">
        <ele>10.629</ele>
        <time>2021-05-26T07:04:18Z</time>
      </trkpt>
      <trkpt lat="41.541241" lon="2.456371">
        <ele>10.724</ele>
        <time>2021-05-26T07:04:19Z</time>
      </trkpt>
      <trkpt lat="41.541251" lon="2.456343">
        <ele>10.850</ele>
        <time>2021-05-26T07:04:20Z</time>
      </trkpt>
      <trkpt lat="41.541270" lon="2.456304">
        <ele>11.027</ele>
        <time>2021-05-26T07:04:22Z</time>
      </trkpt>
      <trkpt lat="41.541278" lon="2.456283">
        <ele>11.294</ele>
        <time>2021-05-26T07:04:23Z</time>
      </trkpt>
      <trkpt lat="41.541309" lon="2.456242">
        <ele>11.348</ele>
        <time>2021-05-26T07:04:25Z</time>
      </trkpt>
      <trkpt lat="41.541327" lon="2.456226">
        <ele>11.461</ele>
        <time>2021-05-26T07:04:26Z</time>
      </trkpt>
      <trkpt lat="41.541343" lon="2.456210">
        <ele>11.517</ele>
        <time>2021-05-26T07:04:27Z</time>
      </trkpt>
      <trkpt lat="41.541361" lon="2.456195">
        <ele>11.508</ele>
        <time>2021-05-26T07:04:28Z</time>
      </trkpt>
      <trkpt lat="41.541378" lon="2.456183">
        <ele>11.561</ele>
        <time>2021-05-26T07:04:29Z</time>
      </trkpt>
      <trkpt lat="41.541392" lon="2.456161">
        <ele>11.738</ele>
        <time>2021-05-26T07:04:30Z</time>
      </trkpt>
      <trkpt lat="41.541410" lon="2.456146">
        <ele>11.855</ele>
        <time>2021-05-26T07:04:31Z</time>
      </trkpt>
      <trkpt lat="41.541452" lon="2.456135">
        <ele>12.178</ele>
        <time>2021-05-26T07:04:33Z</time>
      </trkpt>
      <trkpt lat="41.541474" lon="2.456126">
        <ele>12.293</ele>
        <time>2021-05-26T07:04:34Z</time>
      </trkpt>
      <trkpt lat="41.541493" lon="2.456115">
        <ele>12.419</ele>
        <time>2021-05-26T07:04:35Z</time>
      </trkpt>
      <trkpt lat="41.541514" lon="2.456099">
        <ele>12.596</ele>
        <time>2021-05-26T07:04:36Z</time>
      </trkpt>
      <trkpt lat="41.541539" lon="2.456083">
        <ele>12.753</ele>
        <time>2021-05-26T07:04:37Z</time>
      </trkpt>
      <trkpt lat="41.541560" lon="2.456069">
        <ele>12.942</ele>
        <time>2021-05-26T07:04:38Z</time>
      </trkpt>
      <trkpt lat="41.541590" lon="2.456047">
        <ele>13.122</ele>
        <time>2021-05-26T07:04:40Z</time>
      </trkpt>
      <trkpt lat="41.541613" lon="2.456040">
        <ele>13.214</ele>
        <time>2021-05-26T07:04:41Z</time>
      </trkpt>
      <trkpt lat="41.541663" lon="2.456022">
        <ele>13.308</ele>
        <time>2021-05-26T07:04:42Z</time>
      </trkpt>
      <trkpt lat="41.541711" lon="2.456002">
        <ele>13.681</ele>
        <time>2021-05-26T07:04:44Z</time>
      </trkpt>
      <trkpt lat="41.541734" lon="2.455993">
        <ele>13.818</ele>
        <time>2021-05-26T07:04:45Z</time>
      </trkpt>
      <trkpt lat="41.541755" lon="2.455983">
        <ele>14.015</ele>
        <time>2021-05-26T07:04:46Z</time>
      </trkpt>
      <trkpt lat="41.541775" lon="2.455972">
        <ele>14.158</ele>
        <time>2021-05-26T07:04:48Z</time>
      </trkpt>
      <trkpt lat="41.541797" lon="2.455965">
        <ele>14.223</ele>
        <time>2021-05-26T07:04:49Z</time>
      </trkpt>
      <trkpt lat="41.541819" lon="2.455954">
        <ele>14.469</ele>
        <time>2021-05-26T07:04:50Z</time>
      </trkpt>
      <trkpt lat="41.541874" lon="2.455926">
        <ele>14.726</ele>
        <time>2021-05-26T07:04:51Z</time>
      </trkpt>
      <trkpt lat="41.541901" lon="2.455911">
        <ele>14.873</ele>
        <time>2021-05-26T07:04:52Z</time>
      </trkpt>
      <trkpt lat="41.541927" lon="2.455898">
        <ele>14.984</ele>
        <time>2021-05-26T07:04:53Z</time>
      </trkpt>
      <trkpt lat="41.541951" lon="2.455886">
        <ele>15.007</ele>
        <time>2021-05-26T07:04:54Z</time>
      </trkpt>
      <trkpt lat="41.541977" lon="2.455872">
        <ele>15.117</ele>
        <time>2021-05-26T07:04:55Z</time>
      </trkpt>
      <trkpt lat="41.542003" lon="2.455862">
        <ele>15.208</ele>
        <time>2021-05-26T07:04:56Z</time>
      </trkpt>
      <trkpt lat="41.542029" lon="2.455851">
        <ele>15.345</ele>
        <time>2021-05-26T07:04:57Z</time>
      </trkpt>
      <trkpt lat="41.542054" lon="2.455841">
        <ele>15.442</ele>
        <time>2021-05-26T07:04:59Z</time>
      </trkpt>
      <trkpt lat="41.542103" lon="2.455822">
        <ele>15.629</ele>
        <time>2021-05-26T07:05:00Z</time>
      </trkpt>
      <trkpt lat="41.542125" lon="2.455813">
        <ele>15.792</ele>
        <time>2021-05-26T07:05:01Z</time>
      </trkpt>
      <trkpt lat="41.542148" lon="2.455802">
        <ele>15.897</ele>
        <time>2021-05-26T07:05:03Z</time>
      </trkpt>
      <trkpt lat="41.542198" lon="2.455782">
        <ele>16.183</ele>
        <time>2021-05-26T07:05:04Z</time>
      </trkpt>
      <trkpt lat="41.542220" lon="2.455775">
        <ele>16.250</ele>
        <time>2021-05-26T07:05:05Z</time>
      </trkpt>
      <trkpt lat="41.542243" lon="2.455766">
        <ele>16.357</ele>
        <time>2021-05-26T07:05:06Z</time>
      </trkpt>
      <trkpt lat="41.542265" lon="2.455756">
        <ele>16.427</ele>
        <time>2021-05-26T07:05:07Z</time>
      </trkpt>
      <trkpt lat="41.542285" lon="2.455745">
        <ele>16.568</ele>
        <time>2021-05-26T07:05:08Z</time>
      </trkpt>
      <trkpt lat="41.542308" lon="2.455734">
        <ele>16.714</ele>
        <time>2021-05-26T07:05:09Z</time>
      </trkpt>
      <trkpt lat="41.542328" lon="2.455724">
        <ele>16.808</ele>
        <time>2021-05-26T07:05:10Z</time>
      </trkpt>
      <trkpt lat="41.542351" lon="2.455717">
        <ele>16.979</ele>
        <time>2021-05-26T07:05:11Z</time>
      </trkpt>
      <trkpt lat="41.542374" lon="2.455708">
        <ele>17.066</ele>
        <time>2021-05-26T07:05:12Z</time>
      </trkpt>
      <trkpt lat="41.542397" lon="2.455697">
        <ele>17.163</ele>
        <time>2021-05-26T07:05:13Z</time>
      </trkpt>
      <trkpt lat="41.542422" lon="2.455684">
        <ele>17.336</ele>
        <time>2021-05-26T07:05:14Z</time>
      </trkpt>
      <trkpt lat="41.542447" lon="2.455674">
        <ele>17.441</ele>
        <time>2021-05-26T07:05:15Z</time>
      </trkpt>
      <trkpt lat="41.542469" lon="2.455665">
        <ele>17.577</ele>
        <time>2021-05-26T07:05:16Z</time>
      </trkpt>
      <trkpt lat="41.542492" lon="2.455655">
        <ele>17.614</ele>
        <time>2021-05-26T07:05:17Z</time>
      </trkpt>
      <trkpt lat="41.542518" lon="2.455646">
        <ele>17.861</ele>
        <time>2021-05-26T07:05:18Z</time>
      </trkpt>
      <trkpt lat="41.542544" lon="2.455636">
        <ele>18.055</ele>
        <time>2021-05-26T07:05:20Z</time>
      </trkpt>
      <trkpt lat="41.542568" lon="2.455628">
        <ele>18.207</ele>
        <time>2021-05-26T07:05:21Z</time>
      </trkpt>
      <trkpt lat="41.542619" lon="2.455607">
        <ele>18.717</ele>
        <time>2021-05-26T07:05:22Z</time>
      </trkpt>
      <trkpt lat="41.542643" lon="2.455597">
        <ele>18.908</ele>
        <time>2021-05-26T07:05:23Z</time>
      </trkpt>
      <trkpt lat="41.542666" lon="2.455587">
        <ele>19.112</ele>
        <time>2021-05-26T07:05:24Z</time>
      </trkpt>
      <trkpt lat="41.542689" lon="2.455577">
        <ele>19.329</ele>
        <time>2021-05-26T07:05:25Z</time>
      </trkpt>
      <trkpt lat="41.542713" lon="2.455567">
        <ele>19.566</ele>
        <time>2021-05-26T07:05:26Z</time>
      </trkpt>
      <trkpt lat="41.542736" lon="2.455556">
        <ele>19.749</ele>
        <time>2021-05-26T07:05:27Z</time>
      </trkpt>
      <trkpt lat="41.542760" lon="2.455546">
        <ele>20.074</ele>
        <time>2021-05-26T07:05:28Z</time>
      </trkpt>
      <trkpt lat="41.542784" lon="2.455534">
        <ele>20.350</ele>
        <time>2021-05-26T07:05:29Z</time>
      </trkpt>
      <trkpt lat="41.542809" lon="2.455522">
        <ele>20.687</ele>
        <time>2021-05-26T07:05:30Z</time>
      </trkpt>
      <trkpt lat="41.542833" lon="2.455512">
        <ele>20.974</ele>
        <time>2021-05-26T07:05:31Z</time>
      </trkpt>
      <trkpt lat="41.542857" lon="2.455504">
        <ele>21.174</ele>
        <time>2021-05-26T07:05:32Z</time>
      </trkpt>
      <trkpt lat="41.542882" lon="2.455493">
        <ele>21.456</ele>
        <time>2021-05-26T07:05:33Z</time>
      </trkpt>
      <trkpt lat="41.542905" lon="2.455483">
        <ele>21.721</ele>
        <time>2021-05-26T07:05:34Z</time>
      </trkpt>
      <trkpt lat="41.542928" lon="2.455473">
        <ele>22.008</ele>
        <time>2021-05-26T07:05:35Z</time>
      </trkpt>
      <trkpt lat="41.542953" lon="2.455463">
        <ele>22.344</ele>
        <time>2021-05-26T07:05:36Z</time>
      </trkpt>
      <trkpt lat="41.542977" lon="2.455453">
        <ele>22.561</ele>
        <time>2021-05-26T07:05:37Z</time>
      </trkpt>
      <trkpt lat="41.542999" lon="2.455445">
        <ele>22.888</ele>
        <time>2021-05-26T07:05:38Z</time>
      </trkpt>
      <trkpt lat="41.543022" lon="2.455435">
        <ele>23.171</ele>
        <time>2021-05-26T07:05:40Z</time>
      </trkpt>
      <trkpt lat="41.543073" lon="2.455417">
        <ele>23.646</ele>
        <time>2021-05-26T07:05:41Z</time>
      </trkpt>
      <trkpt lat="41.543096" lon="2.455411">
        <ele>23.832</ele>
        <time>2021-05-26T07:05:42Z</time>
      </trkpt>
      <trkpt lat="41.543121" lon="2.455403">
        <ele>24.019</ele>
        <time>2021-05-26T07:05:43Z</time>
      </trkpt>
      <trkpt lat="41.543145" lon="2.455395">
        <ele>24.296</ele>
        <time>2021-05-26T07:05:44Z</time>
      </trkpt>
      <trkpt lat="41.543166" lon="2.455387">
        <ele>24.453</ele>
        <time>2021-05-26T07:05:45Z</time>
      </trkpt>
      <trkpt lat="41.543189" lon="2.455380">
        <ele>24.604</ele>
        <time>2021-05-26T07:05:46Z</time>
      </trkpt>
      <trkpt lat="41.543210" lon="2.455371">
        <ele>24.714</ele>
        <time>2021-05-26T07:05:47Z</time>
      </trkpt>
      <trkpt lat="41.543234" lon="2.455361">
        <ele>24.908</ele>
        <time>2021-05-26T07:05:48Z</time>
      </trkpt>
      <trkpt lat="41.543267" lon="2.455344">
        <ele>25.292</ele>
        <time>2021-05-26T07:05:50Z</time>
      </trkpt>
      <trkpt lat="41.543286" lon="2.455334">
        <ele>25.469</ele>
        <time>2021-05-26T07:05:51Z</time>
      </trkpt>
      <trkpt lat="41.543306" lon="2.455329">
        <ele>25.526</ele>
        <time>2021-05-26T07:05:52Z</time>
      </trkpt>
      <trkpt lat="41.543328" lon="2.455325">
        <ele>25.629</ele>
        <time>2021-05-26T07:05:53Z</time>
      </trkpt>
      <trkpt lat="41.543350" lon="2.455321">
        <ele>25.784</ele>
        <time>2021-05-26T07:05:54Z</time>
      </trkpt>
      <trkpt lat="41.543373" lon="2.455317">
        <ele>25.960</ele>
        <time>2021-05-26T07:05:55Z</time>
      </trkpt>
      <trkpt lat="41.543397" lon="2.455310">
        <ele>26.087</ele>
        <time>2021-05-26T07:05:56Z</time>
      </trkpt>
      <trkpt lat="41.543423" lon="2.455303">
        <ele>26.124</ele>
        <time>2021-05-26T07:05:57Z</time>
      </trkpt>
      <trkpt lat="41.543448" lon="2.455292">
        <ele>26.345</ele>
        <time>2021-05-26T07:05:58Z</time>
      </trkpt>
      <trkpt lat="41.543473" lon="2.455278">
        <ele>26.547</ele>
        <time>2021-05-26T07:06:00Z</time>
      </trkpt>
      <trkpt lat="41.543524" lon="2.455257">
        <ele>26.911</ele>
        <time>2021-05-26T07:06:01Z</time>
      </trkpt>
      <trkpt lat="41.543549" lon="2.455247">
        <ele>27.108</ele>
        <time>2021-05-26T07:06:02Z</time>
      </trkpt>
      <trkpt lat="41.543575" lon="2.455237">
        <ele>27.331</ele>
        <time>2021-05-26T07:06:03Z</time>
      </trkpt>
      <trkpt lat="41.543600" lon="2.455227">
        <ele>27.578</ele>
        <time>2021-05-26T07:06:04Z</time>
      </trkpt>
      <trkpt lat="41.543626" lon="2.455215">
        <ele>27.745</ele>
        <time>2021-05-26T07:06:05Z</time>
      </trkpt>
      <trkpt lat="41.543650" lon="2.455203">
        <ele>27.858</ele>
        <time>2021-05-26T07:06:06Z</time>
      </trkpt>
      <trkpt lat="41.543677" lon="2.455189">
        <ele>28.013</ele>
        <time>2021-05-26T07:06:07Z</time>
      </trkpt>
      <trkpt lat="41.543704" lon="2.455177">
        <ele>28.289</ele>
        <time>2021-05-26T07:06:08Z</time>
      </trkpt>
      <trkpt lat="41.543728" lon="2.455168">
        <ele>28.476</ele>
        <time>2021-05-26T07:06:09Z</time>
      </trkpt>
      <trkpt lat="41.543751" lon="2.455159">
        <ele>28.573</ele>
        <time>2021-05-26T07:06:10Z</time>
      </trkpt>
      <trkpt lat="41.543794" lon="2.455143">
        <ele>28.839</ele>
        <time>2021-05-26T07:06:12Z</time>
      </trkpt>
      <trkpt lat="41.543817" lon="2.455135">
        <ele>28.901</ele>
        <time>2021-05-26T07:06:14Z</time>
      </trkpt>
      <trkpt lat="41.543840" lon="2.455126">
        <ele>29.121</ele>
        <time>2021-05-26T07:06:15Z</time>
      </trkpt>
      <trkpt lat="41.543890" lon="2.455108">
        <ele>29.408</ele>
        <time>2021-05-26T07:06:16Z</time>
      </trkpt>
      <trkpt lat="41.543915" lon="2.455097">
        <ele>29.640</ele>
        <time>2021-05-26T07:06:17Z</time>
      </trkpt>
      <trkpt lat="41.543937" lon="2.455085">
        <ele>29.887</ele>
        <time>2021-05-26T07:06:19Z</time>
      </trkpt>
      <trkpt lat="41.543956" lon="2.455075">
        <ele>29.964</ele>
        <time>2021-05-26T07:06:20Z</time>
      </trkpt>
      <trkpt lat="41.543976" lon="2.455062">
        <ele>30.197</ele>
        <time>2021-05-26T07:06:21Z</time>
      </trkpt>
      <trkpt lat="41.543997" lon="2.455048">
        <ele>30.342</ele>
        <time>2021-05-26T07:06:22Z</time>
      </trkpt>
      <trkpt lat="41.544019" lon="2.455038">
        <ele>30.558</ele>
        <time>2021-05-26T07:06:23Z</time>
      </trkpt>
      <trkpt lat="41.544038" lon="2.455029">
        <ele>30.645</ele>
        <time>2021-05-26T07:06:24Z</time>
      </trkpt>
      <trkpt lat="41.544097" lon="2.455009">
        <ele>30.992</ele>
        <time>2021-05-26T07:06:26Z</time>
      </trkpt>
      <trkpt lat="41.544119" lon="2.455001">
        <ele>31.073</ele>
        <time>2021-05-26T07:06:27Z</time>
      </trkpt>
      <trkpt lat="41.544138" lon="2.454994">
        <ele>31.085</ele>
        <time>2021-05-26T07:06:28Z</time>
      </trkpt>
      <trkpt lat="41.544162" lon="2.454987">
        <ele>31.013</ele>
        <time>2021-05-26T07:06:29Z</time>
      </trkpt>
      <trkpt lat="41.544184" lon="2.454980">
        <ele>31.108</ele>
        <time>2021-05-26T07:06:30Z</time>
      </trkpt>
      <trkpt lat="41.544204" lon="2.454973">
        <ele>31.154</ele>
        <time>2021-05-26T07:06:31Z</time>
      </trkpt>
      <trkpt lat="41.544225" lon="2.454964">
        <ele>31.111</ele>
        <time>2021-05-26T07:06:32Z</time>
      </trkpt>
      <trkpt lat="41.544246" lon="2.454955">
        <ele>31.228</ele>
        <time>2021-05-26T07:06:33Z</time>
      </trkpt>
      <trkpt lat="41.544267" lon="2.454947">
        <ele>31.241</ele>
        <time>2021-05-26T07:06:34Z</time>
      </trkpt>
      <trkpt lat="41.544290" lon="2.454935">
        <ele>31.256</ele>
        <time>2021-05-26T07:06:35Z</time>
      </trkpt>
      <trkpt lat="41.544312" lon="2.454925">
        <ele>31.332</ele>
        <time>2021-05-26T07:06:36Z</time>
      </trkpt>
      <trkpt lat="41.544333" lon="2.454915">
        <ele>31.379</ele>
        <time>2021-05-26T07:06:38Z</time>
      </trkpt>
      <trkpt lat="41.544352" lon="2.454907">
        <ele>31.316</ele>
        <time>2021-05-26T07:06:39Z</time>
      </trkpt>
      <trkpt lat="41.544372" lon="2.454897">
        <ele>31.474</ele>
        <time>2021-05-26T07:06:40Z</time>
      </trkpt>
      <trkpt lat="41.544393" lon="2.454885">
        <ele>31.456</ele>
        <time>2021-05-26T07:06:41Z</time>
      </trkpt>
      <trkpt lat="41.544415" lon="2.454881">
        <ele>31.421</ele>
        <time>2021-05-26T07:06:42Z</time>
      </trkpt>
      <trkpt lat="41.544461" lon="2.454865">
        <ele>31.508</ele>
        <time>2021-05-26T07:06:43Z</time>
      </trkpt>
      <trkpt lat="41.544485" lon="2.454859">
        <ele>31.764</ele>
        <time>2021-05-26T07:06:44Z</time>
      </trkpt>
      <trkpt lat="41.544515" lon="2.454851">
        <ele>31.811</ele>
        <time>2021-05-26T07:06:45Z</time>
      </trkpt>
      <trkpt lat="41.544544" lon="2.454840">
        <ele>31.958</ele>
        <time>2021-05-26T07:06:46Z</time>
      </trkpt>
      <trkpt lat="41.544568" lon="2.454832">
        <ele>32.021</ele>
        <time>2021-05-26T07:06:47Z</time>
      </trkpt>
      <trkpt lat="41.544591" lon="2.454825">
        <ele>32.256</ele>
        <time>2021-05-26T07:06:48Z</time>
      </trkpt>
      <trkpt lat="41.544611" lon="2.454817">
        <ele>32.352</ele>
        <time>2021-05-26T07:06:49Z</time>
      </trkpt>
      <trkpt lat="41.544634" lon="2.454806">
        <ele>32.479</ele>
        <time>2021-05-26T07:06:50Z</time>
      </trkpt>
      <trkpt lat="41.544663" lon="2.454794">
        <ele>32.516</ele>
        <time>2021-05-26T07:06:52Z</time>
      </trkpt>
      <trkpt lat="41.544681" lon="2.454783">
        <ele>32.647</ele>
        <time>2021-05-26T07:06:53Z</time>
      </trkpt>
      <trkpt lat="41.544701" lon="2.454774">
        <ele>32.729</ele>
        <time>2021-05-26T07:06:54Z</time>
      </trkpt>
      <trkpt lat="41.544721" lon="2.454769">
        <ele>32.821</ele>
        <time>2021-05-26T07:06:55Z</time>
      </trkpt>
      <trkpt lat="41.544742" lon="2.454757">
        <ele>33.008</ele>
        <time>2021-05-26T07:06:56Z</time>
      </trkpt>
      <trkpt lat="41.544785" lon="2.454734">
        <ele>33.211</ele>
        <time>2021-05-26T07:06:58Z</time>
      </trkpt>
      <trkpt lat="41.544828" lon="2.454711">
        <ele>33.418</ele>
        <time>2021-05-26T07:07:00Z</time>
      </trkpt>
      <trkpt lat="41.544854" lon="2.454697">
        <ele>33.625</ele>
        <time>2021-05-26T07:07:01Z</time>
      </trkpt>
      <trkpt lat="41.544883" lon="2.454683">
        <ele>33.768</ele>
        <time>2021-05-26T07:07:03Z</time>
      </trkpt>
      <trkpt lat="41.544910" lon="2.454670">
        <ele>33.943</ele>
        <time>2021-05-26T07:07:04Z</time>
      </trkpt>
      <trkpt lat="41.544961" lon="2.454646">
        <ele>34.379</ele>
        <time>2021-05-26T07:07:05Z</time>
      </trkpt>
      <trkpt lat="41.544987" lon="2.454637">
        <ele>34.536</ele>
        <time>2021-05-26T07:07:06Z</time>
      </trkpt>
      <trkpt lat="41.545013" lon="2.454630">
        <ele>34.763</ele>
        <time>2021-05-26T07:07:07Z</time>
      </trkpt>
      <trkpt lat="41.545044" lon="2.454621">
        <ele>34.759</ele>
        <time>2021-05-26T07:07:08Z</time>
      </trkpt>
      <trkpt lat="41.545072" lon="2.454615">
        <ele>34.803</ele>
        <time>2021-05-26T07:07:09Z</time>
      </trkpt>
      <trkpt lat="41.545101" lon="2.454608">
        <ele>34.823</ele>
        <time>2021-05-26T07:07:10Z</time>
      </trkpt>
      <trkpt lat="41.545129" lon="2.454601">
        <ele>34.908</ele>
        <time>2021-05-26T07:07:11Z</time>
      </trkpt>
      <trkpt lat="41.545157" lon="2.454591">
        <ele>34.912</ele>
        <time>2021-05-26T07:07:12Z</time>
      </trkpt>
      <trkpt lat="41.545183" lon="2.454578">
        <ele>35.039</ele>
        <time>2021-05-26T07:07:13Z</time>
      </trkpt>
      <trkpt lat="41.545209" lon="2.454571">
        <ele>35.176</ele>
        <time>2021-05-26T07:07:14Z</time>
      </trkpt>
      <trkpt lat="41.545233" lon="2.454559">
        <ele>35.229</ele>
        <time>2021-05-26T07:07:16Z</time>
      </trkpt>
      <trkpt lat="41.545257" lon="2.454551">
        <ele>35.254</ele>
        <time>2021-05-26T07:07:17Z</time>
      </trkpt>
      <trkpt lat="41.545284" lon="2.454543">
        <ele>35.320</ele>
        <time>2021-05-26T07:07:18Z</time>
      </trkpt>
      <trkpt lat="41.545309" lon="2.454533">
        <ele>35.327</ele>
        <time>2021-05-26T07:07:19Z</time>
      </trkpt>
      <trkpt lat="41.545361" lon="2.454512">
        <ele>35.414</ele>
        <time>2021-05-26T07:07:20Z</time>
      </trkpt>
      <trkpt lat="41.545384" lon="2.454503">
        <ele>35.449</ele>
        <time>2021-05-26T07:07:21Z</time>
      </trkpt>
      <trkpt lat="41.545408" lon="2.454491">
        <ele>35.402</ele>
        <time>2021-05-26T07:07:23Z</time>
      </trkpt>
      <trkpt lat="41.545429" lon="2.454479">
        <ele>35.322</ele>
        <time>2021-05-26T07:07:24Z</time>
      </trkpt>
      <trkpt lat="41.545477" lon="2.454460">
        <ele>35.308</ele>
        <time>2021-05-26T07:07:25Z</time>
      </trkpt>
      <trkpt lat="41.545498" lon="2.454450">
        <ele>35.261</ele>
        <time>2021-05-26T07:07:26Z</time>
      </trkpt>
      <trkpt lat="41.545525" lon="2.454440">
        <ele>35.218</ele>
        <time>2021-05-26T07:07:28Z</time>
      </trkpt>
      <trkpt lat="41.545550" lon="2.454430">
        <ele>35.245</ele>
        <time>2021-05-26T07:07:29Z</time>
      </trkpt>
      <trkpt lat="41.545576" lon="2.454420">
        <ele>35.668</ele>
        <time>2021-05-26T07:07:30Z</time>
      </trkpt>
      <trkpt lat="41.545621" lon="2.454403">
        <ele>36.343</ele>
        <time>2021-05-26T07:07:31Z</time>
      </trkpt>
      <trkpt lat="41.545644" lon="2.454395">
        <ele>36.649</ele>
        <time>2021-05-26T07:07:32Z</time>
      </trkpt>
      <trkpt lat="41.545670" lon="2.454390">
        <ele>36.976</ele>
        <time>2021-05-26T07:07:33Z</time>
      </trkpt>
      <trkpt lat="41.545711" lon="2.454373">
        <ele>37.643</ele>
        <time>2021-05-26T07:07:35Z</time>
      </trkpt>
      <trkpt lat="41.545760" lon="2.454354">
        <ele>38.364</ele>
        <time>2021-05-26T07:07:37Z</time>
      </trkpt>
      <trkpt lat="41.545782" lon="2.454344">
        <ele>38.606</ele>
        <time>2021-05-26T07:07:38Z</time>
      </trkpt>
      <trkpt lat="41.545808" lon="2.454337">
        <ele>38.916</ele>
        <time>2021-05-26T07:07:39Z</time>
      </trkpt>
      <trkpt lat="41.545830" lon="2.454326">
        <ele>39.208</ele>
        <time>2021-05-26T07:07:40Z</time>
      </trkpt>
      <trkpt lat="41.545857" lon="2.454315">
        <ele>39.763</ele>
        <time>2021-05-26T07:07:41Z</time>
      </trkpt>
      <trkpt lat="41.545881" lon="2.454305">
        <ele>40.180</ele>
        <time>2021-05-26T07:07:43Z</time>
      </trkpt>
      <trkpt lat="41.545903" lon="2.454294">
        <ele>40.527</ele>
        <time>2021-05-26T07:07:44Z</time>
      </trkpt>
      <trkpt lat="41.545947" lon="2.454276">
        <ele>41.220</ele>
        <time>2021-05-26T07:07:45Z</time>
      </trkpt>
      <trkpt lat="41.545983" lon="2.454245">
        <ele>41.995</ele>
        <time>2021-05-26T07:07:47Z</time>
      </trkpt>
      <trkpt lat="41.545998" lon="2.454231">
        <ele>42.281</ele>
        <time>2021-05-26T07:07:48Z</time>
      </trkpt>
      <trkpt lat="41.546034" lon="2.454226">
        <ele>42.788</ele>
        <time>2021-05-26T07:07:50Z</time>
      </trkpt>
      <trkpt lat="41.546054" lon="2.454240">
        <ele>42.815</ele>
        <time>2021-05-26T07:07:51Z</time>
      </trkpt>
      <trkpt lat="41.546074" lon="2.454268">
        <ele>42.898</ele>
        <time>2021-05-26T07:07:52Z</time>
      </trkpt>
      <trkpt lat="41.546099" lon="2.454346">
        <ele>42.515</ele>
        <time>2021-05-26T07:07:54Z</time>
      </trkpt>
      <trkpt lat="41.546108" lon="2.454388">
        <ele>42.426</ele>
        <time>2021-05-26T07:07:56Z</time>
      </trkpt>
      <trkpt lat="41.546138" lon="2.454463">
        <ele>41.908</ele>
        <time>2021-05-26T07:07:57Z</time>
      </trkpt>
      <trkpt lat="41.546156" lon="2.454487">
        <ele>41.796</ele>
        <time>2021-05-26T07:07:58Z</time>
      </trkpt>
      <trkpt lat="41.546173" lon="2.454508">
        <ele>41.673</ele>
        <time>2021-05-26T07:07:59Z</time>
      </trkpt>
      <trkpt lat="41.546191" lon="2.454533">
        <ele>41.520</ele>
        <time>2021-05-26T07:08:00Z</time>
      </trkpt>
      <trkpt lat="41.546211" lon="2.454557">
        <ele>41.373</ele>
        <time>2021-05-26T07:08:01Z</time>
      </trkpt>
      <trkpt lat="41.546229" lon="2.454579">
        <ele>41.248</ele>
        <time>2021-05-26T07:08:03Z</time>
      </trkpt>
      <trkpt lat="41.546265" lon="2.454627">
        <ele>41.014</ele>
        <time>2021-05-26T07:08:04Z</time>
      </trkpt>
      <trkpt lat="41.546280" lon="2.454656">
        <ele>40.971</ele>
        <time>2021-05-26T07:08:05Z</time>
      </trkpt>
      <trkpt lat="41.546295" lon="2.454686">
        <ele>40.868</ele>
        <time>2021-05-26T07:08:06Z</time>
      </trkpt>
      <trkpt lat="41.546323" lon="2.454737">
        <ele>40.887</ele>
        <time>2021-05-26T07:08:08Z</time>
      </trkpt>
      <trkpt lat="41.546338" lon="2.454767">
        <ele>40.942</ele>
        <time>2021-05-26T07:08:09Z</time>
      </trkpt>
      <trkpt lat="41.546354" lon="2.454798">
        <ele>40.926</ele>
        <time>2021-05-26T07:08:11Z</time>
      </trkpt>
      <trkpt lat="41.546369" lon="2.454829">
        <ele>41.008</ele>
        <time>2021-05-26T07:08:12Z</time>
      </trkpt>
      <trkpt lat="41.546383" lon="2.454857">
        <ele>41.055</ele>
        <time>2021-05-26T07:08:13Z</time>
      </trkpt>
      <trkpt lat="41.546398" lon="2.454886">
        <ele>41.062</ele>
        <time>2021-05-26T07:08:14Z</time>
      </trkpt>
      <trkpt lat="41.546427" lon="2.454948">
        <ele>41.059</ele>
        <time>2021-05-26T07:08:15Z</time>
      </trkpt>
      <trkpt lat="41.546443" lon="2.454979">
        <ele>41.062</ele>
        <time>2021-05-26T07:08:16Z</time>
      </trkpt>
      <trkpt lat="41.546459" lon="2.455002">
        <ele>41.017</ele>
        <time>2021-05-26T07:08:17Z</time>
      </trkpt>
      <trkpt lat="41.546476" lon="2.455026">
        <ele>41.093</ele>
        <time>2021-05-26T07:08:18Z</time>
      </trkpt>
      <trkpt lat="41.546506" lon="2.455081">
        <ele>41.010</ele>
        <time>2021-05-26T07:08:20Z</time>
      </trkpt>
      <trkpt lat="41.546539" lon="2.455139">
        <ele>41.047</ele>
        <time>2021-05-26T07:08:22Z</time>
      </trkpt>
      <trkpt lat="41.546556" lon="2.455170">
        <ele>41.048</ele>
        <time>2021-05-26T07:08:23Z</time>
      </trkpt>
      <trkpt lat="41.546571" lon="2.455201">
        <ele>41.061</ele>
        <time>2021-05-26T07:08:24Z</time>
      </trkpt>
      <trkpt lat="41.546585" lon="2.455233">
        <ele>41.017</ele>
        <time>2021-05-26T07:08:25Z</time>
      </trkpt>
      <trkpt lat="41.546599" lon="2.455264">
        <ele>41.008</ele>
        <time>2021-05-26T07:08:26Z</time>
      </trkpt>
      <trkpt lat="41.546616" lon="2.455291">
        <ele>41.041</ele>
        <time>2021-05-26T07:08:27Z</time>
      </trkpt>
      <trkpt lat="41.546633" lon="2.455314">
        <ele>41.198</ele>
        <time>2021-05-26T07:08:29Z</time>
      </trkpt>
      <trkpt lat="41.546651" lon="2.455335">
        <ele>41.285</ele>
        <time>2021-05-26T07:08:30Z</time>
      </trkpt>
      <trkpt lat="41.546670" lon="2.455353">
        <ele>41.388</ele>
        <time>2021-05-26T07:08:31Z</time>
      </trkpt>
      <trkpt lat="41.546687" lon="2.455374">
        <ele>41.563</ele>
        <time>2021-05-26T07:08:32Z</time>
      </trkpt>
      <trkpt lat="41.546720" lon="2.455424">
        <ele>41.839</ele>
        <time>2021-05-26T07:08:33Z</time>
      </trkpt>
      <trkpt lat="41.546757" lon="2.455473">
        <ele>42.136</ele>
        <time>2021-05-26T07:08:35Z</time>
      </trkpt>
      <trkpt lat="41.546775" lon="2.455498">
        <ele>42.383</ele>
        <time>2021-05-26T07:08:36Z</time>
      </trkpt>
      <trkpt lat="41.546795" lon="2.455521">
        <ele>42.445</ele>
        <time>2021-05-26T07:08:37Z</time>
      </trkpt>
      <trkpt lat="41.546815" lon="2.455543">
        <ele>42.547</ele>
        <time>2021-05-26T07:08:39Z</time>
      </trkpt>
      <trkpt lat="41.546854" lon="2.455590">
        <ele>42.711</ele>
        <time>2021-05-26T07:08:40Z</time>
      </trkpt>
      <trkpt lat="41.546890" lon="2.455638">
        <ele>42.908</ele>
        <time>2021-05-26T07:08:42Z</time>
      </trkpt>
      <trkpt lat="41.546907" lon="2.455664">
        <ele>42.951</ele>
        <time>2021-05-26T07:08:43Z</time>
      </trkpt>
      <trkpt lat="41.546924" lon="2.455690">
        <ele>43.038</ele>
        <time>2021-05-26T07:08:44Z</time>
      </trkpt>
      <trkpt lat="41.546939" lon="2.455718">
        <ele>43.045</ele>
        <time>2021-05-26T07:08:45Z</time>
      </trkpt>
      <trkpt lat="41.546959" lon="2.455742">
        <ele>43.038</ele>
        <time>2021-05-26T07:08:46Z</time>
      </trkpt>
      <trkpt lat="41.546979" lon="2.455767">
        <ele>43.033</ele>
        <time>2021-05-26T07:08:47Z</time>
      </trkpt>
      <trkpt lat="41.546995" lon="2.455788">
        <ele>43.069</ele>
        <time>2021-05-26T07:08:49Z</time>
      </trkpt>
      <trkpt lat="41.547013" lon="2.455810">
        <ele>43.066</ele>
        <time>2021-05-26T07:08:50Z</time>
      </trkpt>
      <trkpt lat="41.547031" lon="2.455831">
        <ele>43.053</ele>
        <time>2021-05-26T07:08:51Z</time>
      </trkpt>
      <trkpt lat="41.547069" lon="2.455879">
        <ele>43.061</ele>
        <time>2021-05-26T07:08:52Z</time>
      </trkpt>
      <trkpt lat="41.547089" lon="2.455897">
        <ele>43.021</ele>
        <time>2021-05-26T07:08:53Z</time>
      </trkpt>
      <trkpt lat="41.547108" lon="2.455918">
        <ele>43.013</ele>
        <time>2021-05-26T07:08:54Z</time>
      </trkpt>
      <trkpt lat="41.547125" lon="2.455943">
        <ele>43.008</ele>
        <time>2021-05-26T07:08:56Z</time>
      </trkpt>
      <trkpt lat="41.547158" lon="2.455994">
        <ele>43.063</ele>
        <time>2021-05-26T07:08:57Z</time>
      </trkpt>
      <trkpt lat="41.547175" lon="2.456018">
        <ele>43.090</ele>
        <time>2021-05-26T07:08:59Z</time>
      </trkpt>
      <trkpt lat="41.547192" lon="2.456042">
        <ele>43.027</ele>
        <time>2021-05-26T07:09:00Z</time>
      </trkpt>
      <trkpt lat="41.547227" lon="2.456088">
        <ele>43.080</ele>
        <time>2021-05-26T07:09:01Z</time>
      </trkpt>
      <trkpt lat="41.547242" lon="2.456114">
        <ele>43.195</ele>
        <time>2021-05-26T07:09:02Z</time>
      </trkpt>
      <trkpt lat="41.547259" lon="2.456140">
        <ele>43.121</ele>
        <time>2021-05-26T07:09:04Z</time>
      </trkpt>
      <trkpt lat="41.547279" lon="2.456162">
        <ele>43.298</ele>
        <time>2021-05-26T07:09:05Z</time>
      </trkpt>
      <trkpt lat="41.547316" lon="2.456209">
        <ele>43.295</ele>
        <time>2021-05-26T07:09:06Z</time>
      </trkpt>
      <trkpt lat="41.547333" lon="2.456233">
        <ele>43.222</ele>
        <time>2021-05-26T07:09:07Z</time>
      </trkpt>
      <trkpt lat="41.547352" lon="2.456256">
        <ele>43.262</ele>
        <time>2021-05-26T07:09:08Z</time>
      </trkpt>
      <trkpt lat="41.547370" lon="2.456279">
        <ele>43.208</ele>
        <time>2021-05-26T07:09:10Z</time>
      </trkpt>
      <trkpt lat="41.547387" lon="2.456303">
        <ele>43.208</ele>
        <time>2021-05-26T07:09:11Z</time>
      </trkpt>
      <trkpt lat="41.547404" lon="2.456328">
        <ele>43.179</ele>
        <time>2021-05-26T07:09:12Z</time>
      </trkpt>
      <trkpt lat="41.547419" lon="2.456350">
        <ele>43.116</ele>
        <time>2021-05-26T07:09:13Z</time>
      </trkpt>
      <trkpt lat="41.547435" lon="2.456371">
        <ele>43.063</ele>
        <time>2021-05-26T07:09:14Z</time>
      </trkpt>
      <trkpt lat="41.547451" lon="2.456393">
        <ele>43.026</ele>
        <time>2021-05-26T07:09:15Z</time>
      </trkpt>
      <trkpt lat="41.547482" lon="2.456436">
        <ele>43.021</ele>
        <time>2021-05-26T07:09:16Z</time>
      </trkpt>
      <trkpt lat="41.547496" lon="2.456459">
        <ele>43.057</ele>
        <time>2021-05-26T07:09:17Z</time>
      </trkpt>
      <trkpt lat="41.547511" lon="2.456480">
        <ele>43.134</ele>
        <time>2021-05-26T07:09:18Z</time>
      </trkpt>
      <trkpt lat="41.547526" lon="2.456502">
        <ele>43.331</ele>
        <time>2021-05-26T07:09:19Z</time>
      </trkpt>
      <trkpt lat="41.547540" lon="2.456525">
        <ele>43.479</ele>
        <time>2021-05-26T07:09:21Z</time>
      </trkpt>
      <trkpt lat="41.547568" lon="2.456568">
        <ele>43.705</ele>
        <time>2021-05-26T07:09:22Z</time>
      </trkpt>
      <trkpt lat="41.547582" lon="2.456590">
        <ele>43.925</ele>
        <time>2021-05-26T07:09:23Z</time>
      </trkpt>
      <trkpt lat="41.547595" lon="2.456614">
        <ele>44.008</ele>
        <time>2021-05-26T07:09:24Z</time>
      </trkpt>
      <trkpt lat="41.547609" lon="2.456639">
        <ele>44.234</ele>
        <time>2021-05-26T07:09:25Z</time>
      </trkpt>
      <trkpt lat="41.547622" lon="2.456664">
        <ele>44.351</ele>
        <time>2021-05-26T07:09:26Z</time>
      </trkpt>
      <trkpt lat="41.547635" lon="2.456686">
        <ele>44.568</ele>
        <time>2021-05-26T07:09:27Z</time>
      </trkpt>
      <trkpt lat="41.547650" lon="2.456708">
        <ele>44.641</ele>
        <time>2021-05-26T07:09:29Z</time>
      </trkpt>
      <trkpt lat="41.547677" lon="2.456749">
        <ele>44.896</ele>
        <time>2021-05-26T07:09:30Z</time>
      </trkpt>
      <trkpt lat="41.547690" lon="2.456771">
        <ele>44.922</ele>
        <time>2021-05-26T07:09:31Z</time>
      </trkpt>
      <trkpt lat="41.547703" lon="2.456795">
        <ele>45.029</ele>
        <time>2021-05-26T07:09:32Z</time>
      </trkpt>
      <trkpt lat="41.547716" lon="2.456821">
        <ele>45.046</ele>
        <time>2021-05-26T07:09:33Z</time>
      </trkpt>
      <trkpt lat="41.547730" lon="2.456843">
        <ele>45.165</ele>
        <time>2021-05-26T07:09:34Z</time>
      </trkpt>
      <trkpt lat="41.547742" lon="2.456868">
        <ele>45.168</ele>
        <time>2021-05-26T07:09:36Z</time>
      </trkpt>
      <trkpt lat="41.547753" lon="2.456891">
        <ele>45.114</ele>
        <time>2021-05-26T07:09:37Z</time>
      </trkpt>
      <trkpt lat="41.547780" lon="2.456938">
        <ele>45.108</ele>
        <time>2021-05-26T07:09:38Z</time>
      </trkpt>
      <trkpt lat="41.547793" lon="2.456962">
        <ele>45.323</ele>
        <time>2021-05-26T07:09:39Z</time>
      </trkpt>
      <trkpt lat="41.547805" lon="2.456985">
        <ele>45.590</ele>
        <time>2021-05-26T07:09:40Z</time>
      </trkpt>
      <trkpt lat="41.547818" lon="2.457009">
        <ele>45.767</ele>
        <time>2021-05-26T07:09:41Z</time>
      </trkpt>
      <trkpt lat="41.547832" lon="2.457030">
        <ele>46.010</ele>
        <time>2021-05-26T07:09:42Z</time>
      </trkpt>
      <trkpt lat="41.547845" lon="2.457053">
        <ele>46.225</ele>
        <time>2021-05-26T07:09:43Z</time>
      </trkpt>
      <trkpt lat="41.547859" lon="2.457080">
        <ele>46.491</ele>
        <time>2021-05-26T07:09:45Z</time>
      </trkpt>
      <trkpt lat="41.547889" lon="2.457134">
        <ele>46.748</ele>
        <time>2021-05-26T07:09:46Z</time>
      </trkpt>
      <trkpt lat="41.547903" lon="2.457164">
        <ele>46.915</ele>
        <time>2021-05-26T07:09:48Z</time>
      </trkpt>
      <trkpt lat="41.547933" lon="2.457216">
        <ele>47.162</ele>
        <time>2021-05-26T07:09:49Z</time>
      </trkpt>
      <trkpt lat="41.547947" lon="2.457242">
        <ele>47.283</ele>
        <time>2021-05-26T07:09:50Z</time>
      </trkpt>
      <trkpt lat="41.547960" lon="2.457263">
        <ele>47.211</ele>
        <time>2021-05-26T07:09:51Z</time>
      </trkpt>
      <trkpt lat="41.547975" lon="2.457283">
        <ele>47.308</ele>
        <time>2021-05-26T07:09:52Z</time>
      </trkpt>
      <trkpt lat="41.547989" lon="2.457303">
        <ele>47.393</ele>
        <time>2021-05-26T07:09:53Z</time>
      </trkpt>
      <trkpt lat="41.548005" lon="2.457326">
        <ele>47.340</ele>
        <time>2021-05-26T07:09:54Z</time>
      </trkpt>
      <trkpt lat="41.548020" lon="2.457350">
        <ele>47.367</ele>
        <time>2021-05-26T07:09:55Z</time>
      </trkpt>
      <trkpt lat="41.548035" lon="2.457374">
        <ele>47.330</ele>
        <time>2021-05-26T07:09:56Z</time>
      </trkpt>
      <trkpt lat="41.548051" lon="2.457400">
        <ele>47.395</ele>
        <time>2021-05-26T07:09:58Z</time>
      </trkpt>
      <trkpt lat="41.548086" lon="2.457447">
        <ele>47.371</ele>
        <time>2021-05-26T07:09:59Z</time>
      </trkpt>
      <trkpt lat="41.548104" lon="2.457472">
        <ele>47.398</ele>
        <time>2021-05-26T07:10:00Z</time>
      </trkpt>
      <trkpt lat="41.548122" lon="2.457497">
        <ele>47.265</ele>
        <time>2021-05-26T07:10:01Z</time>
      </trkpt>
      <trkpt lat="41.548142" lon="2.457521">
        <ele>47.386</ele>
        <time>2021-05-26T07:10:02Z</time>
      </trkpt>
      <trkpt lat="41.548160" lon="2.457547">
        <ele>47.460</ele>
        <time>2021-05-26T07:10:03Z</time>
      </trkpt>
      <trkpt lat="41.548179" lon="2.457570">
        <ele>47.426</ele>
        <time>2021-05-26T07:10:04Z</time>
      </trkpt>
      <trkpt lat="41.548199" lon="2.457594">
        <ele>47.508</ele>
        <time>2021-05-26T07:10:06Z</time>
      </trkpt>
      <trkpt lat="41.548240" lon="2.457638">
        <ele>47.715</ele>
        <time>2021-05-26T07:10:07Z</time>
      </trkpt>
      <trkpt lat="41.548260" lon="2.457662">
        <ele>47.762</ele>
        <time>2021-05-26T07:10:08Z</time>
      </trkpt>
      <trkpt lat="41.548279" lon="2.457684">
        <ele>47.879</ele>
        <time>2021-05-26T07:10:09Z</time>
      </trkpt>
      <trkpt lat="41.548298" lon="2.457706">
        <ele>47.982</ele>
        <time>2021-05-26T07:10:10Z</time>
      </trkpt>
      <trkpt lat="41.548317" lon="2.457729">
        <ele>47.947</ele>
        <time>2021-05-26T07:10:11Z</time>
      </trkpt>
      <trkpt lat="41.548335" lon="2.457753">
        <ele>48.033</ele>
        <time>2021-05-26T07:10:12Z</time>
      </trkpt>
      <trkpt lat="41.548355" lon="2.457776">
        <ele>48.060</ele>
        <time>2021-05-26T07:10:13Z</time>
      </trkpt>
      <trkpt lat="41.548372" lon="2.457800">
        <ele>47.987</ele>
        <time>2021-05-26T07:10:14Z</time>
      </trkpt>
      <trkpt lat="41.548389" lon="2.457822">
        <ele>47.921</ele>
        <time>2021-05-26T07:10:16Z</time>
      </trkpt>
      <trkpt lat="41.548406" lon="2.457844">
        <ele>47.841</ele>
        <time>2021-05-26T07:10:17Z</time>
      </trkpt>
      <trkpt lat="41.548422" lon="2.457868">
        <ele>47.805</ele>
        <time>2021-05-26T07:10:18Z</time>
      </trkpt>
      <trkpt lat="41.548439" lon="2.457889">
        <ele>47.808</ele>
        <time>2021-05-26T07:10:19Z</time>
      </trkpt>
      <trkpt lat="41.548474" lon="2.457932">
        <ele>47.729</ele>
        <time>2021-05-26T07:10:20Z</time>
      </trkpt>
      <trkpt lat="41.548491" lon="2.457952">
        <ele>47.786</ele>
        <time>2021-05-26T07:10:21Z</time>
      </trkpt>
      <trkpt lat="41.548508" lon="2.457973">
        <ele>47.713</ele>
        <time>2021-05-26T07:10:22Z</time>
      </trkpt>
      <trkpt lat="41.548524" lon="2.457995">
        <ele>47.866</ele>
        <time>2021-05-26T07:10:23Z</time>
      </trkpt>
      <trkpt lat="41.548541" lon="2.458017">
        <ele>47.851</ele>
        <time>2021-05-26T07:10:25Z</time>
      </trkpt>
      <trkpt lat="41.548557" lon="2.458040">
        <ele>47.897</ele>
        <time>2021-05-26T07:10:26Z</time>
      </trkpt>
      <trkpt lat="41.548573" lon="2.458063">
        <ele>47.844</ele>
        <time>2021-05-26T07:10:27Z</time>
      </trkpt>
      <trkpt lat="41.548605" lon="2.458112">
        <ele>47.841</ele>
        <time>2021-05-26T07:10:28Z</time>
      </trkpt>
      <trkpt lat="41.548620" lon="2.458136">
        <ele>47.787</ele>
        <time>2021-05-26T07:10:29Z</time>
      </trkpt>
      <trkpt lat="41.548636" lon="2.458158">
        <ele>47.742</ele>
        <time>2021-05-26T07:10:30Z</time>
      </trkpt>
      <trkpt lat="41.548652" lon="2.458178">
        <ele>47.726</ele>
        <time>2021-05-26T07:10:31Z</time>
      </trkpt>
      <trkpt lat="41.548665" lon="2.458203">
        <ele>47.708</ele>
        <time>2021-05-26T07:10:32Z</time>
      </trkpt>
      <trkpt lat="41.548679" lon="2.458229">
        <ele>47.655</ele>
        <time>2021-05-26T07:10:33Z</time>
      </trkpt>
      <trkpt lat="41.548695" lon="2.458254">
        <ele>47.632</ele>
        <time>2021-05-26T07:10:34Z</time>
      </trkpt>
      <trkpt lat="41.548713" lon="2.458277">
        <ele>47.699</ele>
        <time>2021-05-26T07:10:35Z</time>
      </trkpt>
      <trkpt lat="41.548731" lon="2.458302">
        <ele>47.542</ele>
        <time>2021-05-26T07:10:36Z</time>
      </trkpt>
      <trkpt lat="41.548747" lon="2.458327">
        <ele>47.547</ele>
        <time>2021-05-26T07:10:38Z</time>
      </trkpt>
      <trkpt lat="41.548763" lon="2.458355">
        <ele>47.493</ele>
        <time>2021-05-26T07:10:39Z</time>
      </trkpt>
      <trkpt lat="41.548794" lon="2.458413">
        <ele>47.340</ele>
        <time>2021-05-26T07:10:40Z</time>
      </trkpt>
      <trkpt lat="41.548811" lon="2.458441">
        <ele>47.257</ele>
        <time>2021-05-26T07:10:41Z</time>
      </trkpt>
      <trkpt lat="41.548826" lon="2.458470">
        <ele>47.229</ele>
        <time>2021-05-26T07:10:42Z</time>
      </trkpt>
      <trkpt lat="41.548843" lon="2.458496">
        <ele>47.200</ele>
        <time>2021-05-26T07:10:43Z</time>
      </trkpt>
      <trkpt lat="41.548857" lon="2.458524">
        <ele>47.120</ele>
        <time>2021-05-26T07:10:45Z</time>
      </trkpt>
      <trkpt lat="41.548884" lon="2.458586">
        <ele>47.108</ele>
        <time>2021-05-26T07:10:46Z</time>
      </trkpt>
      <trkpt lat="41.548898" lon="2.458618">
        <ele>47.029</ele>
        <time>2021-05-26T07:10:47Z</time>
      </trkpt>
      <trkpt lat="41.548911" lon="2.458651">
        <ele>46.796</ele>
        <time>2021-05-26T07:10:48Z</time>
      </trkpt>
      <trkpt lat="41.548924" lon="2.458682">
        <ele>46.583</ele>
        <time>2021-05-26T07:10:49Z</time>
      </trkpt>
      <trkpt lat="41.548938" lon="2.458713">
        <ele>46.336</ele>
        <time>2021-05-26T07:10:50Z</time>
      </trkpt>
      <trkpt lat="41.548955" lon="2.458745">
        <ele>46.271</ele>
        <time>2021-05-26T07:10:51Z</time>
      </trkpt>
      <trkpt lat="41.548972" lon="2.458777">
        <ele>46.037</ele>
        <time>2021-05-26T07:10:52Z</time>
      </trkpt>
      <trkpt lat="41.548988" lon="2.458809">
        <ele>45.814</ele>
        <time>2021-05-26T07:10:53Z</time>
      </trkpt>
      <trkpt lat="41.549001" lon="2.458845">
        <ele>45.781</ele>
        <time>2021-05-26T07:10:55Z</time>
      </trkpt>
      <trkpt lat="41.549019" lon="2.458876">
        <ele>45.579</ele>
        <time>2021-05-26T07:10:56Z</time>
      </trkpt>
      <trkpt lat="41.549036" lon="2.458906">
        <ele>45.505</ele>
        <time>2021-05-26T07:10:57Z</time>
      </trkpt>
      <trkpt lat="41.549054" lon="2.458935">
        <ele>45.525</ele>
        <time>2021-05-26T07:10:58Z</time>
      </trkpt>
      <trkpt lat="41.549071" lon="2.458967">
        <ele>45.608</ele>
        <time>2021-05-26T07:10:59Z</time>
      </trkpt>
      <trkpt lat="41.549089" lon="2.458997">
        <ele>45.674</ele>
        <time>2021-05-26T07:11:00Z</time>
      </trkpt>
      <trkpt lat="41.549106" lon="2.459031">
        <ele>45.741</ele>
        <time>2021-05-26T07:11:01Z</time>
      </trkpt>
      <trkpt lat="41.549140" lon="2.459088">
        <ele>45.878</ele>
        <time>2021-05-26T07:11:02Z</time>
      </trkpt>
      <trkpt lat="41.549157" lon="2.459119">
        <ele>45.951</ele>
        <time>2021-05-26T07:11:04Z</time>
      </trkpt>
      <trkpt lat="41.549174" lon="2.459148">
        <ele>46.046</ele>
        <time>2021-05-26T07:11:05Z</time>
      </trkpt>
      <trkpt lat="41.549192" lon="2.459174">
        <ele>46.172</ele>
        <time>2021-05-26T07:11:06Z</time>
      </trkpt>
      <trkpt lat="41.549211" lon="2.459198">
        <ele>46.029</ele>
        <time>2021-05-26T07:11:07Z</time>
      </trkpt>
      <trkpt lat="41.549231" lon="2.459221">
        <ele>46.036</ele>
        <time>2021-05-26T07:11:08Z</time>
      </trkpt>
      <trkpt lat="41.549251" lon="2.459241">
        <ele>46.027</ele>
        <time>2021-05-26T07:11:09Z</time>
      </trkpt>
      <trkpt lat="41.549271" lon="2.459263">
        <ele>46.068</ele>
        <time>2021-05-26T07:11:10Z</time>
      </trkpt>
      <trkpt lat="41.549291" lon="2.459284">
        <ele>46.014</ele>
        <time>2021-05-26T07:11:11Z</time>
      </trkpt>
      <trkpt lat="41.549311" lon="2.459308">
        <ele>46.008</ele>
        <time>2021-05-26T07:11:12Z</time>
      </trkpt>
      <trkpt lat="41.549332" lon="2.459334">
        <ele>46.029</ele>
        <time>2021-05-26T07:11:13Z</time>
      </trkpt>
      <trkpt lat="41.549352" lon="2.459356">
        <ele>46.076</ele>
        <time>2021-05-26T07:11:14Z</time>
      </trkpt>
      <trkpt lat="41.549374" lon="2.459378">
        <ele>46.013</ele>
        <time>2021-05-26T07:11:15Z</time>
      </trkpt>
      <trkpt lat="41.549394" lon="2.459400">
        <ele>46.046</ele>
        <time>2021-05-26T07:11:16Z</time>
      </trkpt>
      <trkpt lat="41.549415" lon="2.459423">
        <ele>46.051</ele>
        <time>2021-05-26T07:11:17Z</time>
      </trkpt>
      <trkpt lat="41.549459" lon="2.459462">
        <ele>46.077</ele>
        <time>2021-05-26T07:11:18Z</time>
      </trkpt>
      <trkpt lat="41.549480" lon="2.459485">
        <ele>46.014</ele>
        <time>2021-05-26T07:11:19Z</time>
      </trkpt>
      <trkpt lat="41.549501" lon="2.459508">
        <ele>46.011</ele>
        <time>2021-05-26T07:11:20Z</time>
      </trkpt>
      <trkpt lat="41.549522" lon="2.459530">
        <ele>45.982</ele>
        <time>2021-05-26T07:11:22Z</time>
      </trkpt>
      <trkpt lat="41.549560" lon="2.459574">
        <ele>45.843</ele>
        <time>2021-05-26T07:11:23Z</time>
      </trkpt>
      <trkpt lat="41.549579" lon="2.459596">
        <ele>45.717</ele>
        <time>2021-05-26T07:11:24Z</time>
      </trkpt>
      <trkpt lat="41.549600" lon="2.459617">
        <ele>45.708</ele>
        <time>2021-05-26T07:11:25Z</time>
      </trkpt>
      <trkpt lat="41.549621" lon="2.459638">
        <ele>45.655</ele>
        <time>2021-05-26T07:11:26Z</time>
      </trkpt>
      <trkpt lat="41.549642" lon="2.459657">
        <ele>45.542</ele>
        <time>2021-05-26T07:11:27Z</time>
      </trkpt>
      <trkpt lat="41.549663" lon="2.459682">
        <ele>45.319</ele>
        <time>2021-05-26T07:11:28Z</time>
      </trkpt>
      <trkpt lat="41.549685" lon="2.459705">
        <ele>45.272</ele>
        <time>2021-05-26T07:11:29Z</time>
      </trkpt>
      <trkpt lat="41.549708" lon="2.459729">
        <ele>45.057</ele>
        <time>2021-05-26T07:11:30Z</time>
      </trkpt>
      <trkpt lat="41.549730" lon="2.459752">
        <ele>44.963</ele>
        <time>2021-05-26T07:11:31Z</time>
      </trkpt>
      <trkpt lat="41.549752" lon="2.459775">
        <ele>44.980</ele>
        <time>2021-05-26T07:11:32Z</time>
      </trkpt>
      <trkpt lat="41.549771" lon="2.459803">
        <ele>44.817</ele>
        <time>2021-05-26T07:11:33Z</time>
      </trkpt>
      <trkpt lat="41.549791" lon="2.459828">
        <ele>44.833</ele>
        <time>2021-05-26T07:11:34Z</time>
      </trkpt>
      <trkpt lat="41.549811" lon="2.459854">
        <ele>44.723</ele>
        <time>2021-05-26T07:11:35Z</time>
      </trkpt>
      <trkpt lat="41.549832" lon="2.459879">
        <ele>44.615</ele>
        <time>2021-05-26T07:11:36Z</time>
      </trkpt>
      <trkpt lat="41.549851" lon="2.459904">
        <ele>44.508</ele>
        <time>2021-05-26T07:11:37Z</time>
      </trkpt>
      <trkpt lat="41.549873" lon="2.459930">
        <ele>44.470</ele>
        <time>2021-05-26T07:11:38Z</time>
      </trkpt>
      <trkpt lat="41.549893" lon="2.459954">
        <ele>44.357</ele>
        <time>2021-05-26T07:11:40Z</time>
      </trkpt>
      <trkpt lat="41.549915" lon="2.459975">
        <ele>44.284</ele>
        <time>2021-05-26T07:11:41Z</time>
      </trkpt>
      <trkpt lat="41.549937" lon="2.459998">
        <ele>44.087</ele>
        <time>2021-05-26T07:11:42Z</time>
      </trkpt>
      <trkpt lat="41.549979" lon="2.460044">
        <ele>43.872</ele>
        <time>2021-05-26T07:11:43Z</time>
      </trkpt>
      <trkpt lat="41.549999" lon="2.460068">
        <ele>43.848</ele>
        <time>2021-05-26T07:11:45Z</time>
      </trkpt>
      <trkpt lat="41.550021" lon="2.460092">
        <ele>43.985</ele>
        <time>2021-05-26T07:11:46Z</time>
      </trkpt>
      <trkpt lat="41.550042" lon="2.460113">
        <ele>44.032</ele>
        <time>2021-05-26T07:11:47Z</time>
      </trkpt>
      <trkpt lat="41.550064" lon="2.460133">
        <ele>44.239</ele>
        <time>2021-05-26T07:11:48Z</time>
      </trkpt>
      <trkpt lat="41.550085" lon="2.460156">
        <ele>44.401</ele>
        <time>2021-05-26T07:11:49Z</time>
      </trkpt>
      <trkpt lat="41.550106" lon="2.460180">
        <ele>44.521</ele>
        <time>2021-05-26T07:11:50Z</time>
      </trkpt>
      <trkpt lat="41.550127" lon="2.460204">
        <ele>44.608</ele>
        <time>2021-05-26T07:11:51Z</time>
      </trkpt>
      <trkpt lat="41.550148" lon="2.460229">
        <ele>44.830</ele>
        <time>2021-05-26T07:11:52Z</time>
      </trkpt>
      <trkpt lat="41.550168" lon="2.460255">
        <ele>44.977</ele>
        <time>2021-05-26T07:11:53Z</time>
      </trkpt>
      <trkpt lat="41.550188" lon="2.460280">
        <ele>45.094</ele>
        <time>2021-05-26T07:11:54Z</time>
      </trkpt>
      <trkpt lat="41.550207" lon="2.460307">
        <ele>45.127</ele>
        <time>2021-05-26T07:11:55Z</time>
      </trkpt>
      <trkpt lat="41.550226" lon="2.460331">
        <ele>45.132</ele>
        <time>2021-05-26T07:11:56Z</time>
      </trkpt>
      <trkpt lat="41.550246" lon="2.460355">
        <ele>45.188</ele>
        <time>2021-05-26T07:11:57Z</time>
      </trkpt>
      <trkpt lat="41.550266" lon="2.460379">
        <ele>45.295</ele>
        <time>2021-05-26T07:11:58Z</time>
      </trkpt>
      <trkpt lat="41.550285" lon="2.460406">
        <ele>45.152</ele>
        <time>2021-05-26T07:11:59Z</time>
      </trkpt>
      <trkpt lat="41.550303" lon="2.460435">
        <ele>45.088</ele>
        <time>2021-05-26T07:12:00Z</time>
      </trkpt>
      <trkpt lat="41.550320" lon="2.460462">
        <ele>45.024</ele>
        <time>2021-05-26T07:12:01Z</time>
      </trkpt>
      <trkpt lat="41.550338" lon="2.460491">
        <ele>44.926</ele>
        <time>2021-05-26T07:12:02Z</time>
      </trkpt>
      <trkpt lat="41.550356" lon="2.460519">
        <ele>44.808</ele>
        <time>2021-05-26T07:12:03Z</time>
      </trkpt>
      <trkpt lat="41.550374" lon="2.460546">
        <ele>44.835</ele>
        <time>2021-05-26T07:12:04Z</time>
      </trkpt>
      <trkpt lat="41.550390" lon="2.460573">
        <ele>44.892</ele>
        <time>2021-05-26T07:12:05Z</time>
      </trkpt>
      <trkpt lat="41.550407" lon="2.460602">
        <ele>44.999</ele>
        <time>2021-05-26T07:12:06Z</time>
      </trkpt>
      <trkpt lat="41.550423" lon="2.460630">
        <ele>45.092</ele>
        <time>2021-05-26T07:12:07Z</time>
      </trkpt>
      <trkpt lat="41.550439" lon="2.460661">
        <ele>45.217</ele>
        <time>2021-05-26T07:12:08Z</time>
      </trkpt>
      <trkpt lat="41.550456" lon="2.460691">
        <ele>45.393</ele>
        <time>2021-05-26T07:12:09Z</time>
      </trkpt>
      <trkpt lat="41.550473" lon="2.460720">
        <ele>45.470</ele>
        <time>2021-05-26T07:12:10Z</time>
      </trkpt>
      <trkpt lat="41.550491" lon="2.460750">
        <ele>45.597</ele>
        <time>2021-05-26T07:12:11Z</time>
      </trkpt>
      <trkpt lat="41.550507" lon="2.460780">
        <ele>45.662</ele>
        <time>2021-05-26T07:12:12Z</time>
      </trkpt>
      <trkpt lat="41.550524" lon="2.460809">
        <ele>45.883</ele>
        <time>2021-05-26T07:12:13Z</time>
      </trkpt>
      <trkpt lat="41.550541" lon="2.460834">
        <ele>45.911</ele>
        <time>2021-05-26T07:12:14Z</time>
      </trkpt>
      <trkpt lat="41.550559" lon="2.460862">
        <ele>46.008</ele>
        <time>2021-05-26T07:12:15Z</time>
      </trkpt>
      <trkpt lat="41.550576" lon="2.460888">
        <ele>46.133</ele>
        <time>2021-05-26T07:12:16Z</time>
      </trkpt>
      <trkpt lat="41.550592" lon="2.460916">
        <ele>46.230</ele>
        <time>2021-05-26T07:12:17Z</time>
      </trkpt>
      <trkpt lat="41.550622" lon="2.460973">
        <ele>46.457</ele>
        <time>2021-05-26T07:12:18Z</time>
      </trkpt>
      <trkpt lat="41.550640" lon="2.461001">
        <ele>46.470</ele>
        <time>2021-05-26T07:12:20Z</time>
      </trkpt>
      <trkpt lat="41.550676" lon="2.461052">
        <ele>46.585</ele>
        <time>2021-05-26T07:12:21Z</time>
      </trkpt>
      <trkpt lat="41.550694" lon="2.461082">
        <ele>46.671</ele>
        <time>2021-05-26T07:12:23Z</time>
      </trkpt>
      <trkpt lat="41.550713" lon="2.461112">
        <ele>46.688</ele>
        <time>2021-05-26T07:12:24Z</time>
      </trkpt>
      <trkpt lat="41.550730" lon="2.461142">
        <ele>46.685</ele>
        <time>2021-05-26T07:12:25Z</time>
      </trkpt>
      <trkpt lat="41.550745" lon="2.461170">
        <ele>46.691</ele>
        <time>2021-05-26T07:12:26Z</time>
      </trkpt>
      <trkpt lat="41.550761" lon="2.461197">
        <ele>46.781</ele>
        <time>2021-05-26T07:12:27Z</time>
      </trkpt>
      <trkpt lat="41.550777" lon="2.461227">
        <ele>46.719</ele>
        <time>2021-05-26T07:12:28Z</time>
      </trkpt>
      <trkpt lat="41.550793" lon="2.461255">
        <ele>46.808</ele>
        <time>2021-05-26T07:12:29Z</time>
      </trkpt>
      <trkpt lat="41.550810" lon="2.461280">
        <ele>46.996</ele>
        <time>2021-05-26T07:12:30Z</time>
      </trkpt>
      <trkpt lat="41.550849" lon="2.461333">
        <ele>47.183</ele>
        <time>2021-05-26T07:12:31Z</time>
      </trkpt>
      <trkpt lat="41.550868" lon="2.461360">
        <ele>47.140</ele>
        <time>2021-05-26T07:12:32Z</time>
      </trkpt>
      <trkpt lat="41.550886" lon="2.461386">
        <ele>47.233</ele>
        <time>2021-05-26T07:12:33Z</time>
      </trkpt>
      <trkpt lat="41.550903" lon="2.461413">
        <ele>47.268</ele>
        <time>2021-05-26T07:12:34Z</time>
      </trkpt>
      <trkpt lat="41.550920" lon="2.461439">
        <ele>47.194</ele>
        <time>2021-05-26T07:12:36Z</time>
      </trkpt>
      <trkpt lat="41.550955" lon="2.461490">
        <ele>47.161</ele>
        <time>2021-05-26T07:12:37Z</time>
      </trkpt>
      <trkpt lat="41.550970" lon="2.461518">
        <ele>47.028</ele>
        <time>2021-05-26T07:12:39Z</time>
      </trkpt>
      <trkpt lat="41.550987" lon="2.461547">
        <ele>47.015</ele>
        <time>2021-05-26T07:12:40Z</time>
      </trkpt>
      <trkpt lat="41.551003" lon="2.461576">
        <ele>46.965</ele>
        <time>2021-05-26T07:12:41Z</time>
      </trkpt>
      <trkpt lat="41.551020" lon="2.461603">
        <ele>46.911</ele>
        <time>2021-05-26T07:12:42Z</time>
      </trkpt>
      <trkpt lat="41.551039" lon="2.461630">
        <ele>46.908</ele>
        <time>2021-05-26T07:12:43Z</time>
      </trkpt>
      <trkpt lat="41.551059" lon="2.461656">
        <ele>46.938</ele>
        <time>2021-05-26T07:12:44Z</time>
      </trkpt>
      <trkpt lat="41.551078" lon="2.461683">
        <ele>46.835</ele>
        <time>2021-05-26T07:12:45Z</time>
      </trkpt>
      <trkpt lat="41.551099" lon="2.461708">
        <ele>46.822</ele>
        <time>2021-05-26T07:12:46Z</time>
      </trkpt>
      <trkpt lat="41.551114" lon="2.461734">
        <ele>46.855</ele>
        <time>2021-05-26T07:12:47Z</time>
      </trkpt>
      <trkpt lat="41.551130" lon="2.461762">
        <ele>46.780</ele>
        <time>2021-05-26T07:12:48Z</time>
      </trkpt>
      <trkpt lat="41.551147" lon="2.461791">
        <ele>46.666</ele>
        <time>2021-05-26T07:12:49Z</time>
      </trkpt>
      <trkpt lat="41.551185" lon="2.461846">
        <ele>46.423</ele>
        <time>2021-05-26T07:12:50Z</time>
      </trkpt>
      <trkpt lat="41.551201" lon="2.461874">
        <ele>46.350</ele>
        <time>2021-05-26T07:12:51Z</time>
      </trkpt>
      <trkpt lat="41.551219" lon="2.461900">
        <ele>46.248</ele>
        <time>2021-05-26T07:12:52Z</time>
      </trkpt>
      <trkpt lat="41.551237" lon="2.461927">
        <ele>46.161</ele>
        <time>2021-05-26T07:12:53Z</time>
      </trkpt>
      <trkpt lat="41.551257" lon="2.461954">
        <ele>45.917</ele>
        <time>2021-05-26T07:12:55Z</time>
      </trkpt>
      <trkpt lat="41.551273" lon="2.461982">
        <ele>45.708</ele>
        <time>2021-05-26T07:12:56Z</time>
      </trkpt>
      <trkpt lat="41.551292" lon="2.462013">
        <ele>45.531</ele>
        <time>2021-05-26T07:12:57Z</time>
      </trkpt>
      <trkpt lat="41.551312" lon="2.462040">
        <ele>45.358</ele>
        <time>2021-05-26T07:12:58Z</time>
      </trkpt>
      <trkpt lat="41.551348" lon="2.462096">
        <ele>44.985</ele>
        <time>2021-05-26T07:12:59Z</time>
      </trkpt>
      <trkpt lat="41.551365" lon="2.462121">
        <ele>44.748</ele>
        <time>2021-05-26T07:13:00Z</time>
      </trkpt>
      <trkpt lat="41.551382" lon="2.462147">
        <ele>44.593</ele>
        <time>2021-05-26T07:13:01Z</time>
      </trkpt>
      <trkpt lat="41.551400" lon="2.462175">
        <ele>44.389</ele>
        <time>2021-05-26T07:13:02Z</time>
      </trkpt>
      <trkpt lat="41.551418" lon="2.462202">
        <ele>44.156</ele>
        <time>2021-05-26T07:13:03Z</time>
      </trkpt>
      <trkpt lat="41.551436" lon="2.462227">
        <ele>44.053</ele>
        <time>2021-05-26T07:13:04Z</time>
      </trkpt>
      <trkpt lat="41.551453" lon="2.462255">
        <ele>43.878</ele>
        <time>2021-05-26T07:13:05Z</time>
      </trkpt>
      <trkpt lat="41.551470" lon="2.462282">
        <ele>43.633</ele>
        <time>2021-05-26T07:13:06Z</time>
      </trkpt>
      <trkpt lat="41.551486" lon="2.462307">
        <ele>43.526</ele>
        <time>2021-05-26T07:13:07Z</time>
      </trkpt>
      <trkpt lat="41.551504" lon="2.462333">
        <ele>43.408</ele>
        <time>2021-05-26T07:13:08Z</time>
      </trkpt>
      <trkpt lat="41.551521" lon="2.462357">
        <ele>43.314</ele>
        <time>2021-05-26T07:13:09Z</time>
      </trkpt>
      <trkpt lat="41.551539" lon="2.462385">
        <ele>43.191</ele>
        <time>2021-05-26T07:13:11Z</time>
      </trkpt>
      <trkpt lat="41.551557" lon="2.462408">
        <ele>43.188</ele>
        <time>2021-05-26T07:13:12Z</time>
      </trkpt>
      <trkpt lat="41.551576" lon="2.462435">
        <ele>43.021</ele>
        <time>2021-05-26T07:13:13Z</time>
      </trkpt>
      <trkpt lat="41.551594" lon="2.462459">
        <ele>42.976</ele>
        <time>2021-05-26T07:13:14Z</time>
      </trkpt>
      <trkpt lat="41.551610" lon="2.462485">
        <ele>42.992</ele>
        <time>2021-05-26T07:13:15Z</time>
      </trkpt>
      <trkpt lat="41.551647" lon="2.462535">
        <ele>42.989</ele>
        <time>2021-05-26T07:13:16Z</time>
      </trkpt>
      <trkpt lat="41.551665" lon="2.462561">
        <ele>43.076</ele>
        <time>2021-05-26T07:13:17Z</time>
      </trkpt>
      <trkpt lat="41.551681" lon="2.462591">
        <ele>43.185</ele>
        <time>2021-05-26T07:13:18Z</time>
      </trkpt>
      <trkpt lat="41.551698" lon="2.462620">
        <ele>43.289</ele>
        <time>2021-05-26T07:13:19Z</time>
      </trkpt>
      <trkpt lat="41.551731" lon="2.462680">
        <ele>43.517</ele>
        <time>2021-05-26T07:13:21Z</time>
      </trkpt>
      <trkpt lat="41.551753" lon="2.462706">
        <ele>43.608</ele>
        <time>2021-05-26T07:13:22Z</time>
      </trkpt>
      <trkpt lat="41.551774" lon="2.462733">
        <ele>43.835</ele>
        <time>2021-05-26T07:13:23Z</time>
      </trkpt>
      <trkpt lat="41.551792" lon="2.462760">
        <ele>43.992</ele>
        <time>2021-05-26T07:13:24Z</time>
      </trkpt>
      <trkpt lat="41.551829" lon="2.462810">
        <ele>44.129</ele>
        <time>2021-05-26T07:13:26Z</time>
      </trkpt>
      <trkpt lat="41.551847" lon="2.462837">
        <ele>44.232</ele>
        <time>2021-05-26T07:13:27Z</time>
      </trkpt>
      <trkpt lat="41.551866" lon="2.462863">
        <ele>44.267</ele>
        <time>2021-05-26T07:13:28Z</time>
      </trkpt>
      <trkpt lat="41.551884" lon="2.462886">
        <ele>44.313</ele>
        <time>2021-05-26T07:13:29Z</time>
      </trkpt>
      <trkpt lat="41.551902" lon="2.462908">
        <ele>44.310</ele>
        <time>2021-05-26T07:13:30Z</time>
      </trkpt>
      <trkpt lat="41.551933" lon="2.462966">
        <ele>44.317</ele>
        <time>2021-05-26T07:13:32Z</time>
      </trkpt>
      <trkpt lat="41.551938" lon="2.462999">
        <ele>44.231</ele>
        <time>2021-05-26T07:13:33Z</time>
      </trkpt>
      <trkpt lat="41.551940" lon="2.463032">
        <ele>44.161</ele>
        <time>2021-05-26T07:13:34Z</time>
      </trkpt>
      <trkpt lat="41.551935" lon="2.463065">
        <ele>43.907</ele>
        <time>2021-05-26T07:13:36Z</time>
      </trkpt>
      <trkpt lat="41.551914" lon="2.463138">
        <ele>43.608</ele>
        <time>2021-05-26T07:13:37Z</time>
      </trkpt>
      <trkpt lat="41.551902" lon="2.463173">
        <ele>43.440</ele>
        <time>2021-05-26T07:13:38Z</time>
      </trkpt>
      <trkpt lat="41.551906" lon="2.463213">
        <ele>43.367</ele>
        <time>2021-05-26T07:13:39Z</time>
      </trkpt>
      <trkpt lat="41.551935" lon="2.463290">
        <ele>43.184</ele>
        <time>2021-05-26T07:13:41Z</time>
      </trkpt>
      <trkpt lat="41.551951" lon="2.463319">
        <ele>43.197</ele>
        <time>2021-05-26T07:13:42Z</time>
      </trkpt>
      <trkpt lat="41.551967" lon="2.463343">
        <ele>43.112</ele>
        <time>2021-05-26T07:13:43Z</time>
      </trkpt>
      <trkpt lat="41.551949" lon="2.463315">
        <ele>43.168</ele>
        <time>2021-05-26T07:13:47Z</time>
      </trkpt>
      <trkpt lat="41.551925" lon="2.463292">
        <ele>43.195</ele>
        <time>2021-05-26T07:13:48Z</time>
      </trkpt>
      <trkpt lat="41.551898" lon="2.463285">
        <ele>43.092</ele>
        <time>2021-05-26T07:13:49Z</time>
      </trkpt>
      <trkpt lat="41.551876" lon="2.463305">
        <ele>42.941</ele>
        <time>2021-05-26T07:13:50Z</time>
      </trkpt>
      <trkpt lat="41.551858" lon="2.463335">
        <ele>42.781</ele>
        <time>2021-05-26T07:13:51Z</time>
      </trkpt>
      <trkpt lat="41.551842" lon="2.463368">
        <ele>42.409</ele>
        <time>2021-05-26T07:13:53Z</time>
      </trkpt>
      <trkpt lat="41.551831" lon="2.463402">
        <ele>42.108</ele>
        <time>2021-05-26T07:13:54Z</time>
      </trkpt>
      <trkpt lat="41.551818" lon="2.463478">
        <ele>41.591</ele>
        <time>2021-05-26T07:13:55Z</time>
      </trkpt>
      <trkpt lat="41.551814" lon="2.463509">
        <ele>41.348</ele>
        <time>2021-05-26T07:13:56Z</time>
      </trkpt>
      <trkpt lat="41.551797" lon="2.463566">
        <ele>40.885</ele>
        <time>2021-05-26T07:13:58Z</time>
      </trkpt>
      <trkpt lat="41.551787" lon="2.463601">
        <ele>40.578</ele>
        <time>2021-05-26T07:13:59Z</time>
      </trkpt>
      <trkpt lat="41.551776" lon="2.463638">
        <ele>40.453</ele>
        <time>2021-05-26T07:14:01Z</time>
      </trkpt>
      <trkpt lat="41.551759" lon="2.463714">
        <ele>40.279</ele>
        <time>2021-05-26T07:14:02Z</time>
      </trkpt>
      <trkpt lat="41.551749" lon="2.463750">
        <ele>40.146</ele>
        <time>2021-05-26T07:14:03Z</time>
      </trkpt>
      <trkpt lat="41.551738" lon="2.463787">
        <ele>40.183</ele>
        <time>2021-05-26T07:14:04Z</time>
      </trkpt>
      <trkpt lat="41.551728" lon="2.463824">
        <ele>40.113</ele>
        <time>2021-05-26T07:14:05Z</time>
      </trkpt>
      <trkpt lat="41.551719" lon="2.463861">
        <ele>40.043</ele>
        <time>2021-05-26T07:14:07Z</time>
      </trkpt>
      <trkpt lat="41.551709" lon="2.463897">
        <ele>40.007</ele>
        <time>2021-05-26T07:14:08Z</time>
      </trkpt>
      <trkpt lat="41.551703" lon="2.463936">
        <ele>40.008</ele>
        <time>2021-05-26T07:14:09Z</time>
      </trkpt>
      <trkpt lat="41.551696" lon="2.463976">
        <ele>40.048</ele>
        <time>2021-05-26T07:14:10Z</time>
      </trkpt>
      <trkpt lat="41.551683" lon="2.464051">
        <ele>40.045</ele>
        <time>2021-05-26T07:14:11Z</time>
      </trkpt>
      <trkpt lat="41.551670" lon="2.464089">
        <ele>40.012</ele>
        <time>2021-05-26T07:14:12Z</time>
      </trkpt>
      <trkpt lat="41.551661" lon="2.464123">
        <ele>40.045</ele>
        <time>2021-05-26T07:14:14Z</time>
      </trkpt>
      <trkpt lat="41.551653" lon="2.464163">
        <ele>40.030</ele>
        <time>2021-05-26T07:14:15Z</time>
      </trkpt>
      <trkpt lat="41.551636" lon="2.464244">
        <ele>40.216</ele>
        <time>2021-05-26T07:14:16Z</time>
      </trkpt>
      <trkpt lat="41.551625" lon="2.464282">
        <ele>40.383</ele>
        <time>2021-05-26T07:14:17Z</time>
      </trkpt>
      <trkpt lat="41.551616" lon="2.464319">
        <ele>40.340</ele>
        <time>2021-05-26T07:14:19Z</time>
      </trkpt>
      <trkpt lat="41.551601" lon="2.464392">
        <ele>40.429</ele>
        <time>2021-05-26T07:14:20Z</time>
      </trkpt>
      <trkpt lat="41.551588" lon="2.464470">
        <ele>40.400</ele>
        <time>2021-05-26T07:14:22Z</time>
      </trkpt>
      <trkpt lat="41.551585" lon="2.464556">
        <ele>40.320</ele>
        <time>2021-05-26T07:14:24Z</time>
      </trkpt>
      <trkpt lat="41.551585" lon="2.464597">
        <ele>40.308</ele>
        <time>2021-05-26T07:14:25Z</time>
      </trkpt>
      <trkpt lat="41.551588" lon="2.464671">
        <ele>40.239</ele>
        <time>2021-05-26T07:14:27Z</time>
      </trkpt>
      <trkpt lat="41.551593" lon="2.464708">
        <ele>40.226</ele>
        <time>2021-05-26T07:14:28Z</time>
      </trkpt>
      <trkpt lat="41.551604" lon="2.464741">
        <ele>40.333</ele>
        <time>2021-05-26T07:14:30Z</time>
      </trkpt>
      <trkpt lat="41.551615" lon="2.464773">
        <ele>40.356</ele>
        <time>2021-05-26T07:14:31Z</time>
      </trkpt>
      <trkpt lat="41.551626" lon="2.464812">
        <ele>40.351</ele>
        <time>2021-05-26T07:14:32Z</time>
      </trkpt>
      <trkpt lat="41.551631" lon="2.464851">
        <ele>40.377</ele>
        <time>2021-05-26T07:14:33Z</time>
      </trkpt>
      <trkpt lat="41.551650" lon="2.464916">
        <ele>40.274</ele>
        <time>2021-05-26T07:14:34Z</time>
      </trkpt>
      <trkpt lat="41.551662" lon="2.464945">
        <ele>40.251</ele>
        <time>2021-05-26T07:14:36Z</time>
      </trkpt>
      <trkpt lat="41.551674" lon="2.464978">
        <ele>40.173</ele>
        <time>2021-05-26T07:14:37Z</time>
      </trkpt>
      <trkpt lat="41.551684" lon="2.465014">
        <ele>39.985</ele>
        <time>2021-05-26T07:14:38Z</time>
      </trkpt>
      <trkpt lat="41.551693" lon="2.465049">
        <ele>39.913</ele>
        <time>2021-05-26T07:14:39Z</time>
      </trkpt>
      <trkpt lat="41.551703" lon="2.465083">
        <ele>39.908</ele>
        <time>2021-05-26T07:14:40Z</time>
      </trkpt>
      <trkpt lat="41.551713" lon="2.465115">
        <ele>39.894</ele>
        <time>2021-05-26T07:14:41Z</time>
      </trkpt>
      <trkpt lat="41.551722" lon="2.465146">
        <ele>39.851</ele>
        <time>2021-05-26T07:14:42Z</time>
      </trkpt>
      <trkpt lat="41.551731" lon="2.465181">
        <ele>39.848</ele>
        <time>2021-05-26T07:14:43Z</time>
      </trkpt>
      <trkpt lat="41.551741" lon="2.465215">
        <ele>39.731</ele>
        <time>2021-05-26T07:14:44Z</time>
      </trkpt>
      <trkpt lat="41.551750" lon="2.465247">
        <ele>39.776</ele>
        <time>2021-05-26T07:14:45Z</time>
      </trkpt>
      <trkpt lat="41.551769" lon="2.465318">
        <ele>39.632</ele>
        <time>2021-05-26T07:14:46Z</time>
      </trkpt>
      <trkpt lat="41.551777" lon="2.465356">
        <ele>39.649</ele>
        <time>2021-05-26T07:14:47Z</time>
      </trkpt>
      <trkpt lat="41.551784" lon="2.465392">
        <ele>39.636</ele>
        <time>2021-05-26T07:14:48Z</time>
      </trkpt>
      <trkpt lat="41.551793" lon="2.465432">
        <ele>39.554</ele>
        <time>2021-05-26T07:14:49Z</time>
      </trkpt>
      <trkpt lat="41.551802" lon="2.465469">
        <ele>39.556</ele>
        <time>2021-05-26T07:14:50Z</time>
      </trkpt>
      <trkpt lat="41.551811" lon="2.465505">
        <ele>39.511</ele>
        <time>2021-05-26T07:14:52Z</time>
      </trkpt>
      <trkpt lat="41.551820" lon="2.465541">
        <ele>39.408</ele>
        <time>2021-05-26T07:14:53Z</time>
      </trkpt>
      <trkpt lat="41.551828" lon="2.465577">
        <ele>39.442</ele>
        <time>2021-05-26T07:14:54Z</time>
      </trkpt>
      <trkpt lat="41.551836" lon="2.465616">
        <ele>39.339</ele>
        <time>2021-05-26T07:14:55Z</time>
      </trkpt>
      <trkpt lat="41.551845" lon="2.465651">
        <ele>39.276</ele>
        <time>2021-05-26T07:14:56Z</time>
      </trkpt>
      <trkpt lat="41.551852" lon="2.465690">
        <ele>39.269</ele>
        <time>2021-05-26T07:14:57Z</time>
      </trkpt>
      <trkpt lat="41.551859" lon="2.465727">
        <ele>39.114</ele>
        <time>2021-05-26T07:14:58Z</time>
      </trkpt>
      <trkpt lat="41.551865" lon="2.465763">
        <ele>39.120</ele>
        <time>2021-05-26T07:14:59Z</time>
      </trkpt>
      <trkpt lat="41.551881" lon="2.465834">
        <ele>39.097</ele>
        <time>2021-05-26T07:15:00Z</time>
      </trkpt>
      <trkpt lat="41.551889" lon="2.465871">
        <ele>38.964</ele>
        <time>2021-05-26T07:15:01Z</time>
      </trkpt>
      <trkpt lat="41.551895" lon="2.465908">
        <ele>38.925</ele>
        <time>2021-05-26T07:15:03Z</time>
      </trkpt>
      <trkpt lat="41.551907" lon="2.465984">
        <ele>38.926</ele>
        <time>2021-05-26T07:15:04Z</time>
      </trkpt>
      <trkpt lat="41.551914" lon="2.466020">
        <ele>38.908</ele>
        <time>2021-05-26T07:15:06Z</time>
      </trkpt>
      <trkpt lat="41.551921" lon="2.466055">
        <ele>38.908</ele>
        <time>2021-05-26T07:15:07Z</time>
      </trkpt>
      <trkpt lat="41.551927" lon="2.466091">
        <ele>38.989</ele>
        <time>2021-05-26T07:15:08Z</time>
      </trkpt>
      <trkpt lat="41.551944" lon="2.466147">
        <ele>38.766</ele>
        <time>2021-05-26T07:15:09Z</time>
      </trkpt>
      <trkpt lat="41.551984" lon="2.466167">
        <ele>38.723</ele>
        <time>2021-05-26T07:15:11Z</time>
      </trkpt>
      <trkpt lat="41.552006" lon="2.466169">
        <ele>38.796</ele>
        <time>2021-05-26T07:15:12Z</time>
      </trkpt>
      <trkpt lat="41.552030" lon="2.466169">
        <ele>38.741</ele>
        <time>2021-05-26T07:15:13Z</time>
      </trkpt>
      <trkpt lat="41.552054" lon="2.466167">
        <ele>38.857</ele>
        <time>2021-05-26T07:15:14Z</time>
      </trkpt>
      <trkpt lat="41.552077" lon="2.466165">
        <ele>38.854</ele>
        <time>2021-05-26T07:15:16Z</time>
      </trkpt>
      <trkpt lat="41.552100" lon="2.466164">
        <ele>38.851</ele>
        <time>2021-05-26T07:15:17Z</time>
      </trkpt>
      <trkpt lat="41.552147" lon="2.466159">
        <ele>38.987</ele>
        <time>2021-05-26T07:15:18Z</time>
      </trkpt>
      <trkpt lat="41.552170" lon="2.466157">
        <ele>38.942</ele>
        <time>2021-05-26T07:15:19Z</time>
      </trkpt>
      <trkpt lat="41.552194" lon="2.466155">
        <ele>39.026</ele>
        <time>2021-05-26T07:15:20Z</time>
      </trkpt>
      <trkpt lat="41.552218" lon="2.466155">
        <ele>39.008</ele>
        <time>2021-05-26T07:15:21Z</time>
      </trkpt>
      <trkpt lat="41.552268" lon="2.466152">
        <ele>39.465</ele>
        <time>2021-05-26T07:15:23Z</time>
      </trkpt>
      <trkpt lat="41.552290" lon="2.466151">
        <ele>39.562</ele>
        <time>2021-05-26T07:15:24Z</time>
      </trkpt>
      <trkpt lat="41.552315" lon="2.466149">
        <ele>39.779</ele>
        <time>2021-05-26T07:15:25Z</time>
      </trkpt>
      <trkpt lat="41.552339" lon="2.466150">
        <ele>39.952</ele>
        <time>2021-05-26T07:15:26Z</time>
      </trkpt>
      <trkpt lat="41.552364" lon="2.466149">
        <ele>40.147</ele>
        <time>2021-05-26T07:15:27Z</time>
      </trkpt>
      <trkpt lat="41.552390" lon="2.466148">
        <ele>40.323</ele>
        <time>2021-05-26T07:15:28Z</time>
      </trkpt>
      <trkpt lat="41.552419" lon="2.466147">
        <ele>40.540</ele>
        <time>2021-05-26T07:15:30Z</time>
      </trkpt>
      <trkpt lat="41.552469" lon="2.466146">
        <ele>40.917</ele>
        <time>2021-05-26T07:15:31Z</time>
      </trkpt>
      <trkpt lat="41.552516" lon="2.466147">
        <ele>41.313</ele>
        <time>2021-05-26T07:15:33Z</time>
      </trkpt>
      <trkpt lat="41.552540" lon="2.466149">
        <ele>41.443</ele>
        <time>2021-05-26T07:15:34Z</time>
      </trkpt>
      <trkpt lat="41.552566" lon="2.466152">
        <ele>41.707</ele>
        <time>2021-05-26T07:15:35Z</time>
      </trkpt>
      <trkpt lat="41.552593" lon="2.466157">
        <ele>41.908</ele>
        <time>2021-05-26T07:15:37Z</time>
      </trkpt>
      <trkpt lat="41.552647" lon="2.466166">
        <ele>42.498</ele>
        <time>2021-05-26T07:15:38Z</time>
      </trkpt>
      <trkpt lat="41.552673" lon="2.466169">
        <ele>42.695</ele>
        <time>2021-05-26T07:15:39Z</time>
      </trkpt>
      <trkpt lat="41.552698" lon="2.466172">
        <ele>42.862</ele>
        <time>2021-05-26T07:15:40Z</time>
      </trkpt>
      <trkpt lat="41.552722" lon="2.466174">
        <ele>43.075</ele>
        <time>2021-05-26T07:15:41Z</time>
      </trkpt>
      <trkpt lat="41.552746" lon="2.466176">
        <ele>43.210</ele>
        <time>2021-05-26T07:15:43Z</time>
      </trkpt>
      <trkpt lat="41.552768" lon="2.466178">
        <ele>43.476</ele>
        <time>2021-05-26T07:15:44Z</time>
      </trkpt>
      <trkpt lat="41.552789" lon="2.466181">
        <ele>43.633</ele>
        <time>2021-05-26T07:15:45Z</time>
      </trkpt>
      <trkpt lat="41.552808" lon="2.466185">
        <ele>43.890</ele>
        <time>2021-05-26T07:15:46Z</time>
      </trkpt>
      <trkpt lat="41.552831" lon="2.466187">
        <ele>43.944</ele>
        <time>2021-05-26T07:15:47Z</time>
      </trkpt>
      <trkpt lat="41.552854" lon="2.466187">
        <ele>44.105</ele>
        <time>2021-05-26T07:15:48Z</time>
      </trkpt>
      <trkpt lat="41.552879" lon="2.466187">
        <ele>44.315</ele>
        <time>2021-05-26T07:15:49Z</time>
      </trkpt>
      <trkpt lat="41.552903" lon="2.466187">
        <ele>44.408</ele>
        <time>2021-05-26T07:15:50Z</time>
      </trkpt>
      <trkpt lat="41.552952" lon="2.466193">
        <ele>44.831</ele>
        <time>2021-05-26T07:15:51Z</time>
      </trkpt>
      <trkpt lat="41.552994" lon="2.466200">
        <ele>45.228</ele>
        <time>2021-05-26T07:15:53Z</time>
      </trkpt>
      <trkpt lat="41.553015" lon="2.466208">
        <ele>45.495</ele>
        <time>2021-05-26T07:15:55Z</time>
      </trkpt>
      <trkpt lat="41.553035" lon="2.466215">
        <ele>45.698</ele>
        <time>2021-05-26T07:15:56Z</time>
      </trkpt>
      <trkpt lat="41.553056" lon="2.466222">
        <ele>45.843</ele>
        <time>2021-05-26T07:15:57Z</time>
      </trkpt>
      <trkpt lat="41.553077" lon="2.466231">
        <ele>46.289</ele>
        <time>2021-05-26T07:15:58Z</time>
      </trkpt>
      <trkpt lat="41.553099" lon="2.466240">
        <ele>46.786</ele>
        <time>2021-05-26T07:15:59Z</time>
      </trkpt>
      <trkpt lat="41.553138" lon="2.466260">
        <ele>47.683</ele>
        <time>2021-05-26T07:16:00Z</time>
      </trkpt>
      <trkpt lat="41.553168" lon="2.466271">
        <ele>48.225</ele>
        <time>2021-05-26T07:16:02Z</time>
      </trkpt>
      <trkpt lat="41.553195" lon="2.466287">
        <ele>48.826</ele>
        <time>2021-05-26T07:16:04Z</time>
      </trkpt>
      <trkpt lat="41.553212" lon="2.466293">
        <ele>49.108</ele>
        <time>2021-05-26T07:16:05Z</time>
      </trkpt>
      <trkpt lat="41.553233" lon="2.466300">
        <ele>49.608</ele>
        <time>2021-05-26T07:16:07Z</time>
      </trkpt>
      <trkpt lat="41.553270" lon="2.466320">
        <ele>50.439</ele>
        <time>2021-05-26T07:16:08Z</time>
      </trkpt>
      <trkpt lat="41.553291" lon="2.466329">
        <ele>50.826</ele>
        <time>2021-05-26T07:16:09Z</time>
      </trkpt>
      <trkpt lat="41.553325" lon="2.466338">
        <ele>51.513</ele>
        <time>2021-05-26T07:16:11Z</time>
      </trkpt>
      <trkpt lat="41.553342" lon="2.466346">
        <ele>51.956</ele>
        <time>2021-05-26T07:16:12Z</time>
      </trkpt>
      <trkpt lat="41.553374" lon="2.466357">
        <ele>52.681</ele>
        <time>2021-05-26T07:16:14Z</time>
      </trkpt>
      <trkpt lat="41.553393" lon="2.466359">
        <ele>53.047</ele>
        <time>2021-05-26T07:16:15Z</time>
      </trkpt>
      <trkpt lat="41.553411" lon="2.466360">
        <ele>53.424</ele>
        <time>2021-05-26T07:16:16Z</time>
      </trkpt>
      <trkpt lat="41.553430" lon="2.466361">
        <ele>53.921</ele>
        <time>2021-05-26T07:16:17Z</time>
      </trkpt>
      <trkpt lat="41.553448" lon="2.466362">
        <ele>54.262</ele>
        <time>2021-05-26T07:16:18Z</time>
      </trkpt>
      <trkpt lat="41.553468" lon="2.466358">
        <ele>54.683</ele>
        <time>2021-05-26T07:16:19Z</time>
      </trkpt>
      <trkpt lat="41.553580" lon="2.466356">
        <ele>57.011</ele>
        <time>2021-05-26T07:16:26Z</time>
      </trkpt>
      <trkpt lat="41.553689" lon="2.466380">
        <ele>59.308</ele>
        <time>2021-05-26T07:16:30Z</time>
      </trkpt>
      <trkpt lat="41.553780" lon="2.466349">
        <ele>60.783</ele>
        <time>2021-05-26T07:16:34Z</time>
      </trkpt>
      <trkpt lat="41.553879" lon="2.466353">
        <ele>62.630</ele>
        <time>2021-05-26T07:16:39Z</time>
      </trkpt>
      <trkpt lat="41.553980" lon="2.466385">
        <ele>62.797</ele>
        <time>2021-05-26T07:16:44Z</time>
      </trkpt>
      <trkpt lat="41.554067" lon="2.466416">
        <ele>62.690</ele>
        <time>2021-05-26T07:16:48Z</time>
      </trkpt>
      <trkpt lat="41.554180" lon="2.466402">
        <ele>62.155</ele>
        <time>2021-05-26T07:16:52Z</time>
      </trkpt>
      <trkpt lat="41.554310" lon="2.466408">
        <ele>62.571</ele>
        <time>2021-05-26T07:16:56Z</time>
      </trkpt>
      <trkpt lat="41.554418" lon="2.466440">
        <ele>62.888</ele>
        <time>2021-05-26T07:16:59Z</time>
      </trkpt>
      <trkpt lat="41.554514" lon="2.466480">
        <ele>63.295</ele>
        <time>2021-05-26T07:17:04Z</time>
      </trkpt>
      <trkpt lat="41.554618" lon="2.466518">
        <ele>63.537</ele>
        <time>2021-05-26T07:17:07Z</time>
      </trkpt>
      <trkpt lat="41.554648" lon="2.466527">
        <ele>63.649</ele>
        <time>2021-05-26T07:17:08Z</time>
      </trkpt>
      <trkpt lat="41.554720" lon="2.466535">
        <ele>63.913</ele>
        <time>2021-05-26T07:17:11Z</time>
      </trkpt>
      <trkpt lat="41.554744" lon="2.466527">
        <ele>64.308</ele>
        <time>2021-05-26T07:17:13Z</time>
      </trkpt>
      <trkpt lat="41.554784" lon="2.466516">
        <ele>65.190</ele>
        <time>2021-05-26T07:17:15Z</time>
      </trkpt>
      <trkpt lat="41.554816" lon="2.466501">
        <ele>65.767</ele>
        <time>2021-05-26T07:17:17Z</time>
      </trkpt>
      <trkpt lat="41.554855" lon="2.466508">
        <ele>66.294</ele>
        <time>2021-05-26T07:17:19Z</time>
      </trkpt>
      <trkpt lat="41.554922" lon="2.466595">
        <ele>65.927</ele>
        <time>2021-05-26T07:17:25Z</time>
      </trkpt>
      <trkpt lat="41.554939" lon="2.466734">
        <ele>65.542</ele>
        <time>2021-05-26T07:17:30Z</time>
      </trkpt>
      <trkpt lat="41.554948" lon="2.466794">
        <ele>66.038</ele>
        <time>2021-05-26T07:17:31Z</time>
      </trkpt>
      <trkpt lat="41.554954" lon="2.466829">
        <ele>66.255</ele>
        <time>2021-05-26T07:17:33Z</time>
      </trkpt>
      <trkpt lat="41.554948" lon="2.466858">
        <ele>66.362</ele>
        <time>2021-05-26T07:17:35Z</time>
      </trkpt>
      <trkpt lat="41.554946" lon="2.466886">
        <ele>66.527</ele>
        <time>2021-05-26T07:17:37Z</time>
      </trkpt>
      <trkpt lat="41.554955" lon="2.466916">
        <ele>66.768</ele>
        <time>2021-05-26T07:17:41Z</time>
      </trkpt>
      <trkpt lat="41.554957" lon="2.466947">
        <ele>66.914</ele>
        <time>2021-05-26T07:17:43Z</time>
      </trkpt>
      <trkpt lat="41.554956" lon="2.466973">
        <ele>67.408</ele>
        <time>2021-05-26T07:17:45Z</time>
      </trkpt>
      <trkpt lat="41.554958" lon="2.467006">
        <ele>68.029</ele>
        <time>2021-05-26T07:17:46Z</time>
      </trkpt>
      <trkpt lat="41.554968" lon="2.467040">
        <ele>68.656</ele>
        <time>2021-05-26T07:17:48Z</time>
      </trkpt>
      <trkpt lat="41.554986" lon="2.467075">
        <ele>69.353</ele>
        <time>2021-05-26T07:17:51Z</time>
      </trkpt>
      <trkpt lat="41.555007" lon="2.467098">
        <ele>69.936</ele>
        <time>2021-05-26T07:17:53Z</time>
      </trkpt>
      <trkpt lat="41.555031" lon="2.467115">
        <ele>70.471</ele>
        <time>2021-05-26T07:17:56Z</time>
      </trkpt>
      <trkpt lat="41.555054" lon="2.467131">
        <ele>71.047</ele>
        <time>2021-05-26T07:17:58Z</time>
      </trkpt>
      <trkpt lat="41.555074" lon="2.467142">
        <ele>71.414</ele>
        <time>2021-05-26T07:17:59Z</time>
      </trkpt>
      <trkpt lat="41.555097" lon="2.467154">
        <ele>71.931</ele>
        <time>2021-05-26T07:18:01Z</time>
      </trkpt>
      <trkpt lat="41.555117" lon="2.467177">
        <ele>72.516</ele>
        <time>2021-05-26T07:18:03Z</time>
      </trkpt>
      <trkpt lat="41.555135" lon="2.467193">
        <ele>73.076</ele>
        <time>2021-05-26T07:18:05Z</time>
      </trkpt>
      <trkpt lat="41.555154" lon="2.467215">
        <ele>73.513</ele>
        <time>2021-05-26T07:18:10Z</time>
      </trkpt>
      <trkpt lat="41.555160" lon="2.467237">
        <ele>74.108</ele>
        <time>2021-05-26T07:18:11Z</time>
      </trkpt>
      <trkpt lat="41.555180" lon="2.467262">
        <ele>74.998</ele>
        <time>2021-05-26T07:18:15Z</time>
      </trkpt>
      <trkpt lat="41.555192" lon="2.467282">
        <ele>75.435</ele>
        <time>2021-05-26T07:18:16Z</time>
      </trkpt>
      <trkpt lat="41.555207" lon="2.467299">
        <ele>76.022</ele>
        <time>2021-05-26T07:18:19Z</time>
      </trkpt>
      <trkpt lat="41.555223" lon="2.467314">
        <ele>76.515</ele>
        <time>2021-05-26T07:18:22Z</time>
      </trkpt>
      <trkpt lat="41.555243" lon="2.467329">
        <ele>77.050</ele>
        <time>2021-05-26T07:18:26Z</time>
      </trkpt>
      <trkpt lat="41.555261" lon="2.467350">
        <ele>77.626</ele>
        <time>2021-05-26T07:18:28Z</time>
      </trkpt>
      <trkpt lat="41.555276" lon="2.467368">
        <ele>78.193</ele>
        <time>2021-05-26T07:18:31Z</time>
      </trkpt>
      <trkpt lat="41.555290" lon="2.467388">
        <ele>78.930</ele>
        <time>2021-05-26T07:18:35Z</time>
      </trkpt>
      <trkpt lat="41.555304" lon="2.467404">
        <ele>79.667</ele>
        <time>2021-05-26T07:18:39Z</time>
      </trkpt>
      <trkpt lat="41.555323" lon="2.467408">
        <ele>80.281</ele>
        <time>2021-05-26T07:18:41Z</time>
      </trkpt>
      <trkpt lat="41.555343" lon="2.467421">
        <ele>80.919</ele>
        <time>2021-05-26T07:18:46Z</time>
      </trkpt>
      <trkpt lat="41.555366" lon="2.467425">
        <ele>81.608</ele>
        <time>2021-05-26T07:18:50Z</time>
      </trkpt>
      <trkpt lat="41.555384" lon="2.467420">
        <ele>81.913</ele>
        <time>2021-05-26T07:18:51Z</time>
      </trkpt>
      <trkpt lat="41.555405" lon="2.467419">
        <ele>82.510</ele>
        <time>2021-05-26T07:18:55Z</time>
      </trkpt>
      <trkpt lat="41.555423" lon="2.467424">
        <ele>83.057</ele>
        <time>2021-05-26T07:18:58Z</time>
      </trkpt>
      <trkpt lat="41.555447" lon="2.467430">
        <ele>83.830</ele>
        <time>2021-05-26T07:19:01Z</time>
      </trkpt>
      <trkpt lat="41.555465" lon="2.467432">
        <ele>84.295</ele>
        <time>2021-05-26T07:19:02Z</time>
      </trkpt>
      <trkpt lat="41.555484" lon="2.467451">
        <ele>85.181</ele>
        <time>2021-05-26T07:19:06Z</time>
      </trkpt>
      <trkpt lat="41.555508" lon="2.467466">
        <ele>86.198</ele>
        <time>2021-05-26T07:19:09Z</time>
      </trkpt>
      <trkpt lat="41.555528" lon="2.467474">
        <ele>86.795</ele>
        <time>2021-05-26T07:19:11Z</time>
      </trkpt>
      <trkpt lat="41.555547" lon="2.467488">
        <ele>87.514</ele>
        <time>2021-05-26T07:19:13Z</time>
      </trkpt>
      <trkpt lat="41.555560" lon="2.467508">
        <ele>88.154</ele>
        <time>2021-05-26T07:19:15Z</time>
      </trkpt>
      <trkpt lat="41.555570" lon="2.467534">
        <ele>88.609</ele>
        <time>2021-05-26T07:19:17Z</time>
      </trkpt>
      <trkpt lat="41.555587" lon="2.467560">
        <ele>89.108</ele>
        <time>2021-05-26T07:19:18Z</time>
      </trkpt>
      <trkpt lat="41.555599" lon="2.467589">
        <ele>89.568</ele>
        <time>2021-05-26T07:19:21Z</time>
      </trkpt>
      <trkpt lat="41.555615" lon="2.467622">
        <ele>90.095</ele>
        <time>2021-05-26T07:19:23Z</time>
      </trkpt>
      <trkpt lat="41.555632" lon="2.467652">
        <ele>90.432</ele>
        <time>2021-05-26T07:19:25Z</time>
      </trkpt>
      <trkpt lat="41.555657" lon="2.467678">
        <ele>90.985</ele>
        <time>2021-05-26T07:19:27Z</time>
      </trkpt>
      <trkpt lat="41.555689" lon="2.467695">
        <ele>91.450</ele>
        <time>2021-05-26T07:19:28Z</time>
      </trkpt>
      <trkpt lat="41.555713" lon="2.467716">
        <ele>91.786</ele>
        <time>2021-05-26T07:19:30Z</time>
      </trkpt>
      <trkpt lat="41.555734" lon="2.467745">
        <ele>92.193</ele>
        <time>2021-05-26T07:19:32Z</time>
      </trkpt>
      <trkpt lat="41.555759" lon="2.467765">
        <ele>92.430</ele>
        <time>2021-05-26T07:19:34Z</time>
      </trkpt>
      <trkpt lat="41.555779" lon="2.467785">
        <ele>92.734</ele>
        <time>2021-05-26T07:19:37Z</time>
      </trkpt>
      <trkpt lat="41.555804" lon="2.467801">
        <ele>92.955</ele>
        <time>2021-05-26T07:19:39Z</time>
      </trkpt>
      <trkpt lat="41.555819" lon="2.467827">
        <ele>93.110</ele>
        <time>2021-05-26T07:19:40Z</time>
      </trkpt>
      <trkpt lat="41.555834" lon="2.467846">
        <ele>93.208</ele>
        <time>2021-05-26T07:19:42Z</time>
      </trkpt>
      <trkpt lat="41.555845" lon="2.467870">
        <ele>93.360</ele>
        <time>2021-05-26T07:19:44Z</time>
      </trkpt>
      <trkpt lat="41.555867" lon="2.467890">
        <ele>93.277</ele>
        <time>2021-05-26T07:19:46Z</time>
      </trkpt>
      <trkpt lat="41.555886" lon="2.467921">
        <ele>93.234</ele>
        <time>2021-05-26T07:19:48Z</time>
      </trkpt>
      <trkpt lat="41.555905" lon="2.467936">
        <ele>93.217</ele>
        <time>2021-05-26T07:19:49Z</time>
      </trkpt>
      <trkpt lat="41.555927" lon="2.467946">
        <ele>93.122</ele>
        <time>2021-05-26T07:19:50Z</time>
      </trkpt>
      <trkpt lat="41.555945" lon="2.467947">
        <ele>93.078</ele>
        <time>2021-05-26T07:19:51Z</time>
      </trkpt>
      <trkpt lat="41.555962" lon="2.467934">
        <ele>92.815</ele>
        <time>2021-05-26T07:19:52Z</time>
      </trkpt>
      <trkpt lat="41.555977" lon="2.467916">
        <ele>92.782</ele>
        <time>2021-05-26T07:19:53Z</time>
      </trkpt>
      <trkpt lat="41.555989" lon="2.467894">
        <ele>92.611</ele>
        <time>2021-05-26T07:19:54Z</time>
      </trkpt>
      <trkpt lat="41.556002" lon="2.467873">
        <ele>92.521</ele>
        <time>2021-05-26T07:19:56Z</time>
      </trkpt>
      <trkpt lat="41.556029" lon="2.467828">
        <ele>92.303</ele>
        <time>2021-05-26T07:19:57Z</time>
      </trkpt>
      <trkpt lat="41.556040" lon="2.467804">
        <ele>92.308</ele>
        <time>2021-05-26T07:19:58Z</time>
      </trkpt>
      <trkpt lat="41.556061" lon="2.467748">
        <ele>92.438</ele>
        <time>2021-05-26T07:20:00Z</time>
      </trkpt>
      <trkpt lat="41.556069" lon="2.467719">
        <ele>92.795</ele>
        <time>2021-05-26T07:20:01Z</time>
      </trkpt>
      <trkpt lat="41.556076" lon="2.467695">
        <ele>92.972</ele>
        <time>2021-05-26T07:20:02Z</time>
      </trkpt>
      <trkpt lat="41.556088" lon="2.467675">
        <ele>93.145</ele>
        <time>2021-05-26T07:20:03Z</time>
      </trkpt>
      <trkpt lat="41.556100" lon="2.467656">
        <ele>93.320</ele>
        <time>2021-05-26T07:20:04Z</time>
      </trkpt>
      <trkpt lat="41.556113" lon="2.467635">
        <ele>93.686</ele>
        <time>2021-05-26T07:20:05Z</time>
      </trkpt>
      <trkpt lat="41.556127" lon="2.467616">
        <ele>93.813</ele>
        <time>2021-05-26T07:20:06Z</time>
      </trkpt>
      <trkpt lat="41.556143" lon="2.467596">
        <ele>94.160</ele>
        <time>2021-05-26T07:20:07Z</time>
      </trkpt>
      <trkpt lat="41.556161" lon="2.467574">
        <ele>94.497</ele>
        <time>2021-05-26T07:20:08Z</time>
      </trkpt>
      <trkpt lat="41.556178" lon="2.467553">
        <ele>94.723</ele>
        <time>2021-05-26T07:20:09Z</time>
      </trkpt>
      <trkpt lat="41.556210" lon="2.467518">
        <ele>95.225</ele>
        <time>2021-05-26T07:20:11Z</time>
      </trkpt>
      <trkpt lat="41.556246" lon="2.467483">
        <ele>95.708</ele>
        <time>2021-05-26T07:20:13Z</time>
      </trkpt>
      <trkpt lat="41.556264" lon="2.467468">
        <ele>95.956</ele>
        <time>2021-05-26T07:20:15Z</time>
      </trkpt>
      <trkpt lat="41.556283" lon="2.467450">
        <ele>96.213</ele>
        <time>2021-05-26T07:20:16Z</time>
      </trkpt>
      <trkpt lat="41.556302" lon="2.467433">
        <ele>96.580</ele>
        <time>2021-05-26T07:20:17Z</time>
      </trkpt>
      <trkpt lat="41.556320" lon="2.467415">
        <ele>96.893</ele>
        <time>2021-05-26T07:20:18Z</time>
      </trkpt>
      <trkpt lat="41.556338" lon="2.467396">
        <ele>97.228</ele>
        <time>2021-05-26T07:20:19Z</time>
      </trkpt>
      <trkpt lat="41.556353" lon="2.467378">
        <ele>97.524</ele>
        <time>2021-05-26T07:20:20Z</time>
      </trkpt>
      <trkpt lat="41.556370" lon="2.467360">
        <ele>97.991</ele>
        <time>2021-05-26T07:20:21Z</time>
      </trkpt>
      <trkpt lat="41.556407" lon="2.467329">
        <ele>98.618</ele>
        <time>2021-05-26T07:20:22Z</time>
      </trkpt>
      <trkpt lat="41.556427" lon="2.467311">
        <ele>99.113</ele>
        <time>2021-05-26T07:20:23Z</time>
      </trkpt>
      <trkpt lat="41.556444" lon="2.467296">
        <ele>99.443</ele>
        <time>2021-05-26T07:20:24Z</time>
      </trkpt>
      <trkpt lat="41.556462" lon="2.467280">
        <ele>99.807</ele>
        <time>2021-05-26T07:20:25Z</time>
      </trkpt>
      <trkpt lat="41.556478" lon="2.467263">
        <ele>100.108</ele>
        <time>2021-05-26T07:20:26Z</time>
      </trkpt>
      <trkpt lat="41.556494" lon="2.467245">
        <ele>100.578</ele>
        <time>2021-05-26T07:20:28Z</time>
      </trkpt>
      <trkpt lat="41.556512" lon="2.467225">
        <ele>100.955</ele>
        <time>2021-05-26T07:20:29Z</time>
      </trkpt>
      <trkpt lat="41.556530" lon="2.467207">
        <ele>101.122</ele>
        <time>2021-05-26T07:20:30Z</time>
      </trkpt>
      <trkpt lat="41.556546" lon="2.467188">
        <ele>101.355</ele>
        <time>2021-05-26T07:20:31Z</time>
      </trkpt>
      <trkpt lat="41.556583" lon="2.467152">
        <ele>101.820</ele>
        <time>2021-05-26T07:20:32Z</time>
      </trkpt>
      <trkpt lat="41.556622" lon="2.467113">
        <ele>102.416</ele>
        <time>2021-05-26T07:20:34Z</time>
      </trkpt>
      <trkpt lat="41.556644" lon="2.467092">
        <ele>102.723</ele>
        <time>2021-05-26T07:20:35Z</time>
      </trkpt>
      <trkpt lat="41.556664" lon="2.467072">
        <ele>103.170</ele>
        <time>2021-05-26T07:20:36Z</time>
      </trkpt>
      <trkpt lat="41.556683" lon="2.467049">
        <ele>103.394</ele>
        <time>2021-05-26T07:20:37Z</time>
      </trkpt>
      <trkpt lat="41.556702" lon="2.467029">
        <ele>103.557</ele>
        <time>2021-05-26T07:20:38Z</time>
      </trkpt>
      <trkpt lat="41.556719" lon="2.467009">
        <ele>103.722</ele>
        <time>2021-05-26T07:20:39Z</time>
      </trkpt>
      <trkpt lat="41.556736" lon="2.466989">
        <ele>103.908</ele>
        <time>2021-05-26T07:20:40Z</time>
      </trkpt>
      <trkpt lat="41.556753" lon="2.466971">
        <ele>104.146</ele>
        <time>2021-05-26T07:20:41Z</time>
      </trkpt>
      <trkpt lat="41.556774" lon="2.466952">
        <ele>104.343</ele>
        <time>2021-05-26T07:20:42Z</time>
      </trkpt>
      <trkpt lat="41.556795" lon="2.466934">
        <ele>104.480</ele>
        <time>2021-05-26T07:20:43Z</time>
      </trkpt>
      <trkpt lat="41.556830" lon="2.466896">
        <ele>104.463</ele>
        <time>2021-05-26T07:20:45Z</time>
      </trkpt>
      <trkpt lat="41.556846" lon="2.466876">
        <ele>104.598</ele>
        <time>2021-05-26T07:20:46Z</time>
      </trkpt>
      <trkpt lat="41.556866" lon="2.466857">
        <ele>104.514</ele>
        <time>2021-05-26T07:20:47Z</time>
      </trkpt>
      <trkpt lat="41.556884" lon="2.466841">
        <ele>104.671</ele>
        <time>2021-05-26T07:20:48Z</time>
      </trkpt>
      <trkpt lat="41.556903" lon="2.466821">
        <ele>104.788</ele>
        <time>2021-05-26T07:20:49Z</time>
      </trkpt>
      <trkpt lat="41.556923" lon="2.466802">
        <ele>104.888</ele>
        <time>2021-05-26T07:20:50Z</time>
      </trkpt>
      <trkpt lat="41.556943" lon="2.466783">
        <ele>105.024</ele>
        <time>2021-05-26T07:20:51Z</time>
      </trkpt>
      <trkpt lat="41.556962" lon="2.466765">
        <ele>105.026</ele>
        <time>2021-05-26T07:20:53Z</time>
      </trkpt>
      <trkpt lat="41.556978" lon="2.466749">
        <ele>105.008</ele>
        <time>2021-05-26T07:20:54Z</time>
      </trkpt>
      <trkpt lat="41.557009" lon="2.466714">
        <ele>105.265</ele>
        <time>2021-05-26T07:20:55Z</time>
      </trkpt>
      <trkpt lat="41.557025" lon="2.466698">
        <ele>105.212</ele>
        <time>2021-05-26T07:20:57Z</time>
      </trkpt>
      <trkpt lat="41.557043" lon="2.466679">
        <ele>105.349</ele>
        <time>2021-05-26T07:20:58Z</time>
      </trkpt>
      <trkpt lat="41.557079" lon="2.466647">
        <ele>105.442</ele>
        <time>2021-05-26T07:20:59Z</time>
      </trkpt>
      <trkpt lat="41.557093" lon="2.466631">
        <ele>105.587</ele>
        <time>2021-05-26T07:21:01Z</time>
      </trkpt>
      <trkpt lat="41.557111" lon="2.466616">
        <ele>105.683</ele>
        <time>2021-05-26T07:21:02Z</time>
      </trkpt>
      <trkpt lat="41.557130" lon="2.466598">
        <ele>105.860</ele>
        <time>2021-05-26T07:21:03Z</time>
      </trkpt>
      <trkpt lat="41.557147" lon="2.466581">
        <ele>105.917</ele>
        <time>2021-05-26T07:21:04Z</time>
      </trkpt>
      <trkpt lat="41.557166" lon="2.466563">
        <ele>106.227</ele>
        <time>2021-05-26T07:21:05Z</time>
      </trkpt>
      <trkpt lat="41.557187" lon="2.466549">
        <ele>106.568</ele>
        <time>2021-05-26T07:21:06Z</time>
      </trkpt>
      <trkpt lat="41.557224" lon="2.466523">
        <ele>107.114</ele>
        <time>2021-05-26T07:21:07Z</time>
      </trkpt>
      <trkpt lat="41.557243" lon="2.466508">
        <ele>107.708</ele>
        <time>2021-05-26T07:21:09Z</time>
      </trkpt>
      <trkpt lat="41.557264" lon="2.466491">
        <ele>108.399</ele>
        <time>2021-05-26T07:21:10Z</time>
      </trkpt>
      <trkpt lat="41.557278" lon="2.466476">
        <ele>108.736</ele>
        <time>2021-05-26T07:21:11Z</time>
      </trkpt>
      <trkpt lat="41.557296" lon="2.466461">
        <ele>109.243</ele>
        <time>2021-05-26T07:21:12Z</time>
      </trkpt>
      <trkpt lat="41.557332" lon="2.466434">
        <ele>110.286</ele>
        <time>2021-05-26T07:21:13Z</time>
      </trkpt>
      <trkpt lat="41.557352" lon="2.466420">
        <ele>110.751</ele>
        <time>2021-05-26T07:21:14Z</time>
      </trkpt>
      <trkpt lat="41.557372" lon="2.466406">
        <ele>111.297</ele>
        <time>2021-05-26T07:21:15Z</time>
      </trkpt>
      <trkpt lat="41.557394" lon="2.466392">
        <ele>111.734</ele>
        <time>2021-05-26T07:21:16Z</time>
      </trkpt>
      <trkpt lat="41.557411" lon="2.466380">
        <ele>112.151</ele>
        <time>2021-05-26T07:21:17Z</time>
      </trkpt>
      <trkpt lat="41.557448" lon="2.466356">
        <ele>112.829</ele>
        <time>2021-05-26T07:21:19Z</time>
      </trkpt>
      <trkpt lat="41.557467" lon="2.466343">
        <ele>113.100</ele>
        <time>2021-05-26T07:21:20Z</time>
      </trkpt>
      <trkpt lat="41.557490" lon="2.466330">
        <ele>113.620</ele>
        <time>2021-05-26T07:21:21Z</time>
      </trkpt>
      <trkpt lat="41.557508" lon="2.466318">
        <ele>113.908</ele>
        <time>2021-05-26T07:21:22Z</time>
      </trkpt>
      <trkpt lat="41.557528" lon="2.466304">
        <ele>114.269</ele>
        <time>2021-05-26T07:21:23Z</time>
      </trkpt>
      <trkpt lat="41.557551" lon="2.466285">
        <ele>114.546</ele>
        <time>2021-05-26T07:21:24Z</time>
      </trkpt>
      <trkpt lat="41.557572" lon="2.466267">
        <ele>114.723</ele>
        <time>2021-05-26T07:21:25Z</time>
      </trkpt>
      <trkpt lat="41.557613" lon="2.466228">
        <ele>115.246</ele>
        <time>2021-05-26T07:21:27Z</time>
      </trkpt>
      <trkpt lat="41.557634" lon="2.466211">
        <ele>115.581</ele>
        <time>2021-05-26T07:21:29Z</time>
      </trkpt>
      <trkpt lat="41.557655" lon="2.466195">
        <ele>115.777</ele>
        <time>2021-05-26T07:21:30Z</time>
      </trkpt>
      <trkpt lat="41.557677" lon="2.466179">
        <ele>115.934</ele>
        <time>2021-05-26T07:21:31Z</time>
      </trkpt>
      <trkpt lat="41.557718" lon="2.466144">
        <ele>116.481</ele>
        <time>2021-05-26T07:21:32Z</time>
      </trkpt>
      <trkpt lat="41.557742" lon="2.466122">
        <ele>116.628</ele>
        <time>2021-05-26T07:21:34Z</time>
      </trkpt>
      <trkpt lat="41.557761" lon="2.466100">
        <ele>116.789</ele>
        <time>2021-05-26T07:21:35Z</time>
      </trkpt>
      <trkpt lat="41.557781" lon="2.466077">
        <ele>116.817</ele>
        <time>2021-05-26T07:21:36Z</time>
      </trkpt>
      <trkpt lat="41.557800" lon="2.466058">
        <ele>116.608</ele>
        <time>2021-05-26T07:21:37Z</time>
      </trkpt>
      <trkpt lat="41.557833" lon="2.466017">
        <ele>116.349</ele>
        <time>2021-05-26T07:21:38Z</time>
      </trkpt>
      <trkpt lat="41.557849" lon="2.465997">
        <ele>116.226</ele>
        <time>2021-05-26T07:21:39Z</time>
      </trkpt>
      <trkpt lat="41.557868" lon="2.465974">
        <ele>116.073</ele>
        <time>2021-05-26T07:21:40Z</time>
      </trkpt>
      <trkpt lat="41.557887" lon="2.465954">
        <ele>115.976</ele>
        <time>2021-05-26T07:21:41Z</time>
      </trkpt>
      <trkpt lat="41.557905" lon="2.465934">
        <ele>115.711</ele>
        <time>2021-05-26T07:21:42Z</time>
      </trkpt>
      <trkpt lat="41.557925" lon="2.465911">
        <ele>115.667</ele>
        <time>2021-05-26T07:21:43Z</time>
      </trkpt>
      <trkpt lat="41.557943" lon="2.465891">
        <ele>115.484</ele>
        <time>2021-05-26T07:21:44Z</time>
      </trkpt>
      <trkpt lat="41.557960" lon="2.465873">
        <ele>115.361</ele>
        <time>2021-05-26T07:21:45Z</time>
      </trkpt>
      <trkpt lat="41.557979" lon="2.465854">
        <ele>115.167</ele>
        <time>2021-05-26T07:21:46Z</time>
      </trkpt>
      <trkpt lat="41.557999" lon="2.465833">
        <ele>115.081</ele>
        <time>2021-05-26T07:21:47Z</time>
      </trkpt>
      <trkpt lat="41.558021" lon="2.465813">
        <ele>114.919</ele>
        <time>2021-05-26T07:21:48Z</time>
      </trkpt>
      <trkpt lat="41.558043" lon="2.465791">
        <ele>114.808</ele>
        <time>2021-05-26T07:21:50Z</time>
      </trkpt>
      <trkpt lat="41.558084" lon="2.465748">
        <ele>114.643</ele>
        <time>2021-05-26T07:21:51Z</time>
      </trkpt>
      <trkpt lat="41.558103" lon="2.465724">
        <ele>114.540</ele>
        <time>2021-05-26T07:21:53Z</time>
      </trkpt>
      <trkpt lat="41.558121" lon="2.465701">
        <ele>114.437</ele>
        <time>2021-05-26T07:21:54Z</time>
      </trkpt>
      <trkpt lat="41.558142" lon="2.465681">
        <ele>114.330</ele>
        <time>2021-05-26T07:21:55Z</time>
      </trkpt>
      <trkpt lat="41.558162" lon="2.465660">
        <ele>114.265</ele>
        <time>2021-05-26T07:21:56Z</time>
      </trkpt>
      <trkpt lat="41.558184" lon="2.465638">
        <ele>114.211</ele>
        <time>2021-05-26T07:21:57Z</time>
      </trkpt>
      <trkpt lat="41.558205" lon="2.465616">
        <ele>114.158</ele>
        <time>2021-05-26T07:21:58Z</time>
      </trkpt>
      <trkpt lat="41.558224" lon="2.465593">
        <ele>114.185</ele>
        <time>2021-05-26T07:21:59Z</time>
      </trkpt>
      <trkpt lat="41.558244" lon="2.465572">
        <ele>114.062</ele>
        <time>2021-05-26T07:22:00Z</time>
      </trkpt>
      <trkpt lat="41.558262" lon="2.465551">
        <ele>114.083</ele>
        <time>2021-05-26T07:22:01Z</time>
      </trkpt>
      <trkpt lat="41.558280" lon="2.465530">
        <ele>113.911</ele>
        <time>2021-05-26T07:22:02Z</time>
      </trkpt>
      <trkpt lat="41.558298" lon="2.465507">
        <ele>113.808</ele>
        <time>2021-05-26T07:22:03Z</time>
      </trkpt>
      <trkpt lat="41.558317" lon="2.465486">
        <ele>113.743</ele>
        <time>2021-05-26T07:22:04Z</time>
      </trkpt>
      <trkpt lat="41.558334" lon="2.465461">
        <ele>113.790</ele>
        <time>2021-05-26T07:22:05Z</time>
      </trkpt>
      <trkpt lat="41.558351" lon="2.465438">
        <ele>113.527</ele>
        <time>2021-05-26T07:22:06Z</time>
      </trkpt>
      <trkpt lat="41.558374" lon="2.465416">
        <ele>113.320</ele>
        <time>2021-05-26T07:22:07Z</time>
      </trkpt>
      <trkpt lat="41.558394" lon="2.465396">
        <ele>113.115</ele>
        <time>2021-05-26T07:22:08Z</time>
      </trkpt>
      <trkpt lat="41.558413" lon="2.465376">
        <ele>113.061</ele>
        <time>2021-05-26T07:22:09Z</time>
      </trkpt>
      <trkpt lat="41.558454" lon="2.465330">
        <ele>112.768</ele>
        <time>2021-05-26T07:22:10Z</time>
      </trkpt>
      <trkpt lat="41.558472" lon="2.465310">
        <ele>112.675</ele>
        <time>2021-05-26T07:22:12Z</time>
      </trkpt>
      <trkpt lat="41.558490" lon="2.465291">
        <ele>112.553</ele>
        <time>2021-05-26T07:22:13Z</time>
      </trkpt>
      <trkpt lat="41.558511" lon="2.465270">
        <ele>112.304</ele>
        <time>2021-05-26T07:22:14Z</time>
      </trkpt>
      <trkpt lat="41.558529" lon="2.465248">
        <ele>112.214</ele>
        <time>2021-05-26T07:22:15Z</time>
      </trkpt>
      <trkpt lat="41.558548" lon="2.465228">
        <ele>112.008</ele>
        <time>2021-05-26T07:22:16Z</time>
      </trkpt>
      <trkpt lat="41.558566" lon="2.465208">
        <ele>111.972</ele>
        <time>2021-05-26T07:22:17Z</time>
      </trkpt>
      <trkpt lat="41.558585" lon="2.465187">
        <ele>111.849</ele>
        <time>2021-05-26T07:22:18Z</time>
      </trkpt>
      <trkpt lat="41.558606" lon="2.465166">
        <ele>111.646</ele>
        <time>2021-05-26T07:22:19Z</time>
      </trkpt>
      <trkpt lat="41.558626" lon="2.465145">
        <ele>111.389</ele>
        <time>2021-05-26T07:22:20Z</time>
      </trkpt>
      <trkpt lat="41.558646" lon="2.465125">
        <ele>110.944</ele>
        <time>2021-05-26T07:22:21Z</time>
      </trkpt>
      <trkpt lat="41.558667" lon="2.465106">
        <ele>110.550</ele>
        <time>2021-05-26T07:22:22Z</time>
      </trkpt>
      <trkpt lat="41.558689" lon="2.465087">
        <ele>110.167</ele>
        <time>2021-05-26T07:22:23Z</time>
      </trkpt>
      <trkpt lat="41.558710" lon="2.465068">
        <ele>109.654</ele>
        <time>2021-05-26T07:22:24Z</time>
      </trkpt>
      <trkpt lat="41.558732" lon="2.465051">
        <ele>109.218</ele>
        <time>2021-05-26T07:22:25Z</time>
      </trkpt>
      <trkpt lat="41.558754" lon="2.465034">
        <ele>108.798</ele>
        <time>2021-05-26T07:22:26Z</time>
      </trkpt>
      <trkpt lat="41.558774" lon="2.465020">
        <ele>108.217</ele>
        <time>2021-05-26T07:22:27Z</time>
      </trkpt>
      <trkpt lat="41.558795" lon="2.465006">
        <ele>107.708</ele>
        <time>2021-05-26T07:22:28Z</time>
      </trkpt>
      <trkpt lat="41.558816" lon="2.464989">
        <ele>107.458</ele>
        <time>2021-05-26T07:22:29Z</time>
      </trkpt>
      <trkpt lat="41.558837" lon="2.464973">
        <ele>107.125</ele>
        <time>2021-05-26T07:22:30Z</time>
      </trkpt>
      <trkpt lat="41.558860" lon="2.464957">
        <ele>106.892</ele>
        <time>2021-05-26T07:22:31Z</time>
      </trkpt>
      <trkpt lat="41.558878" lon="2.464943">
        <ele>106.645</ele>
        <time>2021-05-26T07:22:32Z</time>
      </trkpt>
      <trkpt lat="41.558897" lon="2.464929">
        <ele>106.570</ele>
        <time>2021-05-26T07:22:33Z</time>
      </trkpt>
      <trkpt lat="41.558916" lon="2.464911">
        <ele>106.816</ele>
        <time>2021-05-26T07:22:34Z</time>
      </trkpt>
      <trkpt lat="41.558934" lon="2.464896">
        <ele>107.133</ele>
        <time>2021-05-26T07:22:35Z</time>
      </trkpt>
      <trkpt lat="41.558953" lon="2.464880">
        <ele>107.470</ele>
        <time>2021-05-26T07:22:36Z</time>
      </trkpt>
      <trkpt lat="41.558973" lon="2.464865">
        <ele>107.731</ele>
        <time>2021-05-26T07:22:37Z</time>
      </trkpt>
      <trkpt lat="41.558992" lon="2.464852">
        <ele>108.161</ele>
        <time>2021-05-26T07:22:38Z</time>
      </trkpt>
      <trkpt lat="41.559011" lon="2.464838">
        <ele>108.407</ele>
        <time>2021-05-26T07:22:39Z</time>
      </trkpt>
      <trkpt lat="41.559029" lon="2.464825">
        <ele>108.808</ele>
        <time>2021-05-26T07:22:40Z</time>
      </trkpt>
      <trkpt lat="41.559046" lon="2.464811">
        <ele>109.320</ele>
        <time>2021-05-26T07:22:41Z</time>
      </trkpt>
      <trkpt lat="41.559065" lon="2.464796">
        <ele>109.837</ele>
        <time>2021-05-26T07:22:42Z</time>
      </trkpt>
      <trkpt lat="41.559085" lon="2.464782">
        <ele>110.324</ele>
        <time>2021-05-26T07:22:43Z</time>
      </trkpt>
      <trkpt lat="41.559106" lon="2.464766">
        <ele>111.067</ele>
        <time>2021-05-26T07:22:44Z</time>
      </trkpt>
      <trkpt lat="41.559125" lon="2.464752">
        <ele>111.692</ele>
        <time>2021-05-26T07:22:45Z</time>
      </trkpt>
      <trkpt lat="41.559144" lon="2.464737">
        <ele>112.228</ele>
        <time>2021-05-26T07:22:46Z</time>
      </trkpt>
      <trkpt lat="41.559160" lon="2.464724">
        <ele>112.855</ele>
        <time>2021-05-26T07:22:47Z</time>
      </trkpt>
      <trkpt lat="41.559177" lon="2.464712">
        <ele>113.472</ele>
        <time>2021-05-26T07:22:48Z</time>
      </trkpt>
      <trkpt lat="41.559195" lon="2.464698">
        <ele>114.057</ele>
        <time>2021-05-26T07:22:49Z</time>
      </trkpt>
      <trkpt lat="41.559212" lon="2.464683">
        <ele>114.600</ele>
        <time>2021-05-26T07:22:50Z</time>
      </trkpt>
      <trkpt lat="41.559232" lon="2.464670">
        <ele>115.220</ele>
        <time>2021-05-26T07:22:51Z</time>
      </trkpt>
      <trkpt lat="41.559250" lon="2.464656">
        <ele>115.808</ele>
        <time>2021-05-26T07:22:52Z</time>
      </trkpt>
      <trkpt lat="41.559267" lon="2.464642">
        <ele>116.462</ele>
        <time>2021-05-26T07:22:53Z</time>
      </trkpt>
      <trkpt lat="41.559305" lon="2.464616">
        <ele>117.659</ele>
        <time>2021-05-26T07:22:54Z</time>
      </trkpt>
      <trkpt lat="41.559328" lon="2.464603">
        <ele>118.296</ele>
        <time>2021-05-26T07:22:56Z</time>
      </trkpt>
      <trkpt lat="41.559348" lon="2.464589">
        <ele>118.819</ele>
        <time>2021-05-26T07:22:57Z</time>
      </trkpt>
      <trkpt lat="41.559367" lon="2.464575">
        <ele>119.414</ele>
        <time>2021-05-26T07:22:58Z</time>
      </trkpt>
      <trkpt lat="41.559384" lon="2.464560">
        <ele>120.040</ele>
        <time>2021-05-26T07:22:59Z</time>
      </trkpt>
      <trkpt lat="41.559416" lon="2.464531">
        <ele>121.247</ele>
        <time>2021-05-26T07:23:01Z</time>
      </trkpt>
      <trkpt lat="41.559446" lon="2.464506">
        <ele>122.264</ele>
        <time>2021-05-26T07:23:03Z</time>
      </trkpt>
      <trkpt lat="41.559461" lon="2.464492">
        <ele>122.919</ele>
        <time>2021-05-26T07:23:04Z</time>
      </trkpt>
      <trkpt lat="41.559494" lon="2.464471">
        <ele>123.909</ele>
        <time>2021-05-26T07:23:06Z</time>
      </trkpt>
      <trkpt lat="41.559511" lon="2.464461">
        <ele>124.519</ele>
        <time>2021-05-26T07:23:07Z</time>
      </trkpt>
      <trkpt lat="41.559528" lon="2.464448">
        <ele>125.108</ele>
        <time>2021-05-26T07:23:08Z</time>
      </trkpt>
      <trkpt lat="41.559555" lon="2.464424">
        <ele>126.098</ele>
        <time>2021-05-26T07:23:10Z</time>
      </trkpt>
      <trkpt lat="41.559571" lon="2.464414">
        <ele>126.445</ele>
        <time>2021-05-26T07:23:11Z</time>
      </trkpt>
      <trkpt lat="41.559589" lon="2.464399">
        <ele>126.972</ele>
        <time>2021-05-26T07:23:12Z</time>
      </trkpt>
      <trkpt lat="41.559603" lon="2.464384">
        <ele>127.445</ele>
        <time>2021-05-26T07:23:13Z</time>
      </trkpt>
      <trkpt lat="41.559620" lon="2.464372">
        <ele>127.820</ele>
        <time>2021-05-26T07:23:14Z</time>
      </trkpt>
      <trkpt lat="41.559639" lon="2.464358">
        <ele>128.476</ele>
        <time>2021-05-26T07:23:15Z</time>
      </trkpt>
      <trkpt lat="41.559657" lon="2.464342">
        <ele>128.923</ele>
        <time>2021-05-26T07:23:16Z</time>
      </trkpt>
      <trkpt lat="41.559678" lon="2.464328">
        <ele>129.510</ele>
        <time>2021-05-26T07:23:17Z</time>
      </trkpt>
      <trkpt lat="41.559696" lon="2.464315">
        <ele>130.011</ele>
        <time>2021-05-26T07:23:18Z</time>
      </trkpt>
      <trkpt lat="41.559716" lon="2.464298">
        <ele>130.521</ele>
        <time>2021-05-26T07:23:19Z</time>
      </trkpt>
      <trkpt lat="41.559742" lon="2.464277">
        <ele>131.103</ele>
        <time>2021-05-26T07:23:21Z</time>
      </trkpt>
      <trkpt lat="41.559759" lon="2.464264">
        <ele>131.408</ele>
        <time>2021-05-26T07:23:22Z</time>
      </trkpt>
      <trkpt lat="41.559777" lon="2.464251">
        <ele>131.738</ele>
        <time>2021-05-26T07:23:23Z</time>
      </trkpt>
      <trkpt lat="41.559794" lon="2.464237">
        <ele>132.195</ele>
        <time>2021-05-26T07:23:24Z</time>
      </trkpt>
      <trkpt lat="41.559810" lon="2.464224">
        <ele>132.422</ele>
        <time>2021-05-26T07:23:25Z</time>
      </trkpt>
      <trkpt lat="41.559827" lon="2.464210">
        <ele>132.845</ele>
        <time>2021-05-26T07:23:26Z</time>
      </trkpt>
      <trkpt lat="41.559845" lon="2.464195">
        <ele>133.270</ele>
        <time>2021-05-26T07:23:27Z</time>
      </trkpt>
      <trkpt lat="41.559863" lon="2.464181">
        <ele>133.786</ele>
        <time>2021-05-26T07:23:28Z</time>
      </trkpt>
      <trkpt lat="41.559893" lon="2.464168">
        <ele>134.293</ele>
        <time>2021-05-26T07:23:30Z</time>
      </trkpt>
      <trkpt lat="41.559917" lon="2.464159">
        <ele>134.590</ele>
        <time>2021-05-26T07:23:32Z</time>
      </trkpt>
      <trkpt lat="41.559941" lon="2.464134">
        <ele>135.199</ele>
        <time>2021-05-26T07:23:34Z</time>
      </trkpt>
      <trkpt lat="41.559973" lon="2.464110">
        <ele>135.807</ele>
        <time>2021-05-26T07:23:36Z</time>
      </trkpt>
      <trkpt lat="41.559989" lon="2.464095">
        <ele>136.227</ele>
        <time>2021-05-26T07:23:37Z</time>
      </trkpt>
      <trkpt lat="41.560007" lon="2.464075">
        <ele>136.708</ele>
        <time>2021-05-26T07:23:38Z</time>
      </trkpt>
      <trkpt lat="41.560026" lon="2.464056">
        <ele>137.086</ele>
        <time>2021-05-26T07:23:39Z</time>
      </trkpt>
      <trkpt lat="41.560043" lon="2.464039">
        <ele>137.493</ele>
        <time>2021-05-26T07:23:40Z</time>
      </trkpt>
      <trkpt lat="41.560059" lon="2.464025">
        <ele>137.740</ele>
        <time>2021-05-26T07:23:41Z</time>
      </trkpt>
      <trkpt lat="41.560092" lon="2.463999">
        <ele>138.353</ele>
        <time>2021-05-26T07:23:43Z</time>
      </trkpt>
      <trkpt lat="41.560109" lon="2.463979">
        <ele>138.898</ele>
        <time>2021-05-26T07:23:44Z</time>
      </trkpt>
      <trkpt lat="41.560139" lon="2.463947">
        <ele>139.684</ele>
        <time>2021-05-26T07:23:45Z</time>
      </trkpt>
      <trkpt lat="41.560158" lon="2.463933">
        <ele>140.161</ele>
        <time>2021-05-26T07:23:46Z</time>
      </trkpt>
      <trkpt lat="41.560178" lon="2.463916">
        <ele>140.618</ele>
        <time>2021-05-26T07:23:47Z</time>
      </trkpt>
      <trkpt lat="41.560194" lon="2.463898">
        <ele>141.298</ele>
        <time>2021-05-26T07:23:48Z</time>
      </trkpt>
      <trkpt lat="41.560220" lon="2.463872">
        <ele>141.715</ele>
        <time>2021-05-26T07:23:50Z</time>
      </trkpt>
      <trkpt lat="41.560235" lon="2.463850">
        <ele>142.126</ele>
        <time>2021-05-26T07:23:51Z</time>
      </trkpt>
      <trkpt lat="41.560249" lon="2.463834">
        <ele>142.308</ele>
        <time>2021-05-26T07:23:52Z</time>
      </trkpt>
      <trkpt lat="41.560275" lon="2.463803">
        <ele>142.916</ele>
        <time>2021-05-26T07:23:54Z</time>
      </trkpt>
      <trkpt lat="41.560290" lon="2.463784">
        <ele>143.093</ele>
        <time>2021-05-26T07:23:55Z</time>
      </trkpt>
      <trkpt lat="41.560304" lon="2.463763">
        <ele>143.180</ele>
        <time>2021-05-26T07:23:56Z</time>
      </trkpt>
      <trkpt lat="41.560317" lon="2.463742">
        <ele>143.223</ele>
        <time>2021-05-26T07:23:57Z</time>
      </trkpt>
      <trkpt lat="41.560336" lon="2.463725">
        <ele>143.348</ele>
        <time>2021-05-26T07:23:59Z</time>
      </trkpt>
      <trkpt lat="41.560354" lon="2.463708">
        <ele>143.434</ele>
        <time>2021-05-26T07:24:00Z</time>
      </trkpt>
      <trkpt lat="41.560373" lon="2.463689">
        <ele>143.591</ele>
        <time>2021-05-26T07:24:01Z</time>
      </trkpt>
      <trkpt lat="41.560391" lon="2.463673">
        <ele>143.798</ele>
        <time>2021-05-26T07:24:02Z</time>
      </trkpt>
      <trkpt lat="41.560408" lon="2.463659">
        <ele>143.843</ele>
        <time>2021-05-26T07:24:03Z</time>
      </trkpt>
      <trkpt lat="41.560432" lon="2.463636">
        <ele>144.064</ele>
        <time>2021-05-26T07:24:05Z</time>
      </trkpt>
      <trkpt lat="41.560467" lon="2.463611">
        <ele>144.310</ele>
        <time>2021-05-26T07:24:07Z</time>
      </trkpt>
      <trkpt lat="41.560498" lon="2.463590">
        <ele>144.308</ele>
        <time>2021-05-26T07:24:08Z</time>
      </trkpt>
      <trkpt lat="41.560538" lon="2.463571">
        <ele>144.221</ele>
        <time>2021-05-26T07:24:10Z</time>
      </trkpt>
      <trkpt lat="41.560560" lon="2.463558">
        <ele>144.188</ele>
        <time>2021-05-26T07:24:11Z</time>
      </trkpt>
      <trkpt lat="41.560579" lon="2.463550">
        <ele>144.085</ele>
        <time>2021-05-26T07:24:13Z</time>
      </trkpt>
      <trkpt lat="41.560630" lon="2.463540">
        <ele>143.698</ele>
        <time>2021-05-26T07:24:15Z</time>
      </trkpt>
      <trkpt lat="41.560651" lon="2.463542">
        <ele>143.443</ele>
        <time>2021-05-26T07:24:16Z</time>
      </trkpt>
      <trkpt lat="41.560671" lon="2.463538">
        <ele>143.229</ele>
        <time>2021-05-26T07:24:18Z</time>
      </trkpt>
      <trkpt lat="41.560691" lon="2.463537">
        <ele>143.116</ele>
        <time>2021-05-26T07:24:19Z</time>
      </trkpt>
      <trkpt lat="41.560725" lon="2.463540">
        <ele>142.713</ele>
        <time>2021-05-26T07:24:21Z</time>
      </trkpt>
      <trkpt lat="41.560749" lon="2.463541">
        <ele>142.582</ele>
        <time>2021-05-26T07:24:22Z</time>
      </trkpt>
      <trkpt lat="41.560771" lon="2.463542">
        <ele>142.343</ele>
        <time>2021-05-26T07:24:23Z</time>
      </trkpt>
      <trkpt lat="41.560793" lon="2.463543">
        <ele>142.117</ele>
        <time>2021-05-26T07:24:24Z</time>
      </trkpt>
      <trkpt lat="41.560818" lon="2.463544">
        <ele>141.908</ele>
        <time>2021-05-26T07:24:25Z</time>
      </trkpt>
      <trkpt lat="41.560843" lon="2.463542">
        <ele>141.725</ele>
        <time>2021-05-26T07:24:26Z</time>
      </trkpt>
      <trkpt lat="41.560891" lon="2.463530">
        <ele>141.592</ele>
        <time>2021-05-26T07:24:27Z</time>
      </trkpt>
      <trkpt lat="41.560914" lon="2.463524">
        <ele>141.599</ele>
        <time>2021-05-26T07:24:29Z</time>
      </trkpt>
      <trkpt lat="41.560935" lon="2.463521">
        <ele>141.462</ele>
        <time>2021-05-26T07:24:30Z</time>
      </trkpt>
      <trkpt lat="41.560977" lon="2.463507">
        <ele>141.377</ele>
        <time>2021-05-26T07:24:31Z</time>
      </trkpt>
      <trkpt lat="41.561000" lon="2.463497">
        <ele>141.313</ele>
        <time>2021-05-26T07:24:32Z</time>
      </trkpt>
      <trkpt lat="41.561020" lon="2.463486">
        <ele>141.380</ele>
        <time>2021-05-26T07:24:34Z</time>
      </trkpt>
      <trkpt lat="41.561068" lon="2.463467">
        <ele>141.337</ele>
        <time>2021-05-26T07:24:35Z</time>
      </trkpt>
      <trkpt lat="41.561088" lon="2.463462">
        <ele>141.315</ele>
        <time>2021-05-26T07:24:37Z</time>
      </trkpt>
      <trkpt lat="41.561112" lon="2.463453">
        <ele>141.365</ele>
        <time>2021-05-26T07:24:38Z</time>
      </trkpt>
      <trkpt lat="41.561137" lon="2.463442">
        <ele>141.411</ele>
        <time>2021-05-26T07:24:39Z</time>
      </trkpt>
      <trkpt lat="41.561158" lon="2.463436">
        <ele>141.408</ele>
        <time>2021-05-26T07:24:40Z</time>
      </trkpt>
      <trkpt lat="41.561178" lon="2.463427">
        <ele>141.548</ele>
        <time>2021-05-26T07:24:41Z</time>
      </trkpt>
      <trkpt lat="41.561214" lon="2.463413">
        <ele>141.625</ele>
        <time>2021-05-26T07:24:42Z</time>
      </trkpt>
      <trkpt lat="41.561254" lon="2.463388">
        <ele>141.892</ele>
        <time>2021-05-26T07:24:44Z</time>
      </trkpt>
      <trkpt lat="41.561272" lon="2.463373">
        <ele>141.955</ele>
        <time>2021-05-26T07:24:46Z</time>
      </trkpt>
      <trkpt lat="41.561288" lon="2.463358">
        <ele>142.160</ele>
        <time>2021-05-26T07:24:47Z</time>
      </trkpt>
      <trkpt lat="41.561304" lon="2.463347">
        <ele>142.146</ele>
        <time>2021-05-26T07:24:48Z</time>
      </trkpt>
      <trkpt lat="41.561335" lon="2.463313">
        <ele>142.423</ele>
        <time>2021-05-26T07:24:50Z</time>
      </trkpt>
      <trkpt lat="41.561356" lon="2.463294">
        <ele>142.450</ele>
        <time>2021-05-26T07:24:51Z</time>
      </trkpt>
      <trkpt lat="41.561379" lon="2.463272">
        <ele>142.531</ele>
        <time>2021-05-26T07:24:52Z</time>
      </trkpt>
      <trkpt lat="41.561397" lon="2.463254">
        <ele>142.661</ele>
        <time>2021-05-26T07:24:53Z</time>
      </trkpt>
      <trkpt lat="41.561413" lon="2.463237">
        <ele>142.807</ele>
        <time>2021-05-26T07:24:54Z</time>
      </trkpt>
      <trkpt lat="41.561428" lon="2.463223">
        <ele>143.008</ele>
        <time>2021-05-26T07:24:55Z</time>
      </trkpt>
      <trkpt lat="41.561456" lon="2.463209">
        <ele>143.230</ele>
        <time>2021-05-26T07:24:57Z</time>
      </trkpt>
      <trkpt lat="41.561504" lon="2.463191">
        <ele>143.797</ele>
        <time>2021-05-26T07:24:59Z</time>
      </trkpt>
      <trkpt lat="41.561522" lon="2.463187">
        <ele>143.874</ele>
        <time>2021-05-26T07:25:01Z</time>
      </trkpt>
      <trkpt lat="41.561541" lon="2.463175">
        <ele>144.137</ele>
        <time>2021-05-26T07:25:02Z</time>
      </trkpt>
      <trkpt lat="41.561566" lon="2.463168">
        <ele>144.332</ele>
        <time>2021-05-26T07:25:03Z</time>
      </trkpt>
      <trkpt lat="41.561586" lon="2.463163">
        <ele>144.548</ele>
        <time>2021-05-26T07:25:04Z</time>
      </trkpt>
      <trkpt lat="41.561604" lon="2.463159">
        <ele>144.785</ele>
        <time>2021-05-26T07:25:05Z</time>
      </trkpt>
      <trkpt lat="41.561626" lon="2.463153">
        <ele>145.082</ele>
        <time>2021-05-26T07:25:06Z</time>
      </trkpt>
      <trkpt lat="41.561645" lon="2.463149">
        <ele>145.288</ele>
        <time>2021-05-26T07:25:07Z</time>
      </trkpt>
      <trkpt lat="41.561666" lon="2.463145">
        <ele>145.424</ele>
        <time>2021-05-26T07:25:08Z</time>
      </trkpt>
      <trkpt lat="41.561685" lon="2.463140">
        <ele>145.626</ele>
        <time>2021-05-26T07:25:09Z</time>
      </trkpt>
      <trkpt lat="41.561708" lon="2.463129">
        <ele>145.908</ele>
        <time>2021-05-26T07:25:10Z</time>
      </trkpt>
      <trkpt lat="41.561732" lon="2.463121">
        <ele>146.285</ele>
        <time>2021-05-26T07:25:11Z</time>
      </trkpt>
      <trkpt lat="41.561755" lon="2.463109">
        <ele>146.532</ele>
        <time>2021-05-26T07:25:12Z</time>
      </trkpt>
      <trkpt lat="41.561778" lon="2.463096">
        <ele>146.829</ele>
        <time>2021-05-26T07:25:13Z</time>
      </trkpt>
      <trkpt lat="41.561804" lon="2.463083">
        <ele>147.112</ele>
        <time>2021-05-26T07:25:14Z</time>
      </trkpt>
      <trkpt lat="41.561829" lon="2.463068">
        <ele>147.467</ele>
        <time>2021-05-26T07:25:15Z</time>
      </trkpt>
      <trkpt lat="41.561852" lon="2.463053">
        <ele>147.733</ele>
        <time>2021-05-26T07:25:16Z</time>
      </trkpt>
      <trkpt lat="41.561874" lon="2.463039">
        <ele>147.880</ele>
        <time>2021-05-26T07:25:17Z</time>
      </trkpt>
      <trkpt lat="41.561896" lon="2.463021">
        <ele>147.937</ele>
        <time>2021-05-26T07:25:18Z</time>
      </trkpt>
      <trkpt lat="41.561915" lon="2.463001">
        <ele>148.137</ele>
        <time>2021-05-26T07:25:19Z</time>
      </trkpt>
      <trkpt lat="41.561932" lon="2.462979">
        <ele>148.249</ele>
        <time>2021-05-26T07:25:20Z</time>
      </trkpt>
      <trkpt lat="41.561949" lon="2.462958">
        <ele>148.413</ele>
        <time>2021-05-26T07:25:21Z</time>
      </trkpt>
      <trkpt lat="41.561963" lon="2.462938">
        <ele>148.408</ele>
        <time>2021-05-26T07:25:22Z</time>
      </trkpt>
      <trkpt lat="41.561979" lon="2.462921">
        <ele>148.560</ele>
        <time>2021-05-26T07:25:23Z</time>
      </trkpt>
      <trkpt lat="41.561997" lon="2.462901">
        <ele>148.737</ele>
        <time>2021-05-26T07:25:24Z</time>
      </trkpt>
      <trkpt lat="41.562012" lon="2.462880">
        <ele>148.814</ele>
        <time>2021-05-26T07:25:25Z</time>
      </trkpt>
      <trkpt lat="41.562028" lon="2.462860">
        <ele>149.067</ele>
        <time>2021-05-26T07:25:26Z</time>
      </trkpt>
      <trkpt lat="41.562044" lon="2.462839">
        <ele>149.372</ele>
        <time>2021-05-26T07:25:27Z</time>
      </trkpt>
      <trkpt lat="41.562060" lon="2.462818">
        <ele>149.558</ele>
        <time>2021-05-26T07:25:28Z</time>
      </trkpt>
      <trkpt lat="41.562076" lon="2.462798">
        <ele>149.865</ele>
        <time>2021-05-26T07:25:29Z</time>
      </trkpt>
      <trkpt lat="41.562091" lon="2.462778">
        <ele>150.162</ele>
        <time>2021-05-26T07:25:30Z</time>
      </trkpt>
      <trkpt lat="41.562111" lon="2.462757">
        <ele>150.152</ele>
        <time>2021-05-26T07:25:31Z</time>
      </trkpt>
      <trkpt lat="41.562133" lon="2.462735">
        <ele>150.153</ele>
        <time>2021-05-26T07:25:32Z</time>
      </trkpt>
      <trkpt lat="41.562155" lon="2.462716">
        <ele>150.108</ele>
        <time>2021-05-26T07:25:33Z</time>
      </trkpt>
      <trkpt lat="41.562180" lon="2.462698">
        <ele>150.108</ele>
        <time>2021-05-26T07:25:34Z</time>
      </trkpt>
      <trkpt lat="41.562199" lon="2.462682">
        <ele>150.122</ele>
        <time>2021-05-26T07:25:35Z</time>
      </trkpt>
      <trkpt lat="41.562216" lon="2.462666">
        <ele>150.269</ele>
        <time>2021-05-26T07:25:36Z</time>
      </trkpt>
      <trkpt lat="41.562235" lon="2.462649">
        <ele>150.236</ele>
        <time>2021-05-26T07:25:37Z</time>
      </trkpt>
      <trkpt lat="41.562251" lon="2.462634">
        <ele>150.219</ele>
        <time>2021-05-26T07:25:38Z</time>
      </trkpt>
      <trkpt lat="41.562269" lon="2.462621">
        <ele>150.364</ele>
        <time>2021-05-26T07:25:39Z</time>
      </trkpt>
      <trkpt lat="41.562306" lon="2.462596">
        <ele>150.590</ele>
        <time>2021-05-26T07:25:40Z</time>
      </trkpt>
      <trkpt lat="41.562327" lon="2.462586">
        <ele>150.657</ele>
        <time>2021-05-26T07:25:42Z</time>
      </trkpt>
      <trkpt lat="41.562369" lon="2.462560">
        <ele>150.934</ele>
        <time>2021-05-26T07:25:43Z</time>
      </trkpt>
      <trkpt lat="41.562391" lon="2.462545">
        <ele>151.047</ele>
        <time>2021-05-26T07:25:45Z</time>
      </trkpt>
      <trkpt lat="41.562414" lon="2.462529">
        <ele>151.229</ele>
        <time>2021-05-26T07:25:46Z</time>
      </trkpt>
      <trkpt lat="41.562434" lon="2.462512">
        <ele>151.321</ele>
        <time>2021-05-26T07:25:47Z</time>
      </trkpt>
      <trkpt lat="41.562454" lon="2.462498">
        <ele>151.508</ele>
        <time>2021-05-26T07:25:48Z</time>
      </trkpt>
      <trkpt lat="41.562473" lon="2.462482">
        <ele>151.611</ele>
        <time>2021-05-26T07:25:49Z</time>
      </trkpt>
      <trkpt lat="41.562492" lon="2.462465">
        <ele>151.748</ele>
        <time>2021-05-26T07:25:50Z</time>
      </trkpt>
      <trkpt lat="41.562511" lon="2.462449">
        <ele>151.775</ele>
        <time>2021-05-26T07:25:51Z</time>
      </trkpt>
      <trkpt lat="41.562530" lon="2.462436">
        <ele>151.738</ele>
        <time>2021-05-26T07:25:52Z</time>
      </trkpt>
      <trkpt lat="41.562549" lon="2.462427">
        <ele>151.753</ele>
        <time>2021-05-26T07:25:53Z</time>
      </trkpt>
      <trkpt lat="41.562567" lon="2.462421">
        <ele>151.729</ele>
        <time>2021-05-26T07:25:54Z</time>
      </trkpt>
      <trkpt lat="41.562593" lon="2.462419">
        <ele>151.856</ele>
        <time>2021-05-26T07:25:55Z</time>
      </trkpt>
      <trkpt lat="41.562623" lon="2.462415">
        <ele>152.083</ele>
        <time>2021-05-26T07:25:56Z</time>
      </trkpt>
      <trkpt lat="41.562650" lon="2.462406">
        <ele>152.066</ele>
        <time>2021-05-26T07:25:57Z</time>
      </trkpt>
      <trkpt lat="41.562675" lon="2.462395">
        <ele>152.129</ele>
        <time>2021-05-26T07:25:58Z</time>
      </trkpt>
      <trkpt lat="41.562700" lon="2.462391">
        <ele>152.221</ele>
        <time>2021-05-26T07:25:59Z</time>
      </trkpt>
      <trkpt lat="41.562721" lon="2.462391">
        <ele>152.308</ele>
        <time>2021-05-26T07:26:00Z</time>
      </trkpt>
      <trkpt lat="41.562755" lon="2.462387">
        <ele>152.533</ele>
        <time>2021-05-26T07:26:01Z</time>
      </trkpt>
      <trkpt lat="41.562811" lon="2.462378">
        <ele>152.930</ele>
        <time>2021-05-26T07:26:04Z</time>
      </trkpt>
      <trkpt lat="41.562841" lon="2.462370">
        <ele>153.237</ele>
        <time>2021-05-26T07:26:07Z</time>
      </trkpt>
      <trkpt lat="41.562875" lon="2.462367">
        <ele>153.670</ele>
        <time>2021-05-26T07:26:09Z</time>
      </trkpt>
      <trkpt lat="41.562893" lon="2.462364">
        <ele>153.895</ele>
        <time>2021-05-26T07:26:10Z</time>
      </trkpt>
      <trkpt lat="41.562942" lon="2.462347">
        <ele>154.241</ele>
        <time>2021-05-26T07:26:13Z</time>
      </trkpt>
      <trkpt lat="41.563001" lon="2.462343">
        <ele>154.798</ele>
        <time>2021-05-26T07:26:17Z</time>
      </trkpt>
      <trkpt lat="41.563054" lon="2.462338">
        <ele>155.295</ele>
        <time>2021-05-26T07:26:20Z</time>
      </trkpt>
      <trkpt lat="41.563154" lon="2.462308">
        <ele>156.638</ele>
        <time>2021-05-26T07:26:24Z</time>
      </trkpt>
      <trkpt lat="41.563200" lon="2.462301">
        <ele>157.370</ele>
        <time>2021-05-26T07:26:26Z</time>
      </trkpt>
      <trkpt lat="41.563243" lon="2.462286">
        <ele>157.917</ele>
        <time>2021-05-26T07:26:28Z</time>
      </trkpt>
      <trkpt lat="41.563265" lon="2.462283">
        <ele>158.308</ele>
        <time>2021-05-26T07:26:29Z</time>
      </trkpt>
      <trkpt lat="41.563303" lon="2.462275">
        <ele>158.980</ele>
        <time>2021-05-26T07:26:32Z</time>
      </trkpt>
      <trkpt lat="41.563345" lon="2.462276">
        <ele>159.567</ele>
        <time>2021-05-26T07:26:33Z</time>
      </trkpt>
      <trkpt lat="41.563377" lon="2.462269">
        <ele>159.874</ele>
        <time>2021-05-26T07:26:36Z</time>
      </trkpt>
      <trkpt lat="41.563401" lon="2.462261">
        <ele>160.027</ele>
        <time>2021-05-26T07:26:37Z</time>
      </trkpt>
      <trkpt lat="41.563420" lon="2.462251">
        <ele>160.212</ele>
        <time>2021-05-26T07:26:38Z</time>
      </trkpt>
      <trkpt lat="41.563444" lon="2.462238">
        <ele>160.348</ele>
        <time>2021-05-26T07:26:39Z</time>
      </trkpt>
      <trkpt lat="41.563470" lon="2.462221">
        <ele>160.535</ele>
        <time>2021-05-26T07:26:40Z</time>
      </trkpt>
      <trkpt lat="41.563488" lon="2.462203">
        <ele>160.522</ele>
        <time>2021-05-26T07:26:41Z</time>
      </trkpt>
      <trkpt lat="41.563506" lon="2.462187">
        <ele>160.669</ele>
        <time>2021-05-26T07:26:42Z</time>
      </trkpt>
      <trkpt lat="41.563524" lon="2.462167">
        <ele>160.704</ele>
        <time>2021-05-26T07:26:43Z</time>
      </trkpt>
      <trkpt lat="41.563542" lon="2.462147">
        <ele>160.824</ele>
        <time>2021-05-26T07:26:44Z</time>
      </trkpt>
      <trkpt lat="41.563560" lon="2.462129">
        <ele>161.008</ele>
        <time>2021-05-26T07:26:45Z</time>
      </trkpt>
      <trkpt lat="41.563575" lon="2.462112">
        <ele>161.173</ele>
        <time>2021-05-26T07:26:46Z</time>
      </trkpt>
      <trkpt lat="41.563590" lon="2.462094">
        <ele>161.210</ele>
        <time>2021-05-26T07:26:47Z</time>
      </trkpt>
      <trkpt lat="41.563612" lon="2.462071">
        <ele>161.587</ele>
        <time>2021-05-26T07:26:48Z</time>
      </trkpt>
      <trkpt lat="41.563627" lon="2.462049">
        <ele>161.770</ele>
        <time>2021-05-26T07:26:49Z</time>
      </trkpt>
      <trkpt lat="41.563639" lon="2.462028">
        <ele>161.955</ele>
        <time>2021-05-26T07:26:50Z</time>
      </trkpt>
      <trkpt lat="41.563654" lon="2.462004">
        <ele>162.151</ele>
        <time>2021-05-26T07:26:51Z</time>
      </trkpt>
      <trkpt lat="41.563667" lon="2.461981">
        <ele>162.328</ele>
        <time>2021-05-26T07:26:52Z</time>
      </trkpt>
      <trkpt lat="41.563682" lon="2.461958">
        <ele>162.635</ele>
        <time>2021-05-26T07:26:53Z</time>
      </trkpt>
      <trkpt lat="41.563693" lon="2.461934">
        <ele>162.773</ele>
        <time>2021-05-26T07:26:54Z</time>
      </trkpt>
      <trkpt lat="41.563706" lon="2.461908">
        <ele>162.985</ele>
        <time>2021-05-26T07:26:55Z</time>
      </trkpt>
      <trkpt lat="41.563720" lon="2.461891">
        <ele>163.113</ele>
        <time>2021-05-26T07:26:56Z</time>
      </trkpt>
      <trkpt lat="41.563737" lon="2.461867">
        <ele>163.308</ele>
        <time>2021-05-26T07:26:57Z</time>
      </trkpt>
      <trkpt lat="41.563752" lon="2.461844">
        <ele>163.524</ele>
        <time>2021-05-26T07:26:58Z</time>
      </trkpt>
      <trkpt lat="41.563769" lon="2.461822">
        <ele>163.761</ele>
        <time>2021-05-26T07:26:59Z</time>
      </trkpt>
      <trkpt lat="41.563783" lon="2.461801">
        <ele>163.948</ele>
        <time>2021-05-26T07:27:00Z</time>
      </trkpt>
      <trkpt lat="41.563811" lon="2.461767">
        <ele>164.281</ele>
        <time>2021-05-26T07:27:02Z</time>
      </trkpt>
      <trkpt lat="41.563829" lon="2.461752">
        <ele>164.566</ele>
        <time>2021-05-26T07:27:03Z</time>
      </trkpt>
      <trkpt lat="41.563863" lon="2.461720">
        <ele>164.922</ele>
        <time>2021-05-26T07:27:04Z</time>
      </trkpt>
      <trkpt lat="41.563882" lon="2.461701">
        <ele>165.159</ele>
        <time>2021-05-26T07:27:05Z</time>
      </trkpt>
      <trkpt lat="41.563909" lon="2.461681">
        <ele>165.576</ele>
        <time>2021-05-26T07:27:06Z</time>
      </trkpt>
      <trkpt lat="41.563936" lon="2.461664">
        <ele>165.814</ele>
        <time>2021-05-26T07:27:07Z</time>
      </trkpt>
      <trkpt lat="41.563960" lon="2.461649">
        <ele>166.154</ele>
        <time>2021-05-26T07:27:08Z</time>
      </trkpt>
      <trkpt lat="41.563981" lon="2.461632">
        <ele>166.309</ele>
        <time>2021-05-26T07:27:09Z</time>
      </trkpt>
      <trkpt lat="41.563999" lon="2.461615">
        <ele>166.408</ele>
        <time>2021-05-26T07:27:10Z</time>
      </trkpt>
      <trkpt lat="41.564018" lon="2.461596">
        <ele>166.648</ele>
        <time>2021-05-26T07:27:11Z</time>
      </trkpt>
      <trkpt lat="41.564036" lon="2.461581">
        <ele>166.755</ele>
        <time>2021-05-26T07:27:13Z</time>
      </trkpt>
      <trkpt lat="41.564055" lon="2.461566">
        <ele>166.952</ele>
        <time>2021-05-26T07:27:14Z</time>
      </trkpt>
      <trkpt lat="41.564075" lon="2.461552">
        <ele>167.165</ele>
        <time>2021-05-26T07:27:15Z</time>
      </trkpt>
      <trkpt lat="41.564094" lon="2.461540">
        <ele>167.340</ele>
        <time>2021-05-26T07:27:16Z</time>
      </trkpt>
      <trkpt lat="41.564112" lon="2.461529">
        <ele>167.586</ele>
        <time>2021-05-26T07:27:17Z</time>
      </trkpt>
      <trkpt lat="41.564130" lon="2.461516">
        <ele>167.733</ele>
        <time>2021-05-26T07:27:18Z</time>
      </trkpt>
      <trkpt lat="41.564151" lon="2.461501">
        <ele>167.950</ele>
        <time>2021-05-26T07:27:19Z</time>
      </trkpt>
      <trkpt lat="41.564173" lon="2.461482">
        <ele>168.127</ele>
        <time>2021-05-26T07:27:20Z</time>
      </trkpt>
      <trkpt lat="41.564194" lon="2.461465">
        <ele>168.268</ele>
        <time>2021-05-26T07:27:21Z</time>
      </trkpt>
      <trkpt lat="41.564212" lon="2.461447">
        <ele>168.214</ele>
        <time>2021-05-26T07:27:22Z</time>
      </trkpt>
      <trkpt lat="41.564227" lon="2.461429">
        <ele>168.308</ele>
        <time>2021-05-26T07:27:23Z</time>
      </trkpt>
      <trkpt lat="41.564249" lon="2.461413">
        <ele>168.439</ele>
        <time>2021-05-26T07:27:24Z</time>
      </trkpt>
      <trkpt lat="41.564270" lon="2.461397">
        <ele>168.686</ele>
        <time>2021-05-26T07:27:25Z</time>
      </trkpt>
      <trkpt lat="41.564291" lon="2.461378">
        <ele>168.643</ele>
        <time>2021-05-26T07:27:26Z</time>
      </trkpt>
      <trkpt lat="41.564312" lon="2.461366">
        <ele>168.886</ele>
        <time>2021-05-26T07:27:27Z</time>
      </trkpt>
      <trkpt lat="41.564336" lon="2.461354">
        <ele>168.921</ele>
        <time>2021-05-26T07:27:28Z</time>
      </trkpt>
      <trkpt lat="41.564385" lon="2.461322">
        <ele>169.287</ele>
        <time>2021-05-26T07:27:29Z</time>
      </trkpt>
      <trkpt lat="41.564406" lon="2.461308">
        <ele>169.314</ele>
        <time>2021-05-26T07:27:30Z</time>
      </trkpt>
      <trkpt lat="41.564427" lon="2.461293">
        <ele>169.481</ele>
        <time>2021-05-26T07:27:32Z</time>
      </trkpt>
      <trkpt lat="41.564463" lon="2.461269">
        <ele>169.342</ele>
        <time>2021-05-26T07:27:33Z</time>
      </trkpt>
      <trkpt lat="41.564485" lon="2.461257">
        <ele>169.222</ele>
        <time>2021-05-26T07:27:35Z</time>
      </trkpt>
      <trkpt lat="41.564506" lon="2.461247">
        <ele>169.114</ele>
        <time>2021-05-26T07:27:36Z</time>
      </trkpt>
      <trkpt lat="41.564554" lon="2.461233">
        <ele>169.008</ele>
        <time>2021-05-26T07:27:37Z</time>
      </trkpt>
      <trkpt lat="41.564580" lon="2.461233">
        <ele>169.081</ele>
        <time>2021-05-26T07:27:38Z</time>
      </trkpt>
      <trkpt lat="41.564603" lon="2.461233">
        <ele>169.148</ele>
        <time>2021-05-26T07:27:40Z</time>
      </trkpt>
      <trkpt lat="41.564625" lon="2.461238">
        <ele>169.235</ele>
        <time>2021-05-26T07:27:41Z</time>
      </trkpt>
      <trkpt lat="41.564647" lon="2.461242">
        <ele>169.328</ele>
        <time>2021-05-26T07:27:42Z</time>
      </trkpt>
      <trkpt lat="41.564668" lon="2.461244">
        <ele>169.343</ele>
        <time>2021-05-26T07:27:43Z</time>
      </trkpt>
      <trkpt lat="41.564712" lon="2.461255">
        <ele>169.539</ele>
        <time>2021-05-26T07:27:44Z</time>
      </trkpt>
      <trkpt lat="41.564733" lon="2.461264">
        <ele>169.736</ele>
        <time>2021-05-26T07:27:45Z</time>
      </trkpt>
      <trkpt lat="41.564754" lon="2.461274">
        <ele>169.953</ele>
        <time>2021-05-26T07:27:47Z</time>
      </trkpt>
      <trkpt lat="41.564774" lon="2.461284">
        <ele>170.131</ele>
        <time>2021-05-26T07:27:48Z</time>
      </trkpt>
      <trkpt lat="41.564793" lon="2.461295">
        <ele>170.261</ele>
        <time>2021-05-26T07:27:49Z</time>
      </trkpt>
      <trkpt lat="41.564809" lon="2.461311">
        <ele>170.407</ele>
        <time>2021-05-26T07:27:50Z</time>
      </trkpt>
      <trkpt lat="41.564828" lon="2.461325">
        <ele>170.608</ele>
        <time>2021-05-26T07:27:51Z</time>
      </trkpt>
      <trkpt lat="41.564847" lon="2.461341">
        <ele>170.780</ele>
        <time>2021-05-26T07:27:52Z</time>
      </trkpt>
      <trkpt lat="41.564862" lon="2.461356">
        <ele>170.897</ele>
        <time>2021-05-26T07:27:53Z</time>
      </trkpt>
      <trkpt lat="41.564879" lon="2.461366">
        <ele>170.974</ele>
        <time>2021-05-26T07:27:54Z</time>
      </trkpt>
      <trkpt lat="41.564903" lon="2.461375">
        <ele>170.997</ele>
        <time>2021-05-26T07:27:55Z</time>
      </trkpt>
      <trkpt lat="41.564934" lon="2.461400">
        <ele>171.082</ele>
        <time>2021-05-26T07:27:57Z</time>
      </trkpt>
      <trkpt lat="41.564950" lon="2.461412">
        <ele>171.018</ele>
        <time>2021-05-26T07:27:58Z</time>
      </trkpt>
      <trkpt lat="41.564980" lon="2.461436">
        <ele>171.045</ele>
        <time>2021-05-26T07:27:59Z</time>
      </trkpt>
      <trkpt lat="41.565011" lon="2.461456">
        <ele>171.142</ele>
        <time>2021-05-26T07:28:02Z</time>
      </trkpt>
      <trkpt lat="41.565034" lon="2.461451">
        <ele>171.295</ele>
        <time>2021-05-26T07:28:03Z</time>
      </trkpt>
      <trkpt lat="41.565074" lon="2.461462">
        <ele>171.449</ele>
        <time>2021-05-26T07:28:04Z</time>
      </trkpt>
      <trkpt lat="41.565096" lon="2.461469">
        <ele>171.523</ele>
        <time>2021-05-26T07:28:05Z</time>
      </trkpt>
      <trkpt lat="41.565119" lon="2.461477">
        <ele>171.608</ele>
        <time>2021-05-26T07:28:06Z</time>
      </trkpt>
      <trkpt lat="41.565141" lon="2.461480">
        <ele>171.736</ele>
        <time>2021-05-26T07:28:08Z</time>
      </trkpt>
      <trkpt lat="41.565182" lon="2.461475">
        <ele>171.993</ele>
        <time>2021-05-26T07:28:09Z</time>
      </trkpt>
      <trkpt lat="41.565206" lon="2.461466">
        <ele>172.140</ele>
        <time>2021-05-26T07:28:11Z</time>
      </trkpt>
      <trkpt lat="41.565184" lon="2.461482">
        <ele>171.923</ele>
        <time>2021-05-26T07:28:16Z</time>
      </trkpt>
      <trkpt lat="41.565162" lon="2.461506">
        <ele>171.788</ele>
        <time>2021-05-26T07:28:18Z</time>
      </trkpt>
      <trkpt lat="41.565156" lon="2.461541">
        <ele>171.544</ele>
        <time>2021-05-26T07:28:19Z</time>
      </trkpt>
      <trkpt lat="41.565175" lon="2.461552">
        <ele>171.571</ele>
        <time>2021-05-26T07:28:21Z</time>
      </trkpt>
      <trkpt lat="41.565195" lon="2.461563">
        <ele>171.518</ele>
        <time>2021-05-26T07:28:22Z</time>
      </trkpt>
      <trkpt lat="41.565214" lon="2.461578">
        <ele>171.559</ele>
        <time>2021-05-26T07:28:23Z</time>
      </trkpt>
      <trkpt lat="41.565233" lon="2.461597">
        <ele>171.403</ele>
        <time>2021-05-26T07:28:24Z</time>
      </trkpt>
      <trkpt lat="41.565252" lon="2.461615">
        <ele>171.323</ele>
        <time>2021-05-26T07:28:25Z</time>
      </trkpt>
      <trkpt lat="41.565274" lon="2.461626">
        <ele>171.308</ele>
        <time>2021-05-26T07:28:26Z</time>
      </trkpt>
      <trkpt lat="41.565298" lon="2.461634">
        <ele>171.362</ele>
        <time>2021-05-26T07:28:27Z</time>
      </trkpt>
      <trkpt lat="41.565321" lon="2.461638">
        <ele>171.329</ele>
        <time>2021-05-26T07:28:28Z</time>
      </trkpt>
      <trkpt lat="41.565371" lon="2.461660">
        <ele>171.126</ele>
        <time>2021-05-26T07:28:29Z</time>
      </trkpt>
      <trkpt lat="41.565392" lon="2.461673">
        <ele>170.949</ele>
        <time>2021-05-26T07:28:31Z</time>
      </trkpt>
      <trkpt lat="41.565415" lon="2.461683">
        <ele>170.894</ele>
        <time>2021-05-26T07:28:32Z</time>
      </trkpt>
      <trkpt lat="41.565466" lon="2.461701">
        <ele>170.590</ele>
        <time>2021-05-26T07:28:33Z</time>
      </trkpt>
      <trkpt lat="41.565490" lon="2.461705">
        <ele>170.427</ele>
        <time>2021-05-26T07:28:35Z</time>
      </trkpt>
      <trkpt lat="41.565515" lon="2.461716">
        <ele>170.254</ele>
        <time>2021-05-26T07:28:36Z</time>
      </trkpt>
      <trkpt lat="41.565566" lon="2.461732">
        <ele>169.991</ele>
        <time>2021-05-26T07:28:37Z</time>
      </trkpt>
      <trkpt lat="41.565592" lon="2.461738">
        <ele>170.081</ele>
        <time>2021-05-26T07:28:39Z</time>
      </trkpt>
      <trkpt lat="41.565643" lon="2.461758">
        <ele>170.119</ele>
        <time>2021-05-26T07:28:40Z</time>
      </trkpt>
      <trkpt lat="41.565664" lon="2.461782">
        <ele>169.808</ele>
        <time>2021-05-26T07:28:42Z</time>
      </trkpt>
      <trkpt lat="41.565687" lon="2.461805">
        <ele>169.596</ele>
        <time>2021-05-26T07:28:43Z</time>
      </trkpt>
      <trkpt lat="41.565735" lon="2.461843">
        <ele>168.973</ele>
        <time>2021-05-26T07:28:44Z</time>
      </trkpt>
      <trkpt lat="41.565756" lon="2.461862">
        <ele>168.610</ele>
        <time>2021-05-26T07:28:45Z</time>
      </trkpt>
      <trkpt lat="41.565775" lon="2.461888">
        <ele>168.183</ele>
        <time>2021-05-26T07:28:47Z</time>
      </trkpt>
      <trkpt lat="41.565793" lon="2.461911">
        <ele>167.728</ele>
        <time>2021-05-26T07:28:48Z</time>
      </trkpt>
      <trkpt lat="41.565812" lon="2.461934">
        <ele>167.264</ele>
        <time>2021-05-26T07:28:49Z</time>
      </trkpt>
      <trkpt lat="41.565826" lon="2.461954">
        <ele>166.831</ele>
        <time>2021-05-26T07:28:50Z</time>
      </trkpt>
      <trkpt lat="41.565851" lon="2.461968">
        <ele>167.028</ele>
        <time>2021-05-26T07:28:52Z</time>
      </trkpt>
      <trkpt lat="41.565871" lon="2.461958">
        <ele>167.534</ele>
        <time>2021-05-26T07:28:53Z</time>
      </trkpt>
      <trkpt lat="41.565889" lon="2.461954">
        <ele>167.955</ele>
        <time>2021-05-26T07:28:56Z</time>
      </trkpt>
      <trkpt lat="41.565975" lon="2.461908">
        <ele>170.510</ele>
        <time>2021-05-26T07:29:02Z</time>
      </trkpt>
      <trkpt lat="41.566061" lon="2.461859">
        <ele>173.308</ele>
        <time>2021-05-26T07:29:06Z</time>
      </trkpt>
      <trkpt lat="41.566088" lon="2.461849">
        <ele>174.050</ele>
        <time>2021-05-26T07:29:07Z</time>
      </trkpt>
      <trkpt lat="41.566114" lon="2.461841">
        <ele>174.727</ele>
        <time>2021-05-26T07:29:08Z</time>
      </trkpt>
      <trkpt lat="41.566134" lon="2.461832">
        <ele>175.314</ele>
        <time>2021-05-26T07:29:09Z</time>
      </trkpt>
      <trkpt lat="41.566158" lon="2.461821">
        <ele>176.157</ele>
        <time>2021-05-26T07:29:10Z</time>
      </trkpt>
      <trkpt lat="41.566177" lon="2.461808">
        <ele>176.992</ele>
        <time>2021-05-26T07:29:11Z</time>
      </trkpt>
      <trkpt lat="41.566209" lon="2.461791">
        <ele>177.958</ele>
        <time>2021-05-26T07:29:13Z</time>
      </trkpt>
      <trkpt lat="41.566229" lon="2.461779">
        <ele>178.665</ele>
        <time>2021-05-26T07:29:15Z</time>
      </trkpt>
      <trkpt lat="41.566259" lon="2.461760">
        <ele>179.742</ele>
        <time>2021-05-26T07:29:16Z</time>
      </trkpt>
      <trkpt lat="41.566277" lon="2.461744">
        <ele>180.483</ele>
        <time>2021-05-26T07:29:18Z</time>
      </trkpt>
      <trkpt lat="41.566299" lon="2.461734">
        <ele>181.025</ele>
        <time>2021-05-26T07:29:19Z</time>
      </trkpt>
      <trkpt lat="41.566385" lon="2.461675">
        <ele>183.817</ele>
        <time>2021-05-26T07:29:29Z</time>
      </trkpt>
      <trkpt lat="41.566487" lon="2.461646">
        <ele>185.608</ele>
        <time>2021-05-26T07:29:36Z</time>
      </trkpt>
      <trkpt lat="41.566575" lon="2.461694">
        <ele>186.365</ele>
        <time>2021-05-26T07:29:42Z</time>
      </trkpt>
      <trkpt lat="41.566648" lon="2.461786">
        <ele>186.052</ele>
        <time>2021-05-26T07:29:46Z</time>
      </trkpt>
      <trkpt lat="41.566698" lon="2.461905">
        <ele>185.169</ele>
        <time>2021-05-26T07:29:50Z</time>
      </trkpt>
      <trkpt lat="41.566752" lon="2.462010">
        <ele>184.272</ele>
        <time>2021-05-26T07:29:57Z</time>
      </trkpt>
      <trkpt lat="41.566850" lon="2.462093">
        <ele>184.417</ele>
        <time>2021-05-26T07:30:03Z</time>
      </trkpt>
      <trkpt lat="41.566868" lon="2.462101">
        <ele>184.773</ele>
        <time>2021-05-26T07:30:04Z</time>
      </trkpt>
      <trkpt lat="41.566895" lon="2.462129">
        <ele>184.750</ele>
        <time>2021-05-26T07:30:06Z</time>
      </trkpt>
      <trkpt lat="41.566915" lon="2.462138">
        <ele>184.957</ele>
        <time>2021-05-26T07:30:08Z</time>
      </trkpt>
      <trkpt lat="41.566934" lon="2.462144">
        <ele>185.278</ele>
        <time>2021-05-26T07:30:09Z</time>
      </trkpt>
      <trkpt lat="41.566958" lon="2.462145">
        <ele>185.733</ele>
        <time>2021-05-26T07:30:10Z</time>
      </trkpt>
      <trkpt lat="41.566986" lon="2.462155">
        <ele>186.026</ele>
        <time>2021-05-26T07:30:11Z</time>
      </trkpt>
      <trkpt lat="41.567018" lon="2.462172">
        <ele>186.408</ele>
        <time>2021-05-26T07:30:13Z</time>
      </trkpt>
      <trkpt lat="41.567052" lon="2.462186">
        <ele>186.984</ele>
        <time>2021-05-26T07:30:16Z</time>
      </trkpt>
      <trkpt lat="41.567069" lon="2.462201">
        <ele>187.061</ele>
        <time>2021-05-26T07:30:17Z</time>
      </trkpt>
      <trkpt lat="41.567161" lon="2.462229">
        <ele>188.658</ele>
        <time>2021-05-26T07:30:22Z</time>
      </trkpt>
      <trkpt lat="41.567255" lon="2.462245">
        <ele>190.341</ele>
        <time>2021-05-26T07:30:27Z</time>
      </trkpt>
      <trkpt lat="41.567296" lon="2.462248">
        <ele>191.126</ele>
        <time>2021-05-26T07:30:29Z</time>
      </trkpt>
      <trkpt lat="41.567329" lon="2.462265">
        <ele>191.552</ele>
        <time>2021-05-26T07:30:31Z</time>
      </trkpt>
      <trkpt lat="41.567342" lon="2.462285">
        <ele>191.589</ele>
        <time>2021-05-26T07:30:32Z</time>
      </trkpt>
      <trkpt lat="41.567369" lon="2.462303">
        <ele>191.876</ele>
        <time>2021-05-26T07:30:34Z</time>
      </trkpt>
      <trkpt lat="41.567405" lon="2.462315">
        <ele>192.326</ele>
        <time>2021-05-26T07:30:36Z</time>
      </trkpt>
      <trkpt lat="41.567428" lon="2.462325">
        <ele>192.647</ele>
        <time>2021-05-26T07:30:37Z</time>
      </trkpt>
      <trkpt lat="41.567449" lon="2.462344">
        <ele>192.811</ele>
        <time>2021-05-26T07:30:38Z</time>
      </trkpt>
      <trkpt lat="41.567467" lon="2.462366">
        <ele>192.908</ele>
        <time>2021-05-26T07:30:39Z</time>
      </trkpt>
      <trkpt lat="41.567484" lon="2.462394">
        <ele>192.929</ele>
        <time>2021-05-26T07:30:40Z</time>
      </trkpt>
      <trkpt lat="41.567502" lon="2.462418">
        <ele>192.946</ele>
        <time>2021-05-26T07:30:41Z</time>
      </trkpt>
      <trkpt lat="41.567520" lon="2.462445">
        <ele>192.973</ele>
        <time>2021-05-26T07:30:42Z</time>
      </trkpt>
      <trkpt lat="41.567539" lon="2.462471">
        <ele>192.996</ele>
        <time>2021-05-26T07:30:43Z</time>
      </trkpt>
      <trkpt lat="41.567558" lon="2.462492">
        <ele>192.931</ele>
        <time>2021-05-26T07:30:44Z</time>
      </trkpt>
      <trkpt lat="41.567579" lon="2.462509">
        <ele>193.117</ele>
        <time>2021-05-26T07:30:45Z</time>
      </trkpt>
      <trkpt lat="41.567599" lon="2.462529">
        <ele>193.294</ele>
        <time>2021-05-26T07:30:46Z</time>
      </trkpt>
      <trkpt lat="41.567618" lon="2.462546">
        <ele>193.491</ele>
        <time>2021-05-26T07:30:47Z</time>
      </trkpt>
      <trkpt lat="41.567641" lon="2.462561">
        <ele>193.611</ele>
        <time>2021-05-26T07:30:48Z</time>
      </trkpt>
      <trkpt lat="41.567684" lon="2.462585">
        <ele>194.021</ele>
        <time>2021-05-26T07:30:49Z</time>
      </trkpt>
      <trkpt lat="41.567726" lon="2.462608">
        <ele>194.503</ele>
        <time>2021-05-26T07:30:51Z</time>
      </trkpt>
      <trkpt lat="41.567748" lon="2.462622">
        <ele>194.708</ele>
        <time>2021-05-26T07:30:52Z</time>
      </trkpt>
      <trkpt lat="41.567768" lon="2.462643">
        <ele>194.898</ele>
        <time>2021-05-26T07:30:54Z</time>
      </trkpt>
      <trkpt lat="41.567789" lon="2.462658">
        <ele>195.065</ele>
        <time>2021-05-26T07:30:55Z</time>
      </trkpt>
      <trkpt lat="41.567819" lon="2.462705">
        <ele>195.192</ele>
        <time>2021-05-26T07:30:56Z</time>
      </trkpt>
      <trkpt lat="41.567843" lon="2.462761">
        <ele>195.155</ele>
        <time>2021-05-26T07:30:58Z</time>
      </trkpt>
      <trkpt lat="41.567852" lon="2.462789">
        <ele>195.120</ele>
        <time>2021-05-26T07:30:59Z</time>
      </trkpt>
      <trkpt lat="41.567856" lon="2.462815">
        <ele>195.396</ele>
        <time>2021-05-26T07:31:01Z</time>
      </trkpt>
      <trkpt lat="41.567855" lon="2.462848">
        <ele>195.463</ele>
        <time>2021-05-26T07:31:02Z</time>
      </trkpt>
      <trkpt lat="41.567847" lon="2.462892">
        <ele>195.550</ele>
        <time>2021-05-26T07:31:03Z</time>
      </trkpt>
      <trkpt lat="41.567846" lon="2.462929">
        <ele>195.757</ele>
        <time>2021-05-26T07:31:04Z</time>
      </trkpt>
      <trkpt lat="41.567848" lon="2.462955">
        <ele>195.800</ele>
        <time>2021-05-26T07:31:05Z</time>
      </trkpt>
      <trkpt lat="41.567859" lon="2.462985">
        <ele>196.120</ele>
        <time>2021-05-26T07:31:07Z</time>
      </trkpt>
      <trkpt lat="41.567880" lon="2.462989">
        <ele>196.508</ele>
        <time>2021-05-26T07:31:09Z</time>
      </trkpt>
      <trkpt lat="41.567897" lon="2.463008">
        <ele>196.922</ele>
        <time>2021-05-26T07:31:13Z</time>
      </trkpt>
      <trkpt lat="41.567909" lon="2.463030">
        <ele>197.259</ele>
        <time>2021-05-26T07:31:15Z</time>
      </trkpt>
      <trkpt lat="41.567917" lon="2.463055">
        <ele>197.536</ele>
        <time>2021-05-26T07:31:19Z</time>
      </trkpt>
      <trkpt lat="41.567922" lon="2.463087">
        <ele>198.099</ele>
        <time>2021-05-26T07:31:22Z</time>
      </trkpt>
      <trkpt lat="41.567932" lon="2.463108">
        <ele>198.474</ele>
        <time>2021-05-26T07:31:25Z</time>
      </trkpt>
      <trkpt lat="41.567943" lon="2.463130">
        <ele>198.910</ele>
        <time>2021-05-26T07:31:27Z</time>
      </trkpt>
      <trkpt lat="41.567956" lon="2.463152">
        <ele>199.457</ele>
        <time>2021-05-26T07:31:30Z</time>
      </trkpt>
      <trkpt lat="41.567965" lon="2.463178">
        <ele>199.884</ele>
        <time>2021-05-26T07:31:32Z</time>
      </trkpt>
      <trkpt lat="41.567977" lon="2.463200">
        <ele>200.335</ele>
        <time>2021-05-26T07:31:34Z</time>
      </trkpt>
      <trkpt lat="41.567989" lon="2.463224">
        <ele>200.886</ele>
        <time>2021-05-26T07:31:37Z</time>
      </trkpt>
      <trkpt lat="41.568001" lon="2.463249">
        <ele>201.214</ele>
        <time>2021-05-26T07:31:39Z</time>
      </trkpt>
      <trkpt lat="41.568010" lon="2.463278">
        <ele>201.708</ele>
        <time>2021-05-26T07:31:42Z</time>
      </trkpt>
      <trkpt lat="41.568013" lon="2.463303">
        <ele>202.050</ele>
        <time>2021-05-26T07:31:45Z</time>
      </trkpt>
      <trkpt lat="41.568021" lon="2.463327">
        <ele>202.437</ele>
        <time>2021-05-26T07:31:47Z</time>
      </trkpt>
      <trkpt lat="41.568021" lon="2.463355">
        <ele>202.724</ele>
        <time>2021-05-26T07:31:49Z</time>
      </trkpt>
      <trkpt lat="41.568018" lon="2.463382">
        <ele>203.057</ele>
        <time>2021-05-26T07:31:52Z</time>
      </trkpt>
      <trkpt lat="41.568009" lon="2.463411">
        <ele>203.282</ele>
        <time>2021-05-26T07:31:54Z</time>
      </trkpt>
      <trkpt lat="41.568005" lon="2.463440">
        <ele>203.558</ele>
        <time>2021-05-26T07:31:55Z</time>
      </trkpt>
      <trkpt lat="41.568014" lon="2.463465">
        <ele>203.985</ele>
        <time>2021-05-26T07:31:59Z</time>
      </trkpt>
      <trkpt lat="41.568017" lon="2.463494">
        <ele>204.332</ele>
        <time>2021-05-26T07:32:02Z</time>
      </trkpt>
      <trkpt lat="41.568013" lon="2.463521">
        <ele>204.586</ele>
        <time>2021-05-26T07:32:04Z</time>
      </trkpt>
      <trkpt lat="41.568016" lon="2.463554">
        <ele>204.960</ele>
        <time>2021-05-26T07:32:05Z</time>
      </trkpt>
      <trkpt lat="41.568023" lon="2.463580">
        <ele>205.326</ele>
        <time>2021-05-26T07:32:08Z</time>
      </trkpt>
      <trkpt lat="41.568021" lon="2.463616">
        <ele>205.708</ele>
        <time>2021-05-26T07:32:12Z</time>
      </trkpt>
      <trkpt lat="41.568010" lon="2.463648">
        <ele>205.875</ele>
        <time>2021-05-26T07:32:14Z</time>
      </trkpt>
      <trkpt lat="41.568018" lon="2.463682">
        <ele>206.172</ele>
        <time>2021-05-26T07:32:17Z</time>
      </trkpt>
      <trkpt lat="41.568038" lon="2.463708">
        <ele>206.589</ele>
        <time>2021-05-26T07:32:19Z</time>
      </trkpt>
      <trkpt lat="41.568050" lon="2.463730">
        <ele>206.872</ele>
        <time>2021-05-26T07:32:21Z</time>
      </trkpt>
      <trkpt lat="41.568051" lon="2.463762">
        <ele>207.057</ele>
        <time>2021-05-26T07:32:25Z</time>
      </trkpt>
      <trkpt lat="41.568054" lon="2.463796">
        <ele>207.393</ele>
        <time>2021-05-26T07:32:27Z</time>
      </trkpt>
      <trkpt lat="41.568061" lon="2.463821">
        <ele>207.650</ele>
        <time>2021-05-26T07:32:30Z</time>
      </trkpt>
      <trkpt lat="41.568066" lon="2.463851">
        <ele>207.977</ele>
        <time>2021-05-26T07:32:32Z</time>
      </trkpt>
      <trkpt lat="41.568074" lon="2.463880">
        <ele>208.226</ele>
        <time>2021-05-26T07:32:33Z</time>
      </trkpt>
      <trkpt lat="41.568089" lon="2.463912">
        <ele>208.547</ele>
        <time>2021-05-26T07:32:36Z</time>
      </trkpt>
      <trkpt lat="41.568109" lon="2.463948">
        <ele>208.711</ele>
        <time>2021-05-26T07:32:38Z</time>
      </trkpt>
      <trkpt lat="41.568130" lon="2.463984">
        <ele>209.008</ele>
        <time>2021-05-26T07:32:39Z</time>
      </trkpt>
      <trkpt lat="41.568144" lon="2.464002">
        <ele>209.119</ele>
        <time>2021-05-26T07:32:40Z</time>
      </trkpt>
      <trkpt lat="41.568160" lon="2.464019">
        <ele>209.366</ele>
        <time>2021-05-26T07:32:42Z</time>
      </trkpt>
      <trkpt lat="41.568181" lon="2.464033">
        <ele>209.633</ele>
        <time>2021-05-26T07:32:43Z</time>
      </trkpt>
      <trkpt lat="41.568226" lon="2.464045">
        <ele>210.156</ele>
        <time>2021-05-26T07:32:44Z</time>
      </trkpt>
      <trkpt lat="41.568249" lon="2.464043">
        <ele>210.411</ele>
        <time>2021-05-26T07:32:45Z</time>
      </trkpt>
      <trkpt lat="41.568270" lon="2.464047">
        <ele>210.637</ele>
        <time>2021-05-26T07:32:47Z</time>
      </trkpt>
      <trkpt lat="41.568292" lon="2.464043">
        <ele>210.944</ele>
        <time>2021-05-26T07:32:48Z</time>
      </trkpt>
      <trkpt lat="41.568312" lon="2.464042">
        <ele>211.261</ele>
        <time>2021-05-26T07:32:49Z</time>
      </trkpt>
      <trkpt lat="41.568335" lon="2.464041">
        <ele>211.583</ele>
        <time>2021-05-26T07:32:50Z</time>
      </trkpt>
      <trkpt lat="41.568358" lon="2.464046">
        <ele>212.225</ele>
        <time>2021-05-26T07:32:51Z</time>
      </trkpt>
      <trkpt lat="41.568409" lon="2.464043">
        <ele>213.817</ele>
        <time>2021-05-26T07:32:52Z</time>
      </trkpt>
      <trkpt lat="41.568438" lon="2.464045">
        <ele>214.708</ele>
        <time>2021-05-26T07:32:53Z</time>
      </trkpt>
      <trkpt lat="41.568462" lon="2.464051">
        <ele>215.495</ele>
        <time>2021-05-26T07:32:55Z</time>
      </trkpt>
      <trkpt lat="41.568504" lon="2.464066">
        <ele>216.762</ele>
        <time>2021-05-26T07:32:56Z</time>
      </trkpt>
      <trkpt lat="41.568526" lon="2.464080">
        <ele>217.319</ele>
        <time>2021-05-26T07:32:58Z</time>
      </trkpt>
      <trkpt lat="41.568570" lon="2.464098">
        <ele>218.742</ele>
        <time>2021-05-26T07:32:59Z</time>
      </trkpt>
      <trkpt lat="41.568586" lon="2.464112">
        <ele>219.287</ele>
        <time>2021-05-26T07:33:00Z</time>
      </trkpt>
      <trkpt lat="41.568603" lon="2.464120">
        <ele>219.753</ele>
        <time>2021-05-26T07:33:02Z</time>
      </trkpt>
      <trkpt lat="41.568619" lon="2.464132">
        <ele>220.160</ele>
        <time>2021-05-26T07:33:03Z</time>
      </trkpt>
      <trkpt lat="41.568650" lon="2.464156">
        <ele>220.657</ele>
        <time>2021-05-26T07:33:04Z</time>
      </trkpt>
      <trkpt lat="41.568667" lon="2.464165">
        <ele>220.847</ele>
        <time>2021-05-26T07:33:05Z</time>
      </trkpt>
      <trkpt lat="41.568747" lon="2.464235">
        <ele>221.229</ele>
        <time>2021-05-26T07:33:10Z</time>
      </trkpt>
      <trkpt lat="41.568802" lon="2.464262">
        <ele>221.821</ele>
        <time>2021-05-26T07:33:12Z</time>
      </trkpt>
      <trkpt lat="41.568815" lon="2.464287">
        <ele>221.808</ele>
        <time>2021-05-26T07:33:14Z</time>
      </trkpt>
      <trkpt lat="41.568829" lon="2.464317">
        <ele>221.871</ele>
        <time>2021-05-26T07:33:15Z</time>
      </trkpt>
      <trkpt lat="41.568861" lon="2.464321">
        <ele>222.448</ele>
        <time>2021-05-26T07:33:17Z</time>
      </trkpt>
      <trkpt lat="41.568896" lon="2.464321">
        <ele>222.925</ele>
        <time>2021-05-26T07:33:19Z</time>
      </trkpt>
      <trkpt lat="41.568929" lon="2.464320">
        <ele>222.838</ele>
        <time>2021-05-26T07:33:21Z</time>
      </trkpt>
      <trkpt lat="41.568958" lon="2.464320">
        <ele>222.633</ele>
        <time>2021-05-26T07:33:23Z</time>
      </trkpt>
      <trkpt lat="41.568977" lon="2.464306">
        <ele>222.799</ele>
        <time>2021-05-26T07:33:25Z</time>
      </trkpt>
      <trkpt lat="41.568997" lon="2.464292">
        <ele>222.776</ele>
        <time>2021-05-26T07:33:27Z</time>
      </trkpt>
      <trkpt lat="41.569030" lon="2.464284">
        <ele>222.633</ele>
        <time>2021-05-26T07:33:29Z</time>
      </trkpt>
      <trkpt lat="41.569050" lon="2.464279">
        <ele>222.635</ele>
        <time>2021-05-26T07:33:30Z</time>
      </trkpt>
      <trkpt lat="41.569070" lon="2.464272">
        <ele>222.686</ele>
        <time>2021-05-26T07:33:31Z</time>
      </trkpt>
      <trkpt lat="41.569087" lon="2.464263">
        <ele>222.614</ele>
        <time>2021-05-26T07:33:32Z</time>
      </trkpt>
      <trkpt lat="41.569118" lon="2.464248">
        <ele>222.608</ele>
        <time>2021-05-26T07:33:33Z</time>
      </trkpt>
      <trkpt lat="41.569137" lon="2.464230">
        <ele>222.710</ele>
        <time>2021-05-26T07:33:34Z</time>
      </trkpt>
      <trkpt lat="41.569154" lon="2.464210">
        <ele>222.777</ele>
        <time>2021-05-26T07:33:35Z</time>
      </trkpt>
      <trkpt lat="41.569180" lon="2.464187">
        <ele>222.934</ele>
        <time>2021-05-26T07:33:37Z</time>
      </trkpt>
      <trkpt lat="41.569199" lon="2.464174">
        <ele>222.917</ele>
        <time>2021-05-26T07:33:38Z</time>
      </trkpt>
      <trkpt lat="41.569233" lon="2.464148">
        <ele>223.272</ele>
        <time>2021-05-26T07:33:41Z</time>
      </trkpt>
      <trkpt lat="41.569253" lon="2.464129">
        <ele>223.428</ele>
        <time>2021-05-26T07:33:42Z</time>
      </trkpt>
      <trkpt lat="41.569289" lon="2.464098">
        <ele>223.725</ele>
        <time>2021-05-26T07:33:43Z</time>
      </trkpt>
      <trkpt lat="41.569309" lon="2.464085">
        <ele>223.962</ele>
        <time>2021-05-26T07:33:44Z</time>
      </trkpt>
      <trkpt lat="41.569334" lon="2.464074">
        <ele>224.151</ele>
        <time>2021-05-26T07:33:45Z</time>
      </trkpt>
      <trkpt lat="41.569359" lon="2.464060">
        <ele>224.301</ele>
        <time>2021-05-26T07:33:47Z</time>
      </trkpt>
      <trkpt lat="41.569379" lon="2.464049">
        <ele>224.511</ele>
        <time>2021-05-26T07:33:48Z</time>
      </trkpt>
      <trkpt lat="41.569396" lon="2.464038">
        <ele>224.708</ele>
        <time>2021-05-26T07:33:49Z</time>
      </trkpt>
      <trkpt lat="41.569425" lon="2.464014">
        <ele>225.142</ele>
        <time>2021-05-26T07:33:50Z</time>
      </trkpt>
      <trkpt lat="41.569441" lon="2.464001">
        <ele>225.449</ele>
        <time>2021-05-26T07:33:52Z</time>
      </trkpt>
      <trkpt lat="41.569459" lon="2.463986">
        <ele>225.746</ele>
        <time>2021-05-26T07:33:53Z</time>
      </trkpt>
      <trkpt lat="41.569476" lon="2.463971">
        <ele>225.929</ele>
        <time>2021-05-26T07:33:54Z</time>
      </trkpt>
      <trkpt lat="41.569511" lon="2.463944">
        <ele>226.414</ele>
        <time>2021-05-26T07:33:55Z</time>
      </trkpt>
      <trkpt lat="41.569532" lon="2.463927">
        <ele>226.860</ele>
        <time>2021-05-26T07:33:57Z</time>
      </trkpt>
      <trkpt lat="41.569546" lon="2.463912">
        <ele>227.077</ele>
        <time>2021-05-26T07:33:58Z</time>
      </trkpt>
      <trkpt lat="41.569576" lon="2.463883">
        <ele>227.654</ele>
        <time>2021-05-26T07:33:59Z</time>
      </trkpt>
      <trkpt lat="41.569591" lon="2.463870">
        <ele>227.875</ele>
        <time>2021-05-26T07:34:01Z</time>
      </trkpt>
      <trkpt lat="41.569606" lon="2.463853">
        <ele>228.128</ele>
        <time>2021-05-26T07:34:02Z</time>
      </trkpt>
      <trkpt lat="41.569623" lon="2.463838">
        <ele>228.420</ele>
        <time>2021-05-26T07:34:03Z</time>
      </trkpt>
      <trkpt lat="41.569637" lon="2.463820">
        <ele>228.708</ele>
        <time>2021-05-26T07:34:04Z</time>
      </trkpt>
      <trkpt lat="41.569668" lon="2.463784">
        <ele>229.374</ele>
        <time>2021-05-26T07:34:05Z</time>
      </trkpt>
      <trkpt lat="41.569686" lon="2.463768">
        <ele>229.641</ele>
        <time>2021-05-26T07:34:06Z</time>
      </trkpt>
      <trkpt lat="41.569701" lon="2.463751">
        <ele>229.938</ele>
        <time>2021-05-26T07:34:08Z</time>
      </trkpt>
      <trkpt lat="41.569715" lon="2.463734">
        <ele>230.231</ele>
        <time>2021-05-26T07:34:09Z</time>
      </trkpt>
      <trkpt lat="41.569741" lon="2.463701">
        <ele>230.636</ele>
        <time>2021-05-26T07:34:11Z</time>
      </trkpt>
      <trkpt lat="41.569764" lon="2.463641">
        <ele>231.372</ele>
        <time>2021-05-26T07:34:13Z</time>
      </trkpt>
      <trkpt lat="41.569778" lon="2.463619">
        <ele>231.559</ele>
        <time>2021-05-26T07:34:15Z</time>
      </trkpt>
      <trkpt lat="41.569788" lon="2.463596">
        <ele>231.796</ele>
        <time>2021-05-26T07:34:16Z</time>
      </trkpt>
      <trkpt lat="41.569794" lon="2.463569">
        <ele>231.939</ele>
        <time>2021-05-26T07:34:17Z</time>
      </trkpt>
      <trkpt lat="41.569802" lon="2.463540">
        <ele>232.201</ele>
        <time>2021-05-26T07:34:18Z</time>
      </trkpt>
      <trkpt lat="41.569811" lon="2.463514">
        <ele>232.421</ele>
        <time>2021-05-26T07:34:19Z</time>
      </trkpt>
      <trkpt lat="41.569821" lon="2.463481">
        <ele>232.708</ele>
        <time>2021-05-26T07:34:21Z</time>
      </trkpt>
      <trkpt lat="41.569830" lon="2.463439">
        <ele>233.250</ele>
        <time>2021-05-26T07:34:23Z</time>
      </trkpt>
      <trkpt lat="41.569835" lon="2.463400">
        <ele>233.697</ele>
        <time>2021-05-26T07:34:25Z</time>
      </trkpt>
      <trkpt lat="41.569848" lon="2.463355">
        <ele>234.294</ele>
        <time>2021-05-26T07:34:27Z</time>
      </trkpt>
      <trkpt lat="41.569863" lon="2.463323">
        <ele>234.627</ele>
        <time>2021-05-26T07:34:28Z</time>
      </trkpt>
      <trkpt lat="41.569872" lon="2.463295">
        <ele>235.052</ele>
        <time>2021-05-26T07:34:29Z</time>
      </trkpt>
      <trkpt lat="41.569881" lon="2.463265">
        <ele>235.378</ele>
        <time>2021-05-26T07:34:30Z</time>
      </trkpt>
      <trkpt lat="41.569891" lon="2.463239">
        <ele>235.735</ele>
        <time>2021-05-26T07:34:31Z</time>
      </trkpt>
      <trkpt lat="41.569901" lon="2.463218">
        <ele>236.032</ele>
        <time>2021-05-26T07:34:32Z</time>
      </trkpt>
      <trkpt lat="41.569911" lon="2.463194">
        <ele>236.488</ele>
        <time>2021-05-26T07:34:33Z</time>
      </trkpt>
      <trkpt lat="41.569928" lon="2.463150">
        <ele>237.024</ele>
        <time>2021-05-26T07:34:35Z</time>
      </trkpt>
      <trkpt lat="41.569941" lon="2.463122">
        <ele>237.526</ele>
        <time>2021-05-26T07:34:36Z</time>
      </trkpt>
      <trkpt lat="41.569955" lon="2.463100">
        <ele>237.908</ele>
        <time>2021-05-26T07:34:37Z</time>
      </trkpt>
      <trkpt lat="41.569971" lon="2.463079">
        <ele>238.485</ele>
        <time>2021-05-26T07:34:38Z</time>
      </trkpt>
      <trkpt lat="41.569982" lon="2.463057">
        <ele>238.852</ele>
        <time>2021-05-26T07:34:39Z</time>
      </trkpt>
      <trkpt lat="41.569994" lon="2.463035">
        <ele>239.279</ele>
        <time>2021-05-26T07:34:40Z</time>
      </trkpt>
      <trkpt lat="41.570005" lon="2.463010">
        <ele>239.532</ele>
        <time>2021-05-26T07:34:41Z</time>
      </trkpt>
      <trkpt lat="41.570016" lon="2.462985">
        <ele>239.857</ele>
        <time>2021-05-26T07:34:42Z</time>
      </trkpt>
      <trkpt lat="41.570024" lon="2.462964">
        <ele>240.133</ele>
        <time>2021-05-26T07:34:43Z</time>
      </trkpt>
      <trkpt lat="41.570033" lon="2.462921">
        <ele>240.620</ele>
        <time>2021-05-26T07:34:45Z</time>
      </trkpt>
      <trkpt lat="41.570039" lon="2.462897">
        <ele>240.977</ele>
        <time>2021-05-26T07:34:46Z</time>
      </trkpt>
      <trkpt lat="41.570049" lon="2.462861">
        <ele>241.317</ele>
        <time>2021-05-26T07:34:48Z</time>
      </trkpt>
      <trkpt lat="41.570062" lon="2.462820">
        <ele>241.887</ele>
        <time>2021-05-26T07:34:50Z</time>
      </trkpt>
      <trkpt lat="41.570075" lon="2.462785">
        <ele>242.215</ele>
        <time>2021-05-26T07:34:52Z</time>
      </trkpt>
      <trkpt lat="41.570092" lon="2.462752">
        <ele>242.508</ele>
        <time>2021-05-26T07:34:54Z</time>
      </trkpt>
      <trkpt lat="41.570112" lon="2.462719">
        <ele>242.888</ele>
        <time>2021-05-26T07:34:56Z</time>
      </trkpt>
      <trkpt lat="41.570133" lon="2.462687">
        <ele>243.135</ele>
        <time>2021-05-26T07:34:58Z</time>
      </trkpt>
      <trkpt lat="41.570150" lon="2.462654">
        <ele>243.572</ele>
        <time>2021-05-26T07:35:00Z</time>
      </trkpt>
      <trkpt lat="41.570177" lon="2.462620">
        <ele>243.975</ele>
        <time>2021-05-26T07:35:02Z</time>
      </trkpt>
      <trkpt lat="41.570201" lon="2.462589">
        <ele>244.420</ele>
        <time>2021-05-26T07:35:04Z</time>
      </trkpt>
      <trkpt lat="41.570220" lon="2.462562">
        <ele>244.866</ele>
        <time>2021-05-26T07:35:06Z</time>
      </trkpt>
      <trkpt lat="41.570242" lon="2.462534">
        <ele>245.343</ele>
        <time>2021-05-26T07:35:08Z</time>
      </trkpt>
      <trkpt lat="41.570269" lon="2.462503">
        <ele>245.960</ele>
        <time>2021-05-26T07:35:10Z</time>
      </trkpt>
      <trkpt lat="41.570295" lon="2.462472">
        <ele>246.285</ele>
        <time>2021-05-26T07:35:12Z</time>
      </trkpt>
      <trkpt lat="41.570322" lon="2.462445">
        <ele>246.589</ele>
        <time>2021-05-26T07:35:14Z</time>
      </trkpt>
      <trkpt lat="41.570339" lon="2.462429">
        <ele>246.717</ele>
        <time>2021-05-26T07:35:15Z</time>
      </trkpt>
      <trkpt lat="41.570361" lon="2.462400">
        <ele>247.008</ele>
        <time>2021-05-26T07:35:17Z</time>
      </trkpt>
      <trkpt lat="41.570384" lon="2.462377">
        <ele>247.355</ele>
        <time>2021-05-26T07:35:19Z</time>
      </trkpt>
      <trkpt lat="41.570411" lon="2.462352">
        <ele>247.752</ele>
        <time>2021-05-26T07:35:21Z</time>
      </trkpt>
      <trkpt lat="41.570441" lon="2.462330">
        <ele>248.189</ele>
        <time>2021-05-26T07:35:23Z</time>
      </trkpt>
      <trkpt lat="41.570468" lon="2.462311">
        <ele>248.542</ele>
        <time>2021-05-26T07:35:25Z</time>
      </trkpt>
      <trkpt lat="41.570496" lon="2.462300">
        <ele>248.917</ele>
        <time>2021-05-26T07:35:27Z</time>
      </trkpt>
      <trkpt lat="41.570524" lon="2.462281">
        <ele>249.433</ele>
        <time>2021-05-26T07:35:29Z</time>
      </trkpt>
      <trkpt lat="41.570540" lon="2.462267">
        <ele>249.640</ele>
        <time>2021-05-26T07:35:30Z</time>
      </trkpt>
      <trkpt lat="41.570568" lon="2.462240">
        <ele>250.187</ele>
        <time>2021-05-26T07:35:32Z</time>
      </trkpt>
      <trkpt lat="41.570591" lon="2.462223">
        <ele>250.517</ele>
        <time>2021-05-26T07:35:34Z</time>
      </trkpt>
      <trkpt lat="41.570625" lon="2.462198">
        <ele>250.987</ele>
        <time>2021-05-26T07:35:36Z</time>
      </trkpt>
      <trkpt lat="41.570645" lon="2.462182">
        <ele>251.215</ele>
        <time>2021-05-26T07:35:37Z</time>
      </trkpt>
      <trkpt lat="41.570672" lon="2.462168">
        <ele>251.608</ele>
        <time>2021-05-26T07:35:39Z</time>
      </trkpt>
      <trkpt lat="41.570700" lon="2.462153">
        <ele>252.058</ele>
        <time>2021-05-26T07:35:41Z</time>
      </trkpt>
      <trkpt lat="41.570723" lon="2.462140">
        <ele>252.335</ele>
        <time>2021-05-26T07:35:43Z</time>
      </trkpt>
      <trkpt lat="41.570748" lon="2.462130">
        <ele>252.772</ele>
        <time>2021-05-26T07:35:45Z</time>
      </trkpt>
      <trkpt lat="41.570776" lon="2.462122">
        <ele>253.195</ele>
        <time>2021-05-26T07:35:47Z</time>
      </trkpt>
      <trkpt lat="41.570802" lon="2.462107">
        <ele>253.510</ele>
        <time>2021-05-26T07:35:48Z</time>
      </trkpt>
      <trkpt lat="41.570833" lon="2.462096">
        <ele>254.086</ele>
        <time>2021-05-26T07:35:51Z</time>
      </trkpt>
      <trkpt lat="41.570856" lon="2.462091">
        <ele>254.443</ele>
        <time>2021-05-26T07:35:53Z</time>
      </trkpt>
      <trkpt lat="41.570885" lon="2.462082">
        <ele>254.910</ele>
        <time>2021-05-26T07:35:55Z</time>
      </trkpt>
      <trkpt lat="41.570917" lon="2.462079">
        <ele>255.535</ele>
        <time>2021-05-26T07:35:57Z</time>
      </trkpt>
      <trkpt lat="41.570950" lon="2.462079">
        <ele>256.186</ele>
        <time>2021-05-26T07:35:59Z</time>
      </trkpt>
      <trkpt lat="41.570979" lon="2.462071">
        <ele>256.714</ele>
        <time>2021-05-26T07:36:00Z</time>
      </trkpt>
      <trkpt lat="41.571010" lon="2.462069">
        <ele>257.208</ele>
        <time>2021-05-26T07:36:02Z</time>
      </trkpt>
      <trkpt lat="41.571041" lon="2.462067">
        <ele>257.850</ele>
        <time>2021-05-26T07:36:05Z</time>
      </trkpt>
      <trkpt lat="41.571063" lon="2.462065">
        <ele>258.227</ele>
        <time>2021-05-26T07:36:07Z</time>
      </trkpt>
      <trkpt lat="41.571093" lon="2.462062">
        <ele>258.844</ele>
        <time>2021-05-26T07:36:09Z</time>
      </trkpt>
      <trkpt lat="41.571124" lon="2.462053">
        <ele>259.417</ele>
        <time>2021-05-26T07:36:10Z</time>
      </trkpt>
      <trkpt lat="41.571151" lon="2.462052">
        <ele>259.812</ele>
        <time>2021-05-26T07:36:13Z</time>
      </trkpt>
      <trkpt lat="41.571177" lon="2.462056">
        <ele>260.148</ele>
        <time>2021-05-26T07:36:14Z</time>
      </trkpt>
      <trkpt lat="41.571204" lon="2.462054">
        <ele>260.565</ele>
        <time>2021-05-26T07:36:16Z</time>
      </trkpt>
      <trkpt lat="41.571231" lon="2.462049">
        <ele>261.072</ele>
        <time>2021-05-26T07:36:18Z</time>
      </trkpt>
      <trkpt lat="41.571259" lon="2.462048">
        <ele>261.443</ele>
        <time>2021-05-26T07:36:20Z</time>
      </trkpt>
      <trkpt lat="41.571278" lon="2.462052">
        <ele>261.664</ele>
        <time>2021-05-26T07:36:22Z</time>
      </trkpt>
      <trkpt lat="41.571301" lon="2.462056">
        <ele>261.910</ele>
        <time>2021-05-26T07:36:25Z</time>
      </trkpt>
      <trkpt lat="41.571323" lon="2.462052">
        <ele>262.308</ele>
        <time>2021-05-26T07:36:26Z</time>
      </trkpt>
      <trkpt lat="41.571344" lon="2.462038">
        <ele>262.721</ele>
        <time>2021-05-26T07:36:28Z</time>
      </trkpt>
      <trkpt lat="41.571368" lon="2.462021">
        <ele>263.168</ele>
        <time>2021-05-26T07:36:30Z</time>
      </trkpt>
      <trkpt lat="41.571386" lon="2.461996">
        <ele>263.655</ele>
        <time>2021-05-26T07:36:32Z</time>
      </trkpt>
      <trkpt lat="41.571398" lon="2.461968">
        <ele>264.088</ele>
        <time>2021-05-26T07:36:34Z</time>
      </trkpt>
      <trkpt lat="41.571407" lon="2.461936">
        <ele>264.553</ele>
        <time>2021-05-26T07:36:36Z</time>
      </trkpt>
      <trkpt lat="41.571417" lon="2.461908">
        <ele>265.069</ele>
        <time>2021-05-26T07:36:38Z</time>
      </trkpt>
      <trkpt lat="41.571425" lon="2.461881">
        <ele>265.566</ele>
        <time>2021-05-26T07:36:40Z</time>
      </trkpt>
      <trkpt lat="41.571425" lon="2.461851">
        <ele>265.823</ele>
        <time>2021-05-26T07:36:43Z</time>
      </trkpt>
      <trkpt lat="41.571415" lon="2.461809">
        <ele>266.142</ele>
        <time>2021-05-26T07:36:45Z</time>
      </trkpt>
      <trkpt lat="41.571404" lon="2.461775">
        <ele>266.222</ele>
        <time>2021-05-26T07:36:48Z</time>
      </trkpt>
      <trkpt lat="41.571394" lon="2.461735">
        <ele>266.414</ele>
        <time>2021-05-26T07:36:50Z</time>
      </trkpt>
      <trkpt lat="41.571388" lon="2.461705">
        <ele>266.608</ele>
        <time>2021-05-26T07:36:52Z</time>
      </trkpt>
      <trkpt lat="41.571381" lon="2.461672">
        <ele>266.771</ele>
        <time>2021-05-26T07:36:54Z</time>
      </trkpt>
      <trkpt lat="41.571380" lon="2.461637">
        <ele>267.028</ele>
        <time>2021-05-26T07:36:56Z</time>
      </trkpt>
      <trkpt lat="41.571371" lon="2.461603">
        <ele>266.965</ele>
        <time>2021-05-26T07:36:58Z</time>
      </trkpt>
      <trkpt lat="41.571377" lon="2.461568">
        <ele>267.418</ele>
        <time>2021-05-26T07:37:00Z</time>
      </trkpt>
      <trkpt lat="41.571377" lon="2.461531">
        <ele>267.663</ele>
        <time>2021-05-26T07:37:02Z</time>
      </trkpt>
      <trkpt lat="41.571383" lon="2.461504">
        <ele>268.059</ele>
        <time>2021-05-26T07:37:03Z</time>
      </trkpt>
      <trkpt lat="41.571387" lon="2.461480">
        <ele>268.336</ele>
        <time>2021-05-26T07:37:04Z</time>
      </trkpt>
      <trkpt lat="41.571392" lon="2.461440">
        <ele>268.713</ele>
        <time>2021-05-26T07:37:06Z</time>
      </trkpt>
      <trkpt lat="41.571401" lon="2.461400">
        <ele>269.329</ele>
        <time>2021-05-26T07:37:08Z</time>
      </trkpt>
      <trkpt lat="41.571406" lon="2.461367">
        <ele>269.500</ele>
        <time>2021-05-26T07:37:10Z</time>
      </trkpt>
      <trkpt lat="41.571420" lon="2.461345">
        <ele>269.920</ele>
        <time>2021-05-26T07:37:12Z</time>
      </trkpt>
      <trkpt lat="41.571444" lon="2.461320">
        <ele>270.708</ele>
        <time>2021-05-26T07:37:14Z</time>
      </trkpt>
      <trkpt lat="41.571469" lon="2.461302">
        <ele>271.559</ele>
        <time>2021-05-26T07:37:16Z</time>
      </trkpt>
      <trkpt lat="41.571487" lon="2.461300">
        <ele>272.156</ele>
        <time>2021-05-26T07:37:18Z</time>
      </trkpt>
      <trkpt lat="41.571515" lon="2.461291">
        <ele>273.013</ele>
        <time>2021-05-26T07:37:20Z</time>
      </trkpt>
      <trkpt lat="41.571537" lon="2.461284">
        <ele>273.746</ele>
        <time>2021-05-26T07:37:22Z</time>
      </trkpt>
      <trkpt lat="41.571557" lon="2.461278">
        <ele>274.341</ele>
        <time>2021-05-26T07:37:23Z</time>
      </trkpt>
      <trkpt lat="41.571583" lon="2.461270">
        <ele>275.257</ele>
        <time>2021-05-26T07:37:25Z</time>
      </trkpt>
      <trkpt lat="41.571612" lon="2.461255">
        <ele>276.294</ele>
        <time>2021-05-26T07:37:27Z</time>
      </trkpt>
      <trkpt lat="41.571637" lon="2.461235">
        <ele>277.131</ele>
        <time>2021-05-26T07:37:29Z</time>
      </trkpt>
      <trkpt lat="41.571657" lon="2.461230">
        <ele>277.897</ele>
        <time>2021-05-26T07:37:31Z</time>
      </trkpt>
      <trkpt lat="41.571677" lon="2.461227">
        <ele>278.423</ele>
        <time>2021-05-26T07:37:33Z</time>
      </trkpt>
      <trkpt lat="41.571696" lon="2.461224">
        <ele>278.825</ele>
        <time>2021-05-26T07:37:35Z</time>
      </trkpt>
      <trkpt lat="41.571718" lon="2.461222">
        <ele>279.208</ele>
        <time>2021-05-26T07:37:37Z</time>
      </trkpt>
      <trkpt lat="41.571740" lon="2.461220">
        <ele>279.776</ele>
        <time>2021-05-26T07:37:40Z</time>
      </trkpt>
      <trkpt lat="41.571769" lon="2.461218">
        <ele>280.383</ele>
        <time>2021-05-26T07:37:42Z</time>
      </trkpt>
      <trkpt lat="41.571793" lon="2.461208">
        <ele>280.910</ele>
        <time>2021-05-26T07:37:45Z</time>
      </trkpt>
      <trkpt lat="41.571810" lon="2.461201">
        <ele>281.383</ele>
        <time>2021-05-26T07:37:48Z</time>
      </trkpt>
      <trkpt lat="41.571829" lon="2.461196">
        <ele>281.728</ele>
        <time>2021-05-26T07:37:50Z</time>
      </trkpt>
      <trkpt lat="41.571853" lon="2.461188">
        <ele>282.354</ele>
        <time>2021-05-26T07:37:52Z</time>
      </trkpt>
      <trkpt lat="41.571884" lon="2.461195">
        <ele>282.991</ele>
        <time>2021-05-26T07:37:54Z</time>
      </trkpt>
      <trkpt lat="41.571907" lon="2.461196">
        <ele>283.328</ele>
        <time>2021-05-26T07:37:57Z</time>
      </trkpt>
      <trkpt lat="41.571931" lon="2.461189">
        <ele>283.953</ele>
        <time>2021-05-26T07:37:59Z</time>
      </trkpt>
      <trkpt lat="41.571950" lon="2.461181">
        <ele>284.404</ele>
        <time>2021-05-26T07:38:01Z</time>
      </trkpt>
      <trkpt lat="41.571973" lon="2.461174">
        <ele>285.114</ele>
        <time>2021-05-26T07:38:03Z</time>
      </trkpt>
      <trkpt lat="41.571999" lon="2.461163">
        <ele>286.008</ele>
        <time>2021-05-26T07:38:05Z</time>
      </trkpt>
      <trkpt lat="41.572020" lon="2.461154">
        <ele>286.762</ele>
        <time>2021-05-26T07:38:07Z</time>
      </trkpt>
      <trkpt lat="41.572042" lon="2.461145">
        <ele>287.469</ele>
        <time>2021-05-26T07:38:09Z</time>
      </trkpt>
      <trkpt lat="41.572061" lon="2.461140">
        <ele>288.016</ele>
        <time>2021-05-26T07:38:11Z</time>
      </trkpt>
      <trkpt lat="41.572082" lon="2.461135">
        <ele>288.769</ele>
        <time>2021-05-26T07:38:12Z</time>
      </trkpt>
      <trkpt lat="41.572100" lon="2.461122">
        <ele>289.424</ele>
        <time>2021-05-26T07:38:16Z</time>
      </trkpt>
      <trkpt lat="41.572117" lon="2.461096">
        <ele>290.190</ele>
        <time>2021-05-26T07:38:20Z</time>
      </trkpt>
      <trkpt lat="41.572133" lon="2.461074">
        <ele>290.877</ele>
        <time>2021-05-26T07:38:22Z</time>
      </trkpt>
      <trkpt lat="41.572148" lon="2.461007">
        <ele>292.084</ele>
        <time>2021-05-26T07:38:26Z</time>
      </trkpt>
      <trkpt lat="41.572147" lon="2.460967">
        <ele>292.423</ele>
        <time>2021-05-26T07:38:29Z</time>
      </trkpt>
      <trkpt lat="41.572143" lon="2.460936">
        <ele>292.683</ele>
        <time>2021-05-26T07:38:31Z</time>
      </trkpt>
      <trkpt lat="41.572134" lon="2.460902">
        <ele>292.711</ele>
        <time>2021-05-26T07:38:33Z</time>
      </trkpt>
      <trkpt lat="41.572115" lon="2.460864">
        <ele>292.608</ele>
        <time>2021-05-26T07:38:34Z</time>
      </trkpt>
      <trkpt lat="41.572106" lon="2.460832">
        <ele>292.779</ele>
        <time>2021-05-26T07:38:37Z</time>
      </trkpt>
      <trkpt lat="41.572099" lon="2.460797">
        <ele>292.716</ele>
        <time>2021-05-26T07:38:39Z</time>
      </trkpt>
      <trkpt lat="41.572094" lon="2.460762">
        <ele>292.823</ele>
        <time>2021-05-26T07:38:41Z</time>
      </trkpt>
      <trkpt lat="41.572077" lon="2.460727">
        <ele>292.666</ele>
        <time>2021-05-26T07:38:43Z</time>
      </trkpt>
      <trkpt lat="41.572059" lon="2.460696">
        <ele>292.221</ele>
        <time>2021-05-26T07:38:45Z</time>
      </trkpt>
      <trkpt lat="41.572049" lon="2.460662">
        <ele>292.157</ele>
        <time>2021-05-26T07:38:47Z</time>
      </trkpt>
      <trkpt lat="41.572048" lon="2.460625">
        <ele>292.364</ele>
        <time>2021-05-26T07:38:49Z</time>
      </trkpt>
      <trkpt lat="41.572057" lon="2.460597">
        <ele>292.861</ele>
        <time>2021-05-26T07:38:52Z</time>
      </trkpt>
      <trkpt lat="41.572070" lon="2.460568">
        <ele>293.465</ele>
        <time>2021-05-26T07:38:54Z</time>
      </trkpt>
      <trkpt lat="41.572081" lon="2.460538">
        <ele>294.168</ele>
        <time>2021-05-26T07:38:56Z</time>
      </trkpt>
      <trkpt lat="41.572097" lon="2.460506">
        <ele>294.914</ele>
        <time>2021-05-26T07:38:58Z</time>
      </trkpt>
      <trkpt lat="41.572117" lon="2.460428">
        <ele>296.408</ele>
        <time>2021-05-26T07:39:00Z</time>
      </trkpt>
      <trkpt lat="41.572119" lon="2.460397">
        <ele>296.833</ele>
        <time>2021-05-26T07:39:02Z</time>
      </trkpt>
      <trkpt lat="41.572118" lon="2.460360">
        <ele>297.190</ele>
        <time>2021-05-26T07:39:03Z</time>
      </trkpt>
      <trkpt lat="41.572111" lon="2.460284">
        <ele>297.567</ele>
        <time>2021-05-26T07:39:04Z</time>
      </trkpt>
      <trkpt lat="41.572106" lon="2.460248">
        <ele>297.660</ele>
        <time>2021-05-26T07:39:06Z</time>
      </trkpt>
      <trkpt lat="41.572096" lon="2.460213">
        <ele>297.655</ele>
        <time>2021-05-26T07:39:07Z</time>
      </trkpt>
      <trkpt lat="41.572085" lon="2.460182">
        <ele>297.451</ele>
        <time>2021-05-26T07:39:08Z</time>
      </trkpt>
      <trkpt lat="41.572075" lon="2.460143">
        <ele>297.438</ele>
        <time>2021-05-26T07:39:09Z</time>
      </trkpt>
      <trkpt lat="41.572068" lon="2.460111">
        <ele>297.575</ele>
        <time>2021-05-26T07:39:10Z</time>
      </trkpt>
      <trkpt lat="41.572061" lon="2.460082">
        <ele>297.537</ele>
        <time>2021-05-26T07:39:11Z</time>
      </trkpt>
      <trkpt lat="41.572053" lon="2.460051">
        <ele>297.649</ele>
        <time>2021-05-26T07:39:12Z</time>
      </trkpt>
      <trkpt lat="41.572046" lon="2.460020">
        <ele>297.713</ele>
        <time>2021-05-26T07:39:13Z</time>
      </trkpt>
      <trkpt lat="41.572041" lon="2.459989">
        <ele>297.908</ele>
        <time>2021-05-26T07:39:14Z</time>
      </trkpt>
      <trkpt lat="41.572017" lon="2.459924">
        <ele>297.680</ele>
        <time>2021-05-26T07:39:15Z</time>
      </trkpt>
      <trkpt lat="41.572009" lon="2.459894">
        <ele>297.617</ele>
        <time>2021-05-26T07:39:17Z</time>
      </trkpt>
      <trkpt lat="41.572000" lon="2.459864">
        <ele>297.644</ele>
        <time>2021-05-26T07:39:18Z</time>
      </trkpt>
      <trkpt lat="41.571994" lon="2.459835">
        <ele>297.637</ele>
        <time>2021-05-26T07:39:19Z</time>
      </trkpt>
      <trkpt lat="41.571991" lon="2.459805">
        <ele>297.742</ele>
        <time>2021-05-26T07:39:20Z</time>
      </trkpt>
      <trkpt lat="41.571989" lon="2.459771">
        <ele>297.918</ele>
        <time>2021-05-26T07:39:21Z</time>
      </trkpt>
      <trkpt lat="41.571984" lon="2.459737">
        <ele>298.085</ele>
        <time>2021-05-26T07:39:22Z</time>
      </trkpt>
      <trkpt lat="41.571984" lon="2.459707">
        <ele>298.252</ele>
        <time>2021-05-26T07:39:23Z</time>
      </trkpt>
      <trkpt lat="41.571984" lon="2.459675">
        <ele>298.436</ele>
        <time>2021-05-26T07:39:24Z</time>
      </trkpt>
      <trkpt lat="41.571980" lon="2.459639">
        <ele>298.517</ele>
        <time>2021-05-26T07:39:25Z</time>
      </trkpt>
      <trkpt lat="41.571976" lon="2.459578">
        <ele>298.818</ele>
        <time>2021-05-26T07:39:26Z</time>
      </trkpt>
      <trkpt lat="41.571974" lon="2.459550">
        <ele>299.008</ele>
        <time>2021-05-26T07:39:27Z</time>
      </trkpt>
      <trkpt lat="41.571977" lon="2.459521">
        <ele>299.290</ele>
        <time>2021-05-26T07:39:28Z</time>
      </trkpt>
      <trkpt lat="41.571977" lon="2.459493">
        <ele>299.487</ele>
        <time>2021-05-26T07:39:29Z</time>
      </trkpt>
      <trkpt lat="41.571983" lon="2.459466">
        <ele>299.774</ele>
        <time>2021-05-26T07:39:30Z</time>
      </trkpt>
      <trkpt lat="41.571989" lon="2.459435">
        <ele>300.027</ele>
        <time>2021-05-26T07:39:31Z</time>
      </trkpt>
      <trkpt lat="41.571996" lon="2.459406">
        <ele>300.122</ele>
        <time>2021-05-26T07:39:32Z</time>
      </trkpt>
      <trkpt lat="41.572004" lon="2.459378">
        <ele>300.278</ele>
        <time>2021-05-26T07:39:34Z</time>
      </trkpt>
      <trkpt lat="41.572014" lon="2.459348">
        <ele>300.435</ele>
        <time>2021-05-26T07:39:35Z</time>
      </trkpt>
      <trkpt lat="41.572022" lon="2.459320">
        <ele>300.672</ele>
        <time>2021-05-26T07:39:36Z</time>
      </trkpt>
      <trkpt lat="41.572032" lon="2.459290">
        <ele>300.717</ele>
        <time>2021-05-26T07:39:37Z</time>
      </trkpt>
      <trkpt lat="41.572043" lon="2.459260">
        <ele>300.987</ele>
        <time>2021-05-26T07:39:38Z</time>
      </trkpt>
      <trkpt lat="41.572055" lon="2.459231">
        <ele>301.115</ele>
        <time>2021-05-26T07:39:39Z</time>
      </trkpt>
      <trkpt lat="41.572067" lon="2.459203">
        <ele>301.308</ele>
        <time>2021-05-26T07:39:40Z</time>
      </trkpt>
      <trkpt lat="41.572080" lon="2.459174">
        <ele>301.538</ele>
        <time>2021-05-26T07:39:41Z</time>
      </trkpt>
      <trkpt lat="41.572094" lon="2.459147">
        <ele>301.695</ele>
        <time>2021-05-26T07:39:42Z</time>
      </trkpt>
      <trkpt lat="41.572109" lon="2.459120">
        <ele>301.872</ele>
        <time>2021-05-26T07:39:43Z</time>
      </trkpt>
      <trkpt lat="41.572124" lon="2.459094">
        <ele>301.995</ele>
        <time>2021-05-26T07:39:44Z</time>
      </trkpt>
      <trkpt lat="41.572140" lon="2.459072">
        <ele>302.030</ele>
        <time>2021-05-26T07:39:45Z</time>
      </trkpt>
      <trkpt lat="41.572155" lon="2.459050">
        <ele>302.236</ele>
        <time>2021-05-26T07:39:46Z</time>
      </trkpt>
      <trkpt lat="41.572173" lon="2.459030">
        <ele>302.383</ele>
        <time>2021-05-26T07:39:47Z</time>
      </trkpt>
      <trkpt lat="41.572190" lon="2.459007">
        <ele>302.490</ele>
        <time>2021-05-26T07:39:48Z</time>
      </trkpt>
      <trkpt lat="41.572210" lon="2.458986">
        <ele>302.573</ele>
        <time>2021-05-26T07:39:49Z</time>
      </trkpt>
      <trkpt lat="41.572225" lon="2.458968">
        <ele>302.685</ele>
        <time>2021-05-26T07:39:50Z</time>
      </trkpt>
      <trkpt lat="41.572257" lon="2.458947">
        <ele>302.913</ele>
        <time>2021-05-26T07:39:52Z</time>
      </trkpt>
      <trkpt lat="41.572276" lon="2.458945">
        <ele>303.108</ele>
        <time>2021-05-26T07:39:53Z</time>
      </trkpt>
      <trkpt lat="41.572308" lon="2.458950">
        <ele>303.614</ele>
        <time>2021-05-26T07:39:54Z</time>
      </trkpt>
      <trkpt lat="41.572330" lon="2.458952">
        <ele>303.941</ele>
        <time>2021-05-26T07:39:55Z</time>
      </trkpt>
      <trkpt lat="41.572353" lon="2.458957">
        <ele>304.278</ele>
        <time>2021-05-26T07:39:56Z</time>
      </trkpt>
      <trkpt lat="41.572376" lon="2.458963">
        <ele>304.651</ele>
        <time>2021-05-26T07:39:57Z</time>
      </trkpt>
      <trkpt lat="41.572398" lon="2.458965">
        <ele>305.026</ele>
        <time>2021-05-26T07:39:58Z</time>
      </trkpt>
      <trkpt lat="41.572421" lon="2.458960">
        <ele>305.252</ele>
        <time>2021-05-26T07:39:59Z</time>
      </trkpt>
      <trkpt lat="41.572445" lon="2.458957">
        <ele>305.549</ele>
        <time>2021-05-26T07:40:00Z</time>
      </trkpt>
      <trkpt lat="41.572465" lon="2.458963">
        <ele>305.986</ele>
        <time>2021-05-26T07:40:01Z</time>
      </trkpt>
      <trkpt lat="41.572487" lon="2.458968">
        <ele>306.278</ele>
        <time>2021-05-26T07:40:02Z</time>
      </trkpt>
      <trkpt lat="41.572509" lon="2.458974">
        <ele>306.733</ele>
        <time>2021-05-26T07:40:03Z</time>
      </trkpt>
      <trkpt lat="41.572529" lon="2.458984">
        <ele>307.326</ele>
        <time>2021-05-26T07:40:04Z</time>
      </trkpt>
      <trkpt lat="41.572550" lon="2.458990">
        <ele>307.808</ele>
        <time>2021-05-26T07:40:05Z</time>
      </trkpt>
      <trkpt lat="41.572568" lon="2.458999">
        <ele>308.374</ele>
        <time>2021-05-26T07:40:06Z</time>
      </trkpt>
      <trkpt lat="41.572585" lon="2.459011">
        <ele>308.871</ele>
        <time>2021-05-26T07:40:07Z</time>
      </trkpt>
      <trkpt lat="41.572603" lon="2.459021">
        <ele>309.218</ele>
        <time>2021-05-26T07:40:08Z</time>
      </trkpt>
      <trkpt lat="41.572620" lon="2.459034">
        <ele>309.871</ele>
        <time>2021-05-26T07:40:09Z</time>
      </trkpt>
      <trkpt lat="41.572636" lon="2.459049">
        <ele>310.316</ele>
        <time>2021-05-26T07:40:11Z</time>
      </trkpt>
      <trkpt lat="41.572652" lon="2.459066">
        <ele>310.832</ele>
        <time>2021-05-26T07:40:12Z</time>
      </trkpt>
      <trkpt lat="41.572667" lon="2.459087">
        <ele>311.339</ele>
        <time>2021-05-26T07:40:13Z</time>
      </trkpt>
      <trkpt lat="41.572696" lon="2.459133">
        <ele>312.496</ele>
        <time>2021-05-26T07:40:14Z</time>
      </trkpt>
      <trkpt lat="41.572728" lon="2.459172">
        <ele>313.329</ele>
        <time>2021-05-26T07:40:16Z</time>
      </trkpt>
      <trkpt lat="41.572747" lon="2.459190">
        <ele>313.700</ele>
        <time>2021-05-26T07:40:17Z</time>
      </trkpt>
      <trkpt lat="41.572765" lon="2.459205">
        <ele>314.120</ele>
        <time>2021-05-26T07:40:19Z</time>
      </trkpt>
      <trkpt lat="41.572780" lon="2.459244">
        <ele>314.608</ele>
        <time>2021-05-26T07:40:21Z</time>
      </trkpt>
      <trkpt lat="41.572801" lon="2.459278">
        <ele>315.229</ele>
        <time>2021-05-26T07:40:23Z</time>
      </trkpt>
      <trkpt lat="41.572823" lon="2.459309">
        <ele>315.836</ele>
        <time>2021-05-26T07:40:25Z</time>
      </trkpt>
      <trkpt lat="41.572845" lon="2.459345">
        <ele>316.313</ele>
        <time>2021-05-26T07:40:27Z</time>
      </trkpt>
      <trkpt lat="41.572868" lon="2.459380">
        <ele>316.956</ele>
        <time>2021-05-26T07:40:29Z</time>
      </trkpt>
      <trkpt lat="41.572897" lon="2.459435">
        <ele>317.761</ele>
        <time>2021-05-26T07:40:31Z</time>
      </trkpt>
      <trkpt lat="41.572981" lon="2.459507">
        <ele>319.177</ele>
        <time>2021-05-26T07:40:36Z</time>
      </trkpt>
      <trkpt lat="41.573076" lon="2.459541">
        <ele>320.864</ele>
        <time>2021-05-26T07:40:43Z</time>
      </trkpt>
      <trkpt lat="41.573158" lon="2.459593">
        <ele>322.671</ele>
        <time>2021-05-26T07:40:49Z</time>
      </trkpt>
      <trkpt lat="41.573241" lon="2.459664">
        <ele>324.369</ele>
        <time>2021-05-26T07:40:56Z</time>
      </trkpt>
      <trkpt lat="41.573338" lon="2.459699">
        <ele>326.104</ele>
        <time>2021-05-26T07:41:00Z</time>
      </trkpt>
      <trkpt lat="41.573441" lon="2.459712">
        <ele>327.624</ele>
        <time>2021-05-26T07:41:05Z</time>
      </trkpt>
      <trkpt lat="41.573541" lon="2.459734">
        <ele>328.908</ele>
        <time>2021-05-26T07:41:13Z</time>
      </trkpt>
      <trkpt lat="41.573642" lon="2.459690">
        <ele>330.833</ele>
        <time>2021-05-26T07:41:18Z</time>
      </trkpt>
      <trkpt lat="41.573737" lon="2.459636">
        <ele>333.020</ele>
        <time>2021-05-26T07:41:24Z</time>
      </trkpt>
      <trkpt lat="41.573849" lon="2.459636">
        <ele>335.247</ele>
        <time>2021-05-26T07:41:29Z</time>
      </trkpt>
      <trkpt lat="41.573952" lon="2.459663">
        <ele>337.070</ele>
        <time>2021-05-26T07:41:36Z</time>
      </trkpt>
      <trkpt lat="41.574046" lon="2.459727">
        <ele>338.315</ele>
        <time>2021-05-26T07:41:43Z</time>
      </trkpt>
      <trkpt lat="41.574136" lon="2.459777">
        <ele>339.791</ele>
        <time>2021-05-26T07:41:48Z</time>
      </trkpt>
      <trkpt lat="41.574220" lon="2.459818">
        <ele>340.428</ele>
        <time>2021-05-26T07:41:55Z</time>
      </trkpt>
      <trkpt lat="41.574312" lon="2.459873">
        <ele>340.735</ele>
        <time>2021-05-26T07:42:03Z</time>
      </trkpt>
      <trkpt lat="41.574394" lon="2.459944">
        <ele>340.935</ele>
        <time>2021-05-26T07:42:10Z</time>
      </trkpt>
      <trkpt lat="41.574485" lon="2.459965">
        <ele>341.386</ele>
        <time>2021-05-26T07:42:17Z</time>
      </trkpt>
      <trkpt lat="41.574569" lon="2.459911">
        <ele>341.614</ele>
        <time>2021-05-26T07:42:22Z</time>
      </trkpt>
      <trkpt lat="41.574661" lon="2.459888">
        <ele>341.808</ele>
        <time>2021-05-26T07:42:27Z</time>
      </trkpt>
      <trkpt lat="41.574746" lon="2.459872">
        <ele>341.710</ele>
        <time>2021-05-26T07:42:33Z</time>
      </trkpt>
      <trkpt lat="41.574801" lon="2.459858">
        <ele>341.587</ele>
        <time>2021-05-26T07:42:35Z</time>
      </trkpt>
      <trkpt lat="41.574826" lon="2.459845">
        <ele>341.474</ele>
        <time>2021-05-26T07:42:36Z</time>
      </trkpt>
      <trkpt lat="41.574852" lon="2.459829">
        <ele>341.457</ele>
        <time>2021-05-26T07:42:37Z</time>
      </trkpt>
      <trkpt lat="41.574872" lon="2.459817">
        <ele>341.452</ele>
        <time>2021-05-26T07:42:38Z</time>
      </trkpt>
      <trkpt lat="41.574892" lon="2.459805">
        <ele>341.458</ele>
        <time>2021-05-26T07:42:39Z</time>
      </trkpt>
      <trkpt lat="41.574913" lon="2.459792">
        <ele>341.555</ele>
        <time>2021-05-26T07:42:40Z</time>
      </trkpt>
      <trkpt lat="41.574937" lon="2.459782">
        <ele>341.552</ele>
        <time>2021-05-26T07:42:41Z</time>
      </trkpt>
      <trkpt lat="41.574960" lon="2.459771">
        <ele>341.596</ele>
        <time>2021-05-26T07:42:42Z</time>
      </trkpt>
      <trkpt lat="41.574983" lon="2.459758">
        <ele>341.631</ele>
        <time>2021-05-26T07:42:43Z</time>
      </trkpt>
      <trkpt lat="41.575006" lon="2.459744">
        <ele>341.724</ele>
        <time>2021-05-26T07:42:44Z</time>
      </trkpt>
      <trkpt lat="41.575027" lon="2.459732">
        <ele>342.008</ele>
        <time>2021-05-26T07:42:45Z</time>
      </trkpt>
      <trkpt lat="41.575047" lon="2.459717">
        <ele>342.286</ele>
        <time>2021-05-26T07:42:46Z</time>
      </trkpt>
      <trkpt lat="41.575066" lon="2.459700">
        <ele>342.363</ele>
        <time>2021-05-26T07:42:47Z</time>
      </trkpt>
      <trkpt lat="41.575087" lon="2.459678">
        <ele>342.520</ele>
        <time>2021-05-26T07:42:48Z</time>
      </trkpt>
      <trkpt lat="41.575103" lon="2.459657">
        <ele>342.793</ele>
        <time>2021-05-26T07:42:49Z</time>
      </trkpt>
      <trkpt lat="41.575120" lon="2.459637">
        <ele>342.958</ele>
        <time>2021-05-26T07:42:50Z</time>
      </trkpt>
      <trkpt lat="41.575150" lon="2.459606">
        <ele>343.264</ele>
        <time>2021-05-26T07:42:51Z</time>
      </trkpt>
      <trkpt lat="41.575171" lon="2.459570">
        <ele>343.581</ele>
        <time>2021-05-26T07:42:53Z</time>
      </trkpt>
      <trkpt lat="41.575182" lon="2.459547">
        <ele>343.778</ele>
        <time>2021-05-26T07:42:54Z</time>
      </trkpt>
      <trkpt lat="41.575192" lon="2.459527">
        <ele>343.998</ele>
        <time>2021-05-26T07:42:55Z</time>
      </trkpt>
      <trkpt lat="41.575209" lon="2.459487">
        <ele>344.215</ele>
        <time>2021-05-26T07:42:57Z</time>
      </trkpt>
      <trkpt lat="41.575234" lon="2.459442">
        <ele>344.726</ele>
        <time>2021-05-26T07:42:59Z</time>
      </trkpt>
      <trkpt lat="41.575254" lon="2.459418">
        <ele>344.908</ele>
        <time>2021-05-26T07:43:00Z</time>
      </trkpt>
      <trkpt lat="41.575271" lon="2.459396">
        <ele>345.196</ele>
        <time>2021-05-26T07:43:01Z</time>
      </trkpt>
      <trkpt lat="41.575290" lon="2.459370">
        <ele>345.323</ele>
        <time>2021-05-26T07:43:03Z</time>
      </trkpt>
      <trkpt lat="41.575326" lon="2.459331">
        <ele>345.540</ele>
        <time>2021-05-26T07:43:04Z</time>
      </trkpt>
      <trkpt lat="41.575346" lon="2.459316">
        <ele>345.633</ele>
        <time>2021-05-26T07:43:05Z</time>
      </trkpt>
      <trkpt lat="41.575364" lon="2.459304">
        <ele>345.748</ele>
        <time>2021-05-26T07:43:06Z</time>
      </trkpt>
      <trkpt lat="41.575379" lon="2.459290">
        <ele>345.824</ele>
        <time>2021-05-26T07:43:07Z</time>
      </trkpt>
      <trkpt lat="41.575394" lon="2.459274">
        <ele>345.971</ele>
        <time>2021-05-26T07:43:08Z</time>
      </trkpt>
      <trkpt lat="41.575408" lon="2.459256">
        <ele>346.028</ele>
        <time>2021-05-26T07:43:09Z</time>
      </trkpt>
      <trkpt lat="41.575422" lon="2.459235">
        <ele>346.168</ele>
        <time>2021-05-26T07:43:10Z</time>
      </trkpt>
      <trkpt lat="41.575453" lon="2.459214">
        <ele>346.442</ele>
        <time>2021-05-26T07:43:12Z</time>
      </trkpt>
      <trkpt lat="41.575469" lon="2.459201">
        <ele>346.526</ele>
        <time>2021-05-26T07:43:13Z</time>
      </trkpt>
      <trkpt lat="41.575499" lon="2.459174">
        <ele>346.708</ele>
        <time>2021-05-26T07:43:15Z</time>
      </trkpt>
      <trkpt lat="41.575529" lon="2.459155">
        <ele>346.963</ele>
        <time>2021-05-26T07:43:17Z</time>
      </trkpt>
      <trkpt lat="41.575557" lon="2.459137">
        <ele>347.180</ele>
        <time>2021-05-26T07:43:19Z</time>
      </trkpt>
      <trkpt lat="41.575571" lon="2.459123">
        <ele>347.237</ele>
        <time>2021-05-26T07:43:20Z</time>
      </trkpt>
      <trkpt lat="41.575585" lon="2.459102">
        <ele>347.370</ele>
        <time>2021-05-26T07:43:22Z</time>
      </trkpt>
      <trkpt lat="41.575598" lon="2.459083">
        <ele>347.455</ele>
        <time>2021-05-26T07:43:23Z</time>
      </trkpt>
      <trkpt lat="41.575614" lon="2.459065">
        <ele>347.681</ele>
        <time>2021-05-26T07:43:24Z</time>
      </trkpt>
      <trkpt lat="41.575633" lon="2.459048">
        <ele>347.888</ele>
        <time>2021-05-26T07:43:25Z</time>
      </trkpt>
      <trkpt lat="41.575656" lon="2.459033">
        <ele>348.085</ele>
        <time>2021-05-26T07:43:26Z</time>
      </trkpt>
      <trkpt lat="41.575678" lon="2.459022">
        <ele>348.227</ele>
        <time>2021-05-26T07:43:27Z</time>
      </trkpt>
      <trkpt lat="41.575699" lon="2.459011">
        <ele>348.468</ele>
        <time>2021-05-26T07:43:28Z</time>
      </trkpt>
      <trkpt lat="41.575718" lon="2.459001">
        <ele>348.614</ele>
        <time>2021-05-26T07:43:29Z</time>
      </trkpt>
      <trkpt lat="41.575741" lon="2.458986">
        <ele>349.008</ele>
        <time>2021-05-26T07:43:31Z</time>
      </trkpt>
      <trkpt lat="41.575771" lon="2.458974">
        <ele>349.369</ele>
        <time>2021-05-26T07:43:33Z</time>
      </trkpt>
      <trkpt lat="41.575789" lon="2.458966">
        <ele>349.586</ele>
        <time>2021-05-26T07:43:34Z</time>
      </trkpt>
      <trkpt lat="41.575807" lon="2.458964">
        <ele>349.733</ele>
        <time>2021-05-26T07:43:35Z</time>
      </trkpt>
      <trkpt lat="41.575829" lon="2.458957">
        <ele>350.036</ele>
        <time>2021-05-26T07:43:36Z</time>
      </trkpt>
      <trkpt lat="41.575855" lon="2.458946">
        <ele>350.481</ele>
        <time>2021-05-26T07:43:37Z</time>
      </trkpt>
      <trkpt lat="41.575877" lon="2.458931">
        <ele>350.987</ele>
        <time>2021-05-26T07:43:38Z</time>
      </trkpt>
      <trkpt lat="41.575902" lon="2.458914">
        <ele>351.444</ele>
        <time>2021-05-26T07:43:39Z</time>
      </trkpt>
      <trkpt lat="41.575927" lon="2.458896">
        <ele>351.911</ele>
        <time>2021-05-26T07:43:40Z</time>
      </trkpt>
      <trkpt lat="41.575972" lon="2.458858">
        <ele>352.773</ele>
        <time>2021-05-26T07:43:42Z</time>
      </trkpt>
      <trkpt lat="41.575996" lon="2.458840">
        <ele>353.085</ele>
        <time>2021-05-26T07:43:43Z</time>
      </trkpt>
      <trkpt lat="41.576018" lon="2.458820">
        <ele>353.313</ele>
        <time>2021-05-26T07:43:44Z</time>
      </trkpt>
      <trkpt lat="41.576043" lon="2.458799">
        <ele>353.708</ele>
        <time>2021-05-26T07:43:45Z</time>
      </trkpt>
      <trkpt lat="41.576063" lon="2.458784">
        <ele>353.974</ele>
        <time>2021-05-26T07:43:46Z</time>
      </trkpt>
      <trkpt lat="41.576083" lon="2.458770">
        <ele>354.271</ele>
        <time>2021-05-26T07:43:47Z</time>
      </trkpt>
      <trkpt lat="41.576102" lon="2.458758">
        <ele>354.458</ele>
        <time>2021-05-26T07:43:48Z</time>
      </trkpt>
      <trkpt lat="41.576132" lon="2.458730">
        <ele>354.671</ele>
        <time>2021-05-26T07:43:50Z</time>
      </trkpt>
      <trkpt lat="41.576153" lon="2.458715">
        <ele>354.886</ele>
        <time>2021-05-26T07:43:51Z</time>
      </trkpt>
      <trkpt lat="41.576172" lon="2.458698">
        <ele>354.982</ele>
        <time>2021-05-26T07:43:52Z</time>
      </trkpt>
      <trkpt lat="41.576190" lon="2.458682">
        <ele>355.099</ele>
        <time>2021-05-26T07:43:53Z</time>
      </trkpt>
      <trkpt lat="41.576208" lon="2.458669">
        <ele>355.166</ele>
        <time>2021-05-26T07:43:54Z</time>
      </trkpt>
      <trkpt lat="41.576229" lon="2.458657">
        <ele>355.366</ele>
        <time>2021-05-26T07:43:55Z</time>
      </trkpt>
      <trkpt lat="41.576247" lon="2.458644">
        <ele>355.429</ele>
        <time>2021-05-26T07:43:56Z</time>
      </trkpt>
      <trkpt lat="41.576263" lon="2.458633">
        <ele>355.521</ele>
        <time>2021-05-26T07:43:57Z</time>
      </trkpt>
      <trkpt lat="41.576282" lon="2.458620">
        <ele>355.608</ele>
        <time>2021-05-26T07:43:58Z</time>
      </trkpt>
      <trkpt lat="41.576300" lon="2.458611">
        <ele>355.783</ele>
        <time>2021-05-26T07:43:59Z</time>
      </trkpt>
      <trkpt lat="41.576316" lon="2.458598">
        <ele>355.820</ele>
        <time>2021-05-26T07:44:00Z</time>
      </trkpt>
      <trkpt lat="41.576338" lon="2.458581">
        <ele>356.067</ele>
        <time>2021-05-26T07:44:01Z</time>
      </trkpt>
      <trkpt lat="41.576355" lon="2.458566">
        <ele>356.260</ele>
        <time>2021-05-26T07:44:02Z</time>
      </trkpt>
      <trkpt lat="41.576389" lon="2.458534">
        <ele>356.675</ele>
        <time>2021-05-26T07:44:03Z</time>
      </trkpt>
      <trkpt lat="41.576408" lon="2.458519">
        <ele>356.871</ele>
        <time>2021-05-26T07:44:04Z</time>
      </trkpt>
      <trkpt lat="41.576423" lon="2.458502">
        <ele>357.048</ele>
        <time>2021-05-26T07:44:05Z</time>
      </trkpt>
      <trkpt lat="41.576438" lon="2.458485">
        <ele>357.275</ele>
        <time>2021-05-26T07:44:07Z</time>
      </trkpt>
      <trkpt lat="41.576455" lon="2.458477">
        <ele>357.355</ele>
        <time>2021-05-26T07:44:08Z</time>
      </trkpt>
      <trkpt lat="41.576545" lon="2.458422">
        <ele>358.107</ele>
        <time>2021-05-26T07:44:13Z</time>
      </trkpt>
      <trkpt lat="41.576637" lon="2.458374">
        <ele>358.717</ele>
        <time>2021-05-26T07:44:18Z</time>
      </trkpt>
      <trkpt lat="41.576741" lon="2.458342">
        <ele>359.208</ele>
        <time>2021-05-26T07:44:23Z</time>
      </trkpt>
      <trkpt lat="41.576826" lon="2.458318">
        <ele>359.752</ele>
        <time>2021-05-26T07:44:27Z</time>
      </trkpt>
      <trkpt lat="41.576923" lon="2.458271">
        <ele>360.639</ele>
        <time>2021-05-26T07:44:32Z</time>
      </trkpt>
      <trkpt lat="41.577011" lon="2.458240">
        <ele>360.876</ele>
        <time>2021-05-26T07:44:37Z</time>
      </trkpt>
      <trkpt lat="41.577115" lon="2.458275">
        <ele>359.819</ele>
        <time>2021-05-26T07:44:42Z</time>
      </trkpt>
      <trkpt lat="41.577212" lon="2.458278">
        <ele>359.264</ele>
        <time>2021-05-26T07:44:47Z</time>
      </trkpt>
      <trkpt lat="41.577325" lon="2.458311">
        <ele>357.470</ele>
        <time>2021-05-26T07:44:52Z</time>
      </trkpt>
      <trkpt lat="41.577449" lon="2.458304">
        <ele>356.427</ele>
        <time>2021-05-26T07:44:57Z</time>
      </trkpt>
      <trkpt lat="41.577563" lon="2.458307">
        <ele>356.094</ele>
        <time>2021-05-26T07:45:00Z</time>
      </trkpt>
      <trkpt lat="41.577644" lon="2.458323">
        <ele>355.831</ele>
        <time>2021-05-26T07:45:03Z</time>
      </trkpt>
      <trkpt lat="41.577688" lon="2.458328">
        <ele>355.861</ele>
        <time>2021-05-26T07:45:05Z</time>
      </trkpt>
      <trkpt lat="41.577714" lon="2.458332">
        <ele>355.807</ele>
        <time>2021-05-26T07:45:06Z</time>
      </trkpt>
      <trkpt lat="41.577741" lon="2.458334">
        <ele>355.808</ele>
        <time>2021-05-26T07:45:07Z</time>
      </trkpt>
      <trkpt lat="41.577792" lon="2.458339">
        <ele>355.820</ele>
        <time>2021-05-26T07:45:09Z</time>
      </trkpt>
      <trkpt lat="41.577902" lon="2.458325">
        <ele>356.227</ele>
        <time>2021-05-26T07:45:14Z</time>
      </trkpt>
      <trkpt lat="41.577985" lon="2.458316">
        <ele>356.474</ele>
        <time>2021-05-26T07:45:18Z</time>
      </trkpt>
      <trkpt lat="41.578033" lon="2.458299">
        <ele>356.977</ele>
        <time>2021-05-26T07:45:19Z</time>
      </trkpt>
      <trkpt lat="41.578058" lon="2.458296">
        <ele>357.072</ele>
        <time>2021-05-26T07:45:20Z</time>
      </trkpt>
      <trkpt lat="41.578081" lon="2.458296">
        <ele>357.188</ele>
        <time>2021-05-26T07:45:21Z</time>
      </trkpt>
      <trkpt lat="41.578104" lon="2.458295">
        <ele>357.345</ele>
        <time>2021-05-26T07:45:22Z</time>
      </trkpt>
      <trkpt lat="41.578127" lon="2.458299">
        <ele>357.382</ele>
        <time>2021-05-26T07:45:23Z</time>
      </trkpt>
      <trkpt lat="41.578154" lon="2.458303">
        <ele>357.497</ele>
        <time>2021-05-26T07:45:24Z</time>
      </trkpt>
      <trkpt lat="41.578180" lon="2.458306">
        <ele>357.523</ele>
        <time>2021-05-26T07:45:25Z</time>
      </trkpt>
      <trkpt lat="41.578205" lon="2.458312">
        <ele>357.625</ele>
        <time>2021-05-26T07:45:26Z</time>
      </trkpt>
      <trkpt lat="41.578234" lon="2.458316">
        <ele>357.708</ele>
        <time>2021-05-26T07:45:27Z</time>
      </trkpt>
      <trkpt lat="41.578263" lon="2.458318">
        <ele>357.816</ele>
        <time>2021-05-26T07:45:28Z</time>
      </trkpt>
      <trkpt lat="41.578288" lon="2.458327">
        <ele>357.823</ele>
        <time>2021-05-26T07:45:29Z</time>
      </trkpt>
      <trkpt lat="41.578312" lon="2.458327">
        <ele>358.020</ele>
        <time>2021-05-26T07:45:30Z</time>
      </trkpt>
      <trkpt lat="41.578357" lon="2.458311">
        <ele>358.553</ele>
        <time>2021-05-26T07:45:32Z</time>
      </trkpt>
      <trkpt lat="41.578383" lon="2.458300">
        <ele>358.818</ele>
        <time>2021-05-26T07:45:34Z</time>
      </trkpt>
      <trkpt lat="41.578409" lon="2.458288">
        <ele>359.174</ele>
        <time>2021-05-26T07:45:35Z</time>
      </trkpt>
      <trkpt lat="41.578439" lon="2.458278">
        <ele>359.381</ele>
        <time>2021-05-26T07:45:36Z</time>
      </trkpt>
      <trkpt lat="41.578468" lon="2.458278">
        <ele>359.488</ele>
        <time>2021-05-26T07:45:37Z</time>
      </trkpt>
      <trkpt lat="41.578497" lon="2.458275">
        <ele>359.561</ele>
        <time>2021-05-26T07:45:38Z</time>
      </trkpt>
      <trkpt lat="41.578528" lon="2.458273">
        <ele>359.521</ele>
        <time>2021-05-26T07:45:39Z</time>
      </trkpt>
      <trkpt lat="41.578576" lon="2.458263">
        <ele>359.713</ele>
        <time>2021-05-26T07:45:40Z</time>
      </trkpt>
      <trkpt lat="41.578605" lon="2.458256">
        <ele>359.808</ele>
        <time>2021-05-26T07:45:41Z</time>
      </trkpt>
      <trkpt lat="41.578634" lon="2.458252">
        <ele>359.683</ele>
        <time>2021-05-26T07:45:42Z</time>
      </trkpt>
      <trkpt lat="41.578666" lon="2.458250">
        <ele>359.230</ele>
        <time>2021-05-26T07:45:43Z</time>
      </trkpt>
      <trkpt lat="41.578692" lon="2.458250">
        <ele>358.867</ele>
        <time>2021-05-26T07:45:44Z</time>
      </trkpt>
      <trkpt lat="41.578720" lon="2.458246">
        <ele>358.550</ele>
        <time>2021-05-26T07:45:45Z</time>
      </trkpt>
      <trkpt lat="41.578749" lon="2.458243">
        <ele>358.225</ele>
        <time>2021-05-26T07:45:46Z</time>
      </trkpt>
      <trkpt lat="41.578776" lon="2.458239">
        <ele>357.881</ele>
        <time>2021-05-26T07:45:48Z</time>
      </trkpt>
      <trkpt lat="41.578798" lon="2.458234">
        <ele>357.628</ele>
        <time>2021-05-26T07:45:49Z</time>
      </trkpt>
      <trkpt lat="41.578821" lon="2.458230">
        <ele>357.415</ele>
        <time>2021-05-26T07:45:50Z</time>
      </trkpt>
      <trkpt lat="41.578846" lon="2.458231">
        <ele>357.034</ele>
        <time>2021-05-26T07:45:51Z</time>
      </trkpt>
      <trkpt lat="41.578881" lon="2.458230">
        <ele>356.655</ele>
        <time>2021-05-26T07:45:52Z</time>
      </trkpt>
      <trkpt lat="41.578913" lon="2.458229">
        <ele>356.210</ele>
        <time>2021-05-26T07:45:53Z</time>
      </trkpt>
      <trkpt lat="41.578971" lon="2.458232">
        <ele>355.508</ele>
        <time>2021-05-26T07:45:55Z</time>
      </trkpt>
      <trkpt lat="41.579083" lon="2.458244">
        <ele>354.060</ele>
        <time>2021-05-26T07:45:57Z</time>
      </trkpt>
      <trkpt lat="41.579151" lon="2.458252">
        <ele>353.157</ele>
        <time>2021-05-26T07:45:59Z</time>
      </trkpt>
      <trkpt lat="41.579177" lon="2.458258">
        <ele>352.724</ele>
        <time>2021-05-26T07:46:01Z</time>
      </trkpt>
      <trkpt lat="41.579211" lon="2.458270">
        <ele>352.497</ele>
        <time>2021-05-26T07:46:02Z</time>
      </trkpt>
      <trkpt lat="41.579239" lon="2.458280">
        <ele>352.262</ele>
        <time>2021-05-26T07:46:03Z</time>
      </trkpt>
      <trkpt lat="41.579266" lon="2.458287">
        <ele>352.018</ele>
        <time>2021-05-26T07:46:04Z</time>
      </trkpt>
      <trkpt lat="41.579285" lon="2.458294">
        <ele>351.895</ele>
        <time>2021-05-26T07:46:05Z</time>
      </trkpt>
      <trkpt lat="41.579304" lon="2.458303">
        <ele>351.752</ele>
        <time>2021-05-26T07:46:06Z</time>
      </trkpt>
      <trkpt lat="41.579323" lon="2.458315">
        <ele>351.561</ele>
        <time>2021-05-26T07:46:07Z</time>
      </trkpt>
      <trkpt lat="41.579344" lon="2.458324">
        <ele>351.421</ele>
        <time>2021-05-26T07:46:08Z</time>
      </trkpt>
      <trkpt lat="41.579365" lon="2.458330">
        <ele>351.313</ele>
        <time>2021-05-26T07:46:09Z</time>
      </trkpt>
      <trkpt lat="41.579395" lon="2.458328">
        <ele>351.208</ele>
        <time>2021-05-26T07:46:10Z</time>
      </trkpt>
      <trkpt lat="41.579494" lon="2.458357">
        <ele>350.573</ele>
        <time>2021-05-26T07:46:13Z</time>
      </trkpt>
      <trkpt lat="41.579603" lon="2.458398">
        <ele>349.550</ele>
        <time>2021-05-26T07:46:18Z</time>
      </trkpt>
      <trkpt lat="41.579692" lon="2.458440">
        <ele>348.897</ele>
        <time>2021-05-26T07:46:21Z</time>
      </trkpt>
      <trkpt lat="41.579793" lon="2.458498">
        <ele>348.260</ele>
        <time>2021-05-26T07:46:25Z</time>
      </trkpt>
      <trkpt lat="41.579818" lon="2.458514">
        <ele>348.135</ele>
        <time>2021-05-26T07:46:26Z</time>
      </trkpt>
      <trkpt lat="41.579843" lon="2.458533">
        <ele>348.091</ele>
        <time>2021-05-26T07:46:27Z</time>
      </trkpt>
      <trkpt lat="41.579865" lon="2.458550">
        <ele>348.088</ele>
        <time>2021-05-26T07:46:28Z</time>
      </trkpt>
      <trkpt lat="41.579891" lon="2.458573">
        <ele>348.015</ele>
        <time>2021-05-26T07:46:29Z</time>
      </trkpt>
      <trkpt lat="41.579914" lon="2.458598">
        <ele>348.072</ele>
        <time>2021-05-26T07:46:30Z</time>
      </trkpt>
      <trkpt lat="41.580019" lon="2.458652">
        <ele>347.813</ele>
        <time>2021-05-26T07:46:34Z</time>
      </trkpt>
      <trkpt lat="41.580126" lon="2.458715">
        <ele>347.514</ele>
        <time>2021-05-26T07:46:38Z</time>
      </trkpt>
      <trkpt lat="41.580222" lon="2.458773">
        <ele>347.608</ele>
        <time>2021-05-26T07:46:42Z</time>
      </trkpt>
      <trkpt lat="41.580272" lon="2.458806">
        <ele>347.734</ele>
        <time>2021-05-26T07:46:44Z</time>
      </trkpt>
      <trkpt lat="41.580319" lon="2.458834">
        <ele>347.911</ele>
        <time>2021-05-26T07:46:46Z</time>
      </trkpt>
      <trkpt lat="41.580406" lon="2.458899">
        <ele>348.538</ele>
        <time>2021-05-26T07:46:49Z</time>
      </trkpt>
      <trkpt lat="41.580458" lon="2.458945">
        <ele>349.171</ele>
        <time>2021-05-26T07:46:51Z</time>
      </trkpt>
      <trkpt lat="41.580484" lon="2.458968">
        <ele>349.386</ele>
        <time>2021-05-26T07:46:52Z</time>
      </trkpt>
      <trkpt lat="41.580509" lon="2.458990">
        <ele>349.632</ele>
        <time>2021-05-26T07:46:53Z</time>
      </trkpt>
      <trkpt lat="41.580531" lon="2.459012">
        <ele>349.849</ele>
        <time>2021-05-26T07:46:54Z</time>
      </trkpt>
      <trkpt lat="41.580550" lon="2.459038">
        <ele>350.126</ele>
        <time>2021-05-26T07:46:55Z</time>
      </trkpt>
      <trkpt lat="41.580573" lon="2.459056">
        <ele>350.398</ele>
        <time>2021-05-26T07:46:56Z</time>
      </trkpt>
      <trkpt lat="41.580593" lon="2.459075">
        <ele>350.515</ele>
        <time>2021-05-26T07:46:57Z</time>
      </trkpt>
      <trkpt lat="41.580612" lon="2.459092">
        <ele>350.726</ele>
        <time>2021-05-26T07:46:58Z</time>
      </trkpt>
      <trkpt lat="41.580651" lon="2.459141">
        <ele>351.208</ele>
        <time>2021-05-26T07:46:59Z</time>
      </trkpt>
      <trkpt lat="41.580676" lon="2.459163">
        <ele>351.426</ele>
        <time>2021-05-26T07:47:01Z</time>
      </trkpt>
      <trkpt lat="41.580699" lon="2.459185">
        <ele>351.643</ele>
        <time>2021-05-26T07:47:02Z</time>
      </trkpt>
      <trkpt lat="41.580718" lon="2.459205">
        <ele>351.770</ele>
        <time>2021-05-26T07:47:03Z</time>
      </trkpt>
      <trkpt lat="41.580735" lon="2.459222">
        <ele>351.873</ele>
        <time>2021-05-26T07:47:04Z</time>
      </trkpt>
      <trkpt lat="41.580754" lon="2.459224">
        <ele>351.938</ele>
        <time>2021-05-26T07:47:05Z</time>
      </trkpt>
      <trkpt lat="41.580789" lon="2.459206">
        <ele>352.034</ele>
        <time>2021-05-26T07:47:07Z</time>
      </trkpt>
      <trkpt lat="41.580814" lon="2.459190">
        <ele>352.071</ele>
        <time>2021-05-26T07:47:08Z</time>
      </trkpt>
      <trkpt lat="41.580839" lon="2.459175">
        <ele>352.198</ele>
        <time>2021-05-26T07:47:09Z</time>
      </trkpt>
      <trkpt lat="41.580869" lon="2.459159">
        <ele>352.293</ele>
        <time>2021-05-26T07:47:10Z</time>
      </trkpt>
      <trkpt lat="41.580897" lon="2.459143">
        <ele>352.365</ele>
        <time>2021-05-26T07:47:11Z</time>
      </trkpt>
      <trkpt lat="41.580919" lon="2.459121">
        <ele>352.421</ele>
        <time>2021-05-26T07:47:12Z</time>
      </trkpt>
      <trkpt lat="41.580942" lon="2.459108">
        <ele>352.408</ele>
        <time>2021-05-26T07:47:13Z</time>
      </trkpt>
      <trkpt lat="41.580970" lon="2.459098">
        <ele>352.546</ele>
        <time>2021-05-26T07:47:14Z</time>
      </trkpt>
      <trkpt lat="41.580994" lon="2.459088">
        <ele>352.593</ele>
        <time>2021-05-26T07:47:15Z</time>
      </trkpt>
      <trkpt lat="41.581014" lon="2.459080">
        <ele>352.690</ele>
        <time>2021-05-26T07:47:16Z</time>
      </trkpt>
      <trkpt lat="41.581036" lon="2.459075">
        <ele>352.613</ele>
        <time>2021-05-26T07:47:17Z</time>
      </trkpt>
      <trkpt lat="41.581057" lon="2.459067">
        <ele>352.778</ele>
        <time>2021-05-26T07:47:18Z</time>
      </trkpt>
      <trkpt lat="41.581084" lon="2.459061">
        <ele>352.724</ele>
        <time>2021-05-26T07:47:19Z</time>
      </trkpt>
      <trkpt lat="41.581104" lon="2.459059">
        <ele>352.841</ele>
        <time>2021-05-26T07:47:20Z</time>
      </trkpt>
      <trkpt lat="41.581148" lon="2.459056">
        <ele>353.358</ele>
        <time>2021-05-26T07:47:21Z</time>
      </trkpt>
      <trkpt lat="41.581170" lon="2.459062">
        <ele>353.624</ele>
        <time>2021-05-26T07:47:22Z</time>
      </trkpt>
      <trkpt lat="41.581208" lon="2.459075">
        <ele>354.304</ele>
        <time>2021-05-26T07:47:25Z</time>
      </trkpt>
      <trkpt lat="41.581228" lon="2.459092">
        <ele>354.814</ele>
        <time>2021-05-26T07:47:26Z</time>
      </trkpt>
      <trkpt lat="41.581263" lon="2.459123">
        <ele>355.608</ele>
        <time>2021-05-26T07:47:27Z</time>
      </trkpt>
      <trkpt lat="41.581276" lon="2.459139">
        <ele>356.099</ele>
        <time>2021-05-26T07:47:29Z</time>
      </trkpt>
      <trkpt lat="41.581309" lon="2.459173">
        <ele>356.966</ele>
        <time>2021-05-26T07:47:30Z</time>
      </trkpt>
      <trkpt lat="41.581323" lon="2.459193">
        <ele>357.313</ele>
        <time>2021-05-26T07:47:31Z</time>
      </trkpt>
      <trkpt lat="41.581337" lon="2.459216">
        <ele>357.826</ele>
        <time>2021-05-26T07:47:32Z</time>
      </trkpt>
      <trkpt lat="41.581362" lon="2.459240">
        <ele>358.481</ele>
        <time>2021-05-26T07:47:34Z</time>
      </trkpt>
      <trkpt lat="41.581378" lon="2.459259">
        <ele>358.867</ele>
        <time>2021-05-26T07:47:35Z</time>
      </trkpt>
      <trkpt lat="41.581402" lon="2.459290">
        <ele>359.554</ele>
        <time>2021-05-26T07:47:37Z</time>
      </trkpt>
      <trkpt lat="41.581418" lon="2.459305">
        <ele>359.921</ele>
        <time>2021-05-26T07:47:38Z</time>
      </trkpt>
      <trkpt lat="41.581444" lon="2.459336">
        <ele>360.683</ele>
        <time>2021-05-26T07:47:40Z</time>
      </trkpt>
      <trkpt lat="41.581467" lon="2.459369">
        <ele>361.325</ele>
        <time>2021-05-26T07:47:42Z</time>
      </trkpt>
      <trkpt lat="41.581491" lon="2.459394">
        <ele>361.917</ele>
        <time>2021-05-26T07:47:44Z</time>
      </trkpt>
      <trkpt lat="41.581511" lon="2.459406">
        <ele>362.308</ele>
        <time>2021-05-26T07:47:45Z</time>
      </trkpt>
      <trkpt lat="41.581537" lon="2.459431">
        <ele>363.095</ele>
        <time>2021-05-26T07:47:48Z</time>
      </trkpt>
      <trkpt lat="41.581561" lon="2.459454">
        <ele>363.592</ele>
        <time>2021-05-26T07:47:50Z</time>
      </trkpt>
      <trkpt lat="41.581587" lon="2.459498">
        <ele>364.289</ele>
        <time>2021-05-26T07:47:54Z</time>
      </trkpt>
      <trkpt lat="41.581602" lon="2.459517">
        <ele>364.562</ele>
        <time>2021-05-26T07:47:55Z</time>
      </trkpt>
      <trkpt lat="41.581628" lon="2.459547">
        <ele>365.177</ele>
        <time>2021-05-26T07:47:58Z</time>
      </trkpt>
      <trkpt lat="41.581640" lon="2.459577">
        <ele>365.573</ele>
        <time>2021-05-26T07:48:01Z</time>
      </trkpt>
      <trkpt lat="41.581672" lon="2.459623">
        <ele>366.470</ele>
        <time>2021-05-26T07:48:04Z</time>
      </trkpt>
      <trkpt lat="41.581693" lon="2.459640">
        <ele>366.917</ele>
        <time>2021-05-26T07:48:06Z</time>
      </trkpt>
      <trkpt lat="41.581710" lon="2.459664">
        <ele>367.452</ele>
        <time>2021-05-26T07:48:08Z</time>
      </trkpt>
      <trkpt lat="41.581724" lon="2.459691">
        <ele>367.853</ele>
        <time>2021-05-26T07:48:10Z</time>
      </trkpt>
      <trkpt lat="41.581737" lon="2.459718">
        <ele>368.208</ele>
        <time>2021-05-26T07:48:12Z</time>
      </trkpt>
      <trkpt lat="41.581748" lon="2.459748">
        <ele>368.608</ele>
        <time>2021-05-26T07:48:14Z</time>
      </trkpt>
      <trkpt lat="41.581751" lon="2.459776">
        <ele>368.872</ele>
        <time>2021-05-26T07:48:16Z</time>
      </trkpt>
      <trkpt lat="41.581750" lon="2.459807">
        <ele>369.019</ele>
        <time>2021-05-26T07:48:18Z</time>
      </trkpt>
      <trkpt lat="41.581748" lon="2.459839">
        <ele>369.256</ele>
        <time>2021-05-26T07:48:20Z</time>
      </trkpt>
      <trkpt lat="41.581741" lon="2.459872">
        <ele>369.339</ele>
        <time>2021-05-26T07:48:22Z</time>
      </trkpt>
      <trkpt lat="41.581732" lon="2.459919">
        <ele>369.424</ele>
        <time>2021-05-26T07:48:24Z</time>
      </trkpt>
      <trkpt lat="41.581727" lon="2.459951">
        <ele>369.620</ele>
        <time>2021-05-26T07:48:25Z</time>
      </trkpt>
      <trkpt lat="41.581724" lon="2.459980">
        <ele>369.747</ele>
        <time>2021-05-26T07:48:26Z</time>
      </trkpt>
      <trkpt lat="41.581718" lon="2.460010">
        <ele>369.814</ele>
        <time>2021-05-26T07:48:27Z</time>
      </trkpt>
      <trkpt lat="41.581712" lon="2.460039">
        <ele>369.839</ele>
        <time>2021-05-26T07:48:28Z</time>
      </trkpt>
      <trkpt lat="41.581706" lon="2.460098">
        <ele>369.901</ele>
        <time>2021-05-26T07:48:29Z</time>
      </trkpt>
      <trkpt lat="41.581710" lon="2.460167">
        <ele>370.121</ele>
        <time>2021-05-26T07:48:31Z</time>
      </trkpt>
      <trkpt lat="41.581715" lon="2.460205">
        <ele>370.308</ele>
        <time>2021-05-26T07:48:33Z</time>
      </trkpt>
      <trkpt lat="41.581719" lon="2.460245">
        <ele>370.580</ele>
        <time>2021-05-26T07:48:34Z</time>
      </trkpt>
      <trkpt lat="41.581724" lon="2.460280">
        <ele>370.677</ele>
        <time>2021-05-26T07:48:35Z</time>
      </trkpt>
      <trkpt lat="41.581729" lon="2.460316">
        <ele>370.844</ele>
        <time>2021-05-26T07:48:36Z</time>
      </trkpt>
      <trkpt lat="41.581732" lon="2.460350">
        <ele>371.017</ele>
        <time>2021-05-26T07:48:37Z</time>
      </trkpt>
      <trkpt lat="41.581736" lon="2.460381">
        <ele>371.162</ele>
        <time>2021-05-26T07:48:38Z</time>
      </trkpt>
      <trkpt lat="41.581742" lon="2.460411">
        <ele>371.378</ele>
        <time>2021-05-26T07:48:39Z</time>
      </trkpt>
      <trkpt lat="41.581753" lon="2.460435">
        <ele>371.575</ele>
        <time>2021-05-26T07:48:40Z</time>
      </trkpt>
      <trkpt lat="41.581763" lon="2.460460">
        <ele>371.752</ele>
        <time>2021-05-26T07:48:41Z</time>
      </trkpt>
      <trkpt lat="41.581773" lon="2.460484">
        <ele>371.949</ele>
        <time>2021-05-26T07:48:42Z</time>
      </trkpt>
      <trkpt lat="41.581780" lon="2.460509">
        <ele>372.102</ele>
        <time>2021-05-26T07:48:43Z</time>
      </trkpt>
      <trkpt lat="41.581788" lon="2.460534">
        <ele>372.222</ele>
        <time>2021-05-26T07:48:44Z</time>
      </trkpt>
      <trkpt lat="41.581796" lon="2.460559">
        <ele>372.408</ele>
        <time>2021-05-26T07:48:45Z</time>
      </trkpt>
      <trkpt lat="41.581801" lon="2.460589">
        <ele>372.341</ele>
        <time>2021-05-26T07:48:46Z</time>
      </trkpt>
      <trkpt lat="41.581805" lon="2.460619">
        <ele>372.398</ele>
        <time>2021-05-26T07:48:47Z</time>
      </trkpt>
      <trkpt lat="41.581809" lon="2.460648">
        <ele>372.275</ele>
        <time>2021-05-26T07:48:48Z</time>
      </trkpt>
      <trkpt lat="41.581814" lon="2.460682">
        <ele>372.168</ele>
        <time>2021-05-26T07:48:49Z</time>
      </trkpt>
      <trkpt lat="41.581820" lon="2.460714">
        <ele>372.043</ele>
        <time>2021-05-26T07:48:50Z</time>
      </trkpt>
      <trkpt lat="41.581827" lon="2.460747">
        <ele>371.939</ele>
        <time>2021-05-26T07:48:51Z</time>
      </trkpt>
      <trkpt lat="41.581832" lon="2.460776">
        <ele>371.816</ele>
        <time>2021-05-26T07:48:52Z</time>
      </trkpt>
      <trkpt lat="41.581838" lon="2.460807">
        <ele>371.753</ele>
        <time>2021-05-26T07:48:53Z</time>
      </trkpt>
      <trkpt lat="41.581846" lon="2.460842">
        <ele>371.611</ele>
        <time>2021-05-26T07:48:54Z</time>
      </trkpt>
      <trkpt lat="41.581856" lon="2.460874">
        <ele>371.321</ele>
        <time>2021-05-26T07:48:55Z</time>
      </trkpt>
      <trkpt lat="41.581875" lon="2.460899">
        <ele>371.103</ele>
        <time>2021-05-26T07:48:56Z</time>
      </trkpt>
      <trkpt lat="41.581898" lon="2.460918">
        <ele>371.008</ele>
        <time>2021-05-26T07:48:57Z</time>
      </trkpt>
      <trkpt lat="41.581921" lon="2.460930">
        <ele>370.998</ele>
        <time>2021-05-26T07:48:58Z</time>
      </trkpt>
      <trkpt lat="41.581944" lon="2.460935">
        <ele>370.915</ele>
        <time>2021-05-26T07:48:59Z</time>
      </trkpt>
      <trkpt lat="41.581963" lon="2.460944">
        <ele>370.882</ele>
        <time>2021-05-26T07:49:00Z</time>
      </trkpt>
      <trkpt lat="41.581984" lon="2.460951">
        <ele>370.755</ele>
        <time>2021-05-26T07:49:01Z</time>
      </trkpt>
      <trkpt lat="41.582005" lon="2.460958">
        <ele>370.690</ele>
        <time>2021-05-26T07:49:02Z</time>
      </trkpt>
      <trkpt lat="41.582026" lon="2.460968">
        <ele>370.476</ele>
        <time>2021-05-26T07:49:03Z</time>
      </trkpt>
      <trkpt lat="41.582047" lon="2.460977">
        <ele>370.313</ele>
        <time>2021-05-26T07:49:04Z</time>
      </trkpt>
      <trkpt lat="41.582067" lon="2.460984">
        <ele>370.150</ele>
        <time>2021-05-26T07:49:05Z</time>
      </trkpt>
      <trkpt lat="41.582088" lon="2.460987">
        <ele>370.167</ele>
        <time>2021-05-26T07:49:06Z</time>
      </trkpt>
      <trkpt lat="41.582107" lon="2.460994">
        <ele>369.981</ele>
        <time>2021-05-26T07:49:07Z</time>
      </trkpt>
      <trkpt lat="41.582127" lon="2.461003">
        <ele>369.819</ele>
        <time>2021-05-26T07:49:08Z</time>
      </trkpt>
      <trkpt lat="41.582152" lon="2.461021">
        <ele>369.508</ele>
        <time>2021-05-26T07:49:10Z</time>
      </trkpt>
      <trkpt lat="41.582182" lon="2.461031">
        <ele>369.333</ele>
        <time>2021-05-26T07:49:12Z</time>
      </trkpt>
      <trkpt lat="41.582218" lon="2.461053">
        <ele>368.820</ele>
        <time>2021-05-26T07:49:14Z</time>
      </trkpt>
      <trkpt lat="41.582245" lon="2.461059">
        <ele>368.817</ele>
        <time>2021-05-26T07:49:15Z</time>
      </trkpt>
      <trkpt lat="41.582270" lon="2.461063">
        <ele>368.920</ele>
        <time>2021-05-26T07:49:16Z</time>
      </trkpt>
      <trkpt lat="41.582322" lon="2.461068">
        <ele>369.055</ele>
        <time>2021-05-26T07:49:17Z</time>
      </trkpt>
      <trkpt lat="41.582349" lon="2.461074">
        <ele>369.071</ele>
        <time>2021-05-26T07:49:19Z</time>
      </trkpt>
      <trkpt lat="41.582379" lon="2.461076">
        <ele>369.158</ele>
        <time>2021-05-26T07:49:20Z</time>
      </trkpt>
      <trkpt lat="41.582405" lon="2.461080">
        <ele>369.135</ele>
        <time>2021-05-26T07:49:21Z</time>
      </trkpt>
      <trkpt lat="41.582431" lon="2.461081">
        <ele>369.222</ele>
        <time>2021-05-26T07:49:22Z</time>
      </trkpt>
      <trkpt lat="41.582459" lon="2.461080">
        <ele>369.362</ele>
        <time>2021-05-26T07:49:23Z</time>
      </trkpt>
      <trkpt lat="41.582485" lon="2.461080">
        <ele>369.408</ele>
        <time>2021-05-26T07:49:24Z</time>
      </trkpt>
      <trkpt lat="41.582507" lon="2.461088">
        <ele>369.408</ele>
        <time>2021-05-26T07:49:25Z</time>
      </trkpt>
      <trkpt lat="41.582563" lon="2.461096">
        <ele>369.639</ele>
        <time>2021-05-26T07:49:26Z</time>
      </trkpt>
      <trkpt lat="41.582589" lon="2.461101">
        <ele>369.826</ele>
        <time>2021-05-26T07:49:27Z</time>
      </trkpt>
      <trkpt lat="41.582611" lon="2.461111">
        <ele>369.853</ele>
        <time>2021-05-26T07:49:28Z</time>
      </trkpt>
      <trkpt lat="41.582634" lon="2.461123">
        <ele>369.736</ele>
        <time>2021-05-26T07:49:29Z</time>
      </trkpt>
      <trkpt lat="41.582655" lon="2.461130">
        <ele>369.741</ele>
        <time>2021-05-26T07:49:30Z</time>
      </trkpt>
      <trkpt lat="41.582680" lon="2.461137">
        <ele>369.847</ele>
        <time>2021-05-26T07:49:31Z</time>
      </trkpt>
      <trkpt lat="41.582703" lon="2.461144">
        <ele>369.824</ele>
        <time>2021-05-26T07:49:32Z</time>
      </trkpt>
      <trkpt lat="41.582726" lon="2.461150">
        <ele>369.951</ele>
        <time>2021-05-26T07:49:33Z</time>
      </trkpt>
      <trkpt lat="41.582753" lon="2.461156">
        <ele>370.025</ele>
        <time>2021-05-26T07:49:34Z</time>
      </trkpt>
      <trkpt lat="41.582777" lon="2.461168">
        <ele>370.026</ele>
        <time>2021-05-26T07:49:35Z</time>
      </trkpt>
      <trkpt lat="41.582797" lon="2.461176">
        <ele>369.908</ele>
        <time>2021-05-26T07:49:37Z</time>
      </trkpt>
      <trkpt lat="41.582819" lon="2.461185">
        <ele>369.808</ele>
        <time>2021-05-26T07:49:38Z</time>
      </trkpt>
      <trkpt lat="41.582839" lon="2.461190">
        <ele>369.879</ele>
        <time>2021-05-26T07:49:39Z</time>
      </trkpt>
      <trkpt lat="41.582864" lon="2.461195">
        <ele>369.876</ele>
        <time>2021-05-26T07:49:40Z</time>
      </trkpt>
      <trkpt lat="41.582884" lon="2.461201">
        <ele>369.863</ele>
        <time>2021-05-26T07:49:41Z</time>
      </trkpt>
      <trkpt lat="41.582907" lon="2.461207">
        <ele>369.736</ele>
        <time>2021-05-26T07:49:42Z</time>
      </trkpt>
      <trkpt lat="41.582932" lon="2.461219">
        <ele>369.621</ele>
        <time>2021-05-26T07:49:43Z</time>
      </trkpt>
      <trkpt lat="41.582955" lon="2.461229">
        <ele>369.587</ele>
        <time>2021-05-26T07:49:44Z</time>
      </trkpt>
      <trkpt lat="41.583002" lon="2.461243">
        <ele>369.484</ele>
        <time>2021-05-26T07:49:45Z</time>
      </trkpt>
      <trkpt lat="41.583049" lon="2.461257">
        <ele>369.461</ele>
        <time>2021-05-26T07:49:47Z</time>
      </trkpt>
      <trkpt lat="41.583107" lon="2.461249">
        <ele>369.793</ele>
        <time>2021-05-26T07:49:49Z</time>
      </trkpt>
      <trkpt lat="41.583130" lon="2.461255">
        <ele>369.765</ele>
        <time>2021-05-26T07:49:51Z</time>
      </trkpt>
      <trkpt lat="41.583152" lon="2.461257">
        <ele>369.721</ele>
        <time>2021-05-26T07:49:52Z</time>
      </trkpt>
      <trkpt lat="41.583180" lon="2.461263">
        <ele>369.708</ele>
        <time>2021-05-26T07:49:53Z</time>
      </trkpt>
      <trkpt lat="41.583209" lon="2.461271">
        <ele>369.746</ele>
        <time>2021-05-26T07:49:54Z</time>
      </trkpt>
      <trkpt lat="41.583237" lon="2.461275">
        <ele>369.753</ele>
        <time>2021-05-26T07:49:55Z</time>
      </trkpt>
      <trkpt lat="41.583265" lon="2.461276">
        <ele>369.890</ele>
        <time>2021-05-26T07:49:56Z</time>
      </trkpt>
      <trkpt lat="41.583320" lon="2.461279">
        <ele>369.913</ele>
        <time>2021-05-26T07:49:57Z</time>
      </trkpt>
      <trkpt lat="41.583344" lon="2.461282">
        <ele>369.938</ele>
        <time>2021-05-26T07:49:58Z</time>
      </trkpt>
      <trkpt lat="41.583371" lon="2.461287">
        <ele>369.954</ele>
        <time>2021-05-26T07:49:59Z</time>
      </trkpt>
      <trkpt lat="41.583473" lon="2.461309">
        <ele>369.641</ele>
        <time>2021-05-26T07:50:04Z</time>
      </trkpt>
      <trkpt lat="41.583574" lon="2.461290">
        <ele>370.138</ele>
        <time>2021-05-26T07:50:08Z</time>
      </trkpt>
      <trkpt lat="41.583659" lon="2.461248">
        <ele>370.751</ele>
        <time>2021-05-26T07:50:11Z</time>
      </trkpt>
      <trkpt lat="41.583760" lon="2.461182">
        <ele>371.401</ele>
        <time>2021-05-26T07:50:16Z</time>
      </trkpt>
      <trkpt lat="41.583878" lon="2.461150">
        <ele>371.211</ele>
        <time>2021-05-26T07:50:20Z</time>
      </trkpt>
      <trkpt lat="41.583904" lon="2.461145">
        <ele>371.108</ele>
        <time>2021-05-26T07:50:22Z</time>
      </trkpt>
      <trkpt lat="41.583959" lon="2.461137">
        <ele>370.742</ele>
        <time>2021-05-26T07:50:23Z</time>
      </trkpt>
      <trkpt lat="41.583982" lon="2.461138">
        <ele>370.489</ele>
        <time>2021-05-26T07:50:25Z</time>
      </trkpt>
      <trkpt lat="41.584006" lon="2.461138">
        <ele>370.126</ele>
        <time>2021-05-26T07:50:26Z</time>
      </trkpt>
      <trkpt lat="41.584031" lon="2.461137">
        <ele>369.989</ele>
        <time>2021-05-26T07:50:27Z</time>
      </trkpt>
      <trkpt lat="41.584057" lon="2.461134">
        <ele>369.644</ele>
        <time>2021-05-26T07:50:28Z</time>
      </trkpt>
      <trkpt lat="41.584170" lon="2.461159">
        <ele>367.870</ele>
        <time>2021-05-26T07:50:32Z</time>
      </trkpt>
      <trkpt lat="41.584271" lon="2.461177">
        <ele>366.847</ele>
        <time>2021-05-26T07:50:36Z</time>
      </trkpt>
      <trkpt lat="41.584328" lon="2.461186">
        <ele>366.354</ele>
        <time>2021-05-26T07:50:37Z</time>
      </trkpt>
      <trkpt lat="41.584410" lon="2.461212">
        <ele>365.368</ele>
        <time>2021-05-26T07:50:41Z</time>
      </trkpt>
      <trkpt lat="41.584431" lon="2.461237">
        <ele>364.842</ele>
        <time>2021-05-26T07:50:42Z</time>
      </trkpt>
      <trkpt lat="41.584455" lon="2.461261">
        <ele>364.426</ele>
        <time>2021-05-26T07:50:43Z</time>
      </trkpt>
      <trkpt lat="41.584478" lon="2.461287">
        <ele>364.208</ele>
        <time>2021-05-26T07:50:44Z</time>
      </trkpt>
      <trkpt lat="41.584502" lon="2.461308">
        <ele>364.123</ele>
        <time>2021-05-26T07:50:45Z</time>
      </trkpt>
      <trkpt lat="41.584519" lon="2.461333">
        <ele>363.970</ele>
        <time>2021-05-26T07:50:46Z</time>
      </trkpt>
      <trkpt lat="41.584540" lon="2.461361">
        <ele>363.827</ele>
        <time>2021-05-26T07:50:47Z</time>
      </trkpt>
      <trkpt lat="41.584560" lon="2.461384">
        <ele>363.760</ele>
        <time>2021-05-26T07:50:48Z</time>
      </trkpt>
      <trkpt lat="41.584577" lon="2.461403">
        <ele>363.845</ele>
        <time>2021-05-26T07:50:49Z</time>
      </trkpt>
      <trkpt lat="41.584594" lon="2.461426">
        <ele>363.881</ele>
        <time>2021-05-26T07:50:50Z</time>
      </trkpt>
      <trkpt lat="41.584608" lon="2.461449">
        <ele>363.738</ele>
        <time>2021-05-26T07:50:51Z</time>
      </trkpt>
      <trkpt lat="41.584623" lon="2.461471">
        <ele>363.815</ele>
        <time>2021-05-26T07:50:52Z</time>
      </trkpt>
      <trkpt lat="41.584638" lon="2.461500">
        <ele>363.722</ele>
        <time>2021-05-26T07:50:53Z</time>
      </trkpt>
      <trkpt lat="41.584663" lon="2.461560">
        <ele>363.762</ele>
        <time>2021-05-26T07:50:54Z</time>
      </trkpt>
      <trkpt lat="41.584677" lon="2.461594">
        <ele>363.608</ele>
        <time>2021-05-26T07:50:56Z</time>
      </trkpt>
      <trkpt lat="41.584689" lon="2.461626">
        <ele>363.608</ele>
        <time>2021-05-26T07:50:57Z</time>
      </trkpt>
      <trkpt lat="41.584698" lon="2.461657">
        <ele>363.619</ele>
        <time>2021-05-26T07:50:58Z</time>
      </trkpt>
      <trkpt lat="41.584722" lon="2.461717">
        <ele>364.076</ele>
        <time>2021-05-26T07:50:59Z</time>
      </trkpt>
      <trkpt lat="41.584735" lon="2.461749">
        <ele>364.313</ele>
        <time>2021-05-26T07:51:00Z</time>
      </trkpt>
      <trkpt lat="41.584746" lon="2.461786">
        <ele>364.666</ele>
        <time>2021-05-26T07:51:01Z</time>
      </trkpt>
      <trkpt lat="41.584755" lon="2.461816">
        <ele>364.861</ele>
        <time>2021-05-26T07:51:02Z</time>
      </trkpt>
      <trkpt lat="41.584759" lon="2.461844">
        <ele>364.987</ele>
        <time>2021-05-26T07:51:03Z</time>
      </trkpt>
      <trkpt lat="41.584762" lon="2.461872">
        <ele>365.084</ele>
        <time>2021-05-26T07:51:04Z</time>
      </trkpt>
      <trkpt lat="41.584766" lon="2.461899">
        <ele>365.111</ele>
        <time>2021-05-26T07:51:05Z</time>
      </trkpt>
      <trkpt lat="41.584768" lon="2.461929">
        <ele>365.236</ele>
        <time>2021-05-26T07:51:06Z</time>
      </trkpt>
      <trkpt lat="41.584770" lon="2.461960">
        <ele>365.217</ele>
        <time>2021-05-26T07:51:07Z</time>
      </trkpt>
      <trkpt lat="41.584770" lon="2.461994">
        <ele>365.218</ele>
        <time>2021-05-26T07:51:08Z</time>
      </trkpt>
      <trkpt lat="41.584768" lon="2.462032">
        <ele>365.208</ele>
        <time>2021-05-26T07:51:09Z</time>
      </trkpt>
      <trkpt lat="41.584766" lon="2.462069">
        <ele>365.190</ele>
        <time>2021-05-26T07:51:10Z</time>
      </trkpt>
      <trkpt lat="41.584763" lon="2.462104">
        <ele>365.037</ele>
        <time>2021-05-26T07:51:12Z</time>
      </trkpt>
      <trkpt lat="41.584759" lon="2.462134">
        <ele>364.944</ele>
        <time>2021-05-26T07:51:13Z</time>
      </trkpt>
      <trkpt lat="41.584755" lon="2.462163">
        <ele>364.827</ele>
        <time>2021-05-26T07:51:14Z</time>
      </trkpt>
      <trkpt lat="41.584750" lon="2.462197">
        <ele>364.782</ele>
        <time>2021-05-26T07:51:15Z</time>
      </trkpt>
      <trkpt lat="41.584750" lon="2.462231">
        <ele>364.678</ele>
        <time>2021-05-26T07:51:16Z</time>
      </trkpt>
      <trkpt lat="41.584749" lon="2.462266">
        <ele>364.445</ele>
        <time>2021-05-26T07:51:17Z</time>
      </trkpt>
      <trkpt lat="41.584750" lon="2.462300">
        <ele>364.142</ele>
        <time>2021-05-26T07:51:18Z</time>
      </trkpt>
      <trkpt lat="41.584749" lon="2.462337">
        <ele>363.874</ele>
        <time>2021-05-26T07:51:19Z</time>
      </trkpt>
      <trkpt lat="41.584752" lon="2.462372">
        <ele>363.756</ele>
        <time>2021-05-26T07:51:20Z</time>
      </trkpt>
      <trkpt lat="41.584758" lon="2.462407">
        <ele>363.621</ele>
        <time>2021-05-26T07:51:21Z</time>
      </trkpt>
      <trkpt lat="41.584769" lon="2.462477">
        <ele>363.308</ele>
        <time>2021-05-26T07:51:22Z</time>
      </trkpt>
      <trkpt lat="41.584778" lon="2.462508">
        <ele>363.424</ele>
        <time>2021-05-26T07:51:24Z</time>
      </trkpt>
      <trkpt lat="41.584790" lon="2.462538">
        <ele>363.591</ele>
        <time>2021-05-26T07:51:25Z</time>
      </trkpt>
      <trkpt lat="41.584805" lon="2.462565">
        <ele>363.758</ele>
        <time>2021-05-26T07:51:26Z</time>
      </trkpt>
      <trkpt lat="41.584820" lon="2.462587">
        <ele>363.981</ele>
        <time>2021-05-26T07:51:27Z</time>
      </trkpt>
      <trkpt lat="41.584853" lon="2.462632">
        <ele>364.446</ele>
        <time>2021-05-26T07:51:28Z</time>
      </trkpt>
      <trkpt lat="41.584869" lon="2.462657">
        <ele>364.552</ele>
        <time>2021-05-26T07:51:29Z</time>
      </trkpt>
      <trkpt lat="41.584887" lon="2.462679">
        <ele>364.799</ele>
        <time>2021-05-26T07:51:31Z</time>
      </trkpt>
      <trkpt lat="41.584906" lon="2.462701">
        <ele>364.926</ele>
        <time>2021-05-26T07:51:32Z</time>
      </trkpt>
      <trkpt lat="41.584923" lon="2.462723">
        <ele>365.121</ele>
        <time>2021-05-26T07:51:33Z</time>
      </trkpt>
      <trkpt lat="41.584942" lon="2.462738">
        <ele>365.341</ele>
        <time>2021-05-26T07:51:34Z</time>
      </trkpt>
      <trkpt lat="41.584964" lon="2.462753">
        <ele>365.605</ele>
        <time>2021-05-26T07:51:35Z</time>
      </trkpt>
      <trkpt lat="41.584988" lon="2.462770">
        <ele>365.908</ele>
        <time>2021-05-26T07:51:36Z</time>
      </trkpt>
      <trkpt lat="41.585007" lon="2.462789">
        <ele>365.839</ele>
        <time>2021-05-26T07:51:37Z</time>
      </trkpt>
      <trkpt lat="41.585027" lon="2.462811">
        <ele>365.496</ele>
        <time>2021-05-26T07:51:38Z</time>
      </trkpt>
      <trkpt lat="41.585052" lon="2.462826">
        <ele>365.223</ele>
        <time>2021-05-26T07:51:39Z</time>
      </trkpt>
      <trkpt lat="41.585076" lon="2.462844">
        <ele>364.926</ele>
        <time>2021-05-26T07:51:40Z</time>
      </trkpt>
      <trkpt lat="41.585105" lon="2.462851">
        <ele>364.951</ele>
        <time>2021-05-26T07:51:41Z</time>
      </trkpt>
      <trkpt lat="41.585132" lon="2.462859">
        <ele>364.927</ele>
        <time>2021-05-26T07:51:42Z</time>
      </trkpt>
      <trkpt lat="41.585159" lon="2.462863">
        <ele>364.914</ele>
        <time>2021-05-26T07:51:43Z</time>
      </trkpt>
      <trkpt lat="41.585187" lon="2.462868">
        <ele>364.921</ele>
        <time>2021-05-26T07:51:44Z</time>
      </trkpt>
      <trkpt lat="41.585216" lon="2.462873">
        <ele>365.092</ele>
        <time>2021-05-26T07:51:45Z</time>
      </trkpt>
      <trkpt lat="41.585247" lon="2.462877">
        <ele>365.173</ele>
        <time>2021-05-26T07:51:46Z</time>
      </trkpt>
      <trkpt lat="41.585277" lon="2.462881">
        <ele>365.120</ele>
        <time>2021-05-26T07:51:47Z</time>
      </trkpt>
      <trkpt lat="41.585344" lon="2.462878">
        <ele>365.308</ele>
        <time>2021-05-26T07:51:49Z</time>
      </trkpt>
      <trkpt lat="41.585376" lon="2.462877">
        <ele>365.366</ele>
        <time>2021-05-26T07:51:50Z</time>
      </trkpt>
      <trkpt lat="41.585406" lon="2.462890">
        <ele>365.263</ele>
        <time>2021-05-26T07:51:51Z</time>
      </trkpt>
      <trkpt lat="41.585430" lon="2.462909">
        <ele>364.940</ele>
        <time>2021-05-26T07:51:52Z</time>
      </trkpt>
      <trkpt lat="41.585455" lon="2.462926">
        <ele>364.723</ele>
        <time>2021-05-26T07:51:53Z</time>
      </trkpt>
      <trkpt lat="41.585504" lon="2.462956">
        <ele>364.368</ele>
        <time>2021-05-26T07:51:54Z</time>
      </trkpt>
      <trkpt lat="41.585528" lon="2.462973">
        <ele>364.144</ele>
        <time>2021-05-26T07:51:55Z</time>
      </trkpt>
      <trkpt lat="41.585623" lon="2.463055">
        <ele>363.251</ele>
        <time>2021-05-26T07:51:59Z</time>
      </trkpt>
      <trkpt lat="41.585671" lon="2.463192">
        <ele>361.768</ele>
        <time>2021-05-26T07:52:04Z</time>
      </trkpt>
      <trkpt lat="41.585750" lon="2.463279">
        <ele>360.717</ele>
        <time>2021-05-26T07:52:08Z</time>
      </trkpt>
      <trkpt lat="41.585837" lon="2.463369">
        <ele>359.387</ele>
        <time>2021-05-26T07:52:12Z</time>
      </trkpt>
      <trkpt lat="41.585928" lon="2.463396">
        <ele>358.315</ele>
        <time>2021-05-26T07:52:15Z</time>
      </trkpt>
      <trkpt lat="41.586014" lon="2.463436">
        <ele>357.108</ele>
        <time>2021-05-26T07:52:19Z</time>
      </trkpt>
      <trkpt lat="41.586127" lon="2.463483">
        <ele>355.848</ele>
        <time>2021-05-26T07:52:22Z</time>
      </trkpt>
      <trkpt lat="41.586219" lon="2.463528">
        <ele>354.535</ele>
        <time>2021-05-26T07:52:24Z</time>
      </trkpt>
      <trkpt lat="41.586311" lon="2.463607">
        <ele>352.682</ele>
        <time>2021-05-26T07:52:30Z</time>
      </trkpt>
      <trkpt lat="41.586415" lon="2.463672">
        <ele>350.975</ele>
        <time>2021-05-26T07:52:34Z</time>
      </trkpt>
      <trkpt lat="41.586507" lon="2.463754">
        <ele>349.130</ele>
        <time>2021-05-26T07:52:38Z</time>
      </trkpt>
      <trkpt lat="41.586605" lon="2.463816">
        <ele>347.556</ele>
        <time>2021-05-26T07:52:43Z</time>
      </trkpt>
      <trkpt lat="41.586696" lon="2.463856">
        <ele>346.273</ele>
        <time>2021-05-26T07:52:46Z</time>
      </trkpt>
      <trkpt lat="41.586786" lon="2.463878">
        <ele>345.340</ele>
        <time>2021-05-26T07:52:49Z</time>
      </trkpt>
      <trkpt lat="41.586818" lon="2.463892">
        <ele>344.984</ele>
        <time>2021-05-26T07:52:50Z</time>
      </trkpt>
      <trkpt lat="41.586844" lon="2.463903">
        <ele>344.607</ele>
        <time>2021-05-26T07:52:51Z</time>
      </trkpt>
      <trkpt lat="41.586870" lon="2.463920">
        <ele>344.317</ele>
        <time>2021-05-26T07:52:52Z</time>
      </trkpt>
      <trkpt lat="41.586964" lon="2.463969">
        <ele>343.508</ele>
        <time>2021-05-26T07:52:56Z</time>
      </trkpt>
      <trkpt lat="41.587037" lon="2.464050">
        <ele>343.235</ele>
        <time>2021-05-26T07:53:00Z</time>
      </trkpt>
      <trkpt lat="41.587054" lon="2.464068">
        <ele>343.292</ele>
        <time>2021-05-26T07:53:01Z</time>
      </trkpt>
      <trkpt lat="41.587127" lon="2.464143">
        <ele>343.419</ele>
        <time>2021-05-26T07:53:05Z</time>
      </trkpt>
      <trkpt lat="41.587149" lon="2.464161">
        <ele>343.582</ele>
        <time>2021-05-26T07:53:06Z</time>
      </trkpt>
      <trkpt lat="41.587215" lon="2.464210">
        <ele>343.917</ele>
        <time>2021-05-26T07:53:09Z</time>
      </trkpt>
      <trkpt lat="41.587237" lon="2.464223">
        <ele>344.153</ele>
        <time>2021-05-26T07:53:10Z</time>
      </trkpt>
      <trkpt lat="41.587260" lon="2.464239">
        <ele>344.290</ele>
        <time>2021-05-26T07:53:11Z</time>
      </trkpt>
      <trkpt lat="41.587281" lon="2.464252">
        <ele>344.367</ele>
        <time>2021-05-26T07:53:12Z</time>
      </trkpt>
      <trkpt lat="41.587300" lon="2.464258">
        <ele>344.453</ele>
        <time>2021-05-26T07:53:13Z</time>
      </trkpt>
      <trkpt lat="41.587320" lon="2.464263">
        <ele>344.504</ele>
        <time>2021-05-26T07:53:14Z</time>
      </trkpt>
      <trkpt lat="41.587341" lon="2.464264">
        <ele>344.614</ele>
        <time>2021-05-26T07:53:15Z</time>
      </trkpt>
      <trkpt lat="41.587367" lon="2.464272">
        <ele>344.708</ele>
        <time>2021-05-26T07:53:16Z</time>
      </trkpt>
      <trkpt lat="41.587390" lon="2.464278">
        <ele>344.892</ele>
        <time>2021-05-26T07:53:17Z</time>
      </trkpt>
      <trkpt lat="41.587415" lon="2.464285">
        <ele>345.049</ele>
        <time>2021-05-26T07:53:18Z</time>
      </trkpt>
      <trkpt lat="41.587440" lon="2.464288">
        <ele>345.126</ele>
        <time>2021-05-26T07:53:19Z</time>
      </trkpt>
      <trkpt lat="41.587474" lon="2.464306">
        <ele>345.419</ele>
        <time>2021-05-26T07:53:21Z</time>
      </trkpt>
      <trkpt lat="41.587492" lon="2.464318">
        <ele>345.534</ele>
        <time>2021-05-26T07:53:22Z</time>
      </trkpt>
      <trkpt lat="41.587531" lon="2.464341">
        <ele>345.530</ele>
        <time>2021-05-26T07:53:23Z</time>
      </trkpt>
      <trkpt lat="41.587556" lon="2.464359">
        <ele>345.657</ele>
        <time>2021-05-26T07:53:24Z</time>
      </trkpt>
      <trkpt lat="41.587603" lon="2.464396">
        <ele>345.744</ele>
        <time>2021-05-26T07:53:27Z</time>
      </trkpt>
      <trkpt lat="41.587628" lon="2.464419">
        <ele>345.891</ele>
        <time>2021-05-26T07:53:28Z</time>
      </trkpt>
      <trkpt lat="41.587652" lon="2.464434">
        <ele>345.981</ele>
        <time>2021-05-26T07:53:29Z</time>
      </trkpt>
      <trkpt lat="41.587676" lon="2.464449">
        <ele>346.019</ele>
        <time>2021-05-26T07:53:30Z</time>
      </trkpt>
      <trkpt lat="41.587697" lon="2.464460">
        <ele>346.208</ele>
        <time>2021-05-26T07:53:31Z</time>
      </trkpt>
      <trkpt lat="41.587720" lon="2.464472">
        <ele>346.356</ele>
        <time>2021-05-26T07:53:32Z</time>
      </trkpt>
      <trkpt lat="41.587736" lon="2.464482">
        <ele>346.463</ele>
        <time>2021-05-26T07:53:33Z</time>
      </trkpt>
      <trkpt lat="41.587756" lon="2.464507">
        <ele>346.730</ele>
        <time>2021-05-26T07:53:35Z</time>
      </trkpt>
      <trkpt lat="41.587771" lon="2.464527">
        <ele>346.923</ele>
        <time>2021-05-26T07:53:36Z</time>
      </trkpt>
      <trkpt lat="41.587789" lon="2.464541">
        <ele>346.868</ele>
        <time>2021-05-26T07:53:37Z</time>
      </trkpt>
      <trkpt lat="41.587803" lon="2.464563">
        <ele>346.824</ele>
        <time>2021-05-26T07:53:38Z</time>
      </trkpt>
      <trkpt lat="41.587817" lon="2.464583">
        <ele>346.751</ele>
        <time>2021-05-26T07:53:39Z</time>
      </trkpt>
      <trkpt lat="41.587829" lon="2.464604">
        <ele>346.758</ele>
        <time>2021-05-26T07:53:40Z</time>
      </trkpt>
      <trkpt lat="41.587842" lon="2.464628">
        <ele>346.792</ele>
        <time>2021-05-26T07:53:41Z</time>
      </trkpt>
      <trkpt lat="41.587858" lon="2.464652">
        <ele>346.773</ele>
        <time>2021-05-26T07:53:42Z</time>
      </trkpt>
      <trkpt lat="41.587872" lon="2.464674">
        <ele>346.720</ele>
        <time>2021-05-26T07:53:43Z</time>
      </trkpt>
      <trkpt lat="41.587888" lon="2.464694">
        <ele>346.708</ele>
        <time>2021-05-26T07:53:44Z</time>
      </trkpt>
      <trkpt lat="41.587903" lon="2.464713">
        <ele>346.666</ele>
        <time>2021-05-26T07:53:45Z</time>
      </trkpt>
      <trkpt lat="41.587917" lon="2.464732">
        <ele>346.683</ele>
        <time>2021-05-26T07:53:46Z</time>
      </trkpt>
      <trkpt lat="41.587937" lon="2.464780">
        <ele>346.850</ele>
        <time>2021-05-26T07:53:48Z</time>
      </trkpt>
      <trkpt lat="41.587994" lon="2.464888">
        <ele>346.923</ele>
        <time>2021-05-26T07:53:53Z</time>
      </trkpt>
      <trkpt lat="41.588004" lon="2.465020">
        <ele>348.158</ele>
        <time>2021-05-26T07:53:57Z</time>
      </trkpt>
      <trkpt lat="41.588023" lon="2.465142">
        <ele>349.154</ele>
        <time>2021-05-26T07:54:01Z</time>
      </trkpt>
      <trkpt lat="41.588073" lon="2.465250">
        <ele>349.151</ele>
        <time>2021-05-26T07:54:05Z</time>
      </trkpt>
      <trkpt lat="41.588126" lon="2.465362">
        <ele>348.498</ele>
        <time>2021-05-26T07:54:09Z</time>
      </trkpt>
      <trkpt lat="41.588164" lon="2.465473">
        <ele>348.294</ele>
        <time>2021-05-26T07:54:13Z</time>
      </trkpt>
      <trkpt lat="41.588152" lon="2.465616">
        <ele>349.957</ele>
        <time>2021-05-26T07:54:18Z</time>
      </trkpt>
      <trkpt lat="41.588122" lon="2.465749">
        <ele>351.622</ele>
        <time>2021-05-26T07:54:22Z</time>
      </trkpt>
      <trkpt lat="41.588081" lon="2.465868">
        <ele>353.508</ele>
        <time>2021-05-26T07:54:26Z</time>
      </trkpt>
      <trkpt lat="41.588033" lon="2.465990">
        <ele>355.456</ele>
        <time>2021-05-26T07:54:31Z</time>
      </trkpt>
      <trkpt lat="41.587978" lon="2.466095">
        <ele>356.723</ele>
        <time>2021-05-26T07:54:36Z</time>
      </trkpt>
      <trkpt lat="41.587973" lon="2.466136">
        <ele>357.030</ele>
        <time>2021-05-26T07:54:38Z</time>
      </trkpt>
      <trkpt lat="41.587971" lon="2.466184">
        <ele>357.483</ele>
        <time>2021-05-26T07:54:40Z</time>
      </trkpt>
      <trkpt lat="41.587966" lon="2.466216">
        <ele>357.698</ele>
        <time>2021-05-26T07:54:41Z</time>
      </trkpt>
      <trkpt lat="41.587968" lon="2.466242">
        <ele>357.724</ele>
        <time>2021-05-26T07:54:42Z</time>
      </trkpt>
      <trkpt lat="41.587972" lon="2.466269">
        <ele>357.941</ele>
        <time>2021-05-26T07:54:43Z</time>
      </trkpt>
      <trkpt lat="41.587975" lon="2.466305">
        <ele>358.148</ele>
        <time>2021-05-26T07:54:44Z</time>
      </trkpt>
      <trkpt lat="41.587977" lon="2.466333">
        <ele>358.232</ele>
        <time>2021-05-26T07:54:45Z</time>
      </trkpt>
      <trkpt lat="41.587998" lon="2.466457">
        <ele>359.092</ele>
        <time>2021-05-26T07:54:49Z</time>
      </trkpt>
      <trkpt lat="41.588006" lon="2.466486">
        <ele>359.311</ele>
        <time>2021-05-26T07:54:50Z</time>
      </trkpt>
      <trkpt lat="41.588014" lon="2.466515">
        <ele>359.508</ele>
        <time>2021-05-26T07:54:51Z</time>
      </trkpt>
      <trkpt lat="41.588046" lon="2.466635">
        <ele>360.790</ele>
        <time>2021-05-26T07:54:55Z</time>
      </trkpt>
      <trkpt lat="41.588058" lon="2.466664">
        <ele>360.997</ele>
        <time>2021-05-26T07:54:56Z</time>
      </trkpt>
      <trkpt lat="41.588066" lon="2.466693">
        <ele>360.764</ele>
        <time>2021-05-26T07:54:57Z</time>
      </trkpt>
      <trkpt lat="41.588089" lon="2.466745">
        <ele>360.337</ele>
        <time>2021-05-26T07:54:58Z</time>
      </trkpt>
      <trkpt lat="41.588102" lon="2.466772">
        <ele>360.092</ele>
        <time>2021-05-26T07:54:59Z</time>
      </trkpt>
      <trkpt lat="41.588116" lon="2.466800">
        <ele>359.878</ele>
        <time>2021-05-26T07:55:00Z</time>
      </trkpt>
      <trkpt lat="41.588125" lon="2.466827">
        <ele>359.735</ele>
        <time>2021-05-26T07:55:01Z</time>
      </trkpt>
      <trkpt lat="41.588134" lon="2.466852">
        <ele>359.692</ele>
        <time>2021-05-26T07:55:02Z</time>
      </trkpt>
      <trkpt lat="41.588141" lon="2.466887">
        <ele>359.653</ele>
        <time>2021-05-26T07:55:03Z</time>
      </trkpt>
      <trkpt lat="41.588148" lon="2.466959">
        <ele>359.704</ele>
        <time>2021-05-26T07:55:06Z</time>
      </trkpt>
      <trkpt lat="41.588148" lon="2.467000">
        <ele>359.814</ele>
        <time>2021-05-26T07:55:07Z</time>
      </trkpt>
      <trkpt lat="41.588152" lon="2.467041">
        <ele>359.908</ele>
        <time>2021-05-26T07:55:08Z</time>
      </trkpt>
      <trkpt lat="41.588161" lon="2.467075">
        <ele>359.862</ele>
        <time>2021-05-26T07:55:09Z</time>
      </trkpt>
      <trkpt lat="41.588164" lon="2.467109">
        <ele>359.929</ele>
        <time>2021-05-26T07:55:10Z</time>
      </trkpt>
      <trkpt lat="41.588173" lon="2.467167">
        <ele>360.086</ele>
        <time>2021-05-26T07:55:11Z</time>
      </trkpt>
      <trkpt lat="41.588184" lon="2.467188">
        <ele>360.029</ele>
        <time>2021-05-26T07:55:12Z</time>
      </trkpt>
      <trkpt lat="41.588202" lon="2.467247">
        <ele>359.954</ele>
        <time>2021-05-26T07:55:14Z</time>
      </trkpt>
      <trkpt lat="41.588213" lon="2.467280">
        <ele>359.960</ele>
        <time>2021-05-26T07:55:16Z</time>
      </trkpt>
      <trkpt lat="41.588227" lon="2.467309">
        <ele>359.877</ele>
        <time>2021-05-26T07:55:17Z</time>
      </trkpt>
      <trkpt lat="41.588251" lon="2.467331">
        <ele>359.614</ele>
        <time>2021-05-26T07:55:18Z</time>
      </trkpt>
      <trkpt lat="41.588282" lon="2.467378">
        <ele>359.463</ele>
        <time>2021-05-26T07:55:19Z</time>
      </trkpt>
      <trkpt lat="41.588300" lon="2.467400">
        <ele>359.244</ele>
        <time>2021-05-26T07:55:20Z</time>
      </trkpt>
      <trkpt lat="41.588314" lon="2.467420">
        <ele>359.118</ele>
        <time>2021-05-26T07:55:22Z</time>
      </trkpt>
      <trkpt lat="41.588332" lon="2.467437">
        <ele>359.008</ele>
        <time>2021-05-26T07:55:23Z</time>
      </trkpt>
      <trkpt lat="41.588348" lon="2.467452">
        <ele>358.893</ele>
        <time>2021-05-26T07:55:24Z</time>
      </trkpt>
      <trkpt lat="41.588364" lon="2.467472">
        <ele>358.590</ele>
        <time>2021-05-26T07:55:25Z</time>
      </trkpt>
      <trkpt lat="41.588392" lon="2.467505">
        <ele>358.277</ele>
        <time>2021-05-26T07:55:26Z</time>
      </trkpt>
      <trkpt lat="41.588407" lon="2.467524">
        <ele>358.090</ele>
        <time>2021-05-26T07:55:27Z</time>
      </trkpt>
      <trkpt lat="41.588421" lon="2.467541">
        <ele>357.955</ele>
        <time>2021-05-26T07:55:29Z</time>
      </trkpt>
      <trkpt lat="41.588437" lon="2.467556">
        <ele>357.841</ele>
        <time>2021-05-26T07:55:30Z</time>
      </trkpt>
      <trkpt lat="41.588455" lon="2.467571">
        <ele>357.628</ele>
        <time>2021-05-26T07:55:31Z</time>
      </trkpt>
      <trkpt lat="41.588483" lon="2.467594">
        <ele>357.465</ele>
        <time>2021-05-26T07:55:33Z</time>
      </trkpt>
      <trkpt lat="41.588497" lon="2.467609">
        <ele>357.332</ele>
        <time>2021-05-26T07:55:34Z</time>
      </trkpt>
      <trkpt lat="41.588529" lon="2.467644">
        <ele>357.192</ele>
        <time>2021-05-26T07:55:36Z</time>
      </trkpt>
      <trkpt lat="41.588556" lon="2.467660">
        <ele>356.811</ele>
        <time>2021-05-26T07:55:37Z</time>
      </trkpt>
      <trkpt lat="41.588601" lon="2.467694">
        <ele>356.508</ele>
        <time>2021-05-26T07:55:39Z</time>
      </trkpt>
      <trkpt lat="41.588636" lon="2.467761">
        <ele>356.230</ele>
        <time>2021-05-26T07:55:42Z</time>
      </trkpt>
      <trkpt lat="41.588652" lon="2.467779">
        <ele>356.077</ele>
        <time>2021-05-26T07:55:43Z</time>
      </trkpt>
      <trkpt lat="41.588681" lon="2.467834">
        <ele>356.184</ele>
        <time>2021-05-26T07:55:45Z</time>
      </trkpt>
      <trkpt lat="41.588693" lon="2.467871">
        <ele>356.597</ele>
        <time>2021-05-26T07:55:46Z</time>
      </trkpt>
      <trkpt lat="41.588703" lon="2.467913">
        <ele>357.032</ele>
        <time>2021-05-26T07:55:47Z</time>
      </trkpt>
      <trkpt lat="41.588716" lon="2.467947">
        <ele>357.388</ele>
        <time>2021-05-26T07:55:48Z</time>
      </trkpt>
      <trkpt lat="41.588748" lon="2.468017">
        <ele>357.875</ele>
        <time>2021-05-26T07:55:49Z</time>
      </trkpt>
      <trkpt lat="41.588767" lon="2.468045">
        <ele>358.062</ele>
        <time>2021-05-26T07:55:50Z</time>
      </trkpt>
      <trkpt lat="41.588783" lon="2.468075">
        <ele>358.297</ele>
        <time>2021-05-26T07:55:51Z</time>
      </trkpt>
      <trkpt lat="41.588800" lon="2.468104">
        <ele>358.523</ele>
        <time>2021-05-26T07:55:52Z</time>
      </trkpt>
      <trkpt lat="41.588816" lon="2.468123">
        <ele>358.625</ele>
        <time>2021-05-26T07:55:53Z</time>
      </trkpt>
      <trkpt lat="41.588832" lon="2.468149">
        <ele>359.008</ele>
        <time>2021-05-26T07:55:54Z</time>
      </trkpt>
      <trkpt lat="41.588854" lon="2.468180">
        <ele>359.496</ele>
        <time>2021-05-26T07:55:55Z</time>
      </trkpt>
      <trkpt lat="41.588872" lon="2.468202">
        <ele>359.883</ele>
        <time>2021-05-26T07:55:56Z</time>
      </trkpt>
      <trkpt lat="41.588943" lon="2.468307">
        <ele>361.010</ele>
        <time>2021-05-26T07:56:01Z</time>
      </trkpt>
      <trkpt lat="41.589015" lon="2.468413">
        <ele>360.933</ele>
        <time>2021-05-26T07:56:05Z</time>
      </trkpt>
      <trkpt lat="41.589080" lon="2.468521">
        <ele>361.498</ele>
        <time>2021-05-26T07:56:11Z</time>
      </trkpt>
      <trkpt lat="41.589106" lon="2.468642">
        <ele>362.834</ele>
        <time>2021-05-26T07:56:17Z</time>
      </trkpt>
      <trkpt lat="41.589116" lon="2.468796">
        <ele>363.241</ele>
        <time>2021-05-26T07:56:23Z</time>
      </trkpt>
      <trkpt lat="41.589133" lon="2.468858">
        <ele>363.318</ele>
        <time>2021-05-26T07:56:26Z</time>
      </trkpt>
      <trkpt lat="41.589145" lon="2.468886">
        <ele>363.247</ele>
        <time>2021-05-26T07:56:27Z</time>
      </trkpt>
      <trkpt lat="41.589156" lon="2.468915">
        <ele>363.229</ele>
        <time>2021-05-26T07:56:28Z</time>
      </trkpt>
      <trkpt lat="41.589169" lon="2.468941">
        <ele>363.121</ele>
        <time>2021-05-26T07:56:29Z</time>
      </trkpt>
      <trkpt lat="41.589180" lon="2.468963">
        <ele>363.008</ele>
        <time>2021-05-26T07:56:30Z</time>
      </trkpt>
      <trkpt lat="41.589192" lon="2.468985">
        <ele>362.821</ele>
        <time>2021-05-26T07:56:31Z</time>
      </trkpt>
      <trkpt lat="41.589203" lon="2.469010">
        <ele>362.768</ele>
        <time>2021-05-26T07:56:32Z</time>
      </trkpt>
      <trkpt lat="41.589215" lon="2.469037">
        <ele>362.665</ele>
        <time>2021-05-26T07:56:33Z</time>
      </trkpt>
      <trkpt lat="41.589227" lon="2.469056">
        <ele>362.438</ele>
        <time>2021-05-26T07:56:34Z</time>
      </trkpt>
      <trkpt lat="41.589240" lon="2.469081">
        <ele>362.343</ele>
        <time>2021-05-26T07:56:35Z</time>
      </trkpt>
      <trkpt lat="41.589254" lon="2.469100">
        <ele>362.189</ele>
        <time>2021-05-26T07:56:36Z</time>
      </trkpt>
      <trkpt lat="41.589267" lon="2.469122">
        <ele>362.026</ele>
        <time>2021-05-26T07:56:37Z</time>
      </trkpt>
      <trkpt lat="41.589285" lon="2.469144">
        <ele>361.873</ele>
        <time>2021-05-26T07:56:38Z</time>
      </trkpt>
      <trkpt lat="41.589335" lon="2.469200">
        <ele>361.386</ele>
        <time>2021-05-26T07:56:40Z</time>
      </trkpt>
      <trkpt lat="41.589350" lon="2.469228">
        <ele>361.360</ele>
        <time>2021-05-26T07:56:41Z</time>
      </trkpt>
      <trkpt lat="41.589367" lon="2.469257">
        <ele>361.326</ele>
        <time>2021-05-26T07:56:42Z</time>
      </trkpt>
      <trkpt lat="41.589383" lon="2.469283">
        <ele>361.408</ele>
        <time>2021-05-26T07:56:43Z</time>
      </trkpt>
      <trkpt lat="41.589395" lon="2.469309">
        <ele>361.615</ele>
        <time>2021-05-26T07:56:44Z</time>
      </trkpt>
      <trkpt lat="41.589436" lon="2.469336">
        <ele>361.592</ele>
        <time>2021-05-26T07:56:47Z</time>
      </trkpt>
      <trkpt lat="41.589472" lon="2.469373">
        <ele>361.779</ele>
        <time>2021-05-26T07:56:49Z</time>
      </trkpt>
      <trkpt lat="41.589489" lon="2.469395">
        <ele>361.892</ele>
        <time>2021-05-26T07:56:50Z</time>
      </trkpt>
      <trkpt lat="41.589503" lon="2.469417">
        <ele>362.057</ele>
        <time>2021-05-26T07:56:51Z</time>
      </trkpt>
      <trkpt lat="41.589523" lon="2.469434">
        <ele>362.033</ele>
        <time>2021-05-26T07:56:52Z</time>
      </trkpt>
      <trkpt lat="41.589543" lon="2.469446">
        <ele>361.930</ele>
        <time>2021-05-26T07:56:53Z</time>
      </trkpt>
      <trkpt lat="41.589563" lon="2.469459">
        <ele>361.847</ele>
        <time>2021-05-26T07:56:54Z</time>
      </trkpt>
      <trkpt lat="41.589578" lon="2.469477">
        <ele>361.812</ele>
        <time>2021-05-26T07:56:55Z</time>
      </trkpt>
      <trkpt lat="41.589595" lon="2.469494">
        <ele>361.832</ele>
        <time>2021-05-26T07:56:56Z</time>
      </trkpt>
      <trkpt lat="41.589609" lon="2.469510">
        <ele>361.805</ele>
        <time>2021-05-26T07:56:57Z</time>
      </trkpt>
      <trkpt lat="41.589629" lon="2.469529">
        <ele>361.808</ele>
        <time>2021-05-26T07:56:58Z</time>
      </trkpt>
      <trkpt lat="41.589644" lon="2.469549">
        <ele>361.998</ele>
        <time>2021-05-26T07:56:59Z</time>
      </trkpt>
      <trkpt lat="41.589664" lon="2.469593">
        <ele>362.175</ele>
        <time>2021-05-26T07:57:01Z</time>
      </trkpt>
      <trkpt lat="41.589675" lon="2.469615">
        <ele>362.232</ele>
        <time>2021-05-26T07:57:02Z</time>
      </trkpt>
      <trkpt lat="41.589685" lon="2.469638">
        <ele>362.465</ele>
        <time>2021-05-26T07:57:03Z</time>
      </trkpt>
      <trkpt lat="41.589694" lon="2.469668">
        <ele>362.670</ele>
        <time>2021-05-26T07:57:04Z</time>
      </trkpt>
      <trkpt lat="41.589721" lon="2.469794">
        <ele>363.576</ele>
        <time>2021-05-26T07:57:07Z</time>
      </trkpt>
      <trkpt lat="41.589740" lon="2.469861">
        <ele>363.923</ele>
        <time>2021-05-26T07:57:08Z</time>
      </trkpt>
      <trkpt lat="41.589751" lon="2.469893">
        <ele>364.050</ele>
        <time>2021-05-26T07:57:10Z</time>
      </trkpt>
      <trkpt lat="41.589765" lon="2.469915">
        <ele>364.129</ele>
        <time>2021-05-26T07:57:11Z</time>
      </trkpt>
      <trkpt lat="41.589776" lon="2.469936">
        <ele>364.300</ele>
        <time>2021-05-26T07:57:12Z</time>
      </trkpt>
      <trkpt lat="41.589786" lon="2.469959">
        <ele>364.420</ele>
        <time>2021-05-26T07:57:13Z</time>
      </trkpt>
      <trkpt lat="41.589793" lon="2.469981">
        <ele>364.608</ele>
        <time>2021-05-26T07:57:14Z</time>
      </trkpt>
      <trkpt lat="41.589794" lon="2.470021">
        <ele>364.919</ele>
        <time>2021-05-26T07:57:16Z</time>
      </trkpt>
      <trkpt lat="41.589797" lon="2.470045">
        <ele>365.056</ele>
        <time>2021-05-26T07:57:18Z</time>
      </trkpt>
      <trkpt lat="41.589800" lon="2.470070">
        <ele>365.213</ele>
        <time>2021-05-26T07:57:20Z</time>
      </trkpt>
      <trkpt lat="41.589799" lon="2.470095">
        <ele>365.326</ele>
        <time>2021-05-26T07:57:26Z</time>
      </trkpt>
      <trkpt lat="41.589818" lon="2.470118">
        <ele>365.521</ele>
        <time>2021-05-26T07:57:27Z</time>
      </trkpt>
      <trkpt lat="41.589833" lon="2.470133">
        <ele>365.777</ele>
        <time>2021-05-26T07:57:29Z</time>
      </trkpt>
      <trkpt lat="41.589847" lon="2.470151">
        <ele>365.874</ele>
        <time>2021-05-26T07:57:30Z</time>
      </trkpt>
      <trkpt lat="41.589862" lon="2.470170">
        <ele>366.061</ele>
        <time>2021-05-26T07:57:31Z</time>
      </trkpt>
      <trkpt lat="41.589881" lon="2.470184">
        <ele>366.231</ele>
        <time>2021-05-26T07:57:32Z</time>
      </trkpt>
      <trkpt lat="41.589899" lon="2.470197">
        <ele>366.461</ele>
        <time>2021-05-26T07:57:33Z</time>
      </trkpt>
      <trkpt lat="41.589913" lon="2.470211">
        <ele>366.607</ele>
        <time>2021-05-26T07:57:34Z</time>
      </trkpt>
      <trkpt lat="41.589928" lon="2.470228">
        <ele>366.908</ele>
        <time>2021-05-26T07:57:35Z</time>
      </trkpt>
      <trkpt lat="41.589943" lon="2.470245">
        <ele>367.260</ele>
        <time>2021-05-26T07:57:36Z</time>
      </trkpt>
      <trkpt lat="41.589959" lon="2.470263">
        <ele>367.517</ele>
        <time>2021-05-26T07:57:37Z</time>
      </trkpt>
      <trkpt lat="41.589974" lon="2.470280">
        <ele>367.854</ele>
        <time>2021-05-26T07:57:38Z</time>
      </trkpt>
      <trkpt lat="41.590004" lon="2.470309">
        <ele>368.177</ele>
        <time>2021-05-26T07:57:39Z</time>
      </trkpt>
      <trkpt lat="41.590023" lon="2.470321">
        <ele>367.912</ele>
        <time>2021-05-26T07:57:41Z</time>
      </trkpt>
      <trkpt lat="41.590040" lon="2.470329">
        <ele>367.898</ele>
        <time>2021-05-26T07:57:42Z</time>
      </trkpt>
      <trkpt lat="41.590075" lon="2.470354">
        <ele>367.515</ele>
        <time>2021-05-26T07:57:43Z</time>
      </trkpt>
      <trkpt lat="41.590106" lon="2.470373">
        <ele>367.392</ele>
        <time>2021-05-26T07:57:45Z</time>
      </trkpt>
      <trkpt lat="41.590125" lon="2.470386">
        <ele>367.247</ele>
        <time>2021-05-26T07:57:46Z</time>
      </trkpt>
      <trkpt lat="41.590145" lon="2.470398">
        <ele>367.129</ele>
        <time>2021-05-26T07:57:47Z</time>
      </trkpt>
      <trkpt lat="41.590170" lon="2.470404">
        <ele>366.921</ele>
        <time>2021-05-26T07:57:48Z</time>
      </trkpt>
      <trkpt lat="41.590191" lon="2.470412">
        <ele>366.808</ele>
        <time>2021-05-26T07:57:49Z</time>
      </trkpt>
      <trkpt lat="41.590210" lon="2.470419">
        <ele>366.671</ele>
        <time>2021-05-26T07:57:50Z</time>
      </trkpt>
      <trkpt lat="41.590229" lon="2.470421">
        <ele>366.548</ele>
        <time>2021-05-26T07:57:51Z</time>
      </trkpt>
      <trkpt lat="41.590248" lon="2.470425">
        <ele>366.375</ele>
        <time>2021-05-26T07:57:52Z</time>
      </trkpt>
      <trkpt lat="41.590275" lon="2.470434">
        <ele>366.198</ele>
        <time>2021-05-26T07:57:53Z</time>
      </trkpt>
      <trkpt lat="41.590300" lon="2.470438">
        <ele>365.983</ele>
        <time>2021-05-26T07:57:54Z</time>
      </trkpt>
      <trkpt lat="41.590323" lon="2.470445">
        <ele>365.679</ele>
        <time>2021-05-26T07:57:56Z</time>
      </trkpt>
      <trkpt lat="41.590349" lon="2.470464">
        <ele>365.526</ele>
        <time>2021-05-26T07:57:58Z</time>
      </trkpt>
      <trkpt lat="41.590367" lon="2.470475">
        <ele>365.473</ele>
        <time>2021-05-26T07:58:00Z</time>
      </trkpt>
      <trkpt lat="41.590382" lon="2.470495">
        <ele>365.559</ele>
        <time>2021-05-26T07:58:03Z</time>
      </trkpt>
      <trkpt lat="41.590413" lon="2.470532">
        <ele>365.703</ele>
        <time>2021-05-26T07:58:04Z</time>
      </trkpt>
      <trkpt lat="41.590430" lon="2.470552">
        <ele>365.923</ele>
        <time>2021-05-26T07:58:05Z</time>
      </trkpt>
      <trkpt lat="41.590452" lon="2.470571">
        <ele>366.008</ele>
        <time>2021-05-26T07:58:07Z</time>
      </trkpt>
      <trkpt lat="41.590474" lon="2.470587">
        <ele>366.112</ele>
        <time>2021-05-26T07:58:08Z</time>
      </trkpt>
      <trkpt lat="41.590499" lon="2.470602">
        <ele>366.239</ele>
        <time>2021-05-26T07:58:09Z</time>
      </trkpt>
      <trkpt lat="41.590549" lon="2.470633">
        <ele>366.476</ele>
        <time>2021-05-26T07:58:10Z</time>
      </trkpt>
      <trkpt lat="41.590571" lon="2.470648">
        <ele>366.479</ele>
        <time>2021-05-26T07:58:11Z</time>
      </trkpt>
      <trkpt lat="41.590592" lon="2.470665">
        <ele>366.414</ele>
        <time>2021-05-26T07:58:13Z</time>
      </trkpt>
      <trkpt lat="41.590611" lon="2.470686">
        <ele>366.680</ele>
        <time>2021-05-26T07:58:14Z</time>
      </trkpt>
      <trkpt lat="41.590627" lon="2.470712">
        <ele>366.817</ele>
        <time>2021-05-26T07:58:15Z</time>
      </trkpt>
      <trkpt lat="41.590641" lon="2.470736">
        <ele>367.054</ele>
        <time>2021-05-26T07:58:16Z</time>
      </trkpt>
      <trkpt lat="41.590662" lon="2.470785">
        <ele>367.616</ele>
        <time>2021-05-26T07:58:17Z</time>
      </trkpt>
      <trkpt lat="41.590673" lon="2.470810">
        <ele>367.976</ele>
        <time>2021-05-26T07:58:18Z</time>
      </trkpt>
      <trkpt lat="41.590682" lon="2.470836">
        <ele>368.213</ele>
        <time>2021-05-26T07:58:20Z</time>
      </trkpt>
      <trkpt lat="41.590689" lon="2.470860">
        <ele>368.308</ele>
        <time>2021-05-26T07:58:21Z</time>
      </trkpt>
      <trkpt lat="41.590722" lon="2.470926">
        <ele>368.568</ele>
        <time>2021-05-26T07:58:24Z</time>
      </trkpt>
      <trkpt lat="41.590736" lon="2.470953">
        <ele>368.715</ele>
        <time>2021-05-26T07:58:25Z</time>
      </trkpt>
      <trkpt lat="41.590745" lon="2.470982">
        <ele>368.972</ele>
        <time>2021-05-26T07:58:26Z</time>
      </trkpt>
      <trkpt lat="41.590755" lon="2.471010">
        <ele>369.155</ele>
        <time>2021-05-26T07:58:27Z</time>
      </trkpt>
      <trkpt lat="41.590765" lon="2.471041">
        <ele>369.470</ele>
        <time>2021-05-26T07:58:28Z</time>
      </trkpt>
      <trkpt lat="41.590795" lon="2.471092">
        <ele>369.976</ele>
        <time>2021-05-26T07:58:29Z</time>
      </trkpt>
      <trkpt lat="41.590859" lon="2.471215">
        <ele>369.523</ele>
        <time>2021-05-26T07:58:34Z</time>
      </trkpt>
      <trkpt lat="41.590873" lon="2.471237">
        <ele>369.430</ele>
        <time>2021-05-26T07:58:35Z</time>
      </trkpt>
      <trkpt lat="41.590892" lon="2.471256">
        <ele>369.374</ele>
        <time>2021-05-26T07:58:36Z</time>
      </trkpt>
      <trkpt lat="41.590921" lon="2.471299">
        <ele>369.256</ele>
        <time>2021-05-26T07:58:38Z</time>
      </trkpt>
      <trkpt lat="41.590935" lon="2.471324">
        <ele>369.321</ele>
        <time>2021-05-26T07:58:40Z</time>
      </trkpt>
      <trkpt lat="41.590949" lon="2.471347">
        <ele>369.308</ele>
        <time>2021-05-26T07:58:41Z</time>
      </trkpt>
      <trkpt lat="41.590965" lon="2.471362">
        <ele>369.414</ele>
        <time>2021-05-26T07:58:42Z</time>
      </trkpt>
      <trkpt lat="41.590982" lon="2.471380">
        <ele>369.561</ele>
        <time>2021-05-26T07:58:43Z</time>
      </trkpt>
      <trkpt lat="41.591003" lon="2.471395">
        <ele>369.678</ele>
        <time>2021-05-26T07:58:44Z</time>
      </trkpt>
      <trkpt lat="41.591023" lon="2.471421">
        <ele>369.991</ele>
        <time>2021-05-26T07:58:45Z</time>
      </trkpt>
      <trkpt lat="41.591062" lon="2.471493">
        <ele>370.556</ele>
        <time>2021-05-26T07:58:46Z</time>
      </trkpt>
      <trkpt lat="41.591082" lon="2.471517">
        <ele>370.882</ele>
        <time>2021-05-26T07:58:47Z</time>
      </trkpt>
      <trkpt lat="41.591105" lon="2.471533">
        <ele>371.049</ele>
        <time>2021-05-26T07:58:49Z</time>
      </trkpt>
      <trkpt lat="41.591127" lon="2.471558">
        <ele>371.196</ele>
        <time>2021-05-26T07:58:50Z</time>
      </trkpt>
      <trkpt lat="41.591144" lon="2.471578">
        <ele>371.247</ele>
        <time>2021-05-26T07:58:51Z</time>
      </trkpt>
      <trkpt lat="41.591159" lon="2.471598">
        <ele>371.329</ele>
        <time>2021-05-26T07:58:52Z</time>
      </trkpt>
      <trkpt lat="41.591174" lon="2.471624">
        <ele>371.421</ele>
        <time>2021-05-26T07:58:53Z</time>
      </trkpt>
      <trkpt lat="41.591191" lon="2.471644">
        <ele>371.508</ele>
        <time>2021-05-26T07:58:54Z</time>
      </trkpt>
      <trkpt lat="41.591206" lon="2.471662">
        <ele>371.681</ele>
        <time>2021-05-26T07:58:55Z</time>
      </trkpt>
      <trkpt lat="41.591245" lon="2.471705">
        <ele>371.538</ele>
        <time>2021-05-26T07:58:56Z</time>
      </trkpt>
      <trkpt lat="41.591263" lon="2.471725">
        <ele>371.365</ele>
        <time>2021-05-26T07:58:57Z</time>
      </trkpt>
      <trkpt lat="41.591279" lon="2.471745">
        <ele>371.228</ele>
        <time>2021-05-26T07:58:59Z</time>
      </trkpt>
      <trkpt lat="41.591296" lon="2.471760">
        <ele>371.193</ele>
        <time>2021-05-26T07:59:00Z</time>
      </trkpt>
      <trkpt lat="41.591313" lon="2.471772">
        <ele>371.099</ele>
        <time>2021-05-26T07:59:01Z</time>
      </trkpt>
      <trkpt lat="41.591330" lon="2.471781">
        <ele>370.926</ele>
        <time>2021-05-26T07:59:02Z</time>
      </trkpt>
      <trkpt lat="41.591367" lon="2.471792">
        <ele>370.743</ele>
        <time>2021-05-26T07:59:03Z</time>
      </trkpt>
      <trkpt lat="41.591390" lon="2.471796">
        <ele>370.592</ele>
        <time>2021-05-26T07:59:04Z</time>
      </trkpt>
      <trkpt lat="41.591413" lon="2.471796">
        <ele>370.373</ele>
        <time>2021-05-26T07:59:06Z</time>
      </trkpt>
      <trkpt lat="41.591475" lon="2.471793">
        <ele>369.820</ele>
        <time>2021-05-26T07:59:08Z</time>
      </trkpt>
      <trkpt lat="41.591507" lon="2.471798">
        <ele>369.508</ele>
        <time>2021-05-26T07:59:09Z</time>
      </trkpt>
      <trkpt lat="41.591582" lon="2.471835">
        <ele>368.756</ele>
        <time>2021-05-26T07:59:12Z</time>
      </trkpt>
      <trkpt lat="41.591606" lon="2.471856">
        <ele>368.533</ele>
        <time>2021-05-26T07:59:13Z</time>
      </trkpt>
      <trkpt lat="41.591630" lon="2.471871">
        <ele>368.360</ele>
        <time>2021-05-26T07:59:14Z</time>
      </trkpt>
      <trkpt lat="41.591683" lon="2.471904">
        <ele>367.993</ele>
        <time>2021-05-26T07:59:16Z</time>
      </trkpt>
      <trkpt lat="41.591735" lon="2.471926">
        <ele>367.558</ele>
        <time>2021-05-26T07:59:18Z</time>
      </trkpt>
      <trkpt lat="41.591756" lon="2.471947">
        <ele>367.494</ele>
        <time>2021-05-26T07:59:19Z</time>
      </trkpt>
      <trkpt lat="41.591789" lon="2.471982">
        <ele>367.221</ele>
        <time>2021-05-26T07:59:21Z</time>
      </trkpt>
      <trkpt lat="41.591829" lon="2.472025">
        <ele>367.028</ele>
        <time>2021-05-26T07:59:22Z</time>
      </trkpt>
      <trkpt lat="41.591848" lon="2.472045">
        <ele>366.912</ele>
        <time>2021-05-26T07:59:23Z</time>
      </trkpt>
      <trkpt lat="41.591865" lon="2.472077">
        <ele>366.932</ele>
        <time>2021-05-26T07:59:25Z</time>
      </trkpt>
      <trkpt lat="41.591885" lon="2.472101">
        <ele>366.905</ele>
        <time>2021-05-26T07:59:26Z</time>
      </trkpt>
      <trkpt lat="41.591908" lon="2.472115">
        <ele>366.808</ele>
        <time>2021-05-26T07:59:27Z</time>
      </trkpt>
      <trkpt lat="41.592008" lon="2.472164">
        <ele>366.678</ele>
        <time>2021-05-26T07:59:31Z</time>
      </trkpt>
      <trkpt lat="41.592111" lon="2.472164">
        <ele>366.245</ele>
        <time>2021-05-26T07:59:35Z</time>
      </trkpt>
      <trkpt lat="41.592213" lon="2.472167">
        <ele>365.842</ele>
        <time>2021-05-26T07:59:39Z</time>
      </trkpt>
      <trkpt lat="41.592272" lon="2.472164">
        <ele>365.835</ele>
        <time>2021-05-26T07:59:40Z</time>
      </trkpt>
      <trkpt lat="41.592300" lon="2.472173">
        <ele>365.880</ele>
        <time>2021-05-26T07:59:41Z</time>
      </trkpt>
      <trkpt lat="41.592405" lon="2.472177">
        <ele>365.766</ele>
        <time>2021-05-26T07:59:45Z</time>
      </trkpt>
      <trkpt lat="41.592525" lon="2.472194">
        <ele>365.943</ele>
        <time>2021-05-26T07:59:50Z</time>
      </trkpt>
      <trkpt lat="41.592550" lon="2.472204">
        <ele>366.060</ele>
        <time>2021-05-26T07:59:51Z</time>
      </trkpt>
      <trkpt lat="41.592603" lon="2.472216">
        <ele>366.368</ele>
        <time>2021-05-26T07:59:52Z</time>
      </trkpt>
      <trkpt lat="41.592630" lon="2.472220">
        <ele>366.442</ele>
        <time>2021-05-26T07:59:54Z</time>
      </trkpt>
      <trkpt lat="41.592652" lon="2.472226">
        <ele>366.626</ele>
        <time>2021-05-26T07:59:55Z</time>
      </trkpt>
      <trkpt lat="41.592674" lon="2.472231">
        <ele>366.708</ele>
        <time>2021-05-26T07:59:56Z</time>
      </trkpt>
      <trkpt lat="41.592695" lon="2.472240">
        <ele>366.963</ele>
        <time>2021-05-26T07:59:57Z</time>
      </trkpt>
      <trkpt lat="41.592749" lon="2.472252">
        <ele>367.310</ele>
        <time>2021-05-26T07:59:59Z</time>
      </trkpt>
      <trkpt lat="41.592776" lon="2.472265">
        <ele>367.667</ele>
        <time>2021-05-26T08:00:00Z</time>
      </trkpt>
      <trkpt lat="41.592825" lon="2.472285">
        <ele>367.640</ele>
        <time>2021-05-26T08:00:01Z</time>
      </trkpt>
      <trkpt lat="41.592855" lon="2.472294">
        <ele>367.515</ele>
        <time>2021-05-26T08:00:03Z</time>
      </trkpt>
      <trkpt lat="41.592883" lon="2.472297">
        <ele>367.491</ele>
        <time>2021-05-26T08:00:04Z</time>
      </trkpt>
      <trkpt lat="41.592909" lon="2.472302">
        <ele>367.388</ele>
        <time>2021-05-26T08:00:05Z</time>
      </trkpt>
      <trkpt lat="41.592931" lon="2.472307">
        <ele>367.355</ele>
        <time>2021-05-26T08:00:06Z</time>
      </trkpt>
      <trkpt lat="41.592954" lon="2.472315">
        <ele>367.366</ele>
        <time>2021-05-26T08:00:07Z</time>
      </trkpt>
      <trkpt lat="41.592983" lon="2.472324">
        <ele>367.329</ele>
        <time>2021-05-26T08:00:08Z</time>
      </trkpt>
      <trkpt lat="41.593007" lon="2.472333">
        <ele>367.321</ele>
        <time>2021-05-26T08:00:09Z</time>
      </trkpt>
      <trkpt lat="41.593035" lon="2.472346">
        <ele>367.308</ele>
        <time>2021-05-26T08:00:10Z</time>
      </trkpt>
      <trkpt lat="41.593096" lon="2.472358">
        <ele>366.963</ele>
        <time>2021-05-26T08:00:11Z</time>
      </trkpt>
      <trkpt lat="41.593149" lon="2.472374">
        <ele>366.570</ele>
        <time>2021-05-26T08:00:13Z</time>
      </trkpt>
      <trkpt lat="41.593178" lon="2.472384">
        <ele>366.387</ele>
        <time>2021-05-26T08:00:14Z</time>
      </trkpt>
      <trkpt lat="41.593204" lon="2.472401">
        <ele>366.310</ele>
        <time>2021-05-26T08:00:16Z</time>
      </trkpt>
      <trkpt lat="41.593229" lon="2.472417">
        <ele>366.245</ele>
        <time>2021-05-26T08:00:17Z</time>
      </trkpt>
      <trkpt lat="41.593255" lon="2.472434">
        <ele>366.111</ele>
        <time>2021-05-26T08:00:18Z</time>
      </trkpt>
      <trkpt lat="41.593274" lon="2.472454">
        <ele>366.278</ele>
        <time>2021-05-26T08:00:19Z</time>
      </trkpt>
      <trkpt lat="41.593297" lon="2.472474">
        <ele>366.145</ele>
        <time>2021-05-26T08:00:20Z</time>
      </trkpt>
      <trkpt lat="41.593320" lon="2.472494">
        <ele>366.112</ele>
        <time>2021-05-26T08:00:21Z</time>
      </trkpt>
      <trkpt lat="41.593345" lon="2.472514">
        <ele>366.132</ele>
        <time>2021-05-26T08:00:22Z</time>
      </trkpt>
      <trkpt lat="41.593368" lon="2.472535">
        <ele>366.105</ele>
        <time>2021-05-26T08:00:23Z</time>
      </trkpt>
      <trkpt lat="41.593388" lon="2.472554">
        <ele>366.108</ele>
        <time>2021-05-26T08:00:24Z</time>
      </trkpt>
      <trkpt lat="41.593404" lon="2.472574">
        <ele>366.368</ele>
        <time>2021-05-26T08:00:25Z</time>
      </trkpt>
      <trkpt lat="41.593422" lon="2.472591">
        <ele>366.325</ele>
        <time>2021-05-26T08:00:26Z</time>
      </trkpt>
      <trkpt lat="41.593441" lon="2.472610">
        <ele>366.382</ele>
        <time>2021-05-26T08:00:27Z</time>
      </trkpt>
      <trkpt lat="41.593482" lon="2.472653">
        <ele>366.415</ele>
        <time>2021-05-26T08:00:28Z</time>
      </trkpt>
      <trkpt lat="41.593498" lon="2.472683">
        <ele>366.710</ele>
        <time>2021-05-26T08:00:29Z</time>
      </trkpt>
      <trkpt lat="41.593532" lon="2.472743">
        <ele>367.216</ele>
        <time>2021-05-26T08:00:31Z</time>
      </trkpt>
      <trkpt lat="41.593547" lon="2.472764">
        <ele>367.343</ele>
        <time>2021-05-26T08:00:32Z</time>
      </trkpt>
      <trkpt lat="41.593583" lon="2.472801">
        <ele>367.410</ele>
        <time>2021-05-26T08:00:34Z</time>
      </trkpt>
      <trkpt lat="41.593597" lon="2.472817">
        <ele>367.534</ele>
        <time>2021-05-26T08:00:35Z</time>
      </trkpt>
      <trkpt lat="41.593618" lon="2.472836">
        <ele>367.555</ele>
        <time>2021-05-26T08:00:36Z</time>
      </trkpt>
      <trkpt lat="41.593638" lon="2.472853">
        <ele>367.610</ele>
        <time>2021-05-26T08:00:37Z</time>
      </trkpt>
      <trkpt lat="41.593653" lon="2.472868">
        <ele>367.608</ele>
        <time>2021-05-26T08:00:38Z</time>
      </trkpt>
      <trkpt lat="41.593678" lon="2.472900">
        <ele>368.050</ele>
        <time>2021-05-26T08:00:40Z</time>
      </trkpt>
      <trkpt lat="41.593764" lon="2.472953">
        <ele>367.477</ele>
        <time>2021-05-26T08:00:45Z</time>
      </trkpt>
      <trkpt lat="41.593871" lon="2.472971">
        <ele>365.314</ele>
        <time>2021-05-26T08:00:49Z</time>
      </trkpt>
      <trkpt lat="41.593974" lon="2.473006">
        <ele>364.017</ele>
        <time>2021-05-26T08:00:53Z</time>
      </trkpt>
      <trkpt lat="41.594004" lon="2.473024">
        <ele>363.852</ele>
        <time>2021-05-26T08:00:54Z</time>
      </trkpt>
      <trkpt lat="41.594030" lon="2.473046">
        <ele>363.748</ele>
        <time>2021-05-26T08:00:55Z</time>
      </trkpt>
      <trkpt lat="41.594056" lon="2.473068">
        <ele>363.885</ele>
        <time>2021-05-26T08:00:56Z</time>
      </trkpt>
      <trkpt lat="41.594076" lon="2.473089">
        <ele>364.092</ele>
        <time>2021-05-26T08:00:57Z</time>
      </trkpt>
      <trkpt lat="41.594096" lon="2.473110">
        <ele>364.211</ele>
        <time>2021-05-26T08:00:58Z</time>
      </trkpt>
      <trkpt lat="41.594121" lon="2.473135">
        <ele>364.421</ele>
        <time>2021-05-26T08:00:59Z</time>
      </trkpt>
      <trkpt lat="41.594163" lon="2.473193">
        <ele>365.103</ele>
        <time>2021-05-26T08:01:01Z</time>
      </trkpt>
      <trkpt lat="41.594203" lon="2.473246">
        <ele>365.408</ele>
        <time>2021-05-26T08:01:03Z</time>
      </trkpt>
      <trkpt lat="41.594270" lon="2.473335">
        <ele>365.718</ele>
        <time>2021-05-26T08:01:06Z</time>
      </trkpt>
      <trkpt lat="41.594359" lon="2.473425">
        <ele>365.435</ele>
        <time>2021-05-26T08:01:11Z</time>
      </trkpt>
      <trkpt lat="41.594434" lon="2.473511">
        <ele>365.552</ele>
        <time>2021-05-26T08:01:15Z</time>
      </trkpt>
      <trkpt lat="41.594507" lon="2.473591">
        <ele>365.455</ele>
        <time>2021-05-26T08:01:20Z</time>
      </trkpt>
      <trkpt lat="41.594604" lon="2.473648">
        <ele>364.270</ele>
        <time>2021-05-26T08:01:26Z</time>
      </trkpt>
      <trkpt lat="41.594693" lon="2.473691">
        <ele>363.166</ele>
        <time>2021-05-26T08:01:31Z</time>
      </trkpt>
      <trkpt lat="41.594782" lon="2.473755">
        <ele>363.923</ele>
        <time>2021-05-26T08:01:35Z</time>
      </trkpt>
      <trkpt lat="41.594851" lon="2.473838">
        <ele>366.290</ele>
        <time>2021-05-26T08:01:39Z</time>
      </trkpt>
      <trkpt lat="41.594932" lon="2.473913">
        <ele>367.962</ele>
        <time>2021-05-26T08:01:43Z</time>
      </trkpt>
      <trkpt lat="41.595005" lon="2.473988">
        <ele>369.983</ele>
        <time>2021-05-26T08:01:46Z</time>
      </trkpt>
      <trkpt lat="41.595081" lon="2.474077">
        <ele>372.511</ele>
        <time>2021-05-26T08:01:50Z</time>
      </trkpt>
      <trkpt lat="41.595207" lon="2.474057">
        <ele>370.308</ele>
        <time>2021-05-26T08:01:55Z</time>
      </trkpt>
      <trkpt lat="41.595290" lon="2.474008">
        <ele>367.743</ele>
        <time>2021-05-26T08:01:57Z</time>
      </trkpt>
      <trkpt lat="41.595374" lon="2.473944">
        <ele>364.760</ele>
        <time>2021-05-26T08:02:00Z</time>
      </trkpt>
      <trkpt lat="41.595462" lon="2.473913">
        <ele>362.797</ele>
        <time>2021-05-26T08:02:03Z</time>
      </trkpt>
      <trkpt lat="41.595525" lon="2.473933">
        <ele>362.660</ele>
        <time>2021-05-26T08:02:06Z</time>
      </trkpt>
      <trkpt lat="41.595601" lon="2.473983">
        <ele>362.855</ele>
        <time>2021-05-26T08:02:11Z</time>
      </trkpt>
      <trkpt lat="41.595653" lon="2.474044">
        <ele>363.361</ele>
        <time>2021-05-26T08:02:14Z</time>
      </trkpt>
      <trkpt lat="41.595724" lon="2.474154">
        <ele>364.438</ele>
        <time>2021-05-26T08:02:19Z</time>
      </trkpt>
      <trkpt lat="41.595775" lon="2.474262">
        <ele>366.065</ele>
        <time>2021-05-26T08:02:23Z</time>
      </trkpt>
      <trkpt lat="41.595841" lon="2.474358">
        <ele>366.793</ele>
        <time>2021-05-26T08:02:27Z</time>
      </trkpt>
      <trkpt lat="41.595893" lon="2.474466">
        <ele>368.365</ele>
        <time>2021-05-26T08:02:31Z</time>
      </trkpt>
      <trkpt lat="41.595981" lon="2.474523">
        <ele>368.221</ele>
        <time>2021-05-26T08:02:38Z</time>
      </trkpt>
      <trkpt lat="41.596068" lon="2.474571">
        <ele>368.008</ele>
        <time>2021-05-26T08:02:43Z</time>
      </trkpt>
      <trkpt lat="41.596150" lon="2.474631">
        <ele>368.766</ele>
        <time>2021-05-26T08:02:46Z</time>
      </trkpt>
      <trkpt lat="41.596231" lon="2.474702">
        <ele>370.193</ele>
        <time>2021-05-26T08:02:49Z</time>
      </trkpt>
      <trkpt lat="41.596323" lon="2.474780">
        <ele>371.720</ele>
        <time>2021-05-26T08:02:52Z</time>
      </trkpt>
      <trkpt lat="41.596430" lon="2.474853">
        <ele>373.473</ele>
        <time>2021-05-26T08:02:56Z</time>
      </trkpt>
      <trkpt lat="41.596525" lon="2.474921">
        <ele>374.658</ele>
        <time>2021-05-26T08:03:02Z</time>
      </trkpt>
      <trkpt lat="41.596625" lon="2.474954">
        <ele>374.424</ele>
        <time>2021-05-26T08:03:06Z</time>
      </trkpt>
      <trkpt lat="41.596717" lon="2.474909">
        <ele>373.271</ele>
        <time>2021-05-26T08:03:10Z</time>
      </trkpt>
      <trkpt lat="41.596742" lon="2.474890">
        <ele>373.058</ele>
        <time>2021-05-26T08:03:11Z</time>
      </trkpt>
      <trkpt lat="41.596767" lon="2.474877">
        <ele>373.075</ele>
        <time>2021-05-26T08:03:12Z</time>
      </trkpt>
      <trkpt lat="41.596785" lon="2.474864">
        <ele>372.928</ele>
        <time>2021-05-26T08:03:13Z</time>
      </trkpt>
      <trkpt lat="41.596800" lon="2.474850">
        <ele>372.720</ele>
        <time>2021-05-26T08:03:14Z</time>
      </trkpt>
      <trkpt lat="41.596838" lon="2.474824">
        <ele>372.408</ele>
        <time>2021-05-26T08:03:16Z</time>
      </trkpt>
      <trkpt lat="41.596866" lon="2.474809">
        <ele>372.314</ele>
        <time>2021-05-26T08:03:18Z</time>
      </trkpt>
      <trkpt lat="41.596886" lon="2.474788">
        <ele>372.071</ele>
        <time>2021-05-26T08:03:20Z</time>
      </trkpt>
      <trkpt lat="41.596913" lon="2.474770">
        <ele>371.938</ele>
        <time>2021-05-26T08:03:21Z</time>
      </trkpt>
      <trkpt lat="41.596933" lon="2.474754">
        <ele>371.771</ele>
        <time>2021-05-26T08:03:24Z</time>
      </trkpt>
      <trkpt lat="41.596948" lon="2.474731">
        <ele>371.376</ele>
        <time>2021-05-26T08:03:26Z</time>
      </trkpt>
      <trkpt lat="41.596968" lon="2.474715">
        <ele>371.332</ele>
        <time>2021-05-26T08:03:28Z</time>
      </trkpt>
      <trkpt lat="41.596986" lon="2.474704">
        <ele>371.559</ele>
        <time>2021-05-26T08:03:30Z</time>
      </trkpt>
      <trkpt lat="41.597006" lon="2.474692">
        <ele>371.686</ele>
        <time>2021-05-26T08:03:32Z</time>
      </trkpt>
      <trkpt lat="41.597031" lon="2.474689">
        <ele>372.086</ele>
        <time>2021-05-26T08:03:34Z</time>
      </trkpt>
      <trkpt lat="41.597055" lon="2.474683">
        <ele>372.460</ele>
        <time>2021-05-26T08:03:36Z</time>
      </trkpt>
      <trkpt lat="41.597081" lon="2.474688">
        <ele>372.926</ele>
        <time>2021-05-26T08:03:38Z</time>
      </trkpt>
      <trkpt lat="41.597106" lon="2.474694">
        <ele>373.408</ele>
        <time>2021-05-26T08:03:40Z</time>
      </trkpt>
      <trkpt lat="41.597128" lon="2.474704">
        <ele>374.015</ele>
        <time>2021-05-26T08:03:41Z</time>
      </trkpt>
      <trkpt lat="41.597148" lon="2.474707">
        <ele>374.422</ele>
        <time>2021-05-26T08:03:44Z</time>
      </trkpt>
      <trkpt lat="41.597172" lon="2.474715">
        <ele>375.079</ele>
        <time>2021-05-26T08:03:46Z</time>
      </trkpt>
      <trkpt lat="41.597198" lon="2.474721">
        <ele>375.592</ele>
        <time>2021-05-26T08:03:48Z</time>
      </trkpt>
      <trkpt lat="41.597227" lon="2.474727">
        <ele>376.337</ele>
        <time>2021-05-26T08:03:50Z</time>
      </trkpt>
      <trkpt lat="41.597255" lon="2.474737">
        <ele>377.383</ele>
        <time>2021-05-26T08:03:52Z</time>
      </trkpt>
      <trkpt lat="41.597282" lon="2.474755">
        <ele>378.630</ele>
        <time>2021-05-26T08:03:54Z</time>
      </trkpt>
      <trkpt lat="41.597300" lon="2.474768">
        <ele>379.457</ele>
        <time>2021-05-26T08:03:56Z</time>
      </trkpt>
      <trkpt lat="41.597321" lon="2.474782">
        <ele>380.493</ele>
        <time>2021-05-26T08:03:59Z</time>
      </trkpt>
      <trkpt lat="41.597414" lon="2.474826">
        <ele>384.265</ele>
        <time>2021-05-26T08:04:08Z</time>
      </trkpt>
      <trkpt lat="41.597526" lon="2.474829">
        <ele>387.121</ele>
        <time>2021-05-26T08:04:17Z</time>
      </trkpt>
      <trkpt lat="41.597618" lon="2.474887">
        <ele>391.108</ele>
        <time>2021-05-26T08:04:29Z</time>
      </trkpt>
      <trkpt lat="41.597709" lon="2.474888">
        <ele>393.296</ele>
        <time>2021-05-26T08:04:34Z</time>
      </trkpt>
      <trkpt lat="41.597803" lon="2.474888">
        <ele>395.133</ele>
        <time>2021-05-26T08:04:39Z</time>
      </trkpt>
      <trkpt lat="41.597897" lon="2.474885">
        <ele>396.250</ele>
        <time>2021-05-26T08:04:45Z</time>
      </trkpt>
      <trkpt lat="41.597990" lon="2.474880">
        <ele>397.333</ele>
        <time>2021-05-26T08:04:53Z</time>
      </trkpt>
      <trkpt lat="41.598090" lon="2.474853">
        <ele>397.488</ele>
        <time>2021-05-26T08:05:00Z</time>
      </trkpt>
      <trkpt lat="41.598127" lon="2.474838">
        <ele>397.234</ele>
        <time>2021-05-26T08:05:02Z</time>
      </trkpt>
      <trkpt lat="41.598147" lon="2.474840">
        <ele>397.361</ele>
        <time>2021-05-26T08:05:04Z</time>
      </trkpt>
      <trkpt lat="41.598168" lon="2.474839">
        <ele>397.488</ele>
        <time>2021-05-26T08:05:05Z</time>
      </trkpt>
      <trkpt lat="41.598198" lon="2.474838">
        <ele>397.636</ele>
        <time>2021-05-26T08:05:07Z</time>
      </trkpt>
      <trkpt lat="41.598226" lon="2.474837">
        <ele>397.717</ele>
        <time>2021-05-26T08:05:10Z</time>
      </trkpt>
      <trkpt lat="41.598253" lon="2.474848">
        <ele>398.218</ele>
        <time>2021-05-26T08:05:12Z</time>
      </trkpt>
      <trkpt lat="41.598315" lon="2.474872">
        <ele>399.208</ele>
        <time>2021-05-26T08:05:18Z</time>
      </trkpt>
      <trkpt lat="41.598345" lon="2.474884">
        <ele>399.480</ele>
        <time>2021-05-26T08:05:20Z</time>
      </trkpt>
      <trkpt lat="41.598370" lon="2.474913">
        <ele>399.727</ele>
        <time>2021-05-26T08:05:22Z</time>
      </trkpt>
      <trkpt lat="41.598391" lon="2.474948">
        <ele>400.394</ele>
        <time>2021-05-26T08:05:24Z</time>
      </trkpt>
      <trkpt lat="41.598417" lon="2.474975">
        <ele>400.597</ele>
        <time>2021-05-26T08:05:26Z</time>
      </trkpt>
      <trkpt lat="41.598428" lon="2.475008">
        <ele>401.212</ele>
        <time>2021-05-26T08:05:28Z</time>
      </trkpt>
      <trkpt lat="41.598443" lon="2.475037">
        <ele>401.638</ele>
        <time>2021-05-26T08:05:30Z</time>
      </trkpt>
      <trkpt lat="41.598458" lon="2.475071">
        <ele>402.265</ele>
        <time>2021-05-26T08:05:32Z</time>
      </trkpt>
      <trkpt lat="41.598470" lon="2.475110">
        <ele>403.072</ele>
        <time>2021-05-26T08:05:34Z</time>
      </trkpt>
      <trkpt lat="41.598528" lon="2.475216">
        <ele>404.561</ele>
        <time>2021-05-26T08:05:41Z</time>
      </trkpt>
      <trkpt lat="41.598584" lon="2.475326">
        <ele>406.221</ele>
        <time>2021-05-26T08:05:49Z</time>
      </trkpt>
      <trkpt lat="41.598656" lon="2.475414">
        <ele>406.813</ele>
        <time>2021-05-26T08:05:56Z</time>
      </trkpt>
      <trkpt lat="41.598713" lon="2.475519">
        <ele>408.108</ele>
        <time>2021-05-26T08:06:03Z</time>
      </trkpt>
      <trkpt lat="41.598788" lon="2.475596">
        <ele>408.013</ele>
        <time>2021-05-26T08:06:08Z</time>
      </trkpt>
      <trkpt lat="41.598834" lon="2.475600">
        <ele>406.580</ele>
        <time>2021-05-26T08:06:10Z</time>
      </trkpt>
      <trkpt lat="41.598943" lon="2.475628">
        <ele>404.037</ele>
        <time>2021-05-26T08:06:15Z</time>
      </trkpt>
      <trkpt lat="41.599025" lon="2.475685">
        <ele>403.590</ele>
        <time>2021-05-26T08:06:18Z</time>
      </trkpt>
      <trkpt lat="41.599120" lon="2.475728">
        <ele>402.015</ele>
        <time>2021-05-26T08:06:20Z</time>
      </trkpt>
      <trkpt lat="41.599218" lon="2.475787">
        <ele>401.011</ele>
        <time>2021-05-26T08:06:24Z</time>
      </trkpt>
      <trkpt lat="41.599308" lon="2.475849">
        <ele>400.518</ele>
        <time>2021-05-26T08:06:26Z</time>
      </trkpt>
      <trkpt lat="41.599339" lon="2.475868">
        <ele>400.345</ele>
        <time>2021-05-26T08:06:28Z</time>
      </trkpt>
      <trkpt lat="41.599362" lon="2.475887">
        <ele>400.252</ele>
        <time>2021-05-26T08:06:29Z</time>
      </trkpt>
      <trkpt lat="41.599415" lon="2.475925">
        <ele>399.953</ele>
        <time>2021-05-26T08:06:30Z</time>
      </trkpt>
      <trkpt lat="41.599437" lon="2.475946">
        <ele>399.908</ele>
        <time>2021-05-26T08:06:31Z</time>
      </trkpt>
      <trkpt lat="41.599462" lon="2.475965">
        <ele>399.508</ele>
        <time>2021-05-26T08:06:32Z</time>
      </trkpt>
      <trkpt lat="41.599481" lon="2.475990">
        <ele>399.482</ele>
        <time>2021-05-26T08:06:33Z</time>
      </trkpt>
      <trkpt lat="41.599501" lon="2.476013">
        <ele>399.219</ele>
        <time>2021-05-26T08:06:34Z</time>
      </trkpt>
      <trkpt lat="41.599526" lon="2.476037">
        <ele>398.916</ele>
        <time>2021-05-26T08:06:36Z</time>
      </trkpt>
      <trkpt lat="41.599554" lon="2.476058">
        <ele>398.289</ele>
        <time>2021-05-26T08:06:37Z</time>
      </trkpt>
      <trkpt lat="41.599626" lon="2.476126">
        <ele>397.164</ele>
        <time>2021-05-26T08:06:39Z</time>
      </trkpt>
      <trkpt lat="41.599652" lon="2.476143">
        <ele>396.530</ele>
        <time>2021-05-26T08:06:40Z</time>
      </trkpt>
      <trkpt lat="41.599673" lon="2.476164">
        <ele>396.427</ele>
        <time>2021-05-26T08:06:41Z</time>
      </trkpt>
      <trkpt lat="41.599695" lon="2.476189">
        <ele>396.314</ele>
        <time>2021-05-26T08:06:42Z</time>
      </trkpt>
      <trkpt lat="41.599716" lon="2.476212">
        <ele>396.377</ele>
        <time>2021-05-26T08:06:43Z</time>
      </trkpt>
      <trkpt lat="41.599807" lon="2.476308">
        <ele>396.761</ele>
        <time>2021-05-26T08:06:48Z</time>
      </trkpt>
      <trkpt lat="41.599890" lon="2.476403">
        <ele>396.927</ele>
        <time>2021-05-26T08:06:51Z</time>
      </trkpt>
      <trkpt lat="41.599980" lon="2.476495">
        <ele>396.308</ele>
        <time>2021-05-26T08:06:56Z</time>
      </trkpt>
      <trkpt lat="41.600069" lon="2.476587">
        <ele>396.014</ele>
        <time>2021-05-26T08:07:00Z</time>
      </trkpt>
      <trkpt lat="41.600164" lon="2.476689">
        <ele>395.881</ele>
        <time>2021-05-26T08:07:03Z</time>
      </trkpt>
      <trkpt lat="41.600232" lon="2.476780">
        <ele>395.788</ele>
        <time>2021-05-26T08:07:07Z</time>
      </trkpt>
      <trkpt lat="41.600295" lon="2.476867">
        <ele>395.321</ele>
        <time>2021-05-26T08:07:10Z</time>
      </trkpt>
      <trkpt lat="41.600371" lon="2.476964">
        <ele>394.536</ele>
        <time>2021-05-26T08:07:13Z</time>
      </trkpt>
      <trkpt lat="41.600439" lon="2.477058">
        <ele>393.882</ele>
        <time>2021-05-26T08:07:18Z</time>
      </trkpt>
      <trkpt lat="41.600523" lon="2.477158">
        <ele>392.289</ele>
        <time>2021-05-26T08:07:21Z</time>
      </trkpt>
      <trkpt lat="41.600616" lon="2.477235">
        <ele>389.686</ele>
        <time>2021-05-26T08:07:26Z</time>
      </trkpt>
      <trkpt lat="41.600689" lon="2.477335">
        <ele>388.573</ele>
        <time>2021-05-26T08:07:29Z</time>
      </trkpt>
      <trkpt lat="41.600738" lon="2.477466">
        <ele>389.185</ele>
        <time>2021-05-26T08:07:34Z</time>
      </trkpt>
      <trkpt lat="41.600769" lon="2.477590">
        <ele>390.613</ele>
        <time>2021-05-26T08:07:38Z</time>
      </trkpt>
      <trkpt lat="41.600799" lon="2.477726">
        <ele>392.308</ele>
        <time>2021-05-26T08:07:41Z</time>
      </trkpt>
      <trkpt lat="41.600837" lon="2.477848">
        <ele>393.184</ele>
        <time>2021-05-26T08:07:46Z</time>
      </trkpt>
      <trkpt lat="41.600901" lon="2.477967">
        <ele>392.921</ele>
        <time>2021-05-26T08:07:50Z</time>
      </trkpt>
      <trkpt lat="41.600921" lon="2.478094">
        <ele>394.578</ele>
        <time>2021-05-26T08:07:52Z</time>
      </trkpt>
      <trkpt lat="41.600980" lon="2.478215">
        <ele>394.311</ele>
        <time>2021-05-26T08:07:57Z</time>
      </trkpt>
      <trkpt lat="41.601030" lon="2.478318">
        <ele>394.036</ele>
        <time>2021-05-26T08:07:59Z</time>
      </trkpt>
      <trkpt lat="41.601094" lon="2.478424">
        <ele>393.782</ele>
        <time>2021-05-26T08:08:04Z</time>
      </trkpt>
      <trkpt lat="41.601148" lon="2.478532">
        <ele>394.089</ele>
        <time>2021-05-26T08:08:08Z</time>
      </trkpt>
      <trkpt lat="41.601227" lon="2.478640">
        <ele>393.716</ele>
        <time>2021-05-26T08:08:11Z</time>
      </trkpt>
      <trkpt lat="41.601285" lon="2.478737">
        <ele>394.445</ele>
        <time>2021-05-26T08:08:17Z</time>
      </trkpt>
      <trkpt lat="41.601362" lon="2.478830">
        <ele>394.347</ele>
        <time>2021-05-26T08:08:21Z</time>
      </trkpt>
      <trkpt lat="41.601436" lon="2.478937">
        <ele>394.911</ele>
        <time>2021-05-26T08:08:25Z</time>
      </trkpt>
      <trkpt lat="41.601514" lon="2.479024">
        <ele>394.808</ele>
        <time>2021-05-26T08:08:29Z</time>
      </trkpt>
      <trkpt lat="41.601607" lon="2.479080">
        <ele>393.431</ele>
        <time>2021-05-26T08:08:34Z</time>
      </trkpt>
      <trkpt lat="41.601683" lon="2.479185">
        <ele>394.178</ele>
        <time>2021-05-26T08:08:40Z</time>
      </trkpt>
      <trkpt lat="41.601736" lon="2.479317">
        <ele>396.545</ele>
        <time>2021-05-26T08:08:45Z</time>
      </trkpt>
      <trkpt lat="41.601764" lon="2.479454">
        <ele>399.868</ele>
        <time>2021-05-26T08:08:50Z</time>
      </trkpt>
      <trkpt lat="41.601807" lon="2.479568">
        <ele>401.873</ele>
        <time>2021-05-26T08:08:54Z</time>
      </trkpt>
      <trkpt lat="41.601873" lon="2.479657">
        <ele>402.079</ele>
        <time>2021-05-26T08:08:58Z</time>
      </trkpt>
      <trkpt lat="41.601937" lon="2.479744">
        <ele>401.786</ele>
        <time>2021-05-26T08:09:02Z</time>
      </trkpt>
      <trkpt lat="41.602021" lon="2.479844">
        <ele>400.813</ele>
        <time>2021-05-26T08:09:05Z</time>
      </trkpt>
      <trkpt lat="41.602088" lon="2.479930">
        <ele>400.518</ele>
        <time>2021-05-26T08:09:09Z</time>
      </trkpt>
      <trkpt lat="41.602184" lon="2.480008">
        <ele>399.298</ele>
        <time>2021-05-26T08:09:12Z</time>
      </trkpt>
      <trkpt lat="41.602264" lon="2.480122">
        <ele>398.517</ele>
        <time>2021-05-26T08:09:17Z</time>
      </trkpt>
      <trkpt lat="41.602351" lon="2.480238">
        <ele>398.608</ele>
        <time>2021-05-26T08:09:21Z</time>
      </trkpt>
      <trkpt lat="41.602437" lon="2.480305">
        <ele>398.438</ele>
        <time>2021-05-26T08:09:23Z</time>
      </trkpt>
      <trkpt lat="41.602532" lon="2.480348">
        <ele>397.555</ele>
        <time>2021-05-26T08:09:28Z</time>
      </trkpt>
      <trkpt lat="41.602647" lon="2.480384">
        <ele>395.632</ele>
        <time>2021-05-26T08:09:33Z</time>
      </trkpt>
      <trkpt lat="41.602758" lon="2.480428">
        <ele>394.275</ele>
        <time>2021-05-26T08:09:37Z</time>
      </trkpt>
      <trkpt lat="41.602844" lon="2.480496">
        <ele>393.570</ele>
        <time>2021-05-26T08:09:40Z</time>
      </trkpt>
      <trkpt lat="41.602938" lon="2.480602">
        <ele>392.976</ele>
        <time>2021-05-26T08:09:44Z</time>
      </trkpt>
      <trkpt lat="41.603020" lon="2.480675">
        <ele>391.833</ele>
        <time>2021-05-26T08:09:48Z</time>
      </trkpt>
      <trkpt lat="41.603104" lon="2.480757">
        <ele>391.150</ele>
        <time>2021-05-26T08:09:52Z</time>
      </trkpt>
      <trkpt lat="41.603191" lon="2.480839">
        <ele>390.728</ele>
        <time>2021-05-26T08:09:55Z</time>
      </trkpt>
      <trkpt lat="41.603207" lon="2.480863">
        <ele>391.089</ele>
        <time>2021-05-26T08:09:57Z</time>
      </trkpt>
      <trkpt lat="41.603224" lon="2.480886">
        <ele>391.117</ele>
        <time>2021-05-26T08:09:58Z</time>
      </trkpt>
      <trkpt lat="41.603238" lon="2.480912">
        <ele>391.408</ele>
        <time>2021-05-26T08:09:59Z</time>
      </trkpt>
      <trkpt lat="41.603253" lon="2.480939">
        <ele>391.669</ele>
        <time>2021-05-26T08:10:00Z</time>
      </trkpt>
      <trkpt lat="41.603265" lon="2.480968">
        <ele>392.016</ele>
        <time>2021-05-26T08:10:01Z</time>
      </trkpt>
      <trkpt lat="41.603276" lon="2.480997">
        <ele>392.323</ele>
        <time>2021-05-26T08:10:02Z</time>
      </trkpt>
      <trkpt lat="41.603280" lon="2.481028">
        <ele>393.016</ele>
        <time>2021-05-26T08:10:03Z</time>
      </trkpt>
      <trkpt lat="41.603297" lon="2.481084">
        <ele>393.751</ele>
        <time>2021-05-26T08:10:04Z</time>
      </trkpt>
      <trkpt lat="41.603307" lon="2.481116">
        <ele>394.027</ele>
        <time>2021-05-26T08:10:05Z</time>
      </trkpt>
      <trkpt lat="41.603319" lon="2.481150">
        <ele>394.174</ele>
        <time>2021-05-26T08:10:07Z</time>
      </trkpt>
      <trkpt lat="41.603328" lon="2.481186">
        <ele>394.341</ele>
        <time>2021-05-26T08:10:08Z</time>
      </trkpt>
      <trkpt lat="41.603348" lon="2.481252">
        <ele>394.322</ele>
        <time>2021-05-26T08:10:09Z</time>
      </trkpt>
      <trkpt lat="41.603356" lon="2.481321">
        <ele>394.962</ele>
        <time>2021-05-26T08:10:12Z</time>
      </trkpt>
      <trkpt lat="41.603363" lon="2.481355">
        <ele>395.008</ele>
        <time>2021-05-26T08:10:13Z</time>
      </trkpt>
      <trkpt lat="41.603390" lon="2.481500">
        <ele>396.008</ele>
        <time>2021-05-26T08:10:17Z</time>
      </trkpt>
      <trkpt lat="41.603416" lon="2.481627">
        <ele>396.619</ele>
        <time>2021-05-26T08:10:20Z</time>
      </trkpt>
      <trkpt lat="41.603428" lon="2.481764">
        <ele>398.836</ele>
        <time>2021-05-26T08:10:25Z</time>
      </trkpt>
      <trkpt lat="41.603424" lon="2.481885">
        <ele>401.863</ele>
        <time>2021-05-26T08:10:29Z</time>
      </trkpt>
      <trkpt lat="41.603453" lon="2.482014">
        <ele>403.466</ele>
        <time>2021-05-26T08:10:33Z</time>
      </trkpt>
      <trkpt lat="41.603494" lon="2.482133">
        <ele>404.531</ele>
        <time>2021-05-26T08:10:38Z</time>
      </trkpt>
      <trkpt lat="41.603558" lon="2.482234">
        <ele>403.987</ele>
        <time>2021-05-26T08:10:44Z</time>
      </trkpt>
      <trkpt lat="41.603619" lon="2.482353">
        <ele>403.594</ele>
        <time>2021-05-26T08:10:49Z</time>
      </trkpt>
      <trkpt lat="41.603679" lon="2.482446">
        <ele>403.591</ele>
        <time>2021-05-26T08:10:53Z</time>
      </trkpt>
      <trkpt lat="41.603740" lon="2.482552">
        <ele>404.265</ele>
        <time>2021-05-26T08:10:58Z</time>
      </trkpt>
      <trkpt lat="41.603828" lon="2.482650">
        <ele>403.968</ele>
        <time>2021-05-26T08:11:02Z</time>
      </trkpt>
      <trkpt lat="41.603912" lon="2.482737">
        <ele>403.514</ele>
        <time>2021-05-26T08:11:08Z</time>
      </trkpt>
      <trkpt lat="41.603984" lon="2.482827">
        <ele>404.208</ele>
        <time>2021-05-26T08:11:12Z</time>
      </trkpt>
      <trkpt lat="41.604057" lon="2.482945">
        <ele>405.653</ele>
        <time>2021-05-26T08:11:18Z</time>
      </trkpt>
      <trkpt lat="41.604119" lon="2.483065">
        <ele>407.210</ele>
        <time>2021-05-26T08:11:22Z</time>
      </trkpt>
      <trkpt lat="41.604166" lon="2.483172">
        <ele>408.197</ele>
        <time>2021-05-26T08:11:26Z</time>
      </trkpt>
      <trkpt lat="41.604217" lon="2.483313">
        <ele>409.090</ele>
        <time>2021-05-26T08:11:30Z</time>
      </trkpt>
      <trkpt lat="41.604226" lon="2.483445">
        <ele>410.235</ele>
        <time>2021-05-26T08:11:36Z</time>
      </trkpt>
      <trkpt lat="41.604222" lon="2.483570">
        <ele>411.671</ele>
        <time>2021-05-26T08:11:41Z</time>
      </trkpt>
      <trkpt lat="41.604267" lon="2.483679">
        <ele>410.888</ele>
        <time>2021-05-26T08:11:44Z</time>
      </trkpt>
      <trkpt lat="41.604343" lon="2.483763">
        <ele>408.485</ele>
        <time>2021-05-26T08:11:48Z</time>
      </trkpt>
      <trkpt lat="41.604431" lon="2.483846">
        <ele>405.477</ele>
        <time>2021-05-26T08:11:52Z</time>
      </trkpt>
      <trkpt lat="41.604525" lon="2.483943">
        <ele>404.061</ele>
        <time>2021-05-26T08:11:57Z</time>
      </trkpt>
      <trkpt lat="41.604597" lon="2.484027">
        <ele>403.727</ele>
        <time>2021-05-26T08:12:00Z</time>
      </trkpt>
      <trkpt lat="41.604678" lon="2.484111">
        <ele>403.208</ele>
        <time>2021-05-26T08:12:04Z</time>
      </trkpt>
      <trkpt lat="41.604755" lon="2.484174">
        <ele>402.134</ele>
        <time>2021-05-26T08:12:08Z</time>
      </trkpt>
      <trkpt lat="41.604845" lon="2.484262">
        <ele>400.691</ele>
        <time>2021-05-26T08:12:12Z</time>
      </trkpt>
      <trkpt lat="41.604904" lon="2.484387">
        <ele>400.718</ele>
        <time>2021-05-26T08:12:16Z</time>
      </trkpt>
      <trkpt lat="41.604905" lon="2.484517">
        <ele>402.481</ele>
        <time>2021-05-26T08:12:20Z</time>
      </trkpt>
      <trkpt lat="41.604835" lon="2.484636">
        <ele>406.076</ele>
        <time>2021-05-26T08:12:24Z</time>
      </trkpt>
      <trkpt lat="41.604827" lon="2.484786">
        <ele>408.632</ele>
        <time>2021-05-26T08:12:29Z</time>
      </trkpt>
      <trkpt lat="41.604891" lon="2.484908">
        <ele>408.159</ele>
        <time>2021-05-26T08:12:32Z</time>
      </trkpt>
      <trkpt lat="41.604970" lon="2.485005">
        <ele>406.396</ele>
        <time>2021-05-26T08:12:36Z</time>
      </trkpt>
      <trkpt lat="41.605051" lon="2.485078">
        <ele>405.482</ele>
        <time>2021-05-26T08:12:40Z</time>
      </trkpt>
      <trkpt lat="41.605129" lon="2.485152">
        <ele>404.643</ele>
        <time>2021-05-26T08:12:45Z</time>
      </trkpt>
      <trkpt lat="41.605208" lon="2.485218">
        <ele>403.317</ele>
        <time>2021-05-26T08:12:49Z</time>
      </trkpt>
      <trkpt lat="41.605287" lon="2.485322">
        <ele>402.508</ele>
        <time>2021-05-26T08:12:53Z</time>
      </trkpt>
      <trkpt lat="41.605340" lon="2.485420">
        <ele>402.325</ele>
        <time>2021-05-26T08:12:58Z</time>
      </trkpt>
      <trkpt lat="41.605371" lon="2.485555">
        <ele>403.652</ele>
        <time>2021-05-26T08:13:03Z</time>
      </trkpt>
      <trkpt lat="41.605416" lon="2.485667">
        <ele>404.429</ele>
        <time>2021-05-26T08:13:07Z</time>
      </trkpt>
      <trkpt lat="41.605455" lon="2.485806">
        <ele>406.042</ele>
        <time>2021-05-26T08:13:12Z</time>
      </trkpt>
      <trkpt lat="41.605496" lon="2.485934">
        <ele>406.527</ele>
        <time>2021-05-26T08:13:16Z</time>
      </trkpt>
      <trkpt lat="41.605517" lon="2.486056">
        <ele>407.563</ele>
        <time>2021-05-26T08:13:21Z</time>
      </trkpt>
      <trkpt lat="41.605549" lon="2.486169">
        <ele>407.440</ele>
        <time>2021-05-26T08:13:26Z</time>
      </trkpt>
      <trkpt lat="41.605567" lon="2.486305">
        <ele>407.497</ele>
        <time>2021-05-26T08:13:31Z</time>
      </trkpt>
      <trkpt lat="41.605565" lon="2.486448">
        <ele>408.271</ele>
        <time>2021-05-26T08:13:36Z</time>
      </trkpt>
      <trkpt lat="41.605552" lon="2.486571">
        <ele>409.441</ele>
        <time>2021-05-26T08:13:40Z</time>
      </trkpt>
      <trkpt lat="41.605513" lon="2.486706">
        <ele>412.115</ele>
        <time>2021-05-26T08:13:46Z</time>
      </trkpt>
      <trkpt lat="41.605486" lon="2.486845">
        <ele>414.808</ele>
        <time>2021-05-26T08:13:50Z</time>
      </trkpt>
      <trkpt lat="41.605554" lon="2.486955">
        <ele>414.254</ele>
        <time>2021-05-26T08:13:53Z</time>
      </trkpt>
      <trkpt lat="41.605628" lon="2.487042">
        <ele>413.361</ele>
        <time>2021-05-26T08:13:58Z</time>
      </trkpt>
      <trkpt lat="41.605716" lon="2.487126">
        <ele>411.778</ele>
        <time>2021-05-26T08:14:02Z</time>
      </trkpt>
      <trkpt lat="41.605780" lon="2.487227">
        <ele>411.051</ele>
        <time>2021-05-26T08:14:06Z</time>
      </trkpt>
      <trkpt lat="41.605853" lon="2.487331">
        <ele>411.316</ele>
        <time>2021-05-26T08:14:11Z</time>
      </trkpt>
      <trkpt lat="41.605911" lon="2.487425">
        <ele>412.032</ele>
        <time>2021-05-26T08:14:14Z</time>
      </trkpt>
      <trkpt lat="41.605979" lon="2.487545">
        <ele>412.869</ele>
        <time>2021-05-26T08:14:20Z</time>
      </trkpt>
      <trkpt lat="41.606024" lon="2.487662">
        <ele>414.036</ele>
        <time>2021-05-26T08:14:25Z</time>
      </trkpt>
      <trkpt lat="41.606039" lon="2.487783">
        <ele>416.269</ele>
        <time>2021-05-26T08:14:30Z</time>
      </trkpt>
      <trkpt lat="41.606072" lon="2.487910">
        <ele>417.604</ele>
        <time>2021-05-26T08:14:35Z</time>
      </trkpt>
      <trkpt lat="41.606115" lon="2.488037">
        <ele>418.624</ele>
        <time>2021-05-26T08:14:39Z</time>
      </trkpt>
      <trkpt lat="41.606173" lon="2.488152">
        <ele>419.408</ele>
        <time>2021-05-26T08:14:43Z</time>
      </trkpt>
      <trkpt lat="41.606204" lon="2.488281">
        <ele>421.193</ele>
        <time>2021-05-26T08:14:48Z</time>
      </trkpt>
      <trkpt lat="41.606241" lon="2.488393">
        <ele>422.310</ele>
        <time>2021-05-26T08:14:54Z</time>
      </trkpt>
      <trkpt lat="41.606306" lon="2.488515">
        <ele>422.867</ele>
        <time>2021-05-26T08:14:59Z</time>
      </trkpt>
      <trkpt lat="41.606350" lon="2.488621">
        <ele>423.370</ele>
        <time>2021-05-26T08:15:04Z</time>
      </trkpt>
      <trkpt lat="41.606404" lon="2.488740">
        <ele>423.775</ele>
        <time>2021-05-26T08:15:09Z</time>
      </trkpt>
      <trkpt lat="41.606431" lon="2.488868">
        <ele>425.131</ele>
        <time>2021-05-26T08:15:14Z</time>
      </trkpt>
      <trkpt lat="41.606441" lon="2.488989">
        <ele>425.638</ele>
        <time>2021-05-26T08:15:19Z</time>
      </trkpt>
      <trkpt lat="41.606455" lon="2.489119">
        <ele>425.975</ele>
        <time>2021-05-26T08:15:25Z</time>
      </trkpt>
      <trkpt lat="41.606498" lon="2.489254">
        <ele>425.843</ele>
        <time>2021-05-26T08:15:30Z</time>
      </trkpt>
      <trkpt lat="41.606545" lon="2.489392">
        <ele>425.564</ele>
        <time>2021-05-26T08:15:34Z</time>
      </trkpt>
      <trkpt lat="41.606555" lon="2.489554">
        <ele>425.410</ele>
        <time>2021-05-26T08:15:38Z</time>
      </trkpt>
      <trkpt lat="41.606554" lon="2.489708">
        <ele>425.408</ele>
        <time>2021-05-26T08:15:42Z</time>
      </trkpt>
      <trkpt lat="41.606558" lon="2.489861">
        <ele>425.571</ele>
        <time>2021-05-26T08:15:46Z</time>
      </trkpt>
      <trkpt lat="41.606613" lon="2.489968">
        <ele>424.358</ele>
        <time>2021-05-26T08:15:51Z</time>
      </trkpt>
      <trkpt lat="41.606704" lon="2.490051">
        <ele>424.045</ele>
        <time>2021-05-26T08:15:56Z</time>
      </trkpt>
      <trkpt lat="41.606834" lon="2.490079">
        <ele>424.488</ele>
        <time>2021-05-26T08:15:59Z</time>
      </trkpt>
      <trkpt lat="41.606940" lon="2.490040">
        <ele>423.283</ele>
        <time>2021-05-26T08:16:05Z</time>
      </trkpt>
      <trkpt lat="41.607037" lon="2.490031">
        <ele>422.269</ele>
        <time>2021-05-26T08:16:08Z</time>
      </trkpt>
      <trkpt lat="41.607135" lon="2.490020">
        <ele>421.276</ele>
        <time>2021-05-26T08:16:12Z</time>
      </trkpt>
      <trkpt lat="41.607236" lon="2.490070">
        <ele>421.623</ele>
        <time>2021-05-26T08:16:15Z</time>
      </trkpt>
      <trkpt lat="41.607323" lon="2.490111">
        <ele>421.775</ele>
        <time>2021-05-26T08:16:20Z</time>
      </trkpt>
      <trkpt lat="41.607418" lon="2.490157">
        <ele>421.828</ele>
        <time>2021-05-26T08:16:26Z</time>
      </trkpt>
      <trkpt lat="41.607515" lon="2.490247">
        <ele>422.920</ele>
        <time>2021-05-26T08:16:29Z</time>
      </trkpt>
      <trkpt lat="41.607602" lon="2.490330">
        <ele>423.008</ele>
        <time>2021-05-26T08:16:34Z</time>
      </trkpt>
      <trkpt lat="41.607687" lon="2.490387">
        <ele>422.224</ele>
        <time>2021-05-26T08:16:37Z</time>
      </trkpt>
      <trkpt lat="41.607786" lon="2.490454">
        <ele>420.921</ele>
        <time>2021-05-26T08:16:40Z</time>
      </trkpt>
      <trkpt lat="41.607862" lon="2.490555">
        <ele>420.068</ele>
        <time>2021-05-26T08:16:43Z</time>
      </trkpt>
      <trkpt lat="41.607889" lon="2.490676">
        <ele>419.981</ele>
        <time>2021-05-26T08:16:49Z</time>
      </trkpt>
      <trkpt lat="41.607897" lon="2.490804">
        <ele>420.526</ele>
        <time>2021-05-26T08:16:54Z</time>
      </trkpt>
      <trkpt lat="41.607861" lon="2.490921">
        <ele>421.842</ele>
        <time>2021-05-26T08:16:59Z</time>
      </trkpt>
      <trkpt lat="41.607787" lon="2.491002">
        <ele>424.169</ele>
        <time>2021-05-26T08:17:03Z</time>
      </trkpt>
      <trkpt lat="41.607722" lon="2.491113">
        <ele>426.216</ele>
        <time>2021-05-26T08:17:07Z</time>
      </trkpt>
      <trkpt lat="41.607652" lon="2.491208">
        <ele>428.891</ele>
        <time>2021-05-26T08:17:10Z</time>
      </trkpt>
      <trkpt lat="41.607629" lon="2.491344">
        <ele>429.481</ele>
        <time>2021-05-26T08:17:15Z</time>
      </trkpt>
      <trkpt lat="41.607682" lon="2.491463">
        <ele>428.419</ele>
        <time>2021-05-26T08:17:20Z</time>
      </trkpt>
      <trkpt lat="41.607793" lon="2.491511">
        <ele>425.408</ele>
        <time>2021-05-26T08:17:23Z</time>
      </trkpt>
      <trkpt lat="41.607906" lon="2.491584">
        <ele>423.396</ele>
        <time>2021-05-26T08:17:27Z</time>
      </trkpt>
      <trkpt lat="41.607993" lon="2.491672">
        <ele>421.973</ele>
        <time>2021-05-26T08:17:30Z</time>
      </trkpt>
      <trkpt lat="41.608065" lon="2.491784">
        <ele>421.990</ele>
        <time>2021-05-26T08:17:36Z</time>
      </trkpt>
      <trkpt lat="41.608127" lon="2.491892">
        <ele>422.643</ele>
        <time>2021-05-26T08:17:40Z</time>
      </trkpt>
      <trkpt lat="41.608191" lon="2.492015">
        <ele>423.398</ele>
        <time>2021-05-26T08:17:44Z</time>
      </trkpt>
      <trkpt lat="41.608243" lon="2.492117">
        <ele>424.184</ele>
        <time>2021-05-26T08:17:47Z</time>
      </trkpt>
      <trkpt lat="41.608298" lon="2.492219">
        <ele>424.741</ele>
        <time>2021-05-26T08:17:50Z</time>
      </trkpt>
      <trkpt lat="41.608364" lon="2.492321">
        <ele>425.178</ele>
        <time>2021-05-26T08:17:54Z</time>
      </trkpt>
      <trkpt lat="41.608432" lon="2.492427">
        <ele>426.258</ele>
        <time>2021-05-26T08:17:59Z</time>
      </trkpt>
      <trkpt lat="41.608520" lon="2.492469">
        <ele>426.752</ele>
        <time>2021-05-26T08:18:03Z</time>
      </trkpt>
      <trkpt lat="41.608622" lon="2.492443">
        <ele>426.617</ele>
        <time>2021-05-26T08:18:05Z</time>
      </trkpt>
      <trkpt lat="41.608696" lon="2.492355">
        <ele>427.408</ele>
        <time>2021-05-26T08:18:10Z</time>
      </trkpt>
      <trkpt lat="41.608702" lon="2.492225">
        <ele>426.322</ele>
        <time>2021-05-26T08:18:14Z</time>
      </trkpt>
      <trkpt lat="41.608698" lon="2.492088">
        <ele>425.239</ele>
        <time>2021-05-26T08:18:18Z</time>
      </trkpt>
      <trkpt lat="41.608679" lon="2.491955">
        <ele>423.876</ele>
        <time>2021-05-26T08:18:23Z</time>
      </trkpt>
      <trkpt lat="41.608666" lon="2.491804">
        <ele>422.439</ele>
        <time>2021-05-26T08:18:28Z</time>
      </trkpt>
      <trkpt lat="41.608700" lon="2.491662">
        <ele>422.234</ele>
        <time>2021-05-26T08:18:33Z</time>
      </trkpt>
      <trkpt lat="41.608746" lon="2.491552">
        <ele>422.290</ele>
        <time>2021-05-26T08:18:37Z</time>
      </trkpt>
      <trkpt lat="41.608816" lon="2.491455">
        <ele>422.927</ele>
        <time>2021-05-26T08:18:41Z</time>
      </trkpt>
      <trkpt lat="41.608866" lon="2.491385">
        <ele>423.444</ele>
        <time>2021-05-26T08:18:44Z</time>
      </trkpt>
      <trkpt lat="41.608883" lon="2.491362">
        <ele>423.422</ele>
        <time>2021-05-26T08:18:45Z</time>
      </trkpt>
      <trkpt lat="41.608899" lon="2.491339">
        <ele>423.362</ele>
        <time>2021-05-26T08:18:46Z</time>
      </trkpt>
      <trkpt lat="41.608912" lon="2.491318">
        <ele>423.108</ele>
        <time>2021-05-26T08:18:47Z</time>
      </trkpt>
      <trkpt lat="41.608996" lon="2.491254">
        <ele>423.508</ele>
        <time>2021-05-26T08:18:52Z</time>
      </trkpt>
      <trkpt lat="41.609014" lon="2.491244">
        <ele>423.639</ele>
        <time>2021-05-26T08:18:53Z</time>
      </trkpt>
      <trkpt lat="41.609047" lon="2.491224">
        <ele>423.996</ele>
        <time>2021-05-26T08:18:55Z</time>
      </trkpt>
      <trkpt lat="41.609096" lon="2.491211">
        <ele>424.573</ele>
        <time>2021-05-26T08:18:58Z</time>
      </trkpt>
      <trkpt lat="41.609115" lon="2.491200">
        <ele>424.736</ele>
        <time>2021-05-26T08:18:59Z</time>
      </trkpt>
      <trkpt lat="41.609182" lon="2.491193">
        <ele>425.981</ele>
        <time>2021-05-26T08:19:03Z</time>
      </trkpt>
      <trkpt lat="41.609203" lon="2.491190">
        <ele>426.457</ele>
        <time>2021-05-26T08:19:04Z</time>
      </trkpt>
      <trkpt lat="41.609244" lon="2.491193">
        <ele>427.634</ele>
        <time>2021-05-26T08:19:05Z</time>
      </trkpt>
      <trkpt lat="41.609278" lon="2.491197">
        <ele>428.681</ele>
        <time>2021-05-26T08:19:08Z</time>
      </trkpt>
      <trkpt lat="41.609341" lon="2.491199">
        <ele>430.479</ele>
        <time>2021-05-26T08:19:11Z</time>
      </trkpt>
      <trkpt lat="41.609383" lon="2.491193">
        <ele>431.505</ele>
        <time>2021-05-26T08:19:13Z</time>
      </trkpt>
      <trkpt lat="41.609444" lon="2.491173">
        <ele>432.925</ele>
        <time>2021-05-26T08:19:16Z</time>
      </trkpt>
      <trkpt lat="41.609465" lon="2.491161">
        <ele>433.208</ele>
        <time>2021-05-26T08:19:17Z</time>
      </trkpt>
      <trkpt lat="41.609485" lon="2.491147">
        <ele>433.554</ele>
        <time>2021-05-26T08:19:18Z</time>
      </trkpt>
      <trkpt lat="41.609501" lon="2.491127">
        <ele>433.741</ele>
        <time>2021-05-26T08:19:19Z</time>
      </trkpt>
      <trkpt lat="41.609518" lon="2.491107">
        <ele>433.898</ele>
        <time>2021-05-26T08:19:20Z</time>
      </trkpt>
      <trkpt lat="41.609534" lon="2.491082">
        <ele>433.841</ele>
        <time>2021-05-26T08:19:21Z</time>
      </trkpt>
      <trkpt lat="41.609552" lon="2.491065">
        <ele>434.116</ele>
        <time>2021-05-26T08:19:22Z</time>
      </trkpt>
      <trkpt lat="41.609569" lon="2.491044">
        <ele>434.362</ele>
        <time>2021-05-26T08:19:23Z</time>
      </trkpt>
      <trkpt lat="41.609584" lon="2.491018">
        <ele>434.329</ele>
        <time>2021-05-26T08:19:24Z</time>
      </trkpt>
      <trkpt lat="41.609594" lon="2.490989">
        <ele>434.346</ele>
        <time>2021-05-26T08:19:25Z</time>
      </trkpt>
      <trkpt lat="41.609605" lon="2.490958">
        <ele>434.239</ele>
        <time>2021-05-26T08:19:26Z</time>
      </trkpt>
      <trkpt lat="41.609608" lon="2.490934">
        <ele>434.101</ele>
        <time>2021-05-26T08:19:27Z</time>
      </trkpt>
      <trkpt lat="41.609612" lon="2.490911">
        <ele>433.921</ele>
        <time>2021-05-26T08:19:28Z</time>
      </trkpt>
      <trkpt lat="41.609632" lon="2.490790">
        <ele>433.308</ele>
        <time>2021-05-26T08:19:33Z</time>
      </trkpt>
      <trkpt lat="41.609661" lon="2.490662">
        <ele>433.230</ele>
        <time>2021-05-26T08:19:38Z</time>
      </trkpt>
      <trkpt lat="41.609676" lon="2.490539">
        <ele>432.697</ele>
        <time>2021-05-26T08:19:41Z</time>
      </trkpt>
      <trkpt lat="41.609708" lon="2.490410">
        <ele>432.734</ele>
        <time>2021-05-26T08:19:46Z</time>
      </trkpt>
      <trkpt lat="41.609708" lon="2.490284">
        <ele>431.377</ele>
        <time>2021-05-26T08:19:50Z</time>
      </trkpt>
      <trkpt lat="41.609711" lon="2.490195">
        <ele>429.762</ele>
        <time>2021-05-26T08:19:53Z</time>
      </trkpt>
      <trkpt lat="41.609717" lon="2.490142">
        <ele>428.868</ele>
        <time>2021-05-26T08:19:55Z</time>
      </trkpt>
      <trkpt lat="41.609724" lon="2.490112">
        <ele>428.535</ele>
        <time>2021-05-26T08:19:56Z</time>
      </trkpt>
      <trkpt lat="41.609733" lon="2.490081">
        <ele>428.292</ele>
        <time>2021-05-26T08:19:57Z</time>
      </trkpt>
      <trkpt lat="41.609740" lon="2.490049">
        <ele>427.829</ele>
        <time>2021-05-26T08:19:58Z</time>
      </trkpt>
      <trkpt lat="41.609751" lon="2.490021">
        <ele>427.700</ele>
        <time>2021-05-26T08:19:59Z</time>
      </trkpt>
      <trkpt lat="41.609761" lon="2.489995">
        <ele>427.620</ele>
        <time>2021-05-26T08:20:00Z</time>
      </trkpt>
      <trkpt lat="41.609787" lon="2.489943">
        <ele>427.708</ele>
        <time>2021-05-26T08:20:01Z</time>
      </trkpt>
      <trkpt lat="41.609819" lon="2.489885">
        <ele>427.869</ele>
        <time>2021-05-26T08:20:03Z</time>
      </trkpt>
      <trkpt lat="41.609836" lon="2.489860">
        <ele>428.086</ele>
        <time>2021-05-26T08:20:05Z</time>
      </trkpt>
      <trkpt lat="41.609850" lon="2.489832">
        <ele>427.993</ele>
        <time>2021-05-26T08:20:06Z</time>
      </trkpt>
      <trkpt lat="41.609884" lon="2.489776">
        <ele>428.096</ele>
        <time>2021-05-26T08:20:07Z</time>
      </trkpt>
      <trkpt lat="41.609905" lon="2.489749">
        <ele>428.271</ele>
        <time>2021-05-26T08:20:09Z</time>
      </trkpt>
      <trkpt lat="41.609921" lon="2.489724">
        <ele>428.277</ele>
        <time>2021-05-26T08:20:10Z</time>
      </trkpt>
      <trkpt lat="41.609939" lon="2.489700">
        <ele>428.444</ele>
        <time>2021-05-26T08:20:11Z</time>
      </trkpt>
      <trkpt lat="41.609958" lon="2.489678">
        <ele>428.621</ele>
        <time>2021-05-26T08:20:12Z</time>
      </trkpt>
      <trkpt lat="41.609978" lon="2.489656">
        <ele>428.843</ele>
        <time>2021-05-26T08:20:13Z</time>
      </trkpt>
      <trkpt lat="41.610015" lon="2.489613">
        <ele>428.964</ele>
        <time>2021-05-26T08:20:14Z</time>
      </trkpt>
      <trkpt lat="41.610036" lon="2.489593">
        <ele>428.710</ele>
        <time>2021-05-26T08:20:16Z</time>
      </trkpt>
      <trkpt lat="41.610054" lon="2.489573">
        <ele>428.608</ele>
        <time>2021-05-26T08:20:17Z</time>
      </trkpt>
      <trkpt lat="41.610070" lon="2.489550">
        <ele>428.341</ele>
        <time>2021-05-26T08:20:18Z</time>
      </trkpt>
      <trkpt lat="41.610089" lon="2.489526">
        <ele>428.028</ele>
        <time>2021-05-26T08:20:19Z</time>
      </trkpt>
      <trkpt lat="41.610106" lon="2.489499">
        <ele>427.775</ele>
        <time>2021-05-26T08:20:20Z</time>
      </trkpt>
      <trkpt lat="41.610121" lon="2.489472">
        <ele>427.328</ele>
        <time>2021-05-26T08:20:21Z</time>
      </trkpt>
      <trkpt lat="41.610139" lon="2.489452">
        <ele>427.233</ele>
        <time>2021-05-26T08:20:22Z</time>
      </trkpt>
      <trkpt lat="41.610152" lon="2.489428">
        <ele>426.919</ele>
        <time>2021-05-26T08:20:23Z</time>
      </trkpt>
      <trkpt lat="41.610166" lon="2.489406">
        <ele>426.696</ele>
        <time>2021-05-26T08:20:24Z</time>
      </trkpt>
      <trkpt lat="41.610206" lon="2.489384">
        <ele>426.783</ele>
        <time>2021-05-26T08:20:25Z</time>
      </trkpt>
      <trkpt lat="41.610230" lon="2.489369">
        <ele>426.787</ele>
        <time>2021-05-26T08:20:26Z</time>
      </trkpt>
      <trkpt lat="41.610246" lon="2.489357">
        <ele>426.742</ele>
        <time>2021-05-26T08:20:27Z</time>
      </trkpt>
      <trkpt lat="41.610302" lon="2.489362">
        <ele>427.026</ele>
        <time>2021-05-26T08:20:30Z</time>
      </trkpt>
      <trkpt lat="41.610319" lon="2.489369">
        <ele>427.108</ele>
        <time>2021-05-26T08:20:31Z</time>
      </trkpt>
      <trkpt lat="41.610340" lon="2.489376">
        <ele>427.175</ele>
        <time>2021-05-26T08:20:32Z</time>
      </trkpt>
      <trkpt lat="41.610357" lon="2.489386">
        <ele>427.262</ele>
        <time>2021-05-26T08:20:33Z</time>
      </trkpt>
      <trkpt lat="41.610374" lon="2.489398">
        <ele>427.379</ele>
        <time>2021-05-26T08:20:34Z</time>
      </trkpt>
      <trkpt lat="41.610390" lon="2.489416">
        <ele>427.642</ele>
        <time>2021-05-26T08:20:35Z</time>
      </trkpt>
      <trkpt lat="41.610403" lon="2.489438">
        <ele>428.067</ele>
        <time>2021-05-26T08:20:37Z</time>
      </trkpt>
      <trkpt lat="41.610421" lon="2.489460">
        <ele>428.263</ele>
        <time>2021-05-26T08:20:38Z</time>
      </trkpt>
      <trkpt lat="41.610436" lon="2.489485">
        <ele>428.430</ele>
        <time>2021-05-26T08:20:39Z</time>
      </trkpt>
      <trkpt lat="41.610452" lon="2.489535">
        <ele>428.987</ele>
        <time>2021-05-26T08:20:40Z</time>
      </trkpt>
      <trkpt lat="41.610481" lon="2.489615">
        <ele>429.483</ele>
        <time>2021-05-26T08:20:44Z</time>
      </trkpt>
      <trkpt lat="41.610508" lon="2.489674">
        <ele>429.625</ele>
        <time>2021-05-26T08:20:46Z</time>
      </trkpt>
      <trkpt lat="41.610536" lon="2.489726">
        <ele>429.417</ele>
        <time>2021-05-26T08:20:47Z</time>
      </trkpt>
      <trkpt lat="41.610547" lon="2.489752">
        <ele>429.208</ele>
        <time>2021-05-26T08:20:48Z</time>
      </trkpt>
      <trkpt lat="41.610595" lon="2.489864">
        <ele>427.715</ele>
        <time>2021-05-26T08:20:53Z</time>
      </trkpt>
      <trkpt lat="41.610611" lon="2.489889">
        <ele>427.282</ele>
        <time>2021-05-26T08:20:54Z</time>
      </trkpt>
      <trkpt lat="41.610673" lon="2.490000">
        <ele>425.279</ele>
        <time>2021-05-26T08:20:58Z</time>
      </trkpt>
      <trkpt lat="41.610712" lon="2.490144">
        <ele>424.462</ele>
        <time>2021-05-26T08:21:02Z</time>
      </trkpt>
      <trkpt lat="41.610714" lon="2.490276">
        <ele>424.727</ele>
        <time>2021-05-26T08:21:05Z</time>
      </trkpt>
      <trkpt lat="41.610686" lon="2.490410">
        <ele>426.373</ele>
        <time>2021-05-26T08:21:09Z</time>
      </trkpt>
      <trkpt lat="41.610682" lon="2.490546">
        <ele>426.960</ele>
        <time>2021-05-26T08:21:13Z</time>
      </trkpt>
      <trkpt lat="41.610661" lon="2.490678">
        <ele>428.197</ele>
        <time>2021-05-26T08:21:18Z</time>
      </trkpt>
      <trkpt lat="41.610639" lon="2.490800">
        <ele>429.569</ele>
        <time>2021-05-26T08:21:22Z</time>
      </trkpt>
      <trkpt lat="41.610658" lon="2.490925">
        <ele>429.804</ele>
        <time>2021-05-26T08:21:26Z</time>
      </trkpt>
      <trkpt lat="41.610661" lon="2.491064">
        <ele>431.024</ele>
        <time>2021-05-26T08:21:31Z</time>
      </trkpt>
      <trkpt lat="41.610703" lon="2.491206">
        <ele>430.208</ele>
        <time>2021-05-26T08:21:35Z</time>
      </trkpt>
      <trkpt lat="41.610773" lon="2.491326">
        <ele>428.093</ele>
        <time>2021-05-26T08:21:39Z</time>
      </trkpt>
      <trkpt lat="41.610829" lon="2.491429">
        <ele>426.390</ele>
        <time>2021-05-26T08:21:43Z</time>
      </trkpt>
      <trkpt lat="41.610868" lon="2.491538">
        <ele>425.387</ele>
        <time>2021-05-26T08:21:47Z</time>
      </trkpt>
      <trkpt lat="41.610901" lon="2.491662">
        <ele>424.560</ele>
        <time>2021-05-26T08:21:51Z</time>
      </trkpt>
      <trkpt lat="41.610926" lon="2.491796">
        <ele>423.425</ele>
        <time>2021-05-26T08:21:55Z</time>
      </trkpt>
      <trkpt lat="41.610937" lon="2.491950">
        <ele>422.711</ele>
        <time>2021-05-26T08:21:59Z</time>
      </trkpt>
      <trkpt lat="41.610939" lon="2.492083">
        <ele>423.138</ele>
        <time>2021-05-26T08:22:03Z</time>
      </trkpt>
      <trkpt lat="41.610917" lon="2.492204">
        <ele>424.235</ele>
        <time>2021-05-26T08:22:07Z</time>
      </trkpt>
      <trkpt lat="41.610893" lon="2.492324">
        <ele>426.429</ele>
        <time>2021-05-26T08:22:12Z</time>
      </trkpt>
      <trkpt lat="41.610884" lon="2.492470">
        <ele>428.600</ele>
        <time>2021-05-26T08:22:17Z</time>
      </trkpt>
      <trkpt lat="41.610892" lon="2.492612">
        <ele>429.820</ele>
        <time>2021-05-26T08:22:21Z</time>
      </trkpt>
      <trkpt lat="41.610908" lon="2.492730">
        <ele>430.308</ele>
        <time>2021-05-26T08:22:24Z</time>
      </trkpt>
      <trkpt lat="41.610934" lon="2.492867">
        <ele>430.769</ele>
        <time>2021-05-26T08:22:28Z</time>
      </trkpt>
      <trkpt lat="41.610954" lon="2.492986">
        <ele>431.466</ele>
        <time>2021-05-26T08:22:32Z</time>
      </trkpt>
      <trkpt lat="41.610962" lon="2.493122">
        <ele>432.513</ele>
        <time>2021-05-26T08:22:37Z</time>
      </trkpt>
      <trkpt lat="41.610986" lon="2.493258">
        <ele>432.846</ele>
        <time>2021-05-26T08:22:42Z</time>
      </trkpt>
      <trkpt lat="41.611033" lon="2.493380">
        <ele>432.271</ele>
        <time>2021-05-26T08:22:46Z</time>
      </trkpt>
      <trkpt lat="41.611098" lon="2.493491">
        <ele>431.197</ele>
        <time>2021-05-26T08:22:49Z</time>
      </trkpt>
      <trkpt lat="41.611171" lon="2.493570">
        <ele>430.144</ele>
        <time>2021-05-26T08:22:52Z</time>
      </trkpt>
      <trkpt lat="41.611259" lon="2.493647">
        <ele>428.531</ele>
        <time>2021-05-26T08:22:55Z</time>
      </trkpt>
      <trkpt lat="41.611338" lon="2.493748">
        <ele>427.293</ele>
        <time>2021-05-26T08:22:59Z</time>
      </trkpt>
      <trkpt lat="41.611400" lon="2.493847">
        <ele>426.565</ele>
        <time>2021-05-26T08:23:03Z</time>
      </trkpt>
      <trkpt lat="41.611436" lon="2.493961">
        <ele>426.621</ele>
        <time>2021-05-26T08:23:07Z</time>
      </trkpt>
      <trkpt lat="41.611451" lon="2.494088">
        <ele>427.208</ele>
        <time>2021-05-26T08:23:12Z</time>
      </trkpt>
      <trkpt lat="41.611487" lon="2.494216">
        <ele>427.286</ele>
        <time>2021-05-26T08:23:17Z</time>
      </trkpt>
      <trkpt lat="41.611511" lon="2.494363">
        <ele>427.853</ele>
        <time>2021-05-26T08:23:22Z</time>
      </trkpt>
      <trkpt lat="41.611533" lon="2.494512">
        <ele>428.450</ele>
        <time>2021-05-26T08:23:26Z</time>
      </trkpt>
      <trkpt lat="41.611543" lon="2.494640">
        <ele>429.293</ele>
        <time>2021-05-26T08:23:30Z</time>
      </trkpt>
      <trkpt lat="41.611564" lon="2.494766">
        <ele>429.618</ele>
        <time>2021-05-26T08:23:34Z</time>
      </trkpt>
      <trkpt lat="41.611588" lon="2.494892">
        <ele>429.774</ele>
        <time>2021-05-26T08:23:38Z</time>
      </trkpt>
      <trkpt lat="41.611587" lon="2.495037">
        <ele>430.371</ele>
        <time>2021-05-26T08:23:42Z</time>
      </trkpt>
      <trkpt lat="41.611601" lon="2.495185">
        <ele>430.688</ele>
        <time>2021-05-26T08:23:46Z</time>
      </trkpt>
      <trkpt lat="41.611602" lon="2.495218">
        <ele>430.734</ele>
        <time>2021-05-26T08:23:47Z</time>
      </trkpt>
      <trkpt lat="41.611621" lon="2.495355">
        <ele>430.955</ele>
        <time>2021-05-26T08:23:51Z</time>
      </trkpt>
      <trkpt lat="41.611656" lon="2.495490">
        <ele>430.910</ele>
        <time>2021-05-26T08:23:56Z</time>
      </trkpt>
      <trkpt lat="41.611714" lon="2.495589">
        <ele>430.808</ele>
        <time>2021-05-26T08:24:00Z</time>
      </trkpt>
      <trkpt lat="41.611728" lon="2.495613">
        <ele>430.850</ele>
        <time>2021-05-26T08:24:01Z</time>
      </trkpt>
      <trkpt lat="41.611769" lon="2.495647">
        <ele>430.617</ele>
        <time>2021-05-26T08:24:02Z</time>
      </trkpt>
      <trkpt lat="41.611790" lon="2.495658">
        <ele>430.694</ele>
        <time>2021-05-26T08:24:03Z</time>
      </trkpt>
      <trkpt lat="41.611886" lon="2.495685">
        <ele>430.297</ele>
        <time>2021-05-26T08:24:07Z</time>
      </trkpt>
      <trkpt lat="41.611998" lon="2.495692">
        <ele>430.272</ele>
        <time>2021-05-26T08:24:13Z</time>
      </trkpt>
      <trkpt lat="41.612067" lon="2.495670">
        <ele>430.588</ele>
        <time>2021-05-26T08:24:16Z</time>
      </trkpt>
      <trkpt lat="41.612088" lon="2.495658">
        <ele>430.745</ele>
        <time>2021-05-26T08:24:17Z</time>
      </trkpt>
      <trkpt lat="41.612113" lon="2.495646">
        <ele>430.832</ele>
        <time>2021-05-26T08:24:18Z</time>
      </trkpt>
      <trkpt lat="41.612132" lon="2.495629">
        <ele>431.053</ele>
        <time>2021-05-26T08:24:19Z</time>
      </trkpt>
      <trkpt lat="41.612151" lon="2.495617">
        <ele>431.204</ele>
        <time>2021-05-26T08:24:20Z</time>
      </trkpt>
      <trkpt lat="41.612199" lon="2.495606">
        <ele>431.514</ele>
        <time>2021-05-26T08:24:21Z</time>
      </trkpt>
      <trkpt lat="41.612289" lon="2.495581">
        <ele>433.008</ele>
        <time>2021-05-26T08:24:27Z</time>
      </trkpt>
      <trkpt lat="41.612399" lon="2.495596">
        <ele>435.072</ele>
        <time>2021-05-26T08:24:32Z</time>
      </trkpt>
      <trkpt lat="41.612431" lon="2.495604">
        <ele>435.569</ele>
        <time>2021-05-26T08:24:34Z</time>
      </trkpt>
      <trkpt lat="41.612452" lon="2.495612">
        <ele>435.996</ele>
        <time>2021-05-26T08:24:36Z</time>
      </trkpt>
      <trkpt lat="41.612477" lon="2.495622">
        <ele>436.399</ele>
        <time>2021-05-26T08:24:39Z</time>
      </trkpt>
      <trkpt lat="41.612501" lon="2.495623">
        <ele>436.864</ele>
        <time>2021-05-26T08:24:41Z</time>
      </trkpt>
      <trkpt lat="41.612519" lon="2.495620">
        <ele>437.080</ele>
        <time>2021-05-26T08:24:43Z</time>
      </trkpt>
      <trkpt lat="41.612534" lon="2.495606">
        <ele>437.397</ele>
        <time>2021-05-26T08:24:58Z</time>
      </trkpt>
      <trkpt lat="41.612535" lon="2.495577">
        <ele>437.474</ele>
        <time>2021-05-26T08:25:50Z</time>
      </trkpt>
      <trkpt lat="41.612541" lon="2.495605">
        <ele>437.492</ele>
        <time>2021-05-26T08:26:15Z</time>
      </trkpt>
      <trkpt lat="41.612552" lon="2.495630">
        <ele>437.473</ele>
        <time>2021-05-26T08:26:17Z</time>
      </trkpt>
      <trkpt lat="41.612565" lon="2.495660">
        <ele>437.520</ele>
        <time>2021-05-26T08:26:19Z</time>
      </trkpt>
      <trkpt lat="41.612578" lon="2.495694">
        <ele>437.508</ele>
        <time>2021-05-26T08:26:20Z</time>
      </trkpt>
      <trkpt lat="41.612598" lon="2.495725">
        <ele>437.646</ele>
        <time>2021-05-26T08:26:23Z</time>
      </trkpt>
      <trkpt lat="41.612619" lon="2.495758">
        <ele>437.723</ele>
        <time>2021-05-26T08:26:25Z</time>
      </trkpt>
      <trkpt lat="41.612645" lon="2.495783">
        <ele>437.890</ele>
        <time>2021-05-26T08:26:27Z</time>
      </trkpt>
      <trkpt lat="41.612673" lon="2.495795">
        <ele>438.193</ele>
        <time>2021-05-26T08:26:29Z</time>
      </trkpt>
      <trkpt lat="41.612698" lon="2.495802">
        <ele>438.338</ele>
        <time>2021-05-26T08:26:31Z</time>
      </trkpt>
      <trkpt lat="41.612724" lon="2.495806">
        <ele>438.634</ele>
        <time>2021-05-26T08:26:33Z</time>
      </trkpt>
      <trkpt lat="41.612747" lon="2.495812">
        <ele>438.831</ele>
        <time>2021-05-26T08:26:35Z</time>
      </trkpt>
      <trkpt lat="41.612769" lon="2.495817">
        <ele>439.058</ele>
        <time>2021-05-26T08:26:37Z</time>
      </trkpt>
      <trkpt lat="41.612792" lon="2.495817">
        <ele>439.351</ele>
        <time>2021-05-26T08:26:39Z</time>
      </trkpt>
      <trkpt lat="41.612811" lon="2.495816">
        <ele>439.501</ele>
        <time>2021-05-26T08:26:41Z</time>
      </trkpt>
      <trkpt lat="41.612833" lon="2.495813">
        <ele>439.711</ele>
        <time>2021-05-26T08:26:43Z</time>
      </trkpt>
      <trkpt lat="41.612858" lon="2.495817">
        <ele>439.908</ele>
        <time>2021-05-26T08:26:45Z</time>
      </trkpt>
      <trkpt lat="41.612886" lon="2.495821">
        <ele>440.282</ele>
        <time>2021-05-26T08:26:47Z</time>
      </trkpt>
      <trkpt lat="41.612914" lon="2.495828">
        <ele>440.579</ele>
        <time>2021-05-26T08:26:49Z</time>
      </trkpt>
      <trkpt lat="41.612939" lon="2.495832">
        <ele>440.766</ele>
        <time>2021-05-26T08:26:51Z</time>
      </trkpt>
      <trkpt lat="41.612970" lon="2.495838">
        <ele>441.049</ele>
        <time>2021-05-26T08:26:54Z</time>
      </trkpt>
      <trkpt lat="41.612989" lon="2.495842">
        <ele>441.284</ele>
        <time>2021-05-26T08:26:56Z</time>
      </trkpt>
      <trkpt lat="41.613014" lon="2.495852">
        <ele>441.440</ele>
        <time>2021-05-26T08:27:01Z</time>
      </trkpt>
      <trkpt lat="41.613050" lon="2.495862">
        <ele>441.697</ele>
        <time>2021-05-26T08:27:02Z</time>
      </trkpt>
      <trkpt lat="41.613066" lon="2.495868">
        <ele>441.774</ele>
        <time>2021-05-26T08:27:04Z</time>
      </trkpt>
      <trkpt lat="41.613100" lon="2.495882">
        <ele>441.736</ele>
        <time>2021-05-26T08:27:06Z</time>
      </trkpt>
      <trkpt lat="41.613119" lon="2.495891">
        <ele>441.717</ele>
        <time>2021-05-26T08:27:07Z</time>
      </trkpt>
      <trkpt lat="41.613137" lon="2.495894">
        <ele>441.818</ele>
        <time>2021-05-26T08:27:08Z</time>
      </trkpt>
      <trkpt lat="41.613155" lon="2.495900">
        <ele>441.808</ele>
        <time>2021-05-26T08:27:09Z</time>
      </trkpt>
      <trkpt lat="41.613175" lon="2.495903">
        <ele>441.960</ele>
        <time>2021-05-26T08:27:10Z</time>
      </trkpt>
      <trkpt lat="41.613207" lon="2.495906">
        <ele>442.017</ele>
        <time>2021-05-26T08:27:12Z</time>
      </trkpt>
      <trkpt lat="41.613238" lon="2.495912">
        <ele>442.244</ele>
        <time>2021-05-26T08:27:14Z</time>
      </trkpt>
      <trkpt lat="41.613267" lon="2.495917">
        <ele>442.337</ele>
        <time>2021-05-26T08:27:16Z</time>
      </trkpt>
      <trkpt lat="41.613297" lon="2.495918">
        <ele>442.542</ele>
        <time>2021-05-26T08:27:18Z</time>
      </trkpt>
      <trkpt lat="41.613326" lon="2.495917">
        <ele>442.768</ele>
        <time>2021-05-26T08:27:20Z</time>
      </trkpt>
      <trkpt lat="41.613362" lon="2.495916">
        <ele>442.815</ele>
        <time>2021-05-26T08:27:22Z</time>
      </trkpt>
      <trkpt lat="41.613395" lon="2.495914">
        <ele>443.042</ele>
        <time>2021-05-26T08:27:24Z</time>
      </trkpt>
      <trkpt lat="41.613429" lon="2.495909">
        <ele>443.234</ele>
        <time>2021-05-26T08:27:25Z</time>
      </trkpt>
      <trkpt lat="41.613463" lon="2.495900">
        <ele>443.355</ele>
        <time>2021-05-26T08:27:28Z</time>
      </trkpt>
      <trkpt lat="41.613496" lon="2.495891">
        <ele>443.510</ele>
        <time>2021-05-26T08:27:30Z</time>
      </trkpt>
      <trkpt lat="41.613527" lon="2.495879">
        <ele>443.608</ele>
        <time>2021-05-26T08:27:32Z</time>
      </trkpt>
      <trkpt lat="41.613557" lon="2.495864">
        <ele>443.810</ele>
        <time>2021-05-26T08:27:33Z</time>
      </trkpt>
      <trkpt lat="41.613587" lon="2.495852">
        <ele>443.927</ele>
        <time>2021-05-26T08:27:35Z</time>
      </trkpt>
      <trkpt lat="41.613621" lon="2.495843">
        <ele>444.094</ele>
        <time>2021-05-26T08:27:37Z</time>
      </trkpt>
      <trkpt lat="41.613653" lon="2.495836">
        <ele>444.167</ele>
        <time>2021-05-26T08:27:39Z</time>
      </trkpt>
      <trkpt lat="41.613683" lon="2.495825">
        <ele>444.382</ele>
        <time>2021-05-26T08:27:41Z</time>
      </trkpt>
      <trkpt lat="41.613712" lon="2.495813">
        <ele>444.418</ele>
        <time>2021-05-26T08:27:43Z</time>
      </trkpt>
      <trkpt lat="41.613739" lon="2.495802">
        <ele>444.565</ele>
        <time>2021-05-26T08:27:45Z</time>
      </trkpt>
      <trkpt lat="41.613770" lon="2.495790">
        <ele>444.632</ele>
        <time>2021-05-26T08:27:47Z</time>
      </trkpt>
      <trkpt lat="41.613799" lon="2.495777">
        <ele>444.721</ele>
        <time>2021-05-26T08:27:49Z</time>
      </trkpt>
      <trkpt lat="41.613830" lon="2.495770">
        <ele>444.841</ele>
        <time>2021-05-26T08:27:51Z</time>
      </trkpt>
      <trkpt lat="41.613859" lon="2.495759">
        <ele>444.905</ele>
        <time>2021-05-26T08:27:53Z</time>
      </trkpt>
      <trkpt lat="41.613887" lon="2.495748">
        <ele>445.008</ele>
        <time>2021-05-26T08:27:55Z</time>
      </trkpt>
      <trkpt lat="41.613916" lon="2.495738">
        <ele>445.039</ele>
        <time>2021-05-26T08:27:57Z</time>
      </trkpt>
      <trkpt lat="41.613948" lon="2.495733">
        <ele>445.136</ele>
        <time>2021-05-26T08:28:00Z</time>
      </trkpt>
      <trkpt lat="41.613978" lon="2.495724">
        <ele>445.143</ele>
        <time>2021-05-26T08:28:02Z</time>
      </trkpt>
      <trkpt lat="41.614008" lon="2.495718">
        <ele>445.236</ele>
        <time>2021-05-26T08:28:04Z</time>
      </trkpt>
      <trkpt lat="41.614036" lon="2.495708">
        <ele>445.271</ele>
        <time>2021-05-26T08:28:06Z</time>
      </trkpt>
      <trkpt lat="41.614065" lon="2.495701">
        <ele>445.377</ele>
        <time>2021-05-26T08:28:08Z</time>
      </trkpt>
      <trkpt lat="41.614093" lon="2.495693">
        <ele>445.474</ele>
        <time>2021-05-26T08:28:10Z</time>
      </trkpt>
      <trkpt lat="41.614119" lon="2.495685">
        <ele>445.451</ele>
        <time>2021-05-26T08:28:12Z</time>
      </trkpt>
      <trkpt lat="41.614146" lon="2.495677">
        <ele>445.516</ele>
        <time>2021-05-26T08:28:14Z</time>
      </trkpt>
      <trkpt lat="41.614175" lon="2.495672">
        <ele>445.676</ele>
        <time>2021-05-26T08:28:16Z</time>
      </trkpt>
      <trkpt lat="41.614204" lon="2.495667">
        <ele>445.913</ele>
        <time>2021-05-26T08:28:18Z</time>
      </trkpt>
      <trkpt lat="41.614232" lon="2.495667">
        <ele>446.108</ele>
        <time>2021-05-26T08:28:20Z</time>
      </trkpt>
      <trkpt lat="41.614260" lon="2.495663">
        <ele>446.348</ele>
        <time>2021-05-26T08:28:21Z</time>
      </trkpt>
      <trkpt lat="41.614285" lon="2.495667">
        <ele>446.525</ele>
        <time>2021-05-26T08:28:24Z</time>
      </trkpt>
      <trkpt lat="41.614314" lon="2.495661">
        <ele>446.722</ele>
        <time>2021-05-26T08:28:26Z</time>
      </trkpt>
      <trkpt lat="41.614338" lon="2.495657">
        <ele>446.935</ele>
        <time>2021-05-26T08:28:28Z</time>
      </trkpt>
      <trkpt lat="41.614364" lon="2.495660">
        <ele>447.020</ele>
        <time>2021-05-26T08:28:31Z</time>
      </trkpt>
      <trkpt lat="41.614386" lon="2.495650">
        <ele>447.236</ele>
        <time>2021-05-26T08:28:33Z</time>
      </trkpt>
      <trkpt lat="41.614409" lon="2.495644">
        <ele>447.423</ele>
        <time>2021-05-26T08:28:35Z</time>
      </trkpt>
      <trkpt lat="41.614431" lon="2.495638">
        <ele>447.670</ele>
        <time>2021-05-26T08:28:37Z</time>
      </trkpt>
      <trkpt lat="41.614459" lon="2.495640">
        <ele>447.924</ele>
        <time>2021-05-26T08:28:39Z</time>
      </trkpt>
      <trkpt lat="41.614482" lon="2.495636">
        <ele>448.104</ele>
        <time>2021-05-26T08:28:40Z</time>
      </trkpt>
      <trkpt lat="41.614500" lon="2.495628">
        <ele>448.314</ele>
        <time>2021-05-26T08:28:43Z</time>
      </trkpt>
      <trkpt lat="41.614519" lon="2.495614">
        <ele>448.608</ele>
        <time>2021-05-26T08:28:45Z</time>
      </trkpt>
      <trkpt lat="41.614542" lon="2.495597">
        <ele>448.979</ele>
        <time>2021-05-26T08:28:46Z</time>
      </trkpt>
      <trkpt lat="41.614564" lon="2.495583">
        <ele>449.276</ele>
        <time>2021-05-26T08:28:48Z</time>
      </trkpt>
      <trkpt lat="41.614586" lon="2.495565">
        <ele>449.573</ele>
        <time>2021-05-26T08:28:50Z</time>
      </trkpt>
      <trkpt lat="41.614616" lon="2.495554">
        <ele>449.986</ele>
        <time>2021-05-26T08:28:52Z</time>
      </trkpt>
      <trkpt lat="41.614630" lon="2.495533">
        <ele>450.261</ele>
        <time>2021-05-26T08:28:54Z</time>
      </trkpt>
      <trkpt lat="41.614650" lon="2.495522">
        <ele>450.547</ele>
        <time>2021-05-26T08:28:57Z</time>
      </trkpt>
      <trkpt lat="41.614674" lon="2.495510">
        <ele>450.874</ele>
        <time>2021-05-26T08:28:59Z</time>
      </trkpt>
      <trkpt lat="41.614691" lon="2.495496">
        <ele>451.141</ele>
        <time>2021-05-26T08:29:01Z</time>
      </trkpt>
      <trkpt lat="41.614724" lon="2.495479">
        <ele>451.693</ele>
        <time>2021-05-26T08:29:04Z</time>
      </trkpt>
      <trkpt lat="41.614827" lon="2.495442">
        <ele>453.565</ele>
        <time>2021-05-26T08:29:12Z</time>
      </trkpt>
      <trkpt lat="41.614874" lon="2.495429">
        <ele>454.321</ele>
        <time>2021-05-26T08:29:15Z</time>
      </trkpt>
      <trkpt lat="41.614962" lon="2.495378">
        <ele>456.308</ele>
        <time>2021-05-26T08:29:22Z</time>
      </trkpt>
      <trkpt lat="41.615014" lon="2.495390">
        <ele>457.136</ele>
        <time>2021-05-26T08:29:24Z</time>
      </trkpt>
      <trkpt lat="41.615036" lon="2.495398">
        <ele>457.623</ele>
        <time>2021-05-26T08:29:25Z</time>
      </trkpt>
      <trkpt lat="41.615056" lon="2.495407">
        <ele>458.090</ele>
        <time>2021-05-26T08:29:27Z</time>
      </trkpt>
      <trkpt lat="41.615076" lon="2.495421">
        <ele>458.453</ele>
        <time>2021-05-26T08:29:28Z</time>
      </trkpt>
      <trkpt lat="41.615105" lon="2.495443">
        <ele>458.958</ele>
        <time>2021-05-26T08:29:30Z</time>
      </trkpt>
      <trkpt lat="41.615132" lon="2.495471">
        <ele>459.284</ele>
        <time>2021-05-26T08:29:32Z</time>
      </trkpt>
      <trkpt lat="41.615159" lon="2.495499">
        <ele>459.671</ele>
        <time>2021-05-26T08:29:34Z</time>
      </trkpt>
      <trkpt lat="41.615184" lon="2.495523">
        <ele>460.098</ele>
        <time>2021-05-26T08:29:36Z</time>
      </trkpt>
      <trkpt lat="41.615201" lon="2.495544">
        <ele>460.283</ele>
        <time>2021-05-26T08:29:38Z</time>
      </trkpt>
      <trkpt lat="41.615215" lon="2.495565">
        <ele>460.425</ele>
        <time>2021-05-26T08:29:39Z</time>
      </trkpt>
      <trkpt lat="41.615234" lon="2.495583">
        <ele>460.717</ele>
        <time>2021-05-26T08:29:42Z</time>
      </trkpt>
      <trkpt lat="41.615282" lon="2.495643">
        <ele>461.508</ele>
        <time>2021-05-26T08:29:47Z</time>
      </trkpt>
      <trkpt lat="41.615315" lon="2.495733">
        <ele>461.735</ele>
        <time>2021-05-26T08:29:53Z</time>
      </trkpt>
      <trkpt lat="41.615325" lon="2.495763">
        <ele>461.762</ele>
        <time>2021-05-26T08:29:55Z</time>
      </trkpt>
      <trkpt lat="41.615341" lon="2.495784">
        <ele>461.949</ele>
        <time>2021-05-26T08:29:56Z</time>
      </trkpt>
      <trkpt lat="41.615366" lon="2.495804">
        <ele>462.482</ele>
        <time>2021-05-26T08:29:57Z</time>
      </trkpt>
      <trkpt lat="41.615383" lon="2.495840">
        <ele>462.687</ele>
        <time>2021-05-26T08:29:59Z</time>
      </trkpt>
      <trkpt lat="41.615397" lon="2.495868">
        <ele>462.733</ele>
        <time>2021-05-26T08:30:01Z</time>
      </trkpt>
      <trkpt lat="41.615411" lon="2.495898">
        <ele>462.950</ele>
        <time>2021-05-26T08:30:03Z</time>
      </trkpt>
      <trkpt lat="41.615429" lon="2.495935">
        <ele>463.137</ele>
        <time>2021-05-26T08:30:05Z</time>
      </trkpt>
      <trkpt lat="41.615443" lon="2.495962">
        <ele>463.399</ele>
        <time>2021-05-26T08:30:06Z</time>
      </trkpt>
      <trkpt lat="41.615450" lon="2.495991">
        <ele>463.307</ele>
        <time>2021-05-26T08:30:08Z</time>
      </trkpt>
      <trkpt lat="41.615460" lon="2.496023">
        <ele>463.427</ele>
        <time>2021-05-26T08:30:10Z</time>
      </trkpt>
      <trkpt lat="41.615469" lon="2.496052">
        <ele>463.508</ele>
        <time>2021-05-26T08:30:12Z</time>
      </trkpt>
      <trkpt lat="41.615475" lon="2.496086">
        <ele>463.596</ele>
        <time>2021-05-26T08:30:15Z</time>
      </trkpt>
      <trkpt lat="41.615480" lon="2.496116">
        <ele>463.573</ele>
        <time>2021-05-26T08:30:16Z</time>
      </trkpt>
      <trkpt lat="41.615489" lon="2.496152">
        <ele>463.850</ele>
        <time>2021-05-26T08:30:19Z</time>
      </trkpt>
      <trkpt lat="41.615498" lon="2.496174">
        <ele>464.193</ele>
        <time>2021-05-26T08:30:20Z</time>
      </trkpt>
      <trkpt lat="41.615506" lon="2.496206">
        <ele>464.388</ele>
        <time>2021-05-26T08:30:21Z</time>
      </trkpt>
      <trkpt lat="41.615513" lon="2.496236">
        <ele>464.634</ele>
        <time>2021-05-26T08:30:23Z</time>
      </trkpt>
      <trkpt lat="41.615522" lon="2.496263">
        <ele>464.881</ele>
        <time>2021-05-26T08:30:25Z</time>
      </trkpt>
      <trkpt lat="41.615530" lon="2.496294">
        <ele>465.118</ele>
        <time>2021-05-26T08:30:27Z</time>
      </trkpt>
      <trkpt lat="41.615540" lon="2.496325">
        <ele>465.598</ele>
        <time>2021-05-26T08:30:30Z</time>
      </trkpt>
      <trkpt lat="41.615557" lon="2.496355">
        <ele>466.015</ele>
        <time>2021-05-26T08:30:32Z</time>
      </trkpt>
      <trkpt lat="41.615580" lon="2.496388">
        <ele>466.526</ele>
        <time>2021-05-26T08:30:34Z</time>
      </trkpt>
      <trkpt lat="41.615596" lon="2.496425">
        <ele>466.708</ele>
        <time>2021-05-26T08:30:36Z</time>
      </trkpt>
      <trkpt lat="41.615605" lon="2.496447">
        <ele>466.946</ele>
        <time>2021-05-26T08:30:37Z</time>
      </trkpt>
      <trkpt lat="41.615629" lon="2.496478">
        <ele>467.333</ele>
        <time>2021-05-26T08:30:38Z</time>
      </trkpt>
      <trkpt lat="41.615652" lon="2.496512">
        <ele>467.640</ele>
        <time>2021-05-26T08:30:40Z</time>
      </trkpt>
      <trkpt lat="41.615672" lon="2.496543">
        <ele>468.053</ele>
        <time>2021-05-26T08:30:42Z</time>
      </trkpt>
      <trkpt lat="41.615694" lon="2.496577">
        <ele>468.318</ele>
        <time>2021-05-26T08:30:45Z</time>
      </trkpt>
      <trkpt lat="41.615712" lon="2.496608">
        <ele>468.654</ele>
        <time>2021-05-26T08:30:47Z</time>
      </trkpt>
      <trkpt lat="41.615728" lon="2.496639">
        <ele>468.811</ele>
        <time>2021-05-26T08:30:48Z</time>
      </trkpt>
      <trkpt lat="41.615742" lon="2.496662">
        <ele>469.098</ele>
        <time>2021-05-26T08:30:51Z</time>
      </trkpt>
      <trkpt lat="41.615760" lon="2.496695">
        <ele>469.147</ele>
        <time>2021-05-26T08:30:52Z</time>
      </trkpt>
      <trkpt lat="41.615777" lon="2.496724">
        <ele>469.129</ele>
        <time>2021-05-26T08:30:54Z</time>
      </trkpt>
      <trkpt lat="41.615791" lon="2.496752">
        <ele>469.121</ele>
        <time>2021-05-26T08:30:57Z</time>
      </trkpt>
      <trkpt lat="41.615807" lon="2.496773">
        <ele>469.208</ele>
        <time>2021-05-26T08:30:59Z</time>
      </trkpt>
      <trkpt lat="41.615828" lon="2.496790">
        <ele>469.531</ele>
        <time>2021-05-26T08:31:01Z</time>
      </trkpt>
      <trkpt lat="41.615858" lon="2.496804">
        <ele>469.668</ele>
        <time>2021-05-26T08:31:02Z</time>
      </trkpt>
      <trkpt lat="41.615885" lon="2.496812">
        <ele>469.765</ele>
        <time>2021-05-26T08:31:04Z</time>
      </trkpt>
      <trkpt lat="41.615906" lon="2.496810">
        <ele>469.818</ele>
        <time>2021-05-26T08:31:07Z</time>
      </trkpt>
      <trkpt lat="41.615925" lon="2.496801">
        <ele>470.153</ele>
        <time>2021-05-26T08:31:08Z</time>
      </trkpt>
      <trkpt lat="41.615947" lon="2.496792">
        <ele>470.359</ele>
        <time>2021-05-26T08:31:11Z</time>
      </trkpt>
      <trkpt lat="41.615976" lon="2.496782">
        <ele>470.616</ele>
        <time>2021-05-26T08:31:13Z</time>
      </trkpt>
      <trkpt lat="41.616004" lon="2.496770">
        <ele>470.913</ele>
        <time>2021-05-26T08:31:14Z</time>
      </trkpt>
      <trkpt lat="41.616028" lon="2.496754">
        <ele>471.276</ele>
        <time>2021-05-26T08:31:16Z</time>
      </trkpt>
      <trkpt lat="41.616048" lon="2.496736">
        <ele>471.690</ele>
        <time>2021-05-26T08:31:18Z</time>
      </trkpt>
      <trkpt lat="41.616071" lon="2.496721">
        <ele>472.019</ele>
        <time>2021-05-26T08:31:21Z</time>
      </trkpt>
      <trkpt lat="41.616088" lon="2.496703">
        <ele>472.308</ele>
        <time>2021-05-26T08:31:23Z</time>
      </trkpt>
      <trkpt lat="41.616106" lon="2.496682">
        <ele>472.744</ele>
        <time>2021-05-26T08:31:24Z</time>
      </trkpt>
      <trkpt lat="41.616126" lon="2.496660">
        <ele>473.141</ele>
        <time>2021-05-26T08:31:26Z</time>
      </trkpt>
      <trkpt lat="41.616143" lon="2.496636">
        <ele>473.478</ele>
        <time>2021-05-26T08:31:29Z</time>
      </trkpt>
      <trkpt lat="41.616165" lon="2.496613">
        <ele>473.631</ele>
        <time>2021-05-26T08:31:31Z</time>
      </trkpt>
      <trkpt lat="41.616183" lon="2.496586">
        <ele>473.966</ele>
        <time>2021-05-26T08:31:33Z</time>
      </trkpt>
      <trkpt lat="41.616202" lon="2.496556">
        <ele>474.242</ele>
        <time>2021-05-26T08:31:34Z</time>
      </trkpt>
      <trkpt lat="41.616220" lon="2.496524">
        <ele>474.559</ele>
        <time>2021-05-26T08:31:36Z</time>
      </trkpt>
      <trkpt lat="41.616237" lon="2.496494">
        <ele>474.826</ele>
        <time>2021-05-26T08:31:38Z</time>
      </trkpt>
      <trkpt lat="41.616251" lon="2.496463">
        <ele>475.126</ele>
        <time>2021-05-26T08:31:40Z</time>
      </trkpt>
      <trkpt lat="41.616268" lon="2.496434">
        <ele>475.447</ele>
        <time>2021-05-26T08:31:43Z</time>
      </trkpt>
      <trkpt lat="41.616281" lon="2.496404">
        <ele>475.711</ele>
        <time>2021-05-26T08:31:44Z</time>
      </trkpt>
      <trkpt lat="41.616294" lon="2.496374">
        <ele>476.108</ele>
        <time>2021-05-26T08:31:47Z</time>
      </trkpt>
      <trkpt lat="41.616305" lon="2.496346">
        <ele>476.459</ele>
        <time>2021-05-26T08:31:49Z</time>
      </trkpt>
      <trkpt lat="41.616311" lon="2.496315">
        <ele>476.716</ele>
        <time>2021-05-26T08:31:51Z</time>
      </trkpt>
      <trkpt lat="41.616319" lon="2.496285">
        <ele>477.053</ele>
        <time>2021-05-26T08:31:52Z</time>
      </trkpt>
      <trkpt lat="41.616328" lon="2.496250">
        <ele>477.346</ele>
        <time>2021-05-26T08:31:54Z</time>
      </trkpt>
      <trkpt lat="41.616337" lon="2.496211">
        <ele>477.781</ele>
        <time>2021-05-26T08:31:57Z</time>
      </trkpt>
      <trkpt lat="41.616344" lon="2.496171">
        <ele>478.157</ele>
        <time>2021-05-26T08:31:59Z</time>
      </trkpt>
      <trkpt lat="41.616354" lon="2.496134">
        <ele>478.564</ele>
        <time>2021-05-26T08:32:01Z</time>
      </trkpt>
      <trkpt lat="41.616361" lon="2.496103">
        <ele>478.881</ele>
        <time>2021-05-26T08:32:02Z</time>
      </trkpt>
      <trkpt lat="41.616364" lon="2.496064">
        <ele>479.157</ele>
        <time>2021-05-26T08:32:04Z</time>
      </trkpt>
      <trkpt lat="41.616362" lon="2.496025">
        <ele>479.400</ele>
        <time>2021-05-26T08:32:07Z</time>
      </trkpt>
      <trkpt lat="41.616361" lon="2.495989">
        <ele>479.620</ele>
        <time>2021-05-26T08:32:09Z</time>
      </trkpt>
      <trkpt lat="41.616360" lon="2.495951">
        <ele>479.908</ele>
        <time>2021-05-26T08:32:10Z</time>
      </trkpt>
      <trkpt lat="41.616359" lon="2.495907">
        <ele>480.242</ele>
        <time>2021-05-26T08:32:12Z</time>
      </trkpt>
      <trkpt lat="41.616359" lon="2.495865">
        <ele>480.599</ele>
        <time>2021-05-26T08:32:14Z</time>
      </trkpt>
      <trkpt lat="41.616359" lon="2.495830">
        <ele>480.866</ele>
        <time>2021-05-26T08:32:17Z</time>
      </trkpt>
      <trkpt lat="41.616357" lon="2.495789">
        <ele>480.969</ele>
        <time>2021-05-26T08:32:19Z</time>
      </trkpt>
      <trkpt lat="41.616355" lon="2.495750">
        <ele>481.144</ele>
        <time>2021-05-26T08:32:20Z</time>
      </trkpt>
      <trkpt lat="41.616355" lon="2.495721">
        <ele>481.210</ele>
        <time>2021-05-26T08:32:23Z</time>
      </trkpt>
      <trkpt lat="41.616357" lon="2.495695">
        <ele>481.337</ele>
        <time>2021-05-26T08:32:24Z</time>
      </trkpt>
      <trkpt lat="41.616356" lon="2.495659">
        <ele>481.484</ele>
        <time>2021-05-26T08:32:27Z</time>
      </trkpt>
      <trkpt lat="41.616363" lon="2.495626">
        <ele>481.615</ele>
        <time>2021-05-26T08:32:29Z</time>
      </trkpt>
      <trkpt lat="41.616369" lon="2.495595">
        <ele>481.765</ele>
        <time>2021-05-26T08:32:31Z</time>
      </trkpt>
      <trkpt lat="41.616382" lon="2.495560">
        <ele>481.911</ele>
        <time>2021-05-26T08:32:33Z</time>
      </trkpt>
      <trkpt lat="41.616401" lon="2.495526">
        <ele>481.908</ele>
        <time>2021-05-26T08:32:34Z</time>
      </trkpt>
      <trkpt lat="41.616423" lon="2.495496">
        <ele>481.788</ele>
        <time>2021-05-26T08:32:36Z</time>
      </trkpt>
      <trkpt lat="41.616452" lon="2.495476">
        <ele>481.645</ele>
        <time>2021-05-26T08:32:39Z</time>
      </trkpt>
      <trkpt lat="41.616482" lon="2.495461">
        <ele>481.482</ele>
        <time>2021-05-26T08:32:41Z</time>
      </trkpt>
      <trkpt lat="41.616500" lon="2.495457">
        <ele>481.415</ele>
        <time>2021-05-26T08:32:42Z</time>
      </trkpt>
      <trkpt lat="41.616533" lon="2.495453">
        <ele>481.350</ele>
        <time>2021-05-26T08:32:43Z</time>
      </trkpt>
      <trkpt lat="41.616566" lon="2.495453">
        <ele>481.226</ele>
        <time>2021-05-26T08:32:46Z</time>
      </trkpt>
      <trkpt lat="41.616622" lon="2.495465">
        <ele>481.113</ele>
        <time>2021-05-26T08:32:48Z</time>
      </trkpt>
      <trkpt lat="41.616646" lon="2.495476">
        <ele>481.110</ele>
        <time>2021-05-26T08:32:49Z</time>
      </trkpt>
      <trkpt lat="41.616670" lon="2.495484">
        <ele>481.028</ele>
        <time>2021-05-26T08:32:51Z</time>
      </trkpt>
      <trkpt lat="41.616695" lon="2.495494">
        <ele>481.089</ele>
        <time>2021-05-26T08:32:52Z</time>
      </trkpt>
      <trkpt lat="41.616720" lon="2.495502">
        <ele>481.017</ele>
        <time>2021-05-26T08:32:53Z</time>
      </trkpt>
      <trkpt lat="41.616744" lon="2.495508">
        <ele>481.008</ele>
        <time>2021-05-26T08:32:54Z</time>
      </trkpt>
      <trkpt lat="41.616795" lon="2.495521">
        <ele>480.969</ele>
        <time>2021-05-26T08:32:55Z</time>
      </trkpt>
      <trkpt lat="41.616820" lon="2.495531">
        <ele>481.036</ele>
        <time>2021-05-26T08:32:56Z</time>
      </trkpt>
      <trkpt lat="41.616845" lon="2.495539">
        <ele>481.063</ele>
        <time>2021-05-26T08:32:58Z</time>
      </trkpt>
      <trkpt lat="41.616870" lon="2.495548">
        <ele>481.086</ele>
        <time>2021-05-26T08:32:59Z</time>
      </trkpt>
      <trkpt lat="41.616896" lon="2.495558">
        <ele>481.051</ele>
        <time>2021-05-26T08:33:00Z</time>
      </trkpt>
      <trkpt lat="41.616919" lon="2.495566">
        <ele>481.057</ele>
        <time>2021-05-26T08:33:01Z</time>
      </trkpt>
      <trkpt lat="41.616943" lon="2.495573">
        <ele>481.114</ele>
        <time>2021-05-26T08:33:02Z</time>
      </trkpt>
      <trkpt lat="41.616969" lon="2.495582">
        <ele>481.451</ele>
        <time>2021-05-26T08:33:03Z</time>
      </trkpt>
      <trkpt lat="41.616995" lon="2.495592">
        <ele>481.738</ele>
        <time>2021-05-26T08:33:04Z</time>
      </trkpt>
      <trkpt lat="41.617021" lon="2.495604">
        <ele>482.070</ele>
        <time>2021-05-26T08:33:05Z</time>
      </trkpt>
      <trkpt lat="41.617046" lon="2.495614">
        <ele>482.417</ele>
        <time>2021-05-26T08:33:06Z</time>
      </trkpt>
      <trkpt lat="41.617072" lon="2.495621">
        <ele>482.708</ele>
        <time>2021-05-26T08:33:07Z</time>
      </trkpt>
      <trkpt lat="41.617123" lon="2.495642">
        <ele>483.480</ele>
        <time>2021-05-26T08:33:08Z</time>
      </trkpt>
      <trkpt lat="41.617174" lon="2.495659">
        <ele>484.227</ele>
        <time>2021-05-26T08:33:10Z</time>
      </trkpt>
      <trkpt lat="41.617200" lon="2.495664">
        <ele>484.564</ele>
        <time>2021-05-26T08:33:12Z</time>
      </trkpt>
      <trkpt lat="41.617253" lon="2.495670">
        <ele>485.447</ele>
        <time>2021-05-26T08:33:13Z</time>
      </trkpt>
      <trkpt lat="41.617280" lon="2.495674">
        <ele>485.912</ele>
        <time>2021-05-26T08:33:15Z</time>
      </trkpt>
      <trkpt lat="41.617331" lon="2.495671">
        <ele>486.848</ele>
        <time>2021-05-26T08:33:16Z</time>
      </trkpt>
      <trkpt lat="41.617357" lon="2.495669">
        <ele>487.245</ele>
        <time>2021-05-26T08:33:17Z</time>
      </trkpt>
      <trkpt lat="41.617384" lon="2.495668">
        <ele>487.752</ele>
        <time>2021-05-26T08:33:19Z</time>
      </trkpt>
      <trkpt lat="41.617407" lon="2.495664">
        <ele>488.142</ele>
        <time>2021-05-26T08:33:20Z</time>
      </trkpt>
      <trkpt lat="41.617429" lon="2.495663">
        <ele>488.522</ele>
        <time>2021-05-26T08:33:21Z</time>
      </trkpt>
      <trkpt lat="41.617449" lon="2.495665">
        <ele>488.914</ele>
        <time>2021-05-26T08:33:22Z</time>
      </trkpt>
      <trkpt lat="41.617471" lon="2.495666">
        <ele>489.308</ele>
        <time>2021-05-26T08:33:23Z</time>
      </trkpt>
      <trkpt lat="41.617521" lon="2.495663">
        <ele>489.951</ele>
        <time>2021-05-26T08:33:24Z</time>
      </trkpt>
      <trkpt lat="41.617559" lon="2.495659">
        <ele>490.298</ele>
        <time>2021-05-26T08:33:26Z</time>
      </trkpt>
      <trkpt lat="41.617580" lon="2.495653">
        <ele>490.345</ele>
        <time>2021-05-26T08:33:27Z</time>
      </trkpt>
      <trkpt lat="41.617599" lon="2.495649">
        <ele>490.488</ele>
        <time>2021-05-26T08:33:28Z</time>
      </trkpt>
      <trkpt lat="41.617620" lon="2.495645">
        <ele>490.583</ele>
        <time>2021-05-26T08:33:29Z</time>
      </trkpt>
      <trkpt lat="41.617642" lon="2.495640">
        <ele>490.669</ele>
        <time>2021-05-26T08:33:30Z</time>
      </trkpt>
      <trkpt lat="41.617665" lon="2.495639">
        <ele>490.826</ele>
        <time>2021-05-26T08:33:31Z</time>
      </trkpt>
      <trkpt lat="41.617697" lon="2.495645">
        <ele>491.173</ele>
        <time>2021-05-26T08:33:34Z</time>
      </trkpt>
      <trkpt lat="41.617791" lon="2.495668">
        <ele>491.948</ele>
        <time>2021-05-26T08:33:38Z</time>
      </trkpt>
      <trkpt lat="41.617892" lon="2.495697">
        <ele>493.061</ele>
        <time>2021-05-26T08:33:44Z</time>
      </trkpt>
      <trkpt lat="41.617997" lon="2.495727">
        <ele>494.117</ele>
        <time>2021-05-26T08:33:49Z</time>
      </trkpt>
      <trkpt lat="41.618099" lon="2.495751">
        <ele>495.008</ele>
        <time>2021-05-26T08:33:54Z</time>
      </trkpt>
      <trkpt lat="41.618199" lon="2.495747">
        <ele>495.511</ele>
        <time>2021-05-26T08:33:59Z</time>
      </trkpt>
      <trkpt lat="41.618300" lon="2.495729">
        <ele>496.298</ele>
        <time>2021-05-26T08:34:04Z</time>
      </trkpt>
      <trkpt lat="41.618401" lon="2.495681">
        <ele>497.115</ele>
        <time>2021-05-26T08:34:10Z</time>
      </trkpt>
      <trkpt lat="41.618495" lon="2.495600">
        <ele>498.448</ele>
        <time>2021-05-26T08:34:14Z</time>
      </trkpt>
      <trkpt lat="41.618566" lon="2.495523">
        <ele>499.963</ele>
        <time>2021-05-26T08:34:18Z</time>
      </trkpt>
      <trkpt lat="41.618631" lon="2.495451">
        <ele>501.059</ele>
        <time>2021-05-26T08:34:21Z</time>
      </trkpt>
      <trkpt lat="41.618657" lon="2.495425">
        <ele>501.126</ele>
        <time>2021-05-26T08:34:22Z</time>
      </trkpt>
      <trkpt lat="41.618679" lon="2.495403">
        <ele>501.213</ele>
        <time>2021-05-26T08:34:23Z</time>
      </trkpt>
      <trkpt lat="41.618698" lon="2.495381">
        <ele>501.393</ele>
        <time>2021-05-26T08:34:24Z</time>
      </trkpt>
      <trkpt lat="41.618714" lon="2.495355">
        <ele>501.465</ele>
        <time>2021-05-26T08:34:25Z</time>
      </trkpt>
      <trkpt lat="41.618732" lon="2.495336">
        <ele>501.521</ele>
        <time>2021-05-26T08:34:26Z</time>
      </trkpt>
      <trkpt lat="41.618748" lon="2.495318">
        <ele>501.608</ele>
        <time>2021-05-26T08:34:27Z</time>
      </trkpt>
      <trkpt lat="41.618765" lon="2.495301">
        <ele>501.676</ele>
        <time>2021-05-26T08:34:28Z</time>
      </trkpt>
      <trkpt lat="41.618783" lon="2.495281">
        <ele>501.793</ele>
        <time>2021-05-26T08:34:29Z</time>
      </trkpt>
      <trkpt lat="41.618799" lon="2.495259">
        <ele>501.890</ele>
        <time>2021-05-26T08:34:30Z</time>
      </trkpt>
      <trkpt lat="41.618818" lon="2.495238">
        <ele>501.993</ele>
        <time>2021-05-26T08:34:31Z</time>
      </trkpt>
      <trkpt lat="41.618830" lon="2.495217">
        <ele>502.098</ele>
        <time>2021-05-26T08:34:32Z</time>
      </trkpt>
      <trkpt lat="41.618846" lon="2.495194">
        <ele>502.264</ele>
        <time>2021-05-26T08:34:33Z</time>
      </trkpt>
      <trkpt lat="41.618863" lon="2.495176">
        <ele>502.341</ele>
        <time>2021-05-26T08:34:34Z</time>
      </trkpt>
      <trkpt lat="41.618880" lon="2.495159">
        <ele>502.358</ele>
        <time>2021-05-26T08:34:35Z</time>
      </trkpt>
      <trkpt lat="41.618895" lon="2.495140">
        <ele>502.475</ele>
        <time>2021-05-26T08:34:36Z</time>
      </trkpt>
      <trkpt lat="41.618913" lon="2.495124">
        <ele>502.428</ele>
        <time>2021-05-26T08:34:37Z</time>
      </trkpt>
      <trkpt lat="41.618995" lon="2.495064">
        <ele>502.320</ele>
        <time>2021-05-26T08:34:41Z</time>
      </trkpt>
      <trkpt lat="41.619085" lon="2.495050">
        <ele>501.508</ele>
        <time>2021-05-26T08:34:45Z</time>
      </trkpt>
      <trkpt lat="41.619112" lon="2.495047">
        <ele>501.214</ele>
        <time>2021-05-26T08:34:46Z</time>
      </trkpt>
      <trkpt lat="41.619158" lon="2.495057">
        <ele>500.741</ele>
        <time>2021-05-26T08:34:48Z</time>
      </trkpt>
      <trkpt lat="41.619179" lon="2.495064">
        <ele>500.448</ele>
        <time>2021-05-26T08:34:49Z</time>
      </trkpt>
      <trkpt lat="41.619203" lon="2.495070">
        <ele>500.161</ele>
        <time>2021-05-26T08:34:50Z</time>
      </trkpt>
      <trkpt lat="41.619229" lon="2.495077">
        <ele>499.816</ele>
        <time>2021-05-26T08:34:51Z</time>
      </trkpt>
      <trkpt lat="41.619254" lon="2.495085">
        <ele>499.522</ele>
        <time>2021-05-26T08:34:52Z</time>
      </trkpt>
      <trkpt lat="41.619282" lon="2.495095">
        <ele>499.229</ele>
        <time>2021-05-26T08:34:53Z</time>
      </trkpt>
      <trkpt lat="41.619305" lon="2.495100">
        <ele>499.026</ele>
        <time>2021-05-26T08:34:54Z</time>
      </trkpt>
      <trkpt lat="41.619330" lon="2.495112">
        <ele>498.783</ele>
        <time>2021-05-26T08:34:55Z</time>
      </trkpt>
      <trkpt lat="41.619350" lon="2.495126">
        <ele>498.425</ele>
        <time>2021-05-26T08:34:56Z</time>
      </trkpt>
      <trkpt lat="41.619368" lon="2.495139">
        <ele>498.217</ele>
        <time>2021-05-26T08:34:57Z</time>
      </trkpt>
      <trkpt lat="41.619391" lon="2.495152">
        <ele>497.908</ele>
        <time>2021-05-26T08:34:58Z</time>
      </trkpt>
      <trkpt lat="41.619415" lon="2.495162">
        <ele>497.735</ele>
        <time>2021-05-26T08:34:59Z</time>
      </trkpt>
      <trkpt lat="41.619435" lon="2.495173">
        <ele>497.582</ele>
        <time>2021-05-26T08:35:00Z</time>
      </trkpt>
      <trkpt lat="41.619452" lon="2.495185">
        <ele>497.429</ele>
        <time>2021-05-26T08:35:01Z</time>
      </trkpt>
      <trkpt lat="41.619484" lon="2.495201">
        <ele>497.412</ele>
        <time>2021-05-26T08:35:03Z</time>
      </trkpt>
      <trkpt lat="41.619503" lon="2.495214">
        <ele>497.557</ele>
        <time>2021-05-26T08:35:04Z</time>
      </trkpt>
      <trkpt lat="41.619522" lon="2.495231">
        <ele>497.673</ele>
        <time>2021-05-26T08:35:05Z</time>
      </trkpt>
      <trkpt lat="41.619563" lon="2.495260">
        <ele>497.850</ele>
        <time>2021-05-26T08:35:06Z</time>
      </trkpt>
      <trkpt lat="41.619588" lon="2.495274">
        <ele>498.077</ele>
        <time>2021-05-26T08:35:07Z</time>
      </trkpt>
      <trkpt lat="41.619639" lon="2.495297">
        <ele>498.447</ele>
        <time>2021-05-26T08:35:09Z</time>
      </trkpt>
      <trkpt lat="41.619680" lon="2.495320">
        <ele>498.729</ele>
        <time>2021-05-26T08:35:11Z</time>
      </trkpt>
      <trkpt lat="41.619701" lon="2.495339">
        <ele>498.821</ele>
        <time>2021-05-26T08:35:12Z</time>
      </trkpt>
      <trkpt lat="41.619726" lon="2.495355">
        <ele>499.108</ele>
        <time>2021-05-26T08:35:14Z</time>
      </trkpt>
      <trkpt lat="41.619752" lon="2.495365">
        <ele>499.621</ele>
        <time>2021-05-26T08:35:15Z</time>
      </trkpt>
      <trkpt lat="41.619775" lon="2.495377">
        <ele>500.148</ele>
        <time>2021-05-26T08:35:16Z</time>
      </trkpt>
      <trkpt lat="41.619798" lon="2.495385">
        <ele>500.635</ele>
        <time>2021-05-26T08:35:17Z</time>
      </trkpt>
      <trkpt lat="41.619822" lon="2.495390">
        <ele>501.258</ele>
        <time>2021-05-26T08:35:18Z</time>
      </trkpt>
      <trkpt lat="41.619842" lon="2.495396">
        <ele>501.643</ele>
        <time>2021-05-26T08:35:19Z</time>
      </trkpt>
      <trkpt lat="41.619874" lon="2.495418">
        <ele>502.389</ele>
        <time>2021-05-26T08:35:21Z</time>
      </trkpt>
      <trkpt lat="41.619905" lon="2.495450">
        <ele>502.936</ele>
        <time>2021-05-26T08:35:22Z</time>
      </trkpt>
      <trkpt lat="41.619934" lon="2.495473">
        <ele>503.653</ele>
        <time>2021-05-26T08:35:25Z</time>
      </trkpt>
      <trkpt lat="41.619953" lon="2.495473">
        <ele>504.094</ele>
        <time>2021-05-26T08:35:26Z</time>
      </trkpt>
      <trkpt lat="41.619984" lon="2.495476">
        <ele>504.757</ele>
        <time>2021-05-26T08:35:27Z</time>
      </trkpt>
      <trkpt lat="41.620002" lon="2.495469">
        <ele>505.022</ele>
        <time>2021-05-26T08:35:28Z</time>
      </trkpt>
      <trkpt lat="41.620020" lon="2.495459">
        <ele>505.508</ele>
        <time>2021-05-26T08:35:29Z</time>
      </trkpt>
      <trkpt lat="41.620039" lon="2.495446">
        <ele>505.946</ele>
        <time>2021-05-26T08:35:30Z</time>
      </trkpt>
      <trkpt lat="41.620057" lon="2.495430">
        <ele>506.323</ele>
        <time>2021-05-26T08:35:31Z</time>
      </trkpt>
      <trkpt lat="41.620081" lon="2.495400">
        <ele>506.960</ele>
        <time>2021-05-26T08:35:33Z</time>
      </trkpt>
      <trkpt lat="41.620103" lon="2.495371">
        <ele>507.583</ele>
        <time>2021-05-26T08:35:35Z</time>
      </trkpt>
      <trkpt lat="41.620126" lon="2.495356">
        <ele>508.028</ele>
        <time>2021-05-26T08:35:38Z</time>
      </trkpt>
      <trkpt lat="41.620147" lon="2.495334">
        <ele>508.674</ele>
        <time>2021-05-26T08:35:40Z</time>
      </trkpt>
      <trkpt lat="41.620169" lon="2.495304">
        <ele>509.211</ele>
        <time>2021-05-26T08:35:42Z</time>
      </trkpt>
      <trkpt lat="41.620190" lon="2.495274">
        <ele>509.858</ele>
        <time>2021-05-26T08:35:44Z</time>
      </trkpt>
      <trkpt lat="41.620211" lon="2.495241">
        <ele>510.173</ele>
        <time>2021-05-26T08:35:46Z</time>
      </trkpt>
      <trkpt lat="41.620238" lon="2.495215">
        <ele>510.585</ele>
        <time>2021-05-26T08:35:47Z</time>
      </trkpt>
      <trkpt lat="41.620264" lon="2.495202">
        <ele>511.113</ele>
        <time>2021-05-26T08:35:50Z</time>
      </trkpt>
      <trkpt lat="41.620287" lon="2.495200">
        <ele>511.608</ele>
        <time>2021-05-26T08:35:51Z</time>
      </trkpt>
      <trkpt lat="41.620307" lon="2.495202">
        <ele>511.894</ele>
        <time>2021-05-26T08:35:54Z</time>
      </trkpt>
      <trkpt lat="41.620336" lon="2.495224">
        <ele>512.491</ele>
        <time>2021-05-26T08:35:57Z</time>
      </trkpt>
      <trkpt lat="41.620353" lon="2.495249">
        <ele>512.898</ele>
        <time>2021-05-26T08:35:59Z</time>
      </trkpt>
      <trkpt lat="41.620368" lon="2.495282">
        <ele>513.311</ele>
        <time>2021-05-26T08:36:01Z</time>
      </trkpt>
      <trkpt lat="41.620380" lon="2.495303">
        <ele>513.496</ele>
        <time>2021-05-26T08:36:03Z</time>
      </trkpt>
      <trkpt lat="41.620400" lon="2.495318">
        <ele>513.782</ele>
        <time>2021-05-26T08:36:06Z</time>
      </trkpt>
      <trkpt lat="41.620416" lon="2.495335">
        <ele>513.929</ele>
        <time>2021-05-26T08:36:07Z</time>
      </trkpt>
      <trkpt lat="41.620437" lon="2.495349">
        <ele>514.276</ele>
        <time>2021-05-26T08:36:11Z</time>
      </trkpt>
      <trkpt lat="41.620462" lon="2.495360">
        <ele>514.642</ele>
        <time>2021-05-26T08:36:13Z</time>
      </trkpt>
      <trkpt lat="41.620484" lon="2.495369">
        <ele>514.922</ele>
        <time>2021-05-26T08:36:15Z</time>
      </trkpt>
      <trkpt lat="41.620512" lon="2.495378">
        <ele>515.314</ele>
        <time>2021-05-26T08:36:17Z</time>
      </trkpt>
      <trkpt lat="41.620534" lon="2.495383">
        <ele>515.708</ele>
        <time>2021-05-26T08:36:18Z</time>
      </trkpt>
      <trkpt lat="41.620556" lon="2.495386">
        <ele>516.031</ele>
        <time>2021-05-26T08:36:19Z</time>
      </trkpt>
      <trkpt lat="41.620574" lon="2.495392">
        <ele>516.128</ele>
        <time>2021-05-26T08:36:20Z</time>
      </trkpt>
      <trkpt lat="41.620591" lon="2.495402">
        <ele>516.325</ele>
        <time>2021-05-26T08:36:21Z</time>
      </trkpt>
      <trkpt lat="41.620625" lon="2.495407">
        <ele>516.688</ele>
        <time>2021-05-26T08:36:23Z</time>
      </trkpt>
      <trkpt lat="41.620642" lon="2.495417">
        <ele>516.873</ele>
        <time>2021-05-26T08:36:24Z</time>
      </trkpt>
      <trkpt lat="41.620662" lon="2.495421">
        <ele>517.089</ele>
        <time>2021-05-26T08:36:25Z</time>
      </trkpt>
      <trkpt lat="41.620683" lon="2.495427">
        <ele>517.236</ele>
        <time>2021-05-26T08:36:26Z</time>
      </trkpt>
      <trkpt lat="41.620722" lon="2.495442">
        <ele>517.813</ele>
        <time>2021-05-26T08:36:28Z</time>
      </trkpt>
      <trkpt lat="41.620744" lon="2.495448">
        <ele>518.167</ele>
        <time>2021-05-26T08:36:29Z</time>
      </trkpt>
      <trkpt lat="41.620763" lon="2.495450">
        <ele>518.381</ele>
        <time>2021-05-26T08:36:30Z</time>
      </trkpt>
      <trkpt lat="41.620785" lon="2.495457">
        <ele>518.719</ele>
        <time>2021-05-26T08:36:31Z</time>
      </trkpt>
      <trkpt lat="41.620819" lon="2.495461">
        <ele>519.108</ele>
        <time>2021-05-26T08:36:33Z</time>
      </trkpt>
      <trkpt lat="41.620852" lon="2.495479">
        <ele>519.763</ele>
        <time>2021-05-26T08:36:35Z</time>
      </trkpt>
      <trkpt lat="41.620883" lon="2.495498">
        <ele>520.290</ele>
        <time>2021-05-26T08:36:37Z</time>
      </trkpt>
      <trkpt lat="41.620906" lon="2.495503">
        <ele>520.517</ele>
        <time>2021-05-26T08:36:39Z</time>
      </trkpt>
      <trkpt lat="41.620928" lon="2.495518">
        <ele>520.960</ele>
        <time>2021-05-26T08:36:41Z</time>
      </trkpt>
      <trkpt lat="41.620962" lon="2.495531">
        <ele>521.425</ele>
        <time>2021-05-26T08:36:43Z</time>
      </trkpt>
      <trkpt lat="41.620980" lon="2.495538">
        <ele>521.731</ele>
        <time>2021-05-26T08:36:44Z</time>
      </trkpt>
      <trkpt lat="41.621014" lon="2.495545">
        <ele>522.188</ele>
        <time>2021-05-26T08:36:46Z</time>
      </trkpt>
      <trkpt lat="41.621032" lon="2.495548">
        <ele>522.395</ele>
        <time>2021-05-26T08:36:47Z</time>
      </trkpt>
      <trkpt lat="41.621049" lon="2.495558">
        <ele>522.665</ele>
        <time>2021-05-26T08:36:48Z</time>
      </trkpt>
      <trkpt lat="41.621080" lon="2.495568">
        <ele>522.968</ele>
        <time>2021-05-26T08:36:50Z</time>
      </trkpt>
      <trkpt lat="41.621107" lon="2.495583">
        <ele>523.314</ele>
        <time>2021-05-26T08:36:52Z</time>
      </trkpt>
      <trkpt lat="41.621124" lon="2.495594">
        <ele>523.508</ele>
        <time>2021-05-26T08:36:53Z</time>
      </trkpt>
      <trkpt lat="41.621154" lon="2.495604">
        <ele>523.873</ele>
        <time>2021-05-26T08:36:55Z</time>
      </trkpt>
      <trkpt lat="41.621178" lon="2.495607">
        <ele>524.010</ele>
        <time>2021-05-26T08:36:57Z</time>
      </trkpt>
      <trkpt lat="41.621205" lon="2.495615">
        <ele>524.237</ele>
        <time>2021-05-26T08:37:00Z</time>
      </trkpt>
      <trkpt lat="41.621229" lon="2.495626">
        <ele>524.520</ele>
        <time>2021-05-26T08:37:02Z</time>
      </trkpt>
      <trkpt lat="41.621251" lon="2.495634">
        <ele>524.765</ele>
        <time>2021-05-26T08:37:03Z</time>
      </trkpt>
      <trkpt lat="41.621277" lon="2.495653">
        <ele>525.011</ele>
        <time>2021-05-26T08:37:05Z</time>
      </trkpt>
      <trkpt lat="41.621299" lon="2.495670">
        <ele>525.318</ele>
        <time>2021-05-26T08:37:07Z</time>
      </trkpt>
      <trkpt lat="41.621321" lon="2.495684">
        <ele>525.525</ele>
        <time>2021-05-26T08:37:09Z</time>
      </trkpt>
      <trkpt lat="41.621333" lon="2.495701">
        <ele>525.812</ele>
        <time>2021-05-26T08:37:11Z</time>
      </trkpt>
      <trkpt lat="41.621345" lon="2.495727">
        <ele>526.032</ele>
        <time>2021-05-26T08:37:13Z</time>
      </trkpt>
      <trkpt lat="41.621361" lon="2.495758">
        <ele>526.305</ele>
        <time>2021-05-26T08:37:15Z</time>
      </trkpt>
      <trkpt lat="41.621371" lon="2.495778">
        <ele>526.508</ele>
        <time>2021-05-26T08:37:16Z</time>
      </trkpt>
      <trkpt lat="41.621377" lon="2.495807">
        <ele>526.868</ele>
        <time>2021-05-26T08:37:17Z</time>
      </trkpt>
      <trkpt lat="41.621387" lon="2.495830">
        <ele>527.065</ele>
        <time>2021-05-26T08:37:18Z</time>
      </trkpt>
      <trkpt lat="41.621398" lon="2.495853">
        <ele>526.952</ele>
        <time>2021-05-26T08:37:19Z</time>
      </trkpt>
      <trkpt lat="41.621421" lon="2.495886">
        <ele>526.855</ele>
        <time>2021-05-26T08:37:21Z</time>
      </trkpt>
      <trkpt lat="41.621446" lon="2.495902">
        <ele>526.950</ele>
        <time>2021-05-26T08:37:22Z</time>
      </trkpt>
      <trkpt lat="41.621472" lon="2.495912">
        <ele>526.936</ele>
        <time>2021-05-26T08:37:23Z</time>
      </trkpt>
      <trkpt lat="41.621496" lon="2.495922">
        <ele>527.043</ele>
        <time>2021-05-26T08:37:24Z</time>
      </trkpt>
      <trkpt lat="41.621522" lon="2.495927">
        <ele>527.130</ele>
        <time>2021-05-26T08:37:25Z</time>
      </trkpt>
      <trkpt lat="41.621546" lon="2.495928">
        <ele>527.354</ele>
        <time>2021-05-26T08:37:26Z</time>
      </trkpt>
      <trkpt lat="41.621566" lon="2.495929">
        <ele>527.456</ele>
        <time>2021-05-26T08:37:27Z</time>
      </trkpt>
      <trkpt lat="41.621589" lon="2.495934">
        <ele>527.511</ele>
        <time>2021-05-26T08:37:28Z</time>
      </trkpt>
      <trkpt lat="41.621639" lon="2.495951">
        <ele>527.608</ele>
        <time>2021-05-26T08:37:29Z</time>
      </trkpt>
      <trkpt lat="41.621660" lon="2.495959">
        <ele>527.652</ele>
        <time>2021-05-26T08:37:31Z</time>
      </trkpt>
      <trkpt lat="41.621682" lon="2.495963">
        <ele>527.859</ele>
        <time>2021-05-26T08:37:32Z</time>
      </trkpt>
      <trkpt lat="41.621700" lon="2.495975">
        <ele>527.856</ele>
        <time>2021-05-26T08:37:33Z</time>
      </trkpt>
      <trkpt lat="41.621724" lon="2.495976">
        <ele>528.199</ele>
        <time>2021-05-26T08:37:34Z</time>
      </trkpt>
      <trkpt lat="41.621749" lon="2.495972">
        <ele>528.444</ele>
        <time>2021-05-26T08:37:35Z</time>
      </trkpt>
      <trkpt lat="41.621768" lon="2.495976">
        <ele>528.620</ele>
        <time>2021-05-26T08:37:36Z</time>
      </trkpt>
      <trkpt lat="41.621852" lon="2.496024">
        <ele>528.977</ele>
        <time>2021-05-26T08:37:40Z</time>
      </trkpt>
      <trkpt lat="41.621898" lon="2.496069">
        <ele>529.074</ele>
        <time>2021-05-26T08:37:42Z</time>
      </trkpt>
      <trkpt lat="41.621919" lon="2.496095">
        <ele>528.971</ele>
        <time>2021-05-26T08:37:43Z</time>
      </trkpt>
      <trkpt lat="41.621936" lon="2.496126">
        <ele>528.741</ele>
        <time>2021-05-26T08:37:44Z</time>
      </trkpt>
      <trkpt lat="41.621958" lon="2.496155">
        <ele>528.915</ele>
        <time>2021-05-26T08:37:45Z</time>
      </trkpt>
      <trkpt lat="41.621984" lon="2.496178">
        <ele>529.308</ele>
        <time>2021-05-26T08:37:46Z</time>
      </trkpt>
      <trkpt lat="41.622009" lon="2.496199">
        <ele>529.854</ele>
        <time>2021-05-26T08:37:47Z</time>
      </trkpt>
      <trkpt lat="41.622032" lon="2.496221">
        <ele>530.141</ele>
        <time>2021-05-26T08:37:48Z</time>
      </trkpt>
      <trkpt lat="41.622053" lon="2.496246">
        <ele>530.558</ele>
        <time>2021-05-26T08:37:49Z</time>
      </trkpt>
      <trkpt lat="41.622072" lon="2.496273">
        <ele>530.781</ele>
        <time>2021-05-26T08:37:50Z</time>
      </trkpt>
      <trkpt lat="41.622094" lon="2.496299">
        <ele>531.136</ele>
        <time>2021-05-26T08:37:51Z</time>
      </trkpt>
      <trkpt lat="41.622115" lon="2.496327">
        <ele>531.432</ele>
        <time>2021-05-26T08:37:52Z</time>
      </trkpt>
      <trkpt lat="41.622136" lon="2.496358">
        <ele>531.899</ele>
        <time>2021-05-26T08:37:53Z</time>
      </trkpt>
      <trkpt lat="41.622159" lon="2.496385">
        <ele>532.246</ele>
        <time>2021-05-26T08:37:54Z</time>
      </trkpt>
      <trkpt lat="41.622177" lon="2.496411">
        <ele>532.381</ele>
        <time>2021-05-26T08:37:55Z</time>
      </trkpt>
      <trkpt lat="41.622195" lon="2.496444">
        <ele>532.261</ele>
        <time>2021-05-26T08:37:56Z</time>
      </trkpt>
      <trkpt lat="41.622219" lon="2.496472">
        <ele>532.417</ele>
        <time>2021-05-26T08:37:57Z</time>
      </trkpt>
      <trkpt lat="41.622259" lon="2.496522">
        <ele>532.108</ele>
        <time>2021-05-26T08:37:58Z</time>
      </trkpt>
      <trkpt lat="41.622278" lon="2.496544">
        <ele>532.075</ele>
        <time>2021-05-26T08:38:00Z</time>
      </trkpt>
      <trkpt lat="41.622295" lon="2.496568">
        <ele>531.892</ele>
        <time>2021-05-26T08:38:01Z</time>
      </trkpt>
      <trkpt lat="41.622312" lon="2.496592">
        <ele>531.679</ele>
        <time>2021-05-26T08:38:02Z</time>
      </trkpt>
      <trkpt lat="41.622330" lon="2.496617">
        <ele>531.462</ele>
        <time>2021-05-26T08:38:03Z</time>
      </trkpt>
      <trkpt lat="41.622346" lon="2.496640">
        <ele>531.367</ele>
        <time>2021-05-26T08:38:04Z</time>
      </trkpt>
      <trkpt lat="41.622361" lon="2.496667">
        <ele>531.013</ele>
        <time>2021-05-26T08:38:05Z</time>
      </trkpt>
      <trkpt lat="41.622373" lon="2.496696">
        <ele>530.960</ele>
        <time>2021-05-26T08:38:06Z</time>
      </trkpt>
      <trkpt lat="41.622381" lon="2.496722">
        <ele>530.897</ele>
        <time>2021-05-26T08:38:07Z</time>
      </trkpt>
      <trkpt lat="41.622389" lon="2.496747">
        <ele>530.875</ele>
        <time>2021-05-26T08:38:08Z</time>
      </trkpt>
      <trkpt lat="41.622397" lon="2.496776">
        <ele>530.728</ele>
        <time>2021-05-26T08:38:09Z</time>
      </trkpt>
      <trkpt lat="41.622414" lon="2.496798">
        <ele>530.920</ele>
        <time>2021-05-26T08:38:10Z</time>
      </trkpt>
      <trkpt lat="41.622426" lon="2.496818">
        <ele>531.008</ele>
        <time>2021-05-26T08:38:11Z</time>
      </trkpt>
      <trkpt lat="41.622449" lon="2.496869">
        <ele>531.154</ele>
        <time>2021-05-26T08:38:12Z</time>
      </trkpt>
      <trkpt lat="41.622469" lon="2.496915">
        <ele>531.461</ele>
        <time>2021-05-26T08:38:14Z</time>
      </trkpt>
      <trkpt lat="41.622487" lon="2.496958">
        <ele>531.648</ele>
        <time>2021-05-26T08:38:16Z</time>
      </trkpt>
      <trkpt lat="41.622498" lon="2.496986">
        <ele>531.841</ele>
        <time>2021-05-26T08:38:17Z</time>
      </trkpt>
      <trkpt lat="41.622510" lon="2.497015">
        <ele>531.836</ele>
        <time>2021-05-26T08:38:18Z</time>
      </trkpt>
      <trkpt lat="41.622525" lon="2.497044">
        <ele>531.862</ele>
        <time>2021-05-26T08:38:19Z</time>
      </trkpt>
      <trkpt lat="41.622539" lon="2.497072">
        <ele>531.869</ele>
        <time>2021-05-26T08:38:20Z</time>
      </trkpt>
      <trkpt lat="41.622555" lon="2.497097">
        <ele>531.756</ele>
        <time>2021-05-26T08:38:21Z</time>
      </trkpt>
      <trkpt lat="41.622573" lon="2.497119">
        <ele>531.714</ele>
        <time>2021-05-26T08:38:22Z</time>
      </trkpt>
      <trkpt lat="41.622591" lon="2.497139">
        <ele>531.754</ele>
        <time>2021-05-26T08:38:23Z</time>
      </trkpt>
      <trkpt lat="41.622615" lon="2.497152">
        <ele>531.809</ele>
        <time>2021-05-26T08:38:24Z</time>
      </trkpt>
      <trkpt lat="41.622638" lon="2.497146">
        <ele>531.908</ele>
        <time>2021-05-26T08:38:25Z</time>
      </trkpt>
      <trkpt lat="41.622657" lon="2.497124">
        <ele>532.128</ele>
        <time>2021-05-26T08:38:26Z</time>
      </trkpt>
      <trkpt lat="41.622669" lon="2.497100">
        <ele>532.335</ele>
        <time>2021-05-26T08:38:28Z</time>
      </trkpt>
      <trkpt lat="41.622681" lon="2.497077">
        <ele>532.542</ele>
        <time>2021-05-26T08:38:29Z</time>
      </trkpt>
      <trkpt lat="41.622699" lon="2.497041">
        <ele>532.825</ele>
        <time>2021-05-26T08:38:31Z</time>
      </trkpt>
      <trkpt lat="41.622721" lon="2.497017">
        <ele>533.160</ele>
        <time>2021-05-26T08:38:33Z</time>
      </trkpt>
      <trkpt lat="41.622737" lon="2.496992">
        <ele>533.486</ele>
        <time>2021-05-26T08:38:35Z</time>
      </trkpt>
      <trkpt lat="41.622755" lon="2.496976">
        <ele>533.613</ele>
        <time>2021-05-26T08:38:37Z</time>
      </trkpt>
      <trkpt lat="41.622784" lon="2.496956">
        <ele>533.960</ele>
        <time>2021-05-26T08:38:39Z</time>
      </trkpt>
      <trkpt lat="41.622816" lon="2.496947">
        <ele>534.144</ele>
        <time>2021-05-26T08:38:41Z</time>
      </trkpt>
      <trkpt lat="41.622836" lon="2.496945">
        <ele>534.205</ele>
        <time>2021-05-26T08:38:42Z</time>
      </trkpt>
      <trkpt lat="41.622858" lon="2.496946">
        <ele>534.315</ele>
        <time>2021-05-26T08:38:43Z</time>
      </trkpt>
      <trkpt lat="41.622877" lon="2.496949">
        <ele>534.308</ele>
        <time>2021-05-26T08:38:44Z</time>
      </trkpt>
      <trkpt lat="41.622898" lon="2.496956">
        <ele>534.331</ele>
        <time>2021-05-26T08:38:45Z</time>
      </trkpt>
      <trkpt lat="41.622920" lon="2.496963">
        <ele>534.338</ele>
        <time>2021-05-26T08:38:46Z</time>
      </trkpt>
      <trkpt lat="41.622943" lon="2.496970">
        <ele>534.425</ele>
        <time>2021-05-26T08:38:47Z</time>
      </trkpt>
      <trkpt lat="41.622964" lon="2.496978">
        <ele>534.398</ele>
        <time>2021-05-26T08:38:48Z</time>
      </trkpt>
      <trkpt lat="41.622985" lon="2.496989">
        <ele>534.343</ele>
        <time>2021-05-26T08:38:49Z</time>
      </trkpt>
      <trkpt lat="41.623006" lon="2.496999">
        <ele>534.319</ele>
        <time>2021-05-26T08:38:50Z</time>
      </trkpt>
      <trkpt lat="41.623028" lon="2.497009">
        <ele>534.216</ele>
        <time>2021-05-26T08:38:51Z</time>
      </trkpt>
      <trkpt lat="41.623052" lon="2.497019">
        <ele>534.253</ele>
        <time>2021-05-26T08:38:52Z</time>
      </trkpt>
      <trkpt lat="41.623076" lon="2.497030">
        <ele>534.083</ele>
        <time>2021-05-26T08:38:53Z</time>
      </trkpt>
      <trkpt lat="41.623101" lon="2.497044">
        <ele>533.825</ele>
        <time>2021-05-26T08:38:54Z</time>
      </trkpt>
      <trkpt lat="41.623126" lon="2.497056">
        <ele>533.617</ele>
        <time>2021-05-26T08:38:55Z</time>
      </trkpt>
      <trkpt lat="41.623147" lon="2.497070">
        <ele>533.408</ele>
        <time>2021-05-26T08:38:56Z</time>
      </trkpt>
      <trkpt lat="41.623167" lon="2.497084">
        <ele>533.375</ele>
        <time>2021-05-26T08:38:57Z</time>
      </trkpt>
      <trkpt lat="41.623185" lon="2.497101">
        <ele>533.242</ele>
        <time>2021-05-26T08:38:58Z</time>
      </trkpt>
      <trkpt lat="41.623229" lon="2.497135">
        <ele>533.059</ele>
        <time>2021-05-26T08:38:59Z</time>
      </trkpt>
      <trkpt lat="41.623268" lon="2.497156">
        <ele>532.912</ele>
        <time>2021-05-26T08:39:01Z</time>
      </trkpt>
      <trkpt lat="41.623289" lon="2.497165">
        <ele>532.947</ele>
        <time>2021-05-26T08:39:02Z</time>
      </trkpt>
      <trkpt lat="41.623311" lon="2.497173">
        <ele>533.043</ele>
        <time>2021-05-26T08:39:03Z</time>
      </trkpt>
      <trkpt lat="41.623334" lon="2.497182">
        <ele>533.060</ele>
        <time>2021-05-26T08:39:05Z</time>
      </trkpt>
      <trkpt lat="41.623357" lon="2.497196">
        <ele>533.067</ele>
        <time>2021-05-26T08:39:06Z</time>
      </trkpt>
      <trkpt lat="41.623379" lon="2.497216">
        <ele>533.045</ele>
        <time>2021-05-26T08:39:07Z</time>
      </trkpt>
      <trkpt lat="41.623397" lon="2.497235">
        <ele>532.947</ele>
        <time>2021-05-26T08:39:08Z</time>
      </trkpt>
      <trkpt lat="41.623417" lon="2.497256">
        <ele>532.711</ele>
        <time>2021-05-26T08:39:09Z</time>
      </trkpt>
      <trkpt lat="41.623436" lon="2.497278">
        <ele>532.608</ele>
        <time>2021-05-26T08:39:10Z</time>
      </trkpt>
      <trkpt lat="41.623454" lon="2.497300">
        <ele>532.541</ele>
        <time>2021-05-26T08:39:11Z</time>
      </trkpt>
      <trkpt lat="41.623472" lon="2.497321">
        <ele>532.558</ele>
        <time>2021-05-26T08:39:12Z</time>
      </trkpt>
      <trkpt lat="41.623494" lon="2.497350">
        <ele>532.425</ele>
        <time>2021-05-26T08:39:13Z</time>
      </trkpt>
      <trkpt lat="41.623515" lon="2.497382">
        <ele>532.478</ele>
        <time>2021-05-26T08:39:14Z</time>
      </trkpt>
      <trkpt lat="41.623533" lon="2.497411">
        <ele>532.433</ele>
        <time>2021-05-26T08:39:15Z</time>
      </trkpt>
      <trkpt lat="41.623550" lon="2.497434">
        <ele>532.599</ele>
        <time>2021-05-26T08:39:16Z</time>
      </trkpt>
      <trkpt lat="41.623566" lon="2.497459">
        <ele>532.626</ele>
        <time>2021-05-26T08:39:17Z</time>
      </trkpt>
      <trkpt lat="41.623580" lon="2.497480">
        <ele>532.793</ele>
        <time>2021-05-26T08:39:18Z</time>
      </trkpt>
      <trkpt lat="41.623596" lon="2.497500">
        <ele>532.884</ele>
        <time>2021-05-26T08:39:19Z</time>
      </trkpt>
      <trkpt lat="41.623633" lon="2.497539">
        <ele>532.307</ele>
        <time>2021-05-26T08:39:20Z</time>
      </trkpt>
      <trkpt lat="41.623652" lon="2.497561">
        <ele>531.917</ele>
        <time>2021-05-26T08:39:21Z</time>
      </trkpt>
      <trkpt lat="41.623687" lon="2.497606">
        <ele>531.208</ele>
        <time>2021-05-26T08:39:23Z</time>
      </trkpt>
      <trkpt lat="41.623701" lon="2.497629">
        <ele>530.955</ele>
        <time>2021-05-26T08:39:25Z</time>
      </trkpt>
      <trkpt lat="41.623715" lon="2.497649">
        <ele>530.742</ele>
        <time>2021-05-26T08:39:26Z</time>
      </trkpt>
      <trkpt lat="41.623729" lon="2.497672">
        <ele>530.529</ele>
        <time>2021-05-26T08:39:27Z</time>
      </trkpt>
      <trkpt lat="41.623745" lon="2.497697">
        <ele>530.282</ele>
        <time>2021-05-26T08:39:28Z</time>
      </trkpt>
      <trkpt lat="41.623763" lon="2.497723">
        <ele>530.057</ele>
        <time>2021-05-26T08:39:29Z</time>
      </trkpt>
      <trkpt lat="41.623778" lon="2.497747">
        <ele>529.853</ele>
        <time>2021-05-26T08:39:30Z</time>
      </trkpt>
      <trkpt lat="41.623794" lon="2.497774">
        <ele>529.760</ele>
        <time>2021-05-26T08:39:31Z</time>
      </trkpt>
      <trkpt lat="41.623808" lon="2.497803">
        <ele>529.497</ele>
        <time>2021-05-26T08:39:32Z</time>
      </trkpt>
      <trkpt lat="41.623827" lon="2.497827">
        <ele>529.295</ele>
        <time>2021-05-26T08:39:33Z</time>
      </trkpt>
      <trkpt lat="41.623850" lon="2.497848">
        <ele>529.149</ele>
        <time>2021-05-26T08:39:34Z</time>
      </trkpt>
      <trkpt lat="41.623872" lon="2.497870">
        <ele>528.923</ele>
        <time>2021-05-26T08:39:35Z</time>
      </trkpt>
      <trkpt lat="41.623895" lon="2.497891">
        <ele>528.708</ele>
        <time>2021-05-26T08:39:36Z</time>
      </trkpt>
      <trkpt lat="41.623914" lon="2.497911">
        <ele>528.316</ele>
        <time>2021-05-26T08:39:37Z</time>
      </trkpt>
      <trkpt lat="41.623933" lon="2.497935">
        <ele>528.023</ele>
        <time>2021-05-26T08:39:38Z</time>
      </trkpt>
      <trkpt lat="41.623954" lon="2.497958">
        <ele>527.660</ele>
        <time>2021-05-26T08:39:39Z</time>
      </trkpt>
      <trkpt lat="41.623978" lon="2.497979">
        <ele>527.423</ele>
        <time>2021-05-26T08:39:40Z</time>
      </trkpt>
      <trkpt lat="41.624002" lon="2.498000">
        <ele>527.288</ele>
        <time>2021-05-26T08:39:41Z</time>
      </trkpt>
      <trkpt lat="41.624027" lon="2.498021">
        <ele>527.134</ele>
        <time>2021-05-26T08:39:42Z</time>
      </trkpt>
      <trkpt lat="41.624054" lon="2.498046">
        <ele>527.051</ele>
        <time>2021-05-26T08:39:43Z</time>
      </trkpt>
      <trkpt lat="41.624079" lon="2.498071">
        <ele>527.078</ele>
        <time>2021-05-26T08:39:44Z</time>
      </trkpt>
      <trkpt lat="41.624102" lon="2.498097">
        <ele>527.097</ele>
        <time>2021-05-26T08:39:45Z</time>
      </trkpt>
      <trkpt lat="41.624124" lon="2.498122">
        <ele>527.123</ele>
        <time>2021-05-26T08:39:46Z</time>
      </trkpt>
      <trkpt lat="41.624145" lon="2.498148">
        <ele>527.225</ele>
        <time>2021-05-26T08:39:47Z</time>
      </trkpt>
      <trkpt lat="41.624167" lon="2.498171">
        <ele>527.408</ele>
        <time>2021-05-26T08:39:48Z</time>
      </trkpt>
      <trkpt lat="41.624193" lon="2.498189">
        <ele>527.056</ele>
        <time>2021-05-26T08:39:49Z</time>
      </trkpt>
      <trkpt lat="41.624218" lon="2.498204">
        <ele>526.533</ele>
        <time>2021-05-26T08:39:50Z</time>
      </trkpt>
      <trkpt lat="41.624243" lon="2.498222">
        <ele>526.270</ele>
        <time>2021-05-26T08:39:51Z</time>
      </trkpt>
      <trkpt lat="41.624267" lon="2.498244">
        <ele>525.933</ele>
        <time>2021-05-26T08:39:52Z</time>
      </trkpt>
      <trkpt lat="41.624291" lon="2.498272">
        <ele>525.738</ele>
        <time>2021-05-26T08:39:53Z</time>
      </trkpt>
      <trkpt lat="41.624309" lon="2.498304">
        <ele>525.714</ele>
        <time>2021-05-26T08:39:54Z</time>
      </trkpt>
      <trkpt lat="41.624323" lon="2.498339">
        <ele>525.841</ele>
        <time>2021-05-26T08:39:55Z</time>
      </trkpt>
      <trkpt lat="41.624331" lon="2.498372">
        <ele>525.778</ele>
        <time>2021-05-26T08:39:56Z</time>
      </trkpt>
      <trkpt lat="41.624340" lon="2.498405">
        <ele>525.738</ele>
        <time>2021-05-26T08:39:57Z</time>
      </trkpt>
      <trkpt lat="41.624347" lon="2.498442">
        <ele>525.870</ele>
        <time>2021-05-26T08:39:58Z</time>
      </trkpt>
      <trkpt lat="41.624352" lon="2.498474">
        <ele>525.817</ele>
        <time>2021-05-26T08:39:59Z</time>
      </trkpt>
      <trkpt lat="41.624357" lon="2.498509">
        <ele>525.908</ele>
        <time>2021-05-26T08:40:00Z</time>
      </trkpt>
      <trkpt lat="41.624358" lon="2.498546">
        <ele>526.130</ele>
        <time>2021-05-26T08:40:01Z</time>
      </trkpt>
      <trkpt lat="41.624356" lon="2.498579">
        <ele>526.287</ele>
        <time>2021-05-26T08:40:02Z</time>
      </trkpt>
      <trkpt lat="41.624359" lon="2.498614">
        <ele>526.314</ele>
        <time>2021-05-26T08:40:03Z</time>
      </trkpt>
      <trkpt lat="41.624362" lon="2.498650">
        <ele>526.177</ele>
        <time>2021-05-26T08:40:04Z</time>
      </trkpt>
      <trkpt lat="41.624365" lon="2.498684">
        <ele>525.892</ele>
        <time>2021-05-26T08:40:05Z</time>
      </trkpt>
      <trkpt lat="41.624365" lon="2.498724">
        <ele>525.628</ele>
        <time>2021-05-26T08:40:06Z</time>
      </trkpt>
      <trkpt lat="41.624371" lon="2.498761">
        <ele>525.365</ele>
        <time>2021-05-26T08:40:07Z</time>
      </trkpt>
      <trkpt lat="41.624370" lon="2.498797">
        <ele>525.122</ele>
        <time>2021-05-26T08:40:08Z</time>
      </trkpt>
      <trkpt lat="41.624371" lon="2.498833">
        <ele>524.913</ele>
        <time>2021-05-26T08:40:09Z</time>
      </trkpt>
      <trkpt lat="41.624374" lon="2.498870">
        <ele>524.643</ele>
        <time>2021-05-26T08:40:10Z</time>
      </trkpt>
      <trkpt lat="41.624380" lon="2.498909">
        <ele>524.307</ele>
        <time>2021-05-26T08:40:11Z</time>
      </trkpt>
      <trkpt lat="41.624386" lon="2.498949">
        <ele>524.108</ele>
        <time>2021-05-26T08:40:12Z</time>
      </trkpt>
      <trkpt lat="41.624393" lon="2.498985">
        <ele>523.858</ele>
        <time>2021-05-26T08:40:13Z</time>
      </trkpt>
      <trkpt lat="41.624399" lon="2.499022">
        <ele>523.645</ele>
        <time>2021-05-26T08:40:14Z</time>
      </trkpt>
      <trkpt lat="41.624407" lon="2.499057">
        <ele>523.412</ele>
        <time>2021-05-26T08:40:15Z</time>
      </trkpt>
      <trkpt lat="41.624418" lon="2.499092">
        <ele>523.235</ele>
        <time>2021-05-26T08:40:16Z</time>
      </trkpt>
      <trkpt lat="41.624428" lon="2.499127">
        <ele>523.180</ele>
        <time>2021-05-26T08:40:17Z</time>
      </trkpt>
      <trkpt lat="41.624436" lon="2.499162">
        <ele>523.086</ele>
        <time>2021-05-26T08:40:18Z</time>
      </trkpt>
      <trkpt lat="41.624447" lon="2.499199">
        <ele>523.093</ele>
        <time>2021-05-26T08:40:19Z</time>
      </trkpt>
      <trkpt lat="41.624457" lon="2.499236">
        <ele>522.840</ele>
        <time>2021-05-26T08:40:20Z</time>
      </trkpt>
      <trkpt lat="41.624465" lon="2.499273">
        <ele>522.723</ele>
        <time>2021-05-26T08:40:21Z</time>
      </trkpt>
      <trkpt lat="41.624475" lon="2.499308">
        <ele>522.683</ele>
        <time>2021-05-26T08:40:22Z</time>
      </trkpt>
      <trkpt lat="41.624485" lon="2.499338">
        <ele>522.511</ele>
        <time>2021-05-26T08:40:23Z</time>
      </trkpt>
      <trkpt lat="41.624504" lon="2.499408">
        <ele>522.308</ele>
        <time>2021-05-26T08:40:24Z</time>
      </trkpt>
      <trkpt lat="41.624510" lon="2.499441">
        <ele>522.359</ele>
        <time>2021-05-26T08:40:26Z</time>
      </trkpt>
      <trkpt lat="41.624519" lon="2.499472">
        <ele>522.176</ele>
        <time>2021-05-26T08:40:27Z</time>
      </trkpt>
      <trkpt lat="41.624530" lon="2.499501">
        <ele>522.033</ele>
        <time>2021-05-26T08:40:28Z</time>
      </trkpt>
      <trkpt lat="41.624541" lon="2.499531">
        <ele>521.986</ele>
        <time>2021-05-26T08:40:29Z</time>
      </trkpt>
      <trkpt lat="41.624554" lon="2.499562">
        <ele>521.731</ele>
        <time>2021-05-26T08:40:30Z</time>
      </trkpt>
      <trkpt lat="41.624564" lon="2.499592">
        <ele>521.697</ele>
        <time>2021-05-26T08:40:31Z</time>
      </trkpt>
      <trkpt lat="41.624576" lon="2.499618">
        <ele>521.574</ele>
        <time>2021-05-26T08:40:32Z</time>
      </trkpt>
      <trkpt lat="41.624592" lon="2.499642">
        <ele>521.571</ele>
        <time>2021-05-26T08:40:33Z</time>
      </trkpt>
      <trkpt lat="41.624610" lon="2.499665">
        <ele>521.454</ele>
        <time>2021-05-26T08:40:34Z</time>
      </trkpt>
      <trkpt lat="41.624631" lon="2.499685">
        <ele>521.356</ele>
        <time>2021-05-26T08:40:35Z</time>
      </trkpt>
      <trkpt lat="41.624651" lon="2.499702">
        <ele>521.211</ele>
        <time>2021-05-26T08:40:36Z</time>
      </trkpt>
      <trkpt lat="41.624673" lon="2.499714">
        <ele>521.208</ele>
        <time>2021-05-26T08:40:37Z</time>
      </trkpt>
      <trkpt lat="41.624701" lon="2.499725">
        <ele>521.172</ele>
        <time>2021-05-26T08:40:38Z</time>
      </trkpt>
      <trkpt lat="41.624726" lon="2.499732">
        <ele>520.989</ele>
        <time>2021-05-26T08:40:39Z</time>
      </trkpt>
      <trkpt lat="41.624752" lon="2.499746">
        <ele>520.216</ele>
        <time>2021-05-26T08:40:40Z</time>
      </trkpt>
      <trkpt lat="41.624780" lon="2.499756">
        <ele>519.479</ele>
        <time>2021-05-26T08:40:41Z</time>
      </trkpt>
      <trkpt lat="41.624809" lon="2.499768">
        <ele>518.654</ele>
        <time>2021-05-26T08:40:42Z</time>
      </trkpt>
      <trkpt lat="41.624843" lon="2.499774">
        <ele>517.720</ele>
        <time>2021-05-26T08:40:43Z</time>
      </trkpt>
      <trkpt lat="41.624907" lon="2.499780">
        <ele>516.077</ele>
        <time>2021-05-26T08:40:44Z</time>
      </trkpt>
      <trkpt lat="41.624938" lon="2.499785">
        <ele>515.164</ele>
        <time>2021-05-26T08:40:45Z</time>
      </trkpt>
      <trkpt lat="41.624969" lon="2.499787">
        <ele>514.342</ele>
        <time>2021-05-26T08:40:47Z</time>
      </trkpt>
      <trkpt lat="41.625004" lon="2.499778">
        <ele>513.322</ele>
        <time>2021-05-26T08:40:48Z</time>
      </trkpt>
      <trkpt lat="41.625031" lon="2.499764">
        <ele>512.414</ele>
        <time>2021-05-26T08:40:49Z</time>
      </trkpt>
      <trkpt lat="41.625053" lon="2.499747">
        <ele>511.608</ele>
        <time>2021-05-26T08:40:50Z</time>
      </trkpt>
      <trkpt lat="41.625071" lon="2.499723">
        <ele>511.021</ele>
        <time>2021-05-26T08:40:51Z</time>
      </trkpt>
      <trkpt lat="41.625088" lon="2.499694">
        <ele>510.458</ele>
        <time>2021-05-26T08:40:52Z</time>
      </trkpt>
      <trkpt lat="41.625106" lon="2.499666">
        <ele>509.795</ele>
        <time>2021-05-26T08:40:53Z</time>
      </trkpt>
      <trkpt lat="41.625120" lon="2.499638">
        <ele>509.268</ele>
        <time>2021-05-26T08:40:54Z</time>
      </trkpt>
      <trkpt lat="41.625155" lon="2.499598">
        <ele>508.143</ele>
        <time>2021-05-26T08:40:55Z</time>
      </trkpt>
      <trkpt lat="41.625175" lon="2.499592">
        <ele>507.589</ele>
        <time>2021-05-26T08:40:57Z</time>
      </trkpt>
      <trkpt lat="41.625195" lon="2.499601">
        <ele>506.996</ele>
        <time>2021-05-26T08:40:58Z</time>
      </trkpt>
      <trkpt lat="41.625221" lon="2.499620">
        <ele>506.323</ele>
        <time>2021-05-26T08:40:59Z</time>
      </trkpt>
      <trkpt lat="41.625251" lon="2.499647">
        <ele>505.527</ele>
        <time>2021-05-26T08:41:00Z</time>
      </trkpt>
      <trkpt lat="41.625287" lon="2.499672">
        <ele>504.568</ele>
        <time>2021-05-26T08:41:01Z</time>
      </trkpt>
      <trkpt lat="41.625352" lon="2.499728">
        <ele>502.414</ele>
        <time>2021-05-26T08:41:02Z</time>
      </trkpt>
      <trkpt lat="41.625376" lon="2.499758">
        <ele>501.608</ele>
        <time>2021-05-26T08:41:03Z</time>
      </trkpt>
      <trkpt lat="41.625395" lon="2.499789">
        <ele>501.119</ele>
        <time>2021-05-26T08:41:05Z</time>
      </trkpt>
      <trkpt lat="41.625448" lon="2.499929">
        <ele>500.196</ele>
        <time>2021-05-26T08:41:08Z</time>
      </trkpt>
      <trkpt lat="41.625479" lon="2.500067">
        <ele>499.323</ele>
        <time>2021-05-26T08:41:10Z</time>
      </trkpt>
      <trkpt lat="41.625486" lon="2.500212">
        <ele>498.746</ele>
        <time>2021-05-26T08:41:13Z</time>
      </trkpt>
      <trkpt lat="41.625474" lon="2.500350">
        <ele>498.761</ele>
        <time>2021-05-26T08:41:16Z</time>
      </trkpt>
      <trkpt lat="41.625471" lon="2.500392">
        <ele>498.657</ele>
        <time>2021-05-26T08:41:17Z</time>
      </trkpt>
      <trkpt lat="41.625470" lon="2.500521">
        <ele>498.284</ele>
        <time>2021-05-26T08:41:21Z</time>
      </trkpt>
      <trkpt lat="41.625480" lon="2.500671">
        <ele>496.431</ele>
        <time>2021-05-26T08:41:24Z</time>
      </trkpt>
      <trkpt lat="41.625477" lon="2.500801">
        <ele>494.989</ele>
        <time>2021-05-26T08:41:27Z</time>
      </trkpt>
      <trkpt lat="41.625460" lon="2.500923">
        <ele>494.306</ele>
        <time>2021-05-26T08:41:30Z</time>
      </trkpt>
      <trkpt lat="41.625469" lon="2.501056">
        <ele>493.026</ele>
        <time>2021-05-26T08:41:33Z</time>
      </trkpt>
      <trkpt lat="41.625492" lon="2.501186">
        <ele>490.308</ele>
        <time>2021-05-26T08:41:36Z</time>
      </trkpt>
      <trkpt lat="41.625481" lon="2.501348">
        <ele>487.315</ele>
        <time>2021-05-26T08:41:41Z</time>
      </trkpt>
      <trkpt lat="41.625473" lon="2.501490">
        <ele>484.582</ele>
        <time>2021-05-26T08:41:43Z</time>
      </trkpt>
      <trkpt lat="41.625447" lon="2.501620">
        <ele>482.549</ele>
        <time>2021-05-26T08:41:46Z</time>
      </trkpt>
      <trkpt lat="41.625407" lon="2.501742">
        <ele>481.652</ele>
        <time>2021-05-26T08:41:51Z</time>
      </trkpt>
      <trkpt lat="41.625363" lon="2.501858">
        <ele>481.047</ele>
        <time>2021-05-26T08:41:54Z</time>
      </trkpt>
      <trkpt lat="41.625315" lon="2.501962">
        <ele>480.583</ele>
        <time>2021-05-26T08:41:58Z</time>
      </trkpt>
      <trkpt lat="41.625261" lon="2.502069">
        <ele>479.630</ele>
        <time>2021-05-26T08:42:01Z</time>
      </trkpt>
      <trkpt lat="41.625227" lon="2.502198">
        <ele>477.677</ele>
        <time>2021-05-26T08:42:05Z</time>
      </trkpt>
      <trkpt lat="41.625227" lon="2.502328">
        <ele>474.216</ele>
        <time>2021-05-26T08:42:08Z</time>
      </trkpt>
      <trkpt lat="41.625169" lon="2.502454">
        <ele>472.376</ele>
        <time>2021-05-26T08:42:12Z</time>
      </trkpt>
      <trkpt lat="41.625095" lon="2.502555">
        <ele>471.713</ele>
        <time>2021-05-26T08:42:16Z</time>
      </trkpt>
      <trkpt lat="41.625019" lon="2.502652">
        <ele>471.108</ele>
        <time>2021-05-26T08:42:20Z</time>
      </trkpt>
      <trkpt lat="41.624920" lon="2.502724">
        <ele>471.748</ele>
        <time>2021-05-26T08:42:24Z</time>
      </trkpt>
      <trkpt lat="41.624843" lon="2.502824">
        <ele>471.435</ele>
        <time>2021-05-26T08:42:28Z</time>
      </trkpt>
      <trkpt lat="41.624797" lon="2.502934">
        <ele>470.172</ele>
        <time>2021-05-26T08:42:31Z</time>
      </trkpt>
      <trkpt lat="41.624721" lon="2.503034">
        <ele>469.655</ele>
        <time>2021-05-26T08:42:34Z</time>
      </trkpt>
      <trkpt lat="41.624723" lon="2.503160">
        <ele>466.760</ele>
        <time>2021-05-26T08:42:38Z</time>
      </trkpt>
      <trkpt lat="41.624729" lon="2.503189">
        <ele>466.056</ele>
        <time>2021-05-26T08:42:39Z</time>
      </trkpt>
      <trkpt lat="41.624738" lon="2.503220">
        <ele>465.183</ele>
        <time>2021-05-26T08:42:40Z</time>
      </trkpt>
      <trkpt lat="41.624745" lon="2.503253">
        <ele>464.290</ele>
        <time>2021-05-26T08:42:41Z</time>
      </trkpt>
      <trkpt lat="41.624752" lon="2.503282">
        <ele>463.422</ele>
        <time>2021-05-26T08:42:42Z</time>
      </trkpt>
      <trkpt lat="41.624757" lon="2.503314">
        <ele>462.762</ele>
        <time>2021-05-26T08:42:43Z</time>
      </trkpt>
      <trkpt lat="41.624751" lon="2.503353">
        <ele>462.008</ele>
        <time>2021-05-26T08:42:44Z</time>
      </trkpt>
      <trkpt lat="41.624743" lon="2.503391">
        <ele>461.408</ele>
        <time>2021-05-26T08:42:45Z</time>
      </trkpt>
      <trkpt lat="41.624721" lon="2.503458">
        <ele>460.379</ele>
        <time>2021-05-26T08:42:46Z</time>
      </trkpt>
      <trkpt lat="41.624709" lon="2.503491">
        <ele>459.846</ele>
        <time>2021-05-26T08:42:48Z</time>
      </trkpt>
      <trkpt lat="41.624703" lon="2.503527">
        <ele>459.173</ele>
        <time>2021-05-26T08:42:49Z</time>
      </trkpt>
      <trkpt lat="41.624701" lon="2.503568">
        <ele>458.276</ele>
        <time>2021-05-26T08:42:50Z</time>
      </trkpt>
      <trkpt lat="41.624701" lon="2.503610">
        <ele>457.351</ele>
        <time>2021-05-26T08:42:51Z</time>
      </trkpt>
      <trkpt lat="41.624705" lon="2.503660">
        <ele>456.767</ele>
        <time>2021-05-26T08:42:52Z</time>
      </trkpt>
      <trkpt lat="41.624714" lon="2.503702">
        <ele>456.134</ele>
        <time>2021-05-26T08:42:53Z</time>
      </trkpt>
      <trkpt lat="41.624728" lon="2.503737">
        <ele>455.641</ele>
        <time>2021-05-26T08:42:54Z</time>
      </trkpt>
      <trkpt lat="41.624744" lon="2.503767">
        <ele>455.059</ele>
        <time>2021-05-26T08:42:55Z</time>
      </trkpt>
      <trkpt lat="41.624767" lon="2.503789">
        <ele>454.503</ele>
        <time>2021-05-26T08:42:56Z</time>
      </trkpt>
      <trkpt lat="41.624788" lon="2.503808">
        <ele>454.023</ele>
        <time>2021-05-26T08:42:57Z</time>
      </trkpt>
      <trkpt lat="41.624813" lon="2.503826">
        <ele>453.408</ele>
        <time>2021-05-26T08:42:58Z</time>
      </trkpt>
      <trkpt lat="41.624837" lon="2.503847">
        <ele>452.922</ele>
        <time>2021-05-26T08:42:59Z</time>
      </trkpt>
      <trkpt lat="41.624861" lon="2.503869">
        <ele>452.339</ele>
        <time>2021-05-26T08:43:00Z</time>
      </trkpt>
      <trkpt lat="41.624880" lon="2.503900">
        <ele>451.696</ele>
        <time>2021-05-26T08:43:01Z</time>
      </trkpt>
      <trkpt lat="41.624896" lon="2.503933">
        <ele>450.819</ele>
        <time>2021-05-26T08:43:02Z</time>
      </trkpt>
      <trkpt lat="41.624900" lon="2.503964">
        <ele>450.374</ele>
        <time>2021-05-26T08:43:03Z</time>
      </trkpt>
      <trkpt lat="41.624906" lon="2.503998">
        <ele>449.610</ele>
        <time>2021-05-26T08:43:04Z</time>
      </trkpt>
      <trkpt lat="41.624913" lon="2.504042">
        <ele>448.937</ele>
        <time>2021-05-26T08:43:05Z</time>
      </trkpt>
      <trkpt lat="41.624913" lon="2.504081">
        <ele>448.374</ele>
        <time>2021-05-26T08:43:06Z</time>
      </trkpt>
      <trkpt lat="41.624909" lon="2.504120">
        <ele>447.726</ele>
        <time>2021-05-26T08:43:07Z</time>
      </trkpt>
      <trkpt lat="41.624898" lon="2.504151">
        <ele>447.347</ele>
        <time>2021-05-26T08:43:08Z</time>
      </trkpt>
      <trkpt lat="41.624884" lon="2.504179">
        <ele>447.011</ele>
        <time>2021-05-26T08:43:09Z</time>
      </trkpt>
      <trkpt lat="41.624863" lon="2.504204">
        <ele>446.808</ele>
        <time>2021-05-26T08:43:10Z</time>
      </trkpt>
      <trkpt lat="41.624836" lon="2.504227">
        <ele>446.669</ele>
        <time>2021-05-26T08:43:11Z</time>
      </trkpt>
      <trkpt lat="41.624813" lon="2.504243">
        <ele>446.646</ele>
        <time>2021-05-26T08:43:12Z</time>
      </trkpt>
      <trkpt lat="41.624791" lon="2.504261">
        <ele>446.423</ele>
        <time>2021-05-26T08:43:13Z</time>
      </trkpt>
      <trkpt lat="41.624755" lon="2.504303">
        <ele>445.826</ele>
        <time>2021-05-26T08:43:14Z</time>
      </trkpt>
      <trkpt lat="41.624732" lon="2.504319">
        <ele>445.671</ele>
        <time>2021-05-26T08:43:15Z</time>
      </trkpt>
      <trkpt lat="41.624683" lon="2.504343">
        <ele>445.477</ele>
        <time>2021-05-26T08:43:17Z</time>
      </trkpt>
      <trkpt lat="41.624627" lon="2.504355">
        <ele>445.584</ele>
        <time>2021-05-26T08:43:19Z</time>
      </trkpt>
      <trkpt lat="41.624594" lon="2.504359">
        <ele>445.651</ele>
        <time>2021-05-26T08:43:20Z</time>
      </trkpt>
      <trkpt lat="41.624563" lon="2.504367">
        <ele>445.771</ele>
        <time>2021-05-26T08:43:21Z</time>
      </trkpt>
      <trkpt lat="41.624506" lon="2.504405">
        <ele>445.341</ele>
        <time>2021-05-26T08:43:23Z</time>
      </trkpt>
      <trkpt lat="41.624487" lon="2.504432">
        <ele>444.915</ele>
        <time>2021-05-26T08:43:25Z</time>
      </trkpt>
      <trkpt lat="41.624459" lon="2.504493">
        <ele>444.408</ele>
        <time>2021-05-26T08:43:26Z</time>
      </trkpt>
      <trkpt lat="41.624447" lon="2.504521">
        <ele>444.214</ele>
        <time>2021-05-26T08:43:28Z</time>
      </trkpt>
      <trkpt lat="41.624439" lon="2.504580">
        <ele>443.651</ele>
        <time>2021-05-26T08:43:29Z</time>
      </trkpt>
      <trkpt lat="41.624443" lon="2.504610">
        <ele>443.238</ele>
        <time>2021-05-26T08:43:31Z</time>
      </trkpt>
      <trkpt lat="41.624448" lon="2.504644">
        <ele>442.811</ele>
        <time>2021-05-26T08:43:32Z</time>
      </trkpt>
      <trkpt lat="41.624460" lon="2.504684">
        <ele>442.316</ele>
        <time>2021-05-26T08:43:33Z</time>
      </trkpt>
      <trkpt lat="41.624476" lon="2.504774">
        <ele>441.652</ele>
        <time>2021-05-26T08:43:34Z</time>
      </trkpt>
      <trkpt lat="41.624479" lon="2.504818">
        <ele>441.529</ele>
        <time>2021-05-26T08:43:36Z</time>
      </trkpt>
      <trkpt lat="41.624488" lon="2.504859">
        <ele>441.476</ele>
        <time>2021-05-26T08:43:37Z</time>
      </trkpt>
      <trkpt lat="41.624522" lon="2.504936">
        <ele>440.799</ele>
        <time>2021-05-26T08:43:39Z</time>
      </trkpt>
      <trkpt lat="41.624568" lon="2.505029">
        <ele>439.807</ele>
        <time>2021-05-26T08:43:42Z</time>
      </trkpt>
      <trkpt lat="41.624589" lon="2.505051">
        <ele>439.427</ele>
        <time>2021-05-26T08:43:43Z</time>
      </trkpt>
      <trkpt lat="41.624614" lon="2.505077">
        <ele>438.908</ele>
        <time>2021-05-26T08:43:44Z</time>
      </trkpt>
      <trkpt lat="41.624633" lon="2.505105">
        <ele>438.516</ele>
        <time>2021-05-26T08:43:45Z</time>
      </trkpt>
      <trkpt lat="41.624653" lon="2.505133">
        <ele>438.093</ele>
        <time>2021-05-26T08:43:46Z</time>
      </trkpt>
      <trkpt lat="41.624673" lon="2.505156">
        <ele>437.580</ele>
        <time>2021-05-26T08:43:47Z</time>
      </trkpt>
      <trkpt lat="41.624693" lon="2.505181">
        <ele>437.073</ele>
        <time>2021-05-26T08:43:48Z</time>
      </trkpt>
      <trkpt lat="41.624710" lon="2.505202">
        <ele>436.618</ele>
        <time>2021-05-26T08:43:49Z</time>
      </trkpt>
      <trkpt lat="41.624731" lon="2.505231">
        <ele>436.014</ele>
        <time>2021-05-26T08:43:50Z</time>
      </trkpt>
      <trkpt lat="41.624754" lon="2.505261">
        <ele>435.361</ele>
        <time>2021-05-26T08:43:51Z</time>
      </trkpt>
      <trkpt lat="41.624779" lon="2.505290">
        <ele>434.598</ele>
        <time>2021-05-26T08:43:52Z</time>
      </trkpt>
      <trkpt lat="41.624823" lon="2.505349">
        <ele>433.343</ele>
        <time>2021-05-26T08:43:53Z</time>
      </trkpt>
      <trkpt lat="41.624843" lon="2.505381">
        <ele>432.764</ele>
        <time>2021-05-26T08:43:54Z</time>
      </trkpt>
      <trkpt lat="41.624906" lon="2.505490">
        <ele>431.110</ele>
        <time>2021-05-26T08:43:58Z</time>
      </trkpt>
      <trkpt lat="41.624962" lon="2.505585">
        <ele>429.708</ele>
        <time>2021-05-26T08:44:01Z</time>
      </trkpt>
      <trkpt lat="41.625021" lon="2.505701">
        <ele>428.071</ele>
        <time>2021-05-26T08:44:04Z</time>
      </trkpt>
      <trkpt lat="41.625064" lon="2.505822">
        <ele>426.998</ele>
        <time>2021-05-26T08:44:07Z</time>
      </trkpt>
      <trkpt lat="41.625110" lon="2.505967">
        <ele>425.885</ele>
        <time>2021-05-26T08:44:11Z</time>
      </trkpt>
      <trkpt lat="41.625143" lon="2.506093">
        <ele>424.928</ele>
        <time>2021-05-26T08:44:15Z</time>
      </trkpt>
      <trkpt lat="41.625155" lon="2.506198">
        <ele>423.653</ele>
        <time>2021-05-26T08:44:18Z</time>
      </trkpt>
      <trkpt lat="41.625155" lon="2.506237">
        <ele>423.149</ele>
        <time>2021-05-26T08:44:19Z</time>
      </trkpt>
      <trkpt lat="41.625157" lon="2.506273">
        <ele>422.666</ele>
        <time>2021-05-26T08:44:20Z</time>
      </trkpt>
      <trkpt lat="41.625167" lon="2.506317">
        <ele>421.973</ele>
        <time>2021-05-26T08:44:21Z</time>
      </trkpt>
      <trkpt lat="41.625173" lon="2.506358">
        <ele>421.335</ele>
        <time>2021-05-26T08:44:22Z</time>
      </trkpt>
      <trkpt lat="41.625182" lon="2.506396">
        <ele>420.686</ele>
        <time>2021-05-26T08:44:23Z</time>
      </trkpt>
      <trkpt lat="41.625191" lon="2.506429">
        <ele>419.714</ele>
        <time>2021-05-26T08:44:24Z</time>
      </trkpt>
      <trkpt lat="41.625198" lon="2.506465">
        <ele>418.808</ele>
        <time>2021-05-26T08:44:25Z</time>
      </trkpt>
      <trkpt lat="41.625204" lon="2.506502">
        <ele>417.940</ele>
        <time>2021-05-26T08:44:26Z</time>
      </trkpt>
      <trkpt lat="41.625210" lon="2.506537">
        <ele>417.067</ele>
        <time>2021-05-26T08:44:27Z</time>
      </trkpt>
      <trkpt lat="41.625216" lon="2.506570">
        <ele>416.214</ele>
        <time>2021-05-26T08:44:28Z</time>
      </trkpt>
      <trkpt lat="41.625222" lon="2.506608">
        <ele>415.377</ele>
        <time>2021-05-26T08:44:29Z</time>
      </trkpt>
      <trkpt lat="41.625231" lon="2.506644">
        <ele>414.372</ele>
        <time>2021-05-26T08:44:30Z</time>
      </trkpt>
      <trkpt lat="41.625241" lon="2.506680">
        <ele>413.568</ele>
        <time>2021-05-26T08:44:31Z</time>
      </trkpt>
      <trkpt lat="41.625252" lon="2.506720">
        <ele>412.815</ele>
        <time>2021-05-26T08:44:32Z</time>
      </trkpt>
      <trkpt lat="41.625261" lon="2.506757">
        <ele>412.342</ele>
        <time>2021-05-26T08:44:33Z</time>
      </trkpt>
      <trkpt lat="41.625266" lon="2.506796">
        <ele>411.879</ele>
        <time>2021-05-26T08:44:34Z</time>
      </trkpt>
      <trkpt lat="41.625269" lon="2.506832">
        <ele>411.305</ele>
        <time>2021-05-26T08:44:35Z</time>
      </trkpt>
      <trkpt lat="41.625273" lon="2.506867">
        <ele>410.925</ele>
        <time>2021-05-26T08:44:36Z</time>
      </trkpt>
      <trkpt lat="41.625281" lon="2.506901">
        <ele>410.408</ele>
        <time>2021-05-26T08:44:37Z</time>
      </trkpt>
      <trkpt lat="41.625290" lon="2.506934">
        <ele>410.094</ele>
        <time>2021-05-26T08:44:38Z</time>
      </trkpt>
      <trkpt lat="41.625299" lon="2.506967">
        <ele>409.621</ele>
        <time>2021-05-26T08:44:39Z</time>
      </trkpt>
      <trkpt lat="41.625306" lon="2.507002">
        <ele>409.268</ele>
        <time>2021-05-26T08:44:40Z</time>
      </trkpt>
      <trkpt lat="41.625313" lon="2.507036">
        <ele>408.981</ele>
        <time>2021-05-26T08:44:41Z</time>
      </trkpt>
      <trkpt lat="41.625317" lon="2.507073">
        <ele>408.586</ele>
        <time>2021-05-26T08:44:42Z</time>
      </trkpt>
      <trkpt lat="41.625323" lon="2.507110">
        <ele>408.252</ele>
        <time>2021-05-26T08:44:43Z</time>
      </trkpt>
      <trkpt lat="41.625330" lon="2.507144">
        <ele>407.999</ele>
        <time>2021-05-26T08:44:44Z</time>
      </trkpt>
      <trkpt lat="41.625337" lon="2.507181">
        <ele>407.686</ele>
        <time>2021-05-26T08:44:45Z</time>
      </trkpt>
      <trkpt lat="41.625345" lon="2.507217">
        <ele>407.314</ele>
        <time>2021-05-26T08:44:46Z</time>
      </trkpt>
      <trkpt lat="41.625352" lon="2.507255">
        <ele>407.054</ele>
        <time>2021-05-26T08:44:47Z</time>
      </trkpt>
      <trkpt lat="41.625361" lon="2.507293">
        <ele>406.709</ele>
        <time>2021-05-26T08:44:48Z</time>
      </trkpt>
      <trkpt lat="41.625368" lon="2.507332">
        <ele>406.408</ele>
        <time>2021-05-26T08:44:49Z</time>
      </trkpt>
      <trkpt lat="41.625375" lon="2.507371">
        <ele>406.178</ele>
        <time>2021-05-26T08:44:50Z</time>
      </trkpt>
      <trkpt lat="41.625382" lon="2.507409">
        <ele>405.975</ele>
        <time>2021-05-26T08:44:51Z</time>
      </trkpt>
      <trkpt lat="41.625389" lon="2.507446">
        <ele>405.662</ele>
        <time>2021-05-26T08:44:52Z</time>
      </trkpt>
      <trkpt lat="41.625395" lon="2.507484">
        <ele>405.455</ele>
        <time>2021-05-26T08:44:53Z</time>
      </trkpt>
      <trkpt lat="41.625401" lon="2.507520">
        <ele>405.390</ele>
        <time>2021-05-26T08:44:54Z</time>
      </trkpt>
      <trkpt lat="41.625406" lon="2.507556">
        <ele>405.436</ele>
        <time>2021-05-26T08:44:55Z</time>
      </trkpt>
      <trkpt lat="41.625411" lon="2.507594">
        <ele>405.473</ele>
        <time>2021-05-26T08:44:56Z</time>
      </trkpt>
      <trkpt lat="41.625416" lon="2.507629">
        <ele>405.530</ele>
        <time>2021-05-26T08:44:57Z</time>
      </trkpt>
      <trkpt lat="41.625420" lon="2.507666">
        <ele>405.577</ele>
        <time>2021-05-26T08:44:58Z</time>
      </trkpt>
      <trkpt lat="41.625424" lon="2.507702">
        <ele>405.661</ele>
        <time>2021-05-26T08:44:59Z</time>
      </trkpt>
      <trkpt lat="41.625428" lon="2.507736">
        <ele>405.627</ele>
        <time>2021-05-26T08:45:00Z</time>
      </trkpt>
      <trkpt lat="41.625433" lon="2.507773">
        <ele>405.708</ele>
        <time>2021-05-26T08:45:01Z</time>
      </trkpt>
      <trkpt lat="41.625439" lon="2.507810">
        <ele>406.014</ele>
        <time>2021-05-26T08:45:02Z</time>
      </trkpt>
      <trkpt lat="41.625449" lon="2.507847">
        <ele>406.571</ele>
        <time>2021-05-26T08:45:03Z</time>
      </trkpt>
      <trkpt lat="41.625480" lon="2.507904">
        <ele>407.428</ele>
        <time>2021-05-26T08:45:04Z</time>
      </trkpt>
      <trkpt lat="41.625498" lon="2.507928">
        <ele>407.911</ele>
        <time>2021-05-26T08:45:05Z</time>
      </trkpt>
      <trkpt lat="41.625515" lon="2.507944">
        <ele>408.396</ele>
        <time>2021-05-26T08:45:07Z</time>
      </trkpt>
      <trkpt lat="41.625535" lon="2.507949">
        <ele>408.672</ele>
        <time>2021-05-26T08:45:08Z</time>
      </trkpt>
      <trkpt lat="41.625557" lon="2.507950">
        <ele>408.959</ele>
        <time>2021-05-26T08:45:09Z</time>
      </trkpt>
      <trkpt lat="41.625603" lon="2.507943">
        <ele>409.626</ele>
        <time>2021-05-26T08:45:10Z</time>
      </trkpt>
      <trkpt lat="41.625623" lon="2.507937">
        <ele>409.981</ele>
        <time>2021-05-26T08:45:12Z</time>
      </trkpt>
      <trkpt lat="41.625645" lon="2.507936">
        <ele>410.361</ele>
        <time>2021-05-26T08:45:13Z</time>
      </trkpt>
      <trkpt lat="41.625669" lon="2.507939">
        <ele>410.817</ele>
        <time>2021-05-26T08:45:14Z</time>
      </trkpt>
      <trkpt lat="41.625693" lon="2.507941">
        <ele>411.208</ele>
        <time>2021-05-26T08:45:15Z</time>
      </trkpt>
      <trkpt lat="41.625721" lon="2.507943">
        <ele>411.895</ele>
        <time>2021-05-26T08:45:16Z</time>
      </trkpt>
      <trkpt lat="41.625749" lon="2.507951">
        <ele>412.482</ele>
        <time>2021-05-26T08:45:17Z</time>
      </trkpt>
      <trkpt lat="41.625780" lon="2.507956">
        <ele>413.019</ele>
        <time>2021-05-26T08:45:18Z</time>
      </trkpt>
      <trkpt lat="41.625808" lon="2.507956">
        <ele>413.522</ele>
        <time>2021-05-26T08:45:19Z</time>
      </trkpt>
      <trkpt lat="41.625831" lon="2.507951">
        <ele>413.857</ele>
        <time>2021-05-26T08:45:20Z</time>
      </trkpt>
      <trkpt lat="41.625867" lon="2.507947">
        <ele>414.563</ele>
        <time>2021-05-26T08:45:22Z</time>
      </trkpt>
      <trkpt lat="41.625893" lon="2.507924">
        <ele>414.750</ele>
        <time>2021-05-26T08:45:24Z</time>
      </trkpt>
      <trkpt lat="41.625915" lon="2.507915">
        <ele>414.977</ele>
        <time>2021-05-26T08:45:25Z</time>
      </trkpt>
      <trkpt lat="41.625940" lon="2.507912">
        <ele>415.399</ele>
        <time>2021-05-26T08:45:26Z</time>
      </trkpt>
      <trkpt lat="41.625965" lon="2.507904">
        <ele>415.607</ele>
        <time>2021-05-26T08:45:27Z</time>
      </trkpt>
      <trkpt lat="41.625986" lon="2.507899">
        <ele>415.927</ele>
        <time>2021-05-26T08:45:28Z</time>
      </trkpt>
      <trkpt lat="41.626009" lon="2.507897">
        <ele>416.308</ele>
        <time>2021-05-26T08:45:29Z</time>
      </trkpt>
      <trkpt lat="41.626032" lon="2.507898">
        <ele>416.756</ele>
        <time>2021-05-26T08:45:30Z</time>
      </trkpt>
      <trkpt lat="41.626083" lon="2.507894">
        <ele>417.593</ele>
        <time>2021-05-26T08:45:32Z</time>
      </trkpt>
      <trkpt lat="41.626176" lon="2.507859">
        <ele>417.510</ele>
        <time>2021-05-26T08:45:36Z</time>
      </trkpt>
      <trkpt lat="41.626290" lon="2.507847">
        <ele>418.083</ele>
        <time>2021-05-26T08:45:40Z</time>
      </trkpt>
      <trkpt lat="41.626381" lon="2.507846">
        <ele>418.748</ele>
        <time>2021-05-26T08:45:43Z</time>
      </trkpt>
      <trkpt lat="41.626459" lon="2.507837">
        <ele>418.274</ele>
        <time>2021-05-26T08:45:46Z</time>
      </trkpt>
      <trkpt lat="41.626486" lon="2.507834">
        <ele>418.021</ele>
        <time>2021-05-26T08:45:47Z</time>
      </trkpt>
      <trkpt lat="41.626526" lon="2.507833">
        <ele>417.898</ele>
        <time>2021-05-26T08:45:48Z</time>
      </trkpt>
      <trkpt lat="41.626548" lon="2.507837">
        <ele>417.818</ele>
        <time>2021-05-26T08:45:50Z</time>
      </trkpt>
      <trkpt lat="41.626591" lon="2.507841">
        <ele>417.798</ele>
        <time>2021-05-26T08:45:51Z</time>
      </trkpt>
      <trkpt lat="41.626631" lon="2.507856">
        <ele>417.917</ele>
        <time>2021-05-26T08:45:53Z</time>
      </trkpt>
      <trkpt lat="41.626655" lon="2.507865">
        <ele>417.908</ele>
        <time>2021-05-26T08:45:54Z</time>
      </trkpt>
      <trkpt lat="41.626698" lon="2.507882">
        <ele>417.848</ele>
        <time>2021-05-26T08:45:56Z</time>
      </trkpt>
      <trkpt lat="41.626720" lon="2.507897">
        <ele>417.895</ele>
        <time>2021-05-26T08:45:57Z</time>
      </trkpt>
      <trkpt lat="41.626741" lon="2.507913">
        <ele>417.912</ele>
        <time>2021-05-26T08:45:58Z</time>
      </trkpt>
      <trkpt lat="41.626759" lon="2.507936">
        <ele>418.075</ele>
        <time>2021-05-26T08:45:59Z</time>
      </trkpt>
      <trkpt lat="41.626772" lon="2.507987">
        <ele>418.880</ele>
        <time>2021-05-26T08:46:01Z</time>
      </trkpt>
      <trkpt lat="41.626770" lon="2.508014">
        <ele>419.496</ele>
        <time>2021-05-26T08:46:03Z</time>
      </trkpt>
      <trkpt lat="41.626769" lon="2.508052">
        <ele>420.143</ele>
        <time>2021-05-26T08:46:05Z</time>
      </trkpt>
      <trkpt lat="41.626761" lon="2.508087">
        <ele>420.710</ele>
        <time>2021-05-26T08:46:06Z</time>
      </trkpt>
      <trkpt lat="41.626745" lon="2.508125">
        <ele>421.454</ele>
        <time>2021-05-26T08:46:08Z</time>
      </trkpt>
      <trkpt lat="41.626729" lon="2.508164">
        <ele>422.356</ele>
        <time>2021-05-26T08:46:10Z</time>
      </trkpt>
      <trkpt lat="41.626722" lon="2.508199">
        <ele>422.911</ele>
        <time>2021-05-26T08:46:12Z</time>
      </trkpt>
      <trkpt lat="41.626711" lon="2.508237">
        <ele>423.608</ele>
        <time>2021-05-26T08:46:15Z</time>
      </trkpt>
      <trkpt lat="41.626703" lon="2.508277">
        <ele>424.352</ele>
        <time>2021-05-26T08:46:17Z</time>
      </trkpt>
      <trkpt lat="41.626700" lon="2.508319">
        <ele>425.019</ele>
        <time>2021-05-26T08:46:19Z</time>
      </trkpt>
      <trkpt lat="41.626695" lon="2.508362">
        <ele>425.536</ele>
        <time>2021-05-26T08:46:21Z</time>
      </trkpt>
      <trkpt lat="41.626693" lon="2.508404">
        <ele>425.859</ele>
        <time>2021-05-26T08:46:23Z</time>
      </trkpt>
      <trkpt lat="41.626691" lon="2.508443">
        <ele>426.144</ele>
        <time>2021-05-26T08:46:25Z</time>
      </trkpt>
      <trkpt lat="41.626685" lon="2.508485">
        <ele>426.670</ele>
        <time>2021-05-26T08:46:26Z</time>
      </trkpt>
      <trkpt lat="41.626674" lon="2.508520">
        <ele>427.117</ele>
        <time>2021-05-26T08:46:29Z</time>
      </trkpt>
      <trkpt lat="41.626657" lon="2.508551">
        <ele>427.774</ele>
        <time>2021-05-26T08:46:31Z</time>
      </trkpt>
      <trkpt lat="41.626632" lon="2.508579">
        <ele>428.135</ele>
        <time>2021-05-26T08:46:33Z</time>
      </trkpt>
      <trkpt lat="41.626612" lon="2.508613">
        <ele>428.686</ele>
        <time>2021-05-26T08:46:35Z</time>
      </trkpt>
      <trkpt lat="41.626595" lon="2.508653">
        <ele>428.714</ele>
        <time>2021-05-26T08:46:37Z</time>
      </trkpt>
      <trkpt lat="41.626583" lon="2.508673">
        <ele>428.808</ele>
        <time>2021-05-26T08:46:38Z</time>
      </trkpt>
      <trkpt lat="41.626563" lon="2.508701">
        <ele>429.050</ele>
        <time>2021-05-26T08:46:40Z</time>
      </trkpt>
      <trkpt lat="41.626525" lon="2.508733">
        <ele>429.547</ele>
        <time>2021-05-26T08:46:43Z</time>
      </trkpt>
      <trkpt lat="41.626499" lon="2.508761">
        <ele>429.914</ele>
        <time>2021-05-26T08:46:45Z</time>
      </trkpt>
      <trkpt lat="41.626476" lon="2.508796">
        <ele>430.317</ele>
        <time>2021-05-26T08:46:47Z</time>
      </trkpt>
      <trkpt lat="41.626462" lon="2.508816">
        <ele>430.682</ele>
        <time>2021-05-26T08:46:48Z</time>
      </trkpt>
      <trkpt lat="41.626453" lon="2.508837">
        <ele>430.748</ele>
        <time>2021-05-26T08:46:49Z</time>
      </trkpt>
      <trkpt lat="41.626435" lon="2.508888">
        <ele>431.285</ele>
        <time>2021-05-26T08:46:50Z</time>
      </trkpt>
      <trkpt lat="41.626432" lon="2.508916">
        <ele>431.442</ele>
        <time>2021-05-26T08:46:52Z</time>
      </trkpt>
      <trkpt lat="41.626426" lon="2.508970">
        <ele>431.856</ele>
        <time>2021-05-26T08:46:54Z</time>
      </trkpt>
      <trkpt lat="41.626428" lon="2.509082">
        <ele>432.559</ele>
        <time>2021-05-26T08:46:57Z</time>
      </trkpt>
      <trkpt lat="41.626435" lon="2.509116">
        <ele>432.514</ele>
        <time>2021-05-26T08:46:58Z</time>
      </trkpt>
      <trkpt lat="41.626447" lon="2.509179">
        <ele>432.508</ele>
        <time>2021-05-26T08:47:00Z</time>
      </trkpt>
      <trkpt lat="41.626453" lon="2.509275">
        <ele>432.532</ele>
        <time>2021-05-26T08:47:02Z</time>
      </trkpt>
      <trkpt lat="41.626452" lon="2.509304">
        <ele>432.559</ele>
        <time>2021-05-26T08:47:03Z</time>
      </trkpt>
      <trkpt lat="41.626454" lon="2.509336">
        <ele>432.586</ele>
        <time>2021-05-26T08:47:04Z</time>
      </trkpt>
      <trkpt lat="41.626455" lon="2.509368">
        <ele>432.559</ele>
        <time>2021-05-26T08:47:05Z</time>
      </trkpt>
      <trkpt lat="41.626457" lon="2.509403">
        <ele>432.574</ele>
        <time>2021-05-26T08:47:06Z</time>
      </trkpt>
      <trkpt lat="41.626456" lon="2.509438">
        <ele>432.560</ele>
        <time>2021-05-26T08:47:07Z</time>
      </trkpt>
      <trkpt lat="41.626451" lon="2.509472">
        <ele>432.597</ele>
        <time>2021-05-26T08:47:09Z</time>
      </trkpt>
      <trkpt lat="41.626445" lon="2.509507">
        <ele>432.334</ele>
        <time>2021-05-26T08:47:10Z</time>
      </trkpt>
      <trkpt lat="41.626437" lon="2.509537">
        <ele>432.331</ele>
        <time>2021-05-26T08:47:11Z</time>
      </trkpt>
      <trkpt lat="41.626391" lon="2.509666">
        <ele>432.461</ele>
        <time>2021-05-26T08:47:15Z</time>
      </trkpt>
      <trkpt lat="41.626356" lon="2.509766">
        <ele>432.107</ele>
        <time>2021-05-26T08:47:18Z</time>
      </trkpt>
      <trkpt lat="41.626334" lon="2.509822">
        <ele>432.108</ele>
        <time>2021-05-26T08:47:20Z</time>
      </trkpt>
      <trkpt lat="41.626322" lon="2.509856">
        <ele>432.190</ele>
        <time>2021-05-26T08:47:21Z</time>
      </trkpt>
      <trkpt lat="41.626313" lon="2.509888">
        <ele>432.157</ele>
        <time>2021-05-26T08:47:22Z</time>
      </trkpt>
      <trkpt lat="41.626307" lon="2.509920">
        <ele>432.164</ele>
        <time>2021-05-26T08:47:23Z</time>
      </trkpt>
      <trkpt lat="41.626296" lon="2.509951">
        <ele>432.157</ele>
        <time>2021-05-26T08:47:24Z</time>
      </trkpt>
      <trkpt lat="41.626284" lon="2.509982">
        <ele>432.282</ele>
        <time>2021-05-26T08:47:25Z</time>
      </trkpt>
      <trkpt lat="41.626275" lon="2.510011">
        <ele>432.258</ele>
        <time>2021-05-26T08:47:26Z</time>
      </trkpt>
      <trkpt lat="41.626266" lon="2.510042">
        <ele>432.335</ele>
        <time>2021-05-26T08:47:27Z</time>
      </trkpt>
      <trkpt lat="41.626250" lon="2.510093">
        <ele>432.552</ele>
        <time>2021-05-26T08:47:28Z</time>
      </trkpt>
      <trkpt lat="41.626239" lon="2.510117">
        <ele>432.683</ele>
        <time>2021-05-26T08:47:29Z</time>
      </trkpt>
      <trkpt lat="41.626229" lon="2.510148">
        <ele>432.625</ele>
        <time>2021-05-26T08:47:30Z</time>
      </trkpt>
      <trkpt lat="41.626216" lon="2.510182">
        <ele>432.717</ele>
        <time>2021-05-26T08:47:31Z</time>
      </trkpt>
      <trkpt lat="41.626205" lon="2.510210">
        <ele>432.708</ele>
        <time>2021-05-26T08:47:33Z</time>
      </trkpt>
      <trkpt lat="41.626197" lon="2.510239">
        <ele>432.725</ele>
        <time>2021-05-26T08:47:34Z</time>
      </trkpt>
      <trkpt lat="41.626187" lon="2.510274">
        <ele>432.712</ele>
        <time>2021-05-26T08:47:35Z</time>
      </trkpt>
      <trkpt lat="41.626181" lon="2.510307">
        <ele>432.999</ele>
        <time>2021-05-26T08:47:36Z</time>
      </trkpt>
      <trkpt lat="41.626173" lon="2.510337">
        <ele>433.032</ele>
        <time>2021-05-26T08:47:37Z</time>
      </trkpt>
      <trkpt lat="41.626165" lon="2.510366">
        <ele>433.237</ele>
        <time>2021-05-26T08:47:38Z</time>
      </trkpt>
      <trkpt lat="41.626160" lon="2.510391">
        <ele>433.363</ele>
        <time>2021-05-26T08:47:39Z</time>
      </trkpt>
      <trkpt lat="41.626151" lon="2.510419">
        <ele>433.460</ele>
        <time>2021-05-26T08:47:40Z</time>
      </trkpt>
      <trkpt lat="41.626142" lon="2.510448">
        <ele>433.667</ele>
        <time>2021-05-26T08:47:41Z</time>
      </trkpt>
      <trkpt lat="41.626130" lon="2.510477">
        <ele>433.774</ele>
        <time>2021-05-26T08:47:42Z</time>
      </trkpt>
      <trkpt lat="41.626122" lon="2.510506">
        <ele>433.856</ele>
        <time>2021-05-26T08:47:43Z</time>
      </trkpt>
      <trkpt lat="41.626112" lon="2.510535">
        <ele>433.921</ele>
        <time>2021-05-26T08:47:44Z</time>
      </trkpt>
      <trkpt lat="41.626103" lon="2.510566">
        <ele>434.008</ele>
        <time>2021-05-26T08:47:45Z</time>
      </trkpt>
      <trkpt lat="41.626094" lon="2.510598">
        <ele>434.234</ele>
        <time>2021-05-26T08:47:46Z</time>
      </trkpt>
      <trkpt lat="41.626088" lon="2.510629">
        <ele>434.581</ele>
        <time>2021-05-26T08:47:47Z</time>
      </trkpt>
      <trkpt lat="41.626081" lon="2.510658">
        <ele>434.778</ele>
        <time>2021-05-26T08:47:48Z</time>
      </trkpt>
      <trkpt lat="41.626063" lon="2.510704">
        <ele>434.921</ele>
        <time>2021-05-26T08:47:49Z</time>
      </trkpt>
      <trkpt lat="41.626054" lon="2.510733">
        <ele>435.146</ele>
        <time>2021-05-26T08:47:50Z</time>
      </trkpt>
      <trkpt lat="41.626048" lon="2.510756">
        <ele>435.232</ele>
        <time>2021-05-26T08:47:52Z</time>
      </trkpt>
      <trkpt lat="41.626038" lon="2.510778">
        <ele>435.239</ele>
        <time>2021-05-26T08:47:53Z</time>
      </trkpt>
      <trkpt lat="41.626031" lon="2.510802">
        <ele>435.386</ele>
        <time>2021-05-26T08:47:54Z</time>
      </trkpt>
      <trkpt lat="41.626023" lon="2.510825">
        <ele>435.496</ele>
        <time>2021-05-26T08:47:55Z</time>
      </trkpt>
      <trkpt lat="41.626017" lon="2.510855">
        <ele>435.731</ele>
        <time>2021-05-26T08:47:56Z</time>
      </trkpt>
      <trkpt lat="41.626010" lon="2.510881">
        <ele>436.124</ele>
        <time>2021-05-26T08:47:57Z</time>
      </trkpt>
      <trkpt lat="41.626000" lon="2.510909">
        <ele>436.308</ele>
        <time>2021-05-26T08:47:58Z</time>
      </trkpt>
      <trkpt lat="41.625988" lon="2.510935">
        <ele>436.596</ele>
        <time>2021-05-26T08:47:59Z</time>
      </trkpt>
      <trkpt lat="41.625976" lon="2.510963">
        <ele>436.763</ele>
        <time>2021-05-26T08:48:00Z</time>
      </trkpt>
      <trkpt lat="41.625968" lon="2.510991">
        <ele>437.070</ele>
        <time>2021-05-26T08:48:01Z</time>
      </trkpt>
      <trkpt lat="41.625956" lon="2.511021">
        <ele>437.273</ele>
        <time>2021-05-26T08:48:02Z</time>
      </trkpt>
      <trkpt lat="41.625944" lon="2.511052">
        <ele>437.448</ele>
        <time>2021-05-26T08:48:03Z</time>
      </trkpt>
      <trkpt lat="41.625937" lon="2.511082">
        <ele>437.814</ele>
        <time>2021-05-26T08:48:04Z</time>
      </trkpt>
      <trkpt lat="41.625930" lon="2.511111">
        <ele>438.141</ele>
        <time>2021-05-26T08:48:05Z</time>
      </trkpt>
      <trkpt lat="41.625923" lon="2.511138">
        <ele>438.288</ele>
        <time>2021-05-26T08:48:06Z</time>
      </trkpt>
      <trkpt lat="41.625908" lon="2.511197">
        <ele>438.471</ele>
        <time>2021-05-26T08:48:07Z</time>
      </trkpt>
      <trkpt lat="41.625901" lon="2.511222">
        <ele>438.541</ele>
        <time>2021-05-26T08:48:08Z</time>
      </trkpt>
      <trkpt lat="41.625892" lon="2.511257">
        <ele>438.615</ele>
        <time>2021-05-26T08:48:10Z</time>
      </trkpt>
      <trkpt lat="41.625885" lon="2.511284">
        <ele>438.708</ele>
        <time>2021-05-26T08:48:11Z</time>
      </trkpt>
      <trkpt lat="41.625874" lon="2.511329">
        <ele>438.864</ele>
        <time>2021-05-26T08:48:13Z</time>
      </trkpt>
      <trkpt lat="41.625867" lon="2.511353">
        <ele>438.851</ele>
        <time>2021-05-26T08:48:14Z</time>
      </trkpt>
      <trkpt lat="41.625862" lon="2.511379">
        <ele>438.928</ele>
        <time>2021-05-26T08:48:15Z</time>
      </trkpt>
      <trkpt lat="41.625859" lon="2.511409">
        <ele>439.161</ele>
        <time>2021-05-26T08:48:16Z</time>
      </trkpt>
      <trkpt lat="41.625855" lon="2.511439">
        <ele>439.136</ele>
        <time>2021-05-26T08:48:17Z</time>
      </trkpt>
      <trkpt lat="41.625852" lon="2.511468">
        <ele>439.262</ele>
        <time>2021-05-26T08:48:18Z</time>
      </trkpt>
      <trkpt lat="41.625848" lon="2.511494">
        <ele>439.369</ele>
        <time>2021-05-26T08:48:19Z</time>
      </trkpt>
      <trkpt lat="41.625848" lon="2.511523">
        <ele>439.546</ele>
        <time>2021-05-26T08:48:20Z</time>
      </trkpt>
      <trkpt lat="41.625853" lon="2.511549">
        <ele>439.924</ele>
        <time>2021-05-26T08:48:21Z</time>
      </trkpt>
      <trkpt lat="41.625868" lon="2.511601">
        <ele>440.804</ele>
        <time>2021-05-26T08:48:22Z</time>
      </trkpt>
      <trkpt lat="41.625890" lon="2.511635">
        <ele>441.814</ele>
        <time>2021-05-26T08:48:25Z</time>
      </trkpt>
      <trkpt lat="41.625905" lon="2.511648">
        <ele>442.408</ele>
        <time>2021-05-26T08:48:26Z</time>
      </trkpt>
      <trkpt lat="41.625936" lon="2.511669">
        <ele>443.779</ele>
        <time>2021-05-26T08:48:28Z</time>
      </trkpt>
      <trkpt lat="41.625961" lon="2.511673">
        <ele>444.676</ele>
        <time>2021-05-26T08:48:30Z</time>
      </trkpt>
      <trkpt lat="41.625990" lon="2.511680">
        <ele>445.553</ele>
        <time>2021-05-26T08:48:31Z</time>
      </trkpt>
      <trkpt lat="41.626019" lon="2.511689">
        <ele>446.536</ele>
        <time>2021-05-26T08:48:34Z</time>
      </trkpt>
      <trkpt lat="41.626047" lon="2.511704">
        <ele>447.411</ele>
        <time>2021-05-26T08:48:36Z</time>
      </trkpt>
      <trkpt lat="41.626069" lon="2.511712">
        <ele>448.257</ele>
        <time>2021-05-26T08:48:38Z</time>
      </trkpt>
      <trkpt lat="41.626097" lon="2.511724">
        <ele>449.134</ele>
        <time>2021-05-26T08:48:40Z</time>
      </trkpt>
      <trkpt lat="41.626128" lon="2.511738">
        <ele>449.871</ele>
        <time>2021-05-26T08:48:41Z</time>
      </trkpt>
      <trkpt lat="41.626154" lon="2.511758">
        <ele>450.315</ele>
        <time>2021-05-26T08:48:43Z</time>
      </trkpt>
      <trkpt lat="41.626179" lon="2.511780">
        <ele>450.765</ele>
        <time>2021-05-26T08:48:45Z</time>
      </trkpt>
      <trkpt lat="41.626196" lon="2.511805">
        <ele>451.011</ele>
        <time>2021-05-26T08:48:47Z</time>
      </trkpt>
      <trkpt lat="41.626216" lon="2.511829">
        <ele>451.408</ele>
        <time>2021-05-26T08:48:49Z</time>
      </trkpt>
      <trkpt lat="41.626232" lon="2.511856">
        <ele>451.748</ele>
        <time>2021-05-26T08:48:52Z</time>
      </trkpt>
      <trkpt lat="41.626250" lon="2.511886">
        <ele>452.125</ele>
        <time>2021-05-26T08:48:54Z</time>
      </trkpt>
      <trkpt lat="41.626269" lon="2.511923">
        <ele>452.652</ele>
        <time>2021-05-26T08:48:56Z</time>
      </trkpt>
      <trkpt lat="41.626278" lon="2.511963">
        <ele>452.735</ele>
        <time>2021-05-26T08:48:58Z</time>
      </trkpt>
      <trkpt lat="41.626289" lon="2.512003">
        <ele>452.770</ele>
        <time>2021-05-26T08:49:00Z</time>
      </trkpt>
      <trkpt lat="41.626296" lon="2.512039">
        <ele>452.656</ele>
        <time>2021-05-26T08:49:01Z</time>
      </trkpt>
      <trkpt lat="41.626305" lon="2.512074">
        <ele>452.733</ele>
        <time>2021-05-26T08:49:04Z</time>
      </trkpt>
      <trkpt lat="41.626314" lon="2.512108">
        <ele>452.710</ele>
        <time>2021-05-26T08:49:06Z</time>
      </trkpt>
      <trkpt lat="41.626320" lon="2.512141">
        <ele>452.653</ele>
        <time>2021-05-26T08:49:08Z</time>
      </trkpt>
      <trkpt lat="41.626325" lon="2.512172">
        <ele>452.504</ele>
        <time>2021-05-26T08:49:09Z</time>
      </trkpt>
      <trkpt lat="41.626330" lon="2.512205">
        <ele>452.414</ele>
        <time>2021-05-26T08:49:11Z</time>
      </trkpt>
      <trkpt lat="41.626336" lon="2.512242">
        <ele>452.308</ele>
        <time>2021-05-26T08:49:14Z</time>
      </trkpt>
      <trkpt lat="41.626341" lon="2.512280">
        <ele>452.282</ele>
        <time>2021-05-26T08:49:16Z</time>
      </trkpt>
      <trkpt lat="41.626346" lon="2.512321">
        <ele>452.029</ele>
        <time>2021-05-26T08:49:18Z</time>
      </trkpt>
      <trkpt lat="41.626353" lon="2.512361">
        <ele>451.926</ele>
        <time>2021-05-26T08:49:20Z</time>
      </trkpt>
      <trkpt lat="41.626357" lon="2.512397">
        <ele>451.879</ele>
        <time>2021-05-26T08:49:22Z</time>
      </trkpt>
      <trkpt lat="41.626364" lon="2.512436">
        <ele>451.714</ele>
        <time>2021-05-26T08:49:24Z</time>
      </trkpt>
      <trkpt lat="41.626373" lon="2.512472">
        <ele>451.750</ele>
        <time>2021-05-26T08:49:26Z</time>
      </trkpt>
      <trkpt lat="41.626379" lon="2.512511">
        <ele>451.647</ele>
        <time>2021-05-26T08:49:28Z</time>
      </trkpt>
      <trkpt lat="41.626382" lon="2.512552">
        <ele>451.414</ele>
        <time>2021-05-26T08:49:30Z</time>
      </trkpt>
      <trkpt lat="41.626384" lon="2.512594">
        <ele>451.212</ele>
        <time>2021-05-26T08:49:32Z</time>
      </trkpt>
      <trkpt lat="41.626385" lon="2.512619">
        <ele>451.032</ele>
        <time>2021-05-26T08:49:33Z</time>
      </trkpt>
      <trkpt lat="41.626388" lon="2.512661">
        <ele>450.805</ele>
        <time>2021-05-26T08:49:35Z</time>
      </trkpt>
      <trkpt lat="41.626392" lon="2.512707">
        <ele>450.608</ele>
        <time>2021-05-26T08:49:37Z</time>
      </trkpt>
      <trkpt lat="41.626397" lon="2.512750">
        <ele>450.458</ele>
        <time>2021-05-26T08:49:39Z</time>
      </trkpt>
      <trkpt lat="41.626398" lon="2.512793">
        <ele>450.115</ele>
        <time>2021-05-26T08:49:41Z</time>
      </trkpt>
      <trkpt lat="41.626408" lon="2.512829">
        <ele>450.232</ele>
        <time>2021-05-26T08:49:43Z</time>
      </trkpt>
      <trkpt lat="41.626424" lon="2.512864">
        <ele>450.475</ele>
        <time>2021-05-26T08:49:45Z</time>
      </trkpt>
      <trkpt lat="41.626441" lon="2.512898">
        <ele>450.780</ele>
        <time>2021-05-26T08:49:47Z</time>
      </trkpt>
      <trkpt lat="41.626466" lon="2.512927">
        <ele>451.126</ele>
        <time>2021-05-26T08:49:49Z</time>
      </trkpt>
      <trkpt lat="41.626490" lon="2.512937">
        <ele>451.693</ele>
        <time>2021-05-26T08:49:51Z</time>
      </trkpt>
      <trkpt lat="41.626524" lon="2.512934">
        <ele>452.420</ele>
        <time>2021-05-26T08:49:53Z</time>
      </trkpt>
      <trkpt lat="41.626551" lon="2.512942">
        <ele>452.947</ele>
        <time>2021-05-26T08:49:55Z</time>
      </trkpt>
      <trkpt lat="41.626580" lon="2.512945">
        <ele>453.529</ele>
        <time>2021-05-26T08:49:57Z</time>
      </trkpt>
      <trkpt lat="41.626609" lon="2.512942">
        <ele>454.221</ele>
        <time>2021-05-26T08:49:59Z</time>
      </trkpt>
      <trkpt lat="41.626631" lon="2.512947">
        <ele>454.608</ele>
        <time>2021-05-26T08:50:00Z</time>
      </trkpt>
      <trkpt lat="41.626653" lon="2.512949">
        <ele>455.111</ele>
        <time>2021-05-26T08:50:01Z</time>
      </trkpt>
      <trkpt lat="41.626674" lon="2.512949">
        <ele>455.468</ele>
        <time>2021-05-26T08:50:02Z</time>
      </trkpt>
      <trkpt lat="41.626696" lon="2.512950">
        <ele>455.665</ele>
        <time>2021-05-26T08:50:03Z</time>
      </trkpt>
      <trkpt lat="41.626716" lon="2.512949">
        <ele>455.758</ele>
        <time>2021-05-26T08:50:04Z</time>
      </trkpt>
      <trkpt lat="41.626738" lon="2.512949">
        <ele>455.823</ele>
        <time>2021-05-26T08:50:05Z</time>
      </trkpt>
      <trkpt lat="41.626761" lon="2.512947">
        <ele>455.949</ele>
        <time>2021-05-26T08:50:06Z</time>
      </trkpt>
      <trkpt lat="41.626787" lon="2.512949">
        <ele>456.146</ele>
        <time>2021-05-26T08:50:07Z</time>
      </trkpt>
      <trkpt lat="41.626835" lon="2.512963">
        <ele>456.323</ele>
        <time>2021-05-26T08:50:08Z</time>
      </trkpt>
      <trkpt lat="41.626854" lon="2.512968">
        <ele>456.548</ele>
        <time>2021-05-26T08:50:10Z</time>
      </trkpt>
      <trkpt lat="41.626875" lon="2.512977">
        <ele>456.661</ele>
        <time>2021-05-26T08:50:11Z</time>
      </trkpt>
      <trkpt lat="41.626899" lon="2.512992">
        <ele>456.717</ele>
        <time>2021-05-26T08:50:12Z</time>
      </trkpt>
      <trkpt lat="41.626948" lon="2.513029">
        <ele>457.008</ele>
        <time>2021-05-26T08:50:13Z</time>
      </trkpt>
      <trkpt lat="41.626968" lon="2.513046">
        <ele>457.121</ele>
        <time>2021-05-26T08:50:14Z</time>
      </trkpt>
      <trkpt lat="41.626988" lon="2.513065">
        <ele>457.158</ele>
        <time>2021-05-26T08:50:15Z</time>
      </trkpt>
      <trkpt lat="41.627026" lon="2.513102">
        <ele>457.025</ele>
        <time>2021-05-26T08:50:17Z</time>
      </trkpt>
      <trkpt lat="41.627043" lon="2.513122">
        <ele>457.088</ele>
        <time>2021-05-26T08:50:19Z</time>
      </trkpt>
      <trkpt lat="41.627059" lon="2.513144">
        <ele>456.973</ele>
        <time>2021-05-26T08:50:20Z</time>
      </trkpt>
      <trkpt lat="41.627075" lon="2.513165">
        <ele>456.929</ele>
        <time>2021-05-26T08:50:21Z</time>
      </trkpt>
      <trkpt lat="41.627095" lon="2.513189">
        <ele>456.836</ele>
        <time>2021-05-26T08:50:22Z</time>
      </trkpt>
      <trkpt lat="41.627113" lon="2.513214">
        <ele>456.843</ele>
        <time>2021-05-26T08:50:23Z</time>
      </trkpt>
      <trkpt lat="41.627131" lon="2.513235">
        <ele>456.891</ele>
        <time>2021-05-26T08:50:24Z</time>
      </trkpt>
      <trkpt lat="41.627148" lon="2.513261">
        <ele>456.881</ele>
        <time>2021-05-26T08:50:25Z</time>
      </trkpt>
      <trkpt lat="41.627162" lon="2.513286">
        <ele>456.819</ele>
        <time>2021-05-26T08:50:26Z</time>
      </trkpt>
      <trkpt lat="41.627176" lon="2.513310">
        <ele>456.808</ele>
        <time>2021-05-26T08:50:27Z</time>
      </trkpt>
      <trkpt lat="41.627187" lon="2.513333">
        <ele>456.766</ele>
        <time>2021-05-26T08:50:28Z</time>
      </trkpt>
      <trkpt lat="41.627199" lon="2.513356">
        <ele>456.693</ele>
        <time>2021-05-26T08:50:29Z</time>
      </trkpt>
      <trkpt lat="41.627211" lon="2.513379">
        <ele>456.410</ele>
        <time>2021-05-26T08:50:30Z</time>
      </trkpt>
      <trkpt lat="41.627253" lon="2.513453">
        <ele>456.043</ele>
        <time>2021-05-26T08:50:32Z</time>
      </trkpt>
      <trkpt lat="41.627268" lon="2.513481">
        <ele>455.978</ele>
        <time>2021-05-26T08:50:34Z</time>
      </trkpt>
      <trkpt lat="41.627296" lon="2.513543">
        <ele>455.794</ele>
        <time>2021-05-26T08:50:35Z</time>
      </trkpt>
      <trkpt lat="41.627313" lon="2.513575">
        <ele>455.641</ele>
        <time>2021-05-26T08:50:37Z</time>
      </trkpt>
      <trkpt lat="41.627329" lon="2.513598">
        <ele>455.648</ele>
        <time>2021-05-26T08:50:38Z</time>
      </trkpt>
      <trkpt lat="41.627344" lon="2.513624">
        <ele>455.624</ele>
        <time>2021-05-26T08:50:39Z</time>
      </trkpt>
      <trkpt lat="41.627357" lon="2.513652">
        <ele>455.604</ele>
        <time>2021-05-26T08:50:40Z</time>
      </trkpt>
      <trkpt lat="41.627372" lon="2.513678">
        <ele>455.614</ele>
        <time>2021-05-26T08:50:41Z</time>
      </trkpt>
      <trkpt lat="41.627384" lon="2.513706">
        <ele>455.508</ele>
        <time>2021-05-26T08:50:42Z</time>
      </trkpt>
      <trkpt lat="41.627396" lon="2.513742">
        <ele>455.479</ele>
        <time>2021-05-26T08:50:43Z</time>
      </trkpt>
      <trkpt lat="41.627406" lon="2.513780">
        <ele>455.286</ele>
        <time>2021-05-26T08:50:44Z</time>
      </trkpt>
      <trkpt lat="41.627415" lon="2.513812">
        <ele>455.183</ele>
        <time>2021-05-26T08:50:45Z</time>
      </trkpt>
      <trkpt lat="41.627422" lon="2.513852">
        <ele>454.996</ele>
        <time>2021-05-26T08:50:46Z</time>
      </trkpt>
      <trkpt lat="41.627429" lon="2.513888">
        <ele>454.771</ele>
        <time>2021-05-26T08:50:47Z</time>
      </trkpt>
      <trkpt lat="41.627437" lon="2.513925">
        <ele>454.567</ele>
        <time>2021-05-26T08:50:48Z</time>
      </trkpt>
      <trkpt lat="41.627445" lon="2.513962">
        <ele>454.464</ele>
        <time>2021-05-26T08:50:49Z</time>
      </trkpt>
      <trkpt lat="41.627451" lon="2.513997">
        <ele>454.221</ele>
        <time>2021-05-26T08:50:50Z</time>
      </trkpt>
      <trkpt lat="41.627457" lon="2.514031">
        <ele>454.093</ele>
        <time>2021-05-26T08:50:51Z</time>
      </trkpt>
      <trkpt lat="41.627463" lon="2.514067">
        <ele>453.965</ele>
        <time>2021-05-26T08:50:52Z</time>
      </trkpt>
      <trkpt lat="41.627469" lon="2.514103">
        <ele>453.721</ele>
        <time>2021-05-26T08:50:53Z</time>
      </trkpt>
      <trkpt lat="41.627484" lon="2.514176">
        <ele>453.608</ele>
        <time>2021-05-26T08:50:54Z</time>
      </trkpt>
      <trkpt lat="41.627487" lon="2.514210">
        <ele>453.526</ele>
        <time>2021-05-26T08:50:55Z</time>
      </trkpt>
      <trkpt lat="41.627492" lon="2.514246">
        <ele>453.553</ele>
        <time>2021-05-26T08:50:57Z</time>
      </trkpt>
      <trkpt lat="41.627497" lon="2.514284">
        <ele>453.580</ele>
        <time>2021-05-26T08:50:58Z</time>
      </trkpt>
      <trkpt lat="41.627499" lon="2.514319">
        <ele>453.423</ele>
        <time>2021-05-26T08:50:59Z</time>
      </trkpt>
      <trkpt lat="41.627499" lon="2.514356">
        <ele>453.318</ele>
        <time>2021-05-26T08:51:00Z</time>
      </trkpt>
      <trkpt lat="41.627500" lon="2.514391">
        <ele>453.284</ele>
        <time>2021-05-26T08:51:01Z</time>
      </trkpt>
      <trkpt lat="41.627497" lon="2.514468">
        <ele>452.741</ele>
        <time>2021-05-26T08:51:02Z</time>
      </trkpt>
      <trkpt lat="41.627495" lon="2.514500">
        <ele>452.328</ele>
        <time>2021-05-26T08:51:03Z</time>
      </trkpt>
      <trkpt lat="41.627493" lon="2.514533">
        <ele>451.966</ele>
        <time>2021-05-26T08:51:05Z</time>
      </trkpt>
      <trkpt lat="41.627488" lon="2.514572">
        <ele>451.329</ele>
        <time>2021-05-26T08:51:06Z</time>
      </trkpt>
      <trkpt lat="41.627480" lon="2.514615">
        <ele>450.721</ele>
        <time>2021-05-26T08:51:07Z</time>
      </trkpt>
      <trkpt lat="41.627474" lon="2.514658">
        <ele>450.108</ele>
        <time>2021-05-26T08:51:08Z</time>
      </trkpt>
      <trkpt lat="41.627466" lon="2.514701">
        <ele>449.583</ele>
        <time>2021-05-26T08:51:09Z</time>
      </trkpt>
      <trkpt lat="41.627459" lon="2.514737">
        <ele>449.190</ele>
        <time>2021-05-26T08:51:10Z</time>
      </trkpt>
      <trkpt lat="41.627455" lon="2.514775">
        <ele>449.027</ele>
        <time>2021-05-26T08:51:11Z</time>
      </trkpt>
      <trkpt lat="41.627450" lon="2.514814">
        <ele>448.910</ele>
        <time>2021-05-26T08:51:12Z</time>
      </trkpt>
      <trkpt lat="41.627444" lon="2.514849">
        <ele>448.895</ele>
        <time>2021-05-26T08:51:13Z</time>
      </trkpt>
      <trkpt lat="41.627434" lon="2.514885">
        <ele>448.661</ele>
        <time>2021-05-26T08:51:14Z</time>
      </trkpt>
      <trkpt lat="41.627421" lon="2.514917">
        <ele>448.378</ele>
        <time>2021-05-26T08:51:15Z</time>
      </trkpt>
      <trkpt lat="41.627386" lon="2.514995">
        <ele>447.535</ele>
        <time>2021-05-26T08:51:16Z</time>
      </trkpt>
      <trkpt lat="41.627369" lon="2.515032">
        <ele>447.292</ele>
        <time>2021-05-26T08:51:18Z</time>
      </trkpt>
      <trkpt lat="41.627351" lon="2.515066">
        <ele>446.873</ele>
        <time>2021-05-26T08:51:19Z</time>
      </trkpt>
      <trkpt lat="41.627336" lon="2.515098">
        <ele>446.520</ele>
        <time>2021-05-26T08:51:20Z</time>
      </trkpt>
      <trkpt lat="41.627317" lon="2.515132">
        <ele>446.208</ele>
        <time>2021-05-26T08:51:21Z</time>
      </trkpt>
      <trkpt lat="41.627296" lon="2.515165">
        <ele>445.946</ele>
        <time>2021-05-26T08:51:22Z</time>
      </trkpt>
      <trkpt lat="41.627255" lon="2.515224">
        <ele>445.393</ele>
        <time>2021-05-26T08:51:23Z</time>
      </trkpt>
      <trkpt lat="41.627235" lon="2.515252">
        <ele>445.130</ele>
        <time>2021-05-26T08:51:24Z</time>
      </trkpt>
      <trkpt lat="41.627211" lon="2.515286">
        <ele>444.843</ele>
        <time>2021-05-26T08:51:26Z</time>
      </trkpt>
      <trkpt lat="41.627187" lon="2.515317">
        <ele>444.298</ele>
        <time>2021-05-26T08:51:27Z</time>
      </trkpt>
      <trkpt lat="41.627163" lon="2.515350">
        <ele>443.794</ele>
        <time>2021-05-26T08:51:28Z</time>
      </trkpt>
      <trkpt lat="41.627141" lon="2.515384">
        <ele>443.381</ele>
        <time>2021-05-26T08:51:29Z</time>
      </trkpt>
      <trkpt lat="41.627118" lon="2.515420">
        <ele>442.958</ele>
        <time>2021-05-26T08:51:30Z</time>
      </trkpt>
      <trkpt lat="41.627095" lon="2.515449">
        <ele>442.599</ele>
        <time>2021-05-26T08:51:31Z</time>
      </trkpt>
      <trkpt lat="41.627072" lon="2.515479">
        <ele>442.207</ele>
        <time>2021-05-26T08:51:32Z</time>
      </trkpt>
      <trkpt lat="41.627050" lon="2.515503">
        <ele>441.927</ele>
        <time>2021-05-26T08:51:33Z</time>
      </trkpt>
      <trkpt lat="41.627029" lon="2.515522">
        <ele>441.708</ele>
        <time>2021-05-26T08:51:34Z</time>
      </trkpt>
      <trkpt lat="41.627010" lon="2.515545">
        <ele>441.566</ele>
        <time>2021-05-26T08:51:35Z</time>
      </trkpt>
      <trkpt lat="41.626991" lon="2.515564">
        <ele>441.363</ele>
        <time>2021-05-26T08:51:36Z</time>
      </trkpt>
      <trkpt lat="41.626970" lon="2.515590">
        <ele>441.310</ele>
        <time>2021-05-26T08:51:37Z</time>
      </trkpt>
      <trkpt lat="41.626949" lon="2.515614">
        <ele>441.233</ele>
        <time>2021-05-26T08:51:38Z</time>
      </trkpt>
      <trkpt lat="41.626926" lon="2.515641">
        <ele>440.988</ele>
        <time>2021-05-26T08:51:39Z</time>
      </trkpt>
      <trkpt lat="41.626905" lon="2.515665">
        <ele>440.754</ele>
        <time>2021-05-26T08:51:40Z</time>
      </trkpt>
      <trkpt lat="41.626881" lon="2.515697">
        <ele>440.551</ele>
        <time>2021-05-26T08:51:41Z</time>
      </trkpt>
      <trkpt lat="41.626858" lon="2.515727">
        <ele>440.418</ele>
        <time>2021-05-26T08:51:42Z</time>
      </trkpt>
      <trkpt lat="41.626836" lon="2.515763">
        <ele>440.512</ele>
        <time>2021-05-26T08:51:43Z</time>
      </trkpt>
      <trkpt lat="41.626817" lon="2.515796">
        <ele>440.632</ele>
        <time>2021-05-26T08:51:44Z</time>
      </trkpt>
      <trkpt lat="41.626802" lon="2.515827">
        <ele>440.905</ele>
        <time>2021-05-26T08:51:45Z</time>
      </trkpt>
      <trkpt lat="41.626795" lon="2.515864">
        <ele>440.908</ele>
        <time>2021-05-26T08:51:46Z</time>
      </trkpt>
      <trkpt lat="41.626791" lon="2.515896">
        <ele>441.088</ele>
        <time>2021-05-26T08:51:47Z</time>
      </trkpt>
      <trkpt lat="41.626791" lon="2.515929">
        <ele>441.025</ele>
        <time>2021-05-26T08:51:48Z</time>
      </trkpt>
      <trkpt lat="41.626787" lon="2.515968">
        <ele>441.192</ele>
        <time>2021-05-26T08:51:49Z</time>
      </trkpt>
      <trkpt lat="41.626783" lon="2.516010">
        <ele>441.185</ele>
        <time>2021-05-26T08:51:50Z</time>
      </trkpt>
      <trkpt lat="41.626784" lon="2.516047">
        <ele>441.210</ele>
        <time>2021-05-26T08:51:51Z</time>
      </trkpt>
      <trkpt lat="41.626775" lon="2.516121">
        <ele>441.466</ele>
        <time>2021-05-26T08:51:52Z</time>
      </trkpt>
      <trkpt lat="41.626764" lon="2.516158">
        <ele>441.323</ele>
        <time>2021-05-26T08:51:54Z</time>
      </trkpt>
      <trkpt lat="41.626752" lon="2.516197">
        <ele>441.310</ele>
        <time>2021-05-26T08:51:55Z</time>
      </trkpt>
      <trkpt lat="41.626746" lon="2.516228">
        <ele>441.237</ele>
        <time>2021-05-26T08:51:56Z</time>
      </trkpt>
      <trkpt lat="41.626735" lon="2.516267">
        <ele>441.249</ele>
        <time>2021-05-26T08:51:57Z</time>
      </trkpt>
      <trkpt lat="41.626724" lon="2.516308">
        <ele>441.213</ele>
        <time>2021-05-26T08:51:58Z</time>
      </trkpt>
      <trkpt lat="41.626718" lon="2.516349">
        <ele>441.108</ele>
        <time>2021-05-26T08:51:59Z</time>
      </trkpt>
      <trkpt lat="41.626711" lon="2.516389">
        <ele>441.040</ele>
        <time>2021-05-26T08:52:00Z</time>
      </trkpt>
      <trkpt lat="41.626699" lon="2.516429">
        <ele>440.847</ele>
        <time>2021-05-26T08:52:01Z</time>
      </trkpt>
      <trkpt lat="41.626689" lon="2.516463">
        <ele>440.714</ele>
        <time>2021-05-26T08:52:02Z</time>
      </trkpt>
      <trkpt lat="41.626684" lon="2.516499">
        <ele>440.447</ele>
        <time>2021-05-26T08:52:03Z</time>
      </trkpt>
      <trkpt lat="41.626674" lon="2.516538">
        <ele>440.272</ele>
        <time>2021-05-26T08:52:04Z</time>
      </trkpt>
      <trkpt lat="41.626671" lon="2.516578">
        <ele>439.888</ele>
        <time>2021-05-26T08:52:05Z</time>
      </trkpt>
      <trkpt lat="41.626668" lon="2.516621">
        <ele>439.575</ele>
        <time>2021-05-26T08:52:06Z</time>
      </trkpt>
      <trkpt lat="41.626659" lon="2.516658">
        <ele>439.052</ele>
        <time>2021-05-26T08:52:07Z</time>
      </trkpt>
      <trkpt lat="41.626655" lon="2.516695">
        <ele>438.633</ele>
        <time>2021-05-26T08:52:08Z</time>
      </trkpt>
      <trkpt lat="41.626652" lon="2.516727">
        <ele>438.223</ele>
        <time>2021-05-26T08:52:09Z</time>
      </trkpt>
      <trkpt lat="41.626652" lon="2.516763">
        <ele>437.815</ele>
        <time>2021-05-26T08:52:10Z</time>
      </trkpt>
      <trkpt lat="41.626649" lon="2.516803">
        <ele>437.408</ele>
        <time>2021-05-26T08:52:11Z</time>
      </trkpt>
      <trkpt lat="41.626646" lon="2.516851">
        <ele>436.860</ele>
        <time>2021-05-26T08:52:12Z</time>
      </trkpt>
      <trkpt lat="41.626644" lon="2.516892">
        <ele>436.477</ele>
        <time>2021-05-26T08:52:13Z</time>
      </trkpt>
      <trkpt lat="41.626639" lon="2.516934">
        <ele>435.924</ele>
        <time>2021-05-26T08:52:14Z</time>
      </trkpt>
      <trkpt lat="41.626632" lon="2.516970">
        <ele>435.567</ele>
        <time>2021-05-26T08:52:15Z</time>
      </trkpt>
      <trkpt lat="41.626627" lon="2.517009">
        <ele>435.282</ele>
        <time>2021-05-26T08:52:16Z</time>
      </trkpt>
      <trkpt lat="41.626611" lon="2.517091">
        <ele>434.358</ele>
        <time>2021-05-26T08:52:17Z</time>
      </trkpt>
      <trkpt lat="41.626606" lon="2.517132">
        <ele>433.975</ele>
        <time>2021-05-26T08:52:19Z</time>
      </trkpt>
      <trkpt lat="41.626598" lon="2.517168">
        <ele>433.532</ele>
        <time>2021-05-26T08:52:20Z</time>
      </trkpt>
      <trkpt lat="41.626589" lon="2.517207">
        <ele>433.085</ele>
        <time>2021-05-26T08:52:21Z</time>
      </trkpt>
      <trkpt lat="41.626583" lon="2.517249">
        <ele>432.689</ele>
        <time>2021-05-26T08:52:22Z</time>
      </trkpt>
      <trkpt lat="41.626575" lon="2.517287">
        <ele>432.217</ele>
        <time>2021-05-26T08:52:23Z</time>
      </trkpt>
      <trkpt lat="41.626569" lon="2.517325">
        <ele>431.808</ele>
        <time>2021-05-26T08:52:24Z</time>
      </trkpt>
      <trkpt lat="41.626561" lon="2.517357">
        <ele>431.425</ele>
        <time>2021-05-26T08:52:25Z</time>
      </trkpt>
      <trkpt lat="41.626540" lon="2.517436">
        <ele>430.492</ele>
        <time>2021-05-26T08:52:26Z</time>
      </trkpt>
      <trkpt lat="41.626534" lon="2.517477">
        <ele>429.969</ele>
        <time>2021-05-26T08:52:27Z</time>
      </trkpt>
      <trkpt lat="41.626524" lon="2.517520">
        <ele>429.112</ele>
        <time>2021-05-26T08:52:28Z</time>
      </trkpt>
      <trkpt lat="41.626520" lon="2.517563">
        <ele>428.327</ele>
        <time>2021-05-26T08:52:29Z</time>
      </trkpt>
      <trkpt lat="41.626523" lon="2.517602">
        <ele>427.753</ele>
        <time>2021-05-26T08:52:30Z</time>
      </trkpt>
      <trkpt lat="41.626526" lon="2.517639">
        <ele>427.270</ele>
        <time>2021-05-26T08:52:31Z</time>
      </trkpt>
      <trkpt lat="41.626532" lon="2.517677">
        <ele>426.737</ele>
        <time>2021-05-26T08:52:32Z</time>
      </trkpt>
      <trkpt lat="41.626539" lon="2.517711">
        <ele>426.331</ele>
        <time>2021-05-26T08:52:34Z</time>
      </trkpt>
      <trkpt lat="41.626543" lon="2.517743">
        <ele>425.961</ele>
        <time>2021-05-26T08:52:35Z</time>
      </trkpt>
      <trkpt lat="41.626552" lon="2.517812">
        <ele>425.207</ele>
        <time>2021-05-26T08:52:36Z</time>
      </trkpt>
      <trkpt lat="41.626554" lon="2.517883">
        <ele>424.408</ele>
        <time>2021-05-26T08:52:38Z</time>
      </trkpt>
      <trkpt lat="41.626554" lon="2.517924">
        <ele>424.050</ele>
        <time>2021-05-26T08:52:39Z</time>
      </trkpt>
      <trkpt lat="41.626553" lon="2.517965">
        <ele>423.577</ele>
        <time>2021-05-26T08:52:40Z</time>
      </trkpt>
      <trkpt lat="41.626553" lon="2.518003">
        <ele>423.134</ele>
        <time>2021-05-26T08:52:41Z</time>
      </trkpt>
      <trkpt lat="41.626555" lon="2.518040">
        <ele>422.837</ele>
        <time>2021-05-26T08:52:43Z</time>
      </trkpt>
      <trkpt lat="41.626559" lon="2.518077">
        <ele>422.662</ele>
        <time>2021-05-26T08:52:44Z</time>
      </trkpt>
      <trkpt lat="41.626566" lon="2.518153">
        <ele>422.798</ele>
        <time>2021-05-26T08:52:45Z</time>
      </trkpt>
      <trkpt lat="41.626569" lon="2.518187">
        <ele>422.775</ele>
        <time>2021-05-26T08:52:47Z</time>
      </trkpt>
      <trkpt lat="41.626570" lon="2.518222">
        <ele>422.732</ele>
        <time>2021-05-26T08:52:48Z</time>
      </trkpt>
      <trkpt lat="41.626568" lon="2.518261">
        <ele>422.671</ele>
        <time>2021-05-26T08:52:49Z</time>
      </trkpt>
      <trkpt lat="41.626566" lon="2.518293">
        <ele>422.541</ele>
        <time>2021-05-26T08:52:50Z</time>
      </trkpt>
      <trkpt lat="41.626558" lon="2.518359">
        <ele>422.515</ele>
        <time>2021-05-26T08:52:51Z</time>
      </trkpt>
      <trkpt lat="41.626554" lon="2.518388">
        <ele>422.808</ele>
        <time>2021-05-26T08:52:52Z</time>
      </trkpt>
      <trkpt lat="41.626551" lon="2.518424">
        <ele>423.144</ele>
        <time>2021-05-26T08:52:54Z</time>
      </trkpt>
      <trkpt lat="41.626549" lon="2.518459">
        <ele>423.441</ele>
        <time>2021-05-26T08:52:55Z</time>
      </trkpt>
      <trkpt lat="41.626550" lon="2.518491">
        <ele>423.848</ele>
        <time>2021-05-26T08:52:56Z</time>
      </trkpt>
      <trkpt lat="41.626560" lon="2.518562">
        <ele>424.881</ele>
        <time>2021-05-26T08:52:57Z</time>
      </trkpt>
      <trkpt lat="41.626566" lon="2.518599">
        <ele>425.376</ele>
        <time>2021-05-26T08:52:58Z</time>
      </trkpt>
      <trkpt lat="41.626581" lon="2.518667">
        <ele>426.062</ele>
        <time>2021-05-26T08:53:00Z</time>
      </trkpt>
      <trkpt lat="41.626589" lon="2.518692">
        <ele>426.359</ele>
        <time>2021-05-26T08:53:02Z</time>
      </trkpt>
      <trkpt lat="41.626601" lon="2.518713">
        <ele>426.696</ele>
        <time>2021-05-26T08:53:03Z</time>
      </trkpt>
      <trkpt lat="41.626628" lon="2.518766">
        <ele>427.586</ele>
        <time>2021-05-26T08:53:04Z</time>
      </trkpt>
      <trkpt lat="41.626641" lon="2.518798">
        <ele>428.060</ele>
        <time>2021-05-26T08:53:05Z</time>
      </trkpt>
      <trkpt lat="41.626652" lon="2.518829">
        <ele>428.426</ele>
        <time>2021-05-26T08:53:06Z</time>
      </trkpt>
      <trkpt lat="41.626665" lon="2.518858">
        <ele>428.808</ele>
        <time>2021-05-26T08:53:07Z</time>
      </trkpt>
      <trkpt lat="41.626677" lon="2.518891">
        <ele>429.055</ele>
        <time>2021-05-26T08:53:08Z</time>
      </trkpt>
      <trkpt lat="41.626684" lon="2.518925">
        <ele>428.862</ele>
        <time>2021-05-26T08:53:09Z</time>
      </trkpt>
      <trkpt lat="41.626692" lon="2.518957">
        <ele>428.699</ele>
        <time>2021-05-26T08:53:10Z</time>
      </trkpt>
      <trkpt lat="41.626701" lon="2.518992">
        <ele>428.372</ele>
        <time>2021-05-26T08:53:12Z</time>
      </trkpt>
      <trkpt lat="41.626709" lon="2.519027">
        <ele>428.217</ele>
        <time>2021-05-26T08:53:13Z</time>
      </trkpt>
      <trkpt lat="41.626718" lon="2.519094">
        <ele>427.843</ele>
        <time>2021-05-26T08:53:14Z</time>
      </trkpt>
      <trkpt lat="41.626723" lon="2.519128">
        <ele>427.640</ele>
        <time>2021-05-26T08:53:15Z</time>
      </trkpt>
      <trkpt lat="41.626727" lon="2.519160">
        <ele>427.527</ele>
        <time>2021-05-26T08:53:16Z</time>
      </trkpt>
      <trkpt lat="41.626731" lon="2.519193">
        <ele>427.258</ele>
        <time>2021-05-26T08:53:17Z</time>
      </trkpt>
      <trkpt lat="41.626733" lon="2.519227">
        <ele>426.952</ele>
        <time>2021-05-26T08:53:18Z</time>
      </trkpt>
      <trkpt lat="41.626736" lon="2.519264">
        <ele>426.517</ele>
        <time>2021-05-26T08:53:19Z</time>
      </trkpt>
      <trkpt lat="41.626738" lon="2.519303">
        <ele>426.208</ele>
        <time>2021-05-26T08:53:21Z</time>
      </trkpt>
      <trkpt lat="41.626744" lon="2.519342">
        <ele>425.842</ele>
        <time>2021-05-26T08:53:22Z</time>
      </trkpt>
      <trkpt lat="41.626754" lon="2.519404">
        <ele>425.359</ele>
        <time>2021-05-26T08:53:23Z</time>
      </trkpt>
      <trkpt lat="41.626759" lon="2.519438">
        <ele>425.136</ele>
        <time>2021-05-26T08:53:24Z</time>
      </trkpt>
      <trkpt lat="41.626763" lon="2.519473">
        <ele>424.879</ele>
        <time>2021-05-26T08:53:26Z</time>
      </trkpt>
      <trkpt lat="41.626766" lon="2.519511">
        <ele>424.424</ele>
        <time>2021-05-26T08:53:27Z</time>
      </trkpt>
      <trkpt lat="41.626770" lon="2.519548">
        <ele>424.170</ele>
        <time>2021-05-26T08:53:28Z</time>
      </trkpt>
      <trkpt lat="41.626772" lon="2.519634">
        <ele>423.367</ele>
        <time>2021-05-26T08:53:29Z</time>
      </trkpt>
      <trkpt lat="41.626769" lon="2.519675">
        <ele>422.844</ele>
        <time>2021-05-26T08:53:31Z</time>
      </trkpt>
      <trkpt lat="41.626766" lon="2.519714">
        <ele>422.449</ele>
        <time>2021-05-26T08:53:32Z</time>
      </trkpt>
      <trkpt lat="41.626761" lon="2.519751">
        <ele>422.302</ele>
        <time>2021-05-26T08:53:33Z</time>
      </trkpt>
      <trkpt lat="41.626754" lon="2.519790">
        <ele>422.222</ele>
        <time>2021-05-26T08:53:34Z</time>
      </trkpt>
      <trkpt lat="41.626747" lon="2.519829">
        <ele>422.208</ele>
        <time>2021-05-26T08:53:35Z</time>
      </trkpt>
      <trkpt lat="41.626738" lon="2.519866">
        <ele>422.141</ele>
        <time>2021-05-26T08:53:36Z</time>
      </trkpt>
      <trkpt lat="41.626727" lon="2.519905">
        <ele>422.118</ele>
        <time>2021-05-26T08:53:37Z</time>
      </trkpt>
      <trkpt lat="41.626716" lon="2.519937">
        <ele>422.095</ele>
        <time>2021-05-26T08:53:38Z</time>
      </trkpt>
      <trkpt lat="41.626704" lon="2.519966">
        <ele>422.058</ele>
        <time>2021-05-26T08:53:39Z</time>
      </trkpt>
      <trkpt lat="41.626692" lon="2.519995">
        <ele>422.083</ele>
        <time>2021-05-26T08:53:40Z</time>
      </trkpt>
      <trkpt lat="41.626678" lon="2.520022">
        <ele>422.029</ele>
        <time>2021-05-26T08:53:41Z</time>
      </trkpt>
      <trkpt lat="41.626665" lon="2.520050">
        <ele>422.086</ele>
        <time>2021-05-26T08:53:42Z</time>
      </trkpt>
      <trkpt lat="41.626654" lon="2.520075">
        <ele>421.823</ele>
        <time>2021-05-26T08:53:43Z</time>
      </trkpt>
      <trkpt lat="41.626640" lon="2.520107">
        <ele>421.699</ele>
        <time>2021-05-26T08:53:44Z</time>
      </trkpt>
      <trkpt lat="41.626626" lon="2.520142">
        <ele>421.407</ele>
        <time>2021-05-26T08:53:45Z</time>
      </trkpt>
      <trkpt lat="41.626615" lon="2.520179">
        <ele>421.427</ele>
        <time>2021-05-26T08:53:46Z</time>
      </trkpt>
      <trkpt lat="41.626606" lon="2.520213">
        <ele>421.408</ele>
        <time>2021-05-26T08:53:47Z</time>
      </trkpt>
      <trkpt lat="41.626580" lon="2.520321">
        <ele>421.636</ele>
        <time>2021-05-26T08:53:49Z</time>
      </trkpt>
      <trkpt lat="41.626574" lon="2.520361">
        <ele>421.823</ele>
        <time>2021-05-26T08:53:51Z</time>
      </trkpt>
      <trkpt lat="41.626564" lon="2.520399">
        <ele>422.030</ele>
        <time>2021-05-26T08:53:52Z</time>
      </trkpt>
      <trkpt lat="41.626555" lon="2.520429">
        <ele>422.213</ele>
        <time>2021-05-26T08:53:53Z</time>
      </trkpt>
      <trkpt lat="41.626541" lon="2.520460">
        <ele>422.398</ele>
        <time>2021-05-26T08:53:54Z</time>
      </trkpt>
      <trkpt lat="41.626526" lon="2.520488">
        <ele>422.524</ele>
        <time>2021-05-26T08:53:55Z</time>
      </trkpt>
      <trkpt lat="41.626512" lon="2.520515">
        <ele>422.751</ele>
        <time>2021-05-26T08:53:56Z</time>
      </trkpt>
      <trkpt lat="41.626497" lon="2.520547">
        <ele>422.968</ele>
        <time>2021-05-26T08:53:57Z</time>
      </trkpt>
      <trkpt lat="41.626477" lon="2.520573">
        <ele>423.113</ele>
        <time>2021-05-26T08:53:58Z</time>
      </trkpt>
      <trkpt lat="41.626464" lon="2.520594">
        <ele>423.343</ele>
        <time>2021-05-26T08:53:59Z</time>
      </trkpt>
      <trkpt lat="41.626448" lon="2.520615">
        <ele>423.607</ele>
        <time>2021-05-26T08:54:00Z</time>
      </trkpt>
      <trkpt lat="41.626434" lon="2.520634">
        <ele>423.808</ele>
        <time>2021-05-26T08:54:01Z</time>
      </trkpt>
      <trkpt lat="41.626416" lon="2.520656">
        <ele>424.058</ele>
        <time>2021-05-26T08:54:02Z</time>
      </trkpt>
      <trkpt lat="41.626401" lon="2.520681">
        <ele>424.395</ele>
        <time>2021-05-26T08:54:03Z</time>
      </trkpt>
      <trkpt lat="41.626383" lon="2.520708">
        <ele>424.562</ele>
        <time>2021-05-26T08:54:04Z</time>
      </trkpt>
      <trkpt lat="41.626370" lon="2.520739">
        <ele>424.455</ele>
        <time>2021-05-26T08:54:05Z</time>
      </trkpt>
      <trkpt lat="41.626360" lon="2.520769">
        <ele>424.430</ele>
        <time>2021-05-26T08:54:06Z</time>
      </trkpt>
      <trkpt lat="41.626351" lon="2.520800">
        <ele>424.446</ele>
        <time>2021-05-26T08:54:07Z</time>
      </trkpt>
      <trkpt lat="41.626347" lon="2.520830">
        <ele>424.673</ele>
        <time>2021-05-26T08:54:08Z</time>
      </trkpt>
      <trkpt lat="41.626345" lon="2.520862">
        <ele>424.830</ele>
        <time>2021-05-26T08:54:09Z</time>
      </trkpt>
      <trkpt lat="41.626345" lon="2.520930">
        <ele>425.332</ele>
        <time>2021-05-26T08:54:10Z</time>
      </trkpt>
      <trkpt lat="41.626342" lon="2.520960">
        <ele>425.592</ele>
        <time>2021-05-26T08:54:11Z</time>
      </trkpt>
      <trkpt lat="41.626335" lon="2.520992">
        <ele>425.511</ele>
        <time>2021-05-26T08:54:12Z</time>
      </trkpt>
      <trkpt lat="41.626324" lon="2.521031">
        <ele>425.508</ele>
        <time>2021-05-26T08:54:13Z</time>
      </trkpt>
      <trkpt lat="41.626318" lon="2.521065">
        <ele>425.660</ele>
        <time>2021-05-26T08:54:14Z</time>
      </trkpt>
      <trkpt lat="41.626315" lon="2.521095">
        <ele>425.777</ele>
        <time>2021-05-26T08:54:15Z</time>
      </trkpt>
      <trkpt lat="41.626313" lon="2.521128">
        <ele>425.944</ele>
        <time>2021-05-26T08:54:16Z</time>
      </trkpt>
      <trkpt lat="41.626309" lon="2.521163">
        <ele>425.937</ele>
        <time>2021-05-26T08:54:18Z</time>
      </trkpt>
      <trkpt lat="41.626306" lon="2.521195">
        <ele>425.932</ele>
        <time>2021-05-26T08:54:19Z</time>
      </trkpt>
      <trkpt lat="41.626298" lon="2.521256">
        <ele>425.938</ele>
        <time>2021-05-26T08:54:20Z</time>
      </trkpt>
      <trkpt lat="41.626289" lon="2.521286">
        <ele>425.865</ele>
        <time>2021-05-26T08:54:22Z</time>
      </trkpt>
      <trkpt lat="41.626283" lon="2.521321">
        <ele>425.862</ele>
        <time>2021-05-26T08:54:23Z</time>
      </trkpt>
      <trkpt lat="41.626276" lon="2.521353">
        <ele>425.814</ele>
        <time>2021-05-26T08:54:24Z</time>
      </trkpt>
      <trkpt lat="41.626255" lon="2.521417">
        <ele>425.554</ele>
        <time>2021-05-26T08:54:25Z</time>
      </trkpt>
      <trkpt lat="41.626242" lon="2.521451">
        <ele>425.109</ele>
        <time>2021-05-26T08:54:27Z</time>
      </trkpt>
      <trkpt lat="41.626226" lon="2.521480">
        <ele>424.808</ele>
        <time>2021-05-26T08:54:28Z</time>
      </trkpt>
      <trkpt lat="41.626210" lon="2.521510">
        <ele>424.548</ele>
        <time>2021-05-26T08:54:29Z</time>
      </trkpt>
      <trkpt lat="41.626190" lon="2.521541">
        <ele>424.115</ele>
        <time>2021-05-26T08:54:30Z</time>
      </trkpt>
      <trkpt lat="41.626171" lon="2.521570">
        <ele>423.832</ele>
        <time>2021-05-26T08:54:31Z</time>
      </trkpt>
      <trkpt lat="41.626149" lon="2.521600">
        <ele>423.545</ele>
        <time>2021-05-26T08:54:32Z</time>
      </trkpt>
      <trkpt lat="41.626128" lon="2.521627">
        <ele>423.230</ele>
        <time>2021-05-26T08:54:33Z</time>
      </trkpt>
      <trkpt lat="41.626109" lon="2.521653">
        <ele>422.976</ele>
        <time>2021-05-26T08:54:34Z</time>
      </trkpt>
      <trkpt lat="41.626084" lon="2.521679">
        <ele>422.163</ele>
        <time>2021-05-26T08:54:35Z</time>
      </trkpt>
      <trkpt lat="41.626060" lon="2.521700">
        <ele>421.470</ele>
        <time>2021-05-26T08:54:36Z</time>
      </trkpt>
      <trkpt lat="41.626038" lon="2.521720">
        <ele>420.845</ele>
        <time>2021-05-26T08:54:37Z</time>
      </trkpt>
      <trkpt lat="41.626016" lon="2.521750">
        <ele>420.347</ele>
        <time>2021-05-26T08:54:38Z</time>
      </trkpt>
      <trkpt lat="41.626001" lon="2.521780">
        <ele>420.211</ele>
        <time>2021-05-26T08:54:39Z</time>
      </trkpt>
      <trkpt lat="41.625986" lon="2.521816">
        <ele>420.108</ele>
        <time>2021-05-26T08:54:40Z</time>
      </trkpt>
      <trkpt lat="41.625975" lon="2.521852">
        <ele>420.291</ele>
        <time>2021-05-26T08:54:41Z</time>
      </trkpt>
      <trkpt lat="41.625969" lon="2.521888">
        <ele>420.598</ele>
        <time>2021-05-26T08:54:42Z</time>
      </trkpt>
      <trkpt lat="41.625966" lon="2.521927">
        <ele>420.875</ele>
        <time>2021-05-26T08:54:43Z</time>
      </trkpt>
      <trkpt lat="41.625962" lon="2.521966">
        <ele>420.828</ele>
        <time>2021-05-26T08:54:44Z</time>
      </trkpt>
      <trkpt lat="41.625955" lon="2.522005">
        <ele>420.643</ele>
        <time>2021-05-26T08:54:45Z</time>
      </trkpt>
      <trkpt lat="41.625950" lon="2.522042">
        <ele>420.559</ele>
        <time>2021-05-26T08:54:46Z</time>
      </trkpt>
      <trkpt lat="41.625941" lon="2.522080">
        <ele>420.376</ele>
        <time>2021-05-26T08:54:47Z</time>
      </trkpt>
      <trkpt lat="41.625936" lon="2.522121">
        <ele>420.283</ele>
        <time>2021-05-26T08:54:48Z</time>
      </trkpt>
      <trkpt lat="41.625927" lon="2.522195">
        <ele>420.186</ele>
        <time>2021-05-26T08:54:49Z</time>
      </trkpt>
      <trkpt lat="41.625919" lon="2.522234">
        <ele>420.060</ele>
        <time>2021-05-26T08:54:50Z</time>
      </trkpt>
      <trkpt lat="41.625910" lon="2.522273">
        <ele>419.726</ele>
        <time>2021-05-26T08:54:52Z</time>
      </trkpt>
      <trkpt lat="41.625901" lon="2.522312">
        <ele>419.608</ele>
        <time>2021-05-26T08:54:53Z</time>
      </trkpt>
      <trkpt lat="41.625893" lon="2.522351">
        <ele>419.445</ele>
        <time>2021-05-26T08:54:54Z</time>
      </trkpt>
      <trkpt lat="41.625885" lon="2.522392">
        <ele>419.352</ele>
        <time>2021-05-26T08:54:55Z</time>
      </trkpt>
      <trkpt lat="41.625881" lon="2.522430">
        <ele>419.179</ele>
        <time>2021-05-26T08:54:56Z</time>
      </trkpt>
      <trkpt lat="41.625877" lon="2.522467">
        <ele>419.092</ele>
        <time>2021-05-26T08:54:57Z</time>
      </trkpt>
      <trkpt lat="41.625880" lon="2.522509">
        <ele>418.647</ele>
        <time>2021-05-26T08:54:58Z</time>
      </trkpt>
      <trkpt lat="41.625882" lon="2.522545">
        <ele>418.473</ele>
        <time>2021-05-26T08:54:59Z</time>
      </trkpt>
      <trkpt lat="41.625881" lon="2.522581">
        <ele>418.290</ele>
        <time>2021-05-26T08:55:00Z</time>
      </trkpt>
      <trkpt lat="41.625880" lon="2.522618">
        <ele>418.017</ele>
        <time>2021-05-26T08:55:01Z</time>
      </trkpt>
      <trkpt lat="41.625886" lon="2.522661">
        <ele>417.696</ele>
        <time>2021-05-26T08:55:02Z</time>
      </trkpt>
      <trkpt lat="41.625892" lon="2.522698">
        <ele>417.131</ele>
        <time>2021-05-26T08:55:03Z</time>
      </trkpt>
      <trkpt lat="41.625897" lon="2.522733">
        <ele>416.824</ele>
        <time>2021-05-26T08:55:04Z</time>
      </trkpt>
      <trkpt lat="41.625902" lon="2.522769">
        <ele>416.308</ele>
        <time>2021-05-26T08:55:05Z</time>
      </trkpt>
      <trkpt lat="41.625911" lon="2.522805">
        <ele>415.916</ele>
        <time>2021-05-26T08:55:06Z</time>
      </trkpt>
      <trkpt lat="41.625918" lon="2.522843">
        <ele>415.623</ele>
        <time>2021-05-26T08:55:07Z</time>
      </trkpt>
      <trkpt lat="41.625924" lon="2.522879">
        <ele>415.470</ele>
        <time>2021-05-26T08:55:08Z</time>
      </trkpt>
      <trkpt lat="41.625925" lon="2.522921">
        <ele>415.493</ele>
        <time>2021-05-26T08:55:09Z</time>
      </trkpt>
      <trkpt lat="41.625924" lon="2.522959">
        <ele>415.468</ele>
        <time>2021-05-26T08:55:10Z</time>
      </trkpt>
      <trkpt lat="41.625927" lon="2.523001">
        <ele>415.374</ele>
        <time>2021-05-26T08:55:11Z</time>
      </trkpt>
      <trkpt lat="41.625929" lon="2.523038">
        <ele>415.261</ele>
        <time>2021-05-26T08:55:12Z</time>
      </trkpt>
      <trkpt lat="41.625931" lon="2.523072">
        <ele>415.258</ele>
        <time>2021-05-26T08:55:13Z</time>
      </trkpt>
      <trkpt lat="41.625943" lon="2.523112">
        <ele>414.854</ele>
        <time>2021-05-26T08:55:14Z</time>
      </trkpt>
      <trkpt lat="41.625951" lon="2.523150">
        <ele>414.656</ele>
        <time>2021-05-26T08:55:15Z</time>
      </trkpt>
      <trkpt lat="41.625955" lon="2.523185">
        <ele>414.511</ele>
        <time>2021-05-26T08:55:16Z</time>
      </trkpt>
      <trkpt lat="41.625963" lon="2.523224">
        <ele>414.408</ele>
        <time>2021-05-26T08:55:17Z</time>
      </trkpt>
      <trkpt lat="41.625974" lon="2.523259">
        <ele>414.282</ele>
        <time>2021-05-26T08:55:18Z</time>
      </trkpt>
      <trkpt lat="41.625987" lon="2.523296">
        <ele>414.099</ele>
        <time>2021-05-26T08:55:19Z</time>
      </trkpt>
      <trkpt lat="41.626000" lon="2.523337">
        <ele>413.856</ele>
        <time>2021-05-26T08:55:20Z</time>
      </trkpt>
      <trkpt lat="41.626012" lon="2.523372">
        <ele>413.469</ele>
        <time>2021-05-26T08:55:21Z</time>
      </trkpt>
      <trkpt lat="41.626026" lon="2.523409">
        <ele>413.144</ele>
        <time>2021-05-26T08:55:22Z</time>
      </trkpt>
      <trkpt lat="41.626040" lon="2.523443">
        <ele>412.890</ele>
        <time>2021-05-26T08:55:23Z</time>
      </trkpt>
      <trkpt lat="41.626047" lon="2.523477">
        <ele>412.777</ele>
        <time>2021-05-26T08:55:24Z</time>
      </trkpt>
      <trkpt lat="41.626056" lon="2.523511">
        <ele>412.574</ele>
        <time>2021-05-26T08:55:25Z</time>
      </trkpt>
      <trkpt lat="41.626067" lon="2.523543">
        <ele>412.496</ele>
        <time>2021-05-26T08:55:26Z</time>
      </trkpt>
      <trkpt lat="41.626076" lon="2.523581">
        <ele>412.331</ele>
        <time>2021-05-26T08:55:27Z</time>
      </trkpt>
      <trkpt lat="41.626094" lon="2.523617">
        <ele>412.224</ele>
        <time>2021-05-26T08:55:28Z</time>
      </trkpt>
      <trkpt lat="41.626104" lon="2.523656">
        <ele>411.908</ele>
        <time>2021-05-26T08:55:29Z</time>
      </trkpt>
      <trkpt lat="41.626112" lon="2.523692">
        <ele>411.786</ele>
        <time>2021-05-26T08:55:30Z</time>
      </trkpt>
      <trkpt lat="41.626115" lon="2.523728">
        <ele>411.483</ele>
        <time>2021-05-26T08:55:31Z</time>
      </trkpt>
      <trkpt lat="41.626123" lon="2.523766">
        <ele>411.030</ele>
        <time>2021-05-26T08:55:32Z</time>
      </trkpt>
      <trkpt lat="41.626134" lon="2.523800">
        <ele>410.483</ele>
        <time>2021-05-26T08:55:33Z</time>
      </trkpt>
      <trkpt lat="41.626150" lon="2.523834">
        <ele>409.768</ele>
        <time>2021-05-26T08:55:34Z</time>
      </trkpt>
      <trkpt lat="41.626163" lon="2.523868">
        <ele>409.284</ele>
        <time>2021-05-26T08:55:35Z</time>
      </trkpt>
      <trkpt lat="41.626175" lon="2.523907">
        <ele>408.531</ele>
        <time>2021-05-26T08:55:36Z</time>
      </trkpt>
      <trkpt lat="41.626181" lon="2.523944">
        <ele>407.848</ele>
        <time>2021-05-26T08:55:37Z</time>
      </trkpt>
      <trkpt lat="41.626199" lon="2.524018">
        <ele>406.311</ele>
        <time>2021-05-26T08:55:38Z</time>
      </trkpt>
      <trkpt lat="41.626202" lon="2.524056">
        <ele>405.721</ele>
        <time>2021-05-26T08:55:39Z</time>
      </trkpt>
      <trkpt lat="41.626206" lon="2.524089">
        <ele>405.203</ele>
        <time>2021-05-26T08:55:41Z</time>
      </trkpt>
      <trkpt lat="41.626211" lon="2.524118">
        <ele>404.708</ele>
        <time>2021-05-26T08:55:42Z</time>
      </trkpt>
      <trkpt lat="41.626218" lon="2.524148">
        <ele>404.178</ele>
        <time>2021-05-26T08:55:43Z</time>
      </trkpt>
      <trkpt lat="41.626227" lon="2.524174">
        <ele>403.615</ele>
        <time>2021-05-26T08:55:44Z</time>
      </trkpt>
      <trkpt lat="41.626241" lon="2.524208">
        <ele>402.992</ele>
        <time>2021-05-26T08:55:45Z</time>
      </trkpt>
      <trkpt lat="41.626258" lon="2.524244">
        <ele>402.125</ele>
        <time>2021-05-26T08:55:46Z</time>
      </trkpt>
      <trkpt lat="41.626267" lon="2.524274">
        <ele>401.760</ele>
        <time>2021-05-26T08:55:47Z</time>
      </trkpt>
      <trkpt lat="41.626273" lon="2.524312">
        <ele>401.286</ele>
        <time>2021-05-26T08:55:48Z</time>
      </trkpt>
      <trkpt lat="41.626278" lon="2.524347">
        <ele>400.983</ele>
        <time>2021-05-26T08:55:49Z</time>
      </trkpt>
      <trkpt lat="41.626284" lon="2.524388">
        <ele>400.560</ele>
        <time>2021-05-26T08:55:50Z</time>
      </trkpt>
      <trkpt lat="41.626299" lon="2.524468">
        <ele>399.899</ele>
        <time>2021-05-26T08:55:51Z</time>
      </trkpt>
      <trkpt lat="41.626305" lon="2.524510">
        <ele>399.407</ele>
        <time>2021-05-26T08:55:53Z</time>
      </trkpt>
      <trkpt lat="41.626311" lon="2.524556">
        <ele>399.027</ele>
        <time>2021-05-26T08:55:54Z</time>
      </trkpt>
      <trkpt lat="41.626315" lon="2.524600">
        <ele>398.608</ele>
        <time>2021-05-26T08:55:55Z</time>
      </trkpt>
      <trkpt lat="41.626328" lon="2.524679">
        <ele>398.166</ele>
        <time>2021-05-26T08:55:56Z</time>
      </trkpt>
      <trkpt lat="41.626337" lon="2.524712">
        <ele>397.913</ele>
        <time>2021-05-26T08:55:57Z</time>
      </trkpt>
      <trkpt lat="41.626353" lon="2.524782">
        <ele>397.220</ele>
        <time>2021-05-26T08:55:59Z</time>
      </trkpt>
      <trkpt lat="41.626370" lon="2.524849">
        <ele>396.543</ele>
        <time>2021-05-26T08:56:01Z</time>
      </trkpt>
      <trkpt lat="41.626382" lon="2.524877">
        <ele>396.398</ele>
        <time>2021-05-26T08:56:02Z</time>
      </trkpt>
      <trkpt lat="41.626395" lon="2.524920">
        <ele>395.714</ele>
        <time>2021-05-26T08:56:04Z</time>
      </trkpt>
      <trkpt lat="41.626408" lon="2.524959">
        <ele>395.131</ele>
        <time>2021-05-26T08:56:05Z</time>
      </trkpt>
      <trkpt lat="41.626423" lon="2.524997">
        <ele>394.468</ele>
        <time>2021-05-26T08:56:06Z</time>
      </trkpt>
      <trkpt lat="41.626436" lon="2.525039">
        <ele>393.839</ele>
        <time>2021-05-26T08:56:07Z</time>
      </trkpt>
      <trkpt lat="41.626448" lon="2.525071">
        <ele>393.301</ele>
        <time>2021-05-26T08:56:08Z</time>
      </trkpt>
      <trkpt lat="41.626458" lon="2.525103">
        <ele>392.821</ele>
        <time>2021-05-26T08:56:09Z</time>
      </trkpt>
      <trkpt lat="41.626474" lon="2.525136">
        <ele>392.308</ele>
        <time>2021-05-26T08:56:10Z</time>
      </trkpt>
      <trkpt lat="41.626494" lon="2.525166">
        <ele>391.810</ele>
        <time>2021-05-26T08:56:11Z</time>
      </trkpt>
      <trkpt lat="41.626509" lon="2.525194">
        <ele>391.377</ele>
        <time>2021-05-26T08:56:12Z</time>
      </trkpt>
      <trkpt lat="41.626524" lon="2.525216">
        <ele>391.074</ele>
        <time>2021-05-26T08:56:13Z</time>
      </trkpt>
      <trkpt lat="41.626538" lon="2.525240">
        <ele>390.797</ele>
        <time>2021-05-26T08:56:14Z</time>
      </trkpt>
      <trkpt lat="41.626555" lon="2.525271">
        <ele>390.212</ele>
        <time>2021-05-26T08:56:15Z</time>
      </trkpt>
      <trkpt lat="41.626570" lon="2.525300">
        <ele>389.838</ele>
        <time>2021-05-26T08:56:16Z</time>
      </trkpt>
      <trkpt lat="41.626594" lon="2.525336">
        <ele>389.355</ele>
        <time>2021-05-26T08:56:17Z</time>
      </trkpt>
      <trkpt lat="41.626629" lon="2.525414">
        <ele>388.332</ele>
        <time>2021-05-26T08:56:18Z</time>
      </trkpt>
      <trkpt lat="41.626647" lon="2.525442">
        <ele>387.995</ele>
        <time>2021-05-26T08:56:19Z</time>
      </trkpt>
      <trkpt lat="41.626665" lon="2.525469">
        <ele>387.649</ele>
        <time>2021-05-26T08:56:20Z</time>
      </trkpt>
      <trkpt lat="41.626680" lon="2.525500">
        <ele>387.223</ele>
        <time>2021-05-26T08:56:21Z</time>
      </trkpt>
      <trkpt lat="41.626690" lon="2.525535">
        <ele>386.908</ele>
        <time>2021-05-26T08:56:22Z</time>
      </trkpt>
      <trkpt lat="41.626703" lon="2.525565">
        <ele>386.546</ele>
        <time>2021-05-26T08:56:23Z</time>
      </trkpt>
      <trkpt lat="41.626716" lon="2.525595">
        <ele>386.223</ele>
        <time>2021-05-26T08:56:24Z</time>
      </trkpt>
      <trkpt lat="41.626729" lon="2.525625">
        <ele>385.980</ele>
        <time>2021-05-26T08:56:25Z</time>
      </trkpt>
      <trkpt lat="41.626741" lon="2.525659">
        <ele>385.733</ele>
        <time>2021-05-26T08:56:26Z</time>
      </trkpt>
      <trkpt lat="41.626754" lon="2.525695">
        <ele>385.448</ele>
        <time>2021-05-26T08:56:28Z</time>
      </trkpt>
      <trkpt lat="41.626765" lon="2.525733">
        <ele>385.144</ele>
        <time>2021-05-26T08:56:29Z</time>
      </trkpt>
      <trkpt lat="41.626772" lon="2.525769">
        <ele>384.951</ele>
        <time>2021-05-26T08:56:30Z</time>
      </trkpt>
      <trkpt lat="41.626782" lon="2.525799">
        <ele>384.748</ele>
        <time>2021-05-26T08:56:31Z</time>
      </trkpt>
      <trkpt lat="41.626784" lon="2.525831">
        <ele>384.676</ele>
        <time>2021-05-26T08:56:32Z</time>
      </trkpt>
      <trkpt lat="41.626794" lon="2.525907">
        <ele>384.190</ele>
        <time>2021-05-26T08:56:33Z</time>
      </trkpt>
      <trkpt lat="41.626799" lon="2.525947">
        <ele>383.919</ele>
        <time>2021-05-26T08:56:35Z</time>
      </trkpt>
      <trkpt lat="41.626809" lon="2.525986">
        <ele>383.708</ele>
        <time>2021-05-26T08:56:36Z</time>
      </trkpt>
      <trkpt lat="41.626818" lon="2.526027">
        <ele>383.444</ele>
        <time>2021-05-26T08:56:37Z</time>
      </trkpt>
      <trkpt lat="41.626830" lon="2.526067">
        <ele>383.221</ele>
        <time>2021-05-26T08:56:38Z</time>
      </trkpt>
      <trkpt lat="41.626843" lon="2.526108">
        <ele>383.018</ele>
        <time>2021-05-26T08:56:39Z</time>
      </trkpt>
      <trkpt lat="41.626856" lon="2.526148">
        <ele>382.551</ele>
        <time>2021-05-26T08:56:40Z</time>
      </trkpt>
      <trkpt lat="41.626885" lon="2.526221">
        <ele>381.626</ele>
        <time>2021-05-26T08:56:41Z</time>
      </trkpt>
      <trkpt lat="41.626903" lon="2.526256">
        <ele>381.252</ele>
        <time>2021-05-26T08:56:42Z</time>
      </trkpt>
      <trkpt lat="41.626919" lon="2.526284">
        <ele>381.089</ele>
        <time>2021-05-26T08:56:43Z</time>
      </trkpt>
      <trkpt lat="41.626933" lon="2.526310">
        <ele>380.866</ele>
        <time>2021-05-26T08:56:44Z</time>
      </trkpt>
      <trkpt lat="41.626947" lon="2.526347">
        <ele>380.477</ele>
        <time>2021-05-26T08:56:46Z</time>
      </trkpt>
      <trkpt lat="41.626963" lon="2.526382">
        <ele>380.161</ele>
        <time>2021-05-26T08:56:47Z</time>
      </trkpt>
      <trkpt lat="41.626981" lon="2.526418">
        <ele>379.727</ele>
        <time>2021-05-26T08:56:48Z</time>
      </trkpt>
      <trkpt lat="41.626997" lon="2.526447">
        <ele>379.308</ele>
        <time>2021-05-26T08:56:49Z</time>
      </trkpt>
      <trkpt lat="41.627014" lon="2.526475">
        <ele>379.064</ele>
        <time>2021-05-26T08:56:50Z</time>
      </trkpt>
      <trkpt lat="41.627030" lon="2.526510">
        <ele>378.691</ele>
        <time>2021-05-26T08:56:51Z</time>
      </trkpt>
      <trkpt lat="41.627050" lon="2.526537">
        <ele>378.228</ele>
        <time>2021-05-26T08:56:52Z</time>
      </trkpt>
      <trkpt lat="41.627071" lon="2.526562">
        <ele>377.891</ele>
        <time>2021-05-26T08:56:53Z</time>
      </trkpt>
      <trkpt lat="41.627088" lon="2.526584">
        <ele>377.536</ele>
        <time>2021-05-26T08:56:54Z</time>
      </trkpt>
      <trkpt lat="41.627105" lon="2.526613">
        <ele>377.132</ele>
        <time>2021-05-26T08:56:55Z</time>
      </trkpt>
      <trkpt lat="41.627113" lon="2.526643">
        <ele>376.739</ele>
        <time>2021-05-26T08:56:56Z</time>
      </trkpt>
      <trkpt lat="41.627105" lon="2.526669">
        <ele>376.456</ele>
        <time>2021-05-26T08:56:57Z</time>
      </trkpt>
      <trkpt lat="41.627090" lon="2.526694">
        <ele>376.134</ele>
        <time>2021-05-26T08:56:58Z</time>
      </trkpt>
      <trkpt lat="41.627074" lon="2.526723">
        <ele>375.855</ele>
        <time>2021-05-26T08:56:59Z</time>
      </trkpt>
      <trkpt lat="41.627063" lon="2.526749">
        <ele>375.510</ele>
        <time>2021-05-26T08:57:00Z</time>
      </trkpt>
      <trkpt lat="41.627039" lon="2.526804">
        <ele>374.908</ele>
        <time>2021-05-26T08:57:01Z</time>
      </trkpt>
      <trkpt lat="41.627023" lon="2.526820">
        <ele>374.760</ele>
        <time>2021-05-26T08:57:02Z</time>
      </trkpt>
      <trkpt lat="41.627008" lon="2.526834">
        <ele>374.577</ele>
        <time>2021-05-26T08:57:03Z</time>
      </trkpt>
      <trkpt lat="41.627010" lon="2.526868">
        <ele>374.084</ele>
        <time>2021-05-26T08:57:06Z</time>
      </trkpt>
      <trkpt lat="41.627028" lon="2.526902">
        <ele>373.617</ele>
        <time>2021-05-26T08:57:08Z</time>
      </trkpt>
      <trkpt lat="41.627036" lon="2.526930">
        <ele>373.222</ele>
        <time>2021-05-26T08:57:51Z</time>
      </trkpt>
      <trkpt lat="41.627038" lon="2.526959">
        <ele>372.928</ele>
        <time>2021-05-26T08:57:53Z</time>
      </trkpt>
      <trkpt lat="41.627019" lon="2.526967">
        <ele>372.885</ele>
        <time>2021-05-26T08:57:55Z</time>
      </trkpt>
      <trkpt lat="41.626993" lon="2.526970">
        <ele>372.872</ele>
        <time>2021-05-26T08:57:56Z</time>
      </trkpt>
      <trkpt lat="41.626958" lon="2.526969">
        <ele>372.816</ele>
        <time>2021-05-26T08:57:59Z</time>
      </trkpt>
      <trkpt lat="41.626929" lon="2.526969">
        <ele>372.776</ele>
        <time>2021-05-26T08:58:01Z</time>
      </trkpt>
      <trkpt lat="41.626910" lon="2.526969">
        <ele>372.613</ele>
        <time>2021-05-26T08:58:03Z</time>
      </trkpt>
      <trkpt lat="41.626885" lon="2.526975">
        <ele>372.408</ele>
        <time>2021-05-26T08:58:05Z</time>
      </trkpt>
      <trkpt lat="41.626863" lon="2.526988">
        <ele>372.138</ele>
        <time>2021-05-26T08:58:07Z</time>
      </trkpt>
      <trkpt lat="41.626834" lon="2.527002">
        <ele>371.875</ele>
        <time>2021-05-26T08:58:09Z</time>
      </trkpt>
      <trkpt lat="41.626809" lon="2.527012">
        <ele>371.532</ele>
        <time>2021-05-26T08:58:11Z</time>
      </trkpt>
      <trkpt lat="41.626781" lon="2.527009">
        <ele>371.445</ele>
        <time>2021-05-26T08:58:12Z</time>
      </trkpt>
      <trkpt lat="41.626748" lon="2.527010">
        <ele>371.140</ele>
        <time>2021-05-26T08:58:15Z</time>
      </trkpt>
      <trkpt lat="41.626718" lon="2.527017">
        <ele>370.846</ele>
        <time>2021-05-26T08:58:17Z</time>
      </trkpt>
      <trkpt lat="41.626689" lon="2.527015">
        <ele>370.753</ele>
        <time>2021-05-26T08:58:18Z</time>
      </trkpt>
      <trkpt lat="41.626657" lon="2.527026">
        <ele>370.250</ele>
        <time>2021-05-26T08:58:21Z</time>
      </trkpt>
      <trkpt lat="41.626628" lon="2.527015">
        <ele>369.843</ele>
        <time>2021-05-26T08:58:23Z</time>
      </trkpt>
      <trkpt lat="41.626606" lon="2.527011">
        <ele>369.464</ele>
        <time>2021-05-26T08:58:24Z</time>
      </trkpt>
      <trkpt lat="41.626585" lon="2.527012">
        <ele>369.010</ele>
        <time>2021-05-26T08:58:25Z</time>
      </trkpt>
      <trkpt lat="41.626567" lon="2.527022">
        <ele>368.508</ele>
        <time>2021-05-26T08:58:26Z</time>
      </trkpt>
      <trkpt lat="41.626543" lon="2.527036">
        <ele>368.071</ele>
        <time>2021-05-26T08:58:28Z</time>
      </trkpt>
      <trkpt lat="41.626522" lon="2.527056">
        <ele>367.458</ele>
        <time>2021-05-26T08:58:29Z</time>
      </trkpt>
      <trkpt lat="41.626524" lon="2.527086">
        <ele>367.215</ele>
        <time>2021-05-26T08:58:32Z</time>
      </trkpt>
      <trkpt lat="41.626504" lon="2.527117">
        <ele>366.528</ele>
        <time>2021-05-26T08:58:35Z</time>
      </trkpt>
      <trkpt lat="41.626483" lon="2.527136">
        <ele>365.933</ele>
        <time>2021-05-26T08:58:36Z</time>
      </trkpt>
      <trkpt lat="41.626473" lon="2.527197">
        <ele>365.189</ele>
        <time>2021-05-26T08:58:40Z</time>
      </trkpt>
      <trkpt lat="41.626485" lon="2.527226">
        <ele>365.026</ele>
        <time>2021-05-26T08:58:41Z</time>
      </trkpt>
      <trkpt lat="41.626519" lon="2.527258">
        <ele>365.693</ele>
        <time>2021-05-26T08:58:43Z</time>
      </trkpt>
      <trkpt lat="41.626532" lon="2.527276">
        <ele>365.712</ele>
        <time>2021-05-26T08:58:44Z</time>
      </trkpt>
      <trkpt lat="41.626551" lon="2.527311">
        <ele>365.932</ele>
        <time>2021-05-26T08:58:46Z</time>
      </trkpt>
      <trkpt lat="41.626557" lon="2.527352">
        <ele>365.705</ele>
        <time>2021-05-26T08:58:48Z</time>
      </trkpt>
      <trkpt lat="41.626577" lon="2.527375">
        <ele>366.008</ele>
        <time>2021-05-26T08:58:49Z</time>
      </trkpt>
      <trkpt lat="41.626605" lon="2.527382">
        <ele>366.598</ele>
        <time>2021-05-26T08:58:52Z</time>
      </trkpt>
      <trkpt lat="41.626634" lon="2.527381">
        <ele>367.265</ele>
        <time>2021-05-26T08:58:53Z</time>
      </trkpt>
      <trkpt lat="41.626655" lon="2.527373">
        <ele>367.782</ele>
        <time>2021-05-26T08:58:56Z</time>
      </trkpt>
      <trkpt lat="41.626677" lon="2.527366">
        <ele>368.125</ele>
        <time>2021-05-26T08:58:58Z</time>
      </trkpt>
      <trkpt lat="41.626703" lon="2.527356">
        <ele>368.460</ele>
        <time>2021-05-26T08:59:00Z</time>
      </trkpt>
      <trkpt lat="41.626728" lon="2.527350">
        <ele>368.776</ele>
        <time>2021-05-26T08:59:01Z</time>
      </trkpt>
      <trkpt lat="41.626757" lon="2.527345">
        <ele>369.113</ele>
        <time>2021-05-26T08:59:04Z</time>
      </trkpt>
      <trkpt lat="41.626779" lon="2.527342">
        <ele>369.390</ele>
        <time>2021-05-26T08:59:05Z</time>
      </trkpt>
      <trkpt lat="41.626805" lon="2.527344">
        <ele>369.686</ele>
        <time>2021-05-26T08:59:08Z</time>
      </trkpt>
      <trkpt lat="41.626826" lon="2.527346">
        <ele>369.860</ele>
        <time>2021-05-26T08:59:09Z</time>
      </trkpt>
      <trkpt lat="41.626854" lon="2.527343">
        <ele>370.126</ele>
        <time>2021-05-26T08:59:11Z</time>
      </trkpt>
      <trkpt lat="41.626886" lon="2.527341">
        <ele>370.408</ele>
        <time>2021-05-26T08:59:12Z</time>
      </trkpt>
      <trkpt lat="41.626905" lon="2.527346">
        <ele>370.675</ele>
        <time>2021-05-26T08:59:13Z</time>
      </trkpt>
      <trkpt lat="41.626930" lon="2.527357">
        <ele>370.812</ele>
        <time>2021-05-26T08:59:16Z</time>
      </trkpt>
      <trkpt lat="41.626954" lon="2.527369">
        <ele>371.069</ele>
        <time>2021-05-26T08:59:18Z</time>
      </trkpt>
      <trkpt lat="41.627000" lon="2.527393">
        <ele>371.272</ele>
        <time>2021-05-26T08:59:20Z</time>
      </trkpt>
      <trkpt lat="41.627029" lon="2.527400">
        <ele>371.467</ele>
        <time>2021-05-26T08:59:22Z</time>
      </trkpt>
      <trkpt lat="41.627058" lon="2.527415">
        <ele>371.623</ele>
        <time>2021-05-26T08:59:25Z</time>
      </trkpt>
      <trkpt lat="41.627093" lon="2.527430">
        <ele>371.840</ele>
        <time>2021-05-26T08:59:27Z</time>
      </trkpt>
      <trkpt lat="41.627120" lon="2.527440">
        <ele>372.097</ele>
        <time>2021-05-26T08:59:29Z</time>
      </trkpt>
      <trkpt lat="41.627142" lon="2.527447">
        <ele>372.258</ele>
        <time>2021-05-26T08:59:31Z</time>
      </trkpt>
      <trkpt lat="41.627171" lon="2.527461">
        <ele>372.452</ele>
        <time>2021-05-26T08:59:33Z</time>
      </trkpt>
      <trkpt lat="41.627189" lon="2.527470">
        <ele>372.617</ele>
        <time>2021-05-26T08:59:34Z</time>
      </trkpt>
      <trkpt lat="41.627208" lon="2.527476">
        <ele>372.708</ele>
        <time>2021-05-26T08:59:35Z</time>
      </trkpt>
      <trkpt lat="41.627306" lon="2.527500">
        <ele>373.322</ele>
        <time>2021-05-26T08:59:41Z</time>
      </trkpt>
      <trkpt lat="41.627377" lon="2.527537">
        <ele>374.249</ele>
        <time>2021-05-26T08:59:47Z</time>
      </trkpt>
      <trkpt lat="41.627403" lon="2.527554">
        <ele>374.676</ele>
        <time>2021-05-26T08:59:49Z</time>
      </trkpt>
      <trkpt lat="41.627420" lon="2.527569">
        <ele>374.969</ele>
        <time>2021-05-26T08:59:51Z</time>
      </trkpt>
      <trkpt lat="41.627447" lon="2.527586">
        <ele>375.384</ele>
        <time>2021-05-26T08:59:53Z</time>
      </trkpt>
      <trkpt lat="41.627465" lon="2.527608">
        <ele>375.810</ele>
        <time>2021-05-26T08:59:55Z</time>
      </trkpt>
      <trkpt lat="41.627490" lon="2.527623">
        <ele>376.267</ele>
        <time>2021-05-26T08:59:57Z</time>
      </trkpt>
      <trkpt lat="41.627517" lon="2.527636">
        <ele>376.564</ele>
        <time>2021-05-26T08:59:59Z</time>
      </trkpt>
      <trkpt lat="41.627545" lon="2.527647">
        <ele>376.785</ele>
        <time>2021-05-26T09:00:01Z</time>
      </trkpt>
      <trkpt lat="41.627576" lon="2.527662">
        <ele>377.089</ele>
        <time>2021-05-26T09:00:03Z</time>
      </trkpt>
      <trkpt lat="41.627600" lon="2.527681">
        <ele>377.417</ele>
        <time>2021-05-26T09:00:05Z</time>
      </trkpt>
      <trkpt lat="41.627623" lon="2.527701">
        <ele>377.708</ele>
        <time>2021-05-26T09:00:07Z</time>
      </trkpt>
      <trkpt lat="41.627713" lon="2.527768">
        <ele>378.945</ele>
        <time>2021-05-26T09:00:14Z</time>
      </trkpt>
      <trkpt lat="41.627803" lon="2.527810">
        <ele>379.272</ele>
        <time>2021-05-26T09:00:20Z</time>
      </trkpt>
      <trkpt lat="41.627899" lon="2.527854">
        <ele>379.099</ele>
        <time>2021-05-26T09:00:24Z</time>
      </trkpt>
      <trkpt lat="41.627978" lon="2.527922">
        <ele>379.772</ele>
        <time>2021-05-26T09:00:32Z</time>
      </trkpt>
      <trkpt lat="41.628073" lon="2.527983">
        <ele>380.167</ele>
        <time>2021-05-26T09:00:39Z</time>
      </trkpt>
      <trkpt lat="41.628111" lon="2.528007">
        <ele>379.873</ele>
        <time>2021-05-26T09:00:41Z</time>
      </trkpt>
      <trkpt lat="41.628128" lon="2.528021">
        <ele>379.750</ele>
        <time>2021-05-26T09:00:42Z</time>
      </trkpt>
      <trkpt lat="41.628158" lon="2.528042">
        <ele>379.527</ele>
        <time>2021-05-26T09:00:43Z</time>
      </trkpt>
      <trkpt lat="41.628181" lon="2.528070">
        <ele>379.552</ele>
        <time>2021-05-26T09:00:46Z</time>
      </trkpt>
      <trkpt lat="41.628204" lon="2.528092">
        <ele>379.353</ele>
        <time>2021-05-26T09:00:48Z</time>
      </trkpt>
      <trkpt lat="41.628230" lon="2.528114">
        <ele>379.108</ele>
        <time>2021-05-26T09:00:50Z</time>
      </trkpt>
      <trkpt lat="41.628253" lon="2.528139">
        <ele>379.108</ele>
        <time>2021-05-26T09:00:51Z</time>
      </trkpt>
      <trkpt lat="41.628275" lon="2.528163">
        <ele>379.072</ele>
        <time>2021-05-26T09:00:54Z</time>
      </trkpt>
      <trkpt lat="41.628295" lon="2.528185">
        <ele>379.089</ele>
        <time>2021-05-26T09:00:56Z</time>
      </trkpt>
      <trkpt lat="41.628316" lon="2.528207">
        <ele>379.066</ele>
        <time>2021-05-26T09:00:58Z</time>
      </trkpt>
      <trkpt lat="41.628335" lon="2.528227">
        <ele>379.199</ele>
        <time>2021-05-26T09:01:00Z</time>
      </trkpt>
      <trkpt lat="41.628356" lon="2.528248">
        <ele>379.064</ele>
        <time>2021-05-26T09:01:02Z</time>
      </trkpt>
      <trkpt lat="41.628377" lon="2.528269">
        <ele>379.010</ele>
        <time>2021-05-26T09:01:04Z</time>
      </trkpt>
      <trkpt lat="41.628398" lon="2.528292">
        <ele>378.997</ele>
        <time>2021-05-26T09:01:06Z</time>
      </trkpt>
      <trkpt lat="41.628414" lon="2.528314">
        <ele>378.994</ele>
        <time>2021-05-26T09:01:08Z</time>
      </trkpt>
      <trkpt lat="41.628432" lon="2.528337">
        <ele>378.923</ele>
        <time>2021-05-26T09:01:10Z</time>
      </trkpt>
      <trkpt lat="41.628456" lon="2.528371">
        <ele>378.383</ele>
        <time>2021-05-26T09:01:12Z</time>
      </trkpt>
      <trkpt lat="41.628477" lon="2.528407">
        <ele>377.911</ele>
        <time>2021-05-26T09:01:14Z</time>
      </trkpt>
      <trkpt lat="41.628498" lon="2.528437">
        <ele>377.508</ele>
        <time>2021-05-26T09:01:16Z</time>
      </trkpt>
      <trkpt lat="41.628517" lon="2.528474">
        <ele>377.269</ele>
        <time>2021-05-26T09:01:17Z</time>
      </trkpt>
      <trkpt lat="41.628532" lon="2.528508">
        <ele>377.026</ele>
        <time>2021-05-26T09:01:19Z</time>
      </trkpt>
      <trkpt lat="41.628550" lon="2.528537">
        <ele>376.793</ele>
        <time>2021-05-26T09:01:22Z</time>
      </trkpt>
      <trkpt lat="41.628570" lon="2.528566">
        <ele>376.526</ele>
        <time>2021-05-26T09:01:24Z</time>
      </trkpt>
      <trkpt lat="41.628591" lon="2.528595">
        <ele>376.281</ele>
        <time>2021-05-26T09:01:26Z</time>
      </trkpt>
      <trkpt lat="41.628607" lon="2.528626">
        <ele>376.067</ele>
        <time>2021-05-26T09:01:27Z</time>
      </trkpt>
      <trkpt lat="41.628623" lon="2.528659">
        <ele>375.734</ele>
        <time>2021-05-26T09:01:30Z</time>
      </trkpt>
      <trkpt lat="41.628641" lon="2.528692">
        <ele>375.431</ele>
        <time>2021-05-26T09:01:32Z</time>
      </trkpt>
      <trkpt lat="41.628660" lon="2.528731">
        <ele>375.127</ele>
        <time>2021-05-26T09:01:34Z</time>
      </trkpt>
      <trkpt lat="41.628679" lon="2.528776">
        <ele>374.968</ele>
        <time>2021-05-26T09:01:36Z</time>
      </trkpt>
      <trkpt lat="41.628689" lon="2.528797">
        <ele>374.814</ele>
        <time>2021-05-26T09:01:37Z</time>
      </trkpt>
      <trkpt lat="41.628707" lon="2.528836">
        <ele>374.608</ele>
        <time>2021-05-26T09:01:39Z</time>
      </trkpt>
      <trkpt lat="41.628722" lon="2.528875">
        <ele>374.689</ele>
        <time>2021-05-26T09:01:41Z</time>
      </trkpt>
      <trkpt lat="41.628737" lon="2.528914">
        <ele>374.466</ele>
        <time>2021-05-26T09:01:42Z</time>
      </trkpt>
      <trkpt lat="41.628754" lon="2.528952">
        <ele>374.353</ele>
        <time>2021-05-26T09:01:45Z</time>
      </trkpt>
      <trkpt lat="41.628771" lon="2.528985">
        <ele>374.186</ele>
        <time>2021-05-26T09:01:47Z</time>
      </trkpt>
      <trkpt lat="41.628786" lon="2.529019">
        <ele>374.061</ele>
        <time>2021-05-26T09:01:48Z</time>
      </trkpt>
      <trkpt lat="41.628800" lon="2.529053">
        <ele>373.987</ele>
        <time>2021-05-26T09:01:51Z</time>
      </trkpt>
      <trkpt lat="41.628815" lon="2.529087">
        <ele>373.934</ele>
        <time>2021-05-26T09:01:53Z</time>
      </trkpt>
      <trkpt lat="41.628830" lon="2.529120">
        <ele>373.941</ele>
        <time>2021-05-26T09:01:55Z</time>
      </trkpt>
      <trkpt lat="41.628849" lon="2.529155">
        <ele>373.977</ele>
        <time>2021-05-26T09:01:57Z</time>
      </trkpt>
      <trkpt lat="41.628872" lon="2.529184">
        <ele>373.861</ele>
        <time>2021-05-26T09:01:59Z</time>
      </trkpt>
      <trkpt lat="41.628896" lon="2.529213">
        <ele>373.727</ele>
        <time>2021-05-26T09:02:01Z</time>
      </trkpt>
      <trkpt lat="41.628931" lon="2.529241">
        <ele>373.708</ele>
        <time>2021-05-26T09:02:03Z</time>
      </trkpt>
      <trkpt lat="41.628951" lon="2.529255">
        <ele>373.714</ele>
        <time>2021-05-26T09:02:04Z</time>
      </trkpt>
      <trkpt lat="41.628968" lon="2.529269">
        <ele>373.821</ele>
        <time>2021-05-26T09:02:05Z</time>
      </trkpt>
      <trkpt lat="41.628982" lon="2.529285">
        <ele>373.858</ele>
        <time>2021-05-26T09:02:06Z</time>
      </trkpt>
      <trkpt lat="41.628996" lon="2.529302">
        <ele>373.861</ele>
        <time>2021-05-26T09:02:07Z</time>
      </trkpt>
      <trkpt lat="41.629016" lon="2.529335">
        <ele>373.826</ele>
        <time>2021-05-26T09:02:09Z</time>
      </trkpt>
      <trkpt lat="41.629032" lon="2.529374">
        <ele>373.862</ele>
        <time>2021-05-26T09:02:11Z</time>
      </trkpt>
      <trkpt lat="41.629047" lon="2.529414">
        <ele>373.859</ele>
        <time>2021-05-26T09:02:13Z</time>
      </trkpt>
      <trkpt lat="41.629061" lon="2.529453">
        <ele>373.886</ele>
        <time>2021-05-26T09:02:15Z</time>
      </trkpt>
      <trkpt lat="41.629075" lon="2.529494">
        <ele>373.645</ele>
        <time>2021-05-26T09:02:17Z</time>
      </trkpt>
      <trkpt lat="41.629087" lon="2.529532">
        <ele>373.547</ele>
        <time>2021-05-26T09:02:19Z</time>
      </trkpt>
      <trkpt lat="41.629097" lon="2.529569">
        <ele>373.311</ele>
        <time>2021-05-26T09:02:21Z</time>
      </trkpt>
      <trkpt lat="41.629110" lon="2.529606">
        <ele>373.308</ele>
        <time>2021-05-26T09:02:23Z</time>
      </trkpt>
      <trkpt lat="41.629119" lon="2.529640">
        <ele>373.371</ele>
        <time>2021-05-26T09:02:25Z</time>
      </trkpt>
      <trkpt lat="41.629129" lon="2.529676">
        <ele>373.378</ele>
        <time>2021-05-26T09:02:27Z</time>
      </trkpt>
      <trkpt lat="41.629145" lon="2.529713">
        <ele>373.525</ele>
        <time>2021-05-26T09:02:29Z</time>
      </trkpt>
      <trkpt lat="41.629155" lon="2.529734">
        <ele>373.748</ele>
        <time>2021-05-26T09:02:30Z</time>
      </trkpt>
      <trkpt lat="41.629172" lon="2.529771">
        <ele>374.493</ele>
        <time>2021-05-26T09:02:32Z</time>
      </trkpt>
      <trkpt lat="41.629188" lon="2.529807">
        <ele>375.199</ele>
        <time>2021-05-26T09:02:34Z</time>
      </trkpt>
      <trkpt lat="41.629202" lon="2.529843">
        <ele>375.846</ele>
        <time>2021-05-26T09:02:36Z</time>
      </trkpt>
      <trkpt lat="41.629215" lon="2.529877">
        <ele>376.523</ele>
        <time>2021-05-26T09:02:38Z</time>
      </trkpt>
      <trkpt lat="41.629225" lon="2.529911">
        <ele>377.117</ele>
        <time>2021-05-26T09:02:40Z</time>
      </trkpt>
      <trkpt lat="41.629235" lon="2.529945">
        <ele>377.787</ele>
        <time>2021-05-26T09:02:42Z</time>
      </trkpt>
      <trkpt lat="41.629245" lon="2.529976">
        <ele>378.215</ele>
        <time>2021-05-26T09:02:44Z</time>
      </trkpt>
      <trkpt lat="41.629255" lon="2.530008">
        <ele>378.908</ele>
        <time>2021-05-26T09:02:46Z</time>
      </trkpt>
      <trkpt lat="41.629263" lon="2.530045">
        <ele>379.628</ele>
        <time>2021-05-26T09:02:48Z</time>
      </trkpt>
      <trkpt lat="41.629272" lon="2.530084">
        <ele>380.565</ele>
        <time>2021-05-26T09:02:50Z</time>
      </trkpt>
      <trkpt lat="41.629281" lon="2.530125">
        <ele>381.382</ele>
        <time>2021-05-26T09:02:52Z</time>
      </trkpt>
      <trkpt lat="41.629293" lon="2.530170">
        <ele>382.395</ele>
        <time>2021-05-26T09:02:54Z</time>
      </trkpt>
      <trkpt lat="41.629305" lon="2.530210">
        <ele>383.290</ele>
        <time>2021-05-26T09:02:56Z</time>
      </trkpt>
      <trkpt lat="41.629314" lon="2.530245">
        <ele>384.046</ele>
        <time>2021-05-26T09:02:58Z</time>
      </trkpt>
      <trkpt lat="41.629320" lon="2.530280">
        <ele>384.673</ele>
        <time>2021-05-26T09:03:00Z</time>
      </trkpt>
      <trkpt lat="41.629324" lon="2.530316">
        <ele>384.940</ele>
        <time>2021-05-26T09:03:02Z</time>
      </trkpt>
      <trkpt lat="41.629328" lon="2.530352">
        <ele>385.228</ele>
        <time>2021-05-26T09:03:04Z</time>
      </trkpt>
      <trkpt lat="41.629332" lon="2.530388">
        <ele>385.589</ele>
        <time>2021-05-26T09:03:06Z</time>
      </trkpt>
      <trkpt lat="41.629337" lon="2.530423">
        <ele>385.917</ele>
        <time>2021-05-26T09:03:08Z</time>
      </trkpt>
      <trkpt lat="41.629344" lon="2.530463">
        <ele>386.308</ele>
        <time>2021-05-26T09:03:10Z</time>
      </trkpt>
      <trkpt lat="41.629349" lon="2.530502">
        <ele>386.789</ele>
        <time>2021-05-26T09:03:11Z</time>
      </trkpt>
      <trkpt lat="41.629353" lon="2.530540">
        <ele>387.036</ele>
        <time>2021-05-26T09:03:14Z</time>
      </trkpt>
      <trkpt lat="41.629351" lon="2.530580">
        <ele>386.913</ele>
        <time>2021-05-26T09:03:16Z</time>
      </trkpt>
      <trkpt lat="41.629352" lon="2.530617">
        <ele>386.986</ele>
        <time>2021-05-26T09:03:18Z</time>
      </trkpt>
      <trkpt lat="41.629356" lon="2.530660">
        <ele>387.061</ele>
        <time>2021-05-26T09:03:20Z</time>
      </trkpt>
      <trkpt lat="41.629361" lon="2.530700">
        <ele>387.297</ele>
        <time>2021-05-26T09:03:22Z</time>
      </trkpt>
      <trkpt lat="41.629361" lon="2.530737">
        <ele>387.174</ele>
        <time>2021-05-26T09:03:24Z</time>
      </trkpt>
      <trkpt lat="41.629358" lon="2.530775">
        <ele>387.061</ele>
        <time>2021-05-26T09:03:26Z</time>
      </trkpt>
      <trkpt lat="41.629355" lon="2.530816">
        <ele>386.845</ele>
        <time>2021-05-26T09:03:28Z</time>
      </trkpt>
      <trkpt lat="41.629353" lon="2.530854">
        <ele>386.647</ele>
        <time>2021-05-26T09:03:30Z</time>
      </trkpt>
      <trkpt lat="41.629353" lon="2.530894">
        <ele>386.411</ele>
        <time>2021-05-26T09:03:32Z</time>
      </trkpt>
      <trkpt lat="41.629355" lon="2.530933">
        <ele>386.308</ele>
        <time>2021-05-26T09:03:34Z</time>
      </trkpt>
      <trkpt lat="41.629357" lon="2.530972">
        <ele>386.271</ele>
        <time>2021-05-26T09:03:36Z</time>
      </trkpt>
      <trkpt lat="41.629355" lon="2.531012">
        <ele>385.978</ele>
        <time>2021-05-26T09:03:38Z</time>
      </trkpt>
      <trkpt lat="41.629354" lon="2.531038">
        <ele>385.895</ele>
        <time>2021-05-26T09:03:39Z</time>
      </trkpt>
      <trkpt lat="41.629359" lon="2.531081">
        <ele>385.788</ele>
        <time>2021-05-26T09:03:41Z</time>
      </trkpt>
      <trkpt lat="41.629366" lon="2.531106">
        <ele>385.873</ele>
        <time>2021-05-26T09:03:42Z</time>
      </trkpt>
      <trkpt lat="41.629373" lon="2.531131">
        <ele>385.899</ele>
        <time>2021-05-26T09:03:43Z</time>
      </trkpt>
      <trkpt lat="41.629385" lon="2.531157">
        <ele>385.926</ele>
        <time>2021-05-26T09:03:44Z</time>
      </trkpt>
      <trkpt lat="41.629398" lon="2.531181">
        <ele>386.013</ele>
        <time>2021-05-26T09:03:45Z</time>
      </trkpt>
      <trkpt lat="41.629414" lon="2.531205">
        <ele>386.216</ele>
        <time>2021-05-26T09:03:46Z</time>
      </trkpt>
      <trkpt lat="41.629450" lon="2.531253">
        <ele>386.676</ele>
        <time>2021-05-26T09:03:47Z</time>
      </trkpt>
      <trkpt lat="41.629472" lon="2.531273">
        <ele>386.813</ele>
        <time>2021-05-26T09:03:48Z</time>
      </trkpt>
      <trkpt lat="41.629495" lon="2.531289">
        <ele>387.108</ele>
        <time>2021-05-26T09:03:50Z</time>
      </trkpt>
      <trkpt lat="41.629516" lon="2.531306">
        <ele>387.288</ele>
        <time>2021-05-26T09:03:51Z</time>
      </trkpt>
      <trkpt lat="41.629560" lon="2.531340">
        <ele>387.595</ele>
        <time>2021-05-26T09:03:52Z</time>
      </trkpt>
      <trkpt lat="41.629584" lon="2.531359">
        <ele>387.562</ele>
        <time>2021-05-26T09:03:53Z</time>
      </trkpt>
      <trkpt lat="41.629611" lon="2.531377">
        <ele>387.615</ele>
        <time>2021-05-26T09:03:55Z</time>
      </trkpt>
      <trkpt lat="41.629639" lon="2.531395">
        <ele>387.660</ele>
        <time>2021-05-26T09:03:56Z</time>
      </trkpt>
      <trkpt lat="41.629663" lon="2.531410">
        <ele>387.636</ele>
        <time>2021-05-26T09:03:57Z</time>
      </trkpt>
      <trkpt lat="41.629687" lon="2.531426">
        <ele>387.483</ele>
        <time>2021-05-26T09:03:58Z</time>
      </trkpt>
      <trkpt lat="41.629713" lon="2.531441">
        <ele>387.430</ele>
        <time>2021-05-26T09:03:59Z</time>
      </trkpt>
      <trkpt lat="41.629765" lon="2.531473">
        <ele>387.178</ele>
        <time>2021-05-26T09:04:00Z</time>
      </trkpt>
      <trkpt lat="41.629790" lon="2.531491">
        <ele>386.933</ele>
        <time>2021-05-26T09:04:01Z</time>
      </trkpt>
      <trkpt lat="41.629817" lon="2.531506">
        <ele>386.826</ele>
        <time>2021-05-26T09:04:03Z</time>
      </trkpt>
      <trkpt lat="41.629842" lon="2.531518">
        <ele>386.808</ele>
        <time>2021-05-26T09:04:04Z</time>
      </trkpt>
      <trkpt lat="41.629871" lon="2.531530">
        <ele>386.844</ele>
        <time>2021-05-26T09:04:05Z</time>
      </trkpt>
      <trkpt lat="41.629899" lon="2.531542">
        <ele>386.811</ele>
        <time>2021-05-26T09:04:06Z</time>
      </trkpt>
      <trkpt lat="41.629930" lon="2.531553">
        <ele>386.828</ele>
        <time>2021-05-26T09:04:07Z</time>
      </trkpt>
      <trkpt lat="41.629962" lon="2.531564">
        <ele>386.991</ele>
        <time>2021-05-26T09:04:08Z</time>
      </trkpt>
      <trkpt lat="41.629992" lon="2.531574">
        <ele>386.936</ele>
        <time>2021-05-26T09:04:09Z</time>
      </trkpt>
      <trkpt lat="41.630023" lon="2.531586">
        <ele>386.792</ele>
        <time>2021-05-26T09:04:10Z</time>
      </trkpt>
      <trkpt lat="41.630083" lon="2.531611">
        <ele>386.329</ele>
        <time>2021-05-26T09:04:11Z</time>
      </trkpt>
      <trkpt lat="41.630112" lon="2.531619">
        <ele>386.276</ele>
        <time>2021-05-26T09:04:12Z</time>
      </trkpt>
      <trkpt lat="41.630136" lon="2.531630">
        <ele>386.052</ele>
        <time>2021-05-26T09:04:14Z</time>
      </trkpt>
      <trkpt lat="41.630160" lon="2.531640">
        <ele>385.953</ele>
        <time>2021-05-26T09:04:15Z</time>
      </trkpt>
      <trkpt lat="41.630185" lon="2.531650">
        <ele>385.808</ele>
        <time>2021-05-26T09:04:16Z</time>
      </trkpt>
      <trkpt lat="41.630211" lon="2.531658">
        <ele>385.808</ele>
        <time>2021-05-26T09:04:17Z</time>
      </trkpt>
      <trkpt lat="41.630238" lon="2.531664">
        <ele>385.892</ele>
        <time>2021-05-26T09:04:18Z</time>
      </trkpt>
      <trkpt lat="41.630290" lon="2.531674">
        <ele>385.659</ele>
        <time>2021-05-26T09:04:19Z</time>
      </trkpt>
      <trkpt lat="41.630316" lon="2.531672">
        <ele>385.336</ele>
        <time>2021-05-26T09:04:21Z</time>
      </trkpt>
      <trkpt lat="41.630342" lon="2.531669">
        <ele>385.079</ele>
        <time>2021-05-26T09:04:22Z</time>
      </trkpt>
      <trkpt lat="41.630368" lon="2.531665">
        <ele>384.744</ele>
        <time>2021-05-26T09:04:23Z</time>
      </trkpt>
      <trkpt lat="41.630423" lon="2.531652">
        <ele>384.330</ele>
        <time>2021-05-26T09:04:24Z</time>
      </trkpt>
      <trkpt lat="41.630452" lon="2.531644">
        <ele>384.197</ele>
        <time>2021-05-26T09:04:26Z</time>
      </trkpt>
      <trkpt lat="41.630480" lon="2.531634">
        <ele>384.084</ele>
        <time>2021-05-26T09:04:27Z</time>
      </trkpt>
      <trkpt lat="41.630508" lon="2.531625">
        <ele>383.939</ele>
        <time>2021-05-26T09:04:28Z</time>
      </trkpt>
      <trkpt lat="41.630534" lon="2.531613">
        <ele>383.801</ele>
        <time>2021-05-26T09:04:29Z</time>
      </trkpt>
      <trkpt lat="41.630559" lon="2.531605">
        <ele>383.721</ele>
        <time>2021-05-26T09:04:30Z</time>
      </trkpt>
      <trkpt lat="41.630581" lon="2.531595">
        <ele>383.708</ele>
        <time>2021-05-26T09:04:31Z</time>
      </trkpt>
      <trkpt lat="41.630602" lon="2.531581">
        <ele>383.990</ele>
        <time>2021-05-26T09:04:32Z</time>
      </trkpt>
      <trkpt lat="41.630623" lon="2.531572">
        <ele>383.927</ele>
        <time>2021-05-26T09:04:33Z</time>
      </trkpt>
      <trkpt lat="41.630650" lon="2.531564">
        <ele>383.874</ele>
        <time>2021-05-26T09:04:34Z</time>
      </trkpt>
      <trkpt lat="41.630676" lon="2.531555">
        <ele>383.897</ele>
        <time>2021-05-26T09:04:35Z</time>
      </trkpt>
      <trkpt lat="41.630699" lon="2.531540">
        <ele>384.122</ele>
        <time>2021-05-26T09:04:36Z</time>
      </trkpt>
      <trkpt lat="41.630721" lon="2.531524">
        <ele>384.368</ele>
        <time>2021-05-26T09:04:37Z</time>
      </trkpt>
      <trkpt lat="41.630738" lon="2.531514">
        <ele>384.515</ele>
        <time>2021-05-26T09:04:38Z</time>
      </trkpt>
      <trkpt lat="41.630757" lon="2.531504">
        <ele>384.642</ele>
        <time>2021-05-26T09:04:39Z</time>
      </trkpt>
      <trkpt lat="41.630776" lon="2.531495">
        <ele>384.875</ele>
        <time>2021-05-26T09:04:40Z</time>
      </trkpt>
      <trkpt lat="41.630799" lon="2.531486">
        <ele>384.828</ele>
        <time>2021-05-26T09:04:41Z</time>
      </trkpt>
      <trkpt lat="41.630816" lon="2.531475">
        <ele>385.120</ele>
        <time>2021-05-26T09:04:42Z</time>
      </trkpt>
      <trkpt lat="41.630909" lon="2.531457">
        <ele>384.908</ele>
        <time>2021-05-26T09:04:45Z</time>
      </trkpt>
      <trkpt lat="41.630943" lon="2.531459">
        <ele>384.634</ele>
        <time>2021-05-26T09:04:46Z</time>
      </trkpt>
      <trkpt lat="41.630981" lon="2.531461">
        <ele>384.251</ele>
        <time>2021-05-26T09:04:47Z</time>
      </trkpt>
      <trkpt lat="41.631012" lon="2.531465">
        <ele>383.838</ele>
        <time>2021-05-26T09:04:48Z</time>
      </trkpt>
      <trkpt lat="41.631042" lon="2.531470">
        <ele>383.411</ele>
        <time>2021-05-26T09:04:49Z</time>
      </trkpt>
      <trkpt lat="41.631066" lon="2.531474">
        <ele>383.046</ele>
        <time>2021-05-26T09:04:50Z</time>
      </trkpt>
      <trkpt lat="41.631088" lon="2.531479">
        <ele>382.692</ele>
        <time>2021-05-26T09:04:51Z</time>
      </trkpt>
      <trkpt lat="41.631115" lon="2.531484">
        <ele>382.239</ele>
        <time>2021-05-26T09:04:52Z</time>
      </trkpt>
      <trkpt lat="41.631144" lon="2.531491">
        <ele>381.476</ele>
        <time>2021-05-26T09:04:53Z</time>
      </trkpt>
      <trkpt lat="41.631171" lon="2.531500">
        <ele>380.633</ele>
        <time>2021-05-26T09:04:54Z</time>
      </trkpt>
      <trkpt lat="41.631200" lon="2.531508">
        <ele>379.823</ele>
        <time>2021-05-26T09:04:55Z</time>
      </trkpt>
      <trkpt lat="41.631228" lon="2.531517">
        <ele>379.015</ele>
        <time>2021-05-26T09:04:56Z</time>
      </trkpt>
      <trkpt lat="41.631257" lon="2.531522">
        <ele>378.308</ele>
        <time>2021-05-26T09:04:57Z</time>
      </trkpt>
      <trkpt lat="41.631285" lon="2.531519">
        <ele>378.030</ele>
        <time>2021-05-26T09:04:58Z</time>
      </trkpt>
      <trkpt lat="41.631316" lon="2.531513">
        <ele>377.697</ele>
        <time>2021-05-26T09:04:59Z</time>
      </trkpt>
      <trkpt lat="41.631345" lon="2.531503">
        <ele>377.584</ele>
        <time>2021-05-26T09:05:00Z</time>
      </trkpt>
      <trkpt lat="41.631402" lon="2.531477">
        <ele>377.137</ele>
        <time>2021-05-26T09:05:01Z</time>
      </trkpt>
      <trkpt lat="41.631425" lon="2.531461">
        <ele>377.052</ele>
        <time>2021-05-26T09:05:03Z</time>
      </trkpt>
      <trkpt lat="41.631447" lon="2.531442">
        <ele>376.968</ele>
        <time>2021-05-26T09:05:04Z</time>
      </trkpt>
      <trkpt lat="41.631467" lon="2.531419">
        <ele>376.935</ele>
        <time>2021-05-26T09:05:05Z</time>
      </trkpt>
      <trkpt lat="41.631488" lon="2.531394">
        <ele>377.072</ele>
        <time>2021-05-26T09:05:06Z</time>
      </trkpt>
      <trkpt lat="41.631528" lon="2.531343">
        <ele>377.174</ele>
        <time>2021-05-26T09:05:07Z</time>
      </trkpt>
      <trkpt lat="41.631543" lon="2.531318">
        <ele>377.256</ele>
        <time>2021-05-26T09:05:08Z</time>
      </trkpt>
      <trkpt lat="41.631547" lon="2.531283">
        <ele>377.821</ele>
        <time>2021-05-26T09:05:09Z</time>
      </trkpt>
      <trkpt lat="41.631563" lon="2.531254">
        <ele>378.008</ele>
        <time>2021-05-26T09:05:10Z</time>
      </trkpt>
      <trkpt lat="41.631601" lon="2.531197">
        <ele>377.824</ele>
        <time>2021-05-26T09:05:12Z</time>
      </trkpt>
      <trkpt lat="41.631618" lon="2.531169">
        <ele>377.861</ele>
        <time>2021-05-26T09:05:14Z</time>
      </trkpt>
      <trkpt lat="41.631636" lon="2.531141">
        <ele>377.698</ele>
        <time>2021-05-26T09:05:15Z</time>
      </trkpt>
      <trkpt lat="41.631656" lon="2.531113">
        <ele>377.461</ele>
        <time>2021-05-26T09:05:16Z</time>
      </trkpt>
      <trkpt lat="41.631671" lon="2.531085">
        <ele>377.486</ele>
        <time>2021-05-26T09:05:17Z</time>
      </trkpt>
      <trkpt lat="41.631686" lon="2.531056">
        <ele>377.642</ele>
        <time>2021-05-26T09:05:18Z</time>
      </trkpt>
      <trkpt lat="41.631699" lon="2.531027">
        <ele>377.979</ele>
        <time>2021-05-26T09:05:19Z</time>
      </trkpt>
      <trkpt lat="41.631716" lon="2.531000">
        <ele>377.936</ele>
        <time>2021-05-26T09:05:20Z</time>
      </trkpt>
      <trkpt lat="41.631723" lon="2.530970">
        <ele>378.394</ele>
        <time>2021-05-26T09:05:21Z</time>
      </trkpt>
      <trkpt lat="41.631796" lon="2.530853">
        <ele>378.457</ele>
        <time>2021-05-26T09:05:25Z</time>
      </trkpt>
      <trkpt lat="41.631847" lon="2.530736">
        <ele>378.822</ele>
        <time>2021-05-26T09:05:29Z</time>
      </trkpt>
      <trkpt lat="41.631854" lon="2.530711">
        <ele>379.008</ele>
        <time>2021-05-26T09:05:30Z</time>
      </trkpt>
      <trkpt lat="41.631918" lon="2.530612">
        <ele>378.266</ele>
        <time>2021-05-26T09:05:34Z</time>
      </trkpt>
      <trkpt lat="41.632005" lon="2.530538">
        <ele>377.373</ele>
        <time>2021-05-26T09:05:38Z</time>
      </trkpt>
      <trkpt lat="41.632037" lon="2.530543">
        <ele>376.860</ele>
        <time>2021-05-26T09:05:39Z</time>
      </trkpt>
      <trkpt lat="41.632082" lon="2.530575">
        <ele>375.863</ele>
        <time>2021-05-26T09:05:40Z</time>
      </trkpt>
      <trkpt lat="41.632108" lon="2.530595">
        <ele>375.298</ele>
        <time>2021-05-26T09:05:42Z</time>
      </trkpt>
      <trkpt lat="41.632136" lon="2.530616">
        <ele>374.544</ele>
        <time>2021-05-26T09:05:43Z</time>
      </trkpt>
      <trkpt lat="41.632165" lon="2.530637">
        <ele>373.921</ele>
        <time>2021-05-26T09:05:44Z</time>
      </trkpt>
      <trkpt lat="41.632193" lon="2.530665">
        <ele>373.228</ele>
        <time>2021-05-26T09:05:45Z</time>
      </trkpt>
      <trkpt lat="41.632214" lon="2.530691">
        <ele>372.616</ele>
        <time>2021-05-26T09:05:46Z</time>
      </trkpt>
      <trkpt lat="41.632237" lon="2.530715">
        <ele>372.376</ele>
        <time>2021-05-26T09:05:47Z</time>
      </trkpt>
      <trkpt lat="41.632278" lon="2.530756">
        <ele>371.913</ele>
        <time>2021-05-26T09:05:48Z</time>
      </trkpt>
      <trkpt lat="41.632298" lon="2.530777">
        <ele>371.808</ele>
        <time>2021-05-26T09:05:50Z</time>
      </trkpt>
      <trkpt lat="41.632316" lon="2.530790">
        <ele>371.738</ele>
        <time>2021-05-26T09:05:51Z</time>
      </trkpt>
      <trkpt lat="41.632331" lon="2.530807">
        <ele>371.635</ele>
        <time>2021-05-26T09:05:52Z</time>
      </trkpt>
      <trkpt lat="41.632350" lon="2.530828">
        <ele>371.592</ele>
        <time>2021-05-26T09:05:53Z</time>
      </trkpt>
      <trkpt lat="41.632370" lon="2.530851">
        <ele>371.375</ele>
        <time>2021-05-26T09:05:54Z</time>
      </trkpt>
      <trkpt lat="41.632389" lon="2.530874">
        <ele>371.230</ele>
        <time>2021-05-26T09:05:55Z</time>
      </trkpt>
      <trkpt lat="41.632408" lon="2.530894">
        <ele>371.066</ele>
        <time>2021-05-26T09:05:56Z</time>
      </trkpt>
      <trkpt lat="41.632427" lon="2.530910">
        <ele>370.913</ele>
        <time>2021-05-26T09:05:57Z</time>
      </trkpt>
      <trkpt lat="41.632449" lon="2.530927">
        <ele>370.850</ele>
        <time>2021-05-26T09:05:58Z</time>
      </trkpt>
      <trkpt lat="41.632473" lon="2.530945">
        <ele>370.753</ele>
        <time>2021-05-26T09:05:59Z</time>
      </trkpt>
      <trkpt lat="41.632494" lon="2.530969">
        <ele>370.504</ele>
        <time>2021-05-26T09:06:00Z</time>
      </trkpt>
      <trkpt lat="41.632510" lon="2.530990">
        <ele>370.314</ele>
        <time>2021-05-26T09:06:01Z</time>
      </trkpt>
      <trkpt lat="41.632529" lon="2.531014">
        <ele>370.208</ele>
        <time>2021-05-26T09:06:02Z</time>
      </trkpt>
      <trkpt lat="41.632553" lon="2.531039">
        <ele>370.142</ele>
        <time>2021-05-26T09:06:03Z</time>
      </trkpt>
      <trkpt lat="41.632577" lon="2.531060">
        <ele>370.099</ele>
        <time>2021-05-26T09:06:04Z</time>
      </trkpt>
      <trkpt lat="41.632595" lon="2.531081">
        <ele>369.956</ele>
        <time>2021-05-26T09:06:05Z</time>
      </trkpt>
      <trkpt lat="41.632617" lon="2.531101">
        <ele>369.949</ele>
        <time>2021-05-26T09:06:06Z</time>
      </trkpt>
      <trkpt lat="41.632636" lon="2.531121">
        <ele>369.934</ele>
        <time>2021-05-26T09:06:07Z</time>
      </trkpt>
      <trkpt lat="41.632658" lon="2.531138">
        <ele>369.860</ele>
        <time>2021-05-26T09:06:08Z</time>
      </trkpt>
      <trkpt lat="41.632678" lon="2.531159">
        <ele>369.797</ele>
        <time>2021-05-26T09:06:09Z</time>
      </trkpt>
      <trkpt lat="41.632695" lon="2.531177">
        <ele>369.684</ele>
        <time>2021-05-26T09:06:10Z</time>
      </trkpt>
      <trkpt lat="41.632712" lon="2.531200">
        <ele>369.516</ele>
        <time>2021-05-26T09:06:11Z</time>
      </trkpt>
      <trkpt lat="41.632728" lon="2.531222">
        <ele>369.476</ele>
        <time>2021-05-26T09:06:12Z</time>
      </trkpt>
      <trkpt lat="41.632740" lon="2.531242">
        <ele>369.213</ele>
        <time>2021-05-26T09:06:13Z</time>
      </trkpt>
      <trkpt lat="41.632753" lon="2.531262">
        <ele>369.108</ele>
        <time>2021-05-26T09:06:14Z</time>
      </trkpt>
      <trkpt lat="41.632766" lon="2.531288">
        <ele>369.048</ele>
        <time>2021-05-26T09:06:15Z</time>
      </trkpt>
      <trkpt lat="41.632785" lon="2.531320">
        <ele>368.895</ele>
        <time>2021-05-26T09:06:16Z</time>
      </trkpt>
      <trkpt lat="41.632806" lon="2.531349">
        <ele>368.882</ele>
        <time>2021-05-26T09:06:17Z</time>
      </trkpt>
      <trkpt lat="41.632835" lon="2.531405">
        <ele>368.755</ele>
        <time>2021-05-26T09:06:19Z</time>
      </trkpt>
      <trkpt lat="41.632849" lon="2.531432">
        <ele>368.690</ele>
        <time>2021-05-26T09:06:20Z</time>
      </trkpt>
      <trkpt lat="41.632866" lon="2.531460">
        <ele>368.766</ele>
        <time>2021-05-26T09:06:21Z</time>
      </trkpt>
      <trkpt lat="41.632884" lon="2.531488">
        <ele>368.733</ele>
        <time>2021-05-26T09:06:22Z</time>
      </trkpt>
      <trkpt lat="41.632907" lon="2.531522">
        <ele>368.960</ele>
        <time>2021-05-26T09:06:23Z</time>
      </trkpt>
      <trkpt lat="41.632929" lon="2.531558">
        <ele>369.091</ele>
        <time>2021-05-26T09:06:24Z</time>
      </trkpt>
      <trkpt lat="41.632951" lon="2.531587">
        <ele>369.281</ele>
        <time>2021-05-26T09:06:25Z</time>
      </trkpt>
      <trkpt lat="41.632970" lon="2.531618">
        <ele>369.419</ele>
        <time>2021-05-26T09:06:26Z</time>
      </trkpt>
      <trkpt lat="41.632987" lon="2.531647">
        <ele>369.608</ele>
        <time>2021-05-26T09:06:27Z</time>
      </trkpt>
      <trkpt lat="41.633001" lon="2.531675">
        <ele>369.886</ele>
        <time>2021-05-26T09:06:28Z</time>
      </trkpt>
      <trkpt lat="41.633016" lon="2.531706">
        <ele>370.043</ele>
        <time>2021-05-26T09:06:29Z</time>
      </trkpt>
      <trkpt lat="41.633032" lon="2.531733">
        <ele>370.230</ele>
        <time>2021-05-26T09:06:30Z</time>
      </trkpt>
      <trkpt lat="41.633042" lon="2.531757">
        <ele>370.473</ele>
        <time>2021-05-26T09:06:31Z</time>
      </trkpt>
      <trkpt lat="41.633054" lon="2.531783">
        <ele>370.578</ele>
        <time>2021-05-26T09:06:32Z</time>
      </trkpt>
      <trkpt lat="41.633066" lon="2.531809">
        <ele>370.694</ele>
        <time>2021-05-26T09:06:33Z</time>
      </trkpt>
      <trkpt lat="41.633079" lon="2.531828">
        <ele>370.721</ele>
        <time>2021-05-26T09:06:34Z</time>
      </trkpt>
      <trkpt lat="41.633093" lon="2.531849">
        <ele>370.858</ele>
        <time>2021-05-26T09:06:35Z</time>
      </trkpt>
      <trkpt lat="41.633108" lon="2.531868">
        <ele>370.962</ele>
        <time>2021-05-26T09:06:36Z</time>
      </trkpt>
      <trkpt lat="41.633123" lon="2.531888">
        <ele>371.183</ele>
        <time>2021-05-26T09:06:37Z</time>
      </trkpt>
      <trkpt lat="41.633135" lon="2.531907">
        <ele>371.211</ele>
        <time>2021-05-26T09:06:38Z</time>
      </trkpt>
      <trkpt lat="41.633146" lon="2.531948">
        <ele>371.308</ele>
        <time>2021-05-26T09:06:40Z</time>
      </trkpt>
      <trkpt lat="41.633153" lon="2.531973">
        <ele>371.643</ele>
        <time>2021-05-26T09:06:41Z</time>
      </trkpt>
      <trkpt lat="41.633159" lon="2.531997">
        <ele>371.980</ele>
        <time>2021-05-26T09:06:42Z</time>
      </trkpt>
      <trkpt lat="41.633165" lon="2.532020">
        <ele>372.167</ele>
        <time>2021-05-26T09:06:43Z</time>
      </trkpt>
      <trkpt lat="41.633170" lon="2.532063">
        <ele>372.510</ele>
        <time>2021-05-26T09:06:45Z</time>
      </trkpt>
      <trkpt lat="41.633175" lon="2.532107">
        <ele>372.935</ele>
        <time>2021-05-26T09:06:47Z</time>
      </trkpt>
      <trkpt lat="41.633178" lon="2.532147">
        <ele>373.231</ele>
        <time>2021-05-26T09:06:49Z</time>
      </trkpt>
      <trkpt lat="41.633180" lon="2.532186">
        <ele>373.578</ele>
        <time>2021-05-26T09:06:51Z</time>
      </trkpt>
      <trkpt lat="41.633183" lon="2.532229">
        <ele>373.915</ele>
        <time>2021-05-26T09:06:53Z</time>
      </trkpt>
      <trkpt lat="41.633184" lon="2.532267">
        <ele>374.386</ele>
        <time>2021-05-26T09:06:55Z</time>
      </trkpt>
      <trkpt lat="41.633185" lon="2.532306">
        <ele>374.660</ele>
        <time>2021-05-26T09:06:57Z</time>
      </trkpt>
      <trkpt lat="41.633187" lon="2.532345">
        <ele>375.026</ele>
        <time>2021-05-26T09:06:59Z</time>
      </trkpt>
      <trkpt lat="41.633185" lon="2.532384">
        <ele>375.308</ele>
        <time>2021-05-26T09:07:01Z</time>
      </trkpt>
      <trkpt lat="41.633189" lon="2.532413">
        <ele>375.775</ele>
        <time>2021-05-26T09:07:03Z</time>
      </trkpt>
      <trkpt lat="41.633197" lon="2.532448">
        <ele>376.172</ele>
        <time>2021-05-26T09:07:05Z</time>
      </trkpt>
      <trkpt lat="41.633201" lon="2.532483">
        <ele>376.479</ele>
        <time>2021-05-26T09:07:07Z</time>
      </trkpt>
      <trkpt lat="41.633203" lon="2.532518">
        <ele>376.812</ele>
        <time>2021-05-26T09:07:09Z</time>
      </trkpt>
      <trkpt lat="41.633204" lon="2.532554">
        <ele>377.287</ele>
        <time>2021-05-26T09:07:11Z</time>
      </trkpt>
      <trkpt lat="41.633208" lon="2.532594">
        <ele>377.733</ele>
        <time>2021-05-26T09:07:13Z</time>
      </trkpt>
      <trkpt lat="41.633206" lon="2.532635">
        <ele>378.120</ele>
        <time>2021-05-26T09:07:15Z</time>
      </trkpt>
      <trkpt lat="41.633205" lon="2.532674">
        <ele>378.547</ele>
        <time>2021-05-26T09:07:17Z</time>
      </trkpt>
      <trkpt lat="41.633211" lon="2.532707">
        <ele>378.948</ele>
        <time>2021-05-26T09:07:19Z</time>
      </trkpt>
      <trkpt lat="41.633217" lon="2.532742">
        <ele>379.461</ele>
        <time>2021-05-26T09:07:21Z</time>
      </trkpt>
      <trkpt lat="41.633211" lon="2.532764">
        <ele>379.517</ele>
        <time>2021-05-26T09:07:22Z</time>
      </trkpt>
      <trkpt lat="41.633209" lon="2.532790">
        <ele>379.808</ele>
        <time>2021-05-26T09:07:24Z</time>
      </trkpt>
      <trkpt lat="41.633208" lon="2.532823">
        <ele>380.281</ele>
        <time>2021-05-26T09:07:26Z</time>
      </trkpt>
      <trkpt lat="41.633205" lon="2.532855">
        <ele>380.638</ele>
        <time>2021-05-26T09:07:28Z</time>
      </trkpt>
      <trkpt lat="41.633200" lon="2.532887">
        <ele>380.955</ele>
        <time>2021-05-26T09:07:30Z</time>
      </trkpt>
      <trkpt lat="41.633198" lon="2.532921">
        <ele>381.368</ele>
        <time>2021-05-26T09:07:32Z</time>
      </trkpt>
      <trkpt lat="41.633193" lon="2.532956">
        <ele>381.743</ele>
        <time>2021-05-26T09:07:34Z</time>
      </trkpt>
      <trkpt lat="41.633197" lon="2.532988">
        <ele>382.239</ele>
        <time>2021-05-26T09:07:36Z</time>
      </trkpt>
      <trkpt lat="41.633200" lon="2.533024">
        <ele>382.616</ele>
        <time>2021-05-26T09:07:38Z</time>
      </trkpt>
      <trkpt lat="41.633215" lon="2.533055">
        <ele>383.163</ele>
        <time>2021-05-26T09:07:40Z</time>
      </trkpt>
      <trkpt lat="41.633214" lon="2.533092">
        <ele>383.524</ele>
        <time>2021-05-26T09:07:42Z</time>
      </trkpt>
      <trkpt lat="41.633213" lon="2.533127">
        <ele>383.904</ele>
        <time>2021-05-26T09:07:44Z</time>
      </trkpt>
      <trkpt lat="41.633207" lon="2.533170">
        <ele>384.314</ele>
        <time>2021-05-26T09:07:46Z</time>
      </trkpt>
      <trkpt lat="41.633199" lon="2.533211">
        <ele>384.708</ele>
        <time>2021-05-26T09:07:48Z</time>
      </trkpt>
      <trkpt lat="41.633194" lon="2.533251">
        <ele>385.189</ele>
        <time>2021-05-26T09:07:50Z</time>
      </trkpt>
      <trkpt lat="41.633188" lon="2.533289">
        <ele>385.596</ele>
        <time>2021-05-26T09:07:52Z</time>
      </trkpt>
      <trkpt lat="41.633178" lon="2.533323">
        <ele>385.983</ele>
        <time>2021-05-26T09:07:54Z</time>
      </trkpt>
      <trkpt lat="41.633169" lon="2.533372">
        <ele>386.096</ele>
        <time>2021-05-26T09:07:56Z</time>
      </trkpt>
      <trkpt lat="41.633161" lon="2.533403">
        <ele>385.911</ele>
        <time>2021-05-26T09:07:57Z</time>
      </trkpt>
      <trkpt lat="41.633152" lon="2.533433">
        <ele>385.957</ele>
        <time>2021-05-26T09:07:58Z</time>
      </trkpt>
      <trkpt lat="41.633142" lon="2.533464">
        <ele>385.834</ele>
        <time>2021-05-26T09:07:59Z</time>
      </trkpt>
      <trkpt lat="41.633134" lon="2.533493">
        <ele>385.811</ele>
        <time>2021-05-26T09:08:00Z</time>
      </trkpt>
      <trkpt lat="41.633126" lon="2.533519">
        <ele>385.732</ele>
        <time>2021-05-26T09:08:01Z</time>
      </trkpt>
      <trkpt lat="41.633119" lon="2.533546">
        <ele>385.692</ele>
        <time>2021-05-26T09:08:02Z</time>
      </trkpt>
      <trkpt lat="41.633117" lon="2.533577">
        <ele>385.511</ele>
        <time>2021-05-26T09:08:03Z</time>
      </trkpt>
      <trkpt lat="41.633119" lon="2.533609">
        <ele>385.508</ele>
        <time>2021-05-26T09:08:04Z</time>
      </trkpt>
      <trkpt lat="41.633123" lon="2.533644">
        <ele>385.550</ele>
        <time>2021-05-26T09:08:05Z</time>
      </trkpt>
      <trkpt lat="41.633126" lon="2.533683">
        <ele>385.587</ele>
        <time>2021-05-26T09:08:06Z</time>
      </trkpt>
      <trkpt lat="41.633129" lon="2.533729">
        <ele>385.534</ele>
        <time>2021-05-26T09:08:07Z</time>
      </trkpt>
      <trkpt lat="41.633137" lon="2.533773">
        <ele>385.637</ele>
        <time>2021-05-26T09:08:08Z</time>
      </trkpt>
      <trkpt lat="41.633146" lon="2.533809">
        <ele>385.762</ele>
        <time>2021-05-26T09:08:09Z</time>
      </trkpt>
      <trkpt lat="41.633160" lon="2.533846">
        <ele>385.818</ele>
        <time>2021-05-26T09:08:10Z</time>
      </trkpt>
      <trkpt lat="41.633174" lon="2.533883">
        <ele>385.935</ele>
        <time>2021-05-26T09:08:11Z</time>
      </trkpt>
      <trkpt lat="41.633194" lon="2.533919">
        <ele>385.712</ele>
        <time>2021-05-26T09:08:12Z</time>
      </trkpt>
      <trkpt lat="41.633215" lon="2.533949">
        <ele>385.592</ele>
        <time>2021-05-26T09:08:13Z</time>
      </trkpt>
      <trkpt lat="41.633238" lon="2.533980">
        <ele>385.373</ele>
        <time>2021-05-26T09:08:14Z</time>
      </trkpt>
      <trkpt lat="41.633255" lon="2.534012">
        <ele>385.120</ele>
        <time>2021-05-26T09:08:15Z</time>
      </trkpt>
      <trkpt lat="41.633272" lon="2.534045">
        <ele>384.908</ele>
        <time>2021-05-26T09:08:16Z</time>
      </trkpt>
      <trkpt lat="41.633291" lon="2.534073">
        <ele>384.756</ele>
        <time>2021-05-26T09:08:17Z</time>
      </trkpt>
      <trkpt lat="41.633309" lon="2.534101">
        <ele>384.533</ele>
        <time>2021-05-26T09:08:18Z</time>
      </trkpt>
      <trkpt lat="41.633326" lon="2.534129">
        <ele>384.410</ele>
        <time>2021-05-26T09:08:19Z</time>
      </trkpt>
      <trkpt lat="41.633343" lon="2.534157">
        <ele>384.273</ele>
        <time>2021-05-26T09:08:20Z</time>
      </trkpt>
      <trkpt lat="41.633361" lon="2.534187">
        <ele>384.088</ele>
        <time>2021-05-26T09:08:21Z</time>
      </trkpt>
      <trkpt lat="41.633379" lon="2.534216">
        <ele>383.864</ele>
        <time>2021-05-26T09:08:22Z</time>
      </trkpt>
      <trkpt lat="41.633398" lon="2.534238">
        <ele>383.841</ele>
        <time>2021-05-26T09:08:23Z</time>
      </trkpt>
      <trkpt lat="41.633418" lon="2.534260">
        <ele>383.888</ele>
        <time>2021-05-26T09:08:24Z</time>
      </trkpt>
      <trkpt lat="41.633435" lon="2.534285">
        <ele>383.799</ele>
        <time>2021-05-26T09:08:25Z</time>
      </trkpt>
      <trkpt lat="41.633452" lon="2.534313">
        <ele>383.607</ele>
        <time>2021-05-26T09:08:26Z</time>
      </trkpt>
      <trkpt lat="41.633468" lon="2.534343">
        <ele>383.527</ele>
        <time>2021-05-26T09:08:27Z</time>
      </trkpt>
      <trkpt lat="41.633488" lon="2.534373">
        <ele>383.508</ele>
        <time>2021-05-26T09:08:28Z</time>
      </trkpt>
      <trkpt lat="41.633506" lon="2.534400">
        <ele>383.526</ele>
        <time>2021-05-26T09:08:29Z</time>
      </trkpt>
      <trkpt lat="41.633526" lon="2.534424">
        <ele>383.723</ele>
        <time>2021-05-26T09:08:30Z</time>
      </trkpt>
      <trkpt lat="41.633547" lon="2.534451">
        <ele>383.880</ele>
        <time>2021-05-26T09:08:31Z</time>
      </trkpt>
      <trkpt lat="41.633566" lon="2.534473">
        <ele>384.153</ele>
        <time>2021-05-26T09:08:32Z</time>
      </trkpt>
      <trkpt lat="41.633580" lon="2.534494">
        <ele>384.218</ele>
        <time>2021-05-26T09:08:33Z</time>
      </trkpt>
      <trkpt lat="41.633602" lon="2.534524">
        <ele>384.574</ele>
        <time>2021-05-26T09:08:35Z</time>
      </trkpt>
      <trkpt lat="41.633618" lon="2.534546">
        <ele>384.841</ele>
        <time>2021-05-26T09:08:37Z</time>
      </trkpt>
      <trkpt lat="41.633637" lon="2.534569">
        <ele>385.228</ele>
        <time>2021-05-26T09:08:39Z</time>
      </trkpt>
      <trkpt lat="41.633668" lon="2.534589">
        <ele>386.057</ele>
        <time>2021-05-26T09:08:41Z</time>
      </trkpt>
      <trkpt lat="41.633692" lon="2.534615">
        <ele>386.600</ele>
        <time>2021-05-26T09:08:43Z</time>
      </trkpt>
      <trkpt lat="41.633707" lon="2.534636">
        <ele>387.020</ele>
        <time>2021-05-26T09:08:45Z</time>
      </trkpt>
      <trkpt lat="41.633723" lon="2.534649">
        <ele>387.408</ele>
        <time>2021-05-26T09:08:47Z</time>
      </trkpt>
      <trkpt lat="41.633745" lon="2.534668">
        <ele>388.012</ele>
        <time>2021-05-26T09:08:49Z</time>
      </trkpt>
      <trkpt lat="41.633772" lon="2.534685">
        <ele>388.769</ele>
        <time>2021-05-26T09:08:51Z</time>
      </trkpt>
      <trkpt lat="41.633797" lon="2.534702">
        <ele>389.436</ele>
        <time>2021-05-26T09:08:53Z</time>
      </trkpt>
      <trkpt lat="41.633817" lon="2.534722">
        <ele>389.989</ele>
        <time>2021-05-26T09:08:55Z</time>
      </trkpt>
      <trkpt lat="41.633837" lon="2.534745">
        <ele>390.544</ele>
        <time>2021-05-26T09:08:57Z</time>
      </trkpt>
      <trkpt lat="41.633857" lon="2.534761">
        <ele>391.150</ele>
        <time>2021-05-26T09:08:59Z</time>
      </trkpt>
      <trkpt lat="41.633878" lon="2.534776">
        <ele>391.777</ele>
        <time>2021-05-26T09:09:01Z</time>
      </trkpt>
      <trkpt lat="41.633904" lon="2.534789">
        <ele>392.454</ele>
        <time>2021-05-26T09:09:03Z</time>
      </trkpt>
      <trkpt lat="41.633932" lon="2.534799">
        <ele>393.061</ele>
        <time>2021-05-26T09:09:05Z</time>
      </trkpt>
      <trkpt lat="41.633965" lon="2.534799">
        <ele>393.821</ele>
        <time>2021-05-26T09:09:07Z</time>
      </trkpt>
      <trkpt lat="41.633995" lon="2.534802">
        <ele>394.513</ele>
        <time>2021-05-26T09:09:09Z</time>
      </trkpt>
      <trkpt lat="41.634019" lon="2.534811">
        <ele>395.108</ele>
        <time>2021-05-26T09:09:11Z</time>
      </trkpt>
      <trkpt lat="41.634043" lon="2.534819">
        <ele>395.793</ele>
        <time>2021-05-26T09:09:13Z</time>
      </trkpt>
      <trkpt lat="41.634067" lon="2.534833">
        <ele>396.470</ele>
        <time>2021-05-26T09:09:15Z</time>
      </trkpt>
      <trkpt lat="41.634091" lon="2.534848">
        <ele>397.087</ele>
        <time>2021-05-26T09:09:17Z</time>
      </trkpt>
      <trkpt lat="41.634116" lon="2.534863">
        <ele>397.790</ele>
        <time>2021-05-26T09:09:19Z</time>
      </trkpt>
      <trkpt lat="41.634137" lon="2.534879">
        <ele>398.495</ele>
        <time>2021-05-26T09:09:21Z</time>
      </trkpt>
      <trkpt lat="41.634158" lon="2.534888">
        <ele>399.041</ele>
        <time>2021-05-26T09:09:23Z</time>
      </trkpt>
      <trkpt lat="41.634183" lon="2.534893">
        <ele>399.498</ele>
        <time>2021-05-26T09:09:25Z</time>
      </trkpt>
      <trkpt lat="41.634207" lon="2.534901">
        <ele>399.855</ele>
        <time>2021-05-26T09:09:27Z</time>
      </trkpt>
      <trkpt lat="41.634231" lon="2.534910">
        <ele>400.291</ele>
        <time>2021-05-26T09:09:29Z</time>
      </trkpt>
      <trkpt lat="41.634257" lon="2.534919">
        <ele>400.681</ele>
        <time>2021-05-26T09:09:31Z</time>
      </trkpt>
      <trkpt lat="41.634280" lon="2.534932">
        <ele>401.019</ele>
        <time>2021-05-26T09:09:33Z</time>
      </trkpt>
      <trkpt lat="41.634301" lon="2.534952">
        <ele>401.508</ele>
        <time>2021-05-26T09:09:35Z</time>
      </trkpt>
      <trkpt lat="41.634323" lon="2.534964">
        <ele>401.986</ele>
        <time>2021-05-26T09:09:37Z</time>
      </trkpt>
      <trkpt lat="41.634347" lon="2.534979">
        <ele>402.423</ele>
        <time>2021-05-26T09:09:39Z</time>
      </trkpt>
      <trkpt lat="41.634372" lon="2.534992">
        <ele>402.910</ele>
        <time>2021-05-26T09:09:41Z</time>
      </trkpt>
      <trkpt lat="41.634400" lon="2.535007">
        <ele>403.483</ele>
        <time>2021-05-26T09:09:43Z</time>
      </trkpt>
      <trkpt lat="41.634425" lon="2.535025">
        <ele>403.818</ele>
        <time>2021-05-26T09:09:45Z</time>
      </trkpt>
      <trkpt lat="41.634449" lon="2.535044">
        <ele>404.214</ele>
        <time>2021-05-26T09:09:47Z</time>
      </trkpt>
      <trkpt lat="41.634471" lon="2.535070">
        <ele>404.451</ele>
        <time>2021-05-26T09:09:49Z</time>
      </trkpt>
      <trkpt lat="41.634497" lon="2.535086">
        <ele>404.698</ele>
        <time>2021-05-26T09:09:51Z</time>
      </trkpt>
      <trkpt lat="41.634520" lon="2.535106">
        <ele>404.879</ele>
        <time>2021-05-26T09:09:53Z</time>
      </trkpt>
      <trkpt lat="41.634543" lon="2.535126">
        <ele>405.005</ele>
        <time>2021-05-26T09:09:55Z</time>
      </trkpt>
      <trkpt lat="41.634568" lon="2.535140">
        <ele>405.225</ele>
        <time>2021-05-26T09:09:57Z</time>
      </trkpt>
      <trkpt lat="41.634591" lon="2.535156">
        <ele>405.408</ele>
        <time>2021-05-26T09:09:59Z</time>
      </trkpt>
      <trkpt lat="41.634615" lon="2.535172">
        <ele>405.674</ele>
        <time>2021-05-26T09:10:01Z</time>
      </trkpt>
      <trkpt lat="41.634645" lon="2.535188">
        <ele>405.911</ele>
        <time>2021-05-26T09:10:03Z</time>
      </trkpt>
      <trkpt lat="41.634677" lon="2.535201">
        <ele>406.298</ele>
        <time>2021-05-26T09:10:05Z</time>
      </trkpt>
      <trkpt lat="41.634708" lon="2.535218">
        <ele>406.551</ele>
        <time>2021-05-26T09:10:07Z</time>
      </trkpt>
      <trkpt lat="41.634736" lon="2.535238">
        <ele>406.766</ele>
        <time>2021-05-26T09:10:09Z</time>
      </trkpt>
      <trkpt lat="41.634761" lon="2.535256">
        <ele>406.862</ele>
        <time>2021-05-26T09:10:11Z</time>
      </trkpt>
      <trkpt lat="41.634785" lon="2.535269">
        <ele>406.929</ele>
        <time>2021-05-26T09:10:13Z</time>
      </trkpt>
      <trkpt lat="41.634816" lon="2.535281">
        <ele>407.026</ele>
        <time>2021-05-26T09:10:15Z</time>
      </trkpt>
      <trkpt lat="41.634842" lon="2.535297">
        <ele>407.041</ele>
        <time>2021-05-26T09:10:17Z</time>
      </trkpt>
      <trkpt lat="41.634869" lon="2.535314">
        <ele>406.981</ele>
        <time>2021-05-26T09:10:19Z</time>
      </trkpt>
      <trkpt lat="41.634899" lon="2.535332">
        <ele>406.909</ele>
        <time>2021-05-26T09:10:21Z</time>
      </trkpt>
      <trkpt lat="41.634924" lon="2.535348">
        <ele>406.808</ele>
        <time>2021-05-26T09:10:23Z</time>
      </trkpt>
      <trkpt lat="41.634952" lon="2.535356">
        <ele>406.851</ele>
        <time>2021-05-26T09:10:25Z</time>
      </trkpt>
      <trkpt lat="41.634978" lon="2.535355">
        <ele>406.728</ele>
        <time>2021-05-26T09:10:27Z</time>
      </trkpt>
      <trkpt lat="41.635006" lon="2.535352">
        <ele>406.775</ele>
        <time>2021-05-26T09:10:29Z</time>
      </trkpt>
      <trkpt lat="41.635036" lon="2.535354">
        <ele>406.668</ele>
        <time>2021-05-26T09:10:31Z</time>
      </trkpt>
      <trkpt lat="41.635068" lon="2.535356">
        <ele>406.583</ele>
        <time>2021-05-26T09:10:33Z</time>
      </trkpt>
      <trkpt lat="41.635100" lon="2.535354">
        <ele>406.489</ele>
        <time>2021-05-26T09:10:35Z</time>
      </trkpt>
      <trkpt lat="41.635134" lon="2.535359">
        <ele>406.286</ele>
        <time>2021-05-26T09:10:37Z</time>
      </trkpt>
      <trkpt lat="41.635157" lon="2.535370">
        <ele>406.113</ele>
        <time>2021-05-26T09:10:38Z</time>
      </trkpt>
      <trkpt lat="41.635180" lon="2.535380">
        <ele>406.056</ele>
        <time>2021-05-26T09:10:39Z</time>
      </trkpt>
      <trkpt lat="41.635205" lon="2.535386">
        <ele>405.959</ele>
        <time>2021-05-26T09:10:40Z</time>
      </trkpt>
      <trkpt lat="41.635231" lon="2.535391">
        <ele>405.814</ele>
        <time>2021-05-26T09:10:41Z</time>
      </trkpt>
      <trkpt lat="41.635260" lon="2.535392">
        <ele>405.708</ele>
        <time>2021-05-26T09:10:42Z</time>
      </trkpt>
      <trkpt lat="41.635289" lon="2.535395">
        <ele>405.772</ele>
        <time>2021-05-26T09:10:43Z</time>
      </trkpt>
      <trkpt lat="41.635318" lon="2.535400">
        <ele>405.999</ele>
        <time>2021-05-26T09:10:44Z</time>
      </trkpt>
      <trkpt lat="41.635346" lon="2.535407">
        <ele>406.026</ele>
        <time>2021-05-26T09:10:45Z</time>
      </trkpt>
      <trkpt lat="41.635371" lon="2.535412">
        <ele>406.229</ele>
        <time>2021-05-26T09:10:46Z</time>
      </trkpt>
      <trkpt lat="41.635393" lon="2.535417">
        <ele>406.394</ele>
        <time>2021-05-26T09:10:47Z</time>
      </trkpt>
      <trkpt lat="41.635418" lon="2.535425">
        <ele>406.420</ele>
        <time>2021-05-26T09:10:48Z</time>
      </trkpt>
      <trkpt lat="41.635443" lon="2.535435">
        <ele>406.567</ele>
        <time>2021-05-26T09:10:49Z</time>
      </trkpt>
      <trkpt lat="41.635470" lon="2.535449">
        <ele>406.624</ele>
        <time>2021-05-26T09:10:50Z</time>
      </trkpt>
      <trkpt lat="41.635495" lon="2.535462">
        <ele>406.646</ele>
        <time>2021-05-26T09:10:51Z</time>
      </trkpt>
      <trkpt lat="41.635518" lon="2.535470">
        <ele>406.788</ele>
        <time>2021-05-26T09:10:52Z</time>
      </trkpt>
      <trkpt lat="41.635539" lon="2.535477">
        <ele>406.816</ele>
        <time>2021-05-26T09:10:53Z</time>
      </trkpt>
      <trkpt lat="41.635564" lon="2.535487">
        <ele>406.708</ele>
        <time>2021-05-26T09:10:54Z</time>
      </trkpt>
      <trkpt lat="41.635592" lon="2.535498">
        <ele>406.441</ele>
        <time>2021-05-26T09:10:55Z</time>
      </trkpt>
      <trkpt lat="41.635622" lon="2.535507">
        <ele>406.158</ele>
        <time>2021-05-26T09:10:56Z</time>
      </trkpt>
      <trkpt lat="41.635650" lon="2.535519">
        <ele>405.825</ele>
        <time>2021-05-26T09:10:57Z</time>
      </trkpt>
      <trkpt lat="41.635680" lon="2.535535">
        <ele>405.478</ele>
        <time>2021-05-26T09:10:58Z</time>
      </trkpt>
      <trkpt lat="41.635711" lon="2.535548">
        <ele>405.013</ele>
        <time>2021-05-26T09:10:59Z</time>
      </trkpt>
      <trkpt lat="41.635739" lon="2.535558">
        <ele>404.629</ele>
        <time>2021-05-26T09:11:00Z</time>
      </trkpt>
      <trkpt lat="41.635767" lon="2.535568">
        <ele>404.326</ele>
        <time>2021-05-26T09:11:01Z</time>
      </trkpt>
      <trkpt lat="41.635794" lon="2.535579">
        <ele>403.993</ele>
        <time>2021-05-26T09:11:02Z</time>
      </trkpt>
      <trkpt lat="41.635820" lon="2.535591">
        <ele>403.523</ele>
        <time>2021-05-26T09:11:03Z</time>
      </trkpt>
      <trkpt lat="41.635848" lon="2.535602">
        <ele>403.183</ele>
        <time>2021-05-26T09:11:04Z</time>
      </trkpt>
      <trkpt lat="41.635878" lon="2.535612">
        <ele>402.711</ele>
        <time>2021-05-26T09:11:05Z</time>
      </trkpt>
      <trkpt lat="41.635912" lon="2.535623">
        <ele>402.208</ele>
        <time>2021-05-26T09:11:06Z</time>
      </trkpt>
      <trkpt lat="41.635941" lon="2.535634">
        <ele>401.899</ele>
        <time>2021-05-26T09:11:07Z</time>
      </trkpt>
      <trkpt lat="41.635967" lon="2.535643">
        <ele>401.526</ele>
        <time>2021-05-26T09:11:08Z</time>
      </trkpt>
      <trkpt lat="41.635995" lon="2.535657">
        <ele>401.093</ele>
        <time>2021-05-26T09:11:09Z</time>
      </trkpt>
      <trkpt lat="41.636024" lon="2.535666">
        <ele>400.656</ele>
        <time>2021-05-26T09:11:10Z</time>
      </trkpt>
      <trkpt lat="41.636057" lon="2.535673">
        <ele>400.321</ele>
        <time>2021-05-26T09:11:11Z</time>
      </trkpt>
      <trkpt lat="41.636088" lon="2.535680">
        <ele>399.917</ele>
        <time>2021-05-26T09:11:12Z</time>
      </trkpt>
      <trkpt lat="41.636118" lon="2.535691">
        <ele>399.584</ele>
        <time>2021-05-26T09:11:13Z</time>
      </trkpt>
      <trkpt lat="41.636148" lon="2.535700">
        <ele>399.121</ele>
        <time>2021-05-26T09:11:14Z</time>
      </trkpt>
      <trkpt lat="41.636178" lon="2.535707">
        <ele>398.874</ele>
        <time>2021-05-26T09:11:15Z</time>
      </trkpt>
      <trkpt lat="41.636210" lon="2.535710">
        <ele>398.556</ele>
        <time>2021-05-26T09:11:16Z</time>
      </trkpt>
      <trkpt lat="41.636242" lon="2.535715">
        <ele>398.221</ele>
        <time>2021-05-26T09:11:17Z</time>
      </trkpt>
      <trkpt lat="41.636276" lon="2.535720">
        <ele>397.908</ele>
        <time>2021-05-26T09:11:18Z</time>
      </trkpt>
      <trkpt lat="41.636308" lon="2.535726">
        <ele>397.534</ele>
        <time>2021-05-26T09:11:19Z</time>
      </trkpt>
      <trkpt lat="41.636339" lon="2.535731">
        <ele>397.241</ele>
        <time>2021-05-26T09:11:20Z</time>
      </trkpt>
      <trkpt lat="41.636369" lon="2.535733">
        <ele>396.928</ele>
        <time>2021-05-26T09:11:21Z</time>
      </trkpt>
      <trkpt lat="41.636399" lon="2.535733">
        <ele>396.711</ele>
        <time>2021-05-26T09:11:22Z</time>
      </trkpt>
      <trkpt lat="41.636429" lon="2.535733">
        <ele>396.596</ele>
        <time>2021-05-26T09:11:23Z</time>
      </trkpt>
      <trkpt lat="41.636460" lon="2.535735">
        <ele>396.252</ele>
        <time>2021-05-26T09:11:24Z</time>
      </trkpt>
      <trkpt lat="41.636491" lon="2.535734">
        <ele>395.929</ele>
        <time>2021-05-26T09:11:25Z</time>
      </trkpt>
      <trkpt lat="41.636517" lon="2.535732">
        <ele>395.736</ele>
        <time>2021-05-26T09:11:26Z</time>
      </trkpt>
      <trkpt lat="41.636545" lon="2.535731">
        <ele>395.544</ele>
        <time>2021-05-26T09:11:27Z</time>
      </trkpt>
      <trkpt lat="41.636578" lon="2.535725">
        <ele>395.305</ele>
        <time>2021-05-26T09:11:28Z</time>
      </trkpt>
      <trkpt lat="41.636610" lon="2.535717">
        <ele>395.215</ele>
        <time>2021-05-26T09:11:29Z</time>
      </trkpt>
      <trkpt lat="41.636642" lon="2.535707">
        <ele>395.008</ele>
        <time>2021-05-26T09:11:30Z</time>
      </trkpt>
      <trkpt lat="41.636675" lon="2.535695">
        <ele>394.881</ele>
        <time>2021-05-26T09:11:31Z</time>
      </trkpt>
      <trkpt lat="41.636706" lon="2.535683">
        <ele>394.488</ele>
        <time>2021-05-26T09:11:32Z</time>
      </trkpt>
      <trkpt lat="41.636736" lon="2.535668">
        <ele>393.945</ele>
        <time>2021-05-26T09:11:33Z</time>
      </trkpt>
      <trkpt lat="41.636764" lon="2.535654">
        <ele>393.538</ele>
        <time>2021-05-26T09:11:34Z</time>
      </trkpt>
      <trkpt lat="41.636794" lon="2.535639">
        <ele>393.053</ele>
        <time>2021-05-26T09:11:35Z</time>
      </trkpt>
      <trkpt lat="41.636821" lon="2.535624">
        <ele>392.529</ele>
        <time>2021-05-26T09:11:36Z</time>
      </trkpt>
      <trkpt lat="41.636850" lon="2.535603">
        <ele>392.096</ele>
        <time>2021-05-26T09:11:37Z</time>
      </trkpt>
      <trkpt lat="41.636872" lon="2.535582">
        <ele>391.713</ele>
        <time>2021-05-26T09:11:38Z</time>
      </trkpt>
      <trkpt lat="41.636891" lon="2.535555">
        <ele>391.376</ele>
        <time>2021-05-26T09:11:39Z</time>
      </trkpt>
      <trkpt lat="41.636914" lon="2.535529">
        <ele>390.890</ele>
        <time>2021-05-26T09:11:40Z</time>
      </trkpt>
      <trkpt lat="41.636938" lon="2.535504">
        <ele>390.219</ele>
        <time>2021-05-26T09:11:41Z</time>
      </trkpt>
      <trkpt lat="41.636963" lon="2.535479">
        <ele>389.508</ele>
        <time>2021-05-26T09:11:42Z</time>
      </trkpt>
      <trkpt lat="41.636986" lon="2.535451">
        <ele>388.864</ele>
        <time>2021-05-26T09:11:43Z</time>
      </trkpt>
      <trkpt lat="41.637009" lon="2.535423">
        <ele>388.141</ele>
        <time>2021-05-26T09:11:44Z</time>
      </trkpt>
      <trkpt lat="41.637030" lon="2.535398">
        <ele>387.528</ele>
        <time>2021-05-26T09:11:45Z</time>
      </trkpt>
      <trkpt lat="41.637051" lon="2.535373">
        <ele>386.961</ele>
        <time>2021-05-26T09:11:46Z</time>
      </trkpt>
      <trkpt lat="41.637073" lon="2.535347">
        <ele>386.386</ele>
        <time>2021-05-26T09:11:47Z</time>
      </trkpt>
      <trkpt lat="41.637093" lon="2.535319">
        <ele>385.752</ele>
        <time>2021-05-26T09:11:48Z</time>
      </trkpt>
      <trkpt lat="41.637114" lon="2.535293">
        <ele>385.169</ele>
        <time>2021-05-26T09:11:49Z</time>
      </trkpt>
      <trkpt lat="41.637135" lon="2.535263">
        <ele>384.476</ele>
        <time>2021-05-26T09:11:50Z</time>
      </trkpt>
      <trkpt lat="41.637157" lon="2.535237">
        <ele>383.767</ele>
        <time>2021-05-26T09:11:51Z</time>
      </trkpt>
      <trkpt lat="41.637181" lon="2.535210">
        <ele>382.981</ele>
        <time>2021-05-26T09:11:52Z</time>
      </trkpt>
      <trkpt lat="41.637208" lon="2.535185">
        <ele>382.019</ele>
        <time>2021-05-26T09:11:53Z</time>
      </trkpt>
      <trkpt lat="41.637230" lon="2.535158">
        <ele>381.408</ele>
        <time>2021-05-26T09:11:54Z</time>
      </trkpt>
      <trkpt lat="41.637248" lon="2.535136">
        <ele>381.063</ele>
        <time>2021-05-26T09:11:55Z</time>
      </trkpt>
      <trkpt lat="41.637267" lon="2.535122">
        <ele>380.750</ele>
        <time>2021-05-26T09:11:56Z</time>
      </trkpt>
      <trkpt lat="41.637290" lon="2.535109">
        <ele>380.297</ele>
        <time>2021-05-26T09:11:57Z</time>
      </trkpt>
      <trkpt lat="41.637321" lon="2.535102">
        <ele>379.730</ele>
        <time>2021-05-26T09:11:58Z</time>
      </trkpt>
      <trkpt lat="41.637355" lon="2.535098">
        <ele>379.185</ele>
        <time>2021-05-26T09:11:59Z</time>
      </trkpt>
      <trkpt lat="41.637390" lon="2.535098">
        <ele>378.511</ele>
        <time>2021-05-26T09:12:00Z</time>
      </trkpt>
      <trkpt lat="41.637427" lon="2.535099">
        <ele>377.918</ele>
        <time>2021-05-26T09:12:01Z</time>
      </trkpt>
      <trkpt lat="41.637457" lon="2.535095">
        <ele>377.485</ele>
        <time>2021-05-26T09:12:02Z</time>
      </trkpt>
      <trkpt lat="41.637490" lon="2.535092">
        <ele>376.885</ele>
        <time>2021-05-26T09:12:03Z</time>
      </trkpt>
      <trkpt lat="41.637525" lon="2.535090">
        <ele>376.389</ele>
        <time>2021-05-26T09:12:04Z</time>
      </trkpt>
      <trkpt lat="41.637561" lon="2.535086">
        <ele>375.717</ele>
        <time>2021-05-26T09:12:05Z</time>
      </trkpt>
      <trkpt lat="41.637597" lon="2.535084">
        <ele>375.208</ele>
        <time>2021-05-26T09:12:06Z</time>
      </trkpt>
      <trkpt lat="41.637633" lon="2.535079">
        <ele>374.795</ele>
        <time>2021-05-26T09:12:07Z</time>
      </trkpt>
      <trkpt lat="41.637668" lon="2.535074">
        <ele>374.212</ele>
        <time>2021-05-26T09:12:08Z</time>
      </trkpt>
      <trkpt lat="41.637701" lon="2.535071">
        <ele>373.799</ele>
        <time>2021-05-26T09:12:09Z</time>
      </trkpt>
      <trkpt lat="41.637735" lon="2.535066">
        <ele>373.262</ele>
        <time>2021-05-26T09:12:10Z</time>
      </trkpt>
      <trkpt lat="41.637766" lon="2.535060">
        <ele>372.727</ele>
        <time>2021-05-26T09:12:11Z</time>
      </trkpt>
      <trkpt lat="41.637800" lon="2.535053">
        <ele>372.363</ele>
        <time>2021-05-26T09:12:12Z</time>
      </trkpt>
      <trkpt lat="41.637836" lon="2.535046">
        <ele>371.820</ele>
        <time>2021-05-26T09:12:13Z</time>
      </trkpt>
      <trkpt lat="41.637865" lon="2.535035">
        <ele>371.587</ele>
        <time>2021-05-26T09:12:14Z</time>
      </trkpt>
      <trkpt lat="41.637897" lon="2.535020">
        <ele>371.167</ele>
        <time>2021-05-26T09:12:15Z</time>
      </trkpt>
      <trkpt lat="41.637926" lon="2.535002">
        <ele>370.981</ele>
        <time>2021-05-26T09:12:16Z</time>
      </trkpt>
      <trkpt lat="41.637955" lon="2.534980">
        <ele>370.319</ele>
        <time>2021-05-26T09:12:17Z</time>
      </trkpt>
      <trkpt lat="41.637981" lon="2.534958">
        <ele>369.808</ele>
        <time>2021-05-26T09:12:18Z</time>
      </trkpt>
      <trkpt lat="41.638005" lon="2.534935">
        <ele>369.493</ele>
        <time>2021-05-26T09:12:19Z</time>
      </trkpt>
      <trkpt lat="41.638023" lon="2.534913">
        <ele>369.130</ele>
        <time>2021-05-26T09:12:20Z</time>
      </trkpt>
      <trkpt lat="41.638050" lon="2.534889">
        <ele>368.787</ele>
        <time>2021-05-26T09:12:21Z</time>
      </trkpt>
      <trkpt lat="41.638079" lon="2.534865">
        <ele>368.440</ele>
        <time>2021-05-26T09:12:22Z</time>
      </trkpt>
      <trkpt lat="41.638103" lon="2.534838">
        <ele>368.365</ele>
        <time>2021-05-26T09:12:23Z</time>
      </trkpt>
      <trkpt lat="41.638129" lon="2.534813">
        <ele>368.251</ele>
        <time>2021-05-26T09:12:24Z</time>
      </trkpt>
      <trkpt lat="41.638158" lon="2.534790">
        <ele>368.178</ele>
        <time>2021-05-26T09:12:25Z</time>
      </trkpt>
      <trkpt lat="41.638182" lon="2.534770">
        <ele>368.035</ele>
        <time>2021-05-26T09:12:26Z</time>
      </trkpt>
      <trkpt lat="41.638213" lon="2.534747">
        <ele>368.013</ele>
        <time>2021-05-26T09:12:27Z</time>
      </trkpt>
      <trkpt lat="41.638239" lon="2.534726">
        <ele>368.043</ele>
        <time>2021-05-26T09:12:28Z</time>
      </trkpt>
      <trkpt lat="41.638262" lon="2.534710">
        <ele>367.907</ele>
        <time>2021-05-26T09:12:29Z</time>
      </trkpt>
      <trkpt lat="41.638292" lon="2.534696">
        <ele>367.808</ele>
        <time>2021-05-26T09:12:30Z</time>
      </trkpt>
      <trkpt lat="41.638323" lon="2.534686">
        <ele>367.768</ele>
        <time>2021-05-26T09:12:31Z</time>
      </trkpt>
      <trkpt lat="41.638427" lon="2.534674">
        <ele>367.715</ele>
        <time>2021-05-26T09:12:35Z</time>
      </trkpt>
      <trkpt lat="41.638454" lon="2.534678">
        <ele>367.832</ele>
        <time>2021-05-26T09:12:36Z</time>
      </trkpt>
      <trkpt lat="41.638478" lon="2.534682">
        <ele>367.865</ele>
        <time>2021-05-26T09:12:37Z</time>
      </trkpt>
      <trkpt lat="41.638505" lon="2.534686">
        <ele>367.820</ele>
        <time>2021-05-26T09:12:38Z</time>
      </trkpt>
      <trkpt lat="41.638534" lon="2.534690">
        <ele>367.976</ele>
        <time>2021-05-26T09:12:39Z</time>
      </trkpt>
      <trkpt lat="41.638558" lon="2.534694">
        <ele>367.943</ele>
        <time>2021-05-26T09:12:40Z</time>
      </trkpt>
      <trkpt lat="41.638583" lon="2.534707">
        <ele>367.970</ele>
        <time>2021-05-26T09:12:41Z</time>
      </trkpt>
      <trkpt lat="41.638605" lon="2.534721">
        <ele>368.031</ele>
        <time>2021-05-26T09:12:42Z</time>
      </trkpt>
      <trkpt lat="41.638629" lon="2.534732">
        <ele>367.961</ele>
        <time>2021-05-26T09:12:43Z</time>
      </trkpt>
      <trkpt lat="41.638657" lon="2.534744">
        <ele>367.907</ele>
        <time>2021-05-26T09:12:44Z</time>
      </trkpt>
      <trkpt lat="41.638686" lon="2.534759">
        <ele>367.808</ele>
        <time>2021-05-26T09:12:45Z</time>
      </trkpt>
      <trkpt lat="41.638713" lon="2.534770">
        <ele>367.870</ele>
        <time>2021-05-26T09:12:46Z</time>
      </trkpt>
      <trkpt lat="41.638737" lon="2.534785">
        <ele>367.897</ele>
        <time>2021-05-26T09:12:47Z</time>
      </trkpt>
      <trkpt lat="41.638761" lon="2.534802">
        <ele>367.734</ele>
        <time>2021-05-26T09:12:48Z</time>
      </trkpt>
      <trkpt lat="41.638786" lon="2.534821">
        <ele>367.717</ele>
        <time>2021-05-26T09:12:49Z</time>
      </trkpt>
      <trkpt lat="41.638813" lon="2.534833">
        <ele>367.882</ele>
        <time>2021-05-26T09:12:50Z</time>
      </trkpt>
      <trkpt lat="41.638839" lon="2.534850">
        <ele>367.868</ele>
        <time>2021-05-26T09:12:51Z</time>
      </trkpt>
      <trkpt lat="41.638868" lon="2.534864">
        <ele>367.925</ele>
        <time>2021-05-26T09:12:52Z</time>
      </trkpt>
      <trkpt lat="41.638895" lon="2.534877">
        <ele>368.072</ele>
        <time>2021-05-26T09:12:53Z</time>
      </trkpt>
      <trkpt lat="41.638920" lon="2.534889">
        <ele>368.258</ele>
        <time>2021-05-26T09:12:54Z</time>
      </trkpt>
      <trkpt lat="41.638947" lon="2.534901">
        <ele>368.452</ele>
        <time>2021-05-26T09:12:55Z</time>
      </trkpt>
      <trkpt lat="41.638975" lon="2.534914">
        <ele>368.617</ele>
        <time>2021-05-26T09:12:56Z</time>
      </trkpt>
      <trkpt lat="41.639021" lon="2.534944">
        <ele>369.008</ele>
        <time>2021-05-26T09:12:57Z</time>
      </trkpt>
      <trkpt lat="41.639046" lon="2.534956">
        <ele>369.112</ele>
        <time>2021-05-26T09:12:59Z</time>
      </trkpt>
      <trkpt lat="41.639074" lon="2.534964">
        <ele>369.329</ele>
        <time>2021-05-26T09:13:00Z</time>
      </trkpt>
      <trkpt lat="41.639098" lon="2.534967">
        <ele>369.566</ele>
        <time>2021-05-26T09:13:01Z</time>
      </trkpt>
      <trkpt lat="41.639122" lon="2.534957">
        <ele>369.779</ele>
        <time>2021-05-26T09:13:02Z</time>
      </trkpt>
      <trkpt lat="41.639147" lon="2.534945">
        <ele>369.944</ele>
        <time>2021-05-26T09:13:03Z</time>
      </trkpt>
      <trkpt lat="41.639173" lon="2.534928">
        <ele>370.140</ele>
        <time>2021-05-26T09:13:04Z</time>
      </trkpt>
      <trkpt lat="41.639201" lon="2.534907">
        <ele>370.467</ele>
        <time>2021-05-26T09:13:05Z</time>
      </trkpt>
      <trkpt lat="41.639227" lon="2.534887">
        <ele>370.744</ele>
        <time>2021-05-26T09:13:06Z</time>
      </trkpt>
      <trkpt lat="41.639250" lon="2.534864">
        <ele>371.038</ele>
        <time>2021-05-26T09:13:07Z</time>
      </trkpt>
      <trkpt lat="41.639271" lon="2.534841">
        <ele>371.370</ele>
        <time>2021-05-26T09:13:08Z</time>
      </trkpt>
      <trkpt lat="41.639291" lon="2.534815">
        <ele>371.617</ele>
        <time>2021-05-26T09:13:09Z</time>
      </trkpt>
      <trkpt lat="41.639308" lon="2.534789">
        <ele>371.908</ele>
        <time>2021-05-26T09:13:10Z</time>
      </trkpt>
      <trkpt lat="41.639324" lon="2.534760">
        <ele>372.270</ele>
        <time>2021-05-26T09:13:11Z</time>
      </trkpt>
      <trkpt lat="41.639366" lon="2.534677">
        <ele>372.587</ele>
        <time>2021-05-26T09:13:14Z</time>
      </trkpt>
      <trkpt lat="41.639377" lon="2.534648">
        <ele>372.584</ele>
        <time>2021-05-26T09:13:15Z</time>
      </trkpt>
      <trkpt lat="41.639391" lon="2.534618">
        <ele>372.567</ele>
        <time>2021-05-26T09:13:16Z</time>
      </trkpt>
      <trkpt lat="41.639404" lon="2.534590">
        <ele>372.572</ele>
        <time>2021-05-26T09:13:17Z</time>
      </trkpt>
      <trkpt lat="41.639417" lon="2.534564">
        <ele>372.528</ele>
        <time>2021-05-26T09:13:18Z</time>
      </trkpt>
      <trkpt lat="41.639426" lon="2.534540">
        <ele>372.465</ele>
        <time>2021-05-26T09:13:19Z</time>
      </trkpt>
      <trkpt lat="41.639437" lon="2.534516">
        <ele>372.492</ele>
        <time>2021-05-26T09:13:20Z</time>
      </trkpt>
      <trkpt lat="41.639450" lon="2.534495">
        <ele>372.486</ele>
        <time>2021-05-26T09:13:21Z</time>
      </trkpt>
      <trkpt lat="41.639519" lon="2.534401">
        <ele>371.960</ele>
        <time>2021-05-26T09:13:25Z</time>
      </trkpt>
      <trkpt lat="41.639598" lon="2.534339">
        <ele>371.826</ele>
        <time>2021-05-26T09:13:29Z</time>
      </trkpt>
      <trkpt lat="41.639696" lon="2.534330">
        <ele>372.408</ele>
        <time>2021-05-26T09:13:33Z</time>
      </trkpt>
      <trkpt lat="41.639788" lon="2.534380">
        <ele>373.415</ele>
        <time>2021-05-26T09:13:36Z</time>
      </trkpt>
      <trkpt lat="41.639813" lon="2.534396">
        <ele>373.712</ele>
        <time>2021-05-26T09:13:38Z</time>
      </trkpt>
      <trkpt lat="41.639837" lon="2.534411">
        <ele>374.069</ele>
        <time>2021-05-26T09:13:39Z</time>
      </trkpt>
      <trkpt lat="41.639878" lon="2.534437">
        <ele>374.622</ele>
        <time>2021-05-26T09:13:41Z</time>
      </trkpt>
      <trkpt lat="41.639934" lon="2.534459">
        <ele>375.497</ele>
        <time>2021-05-26T09:13:44Z</time>
      </trkpt>
      <trkpt lat="41.639963" lon="2.534462">
        <ele>375.853</ele>
        <time>2021-05-26T09:13:45Z</time>
      </trkpt>
      <trkpt lat="41.640061" lon="2.534478">
        <ele>376.440</ele>
        <time>2021-05-26T09:13:50Z</time>
      </trkpt>
      <trkpt lat="41.640110" lon="2.534480">
        <ele>376.487</ele>
        <time>2021-05-26T09:13:52Z</time>
      </trkpt>
      <trkpt lat="41.640135" lon="2.534483">
        <ele>376.547</ele>
        <time>2021-05-26T09:13:53Z</time>
      </trkpt>
      <trkpt lat="41.640208" lon="2.534501">
        <ele>376.829</ele>
        <time>2021-05-26T09:13:55Z</time>
      </trkpt>
      <trkpt lat="41.640236" lon="2.534506">
        <ele>376.921</ele>
        <time>2021-05-26T09:13:57Z</time>
      </trkpt>
      <trkpt lat="41.640262" lon="2.534517">
        <ele>377.008</ele>
        <time>2021-05-26T09:13:58Z</time>
      </trkpt>
      <trkpt lat="41.640282" lon="2.534522">
        <ele>377.111</ele>
        <time>2021-05-26T09:13:59Z</time>
      </trkpt>
      <trkpt lat="41.640373" lon="2.534546">
        <ele>377.168</ele>
        <time>2021-05-26T09:14:04Z</time>
      </trkpt>
      <trkpt lat="41.640470" lon="2.534600">
        <ele>377.535</ele>
        <time>2021-05-26T09:14:08Z</time>
      </trkpt>
      <trkpt lat="41.640565" lon="2.534627">
        <ele>377.668</ele>
        <time>2021-05-26T09:14:12Z</time>
      </trkpt>
      <trkpt lat="41.640655" lon="2.534659">
        <ele>378.113</ele>
        <time>2021-05-26T09:14:16Z</time>
      </trkpt>
      <trkpt lat="41.640700" lon="2.534674">
        <ele>378.329</ele>
        <time>2021-05-26T09:14:18Z</time>
      </trkpt>
      <trkpt lat="41.640721" lon="2.534678">
        <ele>378.456</ele>
        <time>2021-05-26T09:14:19Z</time>
      </trkpt>
      <trkpt lat="41.640821" lon="2.534668">
        <ele>378.233</ele>
        <time>2021-05-26T09:14:25Z</time>
      </trkpt>
      <trkpt lat="41.640918" lon="2.534642">
        <ele>378.442</ele>
        <time>2021-05-26T09:14:30Z</time>
      </trkpt>
      <trkpt lat="41.641015" lon="2.534639">
        <ele>378.922</ele>
        <time>2021-05-26T09:14:33Z</time>
      </trkpt>
      <trkpt lat="41.641116" lon="2.534632">
        <ele>379.514</ele>
        <time>2021-05-26T09:14:39Z</time>
      </trkpt>
      <trkpt lat="41.641193" lon="2.534714">
        <ele>382.608</ele>
        <time>2021-05-26T09:14:47Z</time>
      </trkpt>
      <trkpt lat="41.641190" lon="2.534748">
        <ele>383.041</ele>
        <time>2021-05-26T09:14:49Z</time>
      </trkpt>
      <trkpt lat="41.641179" lon="2.534782">
        <ele>383.398</ele>
        <time>2021-05-26T09:14:51Z</time>
      </trkpt>
      <trkpt lat="41.641163" lon="2.534810">
        <ele>383.335</ele>
        <time>2021-05-26T09:14:53Z</time>
      </trkpt>
      <trkpt lat="41.641144" lon="2.534840">
        <ele>383.498</ele>
        <time>2021-05-26T09:14:55Z</time>
      </trkpt>
      <trkpt lat="41.641121" lon="2.534860">
        <ele>383.243</ele>
        <time>2021-05-26T09:14:57Z</time>
      </trkpt>
      <trkpt lat="41.641100" lon="2.534886">
        <ele>383.299</ele>
        <time>2021-05-26T09:14:59Z</time>
      </trkpt>
      <trkpt lat="41.641074" lon="2.534916">
        <ele>383.336</ele>
        <time>2021-05-26T09:15:01Z</time>
      </trkpt>
      <trkpt lat="41.641056" lon="2.534950">
        <ele>383.663</ele>
        <time>2021-05-26T09:15:03Z</time>
      </trkpt>
      <trkpt lat="41.641035" lon="2.534990">
        <ele>383.864</ele>
        <time>2021-05-26T09:15:05Z</time>
      </trkpt>
      <trkpt lat="41.641008" lon="2.535026">
        <ele>383.506</ele>
        <time>2021-05-26T09:15:07Z</time>
      </trkpt>
      <trkpt lat="41.640998" lon="2.535051">
        <ele>383.416</ele>
        <time>2021-05-26T09:15:08Z</time>
      </trkpt>
      <trkpt lat="41.640985" lon="2.535083">
        <ele>383.208</ele>
        <time>2021-05-26T09:15:09Z</time>
      </trkpt>
      <trkpt lat="41.640977" lon="2.535114">
        <ele>383.153</ele>
        <time>2021-05-26T09:15:10Z</time>
      </trkpt>
      <trkpt lat="41.640971" lon="2.535144">
        <ele>383.080</ele>
        <time>2021-05-26T09:15:11Z</time>
      </trkpt>
      <trkpt lat="41.640965" lon="2.535177">
        <ele>382.957</ele>
        <time>2021-05-26T09:15:12Z</time>
      </trkpt>
      <trkpt lat="41.640967" lon="2.535211">
        <ele>382.920</ele>
        <time>2021-05-26T09:15:13Z</time>
      </trkpt>
      <trkpt lat="41.640985" lon="2.535295">
        <ele>383.145</ele>
        <time>2021-05-26T09:15:15Z</time>
      </trkpt>
      <trkpt lat="41.641035" lon="2.535417">
        <ele>383.561</ele>
        <time>2021-05-26T09:15:18Z</time>
      </trkpt>
      <trkpt lat="41.641079" lon="2.535523">
        <ele>384.278</ele>
        <time>2021-05-26T09:15:21Z</time>
      </trkpt>
      <trkpt lat="41.641131" lon="2.535626">
        <ele>385.135</ele>
        <time>2021-05-26T09:15:25Z</time>
      </trkpt>
      <trkpt lat="41.641146" lon="2.535656">
        <ele>385.369</ele>
        <time>2021-05-26T09:15:26Z</time>
      </trkpt>
      <trkpt lat="41.641172" lon="2.535716">
        <ele>385.704</ele>
        <time>2021-05-26T09:15:28Z</time>
      </trkpt>
      <trkpt lat="41.641185" lon="2.535748">
        <ele>385.924</ele>
        <time>2021-05-26T09:15:29Z</time>
      </trkpt>
      <trkpt lat="41.641193" lon="2.535781">
        <ele>386.008</ele>
        <time>2021-05-26T09:15:30Z</time>
      </trkpt>
      <trkpt lat="41.641204" lon="2.535814">
        <ele>386.193</ele>
        <time>2021-05-26T09:15:31Z</time>
      </trkpt>
      <trkpt lat="41.641214" lon="2.535846">
        <ele>386.250</ele>
        <time>2021-05-26T09:15:32Z</time>
      </trkpt>
      <trkpt lat="41.641235" lon="2.535900">
        <ele>386.397</ele>
        <time>2021-05-26T09:15:34Z</time>
      </trkpt>
      <trkpt lat="41.641245" lon="2.535929">
        <ele>386.340</ele>
        <time>2021-05-26T09:15:35Z</time>
      </trkpt>
      <trkpt lat="41.641253" lon="2.535959">
        <ele>386.295</ele>
        <time>2021-05-26T09:15:36Z</time>
      </trkpt>
      <trkpt lat="41.641264" lon="2.535988">
        <ele>386.391</ele>
        <time>2021-05-26T09:15:37Z</time>
      </trkpt>
      <trkpt lat="41.641274" lon="2.536014">
        <ele>386.458</ele>
        <time>2021-05-26T09:15:38Z</time>
      </trkpt>
      <trkpt lat="41.641282" lon="2.536042">
        <ele>386.545</ele>
        <time>2021-05-26T09:15:39Z</time>
      </trkpt>
      <trkpt lat="41.641289" lon="2.536073">
        <ele>386.448</ele>
        <time>2021-05-26T09:15:40Z</time>
      </trkpt>
      <trkpt lat="41.641302" lon="2.536129">
        <ele>386.361</ele>
        <time>2021-05-26T09:15:41Z</time>
      </trkpt>
      <trkpt lat="41.641310" lon="2.536163">
        <ele>386.317</ele>
        <time>2021-05-26T09:15:43Z</time>
      </trkpt>
      <trkpt lat="41.641319" lon="2.536197">
        <ele>386.208</ele>
        <time>2021-05-26T09:15:44Z</time>
      </trkpt>
      <trkpt lat="41.641325" lon="2.536226">
        <ele>386.151</ele>
        <time>2021-05-26T09:15:45Z</time>
      </trkpt>
      <trkpt lat="41.641331" lon="2.536252">
        <ele>386.138</ele>
        <time>2021-05-26T09:15:46Z</time>
      </trkpt>
      <trkpt lat="41.641339" lon="2.536281">
        <ele>386.115</ele>
        <time>2021-05-26T09:15:47Z</time>
      </trkpt>
      <trkpt lat="41.641347" lon="2.536305">
        <ele>386.138</ele>
        <time>2021-05-26T09:15:48Z</time>
      </trkpt>
      <trkpt lat="41.641358" lon="2.536328">
        <ele>386.393</ele>
        <time>2021-05-26T09:15:49Z</time>
      </trkpt>
      <trkpt lat="41.641368" lon="2.536354">
        <ele>386.589</ele>
        <time>2021-05-26T09:15:50Z</time>
      </trkpt>
      <trkpt lat="41.641377" lon="2.536387">
        <ele>386.516</ele>
        <time>2021-05-26T09:15:51Z</time>
      </trkpt>
      <trkpt lat="41.641385" lon="2.536423">
        <ele>386.523</ele>
        <time>2021-05-26T09:15:52Z</time>
      </trkpt>
      <trkpt lat="41.641392" lon="2.536457">
        <ele>386.314</ele>
        <time>2021-05-26T09:15:53Z</time>
      </trkpt>
      <trkpt lat="41.641398" lon="2.536489">
        <ele>386.154</ele>
        <time>2021-05-26T09:15:54Z</time>
      </trkpt>
      <trkpt lat="41.641405" lon="2.536523">
        <ele>385.909</ele>
        <time>2021-05-26T09:15:55Z</time>
      </trkpt>
      <trkpt lat="41.641410" lon="2.536550">
        <ele>385.708</ele>
        <time>2021-05-26T09:15:56Z</time>
      </trkpt>
      <trkpt lat="41.641420" lon="2.536577">
        <ele>385.648</ele>
        <time>2021-05-26T09:15:57Z</time>
      </trkpt>
      <trkpt lat="41.641432" lon="2.536603">
        <ele>385.665</ele>
        <time>2021-05-26T09:15:58Z</time>
      </trkpt>
      <trkpt lat="41.641445" lon="2.536628">
        <ele>385.642</ele>
        <time>2021-05-26T09:15:59Z</time>
      </trkpt>
      <trkpt lat="41.641458" lon="2.536654">
        <ele>385.635</ele>
        <time>2021-05-26T09:16:00Z</time>
      </trkpt>
      <trkpt lat="41.641472" lon="2.536679">
        <ele>385.710</ele>
        <time>2021-05-26T09:16:01Z</time>
      </trkpt>
      <trkpt lat="41.641485" lon="2.536701">
        <ele>385.746</ele>
        <time>2021-05-26T09:16:02Z</time>
      </trkpt>
      <trkpt lat="41.641495" lon="2.536728">
        <ele>385.643</ele>
        <time>2021-05-26T09:16:03Z</time>
      </trkpt>
      <trkpt lat="41.641508" lon="2.536750">
        <ele>385.780</ele>
        <time>2021-05-26T09:16:04Z</time>
      </trkpt>
      <trkpt lat="41.641534" lon="2.536791">
        <ele>385.832</ele>
        <time>2021-05-26T09:16:06Z</time>
      </trkpt>
      <trkpt lat="41.641548" lon="2.536815">
        <ele>385.892</ele>
        <time>2021-05-26T09:16:07Z</time>
      </trkpt>
      <trkpt lat="41.641560" lon="2.536840">
        <ele>385.811</ele>
        <time>2021-05-26T09:16:08Z</time>
      </trkpt>
      <trkpt lat="41.641570" lon="2.536867">
        <ele>385.708</ele>
        <time>2021-05-26T09:16:09Z</time>
      </trkpt>
      <trkpt lat="41.641581" lon="2.536893">
        <ele>385.780</ele>
        <time>2021-05-26T09:16:10Z</time>
      </trkpt>
      <trkpt lat="41.641593" lon="2.536915">
        <ele>385.747</ele>
        <time>2021-05-26T09:16:11Z</time>
      </trkpt>
      <trkpt lat="41.641605" lon="2.536936">
        <ele>385.894</ele>
        <time>2021-05-26T09:16:12Z</time>
      </trkpt>
      <trkpt lat="41.641612" lon="2.536967">
        <ele>385.687</ele>
        <time>2021-05-26T09:16:13Z</time>
      </trkpt>
      <trkpt lat="41.641621" lon="2.536994">
        <ele>385.692</ele>
        <time>2021-05-26T09:16:14Z</time>
      </trkpt>
      <trkpt lat="41.641627" lon="2.537022">
        <ele>385.448</ele>
        <time>2021-05-26T09:16:15Z</time>
      </trkpt>
      <trkpt lat="41.641632" lon="2.537053">
        <ele>385.285</ele>
        <time>2021-05-26T09:16:16Z</time>
      </trkpt>
      <trkpt lat="41.641634" lon="2.537084">
        <ele>385.032</ele>
        <time>2021-05-26T09:16:17Z</time>
      </trkpt>
      <trkpt lat="41.641630" lon="2.537116">
        <ele>384.658</ele>
        <time>2021-05-26T09:16:18Z</time>
      </trkpt>
      <trkpt lat="41.641624" lon="2.537149">
        <ele>384.252</ele>
        <time>2021-05-26T09:16:19Z</time>
      </trkpt>
      <trkpt lat="41.641617" lon="2.537188">
        <ele>383.817</ele>
        <time>2021-05-26T09:16:20Z</time>
      </trkpt>
      <trkpt lat="41.641608" lon="2.537226">
        <ele>383.408</ele>
        <time>2021-05-26T09:16:21Z</time>
      </trkpt>
      <trkpt lat="41.641600" lon="2.537264">
        <ele>383.542</ele>
        <time>2021-05-26T09:16:22Z</time>
      </trkpt>
      <trkpt lat="41.641594" lon="2.537298">
        <ele>383.689</ele>
        <time>2021-05-26T09:16:23Z</time>
      </trkpt>
      <trkpt lat="41.641587" lon="2.537332">
        <ele>383.726</ele>
        <time>2021-05-26T09:16:24Z</time>
      </trkpt>
      <trkpt lat="41.641587" lon="2.537367">
        <ele>383.919</ele>
        <time>2021-05-26T09:16:25Z</time>
      </trkpt>
      <trkpt lat="41.641583" lon="2.537403">
        <ele>384.044</ele>
        <time>2021-05-26T09:16:26Z</time>
      </trkpt>
      <trkpt lat="41.641587" lon="2.537438">
        <ele>384.270</ele>
        <time>2021-05-26T09:16:27Z</time>
      </trkpt>
      <trkpt lat="41.641591" lon="2.537470">
        <ele>384.587</ele>
        <time>2021-05-26T09:16:28Z</time>
      </trkpt>
      <trkpt lat="41.641595" lon="2.537498">
        <ele>384.764</ele>
        <time>2021-05-26T09:16:29Z</time>
      </trkpt>
      <trkpt lat="41.641594" lon="2.537532">
        <ele>384.821</ele>
        <time>2021-05-26T09:16:30Z</time>
      </trkpt>
      <trkpt lat="41.641596" lon="2.537566">
        <ele>385.041</ele>
        <time>2021-05-26T09:16:31Z</time>
      </trkpt>
      <trkpt lat="41.641600" lon="2.537596">
        <ele>385.105</ele>
        <time>2021-05-26T09:16:32Z</time>
      </trkpt>
      <trkpt lat="41.641606" lon="2.537624">
        <ele>385.408</ele>
        <time>2021-05-26T09:16:33Z</time>
      </trkpt>
      <trkpt lat="41.641610" lon="2.537654">
        <ele>385.519</ele>
        <time>2021-05-26T09:16:34Z</time>
      </trkpt>
      <trkpt lat="41.641615" lon="2.537688">
        <ele>385.776</ele>
        <time>2021-05-26T09:16:35Z</time>
      </trkpt>
      <trkpt lat="41.641621" lon="2.537723">
        <ele>386.073</ele>
        <time>2021-05-26T09:16:36Z</time>
      </trkpt>
      <trkpt lat="41.641624" lon="2.537756">
        <ele>386.246</ele>
        <time>2021-05-26T09:16:37Z</time>
      </trkpt>
      <trkpt lat="41.641623" lon="2.537787">
        <ele>386.211</ele>
        <time>2021-05-26T09:16:38Z</time>
      </trkpt>
      <trkpt lat="41.641623" lon="2.537819">
        <ele>386.477</ele>
        <time>2021-05-26T09:16:39Z</time>
      </trkpt>
      <trkpt lat="41.641627" lon="2.537853">
        <ele>386.634</ele>
        <time>2021-05-26T09:16:40Z</time>
      </trkpt>
      <trkpt lat="41.641630" lon="2.537884">
        <ele>386.761</ele>
        <time>2021-05-26T09:16:41Z</time>
      </trkpt>
      <trkpt lat="41.641632" lon="2.537914">
        <ele>386.931</ele>
        <time>2021-05-26T09:16:42Z</time>
      </trkpt>
      <trkpt lat="41.641637" lon="2.537940">
        <ele>387.161</ele>
        <time>2021-05-26T09:16:43Z</time>
      </trkpt>
      <trkpt lat="41.641643" lon="2.537970">
        <ele>387.307</ele>
        <time>2021-05-26T09:16:44Z</time>
      </trkpt>
      <trkpt lat="41.641650" lon="2.538000">
        <ele>387.508</ele>
        <time>2021-05-26T09:16:45Z</time>
      </trkpt>
      <trkpt lat="41.641659" lon="2.538030">
        <ele>387.810</ele>
        <time>2021-05-26T09:16:46Z</time>
      </trkpt>
      <trkpt lat="41.641669" lon="2.538061">
        <ele>388.097</ele>
        <time>2021-05-26T09:16:47Z</time>
      </trkpt>
      <trkpt lat="41.641679" lon="2.538094">
        <ele>388.274</ele>
        <time>2021-05-26T09:16:48Z</time>
      </trkpt>
      <trkpt lat="41.641694" lon="2.538124">
        <ele>388.357</ele>
        <time>2021-05-26T09:16:49Z</time>
      </trkpt>
      <trkpt lat="41.641712" lon="2.538148">
        <ele>388.552</ele>
        <time>2021-05-26T09:16:50Z</time>
      </trkpt>
      <trkpt lat="41.641730" lon="2.538175">
        <ele>388.778</ele>
        <time>2021-05-26T09:16:51Z</time>
      </trkpt>
      <trkpt lat="41.641746" lon="2.538203">
        <ele>388.895</ele>
        <time>2021-05-26T09:16:52Z</time>
      </trkpt>
      <trkpt lat="41.641761" lon="2.538229">
        <ele>389.042</ele>
        <time>2021-05-26T09:16:53Z</time>
      </trkpt>
      <trkpt lat="41.641778" lon="2.538251">
        <ele>389.111</ele>
        <time>2021-05-26T09:16:54Z</time>
      </trkpt>
      <trkpt lat="41.641794" lon="2.538271">
        <ele>389.221</ele>
        <time>2021-05-26T09:16:55Z</time>
      </trkpt>
      <trkpt lat="41.641812" lon="2.538293">
        <ele>389.403</ele>
        <time>2021-05-26T09:16:56Z</time>
      </trkpt>
      <trkpt lat="41.641829" lon="2.538312">
        <ele>389.508</ele>
        <time>2021-05-26T09:16:57Z</time>
      </trkpt>
      <trkpt lat="41.641909" lon="2.538414">
        <ele>389.918</ele>
        <time>2021-05-26T09:17:01Z</time>
      </trkpt>
      <trkpt lat="41.642004" lon="2.538488">
        <ele>390.215</ele>
        <time>2021-05-26T09:17:05Z</time>
      </trkpt>
      <trkpt lat="41.642049" lon="2.538509">
        <ele>390.582</ele>
        <time>2021-05-26T09:17:07Z</time>
      </trkpt>
      <trkpt lat="41.642071" lon="2.538519">
        <ele>390.695</ele>
        <time>2021-05-26T09:17:08Z</time>
      </trkpt>
      <trkpt lat="41.642091" lon="2.538528">
        <ele>390.790</ele>
        <time>2021-05-26T09:17:09Z</time>
      </trkpt>
      <trkpt lat="41.642113" lon="2.538534">
        <ele>390.986</ele>
        <time>2021-05-26T09:17:10Z</time>
      </trkpt>
      <trkpt lat="41.642133" lon="2.538539">
        <ele>391.093</ele>
        <time>2021-05-26T09:17:11Z</time>
      </trkpt>
      <trkpt lat="41.642158" lon="2.538542">
        <ele>391.290</ele>
        <time>2021-05-26T09:17:12Z</time>
      </trkpt>
      <trkpt lat="41.642178" lon="2.538545">
        <ele>391.378</ele>
        <time>2021-05-26T09:17:13Z</time>
      </trkpt>
      <trkpt lat="41.642214" lon="2.538548">
        <ele>391.533</ele>
        <time>2021-05-26T09:17:15Z</time>
      </trkpt>
      <trkpt lat="41.642236" lon="2.538547">
        <ele>391.526</ele>
        <time>2021-05-26T09:17:16Z</time>
      </trkpt>
      <trkpt lat="41.642257" lon="2.538545">
        <ele>391.508</ele>
        <time>2021-05-26T09:17:17Z</time>
      </trkpt>
      <trkpt lat="41.642278" lon="2.538548">
        <ele>391.564</ele>
        <time>2021-05-26T09:17:18Z</time>
      </trkpt>
      <trkpt lat="41.642296" lon="2.538549">
        <ele>391.571</ele>
        <time>2021-05-26T09:17:19Z</time>
      </trkpt>
      <trkpt lat="41.642344" lon="2.538555">
        <ele>391.528</ele>
        <time>2021-05-26T09:17:21Z</time>
      </trkpt>
      <trkpt lat="41.642368" lon="2.538560">
        <ele>391.581</ele>
        <time>2021-05-26T09:17:22Z</time>
      </trkpt>
      <trkpt lat="41.642401" lon="2.538566">
        <ele>391.696</ele>
        <time>2021-05-26T09:17:23Z</time>
      </trkpt>
      <trkpt lat="41.642422" lon="2.538579">
        <ele>391.782</ele>
        <time>2021-05-26T09:17:24Z</time>
      </trkpt>
      <trkpt lat="41.642491" lon="2.538619">
        <ele>392.179</ele>
        <time>2021-05-26T09:17:27Z</time>
      </trkpt>
      <trkpt lat="41.642569" lon="2.538690">
        <ele>392.746</ele>
        <time>2021-05-26T09:17:31Z</time>
      </trkpt>
      <trkpt lat="41.642594" lon="2.538713">
        <ele>392.911</ele>
        <time>2021-05-26T09:17:32Z</time>
      </trkpt>
      <trkpt lat="41.642618" lon="2.538734">
        <ele>393.121</ele>
        <time>2021-05-26T09:17:33Z</time>
      </trkpt>
      <trkpt lat="41.642638" lon="2.538755">
        <ele>393.303</ele>
        <time>2021-05-26T09:17:34Z</time>
      </trkpt>
      <trkpt lat="41.642658" lon="2.538776">
        <ele>393.608</ele>
        <time>2021-05-26T09:17:35Z</time>
      </trkpt>
      <trkpt lat="41.642679" lon="2.538798">
        <ele>393.868</ele>
        <time>2021-05-26T09:17:36Z</time>
      </trkpt>
      <trkpt lat="41.642702" lon="2.538818">
        <ele>394.025</ele>
        <time>2021-05-26T09:17:37Z</time>
      </trkpt>
      <trkpt lat="41.642726" lon="2.538840">
        <ele>394.352</ele>
        <time>2021-05-26T09:17:38Z</time>
      </trkpt>
      <trkpt lat="41.642754" lon="2.538861">
        <ele>394.625</ele>
        <time>2021-05-26T09:17:39Z</time>
      </trkpt>
      <trkpt lat="41.642774" lon="2.538878">
        <ele>394.880</ele>
        <time>2021-05-26T09:17:40Z</time>
      </trkpt>
      <trkpt lat="41.642797" lon="2.538897">
        <ele>394.736</ele>
        <time>2021-05-26T09:17:41Z</time>
      </trkpt>
      <trkpt lat="41.642819" lon="2.538915">
        <ele>394.573</ele>
        <time>2021-05-26T09:17:42Z</time>
      </trkpt>
      <trkpt lat="41.642843" lon="2.538933">
        <ele>394.260</ele>
        <time>2021-05-26T09:17:43Z</time>
      </trkpt>
      <trkpt lat="41.642868" lon="2.538948">
        <ele>393.928</ele>
        <time>2021-05-26T09:17:44Z</time>
      </trkpt>
      <trkpt lat="41.642894" lon="2.538964">
        <ele>393.689</ele>
        <time>2021-05-26T09:17:45Z</time>
      </trkpt>
      <trkpt lat="41.643001" lon="2.539013">
        <ele>392.017</ele>
        <time>2021-05-26T09:17:49Z</time>
      </trkpt>
      <trkpt lat="41.643108" lon="2.539068">
        <ele>390.508</ele>
        <time>2021-05-26T09:17:53Z</time>
      </trkpt>
      <trkpt lat="41.643213" lon="2.539154">
        <ele>389.999</ele>
        <time>2021-05-26T09:17:57Z</time>
      </trkpt>
      <trkpt lat="41.643239" lon="2.539177">
        <ele>389.836</ele>
        <time>2021-05-26T09:17:58Z</time>
      </trkpt>
      <trkpt lat="41.643258" lon="2.539206">
        <ele>389.843</ele>
        <time>2021-05-26T09:17:59Z</time>
      </trkpt>
      <trkpt lat="41.643279" lon="2.539235">
        <ele>389.746</ele>
        <time>2021-05-26T09:18:00Z</time>
      </trkpt>
      <trkpt lat="41.643296" lon="2.539265">
        <ele>389.781</ele>
        <time>2021-05-26T09:18:01Z</time>
      </trkpt>
      <trkpt lat="41.643311" lon="2.539294">
        <ele>389.867</ele>
        <time>2021-05-26T09:18:02Z</time>
      </trkpt>
      <trkpt lat="41.643325" lon="2.539324">
        <ele>389.884</ele>
        <time>2021-05-26T09:18:03Z</time>
      </trkpt>
      <trkpt lat="41.643369" lon="2.539384">
        <ele>389.531</ele>
        <time>2021-05-26T09:18:05Z</time>
      </trkpt>
      <trkpt lat="41.643414" lon="2.539434">
        <ele>389.141</ele>
        <time>2021-05-26T09:18:07Z</time>
      </trkpt>
      <trkpt lat="41.643442" lon="2.539452">
        <ele>388.781</ele>
        <time>2021-05-26T09:18:08Z</time>
      </trkpt>
      <trkpt lat="41.643473" lon="2.539466">
        <ele>388.109</ele>
        <time>2021-05-26T09:18:09Z</time>
      </trkpt>
      <trkpt lat="41.643493" lon="2.539485">
        <ele>387.808</ele>
        <time>2021-05-26T09:18:10Z</time>
      </trkpt>
      <trkpt lat="41.643516" lon="2.539494">
        <ele>387.451</ele>
        <time>2021-05-26T09:18:11Z</time>
      </trkpt>
      <trkpt lat="41.643540" lon="2.539506">
        <ele>386.978</ele>
        <time>2021-05-26T09:18:12Z</time>
      </trkpt>
      <trkpt lat="41.643593" lon="2.539538">
        <ele>386.075</ele>
        <time>2021-05-26T09:18:14Z</time>
      </trkpt>
      <trkpt lat="41.643618" lon="2.539551">
        <ele>385.678</ele>
        <time>2021-05-26T09:18:15Z</time>
      </trkpt>
      <trkpt lat="41.643703" lon="2.539609">
        <ele>383.783</ele>
        <time>2021-05-26T09:18:18Z</time>
      </trkpt>
      <trkpt lat="41.643756" lon="2.539651">
        <ele>382.769</ele>
        <time>2021-05-26T09:18:20Z</time>
      </trkpt>
      <trkpt lat="41.643780" lon="2.539669">
        <ele>382.216</ele>
        <time>2021-05-26T09:18:21Z</time>
      </trkpt>
      <trkpt lat="41.643810" lon="2.539690">
        <ele>381.743</ele>
        <time>2021-05-26T09:18:22Z</time>
      </trkpt>
      <trkpt lat="41.643840" lon="2.539711">
        <ele>381.184</ele>
        <time>2021-05-26T09:18:23Z</time>
      </trkpt>
      <trkpt lat="41.643868" lon="2.539734">
        <ele>380.607</ele>
        <time>2021-05-26T09:18:24Z</time>
      </trkpt>
      <trkpt lat="41.643892" lon="2.539761">
        <ele>380.117</ele>
        <time>2021-05-26T09:18:25Z</time>
      </trkpt>
      <trkpt lat="41.643917" lon="2.539788">
        <ele>379.808</ele>
        <time>2021-05-26T09:18:26Z</time>
      </trkpt>
      <trkpt lat="41.643939" lon="2.539814">
        <ele>379.595</ele>
        <time>2021-05-26T09:18:27Z</time>
      </trkpt>
      <trkpt lat="41.643956" lon="2.539840">
        <ele>379.312</ele>
        <time>2021-05-26T09:18:28Z</time>
      </trkpt>
      <trkpt lat="41.643977" lon="2.539868">
        <ele>378.949</ele>
        <time>2021-05-26T09:18:29Z</time>
      </trkpt>
      <trkpt lat="41.643996" lon="2.539897">
        <ele>378.632</ele>
        <time>2021-05-26T09:18:30Z</time>
      </trkpt>
      <trkpt lat="41.644018" lon="2.539928">
        <ele>378.227</ele>
        <time>2021-05-26T09:18:31Z</time>
      </trkpt>
      <trkpt lat="41.644043" lon="2.539958">
        <ele>377.733</ele>
        <time>2021-05-26T09:18:32Z</time>
      </trkpt>
      <trkpt lat="41.644072" lon="2.539989">
        <ele>377.140</ele>
        <time>2021-05-26T09:18:33Z</time>
      </trkpt>
      <trkpt lat="41.644101" lon="2.540015">
        <ele>376.387</ele>
        <time>2021-05-26T09:18:34Z</time>
      </trkpt>
      <trkpt lat="41.644125" lon="2.540035">
        <ele>375.672</ele>
        <time>2021-05-26T09:18:35Z</time>
      </trkpt>
      <trkpt lat="41.644140" lon="2.540053">
        <ele>375.213</ele>
        <time>2021-05-26T09:18:36Z</time>
      </trkpt>
      <trkpt lat="41.644166" lon="2.540055">
        <ele>374.614</ele>
        <time>2021-05-26T09:18:38Z</time>
      </trkpt>
      <trkpt lat="41.644192" lon="2.540042">
        <ele>374.008</ele>
        <time>2021-05-26T09:18:40Z</time>
      </trkpt>
      <trkpt lat="41.644213" lon="2.540035">
        <ele>373.664</ele>
        <time>2021-05-26T09:18:41Z</time>
      </trkpt>
      <trkpt lat="41.644231" lon="2.540021">
        <ele>373.251</ele>
        <time>2021-05-26T09:18:42Z</time>
      </trkpt>
      <trkpt lat="41.644249" lon="2.540007">
        <ele>372.998</ele>
        <time>2021-05-26T09:18:43Z</time>
      </trkpt>
      <trkpt lat="41.644269" lon="2.540000">
        <ele>372.451</ele>
        <time>2021-05-26T09:18:44Z</time>
      </trkpt>
      <trkpt lat="41.644295" lon="2.539989">
        <ele>371.856</ele>
        <time>2021-05-26T09:18:46Z</time>
      </trkpt>
      <trkpt lat="41.644312" lon="2.539964">
        <ele>371.542</ele>
        <time>2021-05-26T09:18:48Z</time>
      </trkpt>
      <trkpt lat="41.644328" lon="2.539943">
        <ele>371.159</ele>
        <time>2021-05-26T09:18:49Z</time>
      </trkpt>
      <trkpt lat="41.644348" lon="2.539921">
        <ele>370.746</ele>
        <time>2021-05-26T09:18:50Z</time>
      </trkpt>
      <trkpt lat="41.644372" lon="2.539908">
        <ele>370.259</ele>
        <time>2021-05-26T09:18:51Z</time>
      </trkpt>
      <trkpt lat="41.644397" lon="2.539903">
        <ele>369.503</ele>
        <time>2021-05-26T09:18:52Z</time>
      </trkpt>
      <trkpt lat="41.644426" lon="2.539905">
        <ele>368.823</ele>
        <time>2021-05-26T09:18:53Z</time>
      </trkpt>
      <trkpt lat="41.644459" lon="2.539910">
        <ele>368.008</ele>
        <time>2021-05-26T09:18:54Z</time>
      </trkpt>
      <trkpt lat="41.644484" lon="2.539906">
        <ele>367.422</ele>
        <time>2021-05-26T09:18:55Z</time>
      </trkpt>
      <trkpt lat="41.644508" lon="2.539903">
        <ele>366.899</ele>
        <time>2021-05-26T09:18:56Z</time>
      </trkpt>
      <trkpt lat="41.644528" lon="2.539902">
        <ele>366.316</ele>
        <time>2021-05-26T09:18:57Z</time>
      </trkpt>
      <trkpt lat="41.644548" lon="2.539906">
        <ele>365.899</ele>
        <time>2021-05-26T09:18:58Z</time>
      </trkpt>
      <trkpt lat="41.644570" lon="2.539909">
        <ele>365.314</ele>
        <time>2021-05-26T09:18:59Z</time>
      </trkpt>
      <trkpt lat="41.644624" lon="2.539911">
        <ele>364.020</ele>
        <time>2021-05-26T09:19:00Z</time>
      </trkpt>
      <trkpt lat="41.644651" lon="2.539914">
        <ele>363.457</ele>
        <time>2021-05-26T09:19:02Z</time>
      </trkpt>
      <trkpt lat="41.644682" lon="2.539922">
        <ele>362.724</ele>
        <time>2021-05-26T09:19:03Z</time>
      </trkpt>
      <trkpt lat="41.644712" lon="2.539930">
        <ele>362.044</ele>
        <time>2021-05-26T09:19:04Z</time>
      </trkpt>
      <trkpt lat="41.644737" lon="2.539951">
        <ele>361.605</ele>
        <time>2021-05-26T09:19:05Z</time>
      </trkpt>
      <trkpt lat="41.644762" lon="2.539971">
        <ele>361.315</ele>
        <time>2021-05-26T09:19:06Z</time>
      </trkpt>
      <trkpt lat="41.644787" lon="2.539990">
        <ele>361.008</ele>
        <time>2021-05-26T09:19:07Z</time>
      </trkpt>
      <trkpt lat="41.644821" lon="2.540001">
        <ele>360.631</ele>
        <time>2021-05-26T09:19:08Z</time>
      </trkpt>
      <trkpt lat="41.644851" lon="2.540014">
        <ele>360.178</ele>
        <time>2021-05-26T09:19:09Z</time>
      </trkpt>
      <trkpt lat="41.644875" lon="2.540026">
        <ele>359.825</ele>
        <time>2021-05-26T09:19:10Z</time>
      </trkpt>
      <trkpt lat="41.644905" lon="2.540044">
        <ele>359.388</ele>
        <time>2021-05-26T09:19:11Z</time>
      </trkpt>
      <trkpt lat="41.644934" lon="2.540056">
        <ele>358.913</ele>
        <time>2021-05-26T09:19:12Z</time>
      </trkpt>
      <trkpt lat="41.644969" lon="2.540071">
        <ele>358.429</ele>
        <time>2021-05-26T09:19:13Z</time>
      </trkpt>
      <trkpt lat="41.645000" lon="2.540083">
        <ele>358.056</ele>
        <time>2021-05-26T09:19:14Z</time>
      </trkpt>
      <trkpt lat="41.645030" lon="2.540094">
        <ele>357.753</ele>
        <time>2021-05-26T09:19:15Z</time>
      </trkpt>
      <trkpt lat="41.645054" lon="2.540107">
        <ele>357.488</ele>
        <time>2021-05-26T09:19:16Z</time>
      </trkpt>
      <trkpt lat="41.645080" lon="2.540122">
        <ele>357.124</ele>
        <time>2021-05-26T09:19:17Z</time>
      </trkpt>
      <trkpt lat="41.645103" lon="2.540137">
        <ele>356.926</ele>
        <time>2021-05-26T09:19:18Z</time>
      </trkpt>
      <trkpt lat="41.645130" lon="2.540151">
        <ele>356.608</ele>
        <time>2021-05-26T09:19:19Z</time>
      </trkpt>
      <trkpt lat="41.645157" lon="2.540164">
        <ele>356.395</ele>
        <time>2021-05-26T09:19:20Z</time>
      </trkpt>
      <trkpt lat="41.645185" lon="2.540176">
        <ele>356.012</ele>
        <time>2021-05-26T09:19:21Z</time>
      </trkpt>
      <trkpt lat="41.645212" lon="2.540183">
        <ele>355.729</ele>
        <time>2021-05-26T09:19:22Z</time>
      </trkpt>
      <trkpt lat="41.645240" lon="2.540189">
        <ele>355.442</ele>
        <time>2021-05-26T09:19:23Z</time>
      </trkpt>
      <trkpt lat="41.645270" lon="2.540197">
        <ele>355.117</ele>
        <time>2021-05-26T09:19:24Z</time>
      </trkpt>
      <trkpt lat="41.645297" lon="2.540202">
        <ele>354.863</ele>
        <time>2021-05-26T09:19:25Z</time>
      </trkpt>
      <trkpt lat="41.645329" lon="2.540206">
        <ele>354.420</ele>
        <time>2021-05-26T09:19:26Z</time>
      </trkpt>
      <trkpt lat="41.645358" lon="2.540209">
        <ele>354.187</ele>
        <time>2021-05-26T09:19:27Z</time>
      </trkpt>
      <trkpt lat="41.645386" lon="2.540212">
        <ele>353.882</ele>
        <time>2021-05-26T09:19:28Z</time>
      </trkpt>
      <trkpt lat="41.645414" lon="2.540214">
        <ele>353.543</ele>
        <time>2021-05-26T09:19:29Z</time>
      </trkpt>
      <trkpt lat="41.645445" lon="2.540219">
        <ele>353.217</ele>
        <time>2021-05-26T09:19:30Z</time>
      </trkpt>
      <trkpt lat="41.645476" lon="2.540224">
        <ele>352.908</ele>
        <time>2021-05-26T09:19:31Z</time>
      </trkpt>
      <trkpt lat="41.645505" lon="2.540232">
        <ele>352.545</ele>
        <time>2021-05-26T09:19:32Z</time>
      </trkpt>
      <trkpt lat="41.645534" lon="2.540244">
        <ele>352.242</ele>
        <time>2021-05-26T09:19:33Z</time>
      </trkpt>
      <trkpt lat="41.645560" lon="2.540259">
        <ele>352.039</ele>
        <time>2021-05-26T09:19:34Z</time>
      </trkpt>
      <trkpt lat="41.645586" lon="2.540272">
        <ele>352.152</ele>
        <time>2021-05-26T09:19:35Z</time>
      </trkpt>
      <trkpt lat="41.645611" lon="2.540283">
        <ele>352.287</ele>
        <time>2021-05-26T09:19:36Z</time>
      </trkpt>
      <trkpt lat="41.645637" lon="2.540291">
        <ele>352.243</ele>
        <time>2021-05-26T09:19:37Z</time>
      </trkpt>
      <trkpt lat="41.645659" lon="2.540298">
        <ele>352.230</ele>
        <time>2021-05-26T09:19:38Z</time>
      </trkpt>
      <trkpt lat="41.645684" lon="2.540305">
        <ele>352.317</ele>
        <time>2021-05-26T09:19:39Z</time>
      </trkpt>
      <trkpt lat="41.645709" lon="2.540315">
        <ele>352.427</ele>
        <time>2021-05-26T09:19:40Z</time>
      </trkpt>
      <trkpt lat="41.645735" lon="2.540324">
        <ele>352.568</ele>
        <time>2021-05-26T09:19:41Z</time>
      </trkpt>
      <trkpt lat="41.645753" lon="2.540336">
        <ele>352.514</ele>
        <time>2021-05-26T09:19:42Z</time>
      </trkpt>
      <trkpt lat="41.645773" lon="2.540351">
        <ele>352.608</ele>
        <time>2021-05-26T09:19:43Z</time>
      </trkpt>
      <trkpt lat="41.645797" lon="2.540361">
        <ele>352.899</ele>
        <time>2021-05-26T09:19:44Z</time>
      </trkpt>
      <trkpt lat="41.645816" lon="2.540371">
        <ele>352.936</ele>
        <time>2021-05-26T09:19:45Z</time>
      </trkpt>
      <trkpt lat="41.645838" lon="2.540377">
        <ele>353.143</ele>
        <time>2021-05-26T09:19:46Z</time>
      </trkpt>
      <trkpt lat="41.645858" lon="2.540390">
        <ele>353.516</ele>
        <time>2021-05-26T09:19:47Z</time>
      </trkpt>
      <trkpt lat="41.645878" lon="2.540409">
        <ele>353.931</ele>
        <time>2021-05-26T09:19:48Z</time>
      </trkpt>
      <trkpt lat="41.645897" lon="2.540422">
        <ele>354.347</ele>
        <time>2021-05-26T09:19:49Z</time>
      </trkpt>
      <trkpt lat="41.645915" lon="2.540437">
        <ele>354.614</ele>
        <time>2021-05-26T09:19:50Z</time>
      </trkpt>
      <trkpt lat="41.645929" lon="2.540457">
        <ele>354.951</ele>
        <time>2021-05-26T09:19:51Z</time>
      </trkpt>
      <trkpt lat="41.645946" lon="2.540479">
        <ele>355.354</ele>
        <time>2021-05-26T09:19:52Z</time>
      </trkpt>
      <trkpt lat="41.645964" lon="2.540505">
        <ele>355.756</ele>
        <time>2021-05-26T09:19:53Z</time>
      </trkpt>
      <trkpt lat="41.645979" lon="2.540526">
        <ele>356.111</ele>
        <time>2021-05-26T09:19:54Z</time>
      </trkpt>
      <trkpt lat="41.645993" lon="2.540550">
        <ele>356.408</ele>
        <time>2021-05-26T09:19:55Z</time>
      </trkpt>
      <trkpt lat="41.646006" lon="2.540571">
        <ele>356.682</ele>
        <time>2021-05-26T09:19:56Z</time>
      </trkpt>
      <trkpt lat="41.646036" lon="2.540600">
        <ele>357.089</ele>
        <time>2021-05-26T09:19:58Z</time>
      </trkpt>
      <trkpt lat="41.646058" lon="2.540609">
        <ele>357.426</ele>
        <time>2021-05-26T09:20:00Z</time>
      </trkpt>
      <trkpt lat="41.646079" lon="2.540610">
        <ele>357.989</ele>
        <time>2021-05-26T09:20:02Z</time>
      </trkpt>
      <trkpt lat="41.646098" lon="2.540622">
        <ele>358.284</ele>
        <time>2021-05-26T09:20:05Z</time>
      </trkpt>
      <trkpt lat="41.646116" lon="2.540635">
        <ele>358.620</ele>
        <time>2021-05-26T09:20:07Z</time>
      </trkpt>
      <trkpt lat="41.646139" lon="2.540655">
        <ele>359.377</ele>
        <time>2021-05-26T09:20:09Z</time>
      </trkpt>
      <trkpt lat="41.646166" lon="2.540672">
        <ele>360.114</ele>
        <time>2021-05-26T09:20:11Z</time>
      </trkpt>
      <trkpt lat="41.646195" lon="2.540685">
        <ele>361.179</ele>
        <time>2021-05-26T09:20:13Z</time>
      </trkpt>
      <trkpt lat="41.646227" lon="2.540696">
        <ele>362.205</ele>
        <time>2021-05-26T09:20:15Z</time>
      </trkpt>
      <trkpt lat="41.646254" lon="2.540706">
        <ele>363.125</ele>
        <time>2021-05-26T09:20:17Z</time>
      </trkpt>
      <trkpt lat="41.646280" lon="2.540717">
        <ele>363.908</ele>
        <time>2021-05-26T09:20:19Z</time>
      </trkpt>
      <trkpt lat="41.646302" lon="2.540731">
        <ele>364.644</ele>
        <time>2021-05-26T09:20:21Z</time>
      </trkpt>
      <trkpt lat="41.646327" lon="2.540747">
        <ele>365.441</ele>
        <time>2021-05-26T09:20:23Z</time>
      </trkpt>
      <trkpt lat="41.646347" lon="2.540755">
        <ele>366.128</ele>
        <time>2021-05-26T09:20:25Z</time>
      </trkpt>
      <trkpt lat="41.646375" lon="2.540760">
        <ele>367.031</ele>
        <time>2021-05-26T09:20:27Z</time>
      </trkpt>
      <trkpt lat="41.646401" lon="2.540762">
        <ele>367.896</ele>
        <time>2021-05-26T09:20:29Z</time>
      </trkpt>
      <trkpt lat="41.646424" lon="2.540767">
        <ele>368.272</ele>
        <time>2021-05-26T09:20:31Z</time>
      </trkpt>
      <trkpt lat="41.646447" lon="2.540768">
        <ele>368.789</ele>
        <time>2021-05-26T09:20:33Z</time>
      </trkpt>
      <trkpt lat="41.646473" lon="2.540779">
        <ele>369.196</ele>
        <time>2021-05-26T09:20:35Z</time>
      </trkpt>
      <trkpt lat="41.646493" lon="2.540789">
        <ele>369.452</ele>
        <time>2021-05-26T09:20:37Z</time>
      </trkpt>
      <trkpt lat="41.646517" lon="2.540800">
        <ele>369.753</ele>
        <time>2021-05-26T09:20:39Z</time>
      </trkpt>
      <trkpt lat="41.646544" lon="2.540807">
        <ele>370.108</ele>
        <time>2021-05-26T09:20:41Z</time>
      </trkpt>
      <trkpt lat="41.646571" lon="2.540817">
        <ele>370.508</ele>
        <time>2021-05-26T09:20:43Z</time>
      </trkpt>
      <trkpt lat="41.646598" lon="2.540829">
        <ele>370.882</ele>
        <time>2021-05-26T09:20:45Z</time>
      </trkpt>
      <trkpt lat="41.646626" lon="2.540838">
        <ele>371.189</ele>
        <time>2021-05-26T09:20:47Z</time>
      </trkpt>
      <trkpt lat="41.646650" lon="2.540832">
        <ele>371.756</ele>
        <time>2021-05-26T09:20:49Z</time>
      </trkpt>
      <trkpt lat="41.646674" lon="2.540828">
        <ele>372.179</ele>
        <time>2021-05-26T09:20:51Z</time>
      </trkpt>
      <trkpt lat="41.646701" lon="2.540821">
        <ele>372.494</ele>
        <time>2021-05-26T09:20:53Z</time>
      </trkpt>
      <trkpt lat="41.646729" lon="2.540809">
        <ele>372.740</ele>
        <time>2021-05-26T09:20:55Z</time>
      </trkpt>
      <trkpt lat="41.646760" lon="2.540804">
        <ele>372.997</ele>
        <time>2021-05-26T09:20:57Z</time>
      </trkpt>
      <trkpt lat="41.646790" lon="2.540798">
        <ele>373.294</ele>
        <time>2021-05-26T09:20:59Z</time>
      </trkpt>
      <trkpt lat="41.646824" lon="2.540794">
        <ele>373.464</ele>
        <time>2021-05-26T09:21:00Z</time>
      </trkpt>
      <trkpt lat="41.646855" lon="2.540789">
        <ele>373.706</ele>
        <time>2021-05-26T09:21:03Z</time>
      </trkpt>
      <trkpt lat="41.646885" lon="2.540781">
        <ele>374.016</ele>
        <time>2021-05-26T09:21:05Z</time>
      </trkpt>
      <trkpt lat="41.646912" lon="2.540783">
        <ele>374.108</ele>
        <time>2021-05-26T09:21:07Z</time>
      </trkpt>
      <trkpt lat="41.646952" lon="2.540788">
        <ele>374.273</ele>
        <time>2021-05-26T09:21:09Z</time>
      </trkpt>
      <trkpt lat="41.646978" lon="2.540786">
        <ele>374.550</ele>
        <time>2021-05-26T09:21:10Z</time>
      </trkpt>
      <trkpt lat="41.647002" lon="2.540786">
        <ele>374.787</ele>
        <time>2021-05-26T09:21:11Z</time>
      </trkpt>
      <trkpt lat="41.647054" lon="2.540783">
        <ele>375.390</ele>
        <time>2021-05-26T09:21:13Z</time>
      </trkpt>
      <trkpt lat="41.647078" lon="2.540781">
        <ele>375.675</ele>
        <time>2021-05-26T09:21:14Z</time>
      </trkpt>
      <trkpt lat="41.647099" lon="2.540784">
        <ele>375.751</ele>
        <time>2021-05-26T09:21:15Z</time>
      </trkpt>
      <trkpt lat="41.647120" lon="2.540785">
        <ele>375.958</ele>
        <time>2021-05-26T09:21:16Z</time>
      </trkpt>
      <trkpt lat="41.647143" lon="2.540788">
        <ele>376.175</ele>
        <time>2021-05-26T09:21:17Z</time>
      </trkpt>
      <trkpt lat="41.647167" lon="2.540791">
        <ele>376.253</ele>
        <time>2021-05-26T09:21:18Z</time>
      </trkpt>
      <trkpt lat="41.647189" lon="2.540792">
        <ele>376.404</ele>
        <time>2021-05-26T09:21:19Z</time>
      </trkpt>
      <trkpt lat="41.647217" lon="2.540794">
        <ele>376.714</ele>
        <time>2021-05-26T09:21:20Z</time>
      </trkpt>
      <trkpt lat="41.647242" lon="2.540797">
        <ele>376.908</ele>
        <time>2021-05-26T09:21:21Z</time>
      </trkpt>
      <trkpt lat="41.647267" lon="2.540800">
        <ele>377.212</ele>
        <time>2021-05-26T09:21:22Z</time>
      </trkpt>
      <trkpt lat="41.647287" lon="2.540806">
        <ele>377.439</ele>
        <time>2021-05-26T09:21:23Z</time>
      </trkpt>
      <trkpt lat="41.647310" lon="2.540811">
        <ele>377.666</ele>
        <time>2021-05-26T09:21:24Z</time>
      </trkpt>
      <trkpt lat="41.647336" lon="2.540813">
        <ele>377.929</ele>
        <time>2021-05-26T09:21:25Z</time>
      </trkpt>
      <trkpt lat="41.647359" lon="2.540815">
        <ele>378.254</ele>
        <time>2021-05-26T09:21:26Z</time>
      </trkpt>
      <trkpt lat="41.647380" lon="2.540820">
        <ele>378.560</ele>
        <time>2021-05-26T09:21:27Z</time>
      </trkpt>
      <trkpt lat="41.647401" lon="2.540823">
        <ele>378.777</ele>
        <time>2021-05-26T09:21:28Z</time>
      </trkpt>
      <trkpt lat="41.647421" lon="2.540832">
        <ele>378.964</ele>
        <time>2021-05-26T09:21:29Z</time>
      </trkpt>
      <trkpt lat="41.647438" lon="2.540842">
        <ele>379.096</ele>
        <time>2021-05-26T09:21:30Z</time>
      </trkpt>
      <trkpt lat="41.647456" lon="2.540855">
        <ele>379.031</ele>
        <time>2021-05-26T09:21:31Z</time>
      </trkpt>
      <trkpt lat="41.647491" lon="2.540876">
        <ele>379.324</ele>
        <time>2021-05-26T09:21:33Z</time>
      </trkpt>
      <trkpt lat="41.647510" lon="2.540889">
        <ele>379.408</ele>
        <time>2021-05-26T09:21:34Z</time>
      </trkpt>
      <trkpt lat="41.647526" lon="2.540900">
        <ele>379.756</ele>
        <time>2021-05-26T09:21:35Z</time>
      </trkpt>
      <trkpt lat="41.647546" lon="2.540914">
        <ele>380.013</ele>
        <time>2021-05-26T09:21:36Z</time>
      </trkpt>
      <trkpt lat="41.647564" lon="2.540927">
        <ele>380.310</ele>
        <time>2021-05-26T09:21:37Z</time>
      </trkpt>
      <trkpt lat="41.647580" lon="2.540943">
        <ele>380.513</ele>
        <time>2021-05-26T09:21:38Z</time>
      </trkpt>
      <trkpt lat="41.647601" lon="2.540960">
        <ele>380.978</ele>
        <time>2021-05-26T09:21:39Z</time>
      </trkpt>
      <trkpt lat="41.647629" lon="2.540987">
        <ele>381.374</ele>
        <time>2021-05-26T09:21:41Z</time>
      </trkpt>
      <trkpt lat="41.647653" lon="2.541020">
        <ele>381.751</ele>
        <time>2021-05-26T09:21:43Z</time>
      </trkpt>
      <trkpt lat="41.647670" lon="2.541038">
        <ele>382.188</ele>
        <time>2021-05-26T09:21:44Z</time>
      </trkpt>
      <trkpt lat="41.647686" lon="2.541053">
        <ele>382.485</ele>
        <time>2021-05-26T09:21:45Z</time>
      </trkpt>
      <trkpt lat="41.647704" lon="2.541068">
        <ele>382.989</ele>
        <time>2021-05-26T09:21:46Z</time>
      </trkpt>
      <trkpt lat="41.647720" lon="2.541089">
        <ele>383.317</ele>
        <time>2021-05-26T09:21:47Z</time>
      </trkpt>
      <trkpt lat="41.647735" lon="2.541104">
        <ele>383.708</ele>
        <time>2021-05-26T09:21:48Z</time>
      </trkpt>
      <trkpt lat="41.647764" lon="2.541130">
        <ele>384.285</ele>
        <time>2021-05-26T09:21:50Z</time>
      </trkpt>
      <trkpt lat="41.647792" lon="2.541153">
        <ele>384.442</ele>
        <time>2021-05-26T09:21:52Z</time>
      </trkpt>
      <trkpt lat="41.647822" lon="2.541167">
        <ele>384.679</ele>
        <time>2021-05-26T09:21:54Z</time>
      </trkpt>
      <trkpt lat="41.647849" lon="2.541181">
        <ele>384.812</ele>
        <time>2021-05-26T09:21:56Z</time>
      </trkpt>
      <trkpt lat="41.647878" lon="2.541196">
        <ele>385.087</ele>
        <time>2021-05-26T09:21:58Z</time>
      </trkpt>
      <trkpt lat="41.647899" lon="2.541215">
        <ele>384.983</ele>
        <time>2021-05-26T09:22:00Z</time>
      </trkpt>
      <trkpt lat="41.647925" lon="2.541232">
        <ele>385.010</ele>
        <time>2021-05-26T09:22:02Z</time>
      </trkpt>
      <trkpt lat="41.647944" lon="2.541239">
        <ele>385.237</ele>
        <time>2021-05-26T09:22:03Z</time>
      </trkpt>
      <trkpt lat="41.647972" lon="2.541254">
        <ele>385.455</ele>
        <time>2021-05-26T09:22:05Z</time>
      </trkpt>
      <trkpt lat="41.648000" lon="2.541270">
        <ele>385.607</ele>
        <time>2021-05-26T09:22:07Z</time>
      </trkpt>
      <trkpt lat="41.648030" lon="2.541277">
        <ele>386.017</ele>
        <time>2021-05-26T09:22:09Z</time>
      </trkpt>
      <trkpt lat="41.648063" lon="2.541280">
        <ele>386.408</ele>
        <time>2021-05-26T09:22:11Z</time>
      </trkpt>
      <trkpt lat="41.648081" lon="2.541280">
        <ele>386.612</ele>
        <time>2021-05-26T09:22:12Z</time>
      </trkpt>
      <trkpt lat="41.648101" lon="2.541279">
        <ele>386.829</ele>
        <time>2021-05-26T09:22:13Z</time>
      </trkpt>
      <trkpt lat="41.648144" lon="2.541287">
        <ele>387.056</ele>
        <time>2021-05-26T09:22:15Z</time>
      </trkpt>
      <trkpt lat="41.648163" lon="2.541297">
        <ele>387.079</ele>
        <time>2021-05-26T09:22:16Z</time>
      </trkpt>
      <trkpt lat="41.648184" lon="2.541305">
        <ele>387.144</ele>
        <time>2021-05-26T09:22:17Z</time>
      </trkpt>
      <trkpt lat="41.648204" lon="2.541313">
        <ele>387.130</ele>
        <time>2021-05-26T09:22:18Z</time>
      </trkpt>
      <trkpt lat="41.648224" lon="2.541316">
        <ele>387.277</ele>
        <time>2021-05-26T09:22:19Z</time>
      </trkpt>
      <trkpt lat="41.648244" lon="2.541319">
        <ele>387.494</ele>
        <time>2021-05-26T09:22:20Z</time>
      </trkpt>
      <trkpt lat="41.648267" lon="2.541328">
        <ele>387.428</ele>
        <time>2021-05-26T09:22:21Z</time>
      </trkpt>
      <trkpt lat="41.648310" lon="2.541340">
        <ele>387.689</ele>
        <time>2021-05-26T09:22:22Z</time>
      </trkpt>
      <trkpt lat="41.648331" lon="2.541346">
        <ele>387.717</ele>
        <time>2021-05-26T09:22:24Z</time>
      </trkpt>
      <trkpt lat="41.648349" lon="2.541352">
        <ele>387.708</ele>
        <time>2021-05-26T09:22:25Z</time>
      </trkpt>
      <trkpt lat="41.648381" lon="2.541370">
        <ele>387.589</ele>
        <time>2021-05-26T09:22:27Z</time>
      </trkpt>
      <trkpt lat="41.648400" lon="2.541373">
        <ele>387.516</ele>
        <time>2021-05-26T09:22:28Z</time>
      </trkpt>
      <trkpt lat="41.648418" lon="2.541374">
        <ele>387.583</ele>
        <time>2021-05-26T09:22:29Z</time>
      </trkpt>
      <trkpt lat="41.648439" lon="2.541372">
        <ele>387.676</ele>
        <time>2021-05-26T09:22:30Z</time>
      </trkpt>
      <trkpt lat="41.648464" lon="2.541372">
        <ele>387.761</ele>
        <time>2021-05-26T09:22:31Z</time>
      </trkpt>
      <trkpt lat="41.648487" lon="2.541376">
        <ele>387.767</ele>
        <time>2021-05-26T09:22:32Z</time>
      </trkpt>
      <trkpt lat="41.648512" lon="2.541381">
        <ele>387.794</ele>
        <time>2021-05-26T09:22:33Z</time>
      </trkpt>
      <trkpt lat="41.648533" lon="2.541385">
        <ele>387.871</ele>
        <time>2021-05-26T09:22:34Z</time>
      </trkpt>
      <trkpt lat="41.648555" lon="2.541387">
        <ele>387.889</ele>
        <time>2021-05-26T09:22:35Z</time>
      </trkpt>
      <trkpt lat="41.648595" lon="2.541389">
        <ele>387.906</ele>
        <time>2021-05-26T09:22:37Z</time>
      </trkpt>
      <trkpt lat="41.648620" lon="2.541396">
        <ele>388.026</ele>
        <time>2021-05-26T09:22:38Z</time>
      </trkpt>
      <trkpt lat="41.648643" lon="2.541401">
        <ele>387.908</ele>
        <time>2021-05-26T09:22:39Z</time>
      </trkpt>
      <trkpt lat="41.648668" lon="2.541404">
        <ele>387.945</ele>
        <time>2021-05-26T09:22:40Z</time>
      </trkpt>
      <trkpt lat="41.648691" lon="2.541411">
        <ele>387.962</ele>
        <time>2021-05-26T09:22:41Z</time>
      </trkpt>
      <trkpt lat="41.648711" lon="2.541416">
        <ele>387.949</ele>
        <time>2021-05-26T09:22:42Z</time>
      </trkpt>
      <trkpt lat="41.648733" lon="2.541425">
        <ele>387.972</ele>
        <time>2021-05-26T09:22:43Z</time>
      </trkpt>
      <trkpt lat="41.648751" lon="2.541437">
        <ele>387.997</ele>
        <time>2021-05-26T09:22:44Z</time>
      </trkpt>
      <trkpt lat="41.648772" lon="2.541451">
        <ele>387.933</ele>
        <time>2021-05-26T09:22:45Z</time>
      </trkpt>
      <trkpt lat="41.648790" lon="2.541462">
        <ele>388.050</ele>
        <time>2021-05-26T09:22:46Z</time>
      </trkpt>
      <trkpt lat="41.648810" lon="2.541474">
        <ele>388.017</ele>
        <time>2021-05-26T09:22:47Z</time>
      </trkpt>
      <trkpt lat="41.648828" lon="2.541488">
        <ele>388.153</ele>
        <time>2021-05-26T09:22:48Z</time>
      </trkpt>
      <trkpt lat="41.648846" lon="2.541498">
        <ele>388.204</ele>
        <time>2021-05-26T09:22:49Z</time>
      </trkpt>
      <trkpt lat="41.648865" lon="2.541514">
        <ele>388.314</ele>
        <time>2021-05-26T09:22:50Z</time>
      </trkpt>
      <trkpt lat="41.648882" lon="2.541531">
        <ele>388.508</ele>
        <time>2021-05-26T09:22:51Z</time>
      </trkpt>
      <trkpt lat="41.648899" lon="2.541551">
        <ele>388.652</ele>
        <time>2021-05-26T09:22:52Z</time>
      </trkpt>
      <trkpt lat="41.648910" lon="2.541570">
        <ele>388.879</ele>
        <time>2021-05-26T09:22:53Z</time>
      </trkpt>
      <trkpt lat="41.648925" lon="2.541587">
        <ele>388.936</ele>
        <time>2021-05-26T09:22:54Z</time>
      </trkpt>
      <trkpt lat="41.648941" lon="2.541607">
        <ele>389.189</ele>
        <time>2021-05-26T09:22:55Z</time>
      </trkpt>
      <trkpt lat="41.648956" lon="2.541632">
        <ele>389.394</ele>
        <time>2021-05-26T09:22:56Z</time>
      </trkpt>
      <trkpt lat="41.648973" lon="2.541660">
        <ele>389.640</ele>
        <time>2021-05-26T09:22:57Z</time>
      </trkpt>
      <trkpt lat="41.648984" lon="2.541686">
        <ele>389.877</ele>
        <time>2021-05-26T09:22:58Z</time>
      </trkpt>
      <trkpt lat="41.648992" lon="2.541712">
        <ele>389.974</ele>
        <time>2021-05-26T09:22:59Z</time>
      </trkpt>
      <trkpt lat="41.649006" lon="2.541754">
        <ele>390.278</ele>
        <time>2021-05-26T09:23:01Z</time>
      </trkpt>
      <trkpt lat="41.649013" lon="2.541777">
        <ele>390.433</ele>
        <time>2021-05-26T09:23:02Z</time>
      </trkpt>
      <trkpt lat="41.649023" lon="2.541799">
        <ele>390.726</ele>
        <time>2021-05-26T09:23:03Z</time>
      </trkpt>
      <trkpt lat="41.649032" lon="2.541824">
        <ele>390.908</ele>
        <time>2021-05-26T09:23:04Z</time>
      </trkpt>
      <trkpt lat="41.649041" lon="2.541849">
        <ele>391.214</ele>
        <time>2021-05-26T09:23:05Z</time>
      </trkpt>
      <trkpt lat="41.649044" lon="2.541877">
        <ele>391.441</ele>
        <time>2021-05-26T09:23:06Z</time>
      </trkpt>
      <trkpt lat="41.649046" lon="2.541908">
        <ele>391.628</ele>
        <time>2021-05-26T09:23:07Z</time>
      </trkpt>
      <trkpt lat="41.649050" lon="2.541939">
        <ele>391.981</ele>
        <time>2021-05-26T09:23:08Z</time>
      </trkpt>
      <trkpt lat="41.649052" lon="2.541968">
        <ele>392.016</ele>
        <time>2021-05-26T09:23:09Z</time>
      </trkpt>
      <trkpt lat="41.649056" lon="2.541998">
        <ele>392.242</ele>
        <time>2021-05-26T09:23:10Z</time>
      </trkpt>
      <trkpt lat="41.649056" lon="2.542027">
        <ele>392.339</ele>
        <time>2021-05-26T09:23:11Z</time>
      </trkpt>
      <trkpt lat="41.649051" lon="2.542059">
        <ele>392.326</ele>
        <time>2021-05-26T09:23:12Z</time>
      </trkpt>
      <trkpt lat="41.649044" lon="2.542088">
        <ele>392.342</ele>
        <time>2021-05-26T09:23:13Z</time>
      </trkpt>
      <trkpt lat="41.649039" lon="2.542122">
        <ele>392.322</ele>
        <time>2021-05-26T09:23:14Z</time>
      </trkpt>
      <trkpt lat="41.649039" lon="2.542154">
        <ele>392.514</ele>
        <time>2021-05-26T09:23:15Z</time>
      </trkpt>
      <trkpt lat="41.649039" lon="2.542188">
        <ele>392.608</ele>
        <time>2021-05-26T09:23:16Z</time>
      </trkpt>
      <trkpt lat="41.649043" lon="2.542219">
        <ele>392.831</ele>
        <time>2021-05-26T09:23:17Z</time>
      </trkpt>
      <trkpt lat="41.649043" lon="2.542252">
        <ele>392.898</ele>
        <time>2021-05-26T09:23:18Z</time>
      </trkpt>
      <trkpt lat="41.649041" lon="2.542284">
        <ele>392.995</ele>
        <time>2021-05-26T09:23:19Z</time>
      </trkpt>
      <trkpt lat="41.649041" lon="2.542317">
        <ele>392.938</ele>
        <time>2021-05-26T09:23:20Z</time>
      </trkpt>
      <trkpt lat="41.649045" lon="2.542345">
        <ele>393.133</ele>
        <time>2021-05-26T09:23:21Z</time>
      </trkpt>
      <trkpt lat="41.649055" lon="2.542372">
        <ele>393.369</ele>
        <time>2021-05-26T09:23:22Z</time>
      </trkpt>
      <trkpt lat="41.649064" lon="2.542401">
        <ele>393.636</ele>
        <time>2021-05-26T09:23:23Z</time>
      </trkpt>
      <trkpt lat="41.649071" lon="2.542429">
        <ele>393.843</ele>
        <time>2021-05-26T09:23:24Z</time>
      </trkpt>
      <trkpt lat="41.649075" lon="2.542456">
        <ele>393.927</ele>
        <time>2021-05-26T09:23:25Z</time>
      </trkpt>
      <trkpt lat="41.649077" lon="2.542481">
        <ele>394.068</ele>
        <time>2021-05-26T09:23:26Z</time>
      </trkpt>
      <trkpt lat="41.649086" lon="2.542531">
        <ele>394.114</ele>
        <time>2021-05-26T09:23:28Z</time>
      </trkpt>
      <trkpt lat="41.649094" lon="2.542561">
        <ele>394.208</ele>
        <time>2021-05-26T09:23:29Z</time>
      </trkpt>
      <trkpt lat="41.649105" lon="2.542587">
        <ele>394.349</ele>
        <time>2021-05-26T09:23:30Z</time>
      </trkpt>
      <trkpt lat="41.649154" lon="2.542696">
        <ele>395.046</ele>
        <time>2021-05-26T09:23:34Z</time>
      </trkpt>
      <trkpt lat="41.649169" lon="2.542718">
        <ele>395.383</ele>
        <time>2021-05-26T09:23:35Z</time>
      </trkpt>
      <trkpt lat="41.649186" lon="2.542744">
        <ele>395.586</ele>
        <time>2021-05-26T09:23:36Z</time>
      </trkpt>
      <trkpt lat="41.649200" lon="2.542770">
        <ele>395.761</ele>
        <time>2021-05-26T09:23:37Z</time>
      </trkpt>
      <trkpt lat="41.649213" lon="2.542794">
        <ele>396.047</ele>
        <time>2021-05-26T09:23:38Z</time>
      </trkpt>
      <trkpt lat="41.649221" lon="2.542822">
        <ele>396.034</ele>
        <time>2021-05-26T09:23:39Z</time>
      </trkpt>
      <trkpt lat="41.649234" lon="2.542850">
        <ele>396.361</ele>
        <time>2021-05-26T09:23:40Z</time>
      </trkpt>
      <trkpt lat="41.649242" lon="2.542876">
        <ele>396.488</ele>
        <time>2021-05-26T09:23:41Z</time>
      </trkpt>
      <trkpt lat="41.649250" lon="2.542905">
        <ele>396.524</ele>
        <time>2021-05-26T09:23:42Z</time>
      </trkpt>
      <trkpt lat="41.649259" lon="2.542937">
        <ele>396.626</ele>
        <time>2021-05-26T09:23:43Z</time>
      </trkpt>
      <trkpt lat="41.649269" lon="2.542967">
        <ele>396.808</ele>
        <time>2021-05-26T09:23:44Z</time>
      </trkpt>
      <trkpt lat="41.649279" lon="2.542998">
        <ele>397.085</ele>
        <time>2021-05-26T09:23:45Z</time>
      </trkpt>
      <trkpt lat="41.649288" lon="2.543031">
        <ele>397.142</ele>
        <time>2021-05-26T09:23:46Z</time>
      </trkpt>
      <trkpt lat="41.649297" lon="2.543061">
        <ele>397.399</ele>
        <time>2021-05-26T09:23:47Z</time>
      </trkpt>
      <trkpt lat="41.649304" lon="2.543090">
        <ele>397.382</ele>
        <time>2021-05-26T09:23:48Z</time>
      </trkpt>
      <trkpt lat="41.649316" lon="2.543121">
        <ele>397.557</ele>
        <time>2021-05-26T09:23:49Z</time>
      </trkpt>
      <trkpt lat="41.649323" lon="2.543148">
        <ele>397.613</ele>
        <time>2021-05-26T09:23:50Z</time>
      </trkpt>
      <trkpt lat="41.649333" lon="2.543176">
        <ele>397.870</ele>
        <time>2021-05-26T09:23:51Z</time>
      </trkpt>
      <trkpt lat="41.649340" lon="2.543201">
        <ele>397.857</ele>
        <time>2021-05-26T09:23:52Z</time>
      </trkpt>
      <trkpt lat="41.649349" lon="2.543225">
        <ele>398.047</ele>
        <time>2021-05-26T09:23:53Z</time>
      </trkpt>
      <trkpt lat="41.649360" lon="2.543253">
        <ele>398.229</ele>
        <time>2021-05-26T09:23:54Z</time>
      </trkpt>
      <trkpt lat="41.649366" lon="2.543286">
        <ele>398.221</ele>
        <time>2021-05-26T09:23:55Z</time>
      </trkpt>
      <trkpt lat="41.649372" lon="2.543316">
        <ele>398.208</ele>
        <time>2021-05-26T09:23:56Z</time>
      </trkpt>
      <trkpt lat="41.649375" lon="2.543349">
        <ele>398.251</ele>
        <time>2021-05-26T09:23:57Z</time>
      </trkpt>
      <trkpt lat="41.649380" lon="2.543382">
        <ele>398.228</ele>
        <time>2021-05-26T09:23:58Z</time>
      </trkpt>
      <trkpt lat="41.649384" lon="2.543415">
        <ele>398.245</ele>
        <time>2021-05-26T09:23:59Z</time>
      </trkpt>
      <trkpt lat="41.649385" lon="2.543445">
        <ele>398.288</ele>
        <time>2021-05-26T09:24:00Z</time>
      </trkpt>
      <trkpt lat="41.649388" lon="2.543470">
        <ele>398.263</ele>
        <time>2021-05-26T09:24:01Z</time>
      </trkpt>
      <trkpt lat="41.649390" lon="2.543495">
        <ele>398.259</ele>
        <time>2021-05-26T09:24:02Z</time>
      </trkpt>
      <trkpt lat="41.649398" lon="2.543526">
        <ele>398.396</ele>
        <time>2021-05-26T09:24:03Z</time>
      </trkpt>
      <trkpt lat="41.649408" lon="2.543557">
        <ele>398.443</ele>
        <time>2021-05-26T09:24:04Z</time>
      </trkpt>
      <trkpt lat="41.649415" lon="2.543591">
        <ele>398.425</ele>
        <time>2021-05-26T09:24:05Z</time>
      </trkpt>
      <trkpt lat="41.649420" lon="2.543620">
        <ele>398.526</ele>
        <time>2021-05-26T09:24:06Z</time>
      </trkpt>
      <trkpt lat="41.649427" lon="2.543648">
        <ele>398.608</ele>
        <time>2021-05-26T09:24:07Z</time>
      </trkpt>
      <trkpt lat="41.649435" lon="2.543677">
        <ele>398.808</ele>
        <time>2021-05-26T09:24:08Z</time>
      </trkpt>
      <trkpt lat="41.649439" lon="2.543709">
        <ele>398.929</ele>
        <time>2021-05-26T09:24:09Z</time>
      </trkpt>
      <trkpt lat="41.649442" lon="2.543741">
        <ele>399.036</ele>
        <time>2021-05-26T09:24:10Z</time>
      </trkpt>
      <trkpt lat="41.649445" lon="2.543775">
        <ele>399.053</ele>
        <time>2021-05-26T09:24:11Z</time>
      </trkpt>
      <trkpt lat="41.649444" lon="2.543805">
        <ele>399.036</ele>
        <time>2021-05-26T09:24:12Z</time>
      </trkpt>
      <trkpt lat="41.649441" lon="2.543833">
        <ele>398.971</ele>
        <time>2021-05-26T09:24:13Z</time>
      </trkpt>
      <trkpt lat="41.649439" lon="2.543865">
        <ele>398.937</ele>
        <time>2021-05-26T09:24:14Z</time>
      </trkpt>
      <trkpt lat="41.649435" lon="2.543895">
        <ele>398.864</ele>
        <time>2021-05-26T09:24:15Z</time>
      </trkpt>
      <trkpt lat="41.649434" lon="2.543927">
        <ele>398.811</ele>
        <time>2021-05-26T09:24:16Z</time>
      </trkpt>
      <trkpt lat="41.649435" lon="2.543956">
        <ele>398.872</ele>
        <time>2021-05-26T09:24:17Z</time>
      </trkpt>
      <trkpt lat="41.649440" lon="2.543986">
        <ele>398.913</ele>
        <time>2021-05-26T09:24:18Z</time>
      </trkpt>
      <trkpt lat="41.649446" lon="2.544011">
        <ele>399.014</ele>
        <time>2021-05-26T09:24:19Z</time>
      </trkpt>
      <trkpt lat="41.649452" lon="2.544039">
        <ele>399.208</ele>
        <time>2021-05-26T09:24:20Z</time>
      </trkpt>
      <trkpt lat="41.649459" lon="2.544066">
        <ele>399.344</ele>
        <time>2021-05-26T09:24:21Z</time>
      </trkpt>
      <trkpt lat="41.649466" lon="2.544093">
        <ele>399.541</ele>
        <time>2021-05-26T09:24:22Z</time>
      </trkpt>
      <trkpt lat="41.649471" lon="2.544118">
        <ele>399.698</ele>
        <time>2021-05-26T09:24:23Z</time>
      </trkpt>
      <trkpt lat="41.649476" lon="2.544148">
        <ele>399.781</ele>
        <time>2021-05-26T09:24:24Z</time>
      </trkpt>
      <trkpt lat="41.649479" lon="2.544175">
        <ele>399.836</ele>
        <time>2021-05-26T09:24:25Z</time>
      </trkpt>
      <trkpt lat="41.649486" lon="2.544203">
        <ele>400.072</ele>
        <time>2021-05-26T09:24:26Z</time>
      </trkpt>
      <trkpt lat="41.649493" lon="2.544236">
        <ele>400.259</ele>
        <time>2021-05-26T09:24:27Z</time>
      </trkpt>
      <trkpt lat="41.649500" lon="2.544265">
        <ele>400.486</ele>
        <time>2021-05-26T09:24:28Z</time>
      </trkpt>
      <trkpt lat="41.649510" lon="2.544295">
        <ele>400.763</ele>
        <time>2021-05-26T09:24:29Z</time>
      </trkpt>
      <trkpt lat="41.649520" lon="2.544325">
        <ele>400.944</ele>
        <time>2021-05-26T09:24:30Z</time>
      </trkpt>
      <trkpt lat="41.649535" lon="2.544353">
        <ele>401.218</ele>
        <time>2021-05-26T09:24:31Z</time>
      </trkpt>
      <trkpt lat="41.649550" lon="2.544380">
        <ele>401.508</ele>
        <time>2021-05-26T09:24:32Z</time>
      </trkpt>
      <trkpt lat="41.649565" lon="2.544406">
        <ele>401.733</ele>
        <time>2021-05-26T09:24:33Z</time>
      </trkpt>
      <trkpt lat="41.649575" lon="2.544432">
        <ele>401.970</ele>
        <time>2021-05-26T09:24:34Z</time>
      </trkpt>
      <trkpt lat="41.649587" lon="2.544453">
        <ele>402.037</ele>
        <time>2021-05-26T09:24:35Z</time>
      </trkpt>
      <trkpt lat="41.649613" lon="2.544490">
        <ele>402.180</ele>
        <time>2021-05-26T09:24:37Z</time>
      </trkpt>
      <trkpt lat="41.649628" lon="2.544512">
        <ele>402.285</ele>
        <time>2021-05-26T09:24:38Z</time>
      </trkpt>
      <trkpt lat="41.649641" lon="2.544534">
        <ele>402.291</ele>
        <time>2021-05-26T09:24:39Z</time>
      </trkpt>
      <trkpt lat="41.649653" lon="2.544555">
        <ele>402.298</ele>
        <time>2021-05-26T09:24:40Z</time>
      </trkpt>
      <trkpt lat="41.649667" lon="2.544578">
        <ele>402.255</ele>
        <time>2021-05-26T09:24:41Z</time>
      </trkpt>
      <trkpt lat="41.649683" lon="2.544597">
        <ele>402.383</ele>
        <time>2021-05-26T09:24:42Z</time>
      </trkpt>
      <trkpt lat="41.649701" lon="2.544618">
        <ele>402.425</ele>
        <time>2021-05-26T09:24:43Z</time>
      </trkpt>
      <trkpt lat="41.649717" lon="2.544637">
        <ele>402.517</ele>
        <time>2021-05-26T09:24:44Z</time>
      </trkpt>
      <trkpt lat="41.649736" lon="2.544656">
        <ele>402.608</ele>
        <time>2021-05-26T09:24:45Z</time>
      </trkpt>
      <trkpt lat="41.649754" lon="2.544673">
        <ele>402.765</ele>
        <time>2021-05-26T09:24:46Z</time>
      </trkpt>
      <trkpt lat="41.649778" lon="2.544688">
        <ele>402.912</ele>
        <time>2021-05-26T09:24:47Z</time>
      </trkpt>
      <trkpt lat="41.649799" lon="2.544700">
        <ele>403.029</ele>
        <time>2021-05-26T09:24:48Z</time>
      </trkpt>
      <trkpt lat="41.649820" lon="2.544709">
        <ele>403.222</ele>
        <time>2021-05-26T09:24:49Z</time>
      </trkpt>
      <trkpt lat="41.649841" lon="2.544711">
        <ele>403.467</ele>
        <time>2021-05-26T09:24:50Z</time>
      </trkpt>
      <trkpt lat="41.649877" lon="2.544705">
        <ele>403.893</ele>
        <time>2021-05-26T09:24:52Z</time>
      </trkpt>
      <trkpt lat="41.649913" lon="2.544694">
        <ele>404.360</ele>
        <time>2021-05-26T09:24:54Z</time>
      </trkpt>
      <trkpt lat="41.649934" lon="2.544691">
        <ele>404.617</ele>
        <time>2021-05-26T09:24:55Z</time>
      </trkpt>
      <trkpt lat="41.649971" lon="2.544683">
        <ele>405.177</ele>
        <time>2021-05-26T09:24:57Z</time>
      </trkpt>
      <trkpt lat="41.649988" lon="2.544676">
        <ele>405.461</ele>
        <time>2021-05-26T09:24:58Z</time>
      </trkpt>
      <trkpt lat="41.650023" lon="2.544660">
        <ele>405.827</ele>
        <time>2021-05-26T09:25:00Z</time>
      </trkpt>
      <trkpt lat="41.650041" lon="2.544653">
        <ele>405.908</ele>
        <time>2021-05-26T09:25:01Z</time>
      </trkpt>
      <trkpt lat="41.650060" lon="2.544647">
        <ele>406.194</ele>
        <time>2021-05-26T09:25:02Z</time>
      </trkpt>
      <trkpt lat="41.650083" lon="2.544637">
        <ele>406.331</ele>
        <time>2021-05-26T09:25:03Z</time>
      </trkpt>
      <trkpt lat="41.650105" lon="2.544632">
        <ele>406.588</ele>
        <time>2021-05-26T09:25:04Z</time>
      </trkpt>
      <trkpt lat="41.650125" lon="2.544630">
        <ele>406.661</ele>
        <time>2021-05-26T09:25:05Z</time>
      </trkpt>
      <trkpt lat="41.650163" lon="2.544628">
        <ele>406.896</ele>
        <time>2021-05-26T09:25:07Z</time>
      </trkpt>
      <trkpt lat="41.650184" lon="2.544629">
        <ele>406.952</ele>
        <time>2021-05-26T09:25:08Z</time>
      </trkpt>
      <trkpt lat="41.650206" lon="2.544629">
        <ele>407.019</ele>
        <time>2021-05-26T09:25:09Z</time>
      </trkpt>
      <trkpt lat="41.650231" lon="2.544631">
        <ele>407.156</ele>
        <time>2021-05-26T09:25:10Z</time>
      </trkpt>
      <trkpt lat="41.650253" lon="2.544636">
        <ele>407.118</ele>
        <time>2021-05-26T09:25:11Z</time>
      </trkpt>
      <trkpt lat="41.650274" lon="2.544638">
        <ele>407.298</ele>
        <time>2021-05-26T09:25:12Z</time>
      </trkpt>
      <trkpt lat="41.650296" lon="2.544640">
        <ele>407.417</ele>
        <time>2021-05-26T09:25:13Z</time>
      </trkpt>
      <trkpt lat="41.650336" lon="2.544644">
        <ele>407.808</ele>
        <time>2021-05-26T09:25:15Z</time>
      </trkpt>
      <trkpt lat="41.650362" lon="2.544649">
        <ele>408.038</ele>
        <time>2021-05-26T09:25:16Z</time>
      </trkpt>
      <trkpt lat="41.650384" lon="2.544652">
        <ele>408.325</ele>
        <time>2021-05-26T09:25:17Z</time>
      </trkpt>
      <trkpt lat="41.650423" lon="2.544661">
        <ele>408.642</ele>
        <time>2021-05-26T09:25:19Z</time>
      </trkpt>
      <trkpt lat="41.650446" lon="2.544667">
        <ele>408.755</ele>
        <time>2021-05-26T09:25:20Z</time>
      </trkpt>
      <trkpt lat="41.650474" lon="2.544677">
        <ele>408.970</ele>
        <time>2021-05-26T09:25:21Z</time>
      </trkpt>
      <trkpt lat="41.650499" lon="2.544683">
        <ele>409.176</ele>
        <time>2021-05-26T09:25:22Z</time>
      </trkpt>
      <trkpt lat="41.650516" lon="2.544691">
        <ele>409.143</ele>
        <time>2021-05-26T09:25:23Z</time>
      </trkpt>
      <trkpt lat="41.650552" lon="2.544709">
        <ele>409.240</ele>
        <time>2021-05-26T09:25:25Z</time>
      </trkpt>
      <trkpt lat="41.650571" lon="2.544718">
        <ele>409.426</ele>
        <time>2021-05-26T09:25:26Z</time>
      </trkpt>
      <trkpt lat="41.650594" lon="2.544728">
        <ele>409.747</ele>
        <time>2021-05-26T09:25:27Z</time>
      </trkpt>
      <trkpt lat="41.650615" lon="2.544737">
        <ele>410.011</ele>
        <time>2021-05-26T09:25:28Z</time>
      </trkpt>
      <trkpt lat="41.650631" lon="2.544749">
        <ele>410.108</ele>
        <time>2021-05-26T09:25:29Z</time>
      </trkpt>
      <trkpt lat="41.650651" lon="2.544761">
        <ele>410.399</ele>
        <time>2021-05-26T09:25:30Z</time>
      </trkpt>
      <trkpt lat="41.650684" lon="2.544786">
        <ele>410.516</ele>
        <time>2021-05-26T09:25:32Z</time>
      </trkpt>
      <trkpt lat="41.650699" lon="2.544799">
        <ele>410.613</ele>
        <time>2021-05-26T09:25:33Z</time>
      </trkpt>
      <trkpt lat="41.650727" lon="2.544825">
        <ele>410.656</ele>
        <time>2021-05-26T09:25:35Z</time>
      </trkpt>
      <trkpt lat="41.650744" lon="2.544837">
        <ele>410.731</ele>
        <time>2021-05-26T09:25:36Z</time>
      </trkpt>
      <trkpt lat="41.650761" lon="2.544850">
        <ele>410.837</ele>
        <time>2021-05-26T09:25:37Z</time>
      </trkpt>
      <trkpt lat="41.650779" lon="2.544870">
        <ele>410.734</ele>
        <time>2021-05-26T09:25:38Z</time>
      </trkpt>
      <trkpt lat="41.650796" lon="2.544888">
        <ele>410.771</ele>
        <time>2021-05-26T09:25:39Z</time>
      </trkpt>
      <trkpt lat="41.650812" lon="2.544908">
        <ele>410.665</ele>
        <time>2021-05-26T09:25:40Z</time>
      </trkpt>
      <trkpt lat="41.650826" lon="2.544929">
        <ele>410.468</ele>
        <time>2021-05-26T09:25:41Z</time>
      </trkpt>
      <trkpt lat="41.650842" lon="2.544951">
        <ele>410.214</ele>
        <time>2021-05-26T09:25:42Z</time>
      </trkpt>
      <trkpt lat="41.650857" lon="2.544972">
        <ele>410.008</ele>
        <time>2021-05-26T09:25:43Z</time>
      </trkpt>
      <trkpt lat="41.650871" lon="2.544994">
        <ele>409.883</ele>
        <time>2021-05-26T09:25:44Z</time>
      </trkpt>
      <trkpt lat="41.650888" lon="2.545018">
        <ele>409.610</ele>
        <time>2021-05-26T09:25:45Z</time>
      </trkpt>
      <trkpt lat="41.650906" lon="2.545032">
        <ele>409.677</ele>
        <time>2021-05-26T09:25:46Z</time>
      </trkpt>
      <trkpt lat="41.650926" lon="2.545042">
        <ele>409.780</ele>
        <time>2021-05-26T09:25:47Z</time>
      </trkpt>
      <trkpt lat="41.650949" lon="2.545048">
        <ele>410.095</ele>
        <time>2021-05-26T09:25:48Z</time>
      </trkpt>
      <trkpt lat="41.650971" lon="2.545052">
        <ele>410.311</ele>
        <time>2021-05-26T09:25:49Z</time>
      </trkpt>
      <trkpt lat="41.650994" lon="2.545050">
        <ele>410.778</ele>
        <time>2021-05-26T09:25:50Z</time>
      </trkpt>
      <trkpt lat="41.651018" lon="2.545047">
        <ele>411.285</ele>
        <time>2021-05-26T09:25:51Z</time>
      </trkpt>
      <trkpt lat="41.651040" lon="2.545043">
        <ele>411.736</ele>
        <time>2021-05-26T09:25:52Z</time>
      </trkpt>
      <trkpt lat="41.651060" lon="2.545042">
        <ele>412.017</ele>
        <time>2021-05-26T09:25:53Z</time>
      </trkpt>
      <trkpt lat="41.651094" lon="2.545032">
        <ele>412.918</ele>
        <time>2021-05-26T09:25:55Z</time>
      </trkpt>
      <trkpt lat="41.651113" lon="2.545020">
        <ele>413.508</ele>
        <time>2021-05-26T09:25:56Z</time>
      </trkpt>
      <trkpt lat="41.651148" lon="2.545000">
        <ele>414.380</ele>
        <time>2021-05-26T09:25:58Z</time>
      </trkpt>
      <trkpt lat="41.651167" lon="2.544992">
        <ele>414.677</ele>
        <time>2021-05-26T09:25:59Z</time>
      </trkpt>
      <trkpt lat="41.651186" lon="2.544986">
        <ele>414.934</ele>
        <time>2021-05-26T09:26:00Z</time>
      </trkpt>
      <trkpt lat="41.651205" lon="2.544973">
        <ele>415.377</ele>
        <time>2021-05-26T09:26:01Z</time>
      </trkpt>
      <trkpt lat="41.651221" lon="2.544960">
        <ele>415.762</ele>
        <time>2021-05-26T09:26:02Z</time>
      </trkpt>
      <trkpt lat="41.651238" lon="2.544949">
        <ele>416.138</ele>
        <time>2021-05-26T09:26:03Z</time>
      </trkpt>
      <trkpt lat="41.651256" lon="2.544941">
        <ele>416.475</ele>
        <time>2021-05-26T09:26:04Z</time>
      </trkpt>
      <trkpt lat="41.651288" lon="2.544930">
        <ele>416.982</ele>
        <time>2021-05-26T09:26:06Z</time>
      </trkpt>
      <trkpt lat="41.651306" lon="2.544921">
        <ele>417.366</ele>
        <time>2021-05-26T09:26:07Z</time>
      </trkpt>
      <trkpt lat="41.651325" lon="2.544919">
        <ele>417.529</ele>
        <time>2021-05-26T09:26:08Z</time>
      </trkpt>
      <trkpt lat="41.651348" lon="2.544918">
        <ele>417.721</ele>
        <time>2021-05-26T09:26:09Z</time>
      </trkpt>
      <trkpt lat="41.651367" lon="2.544917">
        <ele>417.908</ele>
        <time>2021-05-26T09:26:10Z</time>
      </trkpt>
      <trkpt lat="41.651400" lon="2.544920">
        <ele>418.193</ele>
        <time>2021-05-26T09:26:12Z</time>
      </trkpt>
      <trkpt lat="41.651434" lon="2.544928">
        <ele>418.050</ele>
        <time>2021-05-26T09:26:14Z</time>
      </trkpt>
      <trkpt lat="41.651454" lon="2.544930">
        <ele>418.077</ele>
        <time>2021-05-26T09:26:15Z</time>
      </trkpt>
      <trkpt lat="41.651481" lon="2.544939">
        <ele>417.990</ele>
        <time>2021-05-26T09:26:17Z</time>
      </trkpt>
      <trkpt lat="41.651510" lon="2.544946">
        <ele>417.865</ele>
        <time>2021-05-26T09:26:19Z</time>
      </trkpt>
      <trkpt lat="41.651537" lon="2.544949">
        <ele>417.841</ele>
        <time>2021-05-26T09:26:21Z</time>
      </trkpt>
      <trkpt lat="41.651568" lon="2.544949">
        <ele>417.958</ele>
        <time>2021-05-26T09:26:23Z</time>
      </trkpt>
      <trkpt lat="41.651600" lon="2.544948">
        <ele>418.155</ele>
        <time>2021-05-26T09:26:25Z</time>
      </trkpt>
      <trkpt lat="41.651619" lon="2.544948">
        <ele>418.128</ele>
        <time>2021-05-26T09:26:26Z</time>
      </trkpt>
      <trkpt lat="41.651639" lon="2.544944">
        <ele>418.389</ele>
        <time>2021-05-26T09:26:27Z</time>
      </trkpt>
      <trkpt lat="41.651672" lon="2.544927">
        <ele>418.917</ele>
        <time>2021-05-26T09:26:29Z</time>
      </trkpt>
      <trkpt lat="41.651729" lon="2.544881">
        <ele>420.208</ele>
        <time>2021-05-26T09:26:33Z</time>
      </trkpt>
      <trkpt lat="41.651756" lon="2.544854">
        <ele>421.089</ele>
        <time>2021-05-26T09:26:35Z</time>
      </trkpt>
      <trkpt lat="41.651780" lon="2.544828">
        <ele>421.736</ele>
        <time>2021-05-26T09:26:37Z</time>
      </trkpt>
      <trkpt lat="41.651807" lon="2.544801">
        <ele>422.543</ele>
        <time>2021-05-26T09:26:39Z</time>
      </trkpt>
      <trkpt lat="41.651831" lon="2.544781">
        <ele>423.166</ele>
        <time>2021-05-26T09:26:41Z</time>
      </trkpt>
      <trkpt lat="41.651860" lon="2.544746">
        <ele>424.171</ele>
        <time>2021-05-26T09:26:43Z</time>
      </trkpt>
      <trkpt lat="41.651877" lon="2.544719">
        <ele>424.837</ele>
        <time>2021-05-26T09:26:46Z</time>
      </trkpt>
      <trkpt lat="41.651893" lon="2.544698">
        <ele>425.324</ele>
        <time>2021-05-26T09:26:48Z</time>
      </trkpt>
      <trkpt lat="41.651913" lon="2.544678">
        <ele>425.791</ele>
        <time>2021-05-26T09:26:50Z</time>
      </trkpt>
      <trkpt lat="41.651944" lon="2.544663">
        <ele>426.166</ele>
        <time>2021-05-26T09:26:53Z</time>
      </trkpt>
      <trkpt lat="41.651976" lon="2.544659">
        <ele>426.129</ele>
        <time>2021-05-26T09:26:55Z</time>
      </trkpt>
      <trkpt lat="41.651994" lon="2.544653">
        <ele>426.121</ele>
        <time>2021-05-26T09:26:56Z</time>
      </trkpt>
      <trkpt lat="41.652018" lon="2.544627">
        <ele>426.508</ele>
        <time>2021-05-26T09:26:58Z</time>
      </trkpt>
      <trkpt lat="41.652040" lon="2.544608">
        <ele>426.933</ele>
        <time>2021-05-26T09:27:00Z</time>
      </trkpt>
      <trkpt lat="41.652062" lon="2.544590">
        <ele>427.230</ele>
        <time>2021-05-26T09:27:02Z</time>
      </trkpt>
      <trkpt lat="41.652104" lon="2.544562">
        <ele>427.687</ele>
        <time>2021-05-26T09:27:06Z</time>
      </trkpt>
      <trkpt lat="41.652136" lon="2.544544">
        <ele>428.080</ele>
        <time>2021-05-26T09:27:09Z</time>
      </trkpt>
      <trkpt lat="41.652164" lon="2.544530">
        <ele>428.215</ele>
        <time>2021-05-26T09:27:11Z</time>
      </trkpt>
      <trkpt lat="41.652192" lon="2.544522">
        <ele>428.461</ele>
        <time>2021-05-26T09:27:13Z</time>
      </trkpt>
      <trkpt lat="41.652213" lon="2.544509">
        <ele>428.638</ele>
        <time>2021-05-26T09:27:15Z</time>
      </trkpt>
      <trkpt lat="41.652237" lon="2.544496">
        <ele>428.965</ele>
        <time>2021-05-26T09:27:17Z</time>
      </trkpt>
      <trkpt lat="41.652269" lon="2.544490">
        <ele>429.114</ele>
        <time>2021-05-26T09:27:19Z</time>
      </trkpt>
      <trkpt lat="41.652299" lon="2.544484">
        <ele>429.354</ele>
        <time>2021-05-26T09:27:21Z</time>
      </trkpt>
      <trkpt lat="41.652326" lon="2.544475">
        <ele>429.509</ele>
        <time>2021-05-26T09:27:23Z</time>
      </trkpt>
      <trkpt lat="41.652355" lon="2.544458">
        <ele>429.808</ele>
        <time>2021-05-26T09:27:25Z</time>
      </trkpt>
      <trkpt lat="41.652387" lon="2.544442">
        <ele>430.098</ele>
        <time>2021-05-26T09:27:27Z</time>
      </trkpt>
      <trkpt lat="41.652421" lon="2.544433">
        <ele>429.995</ele>
        <time>2021-05-26T09:27:29Z</time>
      </trkpt>
      <trkpt lat="41.652441" lon="2.544433">
        <ele>429.992</ele>
        <time>2021-05-26T09:27:30Z</time>
      </trkpt>
      <trkpt lat="41.652461" lon="2.544431">
        <ele>429.985</ele>
        <time>2021-05-26T09:27:31Z</time>
      </trkpt>
      <trkpt lat="41.652481" lon="2.544426">
        <ele>429.940</ele>
        <time>2021-05-26T09:27:32Z</time>
      </trkpt>
      <trkpt lat="41.652507" lon="2.544426">
        <ele>430.066</ele>
        <time>2021-05-26T09:27:33Z</time>
      </trkpt>
      <trkpt lat="41.652533" lon="2.544427">
        <ele>430.343</ele>
        <time>2021-05-26T09:27:34Z</time>
      </trkpt>
      <trkpt lat="41.652556" lon="2.544425">
        <ele>430.730</ele>
        <time>2021-05-26T09:27:35Z</time>
      </trkpt>
      <trkpt lat="41.652579" lon="2.544424">
        <ele>431.069</ele>
        <time>2021-05-26T09:27:36Z</time>
      </trkpt>
      <trkpt lat="41.652600" lon="2.544424">
        <ele>431.304</ele>
        <time>2021-05-26T09:27:37Z</time>
      </trkpt>
      <trkpt lat="41.652624" lon="2.544424">
        <ele>431.624</ele>
        <time>2021-05-26T09:27:38Z</time>
      </trkpt>
      <trkpt lat="41.652644" lon="2.544426">
        <ele>431.908</ele>
        <time>2021-05-26T09:27:39Z</time>
      </trkpt>
      <trkpt lat="41.652665" lon="2.544428">
        <ele>432.253</ele>
        <time>2021-05-26T09:27:40Z</time>
      </trkpt>
      <trkpt lat="41.652685" lon="2.544429">
        <ele>432.520</ele>
        <time>2021-05-26T09:27:41Z</time>
      </trkpt>
      <trkpt lat="41.652704" lon="2.544428">
        <ele>432.897</ele>
        <time>2021-05-26T09:27:42Z</time>
      </trkpt>
      <trkpt lat="41.652725" lon="2.544431">
        <ele>433.180</ele>
        <time>2021-05-26T09:27:43Z</time>
      </trkpt>
      <trkpt lat="41.652744" lon="2.544431">
        <ele>433.415</ele>
        <time>2021-05-26T09:27:44Z</time>
      </trkpt>
      <trkpt lat="41.652763" lon="2.544428">
        <ele>433.621</ele>
        <time>2021-05-26T09:27:45Z</time>
      </trkpt>
      <trkpt lat="41.652786" lon="2.544427">
        <ele>434.078</ele>
        <time>2021-05-26T09:27:46Z</time>
      </trkpt>
      <trkpt lat="41.652805" lon="2.544427">
        <ele>434.325</ele>
        <time>2021-05-26T09:27:47Z</time>
      </trkpt>
      <trkpt lat="41.652827" lon="2.544427">
        <ele>434.737</ele>
        <time>2021-05-26T09:27:48Z</time>
      </trkpt>
      <trkpt lat="41.652861" lon="2.544423">
        <ele>435.249</ele>
        <time>2021-05-26T09:27:50Z</time>
      </trkpt>
      <trkpt lat="41.652886" lon="2.544419">
        <ele>435.613</ele>
        <time>2021-05-26T09:27:51Z</time>
      </trkpt>
      <trkpt lat="41.652907" lon="2.544414">
        <ele>435.908</ele>
        <time>2021-05-26T09:27:52Z</time>
      </trkpt>
      <trkpt lat="41.652930" lon="2.544409">
        <ele>436.370</ele>
        <time>2021-05-26T09:27:53Z</time>
      </trkpt>
      <trkpt lat="41.652950" lon="2.544404">
        <ele>436.677</ele>
        <time>2021-05-26T09:27:54Z</time>
      </trkpt>
      <trkpt lat="41.652973" lon="2.544402">
        <ele>436.944</ele>
        <time>2021-05-26T09:27:55Z</time>
      </trkpt>
      <trkpt lat="41.652992" lon="2.544403">
        <ele>437.337</ele>
        <time>2021-05-26T09:27:56Z</time>
      </trkpt>
      <trkpt lat="41.653012" lon="2.544399">
        <ele>437.672</ele>
        <time>2021-05-26T09:27:57Z</time>
      </trkpt>
      <trkpt lat="41.653034" lon="2.544397">
        <ele>437.988</ele>
        <time>2021-05-26T09:27:58Z</time>
      </trkpt>
      <trkpt lat="41.653054" lon="2.544396">
        <ele>438.355</ele>
        <time>2021-05-26T09:27:59Z</time>
      </trkpt>
      <trkpt lat="41.653074" lon="2.544394">
        <ele>438.532</ele>
        <time>2021-05-26T09:28:00Z</time>
      </trkpt>
      <trkpt lat="41.653092" lon="2.544386">
        <ele>438.611</ele>
        <time>2021-05-26T09:28:01Z</time>
      </trkpt>
      <trkpt lat="41.653113" lon="2.544382">
        <ele>438.821</ele>
        <time>2021-05-26T09:28:02Z</time>
      </trkpt>
      <trkpt lat="41.653137" lon="2.544379">
        <ele>439.003</ele>
        <time>2021-05-26T09:28:03Z</time>
      </trkpt>
      <trkpt lat="41.653157" lon="2.544373">
        <ele>439.208</ele>
        <time>2021-05-26T09:28:04Z</time>
      </trkpt>
      <trkpt lat="41.653195" lon="2.544364">
        <ele>439.538</ele>
        <time>2021-05-26T09:28:06Z</time>
      </trkpt>
      <trkpt lat="41.653217" lon="2.544357">
        <ele>439.725</ele>
        <time>2021-05-26T09:28:07Z</time>
      </trkpt>
      <trkpt lat="41.653238" lon="2.544345">
        <ele>439.872</ele>
        <time>2021-05-26T09:28:08Z</time>
      </trkpt>
      <trkpt lat="41.653264" lon="2.544329">
        <ele>439.955</ele>
        <time>2021-05-26T09:28:10Z</time>
      </trkpt>
      <trkpt lat="41.653284" lon="2.544326">
        <ele>440.150</ele>
        <time>2021-05-26T09:28:12Z</time>
      </trkpt>
      <trkpt lat="41.653307" lon="2.544331">
        <ele>440.536</ele>
        <time>2021-05-26T09:28:14Z</time>
      </trkpt>
      <trkpt lat="41.653329" lon="2.544339">
        <ele>440.893</ele>
        <time>2021-05-26T09:28:16Z</time>
      </trkpt>
      <trkpt lat="41.653354" lon="2.544343">
        <ele>441.030</ele>
        <time>2021-05-26T09:28:18Z</time>
      </trkpt>
      <trkpt lat="41.653380" lon="2.544354">
        <ele>441.378</ele>
        <time>2021-05-26T09:28:20Z</time>
      </trkpt>
      <trkpt lat="41.653408" lon="2.544366">
        <ele>441.633</ele>
        <time>2021-05-26T09:28:22Z</time>
      </trkpt>
      <trkpt lat="41.653433" lon="2.544377">
        <ele>441.826</ele>
        <time>2021-05-26T09:28:24Z</time>
      </trkpt>
      <trkpt lat="41.653455" lon="2.544396">
        <ele>442.108</ele>
        <time>2021-05-26T09:28:26Z</time>
      </trkpt>
      <trkpt lat="41.653479" lon="2.544415">
        <ele>442.364</ele>
        <time>2021-05-26T09:28:28Z</time>
      </trkpt>
      <trkpt lat="41.653491" lon="2.544434">
        <ele>442.561</ele>
        <time>2021-05-26T09:28:30Z</time>
      </trkpt>
      <trkpt lat="41.653517" lon="2.544447">
        <ele>442.788</ele>
        <time>2021-05-26T09:28:32Z</time>
      </trkpt>
      <trkpt lat="41.653539" lon="2.544456">
        <ele>442.821</ele>
        <time>2021-05-26T09:28:34Z</time>
      </trkpt>
      <trkpt lat="41.653570" lon="2.544472">
        <ele>443.126</ele>
        <time>2021-05-26T09:28:36Z</time>
      </trkpt>
      <trkpt lat="41.653596" lon="2.544491">
        <ele>443.432</ele>
        <time>2021-05-26T09:28:38Z</time>
      </trkpt>
      <trkpt lat="41.653616" lon="2.544526">
        <ele>444.029</ele>
        <time>2021-05-26T09:28:40Z</time>
      </trkpt>
      <trkpt lat="41.653632" lon="2.544547">
        <ele>444.676</ele>
        <time>2021-05-26T09:28:42Z</time>
      </trkpt>
      <trkpt lat="41.653656" lon="2.544577">
        <ele>445.429</ele>
        <time>2021-05-26T09:28:44Z</time>
      </trkpt>
      <trkpt lat="41.653682" lon="2.544602">
        <ele>446.200</ele>
        <time>2021-05-26T09:28:46Z</time>
      </trkpt>
      <trkpt lat="41.653708" lon="2.544625">
        <ele>446.920</ele>
        <time>2021-05-26T09:28:48Z</time>
      </trkpt>
      <trkpt lat="41.653730" lon="2.544638">
        <ele>447.508</ele>
        <time>2021-05-26T09:28:49Z</time>
      </trkpt>
      <trkpt lat="41.653751" lon="2.544647">
        <ele>448.019</ele>
        <time>2021-05-26T09:28:52Z</time>
      </trkpt>
      <trkpt lat="41.653852" lon="2.544642">
        <ele>450.036</ele>
        <time>2021-05-26T09:28:58Z</time>
      </trkpt>
      <trkpt lat="41.653948" lon="2.544684">
        <ele>452.463</ele>
        <time>2021-05-26T09:29:06Z</time>
      </trkpt>
      <trkpt lat="41.654038" lon="2.544735">
        <ele>454.756</ele>
        <time>2021-05-26T09:29:13Z</time>
      </trkpt>
      <trkpt lat="41.654120" lon="2.544803">
        <ele>456.581</ele>
        <time>2021-05-26T09:29:23Z</time>
      </trkpt>
      <trkpt lat="41.654212" lon="2.544849">
        <ele>458.797</ele>
        <time>2021-05-26T09:29:32Z</time>
      </trkpt>
      <trkpt lat="41.654265" lon="2.544875">
        <ele>459.914</ele>
        <time>2021-05-26T09:29:37Z</time>
      </trkpt>
      <trkpt lat="41.654285" lon="2.544879">
        <ele>460.421</ele>
        <time>2021-05-26T09:29:39Z</time>
      </trkpt>
      <trkpt lat="41.654299" lon="2.544894">
        <ele>460.752</ele>
        <time>2021-05-26T09:29:41Z</time>
      </trkpt>
      <trkpt lat="41.654311" lon="2.544916">
        <ele>460.953</ele>
        <time>2021-05-26T09:29:43Z</time>
      </trkpt>
      <trkpt lat="41.654333" lon="2.544922">
        <ele>461.508</ele>
        <time>2021-05-26T09:29:45Z</time>
      </trkpt>
      <trkpt lat="41.654376" lon="2.544955">
        <ele>462.408</ele>
        <time>2021-05-26T09:29:49Z</time>
      </trkpt>
      <trkpt lat="41.654404" lon="2.544966">
        <ele>463.192</ele>
        <time>2021-05-26T09:29:51Z</time>
      </trkpt>
      <trkpt lat="41.654492" lon="2.545003">
        <ele>465.049</ele>
        <time>2021-05-26T09:29:58Z</time>
      </trkpt>
      <trkpt lat="41.654582" lon="2.545047">
        <ele>466.326</ele>
        <time>2021-05-26T09:30:07Z</time>
      </trkpt>
      <trkpt lat="41.654672" lon="2.545099">
        <ele>467.729</ele>
        <time>2021-05-26T09:30:16Z</time>
      </trkpt>
      <trkpt lat="41.654700" lon="2.545098">
        <ele>468.474</ele>
        <time>2021-05-26T09:30:18Z</time>
      </trkpt>
      <trkpt lat="41.654722" lon="2.545100">
        <ele>468.960</ele>
        <time>2021-05-26T09:30:20Z</time>
      </trkpt>
      <trkpt lat="41.654743" lon="2.545109">
        <ele>469.467</ele>
        <time>2021-05-26T09:30:22Z</time>
      </trkpt>
      <trkpt lat="41.654760" lon="2.545126">
        <ele>469.724</ele>
        <time>2021-05-26T09:30:25Z</time>
      </trkpt>
      <trkpt lat="41.654788" lon="2.545125">
        <ele>470.418</ele>
        <time>2021-05-26T09:30:28Z</time>
      </trkpt>
      <trkpt lat="41.654810" lon="2.545128">
        <ele>471.098</ele>
        <time>2021-05-26T09:30:30Z</time>
      </trkpt>
      <trkpt lat="41.654860" lon="2.545117">
        <ele>472.417</ele>
        <time>2021-05-26T09:30:34Z</time>
      </trkpt>
      <trkpt lat="41.654885" lon="2.545124">
        <ele>473.008</ele>
        <time>2021-05-26T09:30:36Z</time>
      </trkpt>
      <trkpt lat="41.654910" lon="2.545127">
        <ele>473.748</ele>
        <time>2021-05-26T09:30:38Z</time>
      </trkpt>
      <trkpt lat="41.654937" lon="2.545132">
        <ele>474.475</ele>
        <time>2021-05-26T09:30:40Z</time>
      </trkpt>
      <trkpt lat="41.654962" lon="2.545140">
        <ele>475.062</ele>
        <time>2021-05-26T09:30:42Z</time>
      </trkpt>
      <trkpt lat="41.655057" lon="2.545127">
        <ele>477.585</ele>
        <time>2021-05-26T09:30:50Z</time>
      </trkpt>
      <trkpt lat="41.655145" lon="2.545097">
        <ele>480.040</ele>
        <time>2021-05-26T09:30:56Z</time>
      </trkpt>
      <trkpt lat="41.655239" lon="2.545052">
        <ele>482.636</ele>
        <time>2021-05-26T09:31:03Z</time>
      </trkpt>
      <trkpt lat="41.655335" lon="2.545040">
        <ele>485.013</ele>
        <time>2021-05-26T09:31:09Z</time>
      </trkpt>
      <trkpt lat="41.655383" lon="2.545040">
        <ele>486.130</ele>
        <time>2021-05-26T09:31:13Z</time>
      </trkpt>
      <trkpt lat="41.655407" lon="2.545040">
        <ele>486.649</ele>
        <time>2021-05-26T09:31:15Z</time>
      </trkpt>
      <trkpt lat="41.655433" lon="2.545050">
        <ele>487.202</ele>
        <time>2021-05-26T09:31:17Z</time>
      </trkpt>
      <trkpt lat="41.655451" lon="2.545067">
        <ele>487.622</ele>
        <time>2021-05-26T09:31:19Z</time>
      </trkpt>
      <trkpt lat="41.655478" lon="2.545096">
        <ele>488.108</ele>
        <time>2021-05-26T09:31:22Z</time>
      </trkpt>
      <trkpt lat="41.655489" lon="2.545118">
        <ele>488.491</ele>
        <time>2021-05-26T09:31:24Z</time>
      </trkpt>
      <trkpt lat="41.655499" lon="2.545142">
        <ele>488.668</ele>
        <time>2021-05-26T09:31:26Z</time>
      </trkpt>
      <trkpt lat="41.655502" lon="2.545175">
        <ele>488.645</ele>
        <time>2021-05-26T09:31:28Z</time>
      </trkpt>
      <trkpt lat="41.655527" lon="2.545296">
        <ele>489.148</ele>
        <time>2021-05-26T09:31:35Z</time>
      </trkpt>
      <trkpt lat="41.655552" lon="2.545325">
        <ele>489.783</ele>
        <time>2021-05-26T09:31:38Z</time>
      </trkpt>
      <trkpt lat="41.655571" lon="2.545379">
        <ele>490.049</ele>
        <time>2021-05-26T09:31:42Z</time>
      </trkpt>
      <trkpt lat="41.655615" lon="2.545425">
        <ele>490.926</ele>
        <time>2021-05-26T09:31:46Z</time>
      </trkpt>
      <trkpt lat="41.655653" lon="2.545464">
        <ele>491.643</ele>
        <time>2021-05-26T09:31:49Z</time>
      </trkpt>
      <trkpt lat="41.655738" lon="2.545521">
        <ele>493.149</ele>
        <time>2021-05-26T09:31:56Z</time>
      </trkpt>
      <trkpt lat="41.655825" lon="2.545582">
        <ele>494.302</ele>
        <time>2021-05-26T09:32:03Z</time>
      </trkpt>
      <trkpt lat="41.655917" lon="2.545621">
        <ele>493.722</ele>
        <time>2021-05-26T09:32:10Z</time>
      </trkpt>
      <trkpt lat="41.656013" lon="2.545660">
        <ele>492.908</ele>
        <time>2021-05-26T09:32:17Z</time>
      </trkpt>
      <trkpt lat="41.656114" lon="2.545676">
        <ele>492.551</ele>
        <time>2021-05-26T09:32:24Z</time>
      </trkpt>
      <trkpt lat="41.656219" lon="2.545655">
        <ele>492.288</ele>
        <time>2021-05-26T09:32:32Z</time>
      </trkpt>
      <trkpt lat="41.656314" lon="2.545654">
        <ele>491.535</ele>
        <time>2021-05-26T09:32:39Z</time>
      </trkpt>
      <trkpt lat="41.656421" lon="2.545650">
        <ele>490.878</ele>
        <time>2021-05-26T09:32:46Z</time>
      </trkpt>
      <trkpt lat="41.656521" lon="2.545657">
        <ele>490.433</ele>
        <time>2021-05-26T09:32:50Z</time>
      </trkpt>
      <trkpt lat="41.656623" lon="2.545681">
        <ele>489.789</ele>
        <time>2021-05-26T09:32:54Z</time>
      </trkpt>
      <trkpt lat="41.656730" lon="2.545706">
        <ele>489.976</ele>
        <time>2021-05-26T09:32:59Z</time>
      </trkpt>
      <trkpt lat="41.656794" lon="2.545726">
        <ele>490.433</ele>
        <time>2021-05-26T09:33:01Z</time>
      </trkpt>
      <trkpt lat="41.656827" lon="2.545734">
        <ele>490.711</ele>
        <time>2021-05-26T09:33:02Z</time>
      </trkpt>
      <trkpt lat="41.656858" lon="2.545739">
        <ele>491.121</ele>
        <time>2021-05-26T09:33:03Z</time>
      </trkpt>
      <trkpt lat="41.656886" lon="2.545743">
        <ele>491.403</ele>
        <time>2021-05-26T09:33:04Z</time>
      </trkpt>
      <trkpt lat="41.656911" lon="2.545747">
        <ele>491.708</ele>
        <time>2021-05-26T09:33:05Z</time>
      </trkpt>
      <trkpt lat="41.656933" lon="2.545753">
        <ele>492.038</ele>
        <time>2021-05-26T09:33:06Z</time>
      </trkpt>
      <trkpt lat="41.656959" lon="2.545753">
        <ele>492.245</ele>
        <time>2021-05-26T09:33:07Z</time>
      </trkpt>
      <trkpt lat="41.656985" lon="2.545752">
        <ele>492.492</ele>
        <time>2021-05-26T09:33:08Z</time>
      </trkpt>
      <trkpt lat="41.657011" lon="2.545748">
        <ele>492.675</ele>
        <time>2021-05-26T09:33:09Z</time>
      </trkpt>
      <trkpt lat="41.657034" lon="2.545742">
        <ele>492.760</ele>
        <time>2021-05-26T09:33:10Z</time>
      </trkpt>
      <trkpt lat="41.657057" lon="2.545735">
        <ele>492.736</ele>
        <time>2021-05-26T09:33:11Z</time>
      </trkpt>
      <trkpt lat="41.657080" lon="2.545726">
        <ele>492.733</ele>
        <time>2021-05-26T09:33:12Z</time>
      </trkpt>
      <trkpt lat="41.657104" lon="2.545720">
        <ele>492.850</ele>
        <time>2021-05-26T09:33:13Z</time>
      </trkpt>
      <trkpt lat="41.657129" lon="2.545714">
        <ele>492.835</ele>
        <time>2021-05-26T09:33:14Z</time>
      </trkpt>
      <trkpt lat="41.657153" lon="2.545706">
        <ele>492.886</ele>
        <time>2021-05-26T09:33:15Z</time>
      </trkpt>
      <trkpt lat="41.657175" lon="2.545696">
        <ele>492.814</ele>
        <time>2021-05-26T09:33:16Z</time>
      </trkpt>
      <trkpt lat="41.657196" lon="2.545685">
        <ele>492.708</ele>
        <time>2021-05-26T09:33:17Z</time>
      </trkpt>
      <trkpt lat="41.657215" lon="2.545675">
        <ele>492.560</ele>
        <time>2021-05-26T09:33:18Z</time>
      </trkpt>
      <trkpt lat="41.657233" lon="2.545669">
        <ele>492.527</ele>
        <time>2021-05-26T09:33:19Z</time>
      </trkpt>
      <trkpt lat="41.657255" lon="2.545670">
        <ele>492.524</ele>
        <time>2021-05-26T09:33:20Z</time>
      </trkpt>
      <trkpt lat="41.657291" lon="2.545662">
        <ele>492.467</ele>
        <time>2021-05-26T09:33:22Z</time>
      </trkpt>
      <trkpt lat="41.657318" lon="2.545659">
        <ele>492.412</ele>
        <time>2021-05-26T09:33:23Z</time>
      </trkpt>
      <trkpt lat="41.657412" lon="2.545609">
        <ele>491.388</ele>
        <time>2021-05-26T09:33:26Z</time>
      </trkpt>
      <trkpt lat="41.657497" lon="2.545542">
        <ele>489.775</ele>
        <time>2021-05-26T09:33:29Z</time>
      </trkpt>
      <trkpt lat="41.657578" lon="2.545485">
        <ele>488.552</ele>
        <time>2021-05-26T09:33:32Z</time>
      </trkpt>
      <trkpt lat="41.657675" lon="2.545394">
        <ele>486.679</ele>
        <time>2021-05-26T09:33:36Z</time>
      </trkpt>
      <trkpt lat="41.657698" lon="2.545378">
        <ele>486.205</ele>
        <time>2021-05-26T09:33:37Z</time>
      </trkpt>
      <trkpt lat="41.657722" lon="2.545361">
        <ele>485.925</ele>
        <time>2021-05-26T09:33:38Z</time>
      </trkpt>
      <trkpt lat="41.657747" lon="2.545350">
        <ele>485.708</ele>
        <time>2021-05-26T09:33:39Z</time>
      </trkpt>
      <trkpt lat="41.657772" lon="2.545341">
        <ele>485.684</ele>
        <time>2021-05-26T09:33:40Z</time>
      </trkpt>
      <trkpt lat="41.657792" lon="2.545332">
        <ele>485.581</ele>
        <time>2021-05-26T09:33:41Z</time>
      </trkpt>
      <trkpt lat="41.657818" lon="2.545327">
        <ele>485.738</ele>
        <time>2021-05-26T09:33:42Z</time>
      </trkpt>
      <trkpt lat="41.657836" lon="2.545325">
        <ele>485.891</ele>
        <time>2021-05-26T09:33:43Z</time>
      </trkpt>
      <trkpt lat="41.657862" lon="2.545329">
        <ele>486.296</ele>
        <time>2021-05-26T09:33:44Z</time>
      </trkpt>
      <trkpt lat="41.657930" lon="2.545356">
        <ele>487.662</ele>
        <time>2021-05-26T09:33:47Z</time>
      </trkpt>
      <trkpt lat="41.657952" lon="2.545366">
        <ele>488.149</ele>
        <time>2021-05-26T09:33:48Z</time>
      </trkpt>
      <trkpt lat="41.657975" lon="2.545381">
        <ele>488.746</ele>
        <time>2021-05-26T09:33:49Z</time>
      </trkpt>
      <trkpt lat="41.657993" lon="2.545397">
        <ele>489.342</ele>
        <time>2021-05-26T09:33:50Z</time>
      </trkpt>
      <trkpt lat="41.658069" lon="2.545472">
        <ele>491.722</ele>
        <time>2021-05-26T09:33:54Z</time>
      </trkpt>
      <trkpt lat="41.658092" lon="2.545491">
        <ele>491.814</ele>
        <time>2021-05-26T09:33:55Z</time>
      </trkpt>
      <trkpt lat="41.658115" lon="2.545513">
        <ele>492.108</ele>
        <time>2021-05-26T09:33:56Z</time>
      </trkpt>
      <trkpt lat="41.658135" lon="2.545532">
        <ele>492.371</ele>
        <time>2021-05-26T09:33:57Z</time>
      </trkpt>
      <trkpt lat="41.658210" lon="2.545617">
        <ele>493.568</ele>
        <time>2021-05-26T09:34:01Z</time>
      </trkpt>
      <trkpt lat="41.658295" lon="2.545683">
        <ele>494.235</ele>
        <time>2021-05-26T09:34:06Z</time>
      </trkpt>
      <trkpt lat="41.658383" lon="2.545742">
        <ele>494.678</ele>
        <time>2021-05-26T09:34:10Z</time>
      </trkpt>
      <trkpt lat="41.658479" lon="2.545793">
        <ele>494.733</ele>
        <time>2021-05-26T09:34:13Z</time>
      </trkpt>
      <trkpt lat="41.658589" lon="2.545826">
        <ele>494.139</ele>
        <time>2021-05-26T09:34:17Z</time>
      </trkpt>
      <trkpt lat="41.658680" lon="2.545820">
        <ele>493.696</ele>
        <time>2021-05-26T09:34:20Z</time>
      </trkpt>
      <trkpt lat="41.658767" lon="2.545740">
        <ele>491.253</ele>
        <time>2021-05-26T09:34:23Z</time>
      </trkpt>
      <trkpt lat="41.658838" lon="2.545639">
        <ele>488.379</ele>
        <time>2021-05-26T09:34:27Z</time>
      </trkpt>
      <trkpt lat="41.658885" lon="2.545530">
        <ele>485.505</ele>
        <time>2021-05-26T09:34:31Z</time>
      </trkpt>
      <trkpt lat="41.658970" lon="2.545430">
        <ele>485.825</ele>
        <time>2021-05-26T09:34:35Z</time>
      </trkpt>
      <trkpt lat="41.659043" lon="2.545354">
        <ele>486.008</ele>
        <time>2021-05-26T09:34:39Z</time>
      </trkpt>
      <trkpt lat="41.659136" lon="2.545302">
        <ele>486.974</ele>
        <time>2021-05-26T09:34:44Z</time>
      </trkpt>
      <trkpt lat="41.659227" lon="2.545259">
        <ele>488.411</ele>
        <time>2021-05-26T09:34:48Z</time>
      </trkpt>
      <trkpt lat="41.659318" lon="2.545234">
        <ele>490.558</ele>
        <time>2021-05-26T09:34:51Z</time>
      </trkpt>
      <trkpt lat="41.659414" lon="2.545190">
        <ele>492.071</ele>
        <time>2021-05-26T09:34:55Z</time>
      </trkpt>
      <trkpt lat="41.659517" lon="2.545156">
        <ele>493.336</ele>
        <time>2021-05-26T09:34:59Z</time>
      </trkpt>
      <trkpt lat="41.659604" lon="2.545100">
        <ele>493.282</ele>
        <time>2021-05-26T09:35:03Z</time>
      </trkpt>
      <trkpt lat="41.659696" lon="2.545051">
        <ele>493.249</ele>
        <time>2021-05-26T09:35:07Z</time>
      </trkpt>
      <trkpt lat="41.659805" lon="2.545033">
        <ele>493.716</ele>
        <time>2021-05-26T09:35:12Z</time>
      </trkpt>
      <trkpt lat="41.659907" lon="2.545047">
        <ele>494.982</ele>
        <time>2021-05-26T09:35:16Z</time>
      </trkpt>
      <trkpt lat="41.660033" lon="2.545036">
        <ele>495.343</ele>
        <time>2021-05-26T09:35:20Z</time>
      </trkpt>
      <trkpt lat="41.660146" lon="2.544984">
        <ele>494.117</ele>
        <time>2021-05-26T09:35:23Z</time>
      </trkpt>
      <trkpt lat="41.660226" lon="2.544910">
        <ele>492.008</ele>
        <time>2021-05-26T09:35:26Z</time>
      </trkpt>
      <trkpt lat="41.660309" lon="2.544853">
        <ele>490.395</ele>
        <time>2021-05-26T09:35:29Z</time>
      </trkpt>
      <trkpt lat="41.660381" lon="2.544777">
        <ele>488.142</ele>
        <time>2021-05-26T09:35:32Z</time>
      </trkpt>
      <trkpt lat="41.660467" lon="2.544690">
        <ele>485.859</ele>
        <time>2021-05-26T09:35:36Z</time>
      </trkpt>
      <trkpt lat="41.660552" lon="2.544629">
        <ele>484.372</ele>
        <time>2021-05-26T09:35:40Z</time>
      </trkpt>
      <trkpt lat="41.660655" lon="2.544578">
        <ele>484.147</ele>
        <time>2021-05-26T09:35:44Z</time>
      </trkpt>
      <trkpt lat="41.660754" lon="2.544574">
        <ele>485.353</ele>
        <time>2021-05-26T09:35:47Z</time>
      </trkpt>
      <trkpt lat="41.660844" lon="2.544596">
        <ele>487.170</ele>
        <time>2021-05-26T09:35:50Z</time>
      </trkpt>
      <trkpt lat="41.660930" lon="2.544650">
        <ele>490.447</ele>
        <time>2021-05-26T09:35:54Z</time>
      </trkpt>
      <trkpt lat="41.661042" lon="2.544645">
        <ele>492.835</ele>
        <time>2021-05-26T09:35:58Z</time>
      </trkpt>
      <trkpt lat="41.661116" lon="2.544537">
        <ele>492.186</ele>
        <time>2021-05-26T09:36:02Z</time>
      </trkpt>
      <trkpt lat="41.661179" lon="2.544445">
        <ele>492.214</ele>
        <time>2021-05-26T09:36:05Z</time>
      </trkpt>
      <trkpt lat="41.661236" lon="2.544335">
        <ele>493.108</ele>
        <time>2021-05-26T09:36:09Z</time>
      </trkpt>
      <trkpt lat="41.661271" lon="2.544193">
        <ele>492.810</ele>
        <time>2021-05-26T09:36:14Z</time>
      </trkpt>
      <trkpt lat="41.661251" lon="2.544074">
        <ele>492.217</ele>
        <time>2021-05-26T09:36:18Z</time>
      </trkpt>
      <trkpt lat="41.661204" lon="2.543941">
        <ele>491.224</ele>
        <time>2021-05-26T09:36:24Z</time>
      </trkpt>
      <trkpt lat="41.661166" lon="2.543845">
        <ele>490.567</ele>
        <time>2021-05-26T09:36:28Z</time>
      </trkpt>
      <trkpt lat="41.661158" lon="2.543818">
        <ele>490.452</ele>
        <time>2021-05-26T09:36:29Z</time>
      </trkpt>
      <trkpt lat="41.661150" lon="2.543791">
        <ele>490.378</ele>
        <time>2021-05-26T09:36:30Z</time>
      </trkpt>
      <trkpt lat="41.661139" lon="2.543766">
        <ele>490.125</ele>
        <time>2021-05-26T09:36:31Z</time>
      </trkpt>
      <trkpt lat="41.661129" lon="2.543744">
        <ele>489.932</ele>
        <time>2021-05-26T09:36:32Z</time>
      </trkpt>
      <trkpt lat="41.661115" lon="2.543722">
        <ele>489.777</ele>
        <time>2021-05-26T09:36:33Z</time>
      </trkpt>
      <trkpt lat="41.661098" lon="2.543704">
        <ele>489.461</ele>
        <time>2021-05-26T09:36:34Z</time>
      </trkpt>
      <trkpt lat="41.661081" lon="2.543682">
        <ele>489.027</ele>
        <time>2021-05-26T09:36:35Z</time>
      </trkpt>
      <trkpt lat="41.661064" lon="2.543659">
        <ele>488.708</ele>
        <time>2021-05-26T09:36:36Z</time>
      </trkpt>
      <trkpt lat="41.661043" lon="2.543639">
        <ele>488.274</ele>
        <time>2021-05-26T09:36:37Z</time>
      </trkpt>
      <trkpt lat="41.661024" lon="2.543621">
        <ele>487.841</ele>
        <time>2021-05-26T09:36:38Z</time>
      </trkpt>
      <trkpt lat="41.661004" lon="2.543602">
        <ele>487.388</ele>
        <time>2021-05-26T09:36:39Z</time>
      </trkpt>
      <trkpt lat="41.660985" lon="2.543585">
        <ele>486.751</ele>
        <time>2021-05-26T09:36:40Z</time>
      </trkpt>
      <trkpt lat="41.660967" lon="2.543569">
        <ele>486.286</ele>
        <time>2021-05-26T09:36:41Z</time>
      </trkpt>
      <trkpt lat="41.660940" lon="2.543531">
        <ele>485.482</ele>
        <time>2021-05-26T09:36:43Z</time>
      </trkpt>
      <trkpt lat="41.660924" lon="2.543505">
        <ele>484.959</ele>
        <time>2021-05-26T09:36:44Z</time>
      </trkpt>
      <trkpt lat="41.660913" lon="2.543479">
        <ele>484.546</ele>
        <time>2021-05-26T09:36:45Z</time>
      </trkpt>
      <trkpt lat="41.660905" lon="2.543445">
        <ele>484.251</ele>
        <time>2021-05-26T09:36:46Z</time>
      </trkpt>
      <trkpt lat="41.660902" lon="2.543404">
        <ele>484.001</ele>
        <time>2021-05-26T09:36:47Z</time>
      </trkpt>
      <trkpt lat="41.660905" lon="2.543364">
        <ele>483.911</ele>
        <time>2021-05-26T09:36:48Z</time>
      </trkpt>
      <trkpt lat="41.660909" lon="2.543320">
        <ele>483.708</ele>
        <time>2021-05-26T09:36:49Z</time>
      </trkpt>
      <trkpt lat="41.660917" lon="2.543280">
        <ele>483.362</ele>
        <time>2021-05-26T09:36:50Z</time>
      </trkpt>
      <trkpt lat="41.660927" lon="2.543241">
        <ele>483.049</ele>
        <time>2021-05-26T09:36:51Z</time>
      </trkpt>
      <trkpt lat="41.660941" lon="2.543210">
        <ele>482.976</ele>
        <time>2021-05-26T09:36:52Z</time>
      </trkpt>
      <trkpt lat="41.660950" lon="2.543186">
        <ele>482.899</ele>
        <time>2021-05-26T09:36:53Z</time>
      </trkpt>
      <trkpt lat="41.660964" lon="2.543165">
        <ele>482.994</ele>
        <time>2021-05-26T09:36:54Z</time>
      </trkpt>
      <trkpt lat="41.660982" lon="2.543147">
        <ele>483.170</ele>
        <time>2021-05-26T09:36:55Z</time>
      </trkpt>
      <trkpt lat="41.661001" lon="2.543126">
        <ele>483.257</ele>
        <time>2021-05-26T09:36:56Z</time>
      </trkpt>
      <trkpt lat="41.661015" lon="2.543105">
        <ele>483.334</ele>
        <time>2021-05-26T09:36:57Z</time>
      </trkpt>
      <trkpt lat="41.661032" lon="2.543086">
        <ele>483.434</ele>
        <time>2021-05-26T09:36:58Z</time>
      </trkpt>
      <trkpt lat="41.661057" lon="2.543069">
        <ele>483.855</ele>
        <time>2021-05-26T09:36:59Z</time>
      </trkpt>
      <trkpt lat="41.661077" lon="2.543054">
        <ele>484.110</ele>
        <time>2021-05-26T09:37:00Z</time>
      </trkpt>
      <trkpt lat="41.661099" lon="2.543047">
        <ele>484.508</ele>
        <time>2021-05-26T09:37:01Z</time>
      </trkpt>
      <trkpt lat="41.661121" lon="2.543033">
        <ele>484.710</ele>
        <time>2021-05-26T09:37:02Z</time>
      </trkpt>
      <trkpt lat="41.661143" lon="2.543021">
        <ele>484.797</ele>
        <time>2021-05-26T09:37:03Z</time>
      </trkpt>
      <trkpt lat="41.661236" lon="2.542973">
        <ele>485.024</ele>
        <time>2021-05-26T09:37:06Z</time>
      </trkpt>
      <trkpt lat="41.661340" lon="2.542904">
        <ele>485.087</ele>
        <time>2021-05-26T09:37:10Z</time>
      </trkpt>
      <trkpt lat="41.661388" lon="2.542800">
        <ele>483.582</ele>
        <time>2021-05-26T09:37:13Z</time>
      </trkpt>
      <trkpt lat="41.661425" lon="2.542685">
        <ele>480.648</ele>
        <time>2021-05-26T09:37:16Z</time>
      </trkpt>
      <trkpt lat="41.661467" lon="2.542574">
        <ele>478.035</ele>
        <time>2021-05-26T09:37:19Z</time>
      </trkpt>
      <trkpt lat="41.661571" lon="2.542589">
        <ele>477.452</ele>
        <time>2021-05-26T09:37:24Z</time>
      </trkpt>
      <trkpt lat="41.661605" lon="2.542662">
        <ele>478.519</ele>
        <time>2021-05-26T09:37:27Z</time>
      </trkpt>
      <trkpt lat="41.661620" lon="2.542691">
        <ele>478.909</ele>
        <time>2021-05-26T09:37:28Z</time>
      </trkpt>
      <trkpt lat="41.661629" lon="2.542721">
        <ele>479.419</ele>
        <time>2021-05-26T09:37:29Z</time>
      </trkpt>
      <trkpt lat="41.661640" lon="2.542761">
        <ele>480.008</ele>
        <time>2021-05-26T09:37:31Z</time>
      </trkpt>
      <trkpt lat="41.661649" lon="2.542796">
        <ele>480.668</ele>
        <time>2021-05-26T09:37:33Z</time>
      </trkpt>
      <trkpt lat="41.661654" lon="2.542833">
        <ele>481.575</ele>
        <time>2021-05-26T09:37:35Z</time>
      </trkpt>
      <trkpt lat="41.661657" lon="2.542873">
        <ele>482.512</ele>
        <time>2021-05-26T09:37:37Z</time>
      </trkpt>
      <trkpt lat="41.661672" lon="2.542910">
        <ele>483.275</ele>
        <time>2021-05-26T09:37:39Z</time>
      </trkpt>
      <trkpt lat="41.661677" lon="2.542946">
        <ele>484.040</ele>
        <time>2021-05-26T09:37:41Z</time>
      </trkpt>
      <trkpt lat="41.661680" lon="2.542978">
        <ele>484.766</ele>
        <time>2021-05-26T09:37:44Z</time>
      </trkpt>
      <trkpt lat="41.661687" lon="2.543006">
        <ele>485.263</ele>
        <time>2021-05-26T09:37:46Z</time>
      </trkpt>
      <trkpt lat="41.661693" lon="2.543034">
        <ele>485.880</ele>
        <time>2021-05-26T09:37:49Z</time>
      </trkpt>
      <trkpt lat="41.661695" lon="2.543059">
        <ele>486.444</ele>
        <time>2021-05-26T09:37:51Z</time>
      </trkpt>
      <trkpt lat="41.661705" lon="2.543085">
        <ele>486.705</ele>
        <time>2021-05-26T09:37:53Z</time>
      </trkpt>
      <trkpt lat="41.661724" lon="2.543145">
        <ele>487.615</ele>
        <time>2021-05-26T09:37:55Z</time>
      </trkpt>
      <trkpt lat="41.661727" lon="2.543169">
        <ele>488.008</ele>
        <time>2021-05-26T09:37:57Z</time>
      </trkpt>
      <trkpt lat="41.661738" lon="2.543207">
        <ele>488.611</ele>
        <time>2021-05-26T09:37:59Z</time>
      </trkpt>
      <trkpt lat="41.661747" lon="2.543241">
        <ele>489.248</ele>
        <time>2021-05-26T09:38:01Z</time>
      </trkpt>
      <trkpt lat="41.661760" lon="2.543272">
        <ele>489.685</ele>
        <time>2021-05-26T09:38:03Z</time>
      </trkpt>
      <trkpt lat="41.661809" lon="2.543344">
        <ele>490.158</ele>
        <time>2021-05-26T09:38:09Z</time>
      </trkpt>
      <trkpt lat="41.661819" lon="2.543370">
        <ele>490.253</ele>
        <time>2021-05-26T09:38:11Z</time>
      </trkpt>
      <trkpt lat="41.661876" lon="2.543468">
        <ele>490.419</ele>
        <time>2021-05-26T09:38:19Z</time>
      </trkpt>
      <trkpt lat="41.661885" lon="2.543490">
        <ele>490.556</ele>
        <time>2021-05-26T09:38:21Z</time>
      </trkpt>
      <trkpt lat="41.661892" lon="2.543515">
        <ele>490.733</ele>
        <time>2021-05-26T09:38:23Z</time>
      </trkpt>
      <trkpt lat="41.661898" lon="2.543543">
        <ele>491.016</ele>
        <time>2021-05-26T09:38:25Z</time>
      </trkpt>
      <trkpt lat="41.661896" lon="2.543576">
        <ele>491.576</ele>
        <time>2021-05-26T09:38:27Z</time>
      </trkpt>
      <trkpt lat="41.661897" lon="2.543600">
        <ele>491.913</ele>
        <time>2021-05-26T09:38:29Z</time>
      </trkpt>
      <trkpt lat="41.661901" lon="2.543632">
        <ele>492.208</ele>
        <time>2021-05-26T09:38:31Z</time>
      </trkpt>
      <trkpt lat="41.661912" lon="2.543666">
        <ele>492.528</ele>
        <time>2021-05-26T09:38:33Z</time>
      </trkpt>
      <trkpt lat="41.661916" lon="2.543701">
        <ele>492.965</ele>
        <time>2021-05-26T09:38:35Z</time>
      </trkpt>
      <trkpt lat="41.661922" lon="2.543740">
        <ele>493.362</ele>
        <time>2021-05-26T09:38:37Z</time>
      </trkpt>
      <trkpt lat="41.661920" lon="2.543773">
        <ele>493.875</ele>
        <time>2021-05-26T09:38:39Z</time>
      </trkpt>
      <trkpt lat="41.661922" lon="2.543802">
        <ele>494.240</ele>
        <time>2021-05-26T09:38:41Z</time>
      </trkpt>
      <trkpt lat="41.661923" lon="2.543849">
        <ele>494.816</ele>
        <time>2021-05-26T09:38:44Z</time>
      </trkpt>
      <trkpt lat="41.661926" lon="2.543884">
        <ele>495.363</ele>
        <time>2021-05-26T09:38:46Z</time>
      </trkpt>
      <trkpt lat="41.661929" lon="2.543916">
        <ele>495.810</ele>
        <time>2021-05-26T09:38:48Z</time>
      </trkpt>
      <trkpt lat="41.661931" lon="2.543952">
        <ele>496.672</ele>
        <time>2021-05-26T09:38:50Z</time>
      </trkpt>
      <trkpt lat="41.661925" lon="2.543990">
        <ele>497.413</ele>
        <time>2021-05-26T09:38:52Z</time>
      </trkpt>
      <trkpt lat="41.661926" lon="2.544025">
        <ele>498.114</ele>
        <time>2021-05-26T09:38:54Z</time>
      </trkpt>
      <trkpt lat="41.661929" lon="2.544053">
        <ele>498.708</ele>
        <time>2021-05-26T09:38:56Z</time>
      </trkpt>
      <trkpt lat="41.661944" lon="2.544082">
        <ele>499.294</ele>
        <time>2021-05-26T09:38:58Z</time>
      </trkpt>
      <trkpt lat="41.661964" lon="2.544103">
        <ele>499.251</ele>
        <time>2021-05-26T09:39:00Z</time>
      </trkpt>
      <trkpt lat="41.661970" lon="2.544134">
        <ele>499.718</ele>
        <time>2021-05-26T09:39:02Z</time>
      </trkpt>
      <trkpt lat="41.662011" lon="2.544245">
        <ele>501.041</ele>
        <time>2021-05-26T09:39:10Z</time>
      </trkpt>
      <trkpt lat="41.662022" lon="2.544287">
        <ele>501.596</ele>
        <time>2021-05-26T09:39:13Z</time>
      </trkpt>
      <trkpt lat="41.662034" lon="2.544312">
        <ele>501.842</ele>
        <time>2021-05-26T09:39:15Z</time>
      </trkpt>
      <trkpt lat="41.662039" lon="2.544340">
        <ele>502.319</ele>
        <time>2021-05-26T09:39:17Z</time>
      </trkpt>
      <trkpt lat="41.662051" lon="2.544361">
        <ele>502.636</ele>
        <time>2021-05-26T09:39:19Z</time>
      </trkpt>
      <trkpt lat="41.662067" lon="2.544380">
        <ele>502.871</ele>
        <time>2021-05-26T09:39:21Z</time>
      </trkpt>
      <trkpt lat="41.662085" lon="2.544412">
        <ele>503.341</ele>
        <time>2021-05-26T09:39:23Z</time>
      </trkpt>
      <trkpt lat="41.662107" lon="2.544438">
        <ele>503.715</ele>
        <time>2021-05-26T09:39:25Z</time>
      </trkpt>
      <trkpt lat="41.662125" lon="2.544466">
        <ele>504.208</ele>
        <time>2021-05-26T09:39:27Z</time>
      </trkpt>
      <trkpt lat="41.662145" lon="2.544486">
        <ele>504.594</ele>
        <time>2021-05-26T09:39:29Z</time>
      </trkpt>
      <trkpt lat="41.662169" lon="2.544509">
        <ele>504.871</ele>
        <time>2021-05-26T09:39:31Z</time>
      </trkpt>
      <trkpt lat="41.662188" lon="2.544547">
        <ele>505.558</ele>
        <time>2021-05-26T09:39:33Z</time>
      </trkpt>
      <trkpt lat="41.662233" lon="2.544661">
        <ele>507.441</ele>
        <time>2021-05-26T09:39:40Z</time>
      </trkpt>
      <trkpt lat="41.662285" lon="2.544770">
        <ele>508.526</ele>
        <time>2021-05-26T09:39:47Z</time>
      </trkpt>
      <trkpt lat="41.662342" lon="2.544868">
        <ele>508.842</ele>
        <time>2021-05-26T09:39:53Z</time>
      </trkpt>
      <trkpt lat="41.662363" lon="2.545000">
        <ele>510.549</ele>
        <time>2021-05-26T09:39:58Z</time>
      </trkpt>
      <trkpt lat="41.662369" lon="2.545026">
        <ele>510.676</ele>
        <time>2021-05-26T09:39:59Z</time>
      </trkpt>
      <trkpt lat="41.662381" lon="2.545051">
        <ele>510.688</ele>
        <time>2021-05-26T09:40:00Z</time>
      </trkpt>
      <trkpt lat="41.662401" lon="2.545073">
        <ele>510.324</ele>
        <time>2021-05-26T09:40:01Z</time>
      </trkpt>
      <trkpt lat="41.662434" lon="2.545186">
        <ele>510.726</ele>
        <time>2021-05-26T09:40:05Z</time>
      </trkpt>
      <trkpt lat="41.662446" lon="2.545307">
        <ele>511.808</ele>
        <time>2021-05-26T09:40:08Z</time>
      </trkpt>
      <trkpt lat="41.662522" lon="2.545417">
        <ele>511.645</ele>
        <time>2021-05-26T09:40:12Z</time>
      </trkpt>
      <trkpt lat="41.662621" lon="2.545494">
        <ele>511.732</ele>
        <time>2021-05-26T09:40:16Z</time>
      </trkpt>
      <trkpt lat="41.662692" lon="2.545569">
        <ele>513.069</ele>
        <time>2021-05-26T09:40:19Z</time>
      </trkpt>
      <trkpt lat="41.662795" lon="2.545611">
        <ele>513.682</ele>
        <time>2021-05-26T09:40:23Z</time>
      </trkpt>
      <trkpt lat="41.662900" lon="2.545610">
        <ele>512.237</ele>
        <time>2021-05-26T09:40:27Z</time>
      </trkpt>
      <trkpt lat="41.662992" lon="2.545588">
        <ele>510.153</ele>
        <time>2021-05-26T09:40:31Z</time>
      </trkpt>
      <trkpt lat="41.663085" lon="2.545562">
        <ele>508.390</ele>
        <time>2021-05-26T09:40:35Z</time>
      </trkpt>
      <trkpt lat="41.663188" lon="2.545540">
        <ele>507.457</ele>
        <time>2021-05-26T09:40:39Z</time>
      </trkpt>
      <trkpt lat="41.663293" lon="2.545550">
        <ele>507.815</ele>
        <time>2021-05-26T09:40:43Z</time>
      </trkpt>
      <trkpt lat="41.663410" lon="2.545574">
        <ele>508.165</ele>
        <time>2021-05-26T09:40:47Z</time>
      </trkpt>
      <trkpt lat="41.663514" lon="2.545597">
        <ele>508.311</ele>
        <time>2021-05-26T09:40:51Z</time>
      </trkpt>
      <trkpt lat="41.663611" lon="2.545597">
        <ele>507.608</ele>
        <time>2021-05-26T09:40:55Z</time>
      </trkpt>
      <trkpt lat="41.663710" lon="2.545582">
        <ele>508.498</ele>
        <time>2021-05-26T09:40:59Z</time>
      </trkpt>
      <trkpt lat="41.663821" lon="2.545560">
        <ele>509.245</ele>
        <time>2021-05-26T09:41:03Z</time>
      </trkpt>
      <trkpt lat="41.663923" lon="2.545538">
        <ele>510.032</ele>
        <time>2021-05-26T09:41:08Z</time>
      </trkpt>
      <trkpt lat="41.664008" lon="2.545473">
        <ele>509.345</ele>
        <time>2021-05-26T09:41:12Z</time>
      </trkpt>
      <trkpt lat="41.664106" lon="2.545408">
        <ele>509.080</ele>
        <time>2021-05-26T09:41:16Z</time>
      </trkpt>
      <trkpt lat="41.664203" lon="2.545361">
        <ele>509.486</ele>
        <time>2021-05-26T09:41:20Z</time>
      </trkpt>
      <trkpt lat="41.664307" lon="2.545352">
        <ele>511.163</ele>
        <time>2021-05-26T09:41:24Z</time>
      </trkpt>
      <trkpt lat="41.664420" lon="2.545348">
        <ele>513.180</ele>
        <time>2021-05-26T09:41:29Z</time>
      </trkpt>
      <trkpt lat="41.664525" lon="2.545357">
        <ele>514.138</ele>
        <time>2021-05-26T09:41:34Z</time>
      </trkpt>
      <trkpt lat="41.664625" lon="2.545386">
        <ele>515.570</ele>
        <time>2021-05-26T09:41:38Z</time>
      </trkpt>
      <trkpt lat="41.664721" lon="2.545410">
        <ele>516.817</ele>
        <time>2021-05-26T09:41:42Z</time>
      </trkpt>
      <trkpt lat="41.664814" lon="2.545413">
        <ele>516.708</ele>
        <time>2021-05-26T09:41:47Z</time>
      </trkpt>
      <trkpt lat="41.664907" lon="2.545438">
        <ele>517.650</ele>
        <time>2021-05-26T09:41:52Z</time>
      </trkpt>
      <trkpt lat="41.665000" lon="2.545478">
        <ele>519.467</ele>
        <time>2021-05-26T09:41:57Z</time>
      </trkpt>
      <trkpt lat="41.665072" lon="2.545557">
        <ele>520.774</ele>
        <time>2021-05-26T09:42:01Z</time>
      </trkpt>
      <trkpt lat="41.665132" lon="2.545636">
        <ele>522.237</ele>
        <time>2021-05-26T09:42:06Z</time>
      </trkpt>
      <trkpt lat="41.665143" lon="2.545669">
        <ele>523.392</ele>
        <time>2021-05-26T09:42:08Z</time>
      </trkpt>
      <trkpt lat="41.665172" lon="2.545789">
        <ele>527.558</ele>
        <time>2021-05-26T09:42:15Z</time>
      </trkpt>
      <trkpt lat="41.665219" lon="2.545895">
        <ele>529.675</ele>
        <time>2021-05-26T09:42:22Z</time>
      </trkpt>
      <trkpt lat="41.665270" lon="2.546009">
        <ele>530.742</ele>
        <time>2021-05-26T09:42:30Z</time>
      </trkpt>
      <trkpt lat="41.665310" lon="2.546133">
        <ele>531.422</ele>
        <time>2021-05-26T09:42:38Z</time>
      </trkpt>
      <trkpt lat="41.665358" lon="2.546252">
        <ele>531.162</ele>
        <time>2021-05-26T09:42:46Z</time>
      </trkpt>
      <trkpt lat="41.665363" lon="2.546298">
        <ele>531.808</ele>
        <time>2021-05-26T09:42:49Z</time>
      </trkpt>
      <trkpt lat="41.665386" lon="2.546422">
        <ele>533.108</ele>
        <time>2021-05-26T09:42:56Z</time>
      </trkpt>
      <trkpt lat="41.665440" lon="2.546540">
        <ele>532.359</ele>
        <time>2021-05-26T09:43:04Z</time>
      </trkpt>
      <trkpt lat="41.665492" lon="2.546639">
        <ele>531.596</ele>
        <time>2021-05-26T09:43:11Z</time>
      </trkpt>
      <trkpt lat="41.665525" lon="2.546712">
        <ele>530.963</ele>
        <time>2021-05-26T09:43:16Z</time>
      </trkpt>
      <trkpt lat="41.665540" lon="2.546746">
        <ele>530.546</ele>
        <time>2021-05-26T09:43:18Z</time>
      </trkpt>
      <trkpt lat="41.665556" lon="2.546772">
        <ele>530.111</ele>
        <time>2021-05-26T09:43:20Z</time>
      </trkpt>
      <trkpt lat="41.665567" lon="2.546801">
        <ele>530.217</ele>
        <time>2021-05-26T09:43:22Z</time>
      </trkpt>
      <trkpt lat="41.665577" lon="2.546832">
        <ele>530.354</ele>
        <time>2021-05-26T09:43:24Z</time>
      </trkpt>
      <trkpt lat="41.665585" lon="2.546860">
        <ele>530.561</ele>
        <time>2021-05-26T09:43:26Z</time>
      </trkpt>
      <trkpt lat="41.665589" lon="2.546889">
        <ele>530.884</ele>
        <time>2021-05-26T09:43:28Z</time>
      </trkpt>
      <trkpt lat="41.665592" lon="2.546921">
        <ele>531.107</ele>
        <time>2021-05-26T09:43:30Z</time>
      </trkpt>
      <trkpt lat="41.665588" lon="2.546956">
        <ele>531.517</ele>
        <time>2021-05-26T09:43:32Z</time>
      </trkpt>
      <trkpt lat="41.665583" lon="2.546993">
        <ele>531.708</ele>
        <time>2021-05-26T09:43:34Z</time>
      </trkpt>
      <trkpt lat="41.665571" lon="2.547030">
        <ele>532.015</ele>
        <time>2021-05-26T09:43:36Z</time>
      </trkpt>
      <trkpt lat="41.665555" lon="2.547059">
        <ele>532.442</ele>
        <time>2021-05-26T09:43:38Z</time>
      </trkpt>
      <trkpt lat="41.665538" lon="2.547081">
        <ele>533.079</ele>
        <time>2021-05-26T09:43:40Z</time>
      </trkpt>
      <trkpt lat="41.665517" lon="2.547110">
        <ele>533.792</ele>
        <time>2021-05-26T09:43:42Z</time>
      </trkpt>
      <trkpt lat="41.665500" lon="2.547134">
        <ele>534.347</ele>
        <time>2021-05-26T09:43:44Z</time>
      </trkpt>
      <trkpt lat="41.665482" lon="2.547152">
        <ele>534.853</ele>
        <time>2021-05-26T09:43:46Z</time>
      </trkpt>
      <trkpt lat="41.665461" lon="2.547174">
        <ele>535.480</ele>
        <time>2021-05-26T09:43:48Z</time>
      </trkpt>
      <trkpt lat="41.665440" lon="2.547189">
        <ele>535.927</ele>
        <time>2021-05-26T09:43:50Z</time>
      </trkpt>
      <trkpt lat="41.665417" lon="2.547208">
        <ele>536.571</ele>
        <time>2021-05-26T09:43:52Z</time>
      </trkpt>
      <trkpt lat="41.665394" lon="2.547230">
        <ele>536.941</ele>
        <time>2021-05-26T09:43:54Z</time>
      </trkpt>
      <trkpt lat="41.665372" lon="2.547253">
        <ele>536.915</ele>
        <time>2021-05-26T09:43:56Z</time>
      </trkpt>
      <trkpt lat="41.665351" lon="2.547275">
        <ele>536.908</ele>
        <time>2021-05-26T09:43:58Z</time>
      </trkpt>
      <trkpt lat="41.665335" lon="2.547298">
        <ele>536.894</ele>
        <time>2021-05-26T09:44:00Z</time>
      </trkpt>
      <trkpt lat="41.665304" lon="2.547303">
        <ele>537.451</ele>
        <time>2021-05-26T09:44:02Z</time>
      </trkpt>
      <trkpt lat="41.665278" lon="2.547313">
        <ele>537.748</ele>
        <time>2021-05-26T09:44:04Z</time>
      </trkpt>
      <trkpt lat="41.665258" lon="2.547325">
        <ele>537.871</ele>
        <time>2021-05-26T09:44:06Z</time>
      </trkpt>
      <trkpt lat="41.665235" lon="2.547324">
        <ele>538.316</ele>
        <time>2021-05-26T09:44:08Z</time>
      </trkpt>
      <trkpt lat="41.665209" lon="2.547319">
        <ele>538.952</ele>
        <time>2021-05-26T09:44:10Z</time>
      </trkpt>
      <trkpt lat="41.665189" lon="2.547306">
        <ele>539.749</ele>
        <time>2021-05-26T09:44:12Z</time>
      </trkpt>
      <trkpt lat="41.665165" lon="2.547295">
        <ele>540.696</ele>
        <time>2021-05-26T09:44:14Z</time>
      </trkpt>
      <trkpt lat="41.665143" lon="2.547287">
        <ele>541.374</ele>
        <time>2021-05-26T09:44:16Z</time>
      </trkpt>
      <trkpt lat="41.665121" lon="2.547278">
        <ele>542.156</ele>
        <time>2021-05-26T09:44:18Z</time>
      </trkpt>
      <trkpt lat="41.665100" lon="2.547266">
        <ele>543.021</ele>
        <time>2021-05-26T09:44:20Z</time>
      </trkpt>
      <trkpt lat="41.665073" lon="2.547265">
        <ele>543.608</ele>
        <time>2021-05-26T09:44:22Z</time>
      </trkpt>
      <trkpt lat="41.665050" lon="2.547257">
        <ele>544.524</ele>
        <time>2021-05-26T09:44:24Z</time>
      </trkpt>
      <trkpt lat="41.665025" lon="2.547248">
        <ele>545.421</ele>
        <time>2021-05-26T09:44:26Z</time>
      </trkpt>
      <trkpt lat="41.664999" lon="2.547241">
        <ele>546.378</ele>
        <time>2021-05-26T09:44:28Z</time>
      </trkpt>
      <trkpt lat="41.664971" lon="2.547231">
        <ele>547.141</ele>
        <time>2021-05-26T09:44:30Z</time>
      </trkpt>
      <trkpt lat="41.664941" lon="2.547227">
        <ele>547.776</ele>
        <time>2021-05-26T09:44:32Z</time>
      </trkpt>
      <trkpt lat="41.664920" lon="2.547221">
        <ele>548.232</ele>
        <time>2021-05-26T09:44:34Z</time>
      </trkpt>
      <trkpt lat="41.664897" lon="2.547225">
        <ele>548.469</ele>
        <time>2021-05-26T09:44:36Z</time>
      </trkpt>
      <trkpt lat="41.664871" lon="2.547221">
        <ele>548.926</ele>
        <time>2021-05-26T09:44:38Z</time>
      </trkpt>
      <trkpt lat="41.664849" lon="2.547220">
        <ele>549.265</ele>
        <time>2021-05-26T09:44:40Z</time>
      </trkpt>
      <trkpt lat="41.664826" lon="2.547223">
        <ele>549.568</ele>
        <time>2021-05-26T09:44:42Z</time>
      </trkpt>
      <trkpt lat="41.664798" lon="2.547226">
        <ele>549.814</ele>
        <time>2021-05-26T09:44:44Z</time>
      </trkpt>
      <trkpt lat="41.664773" lon="2.547228">
        <ele>550.108</ele>
        <time>2021-05-26T09:44:46Z</time>
      </trkpt>
      <trkpt lat="41.664751" lon="2.547233">
        <ele>550.253</ele>
        <time>2021-05-26T09:44:48Z</time>
      </trkpt>
      <trkpt lat="41.664727" lon="2.547243">
        <ele>550.280</ele>
        <time>2021-05-26T09:44:50Z</time>
      </trkpt>
      <trkpt lat="41.664678" lon="2.547250">
        <ele>551.357</ele>
        <time>2021-05-26T09:44:53Z</time>
      </trkpt>
      <trkpt lat="41.664649" lon="2.547251">
        <ele>552.130</ele>
        <time>2021-05-26T09:44:55Z</time>
      </trkpt>
      <trkpt lat="41.664619" lon="2.547261">
        <ele>552.735</ele>
        <time>2021-05-26T09:44:57Z</time>
      </trkpt>
      <trkpt lat="41.664591" lon="2.547275">
        <ele>553.161</ele>
        <time>2021-05-26T09:44:59Z</time>
      </trkpt>
      <trkpt lat="41.664566" lon="2.547282">
        <ele>553.648</ele>
        <time>2021-05-26T09:45:01Z</time>
      </trkpt>
      <trkpt lat="41.664542" lon="2.547290">
        <ele>554.185</ele>
        <time>2021-05-26T09:45:03Z</time>
      </trkpt>
      <trkpt lat="41.664514" lon="2.547289">
        <ele>555.016</ele>
        <time>2021-05-26T09:45:05Z</time>
      </trkpt>
      <trkpt lat="41.664489" lon="2.547284">
        <ele>555.976</ele>
        <time>2021-05-26T09:45:07Z</time>
      </trkpt>
      <trkpt lat="41.664465" lon="2.547275">
        <ele>556.913</ele>
        <time>2021-05-26T09:45:09Z</time>
      </trkpt>
      <trkpt lat="41.664444" lon="2.547272">
        <ele>557.608</ele>
        <time>2021-05-26T09:45:11Z</time>
      </trkpt>
      <trkpt lat="41.664413" lon="2.547269">
        <ele>558.248</ele>
        <time>2021-05-26T09:45:13Z</time>
      </trkpt>
      <trkpt lat="41.664379" lon="2.547268">
        <ele>558.975</ele>
        <time>2021-05-26T09:45:15Z</time>
      </trkpt>
      <trkpt lat="41.664360" lon="2.547268">
        <ele>559.252</ele>
        <time>2021-05-26T09:45:16Z</time>
      </trkpt>
      <trkpt lat="41.664326" lon="2.547278">
        <ele>559.685</ele>
        <time>2021-05-26T09:45:18Z</time>
      </trkpt>
      <trkpt lat="41.664296" lon="2.547287">
        <ele>560.080</ele>
        <time>2021-05-26T09:45:20Z</time>
      </trkpt>
      <trkpt lat="41.664266" lon="2.547295">
        <ele>560.516</ele>
        <time>2021-05-26T09:45:22Z</time>
      </trkpt>
      <trkpt lat="41.664234" lon="2.547303">
        <ele>561.023</ele>
        <time>2021-05-26T09:45:24Z</time>
      </trkpt>
      <trkpt lat="41.664207" lon="2.547315">
        <ele>561.530</ele>
        <time>2021-05-26T09:45:26Z</time>
      </trkpt>
      <trkpt lat="41.664185" lon="2.547327">
        <ele>561.896</ele>
        <time>2021-05-26T09:45:28Z</time>
      </trkpt>
      <trkpt lat="41.664159" lon="2.547344">
        <ele>562.331</ele>
        <time>2021-05-26T09:45:30Z</time>
      </trkpt>
      <trkpt lat="41.664136" lon="2.547363">
        <ele>562.524</ele>
        <time>2021-05-26T09:45:32Z</time>
      </trkpt>
      <trkpt lat="41.664116" lon="2.547389">
        <ele>562.808</ele>
        <time>2021-05-26T09:45:34Z</time>
      </trkpt>
      <trkpt lat="41.664089" lon="2.547414">
        <ele>563.246</ele>
        <time>2021-05-26T09:45:36Z</time>
      </trkpt>
      <trkpt lat="41.664072" lon="2.547431">
        <ele>563.513</ele>
        <time>2021-05-26T09:45:37Z</time>
      </trkpt>
      <trkpt lat="41.664053" lon="2.547445">
        <ele>563.940</ele>
        <time>2021-05-26T09:45:38Z</time>
      </trkpt>
      <trkpt lat="41.664031" lon="2.547465">
        <ele>564.493</ele>
        <time>2021-05-26T09:45:39Z</time>
      </trkpt>
      <trkpt lat="41.664015" lon="2.547488">
        <ele>564.828</ele>
        <time>2021-05-26T09:45:40Z</time>
      </trkpt>
      <trkpt lat="41.664003" lon="2.547512">
        <ele>564.994</ele>
        <time>2021-05-26T09:45:41Z</time>
      </trkpt>
      <trkpt lat="41.663989" lon="2.547536">
        <ele>564.941</ele>
        <time>2021-05-26T09:45:42Z</time>
      </trkpt>
      <trkpt lat="41.663978" lon="2.547559">
        <ele>564.968</ele>
        <time>2021-05-26T09:45:43Z</time>
      </trkpt>
      <trkpt lat="41.663907" lon="2.547654">
        <ele>566.239</ele>
        <time>2021-05-26T09:45:47Z</time>
      </trkpt>
      <trkpt lat="41.663839" lon="2.547756">
        <ele>567.901</ele>
        <time>2021-05-26T09:45:51Z</time>
      </trkpt>
      <trkpt lat="41.663823" lon="2.547779">
        <ele>568.421</ele>
        <time>2021-05-26T09:45:52Z</time>
      </trkpt>
      <trkpt lat="41.663809" lon="2.547804">
        <ele>568.508</ele>
        <time>2021-05-26T09:45:53Z</time>
      </trkpt>
      <trkpt lat="41.663792" lon="2.547832">
        <ele>568.760</ele>
        <time>2021-05-26T09:45:54Z</time>
      </trkpt>
      <trkpt lat="41.663767" lon="2.547893">
        <ele>568.987</ele>
        <time>2021-05-26T09:45:56Z</time>
      </trkpt>
      <trkpt lat="41.663752" lon="2.547919">
        <ele>569.124</ele>
        <time>2021-05-26T09:45:57Z</time>
      </trkpt>
      <trkpt lat="41.663742" lon="2.547946">
        <ele>569.277</ele>
        <time>2021-05-26T09:45:58Z</time>
      </trkpt>
      <trkpt lat="41.663734" lon="2.547971">
        <ele>569.332</ele>
        <time>2021-05-26T09:45:59Z</time>
      </trkpt>
      <trkpt lat="41.663725" lon="2.548005">
        <ele>569.358</ele>
        <time>2021-05-26T09:46:00Z</time>
      </trkpt>
      <trkpt lat="41.663717" lon="2.548035">
        <ele>569.375</ele>
        <time>2021-05-26T09:46:01Z</time>
      </trkpt>
      <trkpt lat="41.663708" lon="2.548060">
        <ele>569.432</ele>
        <time>2021-05-26T09:46:02Z</time>
      </trkpt>
      <trkpt lat="41.663694" lon="2.548108">
        <ele>569.458</ele>
        <time>2021-05-26T09:46:04Z</time>
      </trkpt>
      <trkpt lat="41.663695" lon="2.548202">
        <ele>568.152</ele>
        <time>2021-05-26T09:46:07Z</time>
      </trkpt>
      <trkpt lat="41.663692" lon="2.548230">
        <ele>567.917</ele>
        <time>2021-05-26T09:46:08Z</time>
      </trkpt>
      <trkpt lat="41.663690" lon="2.548256">
        <ele>567.608</ele>
        <time>2021-05-26T09:46:09Z</time>
      </trkpt>
      <trkpt lat="41.663683" lon="2.548390">
        <ele>566.132</ele>
        <time>2021-05-26T09:46:13Z</time>
      </trkpt>
      <trkpt lat="41.663686" lon="2.548455">
        <ele>565.119</ele>
        <time>2021-05-26T09:46:15Z</time>
      </trkpt>
      <trkpt lat="41.663686" lon="2.548487">
        <ele>564.716</ele>
        <time>2021-05-26T09:46:16Z</time>
      </trkpt>
      <trkpt lat="41.663679" lon="2.548517">
        <ele>564.629</ele>
        <time>2021-05-26T09:46:17Z</time>
      </trkpt>
      <trkpt lat="41.663669" lon="2.548547">
        <ele>564.614</ele>
        <time>2021-05-26T09:46:18Z</time>
      </trkpt>
      <trkpt lat="41.663660" lon="2.548575">
        <ele>564.680</ele>
        <time>2021-05-26T09:46:19Z</time>
      </trkpt>
      <trkpt lat="41.663646" lon="2.548600">
        <ele>564.887</ele>
        <time>2021-05-26T09:46:20Z</time>
      </trkpt>
      <trkpt lat="41.663634" lon="2.548621">
        <ele>564.914</ele>
        <time>2021-05-26T09:46:21Z</time>
      </trkpt>
      <trkpt lat="41.663614" lon="2.548644">
        <ele>565.385</ele>
        <time>2021-05-26T09:46:22Z</time>
      </trkpt>
      <trkpt lat="41.663546" lon="2.548696">
        <ele>566.289</ele>
        <time>2021-05-26T09:46:25Z</time>
      </trkpt>
      <trkpt lat="41.663522" lon="2.548716">
        <ele>566.517</ele>
        <time>2021-05-26T09:46:26Z</time>
      </trkpt>
      <trkpt lat="41.663503" lon="2.548731">
        <ele>566.708</ele>
        <time>2021-05-26T09:46:27Z</time>
      </trkpt>
      <trkpt lat="41.663471" lon="2.548759">
        <ele>567.125</ele>
        <time>2021-05-26T09:46:29Z</time>
      </trkpt>
      <trkpt lat="41.663442" lon="2.548770">
        <ele>567.832</ele>
        <time>2021-05-26T09:46:30Z</time>
      </trkpt>
      <trkpt lat="41.663417" lon="2.548787">
        <ele>568.229</ele>
        <time>2021-05-26T09:46:31Z</time>
      </trkpt>
      <trkpt lat="41.663393" lon="2.548804">
        <ele>568.672</ele>
        <time>2021-05-26T09:46:32Z</time>
      </trkpt>
      <trkpt lat="41.663337" lon="2.548900">
        <ele>568.787</ele>
        <time>2021-05-26T09:46:36Z</time>
      </trkpt>
      <trkpt lat="41.663329" lon="2.548931">
        <ele>568.593</ele>
        <time>2021-05-26T09:46:37Z</time>
      </trkpt>
      <trkpt lat="41.663318" lon="2.548961">
        <ele>568.490</ele>
        <time>2021-05-26T09:46:38Z</time>
      </trkpt>
      <trkpt lat="41.663314" lon="2.549021">
        <ele>567.687</ele>
        <time>2021-05-26T09:46:40Z</time>
      </trkpt>
      <trkpt lat="41.663296" lon="2.549116">
        <ele>566.942</ele>
        <time>2021-05-26T09:46:43Z</time>
      </trkpt>
      <trkpt lat="41.663290" lon="2.549186">
        <ele>566.122</ele>
        <time>2021-05-26T09:46:45Z</time>
      </trkpt>
      <trkpt lat="41.663285" lon="2.549334">
        <ele>564.214</ele>
        <time>2021-05-26T09:46:49Z</time>
      </trkpt>
      <trkpt lat="41.663268" lon="2.549480">
        <ele>563.108</ele>
        <time>2021-05-26T09:46:53Z</time>
      </trkpt>
      <trkpt lat="41.663260" lon="2.549617">
        <ele>561.851</ele>
        <time>2021-05-26T09:46:57Z</time>
      </trkpt>
      <trkpt lat="41.663277" lon="2.549754">
        <ele>559.158</ele>
        <time>2021-05-26T09:47:01Z</time>
      </trkpt>
      <trkpt lat="41.663263" lon="2.549877">
        <ele>557.835</ele>
        <time>2021-05-26T09:47:04Z</time>
      </trkpt>
      <trkpt lat="41.663256" lon="2.550024">
        <ele>555.788</ele>
        <time>2021-05-26T09:47:08Z</time>
      </trkpt>
      <trkpt lat="41.663251" lon="2.550063">
        <ele>555.243</ele>
        <time>2021-05-26T09:47:09Z</time>
      </trkpt>
      <trkpt lat="41.663239" lon="2.550102">
        <ele>555.189</ele>
        <time>2021-05-26T09:47:10Z</time>
      </trkpt>
      <trkpt lat="41.663234" lon="2.550140">
        <ele>554.756</ele>
        <time>2021-05-26T09:47:11Z</time>
      </trkpt>
      <trkpt lat="41.663224" lon="2.550173">
        <ele>554.563</ele>
        <time>2021-05-26T09:47:12Z</time>
      </trkpt>
      <trkpt lat="41.663219" lon="2.550200">
        <ele>554.385</ele>
        <time>2021-05-26T09:47:13Z</time>
      </trkpt>
      <trkpt lat="41.663210" lon="2.550229">
        <ele>554.289</ele>
        <time>2021-05-26T09:47:14Z</time>
      </trkpt>
      <trkpt lat="41.663198" lon="2.550259">
        <ele>554.217</ele>
        <time>2021-05-26T09:47:15Z</time>
      </trkpt>
      <trkpt lat="41.663187" lon="2.550284">
        <ele>554.208</ele>
        <time>2021-05-26T09:47:16Z</time>
      </trkpt>
      <trkpt lat="41.663172" lon="2.550312">
        <ele>554.425</ele>
        <time>2021-05-26T09:47:17Z</time>
      </trkpt>
      <trkpt lat="41.663153" lon="2.550339">
        <ele>554.832</ele>
        <time>2021-05-26T09:47:18Z</time>
      </trkpt>
      <trkpt lat="41.663139" lon="2.550369">
        <ele>554.979</ele>
        <time>2021-05-26T09:47:19Z</time>
      </trkpt>
      <trkpt lat="41.663128" lon="2.550404">
        <ele>554.742</ele>
        <time>2021-05-26T09:47:20Z</time>
      </trkpt>
      <trkpt lat="41.663115" lon="2.550435">
        <ele>554.877</ele>
        <time>2021-05-26T09:47:21Z</time>
      </trkpt>
      <trkpt lat="41.663106" lon="2.550461">
        <ele>554.853</ele>
        <time>2021-05-26T09:47:22Z</time>
      </trkpt>
      <trkpt lat="41.663097" lon="2.550492">
        <ele>554.740</ele>
        <time>2021-05-26T09:47:23Z</time>
      </trkpt>
      <trkpt lat="41.663081" lon="2.550524">
        <ele>555.037</ele>
        <time>2021-05-26T09:47:24Z</time>
      </trkpt>
      <trkpt lat="41.663071" lon="2.550557">
        <ele>555.094</ele>
        <time>2021-05-26T09:47:25Z</time>
      </trkpt>
      <trkpt lat="41.663056" lon="2.550583">
        <ele>555.457</ele>
        <time>2021-05-26T09:47:26Z</time>
      </trkpt>
      <trkpt lat="41.663040" lon="2.550608">
        <ele>555.722</ele>
        <time>2021-05-26T09:47:27Z</time>
      </trkpt>
      <trkpt lat="41.663020" lon="2.550630">
        <ele>556.208</ele>
        <time>2021-05-26T09:47:28Z</time>
      </trkpt>
      <trkpt lat="41.662999" lon="2.550647">
        <ele>556.946</ele>
        <time>2021-05-26T09:47:29Z</time>
      </trkpt>
      <trkpt lat="41.662980" lon="2.550672">
        <ele>557.323</ele>
        <time>2021-05-26T09:47:30Z</time>
      </trkpt>
      <trkpt lat="41.662962" lon="2.550696">
        <ele>557.750</ele>
        <time>2021-05-26T09:47:31Z</time>
      </trkpt>
      <trkpt lat="41.662939" lon="2.550720">
        <ele>558.233</ele>
        <time>2021-05-26T09:47:32Z</time>
      </trkpt>
      <trkpt lat="41.662919" lon="2.550740">
        <ele>558.768</ele>
        <time>2021-05-26T09:47:33Z</time>
      </trkpt>
      <trkpt lat="41.662900" lon="2.550764">
        <ele>559.134</ele>
        <time>2021-05-26T09:47:34Z</time>
      </trkpt>
      <trkpt lat="41.662882" lon="2.550794">
        <ele>559.141</ele>
        <time>2021-05-26T09:47:35Z</time>
      </trkpt>
      <trkpt lat="41.662865" lon="2.550824">
        <ele>559.258</ele>
        <time>2021-05-26T09:47:36Z</time>
      </trkpt>
      <trkpt lat="41.662853" lon="2.550856">
        <ele>559.259</ele>
        <time>2021-05-26T09:47:37Z</time>
      </trkpt>
      <trkpt lat="41.662838" lon="2.550885">
        <ele>559.503</ele>
        <time>2021-05-26T09:47:38Z</time>
      </trkpt>
      <trkpt lat="41.662805" lon="2.550998">
        <ele>559.523</ele>
        <time>2021-05-26T09:47:41Z</time>
      </trkpt>
      <trkpt lat="41.662739" lon="2.551090">
        <ele>561.208</ele>
        <time>2021-05-26T09:47:44Z</time>
      </trkpt>
      <trkpt lat="41.662690" lon="2.551149">
        <ele>563.012</ele>
        <time>2021-05-26T09:47:46Z</time>
      </trkpt>
      <trkpt lat="41.662668" lon="2.551182">
        <ele>563.929</ele>
        <time>2021-05-26T09:47:47Z</time>
      </trkpt>
      <trkpt lat="41.662647" lon="2.551208">
        <ele>564.836</ele>
        <time>2021-05-26T09:47:48Z</time>
      </trkpt>
      <trkpt lat="41.662628" lon="2.551226">
        <ele>565.689</ele>
        <time>2021-05-26T09:47:49Z</time>
      </trkpt>
      <trkpt lat="41.662613" lon="2.551247">
        <ele>566.144</ele>
        <time>2021-05-26T09:47:50Z</time>
      </trkpt>
      <trkpt lat="41.662608" lon="2.551271">
        <ele>566.270</ele>
        <time>2021-05-26T09:47:51Z</time>
      </trkpt>
      <trkpt lat="41.662660" lon="2.551393">
        <ele>563.787</ele>
        <time>2021-05-26T09:47:56Z</time>
      </trkpt>
      <trkpt lat="41.662753" lon="2.551417">
        <ele>560.634</ele>
        <time>2021-05-26T09:47:59Z</time>
      </trkpt>
      <trkpt lat="41.662857" lon="2.551432">
        <ele>557.773</ele>
        <time>2021-05-26T09:48:03Z</time>
      </trkpt>
      <trkpt lat="41.662950" lon="2.551441">
        <ele>555.485</ele>
        <time>2021-05-26T09:48:07Z</time>
      </trkpt>
      <trkpt lat="41.663040" lon="2.551499">
        <ele>554.613</ele>
        <time>2021-05-26T09:48:11Z</time>
      </trkpt>
      <trkpt lat="41.663131" lon="2.551539">
        <ele>553.008</ele>
        <time>2021-05-26T09:48:15Z</time>
      </trkpt>
      <trkpt lat="41.663237" lon="2.551571">
        <ele>551.024</ele>
        <time>2021-05-26T09:48:19Z</time>
      </trkpt>
      <trkpt lat="41.663333" lon="2.551608">
        <ele>549.731</ele>
        <time>2021-05-26T09:48:23Z</time>
      </trkpt>
      <trkpt lat="41.663437" lon="2.551666">
        <ele>547.558</ele>
        <time>2021-05-26T09:48:27Z</time>
      </trkpt>
      <trkpt lat="41.663496" lon="2.551687">
        <ele>545.471</ele>
        <time>2021-05-26T09:48:29Z</time>
      </trkpt>
      <trkpt lat="41.663523" lon="2.551695">
        <ele>544.436</ele>
        <time>2021-05-26T09:48:30Z</time>
      </trkpt>
      <trkpt lat="41.663545" lon="2.551706">
        <ele>543.762</ele>
        <time>2021-05-26T09:48:31Z</time>
      </trkpt>
      <trkpt lat="41.663564" lon="2.551723">
        <ele>543.229</ele>
        <time>2021-05-26T09:48:32Z</time>
      </trkpt>
      <trkpt lat="41.663585" lon="2.551739">
        <ele>542.566</ele>
        <time>2021-05-26T09:48:33Z</time>
      </trkpt>
      <trkpt lat="41.663602" lon="2.551756">
        <ele>542.036</ele>
        <time>2021-05-26T09:48:34Z</time>
      </trkpt>
      <trkpt lat="41.663618" lon="2.551782">
        <ele>541.717</ele>
        <time>2021-05-26T09:48:35Z</time>
      </trkpt>
      <trkpt lat="41.663621" lon="2.551809">
        <ele>542.118</ele>
        <time>2021-05-26T09:48:36Z</time>
      </trkpt>
      <trkpt lat="41.663629" lon="2.551839">
        <ele>542.208</ele>
        <time>2021-05-26T09:48:37Z</time>
      </trkpt>
      <trkpt lat="41.663631" lon="2.551922">
        <ele>543.510</ele>
        <time>2021-05-26T09:48:40Z</time>
      </trkpt>
      <trkpt lat="41.663626" lon="2.551948">
        <ele>544.237</ele>
        <time>2021-05-26T09:48:41Z</time>
      </trkpt>
      <trkpt lat="41.663624" lon="2.551996">
        <ele>544.494</ele>
        <time>2021-05-26T09:48:43Z</time>
      </trkpt>
      <trkpt lat="41.663590" lon="2.552109">
        <ele>546.887</ele>
        <time>2021-05-26T09:48:47Z</time>
      </trkpt>
      <trkpt lat="41.663560" lon="2.552227">
        <ele>549.112</ele>
        <time>2021-05-26T09:48:51Z</time>
      </trkpt>
      <trkpt lat="41.663522" lon="2.552356">
        <ele>551.028</ele>
        <time>2021-05-26T09:48:55Z</time>
      </trkpt>
      <trkpt lat="41.663511" lon="2.552389">
        <ele>551.645</ele>
        <time>2021-05-26T09:48:56Z</time>
      </trkpt>
      <trkpt lat="41.663502" lon="2.552420">
        <ele>552.182</ele>
        <time>2021-05-26T09:48:57Z</time>
      </trkpt>
      <trkpt lat="41.663491" lon="2.552445">
        <ele>552.877</ele>
        <time>2021-05-26T09:48:58Z</time>
      </trkpt>
      <trkpt lat="41.663442" lon="2.552564">
        <ele>555.461</ele>
        <time>2021-05-26T09:49:03Z</time>
      </trkpt>
      <trkpt lat="41.663408" lon="2.552688">
        <ele>556.327</ele>
        <time>2021-05-26T09:49:08Z</time>
      </trkpt>
      <trkpt lat="41.663365" lon="2.552796">
        <ele>557.808</ele>
        <time>2021-05-26T09:49:12Z</time>
      </trkpt>
      <trkpt lat="41.663345" lon="2.552856">
        <ele>558.414</ele>
        <time>2021-05-26T09:49:14Z</time>
      </trkpt>
      <trkpt lat="41.663317" lon="2.552945">
        <ele>559.191</ele>
        <time>2021-05-26T09:49:17Z</time>
      </trkpt>
      <trkpt lat="41.663281" lon="2.553083">
        <ele>560.158</ele>
        <time>2021-05-26T09:49:22Z</time>
      </trkpt>
      <trkpt lat="41.663239" lon="2.553214">
        <ele>562.431</ele>
        <time>2021-05-26T09:49:27Z</time>
      </trkpt>
      <trkpt lat="41.663196" lon="2.553333">
        <ele>564.926</ele>
        <time>2021-05-26T09:49:32Z</time>
      </trkpt>
      <trkpt lat="41.663169" lon="2.553458">
        <ele>565.572</ele>
        <time>2021-05-26T09:49:36Z</time>
      </trkpt>
      <trkpt lat="41.663178" lon="2.553578">
        <ele>563.829</ele>
        <time>2021-05-26T09:49:40Z</time>
      </trkpt>
      <trkpt lat="41.663159" lon="2.553716">
        <ele>563.626</ele>
        <time>2021-05-26T09:49:44Z</time>
      </trkpt>
      <trkpt lat="41.663151" lon="2.553853">
        <ele>562.662</ele>
        <time>2021-05-26T09:49:49Z</time>
      </trkpt>
      <trkpt lat="41.663133" lon="2.553982">
        <ele>563.483</ele>
        <time>2021-05-26T09:49:53Z</time>
      </trkpt>
      <trkpt lat="41.663094" lon="2.554119">
        <ele>565.411</ele>
        <time>2021-05-26T09:49:57Z</time>
      </trkpt>
      <trkpt lat="41.663085" lon="2.554248">
        <ele>566.308</ele>
        <time>2021-05-26T09:50:02Z</time>
      </trkpt>
      <trkpt lat="41.663072" lon="2.554375">
        <ele>567.353</ele>
        <time>2021-05-26T09:50:09Z</time>
      </trkpt>
      <trkpt lat="41.663053" lon="2.554502">
        <ele>569.250</ele>
        <time>2021-05-26T09:50:17Z</time>
      </trkpt>
      <trkpt lat="41.663069" lon="2.554623">
        <ele>571.037</ele>
        <time>2021-05-26T09:50:25Z</time>
      </trkpt>
      <trkpt lat="41.663030" lon="2.554740">
        <ele>574.530</ele>
        <time>2021-05-26T09:50:32Z</time>
      </trkpt>
      <trkpt lat="41.663025" lon="2.554872">
        <ele>578.015</ele>
        <time>2021-05-26T09:50:39Z</time>
      </trkpt>
      <trkpt lat="41.662979" lon="2.554993">
        <ele>582.691</ele>
        <time>2021-05-26T09:50:44Z</time>
      </trkpt>
      <trkpt lat="41.663057" lon="2.555057">
        <ele>582.548</ele>
        <time>2021-05-26T09:50:55Z</time>
      </trkpt>
      <trkpt lat="41.663150" lon="2.555018">
        <ele>581.865</ele>
        <time>2021-05-26T09:51:02Z</time>
      </trkpt>
      <trkpt lat="41.663234" lon="2.554960">
        <ele>580.583</ele>
        <time>2021-05-26T09:51:09Z</time>
      </trkpt>
      <trkpt lat="41.663326" lon="2.554932">
        <ele>580.025</ele>
        <time>2021-05-26T09:51:17Z</time>
      </trkpt>
      <trkpt lat="41.663413" lon="2.554901">
        <ele>578.717</ele>
        <time>2021-05-26T09:51:24Z</time>
      </trkpt>
      <trkpt lat="41.663504" lon="2.554857">
        <ele>576.808</ele>
        <time>2021-05-26T09:51:30Z</time>
      </trkpt>
      <trkpt lat="41.663592" lon="2.554801">
        <ele>574.455</ele>
        <time>2021-05-26T09:51:34Z</time>
      </trkpt>
      <trkpt lat="41.663693" lon="2.554759">
        <ele>573.292</ele>
        <time>2021-05-26T09:51:40Z</time>
      </trkpt>
      <trkpt lat="41.663783" lon="2.554744">
        <ele>573.239</ele>
        <time>2021-05-26T09:51:44Z</time>
      </trkpt>
      <trkpt lat="41.663894" lon="2.554729">
        <ele>573.472</ele>
        <time>2021-05-26T09:51:49Z</time>
      </trkpt>
      <trkpt lat="41.663993" lon="2.554722">
        <ele>574.917</ele>
        <time>2021-05-26T09:51:53Z</time>
      </trkpt>
      <trkpt lat="41.664098" lon="2.554738">
        <ele>577.413</ele>
        <time>2021-05-26T09:51:57Z</time>
      </trkpt>
      <trkpt lat="41.664196" lon="2.554769">
        <ele>580.030</ele>
        <time>2021-05-26T09:52:01Z</time>
      </trkpt>
      <trkpt lat="41.664306" lon="2.554834">
        <ele>583.097</ele>
        <time>2021-05-26T09:52:06Z</time>
      </trkpt>
      <trkpt lat="41.664413" lon="2.554870">
        <ele>584.757</ele>
        <time>2021-05-26T09:52:10Z</time>
      </trkpt>
      <trkpt lat="41.664507" lon="2.554878">
        <ele>584.300</ele>
        <time>2021-05-26T09:52:14Z</time>
      </trkpt>
      <trkpt lat="41.664606" lon="2.554857">
        <ele>582.620</ele>
        <time>2021-05-26T09:52:19Z</time>
      </trkpt>
      <trkpt lat="41.664708" lon="2.554859">
        <ele>581.608</ele>
        <time>2021-05-26T09:52:24Z</time>
      </trkpt>
      <trkpt lat="41.664797" lon="2.554900">
        <ele>581.432</ele>
        <time>2021-05-26T09:52:28Z</time>
      </trkpt>
      <trkpt lat="41.664878" lon="2.554968">
        <ele>581.639</ele>
        <time>2021-05-26T09:52:32Z</time>
      </trkpt>
      <trkpt lat="41.664892" lon="2.554989">
        <ele>581.776</ele>
        <time>2021-05-26T09:52:33Z</time>
      </trkpt>
      <trkpt lat="41.664925" lon="2.555036">
        <ele>582.099</ele>
        <time>2021-05-26T09:52:35Z</time>
      </trkpt>
      <trkpt lat="41.664938" lon="2.555056">
        <ele>582.224</ele>
        <time>2021-05-26T09:52:36Z</time>
      </trkpt>
      <trkpt lat="41.664946" lon="2.555082">
        <ele>582.560</ele>
        <time>2021-05-26T09:52:37Z</time>
      </trkpt>
      <trkpt lat="41.664954" lon="2.555110">
        <ele>582.947</ele>
        <time>2021-05-26T09:52:38Z</time>
      </trkpt>
      <trkpt lat="41.664958" lon="2.555136">
        <ele>583.374</ele>
        <time>2021-05-26T09:52:39Z</time>
      </trkpt>
      <trkpt lat="41.664973" lon="2.555183">
        <ele>583.877</ele>
        <time>2021-05-26T09:52:41Z</time>
      </trkpt>
      <trkpt lat="41.664980" lon="2.555213">
        <ele>584.261</ele>
        <time>2021-05-26T09:52:42Z</time>
      </trkpt>
      <trkpt lat="41.664985" lon="2.555246">
        <ele>584.727</ele>
        <time>2021-05-26T09:52:43Z</time>
      </trkpt>
      <trkpt lat="41.664990" lon="2.555276">
        <ele>585.208</ele>
        <time>2021-05-26T09:52:44Z</time>
      </trkpt>
      <trkpt lat="41.664995" lon="2.555303">
        <ele>585.524</ele>
        <time>2021-05-26T09:52:45Z</time>
      </trkpt>
      <trkpt lat="41.664998" lon="2.555328">
        <ele>585.861</ele>
        <time>2021-05-26T09:52:46Z</time>
      </trkpt>
      <trkpt lat="41.665004" lon="2.555353">
        <ele>585.928</ele>
        <time>2021-05-26T09:52:47Z</time>
      </trkpt>
      <trkpt lat="41.665014" lon="2.555380">
        <ele>585.851</ele>
        <time>2021-05-26T09:52:48Z</time>
      </trkpt>
      <trkpt lat="41.665027" lon="2.555406">
        <ele>585.516</ele>
        <time>2021-05-26T09:52:49Z</time>
      </trkpt>
      <trkpt lat="41.665059" lon="2.555474">
        <ele>584.842</ele>
        <time>2021-05-26T09:52:52Z</time>
      </trkpt>
      <trkpt lat="41.665066" lon="2.555497">
        <ele>584.729</ele>
        <time>2021-05-26T09:52:53Z</time>
      </trkpt>
      <trkpt lat="41.665067" lon="2.555628">
        <ele>586.236</ele>
        <time>2021-05-26T09:52:57Z</time>
      </trkpt>
      <trkpt lat="41.665066" lon="2.555775">
        <ele>588.057</ele>
        <time>2021-05-26T09:53:01Z</time>
      </trkpt>
      <trkpt lat="41.665070" lon="2.555913">
        <ele>589.200</ele>
        <time>2021-05-26T09:53:05Z</time>
      </trkpt>
      <trkpt lat="41.665071" lon="2.556054">
        <ele>590.420</ele>
        <time>2021-05-26T09:53:09Z</time>
      </trkpt>
      <trkpt lat="41.665077" lon="2.556199">
        <ele>591.308</ele>
        <time>2021-05-26T09:53:13Z</time>
      </trkpt>
      <trkpt lat="41.665086" lon="2.556330">
        <ele>592.142</ele>
        <time>2021-05-26T09:53:17Z</time>
      </trkpt>
      <trkpt lat="41.665093" lon="2.556458">
        <ele>593.689</ele>
        <time>2021-05-26T09:53:21Z</time>
      </trkpt>
      <trkpt lat="41.665149" lon="2.556556">
        <ele>593.466</ele>
        <time>2021-05-26T09:53:25Z</time>
      </trkpt>
      <trkpt lat="41.665242" lon="2.556567">
        <ele>590.289</ele>
        <time>2021-05-26T09:53:28Z</time>
      </trkpt>
      <trkpt lat="41.665351" lon="2.556522">
        <ele>587.244</ele>
        <time>2021-05-26T09:53:32Z</time>
      </trkpt>
      <trkpt lat="41.665445" lon="2.556459">
        <ele>584.920</ele>
        <time>2021-05-26T09:53:36Z</time>
      </trkpt>
      <trkpt lat="41.665487" lon="2.556426">
        <ele>583.667</ele>
        <time>2021-05-26T09:53:38Z</time>
      </trkpt>
      <trkpt lat="41.665525" lon="2.556398">
        <ele>582.644</ele>
        <time>2021-05-26T09:53:40Z</time>
      </trkpt>
      <trkpt lat="41.665543" lon="2.556385">
        <ele>582.099</ele>
        <time>2021-05-26T09:53:41Z</time>
      </trkpt>
      <trkpt lat="41.665565" lon="2.556371">
        <ele>581.407</ele>
        <time>2021-05-26T09:53:42Z</time>
      </trkpt>
      <trkpt lat="41.665586" lon="2.556359">
        <ele>580.927</ele>
        <time>2021-05-26T09:53:43Z</time>
      </trkpt>
      <trkpt lat="41.665613" lon="2.556349">
        <ele>580.608</ele>
        <time>2021-05-26T09:53:44Z</time>
      </trkpt>
      <trkpt lat="41.665636" lon="2.556338">
        <ele>580.226</ele>
        <time>2021-05-26T09:53:45Z</time>
      </trkpt>
      <trkpt lat="41.665663" lon="2.556334">
        <ele>580.073</ele>
        <time>2021-05-26T09:53:46Z</time>
      </trkpt>
      <trkpt lat="41.665716" lon="2.556334">
        <ele>579.940</ele>
        <time>2021-05-26T09:53:48Z</time>
      </trkpt>
      <trkpt lat="41.665743" lon="2.556339">
        <ele>580.063</ele>
        <time>2021-05-26T09:53:49Z</time>
      </trkpt>
      <trkpt lat="41.665801" lon="2.556359">
        <ele>580.378</ele>
        <time>2021-05-26T09:53:51Z</time>
      </trkpt>
      <trkpt lat="41.665826" lon="2.556375">
        <ele>580.754</ele>
        <time>2021-05-26T09:53:52Z</time>
      </trkpt>
      <trkpt lat="41.665854" lon="2.556397">
        <ele>580.931</ele>
        <time>2021-05-26T09:53:53Z</time>
      </trkpt>
      <trkpt lat="41.665882" lon="2.556416">
        <ele>581.068</ele>
        <time>2021-05-26T09:53:54Z</time>
      </trkpt>
      <trkpt lat="41.665908" lon="2.556430">
        <ele>581.036</ele>
        <time>2021-05-26T09:53:55Z</time>
      </trkpt>
      <trkpt lat="41.665987" lon="2.556492">
        <ele>581.017</ele>
        <time>2021-05-26T09:53:58Z</time>
      </trkpt>
      <trkpt lat="41.666009" lon="2.556513">
        <ele>580.918</ele>
        <time>2021-05-26T09:53:59Z</time>
      </trkpt>
      <trkpt lat="41.666034" lon="2.556537">
        <ele>580.908</ele>
        <time>2021-05-26T09:54:00Z</time>
      </trkpt>
      <trkpt lat="41.666056" lon="2.556562">
        <ele>580.830</ele>
        <time>2021-05-26T09:54:01Z</time>
      </trkpt>
      <trkpt lat="41.666078" lon="2.556587">
        <ele>580.887</ele>
        <time>2021-05-26T09:54:02Z</time>
      </trkpt>
      <trkpt lat="41.666099" lon="2.556610">
        <ele>580.694</ele>
        <time>2021-05-26T09:54:03Z</time>
      </trkpt>
      <trkpt lat="41.666117" lon="2.556635">
        <ele>580.567</ele>
        <time>2021-05-26T09:54:04Z</time>
      </trkpt>
      <trkpt lat="41.666128" lon="2.556667">
        <ele>580.522</ele>
        <time>2021-05-26T09:54:05Z</time>
      </trkpt>
      <trkpt lat="41.666139" lon="2.556701">
        <ele>580.428</ele>
        <time>2021-05-26T09:54:06Z</time>
      </trkpt>
      <trkpt lat="41.666150" lon="2.556729">
        <ele>580.485</ele>
        <time>2021-05-26T09:54:07Z</time>
      </trkpt>
      <trkpt lat="41.666174" lon="2.556780">
        <ele>580.082</ele>
        <time>2021-05-26T09:54:08Z</time>
      </trkpt>
      <trkpt lat="41.666183" lon="2.556809">
        <ele>579.944</ele>
        <time>2021-05-26T09:54:10Z</time>
      </trkpt>
      <trkpt lat="41.666196" lon="2.556837">
        <ele>579.705</ele>
        <time>2021-05-26T09:54:11Z</time>
      </trkpt>
      <trkpt lat="41.666205" lon="2.556864">
        <ele>579.615</ele>
        <time>2021-05-26T09:54:12Z</time>
      </trkpt>
      <trkpt lat="41.666216" lon="2.556891">
        <ele>579.408</ele>
        <time>2021-05-26T09:54:13Z</time>
      </trkpt>
      <trkpt lat="41.666230" lon="2.556922">
        <ele>579.131</ele>
        <time>2021-05-26T09:54:14Z</time>
      </trkpt>
      <trkpt lat="41.666239" lon="2.556954">
        <ele>578.938</ele>
        <time>2021-05-26T09:54:15Z</time>
      </trkpt>
      <trkpt lat="41.666245" lon="2.556993">
        <ele>578.735</ele>
        <time>2021-05-26T09:54:16Z</time>
      </trkpt>
      <trkpt lat="41.666247" lon="2.557034">
        <ele>578.648</ele>
        <time>2021-05-26T09:54:17Z</time>
      </trkpt>
      <trkpt lat="41.666250" lon="2.557105">
        <ele>578.543</ele>
        <time>2021-05-26T09:54:19Z</time>
      </trkpt>
      <trkpt lat="41.666239" lon="2.557236">
        <ele>578.979</ele>
        <time>2021-05-26T09:54:23Z</time>
      </trkpt>
      <trkpt lat="41.666217" lon="2.557313">
        <ele>579.396</ele>
        <time>2021-05-26T09:54:26Z</time>
      </trkpt>
      <trkpt lat="41.666202" lon="2.557345">
        <ele>579.743</ele>
        <time>2021-05-26T09:54:27Z</time>
      </trkpt>
      <trkpt lat="41.666190" lon="2.557374">
        <ele>580.131</ele>
        <time>2021-05-26T09:54:28Z</time>
      </trkpt>
      <trkpt lat="41.666178" lon="2.557402">
        <ele>580.461</ele>
        <time>2021-05-26T09:54:29Z</time>
      </trkpt>
      <trkpt lat="41.666162" lon="2.557428">
        <ele>581.007</ele>
        <time>2021-05-26T09:54:30Z</time>
      </trkpt>
      <trkpt lat="41.666145" lon="2.557459">
        <ele>581.608</ele>
        <time>2021-05-26T09:54:31Z</time>
      </trkpt>
      <trkpt lat="41.666127" lon="2.557486">
        <ele>582.310</ele>
        <time>2021-05-26T09:54:32Z</time>
      </trkpt>
      <trkpt lat="41.666106" lon="2.557509">
        <ele>583.147</ele>
        <time>2021-05-26T09:54:33Z</time>
      </trkpt>
      <trkpt lat="41.666083" lon="2.557534">
        <ele>583.694</ele>
        <time>2021-05-26T09:54:34Z</time>
      </trkpt>
      <trkpt lat="41.666060" lon="2.557557">
        <ele>584.227</ele>
        <time>2021-05-26T09:54:35Z</time>
      </trkpt>
      <trkpt lat="41.666041" lon="2.557581">
        <ele>584.652</ele>
        <time>2021-05-26T09:54:36Z</time>
      </trkpt>
      <trkpt lat="41.666022" lon="2.557607">
        <ele>584.948</ele>
        <time>2021-05-26T09:54:37Z</time>
      </trkpt>
      <trkpt lat="41.666001" lon="2.557634">
        <ele>585.325</ele>
        <time>2021-05-26T09:54:38Z</time>
      </trkpt>
      <trkpt lat="41.665982" lon="2.557658">
        <ele>585.752</ele>
        <time>2021-05-26T09:54:39Z</time>
      </trkpt>
      <trkpt lat="41.665967" lon="2.557687">
        <ele>585.894</ele>
        <time>2021-05-26T09:54:40Z</time>
      </trkpt>
      <trkpt lat="41.665954" lon="2.557712">
        <ele>585.957</ele>
        <time>2021-05-26T09:54:41Z</time>
      </trkpt>
      <trkpt lat="41.665941" lon="2.557735">
        <ele>586.122</ele>
        <time>2021-05-26T09:54:42Z</time>
      </trkpt>
      <trkpt lat="41.665925" lon="2.557765">
        <ele>586.208</ele>
        <time>2021-05-26T09:54:43Z</time>
      </trkpt>
      <trkpt lat="41.665914" lon="2.557792">
        <ele>586.166</ele>
        <time>2021-05-26T09:54:44Z</time>
      </trkpt>
      <trkpt lat="41.665898" lon="2.557822">
        <ele>586.023</ele>
        <time>2021-05-26T09:54:45Z</time>
      </trkpt>
      <trkpt lat="41.665882" lon="2.557850">
        <ele>585.930</ele>
        <time>2021-05-26T09:54:46Z</time>
      </trkpt>
      <trkpt lat="41.665865" lon="2.557873">
        <ele>586.033</ele>
        <time>2021-05-26T09:54:47Z</time>
      </trkpt>
      <trkpt lat="41.665858" lon="2.557905">
        <ele>585.538</ele>
        <time>2021-05-26T09:54:48Z</time>
      </trkpt>
      <trkpt lat="41.665850" lon="2.557934">
        <ele>585.194</ele>
        <time>2021-05-26T09:54:49Z</time>
      </trkpt>
      <trkpt lat="41.665846" lon="2.557957">
        <ele>584.751</ele>
        <time>2021-05-26T09:54:50Z</time>
      </trkpt>
      <trkpt lat="41.665840" lon="2.557983">
        <ele>584.418</ele>
        <time>2021-05-26T09:54:51Z</time>
      </trkpt>
      <trkpt lat="41.665831" lon="2.558005">
        <ele>584.186</ele>
        <time>2021-05-26T09:54:52Z</time>
      </trkpt>
      <trkpt lat="41.665816" lon="2.558029">
        <ele>583.960</ele>
        <time>2021-05-26T09:54:53Z</time>
      </trkpt>
      <trkpt lat="41.665798" lon="2.558059">
        <ele>583.726</ele>
        <time>2021-05-26T09:54:54Z</time>
      </trkpt>
      <trkpt lat="41.665780" lon="2.558085">
        <ele>583.508</ele>
        <time>2021-05-26T09:54:55Z</time>
      </trkpt>
      <trkpt lat="41.665745" lon="2.558140">
        <ele>583.255</ele>
        <time>2021-05-26T09:54:57Z</time>
      </trkpt>
      <trkpt lat="41.665726" lon="2.558169">
        <ele>583.072</ele>
        <time>2021-05-26T09:54:58Z</time>
      </trkpt>
      <trkpt lat="41.665707" lon="2.558199">
        <ele>582.939</ele>
        <time>2021-05-26T09:54:59Z</time>
      </trkpt>
      <trkpt lat="41.665685" lon="2.558227">
        <ele>582.852</ele>
        <time>2021-05-26T09:55:00Z</time>
      </trkpt>
      <trkpt lat="41.665666" lon="2.558250">
        <ele>582.887</ele>
        <time>2021-05-26T09:55:01Z</time>
      </trkpt>
      <trkpt lat="41.665649" lon="2.558267">
        <ele>582.983</ele>
        <time>2021-05-26T09:55:02Z</time>
      </trkpt>
      <trkpt lat="41.665633" lon="2.558287">
        <ele>582.940</ele>
        <time>2021-05-26T09:55:03Z</time>
      </trkpt>
      <trkpt lat="41.665614" lon="2.558305">
        <ele>583.147</ele>
        <time>2021-05-26T09:55:04Z</time>
      </trkpt>
      <trkpt lat="41.665593" lon="2.558325">
        <ele>583.271</ele>
        <time>2021-05-26T09:55:05Z</time>
      </trkpt>
      <trkpt lat="41.665575" lon="2.558342">
        <ele>583.341</ele>
        <time>2021-05-26T09:55:06Z</time>
      </trkpt>
      <trkpt lat="41.665553" lon="2.558359">
        <ele>583.415</ele>
        <time>2021-05-26T09:55:07Z</time>
      </trkpt>
      <trkpt lat="41.665536" lon="2.558377">
        <ele>583.308</ele>
        <time>2021-05-26T09:55:08Z</time>
      </trkpt>
      <trkpt lat="41.665517" lon="2.558390">
        <ele>583.424</ele>
        <time>2021-05-26T09:55:09Z</time>
      </trkpt>
      <trkpt lat="41.665503" lon="2.558407">
        <ele>583.251</ele>
        <time>2021-05-26T09:55:10Z</time>
      </trkpt>
      <trkpt lat="41.665490" lon="2.558424">
        <ele>583.158</ele>
        <time>2021-05-26T09:55:11Z</time>
      </trkpt>
      <trkpt lat="41.665476" lon="2.558444">
        <ele>582.871</ele>
        <time>2021-05-26T09:55:12Z</time>
      </trkpt>
      <trkpt lat="41.665436" lon="2.558480">
        <ele>582.726</ele>
        <time>2021-05-26T09:55:14Z</time>
      </trkpt>
      <trkpt lat="41.665417" lon="2.558489">
        <ele>582.822</ele>
        <time>2021-05-26T09:55:15Z</time>
      </trkpt>
      <trkpt lat="41.665394" lon="2.558502">
        <ele>582.949</ele>
        <time>2021-05-26T09:55:16Z</time>
      </trkpt>
      <trkpt lat="41.665369" lon="2.558515">
        <ele>583.036</ele>
        <time>2021-05-26T09:55:17Z</time>
      </trkpt>
      <trkpt lat="41.665345" lon="2.558529">
        <ele>583.113</ele>
        <time>2021-05-26T09:55:18Z</time>
      </trkpt>
      <trkpt lat="41.665320" lon="2.558540">
        <ele>583.243</ele>
        <time>2021-05-26T09:55:19Z</time>
      </trkpt>
      <trkpt lat="41.665296" lon="2.558547">
        <ele>583.507</ele>
        <time>2021-05-26T09:55:20Z</time>
      </trkpt>
      <trkpt lat="41.665272" lon="2.558554">
        <ele>583.708</ele>
        <time>2021-05-26T09:55:21Z</time>
      </trkpt>
      <trkpt lat="41.665248" lon="2.558566">
        <ele>583.888</ele>
        <time>2021-05-26T09:55:22Z</time>
      </trkpt>
      <trkpt lat="41.665221" lon="2.558575">
        <ele>584.035</ele>
        <time>2021-05-26T09:55:23Z</time>
      </trkpt>
      <trkpt lat="41.665174" lon="2.558589">
        <ele>584.552</ele>
        <time>2021-05-26T09:55:24Z</time>
      </trkpt>
      <trkpt lat="41.665149" lon="2.558597">
        <ele>584.775</ele>
        <time>2021-05-26T09:55:26Z</time>
      </trkpt>
      <trkpt lat="41.665043" lon="2.558632">
        <ele>585.520</ele>
        <time>2021-05-26T09:55:30Z</time>
      </trkpt>
      <trkpt lat="41.664943" lon="2.558676">
        <ele>586.846</ele>
        <time>2021-05-26T09:55:34Z</time>
      </trkpt>
      <trkpt lat="41.664849" lon="2.558716">
        <ele>588.723</ele>
        <time>2021-05-26T09:55:38Z</time>
      </trkpt>
      <trkpt lat="41.664760" lon="2.558797">
        <ele>589.390</ele>
        <time>2021-05-26T09:55:42Z</time>
      </trkpt>
      <trkpt lat="41.664674" lon="2.558887">
        <ele>591.736</ele>
        <time>2021-05-26T09:55:47Z</time>
      </trkpt>
      <trkpt lat="41.664636" lon="2.559007">
        <ele>591.017</ele>
        <time>2021-05-26T09:55:52Z</time>
      </trkpt>
      <trkpt lat="41.664596" lon="2.559127">
        <ele>590.618</ele>
        <time>2021-05-26T09:55:57Z</time>
      </trkpt>
      <trkpt lat="41.664556" lon="2.559250">
        <ele>590.008</ele>
        <time>2021-05-26T09:56:01Z</time>
      </trkpt>
      <trkpt lat="41.664536" lon="2.559399">
        <ele>586.650</ele>
        <time>2021-05-26T09:56:05Z</time>
      </trkpt>
      <trkpt lat="41.664507" lon="2.559514">
        <ele>585.237</ele>
        <time>2021-05-26T09:56:08Z</time>
      </trkpt>
      <trkpt lat="41.664479" lon="2.559648">
        <ele>583.114</ele>
        <time>2021-05-26T09:56:11Z</time>
      </trkpt>
      <trkpt lat="41.664426" lon="2.559793">
        <ele>582.137</ele>
        <time>2021-05-26T09:56:15Z</time>
      </trkpt>
      <trkpt lat="41.664361" lon="2.559896">
        <ele>582.992</ele>
        <time>2021-05-26T09:56:18Z</time>
      </trkpt>
      <trkpt lat="41.664321" lon="2.559957">
        <ele>583.428</ele>
        <time>2021-05-26T09:56:20Z</time>
      </trkpt>
      <trkpt lat="41.664295" lon="2.560014">
        <ele>583.355</ele>
        <time>2021-05-26T09:56:21Z</time>
      </trkpt>
      <trkpt lat="41.664281" lon="2.560045">
        <ele>583.492</ele>
        <time>2021-05-26T09:56:23Z</time>
      </trkpt>
      <trkpt lat="41.664232" lon="2.560146">
        <ele>584.143</ele>
        <time>2021-05-26T09:56:26Z</time>
      </trkpt>
      <trkpt lat="41.664204" lon="2.560201">
        <ele>584.564</ele>
        <time>2021-05-26T09:56:28Z</time>
      </trkpt>
      <trkpt lat="41.664171" lon="2.560301">
        <ele>584.010</ele>
        <time>2021-05-26T09:56:31Z</time>
      </trkpt>
      <trkpt lat="41.664136" lon="2.560384">
        <ele>583.308</ele>
        <time>2021-05-26T09:56:34Z</time>
      </trkpt>
      <trkpt lat="41.664061" lon="2.560495">
        <ele>583.891</ele>
        <time>2021-05-26T09:56:39Z</time>
      </trkpt>
      <trkpt lat="41.664018" lon="2.560627">
        <ele>582.568</ele>
        <time>2021-05-26T09:56:43Z</time>
      </trkpt>
      <trkpt lat="41.664010" lon="2.560780">
        <ele>579.695</ele>
        <time>2021-05-26T09:56:47Z</time>
      </trkpt>
      <trkpt lat="41.664028" lon="2.560907">
        <ele>576.378</ele>
        <time>2021-05-26T09:56:50Z</time>
      </trkpt>
      <trkpt lat="41.664036" lon="2.561055">
        <ele>573.583</ele>
        <time>2021-05-26T09:56:54Z</time>
      </trkpt>
      <trkpt lat="41.663993" lon="2.561196">
        <ele>573.859</ele>
        <time>2021-05-26T09:56:58Z</time>
      </trkpt>
      <trkpt lat="41.663967" lon="2.561276">
        <ele>574.046</ele>
        <time>2021-05-26T09:57:01Z</time>
      </trkpt>
      <trkpt lat="41.663956" lon="2.561303">
        <ele>574.243</ele>
        <time>2021-05-26T09:57:02Z</time>
      </trkpt>
      <trkpt lat="41.663936" lon="2.561352">
        <ele>574.571</ele>
        <time>2021-05-26T09:57:04Z</time>
      </trkpt>
      <trkpt lat="41.663917" lon="2.561377">
        <ele>574.941</ele>
        <time>2021-05-26T09:57:05Z</time>
      </trkpt>
      <trkpt lat="41.663884" lon="2.561419">
        <ele>576.015</ele>
        <time>2021-05-26T09:57:07Z</time>
      </trkpt>
      <trkpt lat="41.663863" lon="2.561435">
        <ele>576.608</ele>
        <time>2021-05-26T09:57:08Z</time>
      </trkpt>
      <trkpt lat="41.663819" lon="2.561470">
        <ele>577.814</ele>
        <time>2021-05-26T09:57:10Z</time>
      </trkpt>
      <trkpt lat="41.663773" lon="2.561483">
        <ele>579.261</ele>
        <time>2021-05-26T09:57:12Z</time>
      </trkpt>
      <trkpt lat="41.663679" lon="2.561505">
        <ele>582.198</ele>
        <time>2021-05-26T09:57:16Z</time>
      </trkpt>
      <trkpt lat="41.663623" lon="2.561636">
        <ele>582.121</ele>
        <time>2021-05-26T09:57:23Z</time>
      </trkpt>
      <trkpt lat="41.663659" lon="2.561747">
        <ele>581.176</ele>
        <time>2021-05-26T09:57:27Z</time>
      </trkpt>
      <trkpt lat="41.663714" lon="2.561856">
        <ele>580.582</ele>
        <time>2021-05-26T09:57:31Z</time>
      </trkpt>
      <trkpt lat="41.663780" lon="2.561949">
        <ele>580.179</ele>
        <time>2021-05-26T09:57:35Z</time>
      </trkpt>
      <trkpt lat="41.663870" lon="2.562011">
        <ele>580.576</ele>
        <time>2021-05-26T09:57:39Z</time>
      </trkpt>
      <trkpt lat="41.663959" lon="2.561983">
        <ele>578.662</ele>
        <time>2021-05-26T09:57:42Z</time>
      </trkpt>
      <trkpt lat="41.664055" lon="2.561939">
        <ele>576.183</ele>
        <time>2021-05-26T09:57:46Z</time>
      </trkpt>
      <trkpt lat="41.664153" lon="2.561911">
        <ele>574.211</ele>
        <time>2021-05-26T09:57:52Z</time>
      </trkpt>
      <trkpt lat="41.664254" lon="2.561942">
        <ele>573.708</ele>
        <time>2021-05-26T09:58:03Z</time>
      </trkpt>
      <trkpt lat="41.664357" lon="2.561964">
        <ele>573.193</ele>
        <time>2021-05-26T09:58:09Z</time>
      </trkpt>
      <trkpt lat="41.664469" lon="2.561901">
        <ele>568.290</ele>
        <time>2021-05-26T09:58:14Z</time>
      </trkpt>
      <trkpt lat="41.664580" lon="2.561905">
        <ele>565.677</ele>
        <time>2021-05-26T09:58:19Z</time>
      </trkpt>
      <trkpt lat="41.664688" lon="2.561973">
        <ele>566.150</ele>
        <time>2021-05-26T09:58:23Z</time>
      </trkpt>
      <trkpt lat="41.664773" lon="2.562064">
        <ele>567.245</ele>
        <time>2021-05-26T09:58:27Z</time>
      </trkpt>
      <trkpt lat="41.664819" lon="2.562182">
        <ele>570.421</ele>
        <time>2021-05-26T09:58:31Z</time>
      </trkpt>
      <trkpt lat="41.664864" lon="2.562308">
        <ele>573.228</ele>
        <time>2021-05-26T09:58:35Z</time>
      </trkpt>
      <trkpt lat="41.664943" lon="2.562371">
        <ele>572.415</ele>
        <time>2021-05-26T09:58:39Z</time>
      </trkpt>
      <trkpt lat="41.665065" lon="2.562381">
        <ele>568.755</ele>
        <time>2021-05-26T09:58:43Z</time>
      </trkpt>
      <trkpt lat="41.665152" lon="2.562340">
        <ele>564.507</ele>
        <time>2021-05-26T09:58:46Z</time>
      </trkpt>
      <trkpt lat="41.665234" lon="2.562291">
        <ele>560.117</ele>
        <time>2021-05-26T09:58:49Z</time>
      </trkpt>
      <trkpt lat="41.665332" lon="2.562284">
        <ele>557.408</ele>
        <time>2021-05-26T09:58:53Z</time>
      </trkpt>
      <trkpt lat="41.665419" lon="2.562364">
        <ele>558.812</ele>
        <time>2021-05-26T09:58:56Z</time>
      </trkpt>
      <trkpt lat="41.665495" lon="2.562452">
        <ele>560.569</ele>
        <time>2021-05-26T09:58:59Z</time>
      </trkpt>
      <trkpt lat="41.665565" lon="2.562540">
        <ele>562.496</ele>
        <time>2021-05-26T09:59:02Z</time>
      </trkpt>
      <trkpt lat="41.665654" lon="2.562591">
        <ele>564.259</ele>
        <time>2021-05-26T09:59:06Z</time>
      </trkpt>
      <trkpt lat="41.665751" lon="2.562513">
        <ele>561.424</ele>
        <time>2021-05-26T09:59:09Z</time>
      </trkpt>
      <trkpt lat="41.665845" lon="2.562404">
        <ele>558.410</ele>
        <time>2021-05-26T09:59:12Z</time>
      </trkpt>
      <trkpt lat="41.665919" lon="2.562308">
        <ele>557.097</ele>
        <time>2021-05-26T09:59:15Z</time>
      </trkpt>
      <trkpt lat="41.665993" lon="2.562200">
        <ele>555.024</ele>
        <time>2021-05-26T09:59:19Z</time>
      </trkpt>
      <trkpt lat="41.666041" lon="2.562094">
        <ele>551.815</ele>
        <time>2021-05-26T09:59:23Z</time>
      </trkpt>
      <trkpt lat="41.666098" lon="2.561994">
        <ele>548.865</ele>
        <time>2021-05-26T09:59:27Z</time>
      </trkpt>
      <trkpt lat="41.666163" lon="2.561908">
        <ele>545.811</ele>
        <time>2021-05-26T09:59:31Z</time>
      </trkpt>
      <trkpt lat="41.666240" lon="2.561808">
        <ele>541.808</ele>
        <time>2021-05-26T09:59:35Z</time>
      </trkpt>
      <trkpt lat="41.666321" lon="2.561718">
        <ele>538.118</ele>
        <time>2021-05-26T09:59:39Z</time>
      </trkpt>
      <trkpt lat="41.666341" lon="2.561695">
        <ele>537.145</ele>
        <time>2021-05-26T09:59:40Z</time>
      </trkpt>
      <trkpt lat="41.666364" lon="2.561680">
        <ele>536.562</ele>
        <time>2021-05-26T09:59:41Z</time>
      </trkpt>
      <trkpt lat="41.666384" lon="2.561668">
        <ele>536.035</ele>
        <time>2021-05-26T09:59:42Z</time>
      </trkpt>
      <trkpt lat="41.666406" lon="2.561663">
        <ele>535.820</ele>
        <time>2021-05-26T09:59:43Z</time>
      </trkpt>
      <trkpt lat="41.666428" lon="2.561663">
        <ele>535.816</ele>
        <time>2021-05-26T09:59:44Z</time>
      </trkpt>
      <trkpt lat="41.666460" lon="2.561659">
        <ele>535.613</ele>
        <time>2021-05-26T09:59:46Z</time>
      </trkpt>
      <trkpt lat="41.666485" lon="2.561670">
        <ele>536.210</ele>
        <time>2021-05-26T09:59:47Z</time>
      </trkpt>
      <trkpt lat="41.666510" lon="2.561685">
        <ele>536.852</ele>
        <time>2021-05-26T09:59:48Z</time>
      </trkpt>
      <trkpt lat="41.666528" lon="2.561703">
        <ele>537.653</ele>
        <time>2021-05-26T09:59:49Z</time>
      </trkpt>
      <trkpt lat="41.666635" lon="2.561762">
        <ele>539.908</ele>
        <time>2021-05-26T09:59:53Z</time>
      </trkpt>
      <trkpt lat="41.666744" lon="2.561802">
        <ele>540.108</ele>
        <time>2021-05-26T09:59:57Z</time>
      </trkpt>
      <trkpt lat="41.666835" lon="2.561837">
        <ele>540.092</ele>
        <time>2021-05-26T10:00:00Z</time>
      </trkpt>
      <trkpt lat="41.666926" lon="2.561888">
        <ele>540.349</ele>
        <time>2021-05-26T10:00:03Z</time>
      </trkpt>
      <trkpt lat="41.667018" lon="2.561920">
        <ele>539.046</ele>
        <time>2021-05-26T10:00:06Z</time>
      </trkpt>
      <trkpt lat="41.667113" lon="2.561965">
        <ele>537.719</ele>
        <time>2021-05-26T10:00:09Z</time>
      </trkpt>
      <trkpt lat="41.667218" lon="2.562010">
        <ele>535.864</ele>
        <time>2021-05-26T10:00:13Z</time>
      </trkpt>
      <trkpt lat="41.667299" lon="2.562080">
        <ele>534.920</ele>
        <time>2021-05-26T10:00:17Z</time>
      </trkpt>
      <trkpt lat="41.667394" lon="2.562155">
        <ele>533.167</ele>
        <time>2021-05-26T10:00:21Z</time>
      </trkpt>
      <trkpt lat="41.667449" lon="2.562270">
        <ele>532.224</ele>
        <time>2021-05-26T10:00:25Z</time>
      </trkpt>
      <trkpt lat="41.667442" lon="2.562413">
        <ele>533.167</ele>
        <time>2021-05-26T10:00:29Z</time>
      </trkpt>
      <trkpt lat="41.667438" lon="2.562446">
        <ele>533.481</ele>
        <time>2021-05-26T10:00:30Z</time>
      </trkpt>
      <trkpt lat="41.667437" lon="2.562479">
        <ele>533.619</ele>
        <time>2021-05-26T10:00:31Z</time>
      </trkpt>
      <trkpt lat="41.667443" lon="2.562508">
        <ele>533.508</ele>
        <time>2021-05-26T10:00:32Z</time>
      </trkpt>
      <trkpt lat="41.667448" lon="2.562539">
        <ele>533.433</ele>
        <time>2021-05-26T10:00:33Z</time>
      </trkpt>
      <trkpt lat="41.667448" lon="2.562572">
        <ele>533.670</ele>
        <time>2021-05-26T10:00:34Z</time>
      </trkpt>
      <trkpt lat="41.667448" lon="2.562605">
        <ele>533.887</ele>
        <time>2021-05-26T10:00:35Z</time>
      </trkpt>
      <trkpt lat="41.667449" lon="2.562638">
        <ele>533.970</ele>
        <time>2021-05-26T10:00:36Z</time>
      </trkpt>
      <trkpt lat="41.667451" lon="2.562673">
        <ele>534.015</ele>
        <time>2021-05-26T10:00:37Z</time>
      </trkpt>
      <trkpt lat="41.667465" lon="2.562749">
        <ele>533.651</ele>
        <time>2021-05-26T10:00:39Z</time>
      </trkpt>
      <trkpt lat="41.667458" lon="2.562870">
        <ele>534.848</ele>
        <time>2021-05-26T10:00:42Z</time>
      </trkpt>
      <trkpt lat="41.667454" lon="2.563003">
        <ele>535.975</ele>
        <time>2021-05-26T10:00:45Z</time>
      </trkpt>
      <trkpt lat="41.667460" lon="2.563134">
        <ele>536.127</ele>
        <time>2021-05-26T10:00:48Z</time>
      </trkpt>
      <trkpt lat="41.667475" lon="2.563281">
        <ele>535.368</ele>
        <time>2021-05-26T10:00:52Z</time>
      </trkpt>
      <trkpt lat="41.667503" lon="2.563424">
        <ele>533.914</ele>
        <time>2021-05-26T10:00:56Z</time>
      </trkpt>
      <trkpt lat="41.667533" lon="2.563565">
        <ele>532.608</ele>
        <time>2021-05-26T10:01:00Z</time>
      </trkpt>
      <trkpt lat="41.667550" lon="2.563703">
        <ele>531.569</ele>
        <time>2021-05-26T10:01:04Z</time>
      </trkpt>
      <trkpt lat="41.667558" lon="2.563852">
        <ele>530.616</ele>
        <time>2021-05-26T10:01:09Z</time>
      </trkpt>
      <trkpt lat="41.667551" lon="2.563994">
        <ele>530.243</ele>
        <time>2021-05-26T10:01:13Z</time>
      </trkpt>
      <trkpt lat="41.667557" lon="2.564132">
        <ele>529.186</ele>
        <time>2021-05-26T10:01:18Z</time>
      </trkpt>
      <trkpt lat="41.667560" lon="2.564254">
        <ele>529.421</ele>
        <time>2021-05-26T10:01:21Z</time>
      </trkpt>
      <trkpt lat="41.667577" lon="2.564404">
        <ele>530.077</ele>
        <time>2021-05-26T10:01:25Z</time>
      </trkpt>
      <trkpt lat="41.667648" lon="2.564516">
        <ele>530.734</ele>
        <time>2021-05-26T10:01:29Z</time>
      </trkpt>
      <trkpt lat="41.667736" lon="2.564573">
        <ele>530.211</ele>
        <time>2021-05-26T10:01:34Z</time>
      </trkpt>
      <trkpt lat="41.667838" lon="2.564568">
        <ele>528.239</ele>
        <time>2021-05-26T10:01:38Z</time>
      </trkpt>
      <trkpt lat="41.667944" lon="2.564549">
        <ele>525.901</ele>
        <time>2021-05-26T10:01:42Z</time>
      </trkpt>
      <trkpt lat="41.668035" lon="2.564575">
        <ele>525.521</ele>
        <time>2021-05-26T10:01:47Z</time>
      </trkpt>
      <trkpt lat="41.668125" lon="2.564585">
        <ele>525.408</ele>
        <time>2021-05-26T10:01:51Z</time>
      </trkpt>
      <trkpt lat="41.668232" lon="2.564562">
        <ele>524.440</ele>
        <time>2021-05-26T10:01:55Z</time>
      </trkpt>
      <trkpt lat="41.668339" lon="2.564536">
        <ele>523.397</ele>
        <time>2021-05-26T10:02:00Z</time>
      </trkpt>
      <trkpt lat="41.668440" lon="2.564513">
        <ele>522.754</ele>
        <time>2021-05-26T10:02:04Z</time>
      </trkpt>
      <trkpt lat="41.668544" lon="2.564543">
        <ele>524.167</ele>
        <time>2021-05-26T10:02:09Z</time>
      </trkpt>
      <trkpt lat="41.668652" lon="2.564521">
        <ele>523.142</ele>
        <time>2021-05-26T10:02:13Z</time>
      </trkpt>
      <trkpt lat="41.668750" lon="2.564497">
        <ele>521.718</ele>
        <time>2021-05-26T10:02:16Z</time>
      </trkpt>
      <trkpt lat="41.668844" lon="2.564473">
        <ele>520.315</ele>
        <time>2021-05-26T10:02:19Z</time>
      </trkpt>
      <trkpt lat="41.668950" lon="2.564454">
        <ele>518.512</ele>
        <time>2021-05-26T10:02:23Z</time>
      </trkpt>
      <trkpt lat="41.669041" lon="2.564512">
        <ele>519.448</ele>
        <time>2021-05-26T10:02:26Z</time>
      </trkpt>
      <trkpt lat="41.669127" lon="2.564578">
        <ele>520.461</ele>
        <time>2021-05-26T10:02:30Z</time>
      </trkpt>
      <trkpt lat="41.669162" lon="2.564693">
        <ele>524.017</ele>
        <time>2021-05-26T10:02:34Z</time>
      </trkpt>
      <trkpt lat="41.669188" lon="2.564809">
        <ele>527.208</ele>
        <time>2021-05-26T10:02:38Z</time>
      </trkpt>
      <trkpt lat="41.669251" lon="2.564924">
        <ele>529.771</ele>
        <time>2021-05-26T10:02:43Z</time>
      </trkpt>
      <trkpt lat="41.669312" lon="2.565051">
        <ele>532.098</ele>
        <time>2021-05-26T10:02:48Z</time>
      </trkpt>
      <trkpt lat="41.669370" lon="2.565197">
        <ele>534.065</ele>
        <time>2021-05-26T10:02:52Z</time>
      </trkpt>
      <trkpt lat="41.669455" lon="2.565257">
        <ele>533.528</ele>
        <time>2021-05-26T10:02:56Z</time>
      </trkpt>
      <trkpt lat="41.669563" lon="2.565221">
        <ele>531.533</ele>
        <time>2021-05-26T10:03:00Z</time>
      </trkpt>
      <trkpt lat="41.669642" lon="2.565151">
        <ele>529.849</ele>
        <time>2021-05-26T10:03:03Z</time>
      </trkpt>
      <trkpt lat="41.669707" lon="2.565027">
        <ele>528.376</ele>
        <time>2021-05-26T10:03:07Z</time>
      </trkpt>
      <trkpt lat="41.669762" lon="2.564898">
        <ele>526.153</ele>
        <time>2021-05-26T10:03:11Z</time>
      </trkpt>
      <trkpt lat="41.669809" lon="2.564795">
        <ele>524.287</ele>
        <time>2021-05-26T10:03:14Z</time>
      </trkpt>
      <trkpt lat="41.669876" lon="2.564704">
        <ele>522.642</ele>
        <time>2021-05-26T10:03:18Z</time>
      </trkpt>
      <trkpt lat="41.669972" lon="2.564653">
        <ele>521.826</ele>
        <time>2021-05-26T10:03:23Z</time>
      </trkpt>
      <trkpt lat="41.670076" lon="2.564647">
        <ele>523.108</ele>
        <time>2021-05-26T10:03:28Z</time>
      </trkpt>
      <trkpt lat="41.670173" lon="2.564671">
        <ele>525.225</ele>
        <time>2021-05-26T10:03:33Z</time>
      </trkpt>
      <trkpt lat="41.670271" lon="2.564633">
        <ele>526.022</ele>
        <time>2021-05-26T10:03:38Z</time>
      </trkpt>
      <trkpt lat="41.670355" lon="2.564569">
        <ele>525.869</ele>
        <time>2021-05-26T10:03:42Z</time>
      </trkpt>
      <trkpt lat="41.670449" lon="2.564518">
        <ele>526.312</ele>
        <time>2021-05-26T10:03:46Z</time>
      </trkpt>
      <trkpt lat="41.670486" lon="2.564634">
        <ele>528.837</ele>
        <time>2021-05-26T10:03:56Z</time>
      </trkpt>
      <trkpt lat="41.670422" lon="2.564726">
        <ele>529.653</ele>
        <time>2021-05-26T10:04:02Z</time>
      </trkpt>
      <trkpt lat="41.670381" lon="2.564774">
        <ele>529.360</ele>
        <time>2021-05-26T10:04:06Z</time>
      </trkpt>
      <trkpt lat="41.670360" lon="2.564795">
        <ele>529.377</ele>
        <time>2021-05-26T10:04:08Z</time>
      </trkpt>
      <trkpt lat="41.670341" lon="2.564820">
        <ele>529.272</ele>
        <time>2021-05-26T10:04:10Z</time>
      </trkpt>
      <trkpt lat="41.670315" lon="2.564845">
        <ele>529.213</ele>
        <time>2021-05-26T10:04:12Z</time>
      </trkpt>
      <trkpt lat="41.670297" lon="2.564879">
        <ele>529.314</ele>
        <time>2021-05-26T10:04:14Z</time>
      </trkpt>
      <trkpt lat="41.670285" lon="2.564906">
        <ele>529.408</ele>
        <time>2021-05-26T10:04:16Z</time>
      </trkpt>
      <trkpt lat="41.670266" lon="2.564934">
        <ele>529.514</ele>
        <time>2021-05-26T10:04:18Z</time>
      </trkpt>
      <trkpt lat="41.670249" lon="2.564961">
        <ele>529.781</ele>
        <time>2021-05-26T10:04:20Z</time>
      </trkpt>
      <trkpt lat="41.670232" lon="2.564985">
        <ele>529.958</ele>
        <time>2021-05-26T10:04:22Z</time>
      </trkpt>
      <trkpt lat="41.670217" lon="2.565023">
        <ele>529.951</ele>
        <time>2021-05-26T10:04:24Z</time>
      </trkpt>
      <trkpt lat="41.670196" lon="2.565061">
        <ele>529.816</ele>
        <time>2021-05-26T10:04:26Z</time>
      </trkpt>
      <trkpt lat="41.670174" lon="2.565093">
        <ele>529.872</ele>
        <time>2021-05-26T10:04:28Z</time>
      </trkpt>
      <trkpt lat="41.670156" lon="2.565126">
        <ele>529.749</ele>
        <time>2021-05-26T10:04:30Z</time>
      </trkpt>
      <trkpt lat="41.670137" lon="2.565150">
        <ele>529.736</ele>
        <time>2021-05-26T10:04:32Z</time>
      </trkpt>
      <trkpt lat="41.670114" lon="2.565179">
        <ele>529.759</ele>
        <time>2021-05-26T10:04:34Z</time>
      </trkpt>
      <trkpt lat="41.670097" lon="2.565205">
        <ele>529.703</ele>
        <time>2021-05-26T10:04:36Z</time>
      </trkpt>
      <trkpt lat="41.670080" lon="2.565228">
        <ele>529.823</ele>
        <time>2021-05-26T10:04:38Z</time>
      </trkpt>
      <trkpt lat="41.670065" lon="2.565252">
        <ele>529.808</ele>
        <time>2021-05-26T10:04:40Z</time>
      </trkpt>
      <trkpt lat="41.670050" lon="2.565267">
        <ele>529.832</ele>
        <time>2021-05-26T10:04:42Z</time>
      </trkpt>
      <trkpt lat="41.670025" lon="2.565284">
        <ele>529.959</ele>
        <time>2021-05-26T10:04:44Z</time>
      </trkpt>
      <trkpt lat="41.670008" lon="2.565298">
        <ele>530.036</ele>
        <time>2021-05-26T10:04:45Z</time>
      </trkpt>
      <trkpt lat="41.669985" lon="2.565313">
        <ele>530.139</ele>
        <time>2021-05-26T10:04:47Z</time>
      </trkpt>
      <trkpt lat="41.669965" lon="2.565330">
        <ele>530.214</ele>
        <time>2021-05-26T10:04:49Z</time>
      </trkpt>
      <trkpt lat="41.669940" lon="2.565353">
        <ele>530.460</ele>
        <time>2021-05-26T10:04:51Z</time>
      </trkpt>
      <trkpt lat="41.669914" lon="2.565373">
        <ele>530.627</ele>
        <time>2021-05-26T10:04:53Z</time>
      </trkpt>
      <trkpt lat="41.669899" lon="2.565387">
        <ele>530.754</ele>
        <time>2021-05-26T10:04:54Z</time>
      </trkpt>
      <trkpt lat="41.669869" lon="2.565409">
        <ele>530.934</ele>
        <time>2021-05-26T10:04:56Z</time>
      </trkpt>
      <trkpt lat="41.669853" lon="2.565421">
        <ele>531.155</ele>
        <time>2021-05-26T10:04:57Z</time>
      </trkpt>
      <trkpt lat="41.669835" lon="2.565430">
        <ele>531.210</ele>
        <time>2021-05-26T10:04:58Z</time>
      </trkpt>
      <trkpt lat="41.669816" lon="2.565437">
        <ele>531.308</ele>
        <time>2021-05-26T10:04:59Z</time>
      </trkpt>
      <trkpt lat="41.669771" lon="2.565463">
        <ele>531.850</ele>
        <time>2021-05-26T10:05:02Z</time>
      </trkpt>
      <trkpt lat="41.669701" lon="2.565545">
        <ele>533.357</ele>
        <time>2021-05-26T10:05:08Z</time>
      </trkpt>
      <trkpt lat="41.669688" lon="2.565670">
        <ele>535.794</ele>
        <time>2021-05-26T10:05:21Z</time>
      </trkpt>
      <trkpt lat="41.669754" lon="2.565770">
        <ele>536.467</ele>
        <time>2021-05-26T10:05:28Z</time>
      </trkpt>
      <trkpt lat="41.669839" lon="2.565848">
        <ele>536.232</ele>
        <time>2021-05-26T10:05:33Z</time>
      </trkpt>
      <trkpt lat="41.669919" lon="2.565908">
        <ele>535.958</ele>
        <time>2021-05-26T10:05:37Z</time>
      </trkpt>
      <trkpt lat="41.670037" lon="2.565956">
        <ele>534.225</ele>
        <time>2021-05-26T10:05:40Z</time>
      </trkpt>
      <trkpt lat="41.670134" lon="2.566033">
        <ele>532.542</ele>
        <time>2021-05-26T10:05:44Z</time>
      </trkpt>
      <trkpt lat="41.670203" lon="2.566124">
        <ele>531.657</ele>
        <time>2021-05-26T10:05:48Z</time>
      </trkpt>
      <trkpt lat="41.670280" lon="2.566204">
        <ele>529.900</ele>
        <time>2021-05-26T10:05:52Z</time>
      </trkpt>
      <trkpt lat="41.670366" lon="2.566276">
        <ele>527.020</ele>
        <time>2021-05-26T10:05:55Z</time>
      </trkpt>
      <trkpt lat="41.670439" lon="2.566348">
        <ele>524.308</ele>
        <time>2021-05-26T10:06:00Z</time>
      </trkpt>
      <trkpt lat="41.670514" lon="2.566443">
        <ele>521.322</ele>
        <time>2021-05-26T10:06:04Z</time>
      </trkpt>
      <trkpt lat="41.670563" lon="2.566560">
        <ele>520.089</ele>
        <time>2021-05-26T10:06:07Z</time>
      </trkpt>
      <trkpt lat="41.670590" lon="2.566675">
        <ele>519.766</ele>
        <time>2021-05-26T10:06:10Z</time>
      </trkpt>
      <trkpt lat="41.670592" lon="2.566808">
        <ele>521.159</ele>
        <time>2021-05-26T10:06:14Z</time>
      </trkpt>
      <trkpt lat="41.670652" lon="2.566915">
        <ele>519.944</ele>
        <time>2021-05-26T10:06:18Z</time>
      </trkpt>
      <trkpt lat="41.670724" lon="2.567017">
        <ele>518.970</ele>
        <time>2021-05-26T10:06:24Z</time>
      </trkpt>
      <trkpt lat="41.670831" lon="2.567049">
        <ele>515.757</ele>
        <time>2021-05-26T10:06:29Z</time>
      </trkpt>
      <trkpt lat="41.670922" lon="2.567063">
        <ele>513.584</ele>
        <time>2021-05-26T10:06:33Z</time>
      </trkpt>
      <trkpt lat="41.670993" lon="2.567137">
        <ele>513.061</ele>
        <time>2021-05-26T10:06:37Z</time>
      </trkpt>
      <trkpt lat="41.671093" lon="2.567194">
        <ele>511.121</ele>
        <time>2021-05-26T10:06:40Z</time>
      </trkpt>
      <trkpt lat="41.671179" lon="2.567247">
        <ele>510.013</ele>
        <time>2021-05-26T10:06:44Z</time>
      </trkpt>
      <trkpt lat="41.671271" lon="2.567291">
        <ele>508.708</ele>
        <time>2021-05-26T10:06:48Z</time>
      </trkpt>
      <trkpt lat="41.671371" lon="2.567346">
        <ele>507.213</ele>
        <time>2021-05-26T10:06:53Z</time>
      </trkpt>
      <trkpt lat="41.671464" lon="2.567422">
        <ele>506.180</ele>
        <time>2021-05-26T10:06:57Z</time>
      </trkpt>
      <trkpt lat="41.671521" lon="2.567518">
        <ele>505.937</ele>
        <time>2021-05-26T10:07:01Z</time>
      </trkpt>
      <trkpt lat="41.671540" lon="2.567642">
        <ele>506.720</ele>
        <time>2021-05-26T10:07:05Z</time>
      </trkpt>
      <trkpt lat="41.671537" lon="2.567783">
        <ele>508.265</ele>
        <time>2021-05-26T10:07:10Z</time>
      </trkpt>
      <trkpt lat="41.671521" lon="2.567908">
        <ele>509.281</ele>
        <time>2021-05-26T10:07:14Z</time>
      </trkpt>
      <trkpt lat="41.671499" lon="2.568044">
        <ele>510.448</ele>
        <time>2021-05-26T10:07:18Z</time>
      </trkpt>
      <trkpt lat="41.671459" lon="2.568172">
        <ele>510.585</ele>
        <time>2021-05-26T10:07:23Z</time>
      </trkpt>
      <trkpt lat="41.671438" lon="2.568240">
        <ele>510.483</ele>
        <time>2021-05-26T10:07:25Z</time>
      </trkpt>
      <trkpt lat="41.671432" lon="2.568279">
        <ele>510.225</ele>
        <time>2021-05-26T10:07:26Z</time>
      </trkpt>
      <trkpt lat="41.671432" lon="2.568319">
        <ele>509.817</ele>
        <time>2021-05-26T10:07:27Z</time>
      </trkpt>
      <trkpt lat="41.671435" lon="2.568349">
        <ele>509.308</ele>
        <time>2021-05-26T10:07:28Z</time>
      </trkpt>
      <trkpt lat="41.671443" lon="2.568372">
        <ele>508.745</ele>
        <time>2021-05-26T10:07:29Z</time>
      </trkpt>
      <trkpt lat="41.671450" lon="2.568398">
        <ele>508.152</ele>
        <time>2021-05-26T10:07:30Z</time>
      </trkpt>
      <trkpt lat="41.671461" lon="2.568428">
        <ele>507.449</ele>
        <time>2021-05-26T10:07:31Z</time>
      </trkpt>
      <trkpt lat="41.671490" lon="2.568476">
        <ele>505.962</ele>
        <time>2021-05-26T10:07:33Z</time>
      </trkpt>
      <trkpt lat="41.671508" lon="2.568492">
        <ele>505.117</ele>
        <time>2021-05-26T10:07:34Z</time>
      </trkpt>
      <trkpt lat="41.671531" lon="2.568503">
        <ele>504.363</ele>
        <time>2021-05-26T10:07:35Z</time>
      </trkpt>
      <trkpt lat="41.671564" lon="2.568503">
        <ele>503.370</ele>
        <time>2021-05-26T10:07:37Z</time>
      </trkpt>
      <trkpt lat="41.671583" lon="2.568491">
        <ele>502.817</ele>
        <time>2021-05-26T10:07:38Z</time>
      </trkpt>
      <trkpt lat="41.671604" lon="2.568480">
        <ele>502.359</ele>
        <time>2021-05-26T10:07:39Z</time>
      </trkpt>
      <trkpt lat="41.671629" lon="2.568468">
        <ele>501.703</ele>
        <time>2021-05-26T10:07:40Z</time>
      </trkpt>
      <trkpt lat="41.671647" lon="2.568456">
        <ele>501.323</ele>
        <time>2021-05-26T10:07:41Z</time>
      </trkpt>
      <trkpt lat="41.671671" lon="2.568446">
        <ele>500.708</ele>
        <time>2021-05-26T10:07:42Z</time>
      </trkpt>
      <trkpt lat="41.671694" lon="2.568441">
        <ele>500.282</ele>
        <time>2021-05-26T10:07:43Z</time>
      </trkpt>
      <trkpt lat="41.671716" lon="2.568432">
        <ele>499.789</ele>
        <time>2021-05-26T10:07:44Z</time>
      </trkpt>
      <trkpt lat="41.671736" lon="2.568421">
        <ele>499.456</ele>
        <time>2021-05-26T10:07:45Z</time>
      </trkpt>
      <trkpt lat="41.671760" lon="2.568404">
        <ele>499.139</ele>
        <time>2021-05-26T10:07:46Z</time>
      </trkpt>
      <trkpt lat="41.671779" lon="2.568394">
        <ele>498.764</ele>
        <time>2021-05-26T10:07:47Z</time>
      </trkpt>
      <trkpt lat="41.671798" lon="2.568385">
        <ele>498.430</ele>
        <time>2021-05-26T10:07:48Z</time>
      </trkpt>
      <trkpt lat="41.671837" lon="2.568359">
        <ele>497.927</ele>
        <time>2021-05-26T10:07:50Z</time>
      </trkpt>
      <trkpt lat="41.671949" lon="2.568354">
        <ele>495.584</ele>
        <time>2021-05-26T10:07:55Z</time>
      </trkpt>
      <trkpt lat="41.671978" lon="2.568361">
        <ele>494.766</ele>
        <time>2021-05-26T10:07:56Z</time>
      </trkpt>
      <trkpt lat="41.672009" lon="2.568365">
        <ele>493.829</ele>
        <time>2021-05-26T10:07:57Z</time>
      </trkpt>
      <trkpt lat="41.672033" lon="2.568364">
        <ele>493.221</ele>
        <time>2021-05-26T10:07:58Z</time>
      </trkpt>
      <trkpt lat="41.672057" lon="2.568362">
        <ele>492.608</ele>
        <time>2021-05-26T10:07:59Z</time>
      </trkpt>
      <trkpt lat="41.672083" lon="2.568354">
        <ele>492.143</ele>
        <time>2021-05-26T10:08:00Z</time>
      </trkpt>
      <trkpt lat="41.672108" lon="2.568337">
        <ele>491.830</ele>
        <time>2021-05-26T10:08:01Z</time>
      </trkpt>
      <trkpt lat="41.672127" lon="2.568316">
        <ele>491.497</ele>
        <time>2021-05-26T10:08:02Z</time>
      </trkpt>
      <trkpt lat="41.672146" lon="2.568297">
        <ele>491.060</ele>
        <time>2021-05-26T10:08:03Z</time>
      </trkpt>
      <trkpt lat="41.672164" lon="2.568281">
        <ele>490.535</ele>
        <time>2021-05-26T10:08:04Z</time>
      </trkpt>
      <trkpt lat="41.672176" lon="2.568261">
        <ele>490.241</ele>
        <time>2021-05-26T10:08:05Z</time>
      </trkpt>
      <trkpt lat="41.672194" lon="2.568237">
        <ele>489.718</ele>
        <time>2021-05-26T10:08:06Z</time>
      </trkpt>
      <trkpt lat="41.672214" lon="2.568215">
        <ele>489.255</ele>
        <time>2021-05-26T10:08:07Z</time>
      </trkpt>
      <trkpt lat="41.672235" lon="2.568188">
        <ele>488.635</ele>
        <time>2021-05-26T10:08:08Z</time>
      </trkpt>
      <trkpt lat="41.672254" lon="2.568168">
        <ele>488.186</ele>
        <time>2021-05-26T10:08:09Z</time>
      </trkpt>
      <trkpt lat="41.672289" lon="2.568168">
        <ele>487.114</ele>
        <time>2021-05-26T10:08:11Z</time>
      </trkpt>
      <trkpt lat="41.672312" lon="2.568145">
        <ele>486.408</ele>
        <time>2021-05-26T10:08:13Z</time>
      </trkpt>
      <trkpt lat="41.672320" lon="2.568109">
        <ele>486.290</ele>
        <time>2021-05-26T10:08:15Z</time>
      </trkpt>
      <trkpt lat="41.672339" lon="2.568111">
        <ele>485.637</ele>
        <time>2021-05-26T10:08:17Z</time>
      </trkpt>
      <trkpt lat="41.672364" lon="2.568126">
        <ele>484.994</ele>
        <time>2021-05-26T10:08:19Z</time>
      </trkpt>
      <trkpt lat="41.672364" lon="2.568157">
        <ele>484.947</ele>
        <time>2021-05-26T10:08:24Z</time>
      </trkpt>
      <trkpt lat="41.672358" lon="2.568190">
        <ele>485.182</ele>
        <time>2021-05-26T10:08:26Z</time>
      </trkpt>
      <trkpt lat="41.672350" lon="2.568226">
        <ele>485.358</ele>
        <time>2021-05-26T10:08:28Z</time>
      </trkpt>
      <trkpt lat="41.672347" lon="2.568264">
        <ele>485.425</ele>
        <time>2021-05-26T10:08:30Z</time>
      </trkpt>
      <trkpt lat="41.672356" lon="2.568241">
        <ele>485.142</ele>
        <time>2021-05-26T10:08:34Z</time>
      </trkpt>
      <trkpt lat="41.672363" lon="2.568199">
        <ele>484.951</ele>
        <time>2021-05-26T10:08:36Z</time>
      </trkpt>
      <trkpt lat="41.672375" lon="2.568153">
        <ele>484.601</ele>
        <time>2021-05-26T10:08:38Z</time>
      </trkpt>
      <trkpt lat="41.672384" lon="2.568127">
        <ele>484.311</ele>
        <time>2021-05-26T10:08:39Z</time>
      </trkpt>
      <trkpt lat="41.672390" lon="2.568084">
        <ele>484.208</ele>
        <time>2021-05-26T10:08:41Z</time>
      </trkpt>
      <trkpt lat="41.672388" lon="2.568054">
        <ele>484.262</ele>
        <time>2021-05-26T10:08:42Z</time>
      </trkpt>
      <trkpt lat="41.672390" lon="2.568019">
        <ele>483.759</ele>
        <time>2021-05-26T10:08:43Z</time>
      </trkpt>
      <trkpt lat="41.672396" lon="2.567991">
        <ele>483.216</ele>
        <time>2021-05-26T10:08:44Z</time>
      </trkpt>
      <trkpt lat="41.672404" lon="2.567965">
        <ele>482.749</ele>
        <time>2021-05-26T10:08:45Z</time>
      </trkpt>
      <trkpt lat="41.672412" lon="2.567942">
        <ele>482.234</ele>
        <time>2021-05-26T10:08:46Z</time>
      </trkpt>
      <trkpt lat="41.672424" lon="2.567920">
        <ele>481.770</ele>
        <time>2021-05-26T10:08:47Z</time>
      </trkpt>
      <trkpt lat="41.672452" lon="2.567885">
        <ele>480.767</ele>
        <time>2021-05-26T10:08:49Z</time>
      </trkpt>
      <trkpt lat="41.672465" lon="2.567867">
        <ele>480.314</ele>
        <time>2021-05-26T10:08:50Z</time>
      </trkpt>
      <trkpt lat="41.672483" lon="2.567851">
        <ele>479.844</ele>
        <time>2021-05-26T10:08:51Z</time>
      </trkpt>
      <trkpt lat="41.672506" lon="2.567830">
        <ele>479.405</ele>
        <time>2021-05-26T10:08:52Z</time>
      </trkpt>
      <trkpt lat="41.672532" lon="2.567812">
        <ele>479.115</ele>
        <time>2021-05-26T10:08:53Z</time>
      </trkpt>
      <trkpt lat="41.672559" lon="2.567794">
        <ele>478.908</ele>
        <time>2021-05-26T10:08:54Z</time>
      </trkpt>
      <trkpt lat="41.672592" lon="2.567781">
        <ele>478.751</ele>
        <time>2021-05-26T10:08:55Z</time>
      </trkpt>
      <trkpt lat="41.672620" lon="2.567765">
        <ele>478.478</ele>
        <time>2021-05-26T10:08:56Z</time>
      </trkpt>
      <trkpt lat="41.672646" lon="2.567745">
        <ele>478.145</ele>
        <time>2021-05-26T10:08:57Z</time>
      </trkpt>
      <trkpt lat="41.672671" lon="2.567719">
        <ele>477.778</ele>
        <time>2021-05-26T10:08:58Z</time>
      </trkpt>
      <trkpt lat="41.672696" lon="2.567692">
        <ele>477.353</ele>
        <time>2021-05-26T10:08:59Z</time>
      </trkpt>
      <trkpt lat="41.672721" lon="2.567667">
        <ele>476.949</ele>
        <time>2021-05-26T10:09:00Z</time>
      </trkpt>
      <trkpt lat="41.672747" lon="2.567643">
        <ele>476.636</ele>
        <time>2021-05-26T10:09:01Z</time>
      </trkpt>
      <trkpt lat="41.672773" lon="2.567624">
        <ele>476.353</ele>
        <time>2021-05-26T10:09:02Z</time>
      </trkpt>
      <trkpt lat="41.672798" lon="2.567606">
        <ele>476.084</ele>
        <time>2021-05-26T10:09:03Z</time>
      </trkpt>
      <trkpt lat="41.672818" lon="2.567590">
        <ele>475.707</ele>
        <time>2021-05-26T10:09:04Z</time>
      </trkpt>
      <trkpt lat="41.672851" lon="2.567587">
        <ele>475.517</ele>
        <time>2021-05-26T10:09:05Z</time>
      </trkpt>
      <trkpt lat="41.672876" lon="2.567589">
        <ele>475.408</ele>
        <time>2021-05-26T10:09:06Z</time>
      </trkpt>
      <trkpt lat="41.672902" lon="2.567592">
        <ele>475.245</ele>
        <time>2021-05-26T10:09:07Z</time>
      </trkpt>
      <trkpt lat="41.672926" lon="2.567596">
        <ele>475.212</ele>
        <time>2021-05-26T10:09:08Z</time>
      </trkpt>
      <trkpt lat="41.672948" lon="2.567594">
        <ele>475.089</ele>
        <time>2021-05-26T10:09:09Z</time>
      </trkpt>
      <trkpt lat="41.672971" lon="2.567595">
        <ele>474.982</ele>
        <time>2021-05-26T10:09:10Z</time>
      </trkpt>
      <trkpt lat="41.672995" lon="2.567599">
        <ele>474.867</ele>
        <time>2021-05-26T10:09:11Z</time>
      </trkpt>
      <trkpt lat="41.673017" lon="2.567597">
        <ele>474.673</ele>
        <time>2021-05-26T10:09:12Z</time>
      </trkpt>
      <trkpt lat="41.673039" lon="2.567595">
        <ele>474.550</ele>
        <time>2021-05-26T10:09:13Z</time>
      </trkpt>
      <trkpt lat="41.673066" lon="2.567593">
        <ele>474.237</ele>
        <time>2021-05-26T10:09:14Z</time>
      </trkpt>
      <trkpt lat="41.673089" lon="2.567584">
        <ele>473.923</ele>
        <time>2021-05-26T10:09:15Z</time>
      </trkpt>
      <trkpt lat="41.673111" lon="2.567571">
        <ele>473.583</ele>
        <time>2021-05-26T10:09:16Z</time>
      </trkpt>
      <trkpt lat="41.673140" lon="2.567561">
        <ele>473.011</ele>
        <time>2021-05-26T10:09:17Z</time>
      </trkpt>
      <trkpt lat="41.673171" lon="2.567550">
        <ele>472.508</ele>
        <time>2021-05-26T10:09:18Z</time>
      </trkpt>
      <trkpt lat="41.673199" lon="2.567538">
        <ele>472.119</ele>
        <time>2021-05-26T10:09:19Z</time>
      </trkpt>
      <trkpt lat="41.673229" lon="2.567527">
        <ele>471.626</ele>
        <time>2021-05-26T10:09:20Z</time>
      </trkpt>
      <trkpt lat="41.673256" lon="2.567520">
        <ele>471.263</ele>
        <time>2021-05-26T10:09:21Z</time>
      </trkpt>
      <trkpt lat="41.673289" lon="2.567514">
        <ele>470.756</ele>
        <time>2021-05-26T10:09:22Z</time>
      </trkpt>
      <trkpt lat="41.673320" lon="2.567508">
        <ele>470.391</ele>
        <time>2021-05-26T10:09:23Z</time>
      </trkpt>
      <trkpt lat="41.673348" lon="2.567506">
        <ele>470.287</ele>
        <time>2021-05-26T10:09:24Z</time>
      </trkpt>
      <trkpt lat="41.673379" lon="2.567510">
        <ele>470.344</ele>
        <time>2021-05-26T10:09:25Z</time>
      </trkpt>
      <trkpt lat="41.673404" lon="2.567517">
        <ele>470.521</ele>
        <time>2021-05-26T10:09:26Z</time>
      </trkpt>
      <trkpt lat="41.673430" lon="2.567525">
        <ele>470.741</ele>
        <time>2021-05-26T10:09:27Z</time>
      </trkpt>
      <trkpt lat="41.673458" lon="2.567532">
        <ele>470.881</ele>
        <time>2021-05-26T10:09:28Z</time>
      </trkpt>
      <trkpt lat="41.673487" lon="2.567547">
        <ele>471.009</ele>
        <time>2021-05-26T10:09:29Z</time>
      </trkpt>
      <trkpt lat="41.673517" lon="2.567561">
        <ele>471.208</ele>
        <time>2021-05-26T10:09:30Z</time>
      </trkpt>
      <trkpt lat="41.673544" lon="2.567572">
        <ele>471.311</ele>
        <time>2021-05-26T10:09:31Z</time>
      </trkpt>
      <trkpt lat="41.673572" lon="2.567580">
        <ele>471.328</ele>
        <time>2021-05-26T10:09:32Z</time>
      </trkpt>
      <trkpt lat="41.673597" lon="2.567585">
        <ele>471.385</ele>
        <time>2021-05-26T10:09:33Z</time>
      </trkpt>
      <trkpt lat="41.673617" lon="2.567595">
        <ele>471.438</ele>
        <time>2021-05-26T10:09:34Z</time>
      </trkpt>
      <trkpt lat="41.673638" lon="2.567595">
        <ele>471.463</ele>
        <time>2021-05-26T10:09:35Z</time>
      </trkpt>
      <trkpt lat="41.673655" lon="2.567582">
        <ele>471.429</ele>
        <time>2021-05-26T10:09:40Z</time>
      </trkpt>
      <trkpt lat="41.673719" lon="2.567592">
        <ele>471.686</ele>
        <time>2021-05-26T10:09:42Z</time>
      </trkpt>
      <trkpt lat="41.673745" lon="2.567587">
        <ele>471.713</ele>
        <time>2021-05-26T10:09:44Z</time>
      </trkpt>
      <trkpt lat="41.673770" lon="2.567580">
        <ele>471.841</ele>
        <time>2021-05-26T10:09:45Z</time>
      </trkpt>
      <trkpt lat="41.673797" lon="2.567571">
        <ele>471.981</ele>
        <time>2021-05-26T10:09:46Z</time>
      </trkpt>
      <trkpt lat="41.673825" lon="2.567565">
        <ele>472.109</ele>
        <time>2021-05-26T10:09:47Z</time>
      </trkpt>
      <trkpt lat="41.673855" lon="2.567564">
        <ele>472.208</ele>
        <time>2021-05-26T10:09:48Z</time>
      </trkpt>
      <trkpt lat="41.673880" lon="2.567570">
        <ele>472.251</ele>
        <time>2021-05-26T10:09:49Z</time>
      </trkpt>
      <trkpt lat="41.673907" lon="2.567574">
        <ele>472.138</ele>
        <time>2021-05-26T10:09:50Z</time>
      </trkpt>
      <trkpt lat="41.673930" lon="2.567577">
        <ele>472.035</ele>
        <time>2021-05-26T10:09:51Z</time>
      </trkpt>
      <trkpt lat="41.673958" lon="2.567582">
        <ele>471.868</ele>
        <time>2021-05-26T10:09:52Z</time>
      </trkpt>
      <trkpt lat="41.673986" lon="2.567581">
        <ele>471.643</ele>
        <time>2021-05-26T10:09:53Z</time>
      </trkpt>
      <trkpt lat="41.674014" lon="2.567580">
        <ele>471.599</ele>
        <time>2021-05-26T10:09:54Z</time>
      </trkpt>
      <trkpt lat="41.674041" lon="2.567578">
        <ele>471.476</ele>
        <time>2021-05-26T10:09:55Z</time>
      </trkpt>
      <trkpt lat="41.674071" lon="2.567585">
        <ele>471.223</ele>
        <time>2021-05-26T10:09:56Z</time>
      </trkpt>
      <trkpt lat="41.674099" lon="2.567597">
        <ele>471.068</ele>
        <time>2021-05-26T10:09:57Z</time>
      </trkpt>
      <trkpt lat="41.674120" lon="2.567612">
        <ele>470.842</ele>
        <time>2021-05-26T10:09:58Z</time>
      </trkpt>
      <trkpt lat="41.674143" lon="2.567627">
        <ele>470.626</ele>
        <time>2021-05-26T10:09:59Z</time>
      </trkpt>
      <trkpt lat="41.674162" lon="2.567644">
        <ele>470.508</ele>
        <time>2021-05-26T10:10:00Z</time>
      </trkpt>
      <trkpt lat="41.674183" lon="2.567659">
        <ele>470.323</ele>
        <time>2021-05-26T10:10:01Z</time>
      </trkpt>
      <trkpt lat="41.674208" lon="2.567679">
        <ele>470.040</ele>
        <time>2021-05-26T10:10:02Z</time>
      </trkpt>
      <trkpt lat="41.674232" lon="2.567701">
        <ele>469.727</ele>
        <time>2021-05-26T10:10:03Z</time>
      </trkpt>
      <trkpt lat="41.674255" lon="2.567724">
        <ele>469.510</ele>
        <time>2021-05-26T10:10:04Z</time>
      </trkpt>
      <trkpt lat="41.674276" lon="2.567742">
        <ele>469.335</ele>
        <time>2021-05-26T10:10:05Z</time>
      </trkpt>
      <trkpt lat="41.674295" lon="2.567768">
        <ele>469.141</ele>
        <time>2021-05-26T10:10:06Z</time>
      </trkpt>
      <trkpt lat="41.674315" lon="2.567797">
        <ele>468.658</ele>
        <time>2021-05-26T10:10:07Z</time>
      </trkpt>
      <trkpt lat="41.674335" lon="2.567814">
        <ele>468.145</ele>
        <time>2021-05-26T10:10:08Z</time>
      </trkpt>
      <trkpt lat="41.674357" lon="2.567836">
        <ele>467.615</ele>
        <time>2021-05-26T10:10:09Z</time>
      </trkpt>
      <trkpt lat="41.674377" lon="2.567857">
        <ele>467.165</ele>
        <time>2021-05-26T10:10:10Z</time>
      </trkpt>
      <trkpt lat="41.674395" lon="2.567879">
        <ele>466.711</ele>
        <time>2021-05-26T10:10:11Z</time>
      </trkpt>
      <trkpt lat="41.674417" lon="2.567902">
        <ele>466.308</ele>
        <time>2021-05-26T10:10:12Z</time>
      </trkpt>
      <trkpt lat="41.674438" lon="2.567927">
        <ele>465.968</ele>
        <time>2021-05-26T10:10:13Z</time>
      </trkpt>
      <trkpt lat="41.674458" lon="2.567952">
        <ele>465.355</ele>
        <time>2021-05-26T10:10:14Z</time>
      </trkpt>
      <trkpt lat="41.674479" lon="2.567984">
        <ele>464.782</ele>
        <time>2021-05-26T10:10:15Z</time>
      </trkpt>
      <trkpt lat="41.674501" lon="2.568013">
        <ele>464.175</ele>
        <time>2021-05-26T10:10:16Z</time>
      </trkpt>
      <trkpt lat="41.674527" lon="2.568032">
        <ele>463.720</ele>
        <time>2021-05-26T10:10:17Z</time>
      </trkpt>
      <trkpt lat="41.674553" lon="2.568052">
        <ele>463.376</ele>
        <time>2021-05-26T10:10:18Z</time>
      </trkpt>
      <trkpt lat="41.674572" lon="2.568076">
        <ele>462.883</ele>
        <time>2021-05-26T10:10:19Z</time>
      </trkpt>
      <trkpt lat="41.674589" lon="2.568103">
        <ele>462.420</ele>
        <time>2021-05-26T10:10:20Z</time>
      </trkpt>
      <trkpt lat="41.674610" lon="2.568128">
        <ele>461.987</ele>
        <time>2021-05-26T10:10:21Z</time>
      </trkpt>
      <trkpt lat="41.674632" lon="2.568139">
        <ele>461.742</ele>
        <time>2021-05-26T10:10:22Z</time>
      </trkpt>
      <trkpt lat="41.674653" lon="2.568141">
        <ele>461.526</ele>
        <time>2021-05-26T10:10:23Z</time>
      </trkpt>
      <trkpt lat="41.674675" lon="2.568141">
        <ele>461.408</ele>
        <time>2021-05-26T10:10:24Z</time>
      </trkpt>
      <trkpt lat="41.674700" lon="2.568136">
        <ele>461.355</ele>
        <time>2021-05-26T10:10:25Z</time>
      </trkpt>
      <trkpt lat="41.674723" lon="2.568128">
        <ele>461.252</ele>
        <time>2021-05-26T10:10:26Z</time>
      </trkpt>
      <trkpt lat="41.674742" lon="2.568113">
        <ele>461.369</ele>
        <time>2021-05-26T10:10:27Z</time>
      </trkpt>
      <trkpt lat="41.674764" lon="2.568096">
        <ele>461.382</ele>
        <time>2021-05-26T10:10:28Z</time>
      </trkpt>
      <trkpt lat="41.674785" lon="2.568080">
        <ele>461.367</ele>
        <time>2021-05-26T10:10:29Z</time>
      </trkpt>
      <trkpt lat="41.674808" lon="2.568071">
        <ele>461.253</ele>
        <time>2021-05-26T10:10:30Z</time>
      </trkpt>
      <trkpt lat="41.674825" lon="2.568060">
        <ele>461.220</ele>
        <time>2021-05-26T10:10:31Z</time>
      </trkpt>
      <trkpt lat="41.674845" lon="2.568048">
        <ele>461.147</ele>
        <time>2021-05-26T10:10:32Z</time>
      </trkpt>
      <trkpt lat="41.674860" lon="2.568033">
        <ele>461.136</ele>
        <time>2021-05-26T10:10:33Z</time>
      </trkpt>
      <trkpt lat="41.674882" lon="2.568013">
        <ele>461.017</ele>
        <time>2021-05-26T10:10:34Z</time>
      </trkpt>
      <trkpt lat="41.674898" lon="2.567995">
        <ele>461.018</ele>
        <time>2021-05-26T10:10:35Z</time>
      </trkpt>
      <trkpt lat="41.674920" lon="2.567969">
        <ele>460.908</ele>
        <time>2021-05-26T10:10:36Z</time>
      </trkpt>
      <trkpt lat="41.674943" lon="2.567947">
        <ele>460.880</ele>
        <time>2021-05-26T10:10:37Z</time>
      </trkpt>
      <trkpt lat="41.674961" lon="2.567926">
        <ele>460.757</ele>
        <time>2021-05-26T10:10:38Z</time>
      </trkpt>
      <trkpt lat="41.674982" lon="2.567901">
        <ele>460.784</ele>
        <time>2021-05-26T10:10:39Z</time>
      </trkpt>
      <trkpt lat="41.675004" lon="2.567879">
        <ele>460.687</ele>
        <time>2021-05-26T10:10:40Z</time>
      </trkpt>
      <trkpt lat="41.675025" lon="2.567858">
        <ele>460.772</ele>
        <time>2021-05-26T10:10:41Z</time>
      </trkpt>
      <trkpt lat="41.675043" lon="2.567842">
        <ele>460.728</ele>
        <time>2021-05-26T10:10:42Z</time>
      </trkpt>
      <trkpt lat="41.675064" lon="2.567827">
        <ele>460.735</ele>
        <time>2021-05-26T10:10:43Z</time>
      </trkpt>
      <trkpt lat="41.675086" lon="2.567815">
        <ele>460.792</ele>
        <time>2021-05-26T10:10:44Z</time>
      </trkpt>
      <trkpt lat="41.675113" lon="2.567803">
        <ele>460.623</ele>
        <time>2021-05-26T10:10:45Z</time>
      </trkpt>
      <trkpt lat="41.675140" lon="2.567794">
        <ele>460.583</ele>
        <time>2021-05-26T10:10:46Z</time>
      </trkpt>
      <trkpt lat="41.675165" lon="2.567783">
        <ele>460.411</ele>
        <time>2021-05-26T10:10:47Z</time>
      </trkpt>
      <trkpt lat="41.675190" lon="2.567779">
        <ele>460.308</ele>
        <time>2021-05-26T10:10:48Z</time>
      </trkpt>
      <trkpt lat="41.675212" lon="2.567780">
        <ele>460.279</ele>
        <time>2021-05-26T10:10:49Z</time>
      </trkpt>
      <trkpt lat="41.675238" lon="2.567780">
        <ele>460.266</ele>
        <time>2021-05-26T10:10:50Z</time>
      </trkpt>
      <trkpt lat="41.675334" lon="2.567768">
        <ele>459.613</ele>
        <time>2021-05-26T10:10:54Z</time>
      </trkpt>
      <trkpt lat="41.675404" lon="2.567750">
        <ele>459.016</ele>
        <time>2021-05-26T10:10:56Z</time>
      </trkpt>
      <trkpt lat="41.675503" lon="2.567716">
        <ele>457.771</ele>
        <time>2021-05-26T10:11:00Z</time>
      </trkpt>
      <trkpt lat="41.675588" lon="2.567672">
        <ele>456.157</ele>
        <time>2021-05-26T10:11:03Z</time>
      </trkpt>
      <trkpt lat="41.675700" lon="2.567654">
        <ele>454.874</ele>
        <time>2021-05-26T10:11:07Z</time>
      </trkpt>
      <trkpt lat="41.675814" lon="2.567687">
        <ele>454.931</ele>
        <time>2021-05-26T10:11:11Z</time>
      </trkpt>
      <trkpt lat="41.675874" lon="2.567711">
        <ele>454.984</ele>
        <time>2021-05-26T10:11:13Z</time>
      </trkpt>
      <trkpt lat="41.675983" lon="2.567732">
        <ele>454.207</ele>
        <time>2021-05-26T10:11:17Z</time>
      </trkpt>
      <trkpt lat="41.676082" lon="2.567711">
        <ele>452.617</ele>
        <time>2021-05-26T10:11:20Z</time>
      </trkpt>
      <trkpt lat="41.676174" lon="2.567659">
        <ele>450.708</ele>
        <time>2021-05-26T10:11:23Z</time>
      </trkpt>
      <trkpt lat="41.676269" lon="2.567574">
        <ele>447.935</ele>
        <time>2021-05-26T10:11:26Z</time>
      </trkpt>
      <trkpt lat="41.676320" lon="2.567520">
        <ele>446.122</ele>
        <time>2021-05-26T10:11:28Z</time>
      </trkpt>
      <trkpt lat="41.676347" lon="2.567498">
        <ele>445.229</ele>
        <time>2021-05-26T10:11:29Z</time>
      </trkpt>
      <trkpt lat="41.676375" lon="2.567475">
        <ele>444.372</ele>
        <time>2021-05-26T10:11:30Z</time>
      </trkpt>
      <trkpt lat="41.676402" lon="2.567457">
        <ele>443.797</ele>
        <time>2021-05-26T10:11:31Z</time>
      </trkpt>
      <trkpt lat="41.676427" lon="2.567439">
        <ele>443.443</ele>
        <time>2021-05-26T10:11:32Z</time>
      </trkpt>
      <trkpt lat="41.676453" lon="2.567417">
        <ele>443.020</ele>
        <time>2021-05-26T10:11:33Z</time>
      </trkpt>
      <trkpt lat="41.676476" lon="2.567395">
        <ele>442.517</ele>
        <time>2021-05-26T10:11:34Z</time>
      </trkpt>
      <trkpt lat="41.676572" lon="2.567346">
        <ele>442.054</ele>
        <time>2021-05-26T10:11:38Z</time>
      </trkpt>
      <trkpt lat="41.676661" lon="2.567298">
        <ele>441.456</ele>
        <time>2021-05-26T10:11:42Z</time>
      </trkpt>
      <trkpt lat="41.676731" lon="2.567236">
        <ele>440.111</ele>
        <time>2021-05-26T10:11:45Z</time>
      </trkpt>
      <trkpt lat="41.676748" lon="2.567203">
        <ele>439.308</ele>
        <time>2021-05-26T10:11:46Z</time>
      </trkpt>
      <trkpt lat="41.676776" lon="2.567141">
        <ele>438.022</ele>
        <time>2021-05-26T10:11:48Z</time>
      </trkpt>
      <trkpt lat="41.676791" lon="2.567107">
        <ele>437.299</ele>
        <time>2021-05-26T10:11:49Z</time>
      </trkpt>
      <trkpt lat="41.676803" lon="2.567076">
        <ele>436.536</ele>
        <time>2021-05-26T10:11:50Z</time>
      </trkpt>
      <trkpt lat="41.676817" lon="2.567048">
        <ele>435.929</ele>
        <time>2021-05-26T10:11:51Z</time>
      </trkpt>
      <trkpt lat="41.676833" lon="2.567021">
        <ele>435.434</ele>
        <time>2021-05-26T10:11:52Z</time>
      </trkpt>
      <trkpt lat="41.676848" lon="2.566996">
        <ele>435.040</ele>
        <time>2021-05-26T10:11:53Z</time>
      </trkpt>
      <trkpt lat="41.676866" lon="2.566979">
        <ele>434.867</ele>
        <time>2021-05-26T10:11:54Z</time>
      </trkpt>
      <trkpt lat="41.676886" lon="2.566956">
        <ele>434.554</ele>
        <time>2021-05-26T10:11:55Z</time>
      </trkpt>
      <trkpt lat="41.676903" lon="2.566935">
        <ele>434.299</ele>
        <time>2021-05-26T10:11:56Z</time>
      </trkpt>
      <trkpt lat="41.676923" lon="2.566916">
        <ele>434.107</ele>
        <time>2021-05-26T10:11:57Z</time>
      </trkpt>
      <trkpt lat="41.676943" lon="2.566893">
        <ele>433.927</ele>
        <time>2021-05-26T10:11:58Z</time>
      </trkpt>
      <trkpt lat="41.676960" lon="2.566872">
        <ele>433.508</ele>
        <time>2021-05-26T10:11:59Z</time>
      </trkpt>
      <trkpt lat="41.676979" lon="2.566853">
        <ele>433.276</ele>
        <time>2021-05-26T10:12:00Z</time>
      </trkpt>
      <trkpt lat="41.677002" lon="2.566831">
        <ele>432.973</ele>
        <time>2021-05-26T10:12:01Z</time>
      </trkpt>
      <trkpt lat="41.677028" lon="2.566806">
        <ele>432.640</ele>
        <time>2021-05-26T10:12:02Z</time>
      </trkpt>
      <trkpt lat="41.677047" lon="2.566780">
        <ele>432.383</ele>
        <time>2021-05-26T10:12:03Z</time>
      </trkpt>
      <trkpt lat="41.677061" lon="2.566754">
        <ele>431.978</ele>
        <time>2021-05-26T10:12:04Z</time>
      </trkpt>
      <trkpt lat="41.677078" lon="2.566721">
        <ele>431.464</ele>
        <time>2021-05-26T10:12:05Z</time>
      </trkpt>
      <trkpt lat="41.677088" lon="2.566688">
        <ele>430.961</ele>
        <time>2021-05-26T10:12:06Z</time>
      </trkpt>
      <trkpt lat="41.677097" lon="2.566651">
        <ele>430.478</ele>
        <time>2021-05-26T10:12:07Z</time>
      </trkpt>
      <trkpt lat="41.677103" lon="2.566615">
        <ele>430.011</ele>
        <time>2021-05-26T10:12:08Z</time>
      </trkpt>
      <trkpt lat="41.677106" lon="2.566579">
        <ele>429.521</ele>
        <time>2021-05-26T10:12:09Z</time>
      </trkpt>
      <trkpt lat="41.677108" lon="2.566545">
        <ele>429.103</ele>
        <time>2021-05-26T10:12:10Z</time>
      </trkpt>
      <trkpt lat="41.677111" lon="2.566511">
        <ele>428.708</ele>
        <time>2021-05-26T10:12:11Z</time>
      </trkpt>
      <trkpt lat="41.677110" lon="2.566473">
        <ele>428.158</ele>
        <time>2021-05-26T10:12:12Z</time>
      </trkpt>
      <trkpt lat="41.677112" lon="2.566434">
        <ele>427.645</ele>
        <time>2021-05-26T10:12:13Z</time>
      </trkpt>
      <trkpt lat="41.677110" lon="2.566396">
        <ele>427.142</ele>
        <time>2021-05-26T10:12:14Z</time>
      </trkpt>
      <trkpt lat="41.677104" lon="2.566363">
        <ele>426.475</ele>
        <time>2021-05-26T10:12:15Z</time>
      </trkpt>
      <trkpt lat="41.677100" lon="2.566329">
        <ele>425.830</ele>
        <time>2021-05-26T10:12:16Z</time>
      </trkpt>
      <trkpt lat="41.677096" lon="2.566297">
        <ele>425.246</ele>
        <time>2021-05-26T10:12:17Z</time>
      </trkpt>
      <trkpt lat="41.677091" lon="2.566263">
        <ele>424.653</ele>
        <time>2021-05-26T10:12:18Z</time>
      </trkpt>
      <trkpt lat="41.677091" lon="2.566223">
        <ele>423.910</ele>
        <time>2021-05-26T10:12:19Z</time>
      </trkpt>
      <trkpt lat="41.677095" lon="2.566183">
        <ele>423.318</ele>
        <time>2021-05-26T10:12:20Z</time>
      </trkpt>
      <trkpt lat="41.677098" lon="2.566146">
        <ele>422.898</ele>
        <time>2021-05-26T10:12:21Z</time>
      </trkpt>
      <trkpt lat="41.677104" lon="2.566112">
        <ele>422.317</ele>
        <time>2021-05-26T10:12:22Z</time>
      </trkpt>
      <trkpt lat="41.677113" lon="2.566078">
        <ele>421.908</ele>
        <time>2021-05-26T10:12:23Z</time>
      </trkpt>
      <trkpt lat="41.677123" lon="2.566043">
        <ele>421.598</ele>
        <time>2021-05-26T10:12:24Z</time>
      </trkpt>
      <trkpt lat="41.677136" lon="2.566008">
        <ele>421.275</ele>
        <time>2021-05-26T10:12:25Z</time>
      </trkpt>
      <trkpt lat="41.677151" lon="2.565970">
        <ele>420.842</ele>
        <time>2021-05-26T10:12:26Z</time>
      </trkpt>
      <trkpt lat="41.677169" lon="2.565939">
        <ele>420.645</ele>
        <time>2021-05-26T10:12:27Z</time>
      </trkpt>
      <trkpt lat="41.677190" lon="2.565913">
        <ele>420.640</ele>
        <time>2021-05-26T10:12:28Z</time>
      </trkpt>
      <trkpt lat="41.677210" lon="2.565889">
        <ele>420.646</ele>
        <time>2021-05-26T10:12:29Z</time>
      </trkpt>
      <trkpt lat="41.677227" lon="2.565872">
        <ele>420.653</ele>
        <time>2021-05-26T10:12:30Z</time>
      </trkpt>
      <trkpt lat="41.677244" lon="2.565850">
        <ele>420.330</ele>
        <time>2021-05-26T10:12:31Z</time>
      </trkpt>
      <trkpt lat="41.677263" lon="2.565832">
        <ele>420.116</ele>
        <time>2021-05-26T10:12:32Z</time>
      </trkpt>
      <trkpt lat="41.677285" lon="2.565813">
        <ele>419.976</ele>
        <time>2021-05-26T10:12:33Z</time>
      </trkpt>
      <trkpt lat="41.677309" lon="2.565800">
        <ele>419.813</ele>
        <time>2021-05-26T10:12:34Z</time>
      </trkpt>
      <trkpt lat="41.677328" lon="2.565785">
        <ele>419.608</ele>
        <time>2021-05-26T10:12:35Z</time>
      </trkpt>
      <trkpt lat="41.677350" lon="2.565767">
        <ele>419.448</ele>
        <time>2021-05-26T10:12:36Z</time>
      </trkpt>
      <trkpt lat="41.677372" lon="2.565749">
        <ele>419.235</ele>
        <time>2021-05-26T10:12:37Z</time>
      </trkpt>
      <trkpt lat="41.677397" lon="2.565725">
        <ele>418.932</ele>
        <time>2021-05-26T10:12:38Z</time>
      </trkpt>
      <trkpt lat="41.677420" lon="2.565704">
        <ele>418.775</ele>
        <time>2021-05-26T10:12:39Z</time>
      </trkpt>
      <trkpt lat="41.677440" lon="2.565689">
        <ele>418.620</ele>
        <time>2021-05-26T10:12:40Z</time>
      </trkpt>
      <trkpt lat="41.677463" lon="2.565675">
        <ele>418.536</ele>
        <time>2021-05-26T10:12:41Z</time>
      </trkpt>
      <trkpt lat="41.677490" lon="2.565664">
        <ele>418.563</ele>
        <time>2021-05-26T10:12:42Z</time>
      </trkpt>
      <trkpt lat="41.677515" lon="2.565646">
        <ele>418.270</ele>
        <time>2021-05-26T10:12:43Z</time>
      </trkpt>
      <trkpt lat="41.677540" lon="2.565630">
        <ele>418.071</ele>
        <time>2021-05-26T10:12:44Z</time>
      </trkpt>
      <trkpt lat="41.677565" lon="2.565616">
        <ele>417.741</ele>
        <time>2021-05-26T10:12:45Z</time>
      </trkpt>
      <trkpt lat="41.677594" lon="2.565606">
        <ele>417.515</ele>
        <time>2021-05-26T10:12:46Z</time>
      </trkpt>
      <trkpt lat="41.677621" lon="2.565601">
        <ele>417.408</ele>
        <time>2021-05-26T10:12:47Z</time>
      </trkpt>
      <trkpt lat="41.677648" lon="2.565593">
        <ele>417.334</ele>
        <time>2021-05-26T10:12:48Z</time>
      </trkpt>
      <trkpt lat="41.677675" lon="2.565594">
        <ele>417.371</ele>
        <time>2021-05-26T10:12:49Z</time>
      </trkpt>
      <trkpt lat="41.677702" lon="2.565598">
        <ele>417.348</ele>
        <time>2021-05-26T10:12:50Z</time>
      </trkpt>
      <trkpt lat="41.677726" lon="2.565599">
        <ele>417.231</ele>
        <time>2021-05-26T10:12:51Z</time>
      </trkpt>
      <trkpt lat="41.677750" lon="2.565602">
        <ele>417.226</ele>
        <time>2021-05-26T10:12:52Z</time>
      </trkpt>
      <trkpt lat="41.677775" lon="2.565600">
        <ele>417.282</ele>
        <time>2021-05-26T10:12:53Z</time>
      </trkpt>
      <trkpt lat="41.677799" lon="2.565597">
        <ele>416.879</ele>
        <time>2021-05-26T10:12:54Z</time>
      </trkpt>
      <trkpt lat="41.677912" lon="2.565584">
        <ele>415.156</ele>
        <time>2021-05-26T10:12:58Z</time>
      </trkpt>
      <trkpt lat="41.678021" lon="2.565595">
        <ele>413.593</ele>
        <time>2021-05-26T10:13:02Z</time>
      </trkpt>
      <trkpt lat="41.678082" lon="2.565575">
        <ele>412.865</ele>
        <time>2021-05-26T10:13:04Z</time>
      </trkpt>
      <trkpt lat="41.678109" lon="2.565556">
        <ele>412.621</ele>
        <time>2021-05-26T10:13:05Z</time>
      </trkpt>
      <trkpt lat="41.678132" lon="2.565531">
        <ele>412.508</ele>
        <time>2021-05-26T10:13:06Z</time>
      </trkpt>
      <trkpt lat="41.678153" lon="2.565506">
        <ele>412.426</ele>
        <time>2021-05-26T10:13:07Z</time>
      </trkpt>
      <trkpt lat="41.678174" lon="2.565476">
        <ele>412.323</ele>
        <time>2021-05-26T10:13:08Z</time>
      </trkpt>
      <trkpt lat="41.678192" lon="2.565447">
        <ele>412.280</ele>
        <time>2021-05-26T10:13:09Z</time>
      </trkpt>
      <trkpt lat="41.678211" lon="2.565418">
        <ele>412.263</ele>
        <time>2021-05-26T10:13:10Z</time>
      </trkpt>
      <trkpt lat="41.678226" lon="2.565393">
        <ele>412.188</ele>
        <time>2021-05-26T10:13:11Z</time>
      </trkpt>
      <trkpt lat="41.678241" lon="2.565369">
        <ele>412.124</ele>
        <time>2021-05-26T10:13:12Z</time>
      </trkpt>
      <trkpt lat="41.678254" lon="2.565343">
        <ele>412.111</ele>
        <time>2021-05-26T10:13:13Z</time>
      </trkpt>
      <trkpt lat="41.678267" lon="2.565319">
        <ele>412.178</ele>
        <time>2021-05-26T10:13:14Z</time>
      </trkpt>
      <trkpt lat="41.678284" lon="2.565294">
        <ele>412.127</ele>
        <time>2021-05-26T10:13:15Z</time>
      </trkpt>
      <trkpt lat="41.678297" lon="2.565269">
        <ele>412.168</ele>
        <time>2021-05-26T10:13:16Z</time>
      </trkpt>
      <trkpt lat="41.678313" lon="2.565242">
        <ele>412.214</ele>
        <time>2021-05-26T10:13:17Z</time>
      </trkpt>
      <trkpt lat="41.678332" lon="2.565214">
        <ele>412.208</ele>
        <time>2021-05-26T10:13:18Z</time>
      </trkpt>
      <trkpt lat="41.678356" lon="2.565181">
        <ele>412.219</ele>
        <time>2021-05-26T10:13:19Z</time>
      </trkpt>
      <trkpt lat="41.678376" lon="2.565156">
        <ele>412.396</ele>
        <time>2021-05-26T10:13:20Z</time>
      </trkpt>
      <trkpt lat="41.678397" lon="2.565130">
        <ele>412.373</ele>
        <time>2021-05-26T10:13:21Z</time>
      </trkpt>
      <trkpt lat="41.678416" lon="2.565107">
        <ele>412.476</ele>
        <time>2021-05-26T10:13:22Z</time>
      </trkpt>
      <trkpt lat="41.678433" lon="2.565086">
        <ele>412.551</ele>
        <time>2021-05-26T10:13:23Z</time>
      </trkpt>
      <trkpt lat="41.678451" lon="2.565063">
        <ele>412.697</ele>
        <time>2021-05-26T10:13:24Z</time>
      </trkpt>
      <trkpt lat="41.678471" lon="2.565042">
        <ele>412.784</ele>
        <time>2021-05-26T10:13:25Z</time>
      </trkpt>
      <trkpt lat="41.678491" lon="2.565025">
        <ele>412.891</ele>
        <time>2021-05-26T10:13:26Z</time>
      </trkpt>
      <trkpt lat="41.678514" lon="2.565007">
        <ele>412.965</ele>
        <time>2021-05-26T10:13:27Z</time>
      </trkpt>
      <trkpt lat="41.678536" lon="2.564992">
        <ele>413.068</ele>
        <time>2021-05-26T10:13:28Z</time>
      </trkpt>
      <trkpt lat="41.678560" lon="2.564976">
        <ele>413.014</ele>
        <time>2021-05-26T10:13:29Z</time>
      </trkpt>
      <trkpt lat="41.678583" lon="2.564962">
        <ele>413.008</ele>
        <time>2021-05-26T10:13:30Z</time>
      </trkpt>
      <trkpt lat="41.678599" lon="2.564951">
        <ele>413.013</ele>
        <time>2021-05-26T10:13:31Z</time>
      </trkpt>
      <trkpt lat="41.678616" lon="2.564940">
        <ele>413.080</ele>
        <time>2021-05-26T10:13:32Z</time>
      </trkpt>
      <trkpt lat="41.678639" lon="2.564924">
        <ele>412.877</ele>
        <time>2021-05-26T10:13:33Z</time>
      </trkpt>
      <trkpt lat="41.678659" lon="2.564909">
        <ele>412.680</ele>
        <time>2021-05-26T10:13:34Z</time>
      </trkpt>
      <trkpt lat="41.678680" lon="2.564892">
        <ele>412.475</ele>
        <time>2021-05-26T10:13:35Z</time>
      </trkpt>
      <trkpt lat="41.678701" lon="2.564878">
        <ele>412.311</ele>
        <time>2021-05-26T10:13:36Z</time>
      </trkpt>
      <trkpt lat="41.678725" lon="2.564861">
        <ele>412.288</ele>
        <time>2021-05-26T10:13:37Z</time>
      </trkpt>
      <trkpt lat="41.678748" lon="2.564844">
        <ele>412.155</ele>
        <time>2021-05-26T10:13:38Z</time>
      </trkpt>
      <trkpt lat="41.678771" lon="2.564830">
        <ele>412.066</ele>
        <time>2021-05-26T10:13:39Z</time>
      </trkpt>
      <trkpt lat="41.678796" lon="2.564812">
        <ele>411.929</ele>
        <time>2021-05-26T10:13:40Z</time>
      </trkpt>
      <trkpt lat="41.678817" lon="2.564797">
        <ele>411.921</ele>
        <time>2021-05-26T10:13:41Z</time>
      </trkpt>
      <trkpt lat="41.678845" lon="2.564778">
        <ele>411.808</ele>
        <time>2021-05-26T10:13:42Z</time>
      </trkpt>
      <trkpt lat="41.678870" lon="2.564757">
        <ele>411.833</ele>
        <time>2021-05-26T10:13:43Z</time>
      </trkpt>
      <trkpt lat="41.678893" lon="2.564732">
        <ele>411.910</ele>
        <time>2021-05-26T10:13:44Z</time>
      </trkpt>
      <trkpt lat="41.678920" lon="2.564711">
        <ele>411.547</ele>
        <time>2021-05-26T10:13:45Z</time>
      </trkpt>
      <trkpt lat="41.678944" lon="2.564688">
        <ele>411.210</ele>
        <time>2021-05-26T10:13:46Z</time>
      </trkpt>
      <trkpt lat="41.678963" lon="2.564668">
        <ele>410.925</ele>
        <time>2021-05-26T10:13:47Z</time>
      </trkpt>
      <trkpt lat="41.678986" lon="2.564645">
        <ele>410.731</ele>
        <time>2021-05-26T10:13:48Z</time>
      </trkpt>
      <trkpt lat="41.679004" lon="2.564621">
        <ele>410.618</ele>
        <time>2021-05-26T10:13:49Z</time>
      </trkpt>
      <trkpt lat="41.679023" lon="2.564595">
        <ele>410.525</ele>
        <time>2021-05-26T10:13:50Z</time>
      </trkpt>
      <trkpt lat="41.679049" lon="2.564569">
        <ele>410.474</ele>
        <time>2021-05-26T10:13:51Z</time>
      </trkpt>
      <trkpt lat="41.679070" lon="2.564542">
        <ele>410.456</ele>
        <time>2021-05-26T10:13:52Z</time>
      </trkpt>
      <trkpt lat="41.679088" lon="2.564519">
        <ele>410.521</ele>
        <time>2021-05-26T10:13:53Z</time>
      </trkpt>
      <trkpt lat="41.679104" lon="2.564497">
        <ele>410.608</ele>
        <time>2021-05-26T10:13:54Z</time>
      </trkpt>
      <trkpt lat="41.679124" lon="2.564473">
        <ele>410.894</ele>
        <time>2021-05-26T10:13:55Z</time>
      </trkpt>
      <trkpt lat="41.679145" lon="2.564448">
        <ele>411.031</ele>
        <time>2021-05-26T10:13:56Z</time>
      </trkpt>
      <trkpt lat="41.679164" lon="2.564426">
        <ele>411.068</ele>
        <time>2021-05-26T10:13:57Z</time>
      </trkpt>
      <trkpt lat="41.679182" lon="2.564402">
        <ele>410.661</ele>
        <time>2021-05-26T10:13:58Z</time>
      </trkpt>
      <trkpt lat="41.679203" lon="2.564375">
        <ele>410.126</ele>
        <time>2021-05-26T10:13:59Z</time>
      </trkpt>
      <trkpt lat="41.679223" lon="2.564350">
        <ele>409.752</ele>
        <time>2021-05-26T10:14:00Z</time>
      </trkpt>
      <trkpt lat="41.679248" lon="2.564327">
        <ele>409.319</ele>
        <time>2021-05-26T10:14:01Z</time>
      </trkpt>
      <trkpt lat="41.679273" lon="2.564304">
        <ele>408.936</ele>
        <time>2021-05-26T10:14:02Z</time>
      </trkpt>
      <trkpt lat="41.679298" lon="2.564281">
        <ele>408.624</ele>
        <time>2021-05-26T10:14:03Z</time>
      </trkpt>
      <trkpt lat="41.679321" lon="2.564259">
        <ele>408.404</ele>
        <time>2021-05-26T10:14:04Z</time>
      </trkpt>
      <trkpt lat="41.679340" lon="2.564238">
        <ele>408.314</ele>
        <time>2021-05-26T10:14:05Z</time>
      </trkpt>
      <trkpt lat="41.679358" lon="2.564220">
        <ele>408.308</ele>
        <time>2021-05-26T10:14:06Z</time>
      </trkpt>
      <trkpt lat="41.679380" lon="2.564199">
        <ele>408.289</ele>
        <time>2021-05-26T10:14:07Z</time>
      </trkpt>
      <trkpt lat="41.679404" lon="2.564179">
        <ele>408.246</ele>
        <time>2021-05-26T10:14:08Z</time>
      </trkpt>
      <trkpt lat="41.679424" lon="2.564164">
        <ele>408.233</ele>
        <time>2021-05-26T10:14:09Z</time>
      </trkpt>
      <trkpt lat="41.679450" lon="2.564144">
        <ele>408.046</ele>
        <time>2021-05-26T10:14:10Z</time>
      </trkpt>
      <trkpt lat="41.679471" lon="2.564123">
        <ele>407.761</ele>
        <time>2021-05-26T10:14:11Z</time>
      </trkpt>
      <trkpt lat="41.679492" lon="2.564104">
        <ele>407.417</ele>
        <time>2021-05-26T10:14:12Z</time>
      </trkpt>
      <trkpt lat="41.679513" lon="2.564086">
        <ele>407.114</ele>
        <time>2021-05-26T10:14:13Z</time>
      </trkpt>
      <trkpt lat="41.679536" lon="2.564068">
        <ele>406.891</ele>
        <time>2021-05-26T10:14:14Z</time>
      </trkpt>
      <trkpt lat="41.679560" lon="2.564045">
        <ele>406.514</ele>
        <time>2021-05-26T10:14:15Z</time>
      </trkpt>
      <trkpt lat="41.679581" lon="2.564021">
        <ele>406.454</ele>
        <time>2021-05-26T10:14:16Z</time>
      </trkpt>
      <trkpt lat="41.679604" lon="2.563998">
        <ele>406.209</ele>
        <time>2021-05-26T10:14:17Z</time>
      </trkpt>
      <trkpt lat="41.679629" lon="2.563975">
        <ele>406.108</ele>
        <time>2021-05-26T10:14:18Z</time>
      </trkpt>
      <trkpt lat="41.679652" lon="2.563955">
        <ele>406.068</ele>
        <time>2021-05-26T10:14:19Z</time>
      </trkpt>
      <trkpt lat="41.679676" lon="2.563936">
        <ele>405.925</ele>
        <time>2021-05-26T10:14:20Z</time>
      </trkpt>
      <trkpt lat="41.679699" lon="2.563920">
        <ele>405.892</ele>
        <time>2021-05-26T10:14:21Z</time>
      </trkpt>
      <trkpt lat="41.679721" lon="2.563907">
        <ele>405.725</ele>
        <time>2021-05-26T10:14:22Z</time>
      </trkpt>
      <trkpt lat="41.679748" lon="2.563896">
        <ele>405.340</ele>
        <time>2021-05-26T10:14:23Z</time>
      </trkpt>
      <trkpt lat="41.679777" lon="2.563882">
        <ele>404.996</ele>
        <time>2021-05-26T10:14:24Z</time>
      </trkpt>
      <trkpt lat="41.679801" lon="2.563865">
        <ele>404.563</ele>
        <time>2021-05-26T10:14:25Z</time>
      </trkpt>
      <trkpt lat="41.679826" lon="2.563850">
        <ele>404.170</ele>
        <time>2021-05-26T10:14:26Z</time>
      </trkpt>
      <trkpt lat="41.679850" lon="2.563836">
        <ele>403.817</ele>
        <time>2021-05-26T10:14:27Z</time>
      </trkpt>
      <trkpt lat="41.679875" lon="2.563823">
        <ele>403.487</ele>
        <time>2021-05-26T10:14:28Z</time>
      </trkpt>
      <trkpt lat="41.679904" lon="2.563809">
        <ele>403.015</ele>
        <time>2021-05-26T10:14:29Z</time>
      </trkpt>
      <trkpt lat="41.679929" lon="2.563795">
        <ele>402.708</ele>
        <time>2021-05-26T10:14:30Z</time>
      </trkpt>
      <trkpt lat="41.679960" lon="2.563775">
        <ele>402.438</ele>
        <time>2021-05-26T10:14:31Z</time>
      </trkpt>
      <trkpt lat="41.679987" lon="2.563753">
        <ele>402.255</ele>
        <time>2021-05-26T10:14:32Z</time>
      </trkpt>
      <trkpt lat="41.680014" lon="2.563733">
        <ele>401.952</ele>
        <time>2021-05-26T10:14:33Z</time>
      </trkpt>
      <trkpt lat="41.680041" lon="2.563709">
        <ele>401.735</ele>
        <time>2021-05-26T10:14:34Z</time>
      </trkpt>
      <trkpt lat="41.680066" lon="2.563683">
        <ele>401.740</ele>
        <time>2021-05-26T10:14:35Z</time>
      </trkpt>
      <trkpt lat="41.680084" lon="2.563651">
        <ele>401.886</ele>
        <time>2021-05-26T10:14:36Z</time>
      </trkpt>
      <trkpt lat="41.680099" lon="2.563621">
        <ele>402.113</ele>
        <time>2021-05-26T10:14:37Z</time>
      </trkpt>
      <trkpt lat="41.680119" lon="2.563596">
        <ele>402.030</ele>
        <time>2021-05-26T10:14:38Z</time>
      </trkpt>
      <trkpt lat="41.680138" lon="2.563573">
        <ele>401.859</ele>
        <time>2021-05-26T10:14:39Z</time>
      </trkpt>
      <trkpt lat="41.680158" lon="2.563552">
        <ele>401.603</ele>
        <time>2021-05-26T10:14:40Z</time>
      </trkpt>
      <trkpt lat="41.680182" lon="2.563533">
        <ele>401.323</ele>
        <time>2021-05-26T10:14:41Z</time>
      </trkpt>
      <trkpt lat="41.680204" lon="2.563513">
        <ele>401.008</ele>
        <time>2021-05-26T10:14:42Z</time>
      </trkpt>
      <trkpt lat="41.680222" lon="2.563496">
        <ele>400.882</ele>
        <time>2021-05-26T10:14:43Z</time>
      </trkpt>
      <trkpt lat="41.680249" lon="2.563485">
        <ele>400.469</ele>
        <time>2021-05-26T10:14:45Z</time>
      </trkpt>
      <trkpt lat="41.680275" lon="2.563483">
        <ele>400.056</ele>
        <time>2021-05-26T10:14:47Z</time>
      </trkpt>
      <trkpt lat="41.680296" lon="2.563485">
        <ele>399.829</ele>
        <time>2021-05-26T10:14:50Z</time>
      </trkpt>
      <trkpt lat="41.680324" lon="2.563477">
        <ele>399.744</ele>
        <time>2021-05-26T10:14:52Z</time>
      </trkpt>
      <trkpt lat="41.680358" lon="2.563477">
        <ele>399.510</ele>
        <time>2021-05-26T10:14:54Z</time>
      </trkpt>
      <trkpt lat="41.680378" lon="2.563475">
        <ele>399.437</ele>
        <time>2021-05-26T10:14:55Z</time>
      </trkpt>
      <trkpt lat="41.680398" lon="2.563477">
        <ele>399.344</ele>
        <time>2021-05-26T10:14:56Z</time>
      </trkpt>
      <trkpt lat="41.680420" lon="2.563481">
        <ele>399.276</ele>
        <time>2021-05-26T10:14:57Z</time>
      </trkpt>
      <trkpt lat="41.680445" lon="2.563483">
        <ele>399.090</ele>
        <time>2021-05-26T10:14:58Z</time>
      </trkpt>
      <trkpt lat="41.680468" lon="2.563488">
        <ele>398.819</ele>
        <time>2021-05-26T10:14:59Z</time>
      </trkpt>
      <trkpt lat="41.680497" lon="2.563492">
        <ele>398.608</ele>
        <time>2021-05-26T10:15:00Z</time>
      </trkpt>
      <trkpt lat="41.680519" lon="2.563498">
        <ele>398.474</ele>
        <time>2021-05-26T10:15:01Z</time>
      </trkpt>
      <trkpt lat="41.680544" lon="2.563506">
        <ele>398.291</ele>
        <time>2021-05-26T10:15:02Z</time>
      </trkpt>
      <trkpt lat="41.680570" lon="2.563516">
        <ele>398.178</ele>
        <time>2021-05-26T10:15:03Z</time>
      </trkpt>
      <trkpt lat="41.680594" lon="2.563529">
        <ele>398.031</ele>
        <time>2021-05-26T10:15:04Z</time>
      </trkpt>
      <trkpt lat="41.680620" lon="2.563543">
        <ele>398.086</ele>
        <time>2021-05-26T10:15:05Z</time>
      </trkpt>
      <trkpt lat="41.680645" lon="2.563553">
        <ele>397.992</ele>
        <time>2021-05-26T10:15:06Z</time>
      </trkpt>
      <trkpt lat="41.680670" lon="2.563565">
        <ele>397.969</ele>
        <time>2021-05-26T10:15:07Z</time>
      </trkpt>
      <trkpt lat="41.680691" lon="2.563579">
        <ele>397.886</ele>
        <time>2021-05-26T10:15:08Z</time>
      </trkpt>
      <trkpt lat="41.680715" lon="2.563592">
        <ele>397.811</ele>
        <time>2021-05-26T10:15:09Z</time>
      </trkpt>
      <trkpt lat="41.680741" lon="2.563605">
        <ele>397.721</ele>
        <time>2021-05-26T10:15:10Z</time>
      </trkpt>
      <trkpt lat="41.680765" lon="2.563621">
        <ele>397.503</ele>
        <time>2021-05-26T10:15:11Z</time>
      </trkpt>
      <trkpt lat="41.680796" lon="2.563638">
        <ele>397.208</ele>
        <time>2021-05-26T10:15:12Z</time>
      </trkpt>
      <trkpt lat="41.680827" lon="2.563651">
        <ele>397.048</ele>
        <time>2021-05-26T10:15:13Z</time>
      </trkpt>
      <trkpt lat="41.680856" lon="2.563664">
        <ele>396.625</ele>
        <time>2021-05-26T10:15:14Z</time>
      </trkpt>
      <trkpt lat="41.680882" lon="2.563675">
        <ele>396.352</ele>
        <time>2021-05-26T10:15:15Z</time>
      </trkpt>
      <trkpt lat="41.680906" lon="2.563683">
        <ele>396.115</ele>
        <time>2021-05-26T10:15:16Z</time>
      </trkpt>
      <trkpt lat="41.680932" lon="2.563697">
        <ele>395.690</ele>
        <time>2021-05-26T10:15:17Z</time>
      </trkpt>
      <trkpt lat="41.680959" lon="2.563716">
        <ele>395.066</ele>
        <time>2021-05-26T10:15:18Z</time>
      </trkpt>
      <trkpt lat="41.680983" lon="2.563742">
        <ele>394.253</ele>
        <time>2021-05-26T10:15:19Z</time>
      </trkpt>
      <trkpt lat="41.681008" lon="2.563764">
        <ele>393.570</ele>
        <time>2021-05-26T10:15:20Z</time>
      </trkpt>
      <trkpt lat="41.681032" lon="2.563782">
        <ele>392.855</ele>
        <time>2021-05-26T10:15:21Z</time>
      </trkpt>
      <trkpt lat="41.681057" lon="2.563800">
        <ele>392.107</ele>
        <time>2021-05-26T10:15:22Z</time>
      </trkpt>
      <trkpt lat="41.681078" lon="2.563819">
        <ele>391.417</ele>
        <time>2021-05-26T10:15:23Z</time>
      </trkpt>
      <trkpt lat="41.681102" lon="2.563836">
        <ele>390.808</ele>
        <time>2021-05-26T10:15:24Z</time>
      </trkpt>
      <trkpt lat="41.681122" lon="2.563858">
        <ele>389.952</ele>
        <time>2021-05-26T10:15:25Z</time>
      </trkpt>
      <trkpt lat="41.681147" lon="2.563883">
        <ele>388.989</ele>
        <time>2021-05-26T10:15:26Z</time>
      </trkpt>
      <trkpt lat="41.681170" lon="2.563908">
        <ele>387.976</ele>
        <time>2021-05-26T10:15:27Z</time>
      </trkpt>
      <trkpt lat="41.681190" lon="2.563936">
        <ele>386.899</ele>
        <time>2021-05-26T10:15:28Z</time>
      </trkpt>
      <trkpt lat="41.681215" lon="2.563962">
        <ele>385.814</ele>
        <time>2021-05-26T10:15:29Z</time>
      </trkpt>
      <trkpt lat="41.681240" lon="2.563983">
        <ele>385.010</ele>
        <time>2021-05-26T10:15:30Z</time>
      </trkpt>
      <trkpt lat="41.681262" lon="2.564008">
        <ele>384.127</ele>
        <time>2021-05-26T10:15:31Z</time>
      </trkpt>
      <trkpt lat="41.681286" lon="2.564030">
        <ele>383.354</ele>
        <time>2021-05-26T10:15:32Z</time>
      </trkpt>
      <trkpt lat="41.681309" lon="2.564054">
        <ele>382.519</ele>
        <time>2021-05-26T10:15:33Z</time>
      </trkpt>
      <trkpt lat="41.681333" lon="2.564073">
        <ele>381.809</ele>
        <time>2021-05-26T10:15:34Z</time>
      </trkpt>
      <trkpt lat="41.681357" lon="2.564086">
        <ele>381.419</ele>
        <time>2021-05-26T10:15:35Z</time>
      </trkpt>
      <trkpt lat="41.681382" lon="2.564085">
        <ele>381.408</ele>
        <time>2021-05-26T10:15:36Z</time>
      </trkpt>
      <trkpt lat="41.681407" lon="2.564071">
        <ele>381.638</ele>
        <time>2021-05-26T10:15:37Z</time>
      </trkpt>
      <trkpt lat="41.681429" lon="2.564051">
        <ele>382.035</ele>
        <time>2021-05-26T10:15:38Z</time>
      </trkpt>
      <trkpt lat="41.681454" lon="2.564028">
        <ele>382.592</ele>
        <time>2021-05-26T10:15:39Z</time>
      </trkpt>
      <trkpt lat="41.681482" lon="2.564001">
        <ele>383.225</ele>
        <time>2021-05-26T10:15:40Z</time>
      </trkpt>
      <trkpt lat="41.681507" lon="2.563977">
        <ele>383.840</ele>
        <time>2021-05-26T10:15:41Z</time>
      </trkpt>
      <trkpt lat="41.681529" lon="2.563955">
        <ele>384.416</ele>
        <time>2021-05-26T10:15:42Z</time>
      </trkpt>
      <trkpt lat="41.681553" lon="2.563930">
        <ele>385.193</ele>
        <time>2021-05-26T10:15:43Z</time>
      </trkpt>
      <trkpt lat="41.681578" lon="2.563910">
        <ele>385.630</ele>
        <time>2021-05-26T10:15:44Z</time>
      </trkpt>
      <trkpt lat="41.681602" lon="2.563895">
        <ele>386.093</ele>
        <time>2021-05-26T10:15:45Z</time>
      </trkpt>
      <trkpt lat="41.681622" lon="2.563885">
        <ele>386.365</ele>
        <time>2021-05-26T10:15:46Z</time>
      </trkpt>
      <trkpt lat="41.681645" lon="2.563875">
        <ele>386.421</ele>
        <time>2021-05-26T10:15:47Z</time>
      </trkpt>
      <trkpt lat="41.681665" lon="2.563866">
        <ele>386.508</ele>
        <time>2021-05-26T10:15:48Z</time>
      </trkpt>
      <trkpt lat="41.681693" lon="2.563854">
        <ele>385.996</ele>
        <time>2021-05-26T10:15:49Z</time>
      </trkpt>
      <trkpt lat="41.681716" lon="2.563845">
        <ele>385.423</ele>
        <time>2021-05-26T10:15:50Z</time>
      </trkpt>
      <trkpt lat="41.681739" lon="2.563832">
        <ele>384.980</ele>
        <time>2021-05-26T10:15:51Z</time>
      </trkpt>
      <trkpt lat="41.681765" lon="2.563822">
        <ele>384.353</ele>
        <time>2021-05-26T10:15:52Z</time>
      </trkpt>
      <trkpt lat="41.681793" lon="2.563815">
        <ele>383.558</ele>
        <time>2021-05-26T10:15:53Z</time>
      </trkpt>
      <trkpt lat="41.681821" lon="2.563806">
        <ele>382.844</ele>
        <time>2021-05-26T10:15:54Z</time>
      </trkpt>
      <trkpt lat="41.681847" lon="2.563797">
        <ele>382.141</ele>
        <time>2021-05-26T10:15:55Z</time>
      </trkpt>
      <trkpt lat="41.681870" lon="2.563781">
        <ele>381.718</ele>
        <time>2021-05-26T10:15:56Z</time>
      </trkpt>
      <trkpt lat="41.681895" lon="2.563768">
        <ele>381.285</ele>
        <time>2021-05-26T10:15:57Z</time>
      </trkpt>
      <trkpt lat="41.681922" lon="2.563744">
        <ele>380.989</ele>
        <time>2021-05-26T10:15:58Z</time>
      </trkpt>
      <trkpt lat="41.681951" lon="2.563718">
        <ele>380.417</ele>
        <time>2021-05-26T10:15:59Z</time>
      </trkpt>
      <trkpt lat="41.681978" lon="2.563693">
        <ele>379.908</ele>
        <time>2021-05-26T10:16:00Z</time>
      </trkpt>
      <trkpt lat="41.682006" lon="2.563667">
        <ele>379.415</ele>
        <time>2021-05-26T10:16:01Z</time>
      </trkpt>
      <trkpt lat="41.682036" lon="2.563639">
        <ele>378.822</ele>
        <time>2021-05-26T10:16:02Z</time>
      </trkpt>
      <trkpt lat="41.682061" lon="2.563610">
        <ele>378.459</ele>
        <time>2021-05-26T10:16:03Z</time>
      </trkpt>
      <trkpt lat="41.682083" lon="2.563582">
        <ele>378.022</ele>
        <time>2021-05-26T10:16:04Z</time>
      </trkpt>
      <trkpt lat="41.682107" lon="2.563555">
        <ele>377.587</ele>
        <time>2021-05-26T10:16:05Z</time>
      </trkpt>
      <trkpt lat="41.682130" lon="2.563524">
        <ele>377.143</ele>
        <time>2021-05-26T10:16:06Z</time>
      </trkpt>
      <trkpt lat="41.682148" lon="2.563497">
        <ele>376.930</ele>
        <time>2021-05-26T10:16:07Z</time>
      </trkpt>
      <trkpt lat="41.682162" lon="2.563467">
        <ele>376.957</ele>
        <time>2021-05-26T10:16:08Z</time>
      </trkpt>
      <trkpt lat="41.682174" lon="2.563436">
        <ele>377.062</ele>
        <time>2021-05-26T10:16:09Z</time>
      </trkpt>
      <trkpt lat="41.682187" lon="2.563402">
        <ele>377.183</ele>
        <time>2021-05-26T10:16:10Z</time>
      </trkpt>
      <trkpt lat="41.682200" lon="2.563371">
        <ele>377.111</ele>
        <time>2021-05-26T10:16:11Z</time>
      </trkpt>
      <trkpt lat="41.682209" lon="2.563348">
        <ele>377.208</ele>
        <time>2021-05-26T10:16:12Z</time>
      </trkpt>
      <trkpt lat="41.682242" lon="2.563320">
        <ele>376.983</ele>
        <time>2021-05-26T10:16:14Z</time>
      </trkpt>
      <trkpt lat="41.682266" lon="2.563309">
        <ele>376.790</ele>
        <time>2021-05-26T10:16:15Z</time>
      </trkpt>
      <trkpt lat="41.682289" lon="2.563302">
        <ele>376.477</ele>
        <time>2021-05-26T10:16:16Z</time>
      </trkpt>
      <trkpt lat="41.682314" lon="2.563292">
        <ele>376.110</ele>
        <time>2021-05-26T10:16:17Z</time>
      </trkpt>
      <trkpt lat="41.682339" lon="2.563282">
        <ele>375.825</ele>
        <time>2021-05-26T10:16:18Z</time>
      </trkpt>
      <trkpt lat="41.682366" lon="2.563280">
        <ele>375.261</ele>
        <time>2021-05-26T10:16:19Z</time>
      </trkpt>
      <trkpt lat="41.682392" lon="2.563279">
        <ele>374.628</ele>
        <time>2021-05-26T10:16:20Z</time>
      </trkpt>
      <trkpt lat="41.682414" lon="2.563279">
        <ele>374.155</ele>
        <time>2021-05-26T10:16:21Z</time>
      </trkpt>
      <trkpt lat="41.682438" lon="2.563280">
        <ele>373.475</ele>
        <time>2021-05-26T10:16:22Z</time>
      </trkpt>
      <trkpt lat="41.682462" lon="2.563279">
        <ele>372.928</ele>
        <time>2021-05-26T10:16:23Z</time>
      </trkpt>
      <trkpt lat="41.682497" lon="2.563268">
        <ele>372.420</ele>
        <time>2021-05-26T10:16:25Z</time>
      </trkpt>
      <trkpt lat="41.682520" lon="2.563259">
        <ele>371.808</ele>
        <time>2021-05-26T10:16:26Z</time>
      </trkpt>
      <trkpt lat="41.682545" lon="2.563246">
        <ele>371.174</ele>
        <time>2021-05-26T10:16:27Z</time>
      </trkpt>
      <trkpt lat="41.682566" lon="2.563237">
        <ele>370.561</ele>
        <time>2021-05-26T10:16:28Z</time>
      </trkpt>
      <trkpt lat="41.682586" lon="2.563232">
        <ele>369.728</ele>
        <time>2021-05-26T10:16:29Z</time>
      </trkpt>
      <trkpt lat="41.682613" lon="2.563226">
        <ele>368.781</ele>
        <time>2021-05-26T10:16:30Z</time>
      </trkpt>
      <trkpt lat="41.682638" lon="2.563219">
        <ele>367.996</ele>
        <time>2021-05-26T10:16:31Z</time>
      </trkpt>
      <trkpt lat="41.682665" lon="2.563214">
        <ele>366.872</ele>
        <time>2021-05-26T10:16:32Z</time>
      </trkpt>
      <trkpt lat="41.682690" lon="2.563207">
        <ele>366.059</ele>
        <time>2021-05-26T10:16:33Z</time>
      </trkpt>
      <trkpt lat="41.682715" lon="2.563199">
        <ele>365.126</ele>
        <time>2021-05-26T10:16:34Z</time>
      </trkpt>
      <trkpt lat="41.682739" lon="2.563187">
        <ele>364.531</ele>
        <time>2021-05-26T10:16:35Z</time>
      </trkpt>
      <trkpt lat="41.682764" lon="2.563182">
        <ele>363.661</ele>
        <time>2021-05-26T10:16:36Z</time>
      </trkpt>
      <trkpt lat="41.682797" lon="2.563178">
        <ele>362.407</ele>
        <time>2021-05-26T10:16:37Z</time>
      </trkpt>
      <trkpt lat="41.682827" lon="2.563175">
        <ele>361.208</ele>
        <time>2021-05-26T10:16:38Z</time>
      </trkpt>
      <trkpt lat="41.682855" lon="2.563177">
        <ele>360.080</ele>
        <time>2021-05-26T10:16:39Z</time>
      </trkpt>
      <trkpt lat="41.682884" lon="2.563176">
        <ele>358.967</ele>
        <time>2021-05-26T10:16:40Z</time>
      </trkpt>
      <trkpt lat="41.682909" lon="2.563174">
        <ele>357.924</ele>
        <time>2021-05-26T10:16:41Z</time>
      </trkpt>
      <trkpt lat="41.682937" lon="2.563170">
        <ele>356.947</ele>
        <time>2021-05-26T10:16:42Z</time>
      </trkpt>
      <trkpt lat="41.682966" lon="2.563162">
        <ele>356.122</ele>
        <time>2021-05-26T10:16:43Z</time>
      </trkpt>
      <trkpt lat="41.682989" lon="2.563156">
        <ele>355.478</ele>
        <time>2021-05-26T10:16:44Z</time>
      </trkpt>
      <trkpt lat="41.683012" lon="2.563150">
        <ele>354.795</ele>
        <time>2021-05-26T10:16:45Z</time>
      </trkpt>
      <trkpt lat="41.683037" lon="2.563136">
        <ele>354.362</ele>
        <time>2021-05-26T10:16:46Z</time>
      </trkpt>
      <trkpt lat="41.683063" lon="2.563119">
        <ele>354.026</ele>
        <time>2021-05-26T10:16:47Z</time>
      </trkpt>
      <trkpt lat="41.683086" lon="2.563103">
        <ele>353.847</ele>
        <time>2021-05-26T10:16:48Z</time>
      </trkpt>
      <trkpt lat="41.683107" lon="2.563085">
        <ele>353.711</ele>
        <time>2021-05-26T10:16:49Z</time>
      </trkpt>
      <trkpt lat="41.683129" lon="2.563064">
        <ele>353.708</ele>
        <time>2021-05-26T10:16:50Z</time>
      </trkpt>
      <trkpt lat="41.683156" lon="2.563038">
        <ele>354.019</ele>
        <time>2021-05-26T10:16:51Z</time>
      </trkpt>
      <trkpt lat="41.683183" lon="2.563005">
        <ele>354.896</ele>
        <time>2021-05-26T10:16:52Z</time>
      </trkpt>
      <trkpt lat="41.683208" lon="2.562976">
        <ele>355.473</ele>
        <time>2021-05-26T10:16:53Z</time>
      </trkpt>
      <trkpt lat="41.683230" lon="2.562949">
        <ele>356.096</ele>
        <time>2021-05-26T10:16:54Z</time>
      </trkpt>
      <trkpt lat="41.683250" lon="2.562921">
        <ele>356.731</ele>
        <time>2021-05-26T10:16:55Z</time>
      </trkpt>
      <trkpt lat="41.683268" lon="2.562893">
        <ele>357.517</ele>
        <time>2021-05-26T10:16:56Z</time>
      </trkpt>
      <trkpt lat="41.683287" lon="2.562862">
        <ele>358.444</ele>
        <time>2021-05-26T10:16:57Z</time>
      </trkpt>
      <trkpt lat="41.683310" lon="2.562833">
        <ele>359.031</ele>
        <time>2021-05-26T10:16:58Z</time>
      </trkpt>
      <trkpt lat="41.683331" lon="2.562802">
        <ele>359.866</ele>
        <time>2021-05-26T10:16:59Z</time>
      </trkpt>
      <trkpt lat="41.683349" lon="2.562772">
        <ele>360.629</ele>
        <time>2021-05-26T10:17:00Z</time>
      </trkpt>
      <trkpt lat="41.683368" lon="2.562743">
        <ele>361.321</ele>
        <time>2021-05-26T10:17:01Z</time>
      </trkpt>
      <trkpt lat="41.683383" lon="2.562718">
        <ele>361.908</ele>
        <time>2021-05-26T10:17:02Z</time>
      </trkpt>
      <trkpt lat="41.683403" lon="2.562691">
        <ele>362.443</ele>
        <time>2021-05-26T10:17:03Z</time>
      </trkpt>
      <trkpt lat="41.683421" lon="2.562667">
        <ele>362.840</ele>
        <time>2021-05-26T10:17:04Z</time>
      </trkpt>
      <trkpt lat="41.683439" lon="2.562648">
        <ele>363.027</ele>
        <time>2021-05-26T10:17:05Z</time>
      </trkpt>
      <trkpt lat="41.683459" lon="2.562628">
        <ele>363.190</ele>
        <time>2021-05-26T10:17:06Z</time>
      </trkpt>
      <trkpt lat="41.683477" lon="2.562616">
        <ele>362.955</ele>
        <time>2021-05-26T10:17:07Z</time>
      </trkpt>
      <trkpt lat="41.683497" lon="2.562609">
        <ele>362.481</ele>
        <time>2021-05-26T10:17:08Z</time>
      </trkpt>
      <trkpt lat="41.683532" lon="2.562614">
        <ele>360.788</ele>
        <time>2021-05-26T10:17:10Z</time>
      </trkpt>
      <trkpt lat="41.683553" lon="2.562617">
        <ele>359.645</ele>
        <time>2021-05-26T10:17:11Z</time>
      </trkpt>
      <trkpt lat="41.683578" lon="2.562621">
        <ele>358.355</ele>
        <time>2021-05-26T10:17:12Z</time>
      </trkpt>
      <trkpt lat="41.683599" lon="2.562631">
        <ele>356.907</ele>
        <time>2021-05-26T10:17:13Z</time>
      </trkpt>
      <trkpt lat="41.683625" lon="2.562646">
        <ele>355.417</ele>
        <time>2021-05-26T10:17:14Z</time>
      </trkpt>
      <trkpt lat="41.683654" lon="2.562663">
        <ele>354.008</ele>
        <time>2021-05-26T10:17:15Z</time>
      </trkpt>
      <trkpt lat="41.683679" lon="2.562678">
        <ele>352.962</ele>
        <time>2021-05-26T10:17:16Z</time>
      </trkpt>
      <trkpt lat="41.683706" lon="2.562694">
        <ele>351.779</ele>
        <time>2021-05-26T10:17:17Z</time>
      </trkpt>
      <trkpt lat="41.683733" lon="2.562712">
        <ele>350.586</ele>
        <time>2021-05-26T10:17:18Z</time>
      </trkpt>
      <trkpt lat="41.683754" lon="2.562731">
        <ele>349.439</ele>
        <time>2021-05-26T10:17:19Z</time>
      </trkpt>
      <trkpt lat="41.683769" lon="2.562758">
        <ele>348.164</ele>
        <time>2021-05-26T10:17:20Z</time>
      </trkpt>
      <trkpt lat="41.683786" lon="2.562783">
        <ele>346.990</ele>
        <time>2021-05-26T10:17:21Z</time>
      </trkpt>
      <trkpt lat="41.683803" lon="2.562810">
        <ele>345.977</ele>
        <time>2021-05-26T10:17:22Z</time>
      </trkpt>
      <trkpt lat="41.683818" lon="2.562834">
        <ele>345.054</ele>
        <time>2021-05-26T10:17:23Z</time>
      </trkpt>
      <trkpt lat="41.683837" lon="2.562856">
        <ele>344.165</ele>
        <time>2021-05-26T10:17:24Z</time>
      </trkpt>
      <trkpt lat="41.683855" lon="2.562877">
        <ele>343.468</ele>
        <time>2021-05-26T10:17:25Z</time>
      </trkpt>
      <trkpt lat="41.683873" lon="2.562899">
        <ele>342.614</ele>
        <time>2021-05-26T10:17:26Z</time>
      </trkpt>
      <trkpt lat="41.683890" lon="2.562918">
        <ele>342.008</ele>
        <time>2021-05-26T10:17:27Z</time>
      </trkpt>
      <trkpt lat="41.683907" lon="2.562943">
        <ele>341.283</ele>
        <time>2021-05-26T10:17:28Z</time>
      </trkpt>
      <trkpt lat="41.683927" lon="2.562970">
        <ele>340.480</ele>
        <time>2021-05-26T10:17:29Z</time>
      </trkpt>
      <trkpt lat="41.683948" lon="2.563000">
        <ele>339.687</ele>
        <time>2021-05-26T10:17:30Z</time>
      </trkpt>
      <trkpt lat="41.683970" lon="2.563023">
        <ele>338.920</ele>
        <time>2021-05-26T10:17:31Z</time>
      </trkpt>
      <trkpt lat="41.683993" lon="2.563048">
        <ele>338.245</ele>
        <time>2021-05-26T10:17:32Z</time>
      </trkpt>
      <trkpt lat="41.684018" lon="2.563067">
        <ele>337.621</ele>
        <time>2021-05-26T10:17:33Z</time>
      </trkpt>
      <trkpt lat="41.684066" lon="2.563103">
        <ele>336.568</ele>
        <time>2021-05-26T10:17:34Z</time>
      </trkpt>
      <trkpt lat="41.684092" lon="2.563114">
        <ele>336.195</ele>
        <time>2021-05-26T10:17:36Z</time>
      </trkpt>
      <trkpt lat="41.684115" lon="2.563130">
        <ele>335.681</ele>
        <time>2021-05-26T10:17:37Z</time>
      </trkpt>
      <trkpt lat="41.684140" lon="2.563145">
        <ele>335.161</ele>
        <time>2021-05-26T10:17:38Z</time>
      </trkpt>
      <trkpt lat="41.684165" lon="2.563155">
        <ele>334.817</ele>
        <time>2021-05-26T10:17:39Z</time>
      </trkpt>
      <trkpt lat="41.684194" lon="2.563161">
        <ele>334.208</ele>
        <time>2021-05-26T10:17:40Z</time>
      </trkpt>
      <trkpt lat="41.684219" lon="2.563163">
        <ele>333.715</ele>
        <time>2021-05-26T10:17:41Z</time>
      </trkpt>
      <trkpt lat="41.684244" lon="2.563161">
        <ele>333.462</ele>
        <time>2021-05-26T10:17:42Z</time>
      </trkpt>
      <trkpt lat="41.684267" lon="2.563150">
        <ele>333.499</ele>
        <time>2021-05-26T10:17:43Z</time>
      </trkpt>
      <trkpt lat="41.684311" lon="2.563121">
        <ele>333.732</ele>
        <time>2021-05-26T10:17:44Z</time>
      </trkpt>
      <trkpt lat="41.684338" lon="2.563097">
        <ele>334.147</ele>
        <time>2021-05-26T10:17:46Z</time>
      </trkpt>
      <trkpt lat="41.684362" lon="2.563068">
        <ele>334.853</ele>
        <time>2021-05-26T10:17:47Z</time>
      </trkpt>
      <trkpt lat="41.684386" lon="2.563039">
        <ele>335.150</ele>
        <time>2021-05-26T10:17:48Z</time>
      </trkpt>
      <trkpt lat="41.684403" lon="2.563004">
        <ele>335.427</ele>
        <time>2021-05-26T10:17:49Z</time>
      </trkpt>
      <trkpt lat="41.684423" lon="2.562972">
        <ele>335.692</ele>
        <time>2021-05-26T10:17:50Z</time>
      </trkpt>
      <trkpt lat="41.684454" lon="2.562911">
        <ele>335.773</ele>
        <time>2021-05-26T10:17:51Z</time>
      </trkpt>
      <trkpt lat="41.684465" lon="2.562882">
        <ele>335.720</ele>
        <time>2021-05-26T10:17:53Z</time>
      </trkpt>
      <trkpt lat="41.684476" lon="2.562851">
        <ele>335.708</ele>
        <time>2021-05-26T10:17:54Z</time>
      </trkpt>
      <trkpt lat="41.684488" lon="2.562818">
        <ele>335.716</ele>
        <time>2021-05-26T10:17:55Z</time>
      </trkpt>
      <trkpt lat="41.684497" lon="2.562781">
        <ele>335.953</ele>
        <time>2021-05-26T10:17:56Z</time>
      </trkpt>
      <trkpt lat="41.684505" lon="2.562744">
        <ele>335.760</ele>
        <time>2021-05-26T10:17:57Z</time>
      </trkpt>
      <trkpt lat="41.684506" lon="2.562704">
        <ele>335.883</ele>
        <time>2021-05-26T10:17:58Z</time>
      </trkpt>
      <trkpt lat="41.684505" lon="2.562666">
        <ele>336.088</ele>
        <time>2021-05-26T10:17:59Z</time>
      </trkpt>
      <trkpt lat="41.684509" lon="2.562627">
        <ele>336.024</ele>
        <time>2021-05-26T10:18:00Z</time>
      </trkpt>
      <trkpt lat="41.684517" lon="2.562589">
        <ele>335.831</ele>
        <time>2021-05-26T10:18:01Z</time>
      </trkpt>
      <trkpt lat="41.684520" lon="2.562549">
        <ele>335.818</ele>
        <time>2021-05-26T10:18:02Z</time>
      </trkpt>
      <trkpt lat="41.684525" lon="2.562511">
        <ele>335.879</ele>
        <time>2021-05-26T10:18:03Z</time>
      </trkpt>
      <trkpt lat="41.684533" lon="2.562476">
        <ele>335.305</ele>
        <time>2021-05-26T10:18:04Z</time>
      </trkpt>
      <trkpt lat="41.684540" lon="2.562443">
        <ele>334.925</ele>
        <time>2021-05-26T10:18:05Z</time>
      </trkpt>
      <trkpt lat="41.684547" lon="2.562411">
        <ele>334.408</ele>
        <time>2021-05-26T10:18:06Z</time>
      </trkpt>
      <trkpt lat="41.684556" lon="2.562382">
        <ele>333.934</ele>
        <time>2021-05-26T10:18:07Z</time>
      </trkpt>
      <trkpt lat="41.684569" lon="2.562354">
        <ele>333.311</ele>
        <time>2021-05-26T10:18:08Z</time>
      </trkpt>
      <trkpt lat="41.684584" lon="2.562325">
        <ele>332.588</ele>
        <time>2021-05-26T10:18:09Z</time>
      </trkpt>
      <trkpt lat="41.684601" lon="2.562296">
        <ele>331.761</ele>
        <time>2021-05-26T10:18:10Z</time>
      </trkpt>
      <trkpt lat="41.684619" lon="2.562264">
        <ele>330.926</ele>
        <time>2021-05-26T10:18:11Z</time>
      </trkpt>
      <trkpt lat="41.684638" lon="2.562232">
        <ele>330.142</ele>
        <time>2021-05-26T10:18:12Z</time>
      </trkpt>
      <trkpt lat="41.684658" lon="2.562204">
        <ele>329.249</ele>
        <time>2021-05-26T10:18:13Z</time>
      </trkpt>
      <trkpt lat="41.684684" lon="2.562177">
        <ele>328.136</ele>
        <time>2021-05-26T10:18:14Z</time>
      </trkpt>
      <trkpt lat="41.684712" lon="2.562151">
        <ele>326.955</ele>
        <time>2021-05-26T10:18:15Z</time>
      </trkpt>
      <trkpt lat="41.684735" lon="2.562125">
        <ele>325.907</ele>
        <time>2021-05-26T10:18:16Z</time>
      </trkpt>
      <trkpt lat="41.684755" lon="2.562095">
        <ele>325.017</ele>
        <time>2021-05-26T10:18:17Z</time>
      </trkpt>
      <trkpt lat="41.684775" lon="2.562062">
        <ele>324.208</ele>
        <time>2021-05-26T10:18:18Z</time>
      </trkpt>
      <trkpt lat="41.684783" lon="2.562028">
        <ele>323.762</ele>
        <time>2021-05-26T10:18:19Z</time>
      </trkpt>
      <trkpt lat="41.684788" lon="2.561990">
        <ele>323.459</ele>
        <time>2021-05-26T10:18:20Z</time>
      </trkpt>
      <trkpt lat="41.684790" lon="2.561951">
        <ele>323.176</ele>
        <time>2021-05-26T10:18:21Z</time>
      </trkpt>
      <trkpt lat="41.684792" lon="2.561915">
        <ele>322.959</ele>
        <time>2021-05-26T10:18:22Z</time>
      </trkpt>
      <trkpt lat="41.684792" lon="2.561882">
        <ele>322.994</ele>
        <time>2021-05-26T10:18:23Z</time>
      </trkpt>
      <trkpt lat="41.684786" lon="2.561848">
        <ele>323.030</ele>
        <time>2021-05-26T10:18:24Z</time>
      </trkpt>
      <trkpt lat="41.684777" lon="2.561813">
        <ele>323.287</ele>
        <time>2021-05-26T10:18:25Z</time>
      </trkpt>
      <trkpt lat="41.684764" lon="2.561783">
        <ele>323.694</ele>
        <time>2021-05-26T10:18:26Z</time>
      </trkpt>
      <trkpt lat="41.684748" lon="2.561759">
        <ele>324.135</ele>
        <time>2021-05-26T10:18:27Z</time>
      </trkpt>
      <trkpt lat="41.684733" lon="2.561731">
        <ele>324.686</ele>
        <time>2021-05-26T10:18:28Z</time>
      </trkpt>
      <trkpt lat="41.684719" lon="2.561703">
        <ele>325.114</ele>
        <time>2021-05-26T10:18:29Z</time>
      </trkpt>
      <trkpt lat="41.684702" lon="2.561674">
        <ele>325.708</ele>
        <time>2021-05-26T10:18:30Z</time>
      </trkpt>
      <trkpt lat="41.684683" lon="2.561646">
        <ele>326.550</ele>
        <time>2021-05-26T10:18:31Z</time>
      </trkpt>
      <trkpt lat="41.684668" lon="2.561622">
        <ele>327.187</ele>
        <time>2021-05-26T10:18:32Z</time>
      </trkpt>
      <trkpt lat="41.684654" lon="2.561599">
        <ele>327.894</ele>
        <time>2021-05-26T10:18:33Z</time>
      </trkpt>
      <trkpt lat="41.684634" lon="2.561575">
        <ele>328.647</ele>
        <time>2021-05-26T10:18:34Z</time>
      </trkpt>
      <trkpt lat="41.684614" lon="2.561555">
        <ele>329.582</ele>
        <time>2021-05-26T10:18:35Z</time>
      </trkpt>
      <trkpt lat="41.684597" lon="2.561532">
        <ele>330.288</ele>
        <time>2021-05-26T10:18:36Z</time>
      </trkpt>
      <trkpt lat="41.684584" lon="2.561507">
        <ele>330.855</ele>
        <time>2021-05-26T10:18:37Z</time>
      </trkpt>
      <trkpt lat="41.684573" lon="2.561478">
        <ele>331.442</ele>
        <time>2021-05-26T10:18:38Z</time>
      </trkpt>
      <trkpt lat="41.684562" lon="2.561452">
        <ele>332.068</ele>
        <time>2021-05-26T10:18:39Z</time>
      </trkpt>
      <trkpt lat="41.684561" lon="2.561424">
        <ele>332.242</ele>
        <time>2021-05-26T10:18:40Z</time>
      </trkpt>
      <trkpt lat="41.684605" lon="2.561278">
        <ele>331.726</ele>
        <time>2021-05-26T10:18:44Z</time>
      </trkpt>
      <trkpt lat="41.684653" lon="2.561173">
        <ele>330.308</ele>
        <time>2021-05-26T10:18:47Z</time>
      </trkpt>
      <trkpt lat="41.684724" lon="2.561056">
        <ele>327.733</ele>
        <time>2021-05-26T10:18:51Z</time>
      </trkpt>
      <trkpt lat="41.684759" lon="2.561023">
        <ele>326.470</ele>
        <time>2021-05-26T10:18:53Z</time>
      </trkpt>
      <trkpt lat="41.684782" lon="2.561009">
        <ele>325.457</ele>
        <time>2021-05-26T10:18:54Z</time>
      </trkpt>
      <trkpt lat="41.684802" lon="2.560995">
        <ele>324.590</ele>
        <time>2021-05-26T10:18:55Z</time>
      </trkpt>
      <trkpt lat="41.684819" lon="2.560979">
        <ele>323.975</ele>
        <time>2021-05-26T10:18:56Z</time>
      </trkpt>
      <trkpt lat="41.684834" lon="2.560965">
        <ele>323.341</ele>
        <time>2021-05-26T10:18:57Z</time>
      </trkpt>
      <trkpt lat="41.684851" lon="2.560954">
        <ele>322.578</ele>
        <time>2021-05-26T10:18:58Z</time>
      </trkpt>
      <trkpt lat="41.684876" lon="2.560941">
        <ele>321.475</ele>
        <time>2021-05-26T10:18:59Z</time>
      </trkpt>
      <trkpt lat="41.684978" lon="2.560871">
        <ele>316.857</ele>
        <time>2021-05-26T10:19:03Z</time>
      </trkpt>
      <trkpt lat="41.685057" lon="2.560792">
        <ele>313.800</ele>
        <time>2021-05-26T10:19:06Z</time>
      </trkpt>
      <trkpt lat="41.685144" lon="2.560696">
        <ele>310.320</ele>
        <time>2021-05-26T10:19:10Z</time>
      </trkpt>
      <trkpt lat="41.685209" lon="2.560609">
        <ele>307.408</ele>
        <time>2021-05-26T10:19:13Z</time>
      </trkpt>
      <trkpt lat="41.685224" lon="2.560580">
        <ele>306.742</ele>
        <time>2021-05-26T10:19:14Z</time>
      </trkpt>
      <trkpt lat="41.685244" lon="2.560557">
        <ele>305.789</ele>
        <time>2021-05-26T10:19:15Z</time>
      </trkpt>
      <trkpt lat="41.685262" lon="2.560544">
        <ele>304.866</ele>
        <time>2021-05-26T10:19:16Z</time>
      </trkpt>
      <trkpt lat="41.685281" lon="2.560545">
        <ele>303.999</ele>
        <time>2021-05-26T10:19:17Z</time>
      </trkpt>
      <trkpt lat="41.685291" lon="2.560667">
        <ele>303.584</ele>
        <time>2021-05-26T10:19:22Z</time>
      </trkpt>
      <trkpt lat="41.685220" lon="2.560772">
        <ele>306.620</ele>
        <time>2021-05-26T10:19:26Z</time>
      </trkpt>
      <trkpt lat="41.685208" lon="2.560797">
        <ele>307.197</ele>
        <time>2021-05-26T10:19:27Z</time>
      </trkpt>
      <trkpt lat="41.685196" lon="2.560824">
        <ele>307.614</ele>
        <time>2021-05-26T10:19:28Z</time>
      </trkpt>
      <trkpt lat="41.685184" lon="2.560844">
        <ele>308.012</ele>
        <time>2021-05-26T10:19:29Z</time>
      </trkpt>
      <trkpt lat="41.685163" lon="2.560879">
        <ele>308.732</ele>
        <time>2021-05-26T10:19:31Z</time>
      </trkpt>
      <trkpt lat="41.685109" lon="2.561001">
        <ele>310.005</ele>
        <time>2021-05-26T10:19:36Z</time>
      </trkpt>
      <trkpt lat="41.685062" lon="2.561137">
        <ele>310.708</ele>
        <time>2021-05-26T10:19:40Z</time>
      </trkpt>
      <trkpt lat="41.685117" lon="2.561265">
        <ele>308.668</ele>
        <time>2021-05-26T10:19:43Z</time>
      </trkpt>
      <trkpt lat="41.685170" lon="2.561376">
        <ele>306.315</ele>
        <time>2021-05-26T10:19:46Z</time>
      </trkpt>
      <trkpt lat="41.685256" lon="2.561457">
        <ele>303.662</ele>
        <time>2021-05-26T10:19:50Z</time>
      </trkpt>
      <trkpt lat="41.685343" lon="2.561527">
        <ele>301.415</ele>
        <time>2021-05-26T10:19:54Z</time>
      </trkpt>
      <trkpt lat="41.685440" lon="2.561613">
        <ele>298.810</ele>
        <time>2021-05-26T10:19:58Z</time>
      </trkpt>
      <trkpt lat="41.685536" lon="2.561682">
        <ele>295.856</ele>
        <time>2021-05-26T10:20:02Z</time>
      </trkpt>
      <trkpt lat="41.685601" lon="2.561767">
        <ele>294.473</ele>
        <time>2021-05-26T10:20:06Z</time>
      </trkpt>
      <trkpt lat="41.685662" lon="2.561893">
        <ele>293.640</ele>
        <time>2021-05-26T10:20:10Z</time>
      </trkpt>
      <trkpt lat="41.685732" lon="2.561997">
        <ele>292.322</ele>
        <time>2021-05-26T10:20:14Z</time>
      </trkpt>
      <trkpt lat="41.685789" lon="2.562107">
        <ele>291.862</ele>
        <time>2021-05-26T10:20:18Z</time>
      </trkpt>
      <trkpt lat="41.685852" lon="2.562194">
        <ele>291.308</ele>
        <time>2021-05-26T10:20:21Z</time>
      </trkpt>
      <trkpt lat="41.685945" lon="2.562271">
        <ele>289.808</ele>
        <time>2021-05-26T10:20:25Z</time>
      </trkpt>
      <trkpt lat="41.686021" lon="2.562364">
        <ele>288.879</ele>
        <time>2021-05-26T10:20:29Z</time>
      </trkpt>
      <trkpt lat="41.686080" lon="2.562425">
        <ele>288.176</ele>
        <time>2021-05-26T10:20:32Z</time>
      </trkpt>
      <trkpt lat="41.686102" lon="2.562442">
        <ele>287.833</ele>
        <time>2021-05-26T10:20:33Z</time>
      </trkpt>
      <trkpt lat="41.686123" lon="2.562459">
        <ele>287.656</ele>
        <time>2021-05-26T10:20:34Z</time>
      </trkpt>
      <trkpt lat="41.686147" lon="2.562477">
        <ele>287.761</ele>
        <time>2021-05-26T10:20:35Z</time>
      </trkpt>
      <trkpt lat="41.686172" lon="2.562496">
        <ele>287.797</ele>
        <time>2021-05-26T10:20:36Z</time>
      </trkpt>
      <trkpt lat="41.686217" lon="2.562537">
        <ele>287.544</ele>
        <time>2021-05-26T10:20:39Z</time>
      </trkpt>
      <trkpt lat="41.686247" lon="2.562563">
        <ele>287.321</ele>
        <time>2021-05-26T10:20:41Z</time>
      </trkpt>
      <trkpt lat="41.686345" lon="2.562623">
        <ele>286.452</ele>
        <time>2021-05-26T10:20:45Z</time>
      </trkpt>
      <trkpt lat="41.686438" lon="2.562665">
        <ele>286.453</ele>
        <time>2021-05-26T10:20:48Z</time>
      </trkpt>
      <trkpt lat="41.686522" lon="2.562742">
        <ele>287.108</ele>
        <time>2021-05-26T10:20:52Z</time>
      </trkpt>
      <trkpt lat="41.686565" lon="2.562786">
        <ele>287.408</ele>
        <time>2021-05-26T10:20:54Z</time>
      </trkpt>
      <trkpt lat="41.686589" lon="2.562810">
        <ele>287.412</ele>
        <time>2021-05-26T10:20:55Z</time>
      </trkpt>
      <trkpt lat="41.686612" lon="2.562837">
        <ele>287.229</ele>
        <time>2021-05-26T10:20:56Z</time>
      </trkpt>
      <trkpt lat="41.686635" lon="2.562861">
        <ele>287.156</ele>
        <time>2021-05-26T10:20:57Z</time>
      </trkpt>
      <trkpt lat="41.686658" lon="2.562880">
        <ele>287.129</ele>
        <time>2021-05-26T10:20:58Z</time>
      </trkpt>
      <trkpt lat="41.686680" lon="2.562900">
        <ele>287.194</ele>
        <time>2021-05-26T10:20:59Z</time>
      </trkpt>
      <trkpt lat="41.686702" lon="2.562922">
        <ele>287.350</ele>
        <time>2021-05-26T10:21:00Z</time>
      </trkpt>
      <trkpt lat="41.686720" lon="2.562947">
        <ele>287.327</ele>
        <time>2021-05-26T10:21:01Z</time>
      </trkpt>
      <trkpt lat="41.686735" lon="2.562970">
        <ele>287.414</ele>
        <time>2021-05-26T10:21:02Z</time>
      </trkpt>
      <trkpt lat="41.686754" lon="2.563000">
        <ele>287.465</ele>
        <time>2021-05-26T10:21:03Z</time>
      </trkpt>
      <trkpt lat="41.686771" lon="2.563025">
        <ele>287.568</ele>
        <time>2021-05-26T10:21:04Z</time>
      </trkpt>
      <trkpt lat="41.686786" lon="2.563058">
        <ele>287.414</ele>
        <time>2021-05-26T10:21:05Z</time>
      </trkpt>
      <trkpt lat="41.686800" lon="2.563089">
        <ele>287.208</ele>
        <time>2021-05-26T10:21:06Z</time>
      </trkpt>
      <trkpt lat="41.686807" lon="2.563123">
        <ele>286.823</ele>
        <time>2021-05-26T10:21:07Z</time>
      </trkpt>
      <trkpt lat="41.686804" lon="2.563156">
        <ele>286.240</ele>
        <time>2021-05-26T10:21:08Z</time>
      </trkpt>
      <trkpt lat="41.686791" lon="2.563189">
        <ele>285.217</ele>
        <time>2021-05-26T10:21:09Z</time>
      </trkpt>
      <trkpt lat="41.686773" lon="2.563214">
        <ele>284.340</ele>
        <time>2021-05-26T10:21:10Z</time>
      </trkpt>
      <trkpt lat="41.686743" lon="2.563212">
        <ele>283.635</ele>
        <time>2021-05-26T10:21:12Z</time>
      </trkpt>
      <trkpt lat="41.686730" lon="2.563191">
        <ele>283.771</ele>
        <time>2021-05-26T10:21:13Z</time>
      </trkpt>
      <trkpt lat="41.686718" lon="2.563158">
        <ele>283.948</ele>
        <time>2021-05-26T10:21:14Z</time>
      </trkpt>
      <trkpt lat="41.686702" lon="2.563137">
        <ele>283.815</ele>
        <time>2021-05-26T10:21:15Z</time>
      </trkpt>
      <trkpt lat="41.686610" lon="2.563109">
        <ele>282.821</ele>
        <time>2021-05-26T10:21:20Z</time>
      </trkpt>
      <trkpt lat="41.686513" lon="2.563161">
        <ele>281.441</ele>
        <time>2021-05-26T10:21:25Z</time>
      </trkpt>
      <trkpt lat="41.686456" lon="2.563296">
        <ele>279.005</ele>
        <time>2021-05-26T10:21:30Z</time>
      </trkpt>
      <trkpt lat="41.686422" lon="2.563414">
        <ele>276.508</ele>
        <time>2021-05-26T10:21:34Z</time>
      </trkpt>
      <trkpt lat="41.686344" lon="2.563517">
        <ele>274.029</ele>
        <time>2021-05-26T10:21:38Z</time>
      </trkpt>
      <trkpt lat="41.686235" lon="2.563557">
        <ele>273.126</ele>
        <time>2021-05-26T10:21:42Z</time>
      </trkpt>
      <trkpt lat="41.686143" lon="2.563547">
        <ele>273.253</ele>
        <time>2021-05-26T10:21:46Z</time>
      </trkpt>
      <trkpt lat="41.686039" lon="2.563508">
        <ele>273.956</ele>
        <time>2021-05-26T10:21:50Z</time>
      </trkpt>
      <trkpt lat="41.685933" lon="2.563475">
        <ele>274.891</ele>
        <time>2021-05-26T10:21:54Z</time>
      </trkpt>
      <trkpt lat="41.685847" lon="2.563406">
        <ele>276.837</ele>
        <time>2021-05-26T10:21:58Z</time>
      </trkpt>
      <trkpt lat="41.685791" lon="2.563540">
        <ele>273.874</ele>
        <time>2021-05-26T10:22:08Z</time>
      </trkpt>
      <trkpt lat="41.685777" lon="2.563700">
        <ele>270.521</ele>
        <time>2021-05-26T10:22:12Z</time>
      </trkpt>
      <trkpt lat="41.685776" lon="2.563845">
        <ele>268.232</ele>
        <time>2021-05-26T10:22:16Z</time>
      </trkpt>
      <trkpt lat="41.685748" lon="2.563963">
        <ele>266.992</ele>
        <time>2021-05-26T10:22:19Z</time>
      </trkpt>
      <trkpt lat="41.685729" lon="2.564094">
        <ele>265.211</ele>
        <time>2021-05-26T10:22:22Z</time>
      </trkpt>
      <trkpt lat="41.685719" lon="2.564251">
        <ele>263.208</ele>
        <time>2021-05-26T10:22:26Z</time>
      </trkpt>
      <trkpt lat="41.685704" lon="2.564385">
        <ele>261.910</ele>
        <time>2021-05-26T10:22:30Z</time>
      </trkpt>
      <trkpt lat="41.685657" lon="2.564500">
        <ele>262.017</ele>
        <time>2021-05-26T10:22:34Z</time>
      </trkpt>
      <trkpt lat="41.685602" lon="2.564643">
        <ele>262.294</ele>
        <time>2021-05-26T10:22:38Z</time>
      </trkpt>
      <trkpt lat="41.685595" lon="2.564676">
        <ele>262.147</ele>
        <time>2021-05-26T10:22:39Z</time>
      </trkpt>
      <trkpt lat="41.685591" lon="2.564707">
        <ele>261.942</ele>
        <time>2021-05-26T10:22:40Z</time>
      </trkpt>
      <trkpt lat="41.685576" lon="2.564798">
        <ele>260.998</ele>
        <time>2021-05-26T10:22:43Z</time>
      </trkpt>
      <trkpt lat="41.685573" lon="2.564863">
        <ele>259.945</ele>
        <time>2021-05-26T10:22:45Z</time>
      </trkpt>
      <trkpt lat="41.685561" lon="2.564964">
        <ele>258.512</ele>
        <time>2021-05-26T10:22:48Z</time>
      </trkpt>
      <trkpt lat="41.685522" lon="2.565102">
        <ele>256.154</ele>
        <time>2021-05-26T10:22:52Z</time>
      </trkpt>
      <trkpt lat="41.685498" lon="2.565137">
        <ele>255.656</ele>
        <time>2021-05-26T10:22:53Z</time>
      </trkpt>
      <trkpt lat="41.685474" lon="2.565169">
        <ele>255.111</ele>
        <time>2021-05-26T10:22:54Z</time>
      </trkpt>
      <trkpt lat="41.685448" lon="2.565198">
        <ele>254.808</ele>
        <time>2021-05-26T10:22:55Z</time>
      </trkpt>
      <trkpt lat="41.685426" lon="2.565217">
        <ele>254.612</ele>
        <time>2021-05-26T10:22:56Z</time>
      </trkpt>
      <trkpt lat="41.685403" lon="2.565228">
        <ele>254.679</ele>
        <time>2021-05-26T10:22:57Z</time>
      </trkpt>
      <trkpt lat="41.685383" lon="2.565235">
        <ele>254.856</ele>
        <time>2021-05-26T10:22:58Z</time>
      </trkpt>
      <trkpt lat="41.685360" lon="2.565237">
        <ele>255.119</ele>
        <time>2021-05-26T10:22:59Z</time>
      </trkpt>
      <trkpt lat="41.685250" lon="2.565254">
        <ele>255.714</ele>
        <time>2021-05-26T10:23:04Z</time>
      </trkpt>
      <trkpt lat="41.685151" lon="2.565237">
        <ele>256.180</ele>
        <time>2021-05-26T10:23:09Z</time>
      </trkpt>
      <trkpt lat="41.685054" lon="2.565187">
        <ele>257.227</ele>
        <time>2021-05-26T10:23:14Z</time>
      </trkpt>
      <trkpt lat="41.684980" lon="2.565083">
        <ele>259.194</ele>
        <time>2021-05-26T10:23:18Z</time>
      </trkpt>
      <trkpt lat="41.684891" lon="2.564975">
        <ele>260.976</ele>
        <time>2021-05-26T10:23:22Z</time>
      </trkpt>
      <trkpt lat="41.684780" lon="2.564955">
        <ele>260.790</ele>
        <time>2021-05-26T10:23:26Z</time>
      </trkpt>
      <trkpt lat="41.684707" lon="2.565063">
        <ele>258.719</ele>
        <time>2021-05-26T10:23:29Z</time>
      </trkpt>
      <trkpt lat="41.684614" lon="2.565146">
        <ele>260.008</ele>
        <time>2021-05-26T10:23:32Z</time>
      </trkpt>
      <trkpt lat="41.684548" lon="2.565272">
        <ele>260.494</ele>
        <time>2021-05-26T10:23:36Z</time>
      </trkpt>
      <trkpt lat="41.684564" lon="2.565422">
        <ele>261.281</ele>
        <time>2021-05-26T10:23:40Z</time>
      </trkpt>
      <trkpt lat="41.684616" lon="2.565530">
        <ele>260.168</ele>
        <time>2021-05-26T10:23:44Z</time>
      </trkpt>
      <trkpt lat="41.684688" lon="2.565612">
        <ele>258.221</ele>
        <time>2021-05-26T10:23:48Z</time>
      </trkpt>
      <trkpt lat="41.684763" lon="2.565695">
        <ele>256.866</ele>
        <time>2021-05-26T10:23:52Z</time>
      </trkpt>
      <trkpt lat="41.684835" lon="2.565768">
        <ele>255.422</ele>
        <time>2021-05-26T10:23:55Z</time>
      </trkpt>
      <trkpt lat="41.684902" lon="2.565862">
        <ele>253.789</ele>
        <time>2021-05-26T10:23:59Z</time>
      </trkpt>
      <trkpt lat="41.684988" lon="2.565945">
        <ele>250.566</ele>
        <time>2021-05-26T10:24:03Z</time>
      </trkpt>
      <trkpt lat="41.685059" lon="2.566032">
        <ele>247.966</ele>
        <time>2021-05-26T10:24:07Z</time>
      </trkpt>
      <trkpt lat="41.685118" lon="2.566160">
        <ele>246.129</ele>
        <time>2021-05-26T10:24:11Z</time>
      </trkpt>
      <trkpt lat="41.685184" lon="2.566280">
        <ele>243.821</ele>
        <time>2021-05-26T10:24:15Z</time>
      </trkpt>
      <trkpt lat="41.685235" lon="2.566397">
        <ele>241.408</ele>
        <time>2021-05-26T10:24:19Z</time>
      </trkpt>
      <trkpt lat="41.685291" lon="2.566497">
        <ele>239.333</ele>
        <time>2021-05-26T10:24:22Z</time>
      </trkpt>
      <trkpt lat="41.685339" lon="2.566633">
        <ele>238.470</ele>
        <time>2021-05-26T10:24:26Z</time>
      </trkpt>
      <trkpt lat="41.685364" lon="2.566766">
        <ele>238.297</ele>
        <time>2021-05-26T10:24:30Z</time>
      </trkpt>
      <trkpt lat="41.685368" lon="2.566900">
        <ele>238.850</ele>
        <time>2021-05-26T10:24:34Z</time>
      </trkpt>
      <trkpt lat="41.685348" lon="2.567024">
        <ele>240.565</ele>
        <time>2021-05-26T10:24:38Z</time>
      </trkpt>
      <trkpt lat="41.685364" lon="2.567171">
        <ele>240.921</ele>
        <time>2021-05-26T10:24:43Z</time>
      </trkpt>
      <trkpt lat="41.685423" lon="2.567312">
        <ele>239.418</ele>
        <time>2021-05-26T10:24:47Z</time>
      </trkpt>
      <trkpt lat="41.685457" lon="2.567432">
        <ele>239.055</ele>
        <time>2021-05-26T10:24:50Z</time>
      </trkpt>
      <trkpt lat="41.685469" lon="2.567595">
        <ele>240.175</ele>
        <time>2021-05-26T10:24:54Z</time>
      </trkpt>
      <trkpt lat="41.685530" lon="2.567713">
        <ele>239.228</ele>
        <time>2021-05-26T10:24:58Z</time>
      </trkpt>
      <trkpt lat="41.685580" lon="2.567835">
        <ele>238.620</ele>
        <time>2021-05-26T10:25:02Z</time>
      </trkpt>
      <trkpt lat="41.685644" lon="2.567950">
        <ele>236.808</ele>
        <time>2021-05-26T10:25:06Z</time>
      </trkpt>
      <trkpt lat="41.685692" lon="2.568080">
        <ele>235.314</ele>
        <time>2021-05-26T10:25:10Z</time>
      </trkpt>
      <trkpt lat="41.685727" lon="2.568198">
        <ele>234.211</ele>
        <time>2021-05-26T10:25:13Z</time>
      </trkpt>
      <trkpt lat="41.685740" lon="2.568339">
        <ele>234.498</ele>
        <time>2021-05-26T10:25:17Z</time>
      </trkpt>
      <trkpt lat="41.685763" lon="2.568482">
        <ele>233.871</ele>
        <time>2021-05-26T10:25:21Z</time>
      </trkpt>
      <trkpt lat="41.685777" lon="2.568625">
        <ele>233.736</ele>
        <time>2021-05-26T10:25:25Z</time>
      </trkpt>
      <trkpt lat="41.685817" lon="2.568751">
        <ele>232.722</ele>
        <time>2021-05-26T10:25:29Z</time>
      </trkpt>
      <trkpt lat="41.685836" lon="2.568872">
        <ele>232.889</ele>
        <time>2021-05-26T10:25:32Z</time>
      </trkpt>
      <trkpt lat="41.685843" lon="2.569000">
        <ele>233.916</ele>
        <time>2021-05-26T10:25:36Z</time>
      </trkpt>
      <trkpt lat="41.685854" lon="2.569135">
        <ele>235.069</ele>
        <time>2021-05-26T10:25:40Z</time>
      </trkpt>
      <trkpt lat="41.685918" lon="2.569254">
        <ele>234.104</ele>
        <time>2021-05-26T10:25:44Z</time>
      </trkpt>
      <trkpt lat="41.686021" lon="2.569288">
        <ele>230.924</ele>
        <time>2021-05-26T10:25:48Z</time>
      </trkpt>
      <trkpt lat="41.686143" lon="2.569272">
        <ele>226.808</ele>
        <time>2021-05-26T10:25:52Z</time>
      </trkpt>
      <trkpt lat="41.686166" lon="2.569290">
        <ele>226.223</ele>
        <time>2021-05-26T10:25:53Z</time>
      </trkpt>
      <trkpt lat="41.686203" lon="2.569412">
        <ele>225.870</ele>
        <time>2021-05-26T10:25:57Z</time>
      </trkpt>
      <trkpt lat="41.686178" lon="2.569561">
        <ele>227.257</ele>
        <time>2021-05-26T10:26:02Z</time>
      </trkpt>
      <trkpt lat="41.686121" lon="2.569672">
        <ele>229.530</ele>
        <time>2021-05-26T10:26:06Z</time>
      </trkpt>
      <trkpt lat="41.686137" lon="2.569802">
        <ele>229.675</ele>
        <time>2021-05-26T10:26:10Z</time>
      </trkpt>
      <trkpt lat="41.686236" lon="2.569881">
        <ele>226.681</ele>
        <time>2021-05-26T10:26:14Z</time>
      </trkpt>
      <trkpt lat="41.686319" lon="2.569927">
        <ele>224.028</ele>
        <time>2021-05-26T10:26:17Z</time>
      </trkpt>
      <trkpt lat="41.686405" lon="2.569997">
        <ele>221.575</ele>
        <time>2021-05-26T10:26:21Z</time>
      </trkpt>
      <trkpt lat="41.686470" lon="2.570106">
        <ele>220.174</ele>
        <time>2021-05-26T10:26:25Z</time>
      </trkpt>
      <trkpt lat="41.686513" lon="2.570225">
        <ele>219.656</ele>
        <time>2021-05-26T10:26:29Z</time>
      </trkpt>
      <trkpt lat="41.686487" lon="2.570359">
        <ele>221.521</ele>
        <time>2021-05-26T10:26:33Z</time>
      </trkpt>
      <trkpt lat="41.686478" lon="2.570504">
        <ele>223.008</ele>
        <time>2021-05-26T10:26:37Z</time>
      </trkpt>
      <trkpt lat="41.686542" lon="2.570603">
        <ele>221.364</ele>
        <time>2021-05-26T10:26:41Z</time>
      </trkpt>
      <trkpt lat="41.686629" lon="2.570644">
        <ele>218.121</ele>
        <time>2021-05-26T10:26:45Z</time>
      </trkpt>
      <trkpt lat="41.686725" lon="2.570659">
        <ele>215.458</ele>
        <time>2021-05-26T10:26:49Z</time>
      </trkpt>
      <trkpt lat="41.686832" lon="2.570601">
        <ele>212.781</ele>
        <time>2021-05-26T10:26:53Z</time>
      </trkpt>
      <trkpt lat="41.686931" lon="2.570530">
        <ele>210.136</ele>
        <time>2021-05-26T10:26:57Z</time>
      </trkpt>
      <trkpt lat="41.687024" lon="2.570472">
        <ele>207.762</ele>
        <time>2021-05-26T10:27:00Z</time>
      </trkpt>
      <trkpt lat="41.687133" lon="2.570486">
        <ele>205.449</ele>
        <time>2021-05-26T10:27:05Z</time>
      </trkpt>
      <trkpt lat="41.687205" lon="2.570580">
        <ele>204.396</ele>
        <time>2021-05-26T10:27:10Z</time>
      </trkpt>
      <trkpt lat="41.687176" lon="2.570695">
        <ele>204.739</ele>
        <time>2021-05-26T10:27:14Z</time>
      </trkpt>
      <trkpt lat="41.687113" lon="2.570798">
        <ele>206.201</ele>
        <time>2021-05-26T10:27:18Z</time>
      </trkpt>
      <trkpt lat="41.687023" lon="2.570870">
        <ele>208.521</ele>
        <time>2021-05-26T10:27:23Z</time>
      </trkpt>
      <trkpt lat="41.686943" lon="2.570929">
        <ele>210.408</ele>
        <time>2021-05-26T10:27:27Z</time>
      </trkpt>
      <trkpt lat="41.686873" lon="2.571017">
        <ele>212.060</ele>
        <time>2021-05-26T10:27:31Z</time>
      </trkpt>
      <trkpt lat="41.686832" lon="2.571138">
        <ele>213.347</ele>
        <time>2021-05-26T10:27:34Z</time>
      </trkpt>
      <trkpt lat="41.686842" lon="2.571299">
        <ele>214.154</ele>
        <time>2021-05-26T10:27:37Z</time>
      </trkpt>
      <trkpt lat="41.686936" lon="2.571393">
        <ele>210.497</ele>
        <time>2021-05-26T10:27:41Z</time>
      </trkpt>
      <trkpt lat="41.687014" lon="2.571457">
        <ele>208.522</ele>
        <time>2021-05-26T10:27:45Z</time>
      </trkpt>
      <trkpt lat="41.687113" lon="2.571466">
        <ele>205.788</ele>
        <time>2021-05-26T10:27:49Z</time>
      </trkpt>
      <trkpt lat="41.687224" lon="2.571475">
        <ele>202.685</ele>
        <time>2021-05-26T10:27:53Z</time>
      </trkpt>
      <trkpt lat="41.687324" lon="2.571541">
        <ele>200.652</ele>
        <time>2021-05-26T10:27:57Z</time>
      </trkpt>
      <trkpt lat="41.687409" lon="2.571609">
        <ele>199.389</ele>
        <time>2021-05-26T10:28:01Z</time>
      </trkpt>
      <trkpt lat="41.687477" lon="2.571707">
        <ele>198.706</ele>
        <time>2021-05-26T10:28:05Z</time>
      </trkpt>
      <trkpt lat="41.687558" lon="2.571787">
        <ele>196.226</ele>
        <time>2021-05-26T10:28:09Z</time>
      </trkpt>
      <trkpt lat="41.687628" lon="2.571880">
        <ele>194.108</ele>
        <time>2021-05-26T10:28:13Z</time>
      </trkpt>
      <trkpt lat="41.687601" lon="2.572007">
        <ele>195.595</ele>
        <time>2021-05-26T10:28:18Z</time>
      </trkpt>
      <trkpt lat="41.687506" lon="2.572071">
        <ele>198.822</ele>
        <time>2021-05-26T10:28:22Z</time>
      </trkpt>
      <trkpt lat="41.687416" lon="2.572103">
        <ele>201.569</ele>
        <time>2021-05-26T10:28:25Z</time>
      </trkpt>
      <trkpt lat="41.687331" lon="2.572172">
        <ele>204.372</ele>
        <time>2021-05-26T10:28:29Z</time>
      </trkpt>
      <trkpt lat="41.687318" lon="2.572302">
        <ele>205.237</ele>
        <time>2021-05-26T10:28:32Z</time>
      </trkpt>
      <trkpt lat="41.687378" lon="2.572424">
        <ele>203.763</ele>
        <time>2021-05-26T10:28:36Z</time>
      </trkpt>
      <trkpt lat="41.687483" lon="2.572485">
        <ele>200.590</ele>
        <time>2021-05-26T10:28:40Z</time>
      </trkpt>
      <trkpt lat="41.687569" lon="2.572541">
        <ele>197.987</ele>
        <time>2021-05-26T10:28:44Z</time>
      </trkpt>
      <trkpt lat="41.687655" lon="2.572581">
        <ele>195.274</ele>
        <time>2021-05-26T10:28:48Z</time>
      </trkpt>
      <trkpt lat="41.687758" lon="2.572640">
        <ele>192.156</ele>
        <time>2021-05-26T10:28:52Z</time>
      </trkpt>
      <trkpt lat="41.687801" lon="2.572681">
        <ele>190.721</ele>
        <time>2021-05-26T10:28:54Z</time>
      </trkpt>
      <trkpt lat="41.687837" lon="2.572735">
        <ele>189.408</ele>
        <time>2021-05-26T10:28:56Z</time>
      </trkpt>
      <trkpt lat="41.687848" lon="2.572762">
        <ele>189.064</ele>
        <time>2021-05-26T10:28:57Z</time>
      </trkpt>
      <trkpt lat="41.687848" lon="2.572788">
        <ele>188.971</ele>
        <time>2021-05-26T10:28:58Z</time>
      </trkpt>
      <trkpt lat="41.687836" lon="2.572819">
        <ele>189.078</ele>
        <time>2021-05-26T10:28:59Z</time>
      </trkpt>
      <trkpt lat="41.687828" lon="2.572845">
        <ele>189.161</ele>
        <time>2021-05-26T10:29:00Z</time>
      </trkpt>
      <trkpt lat="41.687812" lon="2.572873">
        <ele>189.356</ele>
        <time>2021-05-26T10:29:01Z</time>
      </trkpt>
      <trkpt lat="41.687763" lon="2.572973">
        <ele>190.162</ele>
        <time>2021-05-26T10:29:04Z</time>
      </trkpt>
      <trkpt lat="41.687746" lon="2.573007">
        <ele>190.539</ele>
        <time>2021-05-26T10:29:05Z</time>
      </trkpt>
      <trkpt lat="41.687730" lon="2.573040">
        <ele>190.866</ele>
        <time>2021-05-26T10:29:06Z</time>
      </trkpt>
      <trkpt lat="41.687718" lon="2.573072">
        <ele>191.115</ele>
        <time>2021-05-26T10:29:07Z</time>
      </trkpt>
      <trkpt lat="41.687704" lon="2.573100">
        <ele>191.565</ele>
        <time>2021-05-26T10:29:08Z</time>
      </trkpt>
      <trkpt lat="41.687695" lon="2.573131">
        <ele>191.711</ele>
        <time>2021-05-26T10:29:09Z</time>
      </trkpt>
      <trkpt lat="41.687685" lon="2.573162">
        <ele>192.008</ele>
        <time>2021-05-26T10:29:10Z</time>
      </trkpt>
      <trkpt lat="41.687685" lon="2.573193">
        <ele>191.868</ele>
        <time>2021-05-26T10:29:11Z</time>
      </trkpt>
      <trkpt lat="41.687686" lon="2.573227">
        <ele>191.735</ele>
        <time>2021-05-26T10:29:12Z</time>
      </trkpt>
      <trkpt lat="41.687683" lon="2.573265">
        <ele>191.712</ele>
        <time>2021-05-26T10:29:13Z</time>
      </trkpt>
      <trkpt lat="41.687685" lon="2.573301">
        <ele>191.585</ele>
        <time>2021-05-26T10:29:14Z</time>
      </trkpt>
      <trkpt lat="41.687683" lon="2.573341">
        <ele>191.310</ele>
        <time>2021-05-26T10:29:15Z</time>
      </trkpt>
      <trkpt lat="41.687682" lon="2.573376">
        <ele>190.926</ele>
        <time>2021-05-26T10:29:16Z</time>
      </trkpt>
      <trkpt lat="41.687674" lon="2.573414">
        <ele>190.673</ele>
        <time>2021-05-26T10:29:17Z</time>
      </trkpt>
      <trkpt lat="41.687668" lon="2.573449">
        <ele>190.430</ele>
        <time>2021-05-26T10:29:18Z</time>
      </trkpt>
      <trkpt lat="41.687662" lon="2.573484">
        <ele>190.185</ele>
        <time>2021-05-26T10:29:19Z</time>
      </trkpt>
      <trkpt lat="41.687653" lon="2.573517">
        <ele>189.989</ele>
        <time>2021-05-26T10:29:20Z</time>
      </trkpt>
      <trkpt lat="41.687647" lon="2.573549">
        <ele>189.617</ele>
        <time>2021-05-26T10:29:21Z</time>
      </trkpt>
      <trkpt lat="41.687644" lon="2.573580">
        <ele>189.308</ele>
        <time>2021-05-26T10:29:22Z</time>
      </trkpt>
      <trkpt lat="41.687633" lon="2.573691">
        <ele>187.945</ele>
        <time>2021-05-26T10:29:25Z</time>
      </trkpt>
      <trkpt lat="41.687635" lon="2.573724">
        <ele>187.312</ele>
        <time>2021-05-26T10:29:26Z</time>
      </trkpt>
      <trkpt lat="41.687636" lon="2.573756">
        <ele>186.789</ele>
        <time>2021-05-26T10:29:27Z</time>
      </trkpt>
      <trkpt lat="41.687634" lon="2.573791">
        <ele>186.242</ele>
        <time>2021-05-26T10:29:28Z</time>
      </trkpt>
      <trkpt lat="41.687636" lon="2.573822">
        <ele>185.717</ele>
        <time>2021-05-26T10:29:29Z</time>
      </trkpt>
      <trkpt lat="41.687633" lon="2.573852">
        <ele>185.333</ele>
        <time>2021-05-26T10:29:30Z</time>
      </trkpt>
      <trkpt lat="41.687621" lon="2.573883">
        <ele>185.250</ele>
        <time>2021-05-26T10:29:31Z</time>
      </trkpt>
      <trkpt lat="41.687603" lon="2.573911">
        <ele>185.477</ele>
        <time>2021-05-26T10:29:32Z</time>
      </trkpt>
      <trkpt lat="41.687584" lon="2.573937">
        <ele>185.868</ele>
        <time>2021-05-26T10:29:33Z</time>
      </trkpt>
      <trkpt lat="41.687566" lon="2.573960">
        <ele>186.142</ele>
        <time>2021-05-26T10:29:34Z</time>
      </trkpt>
      <trkpt lat="41.687548" lon="2.573978">
        <ele>186.526</ele>
        <time>2021-05-26T10:29:35Z</time>
      </trkpt>
      <trkpt lat="41.687534" lon="2.573994">
        <ele>186.808</ele>
        <time>2021-05-26T10:29:36Z</time>
      </trkpt>
      <trkpt lat="41.687518" lon="2.574015">
        <ele>187.183</ele>
        <time>2021-05-26T10:29:37Z</time>
      </trkpt>
      <trkpt lat="41.687510" lon="2.574042">
        <ele>187.080</ele>
        <time>2021-05-26T10:29:38Z</time>
      </trkpt>
      <trkpt lat="41.687504" lon="2.574076">
        <ele>186.837</ele>
        <time>2021-05-26T10:29:39Z</time>
      </trkpt>
      <trkpt lat="41.687500" lon="2.574117">
        <ele>186.550</ele>
        <time>2021-05-26T10:29:40Z</time>
      </trkpt>
      <trkpt lat="41.687498" lon="2.574151">
        <ele>186.235</ele>
        <time>2021-05-26T10:29:41Z</time>
      </trkpt>
      <trkpt lat="41.687491" lon="2.574188">
        <ele>185.971</ele>
        <time>2021-05-26T10:29:42Z</time>
      </trkpt>
      <trkpt lat="41.687490" lon="2.574218">
        <ele>185.538</ele>
        <time>2021-05-26T10:29:43Z</time>
      </trkpt>
      <trkpt lat="41.687488" lon="2.574249">
        <ele>185.175</ele>
        <time>2021-05-26T10:29:44Z</time>
      </trkpt>
      <trkpt lat="41.687487" lon="2.574280">
        <ele>184.745</ele>
        <time>2021-05-26T10:29:45Z</time>
      </trkpt>
      <trkpt lat="41.687481" lon="2.574316">
        <ele>184.347</ele>
        <time>2021-05-26T10:29:46Z</time>
      </trkpt>
      <trkpt lat="41.687481" lon="2.574385">
        <ele>183.311</ele>
        <time>2021-05-26T10:29:48Z</time>
      </trkpt>
      <trkpt lat="41.687483" lon="2.574418">
        <ele>182.808</ele>
        <time>2021-05-26T10:29:49Z</time>
      </trkpt>
      <trkpt lat="41.687488" lon="2.574453">
        <ele>182.241</ele>
        <time>2021-05-26T10:29:50Z</time>
      </trkpt>
      <trkpt lat="41.687496" lon="2.574487">
        <ele>181.698</ele>
        <time>2021-05-26T10:29:51Z</time>
      </trkpt>
      <trkpt lat="41.687506" lon="2.574514">
        <ele>181.145</ele>
        <time>2021-05-26T10:29:52Z</time>
      </trkpt>
      <trkpt lat="41.687513" lon="2.574538">
        <ele>180.648</ele>
        <time>2021-05-26T10:29:53Z</time>
      </trkpt>
      <trkpt lat="41.687513" lon="2.574566">
        <ele>180.313</ele>
        <time>2021-05-26T10:29:54Z</time>
      </trkpt>
      <trkpt lat="41.687511" lon="2.574595">
        <ele>180.169</ele>
        <time>2021-05-26T10:29:55Z</time>
      </trkpt>
      <trkpt lat="41.687504" lon="2.574631">
        <ele>179.966</ele>
        <time>2021-05-26T10:29:56Z</time>
      </trkpt>
      <trkpt lat="41.687497" lon="2.574666">
        <ele>179.753</ele>
        <time>2021-05-26T10:29:57Z</time>
      </trkpt>
      <trkpt lat="41.687491" lon="2.574704">
        <ele>179.433</ele>
        <time>2021-05-26T10:29:58Z</time>
      </trkpt>
      <trkpt lat="41.687484" lon="2.574737">
        <ele>179.223</ele>
        <time>2021-05-26T10:29:59Z</time>
      </trkpt>
      <trkpt lat="41.687449" lon="2.574834">
        <ele>178.815</ele>
        <time>2021-05-26T10:30:02Z</time>
      </trkpt>
      <trkpt lat="41.687426" lon="2.574871">
        <ele>178.808</ele>
        <time>2021-05-26T10:30:03Z</time>
      </trkpt>
      <trkpt lat="41.687406" lon="2.574908">
        <ele>178.880</ele>
        <time>2021-05-26T10:30:04Z</time>
      </trkpt>
      <trkpt lat="41.687384" lon="2.574947">
        <ele>178.747</ele>
        <time>2021-05-26T10:30:05Z</time>
      </trkpt>
      <trkpt lat="41.687358" lon="2.574982">
        <ele>178.864</ele>
        <time>2021-05-26T10:30:06Z</time>
      </trkpt>
      <trkpt lat="41.687332" lon="2.575011">
        <ele>178.927</ele>
        <time>2021-05-26T10:30:07Z</time>
      </trkpt>
      <trkpt lat="41.687305" lon="2.575037">
        <ele>179.242</ele>
        <time>2021-05-26T10:30:08Z</time>
      </trkpt>
      <trkpt lat="41.687276" lon="2.575063">
        <ele>179.448</ele>
        <time>2021-05-26T10:30:09Z</time>
      </trkpt>
      <trkpt lat="41.687252" lon="2.575083">
        <ele>179.625</ele>
        <time>2021-05-26T10:30:10Z</time>
      </trkpt>
      <trkpt lat="41.687230" lon="2.575107">
        <ele>179.712</ele>
        <time>2021-05-26T10:30:11Z</time>
      </trkpt>
      <trkpt lat="41.687212" lon="2.575131">
        <ele>179.777</ele>
        <time>2021-05-26T10:30:12Z</time>
      </trkpt>
      <trkpt lat="41.687196" lon="2.575159">
        <ele>179.661</ele>
        <time>2021-05-26T10:30:13Z</time>
      </trkpt>
      <trkpt lat="41.687177" lon="2.575186">
        <ele>179.427</ele>
        <time>2021-05-26T10:30:14Z</time>
      </trkpt>
      <trkpt lat="41.687159" lon="2.575212">
        <ele>179.308</ele>
        <time>2021-05-26T10:30:15Z</time>
      </trkpt>
      <trkpt lat="41.687141" lon="2.575236">
        <ele>179.194</ele>
        <time>2021-05-26T10:30:16Z</time>
      </trkpt>
      <trkpt lat="41.687124" lon="2.575258">
        <ele>179.061</ele>
        <time>2021-05-26T10:30:17Z</time>
      </trkpt>
      <trkpt lat="41.687105" lon="2.575284">
        <ele>178.868</ele>
        <time>2021-05-26T10:30:18Z</time>
      </trkpt>
      <trkpt lat="41.687088" lon="2.575309">
        <ele>178.691</ele>
        <time>2021-05-26T10:30:19Z</time>
      </trkpt>
      <trkpt lat="41.687067" lon="2.575338">
        <ele>178.486</ele>
        <time>2021-05-26T10:30:20Z</time>
      </trkpt>
      <trkpt lat="41.687046" lon="2.575360">
        <ele>178.382</ele>
        <time>2021-05-26T10:30:21Z</time>
      </trkpt>
      <trkpt lat="41.687025" lon="2.575376">
        <ele>178.399</ele>
        <time>2021-05-26T10:30:22Z</time>
      </trkpt>
      <trkpt lat="41.687002" lon="2.575394">
        <ele>178.266</ele>
        <time>2021-05-26T10:30:23Z</time>
      </trkpt>
      <trkpt lat="41.686978" lon="2.575415">
        <ele>178.247</ele>
        <time>2021-05-26T10:30:24Z</time>
      </trkpt>
      <trkpt lat="41.686955" lon="2.575430">
        <ele>178.329</ele>
        <time>2021-05-26T10:30:25Z</time>
      </trkpt>
      <trkpt lat="41.686932" lon="2.575436">
        <ele>178.221</ele>
        <time>2021-05-26T10:30:26Z</time>
      </trkpt>
      <trkpt lat="41.686910" lon="2.575440">
        <ele>177.908</ele>
        <time>2021-05-26T10:30:27Z</time>
      </trkpt>
      <trkpt lat="41.686889" lon="2.575437">
        <ele>177.871</ele>
        <time>2021-05-26T10:30:28Z</time>
      </trkpt>
      <trkpt lat="41.686854" lon="2.575420">
        <ele>177.648</ele>
        <time>2021-05-26T10:30:30Z</time>
      </trkpt>
      <trkpt lat="41.686834" lon="2.575407">
        <ele>177.635</ele>
        <time>2021-05-26T10:30:31Z</time>
      </trkpt>
      <trkpt lat="41.686815" lon="2.575390">
        <ele>177.748</ele>
        <time>2021-05-26T10:30:32Z</time>
      </trkpt>
      <trkpt lat="41.686797" lon="2.575373">
        <ele>177.753</ele>
        <time>2021-05-26T10:30:33Z</time>
      </trkpt>
      <trkpt lat="41.686775" lon="2.575355">
        <ele>177.829</ele>
        <time>2021-05-26T10:30:34Z</time>
      </trkpt>
      <trkpt lat="41.686759" lon="2.575329">
        <ele>178.046</ele>
        <time>2021-05-26T10:30:35Z</time>
      </trkpt>
      <trkpt lat="41.686745" lon="2.575306">
        <ele>178.293</ele>
        <time>2021-05-26T10:30:36Z</time>
      </trkpt>
      <trkpt lat="41.686665" lon="2.575247">
        <ele>178.744</ele>
        <time>2021-05-26T10:30:40Z</time>
      </trkpt>
      <trkpt lat="41.686568" lon="2.575178">
        <ele>179.705</ele>
        <time>2021-05-26T10:30:45Z</time>
      </trkpt>
      <trkpt lat="41.686462" lon="2.575180">
        <ele>179.215</ele>
        <time>2021-05-26T10:30:49Z</time>
      </trkpt>
      <trkpt lat="41.686367" lon="2.575210">
        <ele>178.208</ele>
        <time>2021-05-26T10:30:52Z</time>
      </trkpt>
      <trkpt lat="41.686273" lon="2.575282">
        <ele>177.271</ele>
        <time>2021-05-26T10:30:59Z</time>
      </trkpt>
      <trkpt lat="41.686230" lon="2.575396">
        <ele>176.068</ele>
        <time>2021-05-26T10:31:02Z</time>
      </trkpt>
      <trkpt lat="41.686325" lon="2.575395">
        <ele>175.075</ele>
        <time>2021-05-26T10:31:13Z</time>
      </trkpt>
      <trkpt lat="41.686424" lon="2.575391">
        <ele>174.698</ele>
        <time>2021-05-26T10:31:21Z</time>
      </trkpt>
      <trkpt lat="41.686522" lon="2.575404">
        <ele>175.153</ele>
        <time>2021-05-26T10:31:28Z</time>
      </trkpt>
      <trkpt lat="41.686596" lon="2.575474">
        <ele>174.779</ele>
        <time>2021-05-26T10:31:36Z</time>
      </trkpt>
      <trkpt lat="41.686660" lon="2.575578">
        <ele>173.986</ele>
        <time>2021-05-26T10:31:43Z</time>
      </trkpt>
      <trkpt lat="41.686741" lon="2.575657">
        <ele>174.233</ele>
        <time>2021-05-26T10:31:49Z</time>
      </trkpt>
      <trkpt lat="41.686785" lon="2.575661">
        <ele>174.659</ele>
        <time>2021-05-26T10:31:51Z</time>
      </trkpt>
      <trkpt lat="41.686818" lon="2.575675">
        <ele>174.703</ele>
        <time>2021-05-26T10:31:53Z</time>
      </trkpt>
      <trkpt lat="41.686889" lon="2.575669">
        <ele>175.323</ele>
        <time>2021-05-26T10:31:57Z</time>
      </trkpt>
      <trkpt lat="41.686920" lon="2.575657">
        <ele>175.708</ele>
        <time>2021-05-26T10:31:59Z</time>
      </trkpt>
      <trkpt lat="41.686955" lon="2.575650">
        <ele>175.952</ele>
        <time>2021-05-26T10:32:01Z</time>
      </trkpt>
      <trkpt lat="41.686997" lon="2.575645">
        <ele>175.529</ele>
        <time>2021-05-26T10:32:03Z</time>
      </trkpt>
      <trkpt lat="41.687028" lon="2.575629">
        <ele>175.466</ele>
        <time>2021-05-26T10:32:05Z</time>
      </trkpt>
      <trkpt lat="41.687063" lon="2.575606">
        <ele>175.379</ele>
        <time>2021-05-26T10:32:07Z</time>
      </trkpt>
      <trkpt lat="41.687081" lon="2.575592">
        <ele>175.244</ele>
        <time>2021-05-26T10:32:08Z</time>
      </trkpt>
      <trkpt lat="41.687111" lon="2.575569">
        <ele>175.140</ele>
        <time>2021-05-26T10:32:10Z</time>
      </trkpt>
      <trkpt lat="41.687141" lon="2.575534">
        <ele>175.237</ele>
        <time>2021-05-26T10:32:12Z</time>
      </trkpt>
      <trkpt lat="41.687157" lon="2.575509">
        <ele>175.344</ele>
        <time>2021-05-26T10:32:13Z</time>
      </trkpt>
      <trkpt lat="41.687178" lon="2.575489">
        <ele>175.417</ele>
        <time>2021-05-26T10:32:14Z</time>
      </trkpt>
      <trkpt lat="41.687194" lon="2.575466">
        <ele>175.687</ele>
        <time>2021-05-26T10:32:15Z</time>
      </trkpt>
      <trkpt lat="41.687210" lon="2.575444">
        <ele>175.715</ele>
        <time>2021-05-26T10:32:16Z</time>
      </trkpt>
      <trkpt lat="41.687225" lon="2.575419">
        <ele>175.908</ele>
        <time>2021-05-26T10:32:17Z</time>
      </trkpt>
      <trkpt lat="41.687242" lon="2.575394">
        <ele>176.018</ele>
        <time>2021-05-26T10:32:18Z</time>
      </trkpt>
      <trkpt lat="41.687255" lon="2.575372">
        <ele>176.235</ele>
        <time>2021-05-26T10:32:19Z</time>
      </trkpt>
      <trkpt lat="41.687271" lon="2.575348">
        <ele>176.312</ele>
        <time>2021-05-26T10:32:20Z</time>
      </trkpt>
      <trkpt lat="41.687288" lon="2.575326">
        <ele>176.485</ele>
        <time>2021-05-26T10:32:21Z</time>
      </trkpt>
      <trkpt lat="41.687304" lon="2.575302">
        <ele>176.540</ele>
        <time>2021-05-26T10:32:22Z</time>
      </trkpt>
      <trkpt lat="41.687345" lon="2.575263">
        <ele>176.496</ele>
        <time>2021-05-26T10:32:24Z</time>
      </trkpt>
      <trkpt lat="41.687413" lon="2.575226">
        <ele>175.783</ele>
        <time>2021-05-26T10:32:27Z</time>
      </trkpt>
      <trkpt lat="41.687461" lon="2.575213">
        <ele>175.190</ele>
        <time>2021-05-26T10:32:29Z</time>
      </trkpt>
      <trkpt lat="41.687484" lon="2.575211">
        <ele>174.717</ele>
        <time>2021-05-26T10:32:30Z</time>
      </trkpt>
      <trkpt lat="41.687508" lon="2.575206">
        <ele>174.487</ele>
        <time>2021-05-26T10:32:31Z</time>
      </trkpt>
      <trkpt lat="41.687554" lon="2.575202">
        <ele>173.915</ele>
        <time>2021-05-26T10:32:33Z</time>
      </trkpt>
      <trkpt lat="41.687578" lon="2.575199">
        <ele>173.608</ele>
        <time>2021-05-26T10:32:34Z</time>
      </trkpt>
      <trkpt lat="41.687607" lon="2.575185">
        <ele>173.338</ele>
        <time>2021-05-26T10:32:35Z</time>
      </trkpt>
      <trkpt lat="41.687634" lon="2.575169">
        <ele>173.035</ele>
        <time>2021-05-26T10:32:36Z</time>
      </trkpt>
      <trkpt lat="41.687659" lon="2.575148">
        <ele>172.742</ele>
        <time>2021-05-26T10:32:37Z</time>
      </trkpt>
      <trkpt lat="41.687679" lon="2.575122">
        <ele>172.565</ele>
        <time>2021-05-26T10:32:38Z</time>
      </trkpt>
      <trkpt lat="41.687699" lon="2.575092">
        <ele>172.220</ele>
        <time>2021-05-26T10:32:39Z</time>
      </trkpt>
      <trkpt lat="41.687718" lon="2.575063">
        <ele>172.016</ele>
        <time>2021-05-26T10:32:40Z</time>
      </trkpt>
      <trkpt lat="41.687736" lon="2.575032">
        <ele>171.733</ele>
        <time>2021-05-26T10:32:41Z</time>
      </trkpt>
      <trkpt lat="41.687753" lon="2.574998">
        <ele>171.540</ele>
        <time>2021-05-26T10:32:42Z</time>
      </trkpt>
      <trkpt lat="41.687768" lon="2.574964">
        <ele>171.328</ele>
        <time>2021-05-26T10:32:43Z</time>
      </trkpt>
      <trkpt lat="41.687779" lon="2.574932">
        <ele>171.289</ele>
        <time>2021-05-26T10:32:44Z</time>
      </trkpt>
      <trkpt lat="41.687795" lon="2.574902">
        <ele>171.217</ele>
        <time>2021-05-26T10:32:45Z</time>
      </trkpt>
      <trkpt lat="41.687809" lon="2.574873">
        <ele>171.108</ele>
        <time>2021-05-26T10:32:46Z</time>
      </trkpt>
      <trkpt lat="41.687820" lon="2.574844">
        <ele>171.049</ele>
        <time>2021-05-26T10:32:47Z</time>
      </trkpt>
      <trkpt lat="41.687827" lon="2.574809">
        <ele>171.046</ele>
        <time>2021-05-26T10:32:48Z</time>
      </trkpt>
      <trkpt lat="41.687834" lon="2.574773">
        <ele>170.973</ele>
        <time>2021-05-26T10:32:49Z</time>
      </trkpt>
      <trkpt lat="41.687838" lon="2.574743">
        <ele>170.966</ele>
        <time>2021-05-26T10:32:50Z</time>
      </trkpt>
      <trkpt lat="41.687842" lon="2.574714">
        <ele>170.931</ele>
        <time>2021-05-26T10:32:51Z</time>
      </trkpt>
      <trkpt lat="41.687847" lon="2.574681">
        <ele>171.077</ele>
        <time>2021-05-26T10:32:52Z</time>
      </trkpt>
      <trkpt lat="41.687851" lon="2.574645">
        <ele>171.274</ele>
        <time>2021-05-26T10:32:53Z</time>
      </trkpt>
      <trkpt lat="41.687851" lon="2.574609">
        <ele>171.491</ele>
        <time>2021-05-26T10:32:54Z</time>
      </trkpt>
      <trkpt lat="41.687853" lon="2.574570">
        <ele>171.674</ele>
        <time>2021-05-26T10:32:55Z</time>
      </trkpt>
      <trkpt lat="41.687858" lon="2.574537">
        <ele>171.756</ele>
        <time>2021-05-26T10:32:56Z</time>
      </trkpt>
      <trkpt lat="41.687868" lon="2.574500">
        <ele>171.721</ele>
        <time>2021-05-26T10:32:57Z</time>
      </trkpt>
      <trkpt lat="41.687880" lon="2.574467">
        <ele>171.708</ele>
        <time>2021-05-26T10:32:58Z</time>
      </trkpt>
      <trkpt lat="41.687894" lon="2.574431">
        <ele>171.674</ele>
        <time>2021-05-26T10:32:59Z</time>
      </trkpt>
      <trkpt lat="41.687904" lon="2.574402">
        <ele>171.521</ele>
        <time>2021-05-26T10:33:00Z</time>
      </trkpt>
      <trkpt lat="41.687915" lon="2.574370">
        <ele>171.418</ele>
        <time>2021-05-26T10:33:01Z</time>
      </trkpt>
      <trkpt lat="41.687930" lon="2.574337">
        <ele>171.211</ele>
        <time>2021-05-26T10:33:02Z</time>
      </trkpt>
      <trkpt lat="41.687945" lon="2.574307">
        <ele>171.016</ele>
        <time>2021-05-26T10:33:03Z</time>
      </trkpt>
      <trkpt lat="41.687959" lon="2.574277">
        <ele>170.762</ele>
        <time>2021-05-26T10:33:04Z</time>
      </trkpt>
      <trkpt lat="41.687973" lon="2.574244">
        <ele>170.419</ele>
        <time>2021-05-26T10:33:05Z</time>
      </trkpt>
      <trkpt lat="41.687988" lon="2.574211">
        <ele>170.196</ele>
        <time>2021-05-26T10:33:06Z</time>
      </trkpt>
      <trkpt lat="41.688002" lon="2.574179">
        <ele>169.753</ele>
        <time>2021-05-26T10:33:07Z</time>
      </trkpt>
      <trkpt lat="41.688014" lon="2.574142">
        <ele>169.704</ele>
        <time>2021-05-26T10:33:08Z</time>
      </trkpt>
      <trkpt lat="41.688028" lon="2.574111">
        <ele>169.714</ele>
        <time>2021-05-26T10:33:09Z</time>
      </trkpt>
      <trkpt lat="41.688040" lon="2.574083">
        <ele>169.708</ele>
        <time>2021-05-26T10:33:10Z</time>
      </trkpt>
      <trkpt lat="41.688053" lon="2.574053">
        <ele>169.732</ele>
        <time>2021-05-26T10:33:11Z</time>
      </trkpt>
      <trkpt lat="41.688067" lon="2.574024">
        <ele>169.859</ele>
        <time>2021-05-26T10:33:12Z</time>
      </trkpt>
      <trkpt lat="41.688083" lon="2.573994">
        <ele>169.966</ele>
        <time>2021-05-26T10:33:13Z</time>
      </trkpt>
      <trkpt lat="41.688099" lon="2.573964">
        <ele>169.949</ele>
        <time>2021-05-26T10:33:14Z</time>
      </trkpt>
      <trkpt lat="41.688113" lon="2.573938">
        <ele>169.834</ele>
        <time>2021-05-26T10:33:15Z</time>
      </trkpt>
      <trkpt lat="41.688126" lon="2.573915">
        <ele>169.740</ele>
        <time>2021-05-26T10:33:16Z</time>
      </trkpt>
      <trkpt lat="41.688138" lon="2.573892">
        <ele>169.687</ele>
        <time>2021-05-26T10:33:17Z</time>
      </trkpt>
      <trkpt lat="41.688154" lon="2.573864">
        <ele>169.484</ele>
        <time>2021-05-26T10:33:18Z</time>
      </trkpt>
      <trkpt lat="41.688168" lon="2.573838">
        <ele>169.262</ele>
        <time>2021-05-26T10:33:19Z</time>
      </trkpt>
      <trkpt lat="41.688182" lon="2.573812">
        <ele>168.983</ele>
        <time>2021-05-26T10:33:20Z</time>
      </trkpt>
      <trkpt lat="41.688196" lon="2.573786">
        <ele>168.711</ele>
        <time>2021-05-26T10:33:21Z</time>
      </trkpt>
      <trkpt lat="41.688215" lon="2.573757">
        <ele>168.308</ele>
        <time>2021-05-26T10:33:22Z</time>
      </trkpt>
      <trkpt lat="41.688236" lon="2.573728">
        <ele>167.883</ele>
        <time>2021-05-26T10:33:23Z</time>
      </trkpt>
      <trkpt lat="41.688254" lon="2.573703">
        <ele>167.320</ele>
        <time>2021-05-26T10:33:24Z</time>
      </trkpt>
      <trkpt lat="41.688268" lon="2.573679">
        <ele>167.087</ele>
        <time>2021-05-26T10:33:25Z</time>
      </trkpt>
      <trkpt lat="41.688287" lon="2.573653">
        <ele>166.570</ele>
        <time>2021-05-26T10:33:26Z</time>
      </trkpt>
      <trkpt lat="41.688303" lon="2.573625">
        <ele>166.055</ele>
        <time>2021-05-26T10:33:27Z</time>
      </trkpt>
      <trkpt lat="41.688317" lon="2.573599">
        <ele>165.781</ele>
        <time>2021-05-26T10:33:28Z</time>
      </trkpt>
      <trkpt lat="41.688330" lon="2.573576">
        <ele>165.448</ele>
        <time>2021-05-26T10:33:29Z</time>
      </trkpt>
      <trkpt lat="41.688347" lon="2.573553">
        <ele>165.245</ele>
        <time>2021-05-26T10:33:30Z</time>
      </trkpt>
      <trkpt lat="41.688387" lon="2.573502">
        <ele>164.942</ele>
        <time>2021-05-26T10:33:32Z</time>
      </trkpt>
      <trkpt lat="41.688407" lon="2.573476">
        <ele>164.722</ele>
        <time>2021-05-26T10:33:33Z</time>
      </trkpt>
      <trkpt lat="41.688429" lon="2.573449">
        <ele>164.414</ele>
        <time>2021-05-26T10:33:34Z</time>
      </trkpt>
      <trkpt lat="41.688446" lon="2.573429">
        <ele>164.208</ele>
        <time>2021-05-26T10:33:35Z</time>
      </trkpt>
      <trkpt lat="41.688462" lon="2.573407">
        <ele>163.921</ele>
        <time>2021-05-26T10:33:36Z</time>
      </trkpt>
      <trkpt lat="41.688478" lon="2.573387">
        <ele>163.728</ele>
        <time>2021-05-26T10:33:37Z</time>
      </trkpt>
      <trkpt lat="41.688497" lon="2.573369">
        <ele>163.415</ele>
        <time>2021-05-26T10:33:38Z</time>
      </trkpt>
      <trkpt lat="41.688517" lon="2.573350">
        <ele>163.018</ele>
        <time>2021-05-26T10:33:39Z</time>
      </trkpt>
      <trkpt lat="41.688536" lon="2.573328">
        <ele>162.763</ele>
        <time>2021-05-26T10:33:40Z</time>
      </trkpt>
      <trkpt lat="41.688562" lon="2.573305">
        <ele>162.369</ele>
        <time>2021-05-26T10:33:41Z</time>
      </trkpt>
      <trkpt lat="41.688580" lon="2.573286">
        <ele>162.186</ele>
        <time>2021-05-26T10:33:42Z</time>
      </trkpt>
      <trkpt lat="41.688598" lon="2.573264">
        <ele>161.853</ele>
        <time>2021-05-26T10:33:43Z</time>
      </trkpt>
      <trkpt lat="41.688617" lon="2.573241">
        <ele>161.637</ele>
        <time>2021-05-26T10:33:44Z</time>
      </trkpt>
      <trkpt lat="41.688640" lon="2.573216">
        <ele>161.649</ele>
        <time>2021-05-26T10:33:45Z</time>
      </trkpt>
      <trkpt lat="41.688661" lon="2.573191">
        <ele>161.713</ele>
        <time>2021-05-26T10:33:46Z</time>
      </trkpt>
      <trkpt lat="41.688682" lon="2.573169">
        <ele>161.708</ele>
        <time>2021-05-26T10:33:47Z</time>
      </trkpt>
      <trkpt lat="41.688701" lon="2.573144">
        <ele>161.720</ele>
        <time>2021-05-26T10:33:48Z</time>
      </trkpt>
      <trkpt lat="41.688725" lon="2.573118">
        <ele>161.747</ele>
        <time>2021-05-26T10:33:49Z</time>
      </trkpt>
      <trkpt lat="41.688747" lon="2.573097">
        <ele>161.764</ele>
        <time>2021-05-26T10:33:50Z</time>
      </trkpt>
      <trkpt lat="41.688773" lon="2.573081">
        <ele>161.787</ele>
        <time>2021-05-26T10:33:51Z</time>
      </trkpt>
      <trkpt lat="41.688795" lon="2.573067">
        <ele>161.612</ele>
        <time>2021-05-26T10:33:52Z</time>
      </trkpt>
      <trkpt lat="41.688815" lon="2.573055">
        <ele>161.598</ele>
        <time>2021-05-26T10:33:53Z</time>
      </trkpt>
      <trkpt lat="41.688839" lon="2.573041">
        <ele>161.565</ele>
        <time>2021-05-26T10:33:54Z</time>
      </trkpt>
      <trkpt lat="41.688863" lon="2.573029">
        <ele>161.482</ele>
        <time>2021-05-26T10:33:55Z</time>
      </trkpt>
      <trkpt lat="41.688887" lon="2.573020">
        <ele>161.376</ele>
        <time>2021-05-26T10:33:56Z</time>
      </trkpt>
      <trkpt lat="41.688910" lon="2.573017">
        <ele>161.490</ele>
        <time>2021-05-26T10:33:57Z</time>
      </trkpt>
      <trkpt lat="41.688930" lon="2.573017">
        <ele>161.419</ele>
        <time>2021-05-26T10:33:58Z</time>
      </trkpt>
      <trkpt lat="41.688957" lon="2.573018">
        <ele>161.508</ele>
        <time>2021-05-26T10:33:59Z</time>
      </trkpt>
      <trkpt lat="41.688983" lon="2.573027">
        <ele>161.594</ele>
        <time>2021-05-26T10:34:00Z</time>
      </trkpt>
      <trkpt lat="41.689005" lon="2.573035">
        <ele>161.681</ele>
        <time>2021-05-26T10:34:01Z</time>
      </trkpt>
      <trkpt lat="41.689033" lon="2.573041">
        <ele>161.618</ele>
        <time>2021-05-26T10:34:02Z</time>
      </trkpt>
      <trkpt lat="41.689061" lon="2.573050">
        <ele>161.771</ele>
        <time>2021-05-26T10:34:03Z</time>
      </trkpt>
      <trkpt lat="41.689092" lon="2.573058">
        <ele>161.736</ele>
        <time>2021-05-26T10:34:04Z</time>
      </trkpt>
      <trkpt lat="41.689115" lon="2.573065">
        <ele>161.872</ele>
        <time>2021-05-26T10:34:05Z</time>
      </trkpt>
      <trkpt lat="41.689139" lon="2.573073">
        <ele>161.879</ele>
        <time>2021-05-26T10:34:06Z</time>
      </trkpt>
      <trkpt lat="41.689164" lon="2.573086">
        <ele>161.946</ele>
        <time>2021-05-26T10:34:07Z</time>
      </trkpt>
      <trkpt lat="41.689188" lon="2.573094">
        <ele>161.932</ele>
        <time>2021-05-26T10:34:08Z</time>
      </trkpt>
      <trkpt lat="41.689210" lon="2.573099">
        <ele>161.892</ele>
        <time>2021-05-26T10:34:09Z</time>
      </trkpt>
      <trkpt lat="41.689234" lon="2.573101">
        <ele>161.811</ele>
        <time>2021-05-26T10:34:10Z</time>
      </trkpt>
      <trkpt lat="41.689259" lon="2.573103">
        <ele>161.808</ele>
        <time>2021-05-26T10:34:11Z</time>
      </trkpt>
      <trkpt lat="41.689283" lon="2.573108">
        <ele>161.840</ele>
        <time>2021-05-26T10:34:12Z</time>
      </trkpt>
      <trkpt lat="41.689305" lon="2.573111">
        <ele>161.847</ele>
        <time>2021-05-26T10:34:13Z</time>
      </trkpt>
      <trkpt lat="41.689335" lon="2.573113">
        <ele>161.864</ele>
        <time>2021-05-26T10:34:14Z</time>
      </trkpt>
      <trkpt lat="41.689362" lon="2.573121">
        <ele>161.827</ele>
        <time>2021-05-26T10:34:15Z</time>
      </trkpt>
      <trkpt lat="41.689387" lon="2.573129">
        <ele>161.782</ele>
        <time>2021-05-26T10:34:16Z</time>
      </trkpt>
      <trkpt lat="41.689415" lon="2.573133">
        <ele>161.768</ele>
        <time>2021-05-26T10:34:17Z</time>
      </trkpt>
      <trkpt lat="41.689441" lon="2.573134">
        <ele>161.735</ele>
        <time>2021-05-26T10:34:18Z</time>
      </trkpt>
      <trkpt lat="41.689467" lon="2.573137">
        <ele>161.712</ele>
        <time>2021-05-26T10:34:19Z</time>
      </trkpt>
      <trkpt lat="41.689491" lon="2.573141">
        <ele>161.627</ele>
        <time>2021-05-26T10:34:20Z</time>
      </trkpt>
      <trkpt lat="41.689516" lon="2.573144">
        <ele>161.668</ele>
        <time>2021-05-26T10:34:21Z</time>
      </trkpt>
      <trkpt lat="41.689535" lon="2.573147">
        <ele>161.614</ele>
        <time>2021-05-26T10:34:22Z</time>
      </trkpt>
      <trkpt lat="41.689556" lon="2.573151">
        <ele>161.508</ele>
        <time>2021-05-26T10:34:23Z</time>
      </trkpt>
      <trkpt lat="41.689574" lon="2.573156">
        <ele>161.599</ele>
        <time>2021-05-26T10:34:24Z</time>
      </trkpt>
      <trkpt lat="41.689596" lon="2.573162">
        <ele>161.486</ele>
        <time>2021-05-26T10:34:25Z</time>
      </trkpt>
      <trkpt lat="41.689616" lon="2.573167">
        <ele>161.433</ele>
        <time>2021-05-26T10:34:26Z</time>
      </trkpt>
      <trkpt lat="41.689636" lon="2.573174">
        <ele>161.346</ele>
        <time>2021-05-26T10:34:27Z</time>
      </trkpt>
      <trkpt lat="41.689656" lon="2.573182">
        <ele>161.211</ele>
        <time>2021-05-26T10:34:28Z</time>
      </trkpt>
      <trkpt lat="41.689691" lon="2.573202">
        <ele>161.067</ele>
        <time>2021-05-26T10:34:30Z</time>
      </trkpt>
      <trkpt lat="41.689727" lon="2.573218">
        <ele>160.964</ele>
        <time>2021-05-26T10:34:32Z</time>
      </trkpt>
      <trkpt lat="41.689747" lon="2.573229">
        <ele>160.951</ele>
        <time>2021-05-26T10:34:33Z</time>
      </trkpt>
      <trkpt lat="41.689803" lon="2.573249">
        <ele>161.273</ele>
        <time>2021-05-26T10:34:37Z</time>
      </trkpt>
      <trkpt lat="41.689822" lon="2.573258">
        <ele>161.385</ele>
        <time>2021-05-26T10:34:38Z</time>
      </trkpt>
      <trkpt lat="41.689838" lon="2.573270">
        <ele>161.313</ele>
        <time>2021-05-26T10:34:39Z</time>
      </trkpt>
      <trkpt lat="41.689855" lon="2.573281">
        <ele>161.308</ele>
        <time>2021-05-26T10:34:40Z</time>
      </trkpt>
      <trkpt lat="41.689874" lon="2.573291">
        <ele>161.414</ele>
        <time>2021-05-26T10:34:41Z</time>
      </trkpt>
      <trkpt lat="41.689904" lon="2.573309">
        <ele>161.531</ele>
        <time>2021-05-26T10:34:43Z</time>
      </trkpt>
      <trkpt lat="41.689933" lon="2.573322">
        <ele>161.688</ele>
        <time>2021-05-26T10:34:45Z</time>
      </trkpt>
      <trkpt lat="41.689963" lon="2.573335">
        <ele>161.741</ele>
        <time>2021-05-26T10:34:47Z</time>
      </trkpt>
      <trkpt lat="41.689992" lon="2.573351">
        <ele>161.836</ele>
        <time>2021-05-26T10:34:49Z</time>
      </trkpt>
      <trkpt lat="41.690022" lon="2.573367">
        <ele>162.132</ele>
        <time>2021-05-26T10:34:51Z</time>
      </trkpt>
      <trkpt lat="41.690040" lon="2.573375">
        <ele>162.389</ele>
        <time>2021-05-26T10:34:52Z</time>
      </trkpt>
      <trkpt lat="41.690067" lon="2.573391">
        <ele>162.616</ele>
        <time>2021-05-26T10:34:54Z</time>
      </trkpt>
      <trkpt lat="41.690104" lon="2.573400">
        <ele>163.017</ele>
        <time>2021-05-26T10:34:56Z</time>
      </trkpt>
      <trkpt lat="41.690133" lon="2.573408">
        <ele>163.487</ele>
        <time>2021-05-26T10:34:58Z</time>
      </trkpt>
      <trkpt lat="41.690163" lon="2.573429">
        <ele>163.715</ele>
        <time>2021-05-26T10:35:00Z</time>
      </trkpt>
      <trkpt lat="41.690188" lon="2.573453">
        <ele>163.808</ele>
        <time>2021-05-26T10:35:02Z</time>
      </trkpt>
      <trkpt lat="41.690212" lon="2.573479">
        <ele>164.068</ele>
        <time>2021-05-26T10:35:04Z</time>
      </trkpt>
      <trkpt lat="41.690227" lon="2.573494">
        <ele>164.145</ele>
        <time>2021-05-26T10:35:05Z</time>
      </trkpt>
      <trkpt lat="41.690240" lon="2.573512">
        <ele>164.222</ele>
        <time>2021-05-26T10:35:06Z</time>
      </trkpt>
      <trkpt lat="41.690252" lon="2.573535">
        <ele>164.225</ele>
        <time>2021-05-26T10:35:07Z</time>
      </trkpt>
      <trkpt lat="41.690263" lon="2.573561">
        <ele>164.140</ele>
        <time>2021-05-26T10:35:08Z</time>
      </trkpt>
      <trkpt lat="41.690276" lon="2.573589">
        <ele>164.166</ele>
        <time>2021-05-26T10:35:09Z</time>
      </trkpt>
      <trkpt lat="41.690288" lon="2.573619">
        <ele>164.273</ele>
        <time>2021-05-26T10:35:10Z</time>
      </trkpt>
      <trkpt lat="41.690297" lon="2.573647">
        <ele>164.260</ele>
        <time>2021-05-26T10:35:11Z</time>
      </trkpt>
      <trkpt lat="41.690310" lon="2.573678">
        <ele>164.286</ele>
        <time>2021-05-26T10:35:12Z</time>
      </trkpt>
      <trkpt lat="41.690319" lon="2.573704">
        <ele>164.260</ele>
        <time>2021-05-26T10:35:13Z</time>
      </trkpt>
      <trkpt lat="41.690328" lon="2.573730">
        <ele>164.226</ele>
        <time>2021-05-26T10:35:14Z</time>
      </trkpt>
      <trkpt lat="41.690341" lon="2.573757">
        <ele>164.408</ele>
        <time>2021-05-26T10:35:15Z</time>
      </trkpt>
      <trkpt lat="41.690353" lon="2.573787">
        <ele>164.455</ele>
        <time>2021-05-26T10:35:16Z</time>
      </trkpt>
      <trkpt lat="41.690363" lon="2.573819">
        <ele>164.422</ele>
        <time>2021-05-26T10:35:17Z</time>
      </trkpt>
      <trkpt lat="41.690370" lon="2.573855">
        <ele>164.369</ele>
        <time>2021-05-26T10:35:18Z</time>
      </trkpt>
      <trkpt lat="41.690379" lon="2.573890">
        <ele>164.372</ele>
        <time>2021-05-26T10:35:19Z</time>
      </trkpt>
      <trkpt lat="41.690389" lon="2.573926">
        <ele>164.227</ele>
        <time>2021-05-26T10:35:20Z</time>
      </trkpt>
      <trkpt lat="41.690402" lon="2.573962">
        <ele>164.393</ele>
        <time>2021-05-26T10:35:21Z</time>
      </trkpt>
      <trkpt lat="41.690412" lon="2.573992">
        <ele>164.240</ele>
        <time>2021-05-26T10:35:22Z</time>
      </trkpt>
      <trkpt lat="41.690423" lon="2.574017">
        <ele>164.357</ele>
        <time>2021-05-26T10:35:23Z</time>
      </trkpt>
      <trkpt lat="41.690433" lon="2.574050">
        <ele>164.233</ele>
        <time>2021-05-26T10:35:24Z</time>
      </trkpt>
      <trkpt lat="41.690443" lon="2.574078">
        <ele>164.223</ele>
        <time>2021-05-26T10:35:25Z</time>
      </trkpt>
      <trkpt lat="41.690454" lon="2.574108">
        <ele>164.115</ele>
        <time>2021-05-26T10:35:26Z</time>
      </trkpt>
      <trkpt lat="41.690467" lon="2.574141">
        <ele>164.108</ele>
        <time>2021-05-26T10:35:27Z</time>
      </trkpt>
      <trkpt lat="41.690479" lon="2.574175">
        <ele>164.050</ele>
        <time>2021-05-26T10:35:28Z</time>
      </trkpt>
      <trkpt lat="41.690491" lon="2.574207">
        <ele>163.937</ele>
        <time>2021-05-26T10:35:29Z</time>
      </trkpt>
      <trkpt lat="41.690503" lon="2.574241">
        <ele>163.744</ele>
        <time>2021-05-26T10:35:30Z</time>
      </trkpt>
      <trkpt lat="41.690518" lon="2.574274">
        <ele>163.677</ele>
        <time>2021-05-26T10:35:31Z</time>
      </trkpt>
      <trkpt lat="41.690531" lon="2.574317">
        <ele>163.362</ele>
        <time>2021-05-26T10:35:32Z</time>
      </trkpt>
      <trkpt lat="41.690544" lon="2.574355">
        <ele>163.128</ele>
        <time>2021-05-26T10:35:33Z</time>
      </trkpt>
      <trkpt lat="41.690555" lon="2.574392">
        <ele>162.785</ele>
        <time>2021-05-26T10:35:34Z</time>
      </trkpt>
      <trkpt lat="41.690566" lon="2.574425">
        <ele>162.642</ele>
        <time>2021-05-26T10:35:35Z</time>
      </trkpt>
      <trkpt lat="41.690576" lon="2.574455">
        <ele>162.417</ele>
        <time>2021-05-26T10:35:36Z</time>
      </trkpt>
      <trkpt lat="41.690586" lon="2.574484">
        <ele>162.387</ele>
        <time>2021-05-26T10:35:37Z</time>
      </trkpt>
      <trkpt lat="41.690599" lon="2.574512">
        <ele>162.315</ele>
        <time>2021-05-26T10:35:38Z</time>
      </trkpt>
      <trkpt lat="41.690613" lon="2.574541">
        <ele>162.308</ele>
        <time>2021-05-26T10:35:39Z</time>
      </trkpt>
      <trkpt lat="41.690624" lon="2.574568">
        <ele>162.218</ele>
        <time>2021-05-26T10:35:40Z</time>
      </trkpt>
      <trkpt lat="41.690637" lon="2.574596">
        <ele>162.275</ele>
        <time>2021-05-26T10:35:41Z</time>
      </trkpt>
      <trkpt lat="41.690646" lon="2.574630">
        <ele>161.982</ele>
        <time>2021-05-26T10:35:42Z</time>
      </trkpt>
      <trkpt lat="41.690660" lon="2.574663">
        <ele>161.935</ele>
        <time>2021-05-26T10:35:43Z</time>
      </trkpt>
      <trkpt lat="41.690671" lon="2.574698">
        <ele>161.740</ele>
        <time>2021-05-26T10:35:44Z</time>
      </trkpt>
      <trkpt lat="41.690685" lon="2.574728">
        <ele>161.776</ele>
        <time>2021-05-26T10:35:45Z</time>
      </trkpt>
      <trkpt lat="41.690696" lon="2.574757">
        <ele>161.733</ele>
        <time>2021-05-26T10:35:46Z</time>
      </trkpt>
      <trkpt lat="41.690710" lon="2.574784">
        <ele>161.910</ele>
        <time>2021-05-26T10:35:47Z</time>
      </trkpt>
      <trkpt lat="41.690737" lon="2.574849">
        <ele>162.021</ele>
        <time>2021-05-26T10:35:49Z</time>
      </trkpt>
      <trkpt lat="41.690752" lon="2.574875">
        <ele>162.241</ele>
        <time>2021-05-26T10:35:50Z</time>
      </trkpt>
      <trkpt lat="41.690766" lon="2.574905">
        <ele>162.205</ele>
        <time>2021-05-26T10:35:51Z</time>
      </trkpt>
      <trkpt lat="41.690782" lon="2.574933">
        <ele>162.408</ele>
        <time>2021-05-26T10:35:52Z</time>
      </trkpt>
      <trkpt lat="41.690797" lon="2.574968">
        <ele>162.469</ele>
        <time>2021-05-26T10:35:53Z</time>
      </trkpt>
      <trkpt lat="41.690808" lon="2.575001">
        <ele>162.486</ele>
        <time>2021-05-26T10:35:54Z</time>
      </trkpt>
      <trkpt lat="41.690816" lon="2.575035">
        <ele>162.273</ele>
        <time>2021-05-26T10:35:55Z</time>
      </trkpt>
      <trkpt lat="41.690870" lon="2.575170">
        <ele>162.266</ele>
        <time>2021-05-26T10:35:59Z</time>
      </trkpt>
      <trkpt lat="41.690933" lon="2.575269">
        <ele>162.671</ele>
        <time>2021-05-26T10:36:03Z</time>
      </trkpt>
      <trkpt lat="41.691012" lon="2.575353">
        <ele>163.487</ele>
        <time>2021-05-26T10:36:07Z</time>
      </trkpt>
      <trkpt lat="41.691107" lon="2.575403">
        <ele>165.194</ele>
        <time>2021-05-26T10:36:12Z</time>
      </trkpt>
      <trkpt lat="41.691214" lon="2.575475">
        <ele>166.871</ele>
        <time>2021-05-26T10:36:16Z</time>
      </trkpt>
      <trkpt lat="41.691289" lon="2.575547">
        <ele>167.613</ele>
        <time>2021-05-26T10:36:19Z</time>
      </trkpt>
      <trkpt lat="41.691364" lon="2.575660">
        <ele>167.843</ele>
        <time>2021-05-26T10:36:23Z</time>
      </trkpt>
      <trkpt lat="41.691381" lon="2.575691">
        <ele>167.807</ele>
        <time>2021-05-26T10:36:24Z</time>
      </trkpt>
      <trkpt lat="41.691400" lon="2.575722">
        <ele>167.808</ele>
        <time>2021-05-26T10:36:25Z</time>
      </trkpt>
      <trkpt lat="41.691413" lon="2.575751">
        <ele>167.648</ele>
        <time>2021-05-26T10:36:26Z</time>
      </trkpt>
      <trkpt lat="41.691426" lon="2.575780">
        <ele>167.425</ele>
        <time>2021-05-26T10:36:27Z</time>
      </trkpt>
      <trkpt lat="41.691441" lon="2.575808">
        <ele>167.332</ele>
        <time>2021-05-26T10:36:28Z</time>
      </trkpt>
      <trkpt lat="41.691456" lon="2.575838">
        <ele>167.135</ele>
        <time>2021-05-26T10:36:29Z</time>
      </trkpt>
      <trkpt lat="41.691470" lon="2.575866">
        <ele>166.790</ele>
        <time>2021-05-26T10:36:30Z</time>
      </trkpt>
      <trkpt lat="41.691485" lon="2.575891">
        <ele>166.336</ele>
        <time>2021-05-26T10:36:31Z</time>
      </trkpt>
      <trkpt lat="41.691500" lon="2.575919">
        <ele>166.073</ele>
        <time>2021-05-26T10:36:32Z</time>
      </trkpt>
      <trkpt lat="41.691513" lon="2.575945">
        <ele>165.650</ele>
        <time>2021-05-26T10:36:33Z</time>
      </trkpt>
      <trkpt lat="41.691526" lon="2.575974">
        <ele>165.279</ele>
        <time>2021-05-26T10:36:34Z</time>
      </trkpt>
      <trkpt lat="41.691539" lon="2.576002">
        <ele>164.805</ele>
        <time>2021-05-26T10:36:35Z</time>
      </trkpt>
      <trkpt lat="41.691553" lon="2.576032">
        <ele>164.425</ele>
        <time>2021-05-26T10:36:36Z</time>
      </trkpt>
      <trkpt lat="41.691566" lon="2.576063">
        <ele>163.908</ele>
        <time>2021-05-26T10:36:37Z</time>
      </trkpt>
      <trkpt lat="41.691581" lon="2.576090">
        <ele>163.614</ele>
        <time>2021-05-26T10:36:38Z</time>
      </trkpt>
      <trkpt lat="41.691595" lon="2.576115">
        <ele>163.421</ele>
        <time>2021-05-26T10:36:39Z</time>
      </trkpt>
      <trkpt lat="41.691608" lon="2.576143">
        <ele>162.938</ele>
        <time>2021-05-26T10:36:40Z</time>
      </trkpt>
      <trkpt lat="41.691622" lon="2.576166">
        <ele>162.791</ele>
        <time>2021-05-26T10:36:41Z</time>
      </trkpt>
      <trkpt lat="41.691636" lon="2.576188">
        <ele>162.446</ele>
        <time>2021-05-26T10:36:42Z</time>
      </trkpt>
      <trkpt lat="41.691652" lon="2.576208">
        <ele>162.282</ele>
        <time>2021-05-26T10:36:43Z</time>
      </trkpt>
      <trkpt lat="41.691668" lon="2.576231">
        <ele>162.039</ele>
        <time>2021-05-26T10:36:44Z</time>
      </trkpt>
      <trkpt lat="41.691681" lon="2.576254">
        <ele>161.796</ele>
        <time>2021-05-26T10:36:45Z</time>
      </trkpt>
      <trkpt lat="41.691695" lon="2.576275">
        <ele>161.535</ele>
        <time>2021-05-26T10:36:46Z</time>
      </trkpt>
      <trkpt lat="41.691710" lon="2.576295">
        <ele>161.486</ele>
        <time>2021-05-26T10:36:47Z</time>
      </trkpt>
      <trkpt lat="41.691724" lon="2.576320">
        <ele>161.114</ele>
        <time>2021-05-26T10:36:48Z</time>
      </trkpt>
      <trkpt lat="41.691737" lon="2.576346">
        <ele>160.808</ele>
        <time>2021-05-26T10:36:49Z</time>
      </trkpt>
      <trkpt lat="41.691751" lon="2.576368">
        <ele>160.620</ele>
        <time>2021-05-26T10:36:50Z</time>
      </trkpt>
      <trkpt lat="41.691766" lon="2.576389">
        <ele>160.567</ele>
        <time>2021-05-26T10:36:51Z</time>
      </trkpt>
      <trkpt lat="41.691782" lon="2.576411">
        <ele>160.554</ele>
        <time>2021-05-26T10:36:52Z</time>
      </trkpt>
      <trkpt lat="41.691798" lon="2.576434">
        <ele>160.597</ele>
        <time>2021-05-26T10:36:53Z</time>
      </trkpt>
      <trkpt lat="41.691812" lon="2.576457">
        <ele>160.442</ele>
        <time>2021-05-26T10:36:54Z</time>
      </trkpt>
      <trkpt lat="41.691823" lon="2.576480">
        <ele>160.318</ele>
        <time>2021-05-26T10:36:55Z</time>
      </trkpt>
      <trkpt lat="41.691838" lon="2.576505">
        <ele>160.175</ele>
        <time>2021-05-26T10:36:56Z</time>
      </trkpt>
      <trkpt lat="41.691854" lon="2.576526">
        <ele>160.142</ele>
        <time>2021-05-26T10:36:57Z</time>
      </trkpt>
      <trkpt lat="41.691872" lon="2.576550">
        <ele>160.061</ele>
        <time>2021-05-26T10:36:58Z</time>
      </trkpt>
      <trkpt lat="41.691892" lon="2.576572">
        <ele>160.021</ele>
        <time>2021-05-26T10:36:59Z</time>
      </trkpt>
      <trkpt lat="41.691908" lon="2.576593">
        <ele>159.913</ele>
        <time>2021-05-26T10:37:00Z</time>
      </trkpt>
      <trkpt lat="41.691927" lon="2.576614">
        <ele>159.808</ele>
        <time>2021-05-26T10:37:01Z</time>
      </trkpt>
      <trkpt lat="41.691947" lon="2.576632">
        <ele>159.833</ele>
        <time>2021-05-26T10:37:02Z</time>
      </trkpt>
      <trkpt lat="41.691971" lon="2.576648">
        <ele>160.060</ele>
        <time>2021-05-26T10:37:03Z</time>
      </trkpt>
      <trkpt lat="41.691994" lon="2.576667">
        <ele>160.197</ele>
        <time>2021-05-26T10:37:04Z</time>
      </trkpt>
      <trkpt lat="41.692015" lon="2.576690">
        <ele>160.030</ele>
        <time>2021-05-26T10:37:05Z</time>
      </trkpt>
      <trkpt lat="41.692037" lon="2.576716">
        <ele>159.985</ele>
        <time>2021-05-26T10:37:06Z</time>
      </trkpt>
      <trkpt lat="41.692061" lon="2.576735">
        <ele>160.021</ele>
        <time>2021-05-26T10:37:07Z</time>
      </trkpt>
      <trkpt lat="41.692080" lon="2.576757">
        <ele>160.038</ele>
        <time>2021-05-26T10:37:08Z</time>
      </trkpt>
      <trkpt lat="41.692102" lon="2.576782">
        <ele>159.955</ele>
        <time>2021-05-26T10:37:09Z</time>
      </trkpt>
      <trkpt lat="41.692187" lon="2.576855">
        <ele>160.285</ele>
        <time>2021-05-26T10:37:12Z</time>
      </trkpt>
      <trkpt lat="41.692242" lon="2.576905">
        <ele>160.289</ele>
        <time>2021-05-26T10:37:14Z</time>
      </trkpt>
      <trkpt lat="41.692268" lon="2.576932">
        <ele>160.117</ele>
        <time>2021-05-26T10:37:15Z</time>
      </trkpt>
      <trkpt lat="41.692295" lon="2.576955">
        <ele>160.108</ele>
        <time>2021-05-26T10:37:16Z</time>
      </trkpt>
      <trkpt lat="41.692318" lon="2.576979">
        <ele>160.035</ele>
        <time>2021-05-26T10:37:17Z</time>
      </trkpt>
      <trkpt lat="41.692344" lon="2.577003">
        <ele>159.932</ele>
        <time>2021-05-26T10:37:18Z</time>
      </trkpt>
      <trkpt lat="41.692368" lon="2.577023">
        <ele>159.969</ele>
        <time>2021-05-26T10:37:19Z</time>
      </trkpt>
      <trkpt lat="41.692392" lon="2.577045">
        <ele>159.912</ele>
        <time>2021-05-26T10:37:20Z</time>
      </trkpt>
      <trkpt lat="41.692416" lon="2.577064">
        <ele>159.957</ele>
        <time>2021-05-26T10:37:21Z</time>
      </trkpt>
      <trkpt lat="41.692443" lon="2.577082">
        <ele>160.063</ele>
        <time>2021-05-26T10:37:22Z</time>
      </trkpt>
      <trkpt lat="41.692468" lon="2.577096">
        <ele>160.250</ele>
        <time>2021-05-26T10:37:23Z</time>
      </trkpt>
      <trkpt lat="41.692493" lon="2.577112">
        <ele>160.357</ele>
        <time>2021-05-26T10:37:24Z</time>
      </trkpt>
      <trkpt lat="41.692518" lon="2.577121">
        <ele>160.242</ele>
        <time>2021-05-26T10:37:25Z</time>
      </trkpt>
      <trkpt lat="41.692544" lon="2.577132">
        <ele>160.122</ele>
        <time>2021-05-26T10:37:26Z</time>
      </trkpt>
      <trkpt lat="41.692570" lon="2.577148">
        <ele>159.714</ele>
        <time>2021-05-26T10:37:27Z</time>
      </trkpt>
      <trkpt lat="41.692596" lon="2.577162">
        <ele>159.508</ele>
        <time>2021-05-26T10:37:28Z</time>
      </trkpt>
      <trkpt lat="41.692621" lon="2.577173">
        <ele>159.221</ele>
        <time>2021-05-26T10:37:29Z</time>
      </trkpt>
      <trkpt lat="41.692647" lon="2.577178">
        <ele>159.138</ele>
        <time>2021-05-26T10:37:30Z</time>
      </trkpt>
      <trkpt lat="41.692673" lon="2.577184">
        <ele>159.065</ele>
        <time>2021-05-26T10:37:31Z</time>
      </trkpt>
      <trkpt lat="41.692700" lon="2.577191">
        <ele>158.848</ele>
        <time>2021-05-26T10:37:32Z</time>
      </trkpt>
      <trkpt lat="41.692727" lon="2.577200">
        <ele>158.623</ele>
        <time>2021-05-26T10:37:33Z</time>
      </trkpt>
      <trkpt lat="41.692753" lon="2.577208">
        <ele>158.479</ele>
        <time>2021-05-26T10:37:34Z</time>
      </trkpt>
      <trkpt lat="41.692779" lon="2.577206">
        <ele>158.516</ele>
        <time>2021-05-26T10:37:35Z</time>
      </trkpt>
      <trkpt lat="41.692808" lon="2.577199">
        <ele>158.563</ele>
        <time>2021-05-26T10:37:36Z</time>
      </trkpt>
      <trkpt lat="41.692833" lon="2.577197">
        <ele>158.317</ele>
        <time>2021-05-26T10:37:37Z</time>
      </trkpt>
      <trkpt lat="41.692859" lon="2.577195">
        <ele>158.287</ele>
        <time>2021-05-26T10:37:38Z</time>
      </trkpt>
      <trkpt lat="41.692879" lon="2.577191">
        <ele>158.215</ele>
        <time>2021-05-26T10:37:39Z</time>
      </trkpt>
      <trkpt lat="41.692904" lon="2.577185">
        <ele>158.208</ele>
        <time>2021-05-26T10:37:40Z</time>
      </trkpt>
      <trkpt lat="41.692929" lon="2.577176">
        <ele>158.278</ele>
        <time>2021-05-26T10:37:41Z</time>
      </trkpt>
      <trkpt lat="41.692962" lon="2.577168">
        <ele>158.265</ele>
        <time>2021-05-26T10:37:42Z</time>
      </trkpt>
      <trkpt lat="41.692990" lon="2.577158">
        <ele>158.382</ele>
        <time>2021-05-26T10:37:43Z</time>
      </trkpt>
      <trkpt lat="41.693015" lon="2.577152">
        <ele>158.315</ele>
        <time>2021-05-26T10:37:44Z</time>
      </trkpt>
      <trkpt lat="41.693038" lon="2.577145">
        <ele>158.370</ele>
        <time>2021-05-26T10:37:45Z</time>
      </trkpt>
      <trkpt lat="41.693061" lon="2.577136">
        <ele>158.476</ele>
        <time>2021-05-26T10:37:46Z</time>
      </trkpt>
      <trkpt lat="41.693087" lon="2.577129">
        <ele>158.373</ele>
        <time>2021-05-26T10:37:47Z</time>
      </trkpt>
      <trkpt lat="41.693111" lon="2.577127">
        <ele>158.150</ele>
        <time>2021-05-26T10:37:48Z</time>
      </trkpt>
      <trkpt lat="41.693134" lon="2.577122">
        <ele>157.913</ele>
        <time>2021-05-26T10:37:49Z</time>
      </trkpt>
      <trkpt lat="41.693154" lon="2.577119">
        <ele>157.843</ele>
        <time>2021-05-26T10:37:50Z</time>
      </trkpt>
      <trkpt lat="41.693175" lon="2.577116">
        <ele>157.607</ele>
        <time>2021-05-26T10:37:51Z</time>
      </trkpt>
      <trkpt lat="41.693200" lon="2.577114">
        <ele>157.408</ele>
        <time>2021-05-26T10:37:52Z</time>
      </trkpt>
      <trkpt lat="41.693225" lon="2.577114">
        <ele>157.058</ele>
        <time>2021-05-26T10:37:53Z</time>
      </trkpt>
      <trkpt lat="41.693249" lon="2.577116">
        <ele>156.795</ele>
        <time>2021-05-26T10:37:54Z</time>
      </trkpt>
      <trkpt lat="41.693274" lon="2.577115">
        <ele>156.452</ele>
        <time>2021-05-26T10:37:55Z</time>
      </trkpt>
      <trkpt lat="41.693304" lon="2.577115">
        <ele>156.185</ele>
        <time>2021-05-26T10:37:56Z</time>
      </trkpt>
      <trkpt lat="41.693331" lon="2.577116">
        <ele>155.780</ele>
        <time>2021-05-26T10:37:57Z</time>
      </trkpt>
      <trkpt lat="41.693354" lon="2.577118">
        <ele>155.576</ele>
        <time>2021-05-26T10:37:58Z</time>
      </trkpt>
      <trkpt lat="41.693377" lon="2.577124">
        <ele>155.333</ele>
        <time>2021-05-26T10:37:59Z</time>
      </trkpt>
      <trkpt lat="41.693430" lon="2.577146">
        <ele>154.570</ele>
        <time>2021-05-26T10:38:00Z</time>
      </trkpt>
      <trkpt lat="41.693455" lon="2.577166">
        <ele>153.912</ele>
        <time>2021-05-26T10:38:02Z</time>
      </trkpt>
      <trkpt lat="41.693479" lon="2.577182">
        <ele>153.432</ele>
        <time>2021-05-26T10:38:03Z</time>
      </trkpt>
      <trkpt lat="41.693505" lon="2.577202">
        <ele>152.805</ele>
        <time>2021-05-26T10:38:04Z</time>
      </trkpt>
      <trkpt lat="41.693530" lon="2.577223">
        <ele>152.308</ele>
        <time>2021-05-26T10:38:05Z</time>
      </trkpt>
      <trkpt lat="41.693548" lon="2.577240">
        <ele>152.088</ele>
        <time>2021-05-26T10:38:06Z</time>
      </trkpt>
      <trkpt lat="41.693567" lon="2.577258">
        <ele>151.625</ele>
        <time>2021-05-26T10:38:07Z</time>
      </trkpt>
      <trkpt lat="41.693587" lon="2.577275">
        <ele>151.392</ele>
        <time>2021-05-26T10:38:08Z</time>
      </trkpt>
      <trkpt lat="41.693607" lon="2.577290">
        <ele>151.075</ele>
        <time>2021-05-26T10:38:09Z</time>
      </trkpt>
      <trkpt lat="41.693630" lon="2.577307">
        <ele>151.090</ele>
        <time>2021-05-26T10:38:10Z</time>
      </trkpt>
      <trkpt lat="41.693652" lon="2.577322">
        <ele>151.086</ele>
        <time>2021-05-26T10:38:11Z</time>
      </trkpt>
      <trkpt lat="41.693676" lon="2.577329">
        <ele>151.193</ele>
        <time>2021-05-26T10:38:12Z</time>
      </trkpt>
      <trkpt lat="41.693697" lon="2.577341">
        <ele>151.120</ele>
        <time>2021-05-26T10:38:13Z</time>
      </trkpt>
      <trkpt lat="41.693719" lon="2.577351">
        <ele>151.184</ele>
        <time>2021-05-26T10:38:14Z</time>
      </trkpt>
      <trkpt lat="41.693740" lon="2.577361">
        <ele>151.207</ele>
        <time>2021-05-26T10:38:15Z</time>
      </trkpt>
      <trkpt lat="41.693763" lon="2.577369">
        <ele>151.217</ele>
        <time>2021-05-26T10:38:16Z</time>
      </trkpt>
      <trkpt lat="41.693787" lon="2.577372">
        <ele>151.408</ele>
        <time>2021-05-26T10:38:17Z</time>
      </trkpt>
      <trkpt lat="41.693814" lon="2.577379">
        <ele>151.595</ele>
        <time>2021-05-26T10:38:18Z</time>
      </trkpt>
      <trkpt lat="41.693842" lon="2.577387">
        <ele>151.692</ele>
        <time>2021-05-26T10:38:19Z</time>
      </trkpt>
      <trkpt lat="41.693872" lon="2.577394">
        <ele>151.819</ele>
        <time>2021-05-26T10:38:20Z</time>
      </trkpt>
      <trkpt lat="41.693907" lon="2.577393">
        <ele>152.222</ele>
        <time>2021-05-26T10:38:21Z</time>
      </trkpt>
      <trkpt lat="41.693935" lon="2.577396">
        <ele>152.637</ele>
        <time>2021-05-26T10:38:22Z</time>
      </trkpt>
      <trkpt lat="41.693988" lon="2.577402">
        <ele>153.393</ele>
        <time>2021-05-26T10:38:24Z</time>
      </trkpt>
      <trkpt lat="41.694018" lon="2.577398">
        <ele>153.820</ele>
        <time>2021-05-26T10:38:25Z</time>
      </trkpt>
      <trkpt lat="41.694046" lon="2.577390">
        <ele>154.457</ele>
        <time>2021-05-26T10:38:26Z</time>
      </trkpt>
      <trkpt lat="41.694072" lon="2.577386">
        <ele>154.834</ele>
        <time>2021-05-26T10:38:27Z</time>
      </trkpt>
      <trkpt lat="41.694098" lon="2.577376">
        <ele>155.355</ele>
        <time>2021-05-26T10:38:28Z</time>
      </trkpt>
      <trkpt lat="41.694123" lon="2.577363">
        <ele>155.810</ele>
        <time>2021-05-26T10:38:29Z</time>
      </trkpt>
      <trkpt lat="41.694143" lon="2.577345">
        <ele>156.308</ele>
        <time>2021-05-26T10:38:30Z</time>
      </trkpt>
      <trkpt lat="41.694162" lon="2.577321">
        <ele>156.950</ele>
        <time>2021-05-26T10:38:31Z</time>
      </trkpt>
      <trkpt lat="41.694180" lon="2.577299">
        <ele>157.137</ele>
        <time>2021-05-26T10:38:32Z</time>
      </trkpt>
      <trkpt lat="41.694200" lon="2.577273">
        <ele>157.284</ele>
        <time>2021-05-26T10:38:33Z</time>
      </trkpt>
      <trkpt lat="41.694221" lon="2.577248">
        <ele>157.357</ele>
        <time>2021-05-26T10:38:34Z</time>
      </trkpt>
      <trkpt lat="41.694241" lon="2.577223">
        <ele>157.562</ele>
        <time>2021-05-26T10:38:35Z</time>
      </trkpt>
      <trkpt lat="41.694264" lon="2.577198">
        <ele>157.738</ele>
        <time>2021-05-26T10:38:36Z</time>
      </trkpt>
      <trkpt lat="41.694284" lon="2.577175">
        <ele>158.145</ele>
        <time>2021-05-26T10:38:37Z</time>
      </trkpt>
      <trkpt lat="41.694301" lon="2.577154">
        <ele>158.432</ele>
        <time>2021-05-26T10:38:38Z</time>
      </trkpt>
      <trkpt lat="41.694319" lon="2.577131">
        <ele>158.862</ele>
        <time>2021-05-26T10:38:39Z</time>
      </trkpt>
      <trkpt lat="41.694335" lon="2.577110">
        <ele>159.183</ele>
        <time>2021-05-26T10:38:40Z</time>
      </trkpt>
      <trkpt lat="41.694353" lon="2.577087">
        <ele>159.611</ele>
        <time>2021-05-26T10:38:41Z</time>
      </trkpt>
      <trkpt lat="41.694369" lon="2.577066">
        <ele>160.008</ele>
        <time>2021-05-26T10:38:42Z</time>
      </trkpt>
      <trkpt lat="41.694387" lon="2.577045">
        <ele>160.593</ele>
        <time>2021-05-26T10:38:43Z</time>
      </trkpt>
      <trkpt lat="41.694407" lon="2.577027">
        <ele>160.960</ele>
        <time>2021-05-26T10:38:44Z</time>
      </trkpt>
      <trkpt lat="41.694425" lon="2.577011">
        <ele>161.337</ele>
        <time>2021-05-26T10:38:45Z</time>
      </trkpt>
      <trkpt lat="41.694444" lon="2.576995">
        <ele>161.710</ele>
        <time>2021-05-26T10:38:46Z</time>
      </trkpt>
      <trkpt lat="41.694463" lon="2.576979">
        <ele>162.075</ele>
        <time>2021-05-26T10:38:47Z</time>
      </trkpt>
      <trkpt lat="41.694484" lon="2.576966">
        <ele>162.271</ele>
        <time>2021-05-26T10:38:48Z</time>
      </trkpt>
      <trkpt lat="41.694502" lon="2.576954">
        <ele>162.388</ele>
        <time>2021-05-26T10:38:49Z</time>
      </trkpt>
      <trkpt lat="41.694524" lon="2.576942">
        <ele>162.575</ele>
        <time>2021-05-26T10:38:50Z</time>
      </trkpt>
      <trkpt lat="41.694545" lon="2.576935">
        <ele>162.528</ele>
        <time>2021-05-26T10:38:51Z</time>
      </trkpt>
      <trkpt lat="41.694568" lon="2.576927">
        <ele>162.689</ele>
        <time>2021-05-26T10:38:52Z</time>
      </trkpt>
      <trkpt lat="41.694587" lon="2.576920">
        <ele>162.717</ele>
        <time>2021-05-26T10:38:53Z</time>
      </trkpt>
      <trkpt lat="41.694609" lon="2.576911">
        <ele>162.808</ele>
        <time>2021-05-26T10:38:54Z</time>
      </trkpt>
      <trkpt lat="41.694630" lon="2.576902">
        <ele>162.969</ele>
        <time>2021-05-26T10:38:55Z</time>
      </trkpt>
      <trkpt lat="41.694659" lon="2.576892">
        <ele>163.046</ele>
        <time>2021-05-26T10:38:56Z</time>
      </trkpt>
      <trkpt lat="41.694686" lon="2.576888">
        <ele>162.953</ele>
        <time>2021-05-26T10:38:57Z</time>
      </trkpt>
      <trkpt lat="41.694709" lon="2.576883">
        <ele>162.936</ele>
        <time>2021-05-26T10:38:58Z</time>
      </trkpt>
      <trkpt lat="41.694733" lon="2.576882">
        <ele>162.761</ele>
        <time>2021-05-26T10:38:59Z</time>
      </trkpt>
      <trkpt lat="41.694758" lon="2.576883">
        <ele>162.337</ele>
        <time>2021-05-26T10:39:00Z</time>
      </trkpt>
      <trkpt lat="41.694782" lon="2.576872">
        <ele>162.494</ele>
        <time>2021-05-26T10:39:01Z</time>
      </trkpt>
      <trkpt lat="41.694808" lon="2.576868">
        <ele>162.281</ele>
        <time>2021-05-26T10:39:02Z</time>
      </trkpt>
      <trkpt lat="41.694830" lon="2.576862">
        <ele>162.231</ele>
        <time>2021-05-26T10:39:03Z</time>
      </trkpt>
      <trkpt lat="41.694850" lon="2.576860">
        <ele>162.061</ele>
        <time>2021-05-26T10:39:04Z</time>
      </trkpt>
      <trkpt lat="41.694872" lon="2.576860">
        <ele>161.807</ele>
        <time>2021-05-26T10:39:05Z</time>
      </trkpt>
      <trkpt lat="41.694891" lon="2.576860">
        <ele>161.608</ele>
        <time>2021-05-26T10:39:06Z</time>
      </trkpt>
      <trkpt lat="41.694916" lon="2.576862">
        <ele>161.240</ele>
        <time>2021-05-26T10:39:07Z</time>
      </trkpt>
      <trkpt lat="41.694935" lon="2.576858">
        <ele>161.177</ele>
        <time>2021-05-26T10:39:08Z</time>
      </trkpt>
      <trkpt lat="41.694957" lon="2.576854">
        <ele>161.154</ele>
        <time>2021-05-26T10:39:09Z</time>
      </trkpt>
      <trkpt lat="41.694982" lon="2.576854">
        <ele>160.817</ele>
        <time>2021-05-26T10:39:10Z</time>
      </trkpt>
      <trkpt lat="41.695005" lon="2.576858">
        <ele>160.562</ele>
        <time>2021-05-26T10:39:11Z</time>
      </trkpt>
      <trkpt lat="41.695028" lon="2.576859">
        <ele>160.668</ele>
        <time>2021-05-26T10:39:12Z</time>
      </trkpt>
      <trkpt lat="41.695051" lon="2.576863">
        <ele>160.655</ele>
        <time>2021-05-26T10:39:13Z</time>
      </trkpt>
      <trkpt lat="41.695075" lon="2.576866">
        <ele>160.752</ele>
        <time>2021-05-26T10:39:14Z</time>
      </trkpt>
      <trkpt lat="41.695098" lon="2.576872">
        <ele>160.758</ele>
        <time>2021-05-26T10:39:15Z</time>
      </trkpt>
      <trkpt lat="41.695119" lon="2.576884">
        <ele>160.352</ele>
        <time>2021-05-26T10:39:16Z</time>
      </trkpt>
      <trkpt lat="41.695139" lon="2.576902">
        <ele>159.817</ele>
        <time>2021-05-26T10:39:17Z</time>
      </trkpt>
      <trkpt lat="41.695156" lon="2.576919">
        <ele>159.208</ele>
        <time>2021-05-26T10:39:18Z</time>
      </trkpt>
      <trkpt lat="41.695175" lon="2.576937">
        <ele>158.672</ele>
        <time>2021-05-26T10:39:19Z</time>
      </trkpt>
      <trkpt lat="41.695192" lon="2.576959">
        <ele>158.099</ele>
        <time>2021-05-26T10:39:20Z</time>
      </trkpt>
      <trkpt lat="41.695211" lon="2.576984">
        <ele>157.626</ele>
        <time>2021-05-26T10:39:21Z</time>
      </trkpt>
      <trkpt lat="41.695226" lon="2.577004">
        <ele>157.249</ele>
        <time>2021-05-26T10:39:22Z</time>
      </trkpt>
      <trkpt lat="41.695244" lon="2.577019">
        <ele>156.914</ele>
        <time>2021-05-26T10:39:23Z</time>
      </trkpt>
      <trkpt lat="41.695261" lon="2.577034">
        <ele>156.610</ele>
        <time>2021-05-26T10:39:24Z</time>
      </trkpt>
      <trkpt lat="41.695281" lon="2.577047">
        <ele>156.457</ele>
        <time>2021-05-26T10:39:25Z</time>
      </trkpt>
      <trkpt lat="41.695299" lon="2.577067">
        <ele>156.114</ele>
        <time>2021-05-26T10:39:26Z</time>
      </trkpt>
      <trkpt lat="41.695310" lon="2.577092">
        <ele>155.513</ele>
        <time>2021-05-26T10:39:27Z</time>
      </trkpt>
      <trkpt lat="41.695368" lon="2.577165">
        <ele>153.943</ele>
        <time>2021-05-26T10:39:30Z</time>
      </trkpt>
      <trkpt lat="41.695391" lon="2.577187">
        <ele>153.407</ele>
        <time>2021-05-26T10:39:31Z</time>
      </trkpt>
      <trkpt lat="41.695415" lon="2.577204">
        <ele>153.008</ele>
        <time>2021-05-26T10:39:32Z</time>
      </trkpt>
      <trkpt lat="41.695439" lon="2.577234">
        <ele>152.478</ele>
        <time>2021-05-26T10:39:33Z</time>
      </trkpt>
      <trkpt lat="41.695465" lon="2.577262">
        <ele>151.975</ele>
        <time>2021-05-26T10:39:34Z</time>
      </trkpt>
      <trkpt lat="41.695489" lon="2.577288">
        <ele>151.572</ele>
        <time>2021-05-26T10:39:35Z</time>
      </trkpt>
      <trkpt lat="41.695513" lon="2.577318">
        <ele>150.965</ele>
        <time>2021-05-26T10:39:36Z</time>
      </trkpt>
      <trkpt lat="41.695537" lon="2.577349">
        <ele>150.320</ele>
        <time>2021-05-26T10:39:37Z</time>
      </trkpt>
      <trkpt lat="41.695562" lon="2.577370">
        <ele>149.886</ele>
        <time>2021-05-26T10:39:38Z</time>
      </trkpt>
      <trkpt lat="41.695587" lon="2.577385">
        <ele>149.543</ele>
        <time>2021-05-26T10:39:39Z</time>
      </trkpt>
      <trkpt lat="41.695613" lon="2.577402">
        <ele>149.170</ele>
        <time>2021-05-26T10:39:40Z</time>
      </trkpt>
      <trkpt lat="41.695640" lon="2.577417">
        <ele>148.733</ele>
        <time>2021-05-26T10:39:41Z</time>
      </trkpt>
      <trkpt lat="41.695663" lon="2.577435">
        <ele>148.223</ele>
        <time>2021-05-26T10:39:42Z</time>
      </trkpt>
      <trkpt lat="41.695685" lon="2.577446">
        <ele>147.915</ele>
        <time>2021-05-26T10:39:43Z</time>
      </trkpt>
      <trkpt lat="41.695710" lon="2.577460">
        <ele>147.508</ele>
        <time>2021-05-26T10:39:44Z</time>
      </trkpt>
      <trkpt lat="41.695736" lon="2.577470">
        <ele>147.170</ele>
        <time>2021-05-26T10:39:45Z</time>
      </trkpt>
      <trkpt lat="41.695760" lon="2.577478">
        <ele>146.957</ele>
        <time>2021-05-26T10:39:46Z</time>
      </trkpt>
      <trkpt lat="41.695783" lon="2.577483">
        <ele>146.634</ele>
        <time>2021-05-26T10:39:47Z</time>
      </trkpt>
      <trkpt lat="41.695803" lon="2.577488">
        <ele>146.437</ele>
        <time>2021-05-26T10:39:48Z</time>
      </trkpt>
      <trkpt lat="41.695825" lon="2.577493">
        <ele>146.212</ele>
        <time>2021-05-26T10:39:49Z</time>
      </trkpt>
      <trkpt lat="41.695846" lon="2.577502">
        <ele>146.198</ele>
        <time>2021-05-26T10:39:50Z</time>
      </trkpt>
      <trkpt lat="41.695868" lon="2.577516">
        <ele>146.035</ele>
        <time>2021-05-26T10:39:51Z</time>
      </trkpt>
      <trkpt lat="41.695887" lon="2.577524">
        <ele>146.082</ele>
        <time>2021-05-26T10:39:52Z</time>
      </trkpt>
      <trkpt lat="41.695909" lon="2.577532">
        <ele>146.193</ele>
        <time>2021-05-26T10:39:53Z</time>
      </trkpt>
      <trkpt lat="41.695997" lon="2.577576">
        <ele>146.165</ele>
        <time>2021-05-26T10:39:57Z</time>
      </trkpt>
      <trkpt lat="41.696101" lon="2.577583">
        <ele>146.721</ele>
        <time>2021-05-26T10:40:01Z</time>
      </trkpt>
      <trkpt lat="41.696171" lon="2.577595">
        <ele>147.008</ele>
        <time>2021-05-26T10:40:04Z</time>
      </trkpt>
      <trkpt lat="41.696258" lon="2.577627">
        <ele>147.096</ele>
        <time>2021-05-26T10:40:08Z</time>
      </trkpt>
      <trkpt lat="41.696347" lon="2.577651">
        <ele>147.153</ele>
        <time>2021-05-26T10:40:12Z</time>
      </trkpt>
      <trkpt lat="41.696404" lon="2.577656">
        <ele>147.350</ele>
        <time>2021-05-26T10:40:14Z</time>
      </trkpt>
      <trkpt lat="41.696431" lon="2.577659">
        <ele>147.553</ele>
        <time>2021-05-26T10:40:15Z</time>
      </trkpt>
      <trkpt lat="41.696453" lon="2.577666">
        <ele>147.668</ele>
        <time>2021-05-26T10:40:16Z</time>
      </trkpt>
      <trkpt lat="41.696479" lon="2.577675">
        <ele>147.764</ele>
        <time>2021-05-26T10:40:17Z</time>
      </trkpt>
      <trkpt lat="41.696503" lon="2.577687">
        <ele>147.781</ele>
        <time>2021-05-26T10:40:18Z</time>
      </trkpt>
      <trkpt lat="41.696521" lon="2.577701">
        <ele>147.768</ele>
        <time>2021-05-26T10:40:19Z</time>
      </trkpt>
      <trkpt lat="41.696542" lon="2.577713">
        <ele>147.764</ele>
        <time>2021-05-26T10:40:20Z</time>
      </trkpt>
      <trkpt lat="41.696562" lon="2.577726">
        <ele>147.706</ele>
        <time>2021-05-26T10:40:21Z</time>
      </trkpt>
      <trkpt lat="41.696583" lon="2.577744">
        <ele>147.616</ele>
        <time>2021-05-26T10:40:22Z</time>
      </trkpt>
      <trkpt lat="41.696603" lon="2.577767">
        <ele>147.508</ele>
        <time>2021-05-26T10:40:23Z</time>
      </trkpt>
      <trkpt lat="41.696626" lon="2.577785">
        <ele>147.533</ele>
        <time>2021-05-26T10:40:24Z</time>
      </trkpt>
      <trkpt lat="41.696648" lon="2.577808">
        <ele>147.550</ele>
        <time>2021-05-26T10:40:25Z</time>
      </trkpt>
      <trkpt lat="41.696667" lon="2.577828">
        <ele>147.567</ele>
        <time>2021-05-26T10:40:26Z</time>
      </trkpt>
      <trkpt lat="41.696686" lon="2.577845">
        <ele>147.440</ele>
        <time>2021-05-26T10:40:27Z</time>
      </trkpt>
      <trkpt lat="41.696707" lon="2.577865">
        <ele>147.375</ele>
        <time>2021-05-26T10:40:28Z</time>
      </trkpt>
      <trkpt lat="41.696730" lon="2.577882">
        <ele>147.391</ele>
        <time>2021-05-26T10:40:29Z</time>
      </trkpt>
      <trkpt lat="41.696749" lon="2.577897">
        <ele>147.368</ele>
        <time>2021-05-26T10:40:30Z</time>
      </trkpt>
      <trkpt lat="41.696767" lon="2.577913">
        <ele>147.325</ele>
        <time>2021-05-26T10:40:31Z</time>
      </trkpt>
      <trkpt lat="41.696783" lon="2.577933">
        <ele>147.219</ele>
        <time>2021-05-26T10:40:32Z</time>
      </trkpt>
      <trkpt lat="41.696807" lon="2.577953">
        <ele>147.109</ele>
        <time>2021-05-26T10:40:33Z</time>
      </trkpt>
      <trkpt lat="41.696823" lon="2.577974">
        <ele>147.019</ele>
        <time>2021-05-26T10:40:34Z</time>
      </trkpt>
      <trkpt lat="41.696844" lon="2.577997">
        <ele>146.908</ele>
        <time>2021-05-26T10:40:35Z</time>
      </trkpt>
      <trkpt lat="41.696865" lon="2.578016">
        <ele>146.928</ele>
        <time>2021-05-26T10:40:36Z</time>
      </trkpt>
      <trkpt lat="41.696885" lon="2.578031">
        <ele>146.845</ele>
        <time>2021-05-26T10:40:37Z</time>
      </trkpt>
      <trkpt lat="41.696902" lon="2.578048">
        <ele>146.852</ele>
        <time>2021-05-26T10:40:38Z</time>
      </trkpt>
      <trkpt lat="41.696925" lon="2.578061">
        <ele>146.845</ele>
        <time>2021-05-26T10:40:39Z</time>
      </trkpt>
      <trkpt lat="41.696951" lon="2.578075">
        <ele>146.950</ele>
        <time>2021-05-26T10:40:40Z</time>
      </trkpt>
      <trkpt lat="41.696969" lon="2.578093">
        <ele>146.986</ele>
        <time>2021-05-26T10:40:41Z</time>
      </trkpt>
      <trkpt lat="41.696987" lon="2.578109">
        <ele>147.043</ele>
        <time>2021-05-26T10:40:42Z</time>
      </trkpt>
      <trkpt lat="41.697003" lon="2.578131">
        <ele>146.960</ele>
        <time>2021-05-26T10:40:43Z</time>
      </trkpt>
      <trkpt lat="41.697026" lon="2.578148">
        <ele>147.091</ele>
        <time>2021-05-26T10:40:44Z</time>
      </trkpt>
      <trkpt lat="41.697049" lon="2.578162">
        <ele>147.181</ele>
        <time>2021-05-26T10:40:45Z</time>
      </trkpt>
      <trkpt lat="41.697072" lon="2.578174">
        <ele>147.319</ele>
        <time>2021-05-26T10:40:46Z</time>
      </trkpt>
      <trkpt lat="41.697095" lon="2.578189">
        <ele>147.408</ele>
        <time>2021-05-26T10:40:47Z</time>
      </trkpt>
      <trkpt lat="41.697118" lon="2.578202">
        <ele>147.516</ele>
        <time>2021-05-26T10:40:48Z</time>
      </trkpt>
      <trkpt lat="41.697140" lon="2.578220">
        <ele>147.633</ele>
        <time>2021-05-26T10:40:49Z</time>
      </trkpt>
      <trkpt lat="41.697160" lon="2.578236">
        <ele>147.830</ele>
        <time>2021-05-26T10:40:50Z</time>
      </trkpt>
      <trkpt lat="41.697189" lon="2.578275">
        <ele>147.913</ele>
        <time>2021-05-26T10:40:52Z</time>
      </trkpt>
      <trkpt lat="41.697209" lon="2.578296">
        <ele>148.028</ele>
        <time>2021-05-26T10:40:53Z</time>
      </trkpt>
      <trkpt lat="41.697226" lon="2.578312">
        <ele>148.194</ele>
        <time>2021-05-26T10:40:54Z</time>
      </trkpt>
      <trkpt lat="41.697252" lon="2.578329">
        <ele>148.271</ele>
        <time>2021-05-26T10:40:55Z</time>
      </trkpt>
      <trkpt lat="41.697272" lon="2.578343">
        <ele>148.318</ele>
        <time>2021-05-26T10:40:56Z</time>
      </trkpt>
      <trkpt lat="41.697293" lon="2.578362">
        <ele>148.275</ele>
        <time>2021-05-26T10:40:57Z</time>
      </trkpt>
      <trkpt lat="41.697307" lon="2.578381">
        <ele>148.128</ele>
        <time>2021-05-26T10:40:58Z</time>
      </trkpt>
      <trkpt lat="41.697333" lon="2.578388">
        <ele>148.220</ele>
        <time>2021-05-26T10:40:59Z</time>
      </trkpt>
      <trkpt lat="41.697350" lon="2.578398">
        <ele>148.208</ele>
        <time>2021-05-26T10:41:00Z</time>
      </trkpt>
      <trkpt lat="41.697373" lon="2.578409">
        <ele>148.354</ele>
        <time>2021-05-26T10:41:01Z</time>
      </trkpt>
      <trkpt lat="41.697397" lon="2.578420">
        <ele>148.361</ele>
        <time>2021-05-26T10:41:02Z</time>
      </trkpt>
      <trkpt lat="41.697426" lon="2.578429">
        <ele>148.478</ele>
        <time>2021-05-26T10:41:03Z</time>
      </trkpt>
      <trkpt lat="41.697450" lon="2.578438">
        <ele>148.561</ele>
        <time>2021-05-26T10:41:04Z</time>
      </trkpt>
      <trkpt lat="41.697491" lon="2.578465">
        <ele>148.586</ele>
        <time>2021-05-26T10:41:06Z</time>
      </trkpt>
      <trkpt lat="41.697574" lon="2.578515">
        <ele>149.062</ele>
        <time>2021-05-26T10:41:09Z</time>
      </trkpt>
      <trkpt lat="41.697617" lon="2.578561">
        <ele>149.279</ele>
        <time>2021-05-26T10:41:11Z</time>
      </trkpt>
      <trkpt lat="41.697658" lon="2.578610">
        <ele>149.336</ele>
        <time>2021-05-26T10:41:13Z</time>
      </trkpt>
      <trkpt lat="41.697677" lon="2.578630">
        <ele>149.595</ele>
        <time>2021-05-26T10:41:14Z</time>
      </trkpt>
      <trkpt lat="41.697695" lon="2.578656">
        <ele>149.649</ele>
        <time>2021-05-26T10:41:15Z</time>
      </trkpt>
      <trkpt lat="41.697713" lon="2.578679">
        <ele>149.823</ele>
        <time>2021-05-26T10:41:16Z</time>
      </trkpt>
      <trkpt lat="41.697730" lon="2.578702">
        <ele>150.008</ele>
        <time>2021-05-26T10:41:17Z</time>
      </trkpt>
      <trkpt lat="41.697743" lon="2.578725">
        <ele>150.156</ele>
        <time>2021-05-26T10:41:18Z</time>
      </trkpt>
      <trkpt lat="41.697756" lon="2.578750">
        <ele>150.293</ele>
        <time>2021-05-26T10:41:19Z</time>
      </trkpt>
      <trkpt lat="41.697770" lon="2.578773">
        <ele>150.370</ele>
        <time>2021-05-26T10:41:20Z</time>
      </trkpt>
      <trkpt lat="41.697785" lon="2.578797">
        <ele>150.513</ele>
        <time>2021-05-26T10:41:21Z</time>
      </trkpt>
      <trkpt lat="41.697801" lon="2.578820">
        <ele>150.758</ele>
        <time>2021-05-26T10:41:22Z</time>
      </trkpt>
      <trkpt lat="41.697814" lon="2.578848">
        <ele>150.854</ele>
        <time>2021-05-26T10:41:23Z</time>
      </trkpt>
      <trkpt lat="41.697823" lon="2.578879">
        <ele>150.961</ele>
        <time>2021-05-26T10:41:24Z</time>
      </trkpt>
      <trkpt lat="41.697828" lon="2.578906">
        <ele>150.898</ele>
        <time>2021-05-26T10:41:25Z</time>
      </trkpt>
      <trkpt lat="41.697835" lon="2.578934">
        <ele>150.773</ele>
        <time>2021-05-26T10:41:26Z</time>
      </trkpt>
      <trkpt lat="41.697840" lon="2.578963">
        <ele>150.585</ele>
        <time>2021-05-26T10:41:27Z</time>
      </trkpt>
      <trkpt lat="41.697846" lon="2.578991">
        <ele>150.413</ele>
        <time>2021-05-26T10:41:28Z</time>
      </trkpt>
      <trkpt lat="41.697852" lon="2.579021">
        <ele>150.308</ele>
        <time>2021-05-26T10:41:29Z</time>
      </trkpt>
      <trkpt lat="41.697856" lon="2.579052">
        <ele>150.144</ele>
        <time>2021-05-26T10:41:30Z</time>
      </trkpt>
      <trkpt lat="41.697858" lon="2.579086">
        <ele>149.811</ele>
        <time>2021-05-26T10:41:31Z</time>
      </trkpt>
      <trkpt lat="41.697855" lon="2.579119">
        <ele>149.598</ele>
        <time>2021-05-26T10:41:32Z</time>
      </trkpt>
      <trkpt lat="41.697854" lon="2.579180">
        <ele>149.011</ele>
        <time>2021-05-26T10:41:34Z</time>
      </trkpt>
      <trkpt lat="41.697852" lon="2.579303">
        <ele>148.086</ele>
        <time>2021-05-26T10:41:38Z</time>
      </trkpt>
      <trkpt lat="41.697848" lon="2.579338">
        <ele>147.672</ele>
        <time>2021-05-26T10:41:39Z</time>
      </trkpt>
      <trkpt lat="41.697847" lon="2.579370">
        <ele>147.359</ele>
        <time>2021-05-26T10:41:40Z</time>
      </trkpt>
      <trkpt lat="41.697847" lon="2.579399">
        <ele>147.126</ele>
        <time>2021-05-26T10:41:41Z</time>
      </trkpt>
      <trkpt lat="41.697852" lon="2.579426">
        <ele>147.015</ele>
        <time>2021-05-26T10:41:42Z</time>
      </trkpt>
      <trkpt lat="41.697858" lon="2.579453">
        <ele>146.865</ele>
        <time>2021-05-26T10:41:43Z</time>
      </trkpt>
      <trkpt lat="41.697860" lon="2.579483">
        <ele>146.711</ele>
        <time>2021-05-26T10:41:44Z</time>
      </trkpt>
      <trkpt lat="41.697868" lon="2.579541">
        <ele>146.608</ele>
        <time>2021-05-26T10:41:46Z</time>
      </trkpt>
      <trkpt lat="41.697873" lon="2.579571">
        <ele>146.618</ele>
        <time>2021-05-26T10:41:47Z</time>
      </trkpt>
      <trkpt lat="41.697878" lon="2.579602">
        <ele>146.575</ele>
        <time>2021-05-26T10:41:48Z</time>
      </trkpt>
      <trkpt lat="41.697888" lon="2.579633">
        <ele>146.572</ele>
        <time>2021-05-26T10:41:49Z</time>
      </trkpt>
      <trkpt lat="41.697903" lon="2.579662">
        <ele>146.635</ele>
        <time>2021-05-26T10:41:50Z</time>
      </trkpt>
      <trkpt lat="41.697921" lon="2.579680">
        <ele>146.760</ele>
        <time>2021-05-26T10:41:51Z</time>
      </trkpt>
      <trkpt lat="41.697948" lon="2.579681">
        <ele>147.046</ele>
        <time>2021-05-26T10:41:52Z</time>
      </trkpt>
      <trkpt lat="41.697972" lon="2.579673">
        <ele>147.333</ele>
        <time>2021-05-26T10:41:53Z</time>
      </trkpt>
      <trkpt lat="41.697996" lon="2.579655">
        <ele>147.670</ele>
        <time>2021-05-26T10:41:54Z</time>
      </trkpt>
      <trkpt lat="41.698018" lon="2.579633">
        <ele>147.933</ele>
        <time>2021-05-26T10:41:55Z</time>
      </trkpt>
      <trkpt lat="41.698038" lon="2.579612">
        <ele>148.223</ele>
        <time>2021-05-26T10:41:56Z</time>
      </trkpt>
      <trkpt lat="41.698060" lon="2.579587">
        <ele>148.515</ele>
        <time>2021-05-26T10:41:57Z</time>
      </trkpt>
      <trkpt lat="41.698076" lon="2.579559">
        <ele>148.508</ele>
        <time>2021-05-26T10:41:58Z</time>
      </trkpt>
      <trkpt lat="41.698093" lon="2.579532">
        <ele>148.580</ele>
        <time>2021-05-26T10:41:59Z</time>
      </trkpt>
      <trkpt lat="41.698103" lon="2.579503">
        <ele>148.577</ele>
        <time>2021-05-26T10:42:00Z</time>
      </trkpt>
      <trkpt lat="41.698115" lon="2.579473">
        <ele>148.624</ele>
        <time>2021-05-26T10:42:01Z</time>
      </trkpt>
      <trkpt lat="41.698125" lon="2.579443">
        <ele>148.867</ele>
        <time>2021-05-26T10:42:02Z</time>
      </trkpt>
      <trkpt lat="41.698135" lon="2.579416">
        <ele>149.012</ele>
        <time>2021-05-26T10:42:03Z</time>
      </trkpt>
      <trkpt lat="41.698147" lon="2.579388">
        <ele>149.338</ele>
        <time>2021-05-26T10:42:04Z</time>
      </trkpt>
      <trkpt lat="41.698158" lon="2.579362">
        <ele>149.595</ele>
        <time>2021-05-26T10:42:05Z</time>
      </trkpt>
      <trkpt lat="41.698174" lon="2.579338">
        <ele>149.772</ele>
        <time>2021-05-26T10:42:06Z</time>
      </trkpt>
      <trkpt lat="41.698188" lon="2.579313">
        <ele>149.996</ele>
        <time>2021-05-26T10:42:07Z</time>
      </trkpt>
      <trkpt lat="41.698200" lon="2.579287">
        <ele>150.231</ele>
        <time>2021-05-26T10:42:08Z</time>
      </trkpt>
      <trkpt lat="41.698220" lon="2.579262">
        <ele>150.424</ele>
        <time>2021-05-26T10:42:09Z</time>
      </trkpt>
      <trkpt lat="41.698244" lon="2.579240">
        <ele>150.508</ele>
        <time>2021-05-26T10:42:10Z</time>
      </trkpt>
      <trkpt lat="41.698263" lon="2.579218">
        <ele>150.736</ele>
        <time>2021-05-26T10:42:11Z</time>
      </trkpt>
      <trkpt lat="41.698283" lon="2.579199">
        <ele>150.863</ele>
        <time>2021-05-26T10:42:12Z</time>
      </trkpt>
      <trkpt lat="41.698299" lon="2.579181">
        <ele>151.090</ele>
        <time>2021-05-26T10:42:13Z</time>
      </trkpt>
      <trkpt lat="41.698319" lon="2.579165">
        <ele>151.133</ele>
        <time>2021-05-26T10:42:14Z</time>
      </trkpt>
      <trkpt lat="41.698342" lon="2.579151">
        <ele>151.198</ele>
        <time>2021-05-26T10:42:15Z</time>
      </trkpt>
      <trkpt lat="41.698362" lon="2.579139">
        <ele>150.944</ele>
        <time>2021-05-26T10:42:16Z</time>
      </trkpt>
      <trkpt lat="41.698388" lon="2.579131">
        <ele>150.531</ele>
        <time>2021-05-26T10:42:17Z</time>
      </trkpt>
      <trkpt lat="41.698413" lon="2.579122">
        <ele>150.278</ele>
        <time>2021-05-26T10:42:18Z</time>
      </trkpt>
      <trkpt lat="41.698437" lon="2.579112">
        <ele>149.984</ele>
        <time>2021-05-26T10:42:19Z</time>
      </trkpt>
      <trkpt lat="41.698461" lon="2.579101">
        <ele>149.607</ele>
        <time>2021-05-26T10:42:20Z</time>
      </trkpt>
      <trkpt lat="41.698487" lon="2.579093">
        <ele>149.317</ele>
        <time>2021-05-26T10:42:21Z</time>
      </trkpt>
      <trkpt lat="41.698515" lon="2.579084">
        <ele>149.008</ele>
        <time>2021-05-26T10:42:22Z</time>
      </trkpt>
      <trkpt lat="41.698536" lon="2.579077">
        <ele>148.755</ele>
        <time>2021-05-26T10:42:23Z</time>
      </trkpt>
      <trkpt lat="41.698561" lon="2.579073">
        <ele>148.372</ele>
        <time>2021-05-26T10:42:24Z</time>
      </trkpt>
      <trkpt lat="41.698675" lon="2.579067">
        <ele>146.489</ele>
        <time>2021-05-26T10:42:28Z</time>
      </trkpt>
      <trkpt lat="41.698701" lon="2.579061">
        <ele>146.192</ele>
        <time>2021-05-26T10:42:29Z</time>
      </trkpt>
      <trkpt lat="41.698728" lon="2.579056">
        <ele>145.877</ele>
        <time>2021-05-26T10:42:30Z</time>
      </trkpt>
      <trkpt lat="41.698763" lon="2.579047">
        <ele>145.483</ele>
        <time>2021-05-26T10:42:31Z</time>
      </trkpt>
      <trkpt lat="41.698796" lon="2.579038">
        <ele>145.020</ele>
        <time>2021-05-26T10:42:32Z</time>
      </trkpt>
      <trkpt lat="41.698824" lon="2.579030">
        <ele>144.657</ele>
        <time>2021-05-26T10:42:33Z</time>
      </trkpt>
      <trkpt lat="41.698847" lon="2.579016">
        <ele>144.524</ele>
        <time>2021-05-26T10:42:34Z</time>
      </trkpt>
      <trkpt lat="41.698873" lon="2.578997">
        <ele>144.404</ele>
        <time>2021-05-26T10:42:35Z</time>
      </trkpt>
      <trkpt lat="41.698895" lon="2.578973">
        <ele>144.414</ele>
        <time>2021-05-26T10:42:36Z</time>
      </trkpt>
      <trkpt lat="41.698914" lon="2.578944">
        <ele>144.608</ele>
        <time>2021-05-26T10:42:37Z</time>
      </trkpt>
      <trkpt lat="41.698929" lon="2.578913">
        <ele>145.049</ele>
        <time>2021-05-26T10:42:38Z</time>
      </trkpt>
      <trkpt lat="41.698938" lon="2.578882">
        <ele>145.456</ele>
        <time>2021-05-26T10:42:39Z</time>
      </trkpt>
      <trkpt lat="41.698947" lon="2.578851">
        <ele>146.013</ele>
        <time>2021-05-26T10:42:40Z</time>
      </trkpt>
      <trkpt lat="41.698953" lon="2.578815">
        <ele>146.856</ele>
        <time>2021-05-26T10:42:41Z</time>
      </trkpt>
      <trkpt lat="41.698954" lon="2.578781">
        <ele>147.671</ele>
        <time>2021-05-26T10:42:42Z</time>
      </trkpt>
      <trkpt lat="41.698951" lon="2.578744">
        <ele>148.547</ele>
        <time>2021-05-26T10:42:43Z</time>
      </trkpt>
      <trkpt lat="41.698942" lon="2.578604">
        <ele>151.894</ele>
        <time>2021-05-26T10:42:47Z</time>
      </trkpt>
      <trkpt lat="41.698948" lon="2.578468">
        <ele>154.381</ele>
        <time>2021-05-26T10:42:51Z</time>
      </trkpt>
      <trkpt lat="41.698994" lon="2.578390">
        <ele>155.579</ele>
        <time>2021-05-26T10:42:55Z</time>
      </trkpt>
      <trkpt lat="41.699011" lon="2.578404">
        <ele>155.205</ele>
        <time>2021-05-26T10:42:56Z</time>
      </trkpt>
      <trkpt lat="41.699032" lon="2.578443">
        <ele>154.325</ele>
        <time>2021-05-26T10:42:58Z</time>
      </trkpt>
      <trkpt lat="41.699039" lon="2.578472">
        <ele>153.708</ele>
        <time>2021-05-26T10:42:59Z</time>
      </trkpt>
      <trkpt lat="41.699043" lon="2.578501">
        <ele>153.154</ele>
        <time>2021-05-26T10:43:00Z</time>
      </trkpt>
      <trkpt lat="41.699048" lon="2.578531">
        <ele>152.561</ele>
        <time>2021-05-26T10:43:01Z</time>
      </trkpt>
      <trkpt lat="41.699052" lon="2.578560">
        <ele>151.918</ele>
        <time>2021-05-26T10:43:02Z</time>
      </trkpt>
      <trkpt lat="41.699060" lon="2.578588">
        <ele>151.281</ele>
        <time>2021-05-26T10:43:03Z</time>
      </trkpt>
      <trkpt lat="41.699070" lon="2.578619">
        <ele>150.566</ele>
        <time>2021-05-26T10:43:04Z</time>
      </trkpt>
      <trkpt lat="41.699077" lon="2.578649">
        <ele>149.622</ele>
        <time>2021-05-26T10:43:05Z</time>
      </trkpt>
      <trkpt lat="41.699084" lon="2.578682">
        <ele>148.759</ele>
        <time>2021-05-26T10:43:06Z</time>
      </trkpt>
      <trkpt lat="41.699097" lon="2.578710">
        <ele>147.866</ele>
        <time>2021-05-26T10:43:07Z</time>
      </trkpt>
      <trkpt lat="41.699135" lon="2.578826">
        <ele>144.288</ele>
        <time>2021-05-26T10:43:11Z</time>
      </trkpt>
      <trkpt lat="41.699155" lon="2.578892">
        <ele>142.124</ele>
        <time>2021-05-26T10:43:13Z</time>
      </trkpt>
      <trkpt lat="41.699199" lon="2.578986">
        <ele>140.426</ele>
        <time>2021-05-26T10:43:16Z</time>
      </trkpt>
      <trkpt lat="41.699209" lon="2.579018">
        <ele>139.808</ele>
        <time>2021-05-26T10:43:17Z</time>
      </trkpt>
      <trkpt lat="41.699221" lon="2.579049">
        <ele>139.325</ele>
        <time>2021-05-26T10:43:18Z</time>
      </trkpt>
      <trkpt lat="41.699236" lon="2.579080">
        <ele>138.692</ele>
        <time>2021-05-26T10:43:19Z</time>
      </trkpt>
      <trkpt lat="41.699253" lon="2.579106">
        <ele>138.179</ele>
        <time>2021-05-26T10:43:20Z</time>
      </trkpt>
      <trkpt lat="41.699269" lon="2.579128">
        <ele>137.532</ele>
        <time>2021-05-26T10:43:21Z</time>
      </trkpt>
      <trkpt lat="41.699342" lon="2.579180">
        <ele>136.357</ele>
        <time>2021-05-26T10:43:24Z</time>
      </trkpt>
      <trkpt lat="41.699366" lon="2.579198">
        <ele>136.243</ele>
        <time>2021-05-26T10:43:25Z</time>
      </trkpt>
      <trkpt lat="41.699412" lon="2.579217">
        <ele>135.960</ele>
        <time>2021-05-26T10:43:27Z</time>
      </trkpt>
      <trkpt lat="41.699430" lon="2.579222">
        <ele>135.947</ele>
        <time>2021-05-26T10:43:28Z</time>
      </trkpt>
      <trkpt lat="41.699452" lon="2.579224">
        <ele>136.032</ele>
        <time>2021-05-26T10:43:29Z</time>
      </trkpt>
      <trkpt lat="41.699558" lon="2.579269">
        <ele>137.792</ele>
        <time>2021-05-26T10:43:33Z</time>
      </trkpt>
      <trkpt lat="41.699657" lon="2.579333">
        <ele>138.511</ele>
        <time>2021-05-26T10:43:37Z</time>
      </trkpt>
      <trkpt lat="41.699748" lon="2.579396">
        <ele>138.808</ele>
        <time>2021-05-26T10:43:41Z</time>
      </trkpt>
      <trkpt lat="41.699827" lon="2.579501">
        <ele>139.050</ele>
        <time>2021-05-26T10:43:45Z</time>
      </trkpt>
      <trkpt lat="41.699844" lon="2.579529">
        <ele>138.987</ele>
        <time>2021-05-26T10:43:46Z</time>
      </trkpt>
      <trkpt lat="41.699861" lon="2.579556">
        <ele>138.894</ele>
        <time>2021-05-26T10:43:47Z</time>
      </trkpt>
      <trkpt lat="41.699877" lon="2.579578">
        <ele>138.797</ele>
        <time>2021-05-26T10:43:48Z</time>
      </trkpt>
      <trkpt lat="41.699889" lon="2.579605">
        <ele>138.312</ele>
        <time>2021-05-26T10:43:49Z</time>
      </trkpt>
      <trkpt lat="41.699906" lon="2.579630">
        <ele>138.188</ele>
        <time>2021-05-26T10:43:50Z</time>
      </trkpt>
      <trkpt lat="41.699920" lon="2.579658">
        <ele>137.715</ele>
        <time>2021-05-26T10:43:51Z</time>
      </trkpt>
      <trkpt lat="41.699937" lon="2.579685">
        <ele>137.222</ele>
        <time>2021-05-26T10:43:52Z</time>
      </trkpt>
      <trkpt lat="41.699954" lon="2.579710">
        <ele>136.833</ele>
        <time>2021-05-26T10:43:53Z</time>
      </trkpt>
      <trkpt lat="41.699970" lon="2.579733">
        <ele>136.523</ele>
        <time>2021-05-26T10:43:54Z</time>
      </trkpt>
      <trkpt lat="41.699988" lon="2.579754">
        <ele>136.215</ele>
        <time>2021-05-26T10:43:55Z</time>
      </trkpt>
      <trkpt lat="41.700005" lon="2.579773">
        <ele>136.008</ele>
        <time>2021-05-26T10:43:56Z</time>
      </trkpt>
      <trkpt lat="41.700023" lon="2.579793">
        <ele>135.820</ele>
        <time>2021-05-26T10:43:57Z</time>
      </trkpt>
      <trkpt lat="41.700040" lon="2.579812">
        <ele>135.637</ele>
        <time>2021-05-26T10:43:58Z</time>
      </trkpt>
      <trkpt lat="41.700059" lon="2.579825">
        <ele>135.694</ele>
        <time>2021-05-26T10:43:59Z</time>
      </trkpt>
      <trkpt lat="41.700079" lon="2.579836">
        <ele>135.687</ele>
        <time>2021-05-26T10:44:00Z</time>
      </trkpt>
      <trkpt lat="41.700101" lon="2.579848">
        <ele>135.612</ele>
        <time>2021-05-26T10:44:01Z</time>
      </trkpt>
      <trkpt lat="41.700123" lon="2.579859">
        <ele>135.618</ele>
        <time>2021-05-26T10:44:02Z</time>
      </trkpt>
      <trkpt lat="41.700143" lon="2.579867">
        <ele>135.685</ele>
        <time>2021-05-26T10:44:03Z</time>
      </trkpt>
      <trkpt lat="41.700164" lon="2.579883">
        <ele>135.552</ele>
        <time>2021-05-26T10:44:04Z</time>
      </trkpt>
      <trkpt lat="41.700234" lon="2.579926">
        <ele>135.012</ele>
        <time>2021-05-26T10:44:07Z</time>
      </trkpt>
      <trkpt lat="41.700260" lon="2.579943">
        <ele>134.732</ele>
        <time>2021-05-26T10:44:08Z</time>
      </trkpt>
      <trkpt lat="41.700286" lon="2.579959">
        <ele>134.405</ele>
        <time>2021-05-26T10:44:09Z</time>
      </trkpt>
      <trkpt lat="41.700309" lon="2.579971">
        <ele>134.408</ele>
        <time>2021-05-26T10:44:10Z</time>
      </trkpt>
      <trkpt lat="41.700336" lon="2.579985">
        <ele>134.318</ele>
        <time>2021-05-26T10:44:11Z</time>
      </trkpt>
      <trkpt lat="41.700382" lon="2.580017">
        <ele>134.455</ele>
        <time>2021-05-26T10:44:13Z</time>
      </trkpt>
      <trkpt lat="41.700460" lon="2.580048">
        <ele>135.332</ele>
        <time>2021-05-26T10:44:17Z</time>
      </trkpt>
      <trkpt lat="41.700486" lon="2.580053">
        <ele>135.635</ele>
        <time>2021-05-26T10:44:18Z</time>
      </trkpt>
      <trkpt lat="41.700513" lon="2.580056">
        <ele>136.070</ele>
        <time>2021-05-26T10:44:19Z</time>
      </trkpt>
      <trkpt lat="41.700540" lon="2.580056">
        <ele>136.466</ele>
        <time>2021-05-26T10:44:20Z</time>
      </trkpt>
      <trkpt lat="41.700569" lon="2.580049">
        <ele>136.833</ele>
        <time>2021-05-26T10:44:21Z</time>
      </trkpt>
      <trkpt lat="41.700604" lon="2.580042">
        <ele>137.130</ele>
        <time>2021-05-26T10:44:22Z</time>
      </trkpt>
      <trkpt lat="41.700639" lon="2.580035">
        <ele>137.594</ele>
        <time>2021-05-26T10:44:23Z</time>
      </trkpt>
      <trkpt lat="41.700667" lon="2.580029">
        <ele>137.957</ele>
        <time>2021-05-26T10:44:24Z</time>
      </trkpt>
      <trkpt lat="41.700694" lon="2.580021">
        <ele>138.222</ele>
        <time>2021-05-26T10:44:25Z</time>
      </trkpt>
      <trkpt lat="41.700713" lon="2.580012">
        <ele>138.508</ele>
        <time>2021-05-26T10:44:26Z</time>
      </trkpt>
      <trkpt lat="41.700747" lon="2.579993">
        <ele>139.366</ele>
        <time>2021-05-26T10:44:28Z</time>
      </trkpt>
      <trkpt lat="41.700766" lon="2.579986">
        <ele>139.713</ele>
        <time>2021-05-26T10:44:29Z</time>
      </trkpt>
      <trkpt lat="41.700787" lon="2.579976">
        <ele>140.150</ele>
        <time>2021-05-26T10:44:30Z</time>
      </trkpt>
      <trkpt lat="41.700805" lon="2.579967">
        <ele>140.623</ele>
        <time>2021-05-26T10:44:31Z</time>
      </trkpt>
      <trkpt lat="41.700903" lon="2.579931">
        <ele>141.288</ele>
        <time>2021-05-26T10:44:35Z</time>
      </trkpt>
      <trkpt lat="41.700991" lon="2.579869">
        <ele>141.954</ele>
        <time>2021-05-26T10:44:39Z</time>
      </trkpt>
      <trkpt lat="41.701087" lon="2.579804">
        <ele>142.511</ele>
        <time>2021-05-26T10:44:43Z</time>
      </trkpt>
      <trkpt lat="41.701179" lon="2.579750">
        <ele>143.188</ele>
        <time>2021-05-26T10:44:47Z</time>
      </trkpt>
      <trkpt lat="41.701278" lon="2.579702">
        <ele>143.995</ele>
        <time>2021-05-26T10:44:51Z</time>
      </trkpt>
      <trkpt lat="41.701381" lon="2.579658">
        <ele>144.449</ele>
        <time>2021-05-26T10:44:55Z</time>
      </trkpt>
      <trkpt lat="41.701491" lon="2.579633">
        <ele>144.423</ele>
        <time>2021-05-26T10:45:00Z</time>
      </trkpt>
      <trkpt lat="41.701577" lon="2.579597">
        <ele>145.008</ele>
        <time>2021-05-26T10:45:04Z</time>
      </trkpt>
      <trkpt lat="41.701662" lon="2.579540">
        <ele>146.356</ele>
        <time>2021-05-26T10:45:08Z</time>
      </trkpt>
      <trkpt lat="41.701748" lon="2.579498">
        <ele>146.053</ele>
        <time>2021-05-26T10:45:12Z</time>
      </trkpt>
      <trkpt lat="41.701852" lon="2.579481">
        <ele>144.670</ele>
        <time>2021-05-26T10:45:17Z</time>
      </trkpt>
      <trkpt lat="41.701958" lon="2.579451">
        <ele>143.533</ele>
        <time>2021-05-26T10:45:22Z</time>
      </trkpt>
      <trkpt lat="41.702070" lon="2.579459">
        <ele>140.528</ele>
        <time>2021-05-26T10:45:27Z</time>
      </trkpt>
      <trkpt lat="41.702166" lon="2.579440">
        <ele>138.544</ele>
        <time>2021-05-26T10:45:31Z</time>
      </trkpt>
      <trkpt lat="41.702274" lon="2.579433">
        <ele>136.791</ele>
        <time>2021-05-26T10:45:36Z</time>
      </trkpt>
      <trkpt lat="41.702374" lon="2.579416">
        <ele>136.118</ele>
        <time>2021-05-26T10:45:39Z</time>
      </trkpt>
      <trkpt lat="41.702484" lon="2.579412">
        <ele>135.045</ele>
        <time>2021-05-26T10:45:42Z</time>
      </trkpt>
      <trkpt lat="41.702598" lon="2.579426">
        <ele>134.047</ele>
        <time>2021-05-26T10:45:46Z</time>
      </trkpt>
      <trkpt lat="41.702699" lon="2.579442">
        <ele>133.311</ele>
        <time>2021-05-26T10:45:50Z</time>
      </trkpt>
      <trkpt lat="41.702808" lon="2.579454">
        <ele>133.208</ele>
        <time>2021-05-26T10:45:54Z</time>
      </trkpt>
      <trkpt lat="41.702912" lon="2.579472">
        <ele>133.851</ele>
        <time>2021-05-26T10:45:59Z</time>
      </trkpt>
      <trkpt lat="41.703013" lon="2.579493">
        <ele>134.438</ele>
        <time>2021-05-26T10:46:03Z</time>
      </trkpt>
      <trkpt lat="41.703100" lon="2.579556">
        <ele>134.565</ele>
        <time>2021-05-26T10:46:07Z</time>
      </trkpt>
      <trkpt lat="41.703182" lon="2.579614">
        <ele>134.638</ele>
        <time>2021-05-26T10:46:11Z</time>
      </trkpt>
      <trkpt lat="41.703273" lon="2.579678">
        <ele>134.393</ele>
        <time>2021-05-26T10:46:16Z</time>
      </trkpt>
      <trkpt lat="41.703360" lon="2.579721">
        <ele>134.069</ele>
        <time>2021-05-26T10:46:20Z</time>
      </trkpt>
      <trkpt lat="41.703454" lon="2.579775">
        <ele>133.136</ele>
        <time>2021-05-26T10:46:24Z</time>
      </trkpt>
      <trkpt lat="41.703540" lon="2.579815">
        <ele>132.323</ele>
        <time>2021-05-26T10:46:27Z</time>
      </trkpt>
      <trkpt lat="41.703636" lon="2.579856">
        <ele>131.546</ele>
        <time>2021-05-26T10:46:31Z</time>
      </trkpt>
      <trkpt lat="41.703748" lon="2.579836">
        <ele>131.588</ele>
        <time>2021-05-26T10:46:34Z</time>
      </trkpt>
      <trkpt lat="41.703868" lon="2.579823">
        <ele>131.516</ele>
        <time>2021-05-26T10:46:37Z</time>
      </trkpt>
      <trkpt lat="41.703958" lon="2.579856">
        <ele>131.108</ele>
        <time>2021-05-26T10:46:41Z</time>
      </trkpt>
      <trkpt lat="41.704046" lon="2.579894">
        <ele>130.721</ele>
        <time>2021-05-26T10:46:45Z</time>
      </trkpt>
      <trkpt lat="41.704148" lon="2.579936">
        <ele>130.018</ele>
        <time>2021-05-26T10:46:50Z</time>
      </trkpt>
      <trkpt lat="41.704248" lon="2.579995">
        <ele>128.885</ele>
        <time>2021-05-26T10:46:54Z</time>
      </trkpt>
      <trkpt lat="41.704335" lon="2.580031">
        <ele>128.728</ele>
        <time>2021-05-26T10:46:57Z</time>
      </trkpt>
      <trkpt lat="41.704431" lon="2.580069">
        <ele>128.713</ele>
        <time>2021-05-26T10:47:00Z</time>
      </trkpt>
      <trkpt lat="41.704536" lon="2.580113">
        <ele>128.519</ele>
        <time>2021-05-26T10:47:03Z</time>
      </trkpt>
      <trkpt lat="41.704615" lon="2.580180">
        <ele>127.666</ele>
        <time>2021-05-26T10:47:06Z</time>
      </trkpt>
      <trkpt lat="41.704695" lon="2.580269">
        <ele>126.123</ele>
        <time>2021-05-26T10:47:10Z</time>
      </trkpt>
      <trkpt lat="41.704769" lon="2.580374">
        <ele>125.628</ele>
        <time>2021-05-26T10:47:15Z</time>
      </trkpt>
      <trkpt lat="41.704844" lon="2.580477">
        <ele>125.689</ele>
        <time>2021-05-26T10:47:20Z</time>
      </trkpt>
      <trkpt lat="41.704897" lon="2.580575">
        <ele>125.417</ele>
        <time>2021-05-26T10:47:24Z</time>
      </trkpt>
      <trkpt lat="41.704953" lon="2.580710">
        <ele>125.808</ele>
        <time>2021-05-26T10:47:29Z</time>
      </trkpt>
      <trkpt lat="41.705007" lon="2.580825">
        <ele>126.189</ele>
        <time>2021-05-26T10:47:33Z</time>
      </trkpt>
      <trkpt lat="41.705084" lon="2.580915">
        <ele>126.096</ele>
        <time>2021-05-26T10:47:38Z</time>
      </trkpt>
      <trkpt lat="41.705170" lon="2.580981">
        <ele>126.283</ele>
        <time>2021-05-26T10:47:42Z</time>
      </trkpt>
      <trkpt lat="41.705248" lon="2.581045">
        <ele>126.336</ele>
        <time>2021-05-26T10:47:44Z</time>
      </trkpt>
      <trkpt lat="41.705301" lon="2.581165">
        <ele>125.491</ele>
        <time>2021-05-26T10:47:49Z</time>
      </trkpt>
      <trkpt lat="41.705373" lon="2.581262">
        <ele>124.247</ele>
        <time>2021-05-26T10:47:53Z</time>
      </trkpt>
      <trkpt lat="41.705443" lon="2.581338">
        <ele>123.414</ele>
        <time>2021-05-26T10:47:56Z</time>
      </trkpt>
      <trkpt lat="41.705514" lon="2.581420">
        <ele>122.781</ele>
        <time>2021-05-26T10:48:00Z</time>
      </trkpt>
      <trkpt lat="41.705607" lon="2.581485">
        <ele>122.063</ele>
        <time>2021-05-26T10:48:04Z</time>
      </trkpt>
      <trkpt lat="41.705690" lon="2.581556">
        <ele>121.544</ele>
        <time>2021-05-26T10:48:08Z</time>
      </trkpt>
      <trkpt lat="41.705788" lon="2.581618">
        <ele>121.218</ele>
        <time>2021-05-26T10:48:12Z</time>
      </trkpt>
      <trkpt lat="41.705895" lon="2.581669">
        <ele>120.808</ele>
        <time>2021-05-26T10:48:16Z</time>
      </trkpt>
      <trkpt lat="41.705989" lon="2.581706">
        <ele>120.343</ele>
        <time>2021-05-26T10:48:19Z</time>
      </trkpt>
      <trkpt lat="41.706081" lon="2.581735">
        <ele>119.960</ele>
        <time>2021-05-26T10:48:22Z</time>
      </trkpt>
      <trkpt lat="41.706197" lon="2.581771">
        <ele>119.327</ele>
        <time>2021-05-26T10:48:26Z</time>
      </trkpt>
      <trkpt lat="41.706293" lon="2.581807">
        <ele>118.570</ele>
        <time>2021-05-26T10:48:29Z</time>
      </trkpt>
      <trkpt lat="41.706393" lon="2.581807">
        <ele>118.065</ele>
        <time>2021-05-26T10:48:32Z</time>
      </trkpt>
      <trkpt lat="41.706505" lon="2.581799">
        <ele>117.791</ele>
        <time>2021-05-26T10:48:35Z</time>
      </trkpt>
      <trkpt lat="41.706616" lon="2.581841">
        <ele>116.918</ele>
        <time>2021-05-26T10:48:40Z</time>
      </trkpt>
      <trkpt lat="41.706717" lon="2.581882">
        <ele>116.095</ele>
        <time>2021-05-26T10:48:44Z</time>
      </trkpt>
      <trkpt lat="41.706818" lon="2.581934">
        <ele>115.043</ele>
        <time>2021-05-26T10:48:48Z</time>
      </trkpt>
      <trkpt lat="41.706893" lon="2.582005">
        <ele>114.964</ele>
        <time>2021-05-26T10:48:52Z</time>
      </trkpt>
      <trkpt lat="41.706927" lon="2.582139">
        <ele>116.110</ele>
        <time>2021-05-26T10:48:56Z</time>
      </trkpt>
      <trkpt lat="41.707030" lon="2.582159">
        <ele>116.908</ele>
        <time>2021-05-26T10:49:01Z</time>
      </trkpt>
      <trkpt lat="41.707141" lon="2.582100">
        <ele>116.841</ele>
        <time>2021-05-26T10:49:04Z</time>
      </trkpt>
      <trkpt lat="41.707249" lon="2.582027">
        <ele>116.858</ele>
        <time>2021-05-26T10:49:07Z</time>
      </trkpt>
      <trkpt lat="41.707312" lon="2.581926">
        <ele>116.825</ele>
        <time>2021-05-26T10:49:10Z</time>
      </trkpt>
      <trkpt lat="41.707373" lon="2.581806">
        <ele>117.098</ele>
        <time>2021-05-26T10:49:14Z</time>
      </trkpt>
      <trkpt lat="41.707416" lon="2.581690">
        <ele>116.723</ele>
        <time>2021-05-26T10:49:18Z</time>
      </trkpt>
      <trkpt lat="41.707461" lon="2.581573">
        <ele>117.199</ele>
        <time>2021-05-26T10:49:22Z</time>
      </trkpt>
      <trkpt lat="41.707528" lon="2.581464">
        <ele>117.856</ele>
        <time>2021-05-26T10:49:26Z</time>
      </trkpt>
      <trkpt lat="41.707598" lon="2.581347">
        <ele>118.343</ele>
        <time>2021-05-26T10:49:30Z</time>
      </trkpt>
      <trkpt lat="41.707652" lon="2.581239">
        <ele>118.329</ele>
        <time>2021-05-26T10:49:34Z</time>
      </trkpt>
      <trkpt lat="41.707711" lon="2.581122">
        <ele>117.800</ele>
        <time>2021-05-26T10:49:38Z</time>
      </trkpt>
      <trkpt lat="41.707765" lon="2.581000">
        <ele>117.220</ele>
        <time>2021-05-26T10:49:42Z</time>
      </trkpt>
      <trkpt lat="41.707823" lon="2.580888">
        <ele>116.908</ele>
        <time>2021-05-26T10:49:46Z</time>
      </trkpt>
      <trkpt lat="41.707757" lon="2.580773">
        <ele>116.439</ele>
        <time>2021-05-26T10:49:55Z</time>
      </trkpt>
      <trkpt lat="41.707666" lon="2.580742">
        <ele>117.576</ele>
        <time>2021-05-26T10:50:23Z</time>
      </trkpt>
      <trkpt lat="41.707575" lon="2.580763">
        <ele>118.323</ele>
        <time>2021-05-26T10:51:52Z</time>
      </trkpt>
      <trkpt lat="41.707633" lon="2.580873">
        <ele>117.196</ele>
        <time>2021-05-26T10:52:10Z</time>
      </trkpt>
      <trkpt lat="41.707720" lon="2.580906">
        <ele>116.851</ele>
        <time>2021-05-26T10:52:16Z</time>
      </trkpt>
      <trkpt lat="41.707794" lon="2.580807">
        <ele>116.367</ele>
        <time>2021-05-26T10:52:20Z</time>
      </trkpt>
      <trkpt lat="41.707857" lon="2.580703">
        <ele>117.134</ele>
        <time>2021-05-26T10:52:26Z</time>
      </trkpt>
      <trkpt lat="41.707917" lon="2.580603">
        <ele>117.551</ele>
        <time>2021-05-26T10:52:32Z</time>
      </trkpt>
      <trkpt lat="41.707999" lon="2.580539">
        <ele>117.863</ele>
        <time>2021-05-26T10:52:38Z</time>
      </trkpt>
      <trkpt lat="41.708081" lon="2.580472">
        <ele>117.944</ele>
        <time>2021-05-26T10:52:44Z</time>
      </trkpt>
      <trkpt lat="41.708159" lon="2.580409">
        <ele>117.418</ele>
        <time>2021-05-26T10:52:50Z</time>
      </trkpt>
      <trkpt lat="41.708248" lon="2.580334">
        <ele>116.808</ele>
        <time>2021-05-26T10:52:57Z</time>
      </trkpt>
      <trkpt lat="41.708342" lon="2.580297">
        <ele>116.093</ele>
        <time>2021-05-26T10:53:02Z</time>
      </trkpt>
      <trkpt lat="41.708453" lon="2.580242">
        <ele>114.760</ele>
        <time>2021-05-26T10:53:07Z</time>
      </trkpt>
      <trkpt lat="41.708539" lon="2.580189">
        <ele>113.597</ele>
        <time>2021-05-26T10:53:10Z</time>
      </trkpt>
      <trkpt lat="41.708634" lon="2.580116">
        <ele>112.220</ele>
        <time>2021-05-26T10:53:14Z</time>
      </trkpt>
      <trkpt lat="41.708716" lon="2.580057">
        <ele>111.255</ele>
        <time>2021-05-26T10:53:17Z</time>
      </trkpt>
      <trkpt lat="41.708807" lon="2.579975">
        <ele>109.791</ele>
        <time>2021-05-26T10:53:21Z</time>
      </trkpt>
      <trkpt lat="41.708903" lon="2.579892">
        <ele>107.948</ele>
        <time>2021-05-26T10:53:25Z</time>
      </trkpt>
      <trkpt lat="41.708982" lon="2.579814">
        <ele>107.115</ele>
        <time>2021-05-26T10:53:29Z</time>
      </trkpt>
      <trkpt lat="41.709077" lon="2.579747">
        <ele>106.362</ele>
        <time>2021-05-26T10:53:33Z</time>
      </trkpt>
      <trkpt lat="41.709165" lon="2.579685">
        <ele>105.783</ele>
        <time>2021-05-26T10:53:37Z</time>
      </trkpt>
      <trkpt lat="41.709252" lon="2.579623">
        <ele>105.511</ele>
        <time>2021-05-26T10:53:41Z</time>
      </trkpt>
      <trkpt lat="41.709344" lon="2.579575">
        <ele>105.208</ele>
        <time>2021-05-26T10:53:45Z</time>
      </trkpt>
      <trkpt lat="41.709458" lon="2.579527">
        <ele>104.983</ele>
        <time>2021-05-26T10:53:49Z</time>
      </trkpt>
      <trkpt lat="41.709513" lon="2.579504">
        <ele>104.820</ele>
        <time>2021-05-26T10:53:51Z</time>
      </trkpt>
      <trkpt lat="41.709537" lon="2.579491">
        <ele>104.867</ele>
        <time>2021-05-26T10:53:52Z</time>
      </trkpt>
      <trkpt lat="41.709633" lon="2.579450">
        <ele>104.790</ele>
        <time>2021-05-26T10:53:55Z</time>
      </trkpt>
      <trkpt lat="41.709659" lon="2.579438">
        <ele>104.875</ele>
        <time>2021-05-26T10:53:56Z</time>
      </trkpt>
      <trkpt lat="41.709683" lon="2.579425">
        <ele>104.991</ele>
        <time>2021-05-26T10:53:57Z</time>
      </trkpt>
      <trkpt lat="41.709707" lon="2.579413">
        <ele>105.068</ele>
        <time>2021-05-26T10:53:58Z</time>
      </trkpt>
      <trkpt lat="41.709735" lon="2.579399">
        <ele>105.025</ele>
        <time>2021-05-26T10:53:59Z</time>
      </trkpt>
      <trkpt lat="41.709755" lon="2.579391">
        <ele>104.949</ele>
        <time>2021-05-26T10:54:00Z</time>
      </trkpt>
      <trkpt lat="41.709776" lon="2.579385">
        <ele>104.802</ele>
        <time>2021-05-26T10:54:01Z</time>
      </trkpt>
      <trkpt lat="41.709796" lon="2.579371">
        <ele>104.822</ele>
        <time>2021-05-26T10:54:02Z</time>
      </trkpt>
      <trkpt lat="41.709823" lon="2.579358">
        <ele>104.808</ele>
        <time>2021-05-26T10:54:03Z</time>
      </trkpt>
      <trkpt lat="41.709847" lon="2.579343">
        <ele>104.771</ele>
        <time>2021-05-26T10:54:04Z</time>
      </trkpt>
      <trkpt lat="41.709903" lon="2.579321">
        <ele>104.618</ele>
        <time>2021-05-26T10:54:06Z</time>
      </trkpt>
      <trkpt lat="41.710005" lon="2.579268">
        <ele>104.635</ele>
        <time>2021-05-26T10:54:10Z</time>
      </trkpt>
      <trkpt lat="41.710056" lon="2.579245">
        <ele>104.548</ele>
        <time>2021-05-26T10:54:12Z</time>
      </trkpt>
      <trkpt lat="41.710082" lon="2.579230">
        <ele>104.463</ele>
        <time>2021-05-26T10:54:13Z</time>
      </trkpt>
      <trkpt lat="41.710110" lon="2.579216">
        <ele>104.289</ele>
        <time>2021-05-26T10:54:14Z</time>
      </trkpt>
      <trkpt lat="41.710131" lon="2.579196">
        <ele>104.186</ele>
        <time>2021-05-26T10:54:15Z</time>
      </trkpt>
      <trkpt lat="41.710152" lon="2.579174">
        <ele>103.913</ele>
        <time>2021-05-26T10:54:16Z</time>
      </trkpt>
      <trkpt lat="41.710176" lon="2.579155">
        <ele>103.721</ele>
        <time>2021-05-26T10:54:17Z</time>
      </trkpt>
      <trkpt lat="41.710204" lon="2.579138">
        <ele>103.541</ele>
        <time>2021-05-26T10:54:18Z</time>
      </trkpt>
      <trkpt lat="41.710219" lon="2.579121">
        <ele>103.405</ele>
        <time>2021-05-26T10:54:19Z</time>
      </trkpt>
      <trkpt lat="41.710240" lon="2.579104">
        <ele>103.308</ele>
        <time>2021-05-26T10:54:20Z</time>
      </trkpt>
      <trkpt lat="41.710257" lon="2.579089">
        <ele>103.299</ele>
        <time>2021-05-26T10:54:21Z</time>
      </trkpt>
      <trkpt lat="41.710280" lon="2.579072">
        <ele>103.076</ele>
        <time>2021-05-26T10:54:22Z</time>
      </trkpt>
      <trkpt lat="41.710300" lon="2.579057">
        <ele>103.223</ele>
        <time>2021-05-26T10:54:23Z</time>
      </trkpt>
      <trkpt lat="41.710318" lon="2.579044">
        <ele>103.356</ele>
        <time>2021-05-26T10:54:24Z</time>
      </trkpt>
      <trkpt lat="41.710335" lon="2.579030">
        <ele>103.411</ele>
        <time>2021-05-26T10:54:25Z</time>
      </trkpt>
      <trkpt lat="41.710349" lon="2.579014">
        <ele>103.557</ele>
        <time>2021-05-26T10:54:26Z</time>
      </trkpt>
      <trkpt lat="41.710364" lon="2.578999">
        <ele>103.674</ele>
        <time>2021-05-26T10:54:27Z</time>
      </trkpt>
      <trkpt lat="41.710383" lon="2.578989">
        <ele>103.771</ele>
        <time>2021-05-26T10:54:28Z</time>
      </trkpt>
      <trkpt lat="41.710407" lon="2.578978">
        <ele>103.837</ele>
        <time>2021-05-26T10:54:29Z</time>
      </trkpt>
      <trkpt lat="41.710431" lon="2.578970">
        <ele>103.949</ele>
        <time>2021-05-26T10:54:30Z</time>
      </trkpt>
      <trkpt lat="41.710457" lon="2.578960">
        <ele>104.013</ele>
        <time>2021-05-26T10:54:31Z</time>
      </trkpt>
      <trkpt lat="41.710483" lon="2.578954">
        <ele>104.108</ele>
        <time>2021-05-26T10:54:32Z</time>
      </trkpt>
      <trkpt lat="41.710507" lon="2.578947">
        <ele>104.260</ele>
        <time>2021-05-26T10:54:33Z</time>
      </trkpt>
      <trkpt lat="41.710610" lon="2.578918">
        <ele>104.867</ele>
        <time>2021-05-26T10:54:37Z</time>
      </trkpt>
      <trkpt lat="41.710687" lon="2.578899">
        <ele>105.584</ele>
        <time>2021-05-26T10:54:40Z</time>
      </trkpt>
      <trkpt lat="41.710713" lon="2.578893">
        <ele>105.787</ele>
        <time>2021-05-26T10:54:41Z</time>
      </trkpt>
      <trkpt lat="41.710740" lon="2.578884">
        <ele>106.022</ele>
        <time>2021-05-26T10:54:42Z</time>
      </trkpt>
      <trkpt lat="41.710769" lon="2.578874">
        <ele>106.398</ele>
        <time>2021-05-26T10:54:43Z</time>
      </trkpt>
      <trkpt lat="41.710798" lon="2.578865">
        <ele>106.575</ele>
        <time>2021-05-26T10:54:44Z</time>
      </trkpt>
      <trkpt lat="41.710829" lon="2.578853">
        <ele>106.832</ele>
        <time>2021-05-26T10:54:45Z</time>
      </trkpt>
      <trkpt lat="41.710855" lon="2.578842">
        <ele>107.073</ele>
        <time>2021-05-26T10:54:46Z</time>
      </trkpt>
      <trkpt lat="41.710879" lon="2.578829">
        <ele>107.085</ele>
        <time>2021-05-26T10:54:47Z</time>
      </trkpt>
      <trkpt lat="41.710903" lon="2.578813">
        <ele>107.113</ele>
        <time>2021-05-26T10:54:48Z</time>
      </trkpt>
      <trkpt lat="41.710921" lon="2.578791">
        <ele>107.108</ele>
        <time>2021-05-26T10:54:49Z</time>
      </trkpt>
      <trkpt lat="41.710939" lon="2.578772">
        <ele>107.074</ele>
        <time>2021-05-26T10:54:50Z</time>
      </trkpt>
      <trkpt lat="41.710957" lon="2.578748">
        <ele>106.931</ele>
        <time>2021-05-26T10:54:51Z</time>
      </trkpt>
      <trkpt lat="41.710976" lon="2.578724">
        <ele>106.888</ele>
        <time>2021-05-26T10:54:52Z</time>
      </trkpt>
      <trkpt lat="41.710996" lon="2.578698">
        <ele>106.711</ele>
        <time>2021-05-26T10:54:53Z</time>
      </trkpt>
      <trkpt lat="41.711010" lon="2.578671">
        <ele>106.596</ele>
        <time>2021-05-26T10:54:54Z</time>
      </trkpt>
      <trkpt lat="41.711024" lon="2.578645">
        <ele>106.342</ele>
        <time>2021-05-26T10:54:55Z</time>
      </trkpt>
      <trkpt lat="41.711037" lon="2.578616">
        <ele>106.019</ele>
        <time>2021-05-26T10:54:56Z</time>
      </trkpt>
      <trkpt lat="41.711049" lon="2.578586">
        <ele>105.866</ele>
        <time>2021-05-26T10:54:57Z</time>
      </trkpt>
      <trkpt lat="41.711061" lon="2.578555">
        <ele>105.655</ele>
        <time>2021-05-26T10:54:58Z</time>
      </trkpt>
      <trkpt lat="41.711073" lon="2.578525">
        <ele>105.407</ele>
        <time>2021-05-26T10:54:59Z</time>
      </trkpt>
      <trkpt lat="41.711088" lon="2.578495">
        <ele>105.217</ele>
        <time>2021-05-26T10:55:00Z</time>
      </trkpt>
      <trkpt lat="41.711101" lon="2.578466">
        <ele>105.008</ele>
        <time>2021-05-26T10:55:01Z</time>
      </trkpt>
      <trkpt lat="41.711118" lon="2.578436">
        <ele>104.772</ele>
        <time>2021-05-26T10:55:02Z</time>
      </trkpt>
      <trkpt lat="41.711136" lon="2.578410">
        <ele>104.539</ele>
        <time>2021-05-26T10:55:03Z</time>
      </trkpt>
      <trkpt lat="41.711154" lon="2.578383">
        <ele>104.296</ele>
        <time>2021-05-26T10:55:04Z</time>
      </trkpt>
      <trkpt lat="41.711172" lon="2.578357">
        <ele>104.069</ele>
        <time>2021-05-26T10:55:05Z</time>
      </trkpt>
      <trkpt lat="41.711192" lon="2.578333">
        <ele>103.744</ele>
        <time>2021-05-26T10:55:06Z</time>
      </trkpt>
      <trkpt lat="41.711211" lon="2.578310">
        <ele>103.680</ele>
        <time>2021-05-26T10:55:07Z</time>
      </trkpt>
      <trkpt lat="41.711233" lon="2.578286">
        <ele>103.447</ele>
        <time>2021-05-26T10:55:08Z</time>
      </trkpt>
      <trkpt lat="41.711253" lon="2.578265">
        <ele>103.244</ele>
        <time>2021-05-26T10:55:09Z</time>
      </trkpt>
      <trkpt lat="41.711275" lon="2.578244">
        <ele>103.173</ele>
        <time>2021-05-26T10:55:10Z</time>
      </trkpt>
      <trkpt lat="41.711357" lon="2.578169">
        <ele>102.585</ele>
        <time>2021-05-26T10:55:14Z</time>
      </trkpt>
      <trkpt lat="41.711377" lon="2.578151">
        <ele>102.413</ele>
        <time>2021-05-26T10:55:15Z</time>
      </trkpt>
      <trkpt lat="41.711401" lon="2.578134">
        <ele>102.508</ele>
        <time>2021-05-26T10:55:16Z</time>
      </trkpt>
      <trkpt lat="41.711426" lon="2.578113">
        <ele>102.944</ele>
        <time>2021-05-26T10:55:17Z</time>
      </trkpt>
      <trkpt lat="41.711517" lon="2.578034">
        <ele>104.351</ele>
        <time>2021-05-26T10:55:21Z</time>
      </trkpt>
      <trkpt lat="41.711590" lon="2.577948">
        <ele>105.278</ele>
        <time>2021-05-26T10:55:25Z</time>
      </trkpt>
      <trkpt lat="41.711678" lon="2.577856">
        <ele>105.711</ele>
        <time>2021-05-26T10:55:29Z</time>
      </trkpt>
      <trkpt lat="41.711762" lon="2.577758">
        <ele>105.546</ele>
        <time>2021-05-26T10:55:33Z</time>
      </trkpt>
      <trkpt lat="41.711849" lon="2.577659">
        <ele>105.292</ele>
        <time>2021-05-26T10:55:37Z</time>
      </trkpt>
      <trkpt lat="41.711919" lon="2.577546">
        <ele>104.439</ele>
        <time>2021-05-26T10:55:41Z</time>
      </trkpt>
      <trkpt lat="41.711983" lon="2.577440">
        <ele>104.196</ele>
        <time>2021-05-26T10:55:45Z</time>
      </trkpt>
      <trkpt lat="41.712043" lon="2.577328">
        <ele>104.256</ele>
        <time>2021-05-26T10:55:49Z</time>
      </trkpt>
      <trkpt lat="41.712085" lon="2.577216">
        <ele>104.059</ele>
        <time>2021-05-26T10:55:53Z</time>
      </trkpt>
      <trkpt lat="41.712119" lon="2.577130">
        <ele>103.914</ele>
        <time>2021-05-26T10:55:56Z</time>
      </trkpt>
      <trkpt lat="41.712131" lon="2.577103">
        <ele>103.808</ele>
        <time>2021-05-26T10:55:57Z</time>
      </trkpt>
      <trkpt lat="41.712149" lon="2.577079">
        <ele>103.872</ele>
        <time>2021-05-26T10:55:58Z</time>
      </trkpt>
      <trkpt lat="41.712165" lon="2.577058">
        <ele>103.869</ele>
        <time>2021-05-26T10:55:59Z</time>
      </trkpt>
      <trkpt lat="41.712237" lon="2.576958">
        <ele>103.466</ele>
        <time>2021-05-26T10:56:03Z</time>
      </trkpt>
      <trkpt lat="41.712303" lon="2.576859">
        <ele>104.339</ele>
        <time>2021-05-26T10:56:07Z</time>
      </trkpt>
      <trkpt lat="41.712376" lon="2.576758">
        <ele>104.664</ele>
        <time>2021-05-26T10:56:11Z</time>
      </trkpt>
      <trkpt lat="41.712429" lon="2.576658">
        <ele>104.050</ele>
        <time>2021-05-26T10:56:15Z</time>
      </trkpt>
      <trkpt lat="41.712491" lon="2.576562">
        <ele>103.327</ele>
        <time>2021-05-26T10:56:19Z</time>
      </trkpt>
      <trkpt lat="41.712562" lon="2.576454">
        <ele>102.474</ele>
        <time>2021-05-26T10:56:23Z</time>
      </trkpt>
      <trkpt lat="41.712623" lon="2.576345">
        <ele>101.348</ele>
        <time>2021-05-26T10:56:27Z</time>
      </trkpt>
      <trkpt lat="41.712654" lon="2.576295">
        <ele>100.761</ele>
        <time>2021-05-26T10:56:29Z</time>
      </trkpt>
      <trkpt lat="41.712716" lon="2.576181">
        <ele>99.317</ele>
        <time>2021-05-26T10:56:33Z</time>
      </trkpt>
      <trkpt lat="41.712791" lon="2.576081">
        <ele>98.308</ele>
        <time>2021-05-26T10:56:37Z</time>
      </trkpt>
      <trkpt lat="41.712869" lon="2.575973">
        <ele>99.511</ele>
        <time>2021-05-26T10:56:41Z</time>
      </trkpt>
      <trkpt lat="41.712906" lon="2.575922">
        <ele>99.948</ele>
        <time>2021-05-26T10:56:43Z</time>
      </trkpt>
      <trkpt lat="41.712930" lon="2.575898">
        <ele>100.155</ele>
        <time>2021-05-26T10:56:44Z</time>
      </trkpt>
      <trkpt lat="41.712969" lon="2.575848">
        <ele>100.448</ele>
        <time>2021-05-26T10:56:46Z</time>
      </trkpt>
      <trkpt lat="41.712988" lon="2.575825">
        <ele>100.573</ele>
        <time>2021-05-26T10:56:47Z</time>
      </trkpt>
      <trkpt lat="41.713010" lon="2.575802">
        <ele>100.699</ele>
        <time>2021-05-26T10:56:48Z</time>
      </trkpt>
      <trkpt lat="41.713046" lon="2.575754">
        <ele>100.746</ele>
        <time>2021-05-26T10:56:50Z</time>
      </trkpt>
      <trkpt lat="41.713063" lon="2.575729">
        <ele>100.713</ele>
        <time>2021-05-26T10:56:51Z</time>
      </trkpt>
      <trkpt lat="41.713079" lon="2.575709">
        <ele>100.765</ele>
        <time>2021-05-26T10:56:52Z</time>
      </trkpt>
      <trkpt lat="41.713098" lon="2.575688">
        <ele>100.868</ele>
        <time>2021-05-26T10:56:53Z</time>
      </trkpt>
      <trkpt lat="41.713118" lon="2.575665">
        <ele>100.814</ele>
        <time>2021-05-26T10:56:54Z</time>
      </trkpt>
      <trkpt lat="41.713135" lon="2.575638">
        <ele>100.808</ele>
        <time>2021-05-26T10:56:55Z</time>
      </trkpt>
      <trkpt lat="41.713151" lon="2.575610">
        <ele>100.733</ele>
        <time>2021-05-26T10:56:56Z</time>
      </trkpt>
      <trkpt lat="41.713170" lon="2.575583">
        <ele>100.610</ele>
        <time>2021-05-26T10:56:57Z</time>
      </trkpt>
      <trkpt lat="41.713189" lon="2.575556">
        <ele>100.597</ele>
        <time>2021-05-26T10:56:58Z</time>
      </trkpt>
      <trkpt lat="41.713208" lon="2.575528">
        <ele>100.430</ele>
        <time>2021-05-26T10:56:59Z</time>
      </trkpt>
      <trkpt lat="41.713250" lon="2.575481">
        <ele>100.385</ele>
        <time>2021-05-26T10:57:01Z</time>
      </trkpt>
      <trkpt lat="41.713270" lon="2.575461">
        <ele>100.261</ele>
        <time>2021-05-26T10:57:02Z</time>
      </trkpt>
      <trkpt lat="41.713355" lon="2.575369">
        <ele>99.978</ele>
        <time>2021-05-26T10:57:07Z</time>
      </trkpt>
      <trkpt lat="41.713446" lon="2.575310">
        <ele>100.555</ele>
        <time>2021-05-26T10:57:11Z</time>
      </trkpt>
      <trkpt lat="41.713547" lon="2.575245">
        <ele>101.167</ele>
        <time>2021-05-26T10:57:16Z</time>
      </trkpt>
      <trkpt lat="41.713639" lon="2.575166">
        <ele>101.281</ele>
        <time>2021-05-26T10:57:20Z</time>
      </trkpt>
      <trkpt lat="41.713712" lon="2.575080">
        <ele>101.119</ele>
        <time>2021-05-26T10:57:24Z</time>
      </trkpt>
      <trkpt lat="41.713788" lon="2.575006">
        <ele>101.008</ele>
        <time>2021-05-26T10:57:28Z</time>
      </trkpt>
      <trkpt lat="41.713858" lon="2.574921">
        <ele>101.293</ele>
        <time>2021-05-26T10:57:32Z</time>
      </trkpt>
      <trkpt lat="41.713923" lon="2.574830">
        <ele>101.490</ele>
        <time>2021-05-26T10:57:36Z</time>
      </trkpt>
      <trkpt lat="41.713989" lon="2.574733">
        <ele>101.647</ele>
        <time>2021-05-26T10:57:40Z</time>
      </trkpt>
      <trkpt lat="41.714058" lon="2.574637">
        <ele>101.870</ele>
        <time>2021-05-26T10:57:44Z</time>
      </trkpt>
      <trkpt lat="41.714118" lon="2.574544">
        <ele>101.635</ele>
        <time>2021-05-26T10:57:48Z</time>
      </trkpt>
      <trkpt lat="41.714172" lon="2.574434">
        <ele>101.151</ele>
        <time>2021-05-26T10:57:52Z</time>
      </trkpt>
      <trkpt lat="41.714237" lon="2.574332">
        <ele>102.138</ele>
        <time>2021-05-26T10:57:56Z</time>
      </trkpt>
      <trkpt lat="41.714310" lon="2.574235">
        <ele>102.595</ele>
        <time>2021-05-26T10:58:00Z</time>
      </trkpt>
      <trkpt lat="41.714395" lon="2.574156">
        <ele>102.655</ele>
        <time>2021-05-26T10:58:04Z</time>
      </trkpt>
      <trkpt lat="41.714485" lon="2.574100">
        <ele>103.207</ele>
        <time>2021-05-26T10:58:08Z</time>
      </trkpt>
      <trkpt lat="41.714575" lon="2.574043">
        <ele>103.417</ele>
        <time>2021-05-26T10:58:12Z</time>
      </trkpt>
      <trkpt lat="41.714666" lon="2.574003">
        <ele>103.308</ele>
        <time>2021-05-26T10:58:16Z</time>
      </trkpt>
      <trkpt lat="41.714768" lon="2.573959">
        <ele>102.582</ele>
        <time>2021-05-26T10:58:20Z</time>
      </trkpt>
      <trkpt lat="41.714864" lon="2.573922">
        <ele>101.789</ele>
        <time>2021-05-26T10:58:24Z</time>
      </trkpt>
      <trkpt lat="41.714959" lon="2.573892">
        <ele>101.146</ele>
        <time>2021-05-26T10:58:28Z</time>
      </trkpt>
      <trkpt lat="41.715059" lon="2.573879">
        <ele>100.429</ele>
        <time>2021-05-26T10:58:32Z</time>
      </trkpt>
      <trkpt lat="41.715161" lon="2.573869">
        <ele>99.684</ele>
        <time>2021-05-26T10:58:37Z</time>
      </trkpt>
      <trkpt lat="41.715255" lon="2.573855">
        <ele>99.050</ele>
        <time>2021-05-26T10:58:42Z</time>
      </trkpt>
      <trkpt lat="41.715347" lon="2.573855">
        <ele>99.147</ele>
        <time>2021-05-26T10:58:47Z</time>
      </trkpt>
      <trkpt lat="41.715443" lon="2.573891">
        <ele>99.694</ele>
        <time>2021-05-26T10:58:52Z</time>
      </trkpt>
      <trkpt lat="41.715557" lon="2.573940">
        <ele>100.223</ele>
        <time>2021-05-26T10:58:56Z</time>
      </trkpt>
      <trkpt lat="41.715611" lon="2.574000">
        <ele>99.683</ele>
        <time>2021-05-26T10:58:59Z</time>
      </trkpt>
      <trkpt lat="41.715630" lon="2.574021">
        <ele>99.411</ele>
        <time>2021-05-26T10:59:00Z</time>
      </trkpt>
      <trkpt lat="41.715645" lon="2.574051">
        <ele>99.208</ele>
        <time>2021-05-26T10:59:01Z</time>
      </trkpt>
      <trkpt lat="41.715660" lon="2.574079">
        <ele>99.069</ele>
        <time>2021-05-26T10:59:02Z</time>
      </trkpt>
      <trkpt lat="41.715678" lon="2.574104">
        <ele>98.816</ele>
        <time>2021-05-26T10:59:03Z</time>
      </trkpt>
      <trkpt lat="41.715698" lon="2.574129">
        <ele>98.423</ele>
        <time>2021-05-26T10:59:04Z</time>
      </trkpt>
      <trkpt lat="41.715732" lon="2.574186">
        <ele>98.016</ele>
        <time>2021-05-26T10:59:06Z</time>
      </trkpt>
      <trkpt lat="41.715745" lon="2.574219">
        <ele>98.061</ele>
        <time>2021-05-26T10:59:07Z</time>
      </trkpt>
      <trkpt lat="41.715807" lon="2.574331">
        <ele>97.217</ele>
        <time>2021-05-26T10:59:11Z</time>
      </trkpt>
      <trkpt lat="41.715865" lon="2.574434">
        <ele>96.584</ele>
        <time>2021-05-26T10:59:15Z</time>
      </trkpt>
      <trkpt lat="41.715910" lon="2.574550">
        <ele>96.931</ele>
        <time>2021-05-26T10:59:19Z</time>
      </trkpt>
      <trkpt lat="41.715985" lon="2.574654">
        <ele>96.767</ele>
        <time>2021-05-26T10:59:23Z</time>
      </trkpt>
      <trkpt lat="41.716063" lon="2.574758">
        <ele>96.181</ele>
        <time>2021-05-26T10:59:27Z</time>
      </trkpt>
      <trkpt lat="41.716110" lon="2.574882">
        <ele>96.219</ele>
        <time>2021-05-26T10:59:31Z</time>
      </trkpt>
      <trkpt lat="41.716170" lon="2.574990">
        <ele>96.108</ele>
        <time>2021-05-26T10:59:35Z</time>
      </trkpt>
      <trkpt lat="41.716221" lon="2.575118">
        <ele>97.243</ele>
        <time>2021-05-26T10:59:39Z</time>
      </trkpt>
      <trkpt lat="41.716308" lon="2.575191">
        <ele>96.670</ele>
        <time>2021-05-26T10:59:43Z</time>
      </trkpt>
      <trkpt lat="41.716401" lon="2.575275">
        <ele>95.857</ele>
        <time>2021-05-26T10:59:48Z</time>
      </trkpt>
      <trkpt lat="41.716498" lon="2.575342">
        <ele>95.750</ele>
        <time>2021-05-26T10:59:52Z</time>
      </trkpt>
      <trkpt lat="41.716591" lon="2.575384">
        <ele>95.165</ele>
        <time>2021-05-26T10:59:55Z</time>
      </trkpt>
      <trkpt lat="41.716687" lon="2.575409">
        <ele>94.491</ele>
        <time>2021-05-26T10:59:58Z</time>
      </trkpt>
      <trkpt lat="41.716802" lon="2.575413">
        <ele>94.598</ele>
        <time>2021-05-26T11:00:02Z</time>
      </trkpt>
      <trkpt lat="41.716897" lon="2.575362">
        <ele>93.975</ele>
        <time>2021-05-26T11:00:05Z</time>
      </trkpt>
      <trkpt lat="41.716992" lon="2.575301">
        <ele>93.697</ele>
        <time>2021-05-26T11:00:09Z</time>
      </trkpt>
      <trkpt lat="41.717080" lon="2.575252">
        <ele>93.823</ele>
        <time>2021-05-26T11:00:13Z</time>
      </trkpt>
      <trkpt lat="41.717182" lon="2.575194">
        <ele>94.225</ele>
        <time>2021-05-26T11:00:17Z</time>
      </trkpt>
      <trkpt lat="41.717277" lon="2.575153">
        <ele>94.508</ele>
        <time>2021-05-26T11:00:21Z</time>
      </trkpt>
      <trkpt lat="41.717361" lon="2.575094">
        <ele>94.766</ele>
        <time>2021-05-26T11:00:26Z</time>
      </trkpt>
      <trkpt lat="41.717441" lon="2.575018">
        <ele>94.773</ele>
        <time>2021-05-26T11:00:31Z</time>
      </trkpt>
      <trkpt lat="41.717526" lon="2.574922">
        <ele>95.120</ele>
        <time>2021-05-26T11:00:35Z</time>
      </trkpt>
      <trkpt lat="41.717600" lon="2.574794">
        <ele>95.763</ele>
        <time>2021-05-26T11:00:39Z</time>
      </trkpt>
      <trkpt lat="41.717648" lon="2.574688">
        <ele>96.088</ele>
        <time>2021-05-26T11:00:42Z</time>
      </trkpt>
      <trkpt lat="41.717660" lon="2.574657">
        <ele>96.164</ele>
        <time>2021-05-26T11:00:43Z</time>
      </trkpt>
      <trkpt lat="41.717671" lon="2.574623">
        <ele>96.181</ele>
        <time>2021-05-26T11:00:44Z</time>
      </trkpt>
      <trkpt lat="41.717683" lon="2.574589">
        <ele>96.268</ele>
        <time>2021-05-26T11:00:45Z</time>
      </trkpt>
      <trkpt lat="41.717693" lon="2.574562">
        <ele>96.211</ele>
        <time>2021-05-26T11:00:46Z</time>
      </trkpt>
      <trkpt lat="41.717703" lon="2.574533">
        <ele>96.221</ele>
        <time>2021-05-26T11:00:47Z</time>
      </trkpt>
      <trkpt lat="41.717712" lon="2.574507">
        <ele>96.303</ele>
        <time>2021-05-26T11:00:48Z</time>
      </trkpt>
      <trkpt lat="41.717722" lon="2.574479">
        <ele>96.308</ele>
        <time>2021-05-26T11:00:49Z</time>
      </trkpt>
      <trkpt lat="41.717729" lon="2.574449">
        <ele>96.368</ele>
        <time>2021-05-26T11:00:50Z</time>
      </trkpt>
      <trkpt lat="41.717733" lon="2.574414">
        <ele>96.235</ele>
        <time>2021-05-26T11:00:51Z</time>
      </trkpt>
      <trkpt lat="41.717740" lon="2.574386">
        <ele>96.132</ele>
        <time>2021-05-26T11:00:52Z</time>
      </trkpt>
      <trkpt lat="41.717751" lon="2.574360">
        <ele>96.185</ele>
        <time>2021-05-26T11:00:53Z</time>
      </trkpt>
      <trkpt lat="41.717762" lon="2.574333">
        <ele>96.050</ele>
        <time>2021-05-26T11:00:54Z</time>
      </trkpt>
      <trkpt lat="41.717770" lon="2.574307">
        <ele>95.936</ele>
        <time>2021-05-26T11:00:55Z</time>
      </trkpt>
      <trkpt lat="41.717781" lon="2.574277">
        <ele>95.973</ele>
        <time>2021-05-26T11:00:56Z</time>
      </trkpt>
      <trkpt lat="41.717790" lon="2.574248">
        <ele>95.860</ele>
        <time>2021-05-26T11:00:57Z</time>
      </trkpt>
      <trkpt lat="41.717802" lon="2.574217">
        <ele>95.819</ele>
        <time>2021-05-26T11:00:58Z</time>
      </trkpt>
      <trkpt lat="41.717813" lon="2.574185">
        <ele>95.809</ele>
        <time>2021-05-26T11:00:59Z</time>
      </trkpt>
      <trkpt lat="41.717826" lon="2.574153">
        <ele>95.819</ele>
        <time>2021-05-26T11:01:00Z</time>
      </trkpt>
      <trkpt lat="41.717835" lon="2.574123">
        <ele>95.808</ele>
        <time>2021-05-26T11:01:01Z</time>
      </trkpt>
      <trkpt lat="41.717841" lon="2.574094">
        <ele>95.898</ele>
        <time>2021-05-26T11:01:02Z</time>
      </trkpt>
      <trkpt lat="41.717843" lon="2.574065">
        <ele>95.615</ele>
        <time>2021-05-26T11:01:03Z</time>
      </trkpt>
      <trkpt lat="41.717848" lon="2.574036">
        <ele>95.692</ele>
        <time>2021-05-26T11:01:04Z</time>
      </trkpt>
      <trkpt lat="41.717849" lon="2.574011">
        <ele>95.475</ele>
        <time>2021-05-26T11:01:05Z</time>
      </trkpt>
      <trkpt lat="41.717852" lon="2.573984">
        <ele>95.380</ele>
        <time>2021-05-26T11:01:06Z</time>
      </trkpt>
      <trkpt lat="41.717857" lon="2.573957">
        <ele>95.256</ele>
        <time>2021-05-26T11:01:07Z</time>
      </trkpt>
      <trkpt lat="41.717864" lon="2.573927">
        <ele>95.213</ele>
        <time>2021-05-26T11:01:08Z</time>
      </trkpt>
      <trkpt lat="41.717870" lon="2.573896">
        <ele>95.090</ele>
        <time>2021-05-26T11:01:09Z</time>
      </trkpt>
      <trkpt lat="41.717874" lon="2.573861">
        <ele>94.833</ele>
        <time>2021-05-26T11:01:10Z</time>
      </trkpt>
      <trkpt lat="41.717873" lon="2.573832">
        <ele>94.623</ele>
        <time>2021-05-26T11:01:11Z</time>
      </trkpt>
      <trkpt lat="41.717872" lon="2.573744">
        <ele>94.015</ele>
        <time>2021-05-26T11:01:14Z</time>
      </trkpt>
      <trkpt lat="41.717878" lon="2.573707">
        <ele>93.808</ele>
        <time>2021-05-26T11:01:15Z</time>
      </trkpt>
      <trkpt lat="41.717881" lon="2.573677">
        <ele>93.680</ele>
        <time>2021-05-26T11:01:16Z</time>
      </trkpt>
      <trkpt lat="41.717882" lon="2.573642">
        <ele>93.327</ele>
        <time>2021-05-26T11:01:17Z</time>
      </trkpt>
      <trkpt lat="41.717889" lon="2.573603">
        <ele>93.224</ele>
        <time>2021-05-26T11:01:18Z</time>
      </trkpt>
      <trkpt lat="41.717894" lon="2.573568">
        <ele>93.197</ele>
        <time>2021-05-26T11:01:19Z</time>
      </trkpt>
      <trkpt lat="41.717894" lon="2.573531">
        <ele>93.022</ele>
        <time>2021-05-26T11:01:20Z</time>
      </trkpt>
      <trkpt lat="41.717897" lon="2.573500">
        <ele>92.998</ele>
        <time>2021-05-26T11:01:21Z</time>
      </trkpt>
      <trkpt lat="41.717899" lon="2.573469">
        <ele>92.975</ele>
        <time>2021-05-26T11:01:22Z</time>
      </trkpt>
      <trkpt lat="41.717898" lon="2.573437">
        <ele>92.832</ele>
        <time>2021-05-26T11:01:23Z</time>
      </trkpt>
      <trkpt lat="41.717897" lon="2.573408">
        <ele>92.748</ele>
        <time>2021-05-26T11:01:24Z</time>
      </trkpt>
      <trkpt lat="41.717898" lon="2.573380">
        <ele>92.661</ele>
        <time>2021-05-26T11:01:25Z</time>
      </trkpt>
      <trkpt lat="41.717902" lon="2.573352">
        <ele>92.517</ele>
        <time>2021-05-26T11:01:26Z</time>
      </trkpt>
      <trkpt lat="41.717906" lon="2.573322">
        <ele>92.408</ele>
        <time>2021-05-26T11:01:27Z</time>
      </trkpt>
      <trkpt lat="41.717906" lon="2.573290">
        <ele>92.341</ele>
        <time>2021-05-26T11:01:28Z</time>
      </trkpt>
      <trkpt lat="41.717907" lon="2.573259">
        <ele>92.298</ele>
        <time>2021-05-26T11:01:29Z</time>
      </trkpt>
      <trkpt lat="41.717910" lon="2.573227">
        <ele>92.195</ele>
        <time>2021-05-26T11:01:30Z</time>
      </trkpt>
      <trkpt lat="41.717913" lon="2.573195">
        <ele>92.018</ele>
        <time>2021-05-26T11:01:31Z</time>
      </trkpt>
      <trkpt lat="41.717914" lon="2.573163">
        <ele>91.973</ele>
        <time>2021-05-26T11:01:32Z</time>
      </trkpt>
      <trkpt lat="41.717915" lon="2.573132">
        <ele>91.879</ele>
        <time>2021-05-26T11:01:33Z</time>
      </trkpt>
      <trkpt lat="41.717912" lon="2.573100">
        <ele>91.686</ele>
        <time>2021-05-26T11:01:34Z</time>
      </trkpt>
      <trkpt lat="41.717913" lon="2.573067">
        <ele>91.563</ele>
        <time>2021-05-26T11:01:35Z</time>
      </trkpt>
      <trkpt lat="41.717912" lon="2.573036">
        <ele>91.474</ele>
        <time>2021-05-26T11:01:36Z</time>
      </trkpt>
      <trkpt lat="41.717910" lon="2.573004">
        <ele>91.456</ele>
        <time>2021-05-26T11:01:37Z</time>
      </trkpt>
      <trkpt lat="41.717910" lon="2.572974">
        <ele>91.321</ele>
        <time>2021-05-26T11:01:38Z</time>
      </trkpt>
      <trkpt lat="41.717912" lon="2.572949">
        <ele>91.308</ele>
        <time>2021-05-26T11:01:39Z</time>
      </trkpt>
      <trkpt lat="41.717912" lon="2.572922">
        <ele>91.334</ele>
        <time>2021-05-26T11:01:40Z</time>
      </trkpt>
      <trkpt lat="41.717913" lon="2.572892">
        <ele>91.251</ele>
        <time>2021-05-26T11:01:41Z</time>
      </trkpt>
      <trkpt lat="41.717919" lon="2.572863">
        <ele>91.238</ele>
        <time>2021-05-26T11:01:42Z</time>
      </trkpt>
      <trkpt lat="41.717924" lon="2.572835">
        <ele>91.151</ele>
        <time>2021-05-26T11:01:43Z</time>
      </trkpt>
      <trkpt lat="41.717926" lon="2.572807">
        <ele>91.176</ele>
        <time>2021-05-26T11:01:44Z</time>
      </trkpt>
      <trkpt lat="41.717927" lon="2.572778">
        <ele>91.032</ele>
        <time>2021-05-26T11:01:45Z</time>
      </trkpt>
      <trkpt lat="41.717920" lon="2.572747">
        <ele>90.989</ele>
        <time>2021-05-26T11:01:46Z</time>
      </trkpt>
      <trkpt lat="41.717914" lon="2.572719">
        <ele>90.956</ele>
        <time>2021-05-26T11:01:47Z</time>
      </trkpt>
      <trkpt lat="41.717913" lon="2.572686">
        <ele>90.833</ele>
        <time>2021-05-26T11:01:48Z</time>
      </trkpt>
      <trkpt lat="41.717910" lon="2.572656">
        <ele>90.823</ele>
        <time>2021-05-26T11:01:49Z</time>
      </trkpt>
      <trkpt lat="41.717907" lon="2.572627">
        <ele>90.815</ele>
        <time>2021-05-26T11:01:50Z</time>
      </trkpt>
      <trkpt lat="41.717906" lon="2.572595">
        <ele>90.708</ele>
        <time>2021-05-26T11:01:51Z</time>
      </trkpt>
      <trkpt lat="41.717904" lon="2.572564">
        <ele>90.770</ele>
        <time>2021-05-26T11:01:52Z</time>
      </trkpt>
      <trkpt lat="41.717908" lon="2.572535">
        <ele>90.667</ele>
        <time>2021-05-26T11:01:53Z</time>
      </trkpt>
      <trkpt lat="41.717907" lon="2.572502">
        <ele>90.664</ele>
        <time>2021-05-26T11:01:54Z</time>
      </trkpt>
      <trkpt lat="41.717914" lon="2.572468">
        <ele>90.497</ele>
        <time>2021-05-26T11:01:55Z</time>
      </trkpt>
      <trkpt lat="41.717923" lon="2.572400">
        <ele>90.122</ele>
        <time>2021-05-26T11:01:57Z</time>
      </trkpt>
      <trkpt lat="41.717929" lon="2.572368">
        <ele>89.978</ele>
        <time>2021-05-26T11:01:58Z</time>
      </trkpt>
      <trkpt lat="41.717933" lon="2.572337">
        <ele>89.745</ele>
        <time>2021-05-26T11:01:59Z</time>
      </trkpt>
      <trkpt lat="41.717937" lon="2.572304">
        <ele>89.612</ele>
        <time>2021-05-26T11:02:00Z</time>
      </trkpt>
      <trkpt lat="41.717940" lon="2.572234">
        <ele>89.373</ele>
        <time>2021-05-26T11:02:02Z</time>
      </trkpt>
      <trkpt lat="41.717946" lon="2.572200">
        <ele>89.285</ele>
        <time>2021-05-26T11:02:03Z</time>
      </trkpt>
      <trkpt lat="41.717952" lon="2.572167">
        <ele>89.313</ele>
        <time>2021-05-26T11:02:04Z</time>
      </trkpt>
      <trkpt lat="41.717975" lon="2.572022">
        <ele>89.308</ele>
        <time>2021-05-26T11:02:08Z</time>
      </trkpt>
      <trkpt lat="41.718021" lon="2.571907">
        <ele>89.264</ele>
        <time>2021-05-26T11:02:12Z</time>
      </trkpt>
      <trkpt lat="41.718103" lon="2.571810">
        <ele>89.581</ele>
        <time>2021-05-26T11:02:16Z</time>
      </trkpt>
      <trkpt lat="41.718186" lon="2.571743">
        <ele>89.618</ele>
        <time>2021-05-26T11:02:20Z</time>
      </trkpt>
      <trkpt lat="41.718273" lon="2.571692">
        <ele>89.471</ele>
        <time>2021-05-26T11:02:24Z</time>
      </trkpt>
      <trkpt lat="41.718359" lon="2.571650">
        <ele>89.076</ele>
        <time>2021-05-26T11:02:28Z</time>
      </trkpt>
      <trkpt lat="41.718383" lon="2.571636">
        <ele>89.162</ele>
        <time>2021-05-26T11:02:29Z</time>
      </trkpt>
      <trkpt lat="41.718400" lon="2.571616">
        <ele>89.219</ele>
        <time>2021-05-26T11:02:30Z</time>
      </trkpt>
      <trkpt lat="41.718422" lon="2.571604">
        <ele>89.246</ele>
        <time>2021-05-26T11:02:31Z</time>
      </trkpt>
      <trkpt lat="41.718446" lon="2.571591">
        <ele>89.214</ele>
        <time>2021-05-26T11:02:32Z</time>
      </trkpt>
      <trkpt lat="41.718469" lon="2.571583">
        <ele>89.154</ele>
        <time>2021-05-26T11:02:33Z</time>
      </trkpt>
      <trkpt lat="41.718491" lon="2.571575">
        <ele>89.009</ele>
        <time>2021-05-26T11:02:34Z</time>
      </trkpt>
      <trkpt lat="41.718510" lon="2.571570">
        <ele>88.908</ele>
        <time>2021-05-26T11:02:35Z</time>
      </trkpt>
      <trkpt lat="41.718536" lon="2.571568">
        <ele>88.798</ele>
        <time>2021-05-26T11:02:36Z</time>
      </trkpt>
      <trkpt lat="41.718562" lon="2.571572">
        <ele>88.485</ele>
        <time>2021-05-26T11:02:37Z</time>
      </trkpt>
      <trkpt lat="41.718590" lon="2.571583">
        <ele>88.192</ele>
        <time>2021-05-26T11:02:38Z</time>
      </trkpt>
      <trkpt lat="41.718616" lon="2.571591">
        <ele>87.855</ele>
        <time>2021-05-26T11:02:39Z</time>
      </trkpt>
      <trkpt lat="41.718722" lon="2.571636">
        <ele>86.960</ele>
        <time>2021-05-26T11:02:43Z</time>
      </trkpt>
      <trkpt lat="41.718807" lon="2.571677">
        <ele>86.336</ele>
        <time>2021-05-26T11:02:46Z</time>
      </trkpt>
      <trkpt lat="41.718833" lon="2.571691">
        <ele>86.173</ele>
        <time>2021-05-26T11:02:47Z</time>
      </trkpt>
      <trkpt lat="41.718859" lon="2.571700">
        <ele>86.030</ele>
        <time>2021-05-26T11:02:48Z</time>
      </trkpt>
      <trkpt lat="41.718886" lon="2.571715">
        <ele>85.842</ele>
        <time>2021-05-26T11:02:49Z</time>
      </trkpt>
      <trkpt lat="41.718914" lon="2.571729">
        <ele>85.922</ele>
        <time>2021-05-26T11:02:50Z</time>
      </trkpt>
      <trkpt lat="41.718938" lon="2.571739">
        <ele>86.014</ele>
        <time>2021-05-26T11:02:51Z</time>
      </trkpt>
      <trkpt lat="41.718960" lon="2.571748">
        <ele>86.108</ele>
        <time>2021-05-26T11:02:52Z</time>
      </trkpt>
      <trkpt lat="41.718980" lon="2.571761">
        <ele>86.261</ele>
        <time>2021-05-26T11:02:53Z</time>
      </trkpt>
      <trkpt lat="41.718998" lon="2.571774">
        <ele>86.238</ele>
        <time>2021-05-26T11:02:54Z</time>
      </trkpt>
      <trkpt lat="41.719018" lon="2.571782">
        <ele>86.375</ele>
        <time>2021-05-26T11:02:55Z</time>
      </trkpt>
      <trkpt lat="41.719037" lon="2.571789">
        <ele>86.488</ele>
        <time>2021-05-26T11:02:56Z</time>
      </trkpt>
      <trkpt lat="41.719071" lon="2.571809">
        <ele>86.543</ele>
        <time>2021-05-26T11:02:58Z</time>
      </trkpt>
      <trkpt lat="41.719092" lon="2.571819">
        <ele>86.549</ele>
        <time>2021-05-26T11:02:59Z</time>
      </trkpt>
      <trkpt lat="41.719112" lon="2.571830">
        <ele>86.526</ele>
        <time>2021-05-26T11:03:00Z</time>
      </trkpt>
      <trkpt lat="41.719132" lon="2.571843">
        <ele>86.613</ele>
        <time>2021-05-26T11:03:01Z</time>
      </trkpt>
      <trkpt lat="41.719154" lon="2.571857">
        <ele>86.647</ele>
        <time>2021-05-26T11:03:02Z</time>
      </trkpt>
      <trkpt lat="41.719176" lon="2.571875">
        <ele>86.629</ele>
        <time>2021-05-26T11:03:03Z</time>
      </trkpt>
      <trkpt lat="41.719199" lon="2.571885">
        <ele>86.821</ele>
        <time>2021-05-26T11:03:04Z</time>
      </trkpt>
      <trkpt lat="41.719221" lon="2.571899">
        <ele>86.908</ele>
        <time>2021-05-26T11:03:05Z</time>
      </trkpt>
      <trkpt lat="41.719243" lon="2.571919">
        <ele>87.041</ele>
        <time>2021-05-26T11:03:06Z</time>
      </trkpt>
      <trkpt lat="41.719265" lon="2.571933">
        <ele>87.138</ele>
        <time>2021-05-26T11:03:07Z</time>
      </trkpt>
      <trkpt lat="41.719286" lon="2.571949">
        <ele>87.365</ele>
        <time>2021-05-26T11:03:08Z</time>
      </trkpt>
      <trkpt lat="41.719309" lon="2.571966">
        <ele>87.428</ele>
        <time>2021-05-26T11:03:09Z</time>
      </trkpt>
      <trkpt lat="41.719331" lon="2.571980">
        <ele>87.593</ele>
        <time>2021-05-26T11:03:10Z</time>
      </trkpt>
      <trkpt lat="41.719353" lon="2.571996">
        <ele>87.639</ele>
        <time>2021-05-26T11:03:11Z</time>
      </trkpt>
      <trkpt lat="41.719376" lon="2.572011">
        <ele>87.836</ele>
        <time>2021-05-26T11:03:12Z</time>
      </trkpt>
      <trkpt lat="41.719400" lon="2.572024">
        <ele>87.933</ele>
        <time>2021-05-26T11:03:13Z</time>
      </trkpt>
      <trkpt lat="41.719424" lon="2.572035">
        <ele>88.152</ele>
        <time>2021-05-26T11:03:14Z</time>
      </trkpt>
      <trkpt lat="41.719446" lon="2.572043">
        <ele>88.353</ele>
        <time>2021-05-26T11:03:15Z</time>
      </trkpt>
      <trkpt lat="41.719468" lon="2.572054">
        <ele>88.408</ele>
        <time>2021-05-26T11:03:16Z</time>
      </trkpt>
      <trkpt lat="41.719493" lon="2.572059">
        <ele>88.508</ele>
        <time>2021-05-26T11:03:17Z</time>
      </trkpt>
      <trkpt lat="41.719517" lon="2.572067">
        <ele>88.662</ele>
        <time>2021-05-26T11:03:18Z</time>
      </trkpt>
      <trkpt lat="41.719540" lon="2.572076">
        <ele>88.719</ele>
        <time>2021-05-26T11:03:19Z</time>
      </trkpt>
      <trkpt lat="41.719567" lon="2.572086">
        <ele>88.986</ele>
        <time>2021-05-26T11:03:20Z</time>
      </trkpt>
      <trkpt lat="41.719591" lon="2.572096">
        <ele>89.039</ele>
        <time>2021-05-26T11:03:21Z</time>
      </trkpt>
      <trkpt lat="41.719615" lon="2.572100">
        <ele>89.174</ele>
        <time>2021-05-26T11:03:22Z</time>
      </trkpt>
      <trkpt lat="41.719636" lon="2.572107">
        <ele>89.250</ele>
        <time>2021-05-26T11:03:23Z</time>
      </trkpt>
      <trkpt lat="41.719660" lon="2.572112">
        <ele>89.367</ele>
        <time>2021-05-26T11:03:24Z</time>
      </trkpt>
      <trkpt lat="41.719687" lon="2.572115">
        <ele>89.564</ele>
        <time>2021-05-26T11:03:25Z</time>
      </trkpt>
      <trkpt lat="41.719711" lon="2.572120">
        <ele>89.792</ele>
        <time>2021-05-26T11:03:26Z</time>
      </trkpt>
      <trkpt lat="41.719735" lon="2.572121">
        <ele>89.773</ele>
        <time>2021-05-26T11:03:27Z</time>
      </trkpt>
      <trkpt lat="41.719761" lon="2.572121">
        <ele>89.620</ele>
        <time>2021-05-26T11:03:28Z</time>
      </trkpt>
      <trkpt lat="41.719787" lon="2.572126">
        <ele>89.508</ele>
        <time>2021-05-26T11:03:29Z</time>
      </trkpt>
      <trkpt lat="41.719813" lon="2.572135">
        <ele>89.346</ele>
        <time>2021-05-26T11:03:30Z</time>
      </trkpt>
      <trkpt lat="41.719839" lon="2.572142">
        <ele>89.273</ele>
        <time>2021-05-26T11:03:31Z</time>
      </trkpt>
      <trkpt lat="41.719864" lon="2.572154">
        <ele>89.050</ele>
        <time>2021-05-26T11:03:32Z</time>
      </trkpt>
      <trkpt lat="41.719890" lon="2.572161">
        <ele>88.843</ele>
        <time>2021-05-26T11:03:33Z</time>
      </trkpt>
      <trkpt lat="41.719914" lon="2.572172">
        <ele>88.768</ele>
        <time>2021-05-26T11:03:34Z</time>
      </trkpt>
      <trkpt lat="41.719936" lon="2.572183">
        <ele>88.514</ele>
        <time>2021-05-26T11:03:35Z</time>
      </trkpt>
      <trkpt lat="41.719956" lon="2.572198">
        <ele>88.321</ele>
        <time>2021-05-26T11:03:36Z</time>
      </trkpt>
      <trkpt lat="41.719978" lon="2.572207">
        <ele>88.218</ele>
        <time>2021-05-26T11:03:37Z</time>
      </trkpt>
      <trkpt lat="41.720002" lon="2.572215">
        <ele>88.025</ele>
        <time>2021-05-26T11:03:38Z</time>
      </trkpt>
      <trkpt lat="41.720026" lon="2.572226">
        <ele>87.926</ele>
        <time>2021-05-26T11:03:39Z</time>
      </trkpt>
      <trkpt lat="41.720049" lon="2.572239">
        <ele>87.708</ele>
        <time>2021-05-26T11:03:40Z</time>
      </trkpt>
      <trkpt lat="41.720071" lon="2.572253">
        <ele>87.408</ele>
        <time>2021-05-26T11:03:41Z</time>
      </trkpt>
      <trkpt lat="41.720093" lon="2.572267">
        <ele>87.269</ele>
        <time>2021-05-26T11:03:42Z</time>
      </trkpt>
      <trkpt lat="41.720119" lon="2.572278">
        <ele>87.136</ele>
        <time>2021-05-26T11:03:43Z</time>
      </trkpt>
      <trkpt lat="41.720145" lon="2.572288">
        <ele>86.933</ele>
        <time>2021-05-26T11:03:44Z</time>
      </trkpt>
      <trkpt lat="41.720169" lon="2.572301">
        <ele>86.786</ele>
        <time>2021-05-26T11:03:45Z</time>
      </trkpt>
      <trkpt lat="41.720194" lon="2.572311">
        <ele>86.651</ele>
        <time>2021-05-26T11:03:46Z</time>
      </trkpt>
      <trkpt lat="41.720215" lon="2.572321">
        <ele>86.437</ele>
        <time>2021-05-26T11:03:47Z</time>
      </trkpt>
      <trkpt lat="41.720234" lon="2.572333">
        <ele>86.324</ele>
        <time>2021-05-26T11:03:48Z</time>
      </trkpt>
      <trkpt lat="41.720257" lon="2.572346">
        <ele>86.211</ele>
        <time>2021-05-26T11:03:49Z</time>
      </trkpt>
      <trkpt lat="41.720280" lon="2.572362">
        <ele>86.077</ele>
        <time>2021-05-26T11:03:50Z</time>
      </trkpt>
      <trkpt lat="41.720304" lon="2.572376">
        <ele>85.961</ele>
        <time>2021-05-26T11:03:51Z</time>
      </trkpt>
      <trkpt lat="41.720325" lon="2.572395">
        <ele>85.927</ele>
        <time>2021-05-26T11:03:52Z</time>
      </trkpt>
      <trkpt lat="41.720350" lon="2.572411">
        <ele>85.808</ele>
        <time>2021-05-26T11:03:53Z</time>
      </trkpt>
      <trkpt lat="41.720374" lon="2.572424">
        <ele>85.864</ele>
        <time>2021-05-26T11:03:54Z</time>
      </trkpt>
      <trkpt lat="41.720398" lon="2.572437">
        <ele>85.841</ele>
        <time>2021-05-26T11:03:55Z</time>
      </trkpt>
      <trkpt lat="41.720420" lon="2.572451">
        <ele>85.838</ele>
        <time>2021-05-26T11:03:56Z</time>
      </trkpt>
      <trkpt lat="41.720442" lon="2.572468">
        <ele>85.821</ele>
        <time>2021-05-26T11:03:57Z</time>
      </trkpt>
      <trkpt lat="41.720465" lon="2.572484">
        <ele>85.856</ele>
        <time>2021-05-26T11:03:58Z</time>
      </trkpt>
      <trkpt lat="41.720488" lon="2.572497">
        <ele>85.842</ele>
        <time>2021-05-26T11:03:59Z</time>
      </trkpt>
      <trkpt lat="41.720512" lon="2.572515">
        <ele>85.829</ele>
        <time>2021-05-26T11:04:00Z</time>
      </trkpt>
      <trkpt lat="41.720534" lon="2.572536">
        <ele>85.836</ele>
        <time>2021-05-26T11:04:01Z</time>
      </trkpt>
      <trkpt lat="41.720559" lon="2.572557">
        <ele>85.856</ele>
        <time>2021-05-26T11:04:02Z</time>
      </trkpt>
      <trkpt lat="41.720580" lon="2.572577">
        <ele>85.959</ele>
        <time>2021-05-26T11:04:03Z</time>
      </trkpt>
      <trkpt lat="41.720601" lon="2.572601">
        <ele>85.914</ele>
        <time>2021-05-26T11:04:04Z</time>
      </trkpt>
      <trkpt lat="41.720620" lon="2.572622">
        <ele>85.908</ele>
        <time>2021-05-26T11:04:05Z</time>
      </trkpt>
      <trkpt lat="41.720638" lon="2.572642">
        <ele>85.982</ele>
        <time>2021-05-26T11:04:06Z</time>
      </trkpt>
      <trkpt lat="41.720657" lon="2.572665">
        <ele>85.979</ele>
        <time>2021-05-26T11:04:07Z</time>
      </trkpt>
      <trkpt lat="41.720676" lon="2.572685">
        <ele>85.916</ele>
        <time>2021-05-26T11:04:08Z</time>
      </trkpt>
      <trkpt lat="41.720694" lon="2.572700">
        <ele>85.939</ele>
        <time>2021-05-26T11:04:09Z</time>
      </trkpt>
      <trkpt lat="41.720705" lon="2.572720">
        <ele>85.984</ele>
        <time>2021-05-26T11:04:10Z</time>
      </trkpt>
      <trkpt lat="41.720723" lon="2.572752">
        <ele>85.860</ele>
        <time>2021-05-26T11:04:12Z</time>
      </trkpt>
      <trkpt lat="41.720740" lon="2.572774">
        <ele>85.717</ele>
        <time>2021-05-26T11:04:14Z</time>
      </trkpt>
      <trkpt lat="41.720751" lon="2.572801">
        <ele>85.634</ele>
        <time>2021-05-26T11:04:16Z</time>
      </trkpt>
      <trkpt lat="41.720747" lon="2.572825">
        <ele>85.433</ele>
        <time>2021-05-26T11:04:19Z</time>
      </trkpt>
      <trkpt lat="41.720762" lon="2.572840">
        <ele>85.423</ele>
        <time>2021-05-26T11:05:02Z</time>
      </trkpt>
      <trkpt lat="41.720775" lon="2.572819">
        <ele>85.515</ele>
        <time>2021-05-26T11:05:06Z</time>
      </trkpt>
      <trkpt lat="41.720789" lon="2.572786">
        <ele>85.808</ele>
        <time>2021-05-26T11:05:08Z</time>
      </trkpt>
      <trkpt lat="41.720808" lon="2.572750">
        <ele>86.160</ele>
        <time>2021-05-26T11:05:10Z</time>
      </trkpt>
      <trkpt lat="41.720827" lon="2.572716">
        <ele>86.477</ele>
        <time>2021-05-26T11:05:12Z</time>
      </trkpt>
      <trkpt lat="41.720844" lon="2.572683">
        <ele>86.764</ele>
        <time>2021-05-26T11:05:14Z</time>
      </trkpt>
      <trkpt lat="41.720848" lon="2.572646">
        <ele>86.917</ele>
        <time>2021-05-26T11:05:16Z</time>
      </trkpt>
      <trkpt lat="41.720848" lon="2.572610">
        <ele>87.292</ele>
        <time>2021-05-26T11:05:18Z</time>
      </trkpt>
      <trkpt lat="41.720852" lon="2.572569">
        <ele>87.558</ele>
        <time>2021-05-26T11:05:20Z</time>
      </trkpt>
      <trkpt lat="41.720848" lon="2.572531">
        <ele>87.875</ele>
        <time>2021-05-26T11:05:22Z</time>
      </trkpt>
      <trkpt lat="41.720837" lon="2.572494">
        <ele>88.072</ele>
        <time>2021-05-26T11:05:24Z</time>
      </trkpt>
      <trkpt lat="41.720822" lon="2.572466">
        <ele>87.921</ele>
        <time>2021-05-26T11:05:26Z</time>
      </trkpt>
      <trkpt lat="41.720806" lon="2.572442">
        <ele>87.841</ele>
        <time>2021-05-26T11:05:28Z</time>
      </trkpt>
      <trkpt lat="41.720795" lon="2.572421">
        <ele>87.805</ele>
        <time>2021-05-26T11:05:30Z</time>
      </trkpt>
      <trkpt lat="41.720776" lon="2.572400">
        <ele>87.708</ele>
        <time>2021-05-26T11:05:32Z</time>
      </trkpt>
      <trkpt lat="41.720759" lon="2.572379">
        <ele>87.669</ele>
        <time>2021-05-26T11:05:34Z</time>
      </trkpt>
      <trkpt lat="41.720741" lon="2.572357">
        <ele>87.566</ele>
        <time>2021-05-26T11:05:36Z</time>
      </trkpt>
      <trkpt lat="41.720723" lon="2.572341">
        <ele>87.453</ele>
        <time>2021-05-26T11:05:38Z</time>
      </trkpt>
      <trkpt lat="41.720706" lon="2.572312">
        <ele>87.416</ele>
        <time>2021-05-26T11:05:41Z</time>
      </trkpt>
      <trkpt lat="41.720700" lon="2.572283">
        <ele>87.421</ele>
        <time>2021-05-26T11:05:43Z</time>
      </trkpt>
      <trkpt lat="41.720689" lon="2.572256">
        <ele>87.487</ele>
        <time>2021-05-26T11:05:45Z</time>
      </trkpt>
      <trkpt lat="41.720679" lon="2.572232">
        <ele>87.424</ele>
        <time>2021-05-26T11:05:55Z</time>
      </trkpt>
      <trkpt lat="41.720664" lon="2.572201">
        <ele>87.451</ele>
        <time>2021-05-26T11:05:57Z</time>
      </trkpt>
      <trkpt lat="41.720648" lon="2.572172">
        <ele>87.347</ele>
        <time>2021-05-26T11:05:59Z</time>
      </trkpt>
      <trkpt lat="41.720630" lon="2.572149">
        <ele>87.229</ele>
        <time>2021-05-26T11:06:01Z</time>
      </trkpt>
      <trkpt lat="41.720612" lon="2.572123">
        <ele>87.121</ele>
        <time>2021-05-26T11:06:03Z</time>
      </trkpt>
      <trkpt lat="41.720596" lon="2.572098">
        <ele>86.908</ele>
        <time>2021-05-26T11:06:05Z</time>
      </trkpt>
      <trkpt lat="41.720579" lon="2.572074">
        <ele>86.721</ele>
        <time>2021-05-26T11:06:07Z</time>
      </trkpt>
      <trkpt lat="41.720563" lon="2.572047">
        <ele>86.438</ele>
        <time>2021-05-26T11:06:09Z</time>
      </trkpt>
      <trkpt lat="41.720549" lon="2.572020">
        <ele>86.335</ele>
        <time>2021-05-26T11:06:11Z</time>
      </trkpt>
      <trkpt lat="41.720564" lon="2.572039">
        <ele>86.458</ele>
        <time>2021-05-26T11:06:15Z</time>
      </trkpt>
      <trkpt lat="41.720588" lon="2.572064">
        <ele>86.753</ele>
        <time>2021-05-26T11:06:17Z</time>
      </trkpt>
      <trkpt lat="41.720608" lon="2.572092">
        <ele>87.019</ele>
        <time>2021-05-26T11:06:19Z</time>
      </trkpt>
      <trkpt lat="41.720627" lon="2.572129">
        <ele>87.266</ele>
        <time>2021-05-26T11:06:21Z</time>
      </trkpt>
      <trkpt lat="41.720642" lon="2.572161">
        <ele>87.313</ele>
        <time>2021-05-26T11:06:23Z</time>
      </trkpt>
      <trkpt lat="41.720655" lon="2.572194">
        <ele>87.422</ele>
        <time>2021-05-26T11:06:25Z</time>
      </trkpt>
      <trkpt lat="41.720671" lon="2.572223">
        <ele>87.462</ele>
        <time>2021-05-26T11:06:27Z</time>
      </trkpt>
      <trkpt lat="41.720687" lon="2.572260">
        <ele>87.408</ele>
        <time>2021-05-26T11:06:29Z</time>
      </trkpt>
      <trkpt lat="41.720706" lon="2.572291">
        <ele>87.408</ele>
        <time>2021-05-26T11:06:31Z</time>
      </trkpt>
      <trkpt lat="41.720728" lon="2.572324">
        <ele>87.519</ele>
        <time>2021-05-26T11:06:33Z</time>
      </trkpt>
      <trkpt lat="41.720743" lon="2.572340">
        <ele>87.556</ele>
        <time>2021-05-26T11:06:34Z</time>
      </trkpt>
      <trkpt lat="41.720752" lon="2.572363">
        <ele>87.673</ele>
        <time>2021-05-26T11:06:35Z</time>
      </trkpt>
      <trkpt lat="41.720766" lon="2.572399">
        <ele>87.616</ele>
        <time>2021-05-26T11:06:37Z</time>
      </trkpt>
      <trkpt lat="41.720783" lon="2.572433">
        <ele>87.771</ele>
        <time>2021-05-26T11:06:39Z</time>
      </trkpt>
      <trkpt lat="41.720805" lon="2.572460">
        <ele>87.847</ele>
        <time>2021-05-26T11:06:41Z</time>
      </trkpt>
      <trkpt lat="41.720820" lon="2.572489">
        <ele>87.964</ele>
        <time>2021-05-26T11:06:43Z</time>
      </trkpt>
      <trkpt lat="41.720839" lon="2.572524">
        <ele>87.821</ele>
        <time>2021-05-26T11:06:45Z</time>
      </trkpt>
      <trkpt lat="41.720911" lon="2.572621">
        <ele>87.067</ele>
        <time>2021-05-26T11:06:53Z</time>
      </trkpt>
      <trkpt lat="41.720999" lon="2.572653">
        <ele>86.681</ele>
        <time>2021-05-26T11:06:58Z</time>
      </trkpt>
      <trkpt lat="41.721100" lon="2.572653">
        <ele>86.419</ele>
        <time>2021-05-26T11:07:05Z</time>
      </trkpt>
      <trkpt lat="41.721195" lon="2.572696">
        <ele>86.408</ele>
        <time>2021-05-26T11:07:10Z</time>
      </trkpt>
      <trkpt lat="41.721298" lon="2.572620">
        <ele>87.783</ele>
        <time>2021-05-26T11:07:14Z</time>
      </trkpt>
      <trkpt lat="41.721329" lon="2.572483">
        <ele>89.010</ele>
        <time>2021-05-26T11:07:18Z</time>
      </trkpt>
      <trkpt lat="41.721295" lon="2.572363">
        <ele>90.817</ele>
        <time>2021-05-26T11:07:22Z</time>
      </trkpt>
      <trkpt lat="41.721290" lon="2.572335">
        <ele>91.260</ele>
        <time>2021-05-26T11:07:23Z</time>
      </trkpt>
      <trkpt lat="41.721277" lon="2.572306">
        <ele>91.785</ele>
        <time>2021-05-26T11:07:24Z</time>
      </trkpt>
      <trkpt lat="41.721270" lon="2.572274">
        <ele>92.291</ele>
        <time>2021-05-26T11:07:25Z</time>
      </trkpt>
      <trkpt lat="41.721255" lon="2.572245">
        <ele>92.688</ele>
        <time>2021-05-26T11:07:26Z</time>
      </trkpt>
      <trkpt lat="41.721243" lon="2.572214">
        <ele>93.045</ele>
        <time>2021-05-26T11:07:27Z</time>
      </trkpt>
      <trkpt lat="41.721234" lon="2.572185">
        <ele>93.298</ele>
        <time>2021-05-26T11:07:28Z</time>
      </trkpt>
      <trkpt lat="41.721225" lon="2.572156">
        <ele>93.315</ele>
        <time>2021-05-26T11:07:29Z</time>
      </trkpt>
      <trkpt lat="41.721214" lon="2.572123">
        <ele>93.526</ele>
        <time>2021-05-26T11:07:30Z</time>
      </trkpt>
      <trkpt lat="41.721203" lon="2.572093">
        <ele>93.608</ele>
        <time>2021-05-26T11:07:31Z</time>
      </trkpt>
      <trkpt lat="41.721194" lon="2.572064">
        <ele>93.776</ele>
        <time>2021-05-26T11:07:32Z</time>
      </trkpt>
      <trkpt lat="41.721187" lon="2.572037">
        <ele>93.853</ele>
        <time>2021-05-26T11:07:33Z</time>
      </trkpt>
      <trkpt lat="41.721178" lon="2.572000">
        <ele>94.040</ele>
        <time>2021-05-26T11:07:35Z</time>
      </trkpt>
      <trkpt lat="41.721182" lon="2.571971">
        <ele>94.163</ele>
        <time>2021-05-26T11:07:37Z</time>
      </trkpt>
      <trkpt lat="41.721190" lon="2.571944">
        <ele>94.388</ele>
        <time>2021-05-26T11:07:39Z</time>
      </trkpt>
      <trkpt lat="41.721213" lon="2.571919">
        <ele>94.354</ele>
        <time>2021-05-26T11:07:41Z</time>
      </trkpt>
      <trkpt lat="41.721239" lon="2.571885">
        <ele>94.411</ele>
        <time>2021-05-26T11:07:43Z</time>
      </trkpt>
      <trkpt lat="41.721255" lon="2.571869">
        <ele>94.448</ele>
        <time>2021-05-26T11:07:44Z</time>
      </trkpt>
      <trkpt lat="41.721277" lon="2.571856">
        <ele>94.433</ele>
        <time>2021-05-26T11:07:45Z</time>
      </trkpt>
      <trkpt lat="41.721298" lon="2.571842">
        <ele>94.423</ele>
        <time>2021-05-26T11:07:46Z</time>
      </trkpt>
      <trkpt lat="41.721318" lon="2.571826">
        <ele>94.415</ele>
        <time>2021-05-26T11:07:47Z</time>
      </trkpt>
      <trkpt lat="41.721340" lon="2.571813">
        <ele>94.408</ele>
        <time>2021-05-26T11:07:48Z</time>
      </trkpt>
      <trkpt lat="41.721358" lon="2.571803">
        <ele>94.450</ele>
        <time>2021-05-26T11:07:49Z</time>
      </trkpt>
      <trkpt lat="41.721378" lon="2.571795">
        <ele>94.457</ele>
        <time>2021-05-26T11:07:50Z</time>
      </trkpt>
      <trkpt lat="41.721397" lon="2.571787">
        <ele>94.414</ele>
        <time>2021-05-26T11:07:51Z</time>
      </trkpt>
      <trkpt lat="41.721417" lon="2.571776">
        <ele>94.327</ele>
        <time>2021-05-26T11:07:52Z</time>
      </trkpt>
      <trkpt lat="41.721436" lon="2.571766">
        <ele>94.182</ele>
        <time>2021-05-26T11:07:53Z</time>
      </trkpt>
      <trkpt lat="41.721455" lon="2.571756">
        <ele>94.028</ele>
        <time>2021-05-26T11:07:54Z</time>
      </trkpt>
      <trkpt lat="41.721490" lon="2.571738">
        <ele>93.865</ele>
        <time>2021-05-26T11:07:56Z</time>
      </trkpt>
      <trkpt lat="41.721510" lon="2.571729">
        <ele>93.722</ele>
        <time>2021-05-26T11:07:57Z</time>
      </trkpt>
      <trkpt lat="41.721531" lon="2.571721">
        <ele>93.611</ele>
        <time>2021-05-26T11:07:58Z</time>
      </trkpt>
      <trkpt lat="41.721554" lon="2.571714">
        <ele>93.521</ele>
        <time>2021-05-26T11:07:59Z</time>
      </trkpt>
      <trkpt lat="41.721576" lon="2.571700">
        <ele>93.403</ele>
        <time>2021-05-26T11:08:00Z</time>
      </trkpt>
      <trkpt lat="41.721600" lon="2.571692">
        <ele>93.308</ele>
        <time>2021-05-26T11:08:01Z</time>
      </trkpt>
      <trkpt lat="41.721623" lon="2.571680">
        <ele>93.238</ele>
        <time>2021-05-26T11:08:02Z</time>
      </trkpt>
      <trkpt lat="41.721644" lon="2.571670">
        <ele>93.165</ele>
        <time>2021-05-26T11:08:03Z</time>
      </trkpt>
      <trkpt lat="41.721668" lon="2.571660">
        <ele>92.922</ele>
        <time>2021-05-26T11:08:04Z</time>
      </trkpt>
      <trkpt lat="41.721693" lon="2.571651">
        <ele>92.665</ele>
        <time>2021-05-26T11:08:05Z</time>
      </trkpt>
      <trkpt lat="41.721715" lon="2.571640">
        <ele>92.370</ele>
        <time>2021-05-26T11:08:06Z</time>
      </trkpt>
      <trkpt lat="41.721738" lon="2.571630">
        <ele>92.036</ele>
        <time>2021-05-26T11:08:07Z</time>
      </trkpt>
      <trkpt lat="41.721761" lon="2.571617">
        <ele>91.783</ele>
        <time>2021-05-26T11:08:08Z</time>
      </trkpt>
      <trkpt lat="41.721781" lon="2.571603">
        <ele>91.490</ele>
        <time>2021-05-26T11:08:09Z</time>
      </trkpt>
      <trkpt lat="41.721801" lon="2.571591">
        <ele>91.123</ele>
        <time>2021-05-26T11:08:10Z</time>
      </trkpt>
      <trkpt lat="41.721821" lon="2.571577">
        <ele>90.983</ele>
        <time>2021-05-26T11:08:11Z</time>
      </trkpt>
      <trkpt lat="41.721848" lon="2.571562">
        <ele>90.511</ele>
        <time>2021-05-26T11:08:12Z</time>
      </trkpt>
      <trkpt lat="41.721869" lon="2.571550">
        <ele>90.308</ele>
        <time>2021-05-26T11:08:13Z</time>
      </trkpt>
      <trkpt lat="41.721886" lon="2.571538">
        <ele>90.189</ele>
        <time>2021-05-26T11:08:14Z</time>
      </trkpt>
      <trkpt lat="41.721905" lon="2.571528">
        <ele>89.986</ele>
        <time>2021-05-26T11:08:15Z</time>
      </trkpt>
      <trkpt lat="41.721924" lon="2.571513">
        <ele>89.683</ele>
        <time>2021-05-26T11:08:16Z</time>
      </trkpt>
      <trkpt lat="41.721943" lon="2.571493">
        <ele>89.426</ele>
        <time>2021-05-26T11:08:17Z</time>
      </trkpt>
      <trkpt lat="41.721961" lon="2.571471">
        <ele>89.291</ele>
        <time>2021-05-26T11:08:18Z</time>
      </trkpt>
      <trkpt lat="41.721981" lon="2.571451">
        <ele>89.167</ele>
        <time>2021-05-26T11:08:19Z</time>
      </trkpt>
      <trkpt lat="41.722001" lon="2.571437">
        <ele>88.944</ele>
        <time>2021-05-26T11:08:20Z</time>
      </trkpt>
      <trkpt lat="41.722018" lon="2.571422">
        <ele>88.891</ele>
        <time>2021-05-26T11:08:21Z</time>
      </trkpt>
      <trkpt lat="41.722033" lon="2.571408">
        <ele>88.728</ele>
        <time>2021-05-26T11:08:22Z</time>
      </trkpt>
      <trkpt lat="41.722067" lon="2.571384">
        <ele>88.589</ele>
        <time>2021-05-26T11:08:24Z</time>
      </trkpt>
      <trkpt lat="41.722089" lon="2.571371">
        <ele>88.417</ele>
        <time>2021-05-26T11:08:25Z</time>
      </trkpt>
      <trkpt lat="41.722111" lon="2.571358">
        <ele>88.308</ele>
        <time>2021-05-26T11:08:26Z</time>
      </trkpt>
      <trkpt lat="41.722128" lon="2.571344">
        <ele>88.239</ele>
        <time>2021-05-26T11:08:27Z</time>
      </trkpt>
      <trkpt lat="41.722146" lon="2.571329">
        <ele>88.156</ele>
        <time>2021-05-26T11:08:28Z</time>
      </trkpt>
      <trkpt lat="41.722161" lon="2.571314">
        <ele>88.043</ele>
        <time>2021-05-26T11:08:29Z</time>
      </trkpt>
      <trkpt lat="41.722176" lon="2.571302">
        <ele>87.986</ele>
        <time>2021-05-26T11:08:30Z</time>
      </trkpt>
      <trkpt lat="41.722194" lon="2.571292">
        <ele>87.821</ele>
        <time>2021-05-26T11:08:31Z</time>
      </trkpt>
      <trkpt lat="41.722211" lon="2.571281">
        <ele>87.737</ele>
        <time>2021-05-26T11:08:32Z</time>
      </trkpt>
      <trkpt lat="41.722249" lon="2.571256">
        <ele>87.634</ele>
        <time>2021-05-26T11:08:34Z</time>
      </trkpt>
      <trkpt lat="41.722277" lon="2.571240">
        <ele>87.791</ele>
        <time>2021-05-26T11:08:35Z</time>
      </trkpt>
      <trkpt lat="41.722303" lon="2.571223">
        <ele>87.774</ele>
        <time>2021-05-26T11:08:36Z</time>
      </trkpt>
      <trkpt lat="41.722327" lon="2.571203">
        <ele>87.756</ele>
        <time>2021-05-26T11:08:37Z</time>
      </trkpt>
      <trkpt lat="41.722353" lon="2.571188">
        <ele>87.721</ele>
        <time>2021-05-26T11:08:38Z</time>
      </trkpt>
      <trkpt lat="41.722376" lon="2.571176">
        <ele>87.808</ele>
        <time>2021-05-26T11:08:39Z</time>
      </trkpt>
      <trkpt lat="41.722398" lon="2.571162">
        <ele>87.864</ele>
        <time>2021-05-26T11:08:40Z</time>
      </trkpt>
      <trkpt lat="41.722421" lon="2.571150">
        <ele>87.991</ele>
        <time>2021-05-26T11:08:41Z</time>
      </trkpt>
      <trkpt lat="41.722443" lon="2.571142">
        <ele>87.968</ele>
        <time>2021-05-26T11:08:42Z</time>
      </trkpt>
      <trkpt lat="41.722464" lon="2.571128">
        <ele>87.981</ele>
        <time>2021-05-26T11:08:43Z</time>
      </trkpt>
      <trkpt lat="41.722486" lon="2.571113">
        <ele>88.036</ele>
        <time>2021-05-26T11:08:44Z</time>
      </trkpt>
      <trkpt lat="41.722504" lon="2.571095">
        <ele>87.832</ele>
        <time>2021-05-26T11:08:45Z</time>
      </trkpt>
      <trkpt lat="41.722526" lon="2.571078">
        <ele>87.459</ele>
        <time>2021-05-26T11:08:46Z</time>
      </trkpt>
      <trkpt lat="41.722546" lon="2.571056">
        <ele>86.996</ele>
        <time>2021-05-26T11:08:47Z</time>
      </trkpt>
      <trkpt lat="41.722567" lon="2.571038">
        <ele>86.564</ele>
        <time>2021-05-26T11:08:48Z</time>
      </trkpt>
      <trkpt lat="41.722587" lon="2.571017">
        <ele>86.206</ele>
        <time>2021-05-26T11:08:49Z</time>
      </trkpt>
      <trkpt lat="41.722611" lon="2.570999">
        <ele>85.816</ele>
        <time>2021-05-26T11:08:50Z</time>
      </trkpt>
      <trkpt lat="41.722636" lon="2.570984">
        <ele>85.408</ele>
        <time>2021-05-26T11:08:51Z</time>
      </trkpt>
      <trkpt lat="41.722659" lon="2.570969">
        <ele>85.033</ele>
        <time>2021-05-26T11:08:52Z</time>
      </trkpt>
      <trkpt lat="41.722681" lon="2.570950">
        <ele>84.710</ele>
        <time>2021-05-26T11:08:53Z</time>
      </trkpt>
      <trkpt lat="41.722697" lon="2.570927">
        <ele>84.467</ele>
        <time>2021-05-26T11:08:54Z</time>
      </trkpt>
      <trkpt lat="41.722715" lon="2.570902">
        <ele>84.010</ele>
        <time>2021-05-26T11:08:55Z</time>
      </trkpt>
      <trkpt lat="41.722735" lon="2.570880">
        <ele>83.755</ele>
        <time>2021-05-26T11:08:56Z</time>
      </trkpt>
      <trkpt lat="41.722753" lon="2.570860">
        <ele>83.411</ele>
        <time>2021-05-26T11:08:57Z</time>
      </trkpt>
      <trkpt lat="41.722770" lon="2.570837">
        <ele>83.148</ele>
        <time>2021-05-26T11:08:58Z</time>
      </trkpt>
      <trkpt lat="41.722789" lon="2.570814">
        <ele>82.795</ele>
        <time>2021-05-26T11:08:59Z</time>
      </trkpt>
      <trkpt lat="41.722809" lon="2.570786">
        <ele>82.333</ele>
        <time>2021-05-26T11:09:00Z</time>
      </trkpt>
      <trkpt lat="41.722824" lon="2.570759">
        <ele>82.023</ele>
        <time>2021-05-26T11:09:01Z</time>
      </trkpt>
      <trkpt lat="41.722844" lon="2.570731">
        <ele>81.615</ele>
        <time>2021-05-26T11:09:02Z</time>
      </trkpt>
      <trkpt lat="41.722869" lon="2.570707">
        <ele>81.308</ele>
        <time>2021-05-26T11:09:03Z</time>
      </trkpt>
      <trkpt lat="41.722891" lon="2.570685">
        <ele>80.970</ele>
        <time>2021-05-26T11:09:04Z</time>
      </trkpt>
      <trkpt lat="41.722912" lon="2.570662">
        <ele>80.667</ele>
        <time>2021-05-26T11:09:05Z</time>
      </trkpt>
      <trkpt lat="41.722936" lon="2.570640">
        <ele>80.384</ele>
        <time>2021-05-26T11:09:06Z</time>
      </trkpt>
      <trkpt lat="41.722957" lon="2.570620">
        <ele>80.037</ele>
        <time>2021-05-26T11:09:07Z</time>
      </trkpt>
      <trkpt lat="41.722980" lon="2.570599">
        <ele>79.792</ele>
        <time>2021-05-26T11:09:08Z</time>
      </trkpt>
      <trkpt lat="41.723000" lon="2.570577">
        <ele>79.558</ele>
        <time>2021-05-26T11:09:09Z</time>
      </trkpt>
      <trkpt lat="41.723020" lon="2.570558">
        <ele>79.335</ele>
        <time>2021-05-26T11:09:10Z</time>
      </trkpt>
      <trkpt lat="41.723042" lon="2.570537">
        <ele>79.172</ele>
        <time>2021-05-26T11:09:11Z</time>
      </trkpt>
      <trkpt lat="41.723061" lon="2.570516">
        <ele>79.023</ele>
        <time>2021-05-26T11:09:12Z</time>
      </trkpt>
      <trkpt lat="41.723082" lon="2.570494">
        <ele>79.083</ele>
        <time>2021-05-26T11:09:13Z</time>
      </trkpt>
      <trkpt lat="41.723101" lon="2.570471">
        <ele>79.011</ele>
        <time>2021-05-26T11:09:14Z</time>
      </trkpt>
      <trkpt lat="41.723122" lon="2.570450">
        <ele>79.008</ele>
        <time>2021-05-26T11:09:15Z</time>
      </trkpt>
      <trkpt lat="41.723140" lon="2.570427">
        <ele>79.079</ele>
        <time>2021-05-26T11:09:16Z</time>
      </trkpt>
      <trkpt lat="41.723160" lon="2.570404">
        <ele>79.016</ele>
        <time>2021-05-26T11:09:17Z</time>
      </trkpt>
      <trkpt lat="41.723180" lon="2.570381">
        <ele>79.023</ele>
        <time>2021-05-26T11:09:18Z</time>
      </trkpt>
      <trkpt lat="41.723197" lon="2.570358">
        <ele>79.096</ele>
        <time>2021-05-26T11:09:19Z</time>
      </trkpt>
      <trkpt lat="41.723214" lon="2.570335">
        <ele>79.081</ele>
        <time>2021-05-26T11:09:20Z</time>
      </trkpt>
      <trkpt lat="41.723232" lon="2.570315">
        <ele>79.087</ele>
        <time>2021-05-26T11:09:21Z</time>
      </trkpt>
      <trkpt lat="41.723251" lon="2.570295">
        <ele>79.024</ele>
        <time>2021-05-26T11:09:22Z</time>
      </trkpt>
      <trkpt lat="41.723271" lon="2.570275">
        <ele>79.041</ele>
        <time>2021-05-26T11:09:23Z</time>
      </trkpt>
      <trkpt lat="41.723292" lon="2.570256">
        <ele>79.088</ele>
        <time>2021-05-26T11:09:24Z</time>
      </trkpt>
      <trkpt lat="41.723314" lon="2.570235">
        <ele>79.024</ele>
        <time>2021-05-26T11:09:25Z</time>
      </trkpt>
      <trkpt lat="41.723335" lon="2.570214">
        <ele>79.026</ele>
        <time>2021-05-26T11:09:26Z</time>
      </trkpt>
      <trkpt lat="41.723353" lon="2.570194">
        <ele>79.108</ele>
        <time>2021-05-26T11:09:27Z</time>
      </trkpt>
      <trkpt lat="41.723370" lon="2.570174">
        <ele>79.275</ele>
        <time>2021-05-26T11:09:28Z</time>
      </trkpt>
      <trkpt lat="41.723389" lon="2.570153">
        <ele>79.362</ele>
        <time>2021-05-26T11:09:29Z</time>
      </trkpt>
      <trkpt lat="41.723410" lon="2.570131">
        <ele>79.419</ele>
        <time>2021-05-26T11:09:30Z</time>
      </trkpt>
      <trkpt lat="41.723433" lon="2.570109">
        <ele>79.672</ele>
        <time>2021-05-26T11:09:31Z</time>
      </trkpt>
      <trkpt lat="41.723452" lon="2.570088">
        <ele>79.737</ele>
        <time>2021-05-26T11:09:32Z</time>
      </trkpt>
      <trkpt lat="41.723473" lon="2.570069">
        <ele>79.913</ele>
        <time>2021-05-26T11:09:33Z</time>
      </trkpt>
      <trkpt lat="41.723490" lon="2.570048">
        <ele>80.050</ele>
        <time>2021-05-26T11:09:34Z</time>
      </trkpt>
      <trkpt lat="41.723508" lon="2.570029">
        <ele>80.287</ele>
        <time>2021-05-26T11:09:35Z</time>
      </trkpt>
      <trkpt lat="41.723523" lon="2.570008">
        <ele>80.399</ele>
        <time>2021-05-26T11:09:36Z</time>
      </trkpt>
      <trkpt lat="41.723542" lon="2.569987">
        <ele>80.607</ele>
        <time>2021-05-26T11:09:37Z</time>
      </trkpt>
      <trkpt lat="41.723560" lon="2.569968">
        <ele>80.827</ele>
        <time>2021-05-26T11:09:38Z</time>
      </trkpt>
      <trkpt lat="41.723580" lon="2.569950">
        <ele>81.008</ele>
        <time>2021-05-26T11:09:39Z</time>
      </trkpt>
      <trkpt lat="41.723602" lon="2.569929">
        <ele>81.276</ele>
        <time>2021-05-26T11:09:40Z</time>
      </trkpt>
      <trkpt lat="41.723622" lon="2.569909">
        <ele>81.413</ele>
        <time>2021-05-26T11:09:41Z</time>
      </trkpt>
      <trkpt lat="41.723642" lon="2.569890">
        <ele>81.550</ele>
        <time>2021-05-26T11:09:42Z</time>
      </trkpt>
      <trkpt lat="41.723663" lon="2.569873">
        <ele>81.673</ele>
        <time>2021-05-26T11:09:43Z</time>
      </trkpt>
      <trkpt lat="41.723685" lon="2.569860">
        <ele>81.658</ele>
        <time>2021-05-26T11:09:44Z</time>
      </trkpt>
      <trkpt lat="41.723705" lon="2.569848">
        <ele>81.754</ele>
        <time>2021-05-26T11:09:45Z</time>
      </trkpt>
      <trkpt lat="41.723722" lon="2.569832">
        <ele>81.821</ele>
        <time>2021-05-26T11:09:46Z</time>
      </trkpt>
      <trkpt lat="41.723742" lon="2.569817">
        <ele>81.878</ele>
        <time>2021-05-26T11:09:47Z</time>
      </trkpt>
      <trkpt lat="41.723765" lon="2.569804">
        <ele>81.986</ele>
        <time>2021-05-26T11:09:48Z</time>
      </trkpt>
      <trkpt lat="41.723784" lon="2.569792">
        <ele>81.960</ele>
        <time>2021-05-26T11:09:49Z</time>
      </trkpt>
      <trkpt lat="41.723800" lon="2.569783">
        <ele>81.926</ele>
        <time>2021-05-26T11:09:50Z</time>
      </trkpt>
      <trkpt lat="41.723820" lon="2.569780">
        <ele>81.908</ele>
        <time>2021-05-26T11:09:51Z</time>
      </trkpt>
      <trkpt lat="41.723843" lon="2.569776">
        <ele>82.025</ele>
        <time>2021-05-26T11:09:52Z</time>
      </trkpt>
      <trkpt lat="41.723865" lon="2.569775">
        <ele>82.072</ele>
        <time>2021-05-26T11:09:53Z</time>
      </trkpt>
      <trkpt lat="41.723888" lon="2.569773">
        <ele>82.089</ele>
        <time>2021-05-26T11:09:54Z</time>
      </trkpt>
      <trkpt lat="41.723911" lon="2.569770">
        <ele>82.012</ele>
        <time>2021-05-26T11:09:55Z</time>
      </trkpt>
      <trkpt lat="41.723936" lon="2.569768">
        <ele>82.047</ele>
        <time>2021-05-26T11:09:56Z</time>
      </trkpt>
      <trkpt lat="41.723960" lon="2.569765">
        <ele>82.053</ele>
        <time>2021-05-26T11:09:57Z</time>
      </trkpt>
      <trkpt lat="41.723987" lon="2.569766">
        <ele>81.910</ele>
        <time>2021-05-26T11:09:58Z</time>
      </trkpt>
      <trkpt lat="41.724012" lon="2.569769">
        <ele>81.987</ele>
        <time>2021-05-26T11:09:59Z</time>
      </trkpt>
      <trkpt lat="41.724037" lon="2.569773">
        <ele>81.976</ele>
        <time>2021-05-26T11:10:00Z</time>
      </trkpt>
      <trkpt lat="41.724061" lon="2.569778">
        <ele>81.990</ele>
        <time>2021-05-26T11:10:01Z</time>
      </trkpt>
      <trkpt lat="41.724085" lon="2.569781">
        <ele>81.919</ele>
        <time>2021-05-26T11:10:02Z</time>
      </trkpt>
      <trkpt lat="41.724109" lon="2.569782">
        <ele>81.808</ele>
        <time>2021-05-26T11:10:03Z</time>
      </trkpt>
      <trkpt lat="41.724131" lon="2.569782">
        <ele>81.884</ele>
        <time>2021-05-26T11:10:04Z</time>
      </trkpt>
      <trkpt lat="41.724157" lon="2.569784">
        <ele>81.881</ele>
        <time>2021-05-26T11:10:05Z</time>
      </trkpt>
      <trkpt lat="41.724180" lon="2.569784">
        <ele>81.878</ele>
        <time>2021-05-26T11:10:06Z</time>
      </trkpt>
      <trkpt lat="41.724203" lon="2.569784">
        <ele>81.911</ele>
        <time>2021-05-26T11:10:07Z</time>
      </trkpt>
      <trkpt lat="41.724228" lon="2.569785">
        <ele>82.036</ele>
        <time>2021-05-26T11:10:08Z</time>
      </trkpt>
      <trkpt lat="41.724253" lon="2.569785">
        <ele>82.182</ele>
        <time>2021-05-26T11:10:09Z</time>
      </trkpt>
      <trkpt lat="41.724279" lon="2.569784">
        <ele>82.219</ele>
        <time>2021-05-26T11:10:10Z</time>
      </trkpt>
      <trkpt lat="41.724304" lon="2.569784">
        <ele>82.396</ele>
        <time>2021-05-26T11:10:11Z</time>
      </trkpt>
      <trkpt lat="41.724330" lon="2.569787">
        <ele>82.436</ele>
        <time>2021-05-26T11:10:12Z</time>
      </trkpt>
      <trkpt lat="41.724353" lon="2.569790">
        <ele>82.417</ele>
        <time>2021-05-26T11:10:13Z</time>
      </trkpt>
      <trkpt lat="41.724378" lon="2.569790">
        <ele>82.518</ele>
        <time>2021-05-26T11:10:14Z</time>
      </trkpt>
      <trkpt lat="41.724401" lon="2.569791">
        <ele>82.608</ele>
        <time>2021-05-26T11:10:15Z</time>
      </trkpt>
      <trkpt lat="41.724422" lon="2.569787">
        <ele>82.750</ele>
        <time>2021-05-26T11:10:16Z</time>
      </trkpt>
      <trkpt lat="41.724445" lon="2.569783">
        <ele>82.827</ele>
        <time>2021-05-26T11:10:17Z</time>
      </trkpt>
      <trkpt lat="41.724467" lon="2.569780">
        <ele>83.074</ele>
        <time>2021-05-26T11:10:18Z</time>
      </trkpt>
      <trkpt lat="41.724488" lon="2.569767">
        <ele>83.337</ele>
        <time>2021-05-26T11:10:19Z</time>
      </trkpt>
      <trkpt lat="41.724505" lon="2.569759">
        <ele>83.532</ele>
        <time>2021-05-26T11:10:20Z</time>
      </trkpt>
      <trkpt lat="41.724528" lon="2.569749">
        <ele>83.828</ele>
        <time>2021-05-26T11:10:22Z</time>
      </trkpt>
      <trkpt lat="41.724549" lon="2.569759">
        <ele>84.065</ele>
        <time>2021-05-26T11:10:24Z</time>
      </trkpt>
      <trkpt lat="41.724570" lon="2.569794">
        <ele>84.132</ele>
        <time>2021-05-26T11:10:26Z</time>
      </trkpt>
      <trkpt lat="41.724598" lon="2.569820">
        <ele>84.337</ele>
        <time>2021-05-26T11:10:28Z</time>
      </trkpt>
      <trkpt lat="41.724629" lon="2.569845">
        <ele>84.649</ele>
        <time>2021-05-26T11:10:30Z</time>
      </trkpt>
      <trkpt lat="41.724648" lon="2.569862">
        <ele>84.713</ele>
        <time>2021-05-26T11:10:31Z</time>
      </trkpt>
      <trkpt lat="41.724666" lon="2.569880">
        <ele>84.808</ele>
        <time>2021-05-26T11:10:32Z</time>
      </trkpt>
      <trkpt lat="41.724686" lon="2.569899">
        <ele>85.010</ele>
        <time>2021-05-26T11:10:33Z</time>
      </trkpt>
      <trkpt lat="41.724704" lon="2.569920">
        <ele>85.127</ele>
        <time>2021-05-26T11:10:34Z</time>
      </trkpt>
      <trkpt lat="41.724721" lon="2.569942">
        <ele>85.274</ele>
        <time>2021-05-26T11:10:35Z</time>
      </trkpt>
      <trkpt lat="41.724737" lon="2.569965">
        <ele>85.287</ele>
        <time>2021-05-26T11:10:36Z</time>
      </trkpt>
      <trkpt lat="41.724750" lon="2.569992">
        <ele>85.262</ele>
        <time>2021-05-26T11:10:37Z</time>
      </trkpt>
      <trkpt lat="41.724762" lon="2.570020">
        <ele>85.228</ele>
        <time>2021-05-26T11:10:38Z</time>
      </trkpt>
      <trkpt lat="41.724774" lon="2.570048">
        <ele>85.275</ele>
        <time>2021-05-26T11:10:39Z</time>
      </trkpt>
      <trkpt lat="41.724788" lon="2.570076">
        <ele>85.352</ele>
        <time>2021-05-26T11:10:40Z</time>
      </trkpt>
      <trkpt lat="41.724801" lon="2.570102">
        <ele>85.312</ele>
        <time>2021-05-26T11:10:41Z</time>
      </trkpt>
      <trkpt lat="41.724815" lon="2.570129">
        <ele>85.432</ele>
        <time>2021-05-26T11:10:42Z</time>
      </trkpt>
      <trkpt lat="41.724826" lon="2.570160">
        <ele>85.405</ele>
        <time>2021-05-26T11:10:43Z</time>
      </trkpt>
      <trkpt lat="41.724839" lon="2.570189">
        <ele>85.408</ele>
        <time>2021-05-26T11:10:44Z</time>
      </trkpt>
      <trkpt lat="41.724850" lon="2.570217">
        <ele>85.538</ele>
        <time>2021-05-26T11:10:45Z</time>
      </trkpt>
      <trkpt lat="41.724863" lon="2.570244">
        <ele>85.685</ele>
        <time>2021-05-26T11:10:46Z</time>
      </trkpt>
      <trkpt lat="41.724875" lon="2.570273">
        <ele>85.792</ele>
        <time>2021-05-26T11:10:47Z</time>
      </trkpt>
      <trkpt lat="41.724889" lon="2.570301">
        <ele>85.915</ele>
        <time>2021-05-26T11:10:48Z</time>
      </trkpt>
      <trkpt lat="41.724902" lon="2.570328">
        <ele>86.190</ele>
        <time>2021-05-26T11:10:49Z</time>
      </trkpt>
      <trkpt lat="41.724913" lon="2.570358">
        <ele>86.396</ele>
        <time>2021-05-26T11:10:50Z</time>
      </trkpt>
      <trkpt lat="41.724924" lon="2.570388">
        <ele>86.513</ele>
        <time>2021-05-26T11:10:51Z</time>
      </trkpt>
      <trkpt lat="41.724934" lon="2.570419">
        <ele>86.740</ele>
        <time>2021-05-26T11:10:52Z</time>
      </trkpt>
      <trkpt lat="41.724944" lon="2.570449">
        <ele>86.963</ele>
        <time>2021-05-26T11:10:53Z</time>
      </trkpt>
      <trkpt lat="41.724955" lon="2.570477">
        <ele>87.144</ele>
        <time>2021-05-26T11:10:54Z</time>
      </trkpt>
      <trkpt lat="41.724966" lon="2.570507">
        <ele>87.418</ele>
        <time>2021-05-26T11:10:55Z</time>
      </trkpt>
      <trkpt lat="41.724977" lon="2.570539">
        <ele>87.608</ele>
        <time>2021-05-26T11:10:56Z</time>
      </trkpt>
      <trkpt lat="41.724988" lon="2.570570">
        <ele>87.973</ele>
        <time>2021-05-26T11:10:57Z</time>
      </trkpt>
      <trkpt lat="41.724997" lon="2.570602">
        <ele>88.140</ele>
        <time>2021-05-26T11:10:58Z</time>
      </trkpt>
      <trkpt lat="41.725005" lon="2.570632">
        <ele>88.367</ele>
        <time>2021-05-26T11:10:59Z</time>
      </trkpt>
      <trkpt lat="41.725018" lon="2.570659">
        <ele>88.460</ele>
        <time>2021-05-26T11:11:00Z</time>
      </trkpt>
      <trkpt lat="41.725032" lon="2.570682">
        <ele>88.595</ele>
        <time>2021-05-26T11:11:01Z</time>
      </trkpt>
      <trkpt lat="41.725049" lon="2.570700">
        <ele>88.671</ele>
        <time>2021-05-26T11:11:02Z</time>
      </trkpt>
      <trkpt lat="41.725064" lon="2.570724">
        <ele>88.778</ele>
        <time>2021-05-26T11:11:03Z</time>
      </trkpt>
      <trkpt lat="41.725093" lon="2.570731">
        <ele>88.865</ele>
        <time>2021-05-26T11:11:05Z</time>
      </trkpt>
      <trkpt lat="41.725102" lon="2.570753">
        <ele>89.034</ele>
        <time>2021-05-26T11:11:08Z</time>
      </trkpt>
      <trkpt lat="41.725121" lon="2.570770">
        <ele>89.155</ele>
        <time>2021-05-26T11:11:11Z</time>
      </trkpt>
      <trkpt lat="41.725138" lon="2.570780">
        <ele>89.210</ele>
        <time>2021-05-26T11:11:13Z</time>
      </trkpt>
      <trkpt lat="41.725175" lon="2.570768">
        <ele>89.208</ele>
        <time>2021-05-26T11:11:15Z</time>
      </trkpt>
      <trkpt lat="41.725196" lon="2.570758">
        <ele>89.240</ele>
        <time>2021-05-26T11:11:16Z</time>
      </trkpt>
      <trkpt lat="41.725218" lon="2.570747">
        <ele>89.277</ele>
        <time>2021-05-26T11:11:17Z</time>
      </trkpt>
      <trkpt lat="41.725240" lon="2.570733">
        <ele>89.264</ele>
        <time>2021-05-26T11:11:18Z</time>
      </trkpt>
      <trkpt lat="41.725259" lon="2.570719">
        <ele>89.127</ele>
        <time>2021-05-26T11:11:19Z</time>
      </trkpt>
      <trkpt lat="41.725283" lon="2.570709">
        <ele>89.172</ele>
        <time>2021-05-26T11:11:20Z</time>
      </trkpt>
      <trkpt lat="41.725308" lon="2.570697">
        <ele>89.018</ele>
        <time>2021-05-26T11:11:21Z</time>
      </trkpt>
      <trkpt lat="41.725335" lon="2.570687">
        <ele>88.845</ele>
        <time>2021-05-26T11:11:22Z</time>
      </trkpt>
      <trkpt lat="41.725364" lon="2.570676">
        <ele>88.732</ele>
        <time>2021-05-26T11:11:23Z</time>
      </trkpt>
      <trkpt lat="41.725392" lon="2.570665">
        <ele>88.666</ele>
        <time>2021-05-26T11:11:24Z</time>
      </trkpt>
      <trkpt lat="41.725418" lon="2.570655">
        <ele>88.529</ele>
        <time>2021-05-26T11:11:25Z</time>
      </trkpt>
      <trkpt lat="41.725442" lon="2.570645">
        <ele>88.521</ele>
        <time>2021-05-26T11:11:26Z</time>
      </trkpt>
      <trkpt lat="41.725468" lon="2.570634">
        <ele>88.408</ele>
        <time>2021-05-26T11:11:27Z</time>
      </trkpt>
      <trkpt lat="41.725488" lon="2.570623">
        <ele>88.343</ele>
        <time>2021-05-26T11:11:28Z</time>
      </trkpt>
      <trkpt lat="41.725512" lon="2.570612">
        <ele>88.220</ele>
        <time>2021-05-26T11:11:29Z</time>
      </trkpt>
      <trkpt lat="41.725534" lon="2.570604">
        <ele>88.297</ele>
        <time>2021-05-26T11:11:30Z</time>
      </trkpt>
      <trkpt lat="41.725557" lon="2.570594">
        <ele>88.110</ele>
        <time>2021-05-26T11:11:31Z</time>
      </trkpt>
      <trkpt lat="41.725580" lon="2.570586">
        <ele>88.095</ele>
        <time>2021-05-26T11:11:32Z</time>
      </trkpt>
      <trkpt lat="41.725605" lon="2.570581">
        <ele>87.991</ele>
        <time>2021-05-26T11:11:33Z</time>
      </trkpt>
      <trkpt lat="41.725632" lon="2.570578">
        <ele>87.858</ele>
        <time>2021-05-26T11:11:34Z</time>
      </trkpt>
      <trkpt lat="41.725660" lon="2.570575">
        <ele>87.715</ele>
        <time>2021-05-26T11:11:35Z</time>
      </trkpt>
      <trkpt lat="41.725684" lon="2.570569">
        <ele>87.641</ele>
        <time>2021-05-26T11:11:36Z</time>
      </trkpt>
      <trkpt lat="41.725709" lon="2.570563">
        <ele>87.581</ele>
        <time>2021-05-26T11:11:37Z</time>
      </trkpt>
      <trkpt lat="41.725733" lon="2.570559">
        <ele>87.409</ele>
        <time>2021-05-26T11:11:38Z</time>
      </trkpt>
      <trkpt lat="41.725760" lon="2.570567">
        <ele>87.308</ele>
        <time>2021-05-26T11:11:39Z</time>
      </trkpt>
      <trkpt lat="41.725785" lon="2.570580">
        <ele>87.241</ele>
        <time>2021-05-26T11:11:40Z</time>
      </trkpt>
      <trkpt lat="41.725807" lon="2.570594">
        <ele>87.178</ele>
        <time>2021-05-26T11:11:41Z</time>
      </trkpt>
      <trkpt lat="41.725829" lon="2.570612">
        <ele>87.055</ele>
        <time>2021-05-26T11:11:42Z</time>
      </trkpt>
      <trkpt lat="41.725852" lon="2.570627">
        <ele>86.938</ele>
        <time>2021-05-26T11:11:43Z</time>
      </trkpt>
      <trkpt lat="41.725872" lon="2.570641">
        <ele>86.823</ele>
        <time>2021-05-26T11:11:44Z</time>
      </trkpt>
      <trkpt lat="41.725895" lon="2.570641">
        <ele>86.629</ele>
        <time>2021-05-26T11:11:45Z</time>
      </trkpt>
      <trkpt lat="41.725916" lon="2.570650">
        <ele>86.596</ele>
        <time>2021-05-26T11:11:46Z</time>
      </trkpt>
      <trkpt lat="41.725937" lon="2.570676">
        <ele>86.453</ele>
        <time>2021-05-26T11:11:47Z</time>
      </trkpt>
      <trkpt lat="41.725953" lon="2.570698">
        <ele>86.478</ele>
        <time>2021-05-26T11:11:48Z</time>
      </trkpt>
      <trkpt lat="41.725982" lon="2.570754">
        <ele>86.333</ele>
        <time>2021-05-26T11:11:50Z</time>
      </trkpt>
      <trkpt lat="41.725998" lon="2.570777">
        <ele>86.326</ele>
        <time>2021-05-26T11:11:51Z</time>
      </trkpt>
      <trkpt lat="41.726014" lon="2.570801">
        <ele>86.308</ele>
        <time>2021-05-26T11:11:52Z</time>
      </trkpt>
      <trkpt lat="41.726029" lon="2.570829">
        <ele>86.334</ele>
        <time>2021-05-26T11:11:53Z</time>
      </trkpt>
      <trkpt lat="41.726044" lon="2.570858">
        <ele>86.421</ele>
        <time>2021-05-26T11:11:54Z</time>
      </trkpt>
      <trkpt lat="41.726056" lon="2.570891">
        <ele>86.518</ele>
        <time>2021-05-26T11:11:55Z</time>
      </trkpt>
      <trkpt lat="41.726070" lon="2.570923">
        <ele>86.661</ele>
        <time>2021-05-26T11:11:56Z</time>
      </trkpt>
      <trkpt lat="41.726081" lon="2.570954">
        <ele>86.686</ele>
        <time>2021-05-26T11:11:57Z</time>
      </trkpt>
      <trkpt lat="41.726092" lon="2.570985">
        <ele>86.742</ele>
        <time>2021-05-26T11:11:58Z</time>
      </trkpt>
      <trkpt lat="41.726097" lon="2.571020">
        <ele>86.869</ele>
        <time>2021-05-26T11:11:59Z</time>
      </trkpt>
      <trkpt lat="41.726096" lon="2.571089">
        <ele>87.126</ele>
        <time>2021-05-26T11:12:01Z</time>
      </trkpt>
      <trkpt lat="41.726105" lon="2.571121">
        <ele>87.187</ele>
        <time>2021-05-26T11:12:02Z</time>
      </trkpt>
      <trkpt lat="41.726113" lon="2.571152">
        <ele>87.042</ele>
        <time>2021-05-26T11:12:03Z</time>
      </trkpt>
      <trkpt lat="41.726124" lon="2.571183">
        <ele>86.926</ele>
        <time>2021-05-26T11:12:04Z</time>
      </trkpt>
      <trkpt lat="41.726134" lon="2.571219">
        <ele>86.808</ele>
        <time>2021-05-26T11:12:05Z</time>
      </trkpt>
      <trkpt lat="41.726146" lon="2.571251">
        <ele>86.735</ele>
        <time>2021-05-26T11:12:06Z</time>
      </trkpt>
      <trkpt lat="41.726156" lon="2.571282">
        <ele>86.762</ele>
        <time>2021-05-26T11:12:07Z</time>
      </trkpt>
      <trkpt lat="41.726167" lon="2.571311">
        <ele>86.699</ele>
        <time>2021-05-26T11:12:08Z</time>
      </trkpt>
      <trkpt lat="41.726183" lon="2.571336">
        <ele>86.562</ele>
        <time>2021-05-26T11:12:09Z</time>
      </trkpt>
      <trkpt lat="41.726205" lon="2.571354">
        <ele>86.337</ele>
        <time>2021-05-26T11:12:10Z</time>
      </trkpt>
      <trkpt lat="41.726227" lon="2.571353">
        <ele>86.263</ele>
        <time>2021-05-26T11:12:11Z</time>
      </trkpt>
      <trkpt lat="41.726252" lon="2.571332">
        <ele>86.050</ele>
        <time>2021-05-26T11:12:12Z</time>
      </trkpt>
      <trkpt lat="41.726273" lon="2.571311">
        <ele>85.837</ele>
        <time>2021-05-26T11:12:13Z</time>
      </trkpt>
      <trkpt lat="41.726378" lon="2.571261">
        <ele>85.136</ele>
        <time>2021-05-26T11:12:17Z</time>
      </trkpt>
      <trkpt lat="41.726469" lon="2.571242">
        <ele>85.317</ele>
        <time>2021-05-26T11:12:20Z</time>
      </trkpt>
      <trkpt lat="41.726566" lon="2.571219">
        <ele>85.618</ele>
        <time>2021-05-26T11:12:24Z</time>
      </trkpt>
      <trkpt lat="41.726663" lon="2.571171">
        <ele>86.008</ele>
        <time>2021-05-26T11:12:28Z</time>
      </trkpt>
      <trkpt lat="41.726756" lon="2.571099">
        <ele>85.660</ele>
        <time>2021-05-26T11:12:32Z</time>
      </trkpt>
      <trkpt lat="41.726780" lon="2.571084">
        <ele>85.567</ele>
        <time>2021-05-26T11:12:33Z</time>
      </trkpt>
      <trkpt lat="41.726810" lon="2.571070">
        <ele>85.494</ele>
        <time>2021-05-26T11:12:34Z</time>
      </trkpt>
      <trkpt lat="41.726834" lon="2.571055">
        <ele>85.357</ele>
        <time>2021-05-26T11:12:35Z</time>
      </trkpt>
      <trkpt lat="41.726860" lon="2.571041">
        <ele>85.272</ele>
        <time>2021-05-26T11:12:36Z</time>
      </trkpt>
      <trkpt lat="41.726883" lon="2.571027">
        <ele>85.248</ele>
        <time>2021-05-26T11:12:37Z</time>
      </trkpt>
      <trkpt lat="41.726907" lon="2.571013">
        <ele>85.135</ele>
        <time>2021-05-26T11:12:38Z</time>
      </trkpt>
      <trkpt lat="41.726933" lon="2.571001">
        <ele>85.032</ele>
        <time>2021-05-26T11:12:39Z</time>
      </trkpt>
      <trkpt lat="41.726955" lon="2.570993">
        <ele>85.034</ele>
        <time>2021-05-26T11:12:40Z</time>
      </trkpt>
      <trkpt lat="41.726978" lon="2.570985">
        <ele>84.955</ele>
        <time>2021-05-26T11:12:41Z</time>
      </trkpt>
      <trkpt lat="41.726999" lon="2.570979">
        <ele>84.810</ele>
        <time>2021-05-26T11:12:42Z</time>
      </trkpt>
      <trkpt lat="41.727030" lon="2.570967">
        <ele>84.708</ele>
        <time>2021-05-26T11:12:44Z</time>
      </trkpt>
      <trkpt lat="41.727060" lon="2.570955">
        <ele>84.680</ele>
        <time>2021-05-26T11:12:46Z</time>
      </trkpt>
      <trkpt lat="41.727078" lon="2.570949">
        <ele>84.587</ele>
        <time>2021-05-26T11:12:47Z</time>
      </trkpt>
      <trkpt lat="41.727099" lon="2.570944">
        <ele>84.424</ele>
        <time>2021-05-26T11:12:48Z</time>
      </trkpt>
      <trkpt lat="41.727164" lon="2.570850">
        <ele>84.267</ele>
        <time>2021-05-26T11:12:54Z</time>
      </trkpt>
      <trkpt lat="41.727225" lon="2.570757">
        <ele>83.712</ele>
        <time>2021-05-26T11:12:57Z</time>
      </trkpt>
      <trkpt lat="41.727297" lon="2.570651">
        <ele>83.338</ele>
        <time>2021-05-26T11:13:01Z</time>
      </trkpt>
      <trkpt lat="41.727364" lon="2.570541">
        <ele>82.975</ele>
        <time>2021-05-26T11:13:04Z</time>
      </trkpt>
      <trkpt lat="41.727370" lon="2.570506">
        <ele>82.872</ele>
        <time>2021-05-26T11:13:06Z</time>
      </trkpt>
      <trkpt lat="41.727378" lon="2.570469">
        <ele>82.779</ele>
        <time>2021-05-26T11:13:08Z</time>
      </trkpt>
      <trkpt lat="41.727368" lon="2.570429">
        <ele>82.505</ele>
        <time>2021-05-26T11:13:10Z</time>
      </trkpt>
      <trkpt lat="41.727358" lon="2.570388">
        <ele>82.425</ele>
        <time>2021-05-26T11:13:12Z</time>
      </trkpt>
      <trkpt lat="41.727346" lon="2.570346">
        <ele>82.308</ele>
        <time>2021-05-26T11:13:14Z</time>
      </trkpt>
      <trkpt lat="41.727337" lon="2.570304">
        <ele>82.344</ele>
        <time>2021-05-26T11:13:16Z</time>
      </trkpt>
      <trkpt lat="41.727324" lon="2.570267">
        <ele>82.211</ele>
        <time>2021-05-26T11:13:18Z</time>
      </trkpt>
      <trkpt lat="41.727313" lon="2.570230">
        <ele>82.288</ele>
        <time>2021-05-26T11:13:20Z</time>
      </trkpt>
      <trkpt lat="41.727302" lon="2.570193">
        <ele>82.211</ele>
        <time>2021-05-26T11:13:22Z</time>
      </trkpt>
      <trkpt lat="41.727294" lon="2.570158">
        <ele>82.246</ele>
        <time>2021-05-26T11:13:24Z</time>
      </trkpt>
      <trkpt lat="41.727285" lon="2.570122">
        <ele>82.152</ele>
        <time>2021-05-26T11:13:26Z</time>
      </trkpt>
      <trkpt lat="41.727272" lon="2.570080">
        <ele>82.119</ele>
        <time>2021-05-26T11:13:28Z</time>
      </trkpt>
      <trkpt lat="41.727264" lon="2.570058">
        <ele>82.016</ele>
        <time>2021-05-26T11:13:29Z</time>
      </trkpt>
      <trkpt lat="41.727252" lon="2.570018">
        <ele>82.016</ele>
        <time>2021-05-26T11:13:31Z</time>
      </trkpt>
      <trkpt lat="41.727243" lon="2.569975">
        <ele>81.976</ele>
        <time>2021-05-26T11:13:33Z</time>
      </trkpt>
      <trkpt lat="41.727234" lon="2.569932">
        <ele>82.013</ele>
        <time>2021-05-26T11:13:35Z</time>
      </trkpt>
      <trkpt lat="41.727223" lon="2.569891">
        <ele>82.008</ele>
        <time>2021-05-26T11:13:37Z</time>
      </trkpt>
      <trkpt lat="41.727210" lon="2.569854">
        <ele>82.078</ele>
        <time>2021-05-26T11:13:39Z</time>
      </trkpt>
      <trkpt lat="41.727193" lon="2.569819">
        <ele>82.115</ele>
        <time>2021-05-26T11:13:41Z</time>
      </trkpt>
      <trkpt lat="41.727171" lon="2.569787">
        <ele>82.262</ele>
        <time>2021-05-26T11:13:43Z</time>
      </trkpt>
      <trkpt lat="41.727150" lon="2.569757">
        <ele>82.395</ele>
        <time>2021-05-26T11:13:45Z</time>
      </trkpt>
      <trkpt lat="41.727129" lon="2.569729">
        <ele>82.350</ele>
        <time>2021-05-26T11:13:47Z</time>
      </trkpt>
      <trkpt lat="41.727110" lon="2.569699">
        <ele>82.586</ele>
        <time>2021-05-26T11:13:49Z</time>
      </trkpt>
      <trkpt lat="41.727102" lon="2.569664">
        <ele>82.633</ele>
        <time>2021-05-26T11:13:51Z</time>
      </trkpt>
      <trkpt lat="41.727110" lon="2.569628">
        <ele>82.660</ele>
        <time>2021-05-26T11:13:53Z</time>
      </trkpt>
      <trkpt lat="41.727111" lon="2.569585">
        <ele>82.779</ele>
        <time>2021-05-26T11:13:55Z</time>
      </trkpt>
      <trkpt lat="41.727113" lon="2.569544">
        <ele>82.805</ele>
        <time>2021-05-26T11:13:57Z</time>
      </trkpt>
      <trkpt lat="41.727118" lon="2.569500">
        <ele>82.925</ele>
        <time>2021-05-26T11:13:59Z</time>
      </trkpt>
      <trkpt lat="41.727129" lon="2.569460">
        <ele>83.008</ele>
        <time>2021-05-26T11:14:01Z</time>
      </trkpt>
      <trkpt lat="41.727149" lon="2.569424">
        <ele>83.034</ele>
        <time>2021-05-26T11:14:03Z</time>
      </trkpt>
      <trkpt lat="41.727170" lon="2.569391">
        <ele>83.021</ele>
        <time>2021-05-26T11:14:05Z</time>
      </trkpt>
      <trkpt lat="41.727193" lon="2.569361">
        <ele>83.098</ele>
        <time>2021-05-26T11:14:07Z</time>
      </trkpt>
      <trkpt lat="41.727212" lon="2.569332">
        <ele>83.091</ele>
        <time>2021-05-26T11:14:09Z</time>
      </trkpt>
      <trkpt lat="41.727234" lon="2.569303">
        <ele>82.936</ele>
        <time>2021-05-26T11:14:11Z</time>
      </trkpt>
      <trkpt lat="41.727253" lon="2.569274">
        <ele>82.842</ele>
        <time>2021-05-26T11:14:13Z</time>
      </trkpt>
      <trkpt lat="41.727271" lon="2.569245">
        <ele>82.879</ele>
        <time>2021-05-26T11:14:15Z</time>
      </trkpt>
      <trkpt lat="41.727284" lon="2.569206">
        <ele>82.786</ele>
        <time>2021-05-26T11:14:17Z</time>
      </trkpt>
      <trkpt lat="41.727292" lon="2.569166">
        <ele>82.842</ele>
        <time>2021-05-26T11:14:19Z</time>
      </trkpt>
      <trkpt lat="41.727296" lon="2.569128">
        <ele>82.922</ele>
        <time>2021-05-26T11:14:21Z</time>
      </trkpt>
      <trkpt lat="41.727293" lon="2.569091">
        <ele>83.014</ele>
        <time>2021-05-26T11:14:23Z</time>
      </trkpt>
      <trkpt lat="41.727294" lon="2.569055">
        <ele>83.108</ele>
        <time>2021-05-26T11:14:25Z</time>
      </trkpt>
      <trkpt lat="41.727289" lon="2.569015">
        <ele>83.341</ele>
        <time>2021-05-26T11:14:27Z</time>
      </trkpt>
      <trkpt lat="41.727287" lon="2.568981">
        <ele>83.458</ele>
        <time>2021-05-26T11:14:29Z</time>
      </trkpt>
      <trkpt lat="41.727286" lon="2.568941">
        <ele>83.625</ele>
        <time>2021-05-26T11:14:31Z</time>
      </trkpt>
      <trkpt lat="41.727298" lon="2.568835">
        <ele>83.958</ele>
        <time>2021-05-26T11:14:36Z</time>
      </trkpt>
      <trkpt lat="41.727294" lon="2.568772">
        <ele>84.223</ele>
        <time>2021-05-26T11:14:39Z</time>
      </trkpt>
      <trkpt lat="41.727299" lon="2.568731">
        <ele>84.389</ele>
        <time>2021-05-26T11:14:41Z</time>
      </trkpt>
      <trkpt lat="41.727307" lon="2.568691">
        <ele>84.426</ele>
        <time>2021-05-26T11:14:43Z</time>
      </trkpt>
      <trkpt lat="41.727319" lon="2.568671">
        <ele>84.463</ele>
        <time>2021-05-26T11:14:44Z</time>
      </trkpt>
      <trkpt lat="41.727339" lon="2.568650">
        <ele>84.465</ele>
        <time>2021-05-26T11:14:45Z</time>
      </trkpt>
      <trkpt lat="41.727353" lon="2.568629">
        <ele>84.568</ele>
        <time>2021-05-26T11:14:46Z</time>
      </trkpt>
      <trkpt lat="41.727364" lon="2.568608">
        <ele>84.514</ele>
        <time>2021-05-26T11:14:47Z</time>
      </trkpt>
      <trkpt lat="41.727379" lon="2.568588">
        <ele>84.608</ele>
        <time>2021-05-26T11:14:48Z</time>
      </trkpt>
      <trkpt lat="41.727388" lon="2.568566">
        <ele>84.723</ele>
        <time>2021-05-26T11:14:49Z</time>
      </trkpt>
      <trkpt lat="41.727407" lon="2.568546">
        <ele>84.730</ele>
        <time>2021-05-26T11:14:50Z</time>
      </trkpt>
      <trkpt lat="41.727423" lon="2.568526">
        <ele>84.817</ele>
        <time>2021-05-26T11:14:51Z</time>
      </trkpt>
      <trkpt lat="41.727438" lon="2.568487">
        <ele>85.080</ele>
        <time>2021-05-26T11:14:53Z</time>
      </trkpt>
      <trkpt lat="41.727446" lon="2.568450">
        <ele>85.265</ele>
        <time>2021-05-26T11:14:55Z</time>
      </trkpt>
      <trkpt lat="41.727458" lon="2.568410">
        <ele>85.581</ele>
        <time>2021-05-26T11:14:57Z</time>
      </trkpt>
      <trkpt lat="41.727471" lon="2.568372">
        <ele>85.748</ele>
        <time>2021-05-26T11:14:59Z</time>
      </trkpt>
      <trkpt lat="41.727465" lon="2.568339">
        <ele>86.025</ele>
        <time>2021-05-26T11:15:01Z</time>
      </trkpt>
      <trkpt lat="41.727459" lon="2.568303">
        <ele>86.157</ele>
        <time>2021-05-26T11:15:03Z</time>
      </trkpt>
      <trkpt lat="41.727460" lon="2.568261">
        <ele>86.200</ele>
        <time>2021-05-26T11:15:05Z</time>
      </trkpt>
      <trkpt lat="41.727460" lon="2.568220">
        <ele>86.320</ele>
        <time>2021-05-26T11:15:07Z</time>
      </trkpt>
      <trkpt lat="41.727472" lon="2.568191">
        <ele>86.508</ele>
        <time>2021-05-26T11:15:09Z</time>
      </trkpt>
      <trkpt lat="41.727498" lon="2.568156">
        <ele>86.642</ele>
        <time>2021-05-26T11:15:12Z</time>
      </trkpt>
      <trkpt lat="41.727596" lon="2.568112">
        <ele>86.889</ele>
        <time>2021-05-26T11:15:19Z</time>
      </trkpt>
      <trkpt lat="41.727652" lon="2.568029">
        <ele>87.076</ele>
        <time>2021-05-26T11:15:25Z</time>
      </trkpt>
      <trkpt lat="41.727645" lon="2.567985">
        <ele>87.019</ele>
        <time>2021-05-26T11:15:27Z</time>
      </trkpt>
      <trkpt lat="41.727605" lon="2.567870">
        <ele>87.034</ele>
        <time>2021-05-26T11:15:32Z</time>
      </trkpt>
      <trkpt lat="41.727628" lon="2.567845">
        <ele>87.010</ele>
        <time>2021-05-26T11:15:34Z</time>
      </trkpt>
      <trkpt lat="41.727655" lon="2.567834">
        <ele>87.087</ele>
        <time>2021-05-26T11:15:36Z</time>
      </trkpt>
      <trkpt lat="41.727682" lon="2.567820">
        <ele>87.094</ele>
        <time>2021-05-26T11:15:38Z</time>
      </trkpt>
      <trkpt lat="41.727712" lon="2.567802">
        <ele>87.057</ele>
        <time>2021-05-26T11:15:40Z</time>
      </trkpt>
      <trkpt lat="41.727735" lon="2.567783">
        <ele>87.000</ele>
        <time>2021-05-26T11:15:42Z</time>
      </trkpt>
      <trkpt lat="41.727762" lon="2.567769">
        <ele>87.020</ele>
        <time>2021-05-26T11:15:44Z</time>
      </trkpt>
      <trkpt lat="41.727789" lon="2.567757">
        <ele>87.108</ele>
        <time>2021-05-26T11:15:46Z</time>
      </trkpt>
      <trkpt lat="41.727811" lon="2.567745">
        <ele>87.162</ele>
        <time>2021-05-26T11:15:48Z</time>
      </trkpt>
      <trkpt lat="41.727832" lon="2.567729">
        <ele>87.259</ele>
        <time>2021-05-26T11:15:50Z</time>
      </trkpt>
      <trkpt lat="41.727850" lon="2.567722">
        <ele>87.286</ele>
        <time>2021-05-26T11:15:52Z</time>
      </trkpt>
      <trkpt lat="41.727871" lon="2.567711">
        <ele>87.289</ele>
        <time>2021-05-26T11:15:54Z</time>
      </trkpt>
      <trkpt lat="41.727897" lon="2.567697">
        <ele>87.354</ele>
        <time>2021-05-26T11:15:56Z</time>
      </trkpt>
      <trkpt lat="41.727925" lon="2.567679">
        <ele>87.440</ele>
        <time>2021-05-26T11:15:58Z</time>
      </trkpt>
      <trkpt lat="41.727953" lon="2.567663">
        <ele>87.457</ele>
        <time>2021-05-26T11:16:00Z</time>
      </trkpt>
      <trkpt lat="41.727980" lon="2.567641">
        <ele>87.574</ele>
        <time>2021-05-26T11:16:02Z</time>
      </trkpt>
      <trkpt lat="41.727981" lon="2.567601">
        <ele>87.679</ele>
        <time>2021-05-26T11:16:04Z</time>
      </trkpt>
      <trkpt lat="41.727969" lon="2.567574">
        <ele>87.705</ele>
        <time>2021-05-26T11:16:06Z</time>
      </trkpt>
      <trkpt lat="41.727956" lon="2.567540">
        <ele>87.925</ele>
        <time>2021-05-26T11:16:08Z</time>
      </trkpt>
      <trkpt lat="41.727939" lon="2.567503">
        <ele>88.008</ele>
        <time>2021-05-26T11:16:10Z</time>
      </trkpt>
      <trkpt lat="41.727938" lon="2.567477">
        <ele>88.244</ele>
        <time>2021-05-26T11:16:12Z</time>
      </trkpt>
      <trkpt lat="41.727953" lon="2.567460">
        <ele>88.381</ele>
        <time>2021-05-26T11:16:14Z</time>
      </trkpt>
      <trkpt lat="41.727974" lon="2.567432">
        <ele>88.538</ele>
        <time>2021-05-26T11:16:17Z</time>
      </trkpt>
      <trkpt lat="41.727998" lon="2.567408">
        <ele>88.741</ele>
        <time>2021-05-26T11:16:19Z</time>
      </trkpt>
      <trkpt lat="41.728027" lon="2.567383">
        <ele>88.896</ele>
        <time>2021-05-26T11:16:21Z</time>
      </trkpt>
      <trkpt lat="41.728052" lon="2.567361">
        <ele>89.042</ele>
        <time>2021-05-26T11:16:23Z</time>
      </trkpt>
      <trkpt lat="41.728080" lon="2.567348">
        <ele>89.079</ele>
        <time>2021-05-26T11:16:25Z</time>
      </trkpt>
      <trkpt lat="41.728107" lon="2.567342">
        <ele>89.016</ele>
        <time>2021-05-26T11:16:27Z</time>
      </trkpt>
      <trkpt lat="41.728136" lon="2.567332">
        <ele>89.031</ele>
        <time>2021-05-26T11:16:29Z</time>
      </trkpt>
      <trkpt lat="41.728167" lon="2.567323">
        <ele>89.061</ele>
        <time>2021-05-26T11:16:31Z</time>
      </trkpt>
      <trkpt lat="41.728197" lon="2.567319">
        <ele>89.007</ele>
        <time>2021-05-26T11:16:33Z</time>
      </trkpt>
      <trkpt lat="41.728228" lon="2.567317">
        <ele>88.908</ele>
        <time>2021-05-26T11:16:35Z</time>
      </trkpt>
      <trkpt lat="41.728258" lon="2.567317">
        <ele>88.810</ele>
        <time>2021-05-26T11:16:37Z</time>
      </trkpt>
      <trkpt lat="41.728285" lon="2.567322">
        <ele>88.827</ele>
        <time>2021-05-26T11:16:39Z</time>
      </trkpt>
      <trkpt lat="41.728313" lon="2.567334">
        <ele>88.654</ele>
        <time>2021-05-26T11:16:41Z</time>
      </trkpt>
      <trkpt lat="41.728338" lon="2.567331">
        <ele>88.617</ele>
        <time>2021-05-26T11:16:43Z</time>
      </trkpt>
      <trkpt lat="41.728365" lon="2.567333">
        <ele>88.512</ele>
        <time>2021-05-26T11:16:45Z</time>
      </trkpt>
      <trkpt lat="41.728383" lon="2.567311">
        <ele>88.518</ele>
        <time>2021-05-26T11:16:47Z</time>
      </trkpt>
      <trkpt lat="41.728405" lon="2.567285">
        <ele>88.525</ele>
        <time>2021-05-26T11:16:49Z</time>
      </trkpt>
      <trkpt lat="41.728423" lon="2.567263">
        <ele>88.592</ele>
        <time>2021-05-26T11:16:51Z</time>
      </trkpt>
      <trkpt lat="41.728447" lon="2.567237">
        <ele>88.525</ele>
        <time>2021-05-26T11:16:53Z</time>
      </trkpt>
      <trkpt lat="41.728469" lon="2.567211">
        <ele>88.626</ele>
        <time>2021-05-26T11:16:55Z</time>
      </trkpt>
      <trkpt lat="41.728487" lon="2.567188">
        <ele>88.608</ele>
        <time>2021-05-26T11:16:57Z</time>
      </trkpt>
      <trkpt lat="41.728517" lon="2.567172">
        <ele>88.608</ele>
        <time>2021-05-26T11:16:59Z</time>
      </trkpt>
      <trkpt lat="41.728541" lon="2.567146">
        <ele>88.689</ele>
        <time>2021-05-26T11:17:01Z</time>
      </trkpt>
      <trkpt lat="41.728562" lon="2.567120">
        <ele>88.676</ele>
        <time>2021-05-26T11:17:03Z</time>
      </trkpt>
      <trkpt lat="41.728583" lon="2.567103">
        <ele>88.653</ele>
        <time>2021-05-26T11:17:05Z</time>
      </trkpt>
      <trkpt lat="41.728607" lon="2.567079">
        <ele>88.576</ele>
        <time>2021-05-26T11:17:07Z</time>
      </trkpt>
      <trkpt lat="41.728629" lon="2.567056">
        <ele>88.681</ele>
        <time>2021-05-26T11:17:09Z</time>
      </trkpt>
      <trkpt lat="41.728649" lon="2.567031">
        <ele>88.757</ele>
        <time>2021-05-26T11:17:11Z</time>
      </trkpt>
      <trkpt lat="41.728667" lon="2.567003">
        <ele>88.894</ele>
        <time>2021-05-26T11:17:13Z</time>
      </trkpt>
      <trkpt lat="41.728687" lon="2.566980">
        <ele>88.921</ele>
        <time>2021-05-26T11:17:15Z</time>
      </trkpt>
      <trkpt lat="41.728710" lon="2.566965">
        <ele>88.943</ele>
        <time>2021-05-26T11:17:17Z</time>
      </trkpt>
      <trkpt lat="41.728732" lon="2.566950">
        <ele>89.064</ele>
        <time>2021-05-26T11:17:19Z</time>
      </trkpt>
      <trkpt lat="41.728745" lon="2.566925">
        <ele>89.210</ele>
        <time>2021-05-26T11:17:21Z</time>
      </trkpt>
      <trkpt lat="41.728744" lon="2.566891">
        <ele>89.708</ele>
        <time>2021-05-26T11:17:23Z</time>
      </trkpt>
      <trkpt lat="41.728723" lon="2.566875">
        <ele>89.911</ele>
        <time>2021-05-26T11:17:25Z</time>
      </trkpt>
      <trkpt lat="41.728693" lon="2.566866">
        <ele>90.068</ele>
        <time>2021-05-26T11:17:27Z</time>
      </trkpt>
      <trkpt lat="41.728662" lon="2.566859">
        <ele>90.275</ele>
        <time>2021-05-26T11:17:29Z</time>
      </trkpt>
      <trkpt lat="41.728630" lon="2.566854">
        <ele>90.398</ele>
        <time>2021-05-26T11:17:31Z</time>
      </trkpt>
      <trkpt lat="41.728597" lon="2.566851">
        <ele>90.443</ele>
        <time>2021-05-26T11:17:33Z</time>
      </trkpt>
      <trkpt lat="41.728568" lon="2.566838">
        <ele>90.759</ele>
        <time>2021-05-26T11:17:35Z</time>
      </trkpt>
      <trkpt lat="41.728544" lon="2.566816">
        <ele>91.196</ele>
        <time>2021-05-26T11:17:37Z</time>
      </trkpt>
      <trkpt lat="41.728512" lon="2.566806">
        <ele>91.433</ele>
        <time>2021-05-26T11:17:39Z</time>
      </trkpt>
      <trkpt lat="41.728480" lon="2.566785">
        <ele>91.782</ele>
        <time>2021-05-26T11:17:41Z</time>
      </trkpt>
      <trkpt lat="41.728454" lon="2.566772">
        <ele>91.943</ele>
        <time>2021-05-26T11:17:43Z</time>
      </trkpt>
      <trkpt lat="41.728425" lon="2.566754">
        <ele>92.217</ele>
        <time>2021-05-26T11:17:45Z</time>
      </trkpt>
      <trkpt lat="41.728400" lon="2.566739">
        <ele>92.408</ele>
        <time>2021-05-26T11:17:47Z</time>
      </trkpt>
      <trkpt lat="41.728373" lon="2.566720">
        <ele>92.615</ele>
        <time>2021-05-26T11:17:49Z</time>
      </trkpt>
      <trkpt lat="41.728343" lon="2.566699">
        <ele>92.842</ele>
        <time>2021-05-26T11:17:51Z</time>
      </trkpt>
      <trkpt lat="41.728317" lon="2.566683">
        <ele>92.939</ele>
        <time>2021-05-26T11:17:53Z</time>
      </trkpt>
      <trkpt lat="41.728295" lon="2.566663">
        <ele>93.072</ele>
        <time>2021-05-26T11:17:55Z</time>
      </trkpt>
      <trkpt lat="41.728272" lon="2.566640">
        <ele>93.257</ele>
        <time>2021-05-26T11:17:57Z</time>
      </trkpt>
      <trkpt lat="41.728245" lon="2.566616">
        <ele>93.293</ele>
        <time>2021-05-26T11:17:59Z</time>
      </trkpt>
      <trkpt lat="41.728220" lon="2.566597">
        <ele>93.310</ele>
        <time>2021-05-26T11:18:01Z</time>
      </trkpt>
      <trkpt lat="41.728194" lon="2.566576">
        <ele>93.387</ele>
        <time>2021-05-26T11:18:03Z</time>
      </trkpt>
      <trkpt lat="41.728166" lon="2.566553">
        <ele>93.315</ele>
        <time>2021-05-26T11:18:05Z</time>
      </trkpt>
      <trkpt lat="41.728142" lon="2.566530">
        <ele>93.365</ele>
        <time>2021-05-26T11:18:07Z</time>
      </trkpt>
      <trkpt lat="41.728120" lon="2.566510">
        <ele>93.311</ele>
        <time>2021-05-26T11:18:09Z</time>
      </trkpt>
      <trkpt lat="41.728096" lon="2.566496">
        <ele>93.208</ele>
        <time>2021-05-26T11:18:13Z</time>
      </trkpt>
      <trkpt lat="41.728073" lon="2.566474">
        <ele>93.128</ele>
        <time>2021-05-26T11:18:15Z</time>
      </trkpt>
      <trkpt lat="41.728046" lon="2.566441">
        <ele>92.975</ele>
        <time>2021-05-26T11:18:17Z</time>
      </trkpt>
      <trkpt lat="41.728024" lon="2.566409">
        <ele>92.712</ele>
        <time>2021-05-26T11:18:19Z</time>
      </trkpt>
      <trkpt lat="41.728006" lon="2.566375">
        <ele>92.535</ele>
        <time>2021-05-26T11:18:21Z</time>
      </trkpt>
      <trkpt lat="41.727986" lon="2.566340">
        <ele>92.480</ele>
        <time>2021-05-26T11:18:23Z</time>
      </trkpt>
      <trkpt lat="41.727964" lon="2.566312">
        <ele>92.376</ele>
        <time>2021-05-26T11:18:25Z</time>
      </trkpt>
      <trkpt lat="41.727944" lon="2.566282">
        <ele>92.263</ele>
        <time>2021-05-26T11:18:27Z</time>
      </trkpt>
      <trkpt lat="41.727927" lon="2.566249">
        <ele>92.140</ele>
        <time>2021-05-26T11:18:29Z</time>
      </trkpt>
      <trkpt lat="41.727914" lon="2.566215">
        <ele>92.116</ele>
        <time>2021-05-26T11:18:31Z</time>
      </trkpt>
      <trkpt lat="41.727905" lon="2.566175">
        <ele>92.176</ele>
        <time>2021-05-26T11:18:33Z</time>
      </trkpt>
      <trkpt lat="41.727890" lon="2.566138">
        <ele>92.113</ele>
        <time>2021-05-26T11:18:35Z</time>
      </trkpt>
      <trkpt lat="41.727871" lon="2.566103">
        <ele>92.108</ele>
        <time>2021-05-26T11:18:37Z</time>
      </trkpt>
      <trkpt lat="41.727854" lon="2.566066">
        <ele>92.138</ele>
        <time>2021-05-26T11:18:39Z</time>
      </trkpt>
      <trkpt lat="41.727838" lon="2.566032">
        <ele>92.135</ele>
        <time>2021-05-26T11:18:41Z</time>
      </trkpt>
      <trkpt lat="41.727822" lon="2.565998">
        <ele>92.152</ele>
        <time>2021-05-26T11:18:43Z</time>
      </trkpt>
      <trkpt lat="41.727808" lon="2.565962">
        <ele>92.065</ele>
        <time>2021-05-26T11:18:45Z</time>
      </trkpt>
      <trkpt lat="41.727794" lon="2.565923">
        <ele>92.040</ele>
        <time>2021-05-26T11:18:47Z</time>
      </trkpt>
      <trkpt lat="41.727783" lon="2.565886">
        <ele>91.976</ele>
        <time>2021-05-26T11:18:49Z</time>
      </trkpt>
      <trkpt lat="41.727768" lon="2.565851">
        <ele>91.913</ele>
        <time>2021-05-26T11:18:51Z</time>
      </trkpt>
      <trkpt lat="41.727756" lon="2.565819">
        <ele>91.970</ele>
        <time>2021-05-26T11:18:53Z</time>
      </trkpt>
      <trkpt lat="41.727744" lon="2.565788">
        <ele>92.134</ele>
        <time>2021-05-26T11:18:55Z</time>
      </trkpt>
      <trkpt lat="41.727730" lon="2.565755">
        <ele>92.255</ele>
        <time>2021-05-26T11:18:57Z</time>
      </trkpt>
      <trkpt lat="41.727720" lon="2.565718">
        <ele>92.310</ele>
        <time>2021-05-26T11:18:59Z</time>
      </trkpt>
      <trkpt lat="41.727706" lon="2.565683">
        <ele>92.408</ele>
        <time>2021-05-26T11:19:01Z</time>
      </trkpt>
      <trkpt lat="41.727693" lon="2.565646">
        <ele>92.530</ele>
        <time>2021-05-26T11:19:03Z</time>
      </trkpt>
      <trkpt lat="41.727684" lon="2.565611">
        <ele>92.727</ele>
        <time>2021-05-26T11:19:05Z</time>
      </trkpt>
      <trkpt lat="41.727686" lon="2.565577">
        <ele>92.954</ele>
        <time>2021-05-26T11:19:07Z</time>
      </trkpt>
      <trkpt lat="41.727692" lon="2.565541">
        <ele>93.087</ele>
        <time>2021-05-26T11:19:09Z</time>
      </trkpt>
      <trkpt lat="41.727696" lon="2.565504">
        <ele>92.982</ele>
        <time>2021-05-26T11:19:11Z</time>
      </trkpt>
      <trkpt lat="41.727695" lon="2.565467">
        <ele>92.818</ele>
        <time>2021-05-26T11:19:13Z</time>
      </trkpt>
      <trkpt lat="41.727699" lon="2.565428">
        <ele>92.745</ele>
        <time>2021-05-26T11:19:15Z</time>
      </trkpt>
      <trkpt lat="41.727705" lon="2.565392">
        <ele>92.662</ele>
        <time>2021-05-26T11:19:17Z</time>
      </trkpt>
      <trkpt lat="41.727717" lon="2.565358">
        <ele>92.664</ele>
        <time>2021-05-26T11:19:19Z</time>
      </trkpt>
      <trkpt lat="41.727731" lon="2.565325">
        <ele>92.706</ele>
        <time>2021-05-26T11:19:21Z</time>
      </trkpt>
      <trkpt lat="41.727743" lon="2.565295">
        <ele>92.716</ele>
        <time>2021-05-26T11:19:23Z</time>
      </trkpt>
      <trkpt lat="41.727757" lon="2.565258">
        <ele>92.608</ele>
        <time>2021-05-26T11:19:25Z</time>
      </trkpt>
      <trkpt lat="41.727768" lon="2.565222">
        <ele>92.543</ele>
        <time>2021-05-26T11:19:27Z</time>
      </trkpt>
      <trkpt lat="41.727781" lon="2.565191">
        <ele>92.530</ele>
        <time>2021-05-26T11:19:29Z</time>
      </trkpt>
      <trkpt lat="41.727795" lon="2.565162">
        <ele>92.677</ele>
        <time>2021-05-26T11:19:31Z</time>
      </trkpt>
      <trkpt lat="41.727811" lon="2.565128">
        <ele>92.710</ele>
        <time>2021-05-26T11:19:33Z</time>
      </trkpt>
      <trkpt lat="41.727823" lon="2.565093">
        <ele>92.765</ele>
        <time>2021-05-26T11:19:35Z</time>
      </trkpt>
      <trkpt lat="41.727836" lon="2.565059">
        <ele>92.751</ele>
        <time>2021-05-26T11:19:37Z</time>
      </trkpt>
      <trkpt lat="41.727855" lon="2.565025">
        <ele>92.958</ele>
        <time>2021-05-26T11:19:39Z</time>
      </trkpt>
      <trkpt lat="41.727875" lon="2.564994">
        <ele>93.095</ele>
        <time>2021-05-26T11:19:41Z</time>
      </trkpt>
      <trkpt lat="41.727895" lon="2.564964">
        <ele>93.217</ele>
        <time>2021-05-26T11:19:43Z</time>
      </trkpt>
      <trkpt lat="41.727908" lon="2.564934">
        <ele>93.287</ele>
        <time>2021-05-26T11:19:45Z</time>
      </trkpt>
      <trkpt lat="41.727930" lon="2.564906">
        <ele>93.415</ele>
        <time>2021-05-26T11:19:47Z</time>
      </trkpt>
      <trkpt lat="41.727947" lon="2.564879">
        <ele>93.508</ele>
        <time>2021-05-26T11:19:49Z</time>
      </trkpt>
      <trkpt lat="41.727963" lon="2.564852">
        <ele>93.688</ele>
        <time>2021-05-26T11:19:51Z</time>
      </trkpt>
      <trkpt lat="41.727979" lon="2.564826">
        <ele>93.625</ele>
        <time>2021-05-26T11:19:53Z</time>
      </trkpt>
      <trkpt lat="41.727991" lon="2.564799">
        <ele>93.612</ele>
        <time>2021-05-26T11:19:55Z</time>
      </trkpt>
      <trkpt lat="41.728004" lon="2.564764">
        <ele>93.545</ele>
        <time>2021-05-26T11:19:57Z</time>
      </trkpt>
      <trkpt lat="41.728021" lon="2.564736">
        <ele>93.590</ele>
        <time>2021-05-26T11:19:59Z</time>
      </trkpt>
      <trkpt lat="41.728041" lon="2.564705">
        <ele>93.666</ele>
        <time>2021-05-26T11:20:01Z</time>
      </trkpt>
      <trkpt lat="41.728057" lon="2.564672">
        <ele>93.763</ele>
        <time>2021-05-26T11:20:03Z</time>
      </trkpt>
      <trkpt lat="41.728073" lon="2.564640">
        <ele>93.840</ele>
        <time>2021-05-26T11:20:05Z</time>
      </trkpt>
      <trkpt lat="41.728088" lon="2.564605">
        <ele>93.867</ele>
        <time>2021-05-26T11:20:07Z</time>
      </trkpt>
      <trkpt lat="41.728108" lon="2.564567">
        <ele>93.981</ele>
        <time>2021-05-26T11:20:09Z</time>
      </trkpt>
      <trkpt lat="41.728125" lon="2.564531">
        <ele>94.019</ele>
        <time>2021-05-26T11:20:11Z</time>
      </trkpt>
      <trkpt lat="41.728147" lon="2.564499">
        <ele>94.108</ele>
        <time>2021-05-26T11:20:13Z</time>
      </trkpt>
      <trkpt lat="41.728169" lon="2.564467">
        <ele>94.263</ele>
        <time>2021-05-26T11:20:15Z</time>
      </trkpt>
      <trkpt lat="41.728186" lon="2.564437">
        <ele>94.380</ele>
        <time>2021-05-26T11:20:17Z</time>
      </trkpt>
      <trkpt lat="41.728203" lon="2.564406">
        <ele>94.647</ele>
        <time>2021-05-26T11:20:19Z</time>
      </trkpt>
      <trkpt lat="41.728222" lon="2.564374">
        <ele>94.870</ele>
        <time>2021-05-26T11:20:21Z</time>
      </trkpt>
      <trkpt lat="41.728239" lon="2.564341">
        <ele>95.155</ele>
        <time>2021-05-26T11:20:23Z</time>
      </trkpt>
      <trkpt lat="41.728257" lon="2.564312">
        <ele>95.371</ele>
        <time>2021-05-26T11:20:25Z</time>
      </trkpt>
      <trkpt lat="41.728271" lon="2.564276">
        <ele>95.438</ele>
        <time>2021-05-26T11:20:27Z</time>
      </trkpt>
      <trkpt lat="41.728286" lon="2.564240">
        <ele>95.595</ele>
        <time>2021-05-26T11:20:29Z</time>
      </trkpt>
      <trkpt lat="41.728298" lon="2.564205">
        <ele>95.652</ele>
        <time>2021-05-26T11:20:31Z</time>
      </trkpt>
      <trkpt lat="41.728309" lon="2.564174">
        <ele>95.753</ele>
        <time>2021-05-26T11:20:33Z</time>
      </trkpt>
      <trkpt lat="41.728318" lon="2.564138">
        <ele>95.808</ele>
        <time>2021-05-26T11:20:35Z</time>
      </trkpt>
      <trkpt lat="41.728325" lon="2.564101">
        <ele>95.908</ele>
        <time>2021-05-26T11:20:37Z</time>
      </trkpt>
      <trkpt lat="41.728333" lon="2.564062">
        <ele>96.062</ele>
        <time>2021-05-26T11:20:39Z</time>
      </trkpt>
      <trkpt lat="41.728342" lon="2.564024">
        <ele>96.139</ele>
        <time>2021-05-26T11:20:41Z</time>
      </trkpt>
      <trkpt lat="41.728351" lon="2.563986">
        <ele>96.376</ele>
        <time>2021-05-26T11:20:43Z</time>
      </trkpt>
      <trkpt lat="41.728356" lon="2.563945">
        <ele>96.339</ele>
        <time>2021-05-26T11:20:45Z</time>
      </trkpt>
      <trkpt lat="41.728361" lon="2.563907">
        <ele>96.464</ele>
        <time>2021-05-26T11:20:47Z</time>
      </trkpt>
      <trkpt lat="41.728369" lon="2.563868">
        <ele>96.570</ele>
        <time>2021-05-26T11:20:49Z</time>
      </trkpt>
      <trkpt lat="41.728374" lon="2.563827">
        <ele>96.637</ele>
        <time>2021-05-26T11:20:51Z</time>
      </trkpt>
      <trkpt lat="41.728382" lon="2.563789">
        <ele>96.624</ele>
        <time>2021-05-26T11:20:53Z</time>
      </trkpt>
      <trkpt lat="41.728393" lon="2.563757">
        <ele>96.847</ele>
        <time>2021-05-26T11:20:55Z</time>
      </trkpt>
      <trkpt lat="41.728412" lon="2.563723">
        <ele>97.029</ele>
        <time>2021-05-26T11:20:57Z</time>
      </trkpt>
      <trkpt lat="41.728429" lon="2.563688">
        <ele>97.121</ele>
        <time>2021-05-26T11:20:59Z</time>
      </trkpt>
      <trkpt lat="41.728446" lon="2.563649">
        <ele>97.308</ele>
        <time>2021-05-26T11:21:01Z</time>
      </trkpt>
      <trkpt lat="41.728457" lon="2.563609">
        <ele>97.351</ele>
        <time>2021-05-26T11:21:03Z</time>
      </trkpt>
      <trkpt lat="41.728469" lon="2.563568">
        <ele>97.588</ele>
        <time>2021-05-26T11:21:05Z</time>
      </trkpt>
      <trkpt lat="41.728477" lon="2.563529">
        <ele>97.725</ele>
        <time>2021-05-26T11:21:07Z</time>
      </trkpt>
      <trkpt lat="41.728484" lon="2.563488">
        <ele>97.928</ele>
        <time>2021-05-26T11:21:09Z</time>
      </trkpt>
      <trkpt lat="41.728492" lon="2.563449">
        <ele>98.033</ele>
        <time>2021-05-26T11:21:11Z</time>
      </trkpt>
      <trkpt lat="41.728499" lon="2.563411">
        <ele>98.229</ele>
        <time>2021-05-26T11:21:13Z</time>
      </trkpt>
      <trkpt lat="41.728506" lon="2.563373">
        <ele>98.476</ele>
        <time>2021-05-26T11:21:15Z</time>
      </trkpt>
      <trkpt lat="41.728512" lon="2.563337">
        <ele>98.633</ele>
        <time>2021-05-26T11:21:17Z</time>
      </trkpt>
      <trkpt lat="41.728521" lon="2.563300">
        <ele>98.838</ele>
        <time>2021-05-26T11:21:19Z</time>
      </trkpt>
      <trkpt lat="41.728529" lon="2.563263">
        <ele>99.170</ele>
        <time>2021-05-26T11:21:21Z</time>
      </trkpt>
      <trkpt lat="41.728542" lon="2.563228">
        <ele>99.417</ele>
        <time>2021-05-26T11:21:23Z</time>
      </trkpt>
      <trkpt lat="41.728553" lon="2.563190">
        <ele>99.708</ele>
        <time>2021-05-26T11:21:25Z</time>
      </trkpt>
      <trkpt lat="41.728563" lon="2.563152">
        <ele>100.090</ele>
        <time>2021-05-26T11:21:27Z</time>
      </trkpt>
      <trkpt lat="41.728570" lon="2.563115">
        <ele>100.247</ele>
        <time>2021-05-26T11:21:29Z</time>
      </trkpt>
      <trkpt lat="41.728576" lon="2.563076">
        <ele>100.424</ele>
        <time>2021-05-26T11:21:31Z</time>
      </trkpt>
      <trkpt lat="41.728584" lon="2.563040">
        <ele>100.667</ele>
        <time>2021-05-26T11:21:33Z</time>
      </trkpt>
      <trkpt lat="41.728592" lon="2.563003">
        <ele>100.562</ele>
        <time>2021-05-26T11:21:35Z</time>
      </trkpt>
      <trkpt lat="41.728597" lon="2.562964">
        <ele>100.578</ele>
        <time>2021-05-26T11:21:37Z</time>
      </trkpt>
      <trkpt lat="41.728608" lon="2.562926">
        <ele>100.545</ele>
        <time>2021-05-26T11:21:39Z</time>
      </trkpt>
      <trkpt lat="41.728621" lon="2.562891">
        <ele>100.522</ele>
        <time>2021-05-26T11:21:41Z</time>
      </trkpt>
      <trkpt lat="41.728636" lon="2.562858">
        <ele>100.695</ele>
        <time>2021-05-26T11:21:43Z</time>
      </trkpt>
      <trkpt lat="41.728646" lon="2.562818">
        <ele>100.649</ele>
        <time>2021-05-26T11:21:45Z</time>
      </trkpt>
      <trkpt lat="41.728655" lon="2.562779">
        <ele>100.623</ele>
        <time>2021-05-26T11:21:47Z</time>
      </trkpt>
      <trkpt lat="41.728664" lon="2.562739">
        <ele>100.508</ele>
        <time>2021-05-26T11:21:49Z</time>
      </trkpt>
      <trkpt lat="41.728672" lon="2.562705">
        <ele>100.496</ele>
        <time>2021-05-26T11:21:51Z</time>
      </trkpt>
      <trkpt lat="41.728680" lon="2.562671">
        <ele>100.383</ele>
        <time>2021-05-26T11:21:53Z</time>
      </trkpt>
      <trkpt lat="41.728689" lon="2.562636">
        <ele>100.240</ele>
        <time>2021-05-26T11:21:55Z</time>
      </trkpt>
      <trkpt lat="41.728696" lon="2.562597">
        <ele>100.193</ele>
        <time>2021-05-26T11:21:57Z</time>
      </trkpt>
      <trkpt lat="41.728705" lon="2.562560">
        <ele>100.038</ele>
        <time>2021-05-26T11:21:59Z</time>
      </trkpt>
      <trkpt lat="41.728716" lon="2.562520">
        <ele>100.024</ele>
        <time>2021-05-26T11:22:01Z</time>
      </trkpt>
      <trkpt lat="41.728724" lon="2.562483">
        <ele>99.951</ele>
        <time>2021-05-26T11:22:03Z</time>
      </trkpt>
      <trkpt lat="41.728738" lon="2.562452">
        <ele>100.058</ele>
        <time>2021-05-26T11:22:05Z</time>
      </trkpt>
      <trkpt lat="41.728754" lon="2.562422">
        <ele>100.015</ele>
        <time>2021-05-26T11:22:07Z</time>
      </trkpt>
      <trkpt lat="41.728772" lon="2.562392">
        <ele>100.165</ele>
        <time>2021-05-26T11:22:09Z</time>
      </trkpt>
      <trkpt lat="41.728790" lon="2.562363">
        <ele>100.111</ele>
        <time>2021-05-26T11:22:11Z</time>
      </trkpt>
      <trkpt lat="41.728809" lon="2.562333">
        <ele>100.108</ele>
        <time>2021-05-26T11:22:13Z</time>
      </trkpt>
      <trkpt lat="41.728830" lon="2.562303">
        <ele>100.128</ele>
        <time>2021-05-26T11:22:15Z</time>
      </trkpt>
      <trkpt lat="41.728851" lon="2.562273">
        <ele>100.195</ele>
        <time>2021-05-26T11:22:17Z</time>
      </trkpt>
      <trkpt lat="41.728869" lon="2.562244">
        <ele>100.052</ele>
        <time>2021-05-26T11:22:19Z</time>
      </trkpt>
      <trkpt lat="41.728890" lon="2.562214">
        <ele>99.935</ele>
        <time>2021-05-26T11:22:21Z</time>
      </trkpt>
      <trkpt lat="41.728909" lon="2.562179">
        <ele>99.960</ele>
        <time>2021-05-26T11:22:23Z</time>
      </trkpt>
      <trkpt lat="41.728930" lon="2.562147">
        <ele>99.966</ele>
        <time>2021-05-26T11:22:25Z</time>
      </trkpt>
      <trkpt lat="41.728955" lon="2.562116">
        <ele>100.043</ele>
        <time>2021-05-26T11:22:27Z</time>
      </trkpt>
      <trkpt lat="41.728971" lon="2.562102">
        <ele>100.250</ele>
        <time>2021-05-26T11:22:28Z</time>
      </trkpt>
      <trkpt lat="41.728997" lon="2.562069">
        <ele>100.325</ele>
        <time>2021-05-26T11:22:30Z</time>
      </trkpt>
      <trkpt lat="41.729023" lon="2.562040">
        <ele>100.426</ele>
        <time>2021-05-26T11:22:32Z</time>
      </trkpt>
      <trkpt lat="41.729043" lon="2.562008">
        <ele>100.508</ele>
        <time>2021-05-26T11:22:34Z</time>
      </trkpt>
      <trkpt lat="41.729056" lon="2.561979">
        <ele>100.408</ele>
        <time>2021-05-26T11:22:36Z</time>
      </trkpt>
      <trkpt lat="41.729075" lon="2.561943">
        <ele>100.399</ele>
        <time>2021-05-26T11:22:38Z</time>
      </trkpt>
      <trkpt lat="41.729068" lon="2.561899">
        <ele>99.836</ele>
        <time>2021-05-26T11:22:40Z</time>
      </trkpt>
      <trkpt lat="41.729056" lon="2.561861">
        <ele>99.263</ele>
        <time>2021-05-26T11:22:42Z</time>
      </trkpt>
      <trkpt lat="41.729047" lon="2.561821">
        <ele>98.796</ele>
        <time>2021-05-26T11:22:44Z</time>
      </trkpt>
      <trkpt lat="41.729030" lon="2.561780">
        <ele>98.151</ele>
        <time>2021-05-26T11:22:46Z</time>
      </trkpt>
      <trkpt lat="41.729006" lon="2.561743">
        <ele>97.487</ele>
        <time>2021-05-26T11:22:48Z</time>
      </trkpt>
      <trkpt lat="41.728996" lon="2.561721">
        <ele>97.054</ele>
        <time>2021-05-26T11:22:49Z</time>
      </trkpt>
      <trkpt lat="41.728986" lon="2.561700">
        <ele>96.771</ele>
        <time>2021-05-26T11:22:50Z</time>
      </trkpt>
      <trkpt lat="41.728975" lon="2.561679">
        <ele>96.394</ele>
        <time>2021-05-26T11:22:51Z</time>
      </trkpt>
      <trkpt lat="41.728961" lon="2.561660">
        <ele>96.057</ele>
        <time>2021-05-26T11:22:52Z</time>
      </trkpt>
      <trkpt lat="41.728948" lon="2.561642">
        <ele>95.822</ele>
        <time>2021-05-26T11:22:53Z</time>
      </trkpt>
      <trkpt lat="41.728934" lon="2.561625">
        <ele>95.608</ele>
        <time>2021-05-26T11:22:54Z</time>
      </trkpt>
      <trkpt lat="41.728920" lon="2.561609">
        <ele>95.496</ele>
        <time>2021-05-26T11:22:55Z</time>
      </trkpt>
      <trkpt lat="41.728906" lon="2.561593">
        <ele>95.253</ele>
        <time>2021-05-26T11:22:56Z</time>
      </trkpt>
      <trkpt lat="41.728881" lon="2.561560">
        <ele>95.030</ele>
        <time>2021-05-26T11:22:58Z</time>
      </trkpt>
      <trkpt lat="41.728862" lon="2.561528">
        <ele>94.953</ele>
        <time>2021-05-26T11:23:00Z</time>
      </trkpt>
      <trkpt lat="41.728843" lon="2.561498">
        <ele>94.718</ele>
        <time>2021-05-26T11:23:02Z</time>
      </trkpt>
      <trkpt lat="41.728820" lon="2.561469">
        <ele>94.624</ele>
        <time>2021-05-26T11:23:04Z</time>
      </trkpt>
      <trkpt lat="41.728797" lon="2.561434">
        <ele>94.431</ele>
        <time>2021-05-26T11:23:06Z</time>
      </trkpt>
      <trkpt lat="41.728786" lon="2.561414">
        <ele>94.388</ele>
        <time>2021-05-26T11:23:07Z</time>
      </trkpt>
      <trkpt lat="41.728762" lon="2.561384">
        <ele>94.137</ele>
        <time>2021-05-26T11:23:09Z</time>
      </trkpt>
      <trkpt lat="41.728739" lon="2.561356">
        <ele>93.849</ele>
        <time>2021-05-26T11:23:11Z</time>
      </trkpt>
      <trkpt lat="41.728716" lon="2.561330">
        <ele>93.613</ele>
        <time>2021-05-26T11:23:13Z</time>
      </trkpt>
      <trkpt lat="41.728697" lon="2.561297">
        <ele>93.408</ele>
        <time>2021-05-26T11:23:15Z</time>
      </trkpt>
      <trkpt lat="41.728677" lon="2.561258">
        <ele>93.330</ele>
        <time>2021-05-26T11:23:17Z</time>
      </trkpt>
      <trkpt lat="41.728667" lon="2.561239">
        <ele>93.227</ele>
        <time>2021-05-26T11:23:18Z</time>
      </trkpt>
      <trkpt lat="41.728650" lon="2.561202">
        <ele>93.174</ele>
        <time>2021-05-26T11:23:20Z</time>
      </trkpt>
      <trkpt lat="41.728631" lon="2.561170">
        <ele>93.087</ele>
        <time>2021-05-26T11:23:22Z</time>
      </trkpt>
      <trkpt lat="41.728612" lon="2.561137">
        <ele>93.012</ele>
        <time>2021-05-26T11:23:24Z</time>
      </trkpt>
      <trkpt lat="41.728597" lon="2.561110">
        <ele>93.038</ele>
        <time>2021-05-26T11:23:26Z</time>
      </trkpt>
      <trkpt lat="41.728578" lon="2.561086">
        <ele>92.935</ele>
        <time>2021-05-26T11:23:28Z</time>
      </trkpt>
      <trkpt lat="41.728557" lon="2.561054">
        <ele>92.872</ele>
        <time>2021-05-26T11:23:30Z</time>
      </trkpt>
      <trkpt lat="41.728538" lon="2.561023">
        <ele>92.879</ele>
        <time>2021-05-26T11:23:32Z</time>
      </trkpt>
      <trkpt lat="41.728525" lon="2.560994">
        <ele>92.705</ele>
        <time>2021-05-26T11:23:34Z</time>
      </trkpt>
      <trkpt lat="41.728520" lon="2.560967">
        <ele>92.725</ele>
        <time>2021-05-26T11:23:36Z</time>
      </trkpt>
      <trkpt lat="41.728496" lon="2.560956">
        <ele>92.708</ele>
        <time>2021-05-26T11:23:38Z</time>
      </trkpt>
      <trkpt lat="41.728473" lon="2.560949">
        <ele>92.784</ele>
        <time>2021-05-26T11:23:40Z</time>
      </trkpt>
      <trkpt lat="41.728460" lon="2.560931">
        <ele>92.731</ele>
        <time>2021-05-26T11:23:43Z</time>
      </trkpt>
      <trkpt lat="41.728442" lon="2.560948">
        <ele>92.848</ele>
        <time>2021-05-26T11:23:46Z</time>
      </trkpt>
      <trkpt lat="41.728420" lon="2.560972">
        <ele>92.871</ele>
        <time>2021-05-26T11:23:48Z</time>
      </trkpt>
      <trkpt lat="41.728391" lon="2.560990">
        <ele>92.996</ele>
        <time>2021-05-26T11:23:50Z</time>
      </trkpt>
      <trkpt lat="41.728361" lon="2.561006">
        <ele>93.062</ele>
        <time>2021-05-26T11:23:52Z</time>
      </trkpt>
      <trkpt lat="41.728332" lon="2.561017">
        <ele>93.079</ele>
        <time>2021-05-26T11:23:54Z</time>
      </trkpt>
      <trkpt lat="41.728304" lon="2.561028">
        <ele>93.146</ele>
        <time>2021-05-26T11:23:56Z</time>
      </trkpt>
      <trkpt lat="41.728276" lon="2.561044">
        <ele>93.276</ele>
        <time>2021-05-26T11:23:58Z</time>
      </trkpt>
      <trkpt lat="41.728250" lon="2.561061">
        <ele>93.290</ele>
        <time>2021-05-26T11:24:00Z</time>
      </trkpt>
      <trkpt lat="41.728224" lon="2.561079">
        <ele>93.319</ele>
        <time>2021-05-26T11:24:02Z</time>
      </trkpt>
      <trkpt lat="41.728199" lon="2.561095">
        <ele>93.508</ele>
        <time>2021-05-26T11:24:04Z</time>
      </trkpt>
      <trkpt lat="41.728173" lon="2.561108">
        <ele>93.644</ele>
        <time>2021-05-26T11:24:06Z</time>
      </trkpt>
      <trkpt lat="41.728149" lon="2.561123">
        <ele>93.751</ele>
        <time>2021-05-26T11:24:08Z</time>
      </trkpt>
      <trkpt lat="41.728125" lon="2.561114">
        <ele>93.858</ele>
        <time>2021-05-26T11:24:11Z</time>
      </trkpt>
      <trkpt lat="41.728108" lon="2.561081">
        <ele>93.741</ele>
        <time>2021-05-26T11:24:13Z</time>
      </trkpt>
      <trkpt lat="41.728081" lon="2.561058">
        <ele>93.726</ele>
        <time>2021-05-26T11:24:15Z</time>
      </trkpt>
      <trkpt lat="41.728055" lon="2.561037">
        <ele>93.752</ele>
        <time>2021-05-26T11:24:17Z</time>
      </trkpt>
      <trkpt lat="41.728036" lon="2.561010">
        <ele>93.669</ele>
        <time>2021-05-26T11:24:19Z</time>
      </trkpt>
      <trkpt lat="41.728019" lon="2.560972">
        <ele>93.436</ele>
        <time>2021-05-26T11:24:21Z</time>
      </trkpt>
      <trkpt lat="41.728013" lon="2.560933">
        <ele>93.324</ele>
        <time>2021-05-26T11:24:23Z</time>
      </trkpt>
      <trkpt lat="41.728008" lon="2.560893">
        <ele>93.204</ele>
        <time>2021-05-26T11:24:25Z</time>
      </trkpt>
      <trkpt lat="41.728001" lon="2.560853">
        <ele>93.114</ele>
        <time>2021-05-26T11:24:27Z</time>
      </trkpt>
      <trkpt lat="41.727998" lon="2.560814">
        <ele>92.908</ele>
        <time>2021-05-26T11:24:29Z</time>
      </trkpt>
      <trkpt lat="41.727990" lon="2.560774">
        <ele>92.829</ele>
        <time>2021-05-26T11:24:31Z</time>
      </trkpt>
      <trkpt lat="41.727977" lon="2.560739">
        <ele>92.836</ele>
        <time>2021-05-26T11:24:33Z</time>
      </trkpt>
      <trkpt lat="41.727965" lon="2.560702">
        <ele>92.733</ele>
        <time>2021-05-26T11:24:35Z</time>
      </trkpt>
      <trkpt lat="41.727954" lon="2.560661">
        <ele>92.626</ele>
        <time>2021-05-26T11:24:37Z</time>
      </trkpt>
      <trkpt lat="41.727944" lon="2.560621">
        <ele>92.561</ele>
        <time>2021-05-26T11:24:39Z</time>
      </trkpt>
      <trkpt lat="41.727931" lon="2.560583">
        <ele>92.547</ele>
        <time>2021-05-26T11:24:41Z</time>
      </trkpt>
      <trkpt lat="41.727922" lon="2.560545">
        <ele>92.514</ele>
        <time>2021-05-26T11:24:43Z</time>
      </trkpt>
      <trkpt lat="41.727914" lon="2.560510">
        <ele>92.421</ele>
        <time>2021-05-26T11:24:45Z</time>
      </trkpt>
      <trkpt lat="41.727907" lon="2.560474">
        <ele>92.459</ele>
        <time>2021-05-26T11:24:47Z</time>
      </trkpt>
      <trkpt lat="41.727897" lon="2.560437">
        <ele>92.403</ele>
        <time>2021-05-26T11:24:49Z</time>
      </trkpt>
      <trkpt lat="41.727885" lon="2.560403">
        <ele>92.423</ele>
        <time>2021-05-26T11:24:51Z</time>
      </trkpt>
      <trkpt lat="41.727875" lon="2.560368">
        <ele>92.408</ele>
        <time>2021-05-26T11:24:53Z</time>
      </trkpt>
      <trkpt lat="41.727867" lon="2.560335">
        <ele>92.492</ele>
        <time>2021-05-26T11:24:55Z</time>
      </trkpt>
      <trkpt lat="41.727855" lon="2.560300">
        <ele>92.569</ele>
        <time>2021-05-26T11:24:57Z</time>
      </trkpt>
      <trkpt lat="41.727847" lon="2.560264">
        <ele>92.566</ele>
        <time>2021-05-26T11:24:59Z</time>
      </trkpt>
      <trkpt lat="41.727846" lon="2.560224">
        <ele>92.569</ele>
        <time>2021-05-26T11:25:01Z</time>
      </trkpt>
      <trkpt lat="41.727846" lon="2.560189">
        <ele>92.544</ele>
        <time>2021-05-26T11:25:03Z</time>
      </trkpt>
      <trkpt lat="41.727844" lon="2.560154">
        <ele>92.570</ele>
        <time>2021-05-26T11:25:05Z</time>
      </trkpt>
      <trkpt lat="41.727846" lon="2.560117">
        <ele>92.517</ele>
        <time>2021-05-26T11:25:07Z</time>
      </trkpt>
      <trkpt lat="41.727838" lon="2.560091">
        <ele>92.684</ele>
        <time>2021-05-26T11:25:09Z</time>
      </trkpt>
      <trkpt lat="41.727810" lon="2.560089">
        <ele>92.832</ele>
        <time>2021-05-26T11:25:11Z</time>
      </trkpt>
      <trkpt lat="41.727778" lon="2.560100">
        <ele>93.092</ele>
        <time>2021-05-26T11:25:13Z</time>
      </trkpt>
      <trkpt lat="41.727752" lon="2.560107">
        <ele>93.111</ele>
        <time>2021-05-26T11:25:15Z</time>
      </trkpt>
      <trkpt lat="41.727728" lon="2.560111">
        <ele>93.308</ele>
        <time>2021-05-26T11:25:17Z</time>
      </trkpt>
      <trkpt lat="41.727700" lon="2.560119">
        <ele>93.490</ele>
        <time>2021-05-26T11:25:19Z</time>
      </trkpt>
      <trkpt lat="41.727667" lon="2.560134">
        <ele>93.627</ele>
        <time>2021-05-26T11:25:21Z</time>
      </trkpt>
      <trkpt lat="41.727640" lon="2.560146">
        <ele>93.814</ele>
        <time>2021-05-26T11:25:23Z</time>
      </trkpt>
      <trkpt lat="41.727618" lon="2.560158">
        <ele>93.947</ele>
        <time>2021-05-26T11:25:25Z</time>
      </trkpt>
      <trkpt lat="41.727593" lon="2.560171">
        <ele>94.152</ele>
        <time>2021-05-26T11:25:27Z</time>
      </trkpt>
      <trkpt lat="41.727574" lon="2.560181">
        <ele>94.248</ele>
        <time>2021-05-26T11:25:29Z</time>
      </trkpt>
      <trkpt lat="41.727545" lon="2.560194">
        <ele>94.455</ele>
        <time>2021-05-26T11:25:31Z</time>
      </trkpt>
      <trkpt lat="41.727527" lon="2.560199">
        <ele>94.582</ele>
        <time>2021-05-26T11:25:32Z</time>
      </trkpt>
      <trkpt lat="41.727497" lon="2.560205">
        <ele>94.834</ele>
        <time>2021-05-26T11:25:34Z</time>
      </trkpt>
      <trkpt lat="41.727468" lon="2.560218">
        <ele>95.155</ele>
        <time>2021-05-26T11:25:36Z</time>
      </trkpt>
      <trkpt lat="41.727447" lon="2.560223">
        <ele>95.310</ele>
        <time>2021-05-26T11:25:38Z</time>
      </trkpt>
      <trkpt lat="41.727429" lon="2.560244">
        <ele>95.508</ele>
        <time>2021-05-26T11:25:40Z</time>
      </trkpt>
      <trkpt lat="41.727449" lon="2.560233">
        <ele>95.310</ele>
        <time>2021-05-26T11:25:47Z</time>
      </trkpt>
      <trkpt lat="41.727465" lon="2.560249">
        <ele>95.247</ele>
        <time>2021-05-26T11:25:56Z</time>
      </trkpt>
      <trkpt lat="41.727456" lon="2.560228">
        <ele>95.234</ele>
        <time>2021-05-26T11:26:16Z</time>
      </trkpt>
      <trkpt lat="41.727477" lon="2.560233">
        <ele>95.027</ele>
        <time>2021-05-26T11:26:26Z</time>
      </trkpt>
      <trkpt lat="41.727459" lon="2.560224">
        <ele>95.272</ele>
        <time>2021-05-26T11:26:57Z</time>
      </trkpt>
      <trkpt lat="41.727441" lon="2.560216">
        <ele>95.368</ele>
        <time>2021-05-26T11:27:19Z</time>
      </trkpt>
      <trkpt lat="41.727433" lon="2.560240">
        <ele>95.435</ele>
        <time>2021-05-26T11:27:42Z</time>
      </trkpt>
      <trkpt lat="41.727426" lon="2.560266">
        <ele>95.592</ele>
        <time>2021-05-26T11:27:56Z</time>
      </trkpt>
      <trkpt lat="41.727418" lon="2.560292">
        <ele>95.675</ele>
        <time>2021-05-26T11:28:06Z</time>
      </trkpt>
      <trkpt lat="41.727415" lon="2.560267">
        <ele>95.628</ele>
        <time>2021-05-26T11:28:18Z</time>
      </trkpt>
      <trkpt lat="41.727420" lon="2.560238">
        <ele>95.520</ele>
        <time>2021-05-26T11:28:23Z</time>
      </trkpt>
      <trkpt lat="41.727423" lon="2.560210">
        <ele>95.408</ele>
        <time>2021-05-26T11:28:32Z</time>
      </trkpt>
      <trkpt lat="41.727421" lon="2.560237">
        <ele>95.584</ele>
        <time>2021-05-26T11:28:45Z</time>
      </trkpt>
      <trkpt lat="41.727438" lon="2.560231">
        <ele>95.471</ele>
        <time>2021-05-26T11:29:05Z</time>
      </trkpt>
      <trkpt lat="41.727440" lon="2.560272">
        <ele>95.428</ele>
        <time>2021-05-26T11:29:15Z</time>
      </trkpt>
      <trkpt lat="41.727459" lon="2.560278">
        <ele>95.331</ele>
        <time>2021-05-26T11:29:18Z</time>
      </trkpt>
      <trkpt lat="41.727477" lon="2.560276">
        <ele>95.246</ele>
        <time>2021-05-26T11:29:28Z</time>
      </trkpt>
      <trkpt lat="41.727498" lon="2.560270">
        <ele>95.082</ele>
        <time>2021-05-26T11:29:44Z</time>
      </trkpt>
      <trkpt lat="41.727523" lon="2.560258">
        <ele>94.839</ele>
        <time>2021-05-26T11:29:46Z</time>
      </trkpt>
      <trkpt lat="41.727549" lon="2.560243">
        <ele>94.516</ele>
        <time>2021-05-26T11:29:48Z</time>
      </trkpt>
      <trkpt lat="41.727573" lon="2.560230">
        <ele>94.399</ele>
        <time>2021-05-26T11:29:50Z</time>
      </trkpt>
      <trkpt lat="41.727595" lon="2.560220">
        <ele>94.207</ele>
        <time>2021-05-26T11:29:52Z</time>
      </trkpt>
      <trkpt lat="41.727607" lon="2.560250">
        <ele>94.227</ele>
        <time>2021-05-26T11:29:57Z</time>
      </trkpt>
      <trkpt lat="41.727626" lon="2.560277">
        <ele>94.108</ele>
        <time>2021-05-26T11:29:59Z</time>
      </trkpt>
      <trkpt lat="41.727649" lon="2.560301">
        <ele>93.966</ele>
        <time>2021-05-26T11:30:02Z</time>
      </trkpt>
      <trkpt lat="41.727668" lon="2.560324">
        <ele>93.723</ele>
        <time>2021-05-26T11:30:03Z</time>
      </trkpt>
      <trkpt lat="41.727686" lon="2.560358">
        <ele>93.680</ele>
        <time>2021-05-26T11:30:05Z</time>
      </trkpt>
      <trkpt lat="41.727707" lon="2.560387">
        <ele>93.483</ele>
        <time>2021-05-26T11:30:07Z</time>
      </trkpt>
      <trkpt lat="41.727725" lon="2.560417">
        <ele>93.378</ele>
        <time>2021-05-26T11:30:09Z</time>
      </trkpt>
      <trkpt lat="41.727742" lon="2.560451">
        <ele>93.254</ele>
        <time>2021-05-26T11:30:11Z</time>
      </trkpt>
      <trkpt lat="41.727756" lon="2.560480">
        <ele>93.161</ele>
        <time>2021-05-26T11:30:13Z</time>
      </trkpt>
      <trkpt lat="41.727768" lon="2.560512">
        <ele>93.038</ele>
        <time>2021-05-26T11:30:15Z</time>
      </trkpt>
      <trkpt lat="41.727782" lon="2.560541">
        <ele>93.063</ele>
        <time>2021-05-26T11:30:17Z</time>
      </trkpt>
      <trkpt lat="41.727798" lon="2.560574">
        <ele>92.944</ele>
        <time>2021-05-26T11:30:19Z</time>
      </trkpt>
      <trkpt lat="41.727813" lon="2.560601">
        <ele>92.918</ele>
        <time>2021-05-26T11:30:21Z</time>
      </trkpt>
      <trkpt lat="41.727823" lon="2.560630">
        <ele>92.908</ele>
        <time>2021-05-26T11:30:23Z</time>
      </trkpt>
      <trkpt lat="41.727833" lon="2.560660">
        <ele>92.923</ele>
        <time>2021-05-26T11:30:25Z</time>
      </trkpt>
      <trkpt lat="41.727847" lon="2.560696">
        <ele>92.950</ele>
        <time>2021-05-26T11:30:27Z</time>
      </trkpt>
      <trkpt lat="41.727862" lon="2.560725">
        <ele>92.967</ele>
        <time>2021-05-26T11:30:29Z</time>
      </trkpt>
      <trkpt lat="41.727874" lon="2.560757">
        <ele>92.910</ele>
        <time>2021-05-26T11:30:31Z</time>
      </trkpt>
      <trkpt lat="41.727886" lon="2.560788">
        <ele>92.975</ele>
        <time>2021-05-26T11:30:33Z</time>
      </trkpt>
      <trkpt lat="41.727899" lon="2.560820">
        <ele>93.021</ele>
        <time>2021-05-26T11:30:35Z</time>
      </trkpt>
      <trkpt lat="41.727912" lon="2.560849">
        <ele>93.088</ele>
        <time>2021-05-26T11:30:37Z</time>
      </trkpt>
      <trkpt lat="41.727924" lon="2.560881">
        <ele>93.145</ele>
        <time>2021-05-26T11:30:39Z</time>
      </trkpt>
      <trkpt lat="41.727934" lon="2.560910">
        <ele>93.216</ele>
        <time>2021-05-26T11:30:41Z</time>
      </trkpt>
      <trkpt lat="41.727946" lon="2.560941">
        <ele>93.276</ele>
        <time>2021-05-26T11:30:43Z</time>
      </trkpt>
      <trkpt lat="41.727956" lon="2.560970">
        <ele>93.313</ele>
        <time>2021-05-26T11:30:45Z</time>
      </trkpt>
      <trkpt lat="41.727938" lon="2.560983">
        <ele>93.308</ele>
        <time>2021-05-26T11:31:11Z</time>
      </trkpt>
      <trkpt lat="41.727959" lon="2.561009">
        <ele>93.498</ele>
        <time>2021-05-26T11:31:41Z</time>
      </trkpt>
      <trkpt lat="41.727973" lon="2.561040">
        <ele>93.575</ele>
        <time>2021-05-26T11:31:43Z</time>
      </trkpt>
      <trkpt lat="41.727991" lon="2.561070">
        <ele>93.772</ele>
        <time>2021-05-26T11:31:45Z</time>
      </trkpt>
      <trkpt lat="41.728003" lon="2.561102">
        <ele>93.875</ele>
        <time>2021-05-26T11:31:47Z</time>
      </trkpt>
      <trkpt lat="41.728024" lon="2.561129">
        <ele>93.980</ele>
        <time>2021-05-26T11:31:49Z</time>
      </trkpt>
      <trkpt lat="41.728047" lon="2.561140">
        <ele>94.096</ele>
        <time>2021-05-26T11:31:51Z</time>
      </trkpt>
      <trkpt lat="41.728074" lon="2.561144">
        <ele>93.993</ele>
        <time>2021-05-26T11:31:53Z</time>
      </trkpt>
      <trkpt lat="41.728100" lon="2.561131">
        <ele>93.850</ele>
        <time>2021-05-26T11:31:55Z</time>
      </trkpt>
      <trkpt lat="41.728125" lon="2.561114">
        <ele>93.845</ele>
        <time>2021-05-26T11:31:57Z</time>
      </trkpt>
      <trkpt lat="41.728147" lon="2.561098">
        <ele>93.647</ele>
        <time>2021-05-26T11:31:59Z</time>
      </trkpt>
      <trkpt lat="41.728176" lon="2.561083">
        <ele>93.511</ele>
        <time>2021-05-26T11:32:01Z</time>
      </trkpt>
      <trkpt lat="41.728205" lon="2.561069">
        <ele>93.408</ele>
        <time>2021-05-26T11:32:03Z</time>
      </trkpt>
      <trkpt lat="41.728239" lon="2.561058">
        <ele>93.351</ele>
        <time>2021-05-26T11:32:05Z</time>
      </trkpt>
      <trkpt lat="41.728271" lon="2.561049">
        <ele>93.298</ele>
        <time>2021-05-26T11:32:07Z</time>
      </trkpt>
      <trkpt lat="41.728305" lon="2.561044">
        <ele>93.155</ele>
        <time>2021-05-26T11:32:09Z</time>
      </trkpt>
      <trkpt lat="41.728338" lon="2.561038">
        <ele>93.048</ele>
        <time>2021-05-26T11:32:11Z</time>
      </trkpt>
      <trkpt lat="41.728363" lon="2.561028">
        <ele>93.063</ele>
        <time>2021-05-26T11:32:13Z</time>
      </trkpt>
      <trkpt lat="41.728384" lon="2.561018">
        <ele>92.919</ele>
        <time>2021-05-26T11:32:15Z</time>
      </trkpt>
      <trkpt lat="41.728409" lon="2.561017">
        <ele>92.916</ele>
        <time>2021-05-26T11:32:17Z</time>
      </trkpt>
      <trkpt lat="41.728432" lon="2.561021">
        <ele>92.983</ele>
        <time>2021-05-26T11:32:19Z</time>
      </trkpt>
      <trkpt lat="41.728456" lon="2.561034">
        <ele>92.915</ele>
        <time>2021-05-26T11:32:21Z</time>
      </trkpt>
      <trkpt lat="41.728473" lon="2.561051">
        <ele>92.965</ele>
        <time>2021-05-26T11:32:23Z</time>
      </trkpt>
      <trkpt lat="41.728493" lon="2.561074">
        <ele>92.911</ele>
        <time>2021-05-26T11:32:25Z</time>
      </trkpt>
      <trkpt lat="41.728511" lon="2.561090">
        <ele>93.008</ele>
        <time>2021-05-26T11:32:28Z</time>
      </trkpt>
      <trkpt lat="41.728528" lon="2.561110">
        <ele>93.038</ele>
        <time>2021-05-26T11:32:30Z</time>
      </trkpt>
      <trkpt lat="41.728553" lon="2.561132">
        <ele>93.095</ele>
        <time>2021-05-26T11:32:32Z</time>
      </trkpt>
      <trkpt lat="41.728573" lon="2.561156">
        <ele>93.062</ele>
        <time>2021-05-26T11:32:34Z</time>
      </trkpt>
      <trkpt lat="41.728596" lon="2.561182">
        <ele>93.045</ele>
        <time>2021-05-26T11:32:36Z</time>
      </trkpt>
      <trkpt lat="41.728621" lon="2.561204">
        <ele>93.060</ele>
        <time>2021-05-26T11:32:38Z</time>
      </trkpt>
      <trkpt lat="41.728649" lon="2.561219">
        <ele>93.126</ele>
        <time>2021-05-26T11:32:40Z</time>
      </trkpt>
      <trkpt lat="41.728668" lon="2.561249">
        <ele>93.263</ele>
        <time>2021-05-26T11:32:42Z</time>
      </trkpt>
      <trkpt lat="41.728685" lon="2.561282">
        <ele>93.350</ele>
        <time>2021-05-26T11:32:44Z</time>
      </trkpt>
      <trkpt lat="41.728702" lon="2.561314">
        <ele>93.573</ele>
        <time>2021-05-26T11:32:46Z</time>
      </trkpt>
      <trkpt lat="41.728718" lon="2.561346">
        <ele>93.785</ele>
        <time>2021-05-26T11:32:48Z</time>
      </trkpt>
      <trkpt lat="41.728736" lon="2.561379">
        <ele>93.913</ele>
        <time>2021-05-26T11:32:50Z</time>
      </trkpt>
      <trkpt lat="41.728753" lon="2.561405">
        <ele>94.008</ele>
        <time>2021-05-26T11:32:52Z</time>
      </trkpt>
      <trkpt lat="41.728769" lon="2.561434">
        <ele>94.294</ele>
        <time>2021-05-26T11:32:54Z</time>
      </trkpt>
      <trkpt lat="41.728788" lon="2.561466">
        <ele>94.411</ele>
        <time>2021-05-26T11:32:56Z</time>
      </trkpt>
      <trkpt lat="41.728809" lon="2.561492">
        <ele>94.588</ele>
        <time>2021-05-26T11:32:58Z</time>
      </trkpt>
      <trkpt lat="41.728827" lon="2.561520">
        <ele>94.751</ele>
        <time>2021-05-26T11:33:00Z</time>
      </trkpt>
      <trkpt lat="41.728844" lon="2.561550">
        <ele>94.836</ele>
        <time>2021-05-26T11:33:02Z</time>
      </trkpt>
      <trkpt lat="41.728861" lon="2.561581">
        <ele>94.952</ele>
        <time>2021-05-26T11:33:04Z</time>
      </trkpt>
      <trkpt lat="41.728881" lon="2.561610">
        <ele>95.029</ele>
        <time>2021-05-26T11:33:06Z</time>
      </trkpt>
      <trkpt lat="41.728901" lon="2.561638">
        <ele>95.266</ele>
        <time>2021-05-26T11:33:08Z</time>
      </trkpt>
      <trkpt lat="41.728921" lon="2.561666">
        <ele>95.561</ele>
        <time>2021-05-26T11:33:10Z</time>
      </trkpt>
      <trkpt lat="41.728939" lon="2.561696">
        <ele>96.021</ele>
        <time>2021-05-26T11:33:12Z</time>
      </trkpt>
      <trkpt lat="41.728956" lon="2.561726">
        <ele>96.413</ele>
        <time>2021-05-26T11:33:14Z</time>
      </trkpt>
      <trkpt lat="41.728974" lon="2.561755">
        <ele>97.008</ele>
        <time>2021-05-26T11:33:16Z</time>
      </trkpt>
      <trkpt lat="41.728991" lon="2.561782">
        <ele>97.593</ele>
        <time>2021-05-26T11:33:18Z</time>
      </trkpt>
      <trkpt lat="41.729011" lon="2.561810">
        <ele>98.090</ele>
        <time>2021-05-26T11:33:20Z</time>
      </trkpt>
      <trkpt lat="41.729024" lon="2.561837">
        <ele>98.517</ele>
        <time>2021-05-26T11:33:22Z</time>
      </trkpt>
      <trkpt lat="41.729055" lon="2.561835">
        <ele>99.020</ele>
        <time>2021-05-26T11:33:25Z</time>
      </trkpt>
      <trkpt lat="41.729086" lon="2.561830">
        <ele>99.475</ele>
        <time>2021-05-26T11:33:27Z</time>
      </trkpt>
      <trkpt lat="41.729116" lon="2.561820">
        <ele>99.841</ele>
        <time>2021-05-26T11:33:29Z</time>
      </trkpt>
      <trkpt lat="41.729146" lon="2.561807">
        <ele>100.268</ele>
        <time>2021-05-26T11:33:31Z</time>
      </trkpt>
      <trkpt lat="41.729176" lon="2.561787">
        <ele>100.465</ele>
        <time>2021-05-26T11:33:33Z</time>
      </trkpt>
      <trkpt lat="41.729191" lon="2.561774">
        <ele>100.393</ele>
        <time>2021-05-26T11:33:34Z</time>
      </trkpt>
      <trkpt lat="41.729213" lon="2.561749">
        <ele>100.265</ele>
        <time>2021-05-26T11:33:36Z</time>
      </trkpt>
      <trkpt lat="41.729232" lon="2.561717">
        <ele>100.021</ele>
        <time>2021-05-26T11:33:38Z</time>
      </trkpt>
      <trkpt lat="41.729250" lon="2.561688">
        <ele>99.808</ele>
        <time>2021-05-26T11:33:40Z</time>
      </trkpt>
      <trkpt lat="41.729272" lon="2.561657">
        <ele>99.786</ele>
        <time>2021-05-26T11:33:42Z</time>
      </trkpt>
      <trkpt lat="41.729292" lon="2.561625">
        <ele>99.643</ele>
        <time>2021-05-26T11:33:44Z</time>
      </trkpt>
      <trkpt lat="41.729304" lon="2.561591">
        <ele>99.490</ele>
        <time>2021-05-26T11:33:46Z</time>
      </trkpt>
      <trkpt lat="41.729323" lon="2.561563">
        <ele>99.493</ele>
        <time>2021-05-26T11:33:48Z</time>
      </trkpt>
      <trkpt lat="41.729340" lon="2.561551">
        <ele>99.478</ele>
        <time>2021-05-26T11:33:49Z</time>
      </trkpt>
      <trkpt lat="41.729369" lon="2.561527">
        <ele>99.574</ele>
        <time>2021-05-26T11:33:51Z</time>
      </trkpt>
      <trkpt lat="41.729384" lon="2.561514">
        <ele>99.531</ele>
        <time>2021-05-26T11:33:52Z</time>
      </trkpt>
      <trkpt lat="41.729409" lon="2.561489">
        <ele>99.528</ele>
        <time>2021-05-26T11:33:54Z</time>
      </trkpt>
      <trkpt lat="41.729433" lon="2.561461">
        <ele>99.496</ele>
        <time>2021-05-26T11:33:56Z</time>
      </trkpt>
      <trkpt lat="41.729453" lon="2.561434">
        <ele>99.431</ele>
        <time>2021-05-26T11:33:58Z</time>
      </trkpt>
      <trkpt lat="41.729471" lon="2.561405">
        <ele>99.324</ele>
        <time>2021-05-26T11:34:00Z</time>
      </trkpt>
      <trkpt lat="41.729488" lon="2.561373">
        <ele>99.308</ele>
        <time>2021-05-26T11:34:02Z</time>
      </trkpt>
      <trkpt lat="41.729503" lon="2.561342">
        <ele>99.376</ele>
        <time>2021-05-26T11:34:04Z</time>
      </trkpt>
      <trkpt lat="41.729524" lon="2.561308">
        <ele>99.373</ele>
        <time>2021-05-26T11:34:06Z</time>
      </trkpt>
      <trkpt lat="41.729543" lon="2.561270">
        <ele>99.320</ele>
        <time>2021-05-26T11:34:08Z</time>
      </trkpt>
      <trkpt lat="41.729561" lon="2.561236">
        <ele>99.323</ele>
        <time>2021-05-26T11:34:10Z</time>
      </trkpt>
      <trkpt lat="41.729575" lon="2.561200">
        <ele>99.378</ele>
        <time>2021-05-26T11:34:12Z</time>
      </trkpt>
      <trkpt lat="41.729586" lon="2.561164">
        <ele>99.294</ele>
        <time>2021-05-26T11:34:14Z</time>
      </trkpt>
      <trkpt lat="41.729600" lon="2.561126">
        <ele>99.281</ele>
        <time>2021-05-26T11:34:16Z</time>
      </trkpt>
      <trkpt lat="41.729611" lon="2.561089">
        <ele>99.228</ele>
        <time>2021-05-26T11:34:18Z</time>
      </trkpt>
      <trkpt lat="41.729618" lon="2.561050">
        <ele>99.253</ele>
        <time>2021-05-26T11:34:20Z</time>
      </trkpt>
      <trkpt lat="41.729625" lon="2.561011">
        <ele>99.304</ele>
        <time>2021-05-26T11:34:22Z</time>
      </trkpt>
      <trkpt lat="41.729635" lon="2.560972">
        <ele>99.414</ele>
        <time>2021-05-26T11:34:24Z</time>
      </trkpt>
      <trkpt lat="41.729643" lon="2.560931">
        <ele>99.408</ele>
        <time>2021-05-26T11:34:26Z</time>
      </trkpt>
      <trkpt lat="41.729651" lon="2.560890">
        <ele>99.512</ele>
        <time>2021-05-26T11:34:28Z</time>
      </trkpt>
      <trkpt lat="41.729658" lon="2.560852">
        <ele>99.519</ele>
        <time>2021-05-26T11:34:30Z</time>
      </trkpt>
      <trkpt lat="41.729667" lon="2.560811">
        <ele>99.516</ele>
        <time>2021-05-26T11:34:31Z</time>
      </trkpt>
      <trkpt lat="41.729675" lon="2.560772">
        <ele>99.429</ele>
        <time>2021-05-26T11:34:34Z</time>
      </trkpt>
      <trkpt lat="41.729680" lon="2.560734">
        <ele>99.344</ele>
        <time>2021-05-26T11:34:36Z</time>
      </trkpt>
      <trkpt lat="41.729686" lon="2.560698">
        <ele>99.360</ele>
        <time>2021-05-26T11:34:38Z</time>
      </trkpt>
      <trkpt lat="41.729692" lon="2.560657">
        <ele>99.137</ele>
        <time>2021-05-26T11:34:40Z</time>
      </trkpt>
      <trkpt lat="41.729700" lon="2.560617">
        <ele>99.144</ele>
        <time>2021-05-26T11:34:42Z</time>
      </trkpt>
      <trkpt lat="41.729704" lon="2.560576">
        <ele>98.997</ele>
        <time>2021-05-26T11:34:44Z</time>
      </trkpt>
      <trkpt lat="41.729712" lon="2.560537">
        <ele>98.823</ele>
        <time>2021-05-26T11:34:46Z</time>
      </trkpt>
      <trkpt lat="41.729722" lon="2.560498">
        <ele>98.625</ele>
        <time>2021-05-26T11:34:48Z</time>
      </trkpt>
      <trkpt lat="41.729727" lon="2.560463">
        <ele>98.308</ele>
        <time>2021-05-26T11:34:50Z</time>
      </trkpt>
      <trkpt lat="41.729733" lon="2.560426">
        <ele>98.186</ele>
        <time>2021-05-26T11:34:52Z</time>
      </trkpt>
      <trkpt lat="41.729740" lon="2.560393">
        <ele>97.973</ele>
        <time>2021-05-26T11:34:54Z</time>
      </trkpt>
      <trkpt lat="41.729744" lon="2.560360">
        <ele>97.690</ele>
        <time>2021-05-26T11:34:56Z</time>
      </trkpt>
      <trkpt lat="41.729745" lon="2.560327">
        <ele>97.453</ele>
        <time>2021-05-26T11:34:58Z</time>
      </trkpt>
      <trkpt lat="41.729754" lon="2.560278">
        <ele>97.178</ele>
        <time>2021-05-26T11:35:00Z</time>
      </trkpt>
      <trkpt lat="41.729759" lon="2.560256">
        <ele>97.164</ele>
        <time>2021-05-26T11:35:01Z</time>
      </trkpt>
      <trkpt lat="41.729769" lon="2.560217">
        <ele>97.271</ele>
        <time>2021-05-26T11:35:03Z</time>
      </trkpt>
      <trkpt lat="41.729775" lon="2.560173">
        <ele>97.298</ele>
        <time>2021-05-26T11:35:05Z</time>
      </trkpt>
      <trkpt lat="41.729780" lon="2.560148">
        <ele>97.222</ele>
        <time>2021-05-26T11:35:06Z</time>
      </trkpt>
      <trkpt lat="41.729790" lon="2.560102">
        <ele>97.262</ele>
        <time>2021-05-26T11:35:08Z</time>
      </trkpt>
      <trkpt lat="41.729795" lon="2.560076">
        <ele>97.308</ele>
        <time>2021-05-26T11:35:09Z</time>
      </trkpt>
      <trkpt lat="41.729802" lon="2.560032">
        <ele>97.308</ele>
        <time>2021-05-26T11:35:11Z</time>
      </trkpt>
      <trkpt lat="41.729814" lon="2.559987">
        <ele>97.479</ele>
        <time>2021-05-26T11:35:13Z</time>
      </trkpt>
      <trkpt lat="41.729819" lon="2.559960">
        <ele>97.536</ele>
        <time>2021-05-26T11:35:14Z</time>
      </trkpt>
      <trkpt lat="41.729827" lon="2.559915">
        <ele>97.723</ele>
        <time>2021-05-26T11:35:16Z</time>
      </trkpt>
      <trkpt lat="41.729832" lon="2.559890">
        <ele>97.826</ele>
        <time>2021-05-26T11:35:17Z</time>
      </trkpt>
      <trkpt lat="41.729842" lon="2.559845">
        <ele>98.071</ele>
        <time>2021-05-26T11:35:19Z</time>
      </trkpt>
      <trkpt lat="41.729850" lon="2.559821">
        <ele>98.147</ele>
        <time>2021-05-26T11:35:20Z</time>
      </trkpt>
      <trkpt lat="41.729857" lon="2.559799">
        <ele>98.224</ele>
        <time>2021-05-26T11:35:21Z</time>
      </trkpt>
      <trkpt lat="41.729870" lon="2.559755">
        <ele>98.491</ele>
        <time>2021-05-26T11:35:23Z</time>
      </trkpt>
      <trkpt lat="41.729884" lon="2.559713">
        <ele>98.666</ele>
        <time>2021-05-26T11:35:25Z</time>
      </trkpt>
      <trkpt lat="41.729895" lon="2.559672">
        <ele>98.529</ele>
        <time>2021-05-26T11:35:27Z</time>
      </trkpt>
      <trkpt lat="41.729903" lon="2.559630">
        <ele>98.421</ele>
        <time>2021-05-26T11:35:29Z</time>
      </trkpt>
      <trkpt lat="41.729915" lon="2.559586">
        <ele>98.408</ele>
        <time>2021-05-26T11:35:31Z</time>
      </trkpt>
      <trkpt lat="41.729925" lon="2.559544">
        <ele>98.393</ele>
        <time>2021-05-26T11:35:33Z</time>
      </trkpt>
      <trkpt lat="41.729933" lon="2.559503">
        <ele>98.220</ele>
        <time>2021-05-26T11:35:35Z</time>
      </trkpt>
      <trkpt lat="41.729947" lon="2.559466">
        <ele>98.167</ele>
        <time>2021-05-26T11:35:37Z</time>
      </trkpt>
      <trkpt lat="41.729960" lon="2.559427">
        <ele>98.070</ele>
        <time>2021-05-26T11:35:39Z</time>
      </trkpt>
      <trkpt lat="41.729972" lon="2.559388">
        <ele>98.015</ele>
        <time>2021-05-26T11:35:41Z</time>
      </trkpt>
      <trkpt lat="41.729985" lon="2.559353">
        <ele>98.021</ele>
        <time>2021-05-26T11:35:43Z</time>
      </trkpt>
      <trkpt lat="41.729999" lon="2.559315">
        <ele>98.098</ele>
        <time>2021-05-26T11:35:45Z</time>
      </trkpt>
      <trkpt lat="41.730017" lon="2.559280">
        <ele>98.075</ele>
        <time>2021-05-26T11:35:47Z</time>
      </trkpt>
      <trkpt lat="41.730030" lon="2.559243">
        <ele>98.182</ele>
        <time>2021-05-26T11:35:49Z</time>
      </trkpt>
      <trkpt lat="41.730045" lon="2.559211">
        <ele>98.143</ele>
        <time>2021-05-26T11:35:51Z</time>
      </trkpt>
      <trkpt lat="41.730059" lon="2.559172">
        <ele>98.017</ele>
        <time>2021-05-26T11:35:53Z</time>
      </trkpt>
      <trkpt lat="41.730075" lon="2.559139">
        <ele>97.908</ele>
        <time>2021-05-26T11:35:55Z</time>
      </trkpt>
      <trkpt lat="41.730091" lon="2.559101">
        <ele>97.895</ele>
        <time>2021-05-26T11:35:57Z</time>
      </trkpt>
      <trkpt lat="41.730108" lon="2.559066">
        <ele>97.692</ele>
        <time>2021-05-26T11:35:59Z</time>
      </trkpt>
      <trkpt lat="41.730118" lon="2.559029">
        <ele>97.549</ele>
        <time>2021-05-26T11:36:01Z</time>
      </trkpt>
      <trkpt lat="41.730130" lon="2.558994">
        <ele>97.482</ele>
        <time>2021-05-26T11:36:03Z</time>
      </trkpt>
      <trkpt lat="41.730143" lon="2.558958">
        <ele>97.227</ele>
        <time>2021-05-26T11:36:05Z</time>
      </trkpt>
      <trkpt lat="41.730158" lon="2.558921">
        <ele>97.163</ele>
        <time>2021-05-26T11:36:06Z</time>
      </trkpt>
      <trkpt lat="41.730171" lon="2.558881">
        <ele>97.020</ele>
        <time>2021-05-26T11:36:09Z</time>
      </trkpt>
      <trkpt lat="41.730184" lon="2.558843">
        <ele>96.977</ele>
        <time>2021-05-26T11:36:11Z</time>
      </trkpt>
      <trkpt lat="41.730197" lon="2.558803">
        <ele>96.854</ele>
        <time>2021-05-26T11:36:13Z</time>
      </trkpt>
      <trkpt lat="41.730208" lon="2.558762">
        <ele>96.756</ele>
        <time>2021-05-26T11:36:15Z</time>
      </trkpt>
      <trkpt lat="41.730222" lon="2.558721">
        <ele>96.511</ele>
        <time>2021-05-26T11:36:17Z</time>
      </trkpt>
      <trkpt lat="41.730236" lon="2.558682">
        <ele>96.408</ele>
        <time>2021-05-26T11:36:19Z</time>
      </trkpt>
      <trkpt lat="41.730248" lon="2.558644">
        <ele>96.252</ele>
        <time>2021-05-26T11:36:21Z</time>
      </trkpt>
      <trkpt lat="41.730263" lon="2.558606">
        <ele>96.149</ele>
        <time>2021-05-26T11:36:23Z</time>
      </trkpt>
      <trkpt lat="41.730276" lon="2.558567">
        <ele>96.396</ele>
        <time>2021-05-26T11:36:25Z</time>
      </trkpt>
      <trkpt lat="41.730292" lon="2.558531">
        <ele>96.619</ele>
        <time>2021-05-26T11:36:27Z</time>
      </trkpt>
      <trkpt lat="41.730307" lon="2.558495">
        <ele>96.934</ele>
        <time>2021-05-26T11:36:29Z</time>
      </trkpt>
      <trkpt lat="41.730326" lon="2.558462">
        <ele>97.270</ele>
        <time>2021-05-26T11:36:31Z</time>
      </trkpt>
      <trkpt lat="41.730345" lon="2.558430">
        <ele>97.437</ele>
        <time>2021-05-26T11:36:33Z</time>
      </trkpt>
      <trkpt lat="41.730363" lon="2.558399">
        <ele>97.684</ele>
        <time>2021-05-26T11:36:35Z</time>
      </trkpt>
      <trkpt lat="41.730381" lon="2.558369">
        <ele>97.853</ele>
        <time>2021-05-26T11:36:37Z</time>
      </trkpt>
      <trkpt lat="41.730402" lon="2.558337">
        <ele>98.004</ele>
        <time>2021-05-26T11:36:39Z</time>
      </trkpt>
      <trkpt lat="41.730422" lon="2.558303">
        <ele>98.214</ele>
        <time>2021-05-26T11:36:41Z</time>
      </trkpt>
      <trkpt lat="41.730442" lon="2.558272">
        <ele>98.408</ele>
        <time>2021-05-26T11:36:43Z</time>
      </trkpt>
      <trkpt lat="41.730465" lon="2.558246">
        <ele>98.662</ele>
        <time>2021-05-26T11:36:45Z</time>
      </trkpt>
      <trkpt lat="41.730487" lon="2.558221">
        <ele>98.869</ele>
        <time>2021-05-26T11:36:47Z</time>
      </trkpt>
      <trkpt lat="41.730508" lon="2.558195">
        <ele>99.016</ele>
        <time>2021-05-26T11:36:49Z</time>
      </trkpt>
      <trkpt lat="41.730528" lon="2.558167">
        <ele>99.219</ele>
        <time>2021-05-26T11:36:51Z</time>
      </trkpt>
      <trkpt lat="41.730549" lon="2.558136">
        <ele>99.454</ele>
        <time>2021-05-26T11:36:53Z</time>
      </trkpt>
      <trkpt lat="41.730570" lon="2.558106">
        <ele>99.670</ele>
        <time>2021-05-26T11:36:55Z</time>
      </trkpt>
      <trkpt lat="41.730590" lon="2.558079">
        <ele>99.747</ele>
        <time>2021-05-26T11:36:57Z</time>
      </trkpt>
      <trkpt lat="41.730612" lon="2.558050">
        <ele>99.854</ele>
        <time>2021-05-26T11:36:59Z</time>
      </trkpt>
      <trkpt lat="41.730633" lon="2.558022">
        <ele>99.854</ele>
        <time>2021-05-26T11:37:01Z</time>
      </trkpt>
      <trkpt lat="41.730655" lon="2.557994">
        <ele>99.956</ele>
        <time>2021-05-26T11:37:03Z</time>
      </trkpt>
      <trkpt lat="41.730677" lon="2.557963">
        <ele>99.911</ele>
        <time>2021-05-26T11:37:05Z</time>
      </trkpt>
      <trkpt lat="41.730698" lon="2.557935">
        <ele>99.908</ele>
        <time>2021-05-26T11:37:07Z</time>
      </trkpt>
      <trkpt lat="41.730722" lon="2.557906">
        <ele>99.912</ele>
        <time>2021-05-26T11:37:09Z</time>
      </trkpt>
      <trkpt lat="41.730743" lon="2.557873">
        <ele>100.089</ele>
        <time>2021-05-26T11:37:11Z</time>
      </trkpt>
      <trkpt lat="41.730760" lon="2.557839">
        <ele>100.076</ele>
        <time>2021-05-26T11:37:13Z</time>
      </trkpt>
      <trkpt lat="41.730773" lon="2.557820">
        <ele>100.169</ele>
        <time>2021-05-26T11:37:14Z</time>
      </trkpt>
      <trkpt lat="41.730788" lon="2.557804">
        <ele>100.144</ele>
        <time>2021-05-26T11:37:15Z</time>
      </trkpt>
      <trkpt lat="41.730804" lon="2.557773">
        <ele>100.150</ele>
        <time>2021-05-26T11:37:17Z</time>
      </trkpt>
      <trkpt lat="41.730820" lon="2.557739">
        <ele>100.137</ele>
        <time>2021-05-26T11:37:19Z</time>
      </trkpt>
      <trkpt lat="41.730832" lon="2.557702">
        <ele>100.054</ele>
        <time>2021-05-26T11:37:21Z</time>
      </trkpt>
      <trkpt lat="41.730843" lon="2.557668">
        <ele>100.084</ele>
        <time>2021-05-26T11:37:23Z</time>
      </trkpt>
      <trkpt lat="41.730852" lon="2.557635">
        <ele>100.007</ele>
        <time>2021-05-26T11:37:25Z</time>
      </trkpt>
      <trkpt lat="41.730868" lon="2.557599">
        <ele>100.017</ele>
        <time>2021-05-26T11:37:27Z</time>
      </trkpt>
      <trkpt lat="41.730886" lon="2.557563">
        <ele>100.008</ele>
        <time>2021-05-26T11:37:29Z</time>
      </trkpt>
      <trkpt lat="41.730898" lon="2.557526">
        <ele>100.035</ele>
        <time>2021-05-26T11:37:31Z</time>
      </trkpt>
      <trkpt lat="41.730906" lon="2.557493">
        <ele>100.042</ele>
        <time>2021-05-26T11:37:33Z</time>
      </trkpt>
      <trkpt lat="41.730912" lon="2.557458">
        <ele>100.199</ele>
        <time>2021-05-26T11:37:35Z</time>
      </trkpt>
      <trkpt lat="41.730916" lon="2.557419">
        <ele>100.262</ele>
        <time>2021-05-26T11:37:37Z</time>
      </trkpt>
      <trkpt lat="41.730918" lon="2.557375">
        <ele>100.347</ele>
        <time>2021-05-26T11:37:39Z</time>
      </trkpt>
      <trkpt lat="41.730927" lon="2.557335">
        <ele>100.443</ele>
        <time>2021-05-26T11:37:41Z</time>
      </trkpt>
      <trkpt lat="41.730939" lon="2.557295">
        <ele>100.550</ele>
        <time>2021-05-26T11:37:43Z</time>
      </trkpt>
      <trkpt lat="41.730948" lon="2.557252">
        <ele>100.537</ele>
        <time>2021-05-26T11:37:45Z</time>
      </trkpt>
      <trkpt lat="41.730949" lon="2.557208">
        <ele>100.744</ele>
        <time>2021-05-26T11:37:47Z</time>
      </trkpt>
      <trkpt lat="41.730951" lon="2.557167">
        <ele>100.905</ele>
        <time>2021-05-26T11:37:49Z</time>
      </trkpt>
      <trkpt lat="41.730957" lon="2.557126">
        <ele>101.115</ele>
        <time>2021-05-26T11:37:51Z</time>
      </trkpt>
      <trkpt lat="41.730958" lon="2.557084">
        <ele>101.308</ele>
        <time>2021-05-26T11:37:53Z</time>
      </trkpt>
      <trkpt lat="41.730963" lon="2.557042">
        <ele>101.561</ele>
        <time>2021-05-26T11:37:55Z</time>
      </trkpt>
      <trkpt lat="41.730964" lon="2.557001">
        <ele>101.778</ele>
        <time>2021-05-26T11:37:57Z</time>
      </trkpt>
      <trkpt lat="41.730967" lon="2.556960">
        <ele>101.985</ele>
        <time>2021-05-26T11:37:59Z</time>
      </trkpt>
      <trkpt lat="41.730973" lon="2.556923">
        <ele>102.138</ele>
        <time>2021-05-26T11:38:01Z</time>
      </trkpt>
      <trkpt lat="41.730981" lon="2.556884">
        <ele>102.293</ele>
        <time>2021-05-26T11:38:03Z</time>
      </trkpt>
      <trkpt lat="41.730991" lon="2.556848">
        <ele>102.329</ele>
        <time>2021-05-26T11:38:05Z</time>
      </trkpt>
      <trkpt lat="41.730998" lon="2.556809">
        <ele>102.596</ele>
        <time>2021-05-26T11:38:07Z</time>
      </trkpt>
      <trkpt lat="41.731000" lon="2.556772">
        <ele>102.683</ele>
        <time>2021-05-26T11:38:09Z</time>
      </trkpt>
      <trkpt lat="41.731009" lon="2.556735">
        <ele>102.811</ele>
        <time>2021-05-26T11:38:11Z</time>
      </trkpt>
      <trkpt lat="41.731013" lon="2.556695">
        <ele>102.921</ele>
        <time>2021-05-26T11:38:13Z</time>
      </trkpt>
      <trkpt lat="41.731016" lon="2.556652">
        <ele>103.003</ele>
        <time>2021-05-26T11:38:15Z</time>
      </trkpt>
      <trkpt lat="41.731023" lon="2.556610">
        <ele>102.908</ele>
        <time>2021-05-26T11:38:17Z</time>
      </trkpt>
      <trkpt lat="41.731035" lon="2.556568">
        <ele>102.858</ele>
        <time>2021-05-26T11:38:19Z</time>
      </trkpt>
      <trkpt lat="41.731047" lon="2.556526">
        <ele>102.725</ele>
        <time>2021-05-26T11:38:21Z</time>
      </trkpt>
      <trkpt lat="41.731055" lon="2.556488">
        <ele>102.622</ele>
        <time>2021-05-26T11:38:23Z</time>
      </trkpt>
      <trkpt lat="41.731062" lon="2.556450">
        <ele>102.525</ele>
        <time>2021-05-26T11:38:25Z</time>
      </trkpt>
      <trkpt lat="41.731069" lon="2.556412">
        <ele>102.480</ele>
        <time>2021-05-26T11:38:27Z</time>
      </trkpt>
      <trkpt lat="41.731089" lon="2.556378">
        <ele>102.256</ele>
        <time>2021-05-26T11:38:29Z</time>
      </trkpt>
      <trkpt lat="41.731111" lon="2.556343">
        <ele>102.273</ele>
        <time>2021-05-26T11:38:31Z</time>
      </trkpt>
      <trkpt lat="41.731131" lon="2.556309">
        <ele>102.350</ele>
        <time>2021-05-26T11:38:33Z</time>
      </trkpt>
      <trkpt lat="41.731146" lon="2.556278">
        <ele>102.319</ele>
        <time>2021-05-26T11:38:35Z</time>
      </trkpt>
      <trkpt lat="41.731163" lon="2.556249">
        <ele>102.409</ele>
        <time>2021-05-26T11:38:37Z</time>
      </trkpt>
      <trkpt lat="41.731180" lon="2.556221">
        <ele>102.519</ele>
        <time>2021-05-26T11:38:39Z</time>
      </trkpt>
      <trkpt lat="41.731195" lon="2.556187">
        <ele>102.508</ele>
        <time>2021-05-26T11:38:41Z</time>
      </trkpt>
      <trkpt lat="41.731209" lon="2.556152">
        <ele>102.658</ele>
        <time>2021-05-26T11:38:43Z</time>
      </trkpt>
      <trkpt lat="41.731224" lon="2.556120">
        <ele>102.625</ele>
        <time>2021-05-26T11:38:45Z</time>
      </trkpt>
      <trkpt lat="41.731238" lon="2.556083">
        <ele>102.642</ele>
        <time>2021-05-26T11:38:47Z</time>
      </trkpt>
      <trkpt lat="41.731254" lon="2.556051">
        <ele>102.715</ele>
        <time>2021-05-26T11:38:49Z</time>
      </trkpt>
      <trkpt lat="41.731269" lon="2.556017">
        <ele>102.850</ele>
        <time>2021-05-26T11:38:51Z</time>
      </trkpt>
      <trkpt lat="41.731285" lon="2.555985">
        <ele>102.856</ele>
        <time>2021-05-26T11:38:53Z</time>
      </trkpt>
      <trkpt lat="41.731301" lon="2.555951">
        <ele>102.953</ele>
        <time>2021-05-26T11:38:55Z</time>
      </trkpt>
      <trkpt lat="41.731317" lon="2.555917">
        <ele>103.060</ele>
        <time>2021-05-26T11:38:57Z</time>
      </trkpt>
      <trkpt lat="41.731328" lon="2.555882">
        <ele>103.024</ele>
        <time>2021-05-26T11:38:59Z</time>
      </trkpt>
      <trkpt lat="41.731342" lon="2.555853">
        <ele>103.104</ele>
        <time>2021-05-26T11:39:01Z</time>
      </trkpt>
      <trkpt lat="41.731354" lon="2.555819">
        <ele>103.214</ele>
        <time>2021-05-26T11:39:03Z</time>
      </trkpt>
      <trkpt lat="41.731372" lon="2.555786">
        <ele>103.208</ele>
        <time>2021-05-26T11:39:05Z</time>
      </trkpt>
      <trkpt lat="41.731398" lon="2.555757">
        <ele>103.349</ele>
        <time>2021-05-26T11:39:07Z</time>
      </trkpt>
      <trkpt lat="41.731416" lon="2.555744">
        <ele>103.486</ele>
        <time>2021-05-26T11:39:08Z</time>
      </trkpt>
      <trkpt lat="41.731431" lon="2.555730">
        <ele>103.533</ele>
        <time>2021-05-26T11:39:09Z</time>
      </trkpt>
      <trkpt lat="41.731455" lon="2.555706">
        <ele>103.746</ele>
        <time>2021-05-26T11:39:11Z</time>
      </trkpt>
      <trkpt lat="41.731476" lon="2.555679">
        <ele>103.931</ele>
        <time>2021-05-26T11:39:13Z</time>
      </trkpt>
      <trkpt lat="41.731500" lon="2.555654">
        <ele>104.067</ele>
        <time>2021-05-26T11:39:15Z</time>
      </trkpt>
      <trkpt lat="41.731520" lon="2.555621">
        <ele>104.214</ele>
        <time>2021-05-26T11:39:17Z</time>
      </trkpt>
      <trkpt lat="41.731538" lon="2.555590">
        <ele>104.491</ele>
        <time>2021-05-26T11:39:19Z</time>
      </trkpt>
      <trkpt lat="41.731559" lon="2.555561">
        <ele>104.674</ele>
        <time>2021-05-26T11:39:21Z</time>
      </trkpt>
      <trkpt lat="41.731580" lon="2.555536">
        <ele>104.856</ele>
        <time>2021-05-26T11:39:23Z</time>
      </trkpt>
      <trkpt lat="41.731604" lon="2.555507">
        <ele>104.921</ele>
        <time>2021-05-26T11:39:25Z</time>
      </trkpt>
      <trkpt lat="41.731625" lon="2.555476">
        <ele>105.108</ele>
        <time>2021-05-26T11:39:27Z</time>
      </trkpt>
      <trkpt lat="41.731639" lon="2.555445">
        <ele>105.314</ele>
        <time>2021-05-26T11:39:29Z</time>
      </trkpt>
      <trkpt lat="41.731656" lon="2.555420">
        <ele>105.521</ele>
        <time>2021-05-26T11:39:31Z</time>
      </trkpt>
      <trkpt lat="41.731678" lon="2.555391">
        <ele>105.638</ele>
        <time>2021-05-26T11:39:33Z</time>
      </trkpt>
      <trkpt lat="41.731705" lon="2.555371">
        <ele>105.731</ele>
        <time>2021-05-26T11:39:35Z</time>
      </trkpt>
      <trkpt lat="41.731722" lon="2.555361">
        <ele>105.886</ele>
        <time>2021-05-26T11:39:36Z</time>
      </trkpt>
      <trkpt lat="41.731744" lon="2.555336">
        <ele>105.842</ele>
        <time>2021-05-26T11:39:38Z</time>
      </trkpt>
      <trkpt lat="41.731769" lon="2.555313">
        <ele>105.959</ele>
        <time>2021-05-26T11:39:40Z</time>
      </trkpt>
      <trkpt lat="41.731797" lon="2.555288">
        <ele>106.016</ele>
        <time>2021-05-26T11:39:42Z</time>
      </trkpt>
      <trkpt lat="41.731812" lon="2.555275">
        <ele>106.023</ele>
        <time>2021-05-26T11:39:43Z</time>
      </trkpt>
      <trkpt lat="41.731832" lon="2.555249">
        <ele>106.183</ele>
        <time>2021-05-26T11:39:45Z</time>
      </trkpt>
      <trkpt lat="41.731856" lon="2.555223">
        <ele>106.111</ele>
        <time>2021-05-26T11:39:47Z</time>
      </trkpt>
      <trkpt lat="41.731874" lon="2.555188">
        <ele>106.208</ele>
        <time>2021-05-26T11:39:49Z</time>
      </trkpt>
      <trkpt lat="41.731892" lon="2.555164">
        <ele>106.259</ele>
        <time>2021-05-26T11:39:51Z</time>
      </trkpt>
      <trkpt lat="41.731918" lon="2.555138">
        <ele>106.146</ele>
        <time>2021-05-26T11:39:53Z</time>
      </trkpt>
      <trkpt lat="41.731946" lon="2.555112">
        <ele>106.073</ele>
        <time>2021-05-26T11:39:54Z</time>
      </trkpt>
      <trkpt lat="41.731965" lon="2.555100">
        <ele>106.046</ele>
        <time>2021-05-26T11:39:56Z</time>
      </trkpt>
      <trkpt lat="41.731981" lon="2.555087">
        <ele>106.031</ele>
        <time>2021-05-26T11:39:57Z</time>
      </trkpt>
      <trkpt lat="41.732004" lon="2.555059">
        <ele>106.017</ele>
        <time>2021-05-26T11:39:59Z</time>
      </trkpt>
      <trkpt lat="41.732027" lon="2.555030">
        <ele>106.064</ele>
        <time>2021-05-26T11:40:01Z</time>
      </trkpt>
      <trkpt lat="41.732052" lon="2.555004">
        <ele>106.011</ele>
        <time>2021-05-26T11:40:03Z</time>
      </trkpt>
      <trkpt lat="41.732077" lon="2.554975">
        <ele>106.156</ele>
        <time>2021-05-26T11:40:05Z</time>
      </trkpt>
      <trkpt lat="41.732098" lon="2.554947">
        <ele>106.259</ele>
        <time>2021-05-26T11:40:07Z</time>
      </trkpt>
      <trkpt lat="41.732122" lon="2.554918">
        <ele>106.314</ele>
        <time>2021-05-26T11:40:09Z</time>
      </trkpt>
      <trkpt lat="41.732146" lon="2.554892">
        <ele>106.408</ele>
        <time>2021-05-26T11:40:11Z</time>
      </trkpt>
      <trkpt lat="41.732166" lon="2.554868">
        <ele>106.522</ele>
        <time>2021-05-26T11:40:13Z</time>
      </trkpt>
      <trkpt lat="41.732183" lon="2.554839">
        <ele>106.619</ele>
        <time>2021-05-26T11:40:15Z</time>
      </trkpt>
      <trkpt lat="41.732199" lon="2.554809">
        <ele>106.786</ele>
        <time>2021-05-26T11:40:17Z</time>
      </trkpt>
      <trkpt lat="41.732208" lon="2.554780">
        <ele>106.859</ele>
        <time>2021-05-26T11:40:19Z</time>
      </trkpt>
      <trkpt lat="41.732225" lon="2.554750">
        <ele>106.914</ele>
        <time>2021-05-26T11:40:21Z</time>
      </trkpt>
      <trkpt lat="41.732238" lon="2.554724">
        <ele>107.130</ele>
        <time>2021-05-26T11:40:23Z</time>
      </trkpt>
      <trkpt lat="41.732260" lon="2.554697">
        <ele>107.357</ele>
        <time>2021-05-26T11:40:25Z</time>
      </trkpt>
      <trkpt lat="41.732282" lon="2.554671">
        <ele>107.524</ele>
        <time>2021-05-26T11:40:27Z</time>
      </trkpt>
      <trkpt lat="41.732324" lon="2.554628">
        <ele>107.932</ele>
        <time>2021-05-26T11:40:31Z</time>
      </trkpt>
      <trkpt lat="41.732339" lon="2.554612">
        <ele>108.092</ele>
        <time>2021-05-26T11:40:32Z</time>
      </trkpt>
      <trkpt lat="41.732373" lon="2.554561">
        <ele>108.411</ele>
        <time>2021-05-26T11:40:35Z</time>
      </trkpt>
      <trkpt lat="41.732389" lon="2.554517">
        <ele>108.608</ele>
        <time>2021-05-26T11:40:37Z</time>
      </trkpt>
      <trkpt lat="41.732458" lon="2.554412">
        <ele>109.550</ele>
        <time>2021-05-26T11:40:43Z</time>
      </trkpt>
      <trkpt lat="41.732516" lon="2.554294">
        <ele>109.797</ele>
        <time>2021-05-26T11:40:50Z</time>
      </trkpt>
      <trkpt lat="41.732570" lon="2.554186">
        <ele>110.184</ele>
        <time>2021-05-26T11:40:57Z</time>
      </trkpt>
      <trkpt lat="41.732598" lon="2.554069">
        <ele>109.967</ele>
        <time>2021-05-26T11:41:03Z</time>
      </trkpt>
      <trkpt lat="41.732630" lon="2.553951">
        <ele>109.722</ele>
        <time>2021-05-26T11:41:09Z</time>
      </trkpt>
      <trkpt lat="41.732631" lon="2.553821">
        <ele>109.468</ele>
        <time>2021-05-26T11:41:15Z</time>
      </trkpt>
      <trkpt lat="41.732643" lon="2.553699">
        <ele>109.545</ele>
        <time>2021-05-26T11:41:22Z</time>
      </trkpt>
      <trkpt lat="41.732659" lon="2.553567">
        <ele>109.552</ele>
        <time>2021-05-26T11:41:29Z</time>
      </trkpt>
      <trkpt lat="41.732682" lon="2.553445">
        <ele>109.455</ele>
        <time>2021-05-26T11:41:35Z</time>
      </trkpt>
      <trkpt lat="41.732702" lon="2.553323">
        <ele>109.507</ele>
        <time>2021-05-26T11:41:41Z</time>
      </trkpt>
      <trkpt lat="41.732746" lon="2.553214">
        <ele>109.817</ele>
        <time>2021-05-26T11:41:48Z</time>
      </trkpt>
      <trkpt lat="41.732794" lon="2.553110">
        <ele>110.208</ele>
        <time>2021-05-26T11:41:53Z</time>
      </trkpt>
      <trkpt lat="41.732848" lon="2.553004">
        <ele>110.692</ele>
        <time>2021-05-26T11:41:59Z</time>
      </trkpt>
      <trkpt lat="41.732908" lon="2.552933">
        <ele>111.019</ele>
        <time>2021-05-26T11:42:05Z</time>
      </trkpt>
      <trkpt lat="41.732924" lon="2.552921">
        <ele>111.176</ele>
        <time>2021-05-26T11:42:06Z</time>
      </trkpt>
      <trkpt lat="41.732945" lon="2.552894">
        <ele>111.219</ele>
        <time>2021-05-26T11:42:08Z</time>
      </trkpt>
      <trkpt lat="41.732955" lon="2.552867">
        <ele>111.294</ele>
        <time>2021-05-26T11:42:10Z</time>
      </trkpt>
      <trkpt lat="41.733000" lon="2.552753">
        <ele>111.310</ele>
        <time>2021-05-26T11:42:16Z</time>
      </trkpt>
      <trkpt lat="41.733073" lon="2.552671">
        <ele>111.747</ele>
        <time>2021-05-26T11:42:21Z</time>
      </trkpt>
      <trkpt lat="41.733120" lon="2.552568">
        <ele>111.764</ele>
        <time>2021-05-26T11:42:27Z</time>
      </trkpt>
      <trkpt lat="41.733184" lon="2.552481">
        <ele>111.961</ele>
        <time>2021-05-26T11:42:33Z</time>
      </trkpt>
      <trkpt lat="41.733248" lon="2.552368">
        <ele>111.921</ele>
        <time>2021-05-26T11:42:39Z</time>
      </trkpt>
      <trkpt lat="41.733313" lon="2.552276">
        <ele>112.013</ele>
        <time>2021-05-26T11:42:43Z</time>
      </trkpt>
      <trkpt lat="41.733396" lon="2.552218">
        <ele>112.508</ele>
        <time>2021-05-26T11:42:46Z</time>
      </trkpt>
      <trkpt lat="41.733443" lon="2.552114">
        <ele>112.873</ele>
        <time>2021-05-26T11:42:51Z</time>
      </trkpt>
      <trkpt lat="41.733473" lon="2.551998">
        <ele>113.030</ele>
        <time>2021-05-26T11:42:58Z</time>
      </trkpt>
      <trkpt lat="41.733526" lon="2.551900">
        <ele>113.387</ele>
        <time>2021-05-26T11:43:04Z</time>
      </trkpt>
      <trkpt lat="41.733607" lon="2.551806">
        <ele>113.510</ele>
        <time>2021-05-26T11:43:10Z</time>
      </trkpt>
      <trkpt lat="41.733675" lon="2.551704">
        <ele>114.095</ele>
        <time>2021-05-26T11:43:15Z</time>
      </trkpt>
      <trkpt lat="41.733737" lon="2.551603">
        <ele>114.751</ele>
        <time>2021-05-26T11:43:19Z</time>
      </trkpt>
      <trkpt lat="41.733805" lon="2.551504">
        <ele>115.648</ele>
        <time>2021-05-26T11:43:23Z</time>
      </trkpt>
      <trkpt lat="41.733861" lon="2.551387">
        <ele>116.595</ele>
        <time>2021-05-26T11:43:27Z</time>
      </trkpt>
      <trkpt lat="41.733923" lon="2.551277">
        <ele>116.989</ele>
        <time>2021-05-26T11:43:33Z</time>
      </trkpt>
      <trkpt lat="41.733978" lon="2.551177">
        <ele>117.206</ele>
        <time>2021-05-26T11:43:38Z</time>
      </trkpt>
      <trkpt lat="41.734011" lon="2.551051">
        <ele>116.726</ele>
        <time>2021-05-26T11:43:43Z</time>
      </trkpt>
      <trkpt lat="41.734038" lon="2.550928">
        <ele>116.008</ele>
        <time>2021-05-26T11:43:49Z</time>
      </trkpt>
      <trkpt lat="41.734047" lon="2.550789">
        <ele>115.065</ele>
        <time>2021-05-26T11:43:56Z</time>
      </trkpt>
      <trkpt lat="41.734046" lon="2.550657">
        <ele>114.812</ele>
        <time>2021-05-26T11:44:03Z</time>
      </trkpt>
      <trkpt lat="41.734056" lon="2.550537">
        <ele>114.649</ele>
        <time>2021-05-26T11:44:09Z</time>
      </trkpt>
      <trkpt lat="41.734067" lon="2.550403">
        <ele>114.612</ele>
        <time>2021-05-26T11:44:16Z</time>
      </trkpt>
      <trkpt lat="41.734085" lon="2.550284">
        <ele>114.757</ele>
        <time>2021-05-26T11:44:22Z</time>
      </trkpt>
      <trkpt lat="41.734083" lon="2.550156">
        <ele>114.353</ele>
        <time>2021-05-26T11:44:28Z</time>
      </trkpt>
      <trkpt lat="41.734099" lon="2.550024">
        <ele>113.880</ele>
        <time>2021-05-26T11:44:35Z</time>
      </trkpt>
      <trkpt lat="41.734153" lon="2.549913">
        <ele>113.747</ele>
        <time>2021-05-26T11:44:42Z</time>
      </trkpt>
      <trkpt lat="41.734248" lon="2.549848">
        <ele>113.744</ele>
        <time>2021-05-26T11:44:48Z</time>
      </trkpt>
      <trkpt lat="41.734314" lon="2.549756">
        <ele>113.705</ele>
        <time>2021-05-26T11:44:54Z</time>
      </trkpt>
      <trkpt lat="41.734369" lon="2.549660">
        <ele>113.715</ele>
        <time>2021-05-26T11:45:01Z</time>
      </trkpt>
      <trkpt lat="41.734418" lon="2.549553">
        <ele>113.908</ele>
        <time>2021-05-26T11:45:08Z</time>
      </trkpt>
      <trkpt lat="41.734495" lon="2.549464">
        <ele>114.411</ele>
        <time>2021-05-26T11:45:14Z</time>
      </trkpt>
      <trkpt lat="41.734562" lon="2.549382">
        <ele>115.128</ele>
        <time>2021-05-26T11:45:20Z</time>
      </trkpt>
      <trkpt lat="41.734641" lon="2.549292">
        <ele>116.085</ele>
        <time>2021-05-26T11:45:26Z</time>
      </trkpt>
      <trkpt lat="41.734727" lon="2.549234">
        <ele>116.858</ele>
        <time>2021-05-26T11:45:31Z</time>
      </trkpt>
      <trkpt lat="41.734803" lon="2.549152">
        <ele>118.183</ele>
        <time>2021-05-26T11:45:38Z</time>
      </trkpt>
      <trkpt lat="41.734865" lon="2.549041">
        <ele>118.689</ele>
        <time>2021-05-26T11:45:45Z</time>
      </trkpt>
      <trkpt lat="41.734911" lon="2.548917">
        <ele>118.886</ele>
        <time>2021-05-26T11:45:53Z</time>
      </trkpt>
      <trkpt lat="41.734986" lon="2.548837">
        <ele>119.673</ele>
        <time>2021-05-26T11:46:00Z</time>
      </trkpt>
      <trkpt lat="41.735056" lon="2.548751">
        <ele>120.316</ele>
        <time>2021-05-26T11:46:07Z</time>
      </trkpt>
      <trkpt lat="41.735107" lon="2.548625">
        <ele>120.676</ele>
        <time>2021-05-26T11:46:13Z</time>
      </trkpt>
      <trkpt lat="41.735132" lon="2.548507">
        <ele>120.913</ele>
        <time>2021-05-26T11:46:19Z</time>
      </trkpt>
      <trkpt lat="41.735185" lon="2.548386">
        <ele>121.708</ele>
        <time>2021-05-26T11:46:25Z</time>
      </trkpt>
      <trkpt lat="41.735230" lon="2.548273">
        <ele>122.538</ele>
        <time>2021-05-26T11:46:31Z</time>
      </trkpt>
      <trkpt lat="41.735245" lon="2.548150">
        <ele>123.115</ele>
        <time>2021-05-26T11:46:37Z</time>
      </trkpt>
      <trkpt lat="41.735266" lon="2.548028">
        <ele>123.692</ele>
        <time>2021-05-26T11:46:43Z</time>
      </trkpt>
      <trkpt lat="41.735291" lon="2.547909">
        <ele>123.185</ele>
        <time>2021-05-26T11:46:48Z</time>
      </trkpt>
      <trkpt lat="41.735309" lon="2.547778">
        <ele>122.510</ele>
        <time>2021-05-26T11:46:54Z</time>
      </trkpt>
      <trkpt lat="41.735364" lon="2.547677">
        <ele>123.046</ele>
        <time>2021-05-26T11:47:00Z</time>
      </trkpt>
      <trkpt lat="41.735429" lon="2.547572">
        <ele>123.453</ele>
        <time>2021-05-26T11:47:08Z</time>
      </trkpt>
      <trkpt lat="41.735498" lon="2.547477">
        <ele>123.480</ele>
        <time>2021-05-26T11:47:14Z</time>
      </trkpt>
      <trkpt lat="41.735562" lon="2.547371">
        <ele>123.199</ele>
        <time>2021-05-26T11:47:21Z</time>
      </trkpt>
      <trkpt lat="41.735629" lon="2.547264">
        <ele>122.607</ele>
        <time>2021-05-26T11:47:29Z</time>
      </trkpt>
      <trkpt lat="41.735707" lon="2.547197">
        <ele>122.427</ele>
        <time>2021-05-26T11:47:35Z</time>
      </trkpt>
      <trkpt lat="41.735782" lon="2.547122">
        <ele>122.208</ele>
        <time>2021-05-26T11:47:41Z</time>
      </trkpt>
      <trkpt lat="41.735850" lon="2.547043">
        <ele>121.926</ele>
        <time>2021-05-26T11:47:47Z</time>
      </trkpt>
      <trkpt lat="41.735937" lon="2.546967">
        <ele>122.613</ele>
        <time>2021-05-26T11:47:53Z</time>
      </trkpt>
      <trkpt lat="41.736012" lon="2.546878">
        <ele>123.560</ele>
        <time>2021-05-26T11:48:00Z</time>
      </trkpt>
      <trkpt lat="41.736082" lon="2.546799">
        <ele>124.253</ele>
        <time>2021-05-26T11:48:07Z</time>
      </trkpt>
      <trkpt lat="41.736156" lon="2.546728">
        <ele>125.058</ele>
        <time>2021-05-26T11:48:13Z</time>
      </trkpt>
      <trkpt lat="41.736186" lon="2.546667">
        <ele>125.384</ele>
        <time>2021-05-26T11:48:17Z</time>
      </trkpt>
      <trkpt lat="41.736196" lon="2.546618">
        <ele>125.491</ele>
        <time>2021-05-26T11:48:20Z</time>
      </trkpt>
      <trkpt lat="41.736149" lon="2.546548">
        <ele>124.678</ele>
        <time>2021-05-26T11:48:33Z</time>
      </trkpt>
      <trkpt lat="41.736120" lon="2.546529">
        <ele>124.196</ele>
        <time>2021-05-26T11:48:42Z</time>
      </trkpt>
      <trkpt lat="41.736096" lon="2.546555">
        <ele>123.931</ele>
        <time>2021-05-26T11:49:17Z</time>
      </trkpt>
      <trkpt lat="41.736076" lon="2.546562">
        <ele>123.724</ele>
        <time>2021-05-26T11:49:21Z</time>
      </trkpt>
      <trkpt lat="41.736063" lon="2.546593">
        <ele>123.708</ele>
        <time>2021-05-26T11:49:45Z</time>
      </trkpt>
      <trkpt lat="41.736082" lon="2.546586">
        <ele>123.846</ele>
        <time>2021-05-26T11:50:26Z</time>
      </trkpt>
      <trkpt lat="41.736117" lon="2.546582">
        <ele>124.113</ele>
        <time>2021-05-26T11:50:42Z</time>
      </trkpt>
      <trkpt lat="41.736136" lon="2.546568">
        <ele>124.420</ele>
        <time>2021-05-26T11:50:45Z</time>
      </trkpt>
      <trkpt lat="41.736162" lon="2.546558">
        <ele>124.813</ele>
        <time>2021-05-26T11:50:47Z</time>
      </trkpt>
      <trkpt lat="41.736187" lon="2.546550">
        <ele>125.118</ele>
        <time>2021-05-26T11:50:49Z</time>
      </trkpt>
      <trkpt lat="41.736213" lon="2.546534">
        <ele>125.534</ele>
        <time>2021-05-26T11:50:51Z</time>
      </trkpt>
      <trkpt lat="41.736241" lon="2.546515">
        <ele>125.861</ele>
        <time>2021-05-26T11:50:53Z</time>
      </trkpt>
      <trkpt lat="41.736271" lon="2.546490">
        <ele>126.188</ele>
        <time>2021-05-26T11:50:55Z</time>
      </trkpt>
      <trkpt lat="41.736314" lon="2.546410">
        <ele>126.382</ele>
        <time>2021-05-26T11:50:59Z</time>
      </trkpt>
      <trkpt lat="41.736338" lon="2.546389">
        <ele>126.543</ele>
        <time>2021-05-26T11:51:01Z</time>
      </trkpt>
      <trkpt lat="41.736366" lon="2.546371">
        <ele>126.617</ele>
        <time>2021-05-26T11:51:03Z</time>
      </trkpt>
      <trkpt lat="41.736391" lon="2.546346">
        <ele>126.708</ele>
        <time>2021-05-26T11:51:05Z</time>
      </trkpt>
      <trkpt lat="41.736410" lon="2.546309">
        <ele>126.655</ele>
        <time>2021-05-26T11:51:07Z</time>
      </trkpt>
      <trkpt lat="41.736419" lon="2.546275">
        <ele>126.452</ele>
        <time>2021-05-26T11:51:09Z</time>
      </trkpt>
      <trkpt lat="41.736434" lon="2.546244">
        <ele>126.389</ele>
        <time>2021-05-26T11:51:11Z</time>
      </trkpt>
      <trkpt lat="41.736448" lon="2.546211">
        <ele>126.172</ele>
        <time>2021-05-26T11:51:13Z</time>
      </trkpt>
      <trkpt lat="41.736464" lon="2.546180">
        <ele>126.047</ele>
        <time>2021-05-26T11:51:15Z</time>
      </trkpt>
      <trkpt lat="41.736481" lon="2.546152">
        <ele>126.053</ele>
        <time>2021-05-26T11:51:17Z</time>
      </trkpt>
      <trkpt lat="41.736557" lon="2.546055">
        <ele>126.170</ele>
        <time>2021-05-26T11:51:24Z</time>
      </trkpt>
      <trkpt lat="41.736623" lon="2.545955">
        <ele>126.257</ele>
        <time>2021-05-26T11:51:31Z</time>
      </trkpt>
      <trkpt lat="41.736644" lon="2.545924">
        <ele>126.268</ele>
        <time>2021-05-26T11:51:33Z</time>
      </trkpt>
      <trkpt lat="41.736691" lon="2.545817">
        <ele>126.342</ele>
        <time>2021-05-26T11:51:39Z</time>
      </trkpt>
      <trkpt lat="41.736756" lon="2.545721">
        <ele>126.826</ele>
        <time>2021-05-26T11:51:46Z</time>
      </trkpt>
      <trkpt lat="41.736812" lon="2.545624">
        <ele>127.208</ele>
        <time>2021-05-26T11:51:52Z</time>
      </trkpt>
      <trkpt lat="41.736881" lon="2.545526">
        <ele>127.473</ele>
        <time>2021-05-26T11:51:59Z</time>
      </trkpt>
      <trkpt lat="41.736946" lon="2.545421">
        <ele>127.040</ele>
        <time>2021-05-26T11:52:07Z</time>
      </trkpt>
      <trkpt lat="41.736976" lon="2.545377">
        <ele>127.047</ele>
        <time>2021-05-26T11:52:10Z</time>
      </trkpt>
      <trkpt lat="41.736996" lon="2.545351">
        <ele>126.910</ele>
        <time>2021-05-26T11:52:12Z</time>
      </trkpt>
      <trkpt lat="41.737071" lon="2.545260">
        <ele>126.945</ele>
        <time>2021-05-26T11:52:19Z</time>
      </trkpt>
      <trkpt lat="41.737152" lon="2.545168">
        <ele>127.531</ele>
        <time>2021-05-26T11:52:26Z</time>
      </trkpt>
      <trkpt lat="41.737238" lon="2.545103">
        <ele>128.228</ele>
        <time>2021-05-26T11:52:32Z</time>
      </trkpt>
      <trkpt lat="41.737254" lon="2.545073">
        <ele>128.435</ele>
        <time>2021-05-26T11:52:34Z</time>
      </trkpt>
      <trkpt lat="41.737275" lon="2.545044">
        <ele>128.727</ele>
        <time>2021-05-26T11:52:36Z</time>
      </trkpt>
      <trkpt lat="41.737309" lon="2.544993">
        <ele>128.968</ele>
        <time>2021-05-26T11:52:39Z</time>
      </trkpt>
      <trkpt lat="41.737327" lon="2.544961">
        <ele>129.014</ele>
        <time>2021-05-26T11:52:41Z</time>
      </trkpt>
      <trkpt lat="41.737345" lon="2.544936">
        <ele>129.108</ele>
        <time>2021-05-26T11:52:43Z</time>
      </trkpt>
      <trkpt lat="41.737364" lon="2.544910">
        <ele>129.279</ele>
        <time>2021-05-26T11:52:45Z</time>
      </trkpt>
      <trkpt lat="41.737388" lon="2.544885">
        <ele>129.426</ele>
        <time>2021-05-26T11:52:47Z</time>
      </trkpt>
      <trkpt lat="41.737411" lon="2.544860">
        <ele>129.573</ele>
        <time>2021-05-26T11:52:49Z</time>
      </trkpt>
      <trkpt lat="41.737428" lon="2.544848">
        <ele>129.786</ele>
        <time>2021-05-26T11:52:50Z</time>
      </trkpt>
      <trkpt lat="41.737459" lon="2.544823">
        <ele>129.971</ele>
        <time>2021-05-26T11:52:52Z</time>
      </trkpt>
      <trkpt lat="41.737485" lon="2.544797">
        <ele>130.117</ele>
        <time>2021-05-26T11:52:54Z</time>
      </trkpt>
      <trkpt lat="41.737502" lon="2.544770">
        <ele>130.254</ele>
        <time>2021-05-26T11:52:56Z</time>
      </trkpt>
      <trkpt lat="41.737526" lon="2.544745">
        <ele>130.851</ele>
        <time>2021-05-26T11:52:58Z</time>
      </trkpt>
      <trkpt lat="41.737543" lon="2.544714">
        <ele>131.235</ele>
        <time>2021-05-26T11:53:00Z</time>
      </trkpt>
      <trkpt lat="41.737577" lon="2.544629">
        <ele>131.886</ele>
        <time>2021-05-26T11:53:05Z</time>
      </trkpt>
      <trkpt lat="41.737592" lon="2.544592">
        <ele>132.014</ele>
        <time>2021-05-26T11:53:07Z</time>
      </trkpt>
      <trkpt lat="41.737639" lon="2.544481">
        <ele>132.708</ele>
        <time>2021-05-26T11:53:13Z</time>
      </trkpt>
      <trkpt lat="41.737682" lon="2.544353">
        <ele>132.980</ele>
        <time>2021-05-26T11:53:20Z</time>
      </trkpt>
      <trkpt lat="41.737708" lon="2.544218">
        <ele>132.477</ele>
        <time>2021-05-26T11:53:28Z</time>
      </trkpt>
      <trkpt lat="41.737724" lon="2.544140">
        <ele>132.234</ele>
        <time>2021-05-26T11:53:32Z</time>
      </trkpt>
      <trkpt lat="41.737745" lon="2.544102">
        <ele>132.697</ele>
        <time>2021-05-26T11:53:35Z</time>
      </trkpt>
      <trkpt lat="41.737745" lon="2.544067">
        <ele>132.622</ele>
        <time>2021-05-26T11:53:37Z</time>
      </trkpt>
      <trkpt lat="41.737748" lon="2.544033">
        <ele>132.668</ele>
        <time>2021-05-26T11:53:39Z</time>
      </trkpt>
      <trkpt lat="41.737750" lon="2.543995">
        <ele>132.715</ele>
        <time>2021-05-26T11:53:41Z</time>
      </trkpt>
      <trkpt lat="41.737742" lon="2.543958">
        <ele>132.672</ele>
        <time>2021-05-26T11:53:43Z</time>
      </trkpt>
      <trkpt lat="41.737739" lon="2.543922">
        <ele>132.648</ele>
        <time>2021-05-26T11:53:45Z</time>
      </trkpt>
      <trkpt lat="41.737740" lon="2.543887">
        <ele>132.661</ele>
        <time>2021-05-26T11:53:47Z</time>
      </trkpt>
      <trkpt lat="41.737740" lon="2.543846">
        <ele>132.517</ele>
        <time>2021-05-26T11:53:49Z</time>
      </trkpt>
      <trkpt lat="41.737740" lon="2.543807">
        <ele>132.308</ele>
        <time>2021-05-26T11:53:51Z</time>
      </trkpt>
      <trkpt lat="41.737746" lon="2.543773">
        <ele>132.331</ele>
        <time>2021-05-26T11:53:53Z</time>
      </trkpt>
      <trkpt lat="41.737752" lon="2.543742">
        <ele>132.258</ele>
        <time>2021-05-26T11:53:55Z</time>
      </trkpt>
      <trkpt lat="41.737762" lon="2.543710">
        <ele>132.215</ele>
        <time>2021-05-26T11:53:57Z</time>
      </trkpt>
      <trkpt lat="41.737781" lon="2.543679">
        <ele>132.338</ele>
        <time>2021-05-26T11:53:59Z</time>
      </trkpt>
      <trkpt lat="41.737789" lon="2.543645">
        <ele>132.383</ele>
        <time>2021-05-26T11:54:01Z</time>
      </trkpt>
      <trkpt lat="41.737794" lon="2.543610">
        <ele>132.289</ele>
        <time>2021-05-26T11:54:03Z</time>
      </trkpt>
      <trkpt lat="41.737797" lon="2.543575">
        <ele>132.166</ele>
        <time>2021-05-26T11:54:05Z</time>
      </trkpt>
      <trkpt lat="41.737806" lon="2.543540">
        <ele>132.233</ele>
        <time>2021-05-26T11:54:07Z</time>
      </trkpt>
      <trkpt lat="41.737814" lon="2.543504">
        <ele>132.182</ele>
        <time>2021-05-26T11:54:09Z</time>
      </trkpt>
      <trkpt lat="41.737829" lon="2.543471">
        <ele>132.243</ele>
        <time>2021-05-26T11:54:11Z</time>
      </trkpt>
      <trkpt lat="41.737838" lon="2.543438">
        <ele>132.217</ele>
        <time>2021-05-26T11:54:13Z</time>
      </trkpt>
      <trkpt lat="41.737868" lon="2.543393">
        <ele>132.508</ele>
        <time>2021-05-26T11:54:16Z</time>
      </trkpt>
      <trkpt lat="41.737885" lon="2.543365">
        <ele>132.725</ele>
        <time>2021-05-26T11:54:18Z</time>
      </trkpt>
      <trkpt lat="41.737908" lon="2.543340">
        <ele>132.992</ele>
        <time>2021-05-26T11:54:20Z</time>
      </trkpt>
      <trkpt lat="41.737928" lon="2.543314">
        <ele>133.299</ele>
        <time>2021-05-26T11:54:22Z</time>
      </trkpt>
      <trkpt lat="41.737948" lon="2.543293">
        <ele>133.512</ele>
        <time>2021-05-26T11:54:24Z</time>
      </trkpt>
      <trkpt lat="41.737974" lon="2.543270">
        <ele>133.997</ele>
        <time>2021-05-26T11:54:26Z</time>
      </trkpt>
      <trkpt lat="41.737997" lon="2.543255">
        <ele>134.243</ele>
        <time>2021-05-26T11:54:28Z</time>
      </trkpt>
      <trkpt lat="41.738028" lon="2.543240">
        <ele>134.680</ele>
        <time>2021-05-26T11:54:30Z</time>
      </trkpt>
      <trkpt lat="41.738054" lon="2.543220">
        <ele>135.037</ele>
        <time>2021-05-26T11:54:32Z</time>
      </trkpt>
      <trkpt lat="41.738078" lon="2.543197">
        <ele>135.339</ele>
        <time>2021-05-26T11:54:34Z</time>
      </trkpt>
      <trkpt lat="41.738099" lon="2.543176">
        <ele>135.501</ele>
        <time>2021-05-26T11:54:36Z</time>
      </trkpt>
      <trkpt lat="41.738121" lon="2.543157">
        <ele>135.721</ele>
        <time>2021-05-26T11:54:38Z</time>
      </trkpt>
      <trkpt lat="41.738145" lon="2.543143">
        <ele>135.908</ele>
        <time>2021-05-26T11:54:40Z</time>
      </trkpt>
      <trkpt lat="41.738173" lon="2.543136">
        <ele>136.220</ele>
        <time>2021-05-26T11:54:42Z</time>
      </trkpt>
      <trkpt lat="41.738202" lon="2.543124">
        <ele>136.417</ele>
        <time>2021-05-26T11:54:44Z</time>
      </trkpt>
      <trkpt lat="41.738236" lon="2.543108">
        <ele>136.724</ele>
        <time>2021-05-26T11:54:46Z</time>
      </trkpt>
      <trkpt lat="41.738265" lon="2.543088">
        <ele>136.867</ele>
        <time>2021-05-26T11:54:48Z</time>
      </trkpt>
      <trkpt lat="41.738290" lon="2.543064">
        <ele>136.862</ele>
        <time>2021-05-26T11:54:50Z</time>
      </trkpt>
      <trkpt lat="41.738317" lon="2.543038">
        <ele>136.728</ele>
        <time>2021-05-26T11:54:52Z</time>
      </trkpt>
      <trkpt lat="41.738341" lon="2.543012">
        <ele>136.695</ele>
        <time>2021-05-26T11:54:54Z</time>
      </trkpt>
      <trkpt lat="41.738372" lon="2.542987">
        <ele>136.582</ele>
        <time>2021-05-26T11:54:56Z</time>
      </trkpt>
      <trkpt lat="41.738395" lon="2.542962">
        <ele>136.329</ele>
        <time>2021-05-26T11:54:58Z</time>
      </trkpt>
      <trkpt lat="41.738421" lon="2.542947">
        <ele>136.200</ele>
        <time>2021-05-26T11:55:00Z</time>
      </trkpt>
      <trkpt lat="41.738505" lon="2.542869">
        <ele>135.420</ele>
        <time>2021-05-26T11:55:07Z</time>
      </trkpt>
      <trkpt lat="41.738574" lon="2.542780">
        <ele>134.008</ele>
        <time>2021-05-26T11:55:14Z</time>
      </trkpt>
      <trkpt lat="41.738670" lon="2.542771">
        <ele>135.019</ele>
        <time>2021-05-26T11:55:19Z</time>
      </trkpt>
      <trkpt lat="41.738760" lon="2.542760">
        <ele>136.536</ele>
        <time>2021-05-26T11:55:25Z</time>
      </trkpt>
      <trkpt lat="41.738859" lon="2.542706">
        <ele>137.733</ele>
        <time>2021-05-26T11:55:32Z</time>
      </trkpt>
      <trkpt lat="41.738951" lon="2.542691">
        <ele>139.586</ele>
        <time>2021-05-26T11:55:38Z</time>
      </trkpt>
      <trkpt lat="41.739052" lon="2.542664">
        <ele>141.511</ele>
        <time>2021-05-26T11:55:44Z</time>
      </trkpt>
      <trkpt lat="41.739125" lon="2.542596">
        <ele>142.787</ele>
        <time>2021-05-26T11:55:49Z</time>
      </trkpt>
      <trkpt lat="41.739145" lon="2.542567">
        <ele>143.084</ele>
        <time>2021-05-26T11:55:51Z</time>
      </trkpt>
      <trkpt lat="41.739162" lon="2.542536">
        <ele>143.191</ele>
        <time>2021-05-26T11:55:53Z</time>
      </trkpt>
      <trkpt lat="41.739175" lon="2.542500">
        <ele>143.145</ele>
        <time>2021-05-26T11:55:55Z</time>
      </trkpt>
      <trkpt lat="41.739185" lon="2.542467">
        <ele>142.947</ele>
        <time>2021-05-26T11:55:57Z</time>
      </trkpt>
      <trkpt lat="41.739250" lon="2.542375">
        <ele>143.011</ele>
        <time>2021-05-26T11:56:03Z</time>
      </trkpt>
      <trkpt lat="41.739287" lon="2.542260">
        <ele>142.508</ele>
        <time>2021-05-26T11:56:09Z</time>
      </trkpt>
      <trkpt lat="41.739342" lon="2.542151">
        <ele>142.631</ele>
        <time>2021-05-26T11:56:16Z</time>
      </trkpt>
      <trkpt lat="41.739400" lon="2.542047">
        <ele>142.948</ele>
        <time>2021-05-26T11:56:23Z</time>
      </trkpt>
      <trkpt lat="41.739466" lon="2.541944">
        <ele>143.275</ele>
        <time>2021-05-26T11:56:30Z</time>
      </trkpt>
      <trkpt lat="41.739510" lon="2.541818">
        <ele>142.948</ele>
        <time>2021-05-26T11:56:38Z</time>
      </trkpt>
      <trkpt lat="41.739554" lon="2.541701">
        <ele>143.113</ele>
        <time>2021-05-26T11:56:45Z</time>
      </trkpt>
      <trkpt lat="41.739596" lon="2.541591">
        <ele>143.549</ele>
        <time>2021-05-26T11:56:51Z</time>
      </trkpt>
      <trkpt lat="41.739625" lon="2.541459">
        <ele>143.536</ele>
        <time>2021-05-26T11:56:58Z</time>
      </trkpt>
      <trkpt lat="41.739644" lon="2.541337">
        <ele>143.323</ele>
        <time>2021-05-26T11:57:05Z</time>
      </trkpt>
      <trkpt lat="41.739655" lon="2.541254">
        <ele>142.944</ele>
        <time>2021-05-26T11:57:09Z</time>
      </trkpt>
      <trkpt lat="41.739669" lon="2.541219">
        <ele>142.905</ele>
        <time>2021-05-26T11:57:11Z</time>
      </trkpt>
      <trkpt lat="41.739688" lon="2.541194">
        <ele>143.115</ele>
        <time>2021-05-26T11:57:13Z</time>
      </trkpt>
      <trkpt lat="41.739707" lon="2.541168">
        <ele>143.208</ele>
        <time>2021-05-26T11:57:15Z</time>
      </trkpt>
      <trkpt lat="41.739717" lon="2.541143">
        <ele>143.261</ele>
        <time>2021-05-26T11:57:17Z</time>
      </trkpt>
      <trkpt lat="41.739738" lon="2.541118">
        <ele>143.428</ele>
        <time>2021-05-26T11:57:19Z</time>
      </trkpt>
      <trkpt lat="41.739754" lon="2.541086">
        <ele>143.545</ele>
        <time>2021-05-26T11:57:21Z</time>
      </trkpt>
      <trkpt lat="41.739774" lon="2.541063">
        <ele>143.788</ele>
        <time>2021-05-26T11:57:23Z</time>
      </trkpt>
      <trkpt lat="41.739797" lon="2.541037">
        <ele>144.053</ele>
        <time>2021-05-26T11:57:25Z</time>
      </trkpt>
      <trkpt lat="41.739828" lon="2.541022">
        <ele>144.589</ele>
        <time>2021-05-26T11:57:27Z</time>
      </trkpt>
      <trkpt lat="41.739845" lon="2.541000">
        <ele>144.746</ele>
        <time>2021-05-26T11:57:29Z</time>
      </trkpt>
      <trkpt lat="41.739865" lon="2.540972">
        <ele>144.813</ele>
        <time>2021-05-26T11:57:31Z</time>
      </trkpt>
      <trkpt lat="41.739885" lon="2.540947">
        <ele>145.088</ele>
        <time>2021-05-26T11:57:33Z</time>
      </trkpt>
      <trkpt lat="41.739912" lon="2.540931">
        <ele>145.424</ele>
        <time>2021-05-26T11:57:35Z</time>
      </trkpt>
      <trkpt lat="41.739933" lon="2.540904">
        <ele>145.526</ele>
        <time>2021-05-26T11:57:37Z</time>
      </trkpt>
      <trkpt lat="41.739954" lon="2.540875">
        <ele>145.608</ele>
        <time>2021-05-26T11:57:39Z</time>
      </trkpt>
      <trkpt lat="41.739981" lon="2.540844">
        <ele>145.845</ele>
        <time>2021-05-26T11:57:41Z</time>
      </trkpt>
      <trkpt lat="41.739997" lon="2.540829">
        <ele>145.942</ele>
        <time>2021-05-26T11:57:42Z</time>
      </trkpt>
      <trkpt lat="41.740016" lon="2.540808">
        <ele>145.989</ele>
        <time>2021-05-26T11:57:43Z</time>
      </trkpt>
      <trkpt lat="41.740032" lon="2.540786">
        <ele>146.042</ele>
        <time>2021-05-26T11:57:44Z</time>
      </trkpt>
      <trkpt lat="41.740044" lon="2.540764">
        <ele>145.927</ele>
        <time>2021-05-26T11:57:45Z</time>
      </trkpt>
      <trkpt lat="41.740122" lon="2.540677">
        <ele>146.323</ele>
        <time>2021-05-26T11:57:49Z</time>
      </trkpt>
      <trkpt lat="41.740177" lon="2.540567">
        <ele>145.780</ele>
        <time>2021-05-26T11:57:53Z</time>
      </trkpt>
      <trkpt lat="41.740247" lon="2.540468">
        <ele>146.087</ele>
        <time>2021-05-26T11:57:57Z</time>
      </trkpt>
      <trkpt lat="41.740319" lon="2.540374">
        <ele>146.545</ele>
        <time>2021-05-26T11:58:01Z</time>
      </trkpt>
      <trkpt lat="41.740401" lon="2.540286">
        <ele>147.247</ele>
        <time>2021-05-26T11:58:05Z</time>
      </trkpt>
      <trkpt lat="41.740494" lon="2.540196">
        <ele>148.211</ele>
        <time>2021-05-26T11:58:09Z</time>
      </trkpt>
      <trkpt lat="41.740562" lon="2.540096">
        <ele>147.908</ele>
        <time>2021-05-26T11:58:13Z</time>
      </trkpt>
      <trkpt lat="41.740627" lon="2.539999">
        <ele>147.351</ele>
        <time>2021-05-26T11:58:17Z</time>
      </trkpt>
      <trkpt lat="41.740702" lon="2.539915">
        <ele>147.978</ele>
        <time>2021-05-26T11:58:21Z</time>
      </trkpt>
      <trkpt lat="41.740767" lon="2.539800">
        <ele>147.875</ele>
        <time>2021-05-26T11:58:25Z</time>
      </trkpt>
      <trkpt lat="41.740830" lon="2.539695">
        <ele>147.658</ele>
        <time>2021-05-26T11:58:29Z</time>
      </trkpt>
      <trkpt lat="41.740894" lon="2.539597">
        <ele>147.333</ele>
        <time>2021-05-26T11:58:33Z</time>
      </trkpt>
      <trkpt lat="41.740982" lon="2.539509">
        <ele>147.349</ele>
        <time>2021-05-26T11:58:37Z</time>
      </trkpt>
      <trkpt lat="41.741056" lon="2.539405">
        <ele>146.776</ele>
        <time>2021-05-26T11:58:41Z</time>
      </trkpt>
      <trkpt lat="41.741113" lon="2.539300">
        <ele>146.073</ele>
        <time>2021-05-26T11:58:45Z</time>
      </trkpt>
      <trkpt lat="41.741177" lon="2.539216">
        <ele>146.261</ele>
        <time>2021-05-26T11:58:49Z</time>
      </trkpt>
      <trkpt lat="41.741245" lon="2.539131">
        <ele>146.621</ele>
        <time>2021-05-26T11:58:54Z</time>
      </trkpt>
      <trkpt lat="41.741313" lon="2.539050">
        <ele>147.013</ele>
        <time>2021-05-26T11:59:00Z</time>
      </trkpt>
      <trkpt lat="41.741381" lon="2.538959">
        <ele>146.908</ele>
        <time>2021-05-26T11:59:06Z</time>
      </trkpt>
      <trkpt lat="41.741459" lon="2.538868">
        <ele>147.453</ele>
        <time>2021-05-26T11:59:14Z</time>
      </trkpt>
      <trkpt lat="41.741537" lon="2.538794">
        <ele>148.590</ele>
        <time>2021-05-26T11:59:21Z</time>
      </trkpt>
      <trkpt lat="41.741616" lon="2.538721">
        <ele>149.337</ele>
        <time>2021-05-26T11:59:27Z</time>
      </trkpt>
      <trkpt lat="41.741677" lon="2.538608">
        <ele>149.290</ele>
        <time>2021-05-26T11:59:34Z</time>
      </trkpt>
      <trkpt lat="41.741735" lon="2.538502">
        <ele>149.785</ele>
        <time>2021-05-26T11:59:41Z</time>
      </trkpt>
      <trkpt lat="41.741802" lon="2.538408">
        <ele>150.531</ele>
        <time>2021-05-26T11:59:48Z</time>
      </trkpt>
      <trkpt lat="41.741870" lon="2.538317">
        <ele>151.228</ele>
        <time>2021-05-26T11:59:54Z</time>
      </trkpt>
      <trkpt lat="41.741923" lon="2.538209">
        <ele>150.975</ele>
        <time>2021-05-26T12:00:00Z</time>
      </trkpt>
      <trkpt lat="41.741978" lon="2.538108">
        <ele>150.581</ele>
        <time>2021-05-26T12:00:07Z</time>
      </trkpt>
      <trkpt lat="41.742036" lon="2.538013">
        <ele>150.961</ele>
        <time>2021-05-26T12:00:13Z</time>
      </trkpt>
      <trkpt lat="41.742088" lon="2.537893">
        <ele>151.517</ele>
        <time>2021-05-26T12:00:21Z</time>
      </trkpt>
      <trkpt lat="41.742153" lon="2.537803">
        <ele>152.108</ele>
        <time>2021-05-26T12:00:28Z</time>
      </trkpt>
      <trkpt lat="41.742195" lon="2.537696">
        <ele>152.145</ele>
        <time>2021-05-26T12:00:35Z</time>
      </trkpt>
      <trkpt lat="41.742277" lon="2.537626">
        <ele>152.472</ele>
        <time>2021-05-26T12:00:42Z</time>
      </trkpt>
      <trkpt lat="41.742353" lon="2.537548">
        <ele>152.419</ele>
        <time>2021-05-26T12:00:48Z</time>
      </trkpt>
      <trkpt lat="41.742434" lon="2.537463">
        <ele>152.332</ele>
        <time>2021-05-26T12:00:55Z</time>
      </trkpt>
      <trkpt lat="41.742511" lon="2.537396">
        <ele>152.417</ele>
        <time>2021-05-26T12:01:02Z</time>
      </trkpt>
      <trkpt lat="41.742611" lon="2.537392">
        <ele>153.533</ele>
        <time>2021-05-26T12:01:10Z</time>
      </trkpt>
      <trkpt lat="41.742705" lon="2.537336">
        <ele>153.980</ele>
        <time>2021-05-26T12:01:17Z</time>
      </trkpt>
      <trkpt lat="41.742788" lon="2.537281">
        <ele>154.037</ele>
        <time>2021-05-26T12:01:24Z</time>
      </trkpt>
      <trkpt lat="41.742878" lon="2.537252">
        <ele>155.287</ele>
        <time>2021-05-26T12:01:30Z</time>
      </trkpt>
      <trkpt lat="41.742970" lon="2.537234">
        <ele>156.642</ele>
        <time>2021-05-26T12:01:37Z</time>
      </trkpt>
      <trkpt lat="41.743071" lon="2.537195">
        <ele>157.826</ele>
        <time>2021-05-26T12:01:44Z</time>
      </trkpt>
      <trkpt lat="41.743167" lon="2.537161">
        <ele>158.708</ele>
        <time>2021-05-26T12:01:52Z</time>
      </trkpt>
      <trkpt lat="41.743269" lon="2.537148">
        <ele>160.095</ele>
        <time>2021-05-26T12:01:59Z</time>
      </trkpt>
      <trkpt lat="41.743348" lon="2.537091">
        <ele>160.482</ele>
        <time>2021-05-26T12:02:05Z</time>
      </trkpt>
      <trkpt lat="41.743438" lon="2.537065">
        <ele>162.099</ele>
        <time>2021-05-26T12:02:12Z</time>
      </trkpt>
      <trkpt lat="41.743509" lon="2.536979">
        <ele>162.342</ele>
        <time>2021-05-26T12:02:18Z</time>
      </trkpt>
      <trkpt lat="41.743583" lon="2.536889">
        <ele>162.537</ele>
        <time>2021-05-26T12:02:25Z</time>
      </trkpt>
      <trkpt lat="41.743640" lon="2.536791">
        <ele>161.713</ele>
        <time>2021-05-26T12:02:31Z</time>
      </trkpt>
      <trkpt lat="41.743703" lon="2.536685">
        <ele>160.790</ele>
        <time>2021-05-26T12:02:38Z</time>
      </trkpt>
      <trkpt lat="41.743769" lon="2.536601">
        <ele>160.397</ele>
        <time>2021-05-26T12:02:44Z</time>
      </trkpt>
      <trkpt lat="41.743824" lon="2.536505">
        <ele>159.428</ele>
        <time>2021-05-26T12:02:50Z</time>
      </trkpt>
      <trkpt lat="41.743908" lon="2.536424">
        <ele>159.089</ele>
        <time>2021-05-26T12:02:56Z</time>
      </trkpt>
      <trkpt lat="41.743983" lon="2.536329">
        <ele>159.117</ele>
        <time>2021-05-26T12:03:05Z</time>
      </trkpt>
      <trkpt lat="41.744072" lon="2.536264">
        <ele>159.808</ele>
        <time>2021-05-26T12:03:11Z</time>
      </trkpt>
      <trkpt lat="41.744151" lon="2.536186">
        <ele>159.919</ele>
        <time>2021-05-26T12:03:17Z</time>
      </trkpt>
      <trkpt lat="41.744236" lon="2.536110">
        <ele>160.276</ele>
        <time>2021-05-26T12:03:24Z</time>
      </trkpt>
      <trkpt lat="41.744297" lon="2.536011">
        <ele>160.853</ele>
        <time>2021-05-26T12:03:30Z</time>
      </trkpt>
      <trkpt lat="41.744353" lon="2.535895">
        <ele>161.156</ele>
        <time>2021-05-26T12:03:37Z</time>
      </trkpt>
      <trkpt lat="41.744423" lon="2.535779">
        <ele>161.541</ele>
        <time>2021-05-26T12:03:44Z</time>
      </trkpt>
      <trkpt lat="41.744500" lon="2.535705">
        <ele>162.477</ele>
        <time>2021-05-26T12:03:50Z</time>
      </trkpt>
      <trkpt lat="41.744545" lon="2.535587">
        <ele>162.684</ele>
        <time>2021-05-26T12:03:58Z</time>
      </trkpt>
      <trkpt lat="41.744599" lon="2.535488">
        <ele>163.351</ele>
        <time>2021-05-26T12:04:05Z</time>
      </trkpt>
      <trkpt lat="41.744664" lon="2.535375">
        <ele>164.371</ele>
        <time>2021-05-26T12:04:11Z</time>
      </trkpt>
      <trkpt lat="41.744757" lon="2.535300">
        <ele>165.041</ele>
        <time>2021-05-26T12:04:17Z</time>
      </trkpt>
      <trkpt lat="41.744837" lon="2.535232">
        <ele>165.015</ele>
        <time>2021-05-26T12:04:26Z</time>
      </trkpt>
      <trkpt lat="41.744931" lon="2.535198">
        <ele>164.908</ele>
        <time>2021-05-26T12:04:31Z</time>
      </trkpt>
      <trkpt lat="41.745017" lon="2.535129">
        <ele>164.584</ele>
        <time>2021-05-26T12:04:38Z</time>
      </trkpt>
      <trkpt lat="41.745101" lon="2.535076">
        <ele>164.111</ele>
        <time>2021-05-26T12:04:45Z</time>
      </trkpt>
      <trkpt lat="41.745202" lon="2.535045">
        <ele>163.758</ele>
        <time>2021-05-26T12:04:52Z</time>
      </trkpt>
      <trkpt lat="41.745295" lon="2.535034">
        <ele>163.571</ele>
        <time>2021-05-26T12:04:58Z</time>
      </trkpt>
      <trkpt lat="41.745387" lon="2.535044">
        <ele>164.426</ele>
        <time>2021-05-26T12:05:04Z</time>
      </trkpt>
      <trkpt lat="41.745484" lon="2.535031">
        <ele>165.082</ele>
        <time>2021-05-26T12:05:11Z</time>
      </trkpt>
      <trkpt lat="41.745570" lon="2.535074">
        <ele>166.429</ele>
        <time>2021-05-26T12:05:17Z</time>
      </trkpt>
      <trkpt lat="41.745660" lon="2.535061">
        <ele>166.886</ele>
        <time>2021-05-26T12:05:22Z</time>
      </trkpt>
      <trkpt lat="41.745750" lon="2.535009">
        <ele>166.665</ele>
        <time>2021-05-26T12:05:29Z</time>
      </trkpt>
      <trkpt lat="41.745847" lon="2.534982">
        <ele>166.968</ele>
        <time>2021-05-26T12:05:35Z</time>
      </trkpt>
      <trkpt lat="41.745946" lon="2.534953">
        <ele>167.314</ele>
        <time>2021-05-26T12:05:42Z</time>
      </trkpt>
      <trkpt lat="41.746034" lon="2.534900">
        <ele>167.408</ele>
        <time>2021-05-26T12:05:50Z</time>
      </trkpt>
      <trkpt lat="41.746121" lon="2.534866">
        <ele>167.673</ele>
        <time>2021-05-26T12:05:55Z</time>
      </trkpt>
      <trkpt lat="41.746204" lon="2.534816">
        <ele>167.540</ele>
        <time>2021-05-26T12:06:02Z</time>
      </trkpt>
      <trkpt lat="41.746303" lon="2.534797">
        <ele>167.797</ele>
        <time>2021-05-26T12:06:08Z</time>
      </trkpt>
      <trkpt lat="41.746389" lon="2.534758">
        <ele>167.590</ele>
        <time>2021-05-26T12:06:14Z</time>
      </trkpt>
      <trkpt lat="41.746480" lon="2.534729">
        <ele>167.875</ele>
        <time>2021-05-26T12:06:21Z</time>
      </trkpt>
      <trkpt lat="41.746571" lon="2.534718">
        <ele>168.321</ele>
        <time>2021-05-26T12:06:27Z</time>
      </trkpt>
      <trkpt lat="41.746673" lon="2.534707">
        <ele>168.928</ele>
        <time>2021-05-26T12:06:34Z</time>
      </trkpt>
      <trkpt lat="41.746764" lon="2.534673">
        <ele>169.345</ele>
        <time>2021-05-26T12:06:41Z</time>
      </trkpt>
      <trkpt lat="41.746873" lon="2.534670">
        <ele>170.188</ele>
        <time>2021-05-26T12:06:49Z</time>
      </trkpt>
      <trkpt lat="41.746892" lon="2.534672">
        <ele>170.324</ele>
        <time>2021-05-26T12:06:50Z</time>
      </trkpt>
      <trkpt lat="41.746990" lon="2.534671">
        <ele>170.626</ele>
        <time>2021-05-26T12:06:56Z</time>
      </trkpt>
      <trkpt lat="41.747089" lon="2.534669">
        <ele>170.608</ele>
        <time>2021-05-26T12:07:03Z</time>
      </trkpt>
      <trkpt lat="41.747179" lon="2.534694">
        <ele>170.855</ele>
        <time>2021-05-26T12:07:08Z</time>
      </trkpt>
      <trkpt lat="41.747271" lon="2.534707">
        <ele>171.282</ele>
        <time>2021-05-26T12:07:15Z</time>
      </trkpt>
      <trkpt lat="41.747374" lon="2.534688">
        <ele>171.829</ele>
        <time>2021-05-26T12:07:26Z</time>
      </trkpt>
      <trkpt lat="41.747480" lon="2.534707">
        <ele>172.742</ele>
        <time>2021-05-26T12:07:32Z</time>
      </trkpt>
      <trkpt lat="41.747586" lon="2.534730">
        <ele>173.767</ele>
        <time>2021-05-26T12:07:38Z</time>
      </trkpt>
      <trkpt lat="41.747683" lon="2.534741">
        <ele>174.523</ele>
        <time>2021-05-26T12:07:44Z</time>
      </trkpt>
      <trkpt lat="41.747775" lon="2.534759">
        <ele>175.460</ele>
        <time>2021-05-26T12:07:50Z</time>
      </trkpt>
      <trkpt lat="41.747866" lon="2.534761">
        <ele>175.817</ele>
        <time>2021-05-26T12:07:56Z</time>
      </trkpt>
      <trkpt lat="41.747952" lon="2.534796">
        <ele>176.628</ele>
        <time>2021-05-26T12:08:02Z</time>
      </trkpt>
      <trkpt lat="41.748049" lon="2.534801">
        <ele>177.189</ele>
        <time>2021-05-26T12:08:09Z</time>
      </trkpt>
      <trkpt lat="41.748139" lon="2.534781">
        <ele>176.817</ele>
        <time>2021-05-26T12:08:15Z</time>
      </trkpt>
      <trkpt lat="41.748235" lon="2.534750">
        <ele>176.408</ele>
        <time>2021-05-26T12:08:22Z</time>
      </trkpt>
      <trkpt lat="41.748318" lon="2.534687">
        <ele>175.999</ele>
        <time>2021-05-26T12:08:29Z</time>
      </trkpt>
      <trkpt lat="41.748412" lon="2.534631">
        <ele>175.666</ele>
        <time>2021-05-26T12:08:35Z</time>
      </trkpt>
      <trkpt lat="41.748470" lon="2.534538">
        <ele>175.093</ele>
        <time>2021-05-26T12:08:40Z</time>
      </trkpt>
      <trkpt lat="41.748531" lon="2.534429">
        <ele>174.316</ele>
        <time>2021-05-26T12:08:47Z</time>
      </trkpt>
      <trkpt lat="41.748576" lon="2.534306">
        <ele>173.861</ele>
        <time>2021-05-26T12:08:54Z</time>
      </trkpt>
      <trkpt lat="41.748594" lon="2.534185">
        <ele>173.297</ele>
        <time>2021-05-26T12:09:01Z</time>
      </trkpt>
      <trkpt lat="41.748639" lon="2.534075">
        <ele>174.014</ele>
        <time>2021-05-26T12:09:06Z</time>
      </trkpt>
      <trkpt lat="41.748661" lon="2.533951">
        <ele>175.171</ele>
        <time>2021-05-26T12:09:13Z</time>
      </trkpt>
      <trkpt lat="41.748696" lon="2.533836">
        <ele>176.379</ele>
        <time>2021-05-26T12:09:20Z</time>
      </trkpt>
      <trkpt lat="41.748752" lon="2.533731">
        <ele>177.805</ele>
        <time>2021-05-26T12:09:26Z</time>
      </trkpt>
      <trkpt lat="41.748823" lon="2.533643">
        <ele>178.925</ele>
        <time>2021-05-26T12:09:33Z</time>
      </trkpt>
      <trkpt lat="41.748904" lon="2.533568">
        <ele>179.908</ele>
        <time>2021-05-26T12:09:41Z</time>
      </trkpt>
      <trkpt lat="41.748951" lon="2.533513">
        <ele>180.934</ele>
        <time>2021-05-26T12:09:46Z</time>
      </trkpt>
      <trkpt lat="41.748999" lon="2.533456">
        <ele>181.941</ele>
        <time>2021-05-26T12:09:51Z</time>
      </trkpt>
      <trkpt lat="41.749021" lon="2.533442">
        <ele>182.178</ele>
        <time>2021-05-26T12:09:53Z</time>
      </trkpt>
      <trkpt lat="41.749038" lon="2.533425">
        <ele>182.471</ele>
        <time>2021-05-26T12:09:55Z</time>
      </trkpt>
      <trkpt lat="41.749054" lon="2.533420">
        <ele>182.416</ele>
        <time>2021-05-26T12:09:57Z</time>
      </trkpt>
      <trkpt lat="41.749073" lon="2.533415">
        <ele>182.482</ele>
        <time>2021-05-26T12:09:59Z</time>
      </trkpt>
      <trkpt lat="41.749096" lon="2.533415">
        <ele>182.229</ele>
        <time>2021-05-26T12:10:01Z</time>
      </trkpt>
      <trkpt lat="41.749119" lon="2.533419">
        <ele>181.966</ele>
        <time>2021-05-26T12:10:03Z</time>
      </trkpt>
      <trkpt lat="41.749141" lon="2.533408">
        <ele>182.179</ele>
        <time>2021-05-26T12:10:05Z</time>
      </trkpt>
      <trkpt lat="41.749240" lon="2.533428">
        <ele>181.105</ele>
        <time>2021-05-26T12:10:16Z</time>
      </trkpt>
      <trkpt lat="41.749286" lon="2.533440">
        <ele>180.725</ele>
        <time>2021-05-26T12:10:19Z</time>
      </trkpt>
      <trkpt lat="41.749305" lon="2.533448">
        <ele>180.408</ele>
        <time>2021-05-26T12:10:20Z</time>
      </trkpt>
      <trkpt lat="41.749404" lon="2.533454">
        <ele>180.014</ele>
        <time>2021-05-26T12:10:26Z</time>
      </trkpt>
      <trkpt lat="41.749434" lon="2.533444">
        <ele>180.291</ele>
        <time>2021-05-26T12:10:28Z</time>
      </trkpt>
      <trkpt lat="41.749489" lon="2.533347">
        <ele>182.768</ele>
        <time>2021-05-26T12:10:34Z</time>
      </trkpt>
      <trkpt lat="41.749532" lon="2.533237">
        <ele>185.331</ele>
        <time>2021-05-26T12:10:42Z</time>
      </trkpt>
      <trkpt lat="41.749549" lon="2.533118">
        <ele>188.066</ele>
        <time>2021-05-26T12:10:48Z</time>
      </trkpt>
      <trkpt lat="41.749608" lon="2.533014">
        <ele>189.452</ele>
        <time>2021-05-26T12:10:56Z</time>
      </trkpt>
      <trkpt lat="41.749694" lon="2.532946">
        <ele>189.139</ele>
        <time>2021-05-26T12:11:05Z</time>
      </trkpt>
      <trkpt lat="41.749765" lon="2.532863">
        <ele>189.366</ele>
        <time>2021-05-26T12:11:12Z</time>
      </trkpt>
      <trkpt lat="41.749834" lon="2.532763">
        <ele>189.679</ele>
        <time>2021-05-26T12:11:19Z</time>
      </trkpt>
      <trkpt lat="41.749900" lon="2.532670">
        <ele>189.605</ele>
        <time>2021-05-26T12:11:26Z</time>
      </trkpt>
      <trkpt lat="41.749920" lon="2.532644">
        <ele>189.525</ele>
        <time>2021-05-26T12:11:28Z</time>
      </trkpt>
      <trkpt lat="41.749933" lon="2.532610">
        <ele>189.608</ele>
        <time>2021-05-26T12:11:30Z</time>
      </trkpt>
      <trkpt lat="41.749984" lon="2.532507">
        <ele>189.364</ele>
        <time>2021-05-26T12:11:37Z</time>
      </trkpt>
      <trkpt lat="41.750015" lon="2.532392">
        <ele>190.421</ele>
        <time>2021-05-26T12:11:44Z</time>
      </trkpt>
      <trkpt lat="41.750074" lon="2.532279">
        <ele>191.238</ele>
        <time>2021-05-26T12:11:51Z</time>
      </trkpt>
      <trkpt lat="41.750097" lon="2.532192">
        <ele>192.121</ele>
        <time>2021-05-26T12:11:57Z</time>
      </trkpt>
      <trkpt lat="41.750130" lon="2.532107">
        <ele>193.266</ele>
        <time>2021-05-26T12:12:04Z</time>
      </trkpt>
      <trkpt lat="41.750184" lon="2.532002">
        <ele>194.372</ele>
        <time>2021-05-26T12:12:12Z</time>
      </trkpt>
      <trkpt lat="41.750244" lon="2.531905">
        <ele>195.339</ele>
        <time>2021-05-26T12:12:22Z</time>
      </trkpt>
      <trkpt lat="41.750329" lon="2.531858">
        <ele>195.146</ele>
        <time>2021-05-26T12:12:31Z</time>
      </trkpt>
      <trkpt lat="41.750356" lon="2.531842">
        <ele>195.114</ele>
        <time>2021-05-26T12:12:33Z</time>
      </trkpt>
      <trkpt lat="41.750378" lon="2.531824">
        <ele>195.254</ele>
        <time>2021-05-26T12:12:35Z</time>
      </trkpt>
      <trkpt lat="41.750395" lon="2.531815">
        <ele>195.309</ele>
        <time>2021-05-26T12:12:37Z</time>
      </trkpt>
      <trkpt lat="41.750473" lon="2.531762">
        <ele>195.608</ele>
        <time>2021-05-26T12:12:43Z</time>
      </trkpt>
      <trkpt lat="41.750505" lon="2.531753">
        <ele>195.628</ele>
        <time>2021-05-26T12:12:45Z</time>
      </trkpt>
      <trkpt lat="41.750528" lon="2.531740">
        <ele>195.665</ele>
        <time>2021-05-26T12:12:47Z</time>
      </trkpt>
      <trkpt lat="41.750541" lon="2.531713">
        <ele>196.192</ele>
        <time>2021-05-26T12:12:49Z</time>
      </trkpt>
      <trkpt lat="41.750554" lon="2.531682">
        <ele>196.745</ele>
        <time>2021-05-26T12:12:51Z</time>
      </trkpt>
      <trkpt lat="41.750609" lon="2.531582">
        <ele>197.690</ele>
        <time>2021-05-26T12:12:57Z</time>
      </trkpt>
      <trkpt lat="41.750642" lon="2.531532">
        <ele>197.926</ele>
        <time>2021-05-26T12:13:00Z</time>
      </trkpt>
      <trkpt lat="41.750713" lon="2.531449">
        <ele>197.843</ele>
        <time>2021-05-26T12:13:06Z</time>
      </trkpt>
      <trkpt lat="41.750752" lon="2.531396">
        <ele>197.780</ele>
        <time>2021-05-26T12:13:10Z</time>
      </trkpt>
      <trkpt lat="41.750772" lon="2.531385">
        <ele>197.415</ele>
        <time>2021-05-26T12:13:12Z</time>
      </trkpt>
      <trkpt lat="41.750795" lon="2.531382">
        <ele>196.965</ele>
        <time>2021-05-26T12:13:14Z</time>
      </trkpt>
      <trkpt lat="41.750823" lon="2.531363">
        <ele>196.611</ele>
        <time>2021-05-26T12:13:16Z</time>
      </trkpt>
      <trkpt lat="41.750843" lon="2.531342">
        <ele>196.608</ele>
        <time>2021-05-26T12:13:18Z</time>
      </trkpt>
      <trkpt lat="41.750867" lon="2.531327">
        <ele>196.528</ele>
        <time>2021-05-26T12:13:20Z</time>
      </trkpt>
      <trkpt lat="41.750882" lon="2.531315">
        <ele>196.415</ele>
        <time>2021-05-26T12:13:22Z</time>
      </trkpt>
      <trkpt lat="41.750905" lon="2.531298">
        <ele>196.432</ele>
        <time>2021-05-26T12:13:24Z</time>
      </trkpt>
      <trkpt lat="41.750928" lon="2.531278">
        <ele>196.365</ele>
        <time>2021-05-26T12:13:26Z</time>
      </trkpt>
      <trkpt lat="41.750948" lon="2.531251">
        <ele>196.390</ele>
        <time>2021-05-26T12:13:28Z</time>
      </trkpt>
      <trkpt lat="41.750968" lon="2.531225">
        <ele>196.396</ele>
        <time>2021-05-26T12:13:30Z</time>
      </trkpt>
      <trkpt lat="41.750991" lon="2.531199">
        <ele>196.353</ele>
        <time>2021-05-26T12:13:32Z</time>
      </trkpt>
      <trkpt lat="41.751071" lon="2.531128">
        <ele>195.690</ele>
        <time>2021-05-26T12:13:38Z</time>
      </trkpt>
      <trkpt lat="41.751172" lon="2.531125">
        <ele>194.997</ele>
        <time>2021-05-26T12:13:44Z</time>
      </trkpt>
      <trkpt lat="41.751208" lon="2.531132">
        <ele>195.023</ele>
        <time>2021-05-26T12:13:46Z</time>
      </trkpt>
      <trkpt lat="41.751308" lon="2.531149">
        <ele>195.125</ele>
        <time>2021-05-26T12:13:54Z</time>
      </trkpt>
      <trkpt lat="41.751395" lon="2.531078">
        <ele>195.408</ele>
        <time>2021-05-26T12:14:01Z</time>
      </trkpt>
      <trkpt lat="41.751484" lon="2.530996">
        <ele>196.616</ele>
        <time>2021-05-26T12:14:07Z</time>
      </trkpt>
      <trkpt lat="41.751555" lon="2.530943">
        <ele>196.813</ele>
        <time>2021-05-26T12:14:11Z</time>
      </trkpt>
      <trkpt lat="41.751588" lon="2.530922">
        <ele>196.850</ele>
        <time>2021-05-26T12:14:14Z</time>
      </trkpt>
      <trkpt lat="41.751613" lon="2.530909">
        <ele>196.783</ele>
        <time>2021-05-26T12:14:16Z</time>
      </trkpt>
      <trkpt lat="41.751636" lon="2.530890">
        <ele>196.578</ele>
        <time>2021-05-26T12:14:18Z</time>
      </trkpt>
      <trkpt lat="41.751651" lon="2.530850">
        <ele>196.214</ele>
        <time>2021-05-26T12:14:20Z</time>
      </trkpt>
      <trkpt lat="41.751671" lon="2.530821">
        <ele>196.131</ele>
        <time>2021-05-26T12:14:22Z</time>
      </trkpt>
      <trkpt lat="41.751682" lon="2.530789">
        <ele>196.458</ele>
        <time>2021-05-26T12:14:24Z</time>
      </trkpt>
      <trkpt lat="41.751695" lon="2.530766">
        <ele>196.738</ele>
        <time>2021-05-26T12:14:26Z</time>
      </trkpt>
      <trkpt lat="41.751770" lon="2.530681">
        <ele>197.470</ele>
        <time>2021-05-26T12:14:32Z</time>
      </trkpt>
      <trkpt lat="41.751856" lon="2.530617">
        <ele>197.517</ele>
        <time>2021-05-26T12:14:39Z</time>
      </trkpt>
      <trkpt lat="41.751884" lon="2.530598">
        <ele>197.408</ele>
        <time>2021-05-26T12:14:42Z</time>
      </trkpt>
      <trkpt lat="41.751907" lon="2.530581">
        <ele>197.340</ele>
        <time>2021-05-26T12:14:45Z</time>
      </trkpt>
      <trkpt lat="41.751925" lon="2.530566">
        <ele>197.147</ele>
        <time>2021-05-26T12:14:47Z</time>
      </trkpt>
      <trkpt lat="41.752002" lon="2.530494">
        <ele>198.994</ele>
        <time>2021-05-26T12:14:54Z</time>
      </trkpt>
      <trkpt lat="41.752076" lon="2.530402">
        <ele>200.717</ele>
        <time>2021-05-26T12:15:00Z</time>
      </trkpt>
      <trkpt lat="41.752113" lon="2.530286">
        <ele>201.252</ele>
        <time>2021-05-26T12:15:07Z</time>
      </trkpt>
      <trkpt lat="41.752125" lon="2.530252">
        <ele>201.688</ele>
        <time>2021-05-26T12:15:09Z</time>
      </trkpt>
      <trkpt lat="41.752159" lon="2.530125">
        <ele>202.715</ele>
        <time>2021-05-26T12:15:16Z</time>
      </trkpt>
      <trkpt lat="41.752223" lon="2.530024">
        <ele>202.912</ele>
        <time>2021-05-26T12:15:23Z</time>
      </trkpt>
      <trkpt lat="41.752270" lon="2.529917">
        <ele>204.377</ele>
        <time>2021-05-26T12:15:29Z</time>
      </trkpt>
      <trkpt lat="41.752342" lon="2.529820">
        <ele>205.161</ele>
        <time>2021-05-26T12:15:36Z</time>
      </trkpt>
      <trkpt lat="41.752417" lon="2.529749">
        <ele>204.827</ele>
        <time>2021-05-26T12:15:42Z</time>
      </trkpt>
      <trkpt lat="41.752510" lon="2.529785">
        <ele>204.208</ele>
        <time>2021-05-26T12:15:50Z</time>
      </trkpt>
      <trkpt lat="41.752548" lon="2.529805">
        <ele>204.544</ele>
        <time>2021-05-26T12:15:54Z</time>
      </trkpt>
      <trkpt lat="41.752566" lon="2.529824">
        <ele>204.641</ele>
        <time>2021-05-26T12:15:56Z</time>
      </trkpt>
      <trkpt lat="41.752642" lon="2.529895">
        <ele>205.658</ele>
        <time>2021-05-26T12:16:03Z</time>
      </trkpt>
      <trkpt lat="41.752732" lon="2.529923">
        <ele>206.531</ele>
        <time>2021-05-26T12:16:11Z</time>
      </trkpt>
      <trkpt lat="41.752833" lon="2.529961">
        <ele>207.866</ele>
        <time>2021-05-26T12:16:18Z</time>
      </trkpt>
      <trkpt lat="41.752927" lon="2.529943">
        <ele>208.172</ele>
        <time>2021-05-26T12:16:25Z</time>
      </trkpt>
      <trkpt lat="41.753001" lon="2.529872">
        <ele>207.429</ele>
        <time>2021-05-26T12:16:31Z</time>
      </trkpt>
      <trkpt lat="41.753069" lon="2.529775">
        <ele>206.296</ele>
        <time>2021-05-26T12:16:38Z</time>
      </trkpt>
      <trkpt lat="41.753130" lon="2.529681">
        <ele>206.656</ele>
        <time>2021-05-26T12:16:45Z</time>
      </trkpt>
      <trkpt lat="41.753206" lon="2.529602">
        <ele>207.759</ele>
        <time>2021-05-26T12:16:52Z</time>
      </trkpt>
      <trkpt lat="41.753300" lon="2.529564">
        <ele>208.814</ele>
        <time>2021-05-26T12:17:00Z</time>
      </trkpt>
      <trkpt lat="41.753395" lon="2.529586">
        <ele>210.808</ele>
        <time>2021-05-26T12:17:07Z</time>
      </trkpt>
      <trkpt lat="41.753494" lon="2.529607">
        <ele>213.162</ele>
        <time>2021-05-26T12:17:15Z</time>
      </trkpt>
      <trkpt lat="41.753583" lon="2.529564">
        <ele>214.049</ele>
        <time>2021-05-26T12:17:23Z</time>
      </trkpt>
      <trkpt lat="41.753666" lon="2.529485">
        <ele>214.396</ele>
        <time>2021-05-26T12:17:30Z</time>
      </trkpt>
      <trkpt lat="41.753701" lon="2.529371">
        <ele>213.729</ele>
        <time>2021-05-26T12:17:38Z</time>
      </trkpt>
      <trkpt lat="41.753725" lon="2.529252">
        <ele>213.284</ele>
        <time>2021-05-26T12:17:45Z</time>
      </trkpt>
      <trkpt lat="41.753732" lon="2.529115">
        <ele>212.880</ele>
        <time>2021-05-26T12:17:52Z</time>
      </trkpt>
      <trkpt lat="41.753813" lon="2.529050">
        <ele>214.437</ele>
        <time>2021-05-26T12:17:59Z</time>
      </trkpt>
      <trkpt lat="41.753904" lon="2.529058">
        <ele>215.994</ele>
        <time>2021-05-26T12:18:04Z</time>
      </trkpt>
      <trkpt lat="41.754000" lon="2.529050">
        <ele>217.639</ele>
        <time>2021-05-26T12:18:10Z</time>
      </trkpt>
      <trkpt lat="41.754089" lon="2.529006">
        <ele>218.901</ele>
        <time>2021-05-26T12:18:17Z</time>
      </trkpt>
      <trkpt lat="41.754178" lon="2.528977">
        <ele>220.121</ele>
        <time>2021-05-26T12:18:25Z</time>
      </trkpt>
      <trkpt lat="41.754270" lon="2.528928">
        <ele>220.508</ele>
        <time>2021-05-26T12:18:33Z</time>
      </trkpt>
      <trkpt lat="41.754354" lon="2.528873">
        <ele>220.960</ele>
        <time>2021-05-26T12:18:43Z</time>
      </trkpt>
      <trkpt lat="41.754443" lon="2.528849">
        <ele>221.797</ele>
        <time>2021-05-26T12:18:50Z</time>
      </trkpt>
      <trkpt lat="41.754538" lon="2.528827">
        <ele>221.924</ele>
        <time>2021-05-26T12:18:57Z</time>
      </trkpt>
      <trkpt lat="41.754625" lon="2.528854">
        <ele>222.437</ele>
        <time>2021-05-26T12:19:03Z</time>
      </trkpt>
      <trkpt lat="41.754723" lon="2.528855">
        <ele>222.832</ele>
        <time>2021-05-26T12:19:12Z</time>
      </trkpt>
      <trkpt lat="41.754817" lon="2.528829">
        <ele>223.378</ele>
        <time>2021-05-26T12:19:20Z</time>
      </trkpt>
      <trkpt lat="41.754911" lon="2.528832">
        <ele>223.915</ele>
        <time>2021-05-26T12:19:26Z</time>
      </trkpt>
      <trkpt lat="41.754991" lon="2.528775">
        <ele>224.152</ele>
        <time>2021-05-26T12:19:31Z</time>
      </trkpt>
      <trkpt lat="41.755087" lon="2.528795">
        <ele>224.254</ele>
        <time>2021-05-26T12:19:39Z</time>
      </trkpt>
      <trkpt lat="41.755186" lon="2.528820">
        <ele>224.356</ele>
        <time>2021-05-26T12:19:47Z</time>
      </trkpt>
      <trkpt lat="41.755274" lon="2.528872">
        <ele>224.811</ele>
        <time>2021-05-26T12:19:56Z</time>
      </trkpt>
      <trkpt lat="41.755329" lon="2.528974">
        <ele>226.708</ele>
        <time>2021-05-26T12:20:04Z</time>
      </trkpt>
      <trkpt lat="41.755388" lon="2.529071">
        <ele>228.732</ele>
        <time>2021-05-26T12:20:12Z</time>
      </trkpt>
      <trkpt lat="41.755469" lon="2.529129">
        <ele>230.089</ele>
        <time>2021-05-26T12:20:21Z</time>
      </trkpt>
      <trkpt lat="41.755562" lon="2.529076">
        <ele>229.496</ele>
        <time>2021-05-26T12:20:29Z</time>
      </trkpt>
      <trkpt lat="41.755631" lon="2.528997">
        <ele>228.799</ele>
        <time>2021-05-26T12:20:36Z</time>
      </trkpt>
      <trkpt lat="41.755732" lon="2.528944">
        <ele>228.834</ele>
        <time>2021-05-26T12:20:44Z</time>
      </trkpt>
      <trkpt lat="41.755812" lon="2.528886">
        <ele>228.850</ele>
        <time>2021-05-26T12:20:52Z</time>
      </trkpt>
      <trkpt lat="41.755913" lon="2.528890">
        <ele>229.927</ele>
        <time>2021-05-26T12:21:04Z</time>
      </trkpt>
      <trkpt lat="41.756001" lon="2.528854">
        <ele>230.614</ele>
        <time>2021-05-26T12:21:12Z</time>
      </trkpt>
      <trkpt lat="41.756103" lon="2.528830">
        <ele>231.559</ele>
        <time>2021-05-26T12:21:23Z</time>
      </trkpt>
      <trkpt lat="41.756198" lon="2.528848">
        <ele>232.703</ele>
        <time>2021-05-26T12:21:30Z</time>
      </trkpt>
      <trkpt lat="41.756285" lon="2.528913">
        <ele>234.423</ele>
        <time>2021-05-26T12:21:37Z</time>
      </trkpt>
      <trkpt lat="41.756384" lon="2.528933">
        <ele>236.108</ele>
        <time>2021-05-26T12:21:44Z</time>
      </trkpt>
      <trkpt lat="41.756480" lon="2.528881">
        <ele>236.392</ele>
        <time>2021-05-26T12:21:52Z</time>
      </trkpt>
      <trkpt lat="41.756577" lon="2.528841">
        <ele>237.339</ele>
        <time>2021-05-26T12:22:02Z</time>
      </trkpt>
      <trkpt lat="41.756680" lon="2.528808">
        <ele>238.456</ele>
        <time>2021-05-26T12:22:09Z</time>
      </trkpt>
      <trkpt lat="41.756777" lon="2.528807">
        <ele>240.529</ele>
        <time>2021-05-26T12:22:18Z</time>
      </trkpt>
      <trkpt lat="41.756870" lon="2.528784">
        <ele>242.224</ele>
        <time>2021-05-26T12:22:24Z</time>
      </trkpt>
      <trkpt lat="41.756961" lon="2.528764">
        <ele>243.670</ele>
        <time>2021-05-26T12:22:30Z</time>
      </trkpt>
      <trkpt lat="41.757053" lon="2.528703">
        <ele>244.197</ele>
        <time>2021-05-26T12:22:37Z</time>
      </trkpt>
      <trkpt lat="41.757128" lon="2.528638">
        <ele>244.464</ele>
        <time>2021-05-26T12:22:45Z</time>
      </trkpt>
      <trkpt lat="41.757223" lon="2.528624">
        <ele>246.278</ele>
        <time>2021-05-26T12:22:50Z</time>
      </trkpt>
      <trkpt lat="41.757314" lon="2.528635">
        <ele>247.033</ele>
        <time>2021-05-26T12:22:57Z</time>
      </trkpt>
      <trkpt lat="41.757399" lon="2.528593">
        <ele>247.126</ele>
        <time>2021-05-26T12:23:06Z</time>
      </trkpt>
      <trkpt lat="41.757495" lon="2.528552">
        <ele>247.508</ele>
        <time>2021-05-26T12:23:15Z</time>
      </trkpt>
      <trkpt lat="41.757582" lon="2.528501">
        <ele>247.584</ele>
        <time>2021-05-26T12:23:24Z</time>
      </trkpt>
      <trkpt lat="41.757678" lon="2.528485">
        <ele>247.751</ele>
        <time>2021-05-26T12:23:33Z</time>
      </trkpt>
      <trkpt lat="41.757777" lon="2.528475">
        <ele>248.038</ele>
        <time>2021-05-26T12:23:39Z</time>
      </trkpt>
      <trkpt lat="41.757868" lon="2.528439">
        <ele>249.241</ele>
        <time>2021-05-26T12:23:48Z</time>
      </trkpt>
      <trkpt lat="41.757960" lon="2.528444">
        <ele>250.766</ele>
        <time>2021-05-26T12:23:59Z</time>
      </trkpt>
      <trkpt lat="41.758030" lon="2.528529">
        <ele>252.762</ele>
        <time>2021-05-26T12:24:10Z</time>
      </trkpt>
      <trkpt lat="41.758122" lon="2.528502">
        <ele>254.299</ele>
        <time>2021-05-26T12:24:17Z</time>
      </trkpt>
      <trkpt lat="41.758213" lon="2.528478">
        <ele>255.776</ele>
        <time>2021-05-26T12:24:28Z</time>
      </trkpt>
      <trkpt lat="41.758295" lon="2.528528">
        <ele>258.064</ele>
        <time>2021-05-26T12:24:35Z</time>
      </trkpt>
      <trkpt lat="41.758397" lon="2.528549">
        <ele>260.306</ele>
        <time>2021-05-26T12:24:46Z</time>
      </trkpt>
      <trkpt lat="41.758487" lon="2.528564">
        <ele>262.216</ele>
        <time>2021-05-26T12:24:56Z</time>
      </trkpt>
      <trkpt lat="41.758574" lon="2.528621">
        <ele>264.608</ele>
        <time>2021-05-26T12:25:07Z</time>
      </trkpt>
      <trkpt lat="41.758670" lon="2.528644">
        <ele>267.653</ele>
        <time>2021-05-26T12:25:21Z</time>
      </trkpt>
      <trkpt lat="41.758754" lon="2.528697">
        <ele>271.230</ele>
        <time>2021-05-26T12:25:34Z</time>
      </trkpt>
      <trkpt lat="41.758818" lon="2.528786">
        <ele>274.247</ele>
        <time>2021-05-26T12:25:44Z</time>
      </trkpt>
      <trkpt lat="41.758880" lon="2.528875">
        <ele>276.740</ele>
        <time>2021-05-26T12:25:58Z</time>
      </trkpt>
      <trkpt lat="41.758970" lon="2.528925">
        <ele>279.345</ele>
        <time>2021-05-26T12:26:19Z</time>
      </trkpt>
      <trkpt lat="41.759033" lon="2.529017">
        <ele>281.711</ele>
        <time>2021-05-26T12:26:37Z</time>
      </trkpt>
      <trkpt lat="41.758948" lon="2.529060">
        <ele>281.088</ele>
        <time>2021-05-26T12:26:48Z</time>
      </trkpt>
      <trkpt lat="41.758853" lon="2.529013">
        <ele>278.655</ele>
        <time>2021-05-26T12:26:57Z</time>
      </trkpt>
      <trkpt lat="41.758763" lon="2.529028">
        <ele>277.513</ele>
        <time>2021-05-26T12:27:15Z</time>
      </trkpt>
      <trkpt lat="41.758674" lon="2.529012">
        <ele>275.743</ele>
        <time>2021-05-26T12:27:28Z</time>
      </trkpt>
      <trkpt lat="41.758596" lon="2.529017">
        <ele>274.407</ele>
        <time>2021-05-26T12:27:39Z</time>
      </trkpt>
      <trkpt lat="41.758577" lon="2.529026">
        <ele>274.208</ele>
        <time>2021-05-26T12:27:41Z</time>
      </trkpt>
      <trkpt lat="41.758558" lon="2.529049">
        <ele>274.268</ele>
        <time>2021-05-26T12:27:45Z</time>
      </trkpt>
      <trkpt lat="41.758535" lon="2.529073">
        <ele>274.265</ele>
        <time>2021-05-26T12:27:49Z</time>
      </trkpt>
      <trkpt lat="41.758478" lon="2.529113">
        <ele>273.932</ele>
        <time>2021-05-26T12:27:56Z</time>
      </trkpt>
      <trkpt lat="41.758457" lon="2.529118">
        <ele>273.525</ele>
        <time>2021-05-26T12:27:58Z</time>
      </trkpt>
      <trkpt lat="41.758418" lon="2.529169">
        <ele>273.990</ele>
        <time>2021-05-26T12:28:03Z</time>
      </trkpt>
      <trkpt lat="41.758402" lon="2.529209">
        <ele>274.736</ele>
        <time>2021-05-26T12:28:06Z</time>
      </trkpt>
      <trkpt lat="41.758393" lon="2.529243">
        <ele>275.583</ele>
        <time>2021-05-26T12:28:08Z</time>
      </trkpt>
      <trkpt lat="41.758383" lon="2.529284">
        <ele>276.550</ele>
        <time>2021-05-26T12:28:10Z</time>
      </trkpt>
      <trkpt lat="41.758384" lon="2.529324">
        <ele>277.764</ele>
        <time>2021-05-26T12:28:12Z</time>
      </trkpt>
      <trkpt lat="41.758380" lon="2.529368">
        <ele>278.906</ele>
        <time>2021-05-26T12:28:14Z</time>
      </trkpt>
      <trkpt lat="41.758380" lon="2.529394">
        <ele>279.716</ele>
        <time>2021-05-26T12:28:15Z</time>
      </trkpt>
      <trkpt lat="41.758378" lon="2.529426">
        <ele>280.608</ele>
        <time>2021-05-26T12:28:16Z</time>
      </trkpt>
      <trkpt lat="41.758333" lon="2.529545">
        <ele>282.543</ele>
        <time>2021-05-26T12:28:22Z</time>
      </trkpt>
      <trkpt lat="41.758242" lon="2.529528">
        <ele>280.360</ele>
        <time>2021-05-26T12:28:29Z</time>
      </trkpt>
      <trkpt lat="41.758144" lon="2.529497">
        <ele>277.577</ele>
        <time>2021-05-26T12:28:35Z</time>
      </trkpt>
      <trkpt lat="41.758048" lon="2.529485">
        <ele>275.390</ele>
        <time>2021-05-26T12:28:42Z</time>
      </trkpt>
      <trkpt lat="41.757965" lon="2.529543">
        <ele>276.765</ele>
        <time>2021-05-26T12:28:50Z</time>
      </trkpt>
      <trkpt lat="41.757903" lon="2.529634">
        <ele>279.421</ele>
        <time>2021-05-26T12:28:58Z</time>
      </trkpt>
      <trkpt lat="41.757856" lon="2.529742">
        <ele>282.958</ele>
        <time>2021-05-26T12:29:06Z</time>
      </trkpt>
      <trkpt lat="41.757802" lon="2.529836">
        <ele>285.845</ele>
        <time>2021-05-26T12:29:15Z</time>
      </trkpt>
      <trkpt lat="41.757787" lon="2.529859">
        <ele>286.559</ele>
        <time>2021-05-26T12:29:17Z</time>
      </trkpt>
      <trkpt lat="41.757768" lon="2.529918">
        <ele>288.003</ele>
        <time>2021-05-26T12:29:22Z</time>
      </trkpt>
      <trkpt lat="41.757678" lon="2.529952">
        <ele>286.023</ele>
        <time>2021-05-26T12:29:32Z</time>
      </trkpt>
      <trkpt lat="41.757598" lon="2.529929">
        <ele>282.708</ele>
        <time>2021-05-26T12:29:40Z</time>
      </trkpt>
      <trkpt lat="41.757578" lon="2.529920">
        <ele>281.842</ele>
        <time>2021-05-26T12:29:45Z</time>
      </trkpt>
      <trkpt lat="41.757553" lon="2.529917">
        <ele>280.949</ele>
        <time>2021-05-26T12:29:48Z</time>
      </trkpt>
      <trkpt lat="41.757531" lon="2.529919">
        <ele>280.366</ele>
        <time>2021-05-26T12:29:51Z</time>
      </trkpt>
      <trkpt lat="41.757512" lon="2.529920">
        <ele>279.779</ele>
        <time>2021-05-26T12:29:54Z</time>
      </trkpt>
      <trkpt lat="41.757491" lon="2.529926">
        <ele>279.244</ele>
        <time>2021-05-26T12:29:56Z</time>
      </trkpt>
      <trkpt lat="41.757470" lon="2.529933">
        <ele>278.810</ele>
        <time>2021-05-26T12:29:58Z</time>
      </trkpt>
      <trkpt lat="41.757454" lon="2.529946">
        <ele>278.717</ele>
        <time>2021-05-26T12:30:00Z</time>
      </trkpt>
      <trkpt lat="41.757438" lon="2.529973">
        <ele>278.984</ele>
        <time>2021-05-26T12:30:03Z</time>
      </trkpt>
      <trkpt lat="41.757426" lon="2.529993">
        <ele>279.031</ele>
        <time>2021-05-26T12:30:05Z</time>
      </trkpt>
      <trkpt lat="41.757416" lon="2.530016">
        <ele>279.361</ele>
        <time>2021-05-26T12:30:07Z</time>
      </trkpt>
      <trkpt lat="41.757414" lon="2.530042">
        <ele>279.907</ele>
        <time>2021-05-26T12:30:09Z</time>
      </trkpt>
      <trkpt lat="41.757404" lon="2.530069">
        <ele>280.308</ele>
        <time>2021-05-26T12:30:11Z</time>
      </trkpt>
      <trkpt lat="41.757397" lon="2.530107">
        <ele>281.160</ele>
        <time>2021-05-26T12:30:14Z</time>
      </trkpt>
      <trkpt lat="41.757393" lon="2.530145">
        <ele>281.997</ele>
        <time>2021-05-26T12:30:16Z</time>
      </trkpt>
      <trkpt lat="41.757390" lon="2.530171">
        <ele>282.474</ele>
        <time>2021-05-26T12:30:18Z</time>
      </trkpt>
      <trkpt lat="41.757375" lon="2.530201">
        <ele>282.727</ele>
        <time>2021-05-26T12:30:21Z</time>
      </trkpt>
      <trkpt lat="41.757345" lon="2.530329">
        <ele>285.662</ele>
        <time>2021-05-26T12:30:28Z</time>
      </trkpt>
      <trkpt lat="41.757316" lon="2.530381">
        <ele>286.738</ele>
        <time>2021-05-26T12:30:32Z</time>
      </trkpt>
      <trkpt lat="41.757304" lon="2.530418">
        <ele>287.945</ele>
        <time>2021-05-26T12:30:36Z</time>
      </trkpt>
      <trkpt lat="41.757274" lon="2.530475">
        <ele>289.312</ele>
        <time>2021-05-26T12:30:41Z</time>
      </trkpt>
      <trkpt lat="41.757262" lon="2.530495">
        <ele>289.776</ele>
        <time>2021-05-26T12:30:43Z</time>
      </trkpt>
      <trkpt lat="41.757245" lon="2.530523">
        <ele>290.390</ele>
        <time>2021-05-26T12:30:46Z</time>
      </trkpt>
      <trkpt lat="41.757230" lon="2.530541">
        <ele>290.619</ele>
        <time>2021-05-26T12:30:48Z</time>
      </trkpt>
      <trkpt lat="41.757218" lon="2.530566">
        <ele>291.408</ele>
        <time>2021-05-26T12:30:50Z</time>
      </trkpt>
      <trkpt lat="41.757203" lon="2.530586">
        <ele>292.194</ele>
        <time>2021-05-26T12:30:52Z</time>
      </trkpt>
      <trkpt lat="41.757184" lon="2.530601">
        <ele>292.551</ele>
        <time>2021-05-26T12:30:55Z</time>
      </trkpt>
      <trkpt lat="41.757165" lon="2.530600">
        <ele>292.198</ele>
        <time>2021-05-26T12:30:57Z</time>
      </trkpt>
      <trkpt lat="41.757136" lon="2.530604">
        <ele>291.831</ele>
        <time>2021-05-26T12:31:00Z</time>
      </trkpt>
      <trkpt lat="41.757115" lon="2.530608">
        <ele>291.686</ele>
        <time>2021-05-26T12:31:02Z</time>
      </trkpt>
      <trkpt lat="41.757094" lon="2.530608">
        <ele>291.332</ele>
        <time>2021-05-26T12:31:04Z</time>
      </trkpt>
      <trkpt lat="41.757007" lon="2.530568">
        <ele>288.319</ele>
        <time>2021-05-26T12:31:13Z</time>
      </trkpt>
      <trkpt lat="41.756968" lon="2.530566">
        <ele>287.776</ele>
        <time>2021-05-26T12:31:16Z</time>
      </trkpt>
      <trkpt lat="41.756962" lon="2.530628">
        <ele>289.796</ele>
        <time>2021-05-26T12:31:21Z</time>
      </trkpt>
      <trkpt lat="41.756977" lon="2.530652">
        <ele>290.831</ele>
        <time>2021-05-26T12:31:23Z</time>
      </trkpt>
      <trkpt lat="41.756992" lon="2.530668">
        <ele>291.624</ele>
        <time>2021-05-26T12:31:25Z</time>
      </trkpt>
      <trkpt lat="41.757010" lon="2.530683">
        <ele>292.508</ele>
        <time>2021-05-26T12:31:27Z</time>
      </trkpt>
      <trkpt lat="41.757034" lon="2.530689">
        <ele>293.296</ele>
        <time>2021-05-26T12:31:29Z</time>
      </trkpt>
      <trkpt lat="41.757052" lon="2.530695">
        <ele>293.823</ele>
        <time>2021-05-26T12:31:32Z</time>
      </trkpt>
      <trkpt lat="41.757069" lon="2.530706">
        <ele>294.650</ele>
        <time>2021-05-26T12:31:34Z</time>
      </trkpt>
      <trkpt lat="41.757096" lon="2.530713">
        <ele>295.573</ele>
        <time>2021-05-26T12:31:36Z</time>
      </trkpt>
      <trkpt lat="41.757119" lon="2.530734">
        <ele>296.968</ele>
        <time>2021-05-26T12:31:38Z</time>
      </trkpt>
      <trkpt lat="41.757137" lon="2.530744">
        <ele>297.834</ele>
        <time>2021-05-26T12:31:40Z</time>
      </trkpt>
      <trkpt lat="41.757161" lon="2.530760">
        <ele>299.091</ele>
        <time>2021-05-26T12:31:43Z</time>
      </trkpt>
      <trkpt lat="41.757188" lon="2.530774">
        <ele>300.318</ele>
        <time>2021-05-26T12:31:45Z</time>
      </trkpt>
      <trkpt lat="41.757208" lon="2.530786">
        <ele>301.454</ele>
        <time>2021-05-26T12:31:48Z</time>
      </trkpt>
      <trkpt lat="41.757231" lon="2.530793">
        <ele>302.356</ele>
        <time>2021-05-26T12:31:50Z</time>
      </trkpt>
      <trkpt lat="41.757251" lon="2.530795">
        <ele>302.911</ele>
        <time>2021-05-26T12:31:52Z</time>
      </trkpt>
      <trkpt lat="41.757338" lon="2.530764">
        <ele>303.608</ele>
        <time>2021-05-26T12:32:00Z</time>
      </trkpt>
      <trkpt lat="41.757414" lon="2.530692">
        <ele>302.672</ele>
        <time>2021-05-26T12:32:06Z</time>
      </trkpt>
      <trkpt lat="41.757474" lon="2.530594">
        <ele>300.699</ele>
        <time>2021-05-26T12:32:14Z</time>
      </trkpt>
      <trkpt lat="41.757523" lon="2.530491">
        <ele>298.166</ele>
        <time>2021-05-26T12:32:24Z</time>
      </trkpt>
      <trkpt lat="41.757620" lon="2.530497">
        <ele>300.999</ele>
        <time>2021-05-26T12:32:33Z</time>
      </trkpt>
      <trkpt lat="41.757687" lon="2.530548">
        <ele>304.494</ele>
        <time>2021-05-26T12:32:40Z</time>
      </trkpt>
      <trkpt lat="41.757708" lon="2.530566">
        <ele>305.660</ele>
        <time>2021-05-26T12:32:42Z</time>
      </trkpt>
      <trkpt lat="41.757726" lon="2.530585">
        <ele>306.857</ele>
        <time>2021-05-26T12:32:44Z</time>
      </trkpt>
      <trkpt lat="41.757809" lon="2.530646">
        <ele>310.964</ele>
        <time>2021-05-26T12:32:53Z</time>
      </trkpt>
      <trkpt lat="41.757854" lon="2.530658">
        <ele>312.211</ele>
        <time>2021-05-26T12:32:58Z</time>
      </trkpt>
      <trkpt lat="41.757873" lon="2.530659">
        <ele>312.621</ele>
        <time>2021-05-26T12:33:00Z</time>
      </trkpt>
      <trkpt lat="41.757925" lon="2.530619">
        <ele>312.103</ele>
        <time>2021-05-26T12:33:05Z</time>
      </trkpt>
      <trkpt lat="41.758004" lon="2.530534">
        <ele>310.208</ele>
        <time>2021-05-26T12:33:15Z</time>
      </trkpt>
      <trkpt lat="41.758096" lon="2.530502">
        <ele>310.548</ele>
        <time>2021-05-26T12:33:24Z</time>
      </trkpt>
      <trkpt lat="41.758143" lon="2.530505">
        <ele>311.395</ele>
        <time>2021-05-26T12:33:29Z</time>
      </trkpt>
      <trkpt lat="41.758208" lon="2.530524">
        <ele>312.952</ele>
        <time>2021-05-26T12:33:34Z</time>
      </trkpt>
      <trkpt lat="41.758234" lon="2.530532">
        <ele>313.695</ele>
        <time>2021-05-26T12:33:37Z</time>
      </trkpt>
      <trkpt lat="41.758329" lon="2.530545">
        <ele>315.520</ele>
        <time>2021-05-26T12:33:45Z</time>
      </trkpt>
      <trkpt lat="41.758417" lon="2.530588">
        <ele>318.856</ele>
        <time>2021-05-26T12:33:53Z</time>
      </trkpt>
      <trkpt lat="41.758462" lon="2.530617">
        <ele>320.763</ele>
        <time>2021-05-26T12:33:58Z</time>
      </trkpt>
      <trkpt lat="41.758478" lon="2.530628">
        <ele>321.380</ele>
        <time>2021-05-26T12:34:00Z</time>
      </trkpt>
      <trkpt lat="41.758498" lon="2.530647">
        <ele>322.379</ele>
        <time>2021-05-26T12:34:03Z</time>
      </trkpt>
      <trkpt lat="41.758542" lon="2.530688">
        <ele>324.405</ele>
        <time>2021-05-26T12:34:08Z</time>
      </trkpt>
      <trkpt lat="41.758638" lon="2.530707">
        <ele>326.525</ele>
        <time>2021-05-26T12:34:19Z</time>
      </trkpt>
      <trkpt lat="41.758729" lon="2.530693">
        <ele>328.008</ele>
        <time>2021-05-26T12:34:27Z</time>
      </trkpt>
      <trkpt lat="41.758810" lon="2.530619">
        <ele>327.764</ele>
        <time>2021-05-26T12:34:37Z</time>
      </trkpt>
      <trkpt lat="41.758867" lon="2.530523">
        <ele>326.571</ele>
        <time>2021-05-26T12:34:45Z</time>
      </trkpt>
      <trkpt lat="41.758915" lon="2.530434">
        <ele>324.988</ele>
        <time>2021-05-26T12:34:53Z</time>
      </trkpt>
      <trkpt lat="41.758932" lon="2.530419">
        <ele>324.821</ele>
        <time>2021-05-26T12:34:55Z</time>
      </trkpt>
      <trkpt lat="41.758949" lon="2.530402">
        <ele>324.696</ele>
        <time>2021-05-26T12:34:57Z</time>
      </trkpt>
      <trkpt lat="41.758967" lon="2.530387">
        <ele>324.432</ele>
        <time>2021-05-26T12:34:59Z</time>
      </trkpt>
      <trkpt lat="41.758986" lon="2.530380">
        <ele>324.659</ele>
        <time>2021-05-26T12:35:01Z</time>
      </trkpt>
      <trkpt lat="41.759004" lon="2.530377">
        <ele>324.896</ele>
        <time>2021-05-26T12:35:03Z</time>
      </trkpt>
      <trkpt lat="41.759042" lon="2.530371">
        <ele>325.311</ele>
        <time>2021-05-26T12:35:06Z</time>
      </trkpt>
      <trkpt lat="41.759069" lon="2.530376">
        <ele>325.821</ele>
        <time>2021-05-26T12:35:08Z</time>
      </trkpt>
      <trkpt lat="41.759089" lon="2.530391">
        <ele>326.603</ele>
        <time>2021-05-26T12:35:10Z</time>
      </trkpt>
      <trkpt lat="41.759112" lon="2.530404">
        <ele>327.308</ele>
        <time>2021-05-26T12:35:12Z</time>
      </trkpt>
      <trkpt lat="41.759135" lon="2.530415">
        <ele>327.958</ele>
        <time>2021-05-26T12:35:14Z</time>
      </trkpt>
      <trkpt lat="41.759159" lon="2.530427">
        <ele>328.635</ele>
        <time>2021-05-26T12:35:16Z</time>
      </trkpt>
      <trkpt lat="41.759183" lon="2.530434">
        <ele>329.082</ele>
        <time>2021-05-26T12:35:18Z</time>
      </trkpt>
      <trkpt lat="41.759211" lon="2.530442">
        <ele>329.345</ele>
        <time>2021-05-26T12:35:20Z</time>
      </trkpt>
      <trkpt lat="41.759240" lon="2.530455">
        <ele>329.830</ele>
        <time>2021-05-26T12:35:22Z</time>
      </trkpt>
      <trkpt lat="41.759268" lon="2.530463">
        <ele>330.256</ele>
        <time>2021-05-26T12:35:24Z</time>
      </trkpt>
      <trkpt lat="41.759296" lon="2.530469">
        <ele>330.573</ele>
        <time>2021-05-26T12:35:26Z</time>
      </trkpt>
      <trkpt lat="41.759322" lon="2.530475">
        <ele>330.820</ele>
        <time>2021-05-26T12:35:28Z</time>
      </trkpt>
      <trkpt lat="41.759355" lon="2.530484">
        <ele>331.262</ele>
        <time>2021-05-26T12:35:30Z</time>
      </trkpt>
      <trkpt lat="41.759385" lon="2.530489">
        <ele>331.583</ele>
        <time>2021-05-26T12:35:32Z</time>
      </trkpt>
      <trkpt lat="41.759402" lon="2.530480">
        <ele>331.311</ele>
        <time>2021-05-26T12:35:33Z</time>
      </trkpt>
      <trkpt lat="41.759432" lon="2.530469">
        <ele>331.108</ele>
        <time>2021-05-26T12:35:35Z</time>
      </trkpt>
      <trkpt lat="41.759451" lon="2.530460">
        <ele>331.073</ele>
        <time>2021-05-26T12:35:37Z</time>
      </trkpt>
      <trkpt lat="41.759475" lon="2.530449">
        <ele>331.040</ele>
        <time>2021-05-26T12:35:39Z</time>
      </trkpt>
      <trkpt lat="41.759492" lon="2.530432">
        <ele>330.777</ele>
        <time>2021-05-26T12:35:41Z</time>
      </trkpt>
      <trkpt lat="41.759516" lon="2.530415">
        <ele>330.540</ele>
        <time>2021-05-26T12:35:43Z</time>
      </trkpt>
      <trkpt lat="41.759543" lon="2.530398">
        <ele>330.365</ele>
        <time>2021-05-26T12:35:45Z</time>
      </trkpt>
      <trkpt lat="41.759562" lon="2.530380">
        <ele>330.011</ele>
        <time>2021-05-26T12:35:47Z</time>
      </trkpt>
      <trkpt lat="41.759657" lon="2.530331">
        <ele>329.858</ele>
        <time>2021-05-26T12:35:54Z</time>
      </trkpt>
      <trkpt lat="41.759733" lon="2.530354">
        <ele>331.795</ele>
        <time>2021-05-26T12:36:00Z</time>
      </trkpt>
      <trkpt lat="41.759754" lon="2.530359">
        <ele>332.345</ele>
        <time>2021-05-26T12:36:02Z</time>
      </trkpt>
      <trkpt lat="41.759777" lon="2.530365">
        <ele>332.947</ele>
        <time>2021-05-26T12:36:04Z</time>
      </trkpt>
      <trkpt lat="41.759801" lon="2.530365">
        <ele>333.311</ele>
        <time>2021-05-26T12:36:06Z</time>
      </trkpt>
      <trkpt lat="41.759831" lon="2.530370">
        <ele>334.108</ele>
        <time>2021-05-26T12:36:08Z</time>
      </trkpt>
      <trkpt lat="41.759857" lon="2.530367">
        <ele>334.511</ele>
        <time>2021-05-26T12:36:10Z</time>
      </trkpt>
      <trkpt lat="41.759884" lon="2.530351">
        <ele>334.618</ele>
        <time>2021-05-26T12:36:12Z</time>
      </trkpt>
      <trkpt lat="41.759904" lon="2.530334">
        <ele>334.565</ele>
        <time>2021-05-26T12:36:14Z</time>
      </trkpt>
      <trkpt lat="41.759923" lon="2.530315">
        <ele>334.378</ele>
        <time>2021-05-26T12:36:16Z</time>
      </trkpt>
      <trkpt lat="41.759939" lon="2.530299">
        <ele>334.343</ele>
        <time>2021-05-26T12:36:18Z</time>
      </trkpt>
      <trkpt lat="41.759956" lon="2.530273">
        <ele>333.979</ele>
        <time>2021-05-26T12:36:20Z</time>
      </trkpt>
      <trkpt lat="41.759979" lon="2.530244">
        <ele>333.736</ele>
        <time>2021-05-26T12:36:22Z</time>
      </trkpt>
      <trkpt lat="41.759998" lon="2.530215">
        <ele>333.413</ele>
        <time>2021-05-26T12:36:24Z</time>
      </trkpt>
      <trkpt lat="41.760013" lon="2.530183">
        <ele>332.924</ele>
        <time>2021-05-26T12:36:26Z</time>
      </trkpt>
      <trkpt lat="41.760023" lon="2.530149">
        <ele>332.204</ele>
        <time>2021-05-26T12:36:28Z</time>
      </trkpt>
      <trkpt lat="41.760032" lon="2.530118">
        <ele>331.714</ele>
        <time>2021-05-26T12:36:30Z</time>
      </trkpt>
      <trkpt lat="41.760036" lon="2.530081">
        <ele>330.908</ele>
        <time>2021-05-26T12:36:32Z</time>
      </trkpt>
      <trkpt lat="41.760044" lon="2.530058">
        <ele>330.539</ele>
        <time>2021-05-26T12:36:34Z</time>
      </trkpt>
      <trkpt lat="41.760062" lon="2.530026">
        <ele>330.256</ele>
        <time>2021-05-26T12:36:37Z</time>
      </trkpt>
      <trkpt lat="41.760069" lon="2.529994">
        <ele>329.633</ele>
        <time>2021-05-26T12:36:39Z</time>
      </trkpt>
      <trkpt lat="41.760075" lon="2.529965">
        <ele>329.396</ele>
        <time>2021-05-26T12:36:41Z</time>
      </trkpt>
      <trkpt lat="41.760080" lon="2.529931">
        <ele>328.881</ele>
        <time>2021-05-26T12:36:43Z</time>
      </trkpt>
      <trkpt lat="41.760091" lon="2.529897">
        <ele>328.447</ele>
        <time>2021-05-26T12:36:45Z</time>
      </trkpt>
      <trkpt lat="41.760097" lon="2.529867">
        <ele>328.144</ele>
        <time>2021-05-26T12:36:47Z</time>
      </trkpt>
      <trkpt lat="41.760102" lon="2.529840">
        <ele>327.741</ele>
        <time>2021-05-26T12:36:49Z</time>
      </trkpt>
      <trkpt lat="41.760122" lon="2.529811">
        <ele>327.741</ele>
        <time>2021-05-26T12:36:51Z</time>
      </trkpt>
      <trkpt lat="41.760139" lon="2.529783">
        <ele>327.681</ele>
        <time>2021-05-26T12:36:53Z</time>
      </trkpt>
      <trkpt lat="41.760157" lon="2.529762">
        <ele>327.709</ele>
        <time>2021-05-26T12:36:55Z</time>
      </trkpt>
      <trkpt lat="41.760174" lon="2.529742">
        <ele>327.708</ele>
        <time>2021-05-26T12:36:57Z</time>
      </trkpt>
      <trkpt lat="41.760185" lon="2.529724">
        <ele>327.791</ele>
        <time>2021-05-26T12:36:58Z</time>
      </trkpt>
      <trkpt lat="41.760196" lon="2.529704">
        <ele>327.758</ele>
        <time>2021-05-26T12:36:59Z</time>
      </trkpt>
      <trkpt lat="41.760216" lon="2.529660">
        <ele>327.585</ele>
        <time>2021-05-26T12:37:01Z</time>
      </trkpt>
      <trkpt lat="41.760227" lon="2.529635">
        <ele>327.558</ele>
        <time>2021-05-26T12:37:02Z</time>
      </trkpt>
      <trkpt lat="41.760250" lon="2.529600">
        <ele>327.593</ele>
        <time>2021-05-26T12:37:04Z</time>
      </trkpt>
      <trkpt lat="41.760278" lon="2.529577">
        <ele>327.999</ele>
        <time>2021-05-26T12:37:06Z</time>
      </trkpt>
      <trkpt lat="41.760304" lon="2.529559">
        <ele>328.486</ele>
        <time>2021-05-26T12:37:08Z</time>
      </trkpt>
      <trkpt lat="41.760376" lon="2.529511">
        <ele>329.993</ele>
        <time>2021-05-26T12:37:14Z</time>
      </trkpt>
      <trkpt lat="41.760401" lon="2.529501">
        <ele>330.542</ele>
        <time>2021-05-26T12:37:16Z</time>
      </trkpt>
      <trkpt lat="41.760425" lon="2.529496">
        <ele>331.122</ele>
        <time>2021-05-26T12:37:18Z</time>
      </trkpt>
      <trkpt lat="41.760454" lon="2.529480">
        <ele>331.714</ele>
        <time>2021-05-26T12:37:20Z</time>
      </trkpt>
      <trkpt lat="41.760476" lon="2.529462">
        <ele>332.008</ele>
        <time>2021-05-26T12:37:22Z</time>
      </trkpt>
      <trkpt lat="41.760496" lon="2.529442">
        <ele>332.281</ele>
        <time>2021-05-26T12:37:24Z</time>
      </trkpt>
      <trkpt lat="41.760518" lon="2.529419">
        <ele>332.588</ele>
        <time>2021-05-26T12:37:26Z</time>
      </trkpt>
      <trkpt lat="41.760539" lon="2.529395">
        <ele>332.625</ele>
        <time>2021-05-26T12:37:28Z</time>
      </trkpt>
      <trkpt lat="41.760557" lon="2.529368">
        <ele>332.728</ele>
        <time>2021-05-26T12:37:30Z</time>
      </trkpt>
      <trkpt lat="41.760567" lon="2.529336">
        <ele>332.313</ele>
        <time>2021-05-26T12:37:33Z</time>
      </trkpt>
      <trkpt lat="41.760577" lon="2.529306">
        <ele>332.089</ele>
        <time>2021-05-26T12:37:34Z</time>
      </trkpt>
      <trkpt lat="41.760587" lon="2.529271">
        <ele>331.666</ele>
        <time>2021-05-26T12:37:36Z</time>
      </trkpt>
      <trkpt lat="41.760590" lon="2.529238">
        <ele>331.183</ele>
        <time>2021-05-26T12:37:38Z</time>
      </trkpt>
      <trkpt lat="41.760586" lon="2.529207">
        <ele>330.426</ele>
        <time>2021-05-26T12:37:40Z</time>
      </trkpt>
      <trkpt lat="41.760588" lon="2.529169">
        <ele>329.747</ele>
        <time>2021-05-26T12:37:42Z</time>
      </trkpt>
      <trkpt lat="41.760594" lon="2.529131">
        <ele>329.211</ele>
        <time>2021-05-26T12:37:44Z</time>
      </trkpt>
      <trkpt lat="41.760603" lon="2.529101">
        <ele>328.808</ele>
        <time>2021-05-26T12:37:46Z</time>
      </trkpt>
      <trkpt lat="41.760610" lon="2.529076">
        <ele>328.549</ele>
        <time>2021-05-26T12:37:48Z</time>
      </trkpt>
      <trkpt lat="41.760623" lon="2.529049">
        <ele>328.216</ele>
        <time>2021-05-26T12:37:51Z</time>
      </trkpt>
      <trkpt lat="41.760626" lon="2.529019">
        <ele>327.713</ele>
        <time>2021-05-26T12:37:53Z</time>
      </trkpt>
      <trkpt lat="41.760625" lon="2.528987">
        <ele>327.146</ele>
        <time>2021-05-26T12:37:55Z</time>
      </trkpt>
      <trkpt lat="41.760640" lon="2.528967">
        <ele>327.021</ele>
        <time>2021-05-26T12:37:57Z</time>
      </trkpt>
      <trkpt lat="41.760657" lon="2.528950">
        <ele>327.037</ele>
        <time>2021-05-26T12:37:59Z</time>
      </trkpt>
      <trkpt lat="41.760674" lon="2.528940">
        <ele>327.194</ele>
        <time>2021-05-26T12:38:01Z</time>
      </trkpt>
      <trkpt lat="41.760693" lon="2.528934">
        <ele>327.421</ele>
        <time>2021-05-26T12:38:03Z</time>
      </trkpt>
      <trkpt lat="41.760715" lon="2.528932">
        <ele>327.725</ele>
        <time>2021-05-26T12:38:05Z</time>
      </trkpt>
      <trkpt lat="41.760739" lon="2.528934">
        <ele>328.226</ele>
        <time>2021-05-26T12:38:07Z</time>
      </trkpt>
      <trkpt lat="41.760772" lon="2.528944">
        <ele>329.008</ele>
        <time>2021-05-26T12:38:09Z</time>
      </trkpt>
      <trkpt lat="41.760799" lon="2.528937">
        <ele>329.408</ele>
        <time>2021-05-26T12:38:11Z</time>
      </trkpt>
      <trkpt lat="41.760827" lon="2.528932">
        <ele>329.869</ele>
        <time>2021-05-26T12:38:13Z</time>
      </trkpt>
      <trkpt lat="41.760851" lon="2.528931">
        <ele>330.336</ele>
        <time>2021-05-26T12:38:15Z</time>
      </trkpt>
      <trkpt lat="41.760874" lon="2.528926">
        <ele>330.763</ele>
        <time>2021-05-26T12:38:17Z</time>
      </trkpt>
      <trkpt lat="41.760895" lon="2.528930">
        <ele>331.226</ele>
        <time>2021-05-26T12:38:19Z</time>
      </trkpt>
      <trkpt lat="41.760920" lon="2.528933">
        <ele>331.811</ele>
        <time>2021-05-26T12:38:21Z</time>
      </trkpt>
      <trkpt lat="41.760942" lon="2.528931">
        <ele>332.397</ele>
        <time>2021-05-26T12:38:23Z</time>
      </trkpt>
      <trkpt lat="41.760966" lon="2.528934">
        <ele>332.894</ele>
        <time>2021-05-26T12:38:25Z</time>
      </trkpt>
      <trkpt lat="41.760997" lon="2.528931">
        <ele>333.411</ele>
        <time>2021-05-26T12:38:27Z</time>
      </trkpt>
      <trkpt lat="41.761023" lon="2.528925">
        <ele>333.926</ele>
        <time>2021-05-26T12:38:29Z</time>
      </trkpt>
      <trkpt lat="41.761042" lon="2.528921">
        <ele>334.247</ele>
        <time>2021-05-26T12:38:31Z</time>
      </trkpt>
      <trkpt lat="41.761060" lon="2.528907">
        <ele>334.311</ele>
        <time>2021-05-26T12:38:33Z</time>
      </trkpt>
      <trkpt lat="41.761083" lon="2.528887">
        <ele>334.308</ele>
        <time>2021-05-26T12:38:35Z</time>
      </trkpt>
      <trkpt lat="41.761106" lon="2.528874">
        <ele>334.589</ele>
        <time>2021-05-26T12:38:37Z</time>
      </trkpt>
      <trkpt lat="41.761121" lon="2.528857">
        <ele>334.486</ele>
        <time>2021-05-26T12:38:39Z</time>
      </trkpt>
      <trkpt lat="41.761140" lon="2.528841">
        <ele>334.553</ele>
        <time>2021-05-26T12:38:41Z</time>
      </trkpt>
      <trkpt lat="41.761159" lon="2.528831">
        <ele>334.786</ele>
        <time>2021-05-26T12:38:43Z</time>
      </trkpt>
      <trkpt lat="41.761180" lon="2.528828">
        <ele>335.261</ele>
        <time>2021-05-26T12:38:45Z</time>
      </trkpt>
      <trkpt lat="41.761204" lon="2.528829">
        <ele>335.837</ele>
        <time>2021-05-26T12:38:48Z</time>
      </trkpt>
      <trkpt lat="41.761225" lon="2.528827">
        <ele>336.324</ele>
        <time>2021-05-26T12:38:50Z</time>
      </trkpt>
      <trkpt lat="41.761247" lon="2.528825">
        <ele>336.891</ele>
        <time>2021-05-26T12:38:52Z</time>
      </trkpt>
      <trkpt lat="41.761265" lon="2.528829">
        <ele>337.499</ele>
        <time>2021-05-26T12:38:54Z</time>
      </trkpt>
      <trkpt lat="41.761289" lon="2.528833">
        <ele>338.107</ele>
        <time>2021-05-26T12:38:56Z</time>
      </trkpt>
      <trkpt lat="41.761308" lon="2.528830">
        <ele>338.527</ele>
        <time>2021-05-26T12:38:58Z</time>
      </trkpt>
      <trkpt lat="41.761327" lon="2.528825">
        <ele>338.808</ele>
        <time>2021-05-26T12:39:00Z</time>
      </trkpt>
      <trkpt lat="41.761342" lon="2.528804">
        <ele>338.746</ele>
        <time>2021-05-26T12:39:02Z</time>
      </trkpt>
      <trkpt lat="41.761358" lon="2.528786">
        <ele>338.663</ele>
        <time>2021-05-26T12:39:04Z</time>
      </trkpt>
      <trkpt lat="41.761375" lon="2.528778">
        <ele>338.960</ele>
        <time>2021-05-26T12:39:06Z</time>
      </trkpt>
      <trkpt lat="41.761401" lon="2.528771">
        <ele>339.213</ele>
        <time>2021-05-26T12:39:09Z</time>
      </trkpt>
      <trkpt lat="41.761423" lon="2.528762">
        <ele>339.378</ele>
        <time>2021-05-26T12:39:11Z</time>
      </trkpt>
      <trkpt lat="41.761447" lon="2.528750">
        <ele>339.424</ele>
        <time>2021-05-26T12:39:14Z</time>
      </trkpt>
      <trkpt lat="41.761468" lon="2.528745">
        <ele>339.781</ele>
        <time>2021-05-26T12:39:16Z</time>
      </trkpt>
      <trkpt lat="41.761500" lon="2.528742">
        <ele>340.148</ele>
        <time>2021-05-26T12:39:18Z</time>
      </trkpt>
      <trkpt lat="41.761528" lon="2.528733">
        <ele>340.449</ele>
        <time>2021-05-26T12:39:20Z</time>
      </trkpt>
      <trkpt lat="41.761557" lon="2.528729">
        <ele>340.802</ele>
        <time>2021-05-26T12:39:22Z</time>
      </trkpt>
      <trkpt lat="41.761581" lon="2.528714">
        <ele>341.022</ele>
        <time>2021-05-26T12:39:25Z</time>
      </trkpt>
      <trkpt lat="41.761604" lon="2.528709">
        <ele>341.308</ele>
        <time>2021-05-26T12:39:27Z</time>
      </trkpt>
      <trkpt lat="41.761627" lon="2.528702">
        <ele>341.631</ele>
        <time>2021-05-26T12:39:29Z</time>
      </trkpt>
      <trkpt lat="41.761647" lon="2.528690">
        <ele>341.898</ele>
        <time>2021-05-26T12:39:31Z</time>
      </trkpt>
      <trkpt lat="41.761670" lon="2.528686">
        <ele>342.155</ele>
        <time>2021-05-26T12:39:33Z</time>
      </trkpt>
      <trkpt lat="41.761695" lon="2.528682">
        <ele>342.148</ele>
        <time>2021-05-26T12:39:35Z</time>
      </trkpt>
      <trkpt lat="41.761713" lon="2.528674">
        <ele>342.023</ele>
        <time>2021-05-26T12:39:37Z</time>
      </trkpt>
      <trkpt lat="41.761734" lon="2.528666">
        <ele>341.939</ele>
        <time>2021-05-26T12:39:39Z</time>
      </trkpt>
      <trkpt lat="41.761756" lon="2.528664">
        <ele>342.046</ele>
        <time>2021-05-26T12:39:41Z</time>
      </trkpt>
      <trkpt lat="41.761779" lon="2.528659">
        <ele>342.093</ele>
        <time>2021-05-26T12:39:43Z</time>
      </trkpt>
      <trkpt lat="41.761807" lon="2.528654">
        <ele>342.039</ele>
        <time>2021-05-26T12:39:46Z</time>
      </trkpt>
      <trkpt lat="41.761828" lon="2.528648">
        <ele>342.001</ele>
        <time>2021-05-26T12:39:48Z</time>
      </trkpt>
      <trkpt lat="41.761850" lon="2.528640">
        <ele>341.921</ele>
        <time>2021-05-26T12:39:51Z</time>
      </trkpt>
      <trkpt lat="41.761870" lon="2.528640">
        <ele>342.008</ele>
        <time>2021-05-26T12:39:53Z</time>
      </trkpt>
      <trkpt lat="41.761894" lon="2.528638">
        <ele>342.010</ele>
        <time>2021-05-26T12:39:57Z</time>
      </trkpt>
      <trkpt lat="41.761925" lon="2.528635">
        <ele>342.187</ele>
        <time>2021-05-26T12:39:59Z</time>
      </trkpt>
      <trkpt lat="41.761947" lon="2.528622">
        <ele>342.134</ele>
        <time>2021-05-26T12:40:01Z</time>
      </trkpt>
      <trkpt lat="41.761967" lon="2.528604">
        <ele>342.137</ele>
        <time>2021-05-26T12:40:03Z</time>
      </trkpt>
      <trkpt lat="41.761983" lon="2.528591">
        <ele>342.192</ele>
        <time>2021-05-26T12:40:05Z</time>
      </trkpt>
      <trkpt lat="41.762000" lon="2.528571">
        <ele>342.168</ele>
        <time>2021-05-26T12:40:07Z</time>
      </trkpt>
      <trkpt lat="41.762022" lon="2.528547">
        <ele>342.215</ele>
        <time>2021-05-26T12:40:09Z</time>
      </trkpt>
      <trkpt lat="41.762042" lon="2.528526">
        <ele>342.392</ele>
        <time>2021-05-26T12:40:11Z</time>
      </trkpt>
      <trkpt lat="41.762058" lon="2.528508">
        <ele>342.354</ele>
        <time>2021-05-26T12:40:13Z</time>
      </trkpt>
      <trkpt lat="41.762080" lon="2.528485">
        <ele>342.556</ele>
        <time>2021-05-26T12:40:15Z</time>
      </trkpt>
      <trkpt lat="41.762100" lon="2.528463">
        <ele>342.611</ele>
        <time>2021-05-26T12:40:17Z</time>
      </trkpt>
      <trkpt lat="41.762122" lon="2.528433">
        <ele>342.808</ele>
        <time>2021-05-26T12:40:19Z</time>
      </trkpt>
      <trkpt lat="41.762136" lon="2.528399">
        <ele>343.082</ele>
        <time>2021-05-26T12:40:21Z</time>
      </trkpt>
      <trkpt lat="41.762144" lon="2.528370">
        <ele>343.179</ele>
        <time>2021-05-26T12:40:23Z</time>
      </trkpt>
      <trkpt lat="41.762160" lon="2.528344">
        <ele>343.336</ele>
        <time>2021-05-26T12:40:25Z</time>
      </trkpt>
      <trkpt lat="41.762167" lon="2.528311">
        <ele>343.699</ele>
        <time>2021-05-26T12:40:27Z</time>
      </trkpt>
      <trkpt lat="41.762174" lon="2.528277">
        <ele>344.014</ele>
        <time>2021-05-26T12:40:29Z</time>
      </trkpt>
      <trkpt lat="41.762172" lon="2.528246">
        <ele>344.330</ele>
        <time>2021-05-26T12:40:31Z</time>
      </trkpt>
      <trkpt lat="41.762172" lon="2.528219">
        <ele>344.597</ele>
        <time>2021-05-26T12:40:33Z</time>
      </trkpt>
      <trkpt lat="41.762181" lon="2.528186">
        <ele>345.034</ele>
        <time>2021-05-26T12:40:36Z</time>
      </trkpt>
      <trkpt lat="41.762190" lon="2.528149">
        <ele>345.552</ele>
        <time>2021-05-26T12:40:39Z</time>
      </trkpt>
      <trkpt lat="41.762186" lon="2.528113">
        <ele>345.853</ele>
        <time>2021-05-26T12:40:41Z</time>
      </trkpt>
      <trkpt lat="41.762188" lon="2.528075">
        <ele>346.208</ele>
        <time>2021-05-26T12:40:43Z</time>
      </trkpt>
      <trkpt lat="41.762190" lon="2.528026">
        <ele>346.808</ele>
        <time>2021-05-26T12:40:45Z</time>
      </trkpt>
      <trkpt lat="41.762184" lon="2.527985">
        <ele>347.392</ele>
        <time>2021-05-26T12:40:47Z</time>
      </trkpt>
      <trkpt lat="41.762180" lon="2.527948">
        <ele>347.799</ele>
        <time>2021-05-26T12:40:49Z</time>
      </trkpt>
      <trkpt lat="41.762180" lon="2.527912">
        <ele>348.136</ele>
        <time>2021-05-26T12:40:51Z</time>
      </trkpt>
      <trkpt lat="41.762178" lon="2.527883">
        <ele>348.529</ele>
        <time>2021-05-26T12:40:53Z</time>
      </trkpt>
      <trkpt lat="41.762180" lon="2.527853">
        <ele>348.954</ele>
        <time>2021-05-26T12:40:55Z</time>
      </trkpt>
      <trkpt lat="41.762179" lon="2.527829">
        <ele>349.250</ele>
        <time>2021-05-26T12:40:57Z</time>
      </trkpt>
      <trkpt lat="41.762171" lon="2.527798">
        <ele>349.427</ele>
        <time>2021-05-26T12:40:59Z</time>
      </trkpt>
      <trkpt lat="41.762167" lon="2.527767">
        <ele>349.674</ele>
        <time>2021-05-26T12:41:01Z</time>
      </trkpt>
      <trkpt lat="41.762161" lon="2.527733">
        <ele>349.527</ele>
        <time>2021-05-26T12:41:03Z</time>
      </trkpt>
      <trkpt lat="41.762160" lon="2.527704">
        <ele>349.668</ele>
        <time>2021-05-26T12:41:05Z</time>
      </trkpt>
      <trkpt lat="41.762162" lon="2.527679">
        <ele>349.714</ele>
        <time>2021-05-26T12:41:07Z</time>
      </trkpt>
      <trkpt lat="41.762166" lon="2.527653">
        <ele>349.908</ele>
        <time>2021-05-26T12:41:10Z</time>
      </trkpt>
      <trkpt lat="41.762173" lon="2.527622">
        <ele>350.149</ele>
        <time>2021-05-26T12:41:14Z</time>
      </trkpt>
      <trkpt lat="41.762183" lon="2.527589">
        <ele>350.546</ele>
        <time>2021-05-26T12:41:16Z</time>
      </trkpt>
      <trkpt lat="41.762184" lon="2.527557">
        <ele>350.673</ele>
        <time>2021-05-26T12:41:18Z</time>
      </trkpt>
      <trkpt lat="41.762195" lon="2.527529">
        <ele>351.076</ele>
        <time>2021-05-26T12:41:20Z</time>
      </trkpt>
      <trkpt lat="41.762205" lon="2.527497">
        <ele>351.411</ele>
        <time>2021-05-26T12:41:23Z</time>
      </trkpt>
      <trkpt lat="41.762225" lon="2.527477">
        <ele>351.727</ele>
        <time>2021-05-26T12:41:27Z</time>
      </trkpt>
      <trkpt lat="41.762248" lon="2.527470">
        <ele>352.114</ele>
        <time>2021-05-26T12:41:28Z</time>
      </trkpt>
      <trkpt lat="41.762275" lon="2.527462">
        <ele>352.561</ele>
        <time>2021-05-26T12:41:32Z</time>
      </trkpt>
      <trkpt lat="41.762297" lon="2.527450">
        <ele>352.818</ele>
        <time>2021-05-26T12:41:33Z</time>
      </trkpt>
      <trkpt lat="41.762316" lon="2.527447">
        <ele>353.198</ele>
        <time>2021-05-26T12:41:35Z</time>
      </trkpt>
      <trkpt lat="41.762334" lon="2.527456">
        <ele>353.617</ele>
        <time>2021-05-26T12:41:38Z</time>
      </trkpt>
      <trkpt lat="41.762363" lon="2.527459">
        <ele>354.208</ele>
        <time>2021-05-26T12:41:40Z</time>
      </trkpt>
      <trkpt lat="41.762389" lon="2.527458">
        <ele>354.738</ele>
        <time>2021-05-26T12:41:43Z</time>
      </trkpt>
      <trkpt lat="41.762413" lon="2.527462">
        <ele>355.275</ele>
        <time>2021-05-26T12:41:46Z</time>
      </trkpt>
      <trkpt lat="41.762431" lon="2.527463">
        <ele>355.552</ele>
        <time>2021-05-26T12:41:48Z</time>
      </trkpt>
      <trkpt lat="41.762460" lon="2.527452">
        <ele>356.025</ele>
        <time>2021-05-26T12:41:51Z</time>
      </trkpt>
      <trkpt lat="41.762481" lon="2.527444">
        <ele>356.440</ele>
        <time>2021-05-26T12:41:53Z</time>
      </trkpt>
      <trkpt lat="41.762499" lon="2.527440">
        <ele>356.836</ele>
        <time>2021-05-26T12:41:55Z</time>
      </trkpt>
      <trkpt lat="41.762517" lon="2.527438">
        <ele>357.053</ele>
        <time>2021-05-26T12:41:57Z</time>
      </trkpt>
      <trkpt lat="41.762543" lon="2.527438">
        <ele>357.250</ele>
        <time>2021-05-26T12:42:00Z</time>
      </trkpt>
      <trkpt lat="41.762567" lon="2.527429">
        <ele>357.522</ele>
        <time>2021-05-26T12:42:03Z</time>
      </trkpt>
      <trkpt lat="41.762589" lon="2.527425">
        <ele>357.762</ele>
        <time>2021-05-26T12:42:06Z</time>
      </trkpt>
      <trkpt lat="41.762610" lon="2.527419">
        <ele>358.008</ele>
        <time>2021-05-26T12:42:08Z</time>
      </trkpt>
      <trkpt lat="41.762628" lon="2.527404">
        <ele>358.208</ele>
        <time>2021-05-26T12:42:11Z</time>
      </trkpt>
      <trkpt lat="41.762645" lon="2.527389">
        <ele>358.579</ele>
        <time>2021-05-26T12:42:14Z</time>
      </trkpt>
      <trkpt lat="41.762662" lon="2.527380">
        <ele>358.776</ele>
        <time>2021-05-26T12:42:16Z</time>
      </trkpt>
      <trkpt lat="41.762689" lon="2.527376">
        <ele>359.193</ele>
        <time>2021-05-26T12:42:19Z</time>
      </trkpt>
      <trkpt lat="41.762707" lon="2.527377">
        <ele>359.456</ele>
        <time>2021-05-26T12:42:21Z</time>
      </trkpt>
      <trkpt lat="41.762734" lon="2.527380">
        <ele>359.741</ele>
        <time>2021-05-26T12:42:24Z</time>
      </trkpt>
      <trkpt lat="41.762753" lon="2.527378">
        <ele>360.087</ele>
        <time>2021-05-26T12:42:26Z</time>
      </trkpt>
      <trkpt lat="41.762771" lon="2.527371">
        <ele>360.314</ele>
        <time>2021-05-26T12:42:28Z</time>
      </trkpt>
      <trkpt lat="41.762791" lon="2.527368">
        <ele>360.641</ele>
        <time>2021-05-26T12:42:30Z</time>
      </trkpt>
      <trkpt lat="41.762811" lon="2.527360">
        <ele>360.953</ele>
        <time>2021-05-26T12:42:32Z</time>
      </trkpt>
      <trkpt lat="41.762831" lon="2.527358">
        <ele>361.204</ele>
        <time>2021-05-26T12:42:34Z</time>
      </trkpt>
      <trkpt lat="41.762852" lon="2.527348">
        <ele>361.614</ele>
        <time>2021-05-26T12:42:36Z</time>
      </trkpt>
      <trkpt lat="41.762868" lon="2.527329">
        <ele>362.208</ele>
        <time>2021-05-26T12:42:38Z</time>
      </trkpt>
      <trkpt lat="41.762884" lon="2.527309">
        <ele>362.852</ele>
        <time>2021-05-26T12:42:40Z</time>
      </trkpt>
      <trkpt lat="41.762900" lon="2.527298">
        <ele>363.269</ele>
        <time>2021-05-26T12:42:42Z</time>
      </trkpt>
      <trkpt lat="41.762914" lon="2.527282">
        <ele>363.866</ele>
        <time>2021-05-26T12:42:44Z</time>
      </trkpt>
      <trkpt lat="41.762920" lon="2.527252">
        <ele>364.579</ele>
        <time>2021-05-26T12:42:47Z</time>
      </trkpt>
      <trkpt lat="41.762917" lon="2.527228">
        <ele>364.964</ele>
        <time>2021-05-26T12:42:49Z</time>
      </trkpt>
      <trkpt lat="41.762914" lon="2.527199">
        <ele>365.170</ele>
        <time>2021-05-26T12:42:52Z</time>
      </trkpt>
      <trkpt lat="41.762904" lon="2.527170">
        <ele>365.067</ele>
        <time>2021-05-26T12:42:56Z</time>
      </trkpt>
      <trkpt lat="41.762897" lon="2.527145">
        <ele>364.984</ele>
        <time>2021-05-26T12:42:57Z</time>
      </trkpt>
      <trkpt lat="41.762900" lon="2.527110">
        <ele>365.216</ele>
        <time>2021-05-26T12:43:00Z</time>
      </trkpt>
      <trkpt lat="41.762911" lon="2.527078">
        <ele>365.676</ele>
        <time>2021-05-26T12:43:03Z</time>
      </trkpt>
      <trkpt lat="41.762916" lon="2.527044">
        <ele>365.913</ele>
        <time>2021-05-26T12:43:06Z</time>
      </trkpt>
      <trkpt lat="41.762925" lon="2.527013">
        <ele>366.408</ele>
        <time>2021-05-26T12:43:09Z</time>
      </trkpt>
      <trkpt lat="41.762936" lon="2.526985">
        <ele>366.968</ele>
        <time>2021-05-26T12:43:12Z</time>
      </trkpt>
      <trkpt lat="41.762942" lon="2.526956">
        <ele>367.245</ele>
        <time>2021-05-26T12:43:15Z</time>
      </trkpt>
      <trkpt lat="41.762955" lon="2.526932">
        <ele>367.662</ele>
        <time>2021-05-26T12:43:18Z</time>
      </trkpt>
      <trkpt lat="41.762969" lon="2.526914">
        <ele>367.915</ele>
        <time>2021-05-26T12:43:21Z</time>
      </trkpt>
      <trkpt lat="41.762987" lon="2.526897">
        <ele>368.420</ele>
        <time>2021-05-26T12:43:24Z</time>
      </trkpt>
      <trkpt lat="41.763000" lon="2.526878">
        <ele>368.716</ele>
        <time>2021-05-26T12:43:26Z</time>
      </trkpt>
      <trkpt lat="41.763026" lon="2.526863">
        <ele>369.483</ele>
        <time>2021-05-26T12:43:28Z</time>
      </trkpt>
      <trkpt lat="41.763051" lon="2.526845">
        <ele>370.140</ele>
        <time>2021-05-26T12:43:30Z</time>
      </trkpt>
      <trkpt lat="41.763058" lon="2.526812">
        <ele>370.138</ele>
        <time>2021-05-26T12:43:33Z</time>
      </trkpt>
      <trkpt lat="41.763066" lon="2.526785">
        <ele>370.170</ele>
        <time>2021-05-26T12:43:36Z</time>
      </trkpt>
      <trkpt lat="41.763078" lon="2.526761">
        <ele>370.317</ele>
        <time>2021-05-26T12:43:39Z</time>
      </trkpt>
      <trkpt lat="41.763093" lon="2.526736">
        <ele>370.508</ele>
        <time>2021-05-26T12:43:42Z</time>
      </trkpt>
      <trkpt lat="41.763113" lon="2.526719">
        <ele>371.080</ele>
        <time>2021-05-26T12:43:44Z</time>
      </trkpt>
      <trkpt lat="41.763125" lon="2.526703">
        <ele>371.297</ele>
        <time>2021-05-26T12:43:46Z</time>
      </trkpt>
      <trkpt lat="41.763144" lon="2.526683">
        <ele>371.694</ele>
        <time>2021-05-26T12:43:49Z</time>
      </trkpt>
      <trkpt lat="41.763162" lon="2.526665">
        <ele>372.127</ele>
        <time>2021-05-26T12:43:52Z</time>
      </trkpt>
      <trkpt lat="41.763181" lon="2.526648">
        <ele>372.422</ele>
        <time>2021-05-26T12:43:55Z</time>
      </trkpt>
      <trkpt lat="41.763199" lon="2.526633">
        <ele>372.868</ele>
        <time>2021-05-26T12:43:57Z</time>
      </trkpt>
      <trkpt lat="41.763213" lon="2.526619">
        <ele>373.165</ele>
        <time>2021-05-26T12:43:59Z</time>
      </trkpt>
      <trkpt lat="41.763223" lon="2.526589">
        <ele>373.272</ele>
        <time>2021-05-26T12:44:02Z</time>
      </trkpt>
      <trkpt lat="41.763244" lon="2.526562">
        <ele>373.677</ele>
        <time>2021-05-26T12:44:05Z</time>
      </trkpt>
      <trkpt lat="41.763262" lon="2.526539">
        <ele>373.961</ele>
        <time>2021-05-26T12:44:08Z</time>
      </trkpt>
      <trkpt lat="41.763273" lon="2.526518">
        <ele>374.127</ele>
        <time>2021-05-26T12:44:10Z</time>
      </trkpt>
      <trkpt lat="41.763282" lon="2.526493">
        <ele>374.208</ele>
        <time>2021-05-26T12:44:12Z</time>
      </trkpt>
      <trkpt lat="41.763288" lon="2.526465">
        <ele>374.154</ele>
        <time>2021-05-26T12:44:14Z</time>
      </trkpt>
      <trkpt lat="41.763299" lon="2.526440">
        <ele>374.381</ele>
        <time>2021-05-26T12:44:16Z</time>
      </trkpt>
      <trkpt lat="41.763308" lon="2.526417">
        <ele>374.478</ele>
        <time>2021-05-26T12:44:18Z</time>
      </trkpt>
      <trkpt lat="41.763321" lon="2.526393">
        <ele>374.621</ele>
        <time>2021-05-26T12:44:20Z</time>
      </trkpt>
      <trkpt lat="41.763333" lon="2.526374">
        <ele>375.136</ele>
        <time>2021-05-26T12:44:22Z</time>
      </trkpt>
      <trkpt lat="41.763345" lon="2.526355">
        <ele>375.682</ele>
        <time>2021-05-26T12:44:24Z</time>
      </trkpt>
      <trkpt lat="41.763353" lon="2.526333">
        <ele>375.929</ele>
        <time>2021-05-26T12:44:26Z</time>
      </trkpt>
      <trkpt lat="41.763370" lon="2.526304">
        <ele>376.636</ele>
        <time>2021-05-26T12:44:29Z</time>
      </trkpt>
      <trkpt lat="41.763385" lon="2.526286">
        <ele>377.111</ele>
        <time>2021-05-26T12:44:31Z</time>
      </trkpt>
      <trkpt lat="41.763398" lon="2.526265">
        <ele>377.521</ele>
        <time>2021-05-26T12:44:33Z</time>
      </trkpt>
      <trkpt lat="41.763407" lon="2.526236">
        <ele>377.903</ele>
        <time>2021-05-26T12:44:35Z</time>
      </trkpt>
      <trkpt lat="41.763418" lon="2.526217">
        <ele>378.308</ele>
        <time>2021-05-26T12:44:37Z</time>
      </trkpt>
      <trkpt lat="41.763429" lon="2.526197">
        <ele>378.788</ele>
        <time>2021-05-26T12:44:39Z</time>
      </trkpt>
      <trkpt lat="41.763450" lon="2.526178">
        <ele>379.255</ele>
        <time>2021-05-26T12:44:42Z</time>
      </trkpt>
      <trkpt lat="41.763465" lon="2.526154">
        <ele>379.762</ele>
        <time>2021-05-26T12:44:45Z</time>
      </trkpt>
      <trkpt lat="41.763493" lon="2.526145">
        <ele>380.325</ele>
        <time>2021-05-26T12:44:48Z</time>
      </trkpt>
      <trkpt lat="41.763512" lon="2.526137">
        <ele>380.880</ele>
        <time>2021-05-26T12:44:50Z</time>
      </trkpt>
      <trkpt lat="41.763527" lon="2.526119">
        <ele>381.226</ele>
        <time>2021-05-26T12:44:52Z</time>
      </trkpt>
      <trkpt lat="41.763539" lon="2.526099">
        <ele>381.683</ele>
        <time>2021-05-26T12:44:54Z</time>
      </trkpt>
      <trkpt lat="41.763553" lon="2.526081">
        <ele>382.050</ele>
        <time>2021-05-26T12:44:56Z</time>
      </trkpt>
      <trkpt lat="41.763564" lon="2.526059">
        <ele>382.534</ele>
        <time>2021-05-26T12:44:58Z</time>
      </trkpt>
      <trkpt lat="41.763574" lon="2.526036">
        <ele>382.955</ele>
        <time>2021-05-26T12:45:00Z</time>
      </trkpt>
      <trkpt lat="41.763585" lon="2.526011">
        <ele>383.410</ele>
        <time>2021-05-26T12:45:02Z</time>
      </trkpt>
      <trkpt lat="41.763599" lon="2.525990">
        <ele>384.008</ele>
        <time>2021-05-26T12:45:04Z</time>
      </trkpt>
      <trkpt lat="41.763616" lon="2.525972">
        <ele>384.430</ele>
        <time>2021-05-26T12:45:06Z</time>
      </trkpt>
      <trkpt lat="41.763626" lon="2.525952">
        <ele>384.517</ele>
        <time>2021-05-26T12:45:08Z</time>
      </trkpt>
      <trkpt lat="41.763639" lon="2.525919">
        <ele>384.614</ele>
        <time>2021-05-26T12:45:11Z</time>
      </trkpt>
      <trkpt lat="41.763645" lon="2.525893">
        <ele>384.837</ele>
        <time>2021-05-26T12:45:13Z</time>
      </trkpt>
      <trkpt lat="41.763650" lon="2.525865">
        <ele>385.142</ele>
        <time>2021-05-26T12:45:15Z</time>
      </trkpt>
      <trkpt lat="41.763644" lon="2.525835">
        <ele>385.598</ele>
        <time>2021-05-26T12:45:17Z</time>
      </trkpt>
      <trkpt lat="41.763650" lon="2.525807">
        <ele>385.735</ele>
        <time>2021-05-26T12:45:19Z</time>
      </trkpt>
      <trkpt lat="41.763659" lon="2.525777">
        <ele>385.942</ele>
        <time>2021-05-26T12:45:21Z</time>
      </trkpt>
      <trkpt lat="41.763671" lon="2.525753">
        <ele>386.071</ele>
        <time>2021-05-26T12:45:23Z</time>
      </trkpt>
      <trkpt lat="41.763677" lon="2.525719">
        <ele>386.341</ele>
        <time>2021-05-26T12:45:25Z</time>
      </trkpt>
      <trkpt lat="41.763686" lon="2.525685">
        <ele>386.615</ele>
        <time>2021-05-26T12:45:28Z</time>
      </trkpt>
      <trkpt lat="41.763700" lon="2.525652">
        <ele>386.908</ele>
        <time>2021-05-26T12:45:29Z</time>
      </trkpt>
      <trkpt lat="41.763713" lon="2.525622">
        <ele>387.284</ele>
        <time>2021-05-26T12:45:31Z</time>
      </trkpt>
      <trkpt lat="41.763729" lon="2.525594">
        <ele>387.551</ele>
        <time>2021-05-26T12:45:33Z</time>
      </trkpt>
      <trkpt lat="41.763744" lon="2.525560">
        <ele>387.928</ele>
        <time>2021-05-26T12:45:35Z</time>
      </trkpt>
      <trkpt lat="41.763759" lon="2.525530">
        <ele>388.661</ele>
        <time>2021-05-26T12:45:37Z</time>
      </trkpt>
      <trkpt lat="41.763779" lon="2.525504">
        <ele>389.316</ele>
        <time>2021-05-26T12:45:39Z</time>
      </trkpt>
      <trkpt lat="41.763800" lon="2.525475">
        <ele>390.042</ele>
        <time>2021-05-26T12:45:41Z</time>
      </trkpt>
      <trkpt lat="41.763820" lon="2.525449">
        <ele>390.859</ele>
        <time>2021-05-26T12:45:43Z</time>
      </trkpt>
      <trkpt lat="41.763842" lon="2.525424">
        <ele>391.556</ele>
        <time>2021-05-26T12:45:45Z</time>
      </trkpt>
      <trkpt lat="41.763865" lon="2.525399">
        <ele>392.481</ele>
        <time>2021-05-26T12:45:47Z</time>
      </trkpt>
      <trkpt lat="41.763889" lon="2.525379">
        <ele>393.161</ele>
        <time>2021-05-26T12:45:49Z</time>
      </trkpt>
      <trkpt lat="41.763905" lon="2.525369">
        <ele>393.117</ele>
        <time>2021-05-26T12:45:50Z</time>
      </trkpt>
      <trkpt lat="41.763922" lon="2.525358">
        <ele>393.108</ele>
        <time>2021-05-26T12:45:51Z</time>
      </trkpt>
      <trkpt lat="41.763947" lon="2.525338">
        <ele>393.295</ele>
        <time>2021-05-26T12:45:53Z</time>
      </trkpt>
      <trkpt lat="41.763973" lon="2.525322">
        <ele>393.392</ele>
        <time>2021-05-26T12:45:55Z</time>
      </trkpt>
      <trkpt lat="41.763996" lon="2.525311">
        <ele>393.389</ele>
        <time>2021-05-26T12:45:57Z</time>
      </trkpt>
      <trkpt lat="41.764027" lon="2.525300">
        <ele>393.252</ele>
        <time>2021-05-26T12:45:59Z</time>
      </trkpt>
      <trkpt lat="41.764056" lon="2.525291">
        <ele>393.117</ele>
        <time>2021-05-26T12:46:01Z</time>
      </trkpt>
      <trkpt lat="41.764090" lon="2.525276">
        <ele>393.213</ele>
        <time>2021-05-26T12:46:03Z</time>
      </trkpt>
      <trkpt lat="41.764113" lon="2.525259">
        <ele>393.720</ele>
        <time>2021-05-26T12:46:05Z</time>
      </trkpt>
      <trkpt lat="41.764139" lon="2.525243">
        <ele>394.147</ele>
        <time>2021-05-26T12:46:07Z</time>
      </trkpt>
      <trkpt lat="41.764166" lon="2.525232">
        <ele>394.311</ele>
        <time>2021-05-26T12:46:09Z</time>
      </trkpt>
      <trkpt lat="41.764196" lon="2.525227">
        <ele>394.321</ele>
        <time>2021-05-26T12:46:11Z</time>
      </trkpt>
      <trkpt lat="41.764222" lon="2.525216">
        <ele>394.703</ele>
        <time>2021-05-26T12:46:13Z</time>
      </trkpt>
      <trkpt lat="41.764245" lon="2.525213">
        <ele>394.708</ele>
        <time>2021-05-26T12:46:15Z</time>
      </trkpt>
      <trkpt lat="41.764269" lon="2.525214">
        <ele>394.578</ele>
        <time>2021-05-26T12:46:17Z</time>
      </trkpt>
      <trkpt lat="41.764294" lon="2.525216">
        <ele>394.275</ele>
        <time>2021-05-26T12:46:19Z</time>
      </trkpt>
      <trkpt lat="41.764323" lon="2.525223">
        <ele>393.642</ele>
        <time>2021-05-26T12:46:21Z</time>
      </trkpt>
      <trkpt lat="41.764351" lon="2.525229">
        <ele>393.175</ele>
        <time>2021-05-26T12:46:23Z</time>
      </trkpt>
      <trkpt lat="41.764378" lon="2.525234">
        <ele>392.780</ele>
        <time>2021-05-26T12:46:25Z</time>
      </trkpt>
      <trkpt lat="41.764405" lon="2.525240">
        <ele>392.226</ele>
        <time>2021-05-26T12:46:27Z</time>
      </trkpt>
      <trkpt lat="41.764433" lon="2.525251">
        <ele>391.433</ele>
        <time>2021-05-26T12:46:29Z</time>
      </trkpt>
      <trkpt lat="41.764462" lon="2.525263">
        <ele>390.960</ele>
        <time>2021-05-26T12:46:31Z</time>
      </trkpt>
      <trkpt lat="41.764492" lon="2.525273">
        <ele>390.633</ele>
        <time>2021-05-26T12:46:33Z</time>
      </trkpt>
      <trkpt lat="41.764520" lon="2.525281">
        <ele>390.423</ele>
        <time>2021-05-26T12:46:35Z</time>
      </trkpt>
      <trkpt lat="41.764546" lon="2.525288">
        <ele>390.415</ele>
        <time>2021-05-26T12:46:37Z</time>
      </trkpt>
      <trkpt lat="41.764573" lon="2.525300">
        <ele>390.108</ele>
        <time>2021-05-26T12:46:39Z</time>
      </trkpt>
      <trkpt lat="41.764601" lon="2.525311">
        <ele>389.980</ele>
        <time>2021-05-26T12:46:41Z</time>
      </trkpt>
      <trkpt lat="41.764628" lon="2.525321">
        <ele>389.837</ele>
        <time>2021-05-26T12:46:43Z</time>
      </trkpt>
      <trkpt lat="41.764655" lon="2.525333">
        <ele>389.594</ele>
        <time>2021-05-26T12:46:45Z</time>
      </trkpt>
      <trkpt lat="41.764682" lon="2.525341">
        <ele>389.497</ele>
        <time>2021-05-26T12:46:47Z</time>
      </trkpt>
      <trkpt lat="41.764708" lon="2.525350">
        <ele>389.332</ele>
        <time>2021-05-26T12:46:49Z</time>
      </trkpt>
      <trkpt lat="41.764735" lon="2.525360">
        <ele>389.058</ele>
        <time>2021-05-26T12:46:51Z</time>
      </trkpt>
      <trkpt lat="41.764760" lon="2.525371">
        <ele>388.665</ele>
        <time>2021-05-26T12:46:53Z</time>
      </trkpt>
      <trkpt lat="41.764786" lon="2.525378">
        <ele>388.292</ele>
        <time>2021-05-26T12:46:55Z</time>
      </trkpt>
      <trkpt lat="41.764814" lon="2.525388">
        <ele>387.829</ele>
        <time>2021-05-26T12:46:57Z</time>
      </trkpt>
      <trkpt lat="41.764841" lon="2.525399">
        <ele>387.300</ele>
        <time>2021-05-26T12:46:59Z</time>
      </trkpt>
      <trkpt lat="41.764868" lon="2.525410">
        <ele>386.720</ele>
        <time>2021-05-26T12:47:01Z</time>
      </trkpt>
      <trkpt lat="41.764897" lon="2.525425">
        <ele>386.008</ele>
        <time>2021-05-26T12:47:03Z</time>
      </trkpt>
      <trkpt lat="41.764932" lon="2.525439">
        <ele>385.369</ele>
        <time>2021-05-26T12:47:05Z</time>
      </trkpt>
      <trkpt lat="41.764951" lon="2.525440">
        <ele>385.296</ele>
        <time>2021-05-26T12:47:06Z</time>
      </trkpt>
      <trkpt lat="41.764972" lon="2.525446">
        <ele>384.983</ele>
        <time>2021-05-26T12:47:07Z</time>
      </trkpt>
      <trkpt lat="41.764992" lon="2.525451">
        <ele>384.646</ele>
        <time>2021-05-26T12:47:08Z</time>
      </trkpt>
      <trkpt lat="41.765015" lon="2.525458">
        <ele>384.051</ele>
        <time>2021-05-26T12:47:09Z</time>
      </trkpt>
      <trkpt lat="41.765040" lon="2.525463">
        <ele>383.467</ele>
        <time>2021-05-26T12:47:10Z</time>
      </trkpt>
      <trkpt lat="41.765062" lon="2.525468">
        <ele>382.934</ele>
        <time>2021-05-26T12:47:11Z</time>
      </trkpt>
      <trkpt lat="41.765085" lon="2.525473">
        <ele>382.331</ele>
        <time>2021-05-26T12:47:12Z</time>
      </trkpt>
      <trkpt lat="41.765132" lon="2.525484">
        <ele>381.173</ele>
        <time>2021-05-26T12:47:14Z</time>
      </trkpt>
      <trkpt lat="41.765159" lon="2.525486">
        <ele>380.685</ele>
        <time>2021-05-26T12:47:15Z</time>
      </trkpt>
      <trkpt lat="41.765185" lon="2.525482">
        <ele>380.413</ele>
        <time>2021-05-26T12:47:16Z</time>
      </trkpt>
      <trkpt lat="41.765205" lon="2.525471">
        <ele>380.608</ele>
        <time>2021-05-26T12:47:17Z</time>
      </trkpt>
      <trkpt lat="41.765222" lon="2.525459">
        <ele>381.034</ele>
        <time>2021-05-26T12:47:18Z</time>
      </trkpt>
      <trkpt lat="41.765251" lon="2.525439">
        <ele>381.771</ele>
        <time>2021-05-26T12:47:20Z</time>
      </trkpt>
      <trkpt lat="41.765276" lon="2.525414">
        <ele>382.738</ele>
        <time>2021-05-26T12:47:22Z</time>
      </trkpt>
      <trkpt lat="41.765304" lon="2.525382">
        <ele>383.871</ele>
        <time>2021-05-26T12:47:24Z</time>
      </trkpt>
      <trkpt lat="41.765322" lon="2.525363">
        <ele>384.486</ele>
        <time>2021-05-26T12:47:25Z</time>
      </trkpt>
      <trkpt lat="41.765343" lon="2.525347">
        <ele>384.882</ele>
        <time>2021-05-26T12:47:26Z</time>
      </trkpt>
      <trkpt lat="41.765364" lon="2.525326">
        <ele>385.599</ele>
        <time>2021-05-26T12:47:27Z</time>
      </trkpt>
      <trkpt lat="41.765382" lon="2.525305">
        <ele>386.286</ele>
        <time>2021-05-26T12:47:28Z</time>
      </trkpt>
      <trkpt lat="41.765399" lon="2.525287">
        <ele>386.959</ele>
        <time>2021-05-26T12:47:29Z</time>
      </trkpt>
      <trkpt lat="41.765415" lon="2.525272">
        <ele>387.403</ele>
        <time>2021-05-26T12:47:30Z</time>
      </trkpt>
      <trkpt lat="41.765438" lon="2.525253">
        <ele>388.023</ele>
        <time>2021-05-26T12:47:31Z</time>
      </trkpt>
      <trkpt lat="41.765461" lon="2.525236">
        <ele>388.408</ele>
        <time>2021-05-26T12:47:32Z</time>
      </trkpt>
      <trkpt lat="41.765481" lon="2.525220">
        <ele>388.892</ele>
        <time>2021-05-26T12:47:33Z</time>
      </trkpt>
      <trkpt lat="41.765499" lon="2.525204">
        <ele>389.359</ele>
        <time>2021-05-26T12:47:34Z</time>
      </trkpt>
      <trkpt lat="41.765519" lon="2.525190">
        <ele>389.626</ele>
        <time>2021-05-26T12:47:35Z</time>
      </trkpt>
      <trkpt lat="41.765540" lon="2.525177">
        <ele>389.839</ele>
        <time>2021-05-26T12:47:36Z</time>
      </trkpt>
      <trkpt lat="41.765563" lon="2.525165">
        <ele>389.574</ele>
        <time>2021-05-26T12:47:37Z</time>
      </trkpt>
      <trkpt lat="41.765633" lon="2.525135">
        <ele>385.430</ele>
        <time>2021-05-26T12:47:40Z</time>
      </trkpt>
      <trkpt lat="41.765689" lon="2.525128">
        <ele>381.347</ele>
        <time>2021-05-26T12:47:42Z</time>
      </trkpt>
      <trkpt lat="41.765716" lon="2.525119">
        <ele>379.584</ele>
        <time>2021-05-26T12:47:43Z</time>
      </trkpt>
      <trkpt lat="41.765741" lon="2.525111">
        <ele>377.959</ele>
        <time>2021-05-26T12:47:44Z</time>
      </trkpt>
      <trkpt lat="41.765797" lon="2.525074">
        <ele>375.203</ele>
        <time>2021-05-26T12:47:46Z</time>
      </trkpt>
      <trkpt lat="41.765820" lon="2.525049">
        <ele>374.623</ele>
        <time>2021-05-26T12:47:47Z</time>
      </trkpt>
      <trkpt lat="41.765836" lon="2.525022">
        <ele>374.708</ele>
        <time>2021-05-26T12:47:48Z</time>
      </trkpt>
      <trkpt lat="41.765852" lon="2.524996">
        <ele>374.792</ele>
        <time>2021-05-26T12:47:49Z</time>
      </trkpt>
      <trkpt lat="41.765867" lon="2.524972">
        <ele>374.619</ele>
        <time>2021-05-26T12:47:50Z</time>
      </trkpt>
      <trkpt lat="41.765877" lon="2.524942">
        <ele>375.086</ele>
        <time>2021-05-26T12:47:51Z</time>
      </trkpt>
      <trkpt lat="41.765882" lon="2.524918">
        <ele>375.539</ele>
        <time>2021-05-26T12:47:52Z</time>
      </trkpt>
      <trkpt lat="41.765894" lon="2.524858">
        <ele>376.934</ele>
        <time>2021-05-26T12:47:55Z</time>
      </trkpt>
      <trkpt lat="41.765919" lon="2.524819">
        <ele>376.590</ele>
        <time>2021-05-26T12:47:57Z</time>
      </trkpt>
      <trkpt lat="41.765933" lon="2.524784">
        <ele>376.797</ele>
        <time>2021-05-26T12:48:00Z</time>
      </trkpt>
      <trkpt lat="41.765957" lon="2.524704">
        <ele>377.924</ele>
        <time>2021-05-26T12:48:03Z</time>
      </trkpt>
      <trkpt lat="41.765969" lon="2.524667">
        <ele>378.413</ele>
        <time>2021-05-26T12:48:05Z</time>
      </trkpt>
      <trkpt lat="41.765982" lon="2.524630">
        <ele>378.943</ele>
        <time>2021-05-26T12:48:07Z</time>
      </trkpt>
      <trkpt lat="41.765989" lon="2.524593">
        <ele>379.807</ele>
        <time>2021-05-26T12:48:09Z</time>
      </trkpt>
      <trkpt lat="41.765998" lon="2.524560">
        <ele>380.508</ele>
        <time>2021-05-26T12:48:11Z</time>
      </trkpt>
      <trkpt lat="41.766010" lon="2.524527">
        <ele>380.998</ele>
        <time>2021-05-26T12:48:13Z</time>
      </trkpt>
      <trkpt lat="41.766023" lon="2.524497">
        <ele>381.225</ele>
        <time>2021-05-26T12:48:15Z</time>
      </trkpt>
      <trkpt lat="41.766032" lon="2.524464">
        <ele>381.962</ele>
        <time>2021-05-26T12:48:17Z</time>
      </trkpt>
      <trkpt lat="41.766042" lon="2.524431">
        <ele>382.265</ele>
        <time>2021-05-26T12:48:19Z</time>
      </trkpt>
      <trkpt lat="41.766053" lon="2.524400">
        <ele>381.960</ele>
        <time>2021-05-26T12:48:21Z</time>
      </trkpt>
      <trkpt lat="41.766062" lon="2.524369">
        <ele>381.876</ele>
        <time>2021-05-26T12:48:23Z</time>
      </trkpt>
      <trkpt lat="41.766073" lon="2.524341">
        <ele>381.563</ele>
        <time>2021-05-26T12:48:25Z</time>
      </trkpt>
      <trkpt lat="41.766086" lon="2.524311">
        <ele>381.170</ele>
        <time>2021-05-26T12:48:27Z</time>
      </trkpt>
      <trkpt lat="41.766097" lon="2.524283">
        <ele>380.983</ele>
        <time>2021-05-26T12:48:29Z</time>
      </trkpt>
      <trkpt lat="41.766109" lon="2.524256">
        <ele>380.525</ele>
        <time>2021-05-26T12:48:31Z</time>
      </trkpt>
      <trkpt lat="41.766124" lon="2.524228">
        <ele>380.117</ele>
        <time>2021-05-26T12:48:33Z</time>
      </trkpt>
      <trkpt lat="41.766139" lon="2.524197">
        <ele>379.608</ele>
        <time>2021-05-26T12:48:35Z</time>
      </trkpt>
      <trkpt lat="41.766161" lon="2.524168">
        <ele>378.735</ele>
        <time>2021-05-26T12:48:37Z</time>
      </trkpt>
      <trkpt lat="41.766185" lon="2.524137">
        <ele>377.732</ele>
        <time>2021-05-26T12:48:39Z</time>
      </trkpt>
      <trkpt lat="41.766200" lon="2.524104">
        <ele>377.419</ele>
        <time>2021-05-26T12:48:41Z</time>
      </trkpt>
      <trkpt lat="41.766202" lon="2.524068">
        <ele>377.982</ele>
        <time>2021-05-26T12:48:43Z</time>
      </trkpt>
      <trkpt lat="41.766211" lon="2.524039">
        <ele>377.887</ele>
        <time>2021-05-26T12:48:45Z</time>
      </trkpt>
      <trkpt lat="41.766221" lon="2.524005">
        <ele>377.843</ele>
        <time>2021-05-26T12:48:47Z</time>
      </trkpt>
      <trkpt lat="41.766229" lon="2.523968">
        <ele>377.920</ele>
        <time>2021-05-26T12:48:49Z</time>
      </trkpt>
      <trkpt lat="41.766236" lon="2.523934">
        <ele>378.197</ele>
        <time>2021-05-26T12:48:51Z</time>
      </trkpt>
      <trkpt lat="41.766248" lon="2.523905">
        <ele>377.865</ele>
        <time>2021-05-26T12:48:53Z</time>
      </trkpt>
      <trkpt lat="41.766263" lon="2.523838">
        <ele>377.968</ele>
        <time>2021-05-26T12:48:57Z</time>
      </trkpt>
      <trkpt lat="41.766274" lon="2.523795">
        <ele>377.814</ele>
        <time>2021-05-26T12:48:58Z</time>
      </trkpt>
      <trkpt lat="41.766284" lon="2.523757">
        <ele>377.708</ele>
        <time>2021-05-26T12:49:00Z</time>
      </trkpt>
      <trkpt lat="41.766299" lon="2.523731">
        <ele>377.173</ele>
        <time>2021-05-26T12:49:02Z</time>
      </trkpt>
      <trkpt lat="41.766316" lon="2.523705">
        <ele>376.450</ele>
        <time>2021-05-26T12:49:04Z</time>
      </trkpt>
      <trkpt lat="41.766338" lon="2.523677">
        <ele>375.337</ele>
        <time>2021-05-26T12:49:06Z</time>
      </trkpt>
      <trkpt lat="41.766354" lon="2.523642">
        <ele>374.840</ele>
        <time>2021-05-26T12:49:08Z</time>
      </trkpt>
      <trkpt lat="41.766366" lon="2.523606">
        <ele>374.695</ele>
        <time>2021-05-26T12:49:10Z</time>
      </trkpt>
      <trkpt lat="41.766383" lon="2.523577">
        <ele>374.061</ele>
        <time>2021-05-26T12:49:12Z</time>
      </trkpt>
      <trkpt lat="41.766393" lon="2.523546">
        <ele>373.988</ele>
        <time>2021-05-26T12:49:14Z</time>
      </trkpt>
      <trkpt lat="41.766398" lon="2.523513">
        <ele>374.335</ele>
        <time>2021-05-26T12:49:16Z</time>
      </trkpt>
      <trkpt lat="41.766397" lon="2.523479">
        <ele>374.924</ele>
        <time>2021-05-26T12:49:18Z</time>
      </trkpt>
      <trkpt lat="41.766399" lon="2.523445">
        <ele>375.504</ele>
        <time>2021-05-26T12:49:20Z</time>
      </trkpt>
      <trkpt lat="41.766402" lon="2.523417">
        <ele>375.814</ele>
        <time>2021-05-26T12:49:22Z</time>
      </trkpt>
      <trkpt lat="41.766399" lon="2.523389">
        <ele>376.508</ele>
        <time>2021-05-26T12:49:24Z</time>
      </trkpt>
      <trkpt lat="41.766401" lon="2.523364">
        <ele>376.849</ele>
        <time>2021-05-26T12:49:26Z</time>
      </trkpt>
      <trkpt lat="41.766403" lon="2.523338">
        <ele>377.296</ele>
        <time>2021-05-26T12:49:28Z</time>
      </trkpt>
      <trkpt lat="41.766406" lon="2.523309">
        <ele>377.763</ele>
        <time>2021-05-26T12:49:30Z</time>
      </trkpt>
      <trkpt lat="41.766411" lon="2.523275">
        <ele>378.236</ele>
        <time>2021-05-26T12:49:32Z</time>
      </trkpt>
      <trkpt lat="41.766420" lon="2.523235">
        <ele>378.791</ele>
        <time>2021-05-26T12:49:34Z</time>
      </trkpt>
      <trkpt lat="41.766428" lon="2.523196">
        <ele>379.217</ele>
        <time>2021-05-26T12:49:36Z</time>
      </trkpt>
      <trkpt lat="41.766437" lon="2.523157">
        <ele>379.754</ele>
        <time>2021-05-26T12:49:38Z</time>
      </trkpt>
      <trkpt lat="41.766442" lon="2.523124">
        <ele>380.351</ele>
        <time>2021-05-26T12:49:40Z</time>
      </trkpt>
      <trkpt lat="41.766439" lon="2.523095">
        <ele>381.174</ele>
        <time>2021-05-26T12:49:42Z</time>
      </trkpt>
      <trkpt lat="41.766434" lon="2.523071">
        <ele>381.956</ele>
        <time>2021-05-26T12:49:44Z</time>
      </trkpt>
      <trkpt lat="41.766426" lon="2.523045">
        <ele>382.721</ele>
        <time>2021-05-26T12:49:46Z</time>
      </trkpt>
      <trkpt lat="41.766427" lon="2.523012">
        <ele>383.008</ele>
        <time>2021-05-26T12:49:49Z</time>
      </trkpt>
      <trkpt lat="41.766425" lon="2.522978">
        <ele>383.664</ele>
        <time>2021-05-26T12:49:52Z</time>
      </trkpt>
      <trkpt lat="41.766426" lon="2.522942">
        <ele>384.051</ele>
        <time>2021-05-26T12:49:55Z</time>
      </trkpt>
      <trkpt lat="41.766425" lon="2.522909">
        <ele>384.448</ele>
        <time>2021-05-26T12:49:57Z</time>
      </trkpt>
      <trkpt lat="41.766432" lon="2.522881">
        <ele>384.631</ele>
        <time>2021-05-26T12:49:59Z</time>
      </trkpt>
      <trkpt lat="41.766436" lon="2.522853">
        <ele>384.856</ele>
        <time>2021-05-26T12:50:01Z</time>
      </trkpt>
      <trkpt lat="41.766445" lon="2.522828">
        <ele>384.952</ele>
        <time>2021-05-26T12:50:03Z</time>
      </trkpt>
      <trkpt lat="41.766444" lon="2.522795">
        <ele>385.449</ele>
        <time>2021-05-26T12:50:05Z</time>
      </trkpt>
      <trkpt lat="41.766443" lon="2.522760">
        <ele>385.986</ele>
        <time>2021-05-26T12:50:07Z</time>
      </trkpt>
      <trkpt lat="41.766437" lon="2.522720">
        <ele>386.695</ele>
        <time>2021-05-26T12:50:09Z</time>
      </trkpt>
      <trkpt lat="41.766441" lon="2.522691">
        <ele>386.949</ele>
        <time>2021-05-26T12:50:11Z</time>
      </trkpt>
      <trkpt lat="41.766449" lon="2.522655">
        <ele>387.223</ele>
        <time>2021-05-26T12:50:14Z</time>
      </trkpt>
      <trkpt lat="41.766453" lon="2.522628">
        <ele>387.408</ele>
        <time>2021-05-26T12:50:16Z</time>
      </trkpt>
      <trkpt lat="41.766453" lon="2.522597">
        <ele>387.846</ele>
        <time>2021-05-26T12:50:18Z</time>
      </trkpt>
      <trkpt lat="41.766454" lon="2.522572">
        <ele>388.113</ele>
        <time>2021-05-26T12:50:20Z</time>
      </trkpt>
      <trkpt lat="41.766451" lon="2.522542">
        <ele>388.690</ele>
        <time>2021-05-26T12:50:22Z</time>
      </trkpt>
      <trkpt lat="41.766454" lon="2.522416">
        <ele>389.563</ele>
        <time>2021-05-26T12:50:30Z</time>
      </trkpt>
      <trkpt lat="41.766450" lon="2.522376">
        <ele>389.858</ele>
        <time>2021-05-26T12:50:33Z</time>
      </trkpt>
      <trkpt lat="41.766438" lon="2.522341">
        <ele>390.354</ele>
        <time>2021-05-26T12:50:34Z</time>
      </trkpt>
      <trkpt lat="41.766440" lon="2.522314">
        <ele>390.351</ele>
        <time>2021-05-26T12:50:36Z</time>
      </trkpt>
      <trkpt lat="41.766441" lon="2.522282">
        <ele>390.458</ele>
        <time>2021-05-26T12:50:38Z</time>
      </trkpt>
      <trkpt lat="41.766437" lon="2.522254">
        <ele>390.717</ele>
        <time>2021-05-26T12:50:40Z</time>
      </trkpt>
      <trkpt lat="41.766432" lon="2.522225">
        <ele>390.987</ele>
        <time>2021-05-26T12:50:42Z</time>
      </trkpt>
      <trkpt lat="41.766423" lon="2.522169">
        <ele>391.315</ele>
        <time>2021-05-26T12:50:46Z</time>
      </trkpt>
      <trkpt lat="41.766416" lon="2.522129">
        <ele>391.608</ele>
        <time>2021-05-26T12:50:49Z</time>
      </trkpt>
      <trkpt lat="41.766416" lon="2.522095">
        <ele>391.658</ele>
        <time>2021-05-26T12:50:52Z</time>
      </trkpt>
      <trkpt lat="41.766410" lon="2.522069">
        <ele>391.995</ele>
        <time>2021-05-26T12:50:54Z</time>
      </trkpt>
      <trkpt lat="41.766394" lon="2.522040">
        <ele>392.532</ele>
        <time>2021-05-26T12:50:56Z</time>
      </trkpt>
      <trkpt lat="41.766381" lon="2.522012">
        <ele>393.085</ele>
        <time>2021-05-26T12:50:58Z</time>
      </trkpt>
      <trkpt lat="41.766368" lon="2.521988">
        <ele>393.630</ele>
        <time>2021-05-26T12:51:00Z</time>
      </trkpt>
      <trkpt lat="41.766357" lon="2.521966">
        <ele>394.136</ele>
        <time>2021-05-26T12:51:02Z</time>
      </trkpt>
      <trkpt lat="41.766345" lon="2.521946">
        <ele>394.683</ele>
        <time>2021-05-26T12:51:04Z</time>
      </trkpt>
      <trkpt lat="41.766331" lon="2.521920">
        <ele>395.140</ele>
        <time>2021-05-26T12:51:08Z</time>
      </trkpt>
      <trkpt lat="41.766314" lon="2.521893">
        <ele>395.711</ele>
        <time>2021-05-26T12:51:10Z</time>
      </trkpt>
      <trkpt lat="41.766298" lon="2.521865">
        <ele>396.421</ele>
        <time>2021-05-26T12:51:12Z</time>
      </trkpt>
      <trkpt lat="41.766282" lon="2.521836">
        <ele>397.003</ele>
        <time>2021-05-26T12:51:14Z</time>
      </trkpt>
      <trkpt lat="41.766268" lon="2.521806">
        <ele>397.608</ele>
        <time>2021-05-26T12:51:16Z</time>
      </trkpt>
      <trkpt lat="41.766262" lon="2.521772">
        <ele>397.978</ele>
        <time>2021-05-26T12:51:18Z</time>
      </trkpt>
      <trkpt lat="41.766252" lon="2.521751">
        <ele>398.315</ele>
        <time>2021-05-26T12:51:20Z</time>
      </trkpt>
      <trkpt lat="41.766240" lon="2.521727">
        <ele>398.862</ele>
        <time>2021-05-26T12:51:22Z</time>
      </trkpt>
      <trkpt lat="41.766227" lon="2.521703">
        <ele>399.335</ele>
        <time>2021-05-26T12:51:24Z</time>
      </trkpt>
      <trkpt lat="41.766215" lon="2.521683">
        <ele>399.890</ele>
        <time>2021-05-26T12:51:26Z</time>
      </trkpt>
      <trkpt lat="41.766197" lon="2.521657">
        <ele>400.696</ele>
        <time>2021-05-26T12:51:29Z</time>
      </trkpt>
      <trkpt lat="41.766183" lon="2.521638">
        <ele>401.183</ele>
        <time>2021-05-26T12:51:31Z</time>
      </trkpt>
      <trkpt lat="41.766169" lon="2.521611">
        <ele>401.540</ele>
        <time>2021-05-26T12:51:34Z</time>
      </trkpt>
      <trkpt lat="41.766157" lon="2.521592">
        <ele>402.083</ele>
        <time>2021-05-26T12:51:36Z</time>
      </trkpt>
      <trkpt lat="41.766142" lon="2.521567">
        <ele>402.525</ele>
        <time>2021-05-26T12:51:39Z</time>
      </trkpt>
      <trkpt lat="41.766129" lon="2.521547">
        <ele>402.917</ele>
        <time>2021-05-26T12:51:42Z</time>
      </trkpt>
      <trkpt lat="41.766120" lon="2.521524">
        <ele>403.208</ele>
        <time>2021-05-26T12:51:45Z</time>
      </trkpt>
      <trkpt lat="41.766110" lon="2.521497">
        <ele>403.435</ele>
        <time>2021-05-26T12:51:48Z</time>
      </trkpt>
      <trkpt lat="41.766096" lon="2.521470">
        <ele>403.922</ele>
        <time>2021-05-26T12:51:51Z</time>
      </trkpt>
      <trkpt lat="41.766083" lon="2.521451">
        <ele>404.459</ele>
        <time>2021-05-26T12:51:53Z</time>
      </trkpt>
      <trkpt lat="41.766066" lon="2.521438">
        <ele>405.042</ele>
        <time>2021-05-26T12:51:55Z</time>
      </trkpt>
      <trkpt lat="41.766052" lon="2.521420">
        <ele>405.557</ele>
        <time>2021-05-26T12:51:57Z</time>
      </trkpt>
      <trkpt lat="41.766039" lon="2.521397">
        <ele>405.973</ele>
        <time>2021-05-26T12:51:59Z</time>
      </trkpt>
      <trkpt lat="41.766026" lon="2.521377">
        <ele>406.310</ele>
        <time>2021-05-26T12:52:01Z</time>
      </trkpt>
      <trkpt lat="41.766016" lon="2.521355">
        <ele>406.437</ele>
        <time>2021-05-26T12:52:03Z</time>
      </trkpt>
      <trkpt lat="41.766003" lon="2.521332">
        <ele>406.793</ele>
        <time>2021-05-26T12:52:06Z</time>
      </trkpt>
      <trkpt lat="41.765983" lon="2.521317">
        <ele>407.365</ele>
        <time>2021-05-26T12:52:09Z</time>
      </trkpt>
      <trkpt lat="41.765971" lon="2.521290">
        <ele>407.521</ele>
        <time>2021-05-26T12:52:13Z</time>
      </trkpt>
      <trkpt lat="41.765949" lon="2.521281">
        <ele>408.208</ele>
        <time>2021-05-26T12:52:16Z</time>
      </trkpt>
      <trkpt lat="41.765931" lon="2.521274">
        <ele>408.826</ele>
        <time>2021-05-26T12:52:37Z</time>
      </trkpt>
      <trkpt lat="41.765892" lon="2.521252">
        <ele>409.913</ele>
        <time>2021-05-26T12:52:40Z</time>
      </trkpt>
      <trkpt lat="41.765885" lon="2.521196">
        <ele>409.440</ele>
        <time>2021-05-26T12:52:46Z</time>
      </trkpt>
      <trkpt lat="41.765868" lon="2.521168">
        <ele>409.623</ele>
        <time>2021-05-26T12:52:49Z</time>
      </trkpt>
      <trkpt lat="41.765854" lon="2.521139">
        <ele>409.718</ele>
        <time>2021-05-26T12:52:52Z</time>
      </trkpt>
      <trkpt lat="41.765834" lon="2.521116">
        <ele>410.064</ele>
        <time>2021-05-26T12:52:56Z</time>
      </trkpt>
      <trkpt lat="41.765806" lon="2.521000">
        <ele>410.531</ele>
        <time>2021-05-26T12:53:04Z</time>
      </trkpt>
      <trkpt lat="41.765798" lon="2.520967">
        <ele>410.718</ele>
        <time>2021-05-26T12:53:07Z</time>
      </trkpt>
      <trkpt lat="41.765803" lon="2.520940">
        <ele>410.252</ele>
        <time>2021-05-26T12:53:10Z</time>
      </trkpt>
      <trkpt lat="41.765808" lon="2.520915">
        <ele>409.853</ele>
        <time>2021-05-26T12:53:12Z</time>
      </trkpt>
      <trkpt lat="41.765819" lon="2.520890">
        <ele>409.108</ele>
        <time>2021-05-26T12:53:14Z</time>
      </trkpt>
      <trkpt lat="41.765831" lon="2.520868">
        <ele>408.408</ele>
        <time>2021-05-26T12:53:16Z</time>
      </trkpt>
      <trkpt lat="41.765834" lon="2.520844">
        <ele>408.192</ele>
        <time>2021-05-26T12:53:18Z</time>
      </trkpt>
      <trkpt lat="41.765839" lon="2.520816">
        <ele>407.719</ele>
        <time>2021-05-26T12:53:20Z</time>
      </trkpt>
      <trkpt lat="41.765850" lon="2.520769">
        <ele>407.016</ele>
        <time>2021-05-26T12:53:23Z</time>
      </trkpt>
      <trkpt lat="41.765848" lon="2.520737">
        <ele>406.869</ele>
        <time>2021-05-26T12:53:25Z</time>
      </trkpt>
      <trkpt lat="41.765851" lon="2.520706">
        <ele>406.524</ele>
        <time>2021-05-26T12:53:27Z</time>
      </trkpt>
      <trkpt lat="41.765847" lon="2.520673">
        <ele>406.420</ele>
        <time>2021-05-26T12:53:29Z</time>
      </trkpt>
      <trkpt lat="41.765846" lon="2.520648">
        <ele>406.317</ele>
        <time>2021-05-26T12:53:30Z</time>
      </trkpt>
      <trkpt lat="41.765848" lon="2.520612">
        <ele>405.934</ele>
        <time>2021-05-26T12:53:32Z</time>
      </trkpt>
      <trkpt lat="41.765849" lon="2.520574">
        <ele>405.686</ele>
        <time>2021-05-26T12:53:34Z</time>
      </trkpt>
      <trkpt lat="41.765847" lon="2.520544">
        <ele>405.560</ele>
        <time>2021-05-26T12:53:36Z</time>
      </trkpt>
      <trkpt lat="41.765841" lon="2.520512">
        <ele>405.426</ele>
        <time>2021-05-26T12:53:38Z</time>
      </trkpt>
      <trkpt lat="41.765842" lon="2.520482">
        <ele>405.208</ele>
        <time>2021-05-26T12:53:40Z</time>
      </trkpt>
      <trkpt lat="41.765846" lon="2.520453">
        <ele>404.965</ele>
        <time>2021-05-26T12:53:42Z</time>
      </trkpt>
      <trkpt lat="41.765846" lon="2.520423">
        <ele>404.742</ele>
        <time>2021-05-26T12:53:44Z</time>
      </trkpt>
      <trkpt lat="41.765841" lon="2.520393">
        <ele>404.669</ele>
        <time>2021-05-26T12:53:46Z</time>
      </trkpt>
      <trkpt lat="41.765854" lon="2.520357">
        <ele>404.072</ele>
        <time>2021-05-26T12:53:48Z</time>
      </trkpt>
      <trkpt lat="41.765857" lon="2.520320">
        <ele>403.677</ele>
        <time>2021-05-26T12:53:50Z</time>
      </trkpt>
      <trkpt lat="41.765854" lon="2.520284">
        <ele>403.463</ele>
        <time>2021-05-26T12:53:52Z</time>
      </trkpt>
      <trkpt lat="41.765848" lon="2.520249">
        <ele>403.440</ele>
        <time>2021-05-26T12:53:54Z</time>
      </trkpt>
      <trkpt lat="41.765849" lon="2.520218">
        <ele>403.167</ele>
        <time>2021-05-26T12:53:56Z</time>
      </trkpt>
      <trkpt lat="41.765843" lon="2.520188">
        <ele>403.176</ele>
        <time>2021-05-26T12:53:58Z</time>
      </trkpt>
      <trkpt lat="41.765833" lon="2.520155">
        <ele>403.190</ele>
        <time>2021-05-26T12:54:01Z</time>
      </trkpt>
      <trkpt lat="41.765825" lon="2.520119">
        <ele>403.119</ele>
        <time>2021-05-26T12:54:02Z</time>
      </trkpt>
      <trkpt lat="41.765806" lon="2.520088">
        <ele>403.608</ele>
        <time>2021-05-26T12:54:04Z</time>
      </trkpt>
      <trkpt lat="41.765789" lon="2.520060">
        <ele>403.914</ele>
        <time>2021-05-26T12:54:06Z</time>
      </trkpt>
      <trkpt lat="41.765768" lon="2.520027">
        <ele>404.381</ele>
        <time>2021-05-26T12:54:08Z</time>
      </trkpt>
      <trkpt lat="41.765754" lon="2.519992">
        <ele>404.628</ele>
        <time>2021-05-26T12:54:10Z</time>
      </trkpt>
      <trkpt lat="41.765743" lon="2.519959">
        <ele>405.311</ele>
        <time>2021-05-26T12:54:12Z</time>
      </trkpt>
      <trkpt lat="41.765734" lon="2.519931">
        <ele>405.936</ele>
        <time>2021-05-26T12:54:14Z</time>
      </trkpt>
      <trkpt lat="41.765723" lon="2.519909">
        <ele>406.432</ele>
        <time>2021-05-26T12:54:16Z</time>
      </trkpt>
      <trkpt lat="41.765711" lon="2.519885">
        <ele>407.029</ele>
        <time>2021-05-26T12:54:18Z</time>
      </trkpt>
      <trkpt lat="41.765737" lon="2.519770">
        <ele>407.326</ele>
        <time>2021-05-26T12:54:26Z</time>
      </trkpt>
      <trkpt lat="41.765755" lon="2.519763">
        <ele>406.998</ele>
        <time>2021-05-26T12:54:27Z</time>
      </trkpt>
      <trkpt lat="41.765790" lon="2.519765">
        <ele>405.815</ele>
        <time>2021-05-26T12:54:29Z</time>
      </trkpt>
      <trkpt lat="41.765819" lon="2.519775">
        <ele>404.926</ele>
        <time>2021-05-26T12:54:31Z</time>
      </trkpt>
      <trkpt lat="41.765849" lon="2.519786">
        <ele>404.008</ele>
        <time>2021-05-26T12:54:33Z</time>
      </trkpt>
      <trkpt lat="41.765876" lon="2.519798">
        <ele>403.326</ele>
        <time>2021-05-26T12:54:35Z</time>
      </trkpt>
      <trkpt lat="41.765902" lon="2.519809">
        <ele>402.683</ele>
        <time>2021-05-26T12:54:37Z</time>
      </trkpt>
      <trkpt lat="41.765926" lon="2.519818">
        <ele>402.020</ele>
        <time>2021-05-26T12:54:39Z</time>
      </trkpt>
      <trkpt lat="41.765955" lon="2.519823">
        <ele>401.313</ele>
        <time>2021-05-26T12:54:41Z</time>
      </trkpt>
      <trkpt lat="41.765981" lon="2.519831">
        <ele>400.668</ele>
        <time>2021-05-26T12:54:43Z</time>
      </trkpt>
      <trkpt lat="41.766003" lon="2.519834">
        <ele>400.174</ele>
        <time>2021-05-26T12:54:45Z</time>
      </trkpt>
      <trkpt lat="41.766022" lon="2.519836">
        <ele>399.741</ele>
        <time>2021-05-26T12:54:46Z</time>
      </trkpt>
      <trkpt lat="41.766051" lon="2.519837">
        <ele>399.148</ele>
        <time>2021-05-26T12:54:48Z</time>
      </trkpt>
      <trkpt lat="41.766072" lon="2.519838">
        <ele>398.671</ele>
        <time>2021-05-26T12:54:49Z</time>
      </trkpt>
      <trkpt lat="41.766091" lon="2.519838">
        <ele>398.241</ele>
        <time>2021-05-26T12:54:50Z</time>
      </trkpt>
      <trkpt lat="41.766110" lon="2.519834">
        <ele>397.815</ele>
        <time>2021-05-26T12:54:51Z</time>
      </trkpt>
      <trkpt lat="41.766131" lon="2.519831">
        <ele>397.408</ele>
        <time>2021-05-26T12:54:52Z</time>
      </trkpt>
      <trkpt lat="41.766166" lon="2.519828">
        <ele>396.894</ele>
        <time>2021-05-26T12:54:54Z</time>
      </trkpt>
      <trkpt lat="41.766192" lon="2.519814">
        <ele>396.511</ele>
        <time>2021-05-26T12:54:56Z</time>
      </trkpt>
      <trkpt lat="41.766213" lon="2.519793">
        <ele>396.338</ele>
        <time>2021-05-26T12:54:58Z</time>
      </trkpt>
      <trkpt lat="41.766229" lon="2.519779">
        <ele>396.241</ele>
        <time>2021-05-26T12:54:59Z</time>
      </trkpt>
      <trkpt lat="41.766254" lon="2.519758">
        <ele>396.026</ele>
        <time>2021-05-26T12:55:01Z</time>
      </trkpt>
      <trkpt lat="41.766275" lon="2.519734">
        <ele>395.952</ele>
        <time>2021-05-26T12:55:03Z</time>
      </trkpt>
      <trkpt lat="41.766300" lon="2.519710">
        <ele>395.939</ele>
        <time>2021-05-26T12:55:05Z</time>
      </trkpt>
      <trkpt lat="41.766328" lon="2.519686">
        <ele>395.936</ele>
        <time>2021-05-26T12:55:07Z</time>
      </trkpt>
      <trkpt lat="41.766345" lon="2.519661">
        <ele>396.166</ele>
        <time>2021-05-26T12:55:09Z</time>
      </trkpt>
      <trkpt lat="41.766367" lon="2.519631">
        <ele>396.429</ele>
        <time>2021-05-26T12:55:11Z</time>
      </trkpt>
      <trkpt lat="41.766383" lon="2.519598">
        <ele>396.821</ele>
        <time>2021-05-26T12:55:13Z</time>
      </trkpt>
      <trkpt lat="41.766404" lon="2.519570">
        <ele>397.108</ele>
        <time>2021-05-26T12:55:15Z</time>
      </trkpt>
      <trkpt lat="41.766420" lon="2.519541">
        <ele>397.523</ele>
        <time>2021-05-26T12:55:17Z</time>
      </trkpt>
      <trkpt lat="41.766423" lon="2.519515">
        <ele>398.060</ele>
        <time>2021-05-26T12:55:19Z</time>
      </trkpt>
      <trkpt lat="41.766435" lon="2.519483">
        <ele>398.557</ele>
        <time>2021-05-26T12:55:21Z</time>
      </trkpt>
      <trkpt lat="41.766449" lon="2.519453">
        <ele>398.920</ele>
        <time>2021-05-26T12:55:23Z</time>
      </trkpt>
      <trkpt lat="41.766466" lon="2.519428">
        <ele>399.385</ele>
        <time>2021-05-26T12:55:25Z</time>
      </trkpt>
      <trkpt lat="41.766490" lon="2.519412">
        <ele>399.391</ele>
        <time>2021-05-26T12:55:28Z</time>
      </trkpt>
      <trkpt lat="41.766519" lon="2.519415">
        <ele>398.848</ele>
        <time>2021-05-26T12:55:30Z</time>
      </trkpt>
      <trkpt lat="41.766558" lon="2.519429">
        <ele>397.965</ele>
        <time>2021-05-26T12:55:33Z</time>
      </trkpt>
      <trkpt lat="41.766579" lon="2.519443">
        <ele>397.343</ele>
        <time>2021-05-26T12:55:35Z</time>
      </trkpt>
      <trkpt lat="41.766605" lon="2.519455">
        <ele>396.764</ele>
        <time>2021-05-26T12:55:37Z</time>
      </trkpt>
      <trkpt lat="41.766643" lon="2.519478">
        <ele>395.610</ele>
        <time>2021-05-26T12:55:40Z</time>
      </trkpt>
      <trkpt lat="41.766666" lon="2.519495">
        <ele>394.908</ele>
        <time>2021-05-26T12:55:42Z</time>
      </trkpt>
      <trkpt lat="41.766688" lon="2.519514">
        <ele>394.221</ele>
        <time>2021-05-26T12:55:44Z</time>
      </trkpt>
      <trkpt lat="41.766708" lon="2.519531">
        <ele>393.658</ele>
        <time>2021-05-26T12:55:46Z</time>
      </trkpt>
      <trkpt lat="41.766725" lon="2.519554">
        <ele>392.985</ele>
        <time>2021-05-26T12:55:48Z</time>
      </trkpt>
      <trkpt lat="41.766755" lon="2.519568">
        <ele>392.218</ele>
        <time>2021-05-26T12:55:50Z</time>
      </trkpt>
      <trkpt lat="41.766786" lon="2.519581">
        <ele>391.643</ele>
        <time>2021-05-26T12:55:52Z</time>
      </trkpt>
      <trkpt lat="41.766813" lon="2.519592">
        <ele>391.079</ele>
        <time>2021-05-26T12:55:54Z</time>
      </trkpt>
      <trkpt lat="41.766841" lon="2.519609">
        <ele>390.246</ele>
        <time>2021-05-26T12:55:56Z</time>
      </trkpt>
      <trkpt lat="41.766865" lon="2.519620">
        <ele>389.643</ele>
        <time>2021-05-26T12:55:58Z</time>
      </trkpt>
      <trkpt lat="41.766886" lon="2.519622">
        <ele>389.371</ele>
        <time>2021-05-26T12:56:00Z</time>
      </trkpt>
      <trkpt lat="41.766910" lon="2.519623">
        <ele>389.041</ele>
        <time>2021-05-26T12:56:02Z</time>
      </trkpt>
      <trkpt lat="41.766933" lon="2.519622">
        <ele>388.715</ele>
        <time>2021-05-26T12:56:04Z</time>
      </trkpt>
      <trkpt lat="41.766959" lon="2.519611">
        <ele>388.508</ele>
        <time>2021-05-26T12:56:06Z</time>
      </trkpt>
      <trkpt lat="41.766983" lon="2.519583">
        <ele>388.784</ele>
        <time>2021-05-26T12:56:08Z</time>
      </trkpt>
      <trkpt lat="41.767008" lon="2.519557">
        <ele>388.991</ele>
        <time>2021-05-26T12:56:10Z</time>
      </trkpt>
      <trkpt lat="41.767030" lon="2.519531">
        <ele>389.138</ele>
        <time>2021-05-26T12:56:12Z</time>
      </trkpt>
      <trkpt lat="41.767046" lon="2.519498">
        <ele>389.561</ele>
        <time>2021-05-26T12:56:14Z</time>
      </trkpt>
      <trkpt lat="41.767058" lon="2.519477">
        <ele>389.896</ele>
        <time>2021-05-26T12:56:15Z</time>
      </trkpt>
      <trkpt lat="41.767070" lon="2.519437">
        <ele>390.422</ele>
        <time>2021-05-26T12:56:17Z</time>
      </trkpt>
      <trkpt lat="41.767082" lon="2.519405">
        <ele>390.769</ele>
        <time>2021-05-26T12:56:19Z</time>
      </trkpt>
      <trkpt lat="41.767095" lon="2.519371">
        <ele>391.096</ele>
        <time>2021-05-26T12:56:21Z</time>
      </trkpt>
      <trkpt lat="41.767108" lon="2.519339">
        <ele>391.375</ele>
        <time>2021-05-26T12:56:23Z</time>
      </trkpt>
      <trkpt lat="41.767122" lon="2.519309">
        <ele>391.528</ele>
        <time>2021-05-26T12:56:25Z</time>
      </trkpt>
      <trkpt lat="41.767136" lon="2.519278">
        <ele>391.620</ele>
        <time>2021-05-26T12:56:27Z</time>
      </trkpt>
      <trkpt lat="41.767147" lon="2.519246">
        <ele>391.908</ele>
        <time>2021-05-26T12:56:29Z</time>
      </trkpt>
      <trkpt lat="41.767163" lon="2.519213">
        <ele>392.074</ele>
        <time>2021-05-26T12:56:31Z</time>
      </trkpt>
      <trkpt lat="41.767175" lon="2.519183">
        <ele>392.111</ele>
        <time>2021-05-26T12:56:34Z</time>
      </trkpt>
      <trkpt lat="41.767190" lon="2.519152">
        <ele>391.968</ele>
        <time>2021-05-26T12:56:35Z</time>
      </trkpt>
      <trkpt lat="41.767196" lon="2.519111">
        <ele>391.861</ele>
        <time>2021-05-26T12:56:37Z</time>
      </trkpt>
      <trkpt lat="41.767206" lon="2.519074">
        <ele>391.596</ele>
        <time>2021-05-26T12:56:39Z</time>
      </trkpt>
      <trkpt lat="41.767205" lon="2.519034">
        <ele>391.692</ele>
        <time>2021-05-26T12:56:41Z</time>
      </trkpt>
      <trkpt lat="41.767212" lon="2.518996">
        <ele>391.319</ele>
        <time>2021-05-26T12:56:43Z</time>
      </trkpt>
      <trkpt lat="41.767217" lon="2.518962">
        <ele>391.286</ele>
        <time>2021-05-26T12:56:45Z</time>
      </trkpt>
      <trkpt lat="41.767224" lon="2.518922">
        <ele>390.961</ele>
        <time>2021-05-26T12:56:47Z</time>
      </trkpt>
      <trkpt lat="41.767232" lon="2.518884">
        <ele>390.721</ele>
        <time>2021-05-26T12:56:49Z</time>
      </trkpt>
      <trkpt lat="41.767236" lon="2.518851">
        <ele>390.513</ele>
        <time>2021-05-26T12:56:51Z</time>
      </trkpt>
      <trkpt lat="41.767243" lon="2.518819">
        <ele>390.308</ele>
        <time>2021-05-26T12:56:53Z</time>
      </trkpt>
      <trkpt lat="41.767244" lon="2.518778">
        <ele>390.213</ele>
        <time>2021-05-26T12:56:55Z</time>
      </trkpt>
      <trkpt lat="41.767244" lon="2.518741">
        <ele>390.280</ele>
        <time>2021-05-26T12:56:57Z</time>
      </trkpt>
      <trkpt lat="41.767245" lon="2.518709">
        <ele>390.257</ele>
        <time>2021-05-26T12:56:59Z</time>
      </trkpt>
      <trkpt lat="41.767257" lon="2.518674">
        <ele>389.790</ele>
        <time>2021-05-26T12:57:01Z</time>
      </trkpt>
      <trkpt lat="41.767264" lon="2.518637">
        <ele>389.435</ele>
        <time>2021-05-26T12:57:03Z</time>
      </trkpt>
      <trkpt lat="41.767272" lon="2.518606">
        <ele>389.071</ele>
        <time>2021-05-26T12:57:05Z</time>
      </trkpt>
      <trkpt lat="41.767277" lon="2.518574">
        <ele>388.898</ele>
        <time>2021-05-26T12:57:07Z</time>
      </trkpt>
      <trkpt lat="41.767277" lon="2.518533">
        <ele>388.725</ele>
        <time>2021-05-26T12:57:09Z</time>
      </trkpt>
      <trkpt lat="41.767277" lon="2.518497">
        <ele>388.622</ele>
        <time>2021-05-26T12:57:11Z</time>
      </trkpt>
      <trkpt lat="41.767272" lon="2.518458">
        <ele>388.762</ele>
        <time>2021-05-26T12:57:13Z</time>
      </trkpt>
      <trkpt lat="41.767261" lon="2.518423">
        <ele>389.008</ele>
        <time>2021-05-26T12:57:15Z</time>
      </trkpt>
      <trkpt lat="41.767258" lon="2.518391">
        <ele>389.008</ele>
        <time>2021-05-26T12:57:17Z</time>
      </trkpt>
      <trkpt lat="41.767254" lon="2.518363">
        <ele>389.119</ele>
        <time>2021-05-26T12:57:19Z</time>
      </trkpt>
      <trkpt lat="41.767238" lon="2.518305">
        <ele>389.626</ele>
        <time>2021-05-26T12:57:22Z</time>
      </trkpt>
      <trkpt lat="41.767221" lon="2.518273">
        <ele>390.313</ele>
        <time>2021-05-26T12:57:24Z</time>
      </trkpt>
      <trkpt lat="41.767207" lon="2.518234">
        <ele>390.986</ele>
        <time>2021-05-26T12:57:26Z</time>
      </trkpt>
      <trkpt lat="41.767204" lon="2.518204">
        <ele>391.121</ele>
        <time>2021-05-26T12:57:28Z</time>
      </trkpt>
      <trkpt lat="41.767212" lon="2.518169">
        <ele>391.067</ele>
        <time>2021-05-26T12:57:30Z</time>
      </trkpt>
      <trkpt lat="41.767229" lon="2.518135">
        <ele>390.524</ele>
        <time>2021-05-26T12:57:32Z</time>
      </trkpt>
      <trkpt lat="41.767261" lon="2.518097">
        <ele>389.791</ele>
        <time>2021-05-26T12:57:35Z</time>
      </trkpt>
      <trkpt lat="41.767282" lon="2.518076">
        <ele>389.228</ele>
        <time>2021-05-26T12:57:37Z</time>
      </trkpt>
      <trkpt lat="41.767299" lon="2.518060">
        <ele>388.889</ele>
        <time>2021-05-26T12:57:39Z</time>
      </trkpt>
      <trkpt lat="41.767329" lon="2.518040">
        <ele>388.117</ele>
        <time>2021-05-26T12:57:41Z</time>
      </trkpt>
      <trkpt lat="41.767344" lon="2.518013">
        <ele>387.908</ele>
        <time>2021-05-26T12:57:43Z</time>
      </trkpt>
      <trkpt lat="41.767364" lon="2.517983">
        <ele>387.689</ele>
        <time>2021-05-26T12:57:45Z</time>
      </trkpt>
      <trkpt lat="41.767378" lon="2.517955">
        <ele>387.496</ele>
        <time>2021-05-26T12:57:47Z</time>
      </trkpt>
      <trkpt lat="41.767398" lon="2.517927">
        <ele>387.223</ele>
        <time>2021-05-26T12:57:49Z</time>
      </trkpt>
      <trkpt lat="41.767414" lon="2.517905">
        <ele>386.956</ele>
        <time>2021-05-26T12:57:51Z</time>
      </trkpt>
      <trkpt lat="41.767424" lon="2.517880">
        <ele>386.941</ele>
        <time>2021-05-26T12:57:53Z</time>
      </trkpt>
      <trkpt lat="41.767442" lon="2.517859">
        <ele>386.687</ele>
        <time>2021-05-26T12:57:55Z</time>
      </trkpt>
      <trkpt lat="41.767459" lon="2.517836">
        <ele>386.424</ele>
        <time>2021-05-26T12:57:57Z</time>
      </trkpt>
      <trkpt lat="41.767470" lon="2.517810">
        <ele>386.421</ele>
        <time>2021-05-26T12:57:59Z</time>
      </trkpt>
      <trkpt lat="41.767491" lon="2.517787">
        <ele>386.173</ele>
        <time>2021-05-26T12:58:01Z</time>
      </trkpt>
      <trkpt lat="41.767501" lon="2.517761">
        <ele>386.285</ele>
        <time>2021-05-26T12:58:03Z</time>
      </trkpt>
      <trkpt lat="41.767517" lon="2.517741">
        <ele>386.113</ele>
        <time>2021-05-26T12:58:05Z</time>
      </trkpt>
      <trkpt lat="41.767536" lon="2.517715">
        <ele>386.008</ele>
        <time>2021-05-26T12:58:08Z</time>
      </trkpt>
      <trkpt lat="41.767579" lon="2.517594">
        <ele>386.694</ele>
        <time>2021-05-26T12:58:13Z</time>
      </trkpt>
      <trkpt lat="41.767569" lon="2.517480">
        <ele>387.991</ele>
        <time>2021-05-26T12:58:19Z</time>
      </trkpt>
      <trkpt lat="41.767555" lon="2.517442">
        <ele>388.488</ele>
        <time>2021-05-26T12:58:21Z</time>
      </trkpt>
      <trkpt lat="41.767546" lon="2.517415">
        <ele>388.761</ele>
        <time>2021-05-26T12:58:23Z</time>
      </trkpt>
      <trkpt lat="41.767545" lon="2.517389">
        <ele>388.996</ele>
        <time>2021-05-26T12:58:25Z</time>
      </trkpt>
      <trkpt lat="41.767544" lon="2.517362">
        <ele>389.192</ele>
        <time>2021-05-26T12:58:27Z</time>
      </trkpt>
      <trkpt lat="41.767537" lon="2.517335">
        <ele>389.479</ele>
        <time>2021-05-26T12:58:29Z</time>
      </trkpt>
      <trkpt lat="41.767530" lon="2.517305">
        <ele>389.886</ele>
        <time>2021-05-26T12:58:31Z</time>
      </trkpt>
      <trkpt lat="41.767531" lon="2.517267">
        <ele>390.065</ele>
        <time>2021-05-26T12:58:33Z</time>
      </trkpt>
      <trkpt lat="41.767526" lon="2.517238">
        <ele>390.368</ele>
        <time>2021-05-26T12:58:35Z</time>
      </trkpt>
      <trkpt lat="41.767522" lon="2.517201">
        <ele>390.514</ele>
        <time>2021-05-26T12:58:37Z</time>
      </trkpt>
      <trkpt lat="41.767518" lon="2.517165">
        <ele>390.608</ele>
        <time>2021-05-26T12:58:39Z</time>
      </trkpt>
      <trkpt lat="41.767511" lon="2.517128">
        <ele>390.863</ele>
        <time>2021-05-26T12:58:42Z</time>
      </trkpt>
      <trkpt lat="41.767507" lon="2.517103">
        <ele>390.930</ele>
        <time>2021-05-26T12:58:44Z</time>
      </trkpt>
      <trkpt lat="41.767519" lon="2.517080">
        <ele>390.647</ele>
        <time>2021-05-26T12:58:46Z</time>
      </trkpt>
      <trkpt lat="41.767538" lon="2.517060">
        <ele>390.330</ele>
        <time>2021-05-26T12:58:49Z</time>
      </trkpt>
      <trkpt lat="41.767561" lon="2.517066">
        <ele>389.825</ele>
        <time>2021-05-26T12:58:50Z</time>
      </trkpt>
      <trkpt lat="41.767583" lon="2.517061">
        <ele>389.451</ele>
        <time>2021-05-26T12:58:52Z</time>
      </trkpt>
      <trkpt lat="41.767604" lon="2.517052">
        <ele>389.048</ele>
        <time>2021-05-26T12:58:55Z</time>
      </trkpt>
      <trkpt lat="41.767625" lon="2.517051">
        <ele>388.635</ele>
        <time>2021-05-26T12:58:57Z</time>
      </trkpt>
      <trkpt lat="41.767654" lon="2.517053">
        <ele>388.054</ele>
        <time>2021-05-26T12:58:59Z</time>
      </trkpt>
      <trkpt lat="41.767669" lon="2.517071">
        <ele>387.756</ele>
        <time>2021-05-26T12:59:03Z</time>
      </trkpt>
      <trkpt lat="41.767665" lon="2.517100">
        <ele>387.711</ele>
        <time>2021-05-26T12:59:06Z</time>
      </trkpt>
      <trkpt lat="41.767647" lon="2.517094">
        <ele>388.108</ele>
        <time>2021-05-26T12:59:14Z</time>
      </trkpt>
      <trkpt lat="41.767634" lon="2.517068">
        <ele>388.432</ele>
        <time>2021-05-26T12:59:17Z</time>
      </trkpt>
      <trkpt lat="41.767613" lon="2.517092">
        <ele>388.879</ele>
        <time>2021-05-26T12:59:22Z</time>
      </trkpt>
      <trkpt lat="41.767608" lon="2.517121">
        <ele>388.876</ele>
        <time>2021-05-26T12:59:25Z</time>
      </trkpt>
      <trkpt lat="41.767611" lon="2.517146">
        <ele>388.789</ele>
        <time>2021-05-26T12:59:27Z</time>
      </trkpt>
      <trkpt lat="41.767628" lon="2.517157">
        <ele>388.324</ele>
        <time>2021-05-26T12:59:32Z</time>
      </trkpt>
      <trkpt lat="41.767646" lon="2.517163">
        <ele>388.020</ele>
        <time>2021-05-26T12:59:35Z</time>
      </trkpt>
      <trkpt lat="41.767655" lon="2.517189">
        <ele>387.797</ele>
        <time>2021-05-26T12:59:38Z</time>
      </trkpt>
      <trkpt lat="41.767638" lon="2.517200">
        <ele>388.194</ele>
        <time>2021-05-26T12:59:49Z</time>
      </trkpt>
      <trkpt lat="41.767630" lon="2.517233">
        <ele>388.136</ele>
        <time>2021-05-26T12:59:55Z</time>
      </trkpt>
      <trkpt lat="41.767619" lon="2.517253">
        <ele>388.317</ele>
        <time>2021-05-26T13:00:02Z</time>
      </trkpt>
      <trkpt lat="41.767618" lon="2.517228">
        <ele>388.418</ele>
        <time>2021-05-26T13:00:15Z</time>
      </trkpt>
      <trkpt lat="41.767615" lon="2.517202">
        <ele>388.508</ele>
        <time>2021-05-26T13:00:23Z</time>
      </trkpt>
      <trkpt lat="41.767604" lon="2.517181">
        <ele>388.850</ele>
        <time>2021-05-26T13:00:42Z</time>
      </trkpt>
      <trkpt lat="41.767606" lon="2.517207">
        <ele>388.787</ele>
        <time>2021-05-26T13:00:45Z</time>
      </trkpt>
      <trkpt lat="41.767606" lon="2.517232">
        <ele>388.724</ele>
        <time>2021-05-26T13:00:50Z</time>
      </trkpt>
      <trkpt lat="41.767626" lon="2.517245">
        <ele>388.267</ele>
        <time>2021-05-26T13:01:06Z</time>
      </trkpt>
      <trkpt lat="41.767629" lon="2.517274">
        <ele>387.912</ele>
        <time>2021-05-26T13:02:46Z</time>
      </trkpt>
      <trkpt lat="41.767632" lon="2.517298">
        <ele>387.768</ele>
        <time>2021-05-26T13:02:59Z</time>
      </trkpt>
      <trkpt lat="41.767634" lon="2.517269">
        <ele>387.915</ele>
        <time>2021-05-26T13:03:17Z</time>
      </trkpt>
      <trkpt lat="41.767614" lon="2.517272">
        <ele>388.342</ele>
        <time>2021-05-26T13:03:35Z</time>
      </trkpt>
      <trkpt lat="41.767596" lon="2.517276">
        <ele>388.613</ele>
        <time>2021-05-26T13:04:34Z</time>
      </trkpt>
      <trkpt lat="41.767626" lon="2.517264">
        <ele>388.043</ele>
        <time>2021-05-26T13:05:21Z</time>
      </trkpt>
      <trkpt lat="41.767642" lon="2.517279">
        <ele>387.607</ele>
        <time>2021-05-26T13:05:33Z</time>
      </trkpt>
      <trkpt lat="41.767624" lon="2.517272">
        <ele>388.008</ele>
        <time>2021-05-26T13:05:55Z</time>
      </trkpt>
      <trkpt lat="41.767610" lon="2.517253">
        <ele>388.478</ele>
        <time>2021-05-26T13:06:37Z</time>
      </trkpt>
      <trkpt lat="41.767627" lon="2.517243">
        <ele>388.195</ele>
        <time>2021-05-26T13:06:49Z</time>
      </trkpt>
      <trkpt lat="41.767619" lon="2.517277">
        <ele>388.112</ele>
        <time>2021-05-26T13:06:57Z</time>
      </trkpt>
      <trkpt lat="41.767600" lon="2.517270">
        <ele>388.695</ele>
        <time>2021-05-26T13:07:03Z</time>
      </trkpt>
      <trkpt lat="41.767583" lon="2.517246">
        <ele>389.150</ele>
        <time>2021-05-26T13:07:04Z</time>
      </trkpt>
      <trkpt lat="41.767560" lon="2.517253">
        <ele>389.586</ele>
        <time>2021-05-26T13:07:09Z</time>
      </trkpt>
      <trkpt lat="41.767577" lon="2.517242">
        <ele>389.223</ele>
        <time>2021-05-26T13:07:28Z</time>
      </trkpt>
      <trkpt lat="41.767592" lon="2.517225">
        <ele>389.070</ele>
        <time>2021-05-26T13:07:33Z</time>
      </trkpt>
      <trkpt lat="41.767615" lon="2.517219">
        <ele>388.557</ele>
        <time>2021-05-26T13:07:42Z</time>
      </trkpt>
      <trkpt lat="41.767629" lon="2.517197">
        <ele>388.300</ele>
        <time>2021-05-26T13:07:45Z</time>
      </trkpt>
      <trkpt lat="41.767645" lon="2.517157">
        <ele>388.020</ele>
        <time>2021-05-26T13:08:02Z</time>
      </trkpt>
      <trkpt lat="41.767648" lon="2.517133">
        <ele>388.008</ele>
        <time>2021-05-26T13:08:16Z</time>
      </trkpt>
      <trkpt lat="41.767642" lon="2.517160">
        <ele>388.092</ele>
        <time>2021-05-26T13:08:22Z</time>
      </trkpt>
      <trkpt lat="41.767624" lon="2.517173">
        <ele>388.469</ele>
        <time>2021-05-26T13:08:24Z</time>
      </trkpt>
      <trkpt lat="41.767630" lon="2.517197">
        <ele>388.256</ele>
        <time>2021-05-26T13:08:52Z</time>
      </trkpt>
      <trkpt lat="41.767646" lon="2.517212">
        <ele>387.929</ele>
        <time>2021-05-26T13:08:57Z</time>
      </trkpt>
      <trkpt lat="41.767656" lon="2.517237">
        <ele>387.654</ele>
        <time>2021-05-26T13:09:02Z</time>
      </trkpt>
      <trkpt lat="41.767640" lon="2.517249">
        <ele>387.840</ele>
        <time>2021-05-26T13:09:29Z</time>
      </trkpt>
      <trkpt lat="41.767621" lon="2.517262">
        <ele>388.277</ele>
        <time>2021-05-26T13:09:37Z</time>
      </trkpt>
      <trkpt lat="41.767639" lon="2.517269">
        <ele>387.794</ele>
        <time>2021-05-26T13:09:45Z</time>
      </trkpt>
      <trkpt lat="41.767659" lon="2.517271">
        <ele>387.322</ele>
        <time>2021-05-26T13:10:00Z</time>
      </trkpt>
      <trkpt lat="41.767665" lon="2.517246">
        <ele>387.362</ele>
        <time>2021-05-26T13:10:27Z</time>
      </trkpt>
      <trkpt lat="41.767672" lon="2.517222">
        <ele>387.308</ele>
        <time>2021-05-26T13:10:31Z</time>
      </trkpt>
      <trkpt lat="41.767677" lon="2.517198">
        <ele>387.208</ele>
        <time>2021-05-26T13:10:34Z</time>
      </trkpt>
      <trkpt lat="41.767668" lon="2.517177">
        <ele>387.549</ele>
        <time>2021-05-26T13:10:58Z</time>
      </trkpt>
      <trkpt lat="41.767678" lon="2.517157">
        <ele>387.396</ele>
        <time>2021-05-26T13:11:08Z</time>
      </trkpt>
      <trkpt lat="41.767690" lon="2.517133">
        <ele>387.193</ele>
        <time>2021-05-26T13:11:14Z</time>
      </trkpt>
      <trkpt lat="41.767700" lon="2.517108">
        <ele>387.066</ele>
        <time>2021-05-26T13:11:18Z</time>
      </trkpt>
      <trkpt lat="41.767722" lon="2.517123">
        <ele>386.541</ele>
        <time>2021-05-26T13:11:21Z</time>
      </trkpt>
      <trkpt lat="41.767739" lon="2.517132">
        <ele>386.117</ele>
        <time>2021-05-26T13:11:23Z</time>
      </trkpt>
      <trkpt lat="41.767768" lon="2.517144">
        <ele>385.514</ele>
        <time>2021-05-26T13:11:26Z</time>
      </trkpt>
      <trkpt lat="41.767787" lon="2.517150">
        <ele>385.331</ele>
        <time>2021-05-26T13:11:28Z</time>
      </trkpt>
      <trkpt lat="41.767809" lon="2.517153">
        <ele>385.358</ele>
        <time>2021-05-26T13:11:30Z</time>
      </trkpt>
      <trkpt lat="41.767833" lon="2.517150">
        <ele>385.352</ele>
        <time>2021-05-26T13:11:32Z</time>
      </trkpt>
      <trkpt lat="41.767858" lon="2.517151">
        <ele>385.317</ele>
        <time>2021-05-26T13:11:34Z</time>
      </trkpt>
      <trkpt lat="41.767885" lon="2.517152">
        <ele>385.408</ele>
        <time>2021-05-26T13:11:36Z</time>
      </trkpt>
      <trkpt lat="41.767907" lon="2.517145">
        <ele>385.482</ele>
        <time>2021-05-26T13:11:38Z</time>
      </trkpt>
      <trkpt lat="41.767931" lon="2.517136">
        <ele>385.589</ele>
        <time>2021-05-26T13:11:40Z</time>
      </trkpt>
      <trkpt lat="41.767956" lon="2.517121">
        <ele>385.696</ele>
        <time>2021-05-26T13:11:42Z</time>
      </trkpt>
      <trkpt lat="41.767973" lon="2.517106">
        <ele>385.759</ele>
        <time>2021-05-26T13:11:44Z</time>
      </trkpt>
      <trkpt lat="41.767995" lon="2.517082">
        <ele>385.924</ele>
        <time>2021-05-26T13:11:46Z</time>
      </trkpt>
      <trkpt lat="41.768018" lon="2.517058">
        <ele>386.140</ele>
        <time>2021-05-26T13:11:48Z</time>
      </trkpt>
      <trkpt lat="41.768036" lon="2.517026">
        <ele>386.467</ele>
        <time>2021-05-26T13:11:50Z</time>
      </trkpt>
      <trkpt lat="41.768056" lon="2.516998">
        <ele>386.614</ele>
        <time>2021-05-26T13:11:52Z</time>
      </trkpt>
      <trkpt lat="41.768076" lon="2.516967">
        <ele>387.132</ele>
        <time>2021-05-26T13:11:54Z</time>
      </trkpt>
      <trkpt lat="41.768091" lon="2.516941">
        <ele>387.592</ele>
        <time>2021-05-26T13:11:56Z</time>
      </trkpt>
      <trkpt lat="41.768112" lon="2.516919">
        <ele>387.911</ele>
        <time>2021-05-26T13:11:58Z</time>
      </trkpt>
      <trkpt lat="41.768123" lon="2.516890">
        <ele>388.108</ele>
        <time>2021-05-26T13:12:00Z</time>
      </trkpt>
      <trkpt lat="41.768136" lon="2.516854">
        <ele>388.380</ele>
        <time>2021-05-26T13:12:02Z</time>
      </trkpt>
      <trkpt lat="41.768162" lon="2.516826">
        <ele>388.997</ele>
        <time>2021-05-26T13:12:04Z</time>
      </trkpt>
      <trkpt lat="41.768179" lon="2.516803">
        <ele>389.214</ele>
        <time>2021-05-26T13:12:06Z</time>
      </trkpt>
      <trkpt lat="41.768196" lon="2.516781">
        <ele>389.667</ele>
        <time>2021-05-26T13:12:08Z</time>
      </trkpt>
      <trkpt lat="41.768205" lon="2.516751">
        <ele>389.962</ele>
        <time>2021-05-26T13:12:10Z</time>
      </trkpt>
      <trkpt lat="41.768221" lon="2.516728">
        <ele>390.358</ele>
        <time>2021-05-26T13:12:12Z</time>
      </trkpt>
      <trkpt lat="41.768244" lon="2.516708">
        <ele>390.985</ele>
        <time>2021-05-26T13:12:14Z</time>
      </trkpt>
      <trkpt lat="41.768265" lon="2.516690">
        <ele>391.482</ele>
        <time>2021-05-26T13:12:16Z</time>
      </trkpt>
      <trkpt lat="41.768271" lon="2.516668">
        <ele>391.664</ele>
        <time>2021-05-26T13:12:18Z</time>
      </trkpt>
      <trkpt lat="41.768280" lon="2.516640">
        <ele>391.806</ele>
        <time>2021-05-26T13:12:21Z</time>
      </trkpt>
      <trkpt lat="41.768294" lon="2.516620">
        <ele>392.116</ele>
        <time>2021-05-26T13:12:24Z</time>
      </trkpt>
      <trkpt lat="41.768337" lon="2.516504">
        <ele>392.508</ele>
        <time>2021-05-26T13:12:31Z</time>
      </trkpt>
      <trkpt lat="41.768367" lon="2.516372">
        <ele>393.293</ele>
        <time>2021-05-26T13:12:37Z</time>
      </trkpt>
      <trkpt lat="41.768344" lon="2.516242">
        <ele>393.310</ele>
        <time>2021-05-26T13:12:45Z</time>
      </trkpt>
      <trkpt lat="41.768321" lon="2.516162">
        <ele>393.517</ele>
        <time>2021-05-26T13:12:51Z</time>
      </trkpt>
      <trkpt lat="41.768312" lon="2.516135">
        <ele>393.630</ele>
        <time>2021-05-26T13:12:53Z</time>
      </trkpt>
      <trkpt lat="41.768304" lon="2.516110">
        <ele>393.725</ele>
        <time>2021-05-26T13:12:55Z</time>
      </trkpt>
      <trkpt lat="41.768351" lon="2.516001">
        <ele>395.541</ele>
        <time>2021-05-26T13:13:07Z</time>
      </trkpt>
      <trkpt lat="41.768392" lon="2.515888">
        <ele>397.598</ele>
        <time>2021-05-26T13:13:17Z</time>
      </trkpt>
      <trkpt lat="41.768377" lon="2.515776">
        <ele>398.575</ele>
        <time>2021-05-26T13:13:26Z</time>
      </trkpt>
      <trkpt lat="41.768370" lon="2.515752">
        <ele>398.894</ele>
        <time>2021-05-26T13:13:28Z</time>
      </trkpt>
      <trkpt lat="41.768352" lon="2.515732">
        <ele>398.757</ele>
        <time>2021-05-26T13:13:30Z</time>
      </trkpt>
      <trkpt lat="41.768340" lon="2.515708">
        <ele>398.922</ele>
        <time>2021-05-26T13:13:33Z</time>
      </trkpt>
      <trkpt lat="41.768325" lon="2.515681">
        <ele>399.108</ele>
        <time>2021-05-26T13:13:36Z</time>
      </trkpt>
      <trkpt lat="41.768316" lon="2.515659">
        <ele>399.436</ele>
        <time>2021-05-26T13:13:38Z</time>
      </trkpt>
      <trkpt lat="41.768305" lon="2.515629">
        <ele>399.763</ele>
        <time>2021-05-26T13:13:41Z</time>
      </trkpt>
      <trkpt lat="41.768304" lon="2.515600">
        <ele>400.150</ele>
        <time>2021-05-26T13:13:43Z</time>
      </trkpt>
      <trkpt lat="41.768305" lon="2.515571">
        <ele>400.683</ele>
        <time>2021-05-26T13:13:45Z</time>
      </trkpt>
      <trkpt lat="41.768311" lon="2.515545">
        <ele>401.018</ele>
        <time>2021-05-26T13:13:47Z</time>
      </trkpt>
      <trkpt lat="41.768319" lon="2.515522">
        <ele>401.364</ele>
        <time>2021-05-26T13:13:49Z</time>
      </trkpt>
      <trkpt lat="41.768330" lon="2.515501">
        <ele>401.661</ele>
        <time>2021-05-26T13:13:51Z</time>
      </trkpt>
      <trkpt lat="41.768338" lon="2.515479">
        <ele>401.958</ele>
        <time>2021-05-26T13:13:53Z</time>
      </trkpt>
      <trkpt lat="41.768341" lon="2.515449">
        <ele>402.286</ele>
        <time>2021-05-26T13:13:56Z</time>
      </trkpt>
      <trkpt lat="41.768344" lon="2.515416">
        <ele>402.660</ele>
        <time>2021-05-26T13:13:59Z</time>
      </trkpt>
      <trkpt lat="41.768346" lon="2.515390">
        <ele>402.926</ele>
        <time>2021-05-26T13:14:01Z</time>
      </trkpt>
      <trkpt lat="41.768345" lon="2.515364">
        <ele>403.108</ele>
        <time>2021-05-26T13:14:04Z</time>
      </trkpt>
      <trkpt lat="41.768336" lon="2.515338">
        <ele>403.465</ele>
        <time>2021-05-26T13:14:07Z</time>
      </trkpt>
      <trkpt lat="41.768327" lon="2.515314">
        <ele>403.622</ele>
        <time>2021-05-26T13:14:09Z</time>
      </trkpt>
      <trkpt lat="41.768318" lon="2.515282">
        <ele>404.059</ele>
        <time>2021-05-26T13:14:12Z</time>
      </trkpt>
      <trkpt lat="41.768308" lon="2.515252">
        <ele>404.412</ele>
        <time>2021-05-26T13:14:15Z</time>
      </trkpt>
      <trkpt lat="41.768294" lon="2.515230">
        <ele>404.797</ele>
        <time>2021-05-26T13:14:18Z</time>
      </trkpt>
      <trkpt lat="41.768280" lon="2.515213">
        <ele>405.063</ele>
        <time>2021-05-26T13:14:20Z</time>
      </trkpt>
      <trkpt lat="41.768263" lon="2.515193">
        <ele>405.450</ele>
        <time>2021-05-26T13:14:22Z</time>
      </trkpt>
      <trkpt lat="41.768250" lon="2.515174">
        <ele>405.837</ele>
        <time>2021-05-26T13:14:24Z</time>
      </trkpt>
      <trkpt lat="41.768230" lon="2.515153">
        <ele>406.239</ele>
        <time>2021-05-26T13:14:27Z</time>
      </trkpt>
      <trkpt lat="41.768210" lon="2.515148">
        <ele>406.501</ele>
        <time>2021-05-26T13:14:29Z</time>
      </trkpt>
      <trkpt lat="41.768192" lon="2.515136">
        <ele>406.821</ele>
        <time>2021-05-26T13:14:31Z</time>
      </trkpt>
      <trkpt lat="41.768174" lon="2.515130">
        <ele>407.108</ele>
        <time>2021-05-26T13:14:33Z</time>
      </trkpt>
      <trkpt lat="41.768156" lon="2.515125">
        <ele>407.340</ele>
        <time>2021-05-26T13:14:35Z</time>
      </trkpt>
      <trkpt lat="41.768128" lon="2.515126">
        <ele>407.627</ele>
        <time>2021-05-26T13:14:39Z</time>
      </trkpt>
      <trkpt lat="41.768107" lon="2.515123">
        <ele>407.824</ele>
        <time>2021-05-26T13:14:41Z</time>
      </trkpt>
      <trkpt lat="41.768080" lon="2.515124">
        <ele>408.177</ele>
        <time>2021-05-26T13:14:43Z</time>
      </trkpt>
      <trkpt lat="41.768062" lon="2.515109">
        <ele>408.692</ele>
        <time>2021-05-26T13:14:45Z</time>
      </trkpt>
      <trkpt lat="41.768042" lon="2.515100">
        <ele>408.978</ele>
        <time>2021-05-26T13:14:47Z</time>
      </trkpt>
      <trkpt lat="41.768023" lon="2.515090">
        <ele>409.175</ele>
        <time>2021-05-26T13:14:49Z</time>
      </trkpt>
      <trkpt lat="41.768001" lon="2.515086">
        <ele>409.232</ele>
        <time>2021-05-26T13:14:51Z</time>
      </trkpt>
      <trkpt lat="41.767983" lon="2.515084">
        <ele>409.338</ele>
        <time>2021-05-26T13:14:53Z</time>
      </trkpt>
      <trkpt lat="41.767965" lon="2.515077">
        <ele>409.570</ele>
        <time>2021-05-26T13:14:55Z</time>
      </trkpt>
      <trkpt lat="41.767944" lon="2.515058">
        <ele>410.017</ele>
        <time>2021-05-26T13:14:58Z</time>
      </trkpt>
      <trkpt lat="41.767926" lon="2.515046">
        <ele>410.308</ele>
        <time>2021-05-26T13:15:00Z</time>
      </trkpt>
      <trkpt lat="41.767909" lon="2.515034">
        <ele>410.770</ele>
        <time>2021-05-26T13:15:02Z</time>
      </trkpt>
      <trkpt lat="41.767888" lon="2.515024">
        <ele>411.017</ele>
        <time>2021-05-26T13:15:04Z</time>
      </trkpt>
      <trkpt lat="41.767863" lon="2.515017">
        <ele>411.234</ele>
        <time>2021-05-26T13:15:06Z</time>
      </trkpt>
      <trkpt lat="41.767844" lon="2.515009">
        <ele>411.587</ele>
        <time>2021-05-26T13:15:08Z</time>
      </trkpt>
      <trkpt lat="41.767823" lon="2.515007">
        <ele>411.682</ele>
        <time>2021-05-26T13:15:10Z</time>
      </trkpt>
      <trkpt lat="41.767799" lon="2.515000">
        <ele>411.968</ele>
        <time>2021-05-26T13:15:12Z</time>
      </trkpt>
      <trkpt lat="41.767775" lon="2.514987">
        <ele>412.325</ele>
        <time>2021-05-26T13:15:14Z</time>
      </trkpt>
      <trkpt lat="41.767753" lon="2.514981">
        <ele>412.582</ele>
        <time>2021-05-26T13:15:16Z</time>
      </trkpt>
      <trkpt lat="41.767732" lon="2.514966">
        <ele>412.824</ele>
        <time>2021-05-26T13:15:18Z</time>
      </trkpt>
      <trkpt lat="41.767707" lon="2.514953">
        <ele>413.104</ele>
        <time>2021-05-26T13:15:20Z</time>
      </trkpt>
      <trkpt lat="41.767686" lon="2.514943">
        <ele>413.414</ele>
        <time>2021-05-26T13:15:22Z</time>
      </trkpt>
      <trkpt lat="41.767662" lon="2.514924">
        <ele>413.808</ele>
        <time>2021-05-26T13:15:24Z</time>
      </trkpt>
      <trkpt lat="41.767642" lon="2.514910">
        <ele>414.169</ele>
        <time>2021-05-26T13:15:26Z</time>
      </trkpt>
      <trkpt lat="41.767621" lon="2.514897">
        <ele>414.436</ele>
        <time>2021-05-26T13:15:28Z</time>
      </trkpt>
      <trkpt lat="41.767601" lon="2.514879">
        <ele>414.813</ele>
        <time>2021-05-26T13:15:30Z</time>
      </trkpt>
      <trkpt lat="41.767588" lon="2.514859">
        <ele>415.216</ele>
        <time>2021-05-26T13:15:32Z</time>
      </trkpt>
      <trkpt lat="41.767568" lon="2.514843">
        <ele>415.551</ele>
        <time>2021-05-26T13:15:34Z</time>
      </trkpt>
      <trkpt lat="41.767556" lon="2.514815">
        <ele>416.197</ele>
        <time>2021-05-26T13:15:36Z</time>
      </trkpt>
      <trkpt lat="41.767543" lon="2.514792">
        <ele>416.694</ele>
        <time>2021-05-26T13:15:38Z</time>
      </trkpt>
      <trkpt lat="41.767527" lon="2.514774">
        <ele>417.021</ele>
        <time>2021-05-26T13:15:40Z</time>
      </trkpt>
      <trkpt lat="41.767512" lon="2.514755">
        <ele>417.312</ele>
        <time>2021-05-26T13:15:42Z</time>
      </trkpt>
      <trkpt lat="41.767499" lon="2.514733">
        <ele>417.832</ele>
        <time>2021-05-26T13:15:44Z</time>
      </trkpt>
      <trkpt lat="41.767486" lon="2.514710">
        <ele>418.105</ele>
        <time>2021-05-26T13:15:46Z</time>
      </trkpt>
      <trkpt lat="41.767469" lon="2.514686">
        <ele>418.308</ele>
        <time>2021-05-26T13:15:48Z</time>
      </trkpt>
      <trkpt lat="41.767453" lon="2.514660">
        <ele>418.648</ele>
        <time>2021-05-26T13:15:50Z</time>
      </trkpt>
      <trkpt lat="41.767435" lon="2.514629">
        <ele>419.145</ele>
        <time>2021-05-26T13:15:52Z</time>
      </trkpt>
      <trkpt lat="41.767419" lon="2.514598">
        <ele>419.582</ele>
        <time>2021-05-26T13:15:54Z</time>
      </trkpt>
      <trkpt lat="41.767400" lon="2.514567">
        <ele>419.965</ele>
        <time>2021-05-26T13:15:56Z</time>
      </trkpt>
      <trkpt lat="41.767382" lon="2.514543">
        <ele>420.250</ele>
        <time>2021-05-26T13:15:58Z</time>
      </trkpt>
      <trkpt lat="41.767362" lon="2.514519">
        <ele>420.536</ele>
        <time>2021-05-26T13:16:00Z</time>
      </trkpt>
      <trkpt lat="41.767347" lon="2.514501">
        <ele>420.813</ele>
        <time>2021-05-26T13:16:02Z</time>
      </trkpt>
      <trkpt lat="41.767338" lon="2.514470">
        <ele>421.340</ele>
        <time>2021-05-26T13:16:04Z</time>
      </trkpt>
      <trkpt lat="41.767330" lon="2.514441">
        <ele>421.868</ele>
        <time>2021-05-26T13:16:06Z</time>
      </trkpt>
      <trkpt lat="41.767320" lon="2.514404">
        <ele>422.542</ele>
        <time>2021-05-26T13:16:08Z</time>
      </trkpt>
      <trkpt lat="41.767314" lon="2.514378">
        <ele>423.026</ele>
        <time>2021-05-26T13:16:10Z</time>
      </trkpt>
      <trkpt lat="41.767302" lon="2.514355">
        <ele>423.408</ele>
        <time>2021-05-26T13:16:12Z</time>
      </trkpt>
      <trkpt lat="41.767295" lon="2.514320">
        <ele>424.113</ele>
        <time>2021-05-26T13:16:14Z</time>
      </trkpt>
      <trkpt lat="41.767289" lon="2.514284">
        <ele>424.820</ele>
        <time>2021-05-26T13:16:16Z</time>
      </trkpt>
      <trkpt lat="41.767285" lon="2.514170">
        <ele>427.217</ele>
        <time>2021-05-26T13:16:22Z</time>
      </trkpt>
      <trkpt lat="41.767234" lon="2.514063">
        <ele>428.940</ele>
        <time>2021-05-26T13:16:30Z</time>
      </trkpt>
      <trkpt lat="41.767166" lon="2.514087">
        <ele>428.585</ele>
        <time>2021-05-26T13:16:37Z</time>
      </trkpt>
      <trkpt lat="41.767145" lon="2.514093">
        <ele>428.481</ele>
        <time>2021-05-26T13:16:40Z</time>
      </trkpt>
      <trkpt lat="41.767126" lon="2.514080">
        <ele>428.778</ele>
        <time>2021-05-26T13:16:43Z</time>
      </trkpt>
      <trkpt lat="41.767104" lon="2.514073">
        <ele>428.895</ele>
        <time>2021-05-26T13:16:45Z</time>
      </trkpt>
      <trkpt lat="41.767066" lon="2.514055">
        <ele>429.268</ele>
        <time>2021-05-26T13:16:48Z</time>
      </trkpt>
      <trkpt lat="41.767025" lon="2.514031">
        <ele>429.842</ele>
        <time>2021-05-26T13:16:52Z</time>
      </trkpt>
      <trkpt lat="41.767007" lon="2.514035">
        <ele>429.726</ele>
        <time>2021-05-26T13:16:53Z</time>
      </trkpt>
      <trkpt lat="41.766985" lon="2.514026">
        <ele>430.008</ele>
        <time>2021-05-26T13:16:55Z</time>
      </trkpt>
      <trkpt lat="41.766966" lon="2.514028">
        <ele>430.053</ele>
        <time>2021-05-26T13:16:57Z</time>
      </trkpt>
      <trkpt lat="41.766949" lon="2.514036">
        <ele>429.830</ele>
        <time>2021-05-26T13:16:58Z</time>
      </trkpt>
      <trkpt lat="41.766926" lon="2.514043">
        <ele>429.417</ele>
        <time>2021-05-26T13:17:00Z</time>
      </trkpt>
      <trkpt lat="41.766908" lon="2.514063">
        <ele>428.740</ele>
        <time>2021-05-26T13:17:02Z</time>
      </trkpt>
      <trkpt lat="41.766895" lon="2.514085">
        <ele>428.165</ele>
        <time>2021-05-26T13:17:04Z</time>
      </trkpt>
      <trkpt lat="41.766876" lon="2.514094">
        <ele>427.631</ele>
        <time>2021-05-26T13:17:07Z</time>
      </trkpt>
      <trkpt lat="41.766857" lon="2.514098">
        <ele>427.298</ele>
        <time>2021-05-26T13:17:10Z</time>
      </trkpt>
      <trkpt lat="41.766836" lon="2.514119">
        <ele>426.585</ele>
        <time>2021-05-26T13:17:13Z</time>
      </trkpt>
      <trkpt lat="41.766820" lon="2.514129">
        <ele>426.092</ele>
        <time>2021-05-26T13:17:15Z</time>
      </trkpt>
      <trkpt lat="41.766799" lon="2.514131">
        <ele>425.773</ele>
        <time>2021-05-26T13:17:17Z</time>
      </trkpt>
      <trkpt lat="41.766768" lon="2.514137">
        <ele>425.120</ele>
        <time>2021-05-26T13:17:19Z</time>
      </trkpt>
      <trkpt lat="41.766741" lon="2.514135">
        <ele>424.808</ele>
        <time>2021-05-26T13:17:21Z</time>
      </trkpt>
      <trkpt lat="41.766718" lon="2.514139">
        <ele>424.396</ele>
        <time>2021-05-26T13:17:23Z</time>
      </trkpt>
      <trkpt lat="41.766701" lon="2.514122">
        <ele>424.583</ele>
        <time>2021-05-26T13:17:25Z</time>
      </trkpt>
      <trkpt lat="41.766685" lon="2.514113">
        <ele>424.460</ele>
        <time>2021-05-26T13:17:27Z</time>
      </trkpt>
      <trkpt lat="41.766660" lon="2.514099">
        <ele>424.363</ele>
        <time>2021-05-26T13:17:29Z</time>
      </trkpt>
      <trkpt lat="41.766641" lon="2.514095">
        <ele>424.118</ele>
        <time>2021-05-26T13:17:30Z</time>
      </trkpt>
      <trkpt lat="41.766616" lon="2.514082">
        <ele>423.994</ele>
        <time>2021-05-26T13:17:32Z</time>
      </trkpt>
      <trkpt lat="41.766587" lon="2.514056">
        <ele>424.041</ele>
        <time>2021-05-26T13:17:34Z</time>
      </trkpt>
      <trkpt lat="41.766566" lon="2.514036">
        <ele>424.098</ele>
        <time>2021-05-26T13:17:36Z</time>
      </trkpt>
      <trkpt lat="41.766554" lon="2.514010">
        <ele>424.426</ele>
        <time>2021-05-26T13:17:38Z</time>
      </trkpt>
      <trkpt lat="41.766536" lon="2.513987">
        <ele>424.547</ele>
        <time>2021-05-26T13:17:40Z</time>
      </trkpt>
      <trkpt lat="41.766519" lon="2.513961">
        <ele>424.811</ele>
        <time>2021-05-26T13:17:42Z</time>
      </trkpt>
      <trkpt lat="41.766507" lon="2.513937">
        <ele>425.108</ele>
        <time>2021-05-26T13:17:44Z</time>
      </trkpt>
      <trkpt lat="41.766496" lon="2.513909">
        <ele>425.599</ele>
        <time>2021-05-26T13:17:46Z</time>
      </trkpt>
      <trkpt lat="41.766483" lon="2.513879">
        <ele>426.056</ele>
        <time>2021-05-26T13:17:48Z</time>
      </trkpt>
      <trkpt lat="41.766472" lon="2.513848">
        <ele>426.623</ele>
        <time>2021-05-26T13:17:50Z</time>
      </trkpt>
      <trkpt lat="41.766459" lon="2.513820">
        <ele>427.296</ele>
        <time>2021-05-26T13:17:52Z</time>
      </trkpt>
      <trkpt lat="41.766451" lon="2.513792">
        <ele>427.871</ele>
        <time>2021-05-26T13:17:54Z</time>
      </trkpt>
      <trkpt lat="41.766441" lon="2.513762">
        <ele>428.537</ele>
        <time>2021-05-26T13:17:56Z</time>
      </trkpt>
      <trkpt lat="41.766427" lon="2.513732">
        <ele>429.144</ele>
        <time>2021-05-26T13:17:58Z</time>
      </trkpt>
      <trkpt lat="41.766410" lon="2.513699">
        <ele>429.881</ele>
        <time>2021-05-26T13:18:00Z</time>
      </trkpt>
      <trkpt lat="41.766393" lon="2.513661">
        <ele>430.642</ele>
        <time>2021-05-26T13:18:02Z</time>
      </trkpt>
      <trkpt lat="41.766371" lon="2.513635">
        <ele>431.122</ele>
        <time>2021-05-26T13:18:04Z</time>
      </trkpt>
      <trkpt lat="41.766348" lon="2.513621">
        <ele>431.114</ele>
        <time>2021-05-26T13:18:06Z</time>
      </trkpt>
      <trkpt lat="41.766324" lon="2.513606">
        <ele>431.208</ele>
        <time>2021-05-26T13:18:08Z</time>
      </trkpt>
      <trkpt lat="41.766300" lon="2.513596">
        <ele>431.121</ele>
        <time>2021-05-26T13:18:10Z</time>
      </trkpt>
      <trkpt lat="41.766279" lon="2.513581">
        <ele>431.148</ele>
        <time>2021-05-26T13:18:12Z</time>
      </trkpt>
      <trkpt lat="41.766198" lon="2.513511">
        <ele>431.585</ele>
        <time>2021-05-26T13:18:21Z</time>
      </trkpt>
      <trkpt lat="41.766138" lon="2.513410">
        <ele>432.818</ele>
        <time>2021-05-26T13:18:29Z</time>
      </trkpt>
      <trkpt lat="41.766117" lon="2.513382">
        <ele>433.153</ele>
        <time>2021-05-26T13:18:33Z</time>
      </trkpt>
      <trkpt lat="41.766068" lon="2.513339">
        <ele>433.389</ele>
        <time>2021-05-26T13:18:37Z</time>
      </trkpt>
      <trkpt lat="41.766048" lon="2.513329">
        <ele>433.286</ele>
        <time>2021-05-26T13:18:39Z</time>
      </trkpt>
      <trkpt lat="41.766022" lon="2.513316">
        <ele>433.113</ele>
        <time>2021-05-26T13:18:41Z</time>
      </trkpt>
      <trkpt lat="41.766006" lon="2.513297">
        <ele>433.392</ele>
        <time>2021-05-26T13:18:43Z</time>
      </trkpt>
      <trkpt lat="41.765929" lon="2.513217">
        <ele>433.573</ele>
        <time>2021-05-26T13:18:51Z</time>
      </trkpt>
      <trkpt lat="41.765911" lon="2.513094">
        <ele>435.320</ele>
        <time>2021-05-26T13:19:00Z</time>
      </trkpt>
      <trkpt lat="41.765905" lon="2.513061">
        <ele>435.708</ele>
        <time>2021-05-26T13:19:02Z</time>
      </trkpt>
      <trkpt lat="41.765896" lon="2.513028">
        <ele>436.056</ele>
        <time>2021-05-26T13:19:04Z</time>
      </trkpt>
      <trkpt lat="41.765884" lon="2.512998">
        <ele>436.253</ele>
        <time>2021-05-26T13:19:06Z</time>
      </trkpt>
      <trkpt lat="41.765872" lon="2.512974">
        <ele>436.260</ele>
        <time>2021-05-26T13:19:08Z</time>
      </trkpt>
      <trkpt lat="41.765864" lon="2.512950">
        <ele>436.433</ele>
        <time>2021-05-26T13:19:10Z</time>
      </trkpt>
      <trkpt lat="41.765849" lon="2.512921">
        <ele>436.478</ele>
        <time>2021-05-26T13:19:13Z</time>
      </trkpt>
      <trkpt lat="41.765839" lon="2.512891">
        <ele>436.524</ele>
        <time>2021-05-26T13:19:15Z</time>
      </trkpt>
      <trkpt lat="41.765837" lon="2.512867">
        <ele>436.871</ele>
        <time>2021-05-26T13:19:16Z</time>
      </trkpt>
      <trkpt lat="41.765827" lon="2.512839">
        <ele>437.128</ele>
        <time>2021-05-26T13:19:18Z</time>
      </trkpt>
      <trkpt lat="41.765809" lon="2.512808">
        <ele>437.545</ele>
        <time>2021-05-26T13:19:20Z</time>
      </trkpt>
      <trkpt lat="41.765794" lon="2.512782">
        <ele>437.847</ele>
        <time>2021-05-26T13:19:22Z</time>
      </trkpt>
      <trkpt lat="41.765780" lon="2.512761">
        <ele>438.011</ele>
        <time>2021-05-26T13:19:24Z</time>
      </trkpt>
      <trkpt lat="41.765764" lon="2.512743">
        <ele>438.208</ele>
        <time>2021-05-26T13:19:26Z</time>
      </trkpt>
      <trkpt lat="41.765753" lon="2.512721">
        <ele>438.481</ele>
        <time>2021-05-26T13:19:28Z</time>
      </trkpt>
      <trkpt lat="41.765743" lon="2.512698">
        <ele>438.538</ele>
        <time>2021-05-26T13:19:30Z</time>
      </trkpt>
      <trkpt lat="41.765724" lon="2.512667">
        <ele>438.785</ele>
        <time>2021-05-26T13:19:33Z</time>
      </trkpt>
      <trkpt lat="41.765712" lon="2.512637">
        <ele>438.958</ele>
        <time>2021-05-26T13:19:35Z</time>
      </trkpt>
      <trkpt lat="41.765632" lon="2.512568">
        <ele>438.773</ele>
        <time>2021-05-26T13:19:42Z</time>
      </trkpt>
      <trkpt lat="41.765589" lon="2.512459">
        <ele>439.039</ele>
        <time>2021-05-26T13:19:52Z</time>
      </trkpt>
      <trkpt lat="41.765623" lon="2.512415">
        <ele>440.026</ele>
        <time>2021-05-26T13:19:55Z</time>
      </trkpt>
      <trkpt lat="41.765663" lon="2.512438">
        <ele>440.443</ele>
        <time>2021-05-26T13:19:59Z</time>
      </trkpt>
      <trkpt lat="41.765678" lon="2.512467">
        <ele>440.279</ele>
        <time>2021-05-26T13:20:01Z</time>
      </trkpt>
      <trkpt lat="41.765696" lon="2.512489">
        <ele>440.205</ele>
        <time>2021-05-26T13:20:03Z</time>
      </trkpt>
      <trkpt lat="41.765712" lon="2.512513">
        <ele>440.125</ele>
        <time>2021-05-26T13:20:05Z</time>
      </trkpt>
      <trkpt lat="41.765729" lon="2.512530">
        <ele>440.208</ele>
        <time>2021-05-26T13:20:07Z</time>
      </trkpt>
      <trkpt lat="41.765746" lon="2.512544">
        <ele>440.364</ele>
        <time>2021-05-26T13:20:09Z</time>
      </trkpt>
      <trkpt lat="41.765761" lon="2.512564">
        <ele>440.211</ele>
        <time>2021-05-26T13:20:11Z</time>
      </trkpt>
      <trkpt lat="41.765778" lon="2.512576">
        <ele>440.348</ele>
        <time>2021-05-26T13:20:13Z</time>
      </trkpt>
      <trkpt lat="41.765798" lon="2.512593">
        <ele>440.391</ele>
        <time>2021-05-26T13:20:16Z</time>
      </trkpt>
      <trkpt lat="41.765812" lon="2.512610">
        <ele>440.226</ele>
        <time>2021-05-26T13:20:18Z</time>
      </trkpt>
      <trkpt lat="41.765837" lon="2.512626">
        <ele>440.332</ele>
        <time>2021-05-26T13:20:21Z</time>
      </trkpt>
      <trkpt lat="41.765860" lon="2.512629">
        <ele>441.059</ele>
        <time>2021-05-26T13:20:23Z</time>
      </trkpt>
      <trkpt lat="41.765890" lon="2.512636">
        <ele>441.916</ele>
        <time>2021-05-26T13:20:25Z</time>
      </trkpt>
      <trkpt lat="41.765907" lon="2.512649">
        <ele>442.214</ele>
        <time>2021-05-26T13:20:27Z</time>
      </trkpt>
      <trkpt lat="41.765928" lon="2.512658">
        <ele>442.854</ele>
        <time>2021-05-26T13:20:29Z</time>
      </trkpt>
      <trkpt lat="41.765945" lon="2.512666">
        <ele>443.209</ele>
        <time>2021-05-26T13:20:31Z</time>
      </trkpt>
      <trkpt lat="41.765962" lon="2.512680">
        <ele>443.608</ele>
        <time>2021-05-26T13:20:33Z</time>
      </trkpt>
      <trkpt lat="41.765989" lon="2.512696">
        <ele>444.258</ele>
        <time>2021-05-26T13:20:35Z</time>
      </trkpt>
      <trkpt lat="41.766011" lon="2.512711">
        <ele>444.785</ele>
        <time>2021-05-26T13:20:37Z</time>
      </trkpt>
      <trkpt lat="41.766033" lon="2.512723">
        <ele>445.312</ele>
        <time>2021-05-26T13:20:39Z</time>
      </trkpt>
      <trkpt lat="41.766051" lon="2.512732">
        <ele>445.785</ele>
        <time>2021-05-26T13:20:41Z</time>
      </trkpt>
      <trkpt lat="41.766071" lon="2.512745">
        <ele>446.270</ele>
        <time>2021-05-26T13:20:44Z</time>
      </trkpt>
      <trkpt lat="41.766088" lon="2.512764">
        <ele>446.466</ele>
        <time>2021-05-26T13:20:47Z</time>
      </trkpt>
      <trkpt lat="41.766105" lon="2.512781">
        <ele>446.773</ele>
        <time>2021-05-26T13:20:49Z</time>
      </trkpt>
      <trkpt lat="41.766119" lon="2.512803">
        <ele>446.760</ele>
        <time>2021-05-26T13:20:52Z</time>
      </trkpt>
      <trkpt lat="41.766135" lon="2.512821">
        <ele>446.789</ele>
        <time>2021-05-26T13:20:55Z</time>
      </trkpt>
      <trkpt lat="41.766156" lon="2.512834">
        <ele>446.906</ele>
        <time>2021-05-26T13:20:57Z</time>
      </trkpt>
      <trkpt lat="41.766175" lon="2.512850">
        <ele>447.026</ele>
        <time>2021-05-26T13:20:59Z</time>
      </trkpt>
      <trkpt lat="41.766194" lon="2.512858">
        <ele>447.308</ele>
        <time>2021-05-26T13:21:01Z</time>
      </trkpt>
      <trkpt lat="41.766215" lon="2.512864">
        <ele>447.675</ele>
        <time>2021-05-26T13:21:03Z</time>
      </trkpt>
      <trkpt lat="41.766234" lon="2.512870">
        <ele>448.022</ele>
        <time>2021-05-26T13:21:05Z</time>
      </trkpt>
      <trkpt lat="41.766256" lon="2.512883">
        <ele>448.229</ele>
        <time>2021-05-26T13:21:07Z</time>
      </trkpt>
      <trkpt lat="41.766273" lon="2.512898">
        <ele>448.282</ele>
        <time>2021-05-26T13:21:09Z</time>
      </trkpt>
      <trkpt lat="41.766296" lon="2.512903">
        <ele>448.757</ele>
        <time>2021-05-26T13:21:12Z</time>
      </trkpt>
      <trkpt lat="41.766316" lon="2.512910">
        <ele>449.023</ele>
        <time>2021-05-26T13:21:13Z</time>
      </trkpt>
      <trkpt lat="41.766339" lon="2.512935">
        <ele>448.990</ele>
        <time>2021-05-26T13:21:15Z</time>
      </trkpt>
      <trkpt lat="41.766361" lon="2.512947">
        <ele>449.137</ele>
        <time>2021-05-26T13:21:17Z</time>
      </trkpt>
      <trkpt lat="41.766379" lon="2.512956">
        <ele>449.392</ele>
        <time>2021-05-26T13:21:19Z</time>
      </trkpt>
      <trkpt lat="41.766398" lon="2.512969">
        <ele>449.273</ele>
        <time>2021-05-26T13:21:21Z</time>
      </trkpt>
      <trkpt lat="41.766421" lon="2.512982">
        <ele>448.920</ele>
        <time>2021-05-26T13:21:24Z</time>
      </trkpt>
      <trkpt lat="41.766439" lon="2.512986">
        <ele>448.808</ele>
        <time>2021-05-26T13:21:26Z</time>
      </trkpt>
      <trkpt lat="41.766462" lon="2.512993">
        <ele>448.756</ele>
        <time>2021-05-26T13:21:28Z</time>
      </trkpt>
      <trkpt lat="41.766485" lon="2.513001">
        <ele>448.553</ele>
        <time>2021-05-26T13:21:30Z</time>
      </trkpt>
      <trkpt lat="41.766507" lon="2.513011">
        <ele>448.370</ele>
        <time>2021-05-26T13:21:32Z</time>
      </trkpt>
      <trkpt lat="41.766533" lon="2.513027">
        <ele>447.873</ele>
        <time>2021-05-26T13:21:35Z</time>
      </trkpt>
      <trkpt lat="41.766551" lon="2.513027">
        <ele>447.868</ele>
        <time>2021-05-26T13:21:38Z</time>
      </trkpt>
      <trkpt lat="41.766569" lon="2.513016">
        <ele>448.264</ele>
        <time>2021-05-26T13:21:41Z</time>
      </trkpt>
      <trkpt lat="41.766599" lon="2.512999">
        <ele>448.721</ele>
        <time>2021-05-26T13:21:43Z</time>
      </trkpt>
      <trkpt lat="41.766618" lon="2.512978">
        <ele>449.478</ele>
        <time>2021-05-26T13:21:45Z</time>
      </trkpt>
      <trkpt lat="41.766635" lon="2.512957">
        <ele>450.126</ele>
        <time>2021-05-26T13:21:47Z</time>
      </trkpt>
      <trkpt lat="41.766654" lon="2.512940">
        <ele>450.747</ele>
        <time>2021-05-26T13:21:49Z</time>
      </trkpt>
      <trkpt lat="41.766672" lon="2.512921">
        <ele>451.411</ele>
        <time>2021-05-26T13:21:51Z</time>
      </trkpt>
      <trkpt lat="41.766689" lon="2.512903">
        <ele>451.908</ele>
        <time>2021-05-26T13:21:53Z</time>
      </trkpt>
      <trkpt lat="41.766703" lon="2.512882">
        <ele>452.639</ele>
        <time>2021-05-26T13:21:55Z</time>
      </trkpt>
      <trkpt lat="41.766717" lon="2.512862">
        <ele>453.136</ele>
        <time>2021-05-26T13:21:57Z</time>
      </trkpt>
      <trkpt lat="41.766736" lon="2.512840">
        <ele>453.773</ele>
        <time>2021-05-26T13:21:59Z</time>
      </trkpt>
      <trkpt lat="41.766758" lon="2.512819">
        <ele>454.246</ele>
        <time>2021-05-26T13:22:01Z</time>
      </trkpt>
      <trkpt lat="41.766778" lon="2.512800">
        <ele>454.621</ele>
        <time>2021-05-26T13:22:03Z</time>
      </trkpt>
      <trkpt lat="41.766796" lon="2.512788">
        <ele>454.827</ele>
        <time>2021-05-26T13:22:05Z</time>
      </trkpt>
      <trkpt lat="41.766824" lon="2.512771">
        <ele>455.194</ele>
        <time>2021-05-26T13:22:07Z</time>
      </trkpt>
      <trkpt lat="41.766850" lon="2.512756">
        <ele>455.351</ele>
        <time>2021-05-26T13:22:09Z</time>
      </trkpt>
      <trkpt lat="41.766875" lon="2.512750">
        <ele>455.345</ele>
        <time>2021-05-26T13:22:12Z</time>
      </trkpt>
      <trkpt lat="41.766896" lon="2.512746">
        <ele>455.247</ele>
        <time>2021-05-26T13:22:13Z</time>
      </trkpt>
      <trkpt lat="41.766920" lon="2.512740">
        <ele>455.311</ele>
        <time>2021-05-26T13:22:15Z</time>
      </trkpt>
      <trkpt lat="41.766948" lon="2.512741">
        <ele>455.008</ele>
        <time>2021-05-26T13:22:17Z</time>
      </trkpt>
      <trkpt lat="41.766974" lon="2.512738">
        <ele>454.911</ele>
        <time>2021-05-26T13:22:19Z</time>
      </trkpt>
      <trkpt lat="41.767002" lon="2.512728">
        <ele>454.968</ele>
        <time>2021-05-26T13:22:21Z</time>
      </trkpt>
      <trkpt lat="41.767024" lon="2.512721">
        <ele>454.845</ele>
        <time>2021-05-26T13:22:23Z</time>
      </trkpt>
      <trkpt lat="41.767049" lon="2.512713">
        <ele>454.818</ele>
        <time>2021-05-26T13:22:25Z</time>
      </trkpt>
      <trkpt lat="41.767065" lon="2.512702">
        <ele>454.883</ele>
        <time>2021-05-26T13:22:27Z</time>
      </trkpt>
      <trkpt lat="41.767088" lon="2.512688">
        <ele>454.979</ele>
        <time>2021-05-26T13:22:29Z</time>
      </trkpt>
      <trkpt lat="41.767115" lon="2.512676">
        <ele>454.866</ele>
        <time>2021-05-26T13:22:31Z</time>
      </trkpt>
      <trkpt lat="41.767142" lon="2.512656">
        <ele>454.823</ele>
        <time>2021-05-26T13:22:33Z</time>
      </trkpt>
      <trkpt lat="41.767159" lon="2.512632">
        <ele>455.018</ele>
        <time>2021-05-26T13:22:35Z</time>
      </trkpt>
      <trkpt lat="41.767178" lon="2.512609">
        <ele>455.198</ele>
        <time>2021-05-26T13:22:37Z</time>
      </trkpt>
      <trkpt lat="41.767201" lon="2.512587">
        <ele>455.117</ele>
        <time>2021-05-26T13:22:39Z</time>
      </trkpt>
      <trkpt lat="41.767227" lon="2.512565">
        <ele>455.008</ele>
        <time>2021-05-26T13:22:41Z</time>
      </trkpt>
      <trkpt lat="41.767248" lon="2.512533">
        <ele>455.228</ele>
        <time>2021-05-26T13:22:43Z</time>
      </trkpt>
      <trkpt lat="41.767271" lon="2.512505">
        <ele>455.475</ele>
        <time>2021-05-26T13:22:45Z</time>
      </trkpt>
      <trkpt lat="41.767290" lon="2.512476">
        <ele>455.782</ele>
        <time>2021-05-26T13:22:47Z</time>
      </trkpt>
      <trkpt lat="41.767311" lon="2.512447">
        <ele>455.995</ele>
        <time>2021-05-26T13:22:49Z</time>
      </trkpt>
      <trkpt lat="41.767324" lon="2.512428">
        <ele>456.090</ele>
        <time>2021-05-26T13:22:51Z</time>
      </trkpt>
      <trkpt lat="41.767340" lon="2.512407">
        <ele>456.126</ele>
        <time>2021-05-26T13:22:53Z</time>
      </trkpt>
      <trkpt lat="41.767357" lon="2.512382">
        <ele>456.323</ele>
        <time>2021-05-26T13:22:55Z</time>
      </trkpt>
      <trkpt lat="41.767377" lon="2.512355">
        <ele>456.440</ele>
        <time>2021-05-26T13:22:57Z</time>
      </trkpt>
      <trkpt lat="41.767394" lon="2.512331">
        <ele>456.433</ele>
        <time>2021-05-26T13:22:59Z</time>
      </trkpt>
      <trkpt lat="41.767411" lon="2.512305">
        <ele>456.523</ele>
        <time>2021-05-26T13:23:01Z</time>
      </trkpt>
      <trkpt lat="41.767429" lon="2.512292">
        <ele>456.415</ele>
        <time>2021-05-26T13:23:02Z</time>
      </trkpt>
      <trkpt lat="41.767449" lon="2.512264">
        <ele>456.408</ele>
        <time>2021-05-26T13:23:04Z</time>
      </trkpt>
      <trkpt lat="41.767446" lon="2.512233">
        <ele>456.890</ele>
        <time>2021-05-26T13:23:06Z</time>
      </trkpt>
      <trkpt lat="41.767431" lon="2.512207">
        <ele>457.547</ele>
        <time>2021-05-26T13:23:09Z</time>
      </trkpt>
      <trkpt lat="41.767422" lon="2.512167">
        <ele>458.344</ele>
        <time>2021-05-26T13:23:11Z</time>
      </trkpt>
      <trkpt lat="41.767422" lon="2.512138">
        <ele>458.857</ele>
        <time>2021-05-26T13:23:13Z</time>
      </trkpt>
      <trkpt lat="41.767419" lon="2.512107">
        <ele>459.492</ele>
        <time>2021-05-26T13:23:16Z</time>
      </trkpt>
      <trkpt lat="41.767424" lon="2.512082">
        <ele>459.838</ele>
        <time>2021-05-26T13:23:18Z</time>
      </trkpt>
      <trkpt lat="41.767429" lon="2.512056">
        <ele>460.115</ele>
        <time>2021-05-26T13:23:20Z</time>
      </trkpt>
      <trkpt lat="41.767422" lon="2.512030">
        <ele>460.722</ele>
        <time>2021-05-26T13:23:23Z</time>
      </trkpt>
      <trkpt lat="41.767422" lon="2.512006">
        <ele>461.155</ele>
        <time>2021-05-26T13:23:26Z</time>
      </trkpt>
      <trkpt lat="41.767428" lon="2.511983">
        <ele>461.407</ele>
        <time>2021-05-26T13:23:28Z</time>
      </trkpt>
      <trkpt lat="41.767441" lon="2.511958">
        <ele>461.617</ele>
        <time>2021-05-26T13:23:30Z</time>
      </trkpt>
      <trkpt lat="41.767434" lon="2.511897">
        <ele>462.608</ele>
        <time>2021-05-26T13:23:36Z</time>
      </trkpt>
      <trkpt lat="41.767420" lon="2.511828">
        <ele>463.832</ele>
        <time>2021-05-26T13:23:42Z</time>
      </trkpt>
      <trkpt lat="41.767374" lon="2.511717">
        <ele>466.139</ele>
        <time>2021-05-26T13:23:52Z</time>
      </trkpt>
      <trkpt lat="41.767365" lon="2.511688">
        <ele>466.636</ele>
        <time>2021-05-26T13:23:55Z</time>
      </trkpt>
      <trkpt lat="41.767361" lon="2.511649">
        <ele>467.399</ele>
        <time>2021-05-26T13:23:58Z</time>
      </trkpt>
      <trkpt lat="41.767354" lon="2.511619">
        <ele>467.854</ele>
        <time>2021-05-26T13:24:00Z</time>
      </trkpt>
      <trkpt lat="41.767349" lon="2.511593">
        <ele>468.290</ele>
        <time>2021-05-26T13:24:02Z</time>
      </trkpt>
      <trkpt lat="41.767341" lon="2.511562">
        <ele>468.757</ele>
        <time>2021-05-26T13:24:05Z</time>
      </trkpt>
      <trkpt lat="41.767332" lon="2.511527">
        <ele>469.314</ele>
        <time>2021-05-26T13:24:09Z</time>
      </trkpt>
      <trkpt lat="41.767335" lon="2.511498">
        <ele>469.727</ele>
        <time>2021-05-26T13:24:10Z</time>
      </trkpt>
      <trkpt lat="41.767336" lon="2.511474">
        <ele>470.068</ele>
        <time>2021-05-26T13:24:12Z</time>
      </trkpt>
      <trkpt lat="41.767334" lon="2.511446">
        <ele>470.414</ele>
        <time>2021-05-26T13:24:14Z</time>
      </trkpt>
      <trkpt lat="41.767328" lon="2.511422">
        <ele>470.808</ele>
        <time>2021-05-26T13:24:16Z</time>
      </trkpt>
      <trkpt lat="41.767328" lon="2.511387">
        <ele>471.369</ele>
        <time>2021-05-26T13:24:18Z</time>
      </trkpt>
      <trkpt lat="41.767331" lon="2.511363">
        <ele>471.856</ele>
        <time>2021-05-26T13:24:20Z</time>
      </trkpt>
      <trkpt lat="41.767330" lon="2.511331">
        <ele>472.563</ele>
        <time>2021-05-26T13:24:22Z</time>
      </trkpt>
      <trkpt lat="41.767327" lon="2.511293">
        <ele>473.446</ele>
        <time>2021-05-26T13:24:25Z</time>
      </trkpt>
      <trkpt lat="41.767325" lon="2.511254">
        <ele>474.381</ele>
        <time>2021-05-26T13:24:28Z</time>
      </trkpt>
      <trkpt lat="41.767330" lon="2.511220">
        <ele>475.087</ele>
        <time>2021-05-26T13:24:31Z</time>
      </trkpt>
      <trkpt lat="41.767337" lon="2.511184">
        <ele>475.714</ele>
        <time>2021-05-26T13:24:32Z</time>
      </trkpt>
      <trkpt lat="41.767344" lon="2.511156">
        <ele>476.371</ele>
        <time>2021-05-26T13:24:34Z</time>
      </trkpt>
      <trkpt lat="41.767366" lon="2.511090">
        <ele>477.673</ele>
        <time>2021-05-26T13:24:40Z</time>
      </trkpt>
      <trkpt lat="41.767419" lon="2.510986">
        <ele>479.985</ele>
        <time>2021-05-26T13:24:59Z</time>
      </trkpt>
      <trkpt lat="41.767520" lon="2.510977">
        <ele>478.913</ele>
        <time>2021-05-26T13:25:16Z</time>
      </trkpt>
      <trkpt lat="41.767546" lon="2.510994">
        <ele>478.408</ele>
        <time>2021-05-26T13:25:20Z</time>
      </trkpt>
      <trkpt lat="41.767576" lon="2.511005">
        <ele>478.114</ele>
        <time>2021-05-26T13:25:22Z</time>
      </trkpt>
      <trkpt lat="41.767596" lon="2.511007">
        <ele>478.151</ele>
        <time>2021-05-26T13:25:25Z</time>
      </trkpt>
      <trkpt lat="41.767617" lon="2.511008">
        <ele>478.178</ele>
        <time>2021-05-26T13:25:28Z</time>
      </trkpt>
      <trkpt lat="41.767638" lon="2.511006">
        <ele>478.121</ele>
        <time>2021-05-26T13:25:31Z</time>
      </trkpt>
      <trkpt lat="41.767655" lon="2.510997">
        <ele>478.476</ele>
        <time>2021-05-26T13:25:33Z</time>
      </trkpt>
      <trkpt lat="41.767676" lon="2.510990">
        <ele>478.612</ele>
        <time>2021-05-26T13:25:37Z</time>
      </trkpt>
      <trkpt lat="41.767696" lon="2.510981">
        <ele>478.839</ele>
        <time>2021-05-26T13:25:38Z</time>
      </trkpt>
      <trkpt lat="41.767726" lon="2.510958">
        <ele>479.346</ele>
        <time>2021-05-26T13:25:41Z</time>
      </trkpt>
      <trkpt lat="41.767741" lon="2.510938">
        <ele>479.823</ele>
        <time>2021-05-26T13:25:44Z</time>
      </trkpt>
      <trkpt lat="41.767757" lon="2.510919">
        <ele>480.283</ele>
        <time>2021-05-26T13:25:45Z</time>
      </trkpt>
      <trkpt lat="41.767771" lon="2.510904">
        <ele>480.511</ele>
        <time>2021-05-26T13:25:48Z</time>
      </trkpt>
      <trkpt lat="41.767785" lon="2.510879">
        <ele>481.008</ele>
        <time>2021-05-26T13:25:52Z</time>
      </trkpt>
      <trkpt lat="41.767797" lon="2.510853">
        <ele>481.639</ele>
        <time>2021-05-26T13:25:55Z</time>
      </trkpt>
      <trkpt lat="41.767819" lon="2.510830">
        <ele>482.216</ele>
        <time>2021-05-26T13:25:58Z</time>
      </trkpt>
      <trkpt lat="41.767839" lon="2.510809">
        <ele>482.993</ele>
        <time>2021-05-26T13:26:01Z</time>
      </trkpt>
      <trkpt lat="41.767898" lon="2.510702">
        <ele>486.016</ele>
        <time>2021-05-26T13:26:11Z</time>
      </trkpt>
      <trkpt lat="41.767910" lon="2.510676">
        <ele>486.771</ele>
        <time>2021-05-26T13:26:13Z</time>
      </trkpt>
      <trkpt lat="41.767922" lon="2.510654">
        <ele>487.347</ele>
        <time>2021-05-26T13:26:15Z</time>
      </trkpt>
      <trkpt lat="41.767936" lon="2.510631">
        <ele>488.074</ele>
        <time>2021-05-26T13:26:17Z</time>
      </trkpt>
      <trkpt lat="41.767953" lon="2.510596">
        <ele>488.911</ele>
        <time>2021-05-26T13:26:19Z</time>
      </trkpt>
      <trkpt lat="41.767971" lon="2.510575">
        <ele>489.567</ele>
        <time>2021-05-26T13:26:21Z</time>
      </trkpt>
      <trkpt lat="41.767988" lon="2.510557">
        <ele>490.081</ele>
        <time>2021-05-26T13:26:23Z</time>
      </trkpt>
      <trkpt lat="41.768010" lon="2.510542">
        <ele>490.419</ele>
        <time>2021-05-26T13:26:26Z</time>
      </trkpt>
      <trkpt lat="41.768030" lon="2.510547">
        <ele>490.208</ele>
        <time>2021-05-26T13:26:28Z</time>
      </trkpt>
      <trkpt lat="41.768049" lon="2.510557">
        <ele>490.023</ele>
        <time>2021-05-26T13:26:30Z</time>
      </trkpt>
      <trkpt lat="41.768075" lon="2.510570">
        <ele>489.740</ele>
        <time>2021-05-26T13:26:33Z</time>
      </trkpt>
      <trkpt lat="41.768100" lon="2.510586">
        <ele>489.417</ele>
        <time>2021-05-26T13:26:35Z</time>
      </trkpt>
      <trkpt lat="41.768128" lon="2.510603">
        <ele>489.180</ele>
        <time>2021-05-26T13:26:37Z</time>
      </trkpt>
      <trkpt lat="41.768148" lon="2.510605">
        <ele>489.155</ele>
        <time>2021-05-26T13:26:38Z</time>
      </trkpt>
      <trkpt lat="41.768178" lon="2.510614">
        <ele>489.021</ele>
        <time>2021-05-26T13:26:40Z</time>
      </trkpt>
      <trkpt lat="41.768196" lon="2.510620">
        <ele>488.968</ele>
        <time>2021-05-26T13:26:42Z</time>
      </trkpt>
      <trkpt lat="41.768214" lon="2.510614">
        <ele>489.185</ele>
        <time>2021-05-26T13:26:44Z</time>
      </trkpt>
      <trkpt lat="41.768241" lon="2.510625">
        <ele>488.971</ele>
        <time>2021-05-26T13:26:49Z</time>
      </trkpt>
      <trkpt lat="41.768259" lon="2.510642">
        <ele>488.641</ele>
        <time>2021-05-26T13:26:50Z</time>
      </trkpt>
      <trkpt lat="41.768274" lon="2.510658">
        <ele>488.215</ele>
        <time>2021-05-26T13:26:52Z</time>
      </trkpt>
      <trkpt lat="41.768293" lon="2.510679">
        <ele>487.708</ele>
        <time>2021-05-26T13:26:54Z</time>
      </trkpt>
      <trkpt lat="41.768315" lon="2.510714">
        <ele>486.974</ele>
        <time>2021-05-26T13:26:57Z</time>
      </trkpt>
      <trkpt lat="41.768324" lon="2.510745">
        <ele>486.261</ele>
        <time>2021-05-26T13:26:59Z</time>
      </trkpt>
      <trkpt lat="41.768334" lon="2.510775">
        <ele>485.568</ele>
        <time>2021-05-26T13:27:01Z</time>
      </trkpt>
      <trkpt lat="41.768343" lon="2.510810">
        <ele>484.711</ele>
        <time>2021-05-26T13:27:03Z</time>
      </trkpt>
      <trkpt lat="41.768349" lon="2.510839">
        <ele>484.056</ele>
        <time>2021-05-26T13:27:05Z</time>
      </trkpt>
      <trkpt lat="41.768365" lon="2.510863">
        <ele>483.612</ele>
        <time>2021-05-26T13:27:07Z</time>
      </trkpt>
      <trkpt lat="41.768378" lon="2.510893">
        <ele>483.099</ele>
        <time>2021-05-26T13:27:09Z</time>
      </trkpt>
      <trkpt lat="41.768380" lon="2.510917">
        <ele>482.416</ele>
        <time>2021-05-26T13:27:11Z</time>
      </trkpt>
      <trkpt lat="41.768389" lon="2.510943">
        <ele>481.927</ele>
        <time>2021-05-26T13:27:13Z</time>
      </trkpt>
      <trkpt lat="41.768403" lon="2.510961">
        <ele>481.568</ele>
        <time>2021-05-26T13:27:15Z</time>
      </trkpt>
      <trkpt lat="41.768415" lon="2.510982">
        <ele>481.114</ele>
        <time>2021-05-26T13:27:17Z</time>
      </trkpt>
      <trkpt lat="41.768430" lon="2.511003">
        <ele>480.608</ele>
        <time>2021-05-26T13:27:19Z</time>
      </trkpt>
      <trkpt lat="41.768444" lon="2.511026">
        <ele>480.139</ele>
        <time>2021-05-26T13:27:21Z</time>
      </trkpt>
      <trkpt lat="41.768464" lon="2.511034">
        <ele>479.976</ele>
        <time>2021-05-26T13:27:23Z</time>
      </trkpt>
      <trkpt lat="41.768492" lon="2.511043">
        <ele>479.883</ele>
        <time>2021-05-26T13:27:26Z</time>
      </trkpt>
      <trkpt lat="41.768513" lon="2.511049">
        <ele>479.686</ele>
        <time>2021-05-26T13:27:28Z</time>
      </trkpt>
      <trkpt lat="41.768531" lon="2.511055">
        <ele>479.551</ele>
        <time>2021-05-26T13:27:30Z</time>
      </trkpt>
      <trkpt lat="41.768555" lon="2.511054">
        <ele>479.637</ele>
        <time>2021-05-26T13:27:32Z</time>
      </trkpt>
      <trkpt lat="41.768582" lon="2.511048">
        <ele>479.834</ele>
        <time>2021-05-26T13:27:34Z</time>
      </trkpt>
      <trkpt lat="41.768600" lon="2.511035">
        <ele>480.281</ele>
        <time>2021-05-26T13:27:36Z</time>
      </trkpt>
      <trkpt lat="41.768617" lon="2.511022">
        <ele>480.634</ele>
        <time>2021-05-26T13:27:38Z</time>
      </trkpt>
      <trkpt lat="41.768638" lon="2.511007">
        <ele>481.255</ele>
        <time>2021-05-26T13:27:40Z</time>
      </trkpt>
      <trkpt lat="41.768659" lon="2.510994">
        <ele>481.810</ele>
        <time>2021-05-26T13:27:42Z</time>
      </trkpt>
      <trkpt lat="41.768678" lon="2.510981">
        <ele>482.308</ele>
        <time>2021-05-26T13:27:44Z</time>
      </trkpt>
      <trkpt lat="41.768698" lon="2.510953">
        <ele>483.490</ele>
        <time>2021-05-26T13:27:46Z</time>
      </trkpt>
      <trkpt lat="41.768712" lon="2.510936">
        <ele>484.037</ele>
        <time>2021-05-26T13:27:48Z</time>
      </trkpt>
      <trkpt lat="41.768726" lon="2.510920">
        <ele>484.664</ele>
        <time>2021-05-26T13:27:50Z</time>
      </trkpt>
      <trkpt lat="41.768743" lon="2.510909">
        <ele>485.157</ele>
        <time>2021-05-26T13:27:52Z</time>
      </trkpt>
      <trkpt lat="41.768762" lon="2.510909">
        <ele>485.362</ele>
        <time>2021-05-26T13:27:53Z</time>
      </trkpt>
      <trkpt lat="41.768818" lon="2.510921">
        <ele>485.538</ele>
        <time>2021-05-26T13:27:56Z</time>
      </trkpt>
      <trkpt lat="41.768836" lon="2.510930">
        <ele>485.465</ele>
        <time>2021-05-26T13:27:57Z</time>
      </trkpt>
      <trkpt lat="41.768854" lon="2.510941">
        <ele>485.232</ele>
        <time>2021-05-26T13:27:58Z</time>
      </trkpt>
      <trkpt lat="41.768883" lon="2.510959">
        <ele>484.964</ele>
        <time>2021-05-26T13:28:00Z</time>
      </trkpt>
      <trkpt lat="41.768901" lon="2.510985">
        <ele>484.306</ele>
        <time>2021-05-26T13:28:02Z</time>
      </trkpt>
      <trkpt lat="41.768928" lon="2.511012">
        <ele>483.816</ele>
        <time>2021-05-26T13:28:04Z</time>
      </trkpt>
      <trkpt lat="41.768942" lon="2.511027">
        <ele>483.608</ele>
        <time>2021-05-26T13:28:05Z</time>
      </trkpt>
      <trkpt lat="41.768963" lon="2.511041">
        <ele>483.553</ele>
        <time>2021-05-26T13:28:07Z</time>
      </trkpt>
      <trkpt lat="41.768984" lon="2.511056">
        <ele>483.440</ele>
        <time>2021-05-26T13:28:09Z</time>
      </trkpt>
      <trkpt lat="41.768997" lon="2.511077">
        <ele>483.047</ele>
        <time>2021-05-26T13:28:11Z</time>
      </trkpt>
      <trkpt lat="41.769009" lon="2.511109">
        <ele>482.290</ele>
        <time>2021-05-26T13:28:13Z</time>
      </trkpt>
      <trkpt lat="41.769018" lon="2.511141">
        <ele>481.595</ele>
        <time>2021-05-26T13:28:16Z</time>
      </trkpt>
      <trkpt lat="41.769024" lon="2.511169">
        <ele>480.971</ele>
        <time>2021-05-26T13:28:18Z</time>
      </trkpt>
      <trkpt lat="41.769029" lon="2.511209">
        <ele>479.928</ele>
        <time>2021-05-26T13:28:20Z</time>
      </trkpt>
      <trkpt lat="41.769054" lon="2.511234">
        <ele>479.795</ele>
        <time>2021-05-26T13:28:22Z</time>
      </trkpt>
      <trkpt lat="41.769076" lon="2.511249">
        <ele>479.736</ele>
        <time>2021-05-26T13:28:24Z</time>
      </trkpt>
      <trkpt lat="41.769091" lon="2.511264">
        <ele>479.617</ele>
        <time>2021-05-26T13:28:26Z</time>
      </trkpt>
      <trkpt lat="41.769112" lon="2.511276">
        <ele>479.718</ele>
        <time>2021-05-26T13:28:28Z</time>
      </trkpt>
      <trkpt lat="41.769126" lon="2.511298">
        <ele>479.508</ele>
        <time>2021-05-26T13:28:30Z</time>
      </trkpt>
      <trkpt lat="41.769138" lon="2.511322">
        <ele>479.160</ele>
        <time>2021-05-26T13:28:32Z</time>
      </trkpt>
      <trkpt lat="41.769146" lon="2.511346">
        <ele>478.697</ele>
        <time>2021-05-26T13:28:34Z</time>
      </trkpt>
      <trkpt lat="41.769160" lon="2.511374">
        <ele>478.274</ele>
        <time>2021-05-26T13:28:36Z</time>
      </trkpt>
      <trkpt lat="41.769180" lon="2.511417">
        <ele>477.547</ele>
        <time>2021-05-26T13:28:38Z</time>
      </trkpt>
      <trkpt lat="41.769192" lon="2.511440">
        <ele>477.192</ele>
        <time>2021-05-26T13:28:39Z</time>
      </trkpt>
      <trkpt lat="41.769221" lon="2.511463">
        <ele>477.038</ele>
        <time>2021-05-26T13:28:41Z</time>
      </trkpt>
      <trkpt lat="41.769254" lon="2.511493">
        <ele>476.765</ele>
        <time>2021-05-26T13:28:43Z</time>
      </trkpt>
      <trkpt lat="41.769265" lon="2.511515">
        <ele>476.372</ele>
        <time>2021-05-26T13:28:44Z</time>
      </trkpt>
      <trkpt lat="41.769280" lon="2.511530">
        <ele>476.167</ele>
        <time>2021-05-26T13:28:45Z</time>
      </trkpt>
      <trkpt lat="41.769311" lon="2.511559">
        <ele>475.781</ele>
        <time>2021-05-26T13:28:47Z</time>
      </trkpt>
      <trkpt lat="41.769351" lon="2.511565">
        <ele>476.019</ele>
        <time>2021-05-26T13:28:49Z</time>
      </trkpt>
      <trkpt lat="41.769389" lon="2.511566">
        <ele>476.508</ele>
        <time>2021-05-26T13:28:51Z</time>
      </trkpt>
      <trkpt lat="41.769407" lon="2.511565">
        <ele>476.833</ele>
        <time>2021-05-26T13:28:52Z</time>
      </trkpt>
      <trkpt lat="41.769430" lon="2.511558">
        <ele>477.370</ele>
        <time>2021-05-26T13:28:53Z</time>
      </trkpt>
      <trkpt lat="41.769451" lon="2.511553">
        <ele>477.887</ele>
        <time>2021-05-26T13:28:54Z</time>
      </trkpt>
      <trkpt lat="41.769470" lon="2.511551">
        <ele>478.190</ele>
        <time>2021-05-26T13:28:55Z</time>
      </trkpt>
      <trkpt lat="41.769488" lon="2.511549">
        <ele>478.395</ele>
        <time>2021-05-26T13:28:56Z</time>
      </trkpt>
      <trkpt lat="41.769518" lon="2.511564">
        <ele>478.361</ele>
        <time>2021-05-26T13:28:58Z</time>
      </trkpt>
      <trkpt lat="41.769552" lon="2.511581">
        <ele>478.268</ele>
        <time>2021-05-26T13:29:00Z</time>
      </trkpt>
      <trkpt lat="41.769570" lon="2.511591">
        <ele>478.275</ele>
        <time>2021-05-26T13:29:01Z</time>
      </trkpt>
      <trkpt lat="41.769587" lon="2.511597">
        <ele>478.365</ele>
        <time>2021-05-26T13:29:02Z</time>
      </trkpt>
      <trkpt lat="41.769618" lon="2.511616">
        <ele>478.368</ele>
        <time>2021-05-26T13:29:04Z</time>
      </trkpt>
      <trkpt lat="41.769646" lon="2.511643">
        <ele>478.114</ele>
        <time>2021-05-26T13:29:06Z</time>
      </trkpt>
      <trkpt lat="41.769664" lon="2.511665">
        <ele>478.008</ele>
        <time>2021-05-26T13:29:08Z</time>
      </trkpt>
      <trkpt lat="41.769684" lon="2.511697">
        <ele>477.733</ele>
        <time>2021-05-26T13:29:10Z</time>
      </trkpt>
      <trkpt lat="41.769701" lon="2.511732">
        <ele>477.260</ele>
        <time>2021-05-26T13:29:12Z</time>
      </trkpt>
      <trkpt lat="41.769711" lon="2.511761">
        <ele>476.857</ele>
        <time>2021-05-26T13:29:14Z</time>
      </trkpt>
      <trkpt lat="41.769723" lon="2.511796">
        <ele>476.270</ele>
        <time>2021-05-26T13:29:16Z</time>
      </trkpt>
      <trkpt lat="41.769738" lon="2.511827">
        <ele>475.825</ele>
        <time>2021-05-26T13:29:18Z</time>
      </trkpt>
      <trkpt lat="41.769750" lon="2.511866">
        <ele>475.251</ele>
        <time>2021-05-26T13:29:20Z</time>
      </trkpt>
      <trkpt lat="41.769762" lon="2.511895">
        <ele>474.998</ele>
        <time>2021-05-26T13:29:22Z</time>
      </trkpt>
      <trkpt lat="41.769771" lon="2.511926">
        <ele>474.475</ele>
        <time>2021-05-26T13:29:24Z</time>
      </trkpt>
      <trkpt lat="41.769780" lon="2.511957">
        <ele>474.126</ele>
        <time>2021-05-26T13:29:26Z</time>
      </trkpt>
      <trkpt lat="41.769792" lon="2.511991">
        <ele>473.847</ele>
        <time>2021-05-26T13:29:28Z</time>
      </trkpt>
      <trkpt lat="41.769806" lon="2.512033">
        <ele>473.411</ele>
        <time>2021-05-26T13:29:30Z</time>
      </trkpt>
      <trkpt lat="41.769815" lon="2.512073">
        <ele>473.008</ele>
        <time>2021-05-26T13:29:32Z</time>
      </trkpt>
      <trkpt lat="41.769824" lon="2.512107">
        <ele>472.619</ele>
        <time>2021-05-26T13:29:34Z</time>
      </trkpt>
      <trkpt lat="41.769832" lon="2.512148">
        <ele>472.116</ele>
        <time>2021-05-26T13:29:36Z</time>
      </trkpt>
      <trkpt lat="41.769845" lon="2.512185">
        <ele>471.863</ele>
        <time>2021-05-26T13:29:38Z</time>
      </trkpt>
      <trkpt lat="41.769857" lon="2.512219">
        <ele>471.516</ele>
        <time>2021-05-26T13:29:40Z</time>
      </trkpt>
      <trkpt lat="41.769870" lon="2.512252">
        <ele>471.111</ele>
        <time>2021-05-26T13:29:42Z</time>
      </trkpt>
      <trkpt lat="41.769885" lon="2.512290">
        <ele>470.647</ele>
        <time>2021-05-26T13:29:44Z</time>
      </trkpt>
      <trkpt lat="41.769898" lon="2.512322">
        <ele>470.174</ele>
        <time>2021-05-26T13:29:46Z</time>
      </trkpt>
      <trkpt lat="41.769914" lon="2.512350">
        <ele>469.891</ele>
        <time>2021-05-26T13:29:48Z</time>
      </trkpt>
      <trkpt lat="41.769930" lon="2.512380">
        <ele>469.537</ele>
        <time>2021-05-26T13:29:50Z</time>
      </trkpt>
      <trkpt lat="41.769945" lon="2.512412">
        <ele>469.049</ele>
        <time>2021-05-26T13:29:52Z</time>
      </trkpt>
      <trkpt lat="41.769963" lon="2.512442">
        <ele>468.713</ele>
        <time>2021-05-26T13:29:54Z</time>
      </trkpt>
      <trkpt lat="41.769979" lon="2.512483">
        <ele>468.108</ele>
        <time>2021-05-26T13:29:56Z</time>
      </trkpt>
      <trkpt lat="41.769993" lon="2.512519">
        <ele>467.610</ele>
        <time>2021-05-26T13:29:58Z</time>
      </trkpt>
      <trkpt lat="41.770008" lon="2.512550">
        <ele>467.517</ele>
        <time>2021-05-26T13:30:00Z</time>
      </trkpt>
      <trkpt lat="41.770020" lon="2.512578">
        <ele>467.354</ele>
        <time>2021-05-26T13:30:02Z</time>
      </trkpt>
      <trkpt lat="41.770033" lon="2.512614">
        <ele>467.117</ele>
        <time>2021-05-26T13:30:04Z</time>
      </trkpt>
      <trkpt lat="41.770049" lon="2.512644">
        <ele>467.182</ele>
        <time>2021-05-26T13:30:06Z</time>
      </trkpt>
      <trkpt lat="41.770066" lon="2.512673">
        <ele>467.188</ele>
        <time>2021-05-26T13:30:08Z</time>
      </trkpt>
      <trkpt lat="41.770081" lon="2.512702">
        <ele>467.115</ele>
        <time>2021-05-26T13:30:10Z</time>
      </trkpt>
      <trkpt lat="41.770097" lon="2.512734">
        <ele>467.052</ele>
        <time>2021-05-26T13:30:12Z</time>
      </trkpt>
      <trkpt lat="41.770115" lon="2.512762">
        <ele>467.119</ele>
        <time>2021-05-26T13:30:14Z</time>
      </trkpt>
      <trkpt lat="41.770129" lon="2.512795">
        <ele>467.109</ele>
        <time>2021-05-26T13:30:16Z</time>
      </trkpt>
      <trkpt lat="41.770141" lon="2.512832">
        <ele>467.119</ele>
        <time>2021-05-26T13:30:18Z</time>
      </trkpt>
      <trkpt lat="41.770152" lon="2.512875">
        <ele>466.908</ele>
        <time>2021-05-26T13:30:20Z</time>
      </trkpt>
      <trkpt lat="41.770160" lon="2.512907">
        <ele>466.868</ele>
        <time>2021-05-26T13:30:22Z</time>
      </trkpt>
      <trkpt lat="41.770171" lon="2.512952">
        <ele>466.715</ele>
        <time>2021-05-26T13:30:24Z</time>
      </trkpt>
      <trkpt lat="41.770181" lon="2.512998">
        <ele>466.532</ele>
        <time>2021-05-26T13:30:26Z</time>
      </trkpt>
      <trkpt lat="41.770201" lon="2.513067">
        <ele>466.345</ele>
        <time>2021-05-26T13:30:29Z</time>
      </trkpt>
      <trkpt lat="41.770209" lon="2.513096">
        <ele>466.470</ele>
        <time>2021-05-26T13:30:30Z</time>
      </trkpt>
      <trkpt lat="41.770217" lon="2.513125">
        <ele>466.426</ele>
        <time>2021-05-26T13:30:31Z</time>
      </trkpt>
      <trkpt lat="41.770226" lon="2.513155">
        <ele>466.513</ele>
        <time>2021-05-26T13:30:32Z</time>
      </trkpt>
      <trkpt lat="41.770238" lon="2.513181">
        <ele>466.780</ele>
        <time>2021-05-26T13:30:33Z</time>
      </trkpt>
      <trkpt lat="41.770252" lon="2.513208">
        <ele>466.994</ele>
        <time>2021-05-26T13:30:34Z</time>
      </trkpt>
      <trkpt lat="41.770263" lon="2.513237">
        <ele>467.057</ele>
        <time>2021-05-26T13:30:35Z</time>
      </trkpt>
      <trkpt lat="41.770274" lon="2.513264">
        <ele>467.222</ele>
        <time>2021-05-26T13:30:36Z</time>
      </trkpt>
      <trkpt lat="41.770288" lon="2.513292">
        <ele>467.308</ele>
        <time>2021-05-26T13:30:37Z</time>
      </trkpt>
      <trkpt lat="41.770299" lon="2.513321">
        <ele>467.466</ele>
        <time>2021-05-26T13:30:38Z</time>
      </trkpt>
      <trkpt lat="41.770313" lon="2.513340">
        <ele>467.513</ele>
        <time>2021-05-26T13:30:39Z</time>
      </trkpt>
      <trkpt lat="41.770326" lon="2.513364">
        <ele>467.580</ele>
        <time>2021-05-26T13:30:40Z</time>
      </trkpt>
      <trkpt lat="41.770340" lon="2.513387">
        <ele>467.563</ele>
        <time>2021-05-26T13:30:41Z</time>
      </trkpt>
      <trkpt lat="41.770353" lon="2.513411">
        <ele>467.438</ele>
        <time>2021-05-26T13:30:42Z</time>
      </trkpt>
      <trkpt lat="41.770369" lon="2.513436">
        <ele>467.524</ele>
        <time>2021-05-26T13:30:43Z</time>
      </trkpt>
      <trkpt lat="41.770383" lon="2.513459">
        <ele>467.441</ele>
        <time>2021-05-26T13:30:44Z</time>
      </trkpt>
      <trkpt lat="41.770396" lon="2.513481">
        <ele>467.448</ele>
        <time>2021-05-26T13:30:45Z</time>
      </trkpt>
      <trkpt lat="41.770412" lon="2.513503">
        <ele>467.465</ele>
        <time>2021-05-26T13:30:46Z</time>
      </trkpt>
      <trkpt lat="41.770430" lon="2.513523">
        <ele>467.568</ele>
        <time>2021-05-26T13:30:47Z</time>
      </trkpt>
      <trkpt lat="41.770447" lon="2.513545">
        <ele>467.414</ele>
        <time>2021-05-26T13:30:48Z</time>
      </trkpt>
      <trkpt lat="41.770476" lon="2.513592">
        <ele>467.308</ele>
        <time>2021-05-26T13:30:50Z</time>
      </trkpt>
      <trkpt lat="41.770491" lon="2.513614">
        <ele>467.383</ele>
        <time>2021-05-26T13:30:51Z</time>
      </trkpt>
      <trkpt lat="41.770503" lon="2.513639">
        <ele>467.080</ele>
        <time>2021-05-26T13:30:52Z</time>
      </trkpt>
      <trkpt lat="41.770516" lon="2.513664">
        <ele>466.817</ele>
        <time>2021-05-26T13:30:53Z</time>
      </trkpt>
      <trkpt lat="41.770529" lon="2.513686">
        <ele>466.630</ele>
        <time>2021-05-26T13:30:54Z</time>
      </trkpt>
      <trkpt lat="41.770545" lon="2.513708">
        <ele>466.565</ele>
        <time>2021-05-26T13:30:55Z</time>
      </trkpt>
      <trkpt lat="41.770562" lon="2.513727">
        <ele>466.251</ele>
        <time>2021-05-26T13:30:56Z</time>
      </trkpt>
      <trkpt lat="41.770578" lon="2.513747">
        <ele>465.668</ele>
        <time>2021-05-26T13:30:57Z</time>
      </trkpt>
      <trkpt lat="41.770596" lon="2.513764">
        <ele>465.145</ele>
        <time>2021-05-26T13:30:58Z</time>
      </trkpt>
      <trkpt lat="41.770613" lon="2.513784">
        <ele>464.424</ele>
        <time>2021-05-26T13:30:59Z</time>
      </trkpt>
      <trkpt lat="41.770630" lon="2.513801">
        <ele>463.804</ele>
        <time>2021-05-26T13:31:00Z</time>
      </trkpt>
      <trkpt lat="41.770644" lon="2.513819">
        <ele>463.314</ele>
        <time>2021-05-26T13:31:01Z</time>
      </trkpt>
      <trkpt lat="41.770660" lon="2.513862">
        <ele>462.208</ele>
        <time>2021-05-26T13:31:03Z</time>
      </trkpt>
      <trkpt lat="41.770672" lon="2.513883">
        <ele>461.629</ele>
        <time>2021-05-26T13:31:04Z</time>
      </trkpt>
      <trkpt lat="41.770686" lon="2.513902">
        <ele>460.916</ele>
        <time>2021-05-26T13:31:05Z</time>
      </trkpt>
      <trkpt lat="41.770700" lon="2.513920">
        <ele>460.343</ele>
        <time>2021-05-26T13:31:06Z</time>
      </trkpt>
      <trkpt lat="41.770722" lon="2.513941">
        <ele>459.556</ele>
        <time>2021-05-26T13:31:08Z</time>
      </trkpt>
      <trkpt lat="41.770744" lon="2.513943">
        <ele>459.071</ele>
        <time>2021-05-26T13:31:10Z</time>
      </trkpt>
      <trkpt lat="41.770771" lon="2.513931">
        <ele>458.737</ele>
        <time>2021-05-26T13:31:12Z</time>
      </trkpt>
      <trkpt lat="41.770792" lon="2.513902">
        <ele>458.724</ele>
        <time>2021-05-26T13:31:14Z</time>
      </trkpt>
      <trkpt lat="41.770807" lon="2.513883">
        <ele>458.781</ele>
        <time>2021-05-26T13:31:16Z</time>
      </trkpt>
      <trkpt lat="41.770823" lon="2.513865">
        <ele>458.752</ele>
        <time>2021-05-26T13:31:18Z</time>
      </trkpt>
      <trkpt lat="41.770838" lon="2.513845">
        <ele>458.853</ele>
        <time>2021-05-26T13:31:20Z</time>
      </trkpt>
      <trkpt lat="41.770857" lon="2.513822">
        <ele>458.708</ele>
        <time>2021-05-26T13:31:23Z</time>
      </trkpt>
      <trkpt lat="41.770877" lon="2.513800">
        <ele>458.708</ele>
        <time>2021-05-26T13:31:25Z</time>
      </trkpt>
      <trkpt lat="41.770895" lon="2.513783">
        <ele>458.552</ele>
        <time>2021-05-26T13:31:27Z</time>
      </trkpt>
      <trkpt lat="41.770917" lon="2.513775">
        <ele>458.169</ele>
        <time>2021-05-26T13:31:29Z</time>
      </trkpt>
      <trkpt lat="41.770926" lon="2.513742">
        <ele>458.716</ele>
        <time>2021-05-26T13:31:31Z</time>
      </trkpt>
      <trkpt lat="41.770934" lon="2.513718">
        <ele>459.159</ele>
        <time>2021-05-26T13:31:33Z</time>
      </trkpt>
      <trkpt lat="41.770933" lon="2.513693">
        <ele>459.884</ele>
        <time>2021-05-26T13:31:35Z</time>
      </trkpt>
      <trkpt lat="41.770932" lon="2.513667">
        <ele>460.440</ele>
        <time>2021-05-26T13:31:37Z</time>
      </trkpt>
      <trkpt lat="41.770922" lon="2.513633">
        <ele>461.547</ele>
        <time>2021-05-26T13:31:39Z</time>
      </trkpt>
      <trkpt lat="41.770920" lon="2.513607">
        <ele>462.254</ele>
        <time>2021-05-26T13:31:40Z</time>
      </trkpt>
      <trkpt lat="41.770918" lon="2.513583">
        <ele>462.737</ele>
        <time>2021-05-26T13:31:41Z</time>
      </trkpt>
      <trkpt lat="41.770922" lon="2.513556">
        <ele>463.149</ele>
        <time>2021-05-26T13:31:42Z</time>
      </trkpt>
      <trkpt lat="41.770926" lon="2.513533">
        <ele>463.513</ele>
        <time>2021-05-26T13:31:43Z</time>
      </trkpt>
      <trkpt lat="41.770934" lon="2.513490">
        <ele>464.208</ele>
        <time>2021-05-26T13:31:45Z</time>
      </trkpt>
      <trkpt lat="41.770931" lon="2.513457">
        <ele>464.940</ele>
        <time>2021-05-26T13:31:47Z</time>
      </trkpt>
      <trkpt lat="41.770943" lon="2.513427">
        <ele>465.277</ele>
        <time>2021-05-26T13:31:49Z</time>
      </trkpt>
      <trkpt lat="41.770953" lon="2.513398">
        <ele>465.634</ele>
        <time>2021-05-26T13:31:51Z</time>
      </trkpt>
      <trkpt lat="41.770977" lon="2.513383">
        <ele>465.437</ele>
        <time>2021-05-26T13:31:53Z</time>
      </trkpt>
      <trkpt lat="41.771002" lon="2.513380">
        <ele>465.012</ele>
        <time>2021-05-26T13:31:55Z</time>
      </trkpt>
      <trkpt lat="41.771032" lon="2.513391">
        <ele>464.298</ele>
        <time>2021-05-26T13:31:57Z</time>
      </trkpt>
      <trkpt lat="41.771056" lon="2.513401">
        <ele>463.675</ele>
        <time>2021-05-26T13:31:59Z</time>
      </trkpt>
      <trkpt lat="41.771082" lon="2.513409">
        <ele>462.932</ele>
        <time>2021-05-26T13:32:01Z</time>
      </trkpt>
      <trkpt lat="41.771106" lon="2.513418">
        <ele>462.334</ele>
        <time>2021-05-26T13:32:03Z</time>
      </trkpt>
      <trkpt lat="41.771130" lon="2.513421">
        <ele>461.755</ele>
        <time>2021-05-26T13:32:05Z</time>
      </trkpt>
      <trkpt lat="41.771152" lon="2.513429">
        <ele>461.010</ele>
        <time>2021-05-26T13:32:07Z</time>
      </trkpt>
      <trkpt lat="41.771174" lon="2.513450">
        <ele>460.008</ele>
        <time>2021-05-26T13:32:09Z</time>
      </trkpt>
      <trkpt lat="41.771193" lon="2.513465">
        <ele>459.150</ele>
        <time>2021-05-26T13:32:11Z</time>
      </trkpt>
      <trkpt lat="41.771281" lon="2.513517">
        <ele>455.497</ele>
        <time>2021-05-26T13:32:17Z</time>
      </trkpt>
      <trkpt lat="41.771391" lon="2.513527">
        <ele>452.074</ele>
        <time>2021-05-26T13:32:23Z</time>
      </trkpt>
      <trkpt lat="41.771490" lon="2.513435">
        <ele>453.767</ele>
        <time>2021-05-26T13:32:27Z</time>
      </trkpt>
      <trkpt lat="41.771510" lon="2.513408">
        <ele>454.292</ele>
        <time>2021-05-26T13:32:28Z</time>
      </trkpt>
      <trkpt lat="41.771526" lon="2.513383">
        <ele>454.648</ele>
        <time>2021-05-26T13:32:29Z</time>
      </trkpt>
      <trkpt lat="41.771538" lon="2.513353">
        <ele>455.255</ele>
        <time>2021-05-26T13:32:30Z</time>
      </trkpt>
      <trkpt lat="41.771555" lon="2.513324">
        <ele>455.632</ele>
        <time>2021-05-26T13:32:31Z</time>
      </trkpt>
      <trkpt lat="41.771570" lon="2.513299">
        <ele>455.928</ele>
        <time>2021-05-26T13:32:32Z</time>
      </trkpt>
      <trkpt lat="41.771596" lon="2.513231">
        <ele>456.989</ele>
        <time>2021-05-26T13:32:35Z</time>
      </trkpt>
      <trkpt lat="41.771687" lon="2.513207">
        <ele>456.317</ele>
        <time>2021-05-26T13:32:42Z</time>
      </trkpt>
      <trkpt lat="41.771788" lon="2.513224">
        <ele>456.508</ele>
        <time>2021-05-26T13:32:49Z</time>
      </trkpt>
      <trkpt lat="41.771893" lon="2.513241">
        <ele>456.769</ele>
        <time>2021-05-26T13:32:56Z</time>
      </trkpt>
      <trkpt lat="41.771965" lon="2.513227">
        <ele>457.776</ele>
        <time>2021-05-26T13:33:01Z</time>
      </trkpt>
      <trkpt lat="41.771990" lon="2.513234">
        <ele>458.193</ele>
        <time>2021-05-26T13:33:03Z</time>
      </trkpt>
      <trkpt lat="41.772016" lon="2.513244">
        <ele>458.576</ele>
        <time>2021-05-26T13:33:05Z</time>
      </trkpt>
      <trkpt lat="41.772036" lon="2.513248">
        <ele>458.851</ele>
        <time>2021-05-26T13:33:07Z</time>
      </trkpt>
      <trkpt lat="41.772054" lon="2.513267">
        <ele>458.867</ele>
        <time>2021-05-26T13:33:09Z</time>
      </trkpt>
      <trkpt lat="41.772075" lon="2.513289">
        <ele>458.894</ele>
        <time>2021-05-26T13:33:11Z</time>
      </trkpt>
      <trkpt lat="41.772089" lon="2.513315">
        <ele>458.551</ele>
        <time>2021-05-26T13:33:13Z</time>
      </trkpt>
      <trkpt lat="41.772101" lon="2.513334">
        <ele>458.427</ele>
        <time>2021-05-26T13:33:15Z</time>
      </trkpt>
      <trkpt lat="41.772113" lon="2.513360">
        <ele>458.368</ele>
        <time>2021-05-26T13:33:18Z</time>
      </trkpt>
      <trkpt lat="41.772119" lon="2.513388">
        <ele>458.114</ele>
        <time>2021-05-26T13:33:20Z</time>
      </trkpt>
      <trkpt lat="41.772125" lon="2.513416">
        <ele>457.908</ele>
        <time>2021-05-26T13:33:22Z</time>
      </trkpt>
      <trkpt lat="41.772133" lon="2.513449">
        <ele>457.779</ele>
        <time>2021-05-26T13:33:24Z</time>
      </trkpt>
      <trkpt lat="41.772141" lon="2.513474">
        <ele>457.636</ele>
        <time>2021-05-26T13:33:26Z</time>
      </trkpt>
      <trkpt lat="41.772141" lon="2.513498">
        <ele>457.363</ele>
        <time>2021-05-26T13:33:28Z</time>
      </trkpt>
      <trkpt lat="41.772136" lon="2.513528">
        <ele>456.846</ele>
        <time>2021-05-26T13:33:32Z</time>
      </trkpt>
      <trkpt lat="41.772143" lon="2.513555">
        <ele>456.731</ele>
        <time>2021-05-26T13:33:33Z</time>
      </trkpt>
      <trkpt lat="41.772145" lon="2.513596">
        <ele>456.257</ele>
        <time>2021-05-26T13:33:36Z</time>
      </trkpt>
      <trkpt lat="41.772146" lon="2.513632">
        <ele>456.094</ele>
        <time>2021-05-26T13:33:39Z</time>
      </trkpt>
      <trkpt lat="41.772150" lon="2.513668">
        <ele>455.921</ele>
        <time>2021-05-26T13:33:40Z</time>
      </trkpt>
      <trkpt lat="41.772161" lon="2.513698">
        <ele>456.035</ele>
        <time>2021-05-26T13:33:42Z</time>
      </trkpt>
      <trkpt lat="41.772170" lon="2.513733">
        <ele>456.186</ele>
        <time>2021-05-26T13:33:44Z</time>
      </trkpt>
      <trkpt lat="41.772182" lon="2.513764">
        <ele>456.314</ele>
        <time>2021-05-26T13:33:46Z</time>
      </trkpt>
      <trkpt lat="41.772195" lon="2.513790">
        <ele>456.508</ele>
        <time>2021-05-26T13:33:48Z</time>
      </trkpt>
      <trkpt lat="41.772208" lon="2.513819">
        <ele>456.830</ele>
        <time>2021-05-26T13:33:50Z</time>
      </trkpt>
      <trkpt lat="41.772218" lon="2.513853">
        <ele>457.067</ele>
        <time>2021-05-26T13:33:52Z</time>
      </trkpt>
      <trkpt lat="41.772237" lon="2.513900">
        <ele>457.414</ele>
        <time>2021-05-26T13:33:55Z</time>
      </trkpt>
      <trkpt lat="41.772247" lon="2.513939">
        <ele>457.447</ele>
        <time>2021-05-26T13:33:57Z</time>
      </trkpt>
      <trkpt lat="41.772262" lon="2.513970">
        <ele>457.622</ele>
        <time>2021-05-26T13:33:59Z</time>
      </trkpt>
      <trkpt lat="41.772273" lon="2.514008">
        <ele>457.528</ele>
        <time>2021-05-26T13:34:01Z</time>
      </trkpt>
      <trkpt lat="41.772287" lon="2.514039">
        <ele>457.755</ele>
        <time>2021-05-26T13:34:03Z</time>
      </trkpt>
      <trkpt lat="41.772302" lon="2.514068">
        <ele>457.992</ele>
        <time>2021-05-26T13:34:05Z</time>
      </trkpt>
      <trkpt lat="41.772314" lon="2.514098">
        <ele>458.044</ele>
        <time>2021-05-26T13:34:07Z</time>
      </trkpt>
      <trkpt lat="41.772328" lon="2.514128">
        <ele>458.205</ele>
        <time>2021-05-26T13:34:09Z</time>
      </trkpt>
      <trkpt lat="41.772341" lon="2.514158">
        <ele>458.415</ele>
        <time>2021-05-26T13:34:11Z</time>
      </trkpt>
      <trkpt lat="41.772351" lon="2.514190">
        <ele>458.308</ele>
        <time>2021-05-26T13:34:13Z</time>
      </trkpt>
      <trkpt lat="41.772364" lon="2.514223">
        <ele>458.431</ele>
        <time>2021-05-26T13:34:15Z</time>
      </trkpt>
      <trkpt lat="41.772375" lon="2.514255">
        <ele>458.498</ele>
        <time>2021-05-26T13:34:17Z</time>
      </trkpt>
      <trkpt lat="41.772383" lon="2.514285">
        <ele>458.395</ele>
        <time>2021-05-26T13:34:19Z</time>
      </trkpt>
      <trkpt lat="41.772394" lon="2.514313">
        <ele>458.398</ele>
        <time>2021-05-26T13:34:21Z</time>
      </trkpt>
      <trkpt lat="41.772405" lon="2.514342">
        <ele>458.383</ele>
        <time>2021-05-26T13:34:23Z</time>
      </trkpt>
      <trkpt lat="41.772418" lon="2.514368">
        <ele>458.429</ele>
        <time>2021-05-26T13:34:25Z</time>
      </trkpt>
      <trkpt lat="41.772431" lon="2.514396">
        <ele>458.476</ele>
        <time>2021-05-26T13:34:27Z</time>
      </trkpt>
      <trkpt lat="41.772440" lon="2.514423">
        <ele>458.343</ele>
        <time>2021-05-26T13:34:29Z</time>
      </trkpt>
      <trkpt lat="41.772452" lon="2.514449">
        <ele>458.464</ele>
        <time>2021-05-26T13:34:31Z</time>
      </trkpt>
      <trkpt lat="41.772463" lon="2.514478">
        <ele>458.506</ele>
        <time>2021-05-26T13:34:33Z</time>
      </trkpt>
      <trkpt lat="41.772471" lon="2.514510">
        <ele>458.616</ele>
        <time>2021-05-26T13:34:35Z</time>
      </trkpt>
      <trkpt lat="41.772482" lon="2.514535">
        <ele>458.708</ele>
        <time>2021-05-26T13:34:37Z</time>
      </trkpt>
      <trkpt lat="41.772493" lon="2.514563">
        <ele>458.933</ele>
        <time>2021-05-26T13:34:39Z</time>
      </trkpt>
      <trkpt lat="41.772507" lon="2.514590">
        <ele>459.210</ele>
        <time>2021-05-26T13:34:41Z</time>
      </trkpt>
      <trkpt lat="41.772522" lon="2.514617">
        <ele>459.587</ele>
        <time>2021-05-26T13:34:43Z</time>
      </trkpt>
      <trkpt lat="41.772535" lon="2.514649">
        <ele>459.670</ele>
        <time>2021-05-26T13:34:45Z</time>
      </trkpt>
      <trkpt lat="41.772550" lon="2.514679">
        <ele>459.815</ele>
        <time>2021-05-26T13:34:47Z</time>
      </trkpt>
      <trkpt lat="41.772561" lon="2.514711">
        <ele>459.941</ele>
        <time>2021-05-26T13:34:49Z</time>
      </trkpt>
      <trkpt lat="41.772569" lon="2.514743">
        <ele>459.798</ele>
        <time>2021-05-26T13:34:51Z</time>
      </trkpt>
      <trkpt lat="41.772576" lon="2.514777">
        <ele>459.555</ele>
        <time>2021-05-26T13:34:53Z</time>
      </trkpt>
      <trkpt lat="41.772581" lon="2.514811">
        <ele>459.289</ele>
        <time>2021-05-26T13:34:55Z</time>
      </trkpt>
      <trkpt lat="41.772591" lon="2.514843">
        <ele>459.006</ele>
        <time>2021-05-26T13:34:57Z</time>
      </trkpt>
      <trkpt lat="41.772602" lon="2.514872">
        <ele>458.926</ele>
        <time>2021-05-26T13:34:59Z</time>
      </trkpt>
      <trkpt lat="41.772616" lon="2.514901">
        <ele>458.908</ele>
        <time>2021-05-26T13:35:01Z</time>
      </trkpt>
      <trkpt lat="41.772631" lon="2.514935">
        <ele>458.895</ele>
        <time>2021-05-26T13:35:03Z</time>
      </trkpt>
      <trkpt lat="41.772651" lon="2.514972">
        <ele>458.712</ele>
        <time>2021-05-26T13:35:05Z</time>
      </trkpt>
      <trkpt lat="41.772670" lon="2.514988">
        <ele>458.949</ele>
        <time>2021-05-26T13:35:06Z</time>
      </trkpt>
      <trkpt lat="41.772686" lon="2.515005">
        <ele>458.952</ele>
        <time>2021-05-26T13:35:07Z</time>
      </trkpt>
      <trkpt lat="41.772701" lon="2.515022">
        <ele>458.947</ele>
        <time>2021-05-26T13:35:08Z</time>
      </trkpt>
      <trkpt lat="41.772716" lon="2.515039">
        <ele>458.953</ele>
        <time>2021-05-26T13:35:09Z</time>
      </trkpt>
      <trkpt lat="41.772732" lon="2.515056">
        <ele>458.890</ele>
        <time>2021-05-26T13:35:10Z</time>
      </trkpt>
      <trkpt lat="41.772748" lon="2.515075">
        <ele>458.837</ele>
        <time>2021-05-26T13:35:11Z</time>
      </trkpt>
      <trkpt lat="41.772765" lon="2.515092">
        <ele>458.868</ele>
        <time>2021-05-26T13:35:12Z</time>
      </trkpt>
      <trkpt lat="41.772783" lon="2.515107">
        <ele>458.842</ele>
        <time>2021-05-26T13:35:13Z</time>
      </trkpt>
      <trkpt lat="41.772804" lon="2.515121">
        <ele>459.026</ele>
        <time>2021-05-26T13:35:14Z</time>
      </trkpt>
      <trkpt lat="41.772824" lon="2.515133">
        <ele>459.108</ele>
        <time>2021-05-26T13:35:15Z</time>
      </trkpt>
      <trkpt lat="41.772844" lon="2.515144">
        <ele>459.323</ele>
        <time>2021-05-26T13:35:16Z</time>
      </trkpt>
      <trkpt lat="41.772863" lon="2.515155">
        <ele>459.540</ele>
        <time>2021-05-26T13:35:17Z</time>
      </trkpt>
      <trkpt lat="41.772881" lon="2.515170">
        <ele>459.617</ele>
        <time>2021-05-26T13:35:18Z</time>
      </trkpt>
      <trkpt lat="41.772899" lon="2.515182">
        <ele>459.720</ele>
        <time>2021-05-26T13:35:19Z</time>
      </trkpt>
      <trkpt lat="41.772917" lon="2.515200">
        <ele>459.785</ele>
        <time>2021-05-26T13:35:20Z</time>
      </trkpt>
      <trkpt lat="41.772936" lon="2.515219">
        <ele>459.791</ele>
        <time>2021-05-26T13:35:21Z</time>
      </trkpt>
      <trkpt lat="41.772954" lon="2.515242">
        <ele>459.658</ele>
        <time>2021-05-26T13:35:22Z</time>
      </trkpt>
      <trkpt lat="41.772969" lon="2.515266">
        <ele>459.465</ele>
        <time>2021-05-26T13:35:23Z</time>
      </trkpt>
      <trkpt lat="41.772983" lon="2.515294">
        <ele>459.244</ele>
        <time>2021-05-26T13:35:24Z</time>
      </trkpt>
      <trkpt lat="41.772995" lon="2.515320">
        <ele>459.105</ele>
        <time>2021-05-26T13:35:25Z</time>
      </trkpt>
      <trkpt lat="41.773008" lon="2.515344">
        <ele>459.015</ele>
        <time>2021-05-26T13:35:26Z</time>
      </trkpt>
      <trkpt lat="41.773016" lon="2.515368">
        <ele>458.808</ele>
        <time>2021-05-26T13:35:27Z</time>
      </trkpt>
      <trkpt lat="41.773025" lon="2.515393">
        <ele>458.661</ele>
        <time>2021-05-26T13:35:28Z</time>
      </trkpt>
      <trkpt lat="41.773033" lon="2.515420">
        <ele>458.438</ele>
        <time>2021-05-26T13:35:29Z</time>
      </trkpt>
      <trkpt lat="41.773042" lon="2.515452">
        <ele>458.235</ele>
        <time>2021-05-26T13:35:30Z</time>
      </trkpt>
      <trkpt lat="41.773052" lon="2.515481">
        <ele>458.068</ele>
        <time>2021-05-26T13:35:31Z</time>
      </trkpt>
      <trkpt lat="41.773064" lon="2.515508">
        <ele>457.843</ele>
        <time>2021-05-26T13:35:32Z</time>
      </trkpt>
      <trkpt lat="41.773076" lon="2.515535">
        <ele>457.789</ele>
        <time>2021-05-26T13:35:33Z</time>
      </trkpt>
      <trkpt lat="41.773088" lon="2.515559">
        <ele>457.586</ele>
        <time>2021-05-26T13:35:34Z</time>
      </trkpt>
      <trkpt lat="41.773102" lon="2.515582">
        <ele>457.583</ele>
        <time>2021-05-26T13:35:35Z</time>
      </trkpt>
      <trkpt lat="41.773118" lon="2.515600">
        <ele>457.638</ele>
        <time>2021-05-26T13:35:36Z</time>
      </trkpt>
      <trkpt lat="41.773137" lon="2.515616">
        <ele>457.770</ele>
        <time>2021-05-26T13:35:37Z</time>
      </trkpt>
      <trkpt lat="41.773156" lon="2.515631">
        <ele>457.817</ele>
        <time>2021-05-26T13:35:38Z</time>
      </trkpt>
      <trkpt lat="41.773173" lon="2.515641">
        <ele>457.908</ele>
        <time>2021-05-26T13:35:39Z</time>
      </trkpt>
      <trkpt lat="41.773192" lon="2.515652">
        <ele>458.120</ele>
        <time>2021-05-26T13:35:40Z</time>
      </trkpt>
      <trkpt lat="41.773210" lon="2.515663">
        <ele>458.217</ele>
        <time>2021-05-26T13:35:41Z</time>
      </trkpt>
      <trkpt lat="41.773228" lon="2.515672">
        <ele>458.314</ele>
        <time>2021-05-26T13:35:42Z</time>
      </trkpt>
      <trkpt lat="41.773248" lon="2.515677">
        <ele>458.587</ele>
        <time>2021-05-26T13:35:43Z</time>
      </trkpt>
      <trkpt lat="41.773266" lon="2.515681">
        <ele>458.712</ele>
        <time>2021-05-26T13:35:44Z</time>
      </trkpt>
      <trkpt lat="41.773287" lon="2.515679">
        <ele>459.118</ele>
        <time>2021-05-26T13:35:45Z</time>
      </trkpt>
      <trkpt lat="41.773307" lon="2.515677">
        <ele>459.415</ele>
        <time>2021-05-26T13:35:46Z</time>
      </trkpt>
      <trkpt lat="41.773327" lon="2.515674">
        <ele>459.832</ele>
        <time>2021-05-26T13:35:47Z</time>
      </trkpt>
      <trkpt lat="41.773349" lon="2.515668">
        <ele>459.788</ele>
        <time>2021-05-26T13:35:48Z</time>
      </trkpt>
      <trkpt lat="41.773367" lon="2.515658">
        <ele>459.624</ele>
        <time>2021-05-26T13:35:49Z</time>
      </trkpt>
      <trkpt lat="41.773383" lon="2.515644">
        <ele>459.626</ele>
        <time>2021-05-26T13:35:50Z</time>
      </trkpt>
      <trkpt lat="41.773398" lon="2.515629">
        <ele>459.708</ele>
        <time>2021-05-26T13:35:51Z</time>
      </trkpt>
      <trkpt lat="41.773417" lon="2.515612">
        <ele>459.775</ele>
        <time>2021-05-26T13:35:52Z</time>
      </trkpt>
      <trkpt lat="41.773436" lon="2.515594">
        <ele>459.852</ele>
        <time>2021-05-26T13:35:53Z</time>
      </trkpt>
      <trkpt lat="41.773453" lon="2.515576">
        <ele>459.989</ele>
        <time>2021-05-26T13:35:54Z</time>
      </trkpt>
      <trkpt lat="41.773470" lon="2.515559">
        <ele>460.042</ele>
        <time>2021-05-26T13:35:55Z</time>
      </trkpt>
      <trkpt lat="41.773488" lon="2.515539">
        <ele>460.177</ele>
        <time>2021-05-26T13:35:56Z</time>
      </trkpt>
      <trkpt lat="41.773501" lon="2.515518">
        <ele>460.343</ele>
        <time>2021-05-26T13:35:57Z</time>
      </trkpt>
      <trkpt lat="41.773516" lon="2.515499">
        <ele>460.560</ele>
        <time>2021-05-26T13:35:58Z</time>
      </trkpt>
      <trkpt lat="41.773530" lon="2.515479">
        <ele>460.717</ele>
        <time>2021-05-26T13:35:59Z</time>
      </trkpt>
      <trkpt lat="41.773545" lon="2.515460">
        <ele>460.913</ele>
        <time>2021-05-26T13:36:00Z</time>
      </trkpt>
      <trkpt lat="41.773562" lon="2.515439">
        <ele>461.143</ele>
        <time>2021-05-26T13:36:01Z</time>
      </trkpt>
      <trkpt lat="41.773577" lon="2.515417">
        <ele>461.407</ele>
        <time>2021-05-26T13:36:02Z</time>
      </trkpt>
      <trkpt lat="41.773592" lon="2.515398">
        <ele>461.608</ele>
        <time>2021-05-26T13:36:03Z</time>
      </trkpt>
      <trkpt lat="41.773607" lon="2.515378">
        <ele>461.978</ele>
        <time>2021-05-26T13:36:04Z</time>
      </trkpt>
      <trkpt lat="41.773622" lon="2.515359">
        <ele>461.965</ele>
        <time>2021-05-26T13:36:05Z</time>
      </trkpt>
      <trkpt lat="41.773637" lon="2.515339">
        <ele>461.982</ele>
        <time>2021-05-26T13:36:06Z</time>
      </trkpt>
      <trkpt lat="41.773650" lon="2.515319">
        <ele>462.075</ele>
        <time>2021-05-26T13:36:07Z</time>
      </trkpt>
      <trkpt lat="41.773664" lon="2.515299">
        <ele>462.050</ele>
        <time>2021-05-26T13:36:08Z</time>
      </trkpt>
      <trkpt lat="41.773678" lon="2.515276">
        <ele>462.146</ele>
        <time>2021-05-26T13:36:09Z</time>
      </trkpt>
      <trkpt lat="41.773690" lon="2.515251">
        <ele>462.423</ele>
        <time>2021-05-26T13:36:10Z</time>
      </trkpt>
      <trkpt lat="41.773702" lon="2.515228">
        <ele>462.650</ele>
        <time>2021-05-26T13:36:11Z</time>
      </trkpt>
      <trkpt lat="41.773724" lon="2.515184">
        <ele>463.085</ele>
        <time>2021-05-26T13:36:13Z</time>
      </trkpt>
      <trkpt lat="41.773735" lon="2.515163">
        <ele>463.389</ele>
        <time>2021-05-26T13:36:14Z</time>
      </trkpt>
      <trkpt lat="41.773747" lon="2.515142">
        <ele>463.517</ele>
        <time>2021-05-26T13:36:15Z</time>
      </trkpt>
      <trkpt lat="41.773764" lon="2.515121">
        <ele>463.608</ele>
        <time>2021-05-26T13:36:16Z</time>
      </trkpt>
      <trkpt lat="41.773781" lon="2.515098">
        <ele>463.895</ele>
        <time>2021-05-26T13:36:17Z</time>
      </trkpt>
      <trkpt lat="41.773796" lon="2.515076">
        <ele>464.012</ele>
        <time>2021-05-26T13:36:18Z</time>
      </trkpt>
      <trkpt lat="41.773810" lon="2.515055">
        <ele>464.289</ele>
        <time>2021-05-26T13:36:19Z</time>
      </trkpt>
      <trkpt lat="41.773822" lon="2.515035">
        <ele>464.522</ele>
        <time>2021-05-26T13:36:20Z</time>
      </trkpt>
      <trkpt lat="41.773835" lon="2.515014">
        <ele>464.847</ele>
        <time>2021-05-26T13:36:21Z</time>
      </trkpt>
      <trkpt lat="41.773851" lon="2.514994">
        <ele>464.933</ele>
        <time>2021-05-26T13:36:22Z</time>
      </trkpt>
      <trkpt lat="41.773864" lon="2.514975">
        <ele>465.080</ele>
        <time>2021-05-26T13:36:23Z</time>
      </trkpt>
      <trkpt lat="41.773880" lon="2.514955">
        <ele>465.087</ele>
        <time>2021-05-26T13:36:24Z</time>
      </trkpt>
      <trkpt lat="41.773897" lon="2.514935">
        <ele>465.077</ele>
        <time>2021-05-26T13:36:25Z</time>
      </trkpt>
      <trkpt lat="41.773913" lon="2.514914">
        <ele>465.261</ele>
        <time>2021-05-26T13:36:26Z</time>
      </trkpt>
      <trkpt lat="41.773924" lon="2.514887">
        <ele>465.527</ele>
        <time>2021-05-26T13:36:27Z</time>
      </trkpt>
      <trkpt lat="41.773936" lon="2.514860">
        <ele>465.808</ele>
        <time>2021-05-26T13:36:28Z</time>
      </trkpt>
      <trkpt lat="41.773948" lon="2.514834">
        <ele>466.074</ele>
        <time>2021-05-26T13:36:29Z</time>
      </trkpt>
      <trkpt lat="41.773958" lon="2.514810">
        <ele>466.351</ele>
        <time>2021-05-26T13:36:30Z</time>
      </trkpt>
      <trkpt lat="41.773967" lon="2.514785">
        <ele>466.538</ele>
        <time>2021-05-26T13:36:31Z</time>
      </trkpt>
      <trkpt lat="41.773979" lon="2.514761">
        <ele>466.721</ele>
        <time>2021-05-26T13:36:32Z</time>
      </trkpt>
      <trkpt lat="41.773993" lon="2.514743">
        <ele>466.836</ele>
        <time>2021-05-26T13:36:33Z</time>
      </trkpt>
      <trkpt lat="41.774004" lon="2.514719">
        <ele>467.092</ele>
        <time>2021-05-26T13:36:34Z</time>
      </trkpt>
      <trkpt lat="41.774015" lon="2.514698">
        <ele>466.929</ele>
        <time>2021-05-26T13:36:35Z</time>
      </trkpt>
      <trkpt lat="41.774034" lon="2.514659">
        <ele>467.096</ele>
        <time>2021-05-26T13:36:37Z</time>
      </trkpt>
      <trkpt lat="41.774045" lon="2.514640">
        <ele>466.969</ele>
        <time>2021-05-26T13:36:38Z</time>
      </trkpt>
      <trkpt lat="41.774058" lon="2.514619">
        <ele>466.904</ele>
        <time>2021-05-26T13:36:39Z</time>
      </trkpt>
      <trkpt lat="41.774071" lon="2.514601">
        <ele>466.924</ele>
        <time>2021-05-26T13:36:40Z</time>
      </trkpt>
      <trkpt lat="41.774087" lon="2.514579">
        <ele>466.808</ele>
        <time>2021-05-26T13:36:41Z</time>
      </trkpt>
      <trkpt lat="41.774105" lon="2.514561">
        <ele>466.763</ele>
        <time>2021-05-26T13:36:42Z</time>
      </trkpt>
      <trkpt lat="41.774127" lon="2.514544">
        <ele>466.510</ele>
        <time>2021-05-26T13:36:43Z</time>
      </trkpt>
      <trkpt lat="41.774142" lon="2.514530">
        <ele>466.577</ele>
        <time>2021-05-26T13:36:44Z</time>
      </trkpt>
      <trkpt lat="41.774177" lon="2.514505">
        <ele>466.270</ele>
        <time>2021-05-26T13:36:46Z</time>
      </trkpt>
      <trkpt lat="41.774196" lon="2.514493">
        <ele>466.115</ele>
        <time>2021-05-26T13:36:47Z</time>
      </trkpt>
      <trkpt lat="41.774215" lon="2.514485">
        <ele>465.921</ele>
        <time>2021-05-26T13:36:48Z</time>
      </trkpt>
      <trkpt lat="41.774235" lon="2.514483">
        <ele>465.788</ele>
        <time>2021-05-26T13:36:49Z</time>
      </trkpt>
      <trkpt lat="41.774256" lon="2.514479">
        <ele>465.485</ele>
        <time>2021-05-26T13:36:50Z</time>
      </trkpt>
      <trkpt lat="41.774276" lon="2.514478">
        <ele>465.217</ele>
        <time>2021-05-26T13:36:51Z</time>
      </trkpt>
      <trkpt lat="41.774306" lon="2.514482">
        <ele>464.787</ele>
        <time>2021-05-26T13:36:53Z</time>
      </trkpt>
      <trkpt lat="41.774336" lon="2.514489">
        <ele>464.315</ele>
        <time>2021-05-26T13:36:55Z</time>
      </trkpt>
      <trkpt lat="41.774354" lon="2.514512">
        <ele>463.908</ele>
        <time>2021-05-26T13:36:57Z</time>
      </trkpt>
      <trkpt lat="41.774361" lon="2.514543">
        <ele>463.698</ele>
        <time>2021-05-26T13:36:59Z</time>
      </trkpt>
      <trkpt lat="41.774370" lon="2.514580">
        <ele>463.375</ele>
        <time>2021-05-26T13:37:01Z</time>
      </trkpt>
      <trkpt lat="41.774382" lon="2.514614">
        <ele>463.062</ele>
        <time>2021-05-26T13:37:03Z</time>
      </trkpt>
      <trkpt lat="41.774396" lon="2.514645">
        <ele>462.725</ele>
        <time>2021-05-26T13:37:05Z</time>
      </trkpt>
      <trkpt lat="41.774410" lon="2.514677">
        <ele>462.580</ele>
        <time>2021-05-26T13:37:07Z</time>
      </trkpt>
      <trkpt lat="41.774428" lon="2.514705">
        <ele>462.226</ele>
        <time>2021-05-26T13:37:09Z</time>
      </trkpt>
      <trkpt lat="41.774447" lon="2.514730">
        <ele>461.963</ele>
        <time>2021-05-26T13:37:11Z</time>
      </trkpt>
      <trkpt lat="41.774461" lon="2.514751">
        <ele>461.570</ele>
        <time>2021-05-26T13:37:13Z</time>
      </trkpt>
      <trkpt lat="41.774474" lon="2.514778">
        <ele>461.132</ele>
        <time>2021-05-26T13:37:15Z</time>
      </trkpt>
      <trkpt lat="41.774486" lon="2.514810">
        <ele>460.692</ele>
        <time>2021-05-26T13:37:17Z</time>
      </trkpt>
      <trkpt lat="41.774490" lon="2.514841">
        <ele>460.311</ele>
        <time>2021-05-26T13:37:20Z</time>
      </trkpt>
      <trkpt lat="41.774501" lon="2.514860">
        <ele>460.008</ele>
        <time>2021-05-26T13:37:22Z</time>
      </trkpt>
      <trkpt lat="41.774508" lon="2.514889">
        <ele>459.650</ele>
        <time>2021-05-26T13:37:24Z</time>
      </trkpt>
      <trkpt lat="41.774512" lon="2.514917">
        <ele>459.317</ele>
        <time>2021-05-26T13:37:26Z</time>
      </trkpt>
      <trkpt lat="41.774519" lon="2.514946">
        <ele>459.094</ele>
        <time>2021-05-26T13:37:28Z</time>
      </trkpt>
      <trkpt lat="41.774527" lon="2.514985">
        <ele>458.687</ele>
        <time>2021-05-26T13:37:31Z</time>
      </trkpt>
      <trkpt lat="41.774537" lon="2.515013">
        <ele>458.222</ele>
        <time>2021-05-26T13:37:33Z</time>
      </trkpt>
      <trkpt lat="41.774542" lon="2.515039">
        <ele>457.818</ele>
        <time>2021-05-26T13:37:35Z</time>
      </trkpt>
      <trkpt lat="41.774543" lon="2.515070">
        <ele>457.525</ele>
        <time>2021-05-26T13:37:37Z</time>
      </trkpt>
      <trkpt lat="41.774553" lon="2.515102">
        <ele>457.082</ele>
        <time>2021-05-26T13:37:39Z</time>
      </trkpt>
      <trkpt lat="41.774567" lon="2.515125">
        <ele>456.798</ele>
        <time>2021-05-26T13:37:41Z</time>
      </trkpt>
      <trkpt lat="41.774588" lon="2.515146">
        <ele>456.415</ele>
        <time>2021-05-26T13:37:43Z</time>
      </trkpt>
      <trkpt lat="41.774613" lon="2.515167">
        <ele>456.126</ele>
        <time>2021-05-26T13:37:45Z</time>
      </trkpt>
      <trkpt lat="41.774643" lon="2.515195">
        <ele>455.808</ele>
        <time>2021-05-26T13:37:47Z</time>
      </trkpt>
      <trkpt lat="41.774652" lon="2.515228">
        <ele>455.496</ele>
        <time>2021-05-26T13:37:49Z</time>
      </trkpt>
      <trkpt lat="41.774632" lon="2.515245">
        <ele>455.323</ele>
        <time>2021-05-26T13:37:54Z</time>
      </trkpt>
      <trkpt lat="41.774625" lon="2.515269">
        <ele>455.130</ele>
        <time>2021-05-26T13:37:58Z</time>
      </trkpt>
      <trkpt lat="41.774648" lon="2.515275">
        <ele>455.063</ele>
        <time>2021-05-26T13:38:07Z</time>
      </trkpt>
      <trkpt lat="41.774662" lon="2.515302">
        <ele>454.828</ele>
        <time>2021-05-26T13:38:09Z</time>
      </trkpt>
      <trkpt lat="41.774676" lon="2.515324">
        <ele>454.774</ele>
        <time>2021-05-26T13:38:11Z</time>
      </trkpt>
      <trkpt lat="41.774691" lon="2.515351">
        <ele>454.551</ele>
        <time>2021-05-26T13:38:13Z</time>
      </trkpt>
      <trkpt lat="41.774703" lon="2.515380">
        <ele>454.378</ele>
        <time>2021-05-26T13:38:15Z</time>
      </trkpt>
      <trkpt lat="41.774710" lon="2.515410">
        <ele>454.059</ele>
        <time>2021-05-26T13:38:17Z</time>
      </trkpt>
      <trkpt lat="41.774716" lon="2.515437">
        <ele>453.903</ele>
        <time>2021-05-26T13:38:19Z</time>
      </trkpt>
      <trkpt lat="41.774725" lon="2.515476">
        <ele>453.523</ele>
        <time>2021-05-26T13:38:21Z</time>
      </trkpt>
      <trkpt lat="41.774733" lon="2.515510">
        <ele>453.108</ele>
        <time>2021-05-26T13:38:23Z</time>
      </trkpt>
      <trkpt lat="41.774740" lon="2.515550">
        <ele>452.792</ele>
        <time>2021-05-26T13:38:25Z</time>
      </trkpt>
      <trkpt lat="41.774743" lon="2.515587">
        <ele>452.579</ele>
        <time>2021-05-26T13:38:27Z</time>
      </trkpt>
      <trkpt lat="41.774742" lon="2.515622">
        <ele>452.416</ele>
        <time>2021-05-26T13:38:29Z</time>
      </trkpt>
      <trkpt lat="41.774742" lon="2.515649">
        <ele>452.379</ele>
        <time>2021-05-26T13:38:31Z</time>
      </trkpt>
      <trkpt lat="41.774741" lon="2.515685">
        <ele>452.284</ele>
        <time>2021-05-26T13:38:33Z</time>
      </trkpt>
      <trkpt lat="41.774740" lon="2.515723">
        <ele>452.120</ele>
        <time>2021-05-26T13:38:35Z</time>
      </trkpt>
      <trkpt lat="41.774744" lon="2.515762">
        <ele>451.937</ele>
        <time>2021-05-26T13:38:37Z</time>
      </trkpt>
      <trkpt lat="41.774750" lon="2.515800">
        <ele>451.674</ele>
        <time>2021-05-26T13:38:39Z</time>
      </trkpt>
      <trkpt lat="41.774749" lon="2.515836">
        <ele>451.531</ele>
        <time>2021-05-26T13:38:41Z</time>
      </trkpt>
      <trkpt lat="41.774741" lon="2.515870">
        <ele>451.461</ele>
        <time>2021-05-26T13:38:43Z</time>
      </trkpt>
      <trkpt lat="41.774733" lon="2.515904">
        <ele>451.307</ele>
        <time>2021-05-26T13:38:45Z</time>
      </trkpt>
      <trkpt lat="41.774730" lon="2.515937">
        <ele>451.108</ele>
        <time>2021-05-26T13:38:47Z</time>
      </trkpt>
      <trkpt lat="41.774731" lon="2.515966">
        <ele>450.940</ele>
        <time>2021-05-26T13:38:49Z</time>
      </trkpt>
      <trkpt lat="41.774737" lon="2.516000">
        <ele>450.627</ele>
        <time>2021-05-26T13:38:51Z</time>
      </trkpt>
      <trkpt lat="41.774750" lon="2.516033">
        <ele>450.164</ele>
        <time>2021-05-26T13:38:53Z</time>
      </trkpt>
      <trkpt lat="41.774767" lon="2.516063">
        <ele>449.757</ele>
        <time>2021-05-26T13:38:55Z</time>
      </trkpt>
      <trkpt lat="41.774793" lon="2.516081">
        <ele>449.262</ele>
        <time>2021-05-26T13:38:57Z</time>
      </trkpt>
      <trkpt lat="41.774821" lon="2.516079">
        <ele>448.858</ele>
        <time>2021-05-26T13:38:59Z</time>
      </trkpt>
      <trkpt lat="41.774845" lon="2.516067">
        <ele>448.555</ele>
        <time>2021-05-26T13:39:01Z</time>
      </trkpt>
      <trkpt lat="41.774865" lon="2.516052">
        <ele>448.312</ele>
        <time>2021-05-26T13:39:03Z</time>
      </trkpt>
      <trkpt lat="41.774888" lon="2.516043">
        <ele>448.063</ele>
        <time>2021-05-26T13:39:06Z</time>
      </trkpt>
      <trkpt lat="41.774906" lon="2.516043">
        <ele>447.744</ele>
        <time>2021-05-26T13:39:10Z</time>
      </trkpt>
      <trkpt lat="41.774926" lon="2.516042">
        <ele>447.418</ele>
        <time>2021-05-26T13:39:12Z</time>
      </trkpt>
      <trkpt lat="41.774951" lon="2.516042">
        <ele>447.008</ele>
        <time>2021-05-26T13:39:15Z</time>
      </trkpt>
      <trkpt lat="41.774976" lon="2.516058">
        <ele>446.613</ele>
        <time>2021-05-26T13:39:16Z</time>
      </trkpt>
      <trkpt lat="41.775004" lon="2.516081">
        <ele>446.040</ele>
        <time>2021-05-26T13:39:18Z</time>
      </trkpt>
      <trkpt lat="41.775034" lon="2.516106">
        <ele>445.247</ele>
        <time>2021-05-26T13:39:20Z</time>
      </trkpt>
      <trkpt lat="41.775057" lon="2.516128">
        <ele>444.510</ele>
        <time>2021-05-26T13:39:22Z</time>
      </trkpt>
      <trkpt lat="41.775081" lon="2.516147">
        <ele>443.715</ele>
        <time>2021-05-26T13:39:24Z</time>
      </trkpt>
      <trkpt lat="41.775106" lon="2.516163">
        <ele>443.071</ele>
        <time>2021-05-26T13:39:26Z</time>
      </trkpt>
      <trkpt lat="41.775132" lon="2.516173">
        <ele>442.368</ele>
        <time>2021-05-26T13:39:28Z</time>
      </trkpt>
      <trkpt lat="41.775157" lon="2.516177">
        <ele>441.745</ele>
        <time>2021-05-26T13:39:30Z</time>
      </trkpt>
      <trkpt lat="41.775179" lon="2.516179">
        <ele>441.235</ele>
        <time>2021-05-26T13:39:32Z</time>
      </trkpt>
      <trkpt lat="41.775198" lon="2.516179">
        <ele>440.786</ele>
        <time>2021-05-26T13:39:34Z</time>
      </trkpt>
      <trkpt lat="41.775219" lon="2.516188">
        <ele>440.114</ele>
        <time>2021-05-26T13:39:37Z</time>
      </trkpt>
      <trkpt lat="41.775239" lon="2.516192">
        <ele>439.608</ele>
        <time>2021-05-26T13:39:40Z</time>
      </trkpt>
      <trkpt lat="41.775262" lon="2.516189">
        <ele>439.180</ele>
        <time>2021-05-26T13:39:45Z</time>
      </trkpt>
      <trkpt lat="41.775281" lon="2.516172">
        <ele>438.887</ele>
        <time>2021-05-26T13:39:48Z</time>
      </trkpt>
      <trkpt lat="41.775297" lon="2.516143">
        <ele>438.924</ele>
        <time>2021-05-26T13:39:51Z</time>
      </trkpt>
      <trkpt lat="41.775316" lon="2.516128">
        <ele>438.917</ele>
        <time>2021-05-26T13:39:53Z</time>
      </trkpt>
      <trkpt lat="41.775339" lon="2.516113">
        <ele>439.022</ele>
        <time>2021-05-26T13:39:56Z</time>
      </trkpt>
      <trkpt lat="41.775358" lon="2.516096">
        <ele>439.118</ele>
        <time>2021-05-26T13:39:57Z</time>
      </trkpt>
      <trkpt lat="41.775368" lon="2.516088">
        <ele>439.235</ele>
        <time>2021-05-26T13:40:00Z</time>
      </trkpt>
      <trkpt lat="41.776178" lon="2.514838">
        <ele>462.056</ele>
        <time>2021-05-26T13:49:53Z</time>
      </trkpt>
      <trkpt lat="41.776174" lon="2.514832">
        <ele>462.059</ele>
        <time>2021-05-26T13:49:55Z</time>
      </trkpt>
      <trkpt lat="41.776151" lon="2.514825">
        <ele>462.214</ele>
        <time>2021-05-26T13:49:59Z</time>
      </trkpt>
      <trkpt lat="41.776161" lon="2.514799">
        <ele>462.308</ele>
        <time>2021-05-26T13:50:17Z</time>
      </trkpt>
      <trkpt lat="41.776166" lon="2.514765">
        <ele>462.682</ele>
        <time>2021-05-26T13:50:21Z</time>
      </trkpt>
      <trkpt lat="41.776168" lon="2.514731">
        <ele>462.939</ele>
        <time>2021-05-26T13:50:24Z</time>
      </trkpt>
      <trkpt lat="41.776193" lon="2.514724">
        <ele>463.036</ele>
        <time>2021-05-26T13:50:27Z</time>
      </trkpt>
      <trkpt lat="41.776212" lon="2.514736">
        <ele>462.970</ele>
        <time>2021-05-26T13:50:29Z</time>
      </trkpt>
      <trkpt lat="41.776239" lon="2.514754">
        <ele>462.795</ele>
        <time>2021-05-26T13:50:31Z</time>
      </trkpt>
      <trkpt lat="41.776265" lon="2.514755">
        <ele>462.645</ele>
        <time>2021-05-26T13:50:35Z</time>
      </trkpt>
      <trkpt lat="41.776284" lon="2.514748">
        <ele>462.781</ele>
        <time>2021-05-26T13:50:36Z</time>
      </trkpt>
      <trkpt lat="41.776299" lon="2.514732">
        <ele>462.966</ele>
        <time>2021-05-26T13:50:39Z</time>
      </trkpt>
      <trkpt lat="41.776318" lon="2.514716">
        <ele>463.171</ele>
        <time>2021-05-26T13:50:42Z</time>
      </trkpt>
      <trkpt lat="41.776335" lon="2.514693">
        <ele>463.341</ele>
        <time>2021-05-26T13:50:45Z</time>
      </trkpt>
      <trkpt lat="41.776335" lon="2.514663">
        <ele>463.615</ele>
        <time>2021-05-26T13:50:47Z</time>
      </trkpt>
      <trkpt lat="41.776337" lon="2.514637">
        <ele>463.808</ele>
        <time>2021-05-26T13:50:49Z</time>
      </trkpt>
      <trkpt lat="41.776335" lon="2.514610">
        <ele>464.194</ele>
        <time>2021-05-26T13:50:50Z</time>
      </trkpt>
      <trkpt lat="41.776347" lon="2.514580">
        <ele>464.491</ele>
        <time>2021-05-26T13:50:53Z</time>
      </trkpt>
      <trkpt lat="41.776358" lon="2.514556">
        <ele>464.738</ele>
        <time>2021-05-26T13:50:55Z</time>
      </trkpt>
      <trkpt lat="41.776365" lon="2.514530">
        <ele>465.042</ele>
        <time>2021-05-26T13:50:57Z</time>
      </trkpt>
      <trkpt lat="41.776368" lon="2.514503">
        <ele>465.227</ele>
        <time>2021-05-26T13:50:59Z</time>
      </trkpt>
      <trkpt lat="41.776378" lon="2.514472">
        <ele>465.687</ele>
        <time>2021-05-26T13:51:02Z</time>
      </trkpt>
      <trkpt lat="41.776381" lon="2.514443">
        <ele>466.013</ele>
        <time>2021-05-26T13:51:05Z</time>
      </trkpt>
      <trkpt lat="41.776388" lon="2.514418">
        <ele>466.228</ele>
        <time>2021-05-26T13:51:08Z</time>
      </trkpt>
      <trkpt lat="41.776398" lon="2.514387">
        <ele>466.467</ele>
        <time>2021-05-26T13:51:11Z</time>
      </trkpt>
      <trkpt lat="41.776407" lon="2.514364">
        <ele>466.581</ele>
        <time>2021-05-26T13:51:13Z</time>
      </trkpt>
      <trkpt lat="41.776428" lon="2.514342">
        <ele>466.619</ele>
        <time>2021-05-26T13:51:17Z</time>
      </trkpt>
      <trkpt lat="41.776445" lon="2.514329">
        <ele>466.608</ele>
        <time>2021-05-26T13:51:19Z</time>
      </trkpt>
      <trkpt lat="41.776460" lon="2.514303">
        <ele>466.833</ele>
        <time>2021-05-26T13:51:22Z</time>
      </trkpt>
      <trkpt lat="41.776476" lon="2.514273">
        <ele>467.080</ele>
        <time>2021-05-26T13:51:25Z</time>
      </trkpt>
      <trkpt lat="41.776488" lon="2.514249">
        <ele>467.277</ele>
        <time>2021-05-26T13:51:27Z</time>
      </trkpt>
      <trkpt lat="41.776503" lon="2.514227">
        <ele>467.451</ele>
        <time>2021-05-26T13:51:29Z</time>
      </trkpt>
      <trkpt lat="41.776518" lon="2.514210">
        <ele>467.536</ele>
        <time>2021-05-26T13:51:31Z</time>
      </trkpt>
      <trkpt lat="41.776542" lon="2.514202">
        <ele>467.626</ele>
        <time>2021-05-26T13:51:34Z</time>
      </trkpt>
      <trkpt lat="41.776563" lon="2.514193">
        <ele>467.712</ele>
        <time>2021-05-26T13:51:38Z</time>
      </trkpt>
      <trkpt lat="41.776575" lon="2.514174">
        <ele>467.957</ele>
        <time>2021-05-26T13:51:41Z</time>
      </trkpt>
      <trkpt lat="41.776592" lon="2.514159">
        <ele>468.216</ele>
        <time>2021-05-26T13:51:43Z</time>
      </trkpt>
      <trkpt lat="41.776604" lon="2.514139">
        <ele>468.676</ele>
        <time>2021-05-26T13:51:45Z</time>
      </trkpt>
      <trkpt lat="41.776626" lon="2.514107">
        <ele>469.213</ele>
        <time>2021-05-26T13:51:47Z</time>
      </trkpt>
      <trkpt lat="41.776635" lon="2.514079">
        <ele>469.808</ele>
        <time>2021-05-26T13:51:51Z</time>
      </trkpt>
      <trkpt lat="41.776640" lon="2.514047">
        <ele>470.518</ele>
        <time>2021-05-26T13:51:53Z</time>
      </trkpt>
      <trkpt lat="41.776647" lon="2.514012">
        <ele>471.365</ele>
        <time>2021-05-26T13:51:55Z</time>
      </trkpt>
      <trkpt lat="41.776670" lon="2.513970">
        <ele>472.222</ele>
        <time>2021-05-26T13:52:00Z</time>
      </trkpt>
      <trkpt lat="41.776691" lon="2.513947">
        <ele>472.576</ele>
        <time>2021-05-26T13:52:02Z</time>
      </trkpt>
      <trkpt lat="41.776679" lon="2.513846">
        <ele>474.651</ele>
        <time>2021-05-26T13:52:08Z</time>
      </trkpt>
      <trkpt lat="41.776674" lon="2.513819">
        <ele>475.241</ele>
        <time>2021-05-26T13:52:11Z</time>
      </trkpt>
      <trkpt lat="41.776667" lon="2.513710">
        <ele>477.257</ele>
        <time>2021-05-26T13:52:17Z</time>
      </trkpt>
      <trkpt lat="41.776670" lon="2.513677">
        <ele>477.872</ele>
        <time>2021-05-26T13:52:19Z</time>
      </trkpt>
      <trkpt lat="41.776678" lon="2.513649">
        <ele>478.232</ele>
        <time>2021-05-26T13:52:21Z</time>
      </trkpt>
      <trkpt lat="41.776699" lon="2.513625">
        <ele>478.492</ele>
        <time>2021-05-26T13:52:23Z</time>
      </trkpt>
      <trkpt lat="41.776688" lon="2.513488">
        <ele>479.711</ele>
        <time>2021-05-26T13:52:32Z</time>
      </trkpt>
      <trkpt lat="41.776694" lon="2.513368">
        <ele>480.508</ele>
        <time>2021-05-26T13:52:39Z</time>
      </trkpt>
      <trkpt lat="41.776753" lon="2.513272">
        <ele>481.090</ele>
        <time>2021-05-26T13:52:50Z</time>
      </trkpt>
      <trkpt lat="41.776831" lon="2.513207">
        <ele>480.997</ele>
        <time>2021-05-26T13:52:59Z</time>
      </trkpt>
      <trkpt lat="41.776772" lon="2.513205">
        <ele>481.564</ele>
        <time>2021-05-26T13:53:24Z</time>
      </trkpt>
      <trkpt lat="41.776753" lon="2.513239">
        <ele>481.348</ele>
        <time>2021-05-26T13:53:30Z</time>
      </trkpt>
      <trkpt lat="41.776744" lon="2.513214">
        <ele>481.643</ele>
        <time>2021-05-26T13:53:35Z</time>
      </trkpt>
      <trkpt lat="41.776754" lon="2.513189">
        <ele>481.893</ele>
        <time>2021-05-26T13:53:37Z</time>
      </trkpt>
      <trkpt lat="41.776736" lon="2.513160">
        <ele>482.229</ele>
        <time>2021-05-26T13:53:47Z</time>
      </trkpt>
      <trkpt lat="41.776718" lon="2.513177">
        <ele>482.234</ele>
        <time>2021-05-26T13:53:51Z</time>
      </trkpt>
      <trkpt lat="41.776700" lon="2.513185">
        <ele>482.383</ele>
        <time>2021-05-26T13:53:54Z</time>
      </trkpt>
      <trkpt lat="41.776679" lon="2.513177">
        <ele>482.625</ele>
        <time>2021-05-26T13:53:56Z</time>
      </trkpt>
      <trkpt lat="41.776659" lon="2.513179">
        <ele>482.617</ele>
        <time>2021-05-26T13:53:58Z</time>
      </trkpt>
      <trkpt lat="41.776633" lon="2.513184">
        <ele>482.308</ele>
        <time>2021-05-26T13:54:01Z</time>
      </trkpt>
      <trkpt lat="41.776617" lon="2.513160">
        <ele>482.475</ele>
        <time>2021-05-26T13:54:04Z</time>
      </trkpt>
      <trkpt lat="41.776622" lon="2.513135">
        <ele>482.742</ele>
        <time>2021-05-26T13:54:06Z</time>
      </trkpt>
      <trkpt lat="41.776627" lon="2.513107">
        <ele>483.019</ele>
        <time>2021-05-26T13:54:08Z</time>
      </trkpt>
      <trkpt lat="41.776635" lon="2.513078">
        <ele>483.463</ele>
        <time>2021-05-26T13:54:10Z</time>
      </trkpt>
      <trkpt lat="41.776645" lon="2.513052">
        <ele>483.828</ele>
        <time>2021-05-26T13:54:12Z</time>
      </trkpt>
      <trkpt lat="41.776661" lon="2.513028">
        <ele>484.128</ele>
        <time>2021-05-26T13:54:14Z</time>
      </trkpt>
      <trkpt lat="41.776677" lon="2.513008">
        <ele>484.224</ele>
        <time>2021-05-26T13:54:17Z</time>
      </trkpt>
      <trkpt lat="41.776695" lon="2.512999">
        <ele>484.159</ele>
        <time>2021-05-26T13:54:19Z</time>
      </trkpt>
      <trkpt lat="41.776696" lon="2.513026">
        <ele>483.931</ele>
        <time>2021-05-26T13:54:41Z</time>
      </trkpt>
      <trkpt lat="41.776684" lon="2.513047">
        <ele>483.961</ele>
        <time>2021-05-26T13:54:47Z</time>
      </trkpt>
      <trkpt lat="41.776667" lon="2.513058">
        <ele>484.007</ele>
        <time>2021-05-26T13:54:51Z</time>
      </trkpt>
      <trkpt lat="41.776664" lon="2.513083">
        <ele>483.708</ele>
        <time>2021-05-26T13:54:56Z</time>
      </trkpt>
      <trkpt lat="41.776646" lon="2.513089">
        <ele>483.410</ele>
        <time>2021-05-26T13:55:07Z</time>
      </trkpt>
      <trkpt lat="41.776627" lon="2.513086">
        <ele>483.367</ele>
        <time>2021-05-26T13:55:25Z</time>
      </trkpt>
      <trkpt lat="41.776640" lon="2.513069">
        <ele>483.654</ele>
        <time>2021-05-26T13:55:59Z</time>
      </trkpt>
      <trkpt lat="41.776643" lon="2.513093">
        <ele>483.458</ele>
        <time>2021-05-26T13:56:15Z</time>
      </trkpt>
      <trkpt lat="41.776651" lon="2.513071">
        <ele>483.743</ele>
        <time>2021-05-26T13:56:25Z</time>
      </trkpt>
      <trkpt lat="41.776665" lon="2.513052">
        <ele>484.033</ele>
        <time>2021-05-26T13:56:27Z</time>
      </trkpt>
      <trkpt lat="41.776651" lon="2.513071">
        <ele>483.779</ele>
        <time>2021-05-26T13:56:36Z</time>
      </trkpt>
      <trkpt lat="41.776665" lon="2.513050">
        <ele>484.024</ele>
        <time>2021-05-26T13:56:44Z</time>
      </trkpt>
      <trkpt lat="41.776674" lon="2.513019">
        <ele>484.244</ele>
        <time>2021-05-26T13:56:46Z</time>
      </trkpt>
      <trkpt lat="41.776676" lon="2.512976">
        <ele>484.505</ele>
        <time>2021-05-26T13:56:48Z</time>
      </trkpt>
      <trkpt lat="41.776680" lon="2.512928">
        <ele>484.815</ele>
        <time>2021-05-26T13:56:50Z</time>
      </trkpt>
      <trkpt lat="41.776699" lon="2.512798">
        <ele>485.608</ele>
        <time>2021-05-26T13:56:57Z</time>
      </trkpt>
      <trkpt lat="41.776744" lon="2.512685">
        <ele>486.011</ele>
        <time>2021-05-26T13:57:03Z</time>
      </trkpt>
      <trkpt lat="41.776778" lon="2.512569">
        <ele>486.488</ele>
        <time>2021-05-26T13:57:09Z</time>
      </trkpt>
      <trkpt lat="41.776802" lon="2.512435">
        <ele>487.215</ele>
        <time>2021-05-26T13:57:17Z</time>
      </trkpt>
      <trkpt lat="41.776797" lon="2.512365">
        <ele>488.139</ele>
        <time>2021-05-26T13:57:20Z</time>
      </trkpt>
      <trkpt lat="41.776791" lon="2.512319">
        <ele>488.774</ele>
        <time>2021-05-26T13:57:22Z</time>
      </trkpt>
      <trkpt lat="41.776785" lon="2.512283">
        <ele>489.294</ele>
        <time>2021-05-26T13:57:24Z</time>
      </trkpt>
      <trkpt lat="41.776775" lon="2.512243">
        <ele>489.820</ele>
        <time>2021-05-26T13:57:26Z</time>
      </trkpt>
      <trkpt lat="41.776774" lon="2.512202">
        <ele>490.385</ele>
        <time>2021-05-26T13:57:28Z</time>
      </trkpt>
      <trkpt lat="41.776779" lon="2.512168">
        <ele>490.616</ele>
        <time>2021-05-26T13:57:29Z</time>
      </trkpt>
      <trkpt lat="41.776773" lon="2.512201">
        <ele>490.376</ele>
        <time>2021-05-26T13:57:33Z</time>
      </trkpt>
      <trkpt lat="41.776753" lon="2.512236">
        <ele>490.313</ele>
        <time>2021-05-26T13:57:35Z</time>
      </trkpt>
      <trkpt lat="41.776739" lon="2.512253">
        <ele>490.308</ele>
        <time>2021-05-26T13:57:36Z</time>
      </trkpt>
      <trkpt lat="41.776710" lon="2.512277">
        <ele>490.558</ele>
        <time>2021-05-26T13:57:38Z</time>
      </trkpt>
      <trkpt lat="41.776693" lon="2.512289">
        <ele>490.655</ele>
        <time>2021-05-26T13:57:39Z</time>
      </trkpt>
      <trkpt lat="41.776676" lon="2.512297">
        <ele>490.872</ele>
        <time>2021-05-26T13:57:40Z</time>
      </trkpt>
      <trkpt lat="41.776655" lon="2.512318">
        <ele>490.666</ele>
        <time>2021-05-26T13:57:42Z</time>
      </trkpt>
      <trkpt lat="41.776633" lon="2.512350">
        <ele>490.131</ele>
        <time>2021-05-26T13:57:44Z</time>
      </trkpt>
      <trkpt lat="41.776627" lon="2.512375">
        <ele>489.791</ele>
        <time>2021-05-26T13:57:46Z</time>
      </trkpt>
      <trkpt lat="41.776618" lon="2.512406">
        <ele>489.347</ele>
        <time>2021-05-26T13:57:49Z</time>
      </trkpt>
      <trkpt lat="41.776610" lon="2.512428">
        <ele>489.052</ele>
        <time>2021-05-26T13:57:52Z</time>
      </trkpt>
      <trkpt lat="41.776616" lon="2.512402">
        <ele>489.363</ele>
        <time>2021-05-26T13:57:56Z</time>
      </trkpt>
      <trkpt lat="41.776624" lon="2.512360">
        <ele>489.944</ele>
        <time>2021-05-26T13:57:58Z</time>
      </trkpt>
      <trkpt lat="41.776638" lon="2.512318">
        <ele>490.618</ele>
        <time>2021-05-26T13:58:00Z</time>
      </trkpt>
      <trkpt lat="41.776662" lon="2.512281">
        <ele>491.108</ele>
        <time>2021-05-26T13:58:02Z</time>
      </trkpt>
      <trkpt lat="41.776679" lon="2.512247">
        <ele>491.433</ele>
        <time>2021-05-26T13:58:04Z</time>
      </trkpt>
      <trkpt lat="41.776696" lon="2.512208">
        <ele>491.690</ele>
        <time>2021-05-26T13:58:06Z</time>
      </trkpt>
      <trkpt lat="41.776713" lon="2.512177">
        <ele>491.757</ele>
        <time>2021-05-26T13:58:08Z</time>
      </trkpt>
      <trkpt lat="41.776731" lon="2.512143">
        <ele>491.721</ele>
        <time>2021-05-26T13:58:10Z</time>
      </trkpt>
      <trkpt lat="41.776753" lon="2.512104">
        <ele>491.796</ele>
        <time>2021-05-26T13:58:12Z</time>
      </trkpt>
      <trkpt lat="41.776761" lon="2.512080">
        <ele>491.836</ele>
        <time>2021-05-26T13:58:13Z</time>
      </trkpt>
      <trkpt lat="41.776782" lon="2.512048">
        <ele>491.882</ele>
        <time>2021-05-26T13:58:15Z</time>
      </trkpt>
      <trkpt lat="41.776804" lon="2.512031">
        <ele>491.627</ele>
        <time>2021-05-26T13:58:17Z</time>
      </trkpt>
      <trkpt lat="41.776827" lon="2.511986">
        <ele>491.754</ele>
        <time>2021-05-26T13:58:24Z</time>
      </trkpt>
      <trkpt lat="41.776874" lon="2.511871">
        <ele>492.756</ele>
        <time>2021-05-26T13:58:31Z</time>
      </trkpt>
      <trkpt lat="41.776927" lon="2.511749">
        <ele>493.911</ele>
        <time>2021-05-26T13:58:35Z</time>
      </trkpt>
      <trkpt lat="41.777000" lon="2.511645">
        <ele>493.608</ele>
        <time>2021-05-26T13:58:39Z</time>
      </trkpt>
      <trkpt lat="41.777073" lon="2.511552">
        <ele>492.952</ele>
        <time>2021-05-26T13:58:43Z</time>
      </trkpt>
      <trkpt lat="41.777138" lon="2.511449">
        <ele>492.399</ele>
        <time>2021-05-26T13:58:47Z</time>
      </trkpt>
      <trkpt lat="41.777215" lon="2.511346">
        <ele>491.456</ele>
        <time>2021-05-26T13:58:52Z</time>
      </trkpt>
      <trkpt lat="41.777265" lon="2.511218">
        <ele>493.780</ele>
        <time>2021-05-26T13:58:57Z</time>
      </trkpt>
      <trkpt lat="41.777310" lon="2.511094">
        <ele>496.225</ele>
        <time>2021-05-26T13:59:01Z</time>
      </trkpt>
      <trkpt lat="41.777378" lon="2.510997">
        <ele>498.395</ele>
        <time>2021-05-26T13:59:04Z</time>
      </trkpt>
      <trkpt lat="41.777462" lon="2.510946">
        <ele>498.821</ele>
        <time>2021-05-26T13:59:09Z</time>
      </trkpt>
      <trkpt lat="41.777561" lon="2.510897">
        <ele>499.176</ele>
        <time>2021-05-26T13:59:14Z</time>
      </trkpt>
      <trkpt lat="41.777655" lon="2.510845">
        <ele>499.455</ele>
        <time>2021-05-26T13:59:18Z</time>
      </trkpt>
      <trkpt lat="41.777745" lon="2.510761">
        <ele>499.807</ele>
        <time>2021-05-26T13:59:23Z</time>
      </trkpt>
      <trkpt lat="41.777803" lon="2.510660">
        <ele>500.517</ele>
        <time>2021-05-26T13:59:27Z</time>
      </trkpt>
      <trkpt lat="41.777817" lon="2.510529">
        <ele>502.408</ele>
        <time>2021-05-26T13:59:31Z</time>
      </trkpt>
      <trkpt lat="41.777856" lon="2.510404">
        <ele>503.132</ele>
        <time>2021-05-26T13:59:35Z</time>
      </trkpt>
      <trkpt lat="41.777915" lon="2.510307">
        <ele>502.729</ele>
        <time>2021-05-26T13:59:39Z</time>
      </trkpt>
      <trkpt lat="41.777984" lon="2.510199">
        <ele>502.156</ele>
        <time>2021-05-26T13:59:44Z</time>
      </trkpt>
      <trkpt lat="41.778074" lon="2.510134">
        <ele>500.230</ele>
        <time>2021-05-26T13:59:48Z</time>
      </trkpt>
      <trkpt lat="41.778171" lon="2.510070">
        <ele>498.845</ele>
        <time>2021-05-26T13:59:52Z</time>
      </trkpt>
      <trkpt lat="41.778278" lon="2.510017">
        <ele>497.095</ele>
        <time>2021-05-26T13:59:56Z</time>
      </trkpt>
      <trkpt lat="41.778361" lon="2.509959">
        <ele>496.531</ele>
        <time>2021-05-26T14:00:00Z</time>
      </trkpt>
      <trkpt lat="41.778446" lon="2.509884">
        <ele>496.926</ele>
        <time>2021-05-26T14:00:04Z</time>
      </trkpt>
      <trkpt lat="41.778518" lon="2.509799">
        <ele>497.755</ele>
        <time>2021-05-26T14:00:08Z</time>
      </trkpt>
      <trkpt lat="41.778595" lon="2.509705">
        <ele>498.607</ele>
        <time>2021-05-26T14:00:12Z</time>
      </trkpt>
      <trkpt lat="41.778670" lon="2.509596">
        <ele>500.017</ele>
        <time>2021-05-26T14:00:16Z</time>
      </trkpt>
      <trkpt lat="41.778761" lon="2.509464">
        <ele>501.508</ele>
        <time>2021-05-26T14:00:20Z</time>
      </trkpt>
      <trkpt lat="41.778832" lon="2.509369">
        <ele>501.942</ele>
        <time>2021-05-26T14:00:25Z</time>
      </trkpt>
      <trkpt lat="41.778907" lon="2.509279">
        <ele>502.139</ele>
        <time>2021-05-26T14:00:29Z</time>
      </trkpt>
      <trkpt lat="41.778932" lon="2.509159">
        <ele>503.366</ele>
        <time>2021-05-26T14:00:33Z</time>
      </trkpt>
      <trkpt lat="41.778997" lon="2.509036">
        <ele>503.550</ele>
        <time>2021-05-26T14:00:38Z</time>
      </trkpt>
      <trkpt lat="41.779069" lon="2.508947">
        <ele>503.135</ele>
        <time>2021-05-26T14:00:42Z</time>
      </trkpt>
      <trkpt lat="41.779134" lon="2.508856">
        <ele>503.065</ele>
        <time>2021-05-26T14:00:46Z</time>
      </trkpt>
      <trkpt lat="41.779195" lon="2.508766">
        <ele>503.121</ele>
        <time>2021-05-26T14:00:50Z</time>
      </trkpt>
      <trkpt lat="41.779264" lon="2.508677">
        <ele>503.616</ele>
        <time>2021-05-26T14:00:54Z</time>
      </trkpt>
      <trkpt lat="41.779319" lon="2.508581">
        <ele>504.415</ele>
        <time>2021-05-26T14:00:58Z</time>
      </trkpt>
      <trkpt lat="41.779386" lon="2.508499">
        <ele>504.965</ele>
        <time>2021-05-26T14:01:02Z</time>
      </trkpt>
      <trkpt lat="41.779488" lon="2.508485">
        <ele>504.211</ele>
        <time>2021-05-26T14:01:10Z</time>
      </trkpt>
      <trkpt lat="41.779590" lon="2.508480">
        <ele>503.908</ele>
        <time>2021-05-26T14:01:15Z</time>
      </trkpt>
      <trkpt lat="41.779682" lon="2.508544">
        <ele>502.998</ele>
        <time>2021-05-26T14:01:23Z</time>
      </trkpt>
      <trkpt lat="41.779738" lon="2.508641">
        <ele>502.095</ele>
        <time>2021-05-26T14:01:28Z</time>
      </trkpt>
      <trkpt lat="41.779787" lon="2.508744">
        <ele>501.972</ele>
        <time>2021-05-26T14:01:33Z</time>
      </trkpt>
      <trkpt lat="41.779852" lon="2.508847">
        <ele>501.786</ele>
        <time>2021-05-26T14:01:38Z</time>
      </trkpt>
      <trkpt lat="41.779904" lon="2.508976">
        <ele>501.211</ele>
        <time>2021-05-26T14:01:43Z</time>
      </trkpt>
      <trkpt lat="41.779977" lon="2.509060">
        <ele>501.291</ele>
        <time>2021-05-26T14:01:49Z</time>
      </trkpt>
      <trkpt lat="41.780080" lon="2.509067">
        <ele>502.267</ele>
        <time>2021-05-26T14:01:57Z</time>
      </trkpt>
      <trkpt lat="41.780179" lon="2.509118">
        <ele>503.142</ele>
        <time>2021-05-26T14:02:05Z</time>
      </trkpt>
      <trkpt lat="41.780128" lon="2.509011">
        <ele>502.912</ele>
        <time>2021-05-26T14:03:48Z</time>
      </trkpt>
      <trkpt lat="41.780143" lon="2.508981">
        <ele>503.232</ele>
        <time>2021-05-26T14:04:41Z</time>
      </trkpt>
      <trkpt lat="41.780151" lon="2.508860">
        <ele>503.805</ele>
        <time>2021-05-26T14:05:25Z</time>
      </trkpt>
      <trkpt lat="41.780109" lon="2.508972">
        <ele>502.908</ele>
        <time>2021-05-26T14:07:23Z</time>
      </trkpt>
      <trkpt lat="41.780199" lon="2.508944">
        <ele>504.078</ele>
        <time>2021-05-26T14:09:15Z</time>
      </trkpt>
      <trkpt lat="41.780289" lon="2.508911">
        <ele>505.295</ele>
        <time>2021-05-26T14:09:41Z</time>
      </trkpt>
      <trkpt lat="41.780343" lon="2.509013">
        <ele>506.532</ele>
        <time>2021-05-26T14:09:56Z</time>
      </trkpt>
      <trkpt lat="41.780354" lon="2.509147">
        <ele>506.546</ele>
        <time>2021-05-26T14:10:05Z</time>
      </trkpt>
      <trkpt lat="41.780357" lon="2.509271">
        <ele>505.831</ele>
        <time>2021-05-26T14:10:14Z</time>
      </trkpt>
      <trkpt lat="41.780412" lon="2.509384">
        <ele>506.891</ele>
        <time>2021-05-26T14:10:23Z</time>
      </trkpt>
      <trkpt lat="41.780431" lon="2.509519">
        <ele>506.587</ele>
        <time>2021-05-26T14:10:32Z</time>
      </trkpt>
      <trkpt lat="41.780396" lon="2.509631">
        <ele>504.432</ele>
        <time>2021-05-26T14:10:35Z</time>
      </trkpt>
      <trkpt lat="41.780346" lon="2.509749">
        <ele>501.782</ele>
        <time>2021-05-26T14:10:42Z</time>
      </trkpt>
      <trkpt lat="41.780293" lon="2.509849">
        <ele>499.643</ele>
        <time>2021-05-26T14:10:48Z</time>
      </trkpt>
      <trkpt lat="41.780272" lon="2.509967">
        <ele>498.917</ele>
        <time>2021-05-26T14:10:52Z</time>
      </trkpt>
      <trkpt lat="41.780267" lon="2.510105">
        <ele>498.408</ele>
        <time>2021-05-26T14:10:57Z</time>
      </trkpt>
      <trkpt lat="41.780248" lon="2.510229">
        <ele>497.715</ele>
        <time>2021-05-26T14:11:00Z</time>
      </trkpt>
      <trkpt lat="41.780229" lon="2.510362">
        <ele>496.972</ele>
        <time>2021-05-26T14:11:04Z</time>
      </trkpt>
      <trkpt lat="41.780255" lon="2.510493">
        <ele>496.829</ele>
        <time>2021-05-26T14:11:09Z</time>
      </trkpt>
      <trkpt lat="41.780248" lon="2.510638">
        <ele>495.873</ele>
        <time>2021-05-26T14:11:14Z</time>
      </trkpt>
      <trkpt lat="41.780294" lon="2.510767">
        <ele>496.098</ele>
        <time>2021-05-26T14:11:19Z</time>
      </trkpt>
      <trkpt lat="41.780321" lon="2.510931">
        <ele>495.078</ele>
        <time>2021-05-26T14:11:25Z</time>
      </trkpt>
      <trkpt lat="41.780368" lon="2.511066">
        <ele>494.324</ele>
        <time>2021-05-26T14:11:30Z</time>
      </trkpt>
      <trkpt lat="41.780451" lon="2.511169">
        <ele>493.989</ele>
        <time>2021-05-26T14:11:33Z</time>
      </trkpt>
      <trkpt lat="41.780514" lon="2.511255">
        <ele>493.295</ele>
        <time>2021-05-26T14:11:37Z</time>
      </trkpt>
      <trkpt lat="41.780549" lon="2.511378">
        <ele>491.149</ele>
        <time>2021-05-26T14:11:41Z</time>
      </trkpt>
      <trkpt lat="41.780609" lon="2.511474">
        <ele>490.823</ele>
        <time>2021-05-26T14:11:46Z</time>
      </trkpt>
      <trkpt lat="41.780685" lon="2.511555">
        <ele>490.808</ele>
        <time>2021-05-26T14:11:51Z</time>
      </trkpt>
      <trkpt lat="41.780756" lon="2.511632">
        <ele>490.676</ele>
        <time>2021-05-26T14:11:55Z</time>
      </trkpt>
      <trkpt lat="41.780840" lon="2.511707">
        <ele>490.813</ele>
        <time>2021-05-26T14:12:00Z</time>
      </trkpt>
      <trkpt lat="41.780914" lon="2.511776">
        <ele>491.620</ele>
        <time>2021-05-26T14:12:05Z</time>
      </trkpt>
      <trkpt lat="41.781029" lon="2.511839">
        <ele>492.784</ele>
        <time>2021-05-26T14:12:11Z</time>
      </trkpt>
      <trkpt lat="41.781115" lon="2.511885">
        <ele>493.129</ele>
        <time>2021-05-26T14:12:15Z</time>
      </trkpt>
      <trkpt lat="41.781196" lon="2.511954">
        <ele>492.789</ele>
        <time>2021-05-26T14:12:21Z</time>
      </trkpt>
      <trkpt lat="41.781289" lon="2.512020">
        <ele>492.145</ele>
        <time>2021-05-26T14:12:28Z</time>
      </trkpt>
      <trkpt lat="41.781391" lon="2.512040">
        <ele>492.620</ele>
        <time>2021-05-26T14:12:35Z</time>
      </trkpt>
      <trkpt lat="41.781526" lon="2.512064">
        <ele>493.048</ele>
        <time>2021-05-26T14:12:42Z</time>
      </trkpt>
      <trkpt lat="41.781599" lon="2.512141">
        <ele>491.661</ele>
        <time>2021-05-26T14:12:45Z</time>
      </trkpt>
      <trkpt lat="41.781683" lon="2.512221">
        <ele>490.117</ele>
        <time>2021-05-26T14:12:49Z</time>
      </trkpt>
      <trkpt lat="41.781766" lon="2.512281">
        <ele>489.208</ele>
        <time>2021-05-26T14:12:58Z</time>
      </trkpt>
      <trkpt lat="41.781864" lon="2.512315">
        <ele>489.291</ele>
        <time>2021-05-26T14:13:09Z</time>
      </trkpt>
      <trkpt lat="41.781981" lon="2.512266">
        <ele>491.128</ele>
        <time>2021-05-26T14:13:14Z</time>
      </trkpt>
      <trkpt lat="41.782079" lon="2.512238">
        <ele>491.755</ele>
        <time>2021-05-26T14:13:19Z</time>
      </trkpt>
      <trkpt lat="41.782151" lon="2.512150">
        <ele>493.669</ele>
        <time>2021-05-26T14:13:26Z</time>
      </trkpt>
      <trkpt lat="41.782249" lon="2.512156">
        <ele>493.554</ele>
        <time>2021-05-26T14:13:31Z</time>
      </trkpt>
      <trkpt lat="41.782346" lon="2.512199">
        <ele>492.924</ele>
        <time>2021-05-26T14:13:36Z</time>
      </trkpt>
      <trkpt lat="41.782428" lon="2.512250">
        <ele>492.220</ele>
        <time>2021-05-26T14:13:41Z</time>
      </trkpt>
      <trkpt lat="41.782527" lon="2.512313">
        <ele>490.945</ele>
        <time>2021-05-26T14:13:46Z</time>
      </trkpt>
      <trkpt lat="41.782623" lon="2.512355">
        <ele>489.721</ele>
        <time>2021-05-26T14:13:50Z</time>
      </trkpt>
      <trkpt lat="41.782708" lon="2.512401">
        <ele>488.441</ele>
        <time>2021-05-26T14:13:54Z</time>
      </trkpt>
      <trkpt lat="41.782825" lon="2.512376">
        <ele>488.405</ele>
        <time>2021-05-26T14:14:00Z</time>
      </trkpt>
      <trkpt lat="41.782916" lon="2.512322">
        <ele>489.008</ele>
        <time>2021-05-26T14:14:03Z</time>
      </trkpt>
      <trkpt lat="41.783021" lon="2.512235">
        <ele>490.029</ele>
        <time>2021-05-26T14:14:07Z</time>
      </trkpt>
      <trkpt lat="41.783115" lon="2.512186">
        <ele>491.416</ele>
        <time>2021-05-26T14:14:11Z</time>
      </trkpt>
      <trkpt lat="41.783229" lon="2.512170">
        <ele>492.933</ele>
        <time>2021-05-26T14:14:15Z</time>
      </trkpt>
      <trkpt lat="41.783334" lon="2.512149">
        <ele>494.397</ele>
        <time>2021-05-26T14:14:19Z</time>
      </trkpt>
      <trkpt lat="41.783421" lon="2.512117">
        <ele>496.232</ele>
        <time>2021-05-26T14:14:22Z</time>
      </trkpt>
      <trkpt lat="41.783511" lon="2.512116">
        <ele>497.592</ele>
        <time>2021-05-26T14:14:27Z</time>
      </trkpt>
      <trkpt lat="41.783608" lon="2.512094">
        <ele>499.328</ele>
        <time>2021-05-26T14:14:32Z</time>
      </trkpt>
      <trkpt lat="41.783703" lon="2.512094">
        <ele>500.143</ele>
        <time>2021-05-26T14:14:38Z</time>
      </trkpt>
      <trkpt lat="41.783803" lon="2.512093">
        <ele>501.034</ele>
        <time>2021-05-26T14:14:43Z</time>
      </trkpt>
      <trkpt lat="41.783909" lon="2.512064">
        <ele>502.555</ele>
        <time>2021-05-26T14:14:48Z</time>
      </trkpt>
      <trkpt lat="41.784000" lon="2.512076">
        <ele>502.610</ele>
        <time>2021-05-26T14:14:53Z</time>
      </trkpt>
      <trkpt lat="41.784110" lon="2.512087">
        <ele>502.708</ele>
        <time>2021-05-26T14:14:59Z</time>
      </trkpt>
      <trkpt lat="41.784194" lon="2.512140">
        <ele>501.820</ele>
        <time>2021-05-26T14:15:03Z</time>
      </trkpt>
      <trkpt lat="41.784284" lon="2.512122">
        <ele>502.127</ele>
        <time>2021-05-26T14:15:09Z</time>
      </trkpt>
      <trkpt lat="41.784382" lon="2.512086">
        <ele>502.694</ele>
        <time>2021-05-26T14:15:12Z</time>
      </trkpt>
      <trkpt lat="41.784457" lon="2.511982">
        <ele>503.568</ele>
        <time>2021-05-26T14:15:13Z</time>
      </trkpt>
      <trkpt lat="41.784541" lon="2.511867">
        <ele>504.523</ele>
        <time>2021-05-26T14:15:17Z</time>
      </trkpt>
      <trkpt lat="41.784573" lon="2.511734">
        <ele>506.233</ele>
        <time>2021-05-26T14:15:20Z</time>
      </trkpt>
      <trkpt lat="41.784636" lon="2.511609">
        <ele>507.199</ele>
        <time>2021-05-26T14:15:24Z</time>
      </trkpt>
      <trkpt lat="41.784724" lon="2.511547">
        <ele>506.374</ele>
        <time>2021-05-26T14:15:27Z</time>
      </trkpt>
      <trkpt lat="41.784816" lon="2.511554">
        <ele>505.738</ele>
        <time>2021-05-26T14:15:34Z</time>
      </trkpt>
      <trkpt lat="41.784918" lon="2.511617">
        <ele>504.770</ele>
        <time>2021-05-26T14:15:45Z</time>
      </trkpt>
      <trkpt lat="41.785001" lon="2.511677">
        <ele>503.917</ele>
        <time>2021-05-26T14:15:48Z</time>
      </trkpt>
      <trkpt lat="41.785100" lon="2.511703">
        <ele>505.008</ele>
        <time>2021-05-26T14:15:51Z</time>
      </trkpt>
      <trkpt lat="41.785189" lon="2.511740">
        <ele>505.970</ele>
        <time>2021-05-26T14:15:57Z</time>
      </trkpt>
      <trkpt lat="41.785283" lon="2.511743">
        <ele>507.297</ele>
        <time>2021-05-26T14:16:03Z</time>
      </trkpt>
      <trkpt lat="41.785390" lon="2.511762">
        <ele>508.234</ele>
        <time>2021-05-26T14:16:10Z</time>
      </trkpt>
      <trkpt lat="41.785487" lon="2.511730">
        <ele>509.668</ele>
        <time>2021-05-26T14:16:19Z</time>
      </trkpt>
      <trkpt lat="41.785576" lon="2.511682">
        <ele>511.083</ele>
        <time>2021-05-26T14:16:26Z</time>
      </trkpt>
      <trkpt lat="41.785662" lon="2.511634">
        <ele>512.613</ele>
        <time>2021-05-26T14:16:33Z</time>
      </trkpt>
      <trkpt lat="41.785761" lon="2.511608">
        <ele>514.179</ele>
        <time>2021-05-26T14:16:41Z</time>
      </trkpt>
      <trkpt lat="41.785852" lon="2.511574">
        <ele>515.754</ele>
        <time>2021-05-26T14:16:50Z</time>
      </trkpt>
      <trkpt lat="41.785950" lon="2.511563">
        <ele>516.043</ele>
        <time>2021-05-26T14:16:59Z</time>
      </trkpt>
      <trkpt lat="41.786053" lon="2.511533">
        <ele>516.964</ele>
        <time>2021-05-26T14:17:04Z</time>
      </trkpt>
      <trkpt lat="41.786159" lon="2.511545">
        <ele>516.710</ele>
        <time>2021-05-26T14:17:10Z</time>
      </trkpt>
      <trkpt lat="41.786257" lon="2.511502">
        <ele>518.308</ele>
        <time>2021-05-26T14:17:18Z</time>
      </trkpt>
      <trkpt lat="41.786348" lon="2.511476">
        <ele>519.331</ele>
        <time>2021-05-26T14:17:26Z</time>
      </trkpt>
      <trkpt lat="41.786443" lon="2.511436">
        <ele>520.528</ele>
        <time>2021-05-26T14:17:33Z</time>
      </trkpt>
      <trkpt lat="41.786542" lon="2.511385">
        <ele>521.685</ele>
        <time>2021-05-26T14:17:38Z</time>
      </trkpt>
      <trkpt lat="41.786635" lon="2.511351">
        <ele>522.379</ele>
        <time>2021-05-26T14:17:48Z</time>
      </trkpt>
      <trkpt lat="41.786722" lon="2.511407">
        <ele>521.334</ele>
        <time>2021-05-26T14:17:57Z</time>
      </trkpt>
      <trkpt lat="41.786846" lon="2.511356">
        <ele>523.844</ele>
        <time>2021-05-26T14:18:06Z</time>
      </trkpt>
      <trkpt lat="41.786945" lon="2.511314">
        <ele>525.680</ele>
        <time>2021-05-26T14:18:18Z</time>
      </trkpt>
      <trkpt lat="41.787037" lon="2.511300">
        <ele>526.685</ele>
        <time>2021-05-26T14:18:26Z</time>
      </trkpt>
      <trkpt lat="41.787128" lon="2.511313">
        <ele>527.044</ele>
        <time>2021-05-26T14:18:34Z</time>
      </trkpt>
      <trkpt lat="41.787231" lon="2.511342">
        <ele>527.105</ele>
        <time>2021-05-26T14:18:41Z</time>
      </trkpt>
      <trkpt lat="41.787322" lon="2.511376">
        <ele>527.715</ele>
        <time>2021-05-26T14:18:48Z</time>
      </trkpt>
      <trkpt lat="41.787418" lon="2.511370">
        <ele>529.208</ele>
        <time>2021-05-26T14:18:56Z</time>
      </trkpt>
      <trkpt lat="41.787505" lon="2.511333">
        <ele>531.241</ele>
        <time>2021-05-26T14:19:01Z</time>
      </trkpt>
      <trkpt lat="41.787604" lon="2.511307">
        <ele>532.538</ele>
        <time>2021-05-26T14:19:09Z</time>
      </trkpt>
      <trkpt lat="41.787708" lon="2.511306">
        <ele>533.385</ele>
        <time>2021-05-26T14:19:21Z</time>
      </trkpt>
      <trkpt lat="41.787800" lon="2.511279">
        <ele>534.599</ele>
        <time>2021-05-26T14:19:31Z</time>
      </trkpt>
      <trkpt lat="41.787892" lon="2.511227">
        <ele>536.364</ele>
        <time>2021-05-26T14:19:37Z</time>
      </trkpt>
      <trkpt lat="41.787966" lon="2.511159">
        <ele>538.364</ele>
        <time>2021-05-26T14:19:43Z</time>
      </trkpt>
      <trkpt lat="41.787992" lon="2.511038">
        <ele>541.470</ele>
        <time>2021-05-26T14:19:51Z</time>
      </trkpt>
      <trkpt lat="41.788053" lon="2.510934">
        <ele>544.565</ele>
        <time>2021-05-26T14:19:58Z</time>
      </trkpt>
      <trkpt lat="41.788112" lon="2.510825">
        <ele>546.726</ele>
        <time>2021-05-26T14:20:08Z</time>
      </trkpt>
      <trkpt lat="41.788150" lon="2.510713">
        <ele>549.947</ele>
        <time>2021-05-26T14:20:17Z</time>
      </trkpt>
      <trkpt lat="41.788177" lon="2.510590">
        <ele>553.311</ele>
        <time>2021-05-26T14:20:24Z</time>
      </trkpt>
      <trkpt lat="41.788223" lon="2.510479">
        <ele>555.408</ele>
        <time>2021-05-26T14:20:31Z</time>
      </trkpt>
      <trkpt lat="41.788267" lon="2.510344">
        <ele>557.969</ele>
        <time>2021-05-26T14:20:36Z</time>
      </trkpt>
      <trkpt lat="41.788307" lon="2.510217">
        <ele>559.486</ele>
        <time>2021-05-26T14:20:42Z</time>
      </trkpt>
      <trkpt lat="41.788356" lon="2.510111">
        <ele>559.323</ele>
        <time>2021-05-26T14:20:46Z</time>
      </trkpt>
      <trkpt lat="41.788410" lon="2.509998">
        <ele>559.477</ele>
        <time>2021-05-26T14:20:50Z</time>
      </trkpt>
      <trkpt lat="41.788489" lon="2.509937">
        <ele>559.052</ele>
        <time>2021-05-26T14:20:54Z</time>
      </trkpt>
      <trkpt lat="41.788544" lon="2.509831">
        <ele>560.132</ele>
        <time>2021-05-26T14:20:59Z</time>
      </trkpt>
      <trkpt lat="41.788612" lon="2.509730">
        <ele>560.888</ele>
        <time>2021-05-26T14:21:03Z</time>
      </trkpt>
      <trkpt lat="41.788671" lon="2.509637">
        <ele>561.533</ele>
        <time>2021-05-26T14:21:07Z</time>
      </trkpt>
      <trkpt lat="41.788738" lon="2.509530">
        <ele>561.742</ele>
        <time>2021-05-26T14:21:12Z</time>
      </trkpt>
      <trkpt lat="41.788795" lon="2.509413">
        <ele>561.922</ele>
        <time>2021-05-26T14:21:17Z</time>
      </trkpt>
      <trkpt lat="41.788867" lon="2.509338">
        <ele>561.514</ele>
        <time>2021-05-26T14:21:20Z</time>
      </trkpt>
      <trkpt lat="41.788913" lon="2.509233">
        <ele>562.708</ele>
        <time>2021-05-26T14:21:28Z</time>
      </trkpt>
      <trkpt lat="41.789024" lon="2.509183">
        <ele>562.951</ele>
        <time>2021-05-26T14:21:38Z</time>
      </trkpt>
      <trkpt lat="41.789114" lon="2.509115">
        <ele>563.368</ele>
        <time>2021-05-26T14:21:46Z</time>
      </trkpt>
      <trkpt lat="41.789198" lon="2.509058">
        <ele>564.545</ele>
        <time>2021-05-26T14:21:52Z</time>
      </trkpt>
      <trkpt lat="41.789190" lon="2.508931">
        <ele>566.549</ele>
        <time>2021-05-26T14:22:00Z</time>
      </trkpt>
      <trkpt lat="41.789208" lon="2.508807">
        <ele>568.754</ele>
        <time>2021-05-26T14:22:07Z</time>
      </trkpt>
      <trkpt lat="41.789221" lon="2.508680">
        <ele>570.944</ele>
        <time>2021-05-26T14:22:14Z</time>
      </trkpt>
      <trkpt lat="41.789294" lon="2.508606">
        <ele>572.120</ele>
        <time>2021-05-26T14:22:32Z</time>
      </trkpt>
      <trkpt lat="41.789358" lon="2.508518">
        <ele>573.095</ele>
        <time>2021-05-26T14:22:42Z</time>
      </trkpt>
      <trkpt lat="41.789463" lon="2.508516">
        <ele>572.459</ele>
        <time>2021-05-26T14:22:49Z</time>
      </trkpt>
      <trkpt lat="41.789498" lon="2.508635">
        <ele>572.203</ele>
        <time>2021-05-26T14:22:58Z</time>
      </trkpt>
      <trkpt lat="41.789563" lon="2.508730">
        <ele>572.523</ele>
        <time>2021-05-26T14:23:10Z</time>
      </trkpt>
      <trkpt lat="41.789626" lon="2.508820">
        <ele>573.508</ele>
        <time>2021-05-26T14:23:22Z</time>
      </trkpt>
      <trkpt lat="41.789719" lon="2.508886">
        <ele>575.962</ele>
        <time>2021-05-26T14:23:26Z</time>
      </trkpt>
      <trkpt lat="41.789817" lon="2.508933">
        <ele>579.729</ele>
        <time>2021-05-26T14:23:29Z</time>
      </trkpt>
      <trkpt lat="41.789790" lon="2.509057">
        <ele>580.356</ele>
        <time>2021-05-26T14:23:39Z</time>
      </trkpt>
      <trkpt lat="41.789758" lon="2.509176">
        <ele>580.580</ele>
        <time>2021-05-26T14:23:51Z</time>
      </trkpt>
      <trkpt lat="41.789764" lon="2.509302">
        <ele>582.145</ele>
        <time>2021-05-26T14:24:01Z</time>
      </trkpt>
      <trkpt lat="41.789717" lon="2.509413">
        <ele>581.535</ele>
        <time>2021-05-26T14:24:11Z</time>
      </trkpt>
      <trkpt lat="41.789627" lon="2.509439">
        <ele>578.221</ele>
        <time>2021-05-26T14:24:18Z</time>
      </trkpt>
      <trkpt lat="41.789568" lon="2.509548">
        <ele>577.656</ele>
        <time>2021-05-26T14:24:24Z</time>
      </trkpt>
      <trkpt lat="41.789541" lon="2.509687">
        <ele>578.981</ele>
        <time>2021-05-26T14:24:34Z</time>
      </trkpt>
      <trkpt lat="41.789492" lon="2.509809">
        <ele>578.861</ele>
        <time>2021-05-26T14:24:44Z</time>
      </trkpt>
      <trkpt lat="41.789450" lon="2.509932">
        <ele>578.517</ele>
        <time>2021-05-26T14:24:53Z</time>
      </trkpt>
      <trkpt lat="41.789462" lon="2.510071">
        <ele>580.308</ele>
        <time>2021-05-26T14:24:56Z</time>
      </trkpt>
      <trkpt lat="41.789474" lon="2.510219">
        <ele>581.955</ele>
        <time>2021-05-26T14:25:02Z</time>
      </trkpt>
      <trkpt lat="41.789490" lon="2.510341">
        <ele>583.472</ele>
        <time>2021-05-26T14:25:06Z</time>
      </trkpt>
      <trkpt lat="41.789484" lon="2.510463">
        <ele>583.689</ele>
        <time>2021-05-26T14:25:28Z</time>
      </trkpt>
      <trkpt lat="41.789524" lon="2.510638">
        <ele>587.193</ele>
        <time>2021-05-26T14:25:40Z</time>
      </trkpt>
      <trkpt lat="41.789402" lon="2.510636">
        <ele>581.138</ele>
        <time>2021-05-26T14:25:43Z</time>
      </trkpt>
      <trkpt lat="41.789305" lon="2.510652">
        <ele>576.548</ele>
        <time>2021-05-26T14:25:48Z</time>
      </trkpt>
      <trkpt lat="41.789224" lon="2.510708">
        <ele>573.044</ele>
        <time>2021-05-26T14:25:52Z</time>
      </trkpt>
      <trkpt lat="41.789166" lon="2.510806">
        <ele>570.839</ele>
        <time>2021-05-26T14:25:57Z</time>
      </trkpt>
      <trkpt lat="41.789143" lon="2.510952">
        <ele>570.796</ele>
        <time>2021-05-26T14:26:05Z</time>
      </trkpt>
      <trkpt lat="41.789123" lon="2.511072">
        <ele>570.431</ele>
        <time>2021-05-26T14:26:08Z</time>
      </trkpt>
      <trkpt lat="41.789142" lon="2.511216">
        <ele>571.324</ele>
        <time>2021-05-26T14:26:13Z</time>
      </trkpt>
      <trkpt lat="41.789163" lon="2.511355">
        <ele>571.908</ele>
        <time>2021-05-26T14:26:16Z</time>
      </trkpt>
      <trkpt lat="41.789173" lon="2.511481">
        <ele>571.086</ele>
        <time>2021-05-26T14:26:28Z</time>
      </trkpt>
      <trkpt lat="41.789223" lon="2.511612">
        <ele>571.553</ele>
        <time>2021-05-26T14:26:35Z</time>
      </trkpt>
      <trkpt lat="41.789320" lon="2.511683">
        <ele>574.850</ele>
        <time>2021-05-26T14:26:42Z</time>
      </trkpt>
      <trkpt lat="41.789381" lon="2.511773">
        <ele>575.624</ele>
        <time>2021-05-26T14:26:51Z</time>
      </trkpt>
      <trkpt lat="41.789407" lon="2.511906">
        <ele>573.679</ele>
        <time>2021-05-26T14:27:05Z</time>
      </trkpt>
      <trkpt lat="41.789471" lon="2.511996">
        <ele>574.229</ele>
        <time>2021-05-26T14:27:14Z</time>
      </trkpt>
      <trkpt lat="41.789597" lon="2.512012">
        <ele>579.815</ele>
        <time>2021-05-26T14:27:25Z</time>
      </trkpt>
      <trkpt lat="41.789682" lon="2.511965">
        <ele>585.360</ele>
        <time>2021-05-26T14:27:31Z</time>
      </trkpt>
      <trkpt lat="41.789780" lon="2.511965">
        <ele>589.054</ele>
        <time>2021-05-26T14:27:45Z</time>
      </trkpt>
      <trkpt lat="41.789854" lon="2.512044">
        <ele>589.156</ele>
        <time>2021-05-26T14:27:51Z</time>
      </trkpt>
      <trkpt lat="41.789941" lon="2.512122">
        <ele>590.111</ele>
        <time>2021-05-26T14:27:58Z</time>
      </trkpt>
      <trkpt lat="41.789936" lon="2.511995">
        <ele>592.908</ele>
        <time>2021-05-26T14:28:15Z</time>
      </trkpt>
      <trkpt lat="41.789931" lon="2.511863">
        <ele>595.822</ele>
        <time>2021-05-26T14:28:21Z</time>
      </trkpt>
      <trkpt lat="41.789887" lon="2.511736">
        <ele>597.659</ele>
        <time>2021-05-26T14:28:30Z</time>
      </trkpt>
      <trkpt lat="41.789798" lon="2.511683">
        <ele>596.516</ele>
        <time>2021-05-26T14:28:36Z</time>
      </trkpt>
      <trkpt lat="41.789717" lon="2.511618">
        <ele>595.610</ele>
        <time>2021-05-26T14:28:45Z</time>
      </trkpt>
      <trkpt lat="41.789665" lon="2.511510">
        <ele>594.965</ele>
        <time>2021-05-26T14:28:50Z</time>
      </trkpt>
      <trkpt lat="41.789687" lon="2.511385">
        <ele>598.235</ele>
        <time>2021-05-26T14:29:06Z</time>
      </trkpt>
      <trkpt lat="41.789719" lon="2.511504">
        <ele>597.871</ele>
        <time>2021-05-26T14:29:35Z</time>
      </trkpt>
      <trkpt lat="41.789800" lon="2.511583">
        <ele>598.586</ele>
        <time>2021-05-26T14:29:40Z</time>
      </trkpt>
      <trkpt lat="41.789876" lon="2.511658">
        <ele>599.063</ele>
        <time>2021-05-26T14:29:45Z</time>
      </trkpt>
      <trkpt lat="41.789941" lon="2.511772">
        <ele>598.244</ele>
        <time>2021-05-26T14:29:50Z</time>
      </trkpt>
      <trkpt lat="41.790005" lon="2.511878">
        <ele>597.518</ele>
        <time>2021-05-26T14:29:54Z</time>
      </trkpt>
      <trkpt lat="41.790058" lon="2.511980">
        <ele>596.208</ele>
        <time>2021-05-26T14:29:58Z</time>
      </trkpt>
      <trkpt lat="41.790132" lon="2.512051">
        <ele>595.933</ele>
        <time>2021-05-26T14:30:02Z</time>
      </trkpt>
      <trkpt lat="41.790216" lon="2.512103">
        <ele>596.060</ele>
        <time>2021-05-26T14:30:06Z</time>
      </trkpt>
      <trkpt lat="41.790306" lon="2.512075">
        <ele>598.037</ele>
        <time>2021-05-26T14:30:11Z</time>
      </trkpt>
      <trkpt lat="41.790403" lon="2.512080">
        <ele>598.911</ele>
        <time>2021-05-26T14:30:16Z</time>
      </trkpt>
      <trkpt lat="41.790494" lon="2.512137">
        <ele>598.596</ele>
        <time>2021-05-26T14:30:21Z</time>
      </trkpt>
      <trkpt lat="41.790592" lon="2.512261">
        <ele>596.416</ele>
        <time>2021-05-26T14:30:25Z</time>
      </trkpt>
      <trkpt lat="41.790647" lon="2.512358">
        <ele>594.742</ele>
        <time>2021-05-26T14:30:30Z</time>
      </trkpt>
      <trkpt lat="41.790716" lon="2.512437">
        <ele>594.087</ele>
        <time>2021-05-26T14:30:35Z</time>
      </trkpt>
      <trkpt lat="41.790814" lon="2.512438">
        <ele>596.062</ele>
        <time>2021-05-26T14:30:43Z</time>
      </trkpt>
      <trkpt lat="41.790888" lon="2.512342">
        <ele>600.383</ele>
        <time>2021-05-26T14:31:03Z</time>
      </trkpt>
      <trkpt lat="41.790997" lon="2.512370">
        <ele>603.411</ele>
        <time>2021-05-26T14:31:13Z</time>
      </trkpt>
      <trkpt lat="41.791107" lon="2.512339">
        <ele>607.908</ele>
        <time>2021-05-26T14:31:19Z</time>
      </trkpt>
      <trkpt lat="41.791192" lon="2.512299">
        <ele>611.713</ele>
        <time>2021-05-26T14:31:27Z</time>
      </trkpt>
      <trkpt lat="41.791286" lon="2.512335">
        <ele>613.860</ele>
        <time>2021-05-26T14:31:40Z</time>
      </trkpt>
      <trkpt lat="41.791337" lon="2.512220">
        <ele>618.467</ele>
        <time>2021-05-26T14:32:02Z</time>
      </trkpt>
      <trkpt lat="41.791425" lon="2.512183">
        <ele>622.091</ele>
        <time>2021-05-26T14:32:19Z</time>
      </trkpt>
      <trkpt lat="41.791516" lon="2.512201">
        <ele>624.226</ele>
        <time>2021-05-26T14:32:27Z</time>
      </trkpt>
      <trkpt lat="41.791591" lon="2.512120">
        <ele>628.176</ele>
        <time>2021-05-26T14:32:39Z</time>
      </trkpt>
      <trkpt lat="41.791665" lon="2.512202">
        <ele>628.482</ele>
        <time>2021-05-26T14:32:49Z</time>
      </trkpt>
      <trkpt lat="41.791744" lon="2.512264">
        <ele>629.237</ele>
        <time>2021-05-26T14:32:56Z</time>
      </trkpt>
      <trkpt lat="41.791801" lon="2.512359">
        <ele>628.454</ele>
        <time>2021-05-26T14:33:05Z</time>
      </trkpt>
      <trkpt lat="41.791857" lon="2.512476">
        <ele>627.256</ele>
        <time>2021-05-26T14:33:12Z</time>
      </trkpt>
      <trkpt lat="41.791907" lon="2.512594">
        <ele>626.811</ele>
        <time>2021-05-26T14:33:20Z</time>
      </trkpt>
      <trkpt lat="41.791974" lon="2.512692">
        <ele>627.808</ele>
        <time>2021-05-26T14:33:28Z</time>
      </trkpt>
      <trkpt lat="41.792047" lon="2.512795">
        <ele>629.282</ele>
        <time>2021-05-26T14:33:35Z</time>
      </trkpt>
      <trkpt lat="41.792100" lon="2.512914">
        <ele>629.599</ele>
        <time>2021-05-26T14:33:42Z</time>
      </trkpt>
      <trkpt lat="41.792197" lon="2.512952">
        <ele>632.826</ele>
        <time>2021-05-26T14:33:50Z</time>
      </trkpt>
      <trkpt lat="41.792263" lon="2.513044">
        <ele>633.890</ele>
        <time>2021-05-26T14:33:58Z</time>
      </trkpt>
      <trkpt lat="41.792338" lon="2.513129">
        <ele>635.375</ele>
        <time>2021-05-26T14:34:05Z</time>
      </trkpt>
      <trkpt lat="41.792416" lon="2.513193">
        <ele>637.215</ele>
        <time>2021-05-26T14:34:13Z</time>
      </trkpt>
      <trkpt lat="41.792498" lon="2.513267">
        <ele>639.141</ele>
        <time>2021-05-26T14:34:20Z</time>
      </trkpt>
      <trkpt lat="41.792568" lon="2.513375">
        <ele>639.526</ele>
        <time>2021-05-26T14:34:28Z</time>
      </trkpt>
      <trkpt lat="41.792624" lon="2.513482">
        <ele>640.047</ele>
        <time>2021-05-26T14:34:35Z</time>
      </trkpt>
      <trkpt lat="41.792668" lon="2.513595">
        <ele>640.029</ele>
        <time>2021-05-26T14:34:41Z</time>
      </trkpt>
      <trkpt lat="41.792676" lon="2.513719">
        <ele>640.221</ele>
        <time>2021-05-26T14:34:49Z</time>
      </trkpt>
      <trkpt lat="41.792680" lon="2.513850">
        <ele>640.508</ele>
        <time>2021-05-26T14:34:56Z</time>
      </trkpt>
      <trkpt lat="41.792730" lon="2.513958">
        <ele>642.091</ele>
        <time>2021-05-26T14:35:05Z</time>
      </trkpt>
      <trkpt lat="41.792782" lon="2.514082">
        <ele>643.868</ele>
        <time>2021-05-26T14:35:10Z</time>
      </trkpt>
      <trkpt lat="41.792839" lon="2.514177">
        <ele>645.655</ele>
        <time>2021-05-26T14:35:19Z</time>
      </trkpt>
      <trkpt lat="41.792867" lon="2.514299">
        <ele>646.969</ele>
        <time>2021-05-26T14:35:27Z</time>
      </trkpt>
      <trkpt lat="41.792904" lon="2.514414">
        <ele>648.554</ele>
        <time>2021-05-26T14:35:35Z</time>
      </trkpt>
      <trkpt lat="41.792942" lon="2.514529">
        <ele>650.454</ele>
        <time>2021-05-26T14:35:42Z</time>
      </trkpt>
      <trkpt lat="41.792936" lon="2.514651">
        <ele>651.340</ele>
        <time>2021-05-26T14:35:48Z</time>
      </trkpt>
      <trkpt lat="41.792901" lon="2.514764">
        <ele>651.945</ele>
        <time>2021-05-26T14:35:57Z</time>
      </trkpt>
      <trkpt lat="41.792872" lon="2.514880">
        <ele>653.365</ele>
        <time>2021-05-26T14:36:06Z</time>
      </trkpt>
      <trkpt lat="41.792787" lon="2.514932">
        <ele>653.668</ele>
        <time>2021-05-26T14:36:25Z</time>
      </trkpt>
      <trkpt lat="41.792805" lon="2.515054">
        <ele>656.214</ele>
        <time>2021-05-26T14:36:37Z</time>
      </trkpt>
      <trkpt lat="41.792756" lon="2.515158">
        <ele>658.608</ele>
        <time>2021-05-26T14:36:49Z</time>
      </trkpt>
      <trkpt lat="41.792707" lon="2.515260">
        <ele>661.483</ele>
        <time>2021-05-26T14:36:59Z</time>
      </trkpt>
      <trkpt lat="41.792709" lon="2.515385">
        <ele>664.040</ele>
        <time>2021-05-26T14:37:07Z</time>
      </trkpt>
      <trkpt lat="41.792718" lon="2.515517">
        <ele>666.667</ele>
        <time>2021-05-26T14:37:23Z</time>
      </trkpt>
      <trkpt lat="41.792783" lon="2.515629">
        <ele>667.771</ele>
        <time>2021-05-26T14:37:31Z</time>
      </trkpt>
      <trkpt lat="41.792783" lon="2.515754">
        <ele>669.086</ele>
        <time>2021-05-26T14:37:39Z</time>
      </trkpt>
      <trkpt lat="41.792778" lon="2.515882">
        <ele>670.376</ele>
        <time>2021-05-26T14:37:47Z</time>
      </trkpt>
      <trkpt lat="41.792793" lon="2.516009">
        <ele>671.092</ele>
        <time>2021-05-26T14:37:55Z</time>
      </trkpt>
      <trkpt lat="41.792879" lon="2.516086">
        <ele>670.337</ele>
        <time>2021-05-26T14:38:00Z</time>
      </trkpt>
      <trkpt lat="41.792961" lon="2.516155">
        <ele>669.976</ele>
        <time>2021-05-26T14:38:04Z</time>
      </trkpt>
      <trkpt lat="41.793044" lon="2.516222">
        <ele>669.490</ele>
        <time>2021-05-26T14:38:08Z</time>
      </trkpt>
      <trkpt lat="41.793134" lon="2.516267">
        <ele>668.819</ele>
        <time>2021-05-26T14:38:12Z</time>
      </trkpt>
      <trkpt lat="41.793233" lon="2.516281">
        <ele>667.908</ele>
        <time>2021-05-26T14:38:16Z</time>
      </trkpt>
      <trkpt lat="41.793331" lon="2.516271">
        <ele>666.884</ele>
        <time>2021-05-26T14:38:21Z</time>
      </trkpt>
      <trkpt lat="41.793435" lon="2.516264">
        <ele>666.671</ele>
        <time>2021-05-26T14:38:25Z</time>
      </trkpt>
      <trkpt lat="41.793537" lon="2.516272">
        <ele>666.688</ele>
        <time>2021-05-26T14:38:30Z</time>
      </trkpt>
      <trkpt lat="41.793626" lon="2.516331">
        <ele>666.722</ele>
        <time>2021-05-26T14:38:36Z</time>
      </trkpt>
      <trkpt lat="41.793675" lon="2.516379">
        <ele>666.787</ele>
        <time>2021-05-26T14:38:38Z</time>
      </trkpt>
      <trkpt lat="41.793681" lon="2.516402">
        <ele>666.867</ele>
        <time>2021-05-26T14:38:39Z</time>
      </trkpt>
      <trkpt lat="41.793688" lon="2.516427">
        <ele>667.033</ele>
        <time>2021-05-26T14:38:40Z</time>
      </trkpt>
      <trkpt lat="41.793702" lon="2.516452">
        <ele>667.128</ele>
        <time>2021-05-26T14:38:41Z</time>
      </trkpt>
      <trkpt lat="41.793714" lon="2.516470">
        <ele>667.173</ele>
        <time>2021-05-26T14:38:42Z</time>
      </trkpt>
      <trkpt lat="41.793726" lon="2.516491">
        <ele>667.285</ele>
        <time>2021-05-26T14:38:43Z</time>
      </trkpt>
      <trkpt lat="41.793739" lon="2.516508">
        <ele>667.213</ele>
        <time>2021-05-26T14:38:44Z</time>
      </trkpt>
      <trkpt lat="41.793757" lon="2.516517">
        <ele>667.208</ele>
        <time>2021-05-26T14:38:46Z</time>
      </trkpt>
      <trkpt lat="41.793775" lon="2.516530">
        <ele>667.164</ele>
        <time>2021-05-26T14:38:48Z</time>
      </trkpt>
      <trkpt lat="41.793798" lon="2.516553">
        <ele>667.151</ele>
        <time>2021-05-26T14:38:50Z</time>
      </trkpt>
      <trkpt lat="41.793821" lon="2.516573">
        <ele>667.188</ele>
        <time>2021-05-26T14:38:53Z</time>
      </trkpt>
      <trkpt lat="41.793915" lon="2.516637">
        <ele>666.462</ele>
        <time>2021-05-26T14:39:00Z</time>
      </trkpt>
      <trkpt lat="41.793993" lon="2.516713">
        <ele>665.737</ele>
        <time>2021-05-26T14:39:05Z</time>
      </trkpt>
      <trkpt lat="41.794078" lon="2.516793">
        <ele>665.397</ele>
        <time>2021-05-26T14:39:09Z</time>
      </trkpt>
      <trkpt lat="41.794159" lon="2.516860">
        <ele>664.983</ele>
        <time>2021-05-26T14:39:13Z</time>
      </trkpt>
      <trkpt lat="41.794252" lon="2.516942">
        <ele>663.898</ele>
        <time>2021-05-26T14:39:17Z</time>
      </trkpt>
      <trkpt lat="41.794323" lon="2.517020">
        <ele>662.948</ele>
        <time>2021-05-26T14:39:22Z</time>
      </trkpt>
      <trkpt lat="41.794403" lon="2.517088">
        <ele>661.661</ele>
        <time>2021-05-26T14:39:25Z</time>
      </trkpt>
      <trkpt lat="41.794495" lon="2.517156">
        <ele>660.117</ele>
        <time>2021-05-26T14:39:29Z</time>
      </trkpt>
      <trkpt lat="41.794587" lon="2.517265">
        <ele>659.108</ele>
        <time>2021-05-26T14:39:33Z</time>
      </trkpt>
      <trkpt lat="41.794657" lon="2.517360">
        <ele>658.721</ele>
        <time>2021-05-26T14:39:37Z</time>
      </trkpt>
      <trkpt lat="41.794725" lon="2.517459">
        <ele>658.348</ele>
        <time>2021-05-26T14:39:42Z</time>
      </trkpt>
      <trkpt lat="41.794772" lon="2.517569">
        <ele>658.935</ele>
        <time>2021-05-26T14:39:46Z</time>
      </trkpt>
      <trkpt lat="41.794833" lon="2.517675">
        <ele>658.939</ele>
        <time>2021-05-26T14:39:50Z</time>
      </trkpt>
      <trkpt lat="41.794897" lon="2.517770">
        <ele>658.254</ele>
        <time>2021-05-26T14:39:54Z</time>
      </trkpt>
      <trkpt lat="41.794990" lon="2.517868">
        <ele>656.674</ele>
        <time>2021-05-26T14:39:58Z</time>
      </trkpt>
      <trkpt lat="41.795059" lon="2.517973">
        <ele>655.910</ele>
        <time>2021-05-26T14:40:02Z</time>
      </trkpt>
      <trkpt lat="41.795108" lon="2.518083">
        <ele>655.365</ele>
        <time>2021-05-26T14:40:06Z</time>
      </trkpt>
      <trkpt lat="41.795157" lon="2.518214">
        <ele>654.478</ele>
        <time>2021-05-26T14:40:11Z</time>
      </trkpt>
      <trkpt lat="41.795238" lon="2.518293">
        <ele>651.533</ele>
        <time>2021-05-26T14:40:18Z</time>
      </trkpt>
      <trkpt lat="41.795335" lon="2.518343">
        <ele>648.826</ele>
        <time>2021-05-26T14:40:23Z</time>
      </trkpt>
      <trkpt lat="41.795413" lon="2.518406">
        <ele>647.208</ele>
        <time>2021-05-26T14:40:26Z</time>
      </trkpt>
      <trkpt lat="41.795478" lon="2.518516">
        <ele>645.664</ele>
        <time>2021-05-26T14:40:31Z</time>
      </trkpt>
      <trkpt lat="41.795534" lon="2.518611">
        <ele>643.731</ele>
        <time>2021-05-26T14:40:35Z</time>
      </trkpt>
      <trkpt lat="41.795585" lon="2.518719">
        <ele>641.988</ele>
        <time>2021-05-26T14:40:39Z</time>
      </trkpt>
      <trkpt lat="41.795568" lon="2.518850">
        <ele>641.892</ele>
        <time>2021-05-26T14:40:45Z</time>
      </trkpt>
      <trkpt lat="41.795604" lon="2.518965">
        <ele>640.537</ele>
        <time>2021-05-26T14:40:51Z</time>
      </trkpt>
      <trkpt lat="41.795679" lon="2.519050">
        <ele>638.147</ele>
        <time>2021-05-26T14:40:56Z</time>
      </trkpt>
      <trkpt lat="41.795770" lon="2.519007">
        <ele>635.853</ele>
        <time>2021-05-26T14:41:02Z</time>
      </trkpt>
      <trkpt lat="41.795831" lon="2.518897">
        <ele>635.058</ele>
        <time>2021-05-26T14:41:07Z</time>
      </trkpt>
      <trkpt lat="41.795869" lon="2.518767">
        <ele>634.737</ele>
        <time>2021-05-26T14:41:11Z</time>
      </trkpt>
      <trkpt lat="41.795909" lon="2.518640">
        <ele>634.549</ele>
        <time>2021-05-26T14:41:16Z</time>
      </trkpt>
      <trkpt lat="41.795946" lon="2.518513">
        <ele>634.713</ele>
        <time>2021-05-26T14:41:20Z</time>
      </trkpt>
      <trkpt lat="41.795965" lon="2.518381">
        <ele>635.308</ele>
        <time>2021-05-26T14:41:25Z</time>
      </trkpt>
      <trkpt lat="41.796004" lon="2.518231">
        <ele>636.080</ele>
        <time>2021-05-26T14:41:30Z</time>
      </trkpt>
      <trkpt lat="41.796086" lon="2.518147">
        <ele>635.557</ele>
        <time>2021-05-26T14:41:37Z</time>
      </trkpt>
      <trkpt lat="41.796185" lon="2.518106">
        <ele>635.054</ele>
        <time>2021-05-26T14:41:42Z</time>
      </trkpt>
      <trkpt lat="41.796281" lon="2.518063">
        <ele>635.378</ele>
        <time>2021-05-26T14:41:47Z</time>
      </trkpt>
      <trkpt lat="41.796385" lon="2.518027">
        <ele>635.623</ele>
        <time>2021-05-26T14:41:52Z</time>
      </trkpt>
      <trkpt lat="41.796476" lon="2.518042">
        <ele>634.123</ele>
        <time>2021-05-26T14:41:57Z</time>
      </trkpt>
      <trkpt lat="41.796571" lon="2.518055">
        <ele>632.459</ele>
        <time>2021-05-26T14:42:01Z</time>
      </trkpt>
      <trkpt lat="41.796683" lon="2.518051">
        <ele>630.884</ele>
        <time>2021-05-26T14:42:05Z</time>
      </trkpt>
      <trkpt lat="41.796776" lon="2.518044">
        <ele>629.316</ele>
        <time>2021-05-26T14:42:10Z</time>
      </trkpt>
      <trkpt lat="41.796825" lon="2.518028">
        <ele>628.776</ele>
        <time>2021-05-26T14:42:14Z</time>
      </trkpt>
      <trkpt lat="41.796915" lon="2.517970">
        <ele>627.913</ele>
        <time>2021-05-26T14:42:24Z</time>
      </trkpt>
      <trkpt lat="41.796972" lon="2.517875">
        <ele>627.708</ele>
        <time>2021-05-26T14:42:31Z</time>
      </trkpt>
      <trkpt lat="41.796989" lon="2.517739">
        <ele>628.918</ele>
        <time>2021-05-26T14:42:39Z</time>
      </trkpt>
      <trkpt lat="41.797034" lon="2.517628">
        <ele>628.445</ele>
        <time>2021-05-26T14:42:46Z</time>
      </trkpt>
      <trkpt lat="41.796990" lon="2.517743">
        <ele>628.922</ele>
        <time>2021-05-26T14:43:05Z</time>
      </trkpt>
      <trkpt lat="41.796965" lon="2.517863">
        <ele>628.166</ele>
        <time>2021-05-26T14:43:14Z</time>
      </trkpt>
      <trkpt lat="41.796928" lon="2.517978">
        <ele>627.511</ele>
        <time>2021-05-26T14:43:30Z</time>
      </trkpt>
      <trkpt lat="41.796980" lon="2.518023">
        <ele>625.351</ele>
        <time>2021-05-26T14:43:33Z</time>
      </trkpt>
      <trkpt lat="41.797002" lon="2.518040">
        <ele>624.457</ele>
        <time>2021-05-26T14:43:34Z</time>
      </trkpt>
      <trkpt lat="41.797086" lon="2.518119">
        <ele>620.282</ele>
        <time>2021-05-26T14:43:39Z</time>
      </trkpt>
      <trkpt lat="41.797179" lon="2.518122">
        <ele>617.255</ele>
        <time>2021-05-26T14:43:46Z</time>
      </trkpt>
      <trkpt lat="41.797258" lon="2.518059">
        <ele>615.507</ele>
        <time>2021-05-26T14:43:53Z</time>
      </trkpt>
      <trkpt lat="41.797341" lon="2.518007">
        <ele>612.817</ele>
        <time>2021-05-26T14:44:00Z</time>
      </trkpt>
      <trkpt lat="41.797435" lon="2.518028">
        <ele>608.808</ele>
        <time>2021-05-26T14:44:08Z</time>
      </trkpt>
      <trkpt lat="41.797526" lon="2.518030">
        <ele>605.222</ele>
        <time>2021-05-26T14:44:15Z</time>
      </trkpt>
      <trkpt lat="41.797625" lon="2.518040">
        <ele>601.679</ele>
        <time>2021-05-26T14:44:20Z</time>
      </trkpt>
      <trkpt lat="41.797716" lon="2.518052">
        <ele>598.286</ele>
        <time>2021-05-26T14:44:27Z</time>
      </trkpt>
      <trkpt lat="41.797815" lon="2.518012">
        <ele>595.020</ele>
        <time>2021-05-26T14:44:33Z</time>
      </trkpt>
      <trkpt lat="41.797863" lon="2.517909">
        <ele>593.825</ele>
        <time>2021-05-26T14:44:38Z</time>
      </trkpt>
      <trkpt lat="41.797931" lon="2.517827">
        <ele>591.965</ele>
        <time>2021-05-26T14:44:46Z</time>
      </trkpt>
      <trkpt lat="41.798018" lon="2.517786">
        <ele>589.241</ele>
        <time>2021-05-26T14:44:50Z</time>
      </trkpt>
      <trkpt lat="41.798038" lon="2.517745">
        <ele>588.736</ele>
        <time>2021-05-26T14:44:52Z</time>
      </trkpt>
      <trkpt lat="41.798050" lon="2.517723">
        <ele>588.465</ele>
        <time>2021-05-26T14:44:53Z</time>
      </trkpt>
      <trkpt lat="41.798092" lon="2.517607">
        <ele>587.368</ele>
        <time>2021-05-26T14:44:58Z</time>
      </trkpt>
      <trkpt lat="41.798106" lon="2.517470">
        <ele>586.714</ele>
        <time>2021-05-26T14:45:02Z</time>
      </trkpt>
      <trkpt lat="41.798163" lon="2.517401">
        <ele>583.808</ele>
        <time>2021-05-26T14:45:10Z</time>
      </trkpt>
      <trkpt lat="41.798232" lon="2.517356">
        <ele>580.823</ele>
        <time>2021-05-26T14:45:15Z</time>
      </trkpt>
      <trkpt lat="41.798328" lon="2.517309">
        <ele>576.810</ele>
        <time>2021-05-26T14:45:24Z</time>
      </trkpt>
      <trkpt lat="41.798415" lon="2.517256">
        <ele>574.467</ele>
        <time>2021-05-26T14:45:29Z</time>
      </trkpt>
      <trkpt lat="41.798508" lon="2.517246">
        <ele>572.371</ele>
        <time>2021-05-26T14:45:38Z</time>
      </trkpt>
      <trkpt lat="41.798603" lon="2.517207">
        <ele>570.186</ele>
        <time>2021-05-26T14:45:46Z</time>
      </trkpt>
      <trkpt lat="41.798701" lon="2.517162">
        <ele>568.026</ele>
        <time>2021-05-26T14:45:53Z</time>
      </trkpt>
      <trkpt lat="41.798785" lon="2.517087">
        <ele>565.882</ele>
        <time>2021-05-26T14:46:02Z</time>
      </trkpt>
      <trkpt lat="41.798883" lon="2.517061">
        <ele>563.427</ele>
        <time>2021-05-26T14:46:07Z</time>
      </trkpt>
      <trkpt lat="41.798983" lon="2.516953">
        <ele>560.152</ele>
        <time>2021-05-26T14:46:13Z</time>
      </trkpt>
      <trkpt lat="41.799074" lon="2.516901">
        <ele>557.453</ele>
        <time>2021-05-26T14:46:18Z</time>
      </trkpt>
      <trkpt lat="41.799175" lon="2.516831">
        <ele>554.308</ele>
        <time>2021-05-26T14:46:23Z</time>
      </trkpt>
      <trkpt lat="41.799281" lon="2.516804">
        <ele>553.208</ele>
        <time>2021-05-26T14:46:28Z</time>
      </trkpt>
      <trkpt lat="41.799365" lon="2.516745">
        <ele>552.062</ele>
        <time>2021-05-26T14:46:33Z</time>
      </trkpt>
      <trkpt lat="41.799456" lon="2.516666">
        <ele>551.029</ele>
        <time>2021-05-26T14:46:38Z</time>
      </trkpt>
      <trkpt lat="41.799499" lon="2.516546">
        <ele>549.786</ele>
        <time>2021-05-26T14:46:42Z</time>
      </trkpt>
      <trkpt lat="41.799442" lon="2.516425">
        <ele>548.450</ele>
        <time>2021-05-26T14:46:49Z</time>
      </trkpt>
      <trkpt lat="41.799380" lon="2.516298">
        <ele>546.445</ele>
        <time>2021-05-26T14:46:56Z</time>
      </trkpt>
      <trkpt lat="41.799373" lon="2.516161">
        <ele>543.915</ele>
        <time>2021-05-26T14:47:02Z</time>
      </trkpt>
      <trkpt lat="41.799354" lon="2.516020">
        <ele>541.251</ele>
        <time>2021-05-26T14:47:06Z</time>
      </trkpt>
      <trkpt lat="41.799362" lon="2.515893">
        <ele>538.836</ele>
        <time>2021-05-26T14:47:12Z</time>
      </trkpt>
      <trkpt lat="41.799347" lon="2.515763">
        <ele>536.928</ele>
        <time>2021-05-26T14:47:19Z</time>
      </trkpt>
      <trkpt lat="41.799399" lon="2.515640">
        <ele>534.889</ele>
        <time>2021-05-26T14:47:27Z</time>
      </trkpt>
      <trkpt lat="41.799410" lon="2.515578">
        <ele>533.817</ele>
        <time>2021-05-26T14:47:31Z</time>
      </trkpt>
      <trkpt lat="41.799395" lon="2.515555">
        <ele>533.708</ele>
        <time>2021-05-26T14:47:33Z</time>
      </trkpt>
      <trkpt lat="41.799372" lon="2.515437">
        <ele>533.489</ele>
        <time>2021-05-26T14:47:39Z</time>
      </trkpt>
      <trkpt lat="41.799412" lon="2.515363">
        <ele>532.216</ele>
        <time>2021-05-26T14:47:46Z</time>
      </trkpt>
      <trkpt lat="41.799460" lon="2.515292">
        <ele>530.313</ele>
        <time>2021-05-26T14:47:53Z</time>
      </trkpt>
      <trkpt lat="41.799488" lon="2.515279">
        <ele>528.747</ele>
        <time>2021-05-26T14:47:56Z</time>
      </trkpt>
      <trkpt lat="41.799487" lon="2.515304">
        <ele>529.042</ele>
        <time>2021-05-26T14:47:58Z</time>
      </trkpt>
      <trkpt lat="41.799484" lon="2.515339">
        <ele>529.552</ele>
        <time>2021-05-26T14:48:01Z</time>
      </trkpt>
      <trkpt lat="41.799476" lon="2.515371">
        <ele>530.248</ele>
        <time>2021-05-26T14:48:03Z</time>
      </trkpt>
      <trkpt lat="41.799493" lon="2.515400">
        <ele>529.773</ele>
        <time>2021-05-26T14:48:05Z</time>
      </trkpt>
      <trkpt lat="41.799521" lon="2.515405">
        <ele>528.542</ele>
        <time>2021-05-26T14:48:07Z</time>
      </trkpt>
      <trkpt lat="41.799549" lon="2.515420">
        <ele>527.522</ele>
        <time>2021-05-26T14:48:09Z</time>
      </trkpt>
      <trkpt lat="41.799589" lon="2.515435">
        <ele>526.114</ele>
        <time>2021-05-26T14:48:11Z</time>
      </trkpt>
      <trkpt lat="41.799610" lon="2.515439">
        <ele>525.308</ele>
        <time>2021-05-26T14:48:12Z</time>
      </trkpt>
      <trkpt lat="41.799630" lon="2.515444">
        <ele>524.611</ele>
        <time>2021-05-26T14:48:13Z</time>
      </trkpt>
      <trkpt lat="41.799664" lon="2.515440">
        <ele>523.178</ele>
        <time>2021-05-26T14:48:15Z</time>
      </trkpt>
      <trkpt lat="41.799693" lon="2.515426">
        <ele>521.555</ele>
        <time>2021-05-26T14:48:17Z</time>
      </trkpt>
      <trkpt lat="41.799712" lon="2.515411">
        <ele>520.339</ele>
        <time>2021-05-26T14:48:18Z</time>
      </trkpt>
      <trkpt lat="41.799735" lon="2.515401">
        <ele>519.194</ele>
        <time>2021-05-26T14:48:19Z</time>
      </trkpt>
      <trkpt lat="41.799764" lon="2.515390">
        <ele>517.674</ele>
        <time>2021-05-26T14:48:21Z</time>
      </trkpt>
      <trkpt lat="41.799786" lon="2.515380">
        <ele>516.570</ele>
        <time>2021-05-26T14:48:23Z</time>
      </trkpt>
      <trkpt lat="41.799817" lon="2.515365">
        <ele>514.965</ele>
        <time>2021-05-26T14:48:25Z</time>
      </trkpt>
      <trkpt lat="41.799839" lon="2.515344">
        <ele>513.467</ele>
        <time>2021-05-26T14:48:27Z</time>
      </trkpt>
      <trkpt lat="41.799867" lon="2.515330">
        <ele>511.981</ele>
        <time>2021-05-26T14:48:28Z</time>
      </trkpt>
      <trkpt lat="41.799890" lon="2.515323">
        <ele>510.819</ele>
        <time>2021-05-26T14:48:30Z</time>
      </trkpt>
      <trkpt lat="41.799915" lon="2.515317">
        <ele>509.608</ele>
        <time>2021-05-26T14:48:31Z</time>
      </trkpt>
      <trkpt lat="41.799937" lon="2.515310">
        <ele>508.593</ele>
        <time>2021-05-26T14:48:32Z</time>
      </trkpt>
      <trkpt lat="41.799959" lon="2.515305">
        <ele>507.530</ele>
        <time>2021-05-26T14:48:33Z</time>
      </trkpt>
      <trkpt lat="41.800012" lon="2.515282">
        <ele>504.837</ele>
        <time>2021-05-26T14:48:36Z</time>
      </trkpt>
      <trkpt lat="41.800048" lon="2.515288">
        <ele>503.941</ele>
        <time>2021-05-26T14:48:39Z</time>
      </trkpt>
      <trkpt lat="41.800071" lon="2.515295">
        <ele>503.546</ele>
        <time>2021-05-26T14:48:41Z</time>
      </trkpt>
      <trkpt lat="41.800101" lon="2.515307">
        <ele>503.096</ele>
        <time>2021-05-26T14:48:43Z</time>
      </trkpt>
      <trkpt lat="41.800122" lon="2.515312">
        <ele>502.672</ele>
        <time>2021-05-26T14:48:45Z</time>
      </trkpt>
      <trkpt lat="41.800152" lon="2.515314">
        <ele>501.847</ele>
        <time>2021-05-26T14:48:47Z</time>
      </trkpt>
      <trkpt lat="41.800175" lon="2.515321">
        <ele>501.481</ele>
        <time>2021-05-26T14:48:49Z</time>
      </trkpt>
      <trkpt lat="41.800202" lon="2.515334">
        <ele>501.061</ele>
        <time>2021-05-26T14:48:51Z</time>
      </trkpt>
      <trkpt lat="41.800227" lon="2.515340">
        <ele>500.517</ele>
        <time>2021-05-26T14:48:53Z</time>
      </trkpt>
      <trkpt lat="41.800261" lon="2.515339">
        <ele>499.508</ele>
        <time>2021-05-26T14:48:55Z</time>
      </trkpt>
      <trkpt lat="41.800282" lon="2.515328">
        <ele>498.525</ele>
        <time>2021-05-26T14:48:57Z</time>
      </trkpt>
      <trkpt lat="41.800301" lon="2.515316">
        <ele>497.332</ele>
        <time>2021-05-26T14:48:59Z</time>
      </trkpt>
      <trkpt lat="41.800323" lon="2.515316">
        <ele>496.489</ele>
        <time>2021-05-26T14:49:01Z</time>
      </trkpt>
      <trkpt lat="41.800416" lon="2.515348">
        <ele>493.643</ele>
        <time>2021-05-26T14:49:09Z</time>
      </trkpt>
      <trkpt lat="41.800515" lon="2.515329">
        <ele>489.038</ele>
        <time>2021-05-26T14:49:18Z</time>
      </trkpt>
      <trkpt lat="41.800629" lon="2.515326">
        <ele>484.528</ele>
        <time>2021-05-26T14:49:25Z</time>
      </trkpt>
      <trkpt lat="41.800726" lon="2.515345">
        <ele>481.344</ele>
        <time>2021-05-26T14:49:31Z</time>
      </trkpt>
      <trkpt lat="41.800817" lon="2.515343">
        <ele>477.859</ele>
        <time>2021-05-26T14:49:42Z</time>
      </trkpt>
      <trkpt lat="41.800903" lon="2.515386">
        <ele>476.082</ele>
        <time>2021-05-26T14:49:48Z</time>
      </trkpt>
      <trkpt lat="41.801000" lon="2.515431">
        <ele>473.943</ele>
        <time>2021-05-26T14:49:55Z</time>
      </trkpt>
      <trkpt lat="41.801093" lon="2.515484">
        <ele>471.817</ele>
        <time>2021-05-26T14:50:01Z</time>
      </trkpt>
      <trkpt lat="41.801175" lon="2.515547">
        <ele>470.508</ele>
        <time>2021-05-26T14:50:08Z</time>
      </trkpt>
      <trkpt lat="41.801252" lon="2.515473">
        <ele>468.125</ele>
        <time>2021-05-26T14:50:18Z</time>
      </trkpt>
      <trkpt lat="41.801341" lon="2.515425">
        <ele>465.672</ele>
        <time>2021-05-26T14:50:26Z</time>
      </trkpt>
      <trkpt lat="41.801419" lon="2.515339">
        <ele>462.919</ele>
        <time>2021-05-26T14:50:32Z</time>
      </trkpt>
      <trkpt lat="41.801490" lon="2.515256">
        <ele>460.683</ele>
        <time>2021-05-26T14:50:39Z</time>
      </trkpt>
      <trkpt lat="41.801586" lon="2.515209">
        <ele>458.458</ele>
        <time>2021-05-26T14:50:46Z</time>
      </trkpt>
      <trkpt lat="41.801677" lon="2.515146">
        <ele>456.388</ele>
        <time>2021-05-26T14:50:53Z</time>
      </trkpt>
      <trkpt lat="41.801751" lon="2.515039">
        <ele>454.394</ele>
        <time>2021-05-26T14:51:00Z</time>
      </trkpt>
      <trkpt lat="41.801813" lon="2.514926">
        <ele>452.279</ele>
        <time>2021-05-26T14:51:05Z</time>
      </trkpt>
      <trkpt lat="41.801861" lon="2.514810">
        <ele>450.047</ele>
        <time>2021-05-26T14:51:11Z</time>
      </trkpt>
      <trkpt lat="41.801878" lon="2.514668">
        <ele>447.929</ele>
        <time>2021-05-26T14:51:16Z</time>
      </trkpt>
      <trkpt lat="41.801895" lon="2.514545">
        <ele>445.821</ele>
        <time>2021-05-26T14:51:25Z</time>
      </trkpt>
      <trkpt lat="41.801974" lon="2.514468">
        <ele>442.608</ele>
        <time>2021-05-26T14:51:30Z</time>
      </trkpt>
      <trkpt lat="41.802057" lon="2.514526">
        <ele>441.121</ele>
        <time>2021-05-26T14:51:35Z</time>
      </trkpt>
      <trkpt lat="41.802151" lon="2.514563">
        <ele>438.978</ele>
        <time>2021-05-26T14:51:41Z</time>
      </trkpt>
      <trkpt lat="41.802240" lon="2.514620">
        <ele>436.935</ele>
        <time>2021-05-26T14:51:52Z</time>
      </trkpt>
      <trkpt lat="41.802259" lon="2.514746">
        <ele>437.139</ele>
        <time>2021-05-26T14:51:57Z</time>
      </trkpt>
      <trkpt lat="41.802293" lon="2.514868">
        <ele>436.694</ele>
        <time>2021-05-26T14:52:04Z</time>
      </trkpt>
      <trkpt lat="41.802373" lon="2.514941">
        <ele>434.654</ele>
        <time>2021-05-26T14:52:11Z</time>
      </trkpt>
      <trkpt lat="41.802458" lon="2.514876">
        <ele>432.120</ele>
        <time>2021-05-26T14:52:18Z</time>
      </trkpt>
      <trkpt lat="41.802555" lon="2.514811">
        <ele>430.275</ele>
        <time>2021-05-26T14:52:22Z</time>
      </trkpt>
      <trkpt lat="41.802639" lon="2.514762">
        <ele>429.381</ele>
        <time>2021-05-26T14:52:25Z</time>
      </trkpt>
      <trkpt lat="41.802726" lon="2.514695">
        <ele>429.061</ele>
        <time>2021-05-26T14:52:29Z</time>
      </trkpt>
      <trkpt lat="41.802801" lon="2.514651">
        <ele>428.917</ele>
        <time>2021-05-26T14:52:33Z</time>
      </trkpt>
      <trkpt lat="41.802829" lon="2.514649">
        <ele>428.608</ele>
        <time>2021-05-26T14:52:35Z</time>
      </trkpt>
      <trkpt lat="41.802864" lon="2.514664">
        <ele>427.845</ele>
        <time>2021-05-26T14:52:37Z</time>
      </trkpt>
      <trkpt lat="41.802892" lon="2.514672">
        <ele>427.322</ele>
        <time>2021-05-26T14:52:39Z</time>
      </trkpt>
      <trkpt lat="41.802916" lon="2.514676">
        <ele>426.869</ele>
        <time>2021-05-26T14:52:40Z</time>
      </trkpt>
      <trkpt lat="41.802941" lon="2.514675">
        <ele>426.593</ele>
        <time>2021-05-26T14:52:41Z</time>
      </trkpt>
      <trkpt lat="41.802965" lon="2.514679">
        <ele>426.128</ele>
        <time>2021-05-26T14:52:42Z</time>
      </trkpt>
      <trkpt lat="41.802985" lon="2.514679">
        <ele>425.898</ele>
        <time>2021-05-26T14:52:43Z</time>
      </trkpt>
      <trkpt lat="41.803005" lon="2.514681">
        <ele>425.544</ele>
        <time>2021-05-26T14:52:44Z</time>
      </trkpt>
      <trkpt lat="41.803040" lon="2.514686">
        <ele>424.929</ele>
        <time>2021-05-26T14:52:46Z</time>
      </trkpt>
      <trkpt lat="41.803075" lon="2.514694">
        <ele>424.318</ele>
        <time>2021-05-26T14:52:48Z</time>
      </trkpt>
      <trkpt lat="41.803095" lon="2.514702">
        <ele>423.998</ele>
        <time>2021-05-26T14:52:49Z</time>
      </trkpt>
      <trkpt lat="41.803115" lon="2.514707">
        <ele>423.617</ele>
        <time>2021-05-26T14:52:50Z</time>
      </trkpt>
      <trkpt lat="41.803201" lon="2.514768">
        <ele>421.808</ele>
        <time>2021-05-26T14:52:56Z</time>
      </trkpt>
      <trkpt lat="41.803293" lon="2.514838">
        <ele>419.868</ele>
        <time>2021-05-26T14:53:01Z</time>
      </trkpt>
      <trkpt lat="41.803386" lon="2.514892">
        <ele>417.735</ele>
        <time>2021-05-26T14:53:05Z</time>
      </trkpt>
      <trkpt lat="41.803462" lon="2.514959">
        <ele>415.742</ele>
        <time>2021-05-26T14:53:10Z</time>
      </trkpt>
      <trkpt lat="41.803535" lon="2.515040">
        <ele>413.516</ele>
        <time>2021-05-26T14:53:18Z</time>
      </trkpt>
      <trkpt lat="41.803581" lon="2.515147">
        <ele>411.381</ele>
        <time>2021-05-26T14:53:22Z</time>
      </trkpt>
      <trkpt lat="41.803654" lon="2.515241">
        <ele>408.611</ele>
        <time>2021-05-26T14:53:27Z</time>
      </trkpt>
      <trkpt lat="41.803750" lon="2.515234">
        <ele>406.657</ele>
        <time>2021-05-26T14:53:33Z</time>
      </trkpt>
      <trkpt lat="41.803839" lon="2.515271">
        <ele>404.252</ele>
        <time>2021-05-26T14:53:43Z</time>
      </trkpt>
      <trkpt lat="41.803911" lon="2.515366">
        <ele>401.858</ele>
        <time>2021-05-26T14:53:52Z</time>
      </trkpt>
      <trkpt lat="41.804009" lon="2.515350">
        <ele>400.952</ele>
        <time>2021-05-26T14:53:57Z</time>
      </trkpt>
      <trkpt lat="41.804095" lon="2.515294">
        <ele>400.617</ele>
        <time>2021-05-26T14:54:02Z</time>
      </trkpt>
      <trkpt lat="41.804181" lon="2.515247">
        <ele>399.808</ele>
        <time>2021-05-26T14:54:06Z</time>
      </trkpt>
      <trkpt lat="41.804285" lon="2.515229">
        <ele>398.122</ele>
        <time>2021-05-26T14:54:11Z</time>
      </trkpt>
      <trkpt lat="41.804392" lon="2.515184">
        <ele>396.279</ele>
        <time>2021-05-26T14:54:16Z</time>
      </trkpt>
      <trkpt lat="41.804482" lon="2.515159">
        <ele>394.126</ele>
        <time>2021-05-26T14:54:21Z</time>
      </trkpt>
      <trkpt lat="41.804590" lon="2.515205">
        <ele>391.470</ele>
        <time>2021-05-26T14:54:29Z</time>
      </trkpt>
      <trkpt lat="41.804661" lon="2.515116">
        <ele>389.185</ele>
        <time>2021-05-26T14:54:36Z</time>
      </trkpt>
      <trkpt lat="41.804747" lon="2.515059">
        <ele>386.665</ele>
        <time>2021-05-26T14:54:44Z</time>
      </trkpt>
      <trkpt lat="41.804836" lon="2.515006">
        <ele>384.521</ele>
        <time>2021-05-26T14:54:54Z</time>
      </trkpt>
      <trkpt lat="41.804928" lon="2.514970">
        <ele>382.676</ele>
        <time>2021-05-26T14:54:59Z</time>
      </trkpt>
      <trkpt lat="41.805018" lon="2.514986">
        <ele>380.734</ele>
        <time>2021-05-26T14:55:07Z</time>
      </trkpt>
      <trkpt lat="41.805124" lon="2.514989">
        <ele>379.255</ele>
        <time>2021-05-26T14:55:18Z</time>
      </trkpt>
      <trkpt lat="41.805223" lon="2.514972">
        <ele>377.810</ele>
        <time>2021-05-26T14:55:24Z</time>
      </trkpt>
      <trkpt lat="41.805314" lon="2.514967">
        <ele>376.008</ele>
        <time>2021-05-26T14:55:30Z</time>
      </trkpt>
      <trkpt lat="41.805400" lon="2.515022">
        <ele>373.240</ele>
        <time>2021-05-26T14:55:37Z</time>
      </trkpt>
      <trkpt lat="41.805484" lon="2.515079">
        <ele>370.047</ele>
        <time>2021-05-26T14:55:44Z</time>
      </trkpt>
      <trkpt lat="41.805572" lon="2.515147">
        <ele>366.234</ele>
        <time>2021-05-26T14:55:50Z</time>
      </trkpt>
      <trkpt lat="41.805671" lon="2.515154">
        <ele>361.848</ele>
        <time>2021-05-26T14:55:55Z</time>
      </trkpt>
      <trkpt lat="41.805766" lon="2.515138">
        <ele>357.913</ele>
        <time>2021-05-26T14:55:59Z</time>
      </trkpt>
      <trkpt lat="41.805878" lon="2.515132">
        <ele>353.943</ele>
        <time>2021-05-26T14:56:03Z</time>
      </trkpt>
      <trkpt lat="41.805978" lon="2.515191">
        <ele>350.639</ele>
        <time>2021-05-26T14:56:07Z</time>
      </trkpt>
      <trkpt lat="41.806082" lon="2.515201">
        <ele>348.094</ele>
        <time>2021-05-26T14:56:11Z</time>
      </trkpt>
      <trkpt lat="41.806168" lon="2.515245">
        <ele>346.774</ele>
        <time>2021-05-26T14:56:15Z</time>
      </trkpt>
      <trkpt lat="41.806260" lon="2.515286">
        <ele>345.956</ele>
        <time>2021-05-26T14:56:20Z</time>
      </trkpt>
      <trkpt lat="41.806338" lon="2.515223">
        <ele>345.421</ele>
        <time>2021-05-26T14:56:25Z</time>
      </trkpt>
      <trkpt lat="41.806427" lon="2.515194">
        <ele>344.408</ele>
        <time>2021-05-26T14:56:30Z</time>
      </trkpt>
      <trkpt lat="41.806524" lon="2.515215">
        <ele>342.864</ele>
        <time>2021-05-26T14:56:38Z</time>
      </trkpt>
      <trkpt lat="41.806607" lon="2.515160">
        <ele>341.731</ele>
        <time>2021-05-26T14:56:44Z</time>
      </trkpt>
      <trkpt lat="41.806700" lon="2.515126">
        <ele>340.718</ele>
        <time>2021-05-26T14:56:50Z</time>
      </trkpt>
      <trkpt lat="41.806780" lon="2.515045">
        <ele>340.752</ele>
        <time>2021-05-26T14:57:01Z</time>
      </trkpt>
      <trkpt lat="41.806838" lon="2.514952">
        <ele>341.597</ele>
        <time>2021-05-26T14:57:06Z</time>
      </trkpt>
      <trkpt lat="41.806911" lon="2.515041">
        <ele>339.777</ele>
        <time>2021-05-26T14:57:12Z</time>
      </trkpt>
      <trkpt lat="41.806946" lon="2.515176">
        <ele>337.593</ele>
        <time>2021-05-26T14:57:18Z</time>
      </trkpt>
      <trkpt lat="41.806988" lon="2.515283">
        <ele>336.578</ele>
        <time>2021-05-26T14:57:29Z</time>
      </trkpt>
      <trkpt lat="41.807006" lon="2.515407">
        <ele>336.251</ele>
        <time>2021-05-26T14:57:41Z</time>
      </trkpt>
      <trkpt lat="41.807064" lon="2.515510">
        <ele>336.501</ele>
        <time>2021-05-26T14:57:49Z</time>
      </trkpt>
      <trkpt lat="41.807160" lon="2.515525">
        <ele>337.411</ele>
        <time>2021-05-26T14:57:57Z</time>
      </trkpt>
      <trkpt lat="41.807252" lon="2.515583">
        <ele>338.508</ele>
        <time>2021-05-26T14:58:09Z</time>
      </trkpt>
      <trkpt lat="41.807332" lon="2.515650">
        <ele>340.052</ele>
        <time>2021-05-26T14:58:20Z</time>
      </trkpt>
      <trkpt lat="41.807446" lon="2.515663">
        <ele>342.629</ele>
        <time>2021-05-26T14:58:30Z</time>
      </trkpt>
      <trkpt lat="41.807515" lon="2.515766">
        <ele>343.356</ele>
        <time>2021-05-26T14:58:36Z</time>
      </trkpt>
      <trkpt lat="41.807573" lon="2.515861">
        <ele>344.720</ele>
        <time>2021-05-26T14:58:46Z</time>
      </trkpt>
      <trkpt lat="41.807664" lon="2.515861">
        <ele>348.275</ele>
        <time>2021-05-26T14:58:59Z</time>
      </trkpt>
      <trkpt lat="41.807718" lon="2.515970">
        <ele>349.345</ele>
        <time>2021-05-26T14:59:07Z</time>
      </trkpt>
      <trkpt lat="41.807756" lon="2.516080">
        <ele>349.561</ele>
        <time>2021-05-26T14:59:13Z</time>
      </trkpt>
      <trkpt lat="41.807832" lon="2.516177">
        <ele>351.236</ele>
        <time>2021-05-26T14:59:20Z</time>
      </trkpt>
      <trkpt lat="41.807911" lon="2.516247">
        <ele>353.686</ele>
        <time>2021-05-26T14:59:26Z</time>
      </trkpt>
      <trkpt lat="41.807967" lon="2.516355">
        <ele>354.660</ele>
        <time>2021-05-26T14:59:33Z</time>
      </trkpt>
      <trkpt lat="41.808037" lon="2.516451">
        <ele>356.526</ele>
        <time>2021-05-26T14:59:41Z</time>
      </trkpt>
      <trkpt lat="41.808089" lon="2.516550">
        <ele>357.308</ele>
        <time>2021-05-26T14:59:44Z</time>
      </trkpt>
      <trkpt lat="41.808177" lon="2.516517">
        <ele>360.415</ele>
        <time>2021-05-26T15:00:00Z</time>
      </trkpt>
      <trkpt lat="41.808262" lon="2.516565">
        <ele>362.322</ele>
        <time>2021-05-26T15:00:11Z</time>
      </trkpt>
      <trkpt lat="41.808329" lon="2.516654">
        <ele>363.189</ele>
        <time>2021-05-26T15:00:21Z</time>
      </trkpt>
      <trkpt lat="41.808390" lon="2.516768">
        <ele>363.413</ele>
        <time>2021-05-26T15:00:28Z</time>
      </trkpt>
      <trkpt lat="41.808477" lon="2.516815">
        <ele>364.888</ele>
        <time>2021-05-26T15:00:37Z</time>
      </trkpt>
      <trkpt lat="41.808555" lon="2.516894">
        <ele>365.528</ele>
        <time>2021-05-26T15:00:49Z</time>
      </trkpt>
      <trkpt lat="41.808615" lon="2.516993">
        <ele>365.544</ele>
        <time>2021-05-26T15:00:59Z</time>
      </trkpt>
      <trkpt lat="41.808694" lon="2.517061">
        <ele>364.549</ele>
        <time>2021-05-26T15:01:11Z</time>
      </trkpt>
      <trkpt lat="41.808787" lon="2.517080">
        <ele>363.983</ele>
        <time>2021-05-26T15:01:23Z</time>
      </trkpt>
      <trkpt lat="41.808876" lon="2.516995">
        <ele>365.125</ele>
        <time>2021-05-26T15:01:27Z</time>
      </trkpt>
      <trkpt lat="41.808939" lon="2.516897">
        <ele>365.817</ele>
        <time>2021-05-26T15:01:31Z</time>
      </trkpt>
      <trkpt lat="41.809004" lon="2.516804">
        <ele>365.908</ele>
        <time>2021-05-26T15:01:36Z</time>
      </trkpt>
      <trkpt lat="41.809097" lon="2.516753">
        <ele>365.195</ele>
        <time>2021-05-26T15:01:40Z</time>
      </trkpt>
      <trkpt lat="41.809188" lon="2.516670">
        <ele>364.952</ele>
        <time>2021-05-26T15:01:44Z</time>
      </trkpt>
      <trkpt lat="41.809253" lon="2.516582">
        <ele>365.769</ele>
        <time>2021-05-26T15:01:48Z</time>
      </trkpt>
      <trkpt lat="41.809315" lon="2.516468">
        <ele>366.653</ele>
        <time>2021-05-26T15:01:53Z</time>
      </trkpt>
      <trkpt lat="41.809381" lon="2.516363">
        <ele>366.828</ele>
        <time>2021-05-26T15:01:58Z</time>
      </trkpt>
      <trkpt lat="41.809450" lon="2.516267">
        <ele>366.448</ele>
        <time>2021-05-26T15:02:03Z</time>
      </trkpt>
      <trkpt lat="41.809529" lon="2.516184">
        <ele>367.034</ele>
        <time>2021-05-26T15:02:08Z</time>
      </trkpt>
      <trkpt lat="41.809598" lon="2.516096">
        <ele>367.649</ele>
        <time>2021-05-26T15:02:13Z</time>
      </trkpt>
      <trkpt lat="41.809614" lon="2.516077">
        <ele>367.829</ele>
        <time>2021-05-26T15:02:14Z</time>
      </trkpt>
      <trkpt lat="41.809630" lon="2.516061">
        <ele>367.900</ele>
        <time>2021-05-26T15:02:15Z</time>
      </trkpt>
      <trkpt lat="41.809648" lon="2.516047">
        <ele>368.020</ele>
        <time>2021-05-26T15:02:16Z</time>
      </trkpt>
      <trkpt lat="41.809664" lon="2.516028">
        <ele>368.208</ele>
        <time>2021-05-26T15:02:17Z</time>
      </trkpt>
      <trkpt lat="41.809715" lon="2.515955">
        <ele>368.689</ele>
        <time>2021-05-26T15:02:20Z</time>
      </trkpt>
      <trkpt lat="41.809773" lon="2.515860">
        <ele>369.226</ele>
        <time>2021-05-26T15:02:24Z</time>
      </trkpt>
      <trkpt lat="41.809837" lon="2.515769">
        <ele>369.973</ele>
        <time>2021-05-26T15:02:28Z</time>
      </trkpt>
      <trkpt lat="41.809875" lon="2.515713">
        <ele>370.137</ele>
        <time>2021-05-26T15:02:31Z</time>
      </trkpt>
      <trkpt lat="41.809888" lon="2.515695">
        <ele>370.192</ele>
        <time>2021-05-26T15:02:32Z</time>
      </trkpt>
      <trkpt lat="41.809903" lon="2.515678">
        <ele>370.182</ele>
        <time>2021-05-26T15:02:33Z</time>
      </trkpt>
      <trkpt lat="41.809922" lon="2.515632">
        <ele>370.128</ele>
        <time>2021-05-26T15:02:36Z</time>
      </trkpt>
      <trkpt lat="41.809979" lon="2.515530">
        <ele>369.823</ele>
        <time>2021-05-26T15:02:43Z</time>
      </trkpt>
      <trkpt lat="41.809993" lon="2.515511">
        <ele>369.763</ele>
        <time>2021-05-26T15:02:45Z</time>
      </trkpt>
      <trkpt lat="41.810016" lon="2.515493">
        <ele>369.244</ele>
        <time>2021-05-26T15:02:48Z</time>
      </trkpt>
      <trkpt lat="41.810054" lon="2.515383">
        <ele>367.818</ele>
        <time>2021-05-26T15:02:55Z</time>
      </trkpt>
      <trkpt lat="41.810067" lon="2.515355">
        <ele>367.508</ele>
        <time>2021-05-26T15:02:57Z</time>
      </trkpt>
      <trkpt lat="41.810088" lon="2.515332">
        <ele>367.033</ele>
        <time>2021-05-26T15:02:59Z</time>
      </trkpt>
      <trkpt lat="41.810110" lon="2.515319">
        <ele>366.630</ele>
        <time>2021-05-26T15:03:01Z</time>
      </trkpt>
      <trkpt lat="41.810131" lon="2.515309">
        <ele>366.227</ele>
        <time>2021-05-26T15:03:03Z</time>
      </trkpt>
      <trkpt lat="41.810150" lon="2.515294">
        <ele>365.911</ele>
        <time>2021-05-26T15:03:05Z</time>
      </trkpt>
      <trkpt lat="41.810174" lon="2.515287">
        <ele>365.566</ele>
        <time>2021-05-26T15:03:07Z</time>
      </trkpt>
      <trkpt lat="41.810199" lon="2.515272">
        <ele>365.126</ele>
        <time>2021-05-26T15:03:09Z</time>
      </trkpt>
      <trkpt lat="41.810225" lon="2.515261">
        <ele>364.882</ele>
        <time>2021-05-26T15:03:11Z</time>
      </trkpt>
      <trkpt lat="41.810257" lon="2.515250">
        <ele>364.327</ele>
        <time>2021-05-26T15:03:13Z</time>
      </trkpt>
      <trkpt lat="41.810280" lon="2.515229">
        <ele>363.943</ele>
        <time>2021-05-26T15:03:15Z</time>
      </trkpt>
      <trkpt lat="41.810303" lon="2.515208">
        <ele>363.364</ele>
        <time>2021-05-26T15:03:17Z</time>
      </trkpt>
      <trkpt lat="41.810324" lon="2.515185">
        <ele>362.710</ele>
        <time>2021-05-26T15:03:19Z</time>
      </trkpt>
      <trkpt lat="41.810343" lon="2.515159">
        <ele>362.208</ele>
        <time>2021-05-26T15:03:21Z</time>
      </trkpt>
      <trkpt lat="41.810369" lon="2.515133">
        <ele>361.631</ele>
        <time>2021-05-26T15:03:23Z</time>
      </trkpt>
      <trkpt lat="41.810395" lon="2.515104">
        <ele>361.018</ele>
        <time>2021-05-26T15:03:25Z</time>
      </trkpt>
      <trkpt lat="41.810409" lon="2.515089">
        <ele>360.715</ele>
        <time>2021-05-26T15:03:26Z</time>
      </trkpt>
      <trkpt lat="41.810426" lon="2.515076">
        <ele>360.449</ele>
        <time>2021-05-26T15:03:27Z</time>
      </trkpt>
      <trkpt lat="41.810448" lon="2.515034">
        <ele>360.144</ele>
        <time>2021-05-26T15:03:29Z</time>
      </trkpt>
      <trkpt lat="41.810464" lon="2.515012">
        <ele>359.924</ele>
        <time>2021-05-26T15:03:30Z</time>
      </trkpt>
      <trkpt lat="41.810518" lon="2.514939">
        <ele>359.450</ele>
        <time>2021-05-26T15:03:34Z</time>
      </trkpt>
      <trkpt lat="41.810544" lon="2.514891">
        <ele>359.455</ele>
        <time>2021-05-26T15:03:36Z</time>
      </trkpt>
      <trkpt lat="41.810561" lon="2.514867">
        <ele>359.247</ele>
        <time>2021-05-26T15:03:37Z</time>
      </trkpt>
      <trkpt lat="41.810579" lon="2.514847">
        <ele>358.929</ele>
        <time>2021-05-26T15:03:38Z</time>
      </trkpt>
      <trkpt lat="41.810594" lon="2.514825">
        <ele>358.621</ele>
        <time>2021-05-26T15:03:39Z</time>
      </trkpt>
      <trkpt lat="41.810612" lon="2.514806">
        <ele>358.308</ele>
        <time>2021-05-26T15:03:40Z</time>
      </trkpt>
      <trkpt lat="41.810698" lon="2.514733">
        <ele>356.741</ele>
        <time>2021-05-26T15:03:44Z</time>
      </trkpt>
      <trkpt lat="41.810773" lon="2.514628">
        <ele>356.418</ele>
        <time>2021-05-26T15:03:49Z</time>
      </trkpt>
      <trkpt lat="41.810847" lon="2.514518">
        <ele>356.855</ele>
        <time>2021-05-26T15:03:54Z</time>
      </trkpt>
      <trkpt lat="41.810885" lon="2.514405">
        <ele>356.719</ele>
        <time>2021-05-26T15:03:58Z</time>
      </trkpt>
      <trkpt lat="41.810927" lon="2.514298">
        <ele>355.344</ele>
        <time>2021-05-26T15:04:02Z</time>
      </trkpt>
      <trkpt lat="41.810981" lon="2.514171">
        <ele>354.294</ele>
        <time>2021-05-26T15:04:07Z</time>
      </trkpt>
      <trkpt lat="41.811038" lon="2.514040">
        <ele>351.830</ele>
        <time>2021-05-26T15:04:12Z</time>
      </trkpt>
      <trkpt lat="41.811075" lon="2.513917">
        <ele>350.285</ele>
        <time>2021-05-26T15:04:16Z</time>
      </trkpt>
      <trkpt lat="41.811138" lon="2.513824">
        <ele>348.322</ele>
        <time>2021-05-26T15:04:21Z</time>
      </trkpt>
      <trkpt lat="41.811212" lon="2.513747">
        <ele>346.662</ele>
        <time>2021-05-26T15:04:28Z</time>
      </trkpt>
      <trkpt lat="41.811237" lon="2.513611">
        <ele>346.308</ele>
        <time>2021-05-26T15:04:38Z</time>
      </trkpt>
      <trkpt lat="41.811209" lon="2.513492">
        <ele>347.608</ele>
        <time>2021-05-26T15:04:46Z</time>
      </trkpt>
      <trkpt lat="41.811160" lon="2.513384">
        <ele>348.759</ele>
        <time>2021-05-26T15:04:54Z</time>
      </trkpt>
      <trkpt lat="41.811257" lon="2.513383">
        <ele>348.056</ele>
        <time>2021-05-26T15:05:11Z</time>
      </trkpt>
      <trkpt lat="41.811350" lon="2.513408">
        <ele>347.033</ele>
        <time>2021-05-26T15:05:18Z</time>
      </trkpt>
      <trkpt lat="41.811452" lon="2.513386">
        <ele>347.797</ele>
        <time>2021-05-26T15:05:26Z</time>
      </trkpt>
      <trkpt lat="41.811549" lon="2.513357">
        <ele>349.362</ele>
        <time>2021-05-26T15:05:32Z</time>
      </trkpt>
      <trkpt lat="41.811656" lon="2.513457">
        <ele>348.792</ele>
        <time>2021-05-26T15:05:36Z</time>
      </trkpt>
      <trkpt lat="41.811740" lon="2.513514">
        <ele>349.958</ele>
        <time>2021-05-26T15:05:43Z</time>
      </trkpt>
      <trkpt lat="41.811832" lon="2.513567">
        <ele>351.673</ele>
        <time>2021-05-26T15:05:48Z</time>
      </trkpt>
      <trkpt lat="41.811929" lon="2.513642">
        <ele>353.291</ele>
        <time>2021-05-26T15:05:53Z</time>
      </trkpt>
      <trkpt lat="41.811972" lon="2.513768">
        <ele>352.981</ele>
        <time>2021-05-26T15:05:58Z</time>
      </trkpt>
      <trkpt lat="41.812012" lon="2.513878">
        <ele>352.619</ele>
        <time>2021-05-26T15:06:02Z</time>
      </trkpt>
      <trkpt lat="41.812063" lon="2.513995">
        <ele>352.808</ele>
        <time>2021-05-26T15:06:09Z</time>
      </trkpt>
      <trkpt lat="41.812152" lon="2.513976">
        <ele>354.976</ele>
        <time>2021-05-26T15:06:21Z</time>
      </trkpt>
      <trkpt lat="41.812232" lon="2.513921">
        <ele>356.873</ele>
        <time>2021-05-26T15:06:32Z</time>
      </trkpt>
      <trkpt lat="41.812322" lon="2.513958">
        <ele>356.450</ele>
        <time>2021-05-26T15:06:43Z</time>
      </trkpt>
      <trkpt lat="41.812409" lon="2.514046">
        <ele>355.594</ele>
        <time>2021-05-26T15:06:53Z</time>
      </trkpt>
      <trkpt lat="41.812505" lon="2.514076">
        <ele>354.899</ele>
        <time>2021-05-26T15:06:58Z</time>
      </trkpt>
      <trkpt lat="41.812604" lon="2.514071">
        <ele>352.019</ele>
        <time>2021-05-26T15:07:04Z</time>
      </trkpt>
      <trkpt lat="41.812664" lon="2.514172">
        <ele>349.215</ele>
        <time>2021-05-26T15:07:11Z</time>
      </trkpt>
      <trkpt lat="41.812723" lon="2.514286">
        <ele>346.790</ele>
        <time>2021-05-26T15:07:18Z</time>
      </trkpt>
      <trkpt lat="41.812795" lon="2.514378">
        <ele>343.743</ele>
        <time>2021-05-26T15:07:23Z</time>
      </trkpt>
      <trkpt lat="41.812865" lon="2.514519">
        <ele>339.764</ele>
        <time>2021-05-26T15:07:28Z</time>
      </trkpt>
      <trkpt lat="41.812952" lon="2.514610">
        <ele>335.610</ele>
        <time>2021-05-26T15:07:34Z</time>
      </trkpt>
      <trkpt lat="41.812985" lon="2.514740">
        <ele>334.208</ele>
        <time>2021-05-26T15:07:41Z</time>
      </trkpt>
      <trkpt lat="41.813000" lon="2.514847">
        <ele>334.221</ele>
        <time>2021-05-26T15:07:46Z</time>
      </trkpt>
      <trkpt lat="41.813018" lon="2.514854">
        <ele>333.568</ele>
        <time>2021-05-26T15:07:51Z</time>
      </trkpt>
      <trkpt lat="41.813041" lon="2.514846">
        <ele>332.535</ele>
        <time>2021-05-26T15:07:55Z</time>
      </trkpt>
      <trkpt lat="41.813070" lon="2.514850">
        <ele>331.599</ele>
        <time>2021-05-26T15:07:59Z</time>
      </trkpt>
      <trkpt lat="41.813093" lon="2.514849">
        <ele>330.884</ele>
        <time>2021-05-26T15:08:01Z</time>
      </trkpt>
      <trkpt lat="41.813096" lon="2.514796">
        <ele>330.474</ele>
        <time>2021-05-26T15:08:10Z</time>
      </trkpt>
      <trkpt lat="41.813047" lon="2.514792">
        <ele>331.950</ele>
        <time>2021-05-26T15:08:19Z</time>
      </trkpt>
      <trkpt lat="41.813027" lon="2.514796">
        <ele>332.795</ele>
        <time>2021-05-26T15:08:26Z</time>
      </trkpt>
      <trkpt lat="41.813036" lon="2.514773">
        <ele>332.296</ele>
        <time>2021-05-26T15:08:48Z</time>
      </trkpt>
      <trkpt lat="41.813131" lon="2.514754">
        <ele>329.131</ele>
        <time>2021-05-26T15:09:10Z</time>
      </trkpt>
      <trkpt lat="41.813223" lon="2.514807">
        <ele>326.824</ele>
        <time>2021-05-26T15:09:15Z</time>
      </trkpt>
      <trkpt lat="41.813314" lon="2.514716">
        <ele>323.608</ele>
        <time>2021-05-26T15:09:19Z</time>
      </trkpt>
      <trkpt lat="41.813400" lon="2.514624">
        <ele>321.636</ele>
        <time>2021-05-26T15:09:23Z</time>
      </trkpt>
      <trkpt lat="41.813480" lon="2.514544">
        <ele>319.813</ele>
        <time>2021-05-26T15:09:27Z</time>
      </trkpt>
      <trkpt lat="41.813543" lon="2.514456">
        <ele>318.560</ele>
        <time>2021-05-26T15:09:31Z</time>
      </trkpt>
      <trkpt lat="41.813608" lon="2.514338">
        <ele>317.474</ele>
        <time>2021-05-26T15:09:36Z</time>
      </trkpt>
      <trkpt lat="41.813652" lon="2.514202">
        <ele>317.589</ele>
        <time>2021-05-26T15:09:41Z</time>
      </trkpt>
      <trkpt lat="41.813725" lon="2.514096">
        <ele>318.059</ele>
        <time>2021-05-26T15:09:46Z</time>
      </trkpt>
      <trkpt lat="41.813806" lon="2.514025">
        <ele>318.565</ele>
        <time>2021-05-26T15:09:51Z</time>
      </trkpt>
      <trkpt lat="41.813892" lon="2.514083">
        <ele>317.240</ele>
        <time>2021-05-26T15:09:54Z</time>
      </trkpt>
      <trkpt lat="41.813989" lon="2.514152">
        <ele>315.973</ele>
        <time>2021-05-26T15:09:58Z</time>
      </trkpt>
      <trkpt lat="41.814096" lon="2.514193">
        <ele>315.085</ele>
        <time>2021-05-26T15:10:02Z</time>
      </trkpt>
      <trkpt lat="41.814205" lon="2.514184">
        <ele>314.313</ele>
        <time>2021-05-26T15:10:21Z</time>
      </trkpt>
      <trkpt lat="41.814312" lon="2.514184">
        <ele>312.708</ele>
        <time>2021-05-26T15:10:26Z</time>
      </trkpt>
      <trkpt lat="41.814400" lon="2.514236">
        <ele>310.954</ele>
        <time>2021-05-26T15:10:30Z</time>
      </trkpt>
      <trkpt lat="41.814473" lon="2.514329">
        <ele>308.861</ele>
        <time>2021-05-26T15:10:33Z</time>
      </trkpt>
      <trkpt lat="41.814578" lon="2.514381">
        <ele>306.598</ele>
        <time>2021-05-26T15:10:37Z</time>
      </trkpt>
      <trkpt lat="41.814656" lon="2.514448">
        <ele>304.992</ele>
        <time>2021-05-26T15:10:43Z</time>
      </trkpt>
      <trkpt lat="41.814741" lon="2.514396">
        <ele>303.917</ele>
        <time>2021-05-26T15:10:46Z</time>
      </trkpt>
      <trkpt lat="41.814800" lon="2.514285">
        <ele>303.527</ele>
        <time>2021-05-26T15:10:50Z</time>
      </trkpt>
      <trkpt lat="41.814901" lon="2.514237">
        <ele>302.243</ele>
        <time>2021-05-26T15:10:57Z</time>
      </trkpt>
      <trkpt lat="41.814986" lon="2.514136">
        <ele>301.398</ele>
        <time>2021-05-26T15:11:02Z</time>
      </trkpt>
      <trkpt lat="41.815034" lon="2.514022">
        <ele>301.363</ele>
        <time>2021-05-26T15:11:06Z</time>
      </trkpt>
      <trkpt lat="41.815090" lon="2.513920">
        <ele>301.244</ele>
        <time>2021-05-26T15:11:10Z</time>
      </trkpt>
      <trkpt lat="41.815166" lon="2.513856">
        <ele>301.018</ele>
        <time>2021-05-26T15:11:15Z</time>
      </trkpt>
      <trkpt lat="41.815269" lon="2.513902">
        <ele>300.008</ele>
        <time>2021-05-26T15:11:20Z</time>
      </trkpt>
      <trkpt lat="41.815327" lon="2.514007">
        <ele>299.793</ele>
        <time>2021-05-26T15:11:24Z</time>
      </trkpt>
      <trkpt lat="41.815410" lon="2.514083">
        <ele>299.470</ele>
        <time>2021-05-26T15:11:28Z</time>
      </trkpt>
      <trkpt lat="41.815474" lon="2.513965">
        <ele>300.227</ele>
        <time>2021-05-26T15:11:32Z</time>
      </trkpt>
      <trkpt lat="41.815476" lon="2.513842">
        <ele>300.991</ele>
        <time>2021-05-26T15:11:39Z</time>
      </trkpt>
      <trkpt lat="41.815549" lon="2.513915">
        <ele>300.866</ele>
        <time>2021-05-26T15:11:55Z</time>
      </trkpt>
      <trkpt lat="41.815645" lon="2.513935">
        <ele>301.096</ele>
        <time>2021-05-26T15:11:58Z</time>
      </trkpt>
      <trkpt lat="41.815721" lon="2.514032">
        <ele>300.912</ele>
        <time>2021-05-26T15:12:02Z</time>
      </trkpt>
      <trkpt lat="41.815821" lon="2.514053">
        <ele>301.317</ele>
        <time>2021-05-26T15:12:07Z</time>
      </trkpt>
      <trkpt lat="41.815915" lon="2.514075">
        <ele>300.833</ele>
        <time>2021-05-26T15:12:12Z</time>
      </trkpt>
      <trkpt lat="41.816027" lon="2.514105">
        <ele>300.023</ele>
        <time>2021-05-26T15:12:19Z</time>
      </trkpt>
      <trkpt lat="41.816131" lon="2.514132">
        <ele>298.915</ele>
        <time>2021-05-26T15:12:25Z</time>
      </trkpt>
      <trkpt lat="41.816242" lon="2.514138">
        <ele>296.808</ele>
        <time>2021-05-26T15:12:29Z</time>
      </trkpt>
      <trkpt lat="41.816290" lon="2.514141">
        <ele>295.840</ele>
        <time>2021-05-26T15:12:31Z</time>
      </trkpt>
      <trkpt lat="41.816327" lon="2.514252">
        <ele>295.217</ele>
        <time>2021-05-26T15:12:39Z</time>
      </trkpt>
      <trkpt lat="41.816406" lon="2.514318">
        <ele>294.484</ele>
        <time>2021-05-26T15:12:52Z</time>
      </trkpt>
      <trkpt lat="41.816492" lon="2.514374">
        <ele>293.988</ele>
        <time>2021-05-26T15:12:57Z</time>
      </trkpt>
      <trkpt lat="41.816585" lon="2.514388">
        <ele>293.113</ele>
        <time>2021-05-26T15:13:00Z</time>
      </trkpt>
      <trkpt lat="41.816628" lon="2.514503">
        <ele>292.233</ele>
        <time>2021-05-26T15:13:04Z</time>
      </trkpt>
      <trkpt lat="41.816535" lon="2.514498">
        <ele>293.299</ele>
        <time>2021-05-26T15:13:20Z</time>
      </trkpt>
      <trkpt lat="41.816457" lon="2.514434">
        <ele>294.324</ele>
        <time>2021-05-26T15:13:25Z</time>
      </trkpt>
      <trkpt lat="41.816414" lon="2.514318">
        <ele>294.464</ele>
        <time>2021-05-26T15:13:29Z</time>
      </trkpt>
      <trkpt lat="41.816405" lon="2.514265">
        <ele>294.306</ele>
        <time>2021-05-26T15:13:34Z</time>
      </trkpt>
      <trkpt lat="41.815350" lon="2.516505">
        <ele>289.516</ele>
        <time>2021-05-26T15:17:38Z</time>
      </trkpt>
      <trkpt lat="41.815332" lon="2.516519">
        <ele>289.408</ele>
        <time>2021-05-26T15:17:41Z</time>
      </trkpt>
      <trkpt lat="41.815319" lon="2.516543">
        <ele>289.413</ele>
        <time>2021-05-26T15:17:43Z</time>
      </trkpt>
      <trkpt lat="41.815307" lon="2.516570">
        <ele>289.380</ele>
        <time>2021-05-26T15:17:45Z</time>
      </trkpt>
      <trkpt lat="41.815291" lon="2.516593">
        <ele>289.257</ele>
        <time>2021-05-26T15:17:47Z</time>
      </trkpt>
      <trkpt lat="41.815275" lon="2.516615">
        <ele>289.261</ele>
        <time>2021-05-26T15:17:49Z</time>
      </trkpt>
      <trkpt lat="41.815263" lon="2.516639">
        <ele>289.256</ele>
        <time>2021-05-26T15:17:51Z</time>
      </trkpt>
      <trkpt lat="41.815247" lon="2.516668">
        <ele>289.196</ele>
        <time>2021-05-26T15:17:53Z</time>
      </trkpt>
      <trkpt lat="41.815227" lon="2.516695">
        <ele>289.082</ele>
        <time>2021-05-26T15:17:55Z</time>
      </trkpt>
      <trkpt lat="41.815195" lon="2.516742">
        <ele>288.817</ele>
        <time>2021-05-26T15:17:57Z</time>
      </trkpt>
      <trkpt lat="41.815173" lon="2.516767">
        <ele>288.743</ele>
        <time>2021-05-26T15:18:00Z</time>
      </trkpt>
      <trkpt lat="41.815155" lon="2.516796">
        <ele>288.564</ele>
        <time>2021-05-26T15:18:02Z</time>
      </trkpt>
      <trkpt lat="41.815139" lon="2.516828">
        <ele>288.310</ele>
        <time>2021-05-26T15:18:04Z</time>
      </trkpt>
      <trkpt lat="41.815121" lon="2.516860">
        <ele>288.208</ele>
        <time>2021-05-26T15:18:06Z</time>
      </trkpt>
      <trkpt lat="41.815103" lon="2.516893">
        <ele>288.071</ele>
        <time>2021-05-26T15:18:08Z</time>
      </trkpt>
      <trkpt lat="41.815086" lon="2.516926">
        <ele>287.888</ele>
        <time>2021-05-26T15:18:10Z</time>
      </trkpt>
      <trkpt lat="41.815067" lon="2.516964">
        <ele>287.615</ele>
        <time>2021-05-26T15:18:12Z</time>
      </trkpt>
      <trkpt lat="41.815049" lon="2.517001">
        <ele>287.479</ele>
        <time>2021-05-26T15:18:14Z</time>
      </trkpt>
      <trkpt lat="41.815037" lon="2.517028">
        <ele>287.334</ele>
        <time>2021-05-26T15:18:16Z</time>
      </trkpt>
      <trkpt lat="41.815025" lon="2.517056">
        <ele>287.184</ele>
        <time>2021-05-26T15:18:18Z</time>
      </trkpt>
      <trkpt lat="41.815008" lon="2.517087">
        <ele>286.940</ele>
        <time>2021-05-26T15:18:20Z</time>
      </trkpt>
      <trkpt lat="41.814995" lon="2.517122">
        <ele>286.815</ele>
        <time>2021-05-26T15:18:22Z</time>
      </trkpt>
      <trkpt lat="41.814981" lon="2.517158">
        <ele>286.762</ele>
        <time>2021-05-26T15:18:24Z</time>
      </trkpt>
      <trkpt lat="41.814967" lon="2.517195">
        <ele>286.783</ele>
        <time>2021-05-26T15:18:26Z</time>
      </trkpt>
      <trkpt lat="41.814951" lon="2.517229">
        <ele>286.711</ele>
        <time>2021-05-26T15:18:28Z</time>
      </trkpt>
      <trkpt lat="41.814937" lon="2.517263">
        <ele>286.608</ele>
        <time>2021-05-26T15:18:30Z</time>
      </trkpt>
      <trkpt lat="41.814889" lon="2.517379">
        <ele>286.593</ele>
        <time>2021-05-26T15:18:36Z</time>
      </trkpt>
      <trkpt lat="41.814833" lon="2.517484">
        <ele>286.550</ele>
        <time>2021-05-26T15:18:42Z</time>
      </trkpt>
      <trkpt lat="41.814811" lon="2.517593">
        <ele>285.877</ele>
        <time>2021-05-26T15:18:47Z</time>
      </trkpt>
      <trkpt lat="41.814805" lon="2.517642">
        <ele>285.411</ele>
        <time>2021-05-26T15:18:49Z</time>
      </trkpt>
      <trkpt lat="41.814795" lon="2.517676">
        <ele>285.226</ele>
        <time>2021-05-26T15:18:51Z</time>
      </trkpt>
      <trkpt lat="41.814781" lon="2.517712">
        <ele>285.066</ele>
        <time>2021-05-26T15:18:53Z</time>
      </trkpt>
      <trkpt lat="41.814769" lon="2.517741">
        <ele>284.992</ele>
        <time>2021-05-26T15:18:55Z</time>
      </trkpt>
      <trkpt lat="41.814757" lon="2.517774">
        <ele>284.767</ele>
        <time>2021-05-26T15:18:57Z</time>
      </trkpt>
      <trkpt lat="41.814743" lon="2.517806">
        <ele>284.557</ele>
        <time>2021-05-26T15:18:59Z</time>
      </trkpt>
      <trkpt lat="41.814724" lon="2.517834">
        <ele>284.400</ele>
        <time>2021-05-26T15:19:01Z</time>
      </trkpt>
      <trkpt lat="41.814710" lon="2.517865">
        <ele>284.220</ele>
        <time>2021-05-26T15:19:03Z</time>
      </trkpt>
      <trkpt lat="41.814695" lon="2.517895">
        <ele>284.108</ele>
        <time>2021-05-26T15:19:05Z</time>
      </trkpt>
      <trkpt lat="41.814675" lon="2.517921">
        <ele>284.192</ele>
        <time>2021-05-26T15:19:07Z</time>
      </trkpt>
      <trkpt lat="41.814660" lon="2.517946">
        <ele>284.119</ele>
        <time>2021-05-26T15:19:09Z</time>
      </trkpt>
      <trkpt lat="41.814639" lon="2.517963">
        <ele>284.296</ele>
        <time>2021-05-26T15:19:11Z</time>
      </trkpt>
      <trkpt lat="41.814601" lon="2.517937">
        <ele>285.030</ele>
        <time>2021-05-26T15:19:14Z</time>
      </trkpt>
      <trkpt lat="41.814577" lon="2.517921">
        <ele>285.525</ele>
        <time>2021-05-26T15:19:16Z</time>
      </trkpt>
      <trkpt lat="41.814560" lon="2.517911">
        <ele>285.935</ele>
        <time>2021-05-26T15:19:18Z</time>
      </trkpt>
      <trkpt lat="41.814541" lon="2.517909">
        <ele>286.291</ele>
        <time>2021-05-26T15:19:20Z</time>
      </trkpt>
      <trkpt lat="41.814543" lon="2.517934">
        <ele>285.916</ele>
        <time>2021-05-26T15:19:26Z</time>
      </trkpt>
      <trkpt lat="41.814556" lon="2.517955">
        <ele>285.574</ele>
        <time>2021-05-26T15:19:32Z</time>
      </trkpt>
      <trkpt lat="41.814574" lon="2.517965">
        <ele>285.156</ele>
        <time>2021-05-26T15:19:57Z</time>
      </trkpt>
      <trkpt lat="41.814571" lon="2.517992">
        <ele>284.921</ele>
        <time>2021-05-26T15:20:06Z</time>
      </trkpt>
      <trkpt lat="41.814568" lon="2.518023">
        <ele>284.608</ele>
        <time>2021-05-26T15:20:08Z</time>
      </trkpt>
      <trkpt lat="41.814570" lon="2.518057">
        <ele>284.284</ele>
        <time>2021-05-26T15:20:10Z</time>
      </trkpt>
      <trkpt lat="41.814576" lon="2.518088">
        <ele>283.971</ele>
        <time>2021-05-26T15:20:12Z</time>
      </trkpt>
      <trkpt lat="41.814582" lon="2.518112">
        <ele>283.648</ele>
        <time>2021-05-26T15:20:14Z</time>
      </trkpt>
      <trkpt lat="41.814598" lon="2.518142">
        <ele>283.252</ele>
        <time>2021-05-26T15:20:16Z</time>
      </trkpt>
      <trkpt lat="41.814609" lon="2.518172">
        <ele>282.887</ele>
        <time>2021-05-26T15:20:18Z</time>
      </trkpt>
      <trkpt lat="41.814606" lon="2.518207">
        <ele>282.687</ele>
        <time>2021-05-26T15:20:20Z</time>
      </trkpt>
      <trkpt lat="41.814605" lon="2.518250">
        <ele>282.373</ele>
        <time>2021-05-26T15:20:22Z</time>
      </trkpt>
      <trkpt lat="41.814610" lon="2.518285">
        <ele>282.048</ele>
        <time>2021-05-26T15:20:24Z</time>
      </trkpt>
      <trkpt lat="41.814614" lon="2.518327">
        <ele>281.668</ele>
        <time>2021-05-26T15:20:26Z</time>
      </trkpt>
      <trkpt lat="41.814617" lon="2.518364">
        <ele>281.342</ele>
        <time>2021-05-26T15:20:28Z</time>
      </trkpt>
      <trkpt lat="41.814614" lon="2.518401">
        <ele>281.026</ele>
        <time>2021-05-26T15:20:30Z</time>
      </trkpt>
      <trkpt lat="41.814603" lon="2.518439">
        <ele>280.808</ele>
        <time>2021-05-26T15:20:32Z</time>
      </trkpt>
      <trkpt lat="41.814596" lon="2.518476">
        <ele>280.613</ele>
        <time>2021-05-26T15:20:34Z</time>
      </trkpt>
      <trkpt lat="41.814585" lon="2.518514">
        <ele>280.450</ele>
        <time>2021-05-26T15:20:36Z</time>
      </trkpt>
      <trkpt lat="41.814574" lon="2.518544">
        <ele>280.217</ele>
        <time>2021-05-26T15:20:38Z</time>
      </trkpt>
      <trkpt lat="41.814569" lon="2.518571">
        <ele>280.071</ele>
        <time>2021-05-26T15:20:40Z</time>
      </trkpt>
      <trkpt lat="41.814574" lon="2.518612">
        <ele>279.646</ele>
        <time>2021-05-26T15:20:42Z</time>
      </trkpt>
      <trkpt lat="41.814580" lon="2.518636">
        <ele>279.346</ele>
        <time>2021-05-26T15:20:43Z</time>
      </trkpt>
      <trkpt lat="41.814589" lon="2.518657">
        <ele>279.082</ele>
        <time>2021-05-26T15:20:44Z</time>
      </trkpt>
      <trkpt lat="41.814595" lon="2.518680">
        <ele>278.827</ele>
        <time>2021-05-26T15:20:45Z</time>
      </trkpt>
      <trkpt lat="41.814604" lon="2.518702">
        <ele>278.582</ele>
        <time>2021-05-26T15:20:46Z</time>
      </trkpt>
      <trkpt lat="41.814626" lon="2.518763">
        <ele>277.843</ele>
        <time>2021-05-26T15:20:49Z</time>
      </trkpt>
      <trkpt lat="41.814643" lon="2.518802">
        <ele>277.317</ele>
        <time>2021-05-26T15:20:51Z</time>
      </trkpt>
      <trkpt lat="41.814660" lon="2.518832">
        <ele>276.908</ele>
        <time>2021-05-26T15:20:53Z</time>
      </trkpt>
      <trkpt lat="41.814675" lon="2.518869">
        <ele>276.595</ele>
        <time>2021-05-26T15:20:55Z</time>
      </trkpt>
      <trkpt lat="41.814693" lon="2.518899">
        <ele>276.222</ele>
        <time>2021-05-26T15:20:57Z</time>
      </trkpt>
      <trkpt lat="41.814708" lon="2.518930">
        <ele>275.959</ele>
        <time>2021-05-26T15:20:59Z</time>
      </trkpt>
      <trkpt lat="41.814726" lon="2.518958">
        <ele>275.813</ele>
        <time>2021-05-26T15:21:01Z</time>
      </trkpt>
      <trkpt lat="41.814743" lon="2.518987">
        <ele>275.788</ele>
        <time>2021-05-26T15:21:03Z</time>
      </trkpt>
      <trkpt lat="41.814758" lon="2.519022">
        <ele>275.698</ele>
        <time>2021-05-26T15:21:05Z</time>
      </trkpt>
      <trkpt lat="41.814771" lon="2.519059">
        <ele>275.634</ele>
        <time>2021-05-26T15:21:07Z</time>
      </trkpt>
      <trkpt lat="41.814782" lon="2.519096">
        <ele>275.559</ele>
        <time>2021-05-26T15:21:09Z</time>
      </trkpt>
      <trkpt lat="41.814798" lon="2.519127">
        <ele>275.434</ele>
        <time>2021-05-26T15:21:11Z</time>
      </trkpt>
      <trkpt lat="41.814809" lon="2.519165">
        <ele>275.355</ele>
        <time>2021-05-26T15:21:13Z</time>
      </trkpt>
      <trkpt lat="41.814819" lon="2.519201">
        <ele>275.210</ele>
        <time>2021-05-26T15:21:15Z</time>
      </trkpt>
      <trkpt lat="41.814833" lon="2.519233">
        <ele>275.108</ele>
        <time>2021-05-26T15:21:17Z</time>
      </trkpt>
      <trkpt lat="41.814847" lon="2.519265">
        <ele>275.160</ele>
        <time>2021-05-26T15:21:19Z</time>
      </trkpt>
      <trkpt lat="41.814862" lon="2.519302">
        <ele>275.087</ele>
        <time>2021-05-26T15:21:21Z</time>
      </trkpt>
      <trkpt lat="41.814876" lon="2.519333">
        <ele>275.014</ele>
        <time>2021-05-26T15:21:23Z</time>
      </trkpt>
      <trkpt lat="41.814888" lon="2.519369">
        <ele>275.088</ele>
        <time>2021-05-26T15:21:25Z</time>
      </trkpt>
      <trkpt lat="41.814905" lon="2.519399">
        <ele>275.123</ele>
        <time>2021-05-26T15:21:27Z</time>
      </trkpt>
      <trkpt lat="41.814919" lon="2.519430">
        <ele>275.243</ele>
        <time>2021-05-26T15:21:29Z</time>
      </trkpt>
      <trkpt lat="41.814935" lon="2.519463">
        <ele>275.219</ele>
        <time>2021-05-26T15:21:31Z</time>
      </trkpt>
      <trkpt lat="41.814949" lon="2.519500">
        <ele>275.394</ele>
        <time>2021-05-26T15:21:33Z</time>
      </trkpt>
      <trkpt lat="41.814964" lon="2.519536">
        <ele>275.366</ele>
        <time>2021-05-26T15:21:35Z</time>
      </trkpt>
      <trkpt lat="41.814978" lon="2.519573">
        <ele>275.329</ele>
        <time>2021-05-26T15:21:37Z</time>
      </trkpt>
      <trkpt lat="41.814999" lon="2.519606">
        <ele>275.421</ele>
        <time>2021-05-26T15:21:39Z</time>
      </trkpt>
      <trkpt lat="41.815017" lon="2.519645">
        <ele>275.508</ele>
        <time>2021-05-26T15:21:41Z</time>
      </trkpt>
      <trkpt lat="41.815033" lon="2.519682">
        <ele>275.553</ele>
        <time>2021-05-26T15:21:43Z</time>
      </trkpt>
      <trkpt lat="41.815049" lon="2.519720">
        <ele>275.560</ele>
        <time>2021-05-26T15:21:45Z</time>
      </trkpt>
      <trkpt lat="41.815063" lon="2.519760">
        <ele>275.647</ele>
        <time>2021-05-26T15:21:47Z</time>
      </trkpt>
      <trkpt lat="41.815074" lon="2.519798">
        <ele>275.741</ele>
        <time>2021-05-26T15:21:49Z</time>
      </trkpt>
      <trkpt lat="41.815088" lon="2.519836">
        <ele>275.836</ele>
        <time>2021-05-26T15:21:51Z</time>
      </trkpt>
      <trkpt lat="41.815097" lon="2.519876">
        <ele>275.966</ele>
        <time>2021-05-26T15:21:53Z</time>
      </trkpt>
      <trkpt lat="41.815106" lon="2.519921">
        <ele>275.962</ele>
        <time>2021-05-26T15:21:55Z</time>
      </trkpt>
      <trkpt lat="41.815117" lon="2.519960">
        <ele>275.997</ele>
        <time>2021-05-26T15:21:57Z</time>
      </trkpt>
      <trkpt lat="41.815132" lon="2.519995">
        <ele>276.036</ele>
        <time>2021-05-26T15:21:59Z</time>
      </trkpt>
      <trkpt lat="41.815149" lon="2.520029">
        <ele>275.917</ele>
        <time>2021-05-26T15:22:01Z</time>
      </trkpt>
      <trkpt lat="41.815166" lon="2.520058">
        <ele>275.918</ele>
        <time>2021-05-26T15:22:03Z</time>
      </trkpt>
      <trkpt lat="41.815179" lon="2.520095">
        <ele>275.708</ele>
        <time>2021-05-26T15:22:05Z</time>
      </trkpt>
      <trkpt lat="41.815190" lon="2.520125">
        <ele>275.660</ele>
        <time>2021-05-26T15:22:07Z</time>
      </trkpt>
      <trkpt lat="41.815205" lon="2.520157">
        <ele>275.527</ele>
        <time>2021-05-26T15:22:09Z</time>
      </trkpt>
      <trkpt lat="41.815219" lon="2.520193">
        <ele>275.354</ele>
        <time>2021-05-26T15:22:11Z</time>
      </trkpt>
      <trkpt lat="41.815237" lon="2.520228">
        <ele>275.218</ele>
        <time>2021-05-26T15:22:13Z</time>
      </trkpt>
      <trkpt lat="41.815259" lon="2.520259">
        <ele>275.163</ele>
        <time>2021-05-26T15:22:15Z</time>
      </trkpt>
      <trkpt lat="41.815282" lon="2.520292">
        <ele>275.033</ele>
        <time>2021-05-26T15:22:17Z</time>
      </trkpt>
      <trkpt lat="41.815304" lon="2.520323">
        <ele>275.159</ele>
        <time>2021-05-26T15:22:19Z</time>
      </trkpt>
      <trkpt lat="41.815325" lon="2.520352">
        <ele>275.114</ele>
        <time>2021-05-26T15:22:21Z</time>
      </trkpt>
      <trkpt lat="41.815355" lon="2.520407">
        <ele>275.142</ele>
        <time>2021-05-26T15:22:24Z</time>
      </trkpt>
      <trkpt lat="41.815375" lon="2.520446">
        <ele>275.122</ele>
        <time>2021-05-26T15:22:26Z</time>
      </trkpt>
      <trkpt lat="41.815393" lon="2.520477">
        <ele>275.114</ele>
        <time>2021-05-26T15:22:28Z</time>
      </trkpt>
      <trkpt lat="41.815407" lon="2.520509">
        <ele>275.108</ele>
        <time>2021-05-26T15:22:30Z</time>
      </trkpt>
      <trkpt lat="41.815421" lon="2.520539">
        <ele>275.061</ele>
        <time>2021-05-26T15:22:32Z</time>
      </trkpt>
      <trkpt lat="41.815429" lon="2.520570">
        <ele>275.048</ele>
        <time>2021-05-26T15:22:34Z</time>
      </trkpt>
      <trkpt lat="41.815437" lon="2.520603">
        <ele>274.915</ele>
        <time>2021-05-26T15:22:36Z</time>
      </trkpt>
      <trkpt lat="41.815445" lon="2.520635">
        <ele>274.949</ele>
        <time>2021-05-26T15:22:38Z</time>
      </trkpt>
      <trkpt lat="41.815453" lon="2.520670">
        <ele>274.874</ele>
        <time>2021-05-26T15:22:40Z</time>
      </trkpt>
      <trkpt lat="41.815466" lon="2.520706">
        <ele>274.814</ele>
        <time>2021-05-26T15:22:42Z</time>
      </trkpt>
      <trkpt lat="41.815481" lon="2.520742">
        <ele>274.820</ele>
        <time>2021-05-26T15:22:44Z</time>
      </trkpt>
      <trkpt lat="41.815497" lon="2.520779">
        <ele>274.815</ele>
        <time>2021-05-26T15:22:46Z</time>
      </trkpt>
      <trkpt lat="41.815510" lon="2.520805">
        <ele>274.938</ele>
        <time>2021-05-26T15:22:48Z</time>
      </trkpt>
      <trkpt lat="41.815522" lon="2.520832">
        <ele>274.970</ele>
        <time>2021-05-26T15:22:50Z</time>
      </trkpt>
      <trkpt lat="41.815535" lon="2.520882">
        <ele>275.117</ele>
        <time>2021-05-26T15:22:53Z</time>
      </trkpt>
      <trkpt lat="41.815549" lon="2.520905">
        <ele>275.208</ele>
        <time>2021-05-26T15:22:55Z</time>
      </trkpt>
      <trkpt lat="41.815562" lon="2.520930">
        <ele>275.420</ele>
        <time>2021-05-26T15:22:57Z</time>
      </trkpt>
      <trkpt lat="41.815574" lon="2.520961">
        <ele>275.637</ele>
        <time>2021-05-26T15:22:59Z</time>
      </trkpt>
      <trkpt lat="41.815586" lon="2.521001">
        <ele>275.834</ele>
        <time>2021-05-26T15:23:01Z</time>
      </trkpt>
      <trkpt lat="41.815598" lon="2.521040">
        <ele>275.918</ele>
        <time>2021-05-26T15:23:03Z</time>
      </trkpt>
      <trkpt lat="41.815610" lon="2.521074">
        <ele>276.153</ele>
        <time>2021-05-26T15:23:05Z</time>
      </trkpt>
      <trkpt lat="41.815622" lon="2.521100">
        <ele>276.233</ele>
        <time>2021-05-26T15:23:07Z</time>
      </trkpt>
      <trkpt lat="41.815630" lon="2.521136">
        <ele>276.319</ele>
        <time>2021-05-26T15:23:09Z</time>
      </trkpt>
      <trkpt lat="41.815639" lon="2.521172">
        <ele>276.344</ele>
        <time>2021-05-26T15:23:11Z</time>
      </trkpt>
      <trkpt lat="41.815648" lon="2.521207">
        <ele>276.336</ele>
        <time>2021-05-26T15:23:13Z</time>
      </trkpt>
      <trkpt lat="41.815658" lon="2.521242">
        <ele>276.417</ele>
        <time>2021-05-26T15:23:15Z</time>
      </trkpt>
      <trkpt lat="41.815669" lon="2.521277">
        <ele>276.418</ele>
        <time>2021-05-26T15:23:17Z</time>
      </trkpt>
      <trkpt lat="41.815682" lon="2.521308">
        <ele>276.508</ele>
        <time>2021-05-26T15:23:19Z</time>
      </trkpt>
      <trkpt lat="41.815693" lon="2.521339">
        <ele>276.560</ele>
        <time>2021-05-26T15:23:21Z</time>
      </trkpt>
      <trkpt lat="41.815702" lon="2.521375">
        <ele>276.597</ele>
        <time>2021-05-26T15:23:23Z</time>
      </trkpt>
      <trkpt lat="41.815714" lon="2.521408">
        <ele>276.654</ele>
        <time>2021-05-26T15:23:25Z</time>
      </trkpt>
      <trkpt lat="41.815726" lon="2.521441">
        <ele>276.778</ele>
        <time>2021-05-26T15:23:27Z</time>
      </trkpt>
      <trkpt lat="41.815739" lon="2.521476">
        <ele>276.823</ele>
        <time>2021-05-26T15:23:29Z</time>
      </trkpt>
      <trkpt lat="41.815750" lon="2.521511">
        <ele>276.823</ele>
        <time>2021-05-26T15:23:31Z</time>
      </trkpt>
      <trkpt lat="41.815761" lon="2.521545">
        <ele>276.949</ele>
        <time>2021-05-26T15:23:33Z</time>
      </trkpt>
      <trkpt lat="41.815773" lon="2.521578">
        <ele>276.934</ele>
        <time>2021-05-26T15:23:35Z</time>
      </trkpt>
      <trkpt lat="41.815784" lon="2.521607">
        <ele>277.039</ele>
        <time>2021-05-26T15:23:37Z</time>
      </trkpt>
      <trkpt lat="41.815794" lon="2.521636">
        <ele>277.001</ele>
        <time>2021-05-26T15:23:39Z</time>
      </trkpt>
      <trkpt lat="41.815805" lon="2.521668">
        <ele>277.021</ele>
        <time>2021-05-26T15:23:41Z</time>
      </trkpt>
      <trkpt lat="41.815816" lon="2.521700">
        <ele>277.108</ele>
        <time>2021-05-26T15:23:43Z</time>
      </trkpt>
      <trkpt lat="41.815827" lon="2.521730">
        <ele>277.220</ele>
        <time>2021-05-26T15:23:45Z</time>
      </trkpt>
      <trkpt lat="41.815841" lon="2.521758">
        <ele>277.487</ele>
        <time>2021-05-26T15:23:47Z</time>
      </trkpt>
      <trkpt lat="41.815856" lon="2.521786">
        <ele>277.644</ele>
        <time>2021-05-26T15:23:49Z</time>
      </trkpt>
      <trkpt lat="41.815873" lon="2.521808">
        <ele>277.868</ele>
        <time>2021-05-26T15:23:51Z</time>
      </trkpt>
      <trkpt lat="41.815892" lon="2.521829">
        <ele>278.033</ele>
        <time>2021-05-26T15:23:53Z</time>
      </trkpt>
      <trkpt lat="41.815913" lon="2.521849">
        <ele>278.263</ele>
        <time>2021-05-26T15:23:55Z</time>
      </trkpt>
      <trkpt lat="41.815936" lon="2.521866">
        <ele>278.589</ele>
        <time>2021-05-26T15:23:57Z</time>
      </trkpt>
      <trkpt lat="41.815962" lon="2.521879">
        <ele>278.764</ele>
        <time>2021-05-26T15:23:59Z</time>
      </trkpt>
      <trkpt lat="41.815987" lon="2.521886">
        <ele>278.955</ele>
        <time>2021-05-26T15:24:01Z</time>
      </trkpt>
      <trkpt lat="41.816011" lon="2.521896">
        <ele>279.107</ele>
        <time>2021-05-26T15:24:03Z</time>
      </trkpt>
      <trkpt lat="41.816037" lon="2.521907">
        <ele>279.317</ele>
        <time>2021-05-26T15:24:05Z</time>
      </trkpt>
      <trkpt lat="41.816065" lon="2.521909">
        <ele>279.508</ele>
        <time>2021-05-26T15:24:07Z</time>
      </trkpt>
      <trkpt lat="41.816092" lon="2.521903">
        <ele>279.712</ele>
        <time>2021-05-26T15:24:09Z</time>
      </trkpt>
      <trkpt lat="41.816119" lon="2.521891">
        <ele>279.969</ele>
        <time>2021-05-26T15:24:11Z</time>
      </trkpt>
      <trkpt lat="41.816142" lon="2.521873">
        <ele>280.096</ele>
        <time>2021-05-26T15:24:13Z</time>
      </trkpt>
      <trkpt lat="41.816162" lon="2.521849">
        <ele>280.150</ele>
        <time>2021-05-26T15:24:15Z</time>
      </trkpt>
      <trkpt lat="41.816183" lon="2.521827">
        <ele>280.245</ele>
        <time>2021-05-26T15:24:17Z</time>
      </trkpt>
      <trkpt lat="41.816206" lon="2.521807">
        <ele>280.465</ele>
        <time>2021-05-26T15:24:19Z</time>
      </trkpt>
      <trkpt lat="41.816225" lon="2.521786">
        <ele>280.421</ele>
        <time>2021-05-26T15:24:21Z</time>
      </trkpt>
      <trkpt lat="41.816245" lon="2.521765">
        <ele>280.556</ele>
        <time>2021-05-26T15:24:23Z</time>
      </trkpt>
      <trkpt lat="41.816267" lon="2.521744">
        <ele>280.689</ele>
        <time>2021-05-26T15:24:25Z</time>
      </trkpt>
      <trkpt lat="41.816285" lon="2.521723">
        <ele>280.606</ele>
        <time>2021-05-26T15:24:27Z</time>
      </trkpt>
      <trkpt lat="41.816298" lon="2.521702">
        <ele>280.626</ele>
        <time>2021-05-26T15:24:29Z</time>
      </trkpt>
      <trkpt lat="41.816318" lon="2.521688">
        <ele>280.608</ele>
        <time>2021-05-26T15:24:31Z</time>
      </trkpt>
      <trkpt lat="41.816343" lon="2.521672">
        <ele>280.745</ele>
        <time>2021-05-26T15:24:33Z</time>
      </trkpt>
      <trkpt lat="41.816370" lon="2.521652">
        <ele>280.872</ele>
        <time>2021-05-26T15:24:35Z</time>
      </trkpt>
      <trkpt lat="41.816395" lon="2.521624">
        <ele>280.829</ele>
        <time>2021-05-26T15:24:37Z</time>
      </trkpt>
      <trkpt lat="41.816421" lon="2.521602">
        <ele>281.173</ele>
        <time>2021-05-26T15:24:39Z</time>
      </trkpt>
      <trkpt lat="41.816447" lon="2.521581">
        <ele>281.448</ele>
        <time>2021-05-26T15:24:41Z</time>
      </trkpt>
      <trkpt lat="41.816471" lon="2.521560">
        <ele>281.638</ele>
        <time>2021-05-26T15:24:43Z</time>
      </trkpt>
      <trkpt lat="41.816496" lon="2.521540">
        <ele>281.874</ele>
        <time>2021-05-26T15:24:45Z</time>
      </trkpt>
      <trkpt lat="41.816520" lon="2.521516">
        <ele>282.069</ele>
        <time>2021-05-26T15:24:47Z</time>
      </trkpt>
      <trkpt lat="41.816544" lon="2.521497">
        <ele>282.233</ele>
        <time>2021-05-26T15:24:49Z</time>
      </trkpt>
      <trkpt lat="41.816565" lon="2.521477">
        <ele>282.423</ele>
        <time>2021-05-26T15:24:51Z</time>
      </trkpt>
      <trkpt lat="41.816584" lon="2.521458">
        <ele>282.515</ele>
        <time>2021-05-26T15:24:53Z</time>
      </trkpt>
      <trkpt lat="41.816606" lon="2.521438">
        <ele>282.608</ele>
        <time>2021-05-26T15:24:55Z</time>
      </trkpt>
      <trkpt lat="41.816626" lon="2.521417">
        <ele>282.730</ele>
        <time>2021-05-26T15:24:57Z</time>
      </trkpt>
      <trkpt lat="41.816645" lon="2.521400">
        <ele>282.817</ele>
        <time>2021-05-26T15:24:59Z</time>
      </trkpt>
      <trkpt lat="41.816663" lon="2.521383">
        <ele>282.974</ele>
        <time>2021-05-26T15:25:01Z</time>
      </trkpt>
      <trkpt lat="41.816683" lon="2.521364">
        <ele>283.198</ele>
        <time>2021-05-26T15:25:03Z</time>
      </trkpt>
      <trkpt lat="41.816702" lon="2.521342">
        <ele>283.223</ele>
        <time>2021-05-26T15:25:05Z</time>
      </trkpt>
      <trkpt lat="41.816721" lon="2.521326">
        <ele>283.483</ele>
        <time>2021-05-26T15:25:07Z</time>
      </trkpt>
      <trkpt lat="41.816742" lon="2.521310">
        <ele>283.619</ele>
        <time>2021-05-26T15:25:09Z</time>
      </trkpt>
      <trkpt lat="41.816763" lon="2.521290">
        <ele>283.894</ele>
        <time>2021-05-26T15:25:11Z</time>
      </trkpt>
      <trkpt lat="41.816784" lon="2.521270">
        <ele>284.046</ele>
        <time>2021-05-26T15:25:13Z</time>
      </trkpt>
      <trkpt lat="41.816806" lon="2.521251">
        <ele>284.388</ele>
        <time>2021-05-26T15:25:15Z</time>
      </trkpt>
      <trkpt lat="41.816826" lon="2.521233">
        <ele>284.516</ele>
        <time>2021-05-26T15:25:17Z</time>
      </trkpt>
      <trkpt lat="41.816846" lon="2.521213">
        <ele>284.708</ele>
        <time>2021-05-26T15:25:19Z</time>
      </trkpt>
      <trkpt lat="41.816865" lon="2.521195">
        <ele>285.011</ele>
        <time>2021-05-26T15:25:21Z</time>
      </trkpt>
      <trkpt lat="41.816885" lon="2.521177">
        <ele>285.218</ele>
        <time>2021-05-26T15:25:23Z</time>
      </trkpt>
      <trkpt lat="41.816905" lon="2.521161">
        <ele>285.555</ele>
        <time>2021-05-26T15:25:25Z</time>
      </trkpt>
      <trkpt lat="41.816923" lon="2.521144">
        <ele>285.729</ele>
        <time>2021-05-26T15:25:27Z</time>
      </trkpt>
      <trkpt lat="41.816942" lon="2.521123">
        <ele>286.044</ele>
        <time>2021-05-26T15:25:29Z</time>
      </trkpt>
      <trkpt lat="41.816962" lon="2.521103">
        <ele>286.334</ele>
        <time>2021-05-26T15:25:31Z</time>
      </trkpt>
      <trkpt lat="41.816981" lon="2.521084">
        <ele>286.620</ele>
        <time>2021-05-26T15:25:34Z</time>
      </trkpt>
      <trkpt lat="41.817001" lon="2.521066">
        <ele>286.995</ele>
        <time>2021-05-26T15:25:35Z</time>
      </trkpt>
      <trkpt lat="41.817020" lon="2.521048">
        <ele>287.178</ele>
        <time>2021-05-26T15:25:37Z</time>
      </trkpt>
      <trkpt lat="41.817040" lon="2.521031">
        <ele>287.433</ele>
        <time>2021-05-26T15:25:39Z</time>
      </trkpt>
      <trkpt lat="41.817060" lon="2.521011">
        <ele>287.626</ele>
        <time>2021-05-26T15:25:41Z</time>
      </trkpt>
      <trkpt lat="41.817081" lon="2.520990">
        <ele>287.908</ele>
        <time>2021-05-26T15:25:43Z</time>
      </trkpt>
      <trkpt lat="41.817103" lon="2.520970">
        <ele>288.134</ele>
        <time>2021-05-26T15:25:45Z</time>
      </trkpt>
      <trkpt lat="41.817122" lon="2.520952">
        <ele>288.381</ele>
        <time>2021-05-26T15:25:47Z</time>
      </trkpt>
      <trkpt lat="41.817140" lon="2.520933">
        <ele>288.578</ele>
        <time>2021-05-26T15:25:49Z</time>
      </trkpt>
      <trkpt lat="41.817160" lon="2.520909">
        <ele>288.682</ele>
        <time>2021-05-26T15:25:51Z</time>
      </trkpt>
      <trkpt lat="41.817181" lon="2.520886">
        <ele>288.867</ele>
        <time>2021-05-26T15:25:53Z</time>
      </trkpt>
      <trkpt lat="41.817203" lon="2.520866">
        <ele>289.037</ele>
        <time>2021-05-26T15:25:55Z</time>
      </trkpt>
      <trkpt lat="41.817222" lon="2.520846">
        <ele>289.193</ele>
        <time>2021-05-26T15:25:57Z</time>
      </trkpt>
      <trkpt lat="41.817244" lon="2.520827">
        <ele>289.468</ele>
        <time>2021-05-26T15:25:59Z</time>
      </trkpt>
      <trkpt lat="41.817268" lon="2.520807">
        <ele>289.753</ele>
        <time>2021-05-26T15:26:01Z</time>
      </trkpt>
      <trkpt lat="41.817288" lon="2.520787">
        <ele>290.004</ele>
        <time>2021-05-26T15:26:03Z</time>
      </trkpt>
      <trkpt lat="41.817307" lon="2.520768">
        <ele>290.214</ele>
        <time>2021-05-26T15:26:05Z</time>
      </trkpt>
      <trkpt lat="41.817328" lon="2.520749">
        <ele>290.508</ele>
        <time>2021-05-26T15:26:07Z</time>
      </trkpt>
      <trkpt lat="41.817345" lon="2.520730">
        <ele>290.772</ele>
        <time>2021-05-26T15:26:09Z</time>
      </trkpt>
      <trkpt lat="41.817376" lon="2.520703">
        <ele>291.039</ele>
        <time>2021-05-26T15:26:12Z</time>
      </trkpt>
      <trkpt lat="41.817397" lon="2.520685">
        <ele>291.396</ele>
        <time>2021-05-26T15:26:14Z</time>
      </trkpt>
      <trkpt lat="41.817419" lon="2.520667">
        <ele>291.570</ele>
        <time>2021-05-26T15:26:16Z</time>
      </trkpt>
      <trkpt lat="41.817437" lon="2.520649">
        <ele>291.745</ele>
        <time>2021-05-26T15:26:18Z</time>
      </trkpt>
      <trkpt lat="41.817455" lon="2.520630">
        <ele>291.895</ele>
        <time>2021-05-26T15:26:20Z</time>
      </trkpt>
      <trkpt lat="41.817472" lon="2.520612">
        <ele>292.091</ele>
        <time>2021-05-26T15:26:22Z</time>
      </trkpt>
      <trkpt lat="41.817493" lon="2.520590">
        <ele>292.166</ele>
        <time>2021-05-26T15:26:24Z</time>
      </trkpt>
      <trkpt lat="41.817514" lon="2.520569">
        <ele>292.262</ele>
        <time>2021-05-26T15:26:26Z</time>
      </trkpt>
      <trkpt lat="41.817536" lon="2.520552">
        <ele>292.483</ele>
        <time>2021-05-26T15:26:28Z</time>
      </trkpt>
      <trkpt lat="41.817567" lon="2.520526">
        <ele>292.611</ele>
        <time>2021-05-26T15:26:31Z</time>
      </trkpt>
      <trkpt lat="41.817589" lon="2.520508">
        <ele>292.808</ele>
        <time>2021-05-26T15:26:33Z</time>
      </trkpt>
      <trkpt lat="41.817610" lon="2.520489">
        <ele>292.913</ele>
        <time>2021-05-26T15:26:35Z</time>
      </trkpt>
      <trkpt lat="41.817633" lon="2.520469">
        <ele>293.130</ele>
        <time>2021-05-26T15:26:37Z</time>
      </trkpt>
      <trkpt lat="41.817648" lon="2.520447">
        <ele>293.297</ele>
        <time>2021-05-26T15:26:39Z</time>
      </trkpt>
      <trkpt lat="41.817666" lon="2.520435">
        <ele>293.461</ele>
        <time>2021-05-26T15:26:41Z</time>
      </trkpt>
      <trkpt lat="41.817692" lon="2.520446">
        <ele>293.766</ele>
        <time>2021-05-26T15:26:43Z</time>
      </trkpt>
      <trkpt lat="41.817719" lon="2.520469">
        <ele>294.116</ele>
        <time>2021-05-26T15:26:45Z</time>
      </trkpt>
      <trkpt lat="41.817747" lon="2.520492">
        <ele>294.422</ele>
        <time>2021-05-26T15:26:47Z</time>
      </trkpt>
      <trkpt lat="41.817769" lon="2.520520">
        <ele>294.817</ele>
        <time>2021-05-26T15:26:49Z</time>
      </trkpt>
      <trkpt lat="41.817791" lon="2.520551">
        <ele>295.172</ele>
        <time>2021-05-26T15:26:51Z</time>
      </trkpt>
      <trkpt lat="41.817814" lon="2.520575">
        <ele>295.513</ele>
        <time>2021-05-26T15:26:53Z</time>
      </trkpt>
      <trkpt lat="41.817840" lon="2.520595">
        <ele>295.914</ele>
        <time>2021-05-26T15:26:55Z</time>
      </trkpt>
      <trkpt lat="41.817870" lon="2.520600">
        <ele>296.308</ele>
        <time>2021-05-26T15:26:57Z</time>
      </trkpt>
      <trkpt lat="41.817899" lon="2.520600">
        <ele>296.674</ele>
        <time>2021-05-26T15:26:59Z</time>
      </trkpt>
      <trkpt lat="41.817924" lon="2.520597">
        <ele>296.841</ele>
        <time>2021-05-26T15:27:01Z</time>
      </trkpt>
      <trkpt lat="41.818013" lon="2.520644">
        <ele>297.958</ele>
        <time>2021-05-26T15:27:09Z</time>
      </trkpt>
      <trkpt lat="41.818051" lon="2.520763">
        <ele>298.732</ele>
        <time>2021-05-26T15:27:19Z</time>
      </trkpt>
      <trkpt lat="41.818023" lon="2.520888">
        <ele>299.277</ele>
        <time>2021-05-26T15:27:47Z</time>
      </trkpt>
      <trkpt lat="41.817964" lon="2.520671">
        <ele>297.687</ele>
        <time>2021-05-26T15:30:53Z</time>
      </trkpt>
      <trkpt lat="41.818067" lon="2.520771">
        <ele>299.043</ele>
        <time>2021-05-26T15:30:55Z</time>
      </trkpt>
      <trkpt lat="41.818126" lon="2.520899">
        <ele>300.678</ele>
        <time>2021-05-26T15:30:58Z</time>
      </trkpt>
      <trkpt lat="41.818252" lon="2.520990">
        <ele>302.962</ele>
        <time>2021-05-26T15:31:10Z</time>
      </trkpt>
      <trkpt lat="41.818156" lon="2.520978">
        <ele>301.583</ele>
        <time>2021-05-26T15:31:13Z</time>
      </trkpt>
      <trkpt lat="41.818087" lon="2.520892">
        <ele>299.911</ele>
        <time>2021-05-26T15:31:21Z</time>
      </trkpt>
      <trkpt lat="41.818179" lon="2.520842">
        <ele>301.308</ele>
        <time>2021-05-26T15:31:34Z</time>
      </trkpt>
      <trkpt lat="41.818172" lon="2.520668">
        <ele>300.883</ele>
        <time>2021-05-26T15:31:49Z</time>
      </trkpt>
      <trkpt lat="41.818082" lon="2.520679">
        <ele>299.080</ele>
        <time>2021-05-26T15:32:00Z</time>
      </trkpt>
      <trkpt lat="41.818000" lon="2.520735">
        <ele>298.287</ele>
        <time>2021-05-26T15:32:09Z</time>
      </trkpt>
      <trkpt lat="41.817954" lon="2.520625">
        <ele>297.291</ele>
        <time>2021-05-26T15:32:15Z</time>
      </trkpt>
      <trkpt lat="41.818014" lon="2.520665">
        <ele>298.056</ele>
        <time>2021-05-26T15:33:35Z</time>
      </trkpt>
      <trkpt lat="41.818030" lon="2.520642">
        <ele>298.196</ele>
        <time>2021-05-26T15:33:37Z</time>
      </trkpt>
      <trkpt lat="41.818047" lon="2.520631">
        <ele>298.232</ele>
        <time>2021-05-26T15:33:43Z</time>
      </trkpt>
      <trkpt lat="41.817953" lon="2.520668">
        <ele>297.437</ele>
        <time>2021-05-26T15:36:07Z</time>
      </trkpt>
      <trkpt lat="41.818046" lon="2.520681">
        <ele>298.487</ele>
        <time>2021-05-26T15:36:23Z</time>
      </trkpt>
      <trkpt lat="41.818041" lon="2.520576">
        <ele>297.942</ele>
        <time>2021-05-26T15:38:01Z</time>
      </trkpt>
      <trkpt lat="41.818056" lon="2.520544">
        <ele>298.026</ele>
        <time>2021-05-26T15:38:03Z</time>
      </trkpt>
      <trkpt lat="41.818060" lon="2.520510">
        <ele>297.908</ele>
        <time>2021-05-26T15:38:05Z</time>
      </trkpt>
      <trkpt lat="41.818073" lon="2.520493">
        <ele>298.295</ele>
        <time>2021-05-26T15:38:06Z</time>
      </trkpt>
      <trkpt lat="41.818084" lon="2.520475">
        <ele>298.472</ele>
        <time>2021-05-26T15:38:07Z</time>
      </trkpt>
      <trkpt lat="41.818099" lon="2.520445">
        <ele>298.639</ele>
        <time>2021-05-26T15:38:09Z</time>
      </trkpt>
      <trkpt lat="41.818099" lon="2.520404">
        <ele>298.573</ele>
        <time>2021-05-26T15:38:11Z</time>
      </trkpt>
      <trkpt lat="41.818098" lon="2.520377">
        <ele>298.428</ele>
        <time>2021-05-26T15:38:12Z</time>
      </trkpt>
      <trkpt lat="41.818103" lon="2.520332">
        <ele>298.478</ele>
        <time>2021-05-26T15:38:14Z</time>
      </trkpt>
      <trkpt lat="41.818117" lon="2.520296">
        <ele>298.674</ele>
        <time>2021-05-26T15:38:16Z</time>
      </trkpt>
      <trkpt lat="41.818132" lon="2.520263">
        <ele>298.949</ele>
        <time>2021-05-26T15:38:18Z</time>
      </trkpt>
      <trkpt lat="41.818143" lon="2.520233">
        <ele>299.136</ele>
        <time>2021-05-26T15:38:20Z</time>
      </trkpt>
      <trkpt lat="41.818147" lon="2.520205">
        <ele>299.117</ele>
        <time>2021-05-26T15:38:22Z</time>
      </trkpt>
      <trkpt lat="41.818157" lon="2.520179">
        <ele>299.318</ele>
        <time>2021-05-26T15:38:24Z</time>
      </trkpt>
      <trkpt lat="41.818164" lon="2.520148">
        <ele>299.408</ele>
        <time>2021-05-26T15:38:26Z</time>
      </trkpt>
      <trkpt lat="41.818179" lon="2.520117">
        <ele>299.620</ele>
        <time>2021-05-26T15:38:28Z</time>
      </trkpt>
      <trkpt lat="41.818198" lon="2.520084">
        <ele>299.987</ele>
        <time>2021-05-26T15:38:30Z</time>
      </trkpt>
      <trkpt lat="41.818214" lon="2.520059">
        <ele>300.134</ele>
        <time>2021-05-26T15:38:32Z</time>
      </trkpt>
      <trkpt lat="41.818236" lon="2.520044">
        <ele>300.598</ele>
        <time>2021-05-26T15:38:34Z</time>
      </trkpt>
      <trkpt lat="41.818248" lon="2.520008">
        <ele>300.563</ele>
        <time>2021-05-26T15:38:36Z</time>
      </trkpt>
      <trkpt lat="41.818248" lon="2.519970">
        <ele>300.233</ele>
        <time>2021-05-26T15:38:38Z</time>
      </trkpt>
      <trkpt lat="41.818253" lon="2.519932">
        <ele>300.139</ele>
        <time>2021-05-26T15:38:40Z</time>
      </trkpt>
      <trkpt lat="41.818267" lon="2.519897">
        <ele>300.144</ele>
        <time>2021-05-26T15:38:42Z</time>
      </trkpt>
      <trkpt lat="41.818281" lon="2.519861">
        <ele>300.152</ele>
        <time>2021-05-26T15:38:44Z</time>
      </trkpt>
      <trkpt lat="41.818294" lon="2.519826">
        <ele>300.053</ele>
        <time>2021-05-26T15:38:46Z</time>
      </trkpt>
      <trkpt lat="41.818311" lon="2.519797">
        <ele>300.108</ele>
        <time>2021-05-26T15:38:48Z</time>
      </trkpt>
      <trkpt lat="41.818328" lon="2.519771">
        <ele>300.308</ele>
        <time>2021-05-26T15:38:50Z</time>
      </trkpt>
      <trkpt lat="41.818350" lon="2.519744">
        <ele>300.572</ele>
        <time>2021-05-26T15:38:52Z</time>
      </trkpt>
      <trkpt lat="41.818368" lon="2.519718">
        <ele>300.779</ele>
        <time>2021-05-26T15:38:54Z</time>
      </trkpt>
      <trkpt lat="41.818395" lon="2.519695">
        <ele>301.046</ele>
        <time>2021-05-26T15:38:56Z</time>
      </trkpt>
      <trkpt lat="41.818422" lon="2.519673">
        <ele>301.380</ele>
        <time>2021-05-26T15:38:58Z</time>
      </trkpt>
      <trkpt lat="41.818436" lon="2.519636">
        <ele>301.265</ele>
        <time>2021-05-26T15:39:00Z</time>
      </trkpt>
      <trkpt lat="41.818453" lon="2.519606">
        <ele>301.185</ele>
        <time>2021-05-26T15:39:02Z</time>
      </trkpt>
      <trkpt lat="41.818475" lon="2.519582">
        <ele>301.391</ele>
        <time>2021-05-26T15:39:04Z</time>
      </trkpt>
      <trkpt lat="41.818497" lon="2.519562">
        <ele>301.546</ele>
        <time>2021-05-26T15:39:06Z</time>
      </trkpt>
      <trkpt lat="41.818517" lon="2.519540">
        <ele>301.676</ele>
        <time>2021-05-26T15:39:08Z</time>
      </trkpt>
      <trkpt lat="41.818536" lon="2.519517">
        <ele>301.690</ele>
        <time>2021-05-26T15:39:10Z</time>
      </trkpt>
      <trkpt lat="41.818557" lon="2.519493">
        <ele>301.719</ele>
        <time>2021-05-26T15:39:12Z</time>
      </trkpt>
      <trkpt lat="41.818580" lon="2.519473">
        <ele>301.808</ele>
        <time>2021-05-26T15:39:14Z</time>
      </trkpt>
      <trkpt lat="41.818605" lon="2.519456">
        <ele>302.114</ele>
        <time>2021-05-26T15:39:16Z</time>
      </trkpt>
      <trkpt lat="41.818630" lon="2.519442">
        <ele>302.381</ele>
        <time>2021-05-26T15:39:18Z</time>
      </trkpt>
      <trkpt lat="41.818652" lon="2.519422">
        <ele>302.318</ele>
        <time>2021-05-26T15:39:20Z</time>
      </trkpt>
      <trkpt lat="41.818675" lon="2.519402">
        <ele>302.312</ele>
        <time>2021-05-26T15:39:22Z</time>
      </trkpt>
      <trkpt lat="41.818698" lon="2.519380">
        <ele>302.317</ele>
        <time>2021-05-26T15:39:24Z</time>
      </trkpt>
      <trkpt lat="41.818723" lon="2.519361">
        <ele>302.517</ele>
        <time>2021-05-26T15:39:26Z</time>
      </trkpt>
      <trkpt lat="41.818747" lon="2.519339">
        <ele>302.553</ele>
        <time>2021-05-26T15:39:28Z</time>
      </trkpt>
      <trkpt lat="41.818769" lon="2.519320">
        <ele>302.748</ele>
        <time>2021-05-26T15:39:29Z</time>
      </trkpt>
      <trkpt lat="41.818793" lon="2.519302">
        <ele>302.956</ele>
        <time>2021-05-26T15:39:32Z</time>
      </trkpt>
      <trkpt lat="41.818814" lon="2.519281">
        <ele>303.059</ele>
        <time>2021-05-26T15:39:34Z</time>
      </trkpt>
      <trkpt lat="41.818836" lon="2.519262">
        <ele>303.214</ele>
        <time>2021-05-26T15:39:36Z</time>
      </trkpt>
      <trkpt lat="41.818859" lon="2.519245">
        <ele>303.408</ele>
        <time>2021-05-26T15:39:38Z</time>
      </trkpt>
      <trkpt lat="41.818883" lon="2.519232">
        <ele>303.862</ele>
        <time>2021-05-26T15:39:40Z</time>
      </trkpt>
      <trkpt lat="41.818910" lon="2.519218">
        <ele>304.299</ele>
        <time>2021-05-26T15:39:42Z</time>
      </trkpt>
      <trkpt lat="41.818937" lon="2.519204">
        <ele>304.736</ele>
        <time>2021-05-26T15:39:44Z</time>
      </trkpt>
      <trkpt lat="41.818960" lon="2.519189">
        <ele>305.160</ele>
        <time>2021-05-26T15:39:46Z</time>
      </trkpt>
      <trkpt lat="41.818980" lon="2.519172">
        <ele>305.455</ele>
        <time>2021-05-26T15:39:48Z</time>
      </trkpt>
      <trkpt lat="41.819001" lon="2.519149">
        <ele>305.535</ele>
        <time>2021-05-26T15:39:50Z</time>
      </trkpt>
      <trkpt lat="41.819020" lon="2.519123">
        <ele>305.541</ele>
        <time>2021-05-26T15:39:52Z</time>
      </trkpt>
      <trkpt lat="41.819035" lon="2.519096">
        <ele>305.466</ele>
        <time>2021-05-26T15:39:54Z</time>
      </trkpt>
      <trkpt lat="41.819046" lon="2.519067">
        <ele>305.233</ele>
        <time>2021-05-26T15:39:56Z</time>
      </trkpt>
      <trkpt lat="41.819062" lon="2.519043">
        <ele>305.123</ele>
        <time>2021-05-26T15:39:58Z</time>
      </trkpt>
      <trkpt lat="41.819084" lon="2.519020">
        <ele>305.315</ele>
        <time>2021-05-26T15:40:00Z</time>
      </trkpt>
      <trkpt lat="41.819107" lon="2.518998">
        <ele>305.508</ele>
        <time>2021-05-26T15:40:02Z</time>
      </trkpt>
      <trkpt lat="41.819132" lon="2.518978">
        <ele>305.720</ele>
        <time>2021-05-26T15:40:04Z</time>
      </trkpt>
      <trkpt lat="41.819156" lon="2.518956">
        <ele>305.977</ele>
        <time>2021-05-26T15:40:06Z</time>
      </trkpt>
      <trkpt lat="41.819179" lon="2.518939">
        <ele>306.174</ele>
        <time>2021-05-26T15:40:08Z</time>
      </trkpt>
      <trkpt lat="41.819203" lon="2.518920">
        <ele>306.228</ele>
        <time>2021-05-26T15:40:10Z</time>
      </trkpt>
      <trkpt lat="41.819219" lon="2.518899">
        <ele>306.193</ele>
        <time>2021-05-26T15:40:12Z</time>
      </trkpt>
      <trkpt lat="41.819233" lon="2.518878">
        <ele>306.053</ele>
        <time>2021-05-26T15:40:14Z</time>
      </trkpt>
      <trkpt lat="41.819253" lon="2.518858">
        <ele>306.069</ele>
        <time>2021-05-26T15:40:16Z</time>
      </trkpt>
      <trkpt lat="41.819275" lon="2.518839">
        <ele>306.194</ele>
        <time>2021-05-26T15:40:18Z</time>
      </trkpt>
      <trkpt lat="41.819297" lon="2.518825">
        <ele>306.233</ele>
        <time>2021-05-26T15:40:20Z</time>
      </trkpt>
      <trkpt lat="41.819316" lon="2.518805">
        <ele>306.223</ele>
        <time>2021-05-26T15:40:22Z</time>
      </trkpt>
      <trkpt lat="41.819332" lon="2.518785">
        <ele>306.015</ele>
        <time>2021-05-26T15:40:24Z</time>
      </trkpt>
      <trkpt lat="41.819356" lon="2.518765">
        <ele>306.008</ele>
        <time>2021-05-26T15:40:26Z</time>
      </trkpt>
      <trkpt lat="41.819390" lon="2.518752">
        <ele>306.380</ele>
        <time>2021-05-26T15:40:28Z</time>
      </trkpt>
      <trkpt lat="41.819418" lon="2.518734">
        <ele>306.317</ele>
        <time>2021-05-26T15:40:30Z</time>
      </trkpt>
      <trkpt lat="41.819437" lon="2.518728">
        <ele>306.484</ele>
        <time>2021-05-26T15:40:31Z</time>
      </trkpt>
      <trkpt lat="41.819467" lon="2.518711">
        <ele>306.238</ele>
        <time>2021-05-26T15:40:33Z</time>
      </trkpt>
      <trkpt lat="41.819494" lon="2.518692">
        <ele>305.933</ele>
        <time>2021-05-26T15:40:35Z</time>
      </trkpt>
      <trkpt lat="41.819516" lon="2.518674">
        <ele>305.653</ele>
        <time>2021-05-26T15:40:37Z</time>
      </trkpt>
      <trkpt lat="41.819537" lon="2.518658">
        <ele>305.319</ele>
        <time>2021-05-26T15:40:39Z</time>
      </trkpt>
      <trkpt lat="41.819559" lon="2.518647">
        <ele>305.284</ele>
        <time>2021-05-26T15:40:41Z</time>
      </trkpt>
      <trkpt lat="41.819578" lon="2.518627">
        <ele>304.871</ele>
        <time>2021-05-26T15:40:43Z</time>
      </trkpt>
      <trkpt lat="41.819591" lon="2.518608">
        <ele>304.541</ele>
        <time>2021-05-26T15:40:45Z</time>
      </trkpt>
      <trkpt lat="41.819613" lon="2.518592">
        <ele>304.215</ele>
        <time>2021-05-26T15:40:47Z</time>
      </trkpt>
      <trkpt lat="41.819640" lon="2.518577">
        <ele>304.108</ele>
        <time>2021-05-26T15:40:49Z</time>
      </trkpt>
      <trkpt lat="41.819668" lon="2.518568">
        <ele>304.014</ele>
        <time>2021-05-26T15:40:51Z</time>
      </trkpt>
      <trkpt lat="41.819693" lon="2.518560">
        <ele>304.031</ele>
        <time>2021-05-26T15:40:53Z</time>
      </trkpt>
      <trkpt lat="41.819717" lon="2.518550">
        <ele>303.938</ele>
        <time>2021-05-26T15:40:55Z</time>
      </trkpt>
      <trkpt lat="41.819745" lon="2.518539">
        <ele>304.082</ele>
        <time>2021-05-26T15:40:57Z</time>
      </trkpt>
      <trkpt lat="41.819773" lon="2.518525">
        <ele>304.297</ele>
        <time>2021-05-26T15:40:59Z</time>
      </trkpt>
      <trkpt lat="41.819798" lon="2.518507">
        <ele>304.297</ele>
        <time>2021-05-26T15:41:01Z</time>
      </trkpt>
      <trkpt lat="41.819823" lon="2.518492">
        <ele>304.383</ele>
        <time>2021-05-26T15:41:03Z</time>
      </trkpt>
      <trkpt lat="41.819843" lon="2.518473">
        <ele>304.318</ele>
        <time>2021-05-26T15:41:05Z</time>
      </trkpt>
      <trkpt lat="41.819863" lon="2.518459">
        <ele>304.393</ele>
        <time>2021-05-26T15:41:07Z</time>
      </trkpt>
      <trkpt lat="41.819886" lon="2.518445">
        <ele>304.465</ele>
        <time>2021-05-26T15:41:09Z</time>
      </trkpt>
      <trkpt lat="41.819910" lon="2.518431">
        <ele>304.521</ele>
        <time>2021-05-26T15:41:11Z</time>
      </trkpt>
      <trkpt lat="41.819935" lon="2.518415">
        <ele>304.508</ele>
        <time>2021-05-26T15:41:13Z</time>
      </trkpt>
      <trkpt lat="41.819961" lon="2.518399">
        <ele>304.656</ele>
        <time>2021-05-26T15:41:15Z</time>
      </trkpt>
      <trkpt lat="41.819986" lon="2.518384">
        <ele>304.793</ele>
        <time>2021-05-26T15:41:17Z</time>
      </trkpt>
      <trkpt lat="41.820009" lon="2.518368">
        <ele>304.810</ele>
        <time>2021-05-26T15:41:19Z</time>
      </trkpt>
      <trkpt lat="41.820032" lon="2.518353">
        <ele>304.884</ele>
        <time>2021-05-26T15:41:21Z</time>
      </trkpt>
      <trkpt lat="41.820055" lon="2.518338">
        <ele>304.989</ele>
        <time>2021-05-26T15:41:23Z</time>
      </trkpt>
      <trkpt lat="41.820080" lon="2.518325">
        <ele>305.019</ele>
        <time>2021-05-26T15:41:25Z</time>
      </trkpt>
      <trkpt lat="41.820103" lon="2.518310">
        <ele>305.115</ele>
        <time>2021-05-26T15:41:27Z</time>
      </trkpt>
      <trkpt lat="41.820126" lon="2.518297">
        <ele>305.270</ele>
        <time>2021-05-26T15:41:29Z</time>
      </trkpt>
      <trkpt lat="41.820148" lon="2.518284">
        <ele>305.236</ele>
        <time>2021-05-26T15:41:31Z</time>
      </trkpt>
      <trkpt lat="41.820169" lon="2.518271">
        <ele>305.317</ele>
        <time>2021-05-26T15:41:33Z</time>
      </trkpt>
      <trkpt lat="41.820191" lon="2.518258">
        <ele>305.318</ele>
        <time>2021-05-26T15:41:35Z</time>
      </trkpt>
      <trkpt lat="41.820213" lon="2.518246">
        <ele>305.308</ele>
        <time>2021-05-26T15:41:37Z</time>
      </trkpt>
      <trkpt lat="41.820238" lon="2.518233">
        <ele>305.460</ele>
        <time>2021-05-26T15:41:39Z</time>
      </trkpt>
      <trkpt lat="41.820262" lon="2.518219">
        <ele>305.417</ele>
        <time>2021-05-26T15:41:41Z</time>
      </trkpt>
      <trkpt lat="41.820286" lon="2.518205">
        <ele>305.334</ele>
        <time>2021-05-26T15:41:43Z</time>
      </trkpt>
      <trkpt lat="41.820310" lon="2.518192">
        <ele>305.338</ele>
        <time>2021-05-26T15:41:45Z</time>
      </trkpt>
      <trkpt lat="41.820332" lon="2.518180">
        <ele>305.383</ele>
        <time>2021-05-26T15:41:47Z</time>
      </trkpt>
      <trkpt lat="41.820354" lon="2.518170">
        <ele>305.383</ele>
        <time>2021-05-26T15:41:49Z</time>
      </trkpt>
      <trkpt lat="41.820375" lon="2.518157">
        <ele>305.219</ele>
        <time>2021-05-26T15:41:51Z</time>
      </trkpt>
      <trkpt lat="41.820396" lon="2.518144">
        <ele>305.224</ele>
        <time>2021-05-26T15:41:53Z</time>
      </trkpt>
      <trkpt lat="41.820418" lon="2.518133">
        <ele>305.266</ele>
        <time>2021-05-26T15:41:55Z</time>
      </trkpt>
      <trkpt lat="41.820439" lon="2.518122">
        <ele>305.229</ele>
        <time>2021-05-26T15:41:57Z</time>
      </trkpt>
      <trkpt lat="41.820461" lon="2.518112">
        <ele>305.221</ele>
        <time>2021-05-26T15:41:59Z</time>
      </trkpt>
      <trkpt lat="41.820485" lon="2.518101">
        <ele>305.208</ele>
        <time>2021-05-26T15:42:01Z</time>
      </trkpt>
      <trkpt lat="41.820507" lon="2.518089">
        <ele>305.293</ele>
        <time>2021-05-26T15:42:03Z</time>
      </trkpt>
      <trkpt lat="41.820531" lon="2.518077">
        <ele>305.230</ele>
        <time>2021-05-26T15:42:05Z</time>
      </trkpt>
      <trkpt lat="41.820557" lon="2.518064">
        <ele>305.297</ele>
        <time>2021-05-26T15:42:07Z</time>
      </trkpt>
      <trkpt lat="41.820580" lon="2.518051">
        <ele>305.491</ele>
        <time>2021-05-26T15:42:09Z</time>
      </trkpt>
      <trkpt lat="41.820601" lon="2.518037">
        <ele>305.526</ele>
        <time>2021-05-26T15:42:11Z</time>
      </trkpt>
      <trkpt lat="41.820622" lon="2.518023">
        <ele>305.716</ele>
        <time>2021-05-26T15:42:13Z</time>
      </trkpt>
      <trkpt lat="41.820646" lon="2.518013">
        <ele>305.952</ele>
        <time>2021-05-26T15:42:15Z</time>
      </trkpt>
      <trkpt lat="41.820670" lon="2.517999">
        <ele>306.137</ele>
        <time>2021-05-26T15:42:17Z</time>
      </trkpt>
      <trkpt lat="41.820694" lon="2.517986">
        <ele>306.228</ele>
        <time>2021-05-26T15:42:19Z</time>
      </trkpt>
      <trkpt lat="41.820721" lon="2.517972">
        <ele>306.489</ele>
        <time>2021-05-26T15:42:21Z</time>
      </trkpt>
      <trkpt lat="41.820746" lon="2.517958">
        <ele>306.517</ele>
        <time>2021-05-26T15:42:23Z</time>
      </trkpt>
      <trkpt lat="41.820771" lon="2.517946">
        <ele>306.708</ele>
        <time>2021-05-26T15:42:25Z</time>
      </trkpt>
      <trkpt lat="41.820794" lon="2.517933">
        <ele>306.819</ele>
        <time>2021-05-26T15:42:27Z</time>
      </trkpt>
      <trkpt lat="41.820817" lon="2.517920">
        <ele>306.876</ele>
        <time>2021-05-26T15:42:29Z</time>
      </trkpt>
      <trkpt lat="41.820842" lon="2.517908">
        <ele>306.973</ele>
        <time>2021-05-26T15:42:31Z</time>
      </trkpt>
      <trkpt lat="41.820866" lon="2.517896">
        <ele>306.947</ele>
        <time>2021-05-26T15:42:33Z</time>
      </trkpt>
      <trkpt lat="41.820892" lon="2.517883">
        <ele>306.892</ele>
        <time>2021-05-26T15:42:35Z</time>
      </trkpt>
      <trkpt lat="41.820918" lon="2.517872">
        <ele>306.892</ele>
        <time>2021-05-26T15:42:37Z</time>
      </trkpt>
      <trkpt lat="41.820940" lon="2.517859">
        <ele>306.828</ele>
        <time>2021-05-26T15:42:39Z</time>
      </trkpt>
      <trkpt lat="41.820963" lon="2.517849">
        <ele>306.823</ele>
        <time>2021-05-26T15:42:41Z</time>
      </trkpt>
      <trkpt lat="41.820984" lon="2.517837">
        <ele>306.893</ele>
        <time>2021-05-26T15:42:43Z</time>
      </trkpt>
      <trkpt lat="41.821005" lon="2.517825">
        <ele>306.865</ele>
        <time>2021-05-26T15:42:45Z</time>
      </trkpt>
      <trkpt lat="41.821029" lon="2.517810">
        <ele>306.721</ele>
        <time>2021-05-26T15:42:47Z</time>
      </trkpt>
      <trkpt lat="41.821056" lon="2.517799">
        <ele>306.808</ele>
        <time>2021-05-26T15:42:49Z</time>
      </trkpt>
      <trkpt lat="41.821082" lon="2.517788">
        <ele>306.956</ele>
        <time>2021-05-26T15:42:51Z</time>
      </trkpt>
      <trkpt lat="41.821108" lon="2.517782">
        <ele>307.083</ele>
        <time>2021-05-26T15:42:53Z</time>
      </trkpt>
      <trkpt lat="41.821134" lon="2.517771">
        <ele>306.950</ele>
        <time>2021-05-26T15:42:55Z</time>
      </trkpt>
      <trkpt lat="41.821160" lon="2.517761">
        <ele>306.884</ele>
        <time>2021-05-26T15:42:57Z</time>
      </trkpt>
      <trkpt lat="41.821186" lon="2.517753">
        <ele>306.869</ele>
        <time>2021-05-26T15:42:58Z</time>
      </trkpt>
      <trkpt lat="41.821212" lon="2.517744">
        <ele>306.749</ele>
        <time>2021-05-26T15:43:01Z</time>
      </trkpt>
      <trkpt lat="41.821238" lon="2.517738">
        <ele>306.685</ele>
        <time>2021-05-26T15:43:03Z</time>
      </trkpt>
      <trkpt lat="41.821265" lon="2.517732">
        <ele>306.610</ele>
        <time>2021-05-26T15:43:05Z</time>
      </trkpt>
      <trkpt lat="41.821291" lon="2.517722">
        <ele>306.598</ele>
        <time>2021-05-26T15:43:07Z</time>
      </trkpt>
      <trkpt lat="41.821319" lon="2.517718">
        <ele>306.515</ele>
        <time>2021-05-26T15:43:09Z</time>
      </trkpt>
      <trkpt lat="41.821346" lon="2.517713">
        <ele>306.526</ele>
        <time>2021-05-26T15:43:11Z</time>
      </trkpt>
      <trkpt lat="41.821373" lon="2.517707">
        <ele>306.508</ele>
        <time>2021-05-26T15:43:13Z</time>
      </trkpt>
      <trkpt lat="41.821397" lon="2.517699">
        <ele>306.466</ele>
        <time>2021-05-26T15:43:15Z</time>
      </trkpt>
      <trkpt lat="41.821424" lon="2.517691">
        <ele>306.483</ele>
        <time>2021-05-26T15:43:17Z</time>
      </trkpt>
      <trkpt lat="41.821450" lon="2.517688">
        <ele>306.470</ele>
        <time>2021-05-26T15:43:19Z</time>
      </trkpt>
      <trkpt lat="41.821480" lon="2.517686">
        <ele>306.364</ele>
        <time>2021-05-26T15:43:21Z</time>
      </trkpt>
      <trkpt lat="41.821508" lon="2.517684">
        <ele>306.339</ele>
        <time>2021-05-26T15:43:23Z</time>
      </trkpt>
      <trkpt lat="41.821537" lon="2.517678">
        <ele>306.359</ele>
        <time>2021-05-26T15:43:25Z</time>
      </trkpt>
      <trkpt lat="41.821566" lon="2.517661">
        <ele>306.275</ele>
        <time>2021-05-26T15:43:27Z</time>
      </trkpt>
      <trkpt lat="41.821586" lon="2.517635">
        <ele>306.060</ele>
        <time>2021-05-26T15:43:29Z</time>
      </trkpt>
      <trkpt lat="41.821610" lon="2.517615">
        <ele>305.824</ele>
        <time>2021-05-26T15:43:31Z</time>
      </trkpt>
      <trkpt lat="41.821630" lon="2.517583">
        <ele>305.604</ele>
        <time>2021-05-26T15:43:33Z</time>
      </trkpt>
      <trkpt lat="41.821639" lon="2.517544">
        <ele>305.314</ele>
        <time>2021-05-26T15:43:35Z</time>
      </trkpt>
      <trkpt lat="41.821640" lon="2.517508">
        <ele>305.108</ele>
        <time>2021-05-26T15:43:37Z</time>
      </trkpt>
      <trkpt lat="41.821626" lon="2.517470">
        <ele>304.829</ele>
        <time>2021-05-26T15:43:39Z</time>
      </trkpt>
      <trkpt lat="41.821617" lon="2.517433">
        <ele>304.666</ele>
        <time>2021-05-26T15:43:41Z</time>
      </trkpt>
      <trkpt lat="41.821603" lon="2.517395">
        <ele>304.373</ele>
        <time>2021-05-26T15:43:43Z</time>
      </trkpt>
      <trkpt lat="41.821589" lon="2.517365">
        <ele>304.257</ele>
        <time>2021-05-26T15:43:45Z</time>
      </trkpt>
      <trkpt lat="41.821580" lon="2.517331">
        <ele>304.012</ele>
        <time>2021-05-26T15:43:47Z</time>
      </trkpt>
      <trkpt lat="41.821570" lon="2.517299">
        <ele>303.872</ele>
        <time>2021-05-26T15:43:49Z</time>
      </trkpt>
      <trkpt lat="41.821562" lon="2.517261">
        <ele>303.678</ele>
        <time>2021-05-26T15:43:51Z</time>
      </trkpt>
      <trkpt lat="41.821555" lon="2.517216">
        <ele>303.443</ele>
        <time>2021-05-26T15:43:53Z</time>
      </trkpt>
      <trkpt lat="41.821549" lon="2.517192">
        <ele>303.537</ele>
        <time>2021-05-26T15:43:54Z</time>
      </trkpt>
      <trkpt lat="41.821543" lon="2.517154">
        <ele>303.649</ele>
        <time>2021-05-26T15:43:56Z</time>
      </trkpt>
      <trkpt lat="41.821537" lon="2.517118">
        <ele>303.713</ele>
        <time>2021-05-26T15:43:58Z</time>
      </trkpt>
      <trkpt lat="41.821541" lon="2.517076">
        <ele>303.708</ele>
        <time>2021-05-26T15:44:00Z</time>
      </trkpt>
      <trkpt lat="41.821546" lon="2.517037">
        <ele>303.830</ele>
        <time>2021-05-26T15:44:02Z</time>
      </trkpt>
      <trkpt lat="41.821546" lon="2.516999">
        <ele>303.917</ele>
        <time>2021-05-26T15:44:04Z</time>
      </trkpt>
      <trkpt lat="41.821548" lon="2.516960">
        <ele>304.044</ele>
        <time>2021-05-26T15:44:06Z</time>
      </trkpt>
      <trkpt lat="41.821544" lon="2.516922">
        <ele>304.268</ele>
        <time>2021-05-26T15:44:08Z</time>
      </trkpt>
      <trkpt lat="41.821539" lon="2.516885">
        <ele>304.643</ele>
        <time>2021-05-26T15:44:10Z</time>
      </trkpt>
      <trkpt lat="41.821541" lon="2.516852">
        <ele>305.023</ele>
        <time>2021-05-26T15:44:12Z</time>
      </trkpt>
      <trkpt lat="41.821558" lon="2.516834">
        <ele>305.139</ele>
        <time>2021-05-26T15:44:14Z</time>
      </trkpt>
      <trkpt lat="41.821586" lon="2.516834">
        <ele>305.084</ele>
        <time>2021-05-26T15:44:16Z</time>
      </trkpt>
      <trkpt lat="41.821612" lon="2.516838">
        <ele>304.924</ele>
        <time>2021-05-26T15:44:18Z</time>
      </trkpt>
      <trkpt lat="41.821635" lon="2.516846">
        <ele>304.804</ele>
        <time>2021-05-26T15:44:20Z</time>
      </trkpt>
      <trkpt lat="41.821655" lon="2.516856">
        <ele>304.714</ele>
        <time>2021-05-26T15:44:22Z</time>
      </trkpt>
      <trkpt lat="41.821676" lon="2.516869">
        <ele>304.508</ele>
        <time>2021-05-26T15:44:24Z</time>
      </trkpt>
      <trkpt lat="41.821699" lon="2.516880">
        <ele>304.319</ele>
        <time>2021-05-26T15:44:26Z</time>
      </trkpt>
      <trkpt lat="41.821722" lon="2.516893">
        <ele>304.126</ele>
        <time>2021-05-26T15:44:28Z</time>
      </trkpt>
      <trkpt lat="41.821744" lon="2.516904">
        <ele>304.043</ele>
        <time>2021-05-26T15:44:30Z</time>
      </trkpt>
      <trkpt lat="41.821765" lon="2.516920">
        <ele>303.897</ele>
        <time>2021-05-26T15:44:32Z</time>
      </trkpt>
      <trkpt lat="41.821789" lon="2.516933">
        <ele>303.622</ele>
        <time>2021-05-26T15:44:34Z</time>
      </trkpt>
      <trkpt lat="41.821812" lon="2.516949">
        <ele>303.572</ele>
        <time>2021-05-26T15:44:36Z</time>
      </trkpt>
      <trkpt lat="41.821834" lon="2.516972">
        <ele>303.478</ele>
        <time>2021-05-26T15:44:38Z</time>
      </trkpt>
      <trkpt lat="41.821863" lon="2.516975">
        <ele>303.323</ele>
        <time>2021-05-26T15:44:40Z</time>
      </trkpt>
      <trkpt lat="41.821891" lon="2.516967">
        <ele>303.222</ele>
        <time>2021-05-26T15:44:42Z</time>
      </trkpt>
      <trkpt lat="41.821921" lon="2.516957">
        <ele>303.162</ele>
        <time>2021-05-26T15:44:44Z</time>
      </trkpt>
      <trkpt lat="41.821945" lon="2.516947">
        <ele>303.008</ele>
        <time>2021-05-26T15:44:46Z</time>
      </trkpt>
      <trkpt lat="41.821969" lon="2.516933">
        <ele>303.108</ele>
        <time>2021-05-26T15:44:48Z</time>
      </trkpt>
      <trkpt lat="41.821994" lon="2.516919">
        <ele>303.379</ele>
        <time>2021-05-26T15:44:50Z</time>
      </trkpt>
      <trkpt lat="41.822019" lon="2.516906">
        <ele>303.436</ele>
        <time>2021-05-26T15:44:52Z</time>
      </trkpt>
      <trkpt lat="41.822044" lon="2.516888">
        <ele>303.563</ele>
        <time>2021-05-26T15:44:54Z</time>
      </trkpt>
      <trkpt lat="41.822069" lon="2.516874">
        <ele>303.667</ele>
        <time>2021-05-26T15:44:56Z</time>
      </trkpt>
      <trkpt lat="41.822092" lon="2.516862">
        <ele>303.792</ele>
        <time>2021-05-26T15:44:58Z</time>
      </trkpt>
      <trkpt lat="41.822118" lon="2.516849">
        <ele>303.852</ele>
        <time>2021-05-26T15:45:00Z</time>
      </trkpt>
      <trkpt lat="41.822145" lon="2.516831">
        <ele>303.888</ele>
        <time>2021-05-26T15:45:02Z</time>
      </trkpt>
      <trkpt lat="41.822169" lon="2.516810">
        <ele>303.943</ele>
        <time>2021-05-26T15:45:04Z</time>
      </trkpt>
      <trkpt lat="41.822193" lon="2.516790">
        <ele>304.035</ele>
        <time>2021-05-26T15:45:06Z</time>
      </trkpt>
      <trkpt lat="41.822218" lon="2.516774">
        <ele>304.086</ele>
        <time>2021-05-26T15:45:08Z</time>
      </trkpt>
      <trkpt lat="41.822242" lon="2.516758">
        <ele>304.114</ele>
        <time>2021-05-26T15:45:10Z</time>
      </trkpt>
      <trkpt lat="41.822266" lon="2.516741">
        <ele>304.308</ele>
        <time>2021-05-26T15:45:12Z</time>
      </trkpt>
      <trkpt lat="41.822287" lon="2.516724">
        <ele>304.590</ele>
        <time>2021-05-26T15:45:14Z</time>
      </trkpt>
      <trkpt lat="41.822309" lon="2.516707">
        <ele>304.647</ele>
        <time>2021-05-26T15:45:16Z</time>
      </trkpt>
      <trkpt lat="41.822331" lon="2.516690">
        <ele>304.834</ele>
        <time>2021-05-26T15:45:18Z</time>
      </trkpt>
      <trkpt lat="41.822352" lon="2.516673">
        <ele>304.928</ele>
        <time>2021-05-26T15:45:20Z</time>
      </trkpt>
      <trkpt lat="41.822373" lon="2.516654">
        <ele>305.213</ele>
        <time>2021-05-26T15:45:22Z</time>
      </trkpt>
      <trkpt lat="41.822392" lon="2.516635">
        <ele>305.513</ele>
        <time>2021-05-26T15:45:24Z</time>
      </trkpt>
      <trkpt lat="41.822412" lon="2.516618">
        <ele>305.829</ele>
        <time>2021-05-26T15:45:26Z</time>
      </trkpt>
      <trkpt lat="41.822431" lon="2.516600">
        <ele>306.074</ele>
        <time>2021-05-26T15:45:28Z</time>
      </trkpt>
      <trkpt lat="41.822453" lon="2.516584">
        <ele>306.317</ele>
        <time>2021-05-26T15:45:30Z</time>
      </trkpt>
      <trkpt lat="41.822475" lon="2.516563">
        <ele>306.687</ele>
        <time>2021-05-26T15:45:32Z</time>
      </trkpt>
      <trkpt lat="41.822493" lon="2.516538">
        <ele>306.915</ele>
        <time>2021-05-26T15:45:34Z</time>
      </trkpt>
      <trkpt lat="41.822517" lon="2.516515">
        <ele>307.208</ele>
        <time>2021-05-26T15:45:36Z</time>
      </trkpt>
      <trkpt lat="41.822535" lon="2.516488">
        <ele>307.528</ele>
        <time>2021-05-26T15:45:38Z</time>
      </trkpt>
      <trkpt lat="41.822555" lon="2.516467">
        <ele>307.835</ele>
        <time>2021-05-26T15:45:40Z</time>
      </trkpt>
      <trkpt lat="41.822575" lon="2.516447">
        <ele>308.172</ele>
        <time>2021-05-26T15:45:42Z</time>
      </trkpt>
      <trkpt lat="41.822596" lon="2.516434">
        <ele>308.416</ele>
        <time>2021-05-26T15:45:44Z</time>
      </trkpt>
      <trkpt lat="41.822617" lon="2.516429">
        <ele>308.671</ele>
        <time>2021-05-26T15:45:46Z</time>
      </trkpt>
      <trkpt lat="41.822640" lon="2.516427">
        <ele>308.751</ele>
        <time>2021-05-26T15:45:48Z</time>
      </trkpt>
      <trkpt lat="41.822663" lon="2.516426">
        <ele>308.977</ele>
        <time>2021-05-26T15:45:50Z</time>
      </trkpt>
      <trkpt lat="41.822688" lon="2.516422">
        <ele>309.162</ele>
        <time>2021-05-26T15:45:53Z</time>
      </trkpt>
      <trkpt lat="41.822717" lon="2.516421">
        <ele>309.311</ele>
        <time>2021-05-26T15:45:56Z</time>
      </trkpt>
      <trkpt lat="41.822742" lon="2.516411">
        <ele>309.621</ele>
        <time>2021-05-26T15:45:59Z</time>
      </trkpt>
      <trkpt lat="41.822765" lon="2.516411">
        <ele>309.703</ele>
        <time>2021-05-26T15:46:01Z</time>
      </trkpt>
      <trkpt lat="41.822792" lon="2.516396">
        <ele>309.908</ele>
        <time>2021-05-26T15:46:03Z</time>
      </trkpt>
      <trkpt lat="41.822820" lon="2.516378">
        <ele>310.078</ele>
        <time>2021-05-26T15:46:05Z</time>
      </trkpt>
      <trkpt lat="41.822843" lon="2.516362">
        <ele>310.175</ele>
        <time>2021-05-26T15:46:07Z</time>
      </trkpt>
      <trkpt lat="41.822870" lon="2.516346">
        <ele>310.232</ele>
        <time>2021-05-26T15:46:08Z</time>
      </trkpt>
      <trkpt lat="41.822903" lon="2.516331">
        <ele>310.336</ele>
        <time>2021-05-26T15:46:11Z</time>
      </trkpt>
      <trkpt lat="41.822932" lon="2.516318">
        <ele>310.331</ele>
        <time>2021-05-26T15:46:13Z</time>
      </trkpt>
      <trkpt lat="41.822951" lon="2.516301">
        <ele>310.431</ele>
        <time>2021-05-26T15:46:15Z</time>
      </trkpt>
      <trkpt lat="41.822968" lon="2.516284">
        <ele>310.667</ele>
        <time>2021-05-26T15:46:17Z</time>
      </trkpt>
      <trkpt lat="41.822985" lon="2.516265">
        <ele>310.782</ele>
        <time>2021-05-26T15:46:19Z</time>
      </trkpt>
      <trkpt lat="41.823001" lon="2.516248">
        <ele>310.842</ele>
        <time>2021-05-26T15:46:21Z</time>
      </trkpt>
      <trkpt lat="41.823023" lon="2.516234">
        <ele>310.922</ele>
        <time>2021-05-26T15:46:23Z</time>
      </trkpt>
      <trkpt lat="41.823049" lon="2.516219">
        <ele>310.914</ele>
        <time>2021-05-26T15:46:25Z</time>
      </trkpt>
      <trkpt lat="41.823084" lon="2.516193">
        <ele>311.108</ele>
        <time>2021-05-26T15:46:27Z</time>
      </trkpt>
      <trkpt lat="41.823101" lon="2.516176">
        <ele>311.331</ele>
        <time>2021-05-26T15:46:30Z</time>
      </trkpt>
      <trkpt lat="41.823118" lon="2.516156">
        <ele>311.618</ele>
        <time>2021-05-26T15:46:32Z</time>
      </trkpt>
      <trkpt lat="41.823129" lon="2.516129">
        <ele>311.895</ele>
        <time>2021-05-26T15:46:34Z</time>
      </trkpt>
      <trkpt lat="41.823145" lon="2.516103">
        <ele>312.149</ele>
        <time>2021-05-26T15:46:36Z</time>
      </trkpt>
      <trkpt lat="41.823163" lon="2.516082">
        <ele>312.514</ele>
        <time>2021-05-26T15:46:38Z</time>
      </trkpt>
      <trkpt lat="41.823181" lon="2.516054">
        <ele>313.074</ele>
        <time>2021-05-26T15:46:40Z</time>
      </trkpt>
      <trkpt lat="41.823198" lon="2.516030">
        <ele>313.310</ele>
        <time>2021-05-26T15:46:42Z</time>
      </trkpt>
      <trkpt lat="41.823217" lon="2.516002">
        <ele>313.795</ele>
        <time>2021-05-26T15:46:44Z</time>
      </trkpt>
      <trkpt lat="41.823237" lon="2.515978">
        <ele>313.947</ele>
        <time>2021-05-26T15:46:46Z</time>
      </trkpt>
      <trkpt lat="41.823254" lon="2.515947">
        <ele>314.329</ele>
        <time>2021-05-26T15:46:48Z</time>
      </trkpt>
      <trkpt lat="41.823265" lon="2.515914">
        <ele>314.721</ele>
        <time>2021-05-26T15:46:50Z</time>
      </trkpt>
      <trkpt lat="41.823274" lon="2.515889">
        <ele>314.908</ele>
        <time>2021-05-26T15:46:52Z</time>
      </trkpt>
      <trkpt lat="41.823285" lon="2.515862">
        <ele>315.261</ele>
        <time>2021-05-26T15:46:54Z</time>
      </trkpt>
      <trkpt lat="41.823295" lon="2.515840">
        <ele>315.368</ele>
        <time>2021-05-26T15:46:56Z</time>
      </trkpt>
      <trkpt lat="41.823313" lon="2.515810">
        <ele>315.585</ele>
        <time>2021-05-26T15:46:59Z</time>
      </trkpt>
      <trkpt lat="41.823331" lon="2.515783">
        <ele>315.629</ele>
        <time>2021-05-26T15:47:01Z</time>
      </trkpt>
      <trkpt lat="41.823345" lon="2.515758">
        <ele>315.834</ele>
        <time>2021-05-26T15:47:03Z</time>
      </trkpt>
      <trkpt lat="41.823371" lon="2.515722">
        <ele>316.174</ele>
        <time>2021-05-26T15:47:05Z</time>
      </trkpt>
      <trkpt lat="41.823391" lon="2.515698">
        <ele>316.440</ele>
        <time>2021-05-26T15:47:08Z</time>
      </trkpt>
      <trkpt lat="41.823413" lon="2.515677">
        <ele>316.555</ele>
        <time>2021-05-26T15:47:10Z</time>
      </trkpt>
      <trkpt lat="41.823434" lon="2.515657">
        <ele>316.721</ele>
        <time>2021-05-26T15:47:12Z</time>
      </trkpt>
      <trkpt lat="41.823456" lon="2.515642">
        <ele>316.841</ele>
        <time>2021-05-26T15:47:14Z</time>
      </trkpt>
      <trkpt lat="41.823479" lon="2.515626">
        <ele>316.805</ele>
        <time>2021-05-26T15:47:16Z</time>
      </trkpt>
      <trkpt lat="41.823503" lon="2.515611">
        <ele>316.908</ele>
        <time>2021-05-26T15:47:18Z</time>
      </trkpt>
      <trkpt lat="41.823529" lon="2.515595">
        <ele>317.099</ele>
        <time>2021-05-26T15:47:20Z</time>
      </trkpt>
      <trkpt lat="41.823554" lon="2.515578">
        <ele>317.066</ele>
        <time>2021-05-26T15:47:22Z</time>
      </trkpt>
      <trkpt lat="41.823575" lon="2.515560">
        <ele>317.123</ele>
        <time>2021-05-26T15:47:24Z</time>
      </trkpt>
      <trkpt lat="41.823594" lon="2.515540">
        <ele>317.247</ele>
        <time>2021-05-26T15:47:26Z</time>
      </trkpt>
      <trkpt lat="41.823608" lon="2.515521">
        <ele>317.462</ele>
        <time>2021-05-26T15:47:28Z</time>
      </trkpt>
      <trkpt lat="41.823626" lon="2.515507">
        <ele>317.632</ele>
        <time>2021-05-26T15:47:30Z</time>
      </trkpt>
      <trkpt lat="41.823649" lon="2.515486">
        <ele>317.838</ele>
        <time>2021-05-26T15:47:33Z</time>
      </trkpt>
      <trkpt lat="41.823670" lon="2.515473">
        <ele>318.013</ele>
        <time>2021-05-26T15:47:35Z</time>
      </trkpt>
      <trkpt lat="41.823689" lon="2.515457">
        <ele>318.167</ele>
        <time>2021-05-26T15:47:37Z</time>
      </trkpt>
      <trkpt lat="41.823711" lon="2.515443">
        <ele>318.381</ele>
        <time>2021-05-26T15:47:39Z</time>
      </trkpt>
      <trkpt lat="41.823732" lon="2.515427">
        <ele>318.419</ele>
        <time>2021-05-26T15:47:41Z</time>
      </trkpt>
      <trkpt lat="41.823753" lon="2.515415">
        <ele>318.508</ele>
        <time>2021-05-26T15:47:43Z</time>
      </trkpt>
      <trkpt lat="41.823770" lon="2.515402">
        <ele>318.633</ele>
        <time>2021-05-26T15:47:45Z</time>
      </trkpt>
      <trkpt lat="41.823783" lon="2.515385">
        <ele>318.790</ele>
        <time>2021-05-26T15:47:47Z</time>
      </trkpt>
      <trkpt lat="41.823798" lon="2.515370">
        <ele>318.877</ele>
        <time>2021-05-26T15:47:49Z</time>
      </trkpt>
      <trkpt lat="41.823817" lon="2.515375">
        <ele>318.781</ele>
        <time>2021-05-26T15:47:53Z</time>
      </trkpt>
      <trkpt lat="41.823819" lon="2.515409">
        <ele>318.586</ele>
        <time>2021-05-26T15:48:00Z</time>
      </trkpt>
      <trkpt lat="41.823840" lon="2.515414">
        <ele>318.576</ele>
        <time>2021-05-26T15:48:06Z</time>
      </trkpt>
      <trkpt lat="41.823859" lon="2.515418">
        <ele>318.542</ele>
        <time>2021-05-26T15:48:10Z</time>
      </trkpt>
      <trkpt lat="41.823866" lon="2.515441">
        <ele>318.477</ele>
        <time>2021-05-26T15:48:17Z</time>
      </trkpt>
      <trkpt lat="41.823885" lon="2.515446">
        <ele>318.436</ele>
        <time>2021-05-26T15:48:22Z</time>
      </trkpt>
      <trkpt lat="41.823904" lon="2.515455">
        <ele>318.317</ele>
        <time>2021-05-26T15:48:38Z</time>
      </trkpt>
      <trkpt lat="41.823921" lon="2.515468">
        <ele>318.318</ele>
        <time>2021-05-26T15:48:41Z</time>
      </trkpt>
      <trkpt lat="41.823941" lon="2.515481">
        <ele>318.208</ele>
        <time>2021-05-26T15:48:44Z</time>
      </trkpt>
      <trkpt lat="41.823960" lon="2.515493">
        <ele>318.260</ele>
        <time>2021-05-26T15:48:47Z</time>
      </trkpt>
      <trkpt lat="41.823972" lon="2.515516">
        <ele>318.157</ele>
        <time>2021-05-26T15:48:50Z</time>
      </trkpt>
      <trkpt lat="41.823992" lon="2.515537">
        <ele>318.064</ele>
        <time>2021-05-26T15:48:53Z</time>
      </trkpt>
      <trkpt lat="41.824013" lon="2.515549">
        <ele>318.038</ele>
        <time>2021-05-26T15:48:55Z</time>
      </trkpt>
      <trkpt lat="41.824034" lon="2.515556">
        <ele>318.063</ele>
        <time>2021-05-26T15:48:57Z</time>
      </trkpt>
      <trkpt lat="41.824051" lon="2.515568">
        <ele>318.053</ele>
        <time>2021-05-26T15:48:59Z</time>
      </trkpt>
      <trkpt lat="41.824072" lon="2.515585">
        <ele>318.129</ele>
        <time>2021-05-26T15:49:02Z</time>
      </trkpt>
      <trkpt lat="41.824095" lon="2.515597">
        <ele>318.244</ele>
        <time>2021-05-26T15:49:05Z</time>
      </trkpt>
      <trkpt lat="41.824120" lon="2.515609">
        <ele>318.357</ele>
        <time>2021-05-26T15:49:08Z</time>
      </trkpt>
      <trkpt lat="41.824142" lon="2.515628">
        <ele>318.500</ele>
        <time>2021-05-26T15:49:11Z</time>
      </trkpt>
      <trkpt lat="41.824162" lon="2.515652">
        <ele>318.720</ele>
        <time>2021-05-26T15:49:14Z</time>
      </trkpt>
      <trkpt lat="41.824174" lon="2.515671">
        <ele>318.908</ele>
        <time>2021-05-26T15:49:16Z</time>
      </trkpt>
      <trkpt lat="41.824186" lon="2.515690">
        <ele>319.332</ele>
        <time>2021-05-26T15:49:18Z</time>
      </trkpt>
      <trkpt lat="41.824202" lon="2.515713">
        <ele>319.789</ele>
        <time>2021-05-26T15:49:20Z</time>
      </trkpt>
      <trkpt lat="41.824221" lon="2.515727">
        <ele>320.146</ele>
        <time>2021-05-26T15:49:22Z</time>
      </trkpt>
      <trkpt lat="41.824242" lon="2.515729">
        <ele>320.570</ele>
        <time>2021-05-26T15:49:24Z</time>
      </trkpt>
      <trkpt lat="41.824263" lon="2.515724">
        <ele>320.875</ele>
        <time>2021-05-26T15:49:27Z</time>
      </trkpt>
      <trkpt lat="41.824284" lon="2.515720">
        <ele>321.145</ele>
        <time>2021-05-26T15:49:30Z</time>
      </trkpt>
      <trkpt lat="41.824300" lon="2.515732">
        <ele>321.511</ele>
        <time>2021-05-26T15:49:32Z</time>
      </trkpt>
      <trkpt lat="41.824314" lon="2.515757">
        <ele>322.036</ele>
        <time>2021-05-26T15:49:35Z</time>
      </trkpt>
      <trkpt lat="41.824334" lon="2.515752">
        <ele>322.298</ele>
        <time>2021-05-26T15:49:42Z</time>
      </trkpt>
      <trkpt lat="41.824347" lon="2.515731">
        <ele>322.315</ele>
        <time>2021-05-26T15:49:45Z</time>
      </trkpt>
      <trkpt lat="41.824365" lon="2.515712">
        <ele>322.426</ele>
        <time>2021-05-26T15:49:49Z</time>
      </trkpt>
      <trkpt lat="41.824401" lon="2.515680">
        <ele>322.608</ele>
        <time>2021-05-26T15:49:56Z</time>
      </trkpt>
      <trkpt lat="41.824422" lon="2.515675">
        <ele>322.986</ele>
        <time>2021-05-26T15:49:59Z</time>
      </trkpt>
      <trkpt lat="41.824448" lon="2.515668">
        <ele>323.333</ele>
        <time>2021-05-26T15:50:05Z</time>
      </trkpt>
      <trkpt lat="41.824468" lon="2.515659">
        <ele>323.740</ele>
        <time>2021-05-26T15:50:07Z</time>
      </trkpt>
      <trkpt lat="41.824490" lon="2.515622">
        <ele>323.724</ele>
        <time>2021-05-26T15:50:10Z</time>
      </trkpt>
      <trkpt lat="41.824496" lon="2.515595">
        <ele>323.659</ele>
        <time>2021-05-26T15:50:12Z</time>
      </trkpt>
      <trkpt lat="41.824502" lon="2.515551">
        <ele>323.219</ele>
        <time>2021-05-26T15:50:14Z</time>
      </trkpt>
      <trkpt lat="41.824505" lon="2.515521">
        <ele>323.035</ele>
        <time>2021-05-26T15:50:16Z</time>
      </trkpt>
      <trkpt lat="41.824515" lon="2.515498">
        <ele>323.010</ele>
        <time>2021-05-26T15:50:18Z</time>
      </trkpt>
      <trkpt lat="41.824533" lon="2.515478">
        <ele>323.289</ele>
        <time>2021-05-26T15:50:20Z</time>
      </trkpt>
      <trkpt lat="41.824553" lon="2.515457">
        <ele>323.406</ele>
        <time>2021-05-26T15:50:22Z</time>
      </trkpt>
      <trkpt lat="41.824568" lon="2.515432">
        <ele>323.426</ele>
        <time>2021-05-26T15:50:24Z</time>
      </trkpt>
      <trkpt lat="41.824586" lon="2.515408">
        <ele>323.508</ele>
        <time>2021-05-26T15:50:26Z</time>
      </trkpt>
      <trkpt lat="41.824607" lon="2.515386">
        <ele>323.625</ele>
        <time>2021-05-26T15:50:28Z</time>
      </trkpt>
      <trkpt lat="41.824632" lon="2.515365">
        <ele>323.822</ele>
        <time>2021-05-26T15:50:30Z</time>
      </trkpt>
      <trkpt lat="41.824657" lon="2.515347">
        <ele>323.939</ele>
        <time>2021-05-26T15:50:32Z</time>
      </trkpt>
      <trkpt lat="41.824681" lon="2.515327">
        <ele>324.133</ele>
        <time>2021-05-26T15:50:34Z</time>
      </trkpt>
      <trkpt lat="41.824703" lon="2.515308">
        <ele>324.198</ele>
        <time>2021-05-26T15:50:36Z</time>
      </trkpt>
      <trkpt lat="41.824724" lon="2.515290">
        <ele>324.218</ele>
        <time>2021-05-26T15:50:38Z</time>
      </trkpt>
      <trkpt lat="41.824739" lon="2.515270">
        <ele>324.214</ele>
        <time>2021-05-26T15:50:40Z</time>
      </trkpt>
      <trkpt lat="41.824753" lon="2.515249">
        <ele>324.369</ele>
        <time>2021-05-26T15:50:42Z</time>
      </trkpt>
      <trkpt lat="41.824771" lon="2.515229">
        <ele>324.531</ele>
        <time>2021-05-26T15:50:44Z</time>
      </trkpt>
      <trkpt lat="41.824791" lon="2.515207">
        <ele>324.661</ele>
        <time>2021-05-26T15:50:46Z</time>
      </trkpt>
      <trkpt lat="41.824811" lon="2.515190">
        <ele>324.807</ele>
        <time>2021-05-26T15:50:48Z</time>
      </trkpt>
      <trkpt lat="41.824831" lon="2.515174">
        <ele>324.908</ele>
        <time>2021-05-26T15:50:50Z</time>
      </trkpt>
      <trkpt lat="41.824851" lon="2.515156">
        <ele>325.050</ele>
        <time>2021-05-26T15:50:52Z</time>
      </trkpt>
      <trkpt lat="41.824874" lon="2.515139">
        <ele>325.237</ele>
        <time>2021-05-26T15:50:54Z</time>
      </trkpt>
      <trkpt lat="41.824895" lon="2.515120">
        <ele>325.324</ele>
        <time>2021-05-26T15:50:56Z</time>
      </trkpt>
      <trkpt lat="41.824918" lon="2.515105">
        <ele>325.458</ele>
        <time>2021-05-26T15:50:58Z</time>
      </trkpt>
      <trkpt lat="41.824940" lon="2.515086">
        <ele>325.583</ele>
        <time>2021-05-26T15:51:00Z</time>
      </trkpt>
      <trkpt lat="41.824959" lon="2.515063">
        <ele>325.453</ele>
        <time>2021-05-26T15:51:02Z</time>
      </trkpt>
      <trkpt lat="41.824974" lon="2.515035">
        <ele>325.219</ele>
        <time>2021-05-26T15:51:04Z</time>
      </trkpt>
      <trkpt lat="41.824991" lon="2.515010">
        <ele>325.034</ele>
        <time>2021-05-26T15:51:06Z</time>
      </trkpt>
      <trkpt lat="41.825009" lon="2.514986">
        <ele>324.992</ele>
        <time>2021-05-26T15:51:08Z</time>
      </trkpt>
      <trkpt lat="41.825025" lon="2.514958">
        <ele>324.773</ele>
        <time>2021-05-26T15:51:10Z</time>
      </trkpt>
      <trkpt lat="41.825040" lon="2.514931">
        <ele>324.520</ele>
        <time>2021-05-26T15:51:12Z</time>
      </trkpt>
      <trkpt lat="41.825055" lon="2.514906">
        <ele>324.408</ele>
        <time>2021-05-26T15:51:13Z</time>
      </trkpt>
      <trkpt lat="41.825070" lon="2.514879">
        <ele>324.236</ele>
        <time>2021-05-26T15:51:16Z</time>
      </trkpt>
      <trkpt lat="41.825085" lon="2.514849">
        <ele>324.043</ele>
        <time>2021-05-26T15:51:18Z</time>
      </trkpt>
      <trkpt lat="41.825099" lon="2.514821">
        <ele>323.820</ele>
        <time>2021-05-26T15:51:20Z</time>
      </trkpt>
      <trkpt lat="41.825113" lon="2.514791">
        <ele>323.664</ele>
        <time>2021-05-26T15:51:22Z</time>
      </trkpt>
      <trkpt lat="41.825133" lon="2.514770">
        <ele>323.559</ele>
        <time>2021-05-26T15:51:24Z</time>
      </trkpt>
      <trkpt lat="41.825159" lon="2.514765">
        <ele>323.669</ele>
        <time>2021-05-26T15:51:26Z</time>
      </trkpt>
      <trkpt lat="41.825183" lon="2.514767">
        <ele>323.865</ele>
        <time>2021-05-26T15:51:28Z</time>
      </trkpt>
      <trkpt lat="41.825206" lon="2.514772">
        <ele>324.060</ele>
        <time>2021-05-26T15:51:30Z</time>
      </trkpt>
      <trkpt lat="41.825224" lon="2.514778">
        <ele>324.289</ele>
        <time>2021-05-26T15:51:32Z</time>
      </trkpt>
      <trkpt lat="41.825241" lon="2.514790">
        <ele>324.506</ele>
        <time>2021-05-26T15:51:35Z</time>
      </trkpt>
      <trkpt lat="41.825254" lon="2.514808">
        <ele>324.826</ele>
        <time>2021-05-26T15:51:38Z</time>
      </trkpt>
      <trkpt lat="41.825270" lon="2.514822">
        <ele>325.008</ele>
        <time>2021-05-26T15:51:42Z</time>
      </trkpt>
      <trkpt lat="41.825280" lon="2.514847">
        <ele>325.455</ele>
        <time>2021-05-26T15:51:49Z</time>
      </trkpt>
      <trkpt lat="41.825293" lon="2.514866">
        <ele>325.882</ele>
        <time>2021-05-26T15:51:52Z</time>
      </trkpt>
      <trkpt lat="41.825316" lon="2.514881">
        <ele>326.329</ele>
        <time>2021-05-26T15:51:55Z</time>
      </trkpt>
      <trkpt lat="41.825337" lon="2.514878">
        <ele>326.613</ele>
        <time>2021-05-26T15:51:58Z</time>
      </trkpt>
      <trkpt lat="41.825360" lon="2.514886">
        <ele>327.068</ele>
        <time>2021-05-26T15:52:01Z</time>
      </trkpt>
      <trkpt lat="41.825376" lon="2.514906">
        <ele>327.568</ele>
        <time>2021-05-26T15:52:05Z</time>
      </trkpt>
      <trkpt lat="41.825393" lon="2.514921">
        <ele>328.084</ele>
        <time>2021-05-26T15:52:07Z</time>
      </trkpt>
      <trkpt lat="41.825416" lon="2.514935">
        <ele>328.669</ele>
        <time>2021-05-26T15:52:10Z</time>
      </trkpt>
      <trkpt lat="41.825433" lon="2.514952">
        <ele>329.172</ele>
        <time>2021-05-26T15:52:28Z</time>
      </trkpt>
      <trkpt lat="41.825457" lon="2.514985">
        <ele>330.013</ele>
        <time>2021-05-26T15:52:31Z</time>
      </trkpt>
      <trkpt lat="41.825468" lon="2.515010">
        <ele>330.714</ele>
        <time>2021-05-26T15:52:33Z</time>
      </trkpt>
      <trkpt lat="41.825489" lon="2.515023">
        <ele>331.308</ele>
        <time>2021-05-26T15:52:36Z</time>
      </trkpt>
      <trkpt lat="41.825506" lon="2.515035">
        <ele>331.914</ele>
        <time>2021-05-26T15:52:39Z</time>
      </trkpt>
      <trkpt lat="41.825527" lon="2.515045">
        <ele>332.671</ele>
        <time>2021-05-26T15:52:42Z</time>
      </trkpt>
      <trkpt lat="41.825546" lon="2.515058">
        <ele>333.368</ele>
        <time>2021-05-26T15:52:44Z</time>
      </trkpt>
      <trkpt lat="41.825565" lon="2.515075">
        <ele>334.242</ele>
        <time>2021-05-26T15:52:47Z</time>
      </trkpt>
      <trkpt lat="41.825583" lon="2.515094">
        <ele>335.217</ele>
        <time>2021-05-26T15:52:52Z</time>
      </trkpt>
      <trkpt lat="41.825594" lon="2.515113">
        <ele>335.997</ele>
        <time>2021-05-26T15:52:57Z</time>
      </trkpt>
      <trkpt lat="41.825611" lon="2.515128">
        <ele>336.883</ele>
        <time>2021-05-26T15:53:02Z</time>
      </trkpt>
      <trkpt lat="41.825627" lon="2.515144">
        <ele>337.558</ele>
        <time>2021-05-26T15:53:09Z</time>
      </trkpt>
      <trkpt lat="41.825644" lon="2.515159">
        <ele>338.333</ele>
        <time>2021-05-26T15:53:13Z</time>
      </trkpt>
      <trkpt lat="41.825670" lon="2.515188">
        <ele>339.523</ele>
        <time>2021-05-26T15:53:16Z</time>
      </trkpt>
      <trkpt lat="41.825684" lon="2.515204">
        <ele>340.115</ele>
        <time>2021-05-26T15:53:18Z</time>
      </trkpt>
      <trkpt lat="41.825708" lon="2.515223">
        <ele>340.908</ele>
        <time>2021-05-26T15:53:21Z</time>
      </trkpt>
      <trkpt lat="41.825726" lon="2.515236">
        <ele>341.560</ele>
        <time>2021-05-26T15:53:24Z</time>
      </trkpt>
      <trkpt lat="41.825748" lon="2.515231">
        <ele>341.977</ele>
        <time>2021-05-26T15:53:27Z</time>
      </trkpt>
      <trkpt lat="41.825767" lon="2.515222">
        <ele>342.284</ele>
        <time>2021-05-26T15:53:30Z</time>
      </trkpt>
      <trkpt lat="41.825789" lon="2.515238">
        <ele>342.888</ele>
        <time>2021-05-26T15:53:33Z</time>
      </trkpt>
      <trkpt lat="41.825797" lon="2.515261">
        <ele>343.263</ele>
        <time>2021-05-26T15:53:38Z</time>
      </trkpt>
      <trkpt lat="41.825815" lon="2.515279">
        <ele>343.743</ele>
        <time>2021-05-26T15:53:42Z</time>
      </trkpt>
      <trkpt lat="41.825850" lon="2.515288">
        <ele>344.379</ele>
        <time>2021-05-26T15:53:45Z</time>
      </trkpt>
      <trkpt lat="41.825865" lon="2.515308">
        <ele>344.764</ele>
        <time>2021-05-26T15:53:48Z</time>
      </trkpt>
      <trkpt lat="41.825890" lon="2.515322">
        <ele>345.252</ele>
        <time>2021-05-26T15:53:51Z</time>
      </trkpt>
      <trkpt lat="41.825907" lon="2.515343">
        <ele>345.653</ele>
        <time>2021-05-26T15:53:54Z</time>
      </trkpt>
      <trkpt lat="41.825998" lon="2.515363">
        <ele>346.708</ele>
        <time>2021-05-26T15:54:09Z</time>
      </trkpt>
      <trkpt lat="41.826017" lon="2.515367">
        <ele>347.008</ele>
        <time>2021-05-26T15:54:19Z</time>
      </trkpt>
      <trkpt lat="41.826031" lon="2.515391">
        <ele>347.232</ele>
        <time>2021-05-26T15:54:40Z</time>
      </trkpt>
      <trkpt lat="41.826036" lon="2.515417">
        <ele>347.349</ele>
        <time>2021-05-26T15:54:43Z</time>
      </trkpt>
      <trkpt lat="41.826080" lon="2.515533">
        <ele>347.986</ele>
        <time>2021-05-26T15:54:48Z</time>
      </trkpt>
      <trkpt lat="41.826131" lon="2.515635">
        <ele>349.430</ele>
        <time>2021-05-26T15:54:54Z</time>
      </trkpt>
      <trkpt lat="41.826135" lon="2.515665">
        <ele>349.955</ele>
        <time>2021-05-26T15:54:56Z</time>
      </trkpt>
      <trkpt lat="41.826145" lon="2.515642">
        <ele>349.595</ele>
        <time>2021-05-26T15:55:03Z</time>
      </trkpt>
      <trkpt lat="41.826155" lon="2.515620">
        <ele>349.181</ele>
        <time>2021-05-26T15:55:15Z</time>
      </trkpt>
      <trkpt lat="41.826146" lon="2.515599">
        <ele>348.766</ele>
        <time>2021-05-26T15:55:21Z</time>
      </trkpt>
      <trkpt lat="41.826126" lon="2.515583">
        <ele>348.543</ele>
        <time>2021-05-26T15:55:32Z</time>
      </trkpt>
      <trkpt lat="41.826110" lon="2.515604">
        <ele>348.964</ele>
        <time>2021-05-26T15:55:37Z</time>
      </trkpt>
      <trkpt lat="41.826116" lon="2.515632">
        <ele>349.410</ele>
        <time>2021-05-26T15:55:39Z</time>
      </trkpt>
      <trkpt lat="41.826132" lon="2.515649">
        <ele>349.608</ele>
        <time>2021-05-26T15:55:41Z</time>
      </trkpt>
      <trkpt lat="41.826149" lon="2.515667">
        <ele>349.991</ele>
        <time>2021-05-26T15:55:44Z</time>
      </trkpt>
      <trkpt lat="41.826161" lon="2.515685">
        <ele>350.278</ele>
        <time>2021-05-26T15:55:46Z</time>
      </trkpt>
      <trkpt lat="41.826182" lon="2.515695">
        <ele>350.375</ele>
        <time>2021-05-26T15:55:48Z</time>
      </trkpt>
      <trkpt lat="41.826201" lon="2.515703">
        <ele>350.399</ele>
        <time>2021-05-26T15:55:50Z</time>
      </trkpt>
      <trkpt lat="41.826220" lon="2.515715">
        <ele>350.454</ele>
        <time>2021-05-26T15:55:52Z</time>
      </trkpt>
      <trkpt lat="41.826238" lon="2.515723">
        <ele>350.514</ele>
        <time>2021-05-26T15:55:54Z</time>
      </trkpt>
      <trkpt lat="41.826255" lon="2.515739">
        <ele>350.620</ele>
        <time>2021-05-26T15:55:56Z</time>
      </trkpt>
      <trkpt lat="41.826271" lon="2.515752">
        <ele>350.735</ele>
        <time>2021-05-26T15:55:58Z</time>
      </trkpt>
      <trkpt lat="41.826290" lon="2.515762">
        <ele>350.861</ele>
        <time>2021-05-26T15:56:00Z</time>
      </trkpt>
      <trkpt lat="41.826309" lon="2.515778">
        <ele>350.921</ele>
        <time>2021-05-26T15:56:02Z</time>
      </trkpt>
      <trkpt lat="41.826330" lon="2.515795">
        <ele>351.013</ele>
        <time>2021-05-26T15:56:04Z</time>
      </trkpt>
      <trkpt lat="41.826346" lon="2.515816">
        <ele>351.108</ele>
        <time>2021-05-26T15:56:06Z</time>
      </trkpt>
      <trkpt lat="41.826360" lon="2.515841">
        <ele>351.393</ele>
        <time>2021-05-26T15:56:08Z</time>
      </trkpt>
      <trkpt lat="41.826375" lon="2.515869">
        <ele>351.690</ele>
        <time>2021-05-26T15:56:10Z</time>
      </trkpt>
      <trkpt lat="41.826385" lon="2.515897">
        <ele>352.027</ele>
        <time>2021-05-26T15:56:12Z</time>
      </trkpt>
      <trkpt lat="41.826397" lon="2.515922">
        <ele>352.381</ele>
        <time>2021-05-26T15:56:14Z</time>
      </trkpt>
      <trkpt lat="41.826403" lon="2.515946">
        <ele>352.776</ele>
        <time>2021-05-26T15:56:16Z</time>
      </trkpt>
      <trkpt lat="41.826408" lon="2.515971">
        <ele>353.146</ele>
        <time>2021-05-26T15:56:18Z</time>
      </trkpt>
      <trkpt lat="41.826413" lon="2.515998">
        <ele>353.592</ele>
        <time>2021-05-26T15:56:20Z</time>
      </trkpt>
      <trkpt lat="41.826411" lon="2.516023">
        <ele>353.867</ele>
        <time>2021-05-26T15:56:22Z</time>
      </trkpt>
      <trkpt lat="41.826410" lon="2.516048">
        <ele>354.244</ele>
        <time>2021-05-26T15:56:24Z</time>
      </trkpt>
      <trkpt lat="41.826412" lon="2.516076">
        <ele>354.605</ele>
        <time>2021-05-26T15:56:26Z</time>
      </trkpt>
      <trkpt lat="41.826416" lon="2.516102">
        <ele>355.015</ele>
        <time>2021-05-26T15:56:28Z</time>
      </trkpt>
      <trkpt lat="41.826418" lon="2.516129">
        <ele>355.408</ele>
        <time>2021-05-26T15:56:30Z</time>
      </trkpt>
      <trkpt lat="41.826423" lon="2.516156">
        <ele>355.821</ele>
        <time>2021-05-26T15:56:32Z</time>
      </trkpt>
      <trkpt lat="41.826426" lon="2.516183">
        <ele>356.278</ele>
        <time>2021-05-26T15:56:34Z</time>
      </trkpt>
      <trkpt lat="41.826430" lon="2.516210">
        <ele>356.615</ele>
        <time>2021-05-26T15:56:36Z</time>
      </trkpt>
      <trkpt lat="41.826437" lon="2.516236">
        <ele>357.089</ele>
        <time>2021-05-26T15:56:38Z</time>
      </trkpt>
      <trkpt lat="41.826445" lon="2.516266">
        <ele>357.444</ele>
        <time>2021-05-26T15:56:40Z</time>
      </trkpt>
      <trkpt lat="41.826456" lon="2.516298">
        <ele>357.944</ele>
        <time>2021-05-26T15:56:42Z</time>
      </trkpt>
      <trkpt lat="41.826469" lon="2.516323">
        <ele>358.380</ele>
        <time>2021-05-26T15:56:44Z</time>
      </trkpt>
      <trkpt lat="41.826483" lon="2.516348">
        <ele>358.835</ele>
        <time>2021-05-26T15:56:46Z</time>
      </trkpt>
      <trkpt lat="41.826500" lon="2.516371">
        <ele>359.138</ele>
        <time>2021-05-26T15:56:48Z</time>
      </trkpt>
      <trkpt lat="41.826516" lon="2.516391">
        <ele>359.570</ele>
        <time>2021-05-26T15:56:50Z</time>
      </trkpt>
      <trkpt lat="41.826530" lon="2.516411">
        <ele>359.817</ele>
        <time>2021-05-26T15:56:52Z</time>
      </trkpt>
      <trkpt lat="41.826545" lon="2.516432">
        <ele>360.108</ele>
        <time>2021-05-26T15:56:54Z</time>
      </trkpt>
      <trkpt lat="41.826560" lon="2.516457">
        <ele>360.410</ele>
        <time>2021-05-26T15:56:56Z</time>
      </trkpt>
      <trkpt lat="41.826574" lon="2.516482">
        <ele>360.717</ele>
        <time>2021-05-26T15:56:58Z</time>
      </trkpt>
      <trkpt lat="41.826589" lon="2.516503">
        <ele>360.964</ele>
        <time>2021-05-26T15:57:00Z</time>
      </trkpt>
      <trkpt lat="41.826610" lon="2.516526">
        <ele>361.198</ele>
        <time>2021-05-26T15:57:02Z</time>
      </trkpt>
      <trkpt lat="41.826626" lon="2.516548">
        <ele>361.373</ele>
        <time>2021-05-26T15:57:04Z</time>
      </trkpt>
      <trkpt lat="41.826646" lon="2.516556">
        <ele>361.333</ele>
        <time>2021-05-26T15:57:07Z</time>
      </trkpt>
      <trkpt lat="41.826670" lon="2.516552">
        <ele>361.249</ele>
        <time>2021-05-26T15:57:10Z</time>
      </trkpt>
      <trkpt lat="41.826694" lon="2.516557">
        <ele>361.664</ele>
        <time>2021-05-26T15:57:13Z</time>
      </trkpt>
      <trkpt lat="41.826716" lon="2.516563">
        <ele>362.019</ele>
        <time>2021-05-26T15:57:16Z</time>
      </trkpt>
      <trkpt lat="41.826739" lon="2.516573">
        <ele>362.409</ele>
        <time>2021-05-26T15:57:19Z</time>
      </trkpt>
      <trkpt lat="41.826755" lon="2.516596">
        <ele>362.719</ele>
        <time>2021-05-26T15:57:21Z</time>
      </trkpt>
      <trkpt lat="41.826778" lon="2.516618">
        <ele>363.108</ele>
        <time>2021-05-26T15:57:23Z</time>
      </trkpt>
      <trkpt lat="41.826792" lon="2.516658">
        <ele>363.378</ele>
        <time>2021-05-26T15:57:25Z</time>
      </trkpt>
      <trkpt lat="41.826812" lon="2.516693">
        <ele>363.835</ele>
        <time>2021-05-26T15:57:27Z</time>
      </trkpt>
      <trkpt lat="41.826831" lon="2.516720">
        <ele>364.372</ele>
        <time>2021-05-26T15:57:29Z</time>
      </trkpt>
      <trkpt lat="41.826856" lon="2.516744">
        <ele>364.726</ele>
        <time>2021-05-26T15:57:31Z</time>
      </trkpt>
      <trkpt lat="41.826878" lon="2.516766">
        <ele>365.051</ele>
        <time>2021-05-26T15:57:33Z</time>
      </trkpt>
      <trkpt lat="41.826898" lon="2.516788">
        <ele>365.291</ele>
        <time>2021-05-26T15:57:35Z</time>
      </trkpt>
      <trkpt lat="41.826915" lon="2.516816">
        <ele>365.467</ele>
        <time>2021-05-26T15:57:37Z</time>
      </trkpt>
      <trkpt lat="41.826934" lon="2.516845">
        <ele>365.652</ele>
        <time>2021-05-26T15:57:39Z</time>
      </trkpt>
      <trkpt lat="41.826951" lon="2.516873">
        <ele>365.859</ele>
        <time>2021-05-26T15:57:41Z</time>
      </trkpt>
      <trkpt lat="41.826963" lon="2.516894">
        <ele>365.903</ele>
        <time>2021-05-26T15:57:43Z</time>
      </trkpt>
      <trkpt lat="41.826976" lon="2.516919">
        <ele>366.123</ele>
        <time>2021-05-26T15:57:45Z</time>
      </trkpt>
      <trkpt lat="41.826993" lon="2.516938">
        <ele>366.208</ele>
        <time>2021-05-26T15:57:47Z</time>
      </trkpt>
      <trkpt lat="41.827010" lon="2.516956">
        <ele>366.382</ele>
        <time>2021-05-26T15:57:49Z</time>
      </trkpt>
      <trkpt lat="41.827025" lon="2.516976">
        <ele>366.669</ele>
        <time>2021-05-26T15:57:51Z</time>
      </trkpt>
      <trkpt lat="41.827038" lon="2.517004">
        <ele>366.816</ele>
        <time>2021-05-26T15:57:53Z</time>
      </trkpt>
      <trkpt lat="41.827053" lon="2.517025">
        <ele>367.070</ele>
        <time>2021-05-26T15:57:55Z</time>
      </trkpt>
      <trkpt lat="41.827069" lon="2.517044">
        <ele>367.225</ele>
        <time>2021-05-26T15:57:57Z</time>
      </trkpt>
      <trkpt lat="41.827082" lon="2.517065">
        <ele>367.425</ele>
        <time>2021-05-26T15:57:59Z</time>
      </trkpt>
      <trkpt lat="41.827094" lon="2.517085">
        <ele>367.511</ele>
        <time>2021-05-26T15:58:01Z</time>
      </trkpt>
      <trkpt lat="41.827108" lon="2.517104">
        <ele>367.636</ele>
        <time>2021-05-26T15:58:03Z</time>
      </trkpt>
      <trkpt lat="41.827121" lon="2.517127">
        <ele>367.899</ele>
        <time>2021-05-26T15:58:05Z</time>
      </trkpt>
      <trkpt lat="41.827134" lon="2.517153">
        <ele>367.907</ele>
        <time>2021-05-26T15:58:07Z</time>
      </trkpt>
      <trkpt lat="41.827154" lon="2.517170">
        <ele>368.027</ele>
        <time>2021-05-26T15:58:09Z</time>
      </trkpt>
      <trkpt lat="41.827171" lon="2.517187">
        <ele>368.008</ele>
        <time>2021-05-26T15:58:11Z</time>
      </trkpt>
      <trkpt lat="41.827184" lon="2.517209">
        <ele>368.116</ele>
        <time>2021-05-26T15:58:13Z</time>
      </trkpt>
      <trkpt lat="41.827198" lon="2.517230">
        <ele>368.273</ele>
        <time>2021-05-26T15:58:15Z</time>
      </trkpt>
      <trkpt lat="41.827208" lon="2.517253">
        <ele>368.490</ele>
        <time>2021-05-26T15:58:17Z</time>
      </trkpt>
      <trkpt lat="41.827222" lon="2.517277">
        <ele>368.684</ele>
        <time>2021-05-26T15:58:19Z</time>
      </trkpt>
      <trkpt lat="41.827235" lon="2.517297">
        <ele>368.949</ele>
        <time>2021-05-26T15:58:21Z</time>
      </trkpt>
      <trkpt lat="41.827248" lon="2.517315">
        <ele>369.289</ele>
        <time>2021-05-26T15:58:23Z</time>
      </trkpt>
      <trkpt lat="41.827250" lon="2.517341">
        <ele>369.585</ele>
        <time>2021-05-26T15:58:40Z</time>
      </trkpt>
      <trkpt lat="41.827261" lon="2.517361">
        <ele>369.730</ele>
        <time>2021-05-26T15:58:45Z</time>
      </trkpt>
      <trkpt lat="41.827275" lon="2.517378">
        <ele>369.989</ele>
        <time>2021-05-26T15:58:47Z</time>
      </trkpt>
      <trkpt lat="41.827287" lon="2.517395">
        <ele>370.106</ele>
        <time>2021-05-26T15:58:49Z</time>
      </trkpt>
      <trkpt lat="41.827302" lon="2.517416">
        <ele>370.426</ele>
        <time>2021-05-26T15:58:51Z</time>
      </trkpt>
      <trkpt lat="41.827312" lon="2.517440">
        <ele>370.608</ele>
        <time>2021-05-26T15:58:53Z</time>
      </trkpt>
      <trkpt lat="41.827323" lon="2.517462">
        <ele>370.745</ele>
        <time>2021-05-26T15:58:55Z</time>
      </trkpt>
      <trkpt lat="41.827333" lon="2.517485">
        <ele>370.912</ele>
        <time>2021-05-26T15:58:57Z</time>
      </trkpt>
      <trkpt lat="41.827343" lon="2.517517">
        <ele>371.159</ele>
        <time>2021-05-26T15:59:00Z</time>
      </trkpt>
      <trkpt lat="41.827350" lon="2.517544">
        <ele>371.353</ele>
        <time>2021-05-26T15:59:02Z</time>
      </trkpt>
      <trkpt lat="41.827359" lon="2.517570">
        <ele>371.558</ele>
        <time>2021-05-26T15:59:04Z</time>
      </trkpt>
      <trkpt lat="41.827363" lon="2.517598">
        <ele>371.758</ele>
        <time>2021-05-26T15:59:06Z</time>
      </trkpt>
      <trkpt lat="41.827367" lon="2.517631">
        <ele>371.974</ele>
        <time>2021-05-26T15:59:08Z</time>
      </trkpt>
      <trkpt lat="41.827373" lon="2.517660">
        <ele>372.189</ele>
        <time>2021-05-26T15:59:10Z</time>
      </trkpt>
      <trkpt lat="41.827377" lon="2.517688">
        <ele>372.398</ele>
        <time>2021-05-26T15:59:12Z</time>
      </trkpt>
      <trkpt lat="41.827384" lon="2.517724">
        <ele>372.515</ele>
        <time>2021-05-26T15:59:14Z</time>
      </trkpt>
      <trkpt lat="41.827389" lon="2.517762">
        <ele>372.726</ele>
        <time>2021-05-26T15:59:16Z</time>
      </trkpt>
      <trkpt lat="41.827390" lon="2.517792">
        <ele>372.908</ele>
        <time>2021-05-26T15:59:18Z</time>
      </trkpt>
      <trkpt lat="41.827385" lon="2.517820">
        <ele>373.196</ele>
        <time>2021-05-26T15:59:20Z</time>
      </trkpt>
      <trkpt lat="41.827384" lon="2.517851">
        <ele>373.333</ele>
        <time>2021-05-26T15:59:22Z</time>
      </trkpt>
      <trkpt lat="41.827384" lon="2.517884">
        <ele>373.430</ele>
        <time>2021-05-26T15:59:24Z</time>
      </trkpt>
      <trkpt lat="41.827374" lon="2.517931">
        <ele>373.814</ele>
        <time>2021-05-26T15:59:27Z</time>
      </trkpt>
      <trkpt lat="41.827365" lon="2.517966">
        <ele>374.099</ele>
        <time>2021-05-26T15:59:29Z</time>
      </trkpt>
      <trkpt lat="41.827354" lon="2.517998">
        <ele>374.299</ele>
        <time>2021-05-26T15:59:31Z</time>
      </trkpt>
      <trkpt lat="41.827340" lon="2.518032">
        <ele>374.585</ele>
        <time>2021-05-26T15:59:33Z</time>
      </trkpt>
      <trkpt lat="41.827329" lon="2.518058">
        <ele>374.610</ele>
        <time>2021-05-26T15:59:35Z</time>
      </trkpt>
      <trkpt lat="41.827315" lon="2.518075">
        <ele>374.867</ele>
        <time>2021-05-26T15:59:37Z</time>
      </trkpt>
      <trkpt lat="41.827295" lon="2.518087">
        <ele>375.081</ele>
        <time>2021-05-26T15:59:39Z</time>
      </trkpt>
      <trkpt lat="41.827278" lon="2.518105">
        <ele>375.219</ele>
        <time>2021-05-26T15:59:41Z</time>
      </trkpt>
      <trkpt lat="41.827260" lon="2.518110">
        <ele>375.308</ele>
        <time>2021-05-26T15:59:46Z</time>
      </trkpt>
      <trkpt lat="41.827236" lon="2.518121">
        <ele>375.443</ele>
        <time>2021-05-26T15:59:49Z</time>
      </trkpt>
      <trkpt lat="41.827210" lon="2.518136">
        <ele>375.810</ele>
        <time>2021-05-26T15:59:52Z</time>
      </trkpt>
      <trkpt lat="41.827184" lon="2.518148">
        <ele>376.397</ele>
        <time>2021-05-26T15:59:55Z</time>
      </trkpt>
      <trkpt lat="41.827165" lon="2.518156">
        <ele>376.741</ele>
        <time>2021-05-26T15:59:57Z</time>
      </trkpt>
      <trkpt lat="41.827145" lon="2.518161">
        <ele>377.086</ele>
        <time>2021-05-26T15:59:59Z</time>
      </trkpt>
      <trkpt lat="41.827121" lon="2.518174">
        <ele>377.596</ele>
        <time>2021-05-26T16:00:01Z</time>
      </trkpt>
      <trkpt lat="41.827106" lon="2.518190">
        <ele>377.952</ele>
        <time>2021-05-26T16:00:03Z</time>
      </trkpt>
      <trkpt lat="41.827085" lon="2.518212">
        <ele>378.377</ele>
        <time>2021-05-26T16:00:06Z</time>
      </trkpt>
      <trkpt lat="41.827068" lon="2.518230">
        <ele>378.764</ele>
        <time>2021-05-26T16:00:08Z</time>
      </trkpt>
      <trkpt lat="41.827048" lon="2.518251">
        <ele>379.106</ele>
        <time>2021-05-26T16:00:10Z</time>
      </trkpt>
      <trkpt lat="41.827032" lon="2.518281">
        <ele>379.516</ele>
        <time>2021-05-26T16:00:12Z</time>
      </trkpt>
      <trkpt lat="41.827016" lon="2.518310">
        <ele>379.908</ele>
        <time>2021-05-26T16:00:14Z</time>
      </trkpt>
      <trkpt lat="41.826999" lon="2.518335">
        <ele>380.223</ele>
        <time>2021-05-26T16:00:16Z</time>
      </trkpt>
      <trkpt lat="41.826993" lon="2.518364">
        <ele>380.560</ele>
        <time>2021-05-26T16:00:18Z</time>
      </trkpt>
      <trkpt lat="41.826982" lon="2.518389">
        <ele>380.917</ele>
        <time>2021-05-26T16:00:20Z</time>
      </trkpt>
      <trkpt lat="41.826968" lon="2.518421">
        <ele>381.341</ele>
        <time>2021-05-26T16:00:22Z</time>
      </trkpt>
      <trkpt lat="41.826952" lon="2.518449">
        <ele>381.776</ele>
        <time>2021-05-26T16:00:24Z</time>
      </trkpt>
      <trkpt lat="41.826937" lon="2.518480">
        <ele>382.256</ele>
        <time>2021-05-26T16:00:26Z</time>
      </trkpt>
      <trkpt lat="41.826923" lon="2.518514">
        <ele>382.762</ele>
        <time>2021-05-26T16:00:28Z</time>
      </trkpt>
      <trkpt lat="41.826913" lon="2.518544">
        <ele>383.267</ele>
        <time>2021-05-26T16:00:30Z</time>
      </trkpt>
      <trkpt lat="41.826903" lon="2.518586">
        <ele>383.712</ele>
        <time>2021-05-26T16:00:32Z</time>
      </trkpt>
      <trkpt lat="41.826902" lon="2.518627">
        <ele>384.032</ele>
        <time>2021-05-26T16:00:34Z</time>
      </trkpt>
      <trkpt lat="41.826893" lon="2.518661">
        <ele>384.405</ele>
        <time>2021-05-26T16:00:36Z</time>
      </trkpt>
      <trkpt lat="41.826890" lon="2.518692">
        <ele>384.608</ele>
        <time>2021-05-26T16:00:38Z</time>
      </trkpt>
      <trkpt lat="41.826890" lon="2.518727">
        <ele>384.868</ele>
        <time>2021-05-26T16:00:40Z</time>
      </trkpt>
      <trkpt lat="41.826894" lon="2.518758">
        <ele>384.895</ele>
        <time>2021-05-26T16:00:42Z</time>
      </trkpt>
      <trkpt lat="41.826894" lon="2.518795">
        <ele>385.022</ele>
        <time>2021-05-26T16:00:44Z</time>
      </trkpt>
      <trkpt lat="41.826889" lon="2.518831">
        <ele>385.316</ele>
        <time>2021-05-26T16:00:46Z</time>
      </trkpt>
      <trkpt lat="41.826884" lon="2.518865">
        <ele>385.611</ele>
        <time>2021-05-26T16:00:48Z</time>
      </trkpt>
      <trkpt lat="41.826881" lon="2.518896">
        <ele>385.881</ele>
        <time>2021-05-26T16:00:50Z</time>
      </trkpt>
      <trkpt lat="41.826877" lon="2.518926">
        <ele>385.957</ele>
        <time>2021-05-26T16:00:52Z</time>
      </trkpt>
      <trkpt lat="41.826870" lon="2.518960">
        <ele>386.052</ele>
        <time>2021-05-26T16:00:54Z</time>
      </trkpt>
      <trkpt lat="41.826863" lon="2.518994">
        <ele>386.184</ele>
        <time>2021-05-26T16:00:56Z</time>
      </trkpt>
      <trkpt lat="41.826858" lon="2.519028">
        <ele>386.207</ele>
        <time>2021-05-26T16:00:58Z</time>
      </trkpt>
      <trkpt lat="41.826850" lon="2.519061">
        <ele>386.317</ele>
        <time>2021-05-26T16:01:00Z</time>
      </trkpt>
      <trkpt lat="41.826840" lon="2.519092">
        <ele>386.508</ele>
        <time>2021-05-26T16:01:02Z</time>
      </trkpt>
      <trkpt lat="41.826829" lon="2.519123">
        <ele>386.645</ele>
        <time>2021-05-26T16:01:04Z</time>
      </trkpt>
      <trkpt lat="41.826820" lon="2.519153">
        <ele>386.792</ele>
        <time>2021-05-26T16:01:06Z</time>
      </trkpt>
      <trkpt lat="41.826809" lon="2.519184">
        <ele>386.989</ele>
        <time>2021-05-26T16:01:08Z</time>
      </trkpt>
      <trkpt lat="41.826802" lon="2.519215">
        <ele>387.143</ele>
        <time>2021-05-26T16:01:10Z</time>
      </trkpt>
      <trkpt lat="41.826794" lon="2.519245">
        <ele>387.268</ele>
        <time>2021-05-26T16:01:12Z</time>
      </trkpt>
      <trkpt lat="41.826783" lon="2.519273">
        <ele>387.488</ele>
        <time>2021-05-26T16:01:14Z</time>
      </trkpt>
      <trkpt lat="41.826771" lon="2.519302">
        <ele>387.664</ele>
        <time>2021-05-26T16:01:16Z</time>
      </trkpt>
      <trkpt lat="41.826758" lon="2.519331">
        <ele>387.819</ele>
        <time>2021-05-26T16:01:18Z</time>
      </trkpt>
      <trkpt lat="41.826744" lon="2.519358">
        <ele>388.042</ele>
        <time>2021-05-26T16:01:20Z</time>
      </trkpt>
      <trkpt lat="41.826732" lon="2.519382">
        <ele>388.222</ele>
        <time>2021-05-26T16:01:22Z</time>
      </trkpt>
      <trkpt lat="41.826718" lon="2.519406">
        <ele>388.314</ele>
        <time>2021-05-26T16:01:24Z</time>
      </trkpt>
      <trkpt lat="41.826705" lon="2.519434">
        <ele>388.508</ele>
        <time>2021-05-26T16:01:26Z</time>
      </trkpt>
      <trkpt lat="41.826693" lon="2.519467">
        <ele>388.921</ele>
        <time>2021-05-26T16:01:28Z</time>
      </trkpt>
      <trkpt lat="41.826680" lon="2.519501">
        <ele>389.458</ele>
        <time>2021-05-26T16:01:30Z</time>
      </trkpt>
      <trkpt lat="41.826668" lon="2.519536">
        <ele>390.095</ele>
        <time>2021-05-26T16:01:32Z</time>
      </trkpt>
      <trkpt lat="41.826663" lon="2.519572">
        <ele>390.569</ele>
        <time>2021-05-26T16:01:34Z</time>
      </trkpt>
      <trkpt lat="41.826666" lon="2.519608">
        <ele>390.834</ele>
        <time>2021-05-26T16:01:36Z</time>
      </trkpt>
      <trkpt lat="41.826666" lon="2.519644">
        <ele>391.274</ele>
        <time>2021-05-26T16:01:38Z</time>
      </trkpt>
      <trkpt lat="41.826669" lon="2.519675">
        <ele>391.550</ele>
        <time>2021-05-26T16:01:40Z</time>
      </trkpt>
      <trkpt lat="41.826671" lon="2.519706">
        <ele>391.875</ele>
        <time>2021-05-26T16:01:42Z</time>
      </trkpt>
      <trkpt lat="41.826675" lon="2.519738">
        <ele>392.014</ele>
        <time>2021-05-26T16:01:44Z</time>
      </trkpt>
      <trkpt lat="41.826681" lon="2.519761">
        <ele>392.154</ele>
        <time>2021-05-26T16:01:46Z</time>
      </trkpt>
      <trkpt lat="41.826685" lon="2.519787">
        <ele>392.309</ele>
        <time>2021-05-26T16:01:48Z</time>
      </trkpt>
      <trkpt lat="41.826685" lon="2.519827">
        <ele>392.608</ele>
        <time>2021-05-26T16:01:50Z</time>
      </trkpt>
      <trkpt lat="41.826687" lon="2.519863">
        <ele>392.938</ele>
        <time>2021-05-26T16:01:52Z</time>
      </trkpt>
      <trkpt lat="41.826691" lon="2.519898">
        <ele>393.145</ele>
        <time>2021-05-26T16:01:54Z</time>
      </trkpt>
      <trkpt lat="41.826693" lon="2.519934">
        <ele>393.432</ele>
        <time>2021-05-26T16:01:56Z</time>
      </trkpt>
      <trkpt lat="41.826695" lon="2.519973">
        <ele>393.796</ele>
        <time>2021-05-26T16:01:58Z</time>
      </trkpt>
      <trkpt lat="41.826700" lon="2.520005">
        <ele>393.941</ele>
        <time>2021-05-26T16:02:00Z</time>
      </trkpt>
      <trkpt lat="41.826706" lon="2.520035">
        <ele>394.251</ele>
        <time>2021-05-26T16:02:02Z</time>
      </trkpt>
      <trkpt lat="41.826712" lon="2.520065">
        <ele>394.457</ele>
        <time>2021-05-26T16:02:04Z</time>
      </trkpt>
      <trkpt lat="41.826719" lon="2.520095">
        <ele>394.772</ele>
        <time>2021-05-26T16:02:06Z</time>
      </trkpt>
      <trkpt lat="41.826723" lon="2.520133">
        <ele>395.083</ele>
        <time>2021-05-26T16:02:08Z</time>
      </trkpt>
      <trkpt lat="41.826726" lon="2.520165">
        <ele>395.425</ele>
        <time>2021-05-26T16:02:10Z</time>
      </trkpt>
      <trkpt lat="41.826728" lon="2.520201">
        <ele>395.717</ele>
        <time>2021-05-26T16:02:12Z</time>
      </trkpt>
      <trkpt lat="41.826731" lon="2.520237">
        <ele>396.108</ele>
        <time>2021-05-26T16:02:14Z</time>
      </trkpt>
      <trkpt lat="41.826733" lon="2.520271">
        <ele>396.445</ele>
        <time>2021-05-26T16:02:16Z</time>
      </trkpt>
      <trkpt lat="41.826732" lon="2.520310">
        <ele>396.992</ele>
        <time>2021-05-26T16:02:18Z</time>
      </trkpt>
      <trkpt lat="41.826732" lon="2.520347">
        <ele>397.339</ele>
        <time>2021-05-26T16:02:20Z</time>
      </trkpt>
      <trkpt lat="41.826733" lon="2.520382">
        <ele>397.833</ele>
        <time>2021-05-26T16:02:22Z</time>
      </trkpt>
      <trkpt lat="41.826734" lon="2.520415">
        <ele>398.258</ele>
        <time>2021-05-26T16:02:24Z</time>
      </trkpt>
      <trkpt lat="41.826734" lon="2.520451">
        <ele>398.778</ele>
        <time>2021-05-26T16:02:26Z</time>
      </trkpt>
      <trkpt lat="41.826737" lon="2.520480">
        <ele>399.164</ele>
        <time>2021-05-26T16:02:28Z</time>
      </trkpt>
      <trkpt lat="41.826741" lon="2.520514">
        <ele>399.569</ele>
        <time>2021-05-26T16:02:30Z</time>
      </trkpt>
      <trkpt lat="41.826742" lon="2.520542">
        <ele>399.929</ele>
        <time>2021-05-26T16:02:32Z</time>
      </trkpt>
      <trkpt lat="41.826745" lon="2.520573">
        <ele>400.300</ele>
        <time>2021-05-26T16:02:34Z</time>
      </trkpt>
      <trkpt lat="41.826748" lon="2.520604">
        <ele>400.620</ele>
        <time>2021-05-26T16:02:36Z</time>
      </trkpt>
      <trkpt lat="41.826752" lon="2.520633">
        <ele>401.008</ele>
        <time>2021-05-26T16:02:38Z</time>
      </trkpt>
      <trkpt lat="41.826757" lon="2.520666">
        <ele>401.419</ele>
        <time>2021-05-26T16:02:40Z</time>
      </trkpt>
      <trkpt lat="41.826760" lon="2.520695">
        <ele>401.766</ele>
        <time>2021-05-26T16:02:42Z</time>
      </trkpt>
      <trkpt lat="41.826763" lon="2.520722">
        <ele>402.053</ele>
        <time>2021-05-26T16:02:44Z</time>
      </trkpt>
      <trkpt lat="41.826768" lon="2.520746">
        <ele>402.357</ele>
        <time>2021-05-26T16:02:46Z</time>
      </trkpt>
      <trkpt lat="41.826771" lon="2.520772">
        <ele>402.592</ele>
        <time>2021-05-26T16:02:48Z</time>
      </trkpt>
      <trkpt lat="41.826774" lon="2.520801">
        <ele>402.922</ele>
        <time>2021-05-26T16:02:50Z</time>
      </trkpt>
      <trkpt lat="41.826778" lon="2.520832">
        <ele>403.278</ele>
        <time>2021-05-26T16:02:52Z</time>
      </trkpt>
      <trkpt lat="41.826783" lon="2.520865">
        <ele>403.473</ele>
        <time>2021-05-26T16:02:54Z</time>
      </trkpt>
      <trkpt lat="41.826789" lon="2.520891">
        <ele>403.696</ele>
        <time>2021-05-26T16:02:56Z</time>
      </trkpt>
      <trkpt lat="41.826794" lon="2.520925">
        <ele>403.931</ele>
        <time>2021-05-26T16:02:58Z</time>
      </trkpt>
      <trkpt lat="41.826796" lon="2.520959">
        <ele>404.124</ele>
        <time>2021-05-26T16:03:00Z</time>
      </trkpt>
      <trkpt lat="41.826798" lon="2.520995">
        <ele>404.308</ele>
        <time>2021-05-26T16:03:02Z</time>
      </trkpt>
      <trkpt lat="41.826801" lon="2.521029">
        <ele>404.536</ele>
        <time>2021-05-26T16:03:04Z</time>
      </trkpt>
      <trkpt lat="41.826799" lon="2.521065">
        <ele>404.713</ele>
        <time>2021-05-26T16:03:06Z</time>
      </trkpt>
      <trkpt lat="41.826796" lon="2.521103">
        <ele>404.890</ele>
        <time>2021-05-26T16:03:08Z</time>
      </trkpt>
      <trkpt lat="41.826795" lon="2.521135">
        <ele>404.634</ele>
        <time>2021-05-26T16:03:10Z</time>
      </trkpt>
      <trkpt lat="41.826798" lon="2.521167">
        <ele>404.499</ele>
        <time>2021-05-26T16:03:12Z</time>
      </trkpt>
      <trkpt lat="41.826804" lon="2.521211">
        <ele>404.199</ele>
        <time>2021-05-26T16:03:15Z</time>
      </trkpt>
      <trkpt lat="41.826812" lon="2.521242">
        <ele>403.955</ele>
        <time>2021-05-26T16:03:17Z</time>
      </trkpt>
      <trkpt lat="41.826820" lon="2.521266">
        <ele>403.870</ele>
        <time>2021-05-26T16:03:19Z</time>
      </trkpt>
      <trkpt lat="41.826832" lon="2.521288">
        <ele>403.876</ele>
        <time>2021-05-26T16:03:21Z</time>
      </trkpt>
      <trkpt lat="41.826846" lon="2.521306">
        <ele>403.990</ele>
        <time>2021-05-26T16:03:23Z</time>
      </trkpt>
      <trkpt lat="41.826861" lon="2.521323">
        <ele>404.019</ele>
        <time>2021-05-26T16:03:25Z</time>
      </trkpt>
      <trkpt lat="41.826879" lon="2.521337">
        <ele>404.208</ele>
        <time>2021-05-26T16:03:28Z</time>
      </trkpt>
      <trkpt lat="41.826901" lon="2.521361">
        <ele>404.494</ele>
        <time>2021-05-26T16:03:34Z</time>
      </trkpt>
      <trkpt lat="41.826923" lon="2.521387">
        <ele>404.641</ele>
        <time>2021-05-26T16:03:36Z</time>
      </trkpt>
      <trkpt lat="41.826945" lon="2.521411">
        <ele>404.848</ele>
        <time>2021-05-26T16:03:38Z</time>
      </trkpt>
      <trkpt lat="41.826967" lon="2.521437">
        <ele>405.112</ele>
        <time>2021-05-26T16:03:40Z</time>
      </trkpt>
      <trkpt lat="41.826987" lon="2.521456">
        <ele>405.527</ele>
        <time>2021-05-26T16:03:42Z</time>
      </trkpt>
      <trkpt lat="41.827006" lon="2.521487">
        <ele>405.867</ele>
        <time>2021-05-26T16:03:44Z</time>
      </trkpt>
      <trkpt lat="41.827029" lon="2.521519">
        <ele>406.273</ele>
        <time>2021-05-26T16:03:46Z</time>
      </trkpt>
      <trkpt lat="41.827052" lon="2.521552">
        <ele>406.638</ele>
        <time>2021-05-26T16:03:48Z</time>
      </trkpt>
      <trkpt lat="41.827068" lon="2.521585">
        <ele>406.836</ele>
        <time>2021-05-26T16:03:50Z</time>
      </trkpt>
      <trkpt lat="41.827083" lon="2.521615">
        <ele>407.017</ele>
        <time>2021-05-26T16:03:52Z</time>
      </trkpt>
      <trkpt lat="41.827097" lon="2.521645">
        <ele>407.118</ele>
        <time>2021-05-26T16:03:54Z</time>
      </trkpt>
      <trkpt lat="41.827113" lon="2.521670">
        <ele>407.408</ele>
        <time>2021-05-26T16:03:56Z</time>
      </trkpt>
      <trkpt lat="41.827128" lon="2.521697">
        <ele>407.760</ele>
        <time>2021-05-26T16:03:57Z</time>
      </trkpt>
      <trkpt lat="41.827140" lon="2.521728">
        <ele>407.897</ele>
        <time>2021-05-26T16:04:00Z</time>
      </trkpt>
      <trkpt lat="41.827149" lon="2.521762">
        <ele>407.954</ele>
        <time>2021-05-26T16:04:02Z</time>
      </trkpt>
      <trkpt lat="41.827162" lon="2.521789">
        <ele>408.148</ele>
        <time>2021-05-26T16:04:04Z</time>
      </trkpt>
      <trkpt lat="41.827177" lon="2.521822">
        <ele>408.343</ele>
        <time>2021-05-26T16:04:06Z</time>
      </trkpt>
      <trkpt lat="41.827195" lon="2.521857">
        <ele>408.773</ele>
        <time>2021-05-26T16:04:08Z</time>
      </trkpt>
      <trkpt lat="41.827210" lon="2.521889">
        <ele>409.079</ele>
        <time>2021-05-26T16:04:10Z</time>
      </trkpt>
      <trkpt lat="41.827229" lon="2.521918">
        <ele>409.464</ele>
        <time>2021-05-26T16:04:12Z</time>
      </trkpt>
      <trkpt lat="41.827250" lon="2.521940">
        <ele>410.066</ele>
        <time>2021-05-26T16:04:14Z</time>
      </trkpt>
      <trkpt lat="41.827271" lon="2.521964">
        <ele>410.529</ele>
        <time>2021-05-26T16:04:16Z</time>
      </trkpt>
      <trkpt lat="41.827289" lon="2.521990">
        <ele>410.821</ele>
        <time>2021-05-26T16:04:18Z</time>
      </trkpt>
      <trkpt lat="41.827306" lon="2.522022">
        <ele>411.008</ele>
        <time>2021-05-26T16:04:20Z</time>
      </trkpt>
      <trkpt lat="41.827324" lon="2.522055">
        <ele>411.233</ele>
        <time>2021-05-26T16:04:22Z</time>
      </trkpt>
      <trkpt lat="41.827339" lon="2.522087">
        <ele>411.470</ele>
        <time>2021-05-26T16:04:24Z</time>
      </trkpt>
      <trkpt lat="41.827350" lon="2.522118">
        <ele>411.447</ele>
        <time>2021-05-26T16:04:26Z</time>
      </trkpt>
      <trkpt lat="41.827364" lon="2.522153">
        <ele>411.571</ele>
        <time>2021-05-26T16:04:28Z</time>
      </trkpt>
      <trkpt lat="41.827375" lon="2.522188">
        <ele>411.526</ele>
        <time>2021-05-26T16:04:30Z</time>
      </trkpt>
      <trkpt lat="41.827383" lon="2.522227">
        <ele>411.376</ele>
        <time>2021-05-26T16:04:32Z</time>
      </trkpt>
      <trkpt lat="41.827389" lon="2.522268">
        <ele>410.872</ele>
        <time>2021-05-26T16:04:34Z</time>
      </trkpt>
      <trkpt lat="41.827390" lon="2.522310">
        <ele>410.237</ele>
        <time>2021-05-26T16:04:36Z</time>
      </trkpt>
      <trkpt lat="41.827393" lon="2.522349">
        <ele>409.734</ele>
        <time>2021-05-26T16:04:38Z</time>
      </trkpt>
      <trkpt lat="41.827398" lon="2.522385">
        <ele>409.255</ele>
        <time>2021-05-26T16:04:40Z</time>
      </trkpt>
      <trkpt lat="41.827401" lon="2.522426">
        <ele>408.710</ele>
        <time>2021-05-26T16:04:42Z</time>
      </trkpt>
      <trkpt lat="41.827404" lon="2.522462">
        <ele>408.208</ele>
        <time>2021-05-26T16:04:44Z</time>
      </trkpt>
      <trkpt lat="41.827410" lon="2.522501">
        <ele>407.720</ele>
        <time>2021-05-26T16:04:46Z</time>
      </trkpt>
      <trkpt lat="41.827416" lon="2.522536">
        <ele>407.497</ele>
        <time>2021-05-26T16:04:48Z</time>
      </trkpt>
      <trkpt lat="41.827425" lon="2.522570">
        <ele>407.124</ele>
        <time>2021-05-26T16:04:50Z</time>
      </trkpt>
      <trkpt lat="41.827433" lon="2.522602">
        <ele>406.868</ele>
        <time>2021-05-26T16:04:52Z</time>
      </trkpt>
      <trkpt lat="41.827443" lon="2.522637">
        <ele>406.613</ele>
        <time>2021-05-26T16:04:54Z</time>
      </trkpt>
      <trkpt lat="41.827454" lon="2.522669">
        <ele>406.473</ele>
        <time>2021-05-26T16:04:56Z</time>
      </trkpt>
      <trkpt lat="41.827461" lon="2.522707">
        <ele>406.079</ele>
        <time>2021-05-26T16:04:58Z</time>
      </trkpt>
      <trkpt lat="41.827473" lon="2.522742">
        <ele>405.854</ele>
        <time>2021-05-26T16:05:00Z</time>
      </trkpt>
      <trkpt lat="41.827483" lon="2.522774">
        <ele>405.574</ele>
        <time>2021-05-26T16:05:02Z</time>
      </trkpt>
      <trkpt lat="41.827493" lon="2.522808">
        <ele>405.356</ele>
        <time>2021-05-26T16:05:04Z</time>
      </trkpt>
      <trkpt lat="41.827508" lon="2.522843">
        <ele>405.321</ele>
        <time>2021-05-26T16:05:06Z</time>
      </trkpt>
      <trkpt lat="41.827519" lon="2.522881">
        <ele>405.008</ele>
        <time>2021-05-26T16:05:08Z</time>
      </trkpt>
      <trkpt lat="41.827525" lon="2.522906">
        <ele>404.784</ele>
        <time>2021-05-26T16:05:09Z</time>
      </trkpt>
      <trkpt lat="41.827532" lon="2.522933">
        <ele>404.581</ele>
        <time>2021-05-26T16:05:10Z</time>
      </trkpt>
      <trkpt lat="41.827539" lon="2.522960">
        <ele>404.388</ele>
        <time>2021-05-26T16:05:11Z</time>
      </trkpt>
      <trkpt lat="41.827546" lon="2.522987">
        <ele>404.072</ele>
        <time>2021-05-26T16:05:12Z</time>
      </trkpt>
      <trkpt lat="41.827553" lon="2.523017">
        <ele>403.727</ele>
        <time>2021-05-26T16:05:13Z</time>
      </trkpt>
      <trkpt lat="41.827560" lon="2.523047">
        <ele>403.417</ele>
        <time>2021-05-26T16:05:14Z</time>
      </trkpt>
      <trkpt lat="41.827569" lon="2.523076">
        <ele>403.133</ele>
        <time>2021-05-26T16:05:15Z</time>
      </trkpt>
      <trkpt lat="41.827579" lon="2.523105">
        <ele>402.828</ele>
        <time>2021-05-26T16:05:16Z</time>
      </trkpt>
      <trkpt lat="41.827589" lon="2.523135">
        <ele>402.511</ele>
        <time>2021-05-26T16:05:17Z</time>
      </trkpt>
      <trkpt lat="41.827598" lon="2.523165">
        <ele>402.121</ele>
        <time>2021-05-26T16:05:18Z</time>
      </trkpt>
      <trkpt lat="41.827606" lon="2.523196">
        <ele>401.803</ele>
        <time>2021-05-26T16:05:19Z</time>
      </trkpt>
      <trkpt lat="41.827617" lon="2.523226">
        <ele>401.508</ele>
        <time>2021-05-26T16:05:20Z</time>
      </trkpt>
      <trkpt lat="41.827629" lon="2.523255">
        <ele>401.238</ele>
        <time>2021-05-26T16:05:21Z</time>
      </trkpt>
      <trkpt lat="41.827642" lon="2.523283">
        <ele>401.035</ele>
        <time>2021-05-26T16:05:22Z</time>
      </trkpt>
      <trkpt lat="41.827656" lon="2.523308">
        <ele>400.872</ele>
        <time>2021-05-26T16:05:23Z</time>
      </trkpt>
      <trkpt lat="41.827670" lon="2.523332">
        <ele>400.756</ele>
        <time>2021-05-26T16:05:24Z</time>
      </trkpt>
      <trkpt lat="41.827685" lon="2.523355">
        <ele>400.641</ele>
        <time>2021-05-26T16:05:25Z</time>
      </trkpt>
      <trkpt lat="41.827698" lon="2.523380">
        <ele>400.491</ele>
        <time>2021-05-26T16:05:26Z</time>
      </trkpt>
      <trkpt lat="41.827712" lon="2.523402">
        <ele>400.397</ele>
        <time>2021-05-26T16:05:27Z</time>
      </trkpt>
      <trkpt lat="41.827727" lon="2.523424">
        <ele>400.352</ele>
        <time>2021-05-26T16:05:28Z</time>
      </trkpt>
      <trkpt lat="41.827742" lon="2.523446">
        <ele>400.224</ele>
        <time>2021-05-26T16:05:29Z</time>
      </trkpt>
      <trkpt lat="41.827755" lon="2.523471">
        <ele>400.004</ele>
        <time>2021-05-26T16:05:30Z</time>
      </trkpt>
      <trkpt lat="41.827766" lon="2.523499">
        <ele>399.814</ele>
        <time>2021-05-26T16:05:31Z</time>
      </trkpt>
      <trkpt lat="41.827776" lon="2.523527">
        <ele>399.508</ele>
        <time>2021-05-26T16:05:32Z</time>
      </trkpt>
      <trkpt lat="41.827783" lon="2.523558">
        <ele>399.099</ele>
        <time>2021-05-26T16:05:33Z</time>
      </trkpt>
      <trkpt lat="41.827789" lon="2.523592">
        <ele>398.386</ele>
        <time>2021-05-26T16:05:34Z</time>
      </trkpt>
      <trkpt lat="41.827799" lon="2.523622">
        <ele>397.893</ele>
        <time>2021-05-26T16:05:35Z</time>
      </trkpt>
      <trkpt lat="41.827812" lon="2.523649">
        <ele>397.367</ele>
        <time>2021-05-26T16:05:36Z</time>
      </trkpt>
      <trkpt lat="41.827825" lon="2.523675">
        <ele>396.762</ele>
        <time>2021-05-26T16:05:37Z</time>
      </trkpt>
      <trkpt lat="41.827841" lon="2.523698">
        <ele>396.252</ele>
        <time>2021-05-26T16:05:38Z</time>
      </trkpt>
      <trkpt lat="41.827861" lon="2.523716">
        <ele>395.888</ele>
        <time>2021-05-26T16:05:39Z</time>
      </trkpt>
      <trkpt lat="41.827884" lon="2.523725">
        <ele>395.543</ele>
        <time>2021-05-26T16:05:40Z</time>
      </trkpt>
      <trkpt lat="41.827904" lon="2.523728">
        <ele>395.328</ele>
        <time>2021-05-26T16:05:41Z</time>
      </trkpt>
      <trkpt lat="41.827922" lon="2.523720">
        <ele>395.489</ele>
        <time>2021-05-26T16:05:42Z</time>
      </trkpt>
      <trkpt lat="41.827938" lon="2.523703">
        <ele>395.817</ele>
        <time>2021-05-26T16:05:43Z</time>
      </trkpt>
      <trkpt lat="41.827951" lon="2.523680">
        <ele>396.308</ele>
        <time>2021-05-26T16:05:44Z</time>
      </trkpt>
      <trkpt lat="41.827962" lon="2.523655">
        <ele>396.919</ele>
        <time>2021-05-26T16:05:45Z</time>
      </trkpt>
      <trkpt lat="41.827972" lon="2.523628">
        <ele>397.696</ele>
        <time>2021-05-26T16:05:46Z</time>
      </trkpt>
      <trkpt lat="41.827984" lon="2.523601">
        <ele>398.223</ele>
        <time>2021-05-26T16:05:47Z</time>
      </trkpt>
      <trkpt lat="41.827997" lon="2.523577">
        <ele>398.557</ele>
        <time>2021-05-26T16:05:48Z</time>
      </trkpt>
      <trkpt lat="41.828010" lon="2.523552">
        <ele>398.932</ele>
        <time>2021-05-26T16:05:49Z</time>
      </trkpt>
      <trkpt lat="41.828021" lon="2.523527">
        <ele>399.262</ele>
        <time>2021-05-26T16:05:50Z</time>
      </trkpt>
      <trkpt lat="41.828031" lon="2.523504">
        <ele>399.658</ele>
        <time>2021-05-26T16:05:51Z</time>
      </trkpt>
      <trkpt lat="41.828042" lon="2.523480">
        <ele>399.933</ele>
        <time>2021-05-26T16:05:52Z</time>
      </trkpt>
      <trkpt lat="41.828051" lon="2.523456">
        <ele>400.215</ele>
        <time>2021-05-26T16:05:53Z</time>
      </trkpt>
      <trkpt lat="41.828059" lon="2.523432">
        <ele>400.465</ele>
        <time>2021-05-26T16:05:54Z</time>
      </trkpt>
      <trkpt lat="41.828071" lon="2.523409">
        <ele>400.311</ele>
        <time>2021-05-26T16:05:55Z</time>
      </trkpt>
      <trkpt lat="41.828084" lon="2.523386">
        <ele>400.108</ele>
        <time>2021-05-26T16:05:56Z</time>
      </trkpt>
      <trkpt lat="41.828094" lon="2.523364">
        <ele>400.178</ele>
        <time>2021-05-26T16:05:57Z</time>
      </trkpt>
      <trkpt lat="41.828109" lon="2.523344">
        <ele>399.975</ele>
        <time>2021-05-26T16:05:58Z</time>
      </trkpt>
      <trkpt lat="41.828122" lon="2.523324">
        <ele>399.912</ele>
        <time>2021-05-26T16:05:59Z</time>
      </trkpt>
      <trkpt lat="41.828134" lon="2.523305">
        <ele>399.916</ele>
        <time>2021-05-26T16:06:00Z</time>
      </trkpt>
      <trkpt lat="41.828141" lon="2.523283">
        <ele>400.231</ele>
        <time>2021-05-26T16:06:01Z</time>
      </trkpt>
      <trkpt lat="41.828155" lon="2.523261">
        <ele>400.351</ele>
        <time>2021-05-26T16:06:02Z</time>
      </trkpt>
      <trkpt lat="41.828170" lon="2.523241">
        <ele>400.327</ele>
        <time>2021-05-26T16:06:03Z</time>
      </trkpt>
      <trkpt lat="41.828185" lon="2.523223">
        <ele>400.362</ele>
        <time>2021-05-26T16:06:04Z</time>
      </trkpt>
      <trkpt lat="41.828204" lon="2.523204">
        <ele>400.252</ele>
        <time>2021-05-26T16:06:05Z</time>
      </trkpt>
      <trkpt lat="41.828229" lon="2.523186">
        <ele>399.853</ele>
        <time>2021-05-26T16:06:06Z</time>
      </trkpt>
      <trkpt lat="41.828250" lon="2.523166">
        <ele>399.608</ele>
        <time>2021-05-26T16:06:07Z</time>
      </trkpt>
      <trkpt lat="41.828269" lon="2.523145">
        <ele>399.608</ele>
        <time>2021-05-26T16:06:08Z</time>
      </trkpt>
      <trkpt lat="41.828285" lon="2.523124">
        <ele>399.622</ele>
        <time>2021-05-26T16:06:09Z</time>
      </trkpt>
      <trkpt lat="41.828305" lon="2.523104">
        <ele>399.589</ele>
        <time>2021-05-26T16:06:10Z</time>
      </trkpt>
      <trkpt lat="41.828328" lon="2.523083">
        <ele>399.476</ele>
        <time>2021-05-26T16:06:11Z</time>
      </trkpt>
      <trkpt lat="41.828346" lon="2.523064">
        <ele>399.310</ele>
        <time>2021-05-26T16:06:12Z</time>
      </trkpt>
      <trkpt lat="41.828360" lon="2.523044">
        <ele>399.365</ele>
        <time>2021-05-26T16:06:13Z</time>
      </trkpt>
      <trkpt lat="41.828376" lon="2.523030">
        <ele>399.125</ele>
        <time>2021-05-26T16:06:14Z</time>
      </trkpt>
      <trkpt lat="41.828406" lon="2.523009">
        <ele>398.641</ele>
        <time>2021-05-26T16:06:16Z</time>
      </trkpt>
      <trkpt lat="41.828431" lon="2.523003">
        <ele>397.886</ele>
        <time>2021-05-26T16:06:17Z</time>
      </trkpt>
      <trkpt lat="41.828455" lon="2.522999">
        <ele>397.058</ele>
        <time>2021-05-26T16:06:18Z</time>
      </trkpt>
      <trkpt lat="41.828487" lon="2.522997">
        <ele>395.952</ele>
        <time>2021-05-26T16:06:19Z</time>
      </trkpt>
      <trkpt lat="41.828511" lon="2.522992">
        <ele>395.217</ele>
        <time>2021-05-26T16:06:20Z</time>
      </trkpt>
      <trkpt lat="41.828533" lon="2.522989">
        <ele>394.508</ele>
        <time>2021-05-26T16:06:21Z</time>
      </trkpt>
      <trkpt lat="41.828553" lon="2.522985">
        <ele>393.972</ele>
        <time>2021-05-26T16:06:22Z</time>
      </trkpt>
      <trkpt lat="41.828588" lon="2.522979">
        <ele>392.869</ele>
        <time>2021-05-26T16:06:24Z</time>
      </trkpt>
      <trkpt lat="41.828621" lon="2.522976">
        <ele>391.786</ele>
        <time>2021-05-26T16:06:26Z</time>
      </trkpt>
      <trkpt lat="41.828651" lon="2.522971">
        <ele>390.990</ele>
        <time>2021-05-26T16:06:28Z</time>
      </trkpt>
      <trkpt lat="41.828677" lon="2.522953">
        <ele>390.595</ele>
        <time>2021-05-26T16:06:30Z</time>
      </trkpt>
      <trkpt lat="41.828697" lon="2.522924">
        <ele>390.525</ele>
        <time>2021-05-26T16:06:32Z</time>
      </trkpt>
      <trkpt lat="41.828716" lon="2.522894">
        <ele>390.671</ele>
        <time>2021-05-26T16:06:34Z</time>
      </trkpt>
      <trkpt lat="41.828731" lon="2.522858">
        <ele>390.916</ele>
        <time>2021-05-26T16:06:36Z</time>
      </trkpt>
      <trkpt lat="41.828744" lon="2.522819">
        <ele>391.367</ele>
        <time>2021-05-26T16:06:38Z</time>
      </trkpt>
      <trkpt lat="41.828759" lon="2.522782">
        <ele>391.681</ele>
        <time>2021-05-26T16:06:40Z</time>
      </trkpt>
      <trkpt lat="41.828773" lon="2.522747">
        <ele>391.619</ele>
        <time>2021-05-26T16:06:42Z</time>
      </trkpt>
      <trkpt lat="41.828776" lon="2.522711">
        <ele>392.108</ele>
        <time>2021-05-26T16:06:44Z</time>
      </trkpt>
      <trkpt lat="41.828782" lon="2.522673">
        <ele>392.443</ele>
        <time>2021-05-26T16:06:46Z</time>
      </trkpt>
      <trkpt lat="41.828803" lon="2.522625">
        <ele>392.310</ele>
        <time>2021-05-26T16:06:49Z</time>
      </trkpt>
      <trkpt lat="41.828827" lon="2.522590">
        <ele>391.787</ele>
        <time>2021-05-26T16:06:51Z</time>
      </trkpt>
      <trkpt lat="41.828841" lon="2.522572">
        <ele>391.371</ele>
        <time>2021-05-26T16:06:52Z</time>
      </trkpt>
      <trkpt lat="41.828870" lon="2.522541">
        <ele>390.476</ele>
        <time>2021-05-26T16:06:54Z</time>
      </trkpt>
      <trkpt lat="41.828882" lon="2.522523">
        <ele>390.126</ele>
        <time>2021-05-26T16:06:55Z</time>
      </trkpt>
      <trkpt lat="41.828906" lon="2.522493">
        <ele>389.632</ele>
        <time>2021-05-26T16:06:57Z</time>
      </trkpt>
      <trkpt lat="41.828927" lon="2.522465">
        <ele>389.357</ele>
        <time>2021-05-26T16:06:59Z</time>
      </trkpt>
      <trkpt lat="41.828950" lon="2.522439">
        <ele>388.994</ele>
        <time>2021-05-26T16:07:01Z</time>
      </trkpt>
      <trkpt lat="41.828972" lon="2.522416">
        <ele>388.557</ele>
        <time>2021-05-26T16:07:03Z</time>
      </trkpt>
      <trkpt lat="41.829004" lon="2.522404">
        <ele>387.722</ele>
        <time>2021-05-26T16:07:05Z</time>
      </trkpt>
      <trkpt lat="41.829023" lon="2.522400">
        <ele>387.208</ele>
        <time>2021-05-26T16:07:06Z</time>
      </trkpt>
      <trkpt lat="41.829042" lon="2.522396">
        <ele>386.756</ele>
        <time>2021-05-26T16:07:07Z</time>
      </trkpt>
      <trkpt lat="41.829075" lon="2.522394">
        <ele>385.853</ele>
        <time>2021-05-26T16:07:09Z</time>
      </trkpt>
      <trkpt lat="41.829105" lon="2.522397">
        <ele>384.960</ele>
        <time>2021-05-26T16:07:11Z</time>
      </trkpt>
      <trkpt lat="41.829124" lon="2.522397">
        <ele>384.364</ele>
        <time>2021-05-26T16:07:12Z</time>
      </trkpt>
      <trkpt lat="41.829156" lon="2.522401">
        <ele>383.449</ele>
        <time>2021-05-26T16:07:14Z</time>
      </trkpt>
      <trkpt lat="41.829190" lon="2.522392">
        <ele>382.959</ele>
        <time>2021-05-26T16:07:16Z</time>
      </trkpt>
      <trkpt lat="41.829220" lon="2.522376">
        <ele>382.765</ele>
        <time>2021-05-26T16:07:18Z</time>
      </trkpt>
      <trkpt lat="41.829251" lon="2.522354">
        <ele>382.590</ele>
        <time>2021-05-26T16:07:20Z</time>
      </trkpt>
      <trkpt lat="41.829266" lon="2.522339">
        <ele>382.556</ele>
        <time>2021-05-26T16:07:21Z</time>
      </trkpt>
      <trkpt lat="41.829293" lon="2.522314">
        <ele>382.359</ele>
        <time>2021-05-26T16:07:23Z</time>
      </trkpt>
      <trkpt lat="41.829319" lon="2.522296">
        <ele>382.214</ele>
        <time>2021-05-26T16:07:25Z</time>
      </trkpt>
      <trkpt lat="41.829345" lon="2.522275">
        <ele>382.008</ele>
        <time>2021-05-26T16:07:27Z</time>
      </trkpt>
      <trkpt lat="41.829373" lon="2.522254">
        <ele>381.822</ele>
        <time>2021-05-26T16:07:29Z</time>
      </trkpt>
      <trkpt lat="41.829396" lon="2.522235">
        <ele>381.629</ele>
        <time>2021-05-26T16:07:31Z</time>
      </trkpt>
      <trkpt lat="41.829412" lon="2.522208">
        <ele>381.496</ele>
        <time>2021-05-26T16:07:33Z</time>
      </trkpt>
      <trkpt lat="41.829429" lon="2.522179">
        <ele>380.940</ele>
        <time>2021-05-26T16:07:35Z</time>
      </trkpt>
      <trkpt lat="41.829441" lon="2.522143">
        <ele>380.515</ele>
        <time>2021-05-26T16:07:37Z</time>
      </trkpt>
      <trkpt lat="41.829448" lon="2.522100">
        <ele>380.145</ele>
        <time>2021-05-26T16:07:39Z</time>
      </trkpt>
      <trkpt lat="41.829446" lon="2.522063">
        <ele>379.881</ele>
        <time>2021-05-26T16:07:41Z</time>
      </trkpt>
      <trkpt lat="41.829434" lon="2.522027">
        <ele>379.876</ele>
        <time>2021-05-26T16:07:43Z</time>
      </trkpt>
      <trkpt lat="41.829421" lon="2.521992">
        <ele>379.879</ele>
        <time>2021-05-26T16:07:45Z</time>
      </trkpt>
      <trkpt lat="41.829415" lon="2.521969">
        <ele>379.805</ele>
        <time>2021-05-26T16:07:46Z</time>
      </trkpt>
      <trkpt lat="41.829408" lon="2.521931">
        <ele>379.725</ele>
        <time>2021-05-26T16:07:48Z</time>
      </trkpt>
      <trkpt lat="41.829429" lon="2.521919">
        <ele>379.208</ele>
        <time>2021-05-26T16:07:51Z</time>
      </trkpt>
      <trkpt lat="41.829447" lon="2.521912">
        <ele>378.714</ele>
        <time>2021-05-26T16:07:53Z</time>
      </trkpt>
      <trkpt lat="41.829473" lon="2.521901">
        <ele>378.491</ele>
        <time>2021-05-26T16:07:55Z</time>
      </trkpt>
      <trkpt lat="41.829491" lon="2.521890">
        <ele>378.118</ele>
        <time>2021-05-26T16:07:57Z</time>
      </trkpt>
      <trkpt lat="41.829519" lon="2.521883">
        <ele>377.732</ele>
        <time>2021-05-26T16:07:59Z</time>
      </trkpt>
      <trkpt lat="41.829542" lon="2.521877">
        <ele>377.447</ele>
        <time>2021-05-26T16:08:01Z</time>
      </trkpt>
      <trkpt lat="41.829567" lon="2.521855">
        <ele>376.997</ele>
        <time>2021-05-26T16:08:03Z</time>
      </trkpt>
      <trkpt lat="41.829585" lon="2.521836">
        <ele>376.593</ele>
        <time>2021-05-26T16:08:05Z</time>
      </trkpt>
      <trkpt lat="41.829611" lon="2.521832">
        <ele>376.118</ele>
        <time>2021-05-26T16:08:07Z</time>
      </trkpt>
      <trkpt lat="41.829635" lon="2.521831">
        <ele>375.872</ele>
        <time>2021-05-26T16:08:09Z</time>
      </trkpt>
      <trkpt lat="41.829657" lon="2.521826">
        <ele>375.513</ele>
        <time>2021-05-26T16:08:11Z</time>
      </trkpt>
      <trkpt lat="41.829679" lon="2.521825">
        <ele>375.214</ele>
        <time>2021-05-26T16:08:13Z</time>
      </trkpt>
      <trkpt lat="41.829706" lon="2.521836">
        <ele>375.008</ele>
        <time>2021-05-26T16:08:15Z</time>
      </trkpt>
      <trkpt lat="41.829732" lon="2.521846">
        <ele>374.714</ele>
        <time>2021-05-26T16:08:17Z</time>
      </trkpt>
      <trkpt lat="41.829757" lon="2.521850">
        <ele>374.111</ele>
        <time>2021-05-26T16:08:19Z</time>
      </trkpt>
      <trkpt lat="41.829783" lon="2.521859">
        <ele>373.638</ele>
        <time>2021-05-26T16:08:21Z</time>
      </trkpt>
      <trkpt lat="41.829801" lon="2.521865">
        <ele>373.252</ele>
        <time>2021-05-26T16:08:22Z</time>
      </trkpt>
      <trkpt lat="41.829828" lon="2.521871">
        <ele>372.637</ele>
        <time>2021-05-26T16:08:24Z</time>
      </trkpt>
      <trkpt lat="41.829848" lon="2.521886">
        <ele>372.377</ele>
        <time>2021-05-26T16:08:26Z</time>
      </trkpt>
      <trkpt lat="41.829875" lon="2.521902">
        <ele>371.873</ele>
        <time>2021-05-26T16:08:28Z</time>
      </trkpt>
      <trkpt lat="41.829895" lon="2.521928">
        <ele>371.538</ele>
        <time>2021-05-26T16:08:30Z</time>
      </trkpt>
      <trkpt lat="41.829914" lon="2.521954">
        <ele>371.286</ele>
        <time>2021-05-26T16:08:32Z</time>
      </trkpt>
      <trkpt lat="41.829933" lon="2.521956">
        <ele>370.760</ele>
        <time>2021-05-26T16:08:34Z</time>
      </trkpt>
      <trkpt lat="41.829951" lon="2.521925">
        <ele>370.126</ele>
        <time>2021-05-26T16:08:36Z</time>
      </trkpt>
      <trkpt lat="41.829958" lon="2.521886">
        <ele>369.608</ele>
        <time>2021-05-26T16:08:38Z</time>
      </trkpt>
      <trkpt lat="41.829967" lon="2.521859">
        <ele>369.215</ele>
        <time>2021-05-26T16:08:40Z</time>
      </trkpt>
      <trkpt lat="41.829988" lon="2.521851">
        <ele>368.642</ele>
        <time>2021-05-26T16:08:42Z</time>
      </trkpt>
      <trkpt lat="41.830007" lon="2.521862">
        <ele>368.269</ele>
        <time>2021-05-26T16:08:44Z</time>
      </trkpt>
      <trkpt lat="41.830023" lon="2.521876">
        <ele>367.973</ele>
        <time>2021-05-26T16:08:46Z</time>
      </trkpt>
      <trkpt lat="41.830043" lon="2.521896">
        <ele>367.458</ele>
        <time>2021-05-26T16:08:47Z</time>
      </trkpt>
      <trkpt lat="41.830058" lon="2.521911">
        <ele>367.168</ele>
        <time>2021-05-26T16:08:48Z</time>
      </trkpt>
      <trkpt lat="41.830079" lon="2.521938">
        <ele>366.474</ele>
        <time>2021-05-26T16:08:50Z</time>
      </trkpt>
      <trkpt lat="41.830099" lon="2.521968">
        <ele>365.739</ele>
        <time>2021-05-26T16:08:52Z</time>
      </trkpt>
      <trkpt lat="41.830113" lon="2.521998">
        <ele>365.146</ele>
        <time>2021-05-26T16:08:54Z</time>
      </trkpt>
      <trkpt lat="41.830121" lon="2.522021">
        <ele>364.888</ele>
        <time>2021-05-26T16:08:56Z</time>
      </trkpt>
      <trkpt lat="41.830135" lon="2.522048">
        <ele>364.116</ele>
        <time>2021-05-26T16:08:58Z</time>
      </trkpt>
      <trkpt lat="41.830151" lon="2.522070">
        <ele>363.308</ele>
        <time>2021-05-26T16:09:00Z</time>
      </trkpt>
      <trkpt lat="41.830166" lon="2.522093">
        <ele>362.651</ele>
        <time>2021-05-26T16:09:02Z</time>
      </trkpt>
      <trkpt lat="41.830175" lon="2.522123">
        <ele>361.928</ele>
        <time>2021-05-26T16:09:04Z</time>
      </trkpt>
      <trkpt lat="41.830191" lon="2.522151">
        <ele>361.095</ele>
        <time>2021-05-26T16:09:06Z</time>
      </trkpt>
      <trkpt lat="41.830200" lon="2.522177">
        <ele>360.349</ele>
        <time>2021-05-26T16:09:08Z</time>
      </trkpt>
      <trkpt lat="41.830203" lon="2.522208">
        <ele>359.994</ele>
        <time>2021-05-26T16:09:10Z</time>
      </trkpt>
      <trkpt lat="41.830208" lon="2.522241">
        <ele>359.414</ele>
        <time>2021-05-26T16:09:12Z</time>
      </trkpt>
      <trkpt lat="41.830213" lon="2.522269">
        <ele>358.950</ele>
        <time>2021-05-26T16:09:14Z</time>
      </trkpt>
      <trkpt lat="41.830220" lon="2.522293">
        <ele>358.455</ele>
        <time>2021-05-26T16:09:16Z</time>
      </trkpt>
      <trkpt lat="41.830220" lon="2.522330">
        <ele>358.165</ele>
        <time>2021-05-26T16:09:18Z</time>
      </trkpt>
      <trkpt lat="41.830223" lon="2.522359">
        <ele>357.868</ele>
        <time>2021-05-26T16:09:20Z</time>
      </trkpt>
      <trkpt lat="41.830228" lon="2.522404">
        <ele>357.214</ele>
        <time>2021-05-26T16:09:22Z</time>
      </trkpt>
      <trkpt lat="41.830239" lon="2.522441">
        <ele>356.408</ele>
        <time>2021-05-26T16:09:24Z</time>
      </trkpt>
      <trkpt lat="41.830248" lon="2.522473">
        <ele>355.743</ele>
        <time>2021-05-26T16:09:26Z</time>
      </trkpt>
      <trkpt lat="41.830258" lon="2.522500">
        <ele>355.040</ele>
        <time>2021-05-26T16:09:28Z</time>
      </trkpt>
      <trkpt lat="41.830263" lon="2.522530">
        <ele>354.217</ele>
        <time>2021-05-26T16:09:30Z</time>
      </trkpt>
      <trkpt lat="41.830270" lon="2.522558">
        <ele>353.391</ele>
        <time>2021-05-26T16:09:32Z</time>
      </trkpt>
      <trkpt lat="41.830274" lon="2.522586">
        <ele>352.656</ele>
        <time>2021-05-26T16:09:34Z</time>
      </trkpt>
      <trkpt lat="41.830279" lon="2.522626">
        <ele>351.756</ele>
        <time>2021-05-26T16:09:36Z</time>
      </trkpt>
      <trkpt lat="41.830288" lon="2.522669">
        <ele>350.882</ele>
        <time>2021-05-26T16:09:38Z</time>
      </trkpt>
      <trkpt lat="41.830304" lon="2.522697">
        <ele>350.047</ele>
        <time>2021-05-26T16:09:40Z</time>
      </trkpt>
      <trkpt lat="41.830329" lon="2.522696">
        <ele>349.624</ele>
        <time>2021-05-26T16:09:42Z</time>
      </trkpt>
      <trkpt lat="41.830357" lon="2.522695">
        <ele>349.104</ele>
        <time>2021-05-26T16:09:44Z</time>
      </trkpt>
      <trkpt lat="41.830373" lon="2.522717">
        <ele>348.514</ele>
        <time>2021-05-26T16:09:46Z</time>
      </trkpt>
      <trkpt lat="41.830392" lon="2.522737">
        <ele>347.708</ele>
        <time>2021-05-26T16:09:48Z</time>
      </trkpt>
      <trkpt lat="41.830417" lon="2.522738">
        <ele>347.389</ele>
        <time>2021-05-26T16:09:50Z</time>
      </trkpt>
      <trkpt lat="41.830448" lon="2.522733">
        <ele>346.866</ele>
        <time>2021-05-26T16:09:52Z</time>
      </trkpt>
      <trkpt lat="41.830479" lon="2.522728">
        <ele>346.493</ele>
        <time>2021-05-26T16:09:54Z</time>
      </trkpt>
      <trkpt lat="41.830505" lon="2.522728">
        <ele>346.067</ele>
        <time>2021-05-26T16:09:56Z</time>
      </trkpt>
      <trkpt lat="41.830536" lon="2.522728">
        <ele>345.492</ele>
        <time>2021-05-26T16:09:58Z</time>
      </trkpt>
      <trkpt lat="41.830564" lon="2.522726">
        <ele>345.112</ele>
        <time>2021-05-26T16:10:00Z</time>
      </trkpt>
      <trkpt lat="41.830601" lon="2.522725">
        <ele>345.368</ele>
        <time>2021-05-26T16:10:02Z</time>
      </trkpt>
      <trkpt lat="41.830634" lon="2.522724">
        <ele>345.473</ele>
        <time>2021-05-26T16:10:04Z</time>
      </trkpt>
      <trkpt lat="41.830667" lon="2.522725">
        <ele>345.528</ele>
        <time>2021-05-26T16:10:06Z</time>
      </trkpt>
      <trkpt lat="41.830697" lon="2.522720">
        <ele>345.889</ele>
        <time>2021-05-26T16:10:08Z</time>
      </trkpt>
      <trkpt lat="41.830723" lon="2.522716">
        <ele>345.917</ele>
        <time>2021-05-26T16:10:10Z</time>
      </trkpt>
      <trkpt lat="41.830749" lon="2.522710">
        <ele>346.208</ele>
        <time>2021-05-26T16:10:12Z</time>
      </trkpt>
      <trkpt lat="41.830773" lon="2.522710">
        <ele>346.279</ele>
        <time>2021-05-26T16:10:14Z</time>
      </trkpt>
      <trkpt lat="41.830800" lon="2.522715">
        <ele>346.246</ele>
        <time>2021-05-26T16:10:16Z</time>
      </trkpt>
      <trkpt lat="41.830826" lon="2.522721">
        <ele>346.273</ele>
        <time>2021-05-26T16:10:18Z</time>
      </trkpt>
      <trkpt lat="41.830850" lon="2.522733">
        <ele>346.057</ele>
        <time>2021-05-26T16:10:20Z</time>
      </trkpt>
      <trkpt lat="41.830875" lon="2.522746">
        <ele>345.962</ele>
        <time>2021-05-26T16:10:22Z</time>
      </trkpt>
      <trkpt lat="41.830899" lon="2.522755">
        <ele>345.732</ele>
        <time>2021-05-26T16:10:24Z</time>
      </trkpt>
      <trkpt lat="41.830920" lon="2.522764">
        <ele>345.638</ele>
        <time>2021-05-26T16:10:26Z</time>
      </trkpt>
      <trkpt lat="41.830946" lon="2.522778">
        <ele>345.493</ele>
        <time>2021-05-26T16:10:28Z</time>
      </trkpt>
      <trkpt lat="41.830975" lon="2.522790">
        <ele>345.312</ele>
        <time>2021-05-26T16:10:30Z</time>
      </trkpt>
      <trkpt lat="41.831002" lon="2.522799">
        <ele>345.232</ele>
        <time>2021-05-26T16:10:32Z</time>
      </trkpt>
      <trkpt lat="41.831029" lon="2.522801">
        <ele>345.305</ele>
        <time>2021-05-26T16:10:34Z</time>
      </trkpt>
      <trkpt lat="41.831061" lon="2.522797">
        <ele>345.508</ele>
        <time>2021-05-26T16:10:36Z</time>
      </trkpt>
      <trkpt lat="41.831090" lon="2.522794">
        <ele>345.668</ele>
        <time>2021-05-26T16:10:38Z</time>
      </trkpt>
      <trkpt lat="41.831116" lon="2.522789">
        <ele>345.895</ele>
        <time>2021-05-26T16:10:40Z</time>
      </trkpt>
      <trkpt lat="41.831144" lon="2.522781">
        <ele>345.972</ele>
        <time>2021-05-26T16:10:42Z</time>
      </trkpt>
      <trkpt lat="41.831171" lon="2.522768">
        <ele>346.386</ele>
        <time>2021-05-26T16:10:44Z</time>
      </trkpt>
      <trkpt lat="41.831196" lon="2.522759">
        <ele>346.531</ele>
        <time>2021-05-26T16:10:46Z</time>
      </trkpt>
      <trkpt lat="41.831218" lon="2.522748">
        <ele>346.821</ele>
        <time>2021-05-26T16:10:48Z</time>
      </trkpt>
      <trkpt lat="41.831238" lon="2.522732">
        <ele>347.277</ele>
        <time>2021-05-26T16:10:50Z</time>
      </trkpt>
      <trkpt lat="41.831257" lon="2.522714">
        <ele>347.752</ele>
        <time>2021-05-26T16:10:52Z</time>
      </trkpt>
      <trkpt lat="41.831273" lon="2.522696">
        <ele>348.239</ele>
        <time>2021-05-26T16:10:54Z</time>
      </trkpt>
      <trkpt lat="41.831294" lon="2.522676">
        <ele>348.801</ele>
        <time>2021-05-26T16:10:56Z</time>
      </trkpt>
      <trkpt lat="41.831314" lon="2.522656">
        <ele>349.421</ele>
        <time>2021-05-26T16:10:58Z</time>
      </trkpt>
      <trkpt lat="41.831337" lon="2.522633">
        <ele>350.108</ele>
        <time>2021-05-26T16:11:00Z</time>
      </trkpt>
      <trkpt lat="41.831357" lon="2.522613">
        <ele>350.760</ele>
        <time>2021-05-26T16:11:02Z</time>
      </trkpt>
      <trkpt lat="41.831381" lon="2.522590">
        <ele>351.437</ele>
        <time>2021-05-26T16:11:04Z</time>
      </trkpt>
      <trkpt lat="41.831405" lon="2.522571">
        <ele>351.884</ele>
        <time>2021-05-26T16:11:06Z</time>
      </trkpt>
      <trkpt lat="41.831433" lon="2.522556">
        <ele>351.868</ele>
        <time>2021-05-26T16:11:08Z</time>
      </trkpt>
      <trkpt lat="41.831465" lon="2.522544">
        <ele>351.763</ele>
        <time>2021-05-26T16:11:10Z</time>
      </trkpt>
      <trkpt lat="41.831487" lon="2.522531">
        <ele>351.843</ele>
        <time>2021-05-26T16:11:12Z</time>
      </trkpt>
      <trkpt lat="41.831514" lon="2.522523">
        <ele>351.699</ele>
        <time>2021-05-26T16:11:14Z</time>
      </trkpt>
      <trkpt lat="41.831542" lon="2.522509">
        <ele>351.664</ele>
        <time>2021-05-26T16:11:16Z</time>
      </trkpt>
      <trkpt lat="41.831570" lon="2.522497">
        <ele>351.481</ele>
        <time>2021-05-26T16:11:18Z</time>
      </trkpt>
      <trkpt lat="41.831598" lon="2.522486">
        <ele>351.361</ele>
        <time>2021-05-26T16:11:20Z</time>
      </trkpt>
      <trkpt lat="41.831627" lon="2.522470">
        <ele>351.117</ele>
        <time>2021-05-26T16:11:22Z</time>
      </trkpt>
      <trkpt lat="41.831655" lon="2.522451">
        <ele>351.108</ele>
        <time>2021-05-26T16:11:24Z</time>
      </trkpt>
      <trkpt lat="41.831683" lon="2.522438">
        <ele>350.945</ele>
        <time>2021-05-26T16:11:26Z</time>
      </trkpt>
      <trkpt lat="41.831728" lon="2.522417">
        <ele>350.732</ele>
        <time>2021-05-26T16:11:28Z</time>
      </trkpt>
      <trkpt lat="41.831758" lon="2.522406">
        <ele>350.649</ele>
        <time>2021-05-26T16:11:31Z</time>
      </trkpt>
      <trkpt lat="41.831786" lon="2.522394">
        <ele>350.583</ele>
        <time>2021-05-26T16:11:33Z</time>
      </trkpt>
      <trkpt lat="41.831812" lon="2.522384">
        <ele>350.428</ele>
        <time>2021-05-26T16:11:35Z</time>
      </trkpt>
      <trkpt lat="41.831841" lon="2.522373">
        <ele>350.398</ele>
        <time>2021-05-26T16:11:37Z</time>
      </trkpt>
      <trkpt lat="41.831869" lon="2.522362">
        <ele>350.384</ele>
        <time>2021-05-26T16:11:39Z</time>
      </trkpt>
      <trkpt lat="41.831895" lon="2.522347">
        <ele>350.419</ele>
        <time>2021-05-26T16:11:41Z</time>
      </trkpt>
      <trkpt lat="41.831925" lon="2.522335">
        <ele>350.484</ele>
        <time>2021-05-26T16:11:43Z</time>
      </trkpt>
      <trkpt lat="41.831956" lon="2.522330">
        <ele>350.207</ele>
        <time>2021-05-26T16:11:45Z</time>
      </trkpt>
      <trkpt lat="41.831990" lon="2.522324">
        <ele>350.317</ele>
        <time>2021-05-26T16:11:47Z</time>
      </trkpt>
      <trkpt lat="41.832020" lon="2.522321">
        <ele>350.208</ele>
        <time>2021-05-26T16:11:49Z</time>
      </trkpt>
      <trkpt lat="41.832048" lon="2.522323">
        <ele>350.165</ele>
        <time>2021-05-26T16:11:51Z</time>
      </trkpt>
      <trkpt lat="41.832073" lon="2.522329">
        <ele>349.822</ele>
        <time>2021-05-26T16:11:53Z</time>
      </trkpt>
      <trkpt lat="41.832099" lon="2.522339">
        <ele>349.529</ele>
        <time>2021-05-26T16:11:55Z</time>
      </trkpt>
      <trkpt lat="41.832128" lon="2.522351">
        <ele>349.193</ele>
        <time>2021-05-26T16:11:57Z</time>
      </trkpt>
      <trkpt lat="41.832157" lon="2.522363">
        <ele>348.718</ele>
        <time>2021-05-26T16:11:59Z</time>
      </trkpt>
      <trkpt lat="41.832183" lon="2.522369">
        <ele>348.458</ele>
        <time>2021-05-26T16:12:01Z</time>
      </trkpt>
      <trkpt lat="41.832207" lon="2.522375">
        <ele>348.214</ele>
        <time>2021-05-26T16:12:03Z</time>
      </trkpt>
      <trkpt lat="41.832237" lon="2.522373">
        <ele>348.319</ele>
        <time>2021-05-26T16:12:05Z</time>
      </trkpt>
      <trkpt lat="41.832264" lon="2.522364">
        <ele>348.716</ele>
        <time>2021-05-26T16:12:07Z</time>
      </trkpt>
      <trkpt lat="41.832359" lon="2.522325">
        <ele>350.276</ele>
        <time>2021-05-26T16:12:14Z</time>
      </trkpt>
      <trkpt lat="41.832441" lon="2.522294">
        <ele>351.613</ele>
        <time>2021-05-26T16:12:19Z</time>
      </trkpt>
      <trkpt lat="41.832469" lon="2.522296">
        <ele>351.708</ele>
        <time>2021-05-26T16:12:21Z</time>
      </trkpt>
      <trkpt lat="41.832493" lon="2.522303">
        <ele>351.618</ele>
        <time>2021-05-26T16:12:23Z</time>
      </trkpt>
      <trkpt lat="41.832520" lon="2.522305">
        <ele>352.035</ele>
        <time>2021-05-26T16:12:25Z</time>
      </trkpt>
      <trkpt lat="41.832543" lon="2.522308">
        <ele>352.322</ele>
        <time>2021-05-26T16:12:27Z</time>
      </trkpt>
      <trkpt lat="41.832570" lon="2.522305">
        <ele>352.966</ele>
        <time>2021-05-26T16:12:29Z</time>
      </trkpt>
      <trkpt lat="41.832595" lon="2.522295">
        <ele>353.671</ele>
        <time>2021-05-26T16:12:31Z</time>
      </trkpt>
      <trkpt lat="41.832689" lon="2.522285">
        <ele>355.631</ele>
        <time>2021-05-26T16:12:38Z</time>
      </trkpt>
      <trkpt lat="41.832734" lon="2.522292">
        <ele>356.217</ele>
        <time>2021-05-26T16:12:41Z</time>
      </trkpt>
      <trkpt lat="41.832837" lon="2.522308">
        <ele>356.632</ele>
        <time>2021-05-26T16:12:49Z</time>
      </trkpt>
      <trkpt lat="41.832930" lon="2.522327">
        <ele>356.341</ele>
        <time>2021-05-26T16:12:55Z</time>
      </trkpt>
      <trkpt lat="41.833013" lon="2.522393">
        <ele>355.381</ele>
        <time>2021-05-26T16:13:01Z</time>
      </trkpt>
      <trkpt lat="41.833096" lon="2.522455">
        <ele>354.309</ele>
        <time>2021-05-26T16:13:07Z</time>
      </trkpt>
      <trkpt lat="41.833123" lon="2.522464">
        <ele>354.008</ele>
        <time>2021-05-26T16:13:09Z</time>
      </trkpt>
      <trkpt lat="41.833234" lon="2.522482">
        <ele>352.971</ele>
        <time>2021-05-26T16:13:15Z</time>
      </trkpt>
      <trkpt lat="41.833276" lon="2.522480">
        <ele>352.668</ele>
        <time>2021-05-26T16:13:17Z</time>
      </trkpt>
      <trkpt lat="41.833307" lon="2.522477">
        <ele>352.475</ele>
        <time>2021-05-26T16:13:19Z</time>
      </trkpt>
      <trkpt lat="41.833334" lon="2.522471">
        <ele>352.249</ele>
        <time>2021-05-26T16:13:21Z</time>
      </trkpt>
      <trkpt lat="41.833362" lon="2.522462">
        <ele>352.114</ele>
        <time>2021-05-26T16:13:23Z</time>
      </trkpt>
      <trkpt lat="41.833386" lon="2.522449">
        <ele>352.024</ele>
        <time>2021-05-26T16:13:25Z</time>
      </trkpt>
      <trkpt lat="41.833410" lon="2.522437">
        <ele>351.830</ele>
        <time>2021-05-26T16:13:27Z</time>
      </trkpt>
      <trkpt lat="41.833435" lon="2.522420">
        <ele>351.785</ele>
        <time>2021-05-26T16:13:29Z</time>
      </trkpt>
      <trkpt lat="41.833453" lon="2.522405">
        <ele>351.777</ele>
        <time>2021-05-26T16:13:31Z</time>
      </trkpt>
      <trkpt lat="41.833474" lon="2.522391">
        <ele>351.661</ele>
        <time>2021-05-26T16:13:33Z</time>
      </trkpt>
      <trkpt lat="41.833492" lon="2.522367">
        <ele>351.527</ele>
        <time>2021-05-26T16:13:35Z</time>
      </trkpt>
      <trkpt lat="41.833503" lon="2.522339">
        <ele>351.608</ele>
        <time>2021-05-26T16:13:37Z</time>
      </trkpt>
      <trkpt lat="41.833517" lon="2.522305">
        <ele>351.674</ele>
        <time>2021-05-26T16:13:39Z</time>
      </trkpt>
      <trkpt lat="41.833538" lon="2.522297">
        <ele>351.441</ele>
        <time>2021-05-26T16:13:41Z</time>
      </trkpt>
      <trkpt lat="41.833560" lon="2.522286">
        <ele>351.398</ele>
        <time>2021-05-26T16:13:43Z</time>
      </trkpt>
      <trkpt lat="41.833573" lon="2.522267">
        <ele>351.232</ele>
        <time>2021-05-26T16:13:45Z</time>
      </trkpt>
      <trkpt lat="41.833582" lon="2.522244">
        <ele>351.287</ele>
        <time>2021-05-26T16:13:47Z</time>
      </trkpt>
      <trkpt lat="41.833604" lon="2.522231">
        <ele>351.077</ele>
        <time>2021-05-26T16:13:52Z</time>
      </trkpt>
      <trkpt lat="41.833626" lon="2.522243">
        <ele>350.873</ele>
        <time>2021-05-26T16:13:55Z</time>
      </trkpt>
      <trkpt lat="41.833648" lon="2.522255">
        <ele>350.588</ele>
        <time>2021-05-26T16:13:58Z</time>
      </trkpt>
      <trkpt lat="41.833673" lon="2.522249">
        <ele>350.385</ele>
        <time>2021-05-26T16:14:01Z</time>
      </trkpt>
      <trkpt lat="41.833698" lon="2.522229">
        <ele>350.189</ele>
        <time>2021-05-26T16:14:03Z</time>
      </trkpt>
      <trkpt lat="41.833711" lon="2.522213">
        <ele>350.017</ele>
        <time>2021-05-26T16:14:04Z</time>
      </trkpt>
      <trkpt lat="41.833727" lon="2.522175">
        <ele>350.408</ele>
        <time>2021-05-26T16:14:06Z</time>
      </trkpt>
      <trkpt lat="41.833736" lon="2.522144">
        <ele>350.785</ele>
        <time>2021-05-26T16:14:08Z</time>
      </trkpt>
      <trkpt lat="41.833750" lon="2.522114">
        <ele>350.942</ele>
        <time>2021-05-26T16:14:10Z</time>
      </trkpt>
      <trkpt lat="41.833771" lon="2.522076">
        <ele>351.179</ele>
        <time>2021-05-26T16:14:12Z</time>
      </trkpt>
      <trkpt lat="41.833793" lon="2.522047">
        <ele>351.173</ele>
        <time>2021-05-26T16:14:14Z</time>
      </trkpt>
      <trkpt lat="41.833806" lon="2.522021">
        <ele>351.358</ele>
        <time>2021-05-26T16:14:16Z</time>
      </trkpt>
      <trkpt lat="41.833823" lon="2.522000">
        <ele>351.358</ele>
        <time>2021-05-26T16:14:18Z</time>
      </trkpt>
      <trkpt lat="41.833842" lon="2.521982">
        <ele>351.254</ele>
        <time>2021-05-26T16:14:20Z</time>
      </trkpt>
      <trkpt lat="41.833867" lon="2.521977">
        <ele>351.079</ele>
        <time>2021-05-26T16:14:22Z</time>
      </trkpt>
      <trkpt lat="41.833895" lon="2.521971">
        <ele>350.668</ele>
        <time>2021-05-26T16:14:24Z</time>
      </trkpt>
      <trkpt lat="41.833920" lon="2.521964">
        <ele>350.242</ele>
        <time>2021-05-26T16:14:26Z</time>
      </trkpt>
      <trkpt lat="41.833941" lon="2.521953">
        <ele>350.026</ele>
        <time>2021-05-26T16:14:28Z</time>
      </trkpt>
      <trkpt lat="41.833968" lon="2.521938">
        <ele>349.608</ele>
        <time>2021-05-26T16:14:30Z</time>
      </trkpt>
      <trkpt lat="41.833989" lon="2.521923">
        <ele>349.423</ele>
        <time>2021-05-26T16:14:32Z</time>
      </trkpt>
      <trkpt lat="41.834010" lon="2.521897">
        <ele>349.210</ele>
        <time>2021-05-26T16:14:35Z</time>
      </trkpt>
      <trkpt lat="41.834025" lon="2.521879">
        <ele>349.117</ele>
        <time>2021-05-26T16:14:37Z</time>
      </trkpt>
      <trkpt lat="41.834047" lon="2.521868">
        <ele>348.991</ele>
        <time>2021-05-26T16:14:39Z</time>
      </trkpt>
      <trkpt lat="41.834065" lon="2.521862">
        <ele>348.626</ele>
        <time>2021-05-26T16:14:41Z</time>
      </trkpt>
      <trkpt lat="41.834083" lon="2.521853">
        <ele>348.476</ele>
        <time>2021-05-26T16:14:43Z</time>
      </trkpt>
      <trkpt lat="41.834101" lon="2.521839">
        <ele>348.222</ele>
        <time>2021-05-26T16:14:45Z</time>
      </trkpt>
      <trkpt lat="41.834125" lon="2.521843">
        <ele>347.827</ele>
        <time>2021-05-26T16:14:48Z</time>
      </trkpt>
      <trkpt lat="41.834147" lon="2.521843">
        <ele>347.494</ele>
        <time>2021-05-26T16:14:50Z</time>
      </trkpt>
      <trkpt lat="41.834171" lon="2.521849">
        <ele>347.057</ele>
        <time>2021-05-26T16:14:52Z</time>
      </trkpt>
      <trkpt lat="41.834195" lon="2.521851">
        <ele>347.022</ele>
        <time>2021-05-26T16:14:54Z</time>
      </trkpt>
      <trkpt lat="41.834222" lon="2.521858">
        <ele>347.008</ele>
        <time>2021-05-26T16:14:56Z</time>
      </trkpt>
      <trkpt lat="41.834248" lon="2.521870">
        <ele>346.996</ele>
        <time>2021-05-26T16:14:58Z</time>
      </trkpt>
      <trkpt lat="41.834271" lon="2.521880">
        <ele>346.933</ele>
        <time>2021-05-26T16:15:00Z</time>
      </trkpt>
      <trkpt lat="41.834299" lon="2.521889">
        <ele>346.940</ele>
        <time>2021-05-26T16:15:02Z</time>
      </trkpt>
      <trkpt lat="41.834326" lon="2.521896">
        <ele>346.944</ele>
        <time>2021-05-26T16:15:04Z</time>
      </trkpt>
      <trkpt lat="41.834351" lon="2.521899">
        <ele>346.919</ele>
        <time>2021-05-26T16:15:06Z</time>
      </trkpt>
      <trkpt lat="41.834371" lon="2.521904">
        <ele>347.039</ele>
        <time>2021-05-26T16:15:08Z</time>
      </trkpt>
      <trkpt lat="41.834393" lon="2.521904">
        <ele>347.095</ele>
        <time>2021-05-26T16:15:10Z</time>
      </trkpt>
      <trkpt lat="41.834417" lon="2.521897">
        <ele>347.110</ele>
        <time>2021-05-26T16:15:12Z</time>
      </trkpt>
      <trkpt lat="41.834436" lon="2.521891">
        <ele>347.254</ele>
        <time>2021-05-26T16:15:14Z</time>
      </trkpt>
      <trkpt lat="41.834460" lon="2.521886">
        <ele>347.456</ele>
        <time>2021-05-26T16:15:17Z</time>
      </trkpt>
      <trkpt lat="41.834483" lon="2.521902">
        <ele>347.611</ele>
        <time>2021-05-26T16:15:20Z</time>
      </trkpt>
      <trkpt lat="41.834499" lon="2.521922">
        <ele>347.708</ele>
        <time>2021-05-26T16:15:22Z</time>
      </trkpt>
      <trkpt lat="41.834519" lon="2.521939">
        <ele>347.892</ele>
        <time>2021-05-26T16:15:24Z</time>
      </trkpt>
      <trkpt lat="41.834540" lon="2.521959">
        <ele>348.119</ele>
        <time>2021-05-26T16:15:26Z</time>
      </trkpt>
      <trkpt lat="41.834562" lon="2.521971">
        <ele>348.446</ele>
        <time>2021-05-26T16:15:28Z</time>
      </trkpt>
      <trkpt lat="41.834583" lon="2.521977">
        <ele>348.720</ele>
        <time>2021-05-26T16:15:30Z</time>
      </trkpt>
      <trkpt lat="41.834608" lon="2.521987">
        <ele>349.195</ele>
        <time>2021-05-26T16:15:32Z</time>
      </trkpt>
      <trkpt lat="41.834627" lon="2.521997">
        <ele>349.485</ele>
        <time>2021-05-26T16:15:34Z</time>
      </trkpt>
      <trkpt lat="41.834652" lon="2.522008">
        <ele>349.891</ele>
        <time>2021-05-26T16:15:36Z</time>
      </trkpt>
      <trkpt lat="41.834675" lon="2.522014">
        <ele>350.216</ele>
        <time>2021-05-26T16:15:38Z</time>
      </trkpt>
      <trkpt lat="41.834694" lon="2.522021">
        <ele>350.563</ele>
        <time>2021-05-26T16:15:40Z</time>
      </trkpt>
      <trkpt lat="41.834717" lon="2.522025">
        <ele>350.844</ele>
        <time>2021-05-26T16:15:43Z</time>
      </trkpt>
      <trkpt lat="41.834740" lon="2.522037">
        <ele>351.318</ele>
        <time>2021-05-26T16:15:46Z</time>
      </trkpt>
      <trkpt lat="41.834766" lon="2.522043">
        <ele>351.908</ele>
        <time>2021-05-26T16:15:48Z</time>
      </trkpt>
      <trkpt lat="41.834787" lon="2.522046">
        <ele>352.313</ele>
        <time>2021-05-26T16:15:50Z</time>
      </trkpt>
      <trkpt lat="41.834812" lon="2.522045">
        <ele>352.830</ele>
        <time>2021-05-26T16:15:52Z</time>
      </trkpt>
      <trkpt lat="41.834834" lon="2.522047">
        <ele>353.257</ele>
        <time>2021-05-26T16:15:55Z</time>
      </trkpt>
      <trkpt lat="41.834858" lon="2.522051">
        <ele>353.671</ele>
        <time>2021-05-26T16:15:57Z</time>
      </trkpt>
      <trkpt lat="41.834879" lon="2.522061">
        <ele>354.096</ele>
        <time>2021-05-26T16:15:59Z</time>
      </trkpt>
      <trkpt lat="41.834904" lon="2.522064">
        <ele>354.596</ele>
        <time>2021-05-26T16:16:01Z</time>
      </trkpt>
      <trkpt lat="41.834926" lon="2.522066">
        <ele>354.842</ele>
        <time>2021-05-26T16:16:03Z</time>
      </trkpt>
      <trkpt lat="41.834946" lon="2.522069">
        <ele>355.277</ele>
        <time>2021-05-26T16:16:05Z</time>
      </trkpt>
      <trkpt lat="41.834968" lon="2.522078">
        <ele>355.587</ele>
        <time>2021-05-26T16:16:07Z</time>
      </trkpt>
      <trkpt lat="41.834988" lon="2.522092">
        <ele>355.842</ele>
        <time>2021-05-26T16:16:09Z</time>
      </trkpt>
      <trkpt lat="41.835015" lon="2.522102">
        <ele>356.226</ele>
        <time>2021-05-26T16:16:12Z</time>
      </trkpt>
      <trkpt lat="41.835032" lon="2.522124">
        <ele>356.508</ele>
        <time>2021-05-26T16:16:14Z</time>
      </trkpt>
      <trkpt lat="41.835047" lon="2.522139">
        <ele>356.765</ele>
        <time>2021-05-26T16:16:16Z</time>
      </trkpt>
      <trkpt lat="41.835067" lon="2.522137">
        <ele>357.282</ele>
        <time>2021-05-26T16:16:20Z</time>
      </trkpt>
      <trkpt lat="41.835084" lon="2.522117">
        <ele>357.869</ele>
        <time>2021-05-26T16:16:23Z</time>
      </trkpt>
      <trkpt lat="41.835141" lon="2.522160">
        <ele>358.913</ele>
        <time>2021-05-26T16:16:32Z</time>
      </trkpt>
      <trkpt lat="41.835152" lon="2.522182">
        <ele>359.098</ele>
        <time>2021-05-26T16:16:35Z</time>
      </trkpt>
      <trkpt lat="41.835169" lon="2.522200">
        <ele>359.438</ele>
        <time>2021-05-26T16:16:38Z</time>
      </trkpt>
      <trkpt lat="41.835178" lon="2.522224">
        <ele>359.544</ele>
        <time>2021-05-26T16:16:40Z</time>
      </trkpt>
      <trkpt lat="41.835186" lon="2.522247">
        <ele>359.699</ele>
        <time>2021-05-26T16:16:43Z</time>
      </trkpt>
      <trkpt lat="41.835204" lon="2.522272">
        <ele>359.996</ele>
        <time>2021-05-26T16:16:46Z</time>
      </trkpt>
      <trkpt lat="41.835242" lon="2.522272">
        <ele>360.831</ele>
        <time>2021-05-26T16:16:49Z</time>
      </trkpt>
      <trkpt lat="41.835268" lon="2.522245">
        <ele>361.624</ele>
        <time>2021-05-26T16:16:52Z</time>
      </trkpt>
      <trkpt lat="41.835292" lon="2.522227">
        <ele>362.308</ele>
        <time>2021-05-26T16:16:55Z</time>
      </trkpt>
      <trkpt lat="41.835308" lon="2.522206">
        <ele>362.846</ele>
        <time>2021-05-26T16:16:57Z</time>
      </trkpt>
      <trkpt lat="41.835325" lon="2.522184">
        <ele>363.323</ele>
        <time>2021-05-26T16:16:59Z</time>
      </trkpt>
      <trkpt lat="41.835342" lon="2.522156">
        <ele>363.970</ele>
        <time>2021-05-26T16:17:02Z</time>
      </trkpt>
      <trkpt lat="41.835353" lon="2.522136">
        <ele>364.254</ele>
        <time>2021-05-26T16:17:04Z</time>
      </trkpt>
      <trkpt lat="41.835373" lon="2.522124">
        <ele>364.869</ele>
        <time>2021-05-26T16:17:06Z</time>
      </trkpt>
      <trkpt lat="41.835392" lon="2.522126">
        <ele>365.299</ele>
        <time>2021-05-26T16:17:08Z</time>
      </trkpt>
      <trkpt lat="41.835411" lon="2.522132">
        <ele>365.735</ele>
        <time>2021-05-26T16:17:11Z</time>
      </trkpt>
      <trkpt lat="41.835430" lon="2.522133">
        <ele>366.280</ele>
        <time>2021-05-26T16:17:13Z</time>
      </trkpt>
      <trkpt lat="41.835451" lon="2.522128">
        <ele>366.736</ele>
        <time>2021-05-26T16:17:15Z</time>
      </trkpt>
      <trkpt lat="41.835469" lon="2.522122">
        <ele>367.217</ele>
        <time>2021-05-26T16:17:17Z</time>
      </trkpt>
      <trkpt lat="41.835483" lon="2.522103">
        <ele>367.618</ele>
        <time>2021-05-26T16:17:20Z</time>
      </trkpt>
      <trkpt lat="41.835497" lon="2.522071">
        <ele>368.108</ele>
        <time>2021-05-26T16:17:23Z</time>
      </trkpt>
      <trkpt lat="41.835501" lon="2.522045">
        <ele>368.380</ele>
        <time>2021-05-26T16:17:25Z</time>
      </trkpt>
      <trkpt lat="41.835509" lon="2.522022">
        <ele>368.577</ele>
        <time>2021-05-26T16:17:27Z</time>
      </trkpt>
      <trkpt lat="41.835509" lon="2.521988">
        <ele>368.744</ele>
        <time>2021-05-26T16:17:30Z</time>
      </trkpt>
      <trkpt lat="41.835518" lon="2.521958">
        <ele>369.018</ele>
        <time>2021-05-26T16:17:33Z</time>
      </trkpt>
      <trkpt lat="41.835533" lon="2.521929">
        <ele>369.513</ele>
        <time>2021-05-26T16:17:36Z</time>
      </trkpt>
      <trkpt lat="41.835545" lon="2.521906">
        <ele>369.923</ele>
        <time>2021-05-26T16:17:38Z</time>
      </trkpt>
      <trkpt lat="41.835564" lon="2.521877">
        <ele>370.549</ele>
        <time>2021-05-26T16:17:41Z</time>
      </trkpt>
      <trkpt lat="41.835577" lon="2.521857">
        <ele>370.994</ele>
        <time>2021-05-26T16:17:43Z</time>
      </trkpt>
      <trkpt lat="41.835592" lon="2.521835">
        <ele>371.494</ele>
        <time>2021-05-26T16:17:46Z</time>
      </trkpt>
      <trkpt lat="41.835598" lon="2.521810">
        <ele>371.657</ele>
        <time>2021-05-26T16:17:48Z</time>
      </trkpt>
      <trkpt lat="41.835618" lon="2.521796">
        <ele>372.222</ele>
        <time>2021-05-26T16:17:52Z</time>
      </trkpt>
      <trkpt lat="41.835637" lon="2.521810">
        <ele>372.708</ele>
        <time>2021-05-26T16:17:55Z</time>
      </trkpt>
      <trkpt lat="41.835651" lon="2.521831">
        <ele>373.056</ele>
        <time>2021-05-26T16:17:58Z</time>
      </trkpt>
      <trkpt lat="41.835659" lon="2.521855">
        <ele>373.253</ele>
        <time>2021-05-26T16:18:00Z</time>
      </trkpt>
      <trkpt lat="41.835667" lon="2.521881">
        <ele>373.320</ele>
        <time>2021-05-26T16:18:02Z</time>
      </trkpt>
      <trkpt lat="41.835678" lon="2.521912">
        <ele>373.634</ele>
        <time>2021-05-26T16:18:04Z</time>
      </trkpt>
      <trkpt lat="41.835689" lon="2.521936">
        <ele>373.979</ele>
        <time>2021-05-26T16:18:06Z</time>
      </trkpt>
      <trkpt lat="41.835702" lon="2.521958">
        <ele>374.179</ele>
        <time>2021-05-26T16:18:08Z</time>
      </trkpt>
      <trkpt lat="41.835711" lon="2.521989">
        <ele>374.125</ele>
        <time>2021-05-26T16:18:10Z</time>
      </trkpt>
      <trkpt lat="41.835724" lon="2.522025">
        <ele>374.240</ele>
        <time>2021-05-26T16:18:12Z</time>
      </trkpt>
      <trkpt lat="41.835740" lon="2.522050">
        <ele>374.466</ele>
        <time>2021-05-26T16:18:14Z</time>
      </trkpt>
      <trkpt lat="41.835756" lon="2.522070">
        <ele>374.729</ele>
        <time>2021-05-26T16:18:16Z</time>
      </trkpt>
      <trkpt lat="41.835774" lon="2.522091">
        <ele>374.921</ele>
        <time>2021-05-26T16:18:19Z</time>
      </trkpt>
      <trkpt lat="41.835795" lon="2.522102">
        <ele>375.408</ele>
        <time>2021-05-26T16:18:21Z</time>
      </trkpt>
      <trkpt lat="41.835816" lon="2.522118">
        <ele>375.723</ele>
        <time>2021-05-26T16:18:23Z</time>
      </trkpt>
      <trkpt lat="41.835839" lon="2.522134">
        <ele>376.160</ele>
        <time>2021-05-26T16:18:25Z</time>
      </trkpt>
      <trkpt lat="41.835934" lon="2.522168">
        <ele>377.427</ele>
        <time>2021-05-26T16:18:32Z</time>
      </trkpt>
      <trkpt lat="41.835987" lon="2.522213">
        <ele>377.961</ele>
        <time>2021-05-26T16:18:37Z</time>
      </trkpt>
      <trkpt lat="41.836077" lon="2.522217">
        <ele>379.456</ele>
        <time>2021-05-26T16:18:44Z</time>
      </trkpt>
      <trkpt lat="41.836106" lon="2.522217">
        <ele>380.096</ele>
        <time>2021-05-26T16:18:46Z</time>
      </trkpt>
      <trkpt lat="41.836128" lon="2.522218">
        <ele>380.422</ele>
        <time>2021-05-26T16:18:48Z</time>
      </trkpt>
      <trkpt lat="41.836144" lon="2.522239">
        <ele>380.417</ele>
        <time>2021-05-26T16:18:50Z</time>
      </trkpt>
      <trkpt lat="41.836164" lon="2.522244">
        <ele>380.754</ele>
        <time>2021-05-26T16:18:52Z</time>
      </trkpt>
      <trkpt lat="41.836185" lon="2.522251">
        <ele>381.056</ele>
        <time>2021-05-26T16:18:54Z</time>
      </trkpt>
      <trkpt lat="41.836219" lon="2.522252">
        <ele>381.611</ele>
        <time>2021-05-26T16:18:57Z</time>
      </trkpt>
      <trkpt lat="41.836241" lon="2.522237">
        <ele>382.208</ele>
        <time>2021-05-26T16:18:59Z</time>
      </trkpt>
      <trkpt lat="41.836265" lon="2.522227">
        <ele>382.772</ele>
        <time>2021-05-26T16:19:01Z</time>
      </trkpt>
      <trkpt lat="41.836289" lon="2.522215">
        <ele>383.389</ele>
        <time>2021-05-26T16:19:04Z</time>
      </trkpt>
      <trkpt lat="41.836307" lon="2.522194">
        <ele>383.956</ele>
        <time>2021-05-26T16:19:06Z</time>
      </trkpt>
      <trkpt lat="41.836330" lon="2.522168">
        <ele>384.770</ele>
        <time>2021-05-26T16:19:08Z</time>
      </trkpt>
      <trkpt lat="41.836348" lon="2.522152">
        <ele>385.215</ele>
        <time>2021-05-26T16:19:10Z</time>
      </trkpt>
      <trkpt lat="41.836367" lon="2.522143">
        <ele>385.775</ele>
        <time>2021-05-26T16:19:12Z</time>
      </trkpt>
      <trkpt lat="41.836382" lon="2.522121">
        <ele>386.311</ele>
        <time>2021-05-26T16:19:14Z</time>
      </trkpt>
      <trkpt lat="41.836387" lon="2.522092">
        <ele>386.866</ele>
        <time>2021-05-26T16:19:17Z</time>
      </trkpt>
      <trkpt lat="41.836406" lon="2.522073">
        <ele>387.676</ele>
        <time>2021-05-26T16:19:20Z</time>
      </trkpt>
      <trkpt lat="41.836424" lon="2.522059">
        <ele>388.290</ele>
        <time>2021-05-26T16:19:23Z</time>
      </trkpt>
      <trkpt lat="41.836438" lon="2.522074">
        <ele>388.319</ele>
        <time>2021-05-26T16:19:26Z</time>
      </trkpt>
      <trkpt lat="41.836459" lon="2.522074">
        <ele>388.808</ele>
        <time>2021-05-26T16:19:28Z</time>
      </trkpt>
      <trkpt lat="41.836481" lon="2.522073">
        <ele>389.394</ele>
        <time>2021-05-26T16:19:31Z</time>
      </trkpt>
      <trkpt lat="41.836508" lon="2.522076">
        <ele>389.961</ele>
        <time>2021-05-26T16:19:35Z</time>
      </trkpt>
      <trkpt lat="41.836528" lon="2.522085">
        <ele>390.258</ele>
        <time>2021-05-26T16:19:37Z</time>
      </trkpt>
      <trkpt lat="41.836545" lon="2.522093">
        <ele>390.582</ele>
        <time>2021-05-26T16:19:39Z</time>
      </trkpt>
      <trkpt lat="41.836563" lon="2.522109">
        <ele>390.627</ele>
        <time>2021-05-26T16:19:42Z</time>
      </trkpt>
      <trkpt lat="41.836585" lon="2.522104">
        <ele>391.257</ele>
        <time>2021-05-26T16:19:44Z</time>
      </trkpt>
      <trkpt lat="41.836604" lon="2.522092">
        <ele>391.943</ele>
        <time>2021-05-26T16:19:46Z</time>
      </trkpt>
      <trkpt lat="41.836620" lon="2.522071">
        <ele>392.648</ele>
        <time>2021-05-26T16:19:49Z</time>
      </trkpt>
      <trkpt lat="41.836626" lon="2.522039">
        <ele>393.329</ele>
        <time>2021-05-26T16:19:53Z</time>
      </trkpt>
      <trkpt lat="41.836644" lon="2.522030">
        <ele>393.900</ele>
        <time>2021-05-26T16:19:56Z</time>
      </trkpt>
      <trkpt lat="41.836659" lon="2.522003">
        <ele>394.820</ele>
        <time>2021-05-26T16:19:58Z</time>
      </trkpt>
      <trkpt lat="41.836682" lon="2.521981">
        <ele>395.808</ele>
        <time>2021-05-26T16:20:01Z</time>
      </trkpt>
      <trkpt lat="41.836693" lon="2.521961">
        <ele>396.479</ele>
        <time>2021-05-26T16:20:03Z</time>
      </trkpt>
      <trkpt lat="41.836690" lon="2.521933">
        <ele>396.756</ele>
        <time>2021-05-26T16:20:06Z</time>
      </trkpt>
      <trkpt lat="41.836680" lon="2.521901">
        <ele>397.083</ele>
        <time>2021-05-26T16:20:09Z</time>
      </trkpt>
      <trkpt lat="41.836668" lon="2.521874">
        <ele>397.087</ele>
        <time>2021-05-26T16:20:12Z</time>
      </trkpt>
      <trkpt lat="41.836654" lon="2.521859">
        <ele>396.912</ele>
        <time>2021-05-26T16:20:14Z</time>
      </trkpt>
      <trkpt lat="41.836647" lon="2.521828">
        <ele>397.272</ele>
        <time>2021-05-26T16:20:17Z</time>
      </trkpt>
      <trkpt lat="41.836651" lon="2.521799">
        <ele>397.788</ele>
        <time>2021-05-26T16:20:19Z</time>
      </trkpt>
      <trkpt lat="41.836655" lon="2.521763">
        <ele>398.333</ele>
        <time>2021-05-26T16:20:21Z</time>
      </trkpt>
      <trkpt lat="41.836658" lon="2.521738">
        <ele>398.863</ele>
        <time>2021-05-26T16:20:23Z</time>
      </trkpt>
      <trkpt lat="41.836670" lon="2.521709">
        <ele>399.544</ele>
        <time>2021-05-26T16:20:26Z</time>
      </trkpt>
      <trkpt lat="41.836751" lon="2.521667">
        <ele>401.818</ele>
        <time>2021-05-26T16:20:37Z</time>
      </trkpt>
      <trkpt lat="41.836776" lon="2.521663">
        <ele>402.408</ele>
        <time>2021-05-26T16:20:40Z</time>
      </trkpt>
      <trkpt lat="41.836797" lon="2.521658">
        <ele>402.953</ele>
        <time>2021-05-26T16:20:43Z</time>
      </trkpt>
      <trkpt lat="41.836814" lon="2.521664">
        <ele>403.280</ele>
        <time>2021-05-26T16:20:46Z</time>
      </trkpt>
      <trkpt lat="41.836833" lon="2.521681">
        <ele>403.417</ele>
        <time>2021-05-26T16:20:49Z</time>
      </trkpt>
      <trkpt lat="41.836861" lon="2.521697">
        <ele>403.861</ele>
        <time>2021-05-26T16:20:52Z</time>
      </trkpt>
      <trkpt lat="41.836939" lon="2.521651">
        <ele>406.036</ele>
        <time>2021-05-26T16:21:03Z</time>
      </trkpt>
      <trkpt lat="41.836955" lon="2.521624">
        <ele>406.866</ele>
        <time>2021-05-26T16:21:06Z</time>
      </trkpt>
      <trkpt lat="41.836953" lon="2.521590">
        <ele>407.152</ele>
        <time>2021-05-26T16:21:10Z</time>
      </trkpt>
      <trkpt lat="41.836941" lon="2.521534">
        <ele>407.347</ele>
        <time>2021-05-26T16:21:16Z</time>
      </trkpt>
      <trkpt lat="41.836940" lon="2.521507">
        <ele>407.682</ele>
        <time>2021-05-26T16:21:18Z</time>
      </trkpt>
      <trkpt lat="41.836955" lon="2.521489">
        <ele>408.243</ele>
        <time>2021-05-26T16:21:20Z</time>
      </trkpt>
      <trkpt lat="41.836970" lon="2.521468">
        <ele>408.817</ele>
        <time>2021-05-26T16:21:22Z</time>
      </trkpt>
      <trkpt lat="41.836977" lon="2.521441">
        <ele>409.208</ele>
        <time>2021-05-26T16:21:25Z</time>
      </trkpt>
      <trkpt lat="41.837001" lon="2.521391">
        <ele>410.215</ele>
        <time>2021-05-26T16:21:30Z</time>
      </trkpt>
      <trkpt lat="41.837046" lon="2.521345">
        <ele>411.392</ele>
        <time>2021-05-26T16:21:37Z</time>
      </trkpt>
      <trkpt lat="41.837061" lon="2.521331">
        <ele>411.649</ele>
        <time>2021-05-26T16:21:38Z</time>
      </trkpt>
      <trkpt lat="41.837073" lon="2.521312">
        <ele>411.983</ele>
        <time>2021-05-26T16:21:40Z</time>
      </trkpt>
      <trkpt lat="41.837094" lon="2.521292">
        <ele>412.418</ele>
        <time>2021-05-26T16:21:42Z</time>
      </trkpt>
      <trkpt lat="41.837114" lon="2.521274">
        <ele>412.868</ele>
        <time>2021-05-26T16:21:44Z</time>
      </trkpt>
      <trkpt lat="41.837132" lon="2.521257">
        <ele>413.234</ele>
        <time>2021-05-26T16:21:46Z</time>
      </trkpt>
      <trkpt lat="41.837153" lon="2.521239">
        <ele>413.659</ele>
        <time>2021-05-26T16:21:50Z</time>
      </trkpt>
      <trkpt lat="41.837176" lon="2.521229">
        <ele>414.137</ele>
        <time>2021-05-26T16:21:55Z</time>
      </trkpt>
      <trkpt lat="41.837194" lon="2.521225">
        <ele>414.449</ele>
        <time>2021-05-26T16:21:57Z</time>
      </trkpt>
      <trkpt lat="41.837218" lon="2.521219">
        <ele>414.913</ele>
        <time>2021-05-26T16:22:00Z</time>
      </trkpt>
      <trkpt lat="41.837238" lon="2.521219">
        <ele>415.008</ele>
        <time>2021-05-26T16:22:02Z</time>
      </trkpt>
      <trkpt lat="41.837269" lon="2.521222">
        <ele>415.040</ele>
        <time>2021-05-26T16:22:06Z</time>
      </trkpt>
      <trkpt lat="41.837285" lon="2.521234">
        <ele>415.197</ele>
        <time>2021-05-26T16:22:08Z</time>
      </trkpt>
      <trkpt lat="41.837297" lon="2.521253">
        <ele>415.144</ele>
        <time>2021-05-26T16:22:10Z</time>
      </trkpt>
      <trkpt lat="41.837314" lon="2.521270">
        <ele>415.298</ele>
        <time>2021-05-26T16:22:12Z</time>
      </trkpt>
      <trkpt lat="41.837331" lon="2.521291">
        <ele>415.433</ele>
        <time>2021-05-26T16:22:14Z</time>
      </trkpt>
      <trkpt lat="41.837345" lon="2.521313">
        <ele>415.573</ele>
        <time>2021-05-26T16:22:16Z</time>
      </trkpt>
      <trkpt lat="41.837359" lon="2.521342">
        <ele>415.759</ele>
        <time>2021-05-26T16:22:19Z</time>
      </trkpt>
      <trkpt lat="41.837391" lon="2.521403">
        <ele>416.344</ele>
        <time>2021-05-26T16:22:25Z</time>
      </trkpt>
      <trkpt lat="41.837398" lon="2.521426">
        <ele>416.544</ele>
        <time>2021-05-26T16:22:27Z</time>
      </trkpt>
      <trkpt lat="41.837413" lon="2.521441">
        <ele>416.705</ele>
        <time>2021-05-26T16:22:29Z</time>
      </trkpt>
      <trkpt lat="41.837424" lon="2.521468">
        <ele>417.015</ele>
        <time>2021-05-26T16:22:31Z</time>
      </trkpt>
      <trkpt lat="41.837437" lon="2.521497">
        <ele>417.408</ele>
        <time>2021-05-26T16:22:34Z</time>
      </trkpt>
      <trkpt lat="41.837455" lon="2.521527">
        <ele>417.841</ele>
        <time>2021-05-26T16:22:38Z</time>
      </trkpt>
      <trkpt lat="41.837534" lon="2.521599">
        <ele>419.328</ele>
        <time>2021-05-26T16:22:45Z</time>
      </trkpt>
      <trkpt lat="41.837549" lon="2.521623">
        <ele>419.615</ele>
        <time>2021-05-26T16:22:47Z</time>
      </trkpt>
      <trkpt lat="41.837614" lon="2.521722">
        <ele>421.229</ele>
        <time>2021-05-26T16:22:55Z</time>
      </trkpt>
      <trkpt lat="41.837624" lon="2.521746">
        <ele>421.734</ele>
        <time>2021-05-26T16:22:57Z</time>
      </trkpt>
      <trkpt lat="41.837638" lon="2.521769">
        <ele>422.164</ele>
        <time>2021-05-26T16:22:59Z</time>
      </trkpt>
      <trkpt lat="41.837657" lon="2.521785">
        <ele>422.610</ele>
        <time>2021-05-26T16:23:01Z</time>
      </trkpt>
      <trkpt lat="41.837666" lon="2.521806">
        <ele>423.135</ele>
        <time>2021-05-26T16:23:03Z</time>
      </trkpt>
      <trkpt lat="41.837681" lon="2.521825">
        <ele>423.696</ele>
        <time>2021-05-26T16:23:06Z</time>
      </trkpt>
      <trkpt lat="41.837753" lon="2.521917">
        <ele>426.831</ele>
        <time>2021-05-26T16:23:17Z</time>
      </trkpt>
      <trkpt lat="41.837815" lon="2.521989">
        <ele>428.624</ele>
        <time>2021-05-26T16:23:23Z</time>
      </trkpt>
      <trkpt lat="41.837836" lon="2.522010">
        <ele>428.908</ele>
        <time>2021-05-26T16:23:26Z</time>
      </trkpt>
      <trkpt lat="41.837850" lon="2.522033">
        <ele>429.226</ele>
        <time>2021-05-26T16:23:28Z</time>
      </trkpt>
      <trkpt lat="41.837874" lon="2.522074">
        <ele>430.043</ele>
        <time>2021-05-26T16:23:31Z</time>
      </trkpt>
      <trkpt lat="41.837889" lon="2.522108">
        <ele>430.690</ele>
        <time>2021-05-26T16:23:34Z</time>
      </trkpt>
      <trkpt lat="41.837909" lon="2.522138">
        <ele>431.274</ele>
        <time>2021-05-26T16:23:36Z</time>
      </trkpt>
      <trkpt lat="41.837960" lon="2.522197">
        <ele>432.499</ele>
        <time>2021-05-26T16:23:43Z</time>
      </trkpt>
      <trkpt lat="41.837977" lon="2.522218">
        <ele>432.959</ele>
        <time>2021-05-26T16:23:45Z</time>
      </trkpt>
      <trkpt lat="41.837994" lon="2.522237">
        <ele>433.285</ele>
        <time>2021-05-26T16:23:47Z</time>
      </trkpt>
      <trkpt lat="41.838013" lon="2.522259">
        <ele>433.680</ele>
        <time>2021-05-26T16:23:49Z</time>
      </trkpt>
      <trkpt lat="41.838033" lon="2.522295">
        <ele>434.229</ele>
        <time>2021-05-26T16:23:52Z</time>
      </trkpt>
      <trkpt lat="41.838061" lon="2.522333">
        <ele>435.000</ele>
        <time>2021-05-26T16:23:57Z</time>
      </trkpt>
      <trkpt lat="41.838069" lon="2.522359">
        <ele>435.420</ele>
        <time>2021-05-26T16:24:00Z</time>
      </trkpt>
      <trkpt lat="41.838085" lon="2.522376">
        <ele>435.608</ele>
        <time>2021-05-26T16:24:02Z</time>
      </trkpt>
      <trkpt lat="41.838099" lon="2.522399">
        <ele>436.029</ele>
        <time>2021-05-26T16:24:05Z</time>
      </trkpt>
      <trkpt lat="41.838126" lon="2.522458">
        <ele>437.116</ele>
        <time>2021-05-26T16:24:10Z</time>
      </trkpt>
      <trkpt lat="41.838197" lon="2.522552">
        <ele>438.823</ele>
        <time>2021-05-26T16:24:23Z</time>
      </trkpt>
      <trkpt lat="41.838228" lon="2.522590">
        <ele>439.577</ele>
        <time>2021-05-26T16:24:26Z</time>
      </trkpt>
      <trkpt lat="41.838243" lon="2.522609">
        <ele>440.042</ele>
        <time>2021-05-26T16:24:28Z</time>
      </trkpt>
      <trkpt lat="41.838264" lon="2.522633">
        <ele>440.662</ele>
        <time>2021-05-26T16:24:31Z</time>
      </trkpt>
      <trkpt lat="41.838289" lon="2.522660">
        <ele>441.548</ele>
        <time>2021-05-26T16:24:34Z</time>
      </trkpt>
      <trkpt lat="41.838308" lon="2.522676">
        <ele>442.113</ele>
        <time>2021-05-26T16:24:36Z</time>
      </trkpt>
      <trkpt lat="41.838323" lon="2.522696">
        <ele>442.874</ele>
        <time>2021-05-26T16:24:39Z</time>
      </trkpt>
      <trkpt lat="41.838338" lon="2.522717">
        <ele>443.456</ele>
        <time>2021-05-26T16:24:43Z</time>
      </trkpt>
      <trkpt lat="41.838359" lon="2.522736">
        <ele>443.821</ele>
        <time>2021-05-26T16:24:47Z</time>
      </trkpt>
      <trkpt lat="41.838375" lon="2.522753">
        <ele>444.208</ele>
        <time>2021-05-26T16:24:48Z</time>
      </trkpt>
      <trkpt lat="41.838389" lon="2.522771">
        <ele>444.674</ele>
        <time>2021-05-26T16:24:50Z</time>
      </trkpt>
      <trkpt lat="41.838402" lon="2.522788">
        <ele>444.931</ele>
        <time>2021-05-26T16:24:52Z</time>
      </trkpt>
      <trkpt lat="41.838478" lon="2.522864">
        <ele>446.278</ele>
        <time>2021-05-26T16:25:03Z</time>
      </trkpt>
      <trkpt lat="41.838519" lon="2.522928">
        <ele>447.852</ele>
        <time>2021-05-26T16:25:08Z</time>
      </trkpt>
      <trkpt lat="41.838533" lon="2.522948">
        <ele>448.377</ele>
        <time>2021-05-26T16:25:10Z</time>
      </trkpt>
      <trkpt lat="41.838548" lon="2.522971">
        <ele>449.017</ele>
        <time>2021-05-26T16:25:12Z</time>
      </trkpt>
      <trkpt lat="41.838569" lon="2.522993">
        <ele>449.883</ele>
        <time>2021-05-26T16:25:14Z</time>
      </trkpt>
      <trkpt lat="41.838590" lon="2.523014">
        <ele>450.648</ele>
        <time>2021-05-26T16:25:16Z</time>
      </trkpt>
      <trkpt lat="41.838598" lon="2.523040">
        <ele>451.416</ele>
        <time>2021-05-26T16:25:18Z</time>
      </trkpt>
      <trkpt lat="41.838608" lon="2.523059">
        <ele>452.076</ele>
        <time>2021-05-26T16:25:20Z</time>
      </trkpt>
      <trkpt lat="41.838622" lon="2.523076">
        <ele>452.113</ele>
        <time>2021-05-26T16:25:22Z</time>
      </trkpt>
      <trkpt lat="41.838641" lon="2.523097">
        <ele>452.308</ele>
        <time>2021-05-26T16:25:25Z</time>
      </trkpt>
      <trkpt lat="41.838694" lon="2.523215">
        <ele>453.518</ele>
        <time>2021-05-26T16:25:33Z</time>
      </trkpt>
      <trkpt lat="41.838700" lon="2.523246">
        <ele>453.995</ele>
        <time>2021-05-26T16:25:35Z</time>
      </trkpt>
      <trkpt lat="41.838709" lon="2.523274">
        <ele>454.222</ele>
        <time>2021-05-26T16:25:37Z</time>
      </trkpt>
      <trkpt lat="41.838723" lon="2.523299">
        <ele>454.536</ele>
        <time>2021-05-26T16:25:39Z</time>
      </trkpt>
      <trkpt lat="41.838736" lon="2.523318">
        <ele>454.871</ele>
        <time>2021-05-26T16:25:41Z</time>
      </trkpt>
      <trkpt lat="41.838751" lon="2.523341">
        <ele>455.131</ele>
        <time>2021-05-26T16:25:43Z</time>
      </trkpt>
      <trkpt lat="41.838765" lon="2.523358">
        <ele>455.237</ele>
        <time>2021-05-26T16:25:45Z</time>
      </trkpt>
      <trkpt lat="41.838782" lon="2.523374">
        <ele>455.472</ele>
        <time>2021-05-26T16:25:47Z</time>
      </trkpt>
      <trkpt lat="41.838797" lon="2.523389">
        <ele>455.646</ele>
        <time>2021-05-26T16:25:49Z</time>
      </trkpt>
      <trkpt lat="41.838813" lon="2.523414">
        <ele>455.988</ele>
        <time>2021-05-26T16:25:51Z</time>
      </trkpt>
      <trkpt lat="41.838824" lon="2.523442">
        <ele>456.316</ele>
        <time>2021-05-26T16:25:53Z</time>
      </trkpt>
      <trkpt lat="41.838834" lon="2.523469">
        <ele>456.708</ele>
        <time>2021-05-26T16:25:55Z</time>
      </trkpt>
      <trkpt lat="41.838844" lon="2.523495">
        <ele>457.021</ele>
        <time>2021-05-26T16:25:57Z</time>
      </trkpt>
      <trkpt lat="41.838859" lon="2.523516">
        <ele>457.488</ele>
        <time>2021-05-26T16:25:59Z</time>
      </trkpt>
      <trkpt lat="41.838877" lon="2.523535">
        <ele>457.845</ele>
        <time>2021-05-26T16:26:01Z</time>
      </trkpt>
      <trkpt lat="41.838923" lon="2.523561">
        <ele>458.449</ele>
        <time>2021-05-26T16:26:06Z</time>
      </trkpt>
      <trkpt lat="41.838956" lon="2.523602">
        <ele>459.324</ele>
        <time>2021-05-26T16:26:10Z</time>
      </trkpt>
      <trkpt lat="41.838974" lon="2.523621">
        <ele>459.884</ele>
        <time>2021-05-26T16:26:13Z</time>
      </trkpt>
      <trkpt lat="41.838998" lon="2.523634">
        <ele>460.380</ele>
        <time>2021-05-26T16:26:15Z</time>
      </trkpt>
      <trkpt lat="41.839097" lon="2.523659">
        <ele>461.615</ele>
        <time>2021-05-26T16:26:23Z</time>
      </trkpt>
      <trkpt lat="41.839201" lon="2.523688">
        <ele>463.161</ele>
        <time>2021-05-26T16:26:30Z</time>
      </trkpt>
      <trkpt lat="41.839238" lon="2.523696">
        <ele>463.421</ele>
        <time>2021-05-26T16:26:32Z</time>
      </trkpt>
      <trkpt lat="41.839269" lon="2.523703">
        <ele>463.713</ele>
        <time>2021-05-26T16:26:34Z</time>
      </trkpt>
      <trkpt lat="41.839297" lon="2.523704">
        <ele>463.808</ele>
        <time>2021-05-26T16:26:36Z</time>
      </trkpt>
      <trkpt lat="41.839318" lon="2.523712">
        <ele>464.153</ele>
        <time>2021-05-26T16:26:38Z</time>
      </trkpt>
      <trkpt lat="41.839336" lon="2.523727">
        <ele>464.530</ele>
        <time>2021-05-26T16:26:40Z</time>
      </trkpt>
      <trkpt lat="41.839354" lon="2.523739">
        <ele>464.917</ele>
        <time>2021-05-26T16:26:42Z</time>
      </trkpt>
      <trkpt lat="41.839375" lon="2.523763">
        <ele>465.661</ele>
        <time>2021-05-26T16:26:46Z</time>
      </trkpt>
      <trkpt lat="41.839399" lon="2.523778">
        <ele>466.086</ele>
        <time>2021-05-26T16:26:49Z</time>
      </trkpt>
      <trkpt lat="41.839414" lon="2.523790">
        <ele>466.436</ele>
        <time>2021-05-26T16:26:51Z</time>
      </trkpt>
      <trkpt lat="41.839430" lon="2.523809">
        <ele>466.922</ele>
        <time>2021-05-26T16:26:54Z</time>
      </trkpt>
      <trkpt lat="41.839444" lon="2.523827">
        <ele>467.427</ele>
        <time>2021-05-26T16:26:57Z</time>
      </trkpt>
      <trkpt lat="41.839468" lon="2.523839">
        <ele>467.695</ele>
        <time>2021-05-26T16:27:00Z</time>
      </trkpt>
      <trkpt lat="41.839490" lon="2.523854">
        <ele>467.949</ele>
        <time>2021-05-26T16:27:02Z</time>
      </trkpt>
      <trkpt lat="41.839506" lon="2.523876">
        <ele>468.423</ele>
        <time>2021-05-26T16:27:04Z</time>
      </trkpt>
      <trkpt lat="41.839516" lon="2.523902">
        <ele>469.108</ele>
        <time>2021-05-26T16:27:06Z</time>
      </trkpt>
      <trkpt lat="41.839538" lon="2.523910">
        <ele>469.276</ele>
        <time>2021-05-26T16:27:09Z</time>
      </trkpt>
      <trkpt lat="41.839553" lon="2.523926">
        <ele>469.673</ele>
        <time>2021-05-26T16:27:11Z</time>
      </trkpt>
      <trkpt lat="41.839568" lon="2.523947">
        <ele>470.150</ele>
        <time>2021-05-26T16:27:13Z</time>
      </trkpt>
      <trkpt lat="41.839588" lon="2.523976">
        <ele>470.814</ele>
        <time>2021-05-26T16:27:15Z</time>
      </trkpt>
      <trkpt lat="41.839603" lon="2.524010">
        <ele>471.789</ele>
        <time>2021-05-26T16:27:17Z</time>
      </trkpt>
      <trkpt lat="41.839621" lon="2.524025">
        <ele>472.099</ele>
        <time>2021-05-26T16:27:19Z</time>
      </trkpt>
      <trkpt lat="41.839633" lon="2.524050">
        <ele>472.635</ele>
        <time>2021-05-26T16:27:21Z</time>
      </trkpt>
      <trkpt lat="41.839639" lon="2.524076">
        <ele>473.270</ele>
        <time>2021-05-26T16:27:23Z</time>
      </trkpt>
      <trkpt lat="41.839643" lon="2.524106">
        <ele>474.044</ele>
        <time>2021-05-26T16:27:25Z</time>
      </trkpt>
      <trkpt lat="41.839650" lon="2.524129">
        <ele>474.505</ele>
        <time>2021-05-26T16:27:27Z</time>
      </trkpt>
      <trkpt lat="41.839665" lon="2.524146">
        <ele>474.915</ele>
        <time>2021-05-26T16:27:29Z</time>
      </trkpt>
      <trkpt lat="41.839683" lon="2.524176">
        <ele>475.508</ele>
        <time>2021-05-26T16:27:31Z</time>
      </trkpt>
      <trkpt lat="41.839694" lon="2.524195">
        <ele>475.871</ele>
        <time>2021-05-26T16:27:33Z</time>
      </trkpt>
      <trkpt lat="41.839704" lon="2.524228">
        <ele>476.598</ele>
        <time>2021-05-26T16:27:35Z</time>
      </trkpt>
      <trkpt lat="41.839717" lon="2.524259">
        <ele>477.035</ele>
        <time>2021-05-26T16:27:37Z</time>
      </trkpt>
      <trkpt lat="41.839727" lon="2.524287">
        <ele>477.559</ele>
        <time>2021-05-26T16:27:39Z</time>
      </trkpt>
      <trkpt lat="41.839749" lon="2.524309">
        <ele>477.594</ele>
        <time>2021-05-26T16:27:41Z</time>
      </trkpt>
      <trkpt lat="41.839763" lon="2.524331">
        <ele>477.854</ele>
        <time>2021-05-26T16:27:43Z</time>
      </trkpt>
      <trkpt lat="41.839770" lon="2.524357">
        <ele>478.260</ele>
        <time>2021-05-26T16:27:45Z</time>
      </trkpt>
      <trkpt lat="41.839774" lon="2.524390">
        <ele>478.915</ele>
        <time>2021-05-26T16:27:47Z</time>
      </trkpt>
      <trkpt lat="41.839779" lon="2.524417">
        <ele>479.449</ele>
        <time>2021-05-26T16:27:49Z</time>
      </trkpt>
      <trkpt lat="41.839786" lon="2.524443">
        <ele>479.802</ele>
        <time>2021-05-26T16:27:51Z</time>
      </trkpt>
      <trkpt lat="41.839850" lon="2.524538">
        <ele>480.922</ele>
        <time>2021-05-26T16:28:00Z</time>
      </trkpt>
      <trkpt lat="41.839877" lon="2.524562">
        <ele>481.008</ele>
        <time>2021-05-26T16:28:03Z</time>
      </trkpt>
      <trkpt lat="41.839890" lon="2.524585">
        <ele>481.371</ele>
        <time>2021-05-26T16:28:05Z</time>
      </trkpt>
      <trkpt lat="41.839905" lon="2.524606">
        <ele>481.678</ele>
        <time>2021-05-26T16:28:07Z</time>
      </trkpt>
      <trkpt lat="41.839920" lon="2.524638">
        <ele>482.125</ele>
        <time>2021-05-26T16:28:10Z</time>
      </trkpt>
      <trkpt lat="41.839937" lon="2.524653">
        <ele>482.299</ele>
        <time>2021-05-26T16:28:12Z</time>
      </trkpt>
      <trkpt lat="41.839951" lon="2.524674">
        <ele>482.544</ele>
        <time>2021-05-26T16:28:14Z</time>
      </trkpt>
      <trkpt lat="41.839962" lon="2.524703">
        <ele>483.134</ele>
        <time>2021-05-26T16:28:17Z</time>
      </trkpt>
      <trkpt lat="41.839965" lon="2.524727">
        <ele>483.650</ele>
        <time>2021-05-26T16:28:19Z</time>
      </trkpt>
      <trkpt lat="41.839971" lon="2.524757">
        <ele>484.165</ele>
        <time>2021-05-26T16:28:22Z</time>
      </trkpt>
      <trkpt lat="41.839986" lon="2.524779">
        <ele>484.457</ele>
        <time>2021-05-26T16:28:24Z</time>
      </trkpt>
      <trkpt lat="41.839994" lon="2.524803">
        <ele>484.800</ele>
        <time>2021-05-26T16:28:26Z</time>
      </trkpt>
      <trkpt lat="41.840005" lon="2.524823">
        <ele>485.120</ele>
        <time>2021-05-26T16:28:28Z</time>
      </trkpt>
      <trkpt lat="41.840019" lon="2.524845">
        <ele>485.308</ele>
        <time>2021-05-26T16:28:30Z</time>
      </trkpt>
      <trkpt lat="41.840034" lon="2.524877">
        <ele>485.752</ele>
        <time>2021-05-26T16:28:33Z</time>
      </trkpt>
      <trkpt lat="41.840044" lon="2.524907">
        <ele>486.169</ele>
        <time>2021-05-26T16:28:35Z</time>
      </trkpt>
      <trkpt lat="41.840053" lon="2.524937">
        <ele>486.616</ele>
        <time>2021-05-26T16:28:37Z</time>
      </trkpt>
      <trkpt lat="41.840084" lon="2.525063">
        <ele>488.820</ele>
        <time>2021-05-26T16:28:44Z</time>
      </trkpt>
      <trkpt lat="41.840089" lon="2.525094">
        <ele>489.415</ele>
        <time>2021-05-26T16:28:46Z</time>
      </trkpt>
      <trkpt lat="41.840129" lon="2.525129">
        <ele>489.695</ele>
        <time>2021-05-26T16:28:49Z</time>
      </trkpt>
      <trkpt lat="41.840145" lon="2.525156">
        <ele>490.191</ele>
        <time>2021-05-26T16:28:51Z</time>
      </trkpt>
      <trkpt lat="41.840161" lon="2.525182">
        <ele>490.586</ele>
        <time>2021-05-26T16:28:53Z</time>
      </trkpt>
      <trkpt lat="41.840173" lon="2.525213">
        <ele>491.297</ele>
        <time>2021-05-26T16:28:55Z</time>
      </trkpt>
      <trkpt lat="41.840189" lon="2.525233">
        <ele>491.523</ele>
        <time>2021-05-26T16:28:57Z</time>
      </trkpt>
      <trkpt lat="41.840212" lon="2.525254">
        <ele>491.925</ele>
        <time>2021-05-26T16:29:00Z</time>
      </trkpt>
      <trkpt lat="41.840232" lon="2.525279">
        <ele>492.408</ele>
        <time>2021-05-26T16:29:02Z</time>
      </trkpt>
      <trkpt lat="41.840247" lon="2.525306">
        <ele>492.796</ele>
        <time>2021-05-26T16:29:04Z</time>
      </trkpt>
      <trkpt lat="41.840258" lon="2.525327">
        <ele>493.093</ele>
        <time>2021-05-26T16:29:06Z</time>
      </trkpt>
      <trkpt lat="41.840270" lon="2.525347">
        <ele>493.330</ele>
        <time>2021-05-26T16:29:08Z</time>
      </trkpt>
      <trkpt lat="41.840294" lon="2.525368">
        <ele>493.424</ele>
        <time>2021-05-26T16:29:11Z</time>
      </trkpt>
      <trkpt lat="41.840317" lon="2.525389">
        <ele>493.479</ele>
        <time>2021-05-26T16:29:14Z</time>
      </trkpt>
      <trkpt lat="41.840339" lon="2.525404">
        <ele>493.449</ele>
        <time>2021-05-26T16:29:16Z</time>
      </trkpt>
      <trkpt lat="41.840359" lon="2.525429">
        <ele>493.615</ele>
        <time>2021-05-26T16:29:18Z</time>
      </trkpt>
      <trkpt lat="41.840380" lon="2.525448">
        <ele>493.650</ele>
        <time>2021-05-26T16:29:20Z</time>
      </trkpt>
      <trkpt lat="41.840406" lon="2.525475">
        <ele>493.748</ele>
        <time>2021-05-26T16:29:23Z</time>
      </trkpt>
      <trkpt lat="41.840426" lon="2.525496">
        <ele>493.861</ele>
        <time>2021-05-26T16:29:25Z</time>
      </trkpt>
      <trkpt lat="41.840445" lon="2.525524">
        <ele>494.017</ele>
        <time>2021-05-26T16:29:27Z</time>
      </trkpt>
      <trkpt lat="41.840467" lon="2.525580">
        <ele>494.708</ele>
        <time>2021-05-26T16:29:30Z</time>
      </trkpt>
      <trkpt lat="41.840488" lon="2.525612">
        <ele>494.811</ele>
        <time>2021-05-26T16:29:32Z</time>
      </trkpt>
      <trkpt lat="41.840503" lon="2.525642">
        <ele>495.198</ele>
        <time>2021-05-26T16:29:35Z</time>
      </trkpt>
      <trkpt lat="41.840522" lon="2.525668">
        <ele>495.295</ele>
        <time>2021-05-26T16:29:38Z</time>
      </trkpt>
      <trkpt lat="41.840593" lon="2.525748">
        <ele>495.879</ele>
        <time>2021-05-26T16:29:45Z</time>
      </trkpt>
      <trkpt lat="41.840640" lon="2.525794">
        <ele>496.464</ele>
        <time>2021-05-26T16:29:49Z</time>
      </trkpt>
      <trkpt lat="41.840671" lon="2.525808">
        <ele>496.624</ele>
        <time>2021-05-26T16:29:51Z</time>
      </trkpt>
      <trkpt lat="41.840708" lon="2.525783">
        <ele>496.320</ele>
        <time>2021-05-26T16:29:55Z</time>
      </trkpt>
      <trkpt lat="41.840722" lon="2.525761">
        <ele>496.025</ele>
        <time>2021-05-26T16:29:57Z</time>
      </trkpt>
      <trkpt lat="41.840734" lon="2.525742">
        <ele>495.712</ele>
        <time>2021-05-26T16:29:58Z</time>
      </trkpt>
      <trkpt lat="41.840754" lon="2.525709">
        <ele>495.232</ele>
        <time>2021-05-26T16:30:00Z</time>
      </trkpt>
      <trkpt lat="41.840774" lon="2.525684">
        <ele>494.905</ele>
        <time>2021-05-26T16:30:02Z</time>
      </trkpt>
      <trkpt lat="41.840794" lon="2.525661">
        <ele>494.508</ele>
        <time>2021-05-26T16:30:04Z</time>
      </trkpt>
      <trkpt lat="41.840812" lon="2.525643">
        <ele>494.318</ele>
        <time>2021-05-26T16:30:06Z</time>
      </trkpt>
      <trkpt lat="41.840842" lon="2.525622">
        <ele>494.255</ele>
        <time>2021-05-26T16:30:08Z</time>
      </trkpt>
      <trkpt lat="41.840861" lon="2.525597">
        <ele>494.592</ele>
        <time>2021-05-26T16:30:10Z</time>
      </trkpt>
      <trkpt lat="41.840876" lon="2.525566">
        <ele>494.556</ele>
        <time>2021-05-26T16:30:12Z</time>
      </trkpt>
      <trkpt lat="41.840882" lon="2.525535">
        <ele>494.391</ele>
        <time>2021-05-26T16:30:14Z</time>
      </trkpt>
      <trkpt lat="41.840888" lon="2.525497">
        <ele>494.171</ele>
        <time>2021-05-26T16:30:16Z</time>
      </trkpt>
      <trkpt lat="41.840944" lon="2.525382">
        <ele>494.587</ele>
        <time>2021-05-26T16:30:23Z</time>
      </trkpt>
      <trkpt lat="41.840963" lon="2.525346">
        <ele>494.622</ele>
        <time>2021-05-26T16:30:25Z</time>
      </trkpt>
      <trkpt lat="41.840975" lon="2.525316">
        <ele>494.667</ele>
        <time>2021-05-26T16:30:27Z</time>
      </trkpt>
      <trkpt lat="41.840990" lon="2.525292">
        <ele>494.781</ele>
        <time>2021-05-26T16:30:29Z</time>
      </trkpt>
      <trkpt lat="41.841008" lon="2.525273">
        <ele>494.919</ele>
        <time>2021-05-26T16:30:31Z</time>
      </trkpt>
      <trkpt lat="41.841026" lon="2.525257">
        <ele>495.108</ele>
        <time>2021-05-26T16:30:33Z</time>
      </trkpt>
      <trkpt lat="41.841036" lon="2.525237">
        <ele>495.083</ele>
        <time>2021-05-26T16:30:35Z</time>
      </trkpt>
      <trkpt lat="41.841046" lon="2.525215">
        <ele>494.830</ele>
        <time>2021-05-26T16:30:37Z</time>
      </trkpt>
      <trkpt lat="41.841062" lon="2.525194">
        <ele>494.867</ele>
        <time>2021-05-26T16:30:39Z</time>
      </trkpt>
      <trkpt lat="41.841075" lon="2.525174">
        <ele>494.841</ele>
        <time>2021-05-26T16:30:41Z</time>
      </trkpt>
      <trkpt lat="41.841088" lon="2.525155">
        <ele>494.756</ele>
        <time>2021-05-26T16:30:43Z</time>
      </trkpt>
      <trkpt lat="41.841107" lon="2.525136">
        <ele>494.816</ele>
        <time>2021-05-26T16:30:45Z</time>
      </trkpt>
      <trkpt lat="41.841125" lon="2.525124">
        <ele>495.212</ele>
        <time>2021-05-26T16:30:47Z</time>
      </trkpt>
      <trkpt lat="41.841144" lon="2.525114">
        <ele>495.657</ele>
        <time>2021-05-26T16:30:49Z</time>
      </trkpt>
      <trkpt lat="41.841163" lon="2.525104">
        <ele>496.014</ele>
        <time>2021-05-26T16:30:51Z</time>
      </trkpt>
      <trkpt lat="41.841181" lon="2.525096">
        <ele>496.454</ele>
        <time>2021-05-26T16:30:53Z</time>
      </trkpt>
      <trkpt lat="41.841203" lon="2.525082">
        <ele>496.809</ele>
        <time>2021-05-26T16:30:56Z</time>
      </trkpt>
      <trkpt lat="41.841220" lon="2.525055">
        <ele>496.808</ele>
        <time>2021-05-26T16:30:59Z</time>
      </trkpt>
      <trkpt lat="41.841239" lon="2.525048">
        <ele>497.378</ele>
        <time>2021-05-26T16:31:01Z</time>
      </trkpt>
      <trkpt lat="41.841260" lon="2.525041">
        <ele>497.835</ele>
        <time>2021-05-26T16:31:03Z</time>
      </trkpt>
      <trkpt lat="41.841290" lon="2.525032">
        <ele>498.652</ele>
        <time>2021-05-26T16:31:06Z</time>
      </trkpt>
      <trkpt lat="41.841312" lon="2.525028">
        <ele>499.246</ele>
        <time>2021-05-26T16:31:08Z</time>
      </trkpt>
      <trkpt lat="41.841382" lon="2.525016">
        <ele>501.271</ele>
        <time>2021-05-26T16:31:13Z</time>
      </trkpt>
      <trkpt lat="41.841412" lon="2.525003">
        <ele>501.661</ele>
        <time>2021-05-26T16:31:15Z</time>
      </trkpt>
      <trkpt lat="41.841432" lon="2.524987">
        <ele>501.417</ele>
        <time>2021-05-26T16:31:17Z</time>
      </trkpt>
      <trkpt lat="41.841460" lon="2.524969">
        <ele>501.222</ele>
        <time>2021-05-26T16:31:19Z</time>
      </trkpt>
      <trkpt lat="41.841483" lon="2.524954">
        <ele>501.096</ele>
        <time>2021-05-26T16:31:21Z</time>
      </trkpt>
      <trkpt lat="41.841510" lon="2.524944">
        <ele>501.231</ele>
        <time>2021-05-26T16:31:23Z</time>
      </trkpt>
      <trkpt lat="41.841534" lon="2.524935">
        <ele>501.324</ele>
        <time>2021-05-26T16:31:25Z</time>
      </trkpt>
      <trkpt lat="41.841556" lon="2.524918">
        <ele>501.108</ele>
        <time>2021-05-26T16:31:27Z</time>
      </trkpt>
      <trkpt lat="41.841579" lon="2.524902">
        <ele>500.996</ele>
        <time>2021-05-26T16:31:29Z</time>
      </trkpt>
      <trkpt lat="41.841597" lon="2.524889">
        <ele>500.743</ele>
        <time>2021-05-26T16:31:31Z</time>
      </trkpt>
      <trkpt lat="41.841618" lon="2.524881">
        <ele>500.850</ele>
        <time>2021-05-26T16:31:33Z</time>
      </trkpt>
      <trkpt lat="41.841651" lon="2.524871">
        <ele>501.124</ele>
        <time>2021-05-26T16:31:35Z</time>
      </trkpt>
      <trkpt lat="41.841680" lon="2.524864">
        <ele>501.389</ele>
        <time>2021-05-26T16:31:37Z</time>
      </trkpt>
      <trkpt lat="41.841704" lon="2.524852">
        <ele>501.179</ele>
        <time>2021-05-26T16:31:39Z</time>
      </trkpt>
      <trkpt lat="41.841724" lon="2.524832">
        <ele>500.685</ele>
        <time>2021-05-26T16:31:41Z</time>
      </trkpt>
      <trkpt lat="41.841740" lon="2.524815">
        <ele>500.150</ele>
        <time>2021-05-26T16:31:43Z</time>
      </trkpt>
      <trkpt lat="41.841754" lon="2.524791">
        <ele>499.265</ele>
        <time>2021-05-26T16:31:46Z</time>
      </trkpt>
      <trkpt lat="41.841762" lon="2.524759">
        <ele>498.068</ele>
        <time>2021-05-26T16:31:49Z</time>
      </trkpt>
      <trkpt lat="41.841768" lon="2.524727">
        <ele>496.714</ele>
        <time>2021-05-26T16:31:52Z</time>
      </trkpt>
      <trkpt lat="41.841780" lon="2.524710">
        <ele>496.008</ele>
        <time>2021-05-26T16:31:54Z</time>
      </trkpt>
      <trkpt lat="41.841794" lon="2.524693">
        <ele>495.473</ele>
        <time>2021-05-26T16:31:56Z</time>
      </trkpt>
      <trkpt lat="41.841810" lon="2.524679">
        <ele>495.190</ele>
        <time>2021-05-26T16:31:58Z</time>
      </trkpt>
      <trkpt lat="41.841827" lon="2.524673">
        <ele>495.187</ele>
        <time>2021-05-26T16:32:00Z</time>
      </trkpt>
      <trkpt lat="41.841855" lon="2.524677">
        <ele>495.711</ele>
        <time>2021-05-26T16:32:03Z</time>
      </trkpt>
      <trkpt lat="41.841879" lon="2.524686">
        <ele>496.516</ele>
        <time>2021-05-26T16:32:06Z</time>
      </trkpt>
      <trkpt lat="41.841901" lon="2.524685">
        <ele>496.886</ele>
        <time>2021-05-26T16:32:08Z</time>
      </trkpt>
      <trkpt lat="41.841922" lon="2.524696">
        <ele>497.642</ele>
        <time>2021-05-26T16:32:11Z</time>
      </trkpt>
      <trkpt lat="41.841960" lon="2.524773">
        <ele>500.827</ele>
        <time>2021-05-26T16:32:18Z</time>
      </trkpt>
      <trkpt lat="41.841979" lon="2.524790">
        <ele>501.185</ele>
        <time>2021-05-26T16:32:20Z</time>
      </trkpt>
      <trkpt lat="41.841993" lon="2.524814">
        <ele>501.789</ele>
        <time>2021-05-26T16:32:22Z</time>
      </trkpt>
      <trkpt lat="41.842009" lon="2.524843">
        <ele>502.317</ele>
        <time>2021-05-26T16:32:25Z</time>
      </trkpt>
      <trkpt lat="41.842016" lon="2.524869">
        <ele>503.108</ele>
        <time>2021-05-26T16:32:27Z</time>
      </trkpt>
      <trkpt lat="41.842020" lon="2.524898">
        <ele>504.015</ele>
        <time>2021-05-26T16:32:29Z</time>
      </trkpt>
      <trkpt lat="41.842027" lon="2.524928">
        <ele>504.932</ele>
        <time>2021-05-26T16:32:31Z</time>
      </trkpt>
      <trkpt lat="41.842031" lon="2.524953">
        <ele>505.619</ele>
        <time>2021-05-26T16:32:33Z</time>
      </trkpt>
      <trkpt lat="41.842033" lon="2.524979">
        <ele>506.493</ele>
        <time>2021-05-26T16:32:35Z</time>
      </trkpt>
      <trkpt lat="41.842039" lon="2.525006">
        <ele>507.128</ele>
        <time>2021-05-26T16:32:37Z</time>
      </trkpt>
      <trkpt lat="41.842044" lon="2.525033">
        <ele>507.688</ele>
        <time>2021-05-26T16:32:39Z</time>
      </trkpt>
      <trkpt lat="41.842064" lon="2.525109">
        <ele>508.874</ele>
        <time>2021-05-26T16:32:44Z</time>
      </trkpt>
      <trkpt lat="41.842073" lon="2.525142">
        <ele>509.319</ele>
        <time>2021-05-26T16:32:46Z</time>
      </trkpt>
      <trkpt lat="41.842073" lon="2.525177">
        <ele>510.214</ele>
        <time>2021-05-26T16:32:48Z</time>
      </trkpt>
      <trkpt lat="41.842067" lon="2.525304">
        <ele>513.754</ele>
        <time>2021-05-26T16:33:00Z</time>
      </trkpt>
      <trkpt lat="41.842093" lon="2.525438">
        <ele>515.309</ele>
        <time>2021-05-26T16:33:10Z</time>
      </trkpt>
      <trkpt lat="41.842114" lon="2.525576">
        <ele>517.408</ele>
        <time>2021-05-26T16:33:16Z</time>
      </trkpt>
      <trkpt lat="41.842144" lon="2.525693">
        <ele>519.478</ele>
        <time>2021-05-26T16:33:22Z</time>
      </trkpt>
      <trkpt lat="41.842177" lon="2.525817">
        <ele>521.755</ele>
        <time>2021-05-26T16:33:28Z</time>
      </trkpt>
      <trkpt lat="41.842241" lon="2.525909">
        <ele>522.832</ele>
        <time>2021-05-26T16:33:35Z</time>
      </trkpt>
      <trkpt lat="41.842289" lon="2.526021">
        <ele>525.226</ele>
        <time>2021-05-26T16:33:47Z</time>
      </trkpt>
      <trkpt lat="41.842380" lon="2.526067">
        <ele>524.331</ele>
        <time>2021-05-26T16:33:58Z</time>
      </trkpt>
      <trkpt lat="41.842467" lon="2.526135">
        <ele>524.781</ele>
        <time>2021-05-26T16:34:05Z</time>
      </trkpt>
      <trkpt lat="41.842550" lon="2.526192">
        <ele>524.887</ele>
        <time>2021-05-26T16:34:15Z</time>
      </trkpt>
      <trkpt lat="41.842637" lon="2.526250">
        <ele>524.622</ele>
        <time>2021-05-26T16:34:23Z</time>
      </trkpt>
      <trkpt lat="41.842716" lon="2.526319">
        <ele>524.645</ele>
        <time>2021-05-26T16:34:33Z</time>
      </trkpt>
      <trkpt lat="41.842783" lon="2.526413">
        <ele>525.447</ele>
        <time>2021-05-26T16:34:44Z</time>
      </trkpt>
      <trkpt lat="41.842850" lon="2.526501">
        <ele>525.111</ele>
        <time>2021-05-26T16:34:53Z</time>
      </trkpt>
      <trkpt lat="41.842929" lon="2.526569">
        <ele>523.708</ele>
        <time>2021-05-26T16:35:01Z</time>
      </trkpt>
      <trkpt lat="41.842999" lon="2.526652">
        <ele>522.971</ele>
        <time>2021-05-26T16:35:11Z</time>
      </trkpt>
      <trkpt lat="41.843015" lon="2.526697">
        <ele>523.618</ele>
        <time>2021-05-26T16:35:15Z</time>
      </trkpt>
      <trkpt lat="41.843027" lon="2.526731">
        <ele>524.265</ele>
        <time>2021-05-26T16:35:17Z</time>
      </trkpt>
      <trkpt lat="41.843028" lon="2.526758">
        <ele>525.199</ele>
        <time>2021-05-26T16:35:19Z</time>
      </trkpt>
      <trkpt lat="41.843023" lon="2.526787">
        <ele>526.254</ele>
        <time>2021-05-26T16:35:26Z</time>
      </trkpt>
      <trkpt lat="41.843015" lon="2.526813">
        <ele>527.464</ele>
        <time>2021-05-26T16:35:28Z</time>
      </trkpt>
      <trkpt lat="41.843024" lon="2.526842">
        <ele>528.040</ele>
        <time>2021-05-26T16:35:38Z</time>
      </trkpt>
      <trkpt lat="41.843022" lon="2.526872">
        <ele>529.145</ele>
        <time>2021-05-26T16:35:40Z</time>
      </trkpt>
      <trkpt lat="41.843021" lon="2.526903">
        <ele>530.151</ele>
        <time>2021-05-26T16:35:42Z</time>
      </trkpt>
      <trkpt lat="41.843024" lon="2.526937">
        <ele>531.101</ele>
        <time>2021-05-26T16:35:44Z</time>
      </trkpt>
      <trkpt lat="41.843033" lon="2.526967">
        <ele>531.611</ele>
        <time>2021-05-26T16:35:46Z</time>
      </trkpt>
      <trkpt lat="41.843041" lon="2.527005">
        <ele>532.408</ele>
        <time>2021-05-26T16:35:48Z</time>
      </trkpt>
      <trkpt lat="41.843049" lon="2.527038">
        <ele>533.052</ele>
        <time>2021-05-26T16:35:50Z</time>
      </trkpt>
      <trkpt lat="41.843057" lon="2.527074">
        <ele>533.719</ele>
        <time>2021-05-26T16:35:52Z</time>
      </trkpt>
      <trkpt lat="41.843073" lon="2.527107">
        <ele>534.096</ele>
        <time>2021-05-26T16:35:54Z</time>
      </trkpt>
      <trkpt lat="41.843088" lon="2.527132">
        <ele>534.240</ele>
        <time>2021-05-26T16:35:56Z</time>
      </trkpt>
      <trkpt lat="41.843099" lon="2.527158">
        <ele>534.565</ele>
        <time>2021-05-26T16:35:58Z</time>
      </trkpt>
      <trkpt lat="41.843109" lon="2.527184">
        <ele>534.845</ele>
        <time>2021-05-26T16:36:00Z</time>
      </trkpt>
      <trkpt lat="41.843123" lon="2.527205">
        <ele>534.981</ele>
        <time>2021-05-26T16:36:02Z</time>
      </trkpt>
      <trkpt lat="41.843138" lon="2.527224">
        <ele>534.876</ele>
        <time>2021-05-26T16:36:04Z</time>
      </trkpt>
      <trkpt lat="41.843152" lon="2.527247">
        <ele>534.788</ele>
        <time>2021-05-26T16:36:06Z</time>
      </trkpt>
      <trkpt lat="41.843164" lon="2.527274">
        <ele>534.824</ele>
        <time>2021-05-26T16:36:08Z</time>
      </trkpt>
      <trkpt lat="41.843175" lon="2.527301">
        <ele>535.026</ele>
        <time>2021-05-26T16:36:10Z</time>
      </trkpt>
      <trkpt lat="41.843184" lon="2.527327">
        <ele>535.208</ele>
        <time>2021-05-26T16:36:12Z</time>
      </trkpt>
      <trkpt lat="41.843200" lon="2.527349">
        <ele>535.045</ele>
        <time>2021-05-26T16:36:14Z</time>
      </trkpt>
      <trkpt lat="41.843217" lon="2.527374">
        <ele>534.972</ele>
        <time>2021-05-26T16:36:16Z</time>
      </trkpt>
      <trkpt lat="41.843228" lon="2.527400">
        <ele>535.049</ele>
        <time>2021-05-26T16:36:18Z</time>
      </trkpt>
      <trkpt lat="41.843238" lon="2.527420">
        <ele>535.083</ele>
        <time>2021-05-26T16:36:20Z</time>
      </trkpt>
      <trkpt lat="41.843252" lon="2.527442">
        <ele>535.098</ele>
        <time>2021-05-26T16:36:22Z</time>
      </trkpt>
      <trkpt lat="41.843258" lon="2.527476">
        <ele>535.568</ele>
        <time>2021-05-26T16:36:24Z</time>
      </trkpt>
      <trkpt lat="41.843265" lon="2.527505">
        <ele>535.854</ele>
        <time>2021-05-26T16:36:27Z</time>
      </trkpt>
      <trkpt lat="41.843279" lon="2.527523">
        <ele>535.419</ele>
        <time>2021-05-26T16:36:36Z</time>
      </trkpt>
      <trkpt lat="41.843280" lon="2.527552">
        <ele>535.772</ele>
        <time>2021-05-26T16:36:46Z</time>
      </trkpt>
      <trkpt lat="41.843293" lon="2.527581">
        <ele>535.513</ele>
        <time>2021-05-26T16:37:00Z</time>
      </trkpt>
      <trkpt lat="41.843311" lon="2.527603">
        <ele>535.014</ele>
        <time>2021-05-26T16:37:02Z</time>
      </trkpt>
      <trkpt lat="41.843330" lon="2.527625">
        <ele>534.508</ele>
        <time>2021-05-26T16:37:04Z</time>
      </trkpt>
      <trkpt lat="41.843350" lon="2.527648">
        <ele>534.294</ele>
        <time>2021-05-26T16:37:06Z</time>
      </trkpt>
      <trkpt lat="41.843369" lon="2.527670">
        <ele>534.111</ele>
        <time>2021-05-26T16:37:08Z</time>
      </trkpt>
      <trkpt lat="41.843379" lon="2.527704">
        <ele>534.348</ele>
        <time>2021-05-26T16:37:10Z</time>
      </trkpt>
      <trkpt lat="41.843392" lon="2.527736">
        <ele>534.432</ele>
        <time>2021-05-26T16:37:12Z</time>
      </trkpt>
      <trkpt lat="41.843404" lon="2.527768">
        <ele>534.637</ele>
        <time>2021-05-26T16:37:14Z</time>
      </trkpt>
      <trkpt lat="41.843420" lon="2.527793">
        <ele>534.627</ele>
        <time>2021-05-26T16:37:16Z</time>
      </trkpt>
      <trkpt lat="41.843437" lon="2.527817">
        <ele>534.693</ele>
        <time>2021-05-26T16:37:18Z</time>
      </trkpt>
      <trkpt lat="41.843452" lon="2.527844">
        <ele>534.628</ele>
        <time>2021-05-26T16:37:20Z</time>
      </trkpt>
      <trkpt lat="41.843467" lon="2.527864">
        <ele>534.527</ele>
        <time>2021-05-26T16:37:22Z</time>
      </trkpt>
      <trkpt lat="41.843470" lon="2.527896">
        <ele>534.868</ele>
        <time>2021-05-26T16:37:24Z</time>
      </trkpt>
      <trkpt lat="41.843482" lon="2.527922">
        <ele>534.914</ele>
        <time>2021-05-26T16:37:26Z</time>
      </trkpt>
      <trkpt lat="41.843506" lon="2.527979">
        <ele>535.108</ele>
        <time>2021-05-26T16:37:30Z</time>
      </trkpt>
      <trkpt lat="41.843597" lon="2.527981">
        <ele>533.499</ele>
        <time>2021-05-26T16:37:38Z</time>
      </trkpt>
      <trkpt lat="41.843697" lon="2.527996">
        <ele>532.736</ele>
        <time>2021-05-26T16:37:43Z</time>
      </trkpt>
      <trkpt lat="41.843722" lon="2.527994">
        <ele>532.523</ele>
        <time>2021-05-26T16:37:45Z</time>
      </trkpt>
      <trkpt lat="41.843745" lon="2.527988">
        <ele>532.357</ele>
        <time>2021-05-26T16:37:47Z</time>
      </trkpt>
      <trkpt lat="41.843763" lon="2.527981">
        <ele>532.172</ele>
        <time>2021-05-26T16:37:49Z</time>
      </trkpt>
      <trkpt lat="41.843788" lon="2.527978">
        <ele>531.922</ele>
        <time>2021-05-26T16:37:51Z</time>
      </trkpt>
      <trkpt lat="41.843812" lon="2.527977">
        <ele>531.778</ele>
        <time>2021-05-26T16:37:53Z</time>
      </trkpt>
      <trkpt lat="41.843835" lon="2.527974">
        <ele>531.563</ele>
        <time>2021-05-26T16:37:55Z</time>
      </trkpt>
      <trkpt lat="41.843865" lon="2.527978">
        <ele>531.363</ele>
        <time>2021-05-26T16:37:58Z</time>
      </trkpt>
      <trkpt lat="41.843891" lon="2.527985">
        <ele>531.244</ele>
        <time>2021-05-26T16:38:00Z</time>
      </trkpt>
      <trkpt lat="41.843912" lon="2.527979">
        <ele>531.218</ele>
        <time>2021-05-26T16:38:02Z</time>
      </trkpt>
      <trkpt lat="41.843935" lon="2.527969">
        <ele>531.108</ele>
        <time>2021-05-26T16:38:04Z</time>
      </trkpt>
      <trkpt lat="41.843956" lon="2.527954">
        <ele>531.023</ele>
        <time>2021-05-26T16:38:06Z</time>
      </trkpt>
      <trkpt lat="41.843983" lon="2.527938">
        <ele>530.990</ele>
        <time>2021-05-26T16:38:08Z</time>
      </trkpt>
      <trkpt lat="41.844000" lon="2.527938">
        <ele>530.917</ele>
        <time>2021-05-26T16:38:10Z</time>
      </trkpt>
      <trkpt lat="41.844014" lon="2.527951">
        <ele>531.091</ele>
        <time>2021-05-26T16:38:13Z</time>
      </trkpt>
      <trkpt lat="41.844031" lon="2.527964">
        <ele>531.266</ele>
        <time>2021-05-26T16:38:41Z</time>
      </trkpt>
      <trkpt lat="41.844020" lon="2.527944">
        <ele>531.056</ele>
        <time>2021-05-26T16:39:42Z</time>
      </trkpt>
      <trkpt lat="41.844038" lon="2.527938">
        <ele>531.032</ele>
        <time>2021-05-26T16:39:58Z</time>
      </trkpt>
      <trkpt lat="41.844048" lon="2.527907">
        <ele>530.797</ele>
        <time>2021-05-26T16:40:34Z</time>
      </trkpt>
      <trkpt lat="41.844048" lon="2.527866">
        <ele>530.345</ele>
        <time>2021-05-26T16:40:37Z</time>
      </trkpt>
      <trkpt lat="41.844044" lon="2.527837">
        <ele>530.147</ele>
        <time>2021-05-26T16:40:40Z</time>
      </trkpt>
      <trkpt lat="41.844043" lon="2.527867">
        <ele>530.311</ele>
        <time>2021-05-26T16:40:46Z</time>
      </trkpt>
      <trkpt lat="41.844037" lon="2.527893">
        <ele>530.608</ele>
        <time>2021-05-26T16:40:48Z</time>
      </trkpt>
      <trkpt lat="41.844032" lon="2.527918">
        <ele>530.851</ele>
        <time>2021-05-26T16:40:50Z</time>
      </trkpt>
      <trkpt lat="41.844031" lon="2.527942">
        <ele>531.098</ele>
        <time>2021-05-26T16:40:53Z</time>
      </trkpt>
      <trkpt lat="41.844015" lon="2.527964">
        <ele>531.235</ele>
        <time>2021-05-26T16:48:27Z</time>
      </trkpt>
      <trkpt lat="41.844005" lon="2.527944">
        <ele>531.099</ele>
        <time>2021-05-26T16:48:40Z</time>
      </trkpt>
      <trkpt lat="41.844014" lon="2.527947">
        <ele>531.024</ele>
        <time>2021-05-26T16:51:33Z</time>
      </trkpt>
      <trkpt lat="41.844076" lon="2.527936">
        <ele>531.084</ele>
        <time>2021-05-26T17:15:40Z</time>
      </trkpt>
      <trkpt lat="41.844082" lon="2.527905">
        <ele>530.880</ele>
        <time>2021-05-26T17:15:53Z</time>
      </trkpt>
      <trkpt lat="41.844088" lon="2.527871">
        <ele>530.535</ele>
        <time>2021-05-26T17:15:55Z</time>
      </trkpt>
      <trkpt lat="41.844097" lon="2.527837">
        <ele>530.285</ele>
        <time>2021-05-26T17:15:57Z</time>
      </trkpt>
      <trkpt lat="41.844107" lon="2.527805">
        <ele>530.089</ele>
        <time>2021-05-26T17:15:59Z</time>
      </trkpt>
      <trkpt lat="41.844102" lon="2.527780">
        <ele>529.817</ele>
        <time>2021-05-26T17:16:01Z</time>
      </trkpt>
      <trkpt lat="41.844109" lon="2.527747">
        <ele>529.308</ele>
        <time>2021-05-26T17:16:03Z</time>
      </trkpt>
      <trkpt lat="41.844126" lon="2.527722">
        <ele>529.095</ele>
        <time>2021-05-26T17:16:05Z</time>
      </trkpt>
      <trkpt lat="41.844146" lon="2.527705">
        <ele>528.962</ele>
        <time>2021-05-26T17:16:07Z</time>
      </trkpt>
      <trkpt lat="41.844175" lon="2.527688">
        <ele>528.819</ele>
        <time>2021-05-26T17:16:09Z</time>
      </trkpt>
      <trkpt lat="41.844208" lon="2.527673">
        <ele>528.813</ele>
        <time>2021-05-26T17:16:11Z</time>
      </trkpt>
      <trkpt lat="41.844234" lon="2.527663">
        <ele>528.998</ele>
        <time>2021-05-26T17:16:12Z</time>
      </trkpt>
      <trkpt lat="41.844259" lon="2.527643">
        <ele>528.988</ele>
        <time>2021-05-26T17:16:14Z</time>
      </trkpt>
      <trkpt lat="41.844282" lon="2.527622">
        <ele>528.924</ele>
        <time>2021-05-26T17:16:16Z</time>
      </trkpt>
      <trkpt lat="41.844306" lon="2.527599">
        <ele>528.919</ele>
        <time>2021-05-26T17:16:18Z</time>
      </trkpt>
      <trkpt lat="41.844332" lon="2.527580">
        <ele>529.034</ele>
        <time>2021-05-26T17:16:20Z</time>
      </trkpt>
      <trkpt lat="41.844359" lon="2.527561">
        <ele>529.255</ele>
        <time>2021-05-26T17:16:22Z</time>
      </trkpt>
      <trkpt lat="41.844387" lon="2.527542">
        <ele>529.410</ele>
        <time>2021-05-26T17:16:24Z</time>
      </trkpt>
      <trkpt lat="41.844411" lon="2.527523">
        <ele>529.608</ele>
        <time>2021-05-26T17:16:26Z</time>
      </trkpt>
      <trkpt lat="41.844430" lon="2.527504">
        <ele>529.820</ele>
        <time>2021-05-26T17:16:28Z</time>
      </trkpt>
      <trkpt lat="41.844447" lon="2.527482">
        <ele>529.987</ele>
        <time>2021-05-26T17:16:30Z</time>
      </trkpt>
      <trkpt lat="41.844472" lon="2.527448">
        <ele>530.324</ele>
        <time>2021-05-26T17:16:32Z</time>
      </trkpt>
      <trkpt lat="41.844490" lon="2.527419">
        <ele>530.648</ele>
        <time>2021-05-26T17:16:34Z</time>
      </trkpt>
      <trkpt lat="41.844504" lon="2.527391">
        <ele>530.843</ele>
        <time>2021-05-26T17:16:36Z</time>
      </trkpt>
      <trkpt lat="41.844525" lon="2.527359">
        <ele>531.263</ele>
        <time>2021-05-26T17:16:38Z</time>
      </trkpt>
      <trkpt lat="41.844543" lon="2.527321">
        <ele>531.499</ele>
        <time>2021-05-26T17:16:40Z</time>
      </trkpt>
      <trkpt lat="41.844556" lon="2.527282">
        <ele>531.694</ele>
        <time>2021-05-26T17:16:42Z</time>
      </trkpt>
      <trkpt lat="41.844571" lon="2.527243">
        <ele>531.881</ele>
        <time>2021-05-26T17:16:44Z</time>
      </trkpt>
      <trkpt lat="41.844579" lon="2.527205">
        <ele>531.861</ele>
        <time>2021-05-26T17:16:46Z</time>
      </trkpt>
      <trkpt lat="41.844585" lon="2.527172">
        <ele>531.817</ele>
        <time>2021-05-26T17:16:48Z</time>
      </trkpt>
      <trkpt lat="41.844592" lon="2.527133">
        <ele>531.808</ele>
        <time>2021-05-26T17:16:50Z</time>
      </trkpt>
      <trkpt lat="41.844589" lon="2.527096">
        <ele>531.535</ele>
        <time>2021-05-26T17:16:52Z</time>
      </trkpt>
      <trkpt lat="41.844588" lon="2.527062">
        <ele>531.312</ele>
        <time>2021-05-26T17:16:54Z</time>
      </trkpt>
      <trkpt lat="41.844592" lon="2.527026">
        <ele>531.269</ele>
        <time>2021-05-26T17:16:56Z</time>
      </trkpt>
      <trkpt lat="41.844594" lon="2.526986">
        <ele>531.133</ele>
        <time>2021-05-26T17:16:58Z</time>
      </trkpt>
      <trkpt lat="41.844598" lon="2.526948">
        <ele>531.028</ele>
        <time>2021-05-26T17:17:00Z</time>
      </trkpt>
      <trkpt lat="41.844614" lon="2.526912">
        <ele>531.388</ele>
        <time>2021-05-26T17:17:02Z</time>
      </trkpt>
      <trkpt lat="41.844630" lon="2.526876">
        <ele>531.584</ele>
        <time>2021-05-26T17:17:04Z</time>
      </trkpt>
      <trkpt lat="41.844649" lon="2.526848">
        <ele>531.939</ele>
        <time>2021-05-26T17:17:06Z</time>
      </trkpt>
      <trkpt lat="41.844664" lon="2.526824">
        <ele>532.265</ele>
        <time>2021-05-26T17:17:08Z</time>
      </trkpt>
      <trkpt lat="41.844678" lon="2.526795">
        <ele>532.568</ele>
        <time>2021-05-26T17:17:10Z</time>
      </trkpt>
      <trkpt lat="41.844695" lon="2.526770">
        <ele>532.914</ele>
        <time>2021-05-26T17:17:12Z</time>
      </trkpt>
      <trkpt lat="41.844709" lon="2.526746">
        <ele>533.108</ele>
        <time>2021-05-26T17:17:14Z</time>
      </trkpt>
      <trkpt lat="41.844728" lon="2.526743">
        <ele>533.773</ele>
        <time>2021-05-26T17:17:16Z</time>
      </trkpt>
      <trkpt lat="41.844755" lon="2.526745">
        <ele>534.390</ele>
        <time>2021-05-26T17:17:18Z</time>
      </trkpt>
      <trkpt lat="41.844779" lon="2.526745">
        <ele>534.957</ele>
        <time>2021-05-26T17:17:20Z</time>
      </trkpt>
      <trkpt lat="41.844806" lon="2.526744">
        <ele>535.581</ele>
        <time>2021-05-26T17:17:23Z</time>
      </trkpt>
      <trkpt lat="41.844830" lon="2.526734">
        <ele>536.086</ele>
        <time>2021-05-26T17:17:26Z</time>
      </trkpt>
      <trkpt lat="41.844851" lon="2.526725">
        <ele>536.476</ele>
        <time>2021-05-26T17:17:28Z</time>
      </trkpt>
      <trkpt lat="41.844871" lon="2.526727">
        <ele>536.912</ele>
        <time>2021-05-26T17:17:30Z</time>
      </trkpt>
      <trkpt lat="41.844890" lon="2.526727">
        <ele>537.317</ele>
        <time>2021-05-26T17:17:32Z</time>
      </trkpt>
      <trkpt lat="41.844914" lon="2.526724">
        <ele>537.825</ele>
        <time>2021-05-26T17:17:34Z</time>
      </trkpt>
      <trkpt lat="41.844938" lon="2.526720">
        <ele>538.326</ele>
        <time>2021-05-26T17:17:36Z</time>
      </trkpt>
      <trkpt lat="41.844962" lon="2.526715">
        <ele>538.808</ele>
        <time>2021-05-26T17:17:38Z</time>
      </trkpt>
      <trkpt lat="41.844979" lon="2.526701">
        <ele>539.008</ele>
        <time>2021-05-26T17:17:40Z</time>
      </trkpt>
      <trkpt lat="41.844999" lon="2.526697">
        <ele>539.429</ele>
        <time>2021-05-26T17:17:42Z</time>
      </trkpt>
      <trkpt lat="41.845026" lon="2.526709">
        <ele>540.156</ele>
        <time>2021-05-26T17:17:44Z</time>
      </trkpt>
      <trkpt lat="41.845057" lon="2.526713">
        <ele>540.733</ele>
        <time>2021-05-26T17:17:46Z</time>
      </trkpt>
      <trkpt lat="41.845080" lon="2.526706">
        <ele>541.037</ele>
        <time>2021-05-26T17:17:48Z</time>
      </trkpt>
      <trkpt lat="41.845101" lon="2.526704">
        <ele>541.482</ele>
        <time>2021-05-26T17:17:50Z</time>
      </trkpt>
      <trkpt lat="41.845124" lon="2.526701">
        <ele>541.782</ele>
        <time>2021-05-26T17:17:52Z</time>
      </trkpt>
      <trkpt lat="41.845147" lon="2.526710">
        <ele>542.328</ele>
        <time>2021-05-26T17:17:54Z</time>
      </trkpt>
      <trkpt lat="41.845173" lon="2.526718">
        <ele>542.963</ele>
        <time>2021-05-26T17:17:56Z</time>
      </trkpt>
      <trkpt lat="41.845194" lon="2.526724">
        <ele>543.339</ele>
        <time>2021-05-26T17:17:59Z</time>
      </trkpt>
      <trkpt lat="41.845213" lon="2.526728">
        <ele>543.701</ele>
        <time>2021-05-26T17:18:02Z</time>
      </trkpt>
      <trkpt lat="41.845233" lon="2.526732">
        <ele>544.121</ele>
        <time>2021-05-26T17:18:04Z</time>
      </trkpt>
      <trkpt lat="41.845250" lon="2.526748">
        <ele>544.708</ele>
        <time>2021-05-26T17:18:07Z</time>
      </trkpt>
      <trkpt lat="41.845271" lon="2.526737">
        <ele>544.940</ele>
        <time>2021-05-26T17:18:11Z</time>
      </trkpt>
      <trkpt lat="41.845289" lon="2.526748">
        <ele>545.487</ele>
        <time>2021-05-26T17:18:13Z</time>
      </trkpt>
      <trkpt lat="41.845312" lon="2.526767">
        <ele>546.074</ele>
        <time>2021-05-26T17:18:16Z</time>
      </trkpt>
      <trkpt lat="41.845336" lon="2.526774">
        <ele>546.418</ele>
        <time>2021-05-26T17:18:18Z</time>
      </trkpt>
      <trkpt lat="41.845359" lon="2.526781">
        <ele>546.953</ele>
        <time>2021-05-26T17:18:20Z</time>
      </trkpt>
      <trkpt lat="41.845377" lon="2.526782">
        <ele>547.143</ele>
        <time>2021-05-26T17:18:22Z</time>
      </trkpt>
      <trkpt lat="41.845400" lon="2.526766">
        <ele>547.339</ele>
        <time>2021-05-26T17:18:24Z</time>
      </trkpt>
      <trkpt lat="41.845420" lon="2.526752">
        <ele>547.554</ele>
        <time>2021-05-26T17:18:26Z</time>
      </trkpt>
      <trkpt lat="41.845448" lon="2.526757">
        <ele>548.072</ele>
        <time>2021-05-26T17:18:29Z</time>
      </trkpt>
      <trkpt lat="41.845468" lon="2.526768">
        <ele>548.413</ele>
        <time>2021-05-26T17:18:31Z</time>
      </trkpt>
      <trkpt lat="41.845487" lon="2.526785">
        <ele>548.814</ele>
        <time>2021-05-26T17:18:33Z</time>
      </trkpt>
      <trkpt lat="41.845512" lon="2.526779">
        <ele>549.208</ele>
        <time>2021-05-26T17:18:35Z</time>
      </trkpt>
      <trkpt lat="41.845532" lon="2.526765">
        <ele>549.374</ele>
        <time>2021-05-26T17:18:37Z</time>
      </trkpt>
      <trkpt lat="41.845549" lon="2.526751">
        <ele>549.581</ele>
        <time>2021-05-26T17:18:39Z</time>
      </trkpt>
      <trkpt lat="41.845570" lon="2.526736">
        <ele>549.888</ele>
        <time>2021-05-26T17:18:41Z</time>
      </trkpt>
      <trkpt lat="41.845592" lon="2.526714">
        <ele>550.092</ele>
        <time>2021-05-26T17:18:43Z</time>
      </trkpt>
      <trkpt lat="41.845610" lon="2.526695">
        <ele>550.277</ele>
        <time>2021-05-26T17:18:45Z</time>
      </trkpt>
      <trkpt lat="41.845630" lon="2.526679">
        <ele>550.427</ele>
        <time>2021-05-26T17:18:47Z</time>
      </trkpt>
      <trkpt lat="41.845651" lon="2.526665">
        <ele>550.753</ele>
        <time>2021-05-26T17:18:49Z</time>
      </trkpt>
      <trkpt lat="41.845665" lon="2.526645">
        <ele>550.628</ele>
        <time>2021-05-26T17:18:51Z</time>
      </trkpt>
      <trkpt lat="41.845679" lon="2.526625">
        <ele>550.547</ele>
        <time>2021-05-26T17:18:53Z</time>
      </trkpt>
      <trkpt lat="41.845701" lon="2.526607">
        <ele>550.629</ele>
        <time>2021-05-26T17:18:55Z</time>
      </trkpt>
      <trkpt lat="41.845725" lon="2.526581">
        <ele>550.621</ele>
        <time>2021-05-26T17:18:57Z</time>
      </trkpt>
      <trkpt lat="41.845745" lon="2.526567">
        <ele>550.708</ele>
        <time>2021-05-26T17:18:59Z</time>
      </trkpt>
      <trkpt lat="41.845762" lon="2.526560">
        <ele>551.091</ele>
        <time>2021-05-26T17:19:01Z</time>
      </trkpt>
      <trkpt lat="41.845784" lon="2.526557">
        <ele>551.478</ele>
        <time>2021-05-26T17:19:03Z</time>
      </trkpt>
      <trkpt lat="41.845806" lon="2.526570">
        <ele>552.095</ele>
        <time>2021-05-26T17:19:05Z</time>
      </trkpt>
      <trkpt lat="41.845829" lon="2.526580">
        <ele>552.779</ele>
        <time>2021-05-26T17:19:07Z</time>
      </trkpt>
      <trkpt lat="41.845844" lon="2.526595">
        <ele>553.254</ele>
        <time>2021-05-26T17:19:11Z</time>
      </trkpt>
      <trkpt lat="41.845862" lon="2.526611">
        <ele>553.974</ele>
        <time>2021-05-26T17:19:12Z</time>
      </trkpt>
      <trkpt lat="41.845896" lon="2.526607">
        <ele>554.750</ele>
        <time>2021-05-26T17:19:14Z</time>
      </trkpt>
      <trkpt lat="41.845920" lon="2.526617">
        <ele>555.585</ele>
        <time>2021-05-26T17:19:16Z</time>
      </trkpt>
      <trkpt lat="41.845943" lon="2.526624">
        <ele>556.124</ele>
        <time>2021-05-26T17:19:18Z</time>
      </trkpt>
      <trkpt lat="41.845970" lon="2.526633">
        <ele>557.004</ele>
        <time>2021-05-26T17:19:20Z</time>
      </trkpt>
      <trkpt lat="41.845994" lon="2.526641">
        <ele>557.714</ele>
        <time>2021-05-26T17:19:22Z</time>
      </trkpt>
      <trkpt lat="41.846017" lon="2.526661">
        <ele>558.508</ele>
        <time>2021-05-26T17:19:24Z</time>
      </trkpt>
      <trkpt lat="41.846034" lon="2.526690">
        <ele>559.219</ele>
        <time>2021-05-26T17:19:26Z</time>
      </trkpt>
      <trkpt lat="41.846044" lon="2.526721">
        <ele>559.796</ele>
        <time>2021-05-26T17:19:29Z</time>
      </trkpt>
      <trkpt lat="41.846051" lon="2.526757">
        <ele>560.123</ele>
        <time>2021-05-26T17:19:30Z</time>
      </trkpt>
      <trkpt lat="41.846055" lon="2.526794">
        <ele>560.597</ele>
        <time>2021-05-26T17:19:32Z</time>
      </trkpt>
      <trkpt lat="41.846062" lon="2.526816">
        <ele>560.832</ele>
        <time>2021-05-26T17:19:35Z</time>
      </trkpt>
      <trkpt lat="41.846070" lon="2.526841">
        <ele>561.252</ele>
        <time>2021-05-26T17:19:37Z</time>
      </trkpt>
      <trkpt lat="41.846085" lon="2.526870">
        <ele>561.898</ele>
        <time>2021-05-26T17:19:39Z</time>
      </trkpt>
      <trkpt lat="41.846103" lon="2.526903">
        <ele>562.513</ele>
        <time>2021-05-26T17:19:41Z</time>
      </trkpt>
      <trkpt lat="41.846119" lon="2.526932">
        <ele>563.168</ele>
        <time>2021-05-26T17:19:43Z</time>
      </trkpt>
      <trkpt lat="41.846138" lon="2.526955">
        <ele>563.542</ele>
        <time>2021-05-26T17:19:45Z</time>
      </trkpt>
      <trkpt lat="41.846156" lon="2.526974">
        <ele>563.926</ele>
        <time>2021-05-26T17:19:48Z</time>
      </trkpt>
      <trkpt lat="41.846176" lon="2.526991">
        <ele>564.208</ele>
        <time>2021-05-26T17:19:49Z</time>
      </trkpt>
      <trkpt lat="41.846195" lon="2.527012">
        <ele>564.613</ele>
        <time>2021-05-26T17:19:51Z</time>
      </trkpt>
      <trkpt lat="41.846213" lon="2.527030">
        <ele>564.930</ele>
        <time>2021-05-26T17:19:53Z</time>
      </trkpt>
      <trkpt lat="41.846234" lon="2.527029">
        <ele>565.487</ele>
        <time>2021-05-26T17:19:55Z</time>
      </trkpt>
      <trkpt lat="41.846257" lon="2.527030">
        <ele>565.831</ele>
        <time>2021-05-26T17:19:58Z</time>
      </trkpt>
      <trkpt lat="41.846285" lon="2.527024">
        <ele>566.516</ele>
        <time>2021-05-26T17:20:01Z</time>
      </trkpt>
      <trkpt lat="41.846301" lon="2.527006">
        <ele>566.926</ele>
        <time>2021-05-26T17:20:03Z</time>
      </trkpt>
      <trkpt lat="41.846327" lon="2.526997">
        <ele>567.552</ele>
        <time>2021-05-26T17:20:06Z</time>
      </trkpt>
      <trkpt lat="41.846354" lon="2.526992">
        <ele>568.187</ele>
        <time>2021-05-26T17:20:08Z</time>
      </trkpt>
      <trkpt lat="41.846380" lon="2.526982">
        <ele>568.785</ele>
        <time>2021-05-26T17:20:10Z</time>
      </trkpt>
      <trkpt lat="41.846395" lon="2.526966">
        <ele>569.089</ele>
        <time>2021-05-26T17:20:12Z</time>
      </trkpt>
      <trkpt lat="41.846421" lon="2.526956">
        <ele>569.517</ele>
        <time>2021-05-26T17:20:14Z</time>
      </trkpt>
      <trkpt lat="41.846448" lon="2.526943">
        <ele>570.108</ele>
        <time>2021-05-26T17:20:16Z</time>
      </trkpt>
      <trkpt lat="41.846477" lon="2.526935">
        <ele>570.525</ele>
        <time>2021-05-26T17:20:18Z</time>
      </trkpt>
      <trkpt lat="41.846492" lon="2.526916">
        <ele>570.732</ele>
        <time>2021-05-26T17:20:20Z</time>
      </trkpt>
      <trkpt lat="41.846505" lon="2.526897">
        <ele>570.879</ele>
        <time>2021-05-26T17:20:22Z</time>
      </trkpt>
      <trkpt lat="41.846532" lon="2.526875">
        <ele>571.293</ele>
        <time>2021-05-26T17:20:25Z</time>
      </trkpt>
      <trkpt lat="41.846550" lon="2.526869">
        <ele>571.588</ele>
        <time>2021-05-26T17:20:28Z</time>
      </trkpt>
      <trkpt lat="41.846570" lon="2.526856">
        <ele>571.878</ele>
        <time>2021-05-26T17:20:30Z</time>
      </trkpt>
      <trkpt lat="41.846591" lon="2.526837">
        <ele>572.114</ele>
        <time>2021-05-26T17:20:32Z</time>
      </trkpt>
      <trkpt lat="41.846611" lon="2.526821">
        <ele>572.599</ele>
        <time>2021-05-26T17:20:34Z</time>
      </trkpt>
      <trkpt lat="41.846628" lon="2.526808">
        <ele>572.716</ele>
        <time>2021-05-26T17:20:36Z</time>
      </trkpt>
      <trkpt lat="41.846648" lon="2.526782">
        <ele>573.076</ele>
        <time>2021-05-26T17:20:38Z</time>
      </trkpt>
      <trkpt lat="41.846665" lon="2.526762">
        <ele>573.313</ele>
        <time>2021-05-26T17:20:40Z</time>
      </trkpt>
      <trkpt lat="41.846683" lon="2.526748">
        <ele>573.508</ele>
        <time>2021-05-26T17:20:42Z</time>
      </trkpt>
      <trkpt lat="41.846706" lon="2.526748">
        <ele>573.848</ele>
        <time>2021-05-26T17:20:45Z</time>
      </trkpt>
      <trkpt lat="41.846728" lon="2.526740">
        <ele>574.015</ele>
        <time>2021-05-26T17:20:48Z</time>
      </trkpt>
      <trkpt lat="41.846754" lon="2.526739">
        <ele>574.312</ele>
        <time>2021-05-26T17:20:51Z</time>
      </trkpt>
      <trkpt lat="41.846776" lon="2.526760">
        <ele>574.696</ele>
        <time>2021-05-26T17:20:54Z</time>
      </trkpt>
      <trkpt lat="41.846803" lon="2.526770">
        <ele>575.051</ele>
        <time>2021-05-26T17:20:57Z</time>
      </trkpt>
      <trkpt lat="41.846828" lon="2.526776">
        <ele>575.441</ele>
        <time>2021-05-26T17:20:59Z</time>
      </trkpt>
      <trkpt lat="41.846855" lon="2.526782">
        <ele>575.757</ele>
        <time>2021-05-26T17:21:01Z</time>
      </trkpt>
      <trkpt lat="41.846874" lon="2.526791">
        <ele>576.012</ele>
        <time>2021-05-26T17:21:04Z</time>
      </trkpt>
      <trkpt lat="41.846894" lon="2.526795">
        <ele>576.399</ele>
        <time>2021-05-26T17:21:05Z</time>
      </trkpt>
      <trkpt lat="41.846909" lon="2.526813">
        <ele>576.607</ele>
        <time>2021-05-26T17:21:08Z</time>
      </trkpt>
      <trkpt lat="41.846933" lon="2.526822">
        <ele>577.027</ele>
        <time>2021-05-26T17:21:10Z</time>
      </trkpt>
      <trkpt lat="41.846961" lon="2.526831">
        <ele>577.308</ele>
        <time>2021-05-26T17:21:12Z</time>
      </trkpt>
      <trkpt lat="41.846991" lon="2.526837">
        <ele>577.566</ele>
        <time>2021-05-26T17:21:14Z</time>
      </trkpt>
      <trkpt lat="41.847013" lon="2.526853">
        <ele>577.843</ele>
        <time>2021-05-26T17:21:16Z</time>
      </trkpt>
      <trkpt lat="41.847035" lon="2.526862">
        <ele>578.060</ele>
        <time>2021-05-26T17:21:18Z</time>
      </trkpt>
      <trkpt lat="41.847053" lon="2.526874">
        <ele>578.234</ele>
        <time>2021-05-26T17:21:20Z</time>
      </trkpt>
      <trkpt lat="41.847100" lon="2.526885">
        <ele>578.649</ele>
        <time>2021-05-26T17:21:23Z</time>
      </trkpt>
      <trkpt lat="41.847119" lon="2.526890">
        <ele>578.779</ele>
        <time>2021-05-26T17:21:24Z</time>
      </trkpt>
      <trkpt lat="41.847148" lon="2.526893">
        <ele>579.075</ele>
        <time>2021-05-26T17:21:26Z</time>
      </trkpt>
      <trkpt lat="41.847170" lon="2.526902">
        <ele>579.280</ele>
        <time>2021-05-26T17:21:28Z</time>
      </trkpt>
      <trkpt lat="41.847194" lon="2.526905">
        <ele>579.482</ele>
        <time>2021-05-26T17:21:30Z</time>
      </trkpt>
      <trkpt lat="41.847221" lon="2.526916">
        <ele>579.743</ele>
        <time>2021-05-26T17:21:32Z</time>
      </trkpt>
      <trkpt lat="41.847245" lon="2.526926">
        <ele>580.017</ele>
        <time>2021-05-26T17:21:34Z</time>
      </trkpt>
      <trkpt lat="41.847267" lon="2.526932">
        <ele>580.308</ele>
        <time>2021-05-26T17:21:36Z</time>
      </trkpt>
      <trkpt lat="41.847289" lon="2.526931">
        <ele>580.625</ele>
        <time>2021-05-26T17:21:38Z</time>
      </trkpt>
      <trkpt lat="41.847323" lon="2.526937">
        <ele>581.082</ele>
        <time>2021-05-26T17:21:40Z</time>
      </trkpt>
      <trkpt lat="41.847351" lon="2.526947">
        <ele>581.449</ele>
        <time>2021-05-26T17:21:42Z</time>
      </trkpt>
      <trkpt lat="41.847379" lon="2.526963">
        <ele>581.883</ele>
        <time>2021-05-26T17:21:44Z</time>
      </trkpt>
      <trkpt lat="41.847401" lon="2.526979">
        <ele>582.168</ele>
        <time>2021-05-26T17:21:46Z</time>
      </trkpt>
      <trkpt lat="41.847427" lon="2.526997">
        <ele>582.528</ele>
        <time>2021-05-26T17:21:48Z</time>
      </trkpt>
      <trkpt lat="41.847456" lon="2.527010">
        <ele>582.944</ele>
        <time>2021-05-26T17:21:50Z</time>
      </trkpt>
      <trkpt lat="41.847479" lon="2.527023">
        <ele>583.389</ele>
        <time>2021-05-26T17:21:52Z</time>
      </trkpt>
      <trkpt lat="41.847497" lon="2.527033">
        <ele>583.639</ele>
        <time>2021-05-26T17:21:54Z</time>
      </trkpt>
      <trkpt lat="41.847518" lon="2.527038">
        <ele>583.801</ele>
        <time>2021-05-26T17:21:56Z</time>
      </trkpt>
      <trkpt lat="41.847546" lon="2.527046">
        <ele>584.221</ele>
        <time>2021-05-26T17:21:58Z</time>
      </trkpt>
      <trkpt lat="41.847573" lon="2.527060">
        <ele>584.608</ele>
        <time>2021-05-26T17:22:01Z</time>
      </trkpt>
      <trkpt lat="41.847598" lon="2.527064">
        <ele>584.940</ele>
        <time>2021-05-26T17:22:02Z</time>
      </trkpt>
      <trkpt lat="41.847624" lon="2.527070">
        <ele>585.287</ele>
        <time>2021-05-26T17:22:04Z</time>
      </trkpt>
      <trkpt lat="41.847650" lon="2.527071">
        <ele>585.594</ele>
        <time>2021-05-26T17:22:06Z</time>
      </trkpt>
      <trkpt lat="41.847677" lon="2.527078">
        <ele>585.848</ele>
        <time>2021-05-26T17:22:08Z</time>
      </trkpt>
      <trkpt lat="41.847700" lon="2.527085">
        <ele>586.233</ele>
        <time>2021-05-26T17:22:10Z</time>
      </trkpt>
      <trkpt lat="41.847728" lon="2.527093">
        <ele>586.623</ele>
        <time>2021-05-26T17:22:12Z</time>
      </trkpt>
      <trkpt lat="41.847750" lon="2.527107">
        <ele>587.029</ele>
        <time>2021-05-26T17:22:14Z</time>
      </trkpt>
      <trkpt lat="41.847774" lon="2.527113">
        <ele>587.494</ele>
        <time>2021-05-26T17:22:16Z</time>
      </trkpt>
      <trkpt lat="41.847798" lon="2.527118">
        <ele>587.555</ele>
        <time>2021-05-26T17:22:18Z</time>
      </trkpt>
      <trkpt lat="41.847825" lon="2.527123">
        <ele>587.607</ele>
        <time>2021-05-26T17:22:20Z</time>
      </trkpt>
      <trkpt lat="41.847855" lon="2.527128">
        <ele>587.617</ele>
        <time>2021-05-26T17:22:22Z</time>
      </trkpt>
      <trkpt lat="41.847880" lon="2.527128">
        <ele>587.608</ele>
        <time>2021-05-26T17:22:24Z</time>
      </trkpt>
      <trkpt lat="41.847896" lon="2.527140">
        <ele>587.842</ele>
        <time>2021-05-26T17:22:26Z</time>
      </trkpt>
      <trkpt lat="41.847916" lon="2.527144">
        <ele>587.949</ele>
        <time>2021-05-26T17:22:28Z</time>
      </trkpt>
      <trkpt lat="41.847939" lon="2.527156">
        <ele>588.056</ele>
        <time>2021-05-26T17:22:30Z</time>
      </trkpt>
      <trkpt lat="41.847959" lon="2.527165">
        <ele>588.230</ele>
        <time>2021-05-26T17:22:32Z</time>
      </trkpt>
      <trkpt lat="41.847977" lon="2.527182">
        <ele>588.475</ele>
        <time>2021-05-26T17:22:34Z</time>
      </trkpt>
      <trkpt lat="41.847997" lon="2.527198">
        <ele>588.765</ele>
        <time>2021-05-26T17:22:36Z</time>
      </trkpt>
      <trkpt lat="41.848022" lon="2.527215">
        <ele>588.991</ele>
        <time>2021-05-26T17:22:39Z</time>
      </trkpt>
      <trkpt lat="41.848045" lon="2.527224">
        <ele>589.076</ele>
        <time>2021-05-26T17:22:40Z</time>
      </trkpt>
      <trkpt lat="41.848068" lon="2.527232">
        <ele>589.216</ele>
        <time>2021-05-26T17:22:42Z</time>
      </trkpt>
      <trkpt lat="41.848092" lon="2.527250">
        <ele>589.676</ele>
        <time>2021-05-26T17:22:44Z</time>
      </trkpt>
      <trkpt lat="41.848113" lon="2.527267">
        <ele>589.913</ele>
        <time>2021-05-26T17:22:46Z</time>
      </trkpt>
      <trkpt lat="41.848141" lon="2.527286">
        <ele>590.308</ele>
        <time>2021-05-26T17:22:48Z</time>
      </trkpt>
      <trkpt lat="41.848162" lon="2.527301">
        <ele>590.628</ele>
        <time>2021-05-26T17:22:50Z</time>
      </trkpt>
      <trkpt lat="41.848182" lon="2.527314">
        <ele>590.975</ele>
        <time>2021-05-26T17:22:52Z</time>
      </trkpt>
      <trkpt lat="41.848201" lon="2.527328">
        <ele>591.242</ele>
        <time>2021-05-26T17:22:54Z</time>
      </trkpt>
      <trkpt lat="41.848222" lon="2.527346">
        <ele>591.516</ele>
        <time>2021-05-26T17:22:56Z</time>
      </trkpt>
      <trkpt lat="41.848242" lon="2.527363">
        <ele>591.911</ele>
        <time>2021-05-26T17:22:58Z</time>
      </trkpt>
      <trkpt lat="41.848266" lon="2.527379">
        <ele>592.271</ele>
        <time>2021-05-26T17:23:00Z</time>
      </trkpt>
      <trkpt lat="41.848289" lon="2.527401">
        <ele>592.677</ele>
        <time>2021-05-26T17:23:02Z</time>
      </trkpt>
      <trkpt lat="41.848315" lon="2.527413">
        <ele>592.992</ele>
        <time>2021-05-26T17:23:04Z</time>
      </trkpt>
      <trkpt lat="41.848340" lon="2.527428">
        <ele>593.393</ele>
        <time>2021-05-26T17:23:06Z</time>
      </trkpt>
      <trkpt lat="41.848367" lon="2.527444">
        <ele>593.865</ele>
        <time>2021-05-26T17:23:08Z</time>
      </trkpt>
      <trkpt lat="41.848397" lon="2.527449">
        <ele>594.121</ele>
        <time>2021-05-26T17:23:10Z</time>
      </trkpt>
      <trkpt lat="41.848428" lon="2.527456">
        <ele>594.508</ele>
        <time>2021-05-26T17:23:12Z</time>
      </trkpt>
      <trkpt lat="41.848460" lon="2.527458">
        <ele>594.916</ele>
        <time>2021-05-26T17:23:14Z</time>
      </trkpt>
      <trkpt lat="41.848507" lon="2.527456">
        <ele>595.423</ele>
        <time>2021-05-26T17:23:17Z</time>
      </trkpt>
      <trkpt lat="41.848544" lon="2.527453">
        <ele>595.830</ele>
        <time>2021-05-26T17:23:19Z</time>
      </trkpt>
      <trkpt lat="41.848578" lon="2.527458">
        <ele>596.244</ele>
        <time>2021-05-26T17:23:21Z</time>
      </trkpt>
      <trkpt lat="41.848602" lon="2.527459">
        <ele>596.549</ele>
        <time>2021-05-26T17:23:22Z</time>
      </trkpt>
      <trkpt lat="41.848626" lon="2.527464">
        <ele>596.849</ele>
        <time>2021-05-26T17:23:23Z</time>
      </trkpt>
      <trkpt lat="41.848649" lon="2.527467">
        <ele>597.125</ele>
        <time>2021-05-26T17:23:24Z</time>
      </trkpt>
      <trkpt lat="41.848670" lon="2.527469">
        <ele>597.380</ele>
        <time>2021-05-26T17:23:25Z</time>
      </trkpt>
      <trkpt lat="41.848693" lon="2.527469">
        <ele>597.669</ele>
        <time>2021-05-26T17:23:26Z</time>
      </trkpt>
      <trkpt lat="41.848713" lon="2.527467">
        <ele>597.804</ele>
        <time>2021-05-26T17:23:27Z</time>
      </trkpt>
      <trkpt lat="41.848737" lon="2.527469">
        <ele>598.124</ele>
        <time>2021-05-26T17:23:28Z</time>
      </trkpt>
      <trkpt lat="41.848763" lon="2.527472">
        <ele>598.408</ele>
        <time>2021-05-26T17:23:29Z</time>
      </trkpt>
      <trkpt lat="41.848790" lon="2.527473">
        <ele>598.793</ele>
        <time>2021-05-26T17:23:30Z</time>
      </trkpt>
      <trkpt lat="41.848817" lon="2.527475">
        <ele>599.050</ele>
        <time>2021-05-26T17:23:31Z</time>
      </trkpt>
      <trkpt lat="41.848837" lon="2.527479">
        <ele>599.387</ele>
        <time>2021-05-26T17:23:32Z</time>
      </trkpt>
      <trkpt lat="41.848860" lon="2.527479">
        <ele>599.571</ele>
        <time>2021-05-26T17:23:33Z</time>
      </trkpt>
      <trkpt lat="41.848882" lon="2.527481">
        <ele>599.856</ele>
        <time>2021-05-26T17:23:34Z</time>
      </trkpt>
      <trkpt lat="41.848929" lon="2.527480">
        <ele>600.366</ele>
        <time>2021-05-26T17:23:36Z</time>
      </trkpt>
      <trkpt lat="41.848950" lon="2.527487">
        <ele>600.612</ele>
        <time>2021-05-26T17:23:37Z</time>
      </trkpt>
      <trkpt lat="41.848971" lon="2.527493">
        <ele>600.897</ele>
        <time>2021-05-26T17:23:38Z</time>
      </trkpt>
      <trkpt lat="41.848997" lon="2.527495">
        <ele>601.196</ele>
        <time>2021-05-26T17:23:39Z</time>
      </trkpt>
      <trkpt lat="41.849020" lon="2.527501">
        <ele>601.431</ele>
        <time>2021-05-26T17:23:40Z</time>
      </trkpt>
      <trkpt lat="41.849042" lon="2.527505">
        <ele>601.724</ele>
        <time>2021-05-26T17:23:41Z</time>
      </trkpt>
      <trkpt lat="41.849062" lon="2.527507">
        <ele>601.908</ele>
        <time>2021-05-26T17:23:42Z</time>
      </trkpt>
      <trkpt lat="41.849097" lon="2.527508">
        <ele>602.396</ele>
        <time>2021-05-26T17:23:44Z</time>
      </trkpt>
      <trkpt lat="41.849119" lon="2.527518">
        <ele>602.513</ele>
        <time>2021-05-26T17:23:46Z</time>
      </trkpt>
      <trkpt lat="41.849144" lon="2.527523">
        <ele>602.870</ele>
        <time>2021-05-26T17:23:48Z</time>
      </trkpt>
      <trkpt lat="41.849173" lon="2.527525">
        <ele>603.244</ele>
        <time>2021-05-26T17:23:50Z</time>
      </trkpt>
      <trkpt lat="41.849201" lon="2.527516">
        <ele>603.859</ele>
        <time>2021-05-26T17:23:52Z</time>
      </trkpt>
      <trkpt lat="41.849223" lon="2.527519">
        <ele>604.359</ele>
        <time>2021-05-26T17:23:54Z</time>
      </trkpt>
      <trkpt lat="41.849248" lon="2.527516">
        <ele>604.825</ele>
        <time>2021-05-26T17:23:56Z</time>
      </trkpt>
      <trkpt lat="41.849272" lon="2.527522">
        <ele>605.440</ele>
        <time>2021-05-26T17:23:58Z</time>
      </trkpt>
      <trkpt lat="41.849299" lon="2.527521">
        <ele>605.931</ele>
        <time>2021-05-26T17:24:00Z</time>
      </trkpt>
      <trkpt lat="41.849325" lon="2.527527">
        <ele>606.561</ele>
        <time>2021-05-26T17:24:02Z</time>
      </trkpt>
      <trkpt lat="41.849346" lon="2.527536">
        <ele>607.007</ele>
        <time>2021-05-26T17:24:04Z</time>
      </trkpt>
      <trkpt lat="41.849364" lon="2.527534">
        <ele>607.408</ele>
        <time>2021-05-26T17:24:06Z</time>
      </trkpt>
      <trkpt lat="41.849384" lon="2.527532">
        <ele>607.820</ele>
        <time>2021-05-26T17:24:08Z</time>
      </trkpt>
      <trkpt lat="41.849408" lon="2.527529">
        <ele>608.347</ele>
        <time>2021-05-26T17:24:13Z</time>
      </trkpt>
      <trkpt lat="41.849443" lon="2.527514">
        <ele>609.014</ele>
        <time>2021-05-26T17:24:15Z</time>
      </trkpt>
      <trkpt lat="41.849473" lon="2.527502">
        <ele>609.428</ele>
        <time>2021-05-26T17:24:17Z</time>
      </trkpt>
      <trkpt lat="41.849497" lon="2.527494">
        <ele>609.813</ele>
        <time>2021-05-26T17:24:19Z</time>
      </trkpt>
      <trkpt lat="41.849518" lon="2.527481">
        <ele>610.133</ele>
        <time>2021-05-26T17:24:21Z</time>
      </trkpt>
      <trkpt lat="41.849537" lon="2.527467">
        <ele>610.549</ele>
        <time>2021-05-26T17:24:23Z</time>
      </trkpt>
      <trkpt lat="41.849561" lon="2.527454">
        <ele>610.974</ele>
        <time>2021-05-26T17:24:25Z</time>
      </trkpt>
      <trkpt lat="41.849585" lon="2.527454">
        <ele>611.327</ele>
        <time>2021-05-26T17:24:27Z</time>
      </trkpt>
      <trkpt lat="41.849607" lon="2.527454">
        <ele>611.668</ele>
        <time>2021-05-26T17:24:29Z</time>
      </trkpt>
      <trkpt lat="41.849632" lon="2.527450">
        <ele>612.114</ele>
        <time>2021-05-26T17:24:31Z</time>
      </trkpt>
      <trkpt lat="41.849664" lon="2.527441">
        <ele>612.708</ele>
        <time>2021-05-26T17:24:33Z</time>
      </trkpt>
      <trkpt lat="41.849694" lon="2.527431">
        <ele>613.339</ele>
        <time>2021-05-26T17:24:35Z</time>
      </trkpt>
      <trkpt lat="41.849719" lon="2.527424">
        <ele>613.836</ele>
        <time>2021-05-26T17:24:37Z</time>
      </trkpt>
      <trkpt lat="41.849740" lon="2.527417">
        <ele>613.963</ele>
        <time>2021-05-26T17:24:39Z</time>
      </trkpt>
      <trkpt lat="41.849766" lon="2.527418">
        <ele>613.947</ele>
        <time>2021-05-26T17:24:41Z</time>
      </trkpt>
      <trkpt lat="41.849797" lon="2.527424">
        <ele>613.822</ele>
        <time>2021-05-26T17:24:43Z</time>
      </trkpt>
      <trkpt lat="41.849827" lon="2.527428">
        <ele>613.872</ele>
        <time>2021-05-26T17:24:45Z</time>
      </trkpt>
      <trkpt lat="41.849858" lon="2.527436">
        <ele>613.718</ele>
        <time>2021-05-26T17:24:47Z</time>
      </trkpt>
      <trkpt lat="41.849885" lon="2.527439">
        <ele>613.613</ele>
        <time>2021-05-26T17:24:49Z</time>
      </trkpt>
      <trkpt lat="41.849913" lon="2.527444">
        <ele>613.599</ele>
        <time>2021-05-26T17:24:52Z</time>
      </trkpt>
      <trkpt lat="41.849942" lon="2.527443">
        <ele>613.507</ele>
        <time>2021-05-26T17:24:53Z</time>
      </trkpt>
      <trkpt lat="41.849968" lon="2.527434">
        <ele>613.727</ele>
        <time>2021-05-26T17:24:55Z</time>
      </trkpt>
      <trkpt lat="41.849988" lon="2.527422">
        <ele>614.008</ele>
        <time>2021-05-26T17:24:57Z</time>
      </trkpt>
      <trkpt lat="41.850014" lon="2.527404">
        <ele>614.296</ele>
        <time>2021-05-26T17:24:59Z</time>
      </trkpt>
      <trkpt lat="41.850038" lon="2.527385">
        <ele>614.493</ele>
        <time>2021-05-26T17:25:01Z</time>
      </trkpt>
      <trkpt lat="41.850058" lon="2.527366">
        <ele>614.540</ele>
        <time>2021-05-26T17:25:03Z</time>
      </trkpt>
      <trkpt lat="41.850071" lon="2.527347">
        <ele>614.834</ele>
        <time>2021-05-26T17:25:05Z</time>
      </trkpt>
      <trkpt lat="41.850082" lon="2.527321">
        <ele>615.229</ele>
        <time>2021-05-26T17:25:07Z</time>
      </trkpt>
      <trkpt lat="41.850098" lon="2.527288">
        <ele>615.749</ele>
        <time>2021-05-26T17:25:09Z</time>
      </trkpt>
      <trkpt lat="41.850109" lon="2.527250">
        <ele>616.455</ele>
        <time>2021-05-26T17:25:11Z</time>
      </trkpt>
      <trkpt lat="41.850120" lon="2.527229">
        <ele>616.720</ele>
        <time>2021-05-26T17:25:12Z</time>
      </trkpt>
      <trkpt lat="41.850127" lon="2.527206">
        <ele>616.938</ele>
        <time>2021-05-26T17:25:13Z</time>
      </trkpt>
      <trkpt lat="41.850131" lon="2.527165">
        <ele>617.370</ele>
        <time>2021-05-26T17:25:15Z</time>
      </trkpt>
      <trkpt lat="41.850139" lon="2.527128">
        <ele>617.517</ele>
        <time>2021-05-26T17:25:17Z</time>
      </trkpt>
      <trkpt lat="41.850144" lon="2.527092">
        <ele>617.808</ele>
        <time>2021-05-26T17:25:19Z</time>
      </trkpt>
      <trkpt lat="41.850147" lon="2.527057">
        <ele>618.120</ele>
        <time>2021-05-26T17:25:21Z</time>
      </trkpt>
      <trkpt lat="41.850154" lon="2.527023">
        <ele>618.447</ele>
        <time>2021-05-26T17:25:23Z</time>
      </trkpt>
      <trkpt lat="41.850155" lon="2.526991">
        <ele>618.764</ele>
        <time>2021-05-26T17:25:25Z</time>
      </trkpt>
      <trkpt lat="41.850161" lon="2.526954">
        <ele>619.058</ele>
        <time>2021-05-26T17:25:27Z</time>
      </trkpt>
      <trkpt lat="41.850166" lon="2.526919">
        <ele>619.243</ele>
        <time>2021-05-26T17:25:29Z</time>
      </trkpt>
      <trkpt lat="41.850165" lon="2.526882">
        <ele>619.533</ele>
        <time>2021-05-26T17:25:31Z</time>
      </trkpt>
      <trkpt lat="41.850159" lon="2.526852">
        <ele>619.819</ele>
        <time>2021-05-26T17:25:33Z</time>
      </trkpt>
      <trkpt lat="41.850155" lon="2.526818">
        <ele>620.184</ele>
        <time>2021-05-26T17:25:35Z</time>
      </trkpt>
      <trkpt lat="41.850157" lon="2.526782">
        <ele>620.361</ele>
        <time>2021-05-26T17:25:37Z</time>
      </trkpt>
      <trkpt lat="41.850154" lon="2.526741">
        <ele>620.721</ele>
        <time>2021-05-26T17:25:39Z</time>
      </trkpt>
      <trkpt lat="41.850157" lon="2.526703">
        <ele>620.913</ele>
        <time>2021-05-26T17:25:41Z</time>
      </trkpt>
      <trkpt lat="41.850159" lon="2.526664">
        <ele>621.208</ele>
        <time>2021-05-26T17:25:43Z</time>
      </trkpt>
      <trkpt lat="41.850158" lon="2.526626">
        <ele>621.643</ele>
        <time>2021-05-26T17:25:45Z</time>
      </trkpt>
      <trkpt lat="41.850160" lon="2.526587">
        <ele>622.180</ele>
        <time>2021-05-26T17:25:47Z</time>
      </trkpt>
      <trkpt lat="41.850159" lon="2.526554">
        <ele>622.537</ele>
        <time>2021-05-26T17:25:49Z</time>
      </trkpt>
      <trkpt lat="41.850160" lon="2.526520">
        <ele>622.921</ele>
        <time>2021-05-26T17:25:51Z</time>
      </trkpt>
      <trkpt lat="41.850154" lon="2.526488">
        <ele>623.316</ele>
        <time>2021-05-26T17:25:53Z</time>
      </trkpt>
      <trkpt lat="41.850155" lon="2.526454">
        <ele>623.776</ele>
        <time>2021-05-26T17:25:55Z</time>
      </trkpt>
      <trkpt lat="41.850152" lon="2.526415">
        <ele>624.292</ele>
        <time>2021-05-26T17:25:57Z</time>
      </trkpt>
      <trkpt lat="41.850144" lon="2.526377">
        <ele>624.647</ele>
        <time>2021-05-26T17:25:59Z</time>
      </trkpt>
      <trkpt lat="41.850146" lon="2.526338">
        <ele>624.831</ele>
        <time>2021-05-26T17:26:01Z</time>
      </trkpt>
      <trkpt lat="41.850149" lon="2.526299">
        <ele>625.161</ele>
        <time>2021-05-26T17:26:03Z</time>
      </trkpt>
      <trkpt lat="41.850149" lon="2.526264">
        <ele>625.307</ele>
        <time>2021-05-26T17:26:05Z</time>
      </trkpt>
      <trkpt lat="41.850145" lon="2.526231">
        <ele>625.608</ele>
        <time>2021-05-26T17:26:07Z</time>
      </trkpt>
      <trkpt lat="41.850140" lon="2.526201">
        <ele>625.850</ele>
        <time>2021-05-26T17:26:09Z</time>
      </trkpt>
      <trkpt lat="41.850136" lon="2.526163">
        <ele>626.237</ele>
        <time>2021-05-26T17:26:11Z</time>
      </trkpt>
      <trkpt lat="41.850134" lon="2.526116">
        <ele>626.514</ele>
        <time>2021-05-26T17:26:13Z</time>
      </trkpt>
      <trkpt lat="41.850135" lon="2.526091">
        <ele>626.698</ele>
        <time>2021-05-26T17:26:14Z</time>
      </trkpt>
      <trkpt lat="41.850135" lon="2.526045">
        <ele>626.873</ele>
        <time>2021-05-26T17:26:16Z</time>
      </trkpt>
      <trkpt lat="41.850133" lon="2.526006">
        <ele>626.973</ele>
        <time>2021-05-26T17:26:18Z</time>
      </trkpt>
      <trkpt lat="41.850133" lon="2.525971">
        <ele>627.019</ele>
        <time>2021-05-26T17:26:20Z</time>
      </trkpt>
      <trkpt lat="41.850132" lon="2.525933">
        <ele>627.274</ele>
        <time>2021-05-26T17:26:22Z</time>
      </trkpt>
      <trkpt lat="41.850136" lon="2.525898">
        <ele>627.355</ele>
        <time>2021-05-26T17:26:24Z</time>
      </trkpt>
      <trkpt lat="41.850141" lon="2.525859">
        <ele>627.407</ele>
        <time>2021-05-26T17:26:27Z</time>
      </trkpt>
      <trkpt lat="41.850152" lon="2.525814">
        <ele>627.517</ele>
        <time>2021-05-26T17:26:28Z</time>
      </trkpt>
      <trkpt lat="41.850160" lon="2.525791">
        <ele>627.608</ele>
        <time>2021-05-26T17:26:29Z</time>
      </trkpt>
      <trkpt lat="41.850170" lon="2.525746">
        <ele>627.662</ele>
        <time>2021-05-26T17:26:31Z</time>
      </trkpt>
      <trkpt lat="41.850182" lon="2.525703">
        <ele>627.749</ele>
        <time>2021-05-26T17:26:33Z</time>
      </trkpt>
      <trkpt lat="41.850194" lon="2.525665">
        <ele>627.736</ele>
        <time>2021-05-26T17:26:35Z</time>
      </trkpt>
      <trkpt lat="41.850204" lon="2.525629">
        <ele>627.750</ele>
        <time>2021-05-26T17:26:37Z</time>
      </trkpt>
      <trkpt lat="41.850221" lon="2.525594">
        <ele>627.685</ele>
        <time>2021-05-26T17:26:39Z</time>
      </trkpt>
      <trkpt lat="41.850238" lon="2.525561">
        <ele>627.485</ele>
        <time>2021-05-26T17:26:41Z</time>
      </trkpt>
      <trkpt lat="41.850257" lon="2.525535">
        <ele>627.331</ele>
        <time>2021-05-26T17:26:43Z</time>
      </trkpt>
      <trkpt lat="41.850279" lon="2.525515">
        <ele>627.186</ele>
        <time>2021-05-26T17:26:45Z</time>
      </trkpt>
      <trkpt lat="41.850303" lon="2.525496">
        <ele>626.975</ele>
        <time>2021-05-26T17:26:47Z</time>
      </trkpt>
      <trkpt lat="41.850322" lon="2.525482">
        <ele>626.628</ele>
        <time>2021-05-26T17:26:49Z</time>
      </trkpt>
      <trkpt lat="41.850346" lon="2.525469">
        <ele>626.320</ele>
        <time>2021-05-26T17:26:51Z</time>
      </trkpt>
      <trkpt lat="41.850372" lon="2.525461">
        <ele>626.008</ele>
        <time>2021-05-26T17:26:53Z</time>
      </trkpt>
      <trkpt lat="41.850398" lon="2.525457">
        <ele>625.674</ele>
        <time>2021-05-26T17:26:55Z</time>
      </trkpt>
      <trkpt lat="41.850425" lon="2.525455">
        <ele>625.241</ele>
        <time>2021-05-26T17:26:57Z</time>
      </trkpt>
      <trkpt lat="41.850453" lon="2.525448">
        <ele>624.948</ele>
        <time>2021-05-26T17:26:59Z</time>
      </trkpt>
      <trkpt lat="41.850478" lon="2.525443">
        <ele>624.562</ele>
        <time>2021-05-26T17:27:01Z</time>
      </trkpt>
      <trkpt lat="41.850506" lon="2.525446">
        <ele>624.167</ele>
        <time>2021-05-26T17:27:03Z</time>
      </trkpt>
      <trkpt lat="41.850533" lon="2.525460">
        <ele>623.797</ele>
        <time>2021-05-26T17:27:05Z</time>
      </trkpt>
      <trkpt lat="41.850566" lon="2.525481">
        <ele>623.383</ele>
        <time>2021-05-26T17:27:07Z</time>
      </trkpt>
      <trkpt lat="41.850585" lon="2.525491">
        <ele>623.478</ele>
        <time>2021-05-26T17:27:08Z</time>
      </trkpt>
      <trkpt lat="41.850603" lon="2.525499">
        <ele>623.432</ele>
        <time>2021-05-26T17:27:09Z</time>
      </trkpt>
      <trkpt lat="41.850624" lon="2.525508">
        <ele>623.592</ele>
        <time>2021-05-26T17:27:10Z</time>
      </trkpt>
      <trkpt lat="41.850645" lon="2.525518">
        <ele>623.511</ele>
        <time>2021-05-26T17:27:11Z</time>
      </trkpt>
      <trkpt lat="41.850667" lon="2.525531">
        <ele>623.508</ele>
        <time>2021-05-26T17:27:12Z</time>
      </trkpt>
      <trkpt lat="41.850691" lon="2.525540">
        <ele>623.610</ele>
        <time>2021-05-26T17:27:13Z</time>
      </trkpt>
      <trkpt lat="41.850717" lon="2.525549">
        <ele>623.617</ele>
        <time>2021-05-26T17:27:14Z</time>
      </trkpt>
      <trkpt lat="41.850743" lon="2.525559">
        <ele>623.724</ele>
        <time>2021-05-26T17:27:15Z</time>
      </trkpt>
      <trkpt lat="41.850768" lon="2.525569">
        <ele>623.728</ele>
        <time>2021-05-26T17:27:16Z</time>
      </trkpt>
      <trkpt lat="41.850794" lon="2.525581">
        <ele>623.833</ele>
        <time>2021-05-26T17:27:17Z</time>
      </trkpt>
      <trkpt lat="41.850817" lon="2.525590">
        <ele>623.863</ele>
        <time>2021-05-26T17:27:18Z</time>
      </trkpt>
      <trkpt lat="41.850842" lon="2.525599">
        <ele>624.049</ele>
        <time>2021-05-26T17:27:19Z</time>
      </trkpt>
      <trkpt lat="41.850866" lon="2.525608">
        <ele>624.424</ele>
        <time>2021-05-26T17:27:20Z</time>
      </trkpt>
      <trkpt lat="41.850889" lon="2.525613">
        <ele>624.747</ele>
        <time>2021-05-26T17:27:21Z</time>
      </trkpt>
      <trkpt lat="41.850912" lon="2.525615">
        <ele>625.129</ele>
        <time>2021-05-26T17:27:22Z</time>
      </trkpt>
      <trkpt lat="41.850955" lon="2.525628">
        <ele>625.721</ele>
        <time>2021-05-26T17:27:24Z</time>
      </trkpt>
      <trkpt lat="41.850981" lon="2.525633">
        <ele>626.108</ele>
        <time>2021-05-26T17:27:25Z</time>
      </trkpt>
      <trkpt lat="41.851013" lon="2.525639">
        <ele>626.591</ele>
        <time>2021-05-26T17:27:26Z</time>
      </trkpt>
      <trkpt lat="41.851043" lon="2.525642">
        <ele>627.048</ele>
        <time>2021-05-26T17:27:27Z</time>
      </trkpt>
      <trkpt lat="41.851070" lon="2.525646">
        <ele>627.495</ele>
        <time>2021-05-26T17:27:28Z</time>
      </trkpt>
      <trkpt lat="41.851099" lon="2.525642">
        <ele>627.939</ele>
        <time>2021-05-26T17:27:29Z</time>
      </trkpt>
      <trkpt lat="41.851124" lon="2.525638">
        <ele>628.174</ele>
        <time>2021-05-26T17:27:30Z</time>
      </trkpt>
      <trkpt lat="41.851148" lon="2.525632">
        <ele>628.344</ele>
        <time>2021-05-26T17:27:31Z</time>
      </trkpt>
      <trkpt lat="41.851174" lon="2.525627">
        <ele>628.470</ele>
        <time>2021-05-26T17:27:32Z</time>
      </trkpt>
      <trkpt lat="41.851199" lon="2.525624">
        <ele>628.555</ele>
        <time>2021-05-26T17:27:33Z</time>
      </trkpt>
      <trkpt lat="41.851224" lon="2.525618">
        <ele>628.621</ele>
        <time>2021-05-26T17:27:34Z</time>
      </trkpt>
      <trkpt lat="41.851247" lon="2.525609">
        <ele>628.841</ele>
        <time>2021-05-26T17:27:35Z</time>
      </trkpt>
      <trkpt lat="41.851272" lon="2.525601">
        <ele>629.005</ele>
        <time>2021-05-26T17:27:36Z</time>
      </trkpt>
      <trkpt lat="41.851293" lon="2.525593">
        <ele>629.208</ele>
        <time>2021-05-26T17:27:37Z</time>
      </trkpt>
      <trkpt lat="41.851314" lon="2.525583">
        <ele>629.449</ele>
        <time>2021-05-26T17:27:38Z</time>
      </trkpt>
      <trkpt lat="41.851337" lon="2.525573">
        <ele>629.646</ele>
        <time>2021-05-26T17:27:39Z</time>
      </trkpt>
      <trkpt lat="41.851359" lon="2.525561">
        <ele>629.863</ele>
        <time>2021-05-26T17:27:40Z</time>
      </trkpt>
      <trkpt lat="41.851385" lon="2.525547">
        <ele>630.037</ele>
        <time>2021-05-26T17:27:41Z</time>
      </trkpt>
      <trkpt lat="41.851407" lon="2.525536">
        <ele>630.042</ele>
        <time>2021-05-26T17:27:42Z</time>
      </trkpt>
      <trkpt lat="41.851430" lon="2.525522">
        <ele>630.022</ele>
        <time>2021-05-26T17:27:43Z</time>
      </trkpt>
      <trkpt lat="41.851452" lon="2.525507">
        <ele>630.168</ele>
        <time>2021-05-26T17:27:44Z</time>
      </trkpt>
      <trkpt lat="41.851475" lon="2.525490">
        <ele>630.143</ele>
        <time>2021-05-26T17:27:45Z</time>
      </trkpt>
      <trkpt lat="41.851494" lon="2.525476">
        <ele>630.269</ele>
        <time>2021-05-26T17:27:46Z</time>
      </trkpt>
      <trkpt lat="41.851510" lon="2.525459">
        <ele>630.404</ele>
        <time>2021-05-26T17:27:47Z</time>
      </trkpt>
      <trkpt lat="41.851524" lon="2.525443">
        <ele>630.524</ele>
        <time>2021-05-26T17:27:48Z</time>
      </trkpt>
      <trkpt lat="41.851550" lon="2.525412">
        <ele>630.808</ele>
        <time>2021-05-26T17:27:50Z</time>
      </trkpt>
      <trkpt lat="41.851564" lon="2.525396">
        <ele>631.053</ele>
        <time>2021-05-26T17:27:51Z</time>
      </trkpt>
      <trkpt lat="41.851577" lon="2.525379">
        <ele>631.230</ele>
        <time>2021-05-26T17:27:52Z</time>
      </trkpt>
      <trkpt lat="41.851598" lon="2.525349">
        <ele>631.737</ele>
        <time>2021-05-26T17:27:54Z</time>
      </trkpt>
      <trkpt lat="41.851614" lon="2.525331">
        <ele>632.021</ele>
        <time>2021-05-26T17:27:56Z</time>
      </trkpt>
      <trkpt lat="41.851638" lon="2.525308">
        <ele>632.446</ele>
        <time>2021-05-26T17:27:58Z</time>
      </trkpt>
      <trkpt lat="41.851653" lon="2.525291">
        <ele>632.796</ele>
        <time>2021-05-26T17:27:59Z</time>
      </trkpt>
      <trkpt lat="41.851667" lon="2.525276">
        <ele>633.052</ele>
        <time>2021-05-26T17:28:00Z</time>
      </trkpt>
      <trkpt lat="41.851690" lon="2.525255">
        <ele>633.457</ele>
        <time>2021-05-26T17:28:02Z</time>
      </trkpt>
      <trkpt lat="41.851713" lon="2.525234">
        <ele>633.969</ele>
        <time>2021-05-26T17:28:04Z</time>
      </trkpt>
      <trkpt lat="41.851731" lon="2.525223">
        <ele>634.204</ele>
        <time>2021-05-26T17:28:05Z</time>
      </trkpt>
      <trkpt lat="41.851757" lon="2.525202">
        <ele>634.724</ele>
        <time>2021-05-26T17:28:07Z</time>
      </trkpt>
      <trkpt lat="41.851779" lon="2.525183">
        <ele>635.208</ele>
        <time>2021-05-26T17:28:09Z</time>
      </trkpt>
      <trkpt lat="41.851806" lon="2.525159">
        <ele>635.983</ele>
        <time>2021-05-26T17:28:11Z</time>
      </trkpt>
      <trkpt lat="41.851827" lon="2.525139">
        <ele>636.510</ele>
        <time>2021-05-26T17:28:13Z</time>
      </trkpt>
      <trkpt lat="41.851847" lon="2.525117">
        <ele>637.227</ele>
        <time>2021-05-26T17:28:15Z</time>
      </trkpt>
      <trkpt lat="41.851864" lon="2.525099">
        <ele>637.731</ele>
        <time>2021-05-26T17:28:17Z</time>
      </trkpt>
      <trkpt lat="41.851880" lon="2.525071">
        <ele>638.526</ele>
        <time>2021-05-26T17:28:19Z</time>
      </trkpt>
      <trkpt lat="41.851903" lon="2.525047">
        <ele>639.376</ele>
        <time>2021-05-26T17:28:21Z</time>
      </trkpt>
      <trkpt lat="41.851928" lon="2.525033">
        <ele>640.022</ele>
        <time>2021-05-26T17:28:23Z</time>
      </trkpt>
      <trkpt lat="41.851944" lon="2.525013">
        <ele>640.717</ele>
        <time>2021-05-26T17:28:25Z</time>
      </trkpt>
      <trkpt lat="41.851915" lon="2.525025">
        <ele>640.087</ele>
        <time>2021-05-26T17:28:27Z</time>
      </trkpt>
      <trkpt lat="41.851886" lon="2.525044">
        <ele>639.142</ele>
        <time>2021-05-26T17:28:29Z</time>
      </trkpt>
      <trkpt lat="41.851858" lon="2.525061">
        <ele>638.326</ele>
        <time>2021-05-26T17:28:31Z</time>
      </trkpt>
      <trkpt lat="41.851832" lon="2.525051">
        <ele>638.108</ele>
        <time>2021-05-26T17:28:33Z</time>
      </trkpt>
      <trkpt lat="41.851823" lon="2.525027">
        <ele>638.455</ele>
        <time>2021-05-26T17:28:35Z</time>
      </trkpt>
      <trkpt lat="41.851824" lon="2.524995">
        <ele>638.912</ele>
        <time>2021-05-26T17:28:37Z</time>
      </trkpt>
      <trkpt lat="41.851829" lon="2.524965">
        <ele>639.619</ele>
        <time>2021-05-26T17:28:40Z</time>
      </trkpt>
      <trkpt lat="41.851835" lon="2.524933">
        <ele>640.333</ele>
        <time>2021-05-26T17:28:41Z</time>
      </trkpt>
      <trkpt lat="41.851841" lon="2.524897">
        <ele>641.158</ele>
        <time>2021-05-26T17:28:44Z</time>
      </trkpt>
      <trkpt lat="41.851846" lon="2.524863">
        <ele>641.858</ele>
        <time>2021-05-26T17:28:45Z</time>
      </trkpt>
      <trkpt lat="41.851852" lon="2.524836">
        <ele>642.534</ele>
        <time>2021-05-26T17:28:47Z</time>
      </trkpt>
      <trkpt lat="41.851856" lon="2.524812">
        <ele>643.079</ele>
        <time>2021-05-26T17:28:49Z</time>
      </trkpt>
      <trkpt lat="41.851862" lon="2.524784">
        <ele>643.765</ele>
        <time>2021-05-26T17:28:51Z</time>
      </trkpt>
      <trkpt lat="41.851866" lon="2.524751">
        <ele>644.568</ele>
        <time>2021-05-26T17:28:53Z</time>
      </trkpt>
      <trkpt lat="41.851875" lon="2.524719">
        <ele>645.314</ele>
        <time>2021-05-26T17:28:55Z</time>
      </trkpt>
      <trkpt lat="41.851886" lon="2.524692">
        <ele>645.908</ele>
        <time>2021-05-26T17:28:57Z</time>
      </trkpt>
      <trkpt lat="41.851898" lon="2.524660">
        <ele>646.783</ele>
        <time>2021-05-26T17:28:59Z</time>
      </trkpt>
      <trkpt lat="41.851903" lon="2.524625">
        <ele>647.320</ele>
        <time>2021-05-26T17:29:01Z</time>
      </trkpt>
      <trkpt lat="41.851908" lon="2.524593">
        <ele>647.967</ele>
        <time>2021-05-26T17:29:03Z</time>
      </trkpt>
      <trkpt lat="41.851910" lon="2.524564">
        <ele>648.381</ele>
        <time>2021-05-26T17:29:05Z</time>
      </trkpt>
      <trkpt lat="41.851912" lon="2.524538">
        <ele>648.836</ele>
        <time>2021-05-26T17:29:07Z</time>
      </trkpt>
      <trkpt lat="41.851917" lon="2.524510">
        <ele>649.396</ele>
        <time>2021-05-26T17:29:09Z</time>
      </trkpt>
      <trkpt lat="41.851920" lon="2.524483">
        <ele>649.852</ele>
        <time>2021-05-26T17:29:11Z</time>
      </trkpt>
      <trkpt lat="41.851926" lon="2.524450">
        <ele>650.417</ele>
        <time>2021-05-26T17:29:14Z</time>
      </trkpt>
      <trkpt lat="41.851933" lon="2.524420">
        <ele>650.886</ele>
        <time>2021-05-26T17:29:16Z</time>
      </trkpt>
      <trkpt lat="41.851941" lon="2.524387">
        <ele>651.360</ele>
        <time>2021-05-26T17:29:18Z</time>
      </trkpt>
      <trkpt lat="41.851949" lon="2.524357">
        <ele>651.826</ele>
        <time>2021-05-26T17:29:20Z</time>
      </trkpt>
      <trkpt lat="41.851957" lon="2.524328">
        <ele>652.208</ele>
        <time>2021-05-26T17:29:22Z</time>
      </trkpt>
      <trkpt lat="41.851966" lon="2.524299">
        <ele>652.735</ele>
        <time>2021-05-26T17:29:24Z</time>
      </trkpt>
      <trkpt lat="41.851972" lon="2.524269">
        <ele>653.172</ele>
        <time>2021-05-26T17:29:26Z</time>
      </trkpt>
      <trkpt lat="41.851978" lon="2.524239">
        <ele>653.439</ele>
        <time>2021-05-26T17:29:28Z</time>
      </trkpt>
      <trkpt lat="41.851987" lon="2.524214">
        <ele>653.983</ele>
        <time>2021-05-26T17:29:30Z</time>
      </trkpt>
      <trkpt lat="41.851991" lon="2.524187">
        <ele>654.258</ele>
        <time>2021-05-26T17:29:32Z</time>
      </trkpt>
      <trkpt lat="41.851995" lon="2.524158">
        <ele>654.538</ele>
        <time>2021-05-26T17:29:34Z</time>
      </trkpt>
      <trkpt lat="41.852006" lon="2.524114">
        <ele>654.884</ele>
        <time>2021-05-26T17:29:37Z</time>
      </trkpt>
      <trkpt lat="41.852019" lon="2.524090">
        <ele>655.129</ele>
        <time>2021-05-26T17:29:39Z</time>
      </trkpt>
      <trkpt lat="41.852036" lon="2.524062">
        <ele>655.699</ele>
        <time>2021-05-26T17:29:42Z</time>
      </trkpt>
      <trkpt lat="41.852058" lon="2.524041">
        <ele>656.307</ele>
        <time>2021-05-26T17:29:45Z</time>
      </trkpt>
      <trkpt lat="41.852077" lon="2.524031">
        <ele>656.827</ele>
        <time>2021-05-26T17:29:47Z</time>
      </trkpt>
      <trkpt lat="41.852096" lon="2.524024">
        <ele>657.408</ele>
        <time>2021-05-26T17:29:49Z</time>
      </trkpt>
      <trkpt lat="41.852115" lon="2.524012">
        <ele>657.966</ele>
        <time>2021-05-26T17:29:51Z</time>
      </trkpt>
      <trkpt lat="41.852131" lon="2.523995">
        <ele>658.443</ele>
        <time>2021-05-26T17:29:54Z</time>
      </trkpt>
      <trkpt lat="41.852149" lon="2.523970">
        <ele>658.950</ele>
        <time>2021-05-26T17:29:58Z</time>
      </trkpt>
      <trkpt lat="41.852161" lon="2.523948">
        <ele>659.244</ele>
        <time>2021-05-26T17:30:01Z</time>
      </trkpt>
      <trkpt lat="41.852172" lon="2.523914">
        <ele>659.689</ele>
        <time>2021-05-26T17:30:04Z</time>
      </trkpt>
      <trkpt lat="41.852177" lon="2.523887">
        <ele>659.779</ele>
        <time>2021-05-26T17:30:07Z</time>
      </trkpt>
      <trkpt lat="41.852190" lon="2.523870">
        <ele>660.175</ele>
        <time>2021-05-26T17:30:09Z</time>
      </trkpt>
      <trkpt lat="41.852216" lon="2.523864">
        <ele>660.860</ele>
        <time>2021-05-26T17:30:12Z</time>
      </trkpt>
      <trkpt lat="41.852233" lon="2.523859">
        <ele>661.487</ele>
        <time>2021-05-26T17:30:14Z</time>
      </trkpt>
      <trkpt lat="41.852246" lon="2.523838">
        <ele>661.942</ele>
        <time>2021-05-26T17:30:16Z</time>
      </trkpt>
      <trkpt lat="41.852252" lon="2.523810">
        <ele>662.126</ele>
        <time>2021-05-26T17:30:18Z</time>
      </trkpt>
      <trkpt lat="41.852261" lon="2.523787">
        <ele>662.408</ele>
        <time>2021-05-26T17:30:20Z</time>
      </trkpt>
      <trkpt lat="41.852283" lon="2.523777">
        <ele>663.235</ele>
        <time>2021-05-26T17:30:24Z</time>
      </trkpt>
      <trkpt lat="41.852310" lon="2.523777">
        <ele>664.292</ele>
        <time>2021-05-26T17:30:26Z</time>
      </trkpt>
      <trkpt lat="41.852333" lon="2.523775">
        <ele>665.079</ele>
        <time>2021-05-26T17:30:28Z</time>
      </trkpt>
      <trkpt lat="41.852352" lon="2.523757">
        <ele>665.753</ele>
        <time>2021-05-26T17:30:30Z</time>
      </trkpt>
      <trkpt lat="41.852373" lon="2.523730">
        <ele>666.498</ele>
        <time>2021-05-26T17:30:32Z</time>
      </trkpt>
      <trkpt lat="41.852386" lon="2.523704">
        <ele>666.918</ele>
        <time>2021-05-26T17:30:34Z</time>
      </trkpt>
      <trkpt lat="41.852405" lon="2.523679">
        <ele>667.674</ele>
        <time>2021-05-26T17:30:36Z</time>
      </trkpt>
      <trkpt lat="41.852422" lon="2.523656">
        <ele>668.269</ele>
        <time>2021-05-26T17:30:39Z</time>
      </trkpt>
      <trkpt lat="41.852438" lon="2.523633">
        <ele>668.823</ele>
        <time>2021-05-26T17:30:41Z</time>
      </trkpt>
      <trkpt lat="41.852448" lon="2.523612">
        <ele>669.183</ele>
        <time>2021-05-26T17:30:43Z</time>
      </trkpt>
      <trkpt lat="41.852450" lon="2.523585">
        <ele>669.111</ele>
        <time>2021-05-26T17:30:45Z</time>
      </trkpt>
      <trkpt lat="41.852458" lon="2.523554">
        <ele>669.308</ele>
        <time>2021-05-26T17:30:48Z</time>
      </trkpt>
      <trkpt lat="41.852472" lon="2.523522">
        <ele>669.759</ele>
        <time>2021-05-26T17:30:51Z</time>
      </trkpt>
      <trkpt lat="41.852477" lon="2.523497">
        <ele>669.856</ele>
        <time>2021-05-26T17:30:53Z</time>
      </trkpt>
      <trkpt lat="41.852492" lon="2.523468">
        <ele>670.273</ele>
        <time>2021-05-26T17:30:56Z</time>
      </trkpt>
      <trkpt lat="41.852508" lon="2.523439">
        <ele>670.677</ele>
        <time>2021-05-26T17:30:58Z</time>
      </trkpt>
      <trkpt lat="41.852516" lon="2.523417">
        <ele>670.762</ele>
        <time>2021-05-26T17:31:00Z</time>
      </trkpt>
      <trkpt lat="41.852528" lon="2.523397">
        <ele>670.972</ele>
        <time>2021-05-26T17:31:02Z</time>
      </trkpt>
      <trkpt lat="41.852538" lon="2.523368">
        <ele>671.158</ele>
        <time>2021-05-26T17:31:04Z</time>
      </trkpt>
      <trkpt lat="41.852550" lon="2.523338">
        <ele>671.323</ele>
        <time>2021-05-26T17:31:06Z</time>
      </trkpt>
      <trkpt lat="41.852557" lon="2.523309">
        <ele>671.337</ele>
        <time>2021-05-26T17:31:08Z</time>
      </trkpt>
      <trkpt lat="41.852567" lon="2.523280">
        <ele>671.449</ele>
        <time>2021-05-26T17:31:10Z</time>
      </trkpt>
      <trkpt lat="41.852574" lon="2.523251">
        <ele>671.413</ele>
        <time>2021-05-26T17:31:12Z</time>
      </trkpt>
      <trkpt lat="41.852574" lon="2.523213">
        <ele>671.108</ele>
        <time>2021-05-26T17:31:14Z</time>
      </trkpt>
      <trkpt lat="41.852584" lon="2.523185">
        <ele>671.280</ele>
        <time>2021-05-26T17:31:16Z</time>
      </trkpt>
      <trkpt lat="41.852585" lon="2.523152">
        <ele>671.047</ele>
        <time>2021-05-26T17:31:18Z</time>
      </trkpt>
      <trkpt lat="41.852597" lon="2.523120">
        <ele>671.234</ele>
        <time>2021-05-26T17:31:20Z</time>
      </trkpt>
      <trkpt lat="41.852604" lon="2.523090">
        <ele>671.248</ele>
        <time>2021-05-26T17:31:22Z</time>
      </trkpt>
      <trkpt lat="41.852617" lon="2.523068">
        <ele>671.473</ele>
        <time>2021-05-26T17:31:24Z</time>
      </trkpt>
      <trkpt lat="41.852632" lon="2.523045">
        <ele>671.833</ele>
        <time>2021-05-26T17:31:26Z</time>
      </trkpt>
      <trkpt lat="41.852649" lon="2.523033">
        <ele>672.319</ele>
        <time>2021-05-26T17:31:28Z</time>
      </trkpt>
      <trkpt lat="41.852670" lon="2.523023">
        <ele>672.944</ele>
        <time>2021-05-26T17:31:31Z</time>
      </trkpt>
      <trkpt lat="41.852689" lon="2.523031">
        <ele>673.467</ele>
        <time>2021-05-26T17:31:34Z</time>
      </trkpt>
      <trkpt lat="41.852701" lon="2.523058">
        <ele>673.881</ele>
        <time>2021-05-26T17:31:37Z</time>
      </trkpt>
      <trkpt lat="41.852716" lon="2.523079">
        <ele>674.319</ele>
        <time>2021-05-26T17:31:39Z</time>
      </trkpt>
      <trkpt lat="41.852730" lon="2.523100">
        <ele>674.808</ele>
        <time>2021-05-26T17:31:41Z</time>
      </trkpt>
      <trkpt lat="41.852746" lon="2.523119">
        <ele>675.323</ele>
        <time>2021-05-26T17:31:43Z</time>
      </trkpt>
      <trkpt lat="41.852768" lon="2.523134">
        <ele>676.010</ele>
        <time>2021-05-26T17:31:45Z</time>
      </trkpt>
      <trkpt lat="41.852794" lon="2.523153">
        <ele>676.657</ele>
        <time>2021-05-26T17:31:48Z</time>
      </trkpt>
      <trkpt lat="41.852813" lon="2.523166">
        <ele>676.991</ele>
        <time>2021-05-26T17:31:50Z</time>
      </trkpt>
      <trkpt lat="41.852837" lon="2.523182">
        <ele>677.236</ele>
        <time>2021-05-26T17:31:52Z</time>
      </trkpt>
      <trkpt lat="41.852857" lon="2.523191">
        <ele>677.576</ele>
        <time>2021-05-26T17:31:54Z</time>
      </trkpt>
      <trkpt lat="41.852878" lon="2.523189">
        <ele>677.892</ele>
        <time>2021-05-26T17:31:56Z</time>
      </trkpt>
      <trkpt lat="41.852903" lon="2.523180">
        <ele>678.117</ele>
        <time>2021-05-26T17:31:58Z</time>
      </trkpt>
      <trkpt lat="41.852928" lon="2.523169">
        <ele>678.527</ele>
        <time>2021-05-26T17:32:00Z</time>
      </trkpt>
      <trkpt lat="41.852949" lon="2.523156">
        <ele>678.868</ele>
        <time>2021-05-26T17:32:02Z</time>
      </trkpt>
      <trkpt lat="41.852972" lon="2.523139">
        <ele>679.214</ele>
        <time>2021-05-26T17:32:04Z</time>
      </trkpt>
      <trkpt lat="41.852993" lon="2.523121">
        <ele>679.608</ele>
        <time>2021-05-26T17:32:06Z</time>
      </trkpt>
      <trkpt lat="41.853012" lon="2.523104">
        <ele>679.969</ele>
        <time>2021-05-26T17:32:08Z</time>
      </trkpt>
      <trkpt lat="41.853030" lon="2.523088">
        <ele>680.336</ele>
        <time>2021-05-26T17:32:10Z</time>
      </trkpt>
      <trkpt lat="41.853046" lon="2.523063">
        <ele>680.863</ele>
        <time>2021-05-26T17:32:12Z</time>
      </trkpt>
      <trkpt lat="41.853076" lon="2.523039">
        <ele>680.837</ele>
        <time>2021-05-26T17:32:14Z</time>
      </trkpt>
      <trkpt lat="41.853092" lon="2.523025">
        <ele>680.622</ele>
        <time>2021-05-26T17:32:15Z</time>
      </trkpt>
      <trkpt lat="41.853108" lon="2.523010">
        <ele>680.552</ele>
        <time>2021-05-26T17:32:16Z</time>
      </trkpt>
      <trkpt lat="41.853125" lon="2.522994">
        <ele>680.398</ele>
        <time>2021-05-26T17:32:17Z</time>
      </trkpt>
      <trkpt lat="41.853142" lon="2.522978">
        <ele>680.243</ele>
        <time>2021-05-26T17:32:18Z</time>
      </trkpt>
      <trkpt lat="41.853158" lon="2.522967">
        <ele>680.154</ele>
        <time>2021-05-26T17:32:19Z</time>
      </trkpt>
      <trkpt lat="41.853173" lon="2.522956">
        <ele>680.056</ele>
        <time>2021-05-26T17:32:20Z</time>
      </trkpt>
      <trkpt lat="41.853210" lon="2.522933">
        <ele>679.711</ele>
        <time>2021-05-26T17:32:22Z</time>
      </trkpt>
      <trkpt lat="41.853231" lon="2.522920">
        <ele>679.608</ele>
        <time>2021-05-26T17:32:23Z</time>
      </trkpt>
      <trkpt lat="41.853255" lon="2.522904">
        <ele>679.552</ele>
        <time>2021-05-26T17:32:24Z</time>
      </trkpt>
      <trkpt lat="41.853275" lon="2.522888">
        <ele>679.489</ele>
        <time>2021-05-26T17:32:25Z</time>
      </trkpt>
      <trkpt lat="41.853299" lon="2.522872">
        <ele>679.386</ele>
        <time>2021-05-26T17:32:26Z</time>
      </trkpt>
      <trkpt lat="41.853321" lon="2.522857">
        <ele>679.390</ele>
        <time>2021-05-26T17:32:27Z</time>
      </trkpt>
      <trkpt lat="41.853344" lon="2.522842">
        <ele>679.285</ele>
        <time>2021-05-26T17:32:28Z</time>
      </trkpt>
      <trkpt lat="41.853365" lon="2.522831">
        <ele>679.165</ele>
        <time>2021-05-26T17:32:29Z</time>
      </trkpt>
      <trkpt lat="41.853385" lon="2.522822">
        <ele>678.961</ele>
        <time>2021-05-26T17:32:30Z</time>
      </trkpt>
      <trkpt lat="41.853406" lon="2.522812">
        <ele>678.836</ele>
        <time>2021-05-26T17:32:31Z</time>
      </trkpt>
      <trkpt lat="41.853432" lon="2.522803">
        <ele>678.621</ele>
        <time>2021-05-26T17:32:32Z</time>
      </trkpt>
      <trkpt lat="41.853453" lon="2.522797">
        <ele>678.541</ele>
        <time>2021-05-26T17:32:33Z</time>
      </trkpt>
      <trkpt lat="41.853476" lon="2.522791">
        <ele>678.305</ele>
        <time>2021-05-26T17:32:34Z</time>
      </trkpt>
      <trkpt lat="41.853500" lon="2.522782">
        <ele>678.108</ele>
        <time>2021-05-26T17:32:35Z</time>
      </trkpt>
      <trkpt lat="41.853523" lon="2.522772">
        <ele>678.099</ele>
        <time>2021-05-26T17:32:36Z</time>
      </trkpt>
      <trkpt lat="41.853550" lon="2.522761">
        <ele>677.816</ele>
        <time>2021-05-26T17:32:37Z</time>
      </trkpt>
      <trkpt lat="41.853576" lon="2.522749">
        <ele>677.643</ele>
        <time>2021-05-26T17:32:38Z</time>
      </trkpt>
      <trkpt lat="41.853602" lon="2.522735">
        <ele>677.477</ele>
        <time>2021-05-26T17:32:39Z</time>
      </trkpt>
      <trkpt lat="41.853628" lon="2.522718">
        <ele>677.422</ele>
        <time>2021-05-26T17:32:40Z</time>
      </trkpt>
      <trkpt lat="41.853652" lon="2.522704">
        <ele>677.392</ele>
        <time>2021-05-26T17:32:41Z</time>
      </trkpt>
      <trkpt lat="41.853679" lon="2.522692">
        <ele>677.368</ele>
        <time>2021-05-26T17:32:42Z</time>
      </trkpt>
      <trkpt lat="41.853708" lon="2.522682">
        <ele>677.223</ele>
        <time>2021-05-26T17:32:43Z</time>
      </trkpt>
      <trkpt lat="41.853739" lon="2.522671">
        <ele>677.199</ele>
        <time>2021-05-26T17:32:44Z</time>
      </trkpt>
      <trkpt lat="41.853777" lon="2.522649">
        <ele>677.107</ele>
        <time>2021-05-26T17:32:45Z</time>
      </trkpt>
      <trkpt lat="41.853806" lon="2.522640">
        <ele>676.927</ele>
        <time>2021-05-26T17:32:46Z</time>
      </trkpt>
      <trkpt lat="41.853831" lon="2.522628">
        <ele>676.908</ele>
        <time>2021-05-26T17:32:47Z</time>
      </trkpt>
      <trkpt lat="41.853853" lon="2.522618">
        <ele>676.896</ele>
        <time>2021-05-26T17:32:48Z</time>
      </trkpt>
      <trkpt lat="41.853877" lon="2.522615">
        <ele>676.773</ele>
        <time>2021-05-26T17:32:49Z</time>
      </trkpt>
      <trkpt lat="41.853897" lon="2.522615">
        <ele>676.550</ele>
        <time>2021-05-26T17:32:50Z</time>
      </trkpt>
      <trkpt lat="41.853921" lon="2.522621">
        <ele>676.354</ele>
        <time>2021-05-26T17:32:51Z</time>
      </trkpt>
      <trkpt lat="41.853942" lon="2.522626">
        <ele>676.189</ele>
        <time>2021-05-26T17:32:52Z</time>
      </trkpt>
      <trkpt lat="41.853965" lon="2.522629">
        <ele>675.899</ele>
        <time>2021-05-26T17:32:53Z</time>
      </trkpt>
      <trkpt lat="41.853993" lon="2.522630">
        <ele>675.665</ele>
        <time>2021-05-26T17:32:54Z</time>
      </trkpt>
      <trkpt lat="41.854016" lon="2.522626">
        <ele>675.490</ele>
        <time>2021-05-26T17:32:55Z</time>
      </trkpt>
      <trkpt lat="41.854045" lon="2.522626">
        <ele>675.188</ele>
        <time>2021-05-26T17:32:56Z</time>
      </trkpt>
      <trkpt lat="41.854070" lon="2.522625">
        <ele>674.924</ele>
        <time>2021-05-26T17:32:57Z</time>
      </trkpt>
      <trkpt lat="41.854094" lon="2.522627">
        <ele>674.726</ele>
        <time>2021-05-26T17:32:58Z</time>
      </trkpt>
      <trkpt lat="41.854117" lon="2.522628">
        <ele>674.508</ele>
        <time>2021-05-26T17:32:59Z</time>
      </trkpt>
      <trkpt lat="41.854142" lon="2.522627">
        <ele>674.285</ele>
        <time>2021-05-26T17:33:00Z</time>
      </trkpt>
      <trkpt lat="41.854168" lon="2.522626">
        <ele>674.082</ele>
        <time>2021-05-26T17:33:01Z</time>
      </trkpt>
      <trkpt lat="41.854193" lon="2.522624">
        <ele>674.119</ele>
        <time>2021-05-26T17:33:02Z</time>
      </trkpt>
      <trkpt lat="41.854218" lon="2.522619">
        <ele>674.183</ele>
        <time>2021-05-26T17:33:03Z</time>
      </trkpt>
      <trkpt lat="41.854241" lon="2.522615">
        <ele>674.218</ele>
        <time>2021-05-26T17:33:04Z</time>
      </trkpt>
      <trkpt lat="41.854265" lon="2.522610">
        <ele>674.288</ele>
        <time>2021-05-26T17:33:05Z</time>
      </trkpt>
      <trkpt lat="41.854290" lon="2.522608">
        <ele>674.394</ele>
        <time>2021-05-26T17:33:06Z</time>
      </trkpt>
      <trkpt lat="41.854316" lon="2.522605">
        <ele>674.369</ele>
        <time>2021-05-26T17:33:07Z</time>
      </trkpt>
      <trkpt lat="41.854339" lon="2.522601">
        <ele>674.441</ele>
        <time>2021-05-26T17:33:08Z</time>
      </trkpt>
      <trkpt lat="41.854362" lon="2.522599">
        <ele>674.581</ele>
        <time>2021-05-26T17:33:09Z</time>
      </trkpt>
      <trkpt lat="41.854386" lon="2.522598">
        <ele>674.509</ele>
        <time>2021-05-26T17:33:10Z</time>
      </trkpt>
      <trkpt lat="41.854411" lon="2.522596">
        <ele>674.608</ele>
        <time>2021-05-26T17:33:11Z</time>
      </trkpt>
      <trkpt lat="41.854436" lon="2.522596">
        <ele>674.641</ele>
        <time>2021-05-26T17:33:12Z</time>
      </trkpt>
      <trkpt lat="41.854461" lon="2.522593">
        <ele>674.848</ele>
        <time>2021-05-26T17:33:13Z</time>
      </trkpt>
      <trkpt lat="41.854486" lon="2.522588">
        <ele>675.165</ele>
        <time>2021-05-26T17:33:14Z</time>
      </trkpt>
      <trkpt lat="41.854510" lon="2.522588">
        <ele>675.359</ele>
        <time>2021-05-26T17:33:15Z</time>
      </trkpt>
      <trkpt lat="41.854533" lon="2.522587">
        <ele>675.574</ele>
        <time>2021-05-26T17:33:16Z</time>
      </trkpt>
      <trkpt lat="41.854553" lon="2.522588">
        <ele>675.764</ele>
        <time>2021-05-26T17:33:17Z</time>
      </trkpt>
      <trkpt lat="41.854571" lon="2.522579">
        <ele>676.060</ele>
        <time>2021-05-26T17:33:18Z</time>
      </trkpt>
      <trkpt lat="41.854591" lon="2.522568">
        <ele>676.295</ele>
        <time>2021-05-26T17:33:19Z</time>
      </trkpt>
      <trkpt lat="41.854609" lon="2.522560">
        <ele>676.447</ele>
        <time>2021-05-26T17:33:20Z</time>
      </trkpt>
      <trkpt lat="41.854629" lon="2.522556">
        <ele>676.729</ele>
        <time>2021-05-26T17:33:21Z</time>
      </trkpt>
      <trkpt lat="41.854652" lon="2.522546">
        <ele>677.021</ele>
        <time>2021-05-26T17:33:22Z</time>
      </trkpt>
      <trkpt lat="41.854672" lon="2.522535">
        <ele>677.208</ele>
        <time>2021-05-26T17:33:23Z</time>
      </trkpt>
      <trkpt lat="41.854713" lon="2.522517">
        <ele>677.811</ele>
        <time>2021-05-26T17:33:25Z</time>
      </trkpt>
      <trkpt lat="41.854747" lon="2.522510">
        <ele>678.228</ele>
        <time>2021-05-26T17:33:27Z</time>
      </trkpt>
      <trkpt lat="41.854766" lon="2.522509">
        <ele>678.415</ele>
        <time>2021-05-26T17:33:28Z</time>
      </trkpt>
      <trkpt lat="41.854786" lon="2.522515">
        <ele>678.659</ele>
        <time>2021-05-26T17:33:29Z</time>
      </trkpt>
      <trkpt lat="41.854806" lon="2.522527">
        <ele>678.744</ele>
        <time>2021-05-26T17:33:30Z</time>
      </trkpt>
      <trkpt lat="41.854830" lon="2.522535">
        <ele>678.934</ele>
        <time>2021-05-26T17:33:31Z</time>
      </trkpt>
      <trkpt lat="41.854852" lon="2.522537">
        <ele>679.160</ele>
        <time>2021-05-26T17:33:32Z</time>
      </trkpt>
      <trkpt lat="41.854878" lon="2.522533">
        <ele>679.415</ele>
        <time>2021-05-26T17:33:33Z</time>
      </trkpt>
      <trkpt lat="41.854898" lon="2.522531">
        <ele>679.692</ele>
        <time>2021-05-26T17:33:34Z</time>
      </trkpt>
      <trkpt lat="41.854922" lon="2.522528">
        <ele>679.973</ele>
        <time>2021-05-26T17:33:35Z</time>
      </trkpt>
      <trkpt lat="41.854946" lon="2.522530">
        <ele>680.120</ele>
        <time>2021-05-26T17:33:36Z</time>
      </trkpt>
      <trkpt lat="41.854971" lon="2.522534">
        <ele>680.308</ele>
        <time>2021-05-26T17:33:37Z</time>
      </trkpt>
      <trkpt lat="41.854995" lon="2.522530">
        <ele>680.646</ele>
        <time>2021-05-26T17:33:38Z</time>
      </trkpt>
      <trkpt lat="41.855021" lon="2.522527">
        <ele>681.053</ele>
        <time>2021-05-26T17:33:39Z</time>
      </trkpt>
      <trkpt lat="41.855050" lon="2.522521">
        <ele>681.550</ele>
        <time>2021-05-26T17:33:40Z</time>
      </trkpt>
      <trkpt lat="41.855068" lon="2.522513">
        <ele>681.894</ele>
        <time>2021-05-26T17:33:41Z</time>
      </trkpt>
      <trkpt lat="41.855104" lon="2.522508">
        <ele>682.419</ele>
        <time>2021-05-26T17:33:43Z</time>
      </trkpt>
      <trkpt lat="41.855125" lon="2.522500">
        <ele>682.819</ele>
        <time>2021-05-26T17:33:44Z</time>
      </trkpt>
      <trkpt lat="41.855145" lon="2.522492">
        <ele>683.175</ele>
        <time>2021-05-26T17:33:45Z</time>
      </trkpt>
      <trkpt lat="41.855160" lon="2.522480">
        <ele>683.330</ele>
        <time>2021-05-26T17:33:46Z</time>
      </trkpt>
      <trkpt lat="41.855180" lon="2.522450">
        <ele>683.767</ele>
        <time>2021-05-26T17:33:48Z</time>
      </trkpt>
      <trkpt lat="41.855197" lon="2.522419">
        <ele>684.081</ele>
        <time>2021-05-26T17:33:50Z</time>
      </trkpt>
      <trkpt lat="41.855220" lon="2.522380">
        <ele>684.519</ele>
        <time>2021-05-26T17:33:52Z</time>
      </trkpt>
      <trkpt lat="41.855237" lon="2.522354">
        <ele>684.908</ele>
        <time>2021-05-26T17:33:54Z</time>
      </trkpt>
      <trkpt lat="41.855255" lon="2.522343">
        <ele>685.213</ele>
        <time>2021-05-26T17:33:56Z</time>
      </trkpt>
      <trkpt lat="41.855280" lon="2.522332">
        <ele>685.670</ele>
        <time>2021-05-26T17:33:58Z</time>
      </trkpt>
      <trkpt lat="41.855310" lon="2.522315">
        <ele>686.257</ele>
        <time>2021-05-26T17:34:00Z</time>
      </trkpt>
      <trkpt lat="41.855338" lon="2.522296">
        <ele>686.881</ele>
        <time>2021-05-26T17:34:02Z</time>
      </trkpt>
      <trkpt lat="41.855365" lon="2.522294">
        <ele>687.216</ele>
        <time>2021-05-26T17:34:04Z</time>
      </trkpt>
      <trkpt lat="41.855396" lon="2.522288">
        <ele>687.896</ele>
        <time>2021-05-26T17:34:06Z</time>
      </trkpt>
      <trkpt lat="41.855421" lon="2.522275">
        <ele>688.312</ele>
        <time>2021-05-26T17:34:08Z</time>
      </trkpt>
      <trkpt lat="41.855442" lon="2.522264">
        <ele>688.727</ele>
        <time>2021-05-26T17:34:10Z</time>
      </trkpt>
      <trkpt lat="41.855460" lon="2.522256">
        <ele>689.182</ele>
        <time>2021-05-26T17:34:12Z</time>
      </trkpt>
      <trkpt lat="41.855479" lon="2.522250">
        <ele>689.543</ele>
        <time>2021-05-26T17:34:14Z</time>
      </trkpt>
      <trkpt lat="41.855498" lon="2.522239">
        <ele>689.917</ele>
        <time>2021-05-26T17:34:17Z</time>
      </trkpt>
      <trkpt lat="41.855518" lon="2.522229">
        <ele>690.308</ele>
        <time>2021-05-26T17:34:19Z</time>
      </trkpt>
      <trkpt lat="41.855535" lon="2.522217">
        <ele>690.635</ele>
        <time>2021-05-26T17:34:23Z</time>
      </trkpt>
      <trkpt lat="41.855554" lon="2.522202">
        <ele>691.052</ele>
        <time>2021-05-26T17:34:37Z</time>
      </trkpt>
      <trkpt lat="41.855589" lon="2.522188">
        <ele>691.459</ele>
        <time>2021-05-26T17:34:41Z</time>
      </trkpt>
      <trkpt lat="41.855617" lon="2.522178">
        <ele>691.763</ele>
        <time>2021-05-26T17:34:43Z</time>
      </trkpt>
      <trkpt lat="41.855650" lon="2.522170">
        <ele>692.098</ele>
        <time>2021-05-26T17:34:45Z</time>
      </trkpt>
      <trkpt lat="41.855669" lon="2.522167">
        <ele>692.268</ele>
        <time>2021-05-26T17:34:46Z</time>
      </trkpt>
      <trkpt lat="41.855688" lon="2.522159">
        <ele>692.464</ele>
        <time>2021-05-26T17:34:47Z</time>
      </trkpt>
      <trkpt lat="41.855707" lon="2.522155">
        <ele>692.629</ele>
        <time>2021-05-26T17:34:48Z</time>
      </trkpt>
      <trkpt lat="41.855726" lon="2.522159">
        <ele>692.857</ele>
        <time>2021-05-26T17:34:49Z</time>
      </trkpt>
      <trkpt lat="41.855756" lon="2.522175">
        <ele>693.200</ele>
        <time>2021-05-26T17:34:51Z</time>
      </trkpt>
      <trkpt lat="41.855775" lon="2.522182">
        <ele>693.420</ele>
        <time>2021-05-26T17:34:52Z</time>
      </trkpt>
      <trkpt lat="41.855794" lon="2.522185">
        <ele>693.608</ele>
        <time>2021-05-26T17:34:53Z</time>
      </trkpt>
      <trkpt lat="41.855814" lon="2.522183">
        <ele>693.852</ele>
        <time>2021-05-26T17:34:54Z</time>
      </trkpt>
      <trkpt lat="41.855836" lon="2.522183">
        <ele>694.079</ele>
        <time>2021-05-26T17:34:55Z</time>
      </trkpt>
      <trkpt lat="41.855859" lon="2.522187">
        <ele>694.076</ele>
        <time>2021-05-26T17:34:56Z</time>
      </trkpt>
      <trkpt lat="41.855884" lon="2.522191">
        <ele>694.020</ele>
        <time>2021-05-26T17:34:57Z</time>
      </trkpt>
      <trkpt lat="41.855909" lon="2.522195">
        <ele>694.035</ele>
        <time>2021-05-26T17:34:58Z</time>
      </trkpt>
      <trkpt lat="41.855932" lon="2.522197">
        <ele>694.065</ele>
        <time>2021-05-26T17:34:59Z</time>
      </trkpt>
      <trkpt lat="41.855952" lon="2.522200">
        <ele>694.061</ele>
        <time>2021-05-26T17:35:00Z</time>
      </trkpt>
      <trkpt lat="41.855974" lon="2.522198">
        <ele>694.066</ele>
        <time>2021-05-26T17:35:01Z</time>
      </trkpt>
      <trkpt lat="41.855995" lon="2.522192">
        <ele>694.025</ele>
        <time>2021-05-26T17:35:02Z</time>
      </trkpt>
      <trkpt lat="41.856018" lon="2.522184">
        <ele>694.026</ele>
        <time>2021-05-26T17:35:03Z</time>
      </trkpt>
      <trkpt lat="41.856037" lon="2.522181">
        <ele>694.008</ele>
        <time>2021-05-26T17:35:04Z</time>
      </trkpt>
      <trkpt lat="41.856057" lon="2.522176">
        <ele>694.008</ele>
        <time>2021-05-26T17:35:05Z</time>
      </trkpt>
      <trkpt lat="41.856079" lon="2.522170">
        <ele>694.059</ele>
        <time>2021-05-26T17:35:06Z</time>
      </trkpt>
      <trkpt lat="41.856172" lon="2.522171">
        <ele>693.986</ele>
        <time>2021-05-26T17:35:08Z</time>
      </trkpt>
      <trkpt lat="41.856248" lon="2.522229">
        <ele>693.583</ele>
        <time>2021-05-26T17:35:12Z</time>
      </trkpt>
      <trkpt lat="41.856267" lon="2.522243">
        <ele>693.357</ele>
        <time>2021-05-26T17:35:13Z</time>
      </trkpt>
      <trkpt lat="41.856289" lon="2.522255">
        <ele>693.132</ele>
        <time>2021-05-26T17:35:14Z</time>
      </trkpt>
      <trkpt lat="41.856312" lon="2.522264">
        <ele>693.012</ele>
        <time>2021-05-26T17:35:15Z</time>
      </trkpt>
      <trkpt lat="41.856336" lon="2.522272">
        <ele>692.858</ele>
        <time>2021-05-26T17:35:16Z</time>
      </trkpt>
      <trkpt lat="41.856356" lon="2.522281">
        <ele>692.713</ele>
        <time>2021-05-26T17:35:17Z</time>
      </trkpt>
      <trkpt lat="41.856398" lon="2.522305">
        <ele>692.532</ele>
        <time>2021-05-26T17:35:19Z</time>
      </trkpt>
      <trkpt lat="41.856416" lon="2.522319">
        <ele>692.592</ele>
        <time>2021-05-26T17:35:20Z</time>
      </trkpt>
      <trkpt lat="41.856437" lon="2.522324">
        <ele>692.511</ele>
        <time>2021-05-26T17:35:21Z</time>
      </trkpt>
      <trkpt lat="41.856472" lon="2.522336">
        <ele>692.708</ele>
        <time>2021-05-26T17:35:23Z</time>
      </trkpt>
      <trkpt lat="41.856491" lon="2.522340">
        <ele>692.720</ele>
        <time>2021-05-26T17:35:24Z</time>
      </trkpt>
      <trkpt lat="41.856525" lon="2.522342">
        <ele>692.967</ele>
        <time>2021-05-26T17:35:26Z</time>
      </trkpt>
      <trkpt lat="41.856544" lon="2.522348">
        <ele>693.024</ele>
        <time>2021-05-26T17:35:27Z</time>
      </trkpt>
      <trkpt lat="41.856566" lon="2.522353">
        <ele>693.018</ele>
        <time>2021-05-26T17:35:28Z</time>
      </trkpt>
      <trkpt lat="41.856587" lon="2.522354">
        <ele>693.123</ele>
        <time>2021-05-26T17:35:29Z</time>
      </trkpt>
      <trkpt lat="41.856609" lon="2.522353">
        <ele>693.343</ele>
        <time>2021-05-26T17:35:30Z</time>
      </trkpt>
      <trkpt lat="41.856633" lon="2.522355">
        <ele>693.419</ele>
        <time>2021-05-26T17:35:31Z</time>
      </trkpt>
      <trkpt lat="41.856653" lon="2.522354">
        <ele>693.554</ele>
        <time>2021-05-26T17:35:32Z</time>
      </trkpt>
      <trkpt lat="41.856674" lon="2.522356">
        <ele>693.671</ele>
        <time>2021-05-26T17:35:33Z</time>
      </trkpt>
      <trkpt lat="41.856697" lon="2.522359">
        <ele>693.641</ele>
        <time>2021-05-26T17:35:34Z</time>
      </trkpt>
      <trkpt lat="41.856717" lon="2.522362">
        <ele>693.715</ele>
        <time>2021-05-26T17:35:35Z</time>
      </trkpt>
      <trkpt lat="41.856736" lon="2.522366">
        <ele>693.708</ele>
        <time>2021-05-26T17:35:36Z</time>
      </trkpt>
      <trkpt lat="41.856757" lon="2.522367">
        <ele>693.884</ele>
        <time>2021-05-26T17:35:37Z</time>
      </trkpt>
      <trkpt lat="41.856779" lon="2.522373">
        <ele>693.821</ele>
        <time>2021-05-26T17:35:38Z</time>
      </trkpt>
      <trkpt lat="41.856801" lon="2.522379">
        <ele>693.878</ele>
        <time>2021-05-26T17:35:39Z</time>
      </trkpt>
      <trkpt lat="41.856822" lon="2.522385">
        <ele>693.842</ele>
        <time>2021-05-26T17:35:40Z</time>
      </trkpt>
      <trkpt lat="41.856845" lon="2.522395">
        <ele>693.847</ele>
        <time>2021-05-26T17:35:41Z</time>
      </trkpt>
      <trkpt lat="41.856868" lon="2.522406">
        <ele>693.717</ele>
        <time>2021-05-26T17:35:42Z</time>
      </trkpt>
      <trkpt lat="41.856892" lon="2.522417">
        <ele>693.723</ele>
        <time>2021-05-26T17:35:43Z</time>
      </trkpt>
      <trkpt lat="41.856912" lon="2.522426">
        <ele>693.778</ele>
        <time>2021-05-26T17:35:44Z</time>
      </trkpt>
      <trkpt lat="41.856932" lon="2.522437">
        <ele>693.665</ele>
        <time>2021-05-26T17:35:45Z</time>
      </trkpt>
      <trkpt lat="41.856955" lon="2.522444">
        <ele>693.768</ele>
        <time>2021-05-26T17:35:46Z</time>
      </trkpt>
      <trkpt lat="41.856980" lon="2.522458">
        <ele>693.814</ele>
        <time>2021-05-26T17:35:47Z</time>
      </trkpt>
      <trkpt lat="41.857004" lon="2.522470">
        <ele>693.908</ele>
        <time>2021-05-26T17:35:48Z</time>
      </trkpt>
      <trkpt lat="41.857027" lon="2.522480">
        <ele>694.133</ele>
        <time>2021-05-26T17:35:49Z</time>
      </trkpt>
      <trkpt lat="41.857054" lon="2.522494">
        <ele>694.260</ele>
        <time>2021-05-26T17:35:50Z</time>
      </trkpt>
      <trkpt lat="41.857079" lon="2.522508">
        <ele>694.377</ele>
        <time>2021-05-26T17:35:51Z</time>
      </trkpt>
      <trkpt lat="41.857102" lon="2.522518">
        <ele>694.461</ele>
        <time>2021-05-26T17:35:52Z</time>
      </trkpt>
      <trkpt lat="41.857124" lon="2.522526">
        <ele>694.616</ele>
        <time>2021-05-26T17:35:53Z</time>
      </trkpt>
      <trkpt lat="41.857147" lon="2.522531">
        <ele>694.796</ele>
        <time>2021-05-26T17:35:54Z</time>
      </trkpt>
      <trkpt lat="41.857169" lon="2.522535">
        <ele>694.932</ele>
        <time>2021-05-26T17:35:55Z</time>
      </trkpt>
      <trkpt lat="41.857191" lon="2.522540">
        <ele>695.157</ele>
        <time>2021-05-26T17:35:56Z</time>
      </trkpt>
      <trkpt lat="41.857213" lon="2.522542">
        <ele>695.384</ele>
        <time>2021-05-26T17:35:57Z</time>
      </trkpt>
      <trkpt lat="41.857234" lon="2.522544">
        <ele>695.507</ele>
        <time>2021-05-26T17:35:58Z</time>
      </trkpt>
      <trkpt lat="41.857254" lon="2.522549">
        <ele>695.717</ele>
        <time>2021-05-26T17:35:59Z</time>
      </trkpt>
      <trkpt lat="41.857287" lon="2.522550">
        <ele>696.108</ele>
        <time>2021-05-26T17:36:01Z</time>
      </trkpt>
      <trkpt lat="41.857306" lon="2.522551">
        <ele>696.365</ele>
        <time>2021-05-26T17:36:02Z</time>
      </trkpt>
      <trkpt lat="41.857336" lon="2.522552">
        <ele>696.722</ele>
        <time>2021-05-26T17:36:04Z</time>
      </trkpt>
      <trkpt lat="41.857374" lon="2.522547">
        <ele>697.289</ele>
        <time>2021-05-26T17:36:06Z</time>
      </trkpt>
      <trkpt lat="41.857393" lon="2.522544">
        <ele>697.553</ele>
        <time>2021-05-26T17:36:07Z</time>
      </trkpt>
      <trkpt lat="41.857414" lon="2.522544">
        <ele>697.858</ele>
        <time>2021-05-26T17:36:08Z</time>
      </trkpt>
      <trkpt lat="41.857450" lon="2.522542">
        <ele>698.248</ele>
        <time>2021-05-26T17:36:10Z</time>
      </trkpt>
      <trkpt lat="41.857485" lon="2.522548">
        <ele>698.694</ele>
        <time>2021-05-26T17:36:12Z</time>
      </trkpt>
      <trkpt lat="41.857519" lon="2.522554">
        <ele>699.269</ele>
        <time>2021-05-26T17:36:14Z</time>
      </trkpt>
      <trkpt lat="41.857538" lon="2.522552">
        <ele>699.621</ele>
        <time>2021-05-26T17:36:15Z</time>
      </trkpt>
      <trkpt lat="41.857556" lon="2.522552">
        <ele>700.041</ele>
        <time>2021-05-26T17:36:16Z</time>
      </trkpt>
      <trkpt lat="41.857592" lon="2.522546">
        <ele>700.805</ele>
        <time>2021-05-26T17:36:18Z</time>
      </trkpt>
      <trkpt lat="41.857611" lon="2.522543">
        <ele>701.208</ele>
        <time>2021-05-26T17:36:19Z</time>
      </trkpt>
      <trkpt lat="41.857651" lon="2.522542">
        <ele>702.039</ele>
        <time>2021-05-26T17:36:21Z</time>
      </trkpt>
      <trkpt lat="41.857674" lon="2.522539">
        <ele>702.576</ele>
        <time>2021-05-26T17:36:22Z</time>
      </trkpt>
      <trkpt lat="41.857695" lon="2.522541">
        <ele>703.073</ele>
        <time>2021-05-26T17:36:23Z</time>
      </trkpt>
      <trkpt lat="41.857719" lon="2.522543">
        <ele>703.517</ele>
        <time>2021-05-26T17:36:24Z</time>
      </trkpt>
      <trkpt lat="41.857742" lon="2.522542">
        <ele>703.962</ele>
        <time>2021-05-26T17:36:25Z</time>
      </trkpt>
      <trkpt lat="41.857761" lon="2.522536">
        <ele>704.422</ele>
        <time>2021-05-26T17:36:26Z</time>
      </trkpt>
      <trkpt lat="41.857799" lon="2.522527">
        <ele>705.238</ele>
        <time>2021-05-26T17:36:28Z</time>
      </trkpt>
      <trkpt lat="41.857837" lon="2.522533">
        <ele>705.913</ele>
        <time>2021-05-26T17:36:30Z</time>
      </trkpt>
      <trkpt lat="41.857860" lon="2.522545">
        <ele>706.268</ele>
        <time>2021-05-26T17:36:31Z</time>
      </trkpt>
      <trkpt lat="41.857883" lon="2.522577">
        <ele>706.442</ele>
        <time>2021-05-26T17:36:33Z</time>
      </trkpt>
      <trkpt lat="41.857904" lon="2.522617">
        <ele>706.626</ele>
        <time>2021-05-26T17:36:35Z</time>
      </trkpt>
      <trkpt lat="41.857916" lon="2.522668">
        <ele>706.608</ele>
        <time>2021-05-26T17:36:37Z</time>
      </trkpt>
      <trkpt lat="41.857923" lon="2.522694">
        <ele>706.683</ele>
        <time>2021-05-26T17:36:38Z</time>
      </trkpt>
      <trkpt lat="41.857924" lon="2.522737">
        <ele>706.490</ele>
        <time>2021-05-26T17:36:40Z</time>
      </trkpt>
      <trkpt lat="41.857924" lon="2.522777">
        <ele>706.287</ele>
        <time>2021-05-26T17:36:42Z</time>
      </trkpt>
      <trkpt lat="41.857935" lon="2.522816">
        <ele>706.011</ele>
        <time>2021-05-26T17:36:44Z</time>
      </trkpt>
      <trkpt lat="41.857957" lon="2.522867">
        <ele>706.096</ele>
        <time>2021-05-26T17:36:46Z</time>
      </trkpt>
      <trkpt lat="41.858001" lon="2.522978">
        <ele>705.816</ele>
        <time>2021-05-26T17:36:51Z</time>
      </trkpt>
      <trkpt lat="41.858042" lon="2.523012">
        <ele>706.212</ele>
        <time>2021-05-26T17:36:53Z</time>
      </trkpt>
      <trkpt lat="41.858078" lon="2.523048">
        <ele>706.697</ele>
        <time>2021-05-26T17:36:55Z</time>
      </trkpt>
      <trkpt lat="41.858114" lon="2.523085">
        <ele>707.299</ele>
        <time>2021-05-26T17:36:57Z</time>
      </trkpt>
      <trkpt lat="41.858140" lon="2.523114">
        <ele>707.507</ele>
        <time>2021-05-26T17:36:59Z</time>
      </trkpt>
      <trkpt lat="41.858174" lon="2.523159">
        <ele>707.927</ele>
        <time>2021-05-26T17:37:02Z</time>
      </trkpt>
      <trkpt lat="41.858201" lon="2.523182">
        <ele>708.308</ele>
        <time>2021-05-26T17:37:04Z</time>
      </trkpt>
      <trkpt lat="41.858225" lon="2.523209">
        <ele>708.686</ele>
        <time>2021-05-26T17:37:06Z</time>
      </trkpt>
      <trkpt lat="41.858246" lon="2.523236">
        <ele>708.953</ele>
        <time>2021-05-26T17:37:08Z</time>
      </trkpt>
      <trkpt lat="41.858267" lon="2.523262">
        <ele>709.120</ele>
        <time>2021-05-26T17:37:10Z</time>
      </trkpt>
      <trkpt lat="41.858290" lon="2.523288">
        <ele>709.424</ele>
        <time>2021-05-26T17:37:12Z</time>
      </trkpt>
      <trkpt lat="41.858303" lon="2.523308">
        <ele>709.559</ele>
        <time>2021-05-26T17:37:14Z</time>
      </trkpt>
      <trkpt lat="41.858318" lon="2.523337">
        <ele>709.699</ele>
        <time>2021-05-26T17:37:16Z</time>
      </trkpt>
      <trkpt lat="41.858337" lon="2.523350">
        <ele>709.915</ele>
        <time>2021-05-26T17:37:18Z</time>
      </trkpt>
      <trkpt lat="41.858357" lon="2.523369">
        <ele>710.320</ele>
        <time>2021-05-26T17:37:20Z</time>
      </trkpt>
      <trkpt lat="41.858373" lon="2.523395">
        <ele>710.461</ele>
        <time>2021-05-26T17:37:22Z</time>
      </trkpt>
      <trkpt lat="41.858388" lon="2.523418">
        <ele>710.621</ele>
        <time>2021-05-26T17:37:24Z</time>
      </trkpt>
      <trkpt lat="41.858403" lon="2.523436">
        <ele>710.913</ele>
        <time>2021-05-26T17:37:26Z</time>
      </trkpt>
      <trkpt lat="41.858422" lon="2.523462">
        <ele>711.208</ele>
        <time>2021-05-26T17:37:28Z</time>
      </trkpt>
      <trkpt lat="41.858441" lon="2.523476">
        <ele>711.633</ele>
        <time>2021-05-26T17:37:30Z</time>
      </trkpt>
      <trkpt lat="41.858458" lon="2.523495">
        <ele>712.060</ele>
        <time>2021-05-26T17:37:32Z</time>
      </trkpt>
      <trkpt lat="41.858465" lon="2.523520">
        <ele>711.937</ele>
        <time>2021-05-26T17:37:34Z</time>
      </trkpt>
      <trkpt lat="41.858476" lon="2.523544">
        <ele>712.031</ele>
        <time>2021-05-26T17:37:36Z</time>
      </trkpt>
      <trkpt lat="41.858482" lon="2.523570">
        <ele>711.926</ele>
        <time>2021-05-26T17:37:38Z</time>
      </trkpt>
      <trkpt lat="41.858497" lon="2.523604">
        <ele>712.046</ele>
        <time>2021-05-26T17:37:41Z</time>
      </trkpt>
      <trkpt lat="41.858510" lon="2.523622">
        <ele>712.252</ele>
        <time>2021-05-26T17:37:43Z</time>
      </trkpt>
      <trkpt lat="41.858530" lon="2.523642">
        <ele>712.727</ele>
        <time>2021-05-26T17:37:45Z</time>
      </trkpt>
      <trkpt lat="41.858552" lon="2.523659">
        <ele>713.262</ele>
        <time>2021-05-26T17:37:47Z</time>
      </trkpt>
      <trkpt lat="41.858570" lon="2.523681">
        <ele>713.683</ele>
        <time>2021-05-26T17:37:49Z</time>
      </trkpt>
      <trkpt lat="41.858594" lon="2.523691">
        <ele>714.311</ele>
        <time>2021-05-26T17:37:51Z</time>
      </trkpt>
      <trkpt lat="41.858617" lon="2.523690">
        <ele>715.108</ele>
        <time>2021-05-26T17:37:53Z</time>
      </trkpt>
      <trkpt lat="41.858637" lon="2.523691">
        <ele>715.743</ele>
        <time>2021-05-26T17:37:55Z</time>
      </trkpt>
      <trkpt lat="41.858656" lon="2.523695">
        <ele>716.340</ele>
        <time>2021-05-26T17:37:57Z</time>
      </trkpt>
      <trkpt lat="41.858678" lon="2.523699">
        <ele>717.037</ele>
        <time>2021-05-26T17:37:59Z</time>
      </trkpt>
      <trkpt lat="41.858702" lon="2.523706">
        <ele>717.781</ele>
        <time>2021-05-26T17:38:01Z</time>
      </trkpt>
      <trkpt lat="41.858728" lon="2.523714">
        <ele>718.496</ele>
        <time>2021-05-26T17:38:03Z</time>
      </trkpt>
      <trkpt lat="41.858751" lon="2.523714">
        <ele>719.246</ele>
        <time>2021-05-26T17:38:05Z</time>
      </trkpt>
      <trkpt lat="41.858770" lon="2.523718">
        <ele>719.712</ele>
        <time>2021-05-26T17:38:07Z</time>
      </trkpt>
      <trkpt lat="41.858791" lon="2.523724">
        <ele>720.347</ele>
        <time>2021-05-26T17:38:10Z</time>
      </trkpt>
      <trkpt lat="41.858811" lon="2.523731">
        <ele>720.847</ele>
        <time>2021-05-26T17:38:13Z</time>
      </trkpt>
      <trkpt lat="41.858825" lon="2.523748">
        <ele>721.029</ele>
        <time>2021-05-26T17:38:15Z</time>
      </trkpt>
      <trkpt lat="41.858840" lon="2.523771">
        <ele>721.021</ele>
        <time>2021-05-26T17:38:17Z</time>
      </trkpt>
      <trkpt lat="41.858857" lon="2.523788">
        <ele>721.208</ele>
        <time>2021-05-26T17:38:18Z</time>
      </trkpt>
      <trkpt lat="41.858874" lon="2.523817">
        <ele>721.111</ele>
        <time>2021-05-26T17:38:20Z</time>
      </trkpt>
      <trkpt lat="41.858889" lon="2.523840">
        <ele>721.178</ele>
        <time>2021-05-26T17:38:22Z</time>
      </trkpt>
      <trkpt lat="41.858905" lon="2.523868">
        <ele>721.285</ele>
        <time>2021-05-26T17:38:24Z</time>
      </trkpt>
      <trkpt lat="41.858924" lon="2.523902">
        <ele>721.569</ele>
        <time>2021-05-26T17:38:26Z</time>
      </trkpt>
      <trkpt lat="41.858942" lon="2.523934">
        <ele>722.284</ele>
        <time>2021-05-26T17:38:28Z</time>
      </trkpt>
      <trkpt lat="41.858951" lon="2.523964">
        <ele>722.494</ele>
        <time>2021-05-26T17:38:30Z</time>
      </trkpt>
      <trkpt lat="41.858959" lon="2.523998">
        <ele>722.550</ele>
        <time>2021-05-26T17:38:32Z</time>
      </trkpt>
      <trkpt lat="41.858968" lon="2.524035">
        <ele>722.695</ele>
        <time>2021-05-26T17:38:34Z</time>
      </trkpt>
      <trkpt lat="41.858970" lon="2.524074">
        <ele>722.555</ele>
        <time>2021-05-26T17:38:36Z</time>
      </trkpt>
      <trkpt lat="41.858967" lon="2.524108">
        <ele>722.107</ele>
        <time>2021-05-26T17:38:38Z</time>
      </trkpt>
      <trkpt lat="41.858969" lon="2.524138">
        <ele>722.017</ele>
        <time>2021-05-26T17:38:40Z</time>
      </trkpt>
      <trkpt lat="41.858960" lon="2.524167">
        <ele>721.308</ele>
        <time>2021-05-26T17:38:42Z</time>
      </trkpt>
      <trkpt lat="41.858957" lon="2.524193">
        <ele>721.142</ele>
        <time>2021-05-26T17:38:43Z</time>
      </trkpt>
      <trkpt lat="41.858958" lon="2.524238">
        <ele>721.189</ele>
        <time>2021-05-26T17:38:45Z</time>
      </trkpt>
      <trkpt lat="41.858961" lon="2.524275">
        <ele>721.286</ele>
        <time>2021-05-26T17:38:47Z</time>
      </trkpt>
      <trkpt lat="41.858967" lon="2.524310">
        <ele>721.430</ele>
        <time>2021-05-26T17:38:49Z</time>
      </trkpt>
      <trkpt lat="41.858976" lon="2.524341">
        <ele>721.815</ele>
        <time>2021-05-26T17:38:51Z</time>
      </trkpt>
      <trkpt lat="41.858990" lon="2.524367">
        <ele>722.555</ele>
        <time>2021-05-26T17:38:53Z</time>
      </trkpt>
      <trkpt lat="41.858999" lon="2.524394">
        <ele>723.021</ele>
        <time>2021-05-26T17:38:55Z</time>
      </trkpt>
      <trkpt lat="41.859009" lon="2.524423">
        <ele>723.576</ele>
        <time>2021-05-26T17:38:57Z</time>
      </trkpt>
      <trkpt lat="41.859027" lon="2.524453">
        <ele>724.598</ele>
        <time>2021-05-26T17:38:59Z</time>
      </trkpt>
      <trkpt lat="41.859041" lon="2.524480">
        <ele>725.215</ele>
        <time>2021-05-26T17:39:01Z</time>
      </trkpt>
      <trkpt lat="41.859046" lon="2.524518">
        <ele>725.526</ele>
        <time>2021-05-26T17:39:03Z</time>
      </trkpt>
      <trkpt lat="41.859046" lon="2.524557">
        <ele>725.508</ele>
        <time>2021-05-26T17:39:05Z</time>
      </trkpt>
      <trkpt lat="41.859050" lon="2.524584">
        <ele>725.726</ele>
        <time>2021-05-26T17:39:07Z</time>
      </trkpt>
      <trkpt lat="41.859053" lon="2.524619">
        <ele>725.913</ele>
        <time>2021-05-26T17:39:09Z</time>
      </trkpt>
      <trkpt lat="41.859051" lon="2.524659">
        <ele>725.850</ele>
        <time>2021-05-26T17:39:11Z</time>
      </trkpt>
      <trkpt lat="41.859058" lon="2.524697">
        <ele>726.124</ele>
        <time>2021-05-26T17:39:13Z</time>
      </trkpt>
      <trkpt lat="41.859069" lon="2.524742">
        <ele>726.539</ele>
        <time>2021-05-26T17:39:15Z</time>
      </trkpt>
      <trkpt lat="41.859076" lon="2.524770">
        <ele>726.679</ele>
        <time>2021-05-26T17:39:17Z</time>
      </trkpt>
      <trkpt lat="41.859089" lon="2.524797">
        <ele>727.035</ele>
        <time>2021-05-26T17:39:19Z</time>
      </trkpt>
      <trkpt lat="41.859099" lon="2.524824">
        <ele>727.250</ele>
        <time>2021-05-26T17:39:21Z</time>
      </trkpt>
      <trkpt lat="41.859113" lon="2.524851">
        <ele>727.671</ele>
        <time>2021-05-26T17:39:23Z</time>
      </trkpt>
      <trkpt lat="41.859127" lon="2.524880">
        <ele>727.941</ele>
        <time>2021-05-26T17:39:25Z</time>
      </trkpt>
      <trkpt lat="41.859136" lon="2.524911">
        <ele>727.915</ele>
        <time>2021-05-26T17:39:27Z</time>
      </trkpt>
      <trkpt lat="41.859137" lon="2.524941">
        <ele>727.608</ele>
        <time>2021-05-26T17:39:29Z</time>
      </trkpt>
      <trkpt lat="41.859142" lon="2.524973">
        <ele>727.494</ele>
        <time>2021-05-26T17:39:31Z</time>
      </trkpt>
      <trkpt lat="41.859170" lon="2.525033">
        <ele>727.541</ele>
        <time>2021-05-26T17:39:34Z</time>
      </trkpt>
      <trkpt lat="41.859195" lon="2.525065">
        <ele>728.098</ele>
        <time>2021-05-26T17:39:37Z</time>
      </trkpt>
      <trkpt lat="41.859215" lon="2.525087">
        <ele>728.392</ele>
        <time>2021-05-26T17:39:39Z</time>
      </trkpt>
      <trkpt lat="41.859230" lon="2.525107">
        <ele>728.657</ele>
        <time>2021-05-26T17:39:41Z</time>
      </trkpt>
      <trkpt lat="41.859252" lon="2.525127">
        <ele>729.127</ele>
        <time>2021-05-26T17:39:44Z</time>
      </trkpt>
      <trkpt lat="41.859265" lon="2.525146">
        <ele>729.383</ele>
        <time>2021-05-26T17:39:46Z</time>
      </trkpt>
      <trkpt lat="41.859282" lon="2.525166">
        <ele>729.648</ele>
        <time>2021-05-26T17:39:48Z</time>
      </trkpt>
      <trkpt lat="41.859301" lon="2.525175">
        <ele>730.224</ele>
        <time>2021-05-26T17:39:51Z</time>
      </trkpt>
      <trkpt lat="41.859325" lon="2.525172">
        <ele>731.204</ele>
        <time>2021-05-26T17:39:54Z</time>
      </trkpt>
      <trkpt lat="41.859344" lon="2.525172">
        <ele>731.914</ele>
        <time>2021-05-26T17:39:56Z</time>
      </trkpt>
      <trkpt lat="41.859366" lon="2.525178">
        <ele>732.708</ele>
        <time>2021-05-26T17:39:58Z</time>
      </trkpt>
      <trkpt lat="41.859387" lon="2.525187">
        <ele>733.459</ele>
        <time>2021-05-26T17:40:00Z</time>
      </trkpt>
      <trkpt lat="41.859412" lon="2.525193">
        <ele>734.216</ele>
        <time>2021-05-26T17:40:02Z</time>
      </trkpt>
      <trkpt lat="41.859431" lon="2.525202">
        <ele>734.893</ele>
        <time>2021-05-26T17:40:04Z</time>
      </trkpt>
      <trkpt lat="41.859457" lon="2.525216">
        <ele>735.567</ele>
        <time>2021-05-26T17:40:06Z</time>
      </trkpt>
      <trkpt lat="41.859484" lon="2.525216">
        <ele>736.342</ele>
        <time>2021-05-26T17:40:08Z</time>
      </trkpt>
      <trkpt lat="41.859512" lon="2.525219">
        <ele>737.292</ele>
        <time>2021-05-26T17:40:10Z</time>
      </trkpt>
      <trkpt lat="41.859536" lon="2.525224">
        <ele>737.858</ele>
        <time>2021-05-26T17:40:12Z</time>
      </trkpt>
      <trkpt lat="41.859562" lon="2.525226">
        <ele>738.643</ele>
        <time>2021-05-26T17:40:14Z</time>
      </trkpt>
      <trkpt lat="41.859588" lon="2.525224">
        <ele>739.492</ele>
        <time>2021-05-26T17:40:16Z</time>
      </trkpt>
      <trkpt lat="41.859608" lon="2.525228">
        <ele>739.973</ele>
        <time>2021-05-26T17:40:18Z</time>
      </trkpt>
      <trkpt lat="41.859627" lon="2.525226">
        <ele>740.620</ele>
        <time>2021-05-26T17:40:20Z</time>
      </trkpt>
      <trkpt lat="41.859652" lon="2.525228">
        <ele>741.308</ele>
        <time>2021-05-26T17:40:23Z</time>
      </trkpt>
      <trkpt lat="41.859677" lon="2.525233">
        <ele>741.966</ele>
        <time>2021-05-26T17:40:25Z</time>
      </trkpt>
      <trkpt lat="41.859695" lon="2.525243">
        <ele>742.253</ele>
        <time>2021-05-26T17:40:27Z</time>
      </trkpt>
      <trkpt lat="41.859718" lon="2.525251">
        <ele>742.680</ele>
        <time>2021-05-26T17:40:29Z</time>
      </trkpt>
      <trkpt lat="41.859745" lon="2.525258">
        <ele>743.164</ele>
        <time>2021-05-26T17:40:31Z</time>
      </trkpt>
      <trkpt lat="41.859765" lon="2.525265">
        <ele>743.469</ele>
        <time>2021-05-26T17:40:33Z</time>
      </trkpt>
      <trkpt lat="41.859795" lon="2.525272">
        <ele>744.029</ele>
        <time>2021-05-26T17:40:36Z</time>
      </trkpt>
      <trkpt lat="41.859822" lon="2.525277">
        <ele>744.585</ele>
        <time>2021-05-26T17:40:38Z</time>
      </trkpt>
      <trkpt lat="41.859849" lon="2.525282">
        <ele>745.170</ele>
        <time>2021-05-26T17:40:40Z</time>
      </trkpt>
      <trkpt lat="41.859892" lon="2.525298">
        <ele>745.685</ele>
        <time>2021-05-26T17:40:44Z</time>
      </trkpt>
      <trkpt lat="41.859914" lon="2.525307">
        <ele>745.889</ele>
        <time>2021-05-26T17:40:47Z</time>
      </trkpt>
      <trkpt lat="41.859932" lon="2.525314">
        <ele>746.017</ele>
        <time>2021-05-26T17:40:49Z</time>
      </trkpt>
      <trkpt lat="41.859967" lon="2.525319">
        <ele>746.708</ele>
        <time>2021-05-26T17:40:51Z</time>
      </trkpt>
      <trkpt lat="41.859992" lon="2.525329">
        <ele>747.085</ele>
        <time>2021-05-26T17:40:53Z</time>
      </trkpt>
      <trkpt lat="41.860013" lon="2.525329">
        <ele>747.332</ele>
        <time>2021-05-26T17:40:55Z</time>
      </trkpt>
      <trkpt lat="41.860037" lon="2.525331">
        <ele>747.519</ele>
        <time>2021-05-26T17:40:57Z</time>
      </trkpt>
      <trkpt lat="41.860062" lon="2.525330">
        <ele>747.833</ele>
        <time>2021-05-26T17:40:59Z</time>
      </trkpt>
      <trkpt lat="41.860081" lon="2.525323">
        <ele>748.278</ele>
        <time>2021-05-26T17:41:01Z</time>
      </trkpt>
      <trkpt lat="41.860108" lon="2.525316">
        <ele>748.898</ele>
        <time>2021-05-26T17:41:03Z</time>
      </trkpt>
      <trkpt lat="41.860135" lon="2.525311">
        <ele>749.384</ele>
        <time>2021-05-26T17:41:05Z</time>
      </trkpt>
      <trkpt lat="41.860167" lon="2.525310">
        <ele>749.649</ele>
        <time>2021-05-26T17:41:07Z</time>
      </trkpt>
      <trkpt lat="41.860192" lon="2.525308">
        <ele>750.083</ele>
        <time>2021-05-26T17:41:09Z</time>
      </trkpt>
      <trkpt lat="41.860214" lon="2.525302">
        <ele>750.425</ele>
        <time>2021-05-26T17:41:11Z</time>
      </trkpt>
      <trkpt lat="41.860235" lon="2.525297">
        <ele>750.817</ele>
        <time>2021-05-26T17:41:13Z</time>
      </trkpt>
      <trkpt lat="41.860274" lon="2.525266">
        <ele>752.308</ele>
        <time>2021-05-26T17:41:16Z</time>
      </trkpt>
      <trkpt lat="41.860297" lon="2.525247">
        <ele>753.135</ele>
        <time>2021-05-26T17:41:18Z</time>
      </trkpt>
      <trkpt lat="41.860311" lon="2.525232">
        <ele>753.682</ele>
        <time>2021-05-26T17:41:19Z</time>
      </trkpt>
      <trkpt lat="41.860336" lon="2.525224">
        <ele>753.979</ele>
        <time>2021-05-26T17:41:21Z</time>
      </trkpt>
      <trkpt lat="41.860361" lon="2.525212">
        <ele>754.353</ele>
        <time>2021-05-26T17:41:23Z</time>
      </trkpt>
      <trkpt lat="41.860382" lon="2.525198">
        <ele>754.728</ele>
        <time>2021-05-26T17:41:26Z</time>
      </trkpt>
      <trkpt lat="41.860408" lon="2.525185">
        <ele>755.258</ele>
        <time>2021-05-26T17:41:29Z</time>
      </trkpt>
      <trkpt lat="41.860428" lon="2.525170">
        <ele>755.664</ele>
        <time>2021-05-26T17:41:31Z</time>
      </trkpt>
      <trkpt lat="41.860446" lon="2.525150">
        <ele>756.269</ele>
        <time>2021-05-26T17:41:33Z</time>
      </trkpt>
      <trkpt lat="41.860462" lon="2.525136">
        <ele>756.648</ele>
        <time>2021-05-26T17:41:35Z</time>
      </trkpt>
      <trkpt lat="41.860480" lon="2.525124">
        <ele>756.961</ele>
        <time>2021-05-26T17:41:37Z</time>
      </trkpt>
      <trkpt lat="41.860499" lon="2.525106">
        <ele>757.417</ele>
        <time>2021-05-26T17:41:39Z</time>
      </trkpt>
      <trkpt lat="41.860519" lon="2.525093">
        <ele>757.708</ele>
        <time>2021-05-26T17:41:41Z</time>
      </trkpt>
      <trkpt lat="41.860539" lon="2.525077">
        <ele>758.151</ele>
        <time>2021-05-26T17:41:43Z</time>
      </trkpt>
      <trkpt lat="41.860560" lon="2.525055">
        <ele>758.718</ele>
        <time>2021-05-26T17:41:46Z</time>
      </trkpt>
      <trkpt lat="41.860579" lon="2.525045">
        <ele>759.185</ele>
        <time>2021-05-26T17:41:48Z</time>
      </trkpt>
      <trkpt lat="41.860593" lon="2.525027">
        <ele>759.779</ele>
        <time>2021-05-26T17:41:50Z</time>
      </trkpt>
      <trkpt lat="41.860607" lon="2.525008">
        <ele>760.414</ele>
        <time>2021-05-26T17:41:52Z</time>
      </trkpt>
      <trkpt lat="41.860623" lon="2.524993">
        <ele>760.934</ele>
        <time>2021-05-26T17:41:54Z</time>
      </trkpt>
      <trkpt lat="41.860641" lon="2.524973">
        <ele>761.690</ele>
        <time>2021-05-26T17:41:56Z</time>
      </trkpt>
      <trkpt lat="41.860662" lon="2.524958">
        <ele>762.115</ele>
        <time>2021-05-26T17:41:58Z</time>
      </trkpt>
      <trkpt lat="41.860686" lon="2.524943">
        <ele>762.681</ele>
        <time>2021-05-26T17:42:00Z</time>
      </trkpt>
      <trkpt lat="41.860705" lon="2.524943">
        <ele>762.761</ele>
        <time>2021-05-26T17:42:02Z</time>
      </trkpt>
      <trkpt lat="41.860724" lon="2.524940">
        <ele>762.917</ele>
        <time>2021-05-26T17:42:04Z</time>
      </trkpt>
      <trkpt lat="41.860752" lon="2.524933">
        <ele>763.208</ele>
        <time>2021-05-26T17:42:06Z</time>
      </trkpt>
      <trkpt lat="41.860790" lon="2.524915">
        <ele>763.745</ele>
        <time>2021-05-26T17:42:08Z</time>
      </trkpt>
      <trkpt lat="41.860827" lon="2.524896">
        <ele>764.142</ele>
        <time>2021-05-26T17:42:10Z</time>
      </trkpt>
      <trkpt lat="41.860852" lon="2.524885">
        <ele>764.389</ele>
        <time>2021-05-26T17:42:12Z</time>
      </trkpt>
      <trkpt lat="41.860870" lon="2.524874">
        <ele>764.443</ele>
        <time>2021-05-26T17:42:13Z</time>
      </trkpt>
      <trkpt lat="41.860886" lon="2.524861">
        <ele>764.658</ele>
        <time>2021-05-26T17:42:14Z</time>
      </trkpt>
      <trkpt lat="41.860908" lon="2.524840">
        <ele>764.878</ele>
        <time>2021-05-26T17:42:16Z</time>
      </trkpt>
      <trkpt lat="41.860985" lon="2.524788">
        <ele>765.154</ele>
        <time>2021-05-26T17:42:21Z</time>
      </trkpt>
      <trkpt lat="41.861008" lon="2.524774">
        <ele>765.219</ele>
        <time>2021-05-26T17:42:23Z</time>
      </trkpt>
      <trkpt lat="41.861017" lon="2.524748">
        <ele>765.277</ele>
        <time>2021-05-26T17:42:25Z</time>
      </trkpt>
      <trkpt lat="41.861021" lon="2.524716">
        <ele>765.461</ele>
        <time>2021-05-26T17:42:27Z</time>
      </trkpt>
      <trkpt lat="41.861031" lon="2.524681">
        <ele>765.527</ele>
        <time>2021-05-26T17:42:29Z</time>
      </trkpt>
      <trkpt lat="41.861035" lon="2.524644">
        <ele>765.608</ele>
        <time>2021-05-26T17:42:31Z</time>
      </trkpt>
      <trkpt lat="41.861044" lon="2.524607">
        <ele>765.644</ele>
        <time>2021-05-26T17:42:33Z</time>
      </trkpt>
      <trkpt lat="41.861058" lon="2.524574">
        <ele>765.681</ele>
        <time>2021-05-26T17:42:35Z</time>
      </trkpt>
      <trkpt lat="41.861071" lon="2.524537">
        <ele>765.538</ele>
        <time>2021-05-26T17:42:37Z</time>
      </trkpt>
      <trkpt lat="41.861097" lon="2.524449">
        <ele>765.332</ele>
        <time>2021-05-26T17:42:41Z</time>
      </trkpt>
      <trkpt lat="41.861105" lon="2.524419">
        <ele>765.217</ele>
        <time>2021-05-26T17:42:43Z</time>
      </trkpt>
      <trkpt lat="41.861112" lon="2.524395">
        <ele>765.237</ele>
        <time>2021-05-26T17:42:45Z</time>
      </trkpt>
      <trkpt lat="41.861117" lon="2.524367">
        <ele>765.353</ele>
        <time>2021-05-26T17:42:47Z</time>
      </trkpt>
      <trkpt lat="41.861133" lon="2.524344">
        <ele>765.448</ele>
        <time>2021-05-26T17:42:49Z</time>
      </trkpt>
      <trkpt lat="41.861148" lon="2.524319">
        <ele>765.594</ele>
        <time>2021-05-26T17:42:51Z</time>
      </trkpt>
      <trkpt lat="41.861168" lon="2.524302">
        <ele>765.557</ele>
        <time>2021-05-26T17:42:53Z</time>
      </trkpt>
      <trkpt lat="41.861188" lon="2.524288">
        <ele>765.622</ele>
        <time>2021-05-26T17:42:56Z</time>
      </trkpt>
      <trkpt lat="41.861213" lon="2.524285">
        <ele>765.608</ele>
        <time>2021-05-26T17:42:59Z</time>
      </trkpt>
      <trkpt lat="41.861232" lon="2.524285">
        <ele>765.666</ele>
        <time>2021-05-26T17:43:01Z</time>
      </trkpt>
      <trkpt lat="41.861251" lon="2.524293">
        <ele>765.593</ele>
        <time>2021-05-26T17:43:03Z</time>
      </trkpt>
      <trkpt lat="41.861274" lon="2.524304">
        <ele>765.570</ele>
        <time>2021-05-26T17:43:05Z</time>
      </trkpt>
      <trkpt lat="41.861294" lon="2.524316">
        <ele>765.574</ele>
        <time>2021-05-26T17:43:07Z</time>
      </trkpt>
      <trkpt lat="41.861315" lon="2.524322">
        <ele>765.439</ele>
        <time>2021-05-26T17:43:09Z</time>
      </trkpt>
      <trkpt lat="41.861334" lon="2.524329">
        <ele>765.459</ele>
        <time>2021-05-26T17:43:11Z</time>
      </trkpt>
      <trkpt lat="41.861358" lon="2.524340">
        <ele>765.445</ele>
        <time>2021-05-26T17:43:13Z</time>
      </trkpt>
      <trkpt lat="41.861388" lon="2.524346">
        <ele>765.470</ele>
        <time>2021-05-26T17:43:15Z</time>
      </trkpt>
      <trkpt lat="41.861414" lon="2.524349">
        <ele>765.683</ele>
        <time>2021-05-26T17:43:17Z</time>
      </trkpt>
      <trkpt lat="41.861448" lon="2.524337">
        <ele>765.925</ele>
        <time>2021-05-26T17:43:19Z</time>
      </trkpt>
      <trkpt lat="41.861476" lon="2.524329">
        <ele>766.217</ele>
        <time>2021-05-26T17:43:21Z</time>
      </trkpt>
      <trkpt lat="41.861505" lon="2.524323">
        <ele>766.508</ele>
        <time>2021-05-26T17:43:23Z</time>
      </trkpt>
      <trkpt lat="41.861534" lon="2.524328">
        <ele>766.835</ele>
        <time>2021-05-26T17:43:25Z</time>
      </trkpt>
      <trkpt lat="41.861561" lon="2.524332">
        <ele>767.012</ele>
        <time>2021-05-26T17:43:27Z</time>
      </trkpt>
      <trkpt lat="41.861588" lon="2.524336">
        <ele>767.379</ele>
        <time>2021-05-26T17:43:29Z</time>
      </trkpt>
      <trkpt lat="41.861615" lon="2.524332">
        <ele>767.563</ele>
        <time>2021-05-26T17:43:31Z</time>
      </trkpt>
      <trkpt lat="41.861647" lon="2.524322">
        <ele>767.858</ele>
        <time>2021-05-26T17:43:33Z</time>
      </trkpt>
      <trkpt lat="41.861680" lon="2.524310">
        <ele>768.268</ele>
        <time>2021-05-26T17:43:35Z</time>
      </trkpt>
      <trkpt lat="41.861713" lon="2.524298">
        <ele>768.814</ele>
        <time>2021-05-26T17:43:37Z</time>
      </trkpt>
      <trkpt lat="41.861746" lon="2.524290">
        <ele>769.349</ele>
        <time>2021-05-26T17:43:39Z</time>
      </trkpt>
      <trkpt lat="41.861775" lon="2.524271">
        <ele>769.886</ele>
        <time>2021-05-26T17:43:41Z</time>
      </trkpt>
      <trkpt lat="41.861794" lon="2.524247">
        <ele>770.260</ele>
        <time>2021-05-26T17:43:43Z</time>
      </trkpt>
      <trkpt lat="41.861809" lon="2.524219">
        <ele>770.526</ele>
        <time>2021-05-26T17:43:45Z</time>
      </trkpt>
      <trkpt lat="41.861819" lon="2.524187">
        <ele>770.708</ele>
        <time>2021-05-26T17:43:47Z</time>
      </trkpt>
      <trkpt lat="41.861825" lon="2.524155">
        <ele>771.065</ele>
        <time>2021-05-26T17:43:49Z</time>
      </trkpt>
      <trkpt lat="41.861828" lon="2.524125">
        <ele>771.392</ele>
        <time>2021-05-26T17:43:51Z</time>
      </trkpt>
      <trkpt lat="41.861830" lon="2.524095">
        <ele>771.749</ele>
        <time>2021-05-26T17:43:53Z</time>
      </trkpt>
      <trkpt lat="41.861831" lon="2.524065">
        <ele>772.043</ele>
        <time>2021-05-26T17:43:55Z</time>
      </trkpt>
      <trkpt lat="41.861829" lon="2.524033">
        <ele>772.328</ele>
        <time>2021-05-26T17:43:57Z</time>
      </trkpt>
      <trkpt lat="41.861824" lon="2.524000">
        <ele>772.688</ele>
        <time>2021-05-26T17:43:59Z</time>
      </trkpt>
      <trkpt lat="41.861818" lon="2.523969">
        <ele>772.814</ele>
        <time>2021-05-26T17:44:01Z</time>
      </trkpt>
      <trkpt lat="41.861810" lon="2.523938">
        <ele>773.029</ele>
        <time>2021-05-26T17:44:03Z</time>
      </trkpt>
      <trkpt lat="41.861804" lon="2.523907">
        <ele>773.316</ele>
        <time>2021-05-26T17:44:05Z</time>
      </trkpt>
      <trkpt lat="41.861796" lon="2.523882">
        <ele>773.576</ele>
        <time>2021-05-26T17:44:08Z</time>
      </trkpt>
      <trkpt lat="41.861786" lon="2.523852">
        <ele>773.713</ele>
        <time>2021-05-26T17:44:12Z</time>
      </trkpt>
      <trkpt lat="41.861779" lon="2.523821">
        <ele>773.908</ele>
        <time>2021-05-26T17:44:14Z</time>
      </trkpt>
      <trkpt lat="41.861764" lon="2.523797">
        <ele>774.018</ele>
        <time>2021-05-26T17:44:16Z</time>
      </trkpt>
      <trkpt lat="41.861761" lon="2.523764">
        <ele>774.475</ele>
        <time>2021-05-26T17:44:21Z</time>
      </trkpt>
      <trkpt lat="41.861767" lon="2.523735">
        <ele>774.742</ele>
        <time>2021-05-26T17:44:24Z</time>
      </trkpt>
      <trkpt lat="41.861784" lon="2.523700">
        <ele>775.316</ele>
        <time>2021-05-26T17:44:25Z</time>
      </trkpt>
      <trkpt lat="41.861800" lon="2.523669">
        <ele>775.841</ele>
        <time>2021-05-26T17:44:27Z</time>
      </trkpt>
      <trkpt lat="41.861820" lon="2.523639">
        <ele>776.421</ele>
        <time>2021-05-26T17:44:29Z</time>
      </trkpt>
      <trkpt lat="41.861837" lon="2.523614">
        <ele>776.817</ele>
        <time>2021-05-26T17:44:31Z</time>
      </trkpt>
      <trkpt lat="41.861855" lon="2.523592">
        <ele>777.192</ele>
        <time>2021-05-26T17:44:33Z</time>
      </trkpt>
      <trkpt lat="41.861880" lon="2.523572">
        <ele>777.455</ele>
        <time>2021-05-26T17:44:35Z</time>
      </trkpt>
      <trkpt lat="41.861902" lon="2.523562">
        <ele>777.607</ele>
        <time>2021-05-26T17:44:37Z</time>
      </trkpt>
      <trkpt lat="41.861927" lon="2.523553">
        <ele>777.817</ele>
        <time>2021-05-26T17:44:39Z</time>
      </trkpt>
      <trkpt lat="41.861958" lon="2.523538">
        <ele>778.008</ele>
        <time>2021-05-26T17:44:41Z</time>
      </trkpt>
      <trkpt lat="41.861988" lon="2.523522">
        <ele>778.232</ele>
        <time>2021-05-26T17:44:43Z</time>
      </trkpt>
      <trkpt lat="41.862009" lon="2.523514">
        <ele>778.269</ele>
        <time>2021-05-26T17:44:45Z</time>
      </trkpt>
      <trkpt lat="41.862029" lon="2.523521">
        <ele>778.386</ele>
        <time>2021-05-26T17:44:47Z</time>
      </trkpt>
      <trkpt lat="41.862048" lon="2.523525">
        <ele>778.450</ele>
        <time>2021-05-26T17:44:49Z</time>
      </trkpt>
      <trkpt lat="41.862068" lon="2.523534">
        <ele>778.465</ele>
        <time>2021-05-26T17:44:51Z</time>
      </trkpt>
      <trkpt lat="41.862091" lon="2.523544">
        <ele>778.525</ele>
        <time>2021-05-26T17:44:53Z</time>
      </trkpt>
      <trkpt lat="41.862121" lon="2.523556">
        <ele>778.611</ele>
        <time>2021-05-26T17:44:55Z</time>
      </trkpt>
      <trkpt lat="41.862140" lon="2.523565">
        <ele>778.746</ele>
        <time>2021-05-26T17:44:56Z</time>
      </trkpt>
      <trkpt lat="41.862157" lon="2.523570">
        <ele>778.849</ele>
        <time>2021-05-26T17:44:57Z</time>
      </trkpt>
      <trkpt lat="41.862190" lon="2.523575">
        <ele>778.902</ele>
        <time>2021-05-26T17:44:59Z</time>
      </trkpt>
      <trkpt lat="41.862222" lon="2.523581">
        <ele>779.022</ele>
        <time>2021-05-26T17:45:01Z</time>
      </trkpt>
      <trkpt lat="41.862251" lon="2.523588">
        <ele>779.108</ele>
        <time>2021-05-26T17:45:03Z</time>
      </trkpt>
      <trkpt lat="41.862281" lon="2.523588">
        <ele>779.211</ele>
        <time>2021-05-26T17:45:05Z</time>
      </trkpt>
      <trkpt lat="41.862311" lon="2.523588">
        <ele>779.358</ele>
        <time>2021-05-26T17:45:07Z</time>
      </trkpt>
      <trkpt lat="41.862345" lon="2.523580">
        <ele>779.475</ele>
        <time>2021-05-26T17:45:09Z</time>
      </trkpt>
      <trkpt lat="41.862363" lon="2.523573">
        <ele>779.429</ele>
        <time>2021-05-26T17:45:10Z</time>
      </trkpt>
      <trkpt lat="41.862394" lon="2.523567">
        <ele>779.524</ele>
        <time>2021-05-26T17:45:12Z</time>
      </trkpt>
      <trkpt lat="41.862421" lon="2.523571">
        <ele>779.624</ele>
        <time>2021-05-26T17:45:14Z</time>
      </trkpt>
      <trkpt lat="41.862449" lon="2.523570">
        <ele>779.760</ele>
        <time>2021-05-26T17:45:16Z</time>
      </trkpt>
      <trkpt lat="41.862478" lon="2.523554">
        <ele>779.725</ele>
        <time>2021-05-26T17:45:18Z</time>
      </trkpt>
      <trkpt lat="41.862506" lon="2.523537">
        <ele>779.852</ele>
        <time>2021-05-26T17:45:20Z</time>
      </trkpt>
      <trkpt lat="41.862535" lon="2.523519">
        <ele>779.853</ele>
        <time>2021-05-26T17:45:22Z</time>
      </trkpt>
      <trkpt lat="41.862562" lon="2.523504">
        <ele>779.808</ele>
        <time>2021-05-26T17:45:24Z</time>
      </trkpt>
      <trkpt lat="41.862588" lon="2.523489">
        <ele>779.908</ele>
        <time>2021-05-26T17:45:26Z</time>
      </trkpt>
      <trkpt lat="41.862613" lon="2.523476">
        <ele>779.922</ele>
        <time>2021-05-26T17:45:28Z</time>
      </trkpt>
      <trkpt lat="41.862639" lon="2.523462">
        <ele>780.089</ele>
        <time>2021-05-26T17:45:30Z</time>
      </trkpt>
      <trkpt lat="41.862665" lon="2.523450">
        <ele>780.066</ele>
        <time>2021-05-26T17:45:32Z</time>
      </trkpt>
      <trkpt lat="41.862692" lon="2.523435">
        <ele>780.170</ele>
        <time>2021-05-26T17:45:34Z</time>
      </trkpt>
      <trkpt lat="41.862718" lon="2.523419">
        <ele>780.155</ele>
        <time>2021-05-26T17:45:36Z</time>
      </trkpt>
      <trkpt lat="41.862746" lon="2.523400">
        <ele>780.115</ele>
        <time>2021-05-26T17:45:38Z</time>
      </trkpt>
      <trkpt lat="41.862773" lon="2.523386">
        <ele>780.281</ele>
        <time>2021-05-26T17:45:40Z</time>
      </trkpt>
      <trkpt lat="41.862801" lon="2.523370">
        <ele>780.436</ele>
        <time>2021-05-26T17:45:42Z</time>
      </trkpt>
      <trkpt lat="41.862829" lon="2.523353">
        <ele>780.646</ele>
        <time>2021-05-26T17:45:44Z</time>
      </trkpt>
      <trkpt lat="41.862858" lon="2.523341">
        <ele>780.988</ele>
        <time>2021-05-26T17:45:46Z</time>
      </trkpt>
      <trkpt lat="41.862879" lon="2.523330">
        <ele>781.116</ele>
        <time>2021-05-26T17:45:48Z</time>
      </trkpt>
      <trkpt lat="41.862901" lon="2.523319">
        <ele>781.308</ele>
        <time>2021-05-26T17:45:51Z</time>
      </trkpt>
      <trkpt lat="41.862926" lon="2.523305">
        <ele>781.641</ele>
        <time>2021-05-26T17:45:54Z</time>
      </trkpt>
      <trkpt lat="41.862948" lon="2.523293">
        <ele>781.818</ele>
        <time>2021-05-26T17:45:56Z</time>
      </trkpt>
      <trkpt lat="41.862970" lon="2.523285">
        <ele>782.025</ele>
        <time>2021-05-26T17:45:58Z</time>
      </trkpt>
      <trkpt lat="41.862994" lon="2.523277">
        <ele>782.319</ele>
        <time>2021-05-26T17:46:00Z</time>
      </trkpt>
      <trkpt lat="41.863020" lon="2.523272">
        <ele>782.624</ele>
        <time>2021-05-26T17:46:02Z</time>
      </trkpt>
      <trkpt lat="41.863050" lon="2.523270">
        <ele>782.924</ele>
        <time>2021-05-26T17:46:04Z</time>
      </trkpt>
      <trkpt lat="41.863077" lon="2.523268">
        <ele>783.060</ele>
        <time>2021-05-26T17:46:06Z</time>
      </trkpt>
      <trkpt lat="41.863104" lon="2.523264">
        <ele>783.065</ele>
        <time>2021-05-26T17:46:08Z</time>
      </trkpt>
      <trkpt lat="41.863131" lon="2.523259">
        <ele>783.112</ele>
        <time>2021-05-26T17:46:10Z</time>
      </trkpt>
      <trkpt lat="41.863157" lon="2.523258">
        <ele>783.132</ele>
        <time>2021-05-26T17:46:12Z</time>
      </trkpt>
      <trkpt lat="41.863183" lon="2.523257">
        <ele>783.105</ele>
        <time>2021-05-26T17:46:14Z</time>
      </trkpt>
      <trkpt lat="41.863209" lon="2.523255">
        <ele>783.208</ele>
        <time>2021-05-26T17:46:16Z</time>
      </trkpt>
      <trkpt lat="41.863235" lon="2.523254">
        <ele>783.288</ele>
        <time>2021-05-26T17:46:18Z</time>
      </trkpt>
      <trkpt lat="41.863261" lon="2.523254">
        <ele>783.215</ele>
        <time>2021-05-26T17:46:20Z</time>
      </trkpt>
      <trkpt lat="41.863287" lon="2.523254">
        <ele>783.212</ele>
        <time>2021-05-26T17:46:22Z</time>
      </trkpt>
      <trkpt lat="41.863312" lon="2.523254">
        <ele>783.346</ele>
        <time>2021-05-26T17:46:24Z</time>
      </trkpt>
      <trkpt lat="41.863339" lon="2.523252">
        <ele>783.331</ele>
        <time>2021-05-26T17:46:26Z</time>
      </trkpt>
      <trkpt lat="41.863362" lon="2.523255">
        <ele>783.371</ele>
        <time>2021-05-26T17:46:28Z</time>
      </trkpt>
      <trkpt lat="41.863385" lon="2.523257">
        <ele>783.497</ele>
        <time>2021-05-26T17:46:30Z</time>
      </trkpt>
      <trkpt lat="41.863412" lon="2.523257">
        <ele>783.422</ele>
        <time>2021-05-26T17:46:32Z</time>
      </trkpt>
      <trkpt lat="41.863438" lon="2.523259">
        <ele>783.486</ele>
        <time>2021-05-26T17:46:34Z</time>
      </trkpt>
      <trkpt lat="41.863465" lon="2.523261">
        <ele>783.560</ele>
        <time>2021-05-26T17:46:36Z</time>
      </trkpt>
      <trkpt lat="41.863493" lon="2.523259">
        <ele>783.526</ele>
        <time>2021-05-26T17:46:38Z</time>
      </trkpt>
      <trkpt lat="41.863524" lon="2.523250">
        <ele>783.608</ele>
        <time>2021-05-26T17:46:40Z</time>
      </trkpt>
      <trkpt lat="41.863552" lon="2.523246">
        <ele>783.645</ele>
        <time>2021-05-26T17:46:42Z</time>
      </trkpt>
      <trkpt lat="41.863580" lon="2.523241">
        <ele>783.612</ele>
        <time>2021-05-26T17:46:44Z</time>
      </trkpt>
      <trkpt lat="41.863608" lon="2.523240">
        <ele>783.749</ele>
        <time>2021-05-26T17:46:46Z</time>
      </trkpt>
      <trkpt lat="41.863637" lon="2.523239">
        <ele>783.633</ele>
        <time>2021-05-26T17:46:48Z</time>
      </trkpt>
      <trkpt lat="41.863666" lon="2.523236">
        <ele>783.648</ele>
        <time>2021-05-26T17:46:50Z</time>
      </trkpt>
      <trkpt lat="41.863695" lon="2.523235">
        <ele>783.538</ele>
        <time>2021-05-26T17:46:52Z</time>
      </trkpt>
      <trkpt lat="41.863725" lon="2.523234">
        <ele>783.554</ele>
        <time>2021-05-26T17:46:54Z</time>
      </trkpt>
      <trkpt lat="41.863753" lon="2.523229">
        <ele>783.429</ele>
        <time>2021-05-26T17:46:56Z</time>
      </trkpt>
      <trkpt lat="41.863783" lon="2.523231">
        <ele>783.445</ele>
        <time>2021-05-26T17:46:58Z</time>
      </trkpt>
      <trkpt lat="41.863812" lon="2.523228">
        <ele>783.347</ele>
        <time>2021-05-26T17:47:00Z</time>
      </trkpt>
      <trkpt lat="41.863842" lon="2.523227">
        <ele>783.311</ele>
        <time>2021-05-26T17:47:02Z</time>
      </trkpt>
      <trkpt lat="41.863873" lon="2.523222">
        <ele>783.208</ele>
        <time>2021-05-26T17:47:04Z</time>
      </trkpt>
      <trkpt lat="41.863896" lon="2.523214">
        <ele>783.291</ele>
        <time>2021-05-26T17:47:06Z</time>
      </trkpt>
      <trkpt lat="41.863920" lon="2.523207">
        <ele>783.248</ele>
        <time>2021-05-26T17:47:08Z</time>
      </trkpt>
      <trkpt lat="41.863944" lon="2.523206">
        <ele>783.275</ele>
        <time>2021-05-26T17:47:10Z</time>
      </trkpt>
      <trkpt lat="41.863967" lon="2.523207">
        <ele>783.299</ele>
        <time>2021-05-26T17:47:12Z</time>
      </trkpt>
      <trkpt lat="41.863994" lon="2.523201">
        <ele>783.294</ele>
        <time>2021-05-26T17:47:14Z</time>
      </trkpt>
      <trkpt lat="41.864022" lon="2.523197">
        <ele>783.364</ele>
        <time>2021-05-26T17:47:16Z</time>
      </trkpt>
      <trkpt lat="41.864053" lon="2.523193">
        <ele>783.350</ele>
        <time>2021-05-26T17:47:18Z</time>
      </trkpt>
      <trkpt lat="41.864082" lon="2.523186">
        <ele>783.335</ele>
        <time>2021-05-26T17:47:20Z</time>
      </trkpt>
      <trkpt lat="41.864114" lon="2.523181">
        <ele>783.327</ele>
        <time>2021-05-26T17:47:22Z</time>
      </trkpt>
      <trkpt lat="41.864143" lon="2.523174">
        <ele>783.268</ele>
        <time>2021-05-26T17:47:24Z</time>
      </trkpt>
      <trkpt lat="41.864175" lon="2.523175">
        <ele>783.314</ele>
        <time>2021-05-26T17:47:26Z</time>
      </trkpt>
      <trkpt lat="41.864196" lon="2.523181">
        <ele>783.408</ele>
        <time>2021-05-26T17:47:27Z</time>
      </trkpt>
      <trkpt lat="41.864214" lon="2.523183">
        <ele>783.499</ele>
        <time>2021-05-26T17:47:28Z</time>
      </trkpt>
      <trkpt lat="41.864247" lon="2.523189">
        <ele>783.486</ele>
        <time>2021-05-26T17:47:30Z</time>
      </trkpt>
      <trkpt lat="41.864277" lon="2.523200">
        <ele>783.613</ele>
        <time>2021-05-26T17:47:32Z</time>
      </trkpt>
      <trkpt lat="41.864305" lon="2.523212">
        <ele>783.787</ele>
        <time>2021-05-26T17:47:34Z</time>
      </trkpt>
      <trkpt lat="41.864332" lon="2.523226">
        <ele>783.842</ele>
        <time>2021-05-26T17:47:36Z</time>
      </trkpt>
      <trkpt lat="41.864359" lon="2.523246">
        <ele>784.182</ele>
        <time>2021-05-26T17:47:38Z</time>
      </trkpt>
      <trkpt lat="41.864385" lon="2.523265">
        <ele>784.338</ele>
        <time>2021-05-26T17:47:40Z</time>
      </trkpt>
      <trkpt lat="41.864405" lon="2.523279">
        <ele>784.463</ele>
        <time>2021-05-26T17:47:42Z</time>
      </trkpt>
      <trkpt lat="41.864428" lon="2.523292">
        <ele>784.614</ele>
        <time>2021-05-26T17:47:44Z</time>
      </trkpt>
      <trkpt lat="41.864449" lon="2.523310">
        <ele>784.754</ele>
        <time>2021-05-26T17:47:46Z</time>
      </trkpt>
      <trkpt lat="41.864471" lon="2.523325">
        <ele>784.909</ele>
        <time>2021-05-26T17:47:48Z</time>
      </trkpt>
      <trkpt lat="41.864498" lon="2.523341">
        <ele>785.108</ele>
        <time>2021-05-26T17:47:50Z</time>
      </trkpt>
      <trkpt lat="41.864524" lon="2.523359">
        <ele>785.578</ele>
        <time>2021-05-26T17:47:52Z</time>
      </trkpt>
      <trkpt lat="41.864550" lon="2.523376">
        <ele>785.835</ele>
        <time>2021-05-26T17:47:54Z</time>
      </trkpt>
      <trkpt lat="41.864574" lon="2.523394">
        <ele>786.232</ele>
        <time>2021-05-26T17:47:56Z</time>
      </trkpt>
      <trkpt lat="41.864599" lon="2.523414">
        <ele>786.686</ele>
        <time>2021-05-26T17:47:58Z</time>
      </trkpt>
      <trkpt lat="41.864621" lon="2.523429">
        <ele>786.961</ele>
        <time>2021-05-26T17:48:00Z</time>
      </trkpt>
      <trkpt lat="41.864647" lon="2.523445">
        <ele>787.321</ele>
        <time>2021-05-26T17:48:02Z</time>
      </trkpt>
      <trkpt lat="41.864673" lon="2.523465">
        <ele>787.837</ele>
        <time>2021-05-26T17:48:04Z</time>
      </trkpt>
      <trkpt lat="41.864701" lon="2.523488">
        <ele>788.372</ele>
        <time>2021-05-26T17:48:06Z</time>
      </trkpt>
      <trkpt lat="41.864727" lon="2.523508">
        <ele>788.717</ele>
        <time>2021-05-26T17:48:08Z</time>
      </trkpt>
      <trkpt lat="41.864752" lon="2.523530">
        <ele>788.887</ele>
        <time>2021-05-26T17:48:10Z</time>
      </trkpt>
      <trkpt lat="41.864774" lon="2.523557">
        <ele>789.115</ele>
        <time>2021-05-26T17:48:12Z</time>
      </trkpt>
      <trkpt lat="41.864795" lon="2.523586">
        <ele>789.408</ele>
        <time>2021-05-26T17:48:14Z</time>
      </trkpt>
      <trkpt lat="41.864820" lon="2.523613">
        <ele>789.638</ele>
        <time>2021-05-26T17:48:16Z</time>
      </trkpt>
      <trkpt lat="41.864839" lon="2.523642">
        <ele>790.085</ele>
        <time>2021-05-26T17:48:18Z</time>
      </trkpt>
      <trkpt lat="41.864863" lon="2.523669">
        <ele>790.342</ele>
        <time>2021-05-26T17:48:20Z</time>
      </trkpt>
      <trkpt lat="41.864885" lon="2.523691">
        <ele>790.666</ele>
        <time>2021-05-26T17:48:22Z</time>
      </trkpt>
      <trkpt lat="41.864909" lon="2.523710">
        <ele>790.861</ele>
        <time>2021-05-26T17:48:24Z</time>
      </trkpt>
      <trkpt lat="41.864935" lon="2.523728">
        <ele>791.011</ele>
        <time>2021-05-26T17:48:26Z</time>
      </trkpt>
      <trkpt lat="41.864961" lon="2.523747">
        <ele>791.317</ele>
        <time>2021-05-26T17:48:28Z</time>
      </trkpt>
      <trkpt lat="41.864982" lon="2.523770">
        <ele>791.722</ele>
        <time>2021-05-26T17:48:30Z</time>
      </trkpt>
      <trkpt lat="41.865008" lon="2.523794">
        <ele>792.024</ele>
        <time>2021-05-26T17:48:32Z</time>
      </trkpt>
      <trkpt lat="41.865032" lon="2.523818">
        <ele>792.104</ele>
        <time>2021-05-26T17:48:34Z</time>
      </trkpt>
      <trkpt lat="41.865053" lon="2.523839">
        <ele>792.114</ele>
        <time>2021-05-26T17:48:36Z</time>
      </trkpt>
      <trkpt lat="41.865078" lon="2.523864">
        <ele>792.108</ele>
        <time>2021-05-26T17:48:38Z</time>
      </trkpt>
      <trkpt lat="41.865102" lon="2.523891">
        <ele>792.189</ele>
        <time>2021-05-26T17:48:40Z</time>
      </trkpt>
      <trkpt lat="41.865127" lon="2.523915">
        <ele>792.286</ele>
        <time>2021-05-26T17:48:42Z</time>
      </trkpt>
      <trkpt lat="41.865153" lon="2.523940">
        <ele>792.243</ele>
        <time>2021-05-26T17:48:44Z</time>
      </trkpt>
      <trkpt lat="41.865179" lon="2.523969">
        <ele>792.457</ele>
        <time>2021-05-26T17:48:46Z</time>
      </trkpt>
      <trkpt lat="41.865204" lon="2.523993">
        <ele>792.552</ele>
        <time>2021-05-26T17:48:48Z</time>
      </trkpt>
      <trkpt lat="41.865226" lon="2.524019">
        <ele>792.752</ele>
        <time>2021-05-26T17:48:50Z</time>
      </trkpt>
      <trkpt lat="41.865253" lon="2.524040">
        <ele>792.638</ele>
        <time>2021-05-26T17:48:52Z</time>
      </trkpt>
      <trkpt lat="41.865277" lon="2.524067">
        <ele>792.853</ele>
        <time>2021-05-26T17:48:54Z</time>
      </trkpt>
      <trkpt lat="41.865297" lon="2.524098">
        <ele>793.499</ele>
        <time>2021-05-26T17:48:56Z</time>
      </trkpt>
      <trkpt lat="41.865320" lon="2.524124">
        <ele>793.807</ele>
        <time>2021-05-26T17:48:58Z</time>
      </trkpt>
      <trkpt lat="41.865344" lon="2.524150">
        <ele>794.127</ele>
        <time>2021-05-26T17:49:00Z</time>
      </trkpt>
      <trkpt lat="41.865367" lon="2.524179">
        <ele>794.508</ele>
        <time>2021-05-26T17:49:02Z</time>
      </trkpt>
      <trkpt lat="41.865390" lon="2.524198">
        <ele>794.786</ele>
        <time>2021-05-26T17:49:04Z</time>
      </trkpt>
      <trkpt lat="41.865413" lon="2.524219">
        <ele>795.023</ele>
        <time>2021-05-26T17:49:06Z</time>
      </trkpt>
      <trkpt lat="41.865434" lon="2.524239">
        <ele>795.230</ele>
        <time>2021-05-26T17:49:08Z</time>
      </trkpt>
      <trkpt lat="41.865457" lon="2.524261">
        <ele>795.334</ele>
        <time>2021-05-26T17:49:10Z</time>
      </trkpt>
      <trkpt lat="41.865479" lon="2.524285">
        <ele>795.529</ele>
        <time>2021-05-26T17:49:12Z</time>
      </trkpt>
      <trkpt lat="41.865501" lon="2.524308">
        <ele>795.699</ele>
        <time>2021-05-26T17:49:14Z</time>
      </trkpt>
      <trkpt lat="41.865524" lon="2.524335">
        <ele>795.815</ele>
        <time>2021-05-26T17:49:16Z</time>
      </trkpt>
      <trkpt lat="41.865545" lon="2.524361">
        <ele>795.940</ele>
        <time>2021-05-26T17:49:18Z</time>
      </trkpt>
      <trkpt lat="41.865569" lon="2.524380">
        <ele>795.929</ele>
        <time>2021-05-26T17:49:20Z</time>
      </trkpt>
      <trkpt lat="41.865594" lon="2.524402">
        <ele>796.000</ele>
        <time>2021-05-26T17:49:22Z</time>
      </trkpt>
      <trkpt lat="41.865622" lon="2.524419">
        <ele>795.920</ele>
        <time>2021-05-26T17:49:24Z</time>
      </trkpt>
      <trkpt lat="41.865646" lon="2.524437">
        <ele>795.908</ele>
        <time>2021-05-26T17:49:26Z</time>
      </trkpt>
      <trkpt lat="41.865668" lon="2.524459">
        <ele>796.099</ele>
        <time>2021-05-26T17:49:28Z</time>
      </trkpt>
      <trkpt lat="41.865692" lon="2.524482">
        <ele>796.176</ele>
        <time>2021-05-26T17:49:30Z</time>
      </trkpt>
      <trkpt lat="41.865717" lon="2.524507">
        <ele>796.163</ele>
        <time>2021-05-26T17:49:32Z</time>
      </trkpt>
      <trkpt lat="41.865737" lon="2.524529">
        <ele>796.227</ele>
        <time>2021-05-26T17:49:34Z</time>
      </trkpt>
      <trkpt lat="41.865759" lon="2.524552">
        <ele>796.282</ele>
        <time>2021-05-26T17:49:36Z</time>
      </trkpt>
      <trkpt lat="41.865779" lon="2.524572">
        <ele>796.272</ele>
        <time>2021-05-26T17:49:38Z</time>
      </trkpt>
      <trkpt lat="41.865799" lon="2.524593">
        <ele>796.118</ele>
        <time>2021-05-26T17:49:40Z</time>
      </trkpt>
      <trkpt lat="41.865820" lon="2.524618">
        <ele>796.193</ele>
        <time>2021-05-26T17:49:42Z</time>
      </trkpt>
      <trkpt lat="41.865845" lon="2.524634">
        <ele>796.247</ele>
        <time>2021-05-26T17:49:44Z</time>
      </trkpt>
      <trkpt lat="41.865875" lon="2.524646">
        <ele>796.929</ele>
        <time>2021-05-26T17:49:46Z</time>
      </trkpt>
      <trkpt lat="41.865910" lon="2.524650">
        <ele>797.421</ele>
        <time>2021-05-26T17:49:48Z</time>
      </trkpt>
      <trkpt lat="41.865943" lon="2.524664">
        <ele>798.108</ele>
        <time>2021-05-26T17:49:50Z</time>
      </trkpt>
      <trkpt lat="41.865961" lon="2.524667">
        <ele>798.471</ele>
        <time>2021-05-26T17:49:51Z</time>
      </trkpt>
      <trkpt lat="41.865993" lon="2.524668">
        <ele>798.858</ele>
        <time>2021-05-26T17:49:53Z</time>
      </trkpt>
      <trkpt lat="41.866027" lon="2.524658">
        <ele>799.045</ele>
        <time>2021-05-26T17:49:55Z</time>
      </trkpt>
      <trkpt lat="41.866043" lon="2.524647">
        <ele>799.049</ele>
        <time>2021-05-26T17:49:56Z</time>
      </trkpt>
      <trkpt lat="41.866066" lon="2.524624">
        <ele>799.094</ele>
        <time>2021-05-26T17:49:58Z</time>
      </trkpt>
      <trkpt lat="41.866094" lon="2.524598">
        <ele>799.024</ele>
        <time>2021-05-26T17:50:00Z</time>
      </trkpt>
      <trkpt lat="41.866121" lon="2.524568">
        <ele>799.280</ele>
        <time>2021-05-26T17:50:02Z</time>
      </trkpt>
      <trkpt lat="41.866136" lon="2.524544">
        <ele>799.475</ele>
        <time>2021-05-26T17:50:03Z</time>
      </trkpt>
      <trkpt lat="41.866150" lon="2.524521">
        <ele>799.683</ele>
        <time>2021-05-26T17:50:04Z</time>
      </trkpt>
      <trkpt lat="41.866161" lon="2.524498">
        <ele>799.725</ele>
        <time>2021-05-26T17:50:05Z</time>
      </trkpt>
      <trkpt lat="41.866172" lon="2.524476">
        <ele>799.917</ele>
        <time>2021-05-26T17:50:06Z</time>
      </trkpt>
      <trkpt lat="41.866180" lon="2.524433">
        <ele>799.608</ele>
        <time>2021-05-26T17:50:08Z</time>
      </trkpt>
      <trkpt lat="41.866187" lon="2.524391">
        <ele>799.445</ele>
        <time>2021-05-26T17:50:10Z</time>
      </trkpt>
      <trkpt lat="41.866189" lon="2.524350">
        <ele>799.092</ele>
        <time>2021-05-26T17:50:12Z</time>
      </trkpt>
      <trkpt lat="41.866190" lon="2.524305">
        <ele>798.539</ele>
        <time>2021-05-26T17:50:14Z</time>
      </trkpt>
      <trkpt lat="41.866190" lon="2.524261">
        <ele>798.093</ele>
        <time>2021-05-26T17:50:16Z</time>
      </trkpt>
      <trkpt lat="41.866190" lon="2.524220">
        <ele>797.598</ele>
        <time>2021-05-26T17:50:18Z</time>
      </trkpt>
      <trkpt lat="41.866190" lon="2.524179">
        <ele>797.098</ele>
        <time>2021-05-26T17:50:20Z</time>
      </trkpt>
      <trkpt lat="41.866188" lon="2.524137">
        <ele>796.284</ele>
        <time>2021-05-26T17:50:22Z</time>
      </trkpt>
      <trkpt lat="41.866185" lon="2.524097">
        <ele>795.479</ele>
        <time>2021-05-26T17:50:24Z</time>
      </trkpt>
      <trkpt lat="41.866189" lon="2.524058">
        <ele>794.898</ele>
        <time>2021-05-26T17:50:26Z</time>
      </trkpt>
      <trkpt lat="41.866193" lon="2.524018">
        <ele>794.315</ele>
        <time>2021-05-26T17:50:28Z</time>
      </trkpt>
      <trkpt lat="41.866196" lon="2.523977">
        <ele>793.626</ele>
        <time>2021-05-26T17:50:30Z</time>
      </trkpt>
      <trkpt lat="41.866201" lon="2.523939">
        <ele>793.108</ele>
        <time>2021-05-26T17:50:32Z</time>
      </trkpt>
      <trkpt lat="41.866210" lon="2.523906">
        <ele>792.966</ele>
        <time>2021-05-26T17:50:34Z</time>
      </trkpt>
      <trkpt lat="41.866219" lon="2.523875">
        <ele>792.723</ele>
        <time>2021-05-26T17:50:36Z</time>
      </trkpt>
      <trkpt lat="41.866231" lon="2.523844">
        <ele>792.650</ele>
        <time>2021-05-26T17:50:38Z</time>
      </trkpt>
      <trkpt lat="41.866247" lon="2.523817">
        <ele>792.754</ele>
        <time>2021-05-26T17:50:40Z</time>
      </trkpt>
      <trkpt lat="41.866257" lon="2.523794">
        <ele>792.799</ele>
        <time>2021-05-26T17:50:42Z</time>
      </trkpt>
      <trkpt lat="41.866272" lon="2.523769">
        <ele>792.829</ele>
        <time>2021-05-26T17:50:44Z</time>
      </trkpt>
      <trkpt lat="41.866291" lon="2.523747">
        <ele>793.155</ele>
        <time>2021-05-26T17:50:46Z</time>
      </trkpt>
      <trkpt lat="41.866313" lon="2.523724">
        <ele>793.540</ele>
        <time>2021-05-26T17:50:48Z</time>
      </trkpt>
      <trkpt lat="41.866336" lon="2.523710">
        <ele>794.064</ele>
        <time>2021-05-26T17:50:50Z</time>
      </trkpt>
      <trkpt lat="41.866361" lon="2.523697">
        <ele>794.606</ele>
        <time>2021-05-26T17:50:52Z</time>
      </trkpt>
      <trkpt lat="41.866388" lon="2.523683">
        <ele>795.316</ele>
        <time>2021-05-26T17:50:54Z</time>
      </trkpt>
      <trkpt lat="41.866410" lon="2.523666">
        <ele>795.708</ele>
        <time>2021-05-26T17:50:56Z</time>
      </trkpt>
      <trkpt lat="41.866435" lon="2.523652">
        <ele>796.263</ele>
        <time>2021-05-26T17:50:58Z</time>
      </trkpt>
      <trkpt lat="41.866459" lon="2.523641">
        <ele>796.890</ele>
        <time>2021-05-26T17:51:00Z</time>
      </trkpt>
      <trkpt lat="41.866480" lon="2.523628">
        <ele>797.397</ele>
        <time>2021-05-26T17:51:09Z</time>
      </trkpt>
      <trkpt lat="41.866505" lon="2.523615">
        <ele>797.831</ele>
        <time>2021-05-26T17:51:10Z</time>
      </trkpt>
      <trkpt lat="41.866534" lon="2.523605">
        <ele>798.626</ele>
        <time>2021-05-26T17:51:12Z</time>
      </trkpt>
      <trkpt lat="41.866563" lon="2.523593">
        <ele>799.416</ele>
        <time>2021-05-26T17:51:14Z</time>
      </trkpt>
      <trkpt lat="41.866593" lon="2.523581">
        <ele>800.362</ele>
        <time>2021-05-26T17:51:16Z</time>
      </trkpt>
      <trkpt lat="41.866620" lon="2.523564">
        <ele>801.057</ele>
        <time>2021-05-26T17:51:18Z</time>
      </trkpt>
      <trkpt lat="41.866646" lon="2.523550">
        <ele>801.749</ele>
        <time>2021-05-26T17:51:20Z</time>
      </trkpt>
      <trkpt lat="41.866669" lon="2.523538">
        <ele>802.302</ele>
        <time>2021-05-26T17:51:22Z</time>
      </trkpt>
      <trkpt lat="41.866695" lon="2.523515">
        <ele>802.822</ele>
        <time>2021-05-26T17:51:24Z</time>
      </trkpt>
      <trkpt lat="41.866717" lon="2.523482">
        <ele>803.208</ele>
        <time>2021-05-26T17:51:26Z</time>
      </trkpt>
      <trkpt lat="41.866723" lon="2.523459">
        <ele>803.171</ele>
        <time>2021-05-26T17:51:27Z</time>
      </trkpt>
      <trkpt lat="41.866723" lon="2.523420">
        <ele>802.658</ele>
        <time>2021-05-26T17:51:29Z</time>
      </trkpt>
      <trkpt lat="41.866727" lon="2.523380">
        <ele>802.355</ele>
        <time>2021-05-26T17:51:31Z</time>
      </trkpt>
      <trkpt lat="41.866737" lon="2.523343">
        <ele>802.159</ele>
        <time>2021-05-26T17:51:33Z</time>
      </trkpt>
      <trkpt lat="41.866746" lon="2.523309">
        <ele>802.124</ele>
        <time>2021-05-26T17:51:35Z</time>
      </trkpt>
      <trkpt lat="41.866754" lon="2.523274">
        <ele>802.024</ele>
        <time>2021-05-26T17:51:37Z</time>
      </trkpt>
      <trkpt lat="41.866759" lon="2.523239">
        <ele>801.860</ele>
        <time>2021-05-26T17:51:39Z</time>
      </trkpt>
      <trkpt lat="41.866764" lon="2.523202">
        <ele>801.535</ele>
        <time>2021-05-26T17:51:41Z</time>
      </trkpt>
      <trkpt lat="41.866770" lon="2.523166">
        <ele>801.387</ele>
        <time>2021-05-26T17:51:43Z</time>
      </trkpt>
      <trkpt lat="41.866775" lon="2.523130">
        <ele>801.142</ele>
        <time>2021-05-26T17:51:45Z</time>
      </trkpt>
      <trkpt lat="41.866780" lon="2.523094">
        <ele>800.826</ele>
        <time>2021-05-26T17:51:47Z</time>
      </trkpt>
      <trkpt lat="41.866780" lon="2.523057">
        <ele>800.508</ele>
        <time>2021-05-26T17:51:49Z</time>
      </trkpt>
      <trkpt lat="41.866787" lon="2.523024">
        <ele>800.355</ele>
        <time>2021-05-26T17:51:51Z</time>
      </trkpt>
      <trkpt lat="41.866793" lon="2.522991">
        <ele>800.282</ele>
        <time>2021-05-26T17:51:53Z</time>
      </trkpt>
      <trkpt lat="41.866802" lon="2.522955">
        <ele>800.059</ele>
        <time>2021-05-26T17:51:55Z</time>
      </trkpt>
      <trkpt lat="41.866811" lon="2.522919">
        <ele>799.933</ele>
        <time>2021-05-26T17:51:57Z</time>
      </trkpt>
      <trkpt lat="41.866816" lon="2.522882">
        <ele>799.678</ele>
        <time>2021-05-26T17:51:59Z</time>
      </trkpt>
      <trkpt lat="41.866823" lon="2.522847">
        <ele>799.528</ele>
        <time>2021-05-26T17:52:01Z</time>
      </trkpt>
      <trkpt lat="41.866836" lon="2.522812">
        <ele>799.454</ele>
        <time>2021-05-26T17:52:03Z</time>
      </trkpt>
      <trkpt lat="41.866849" lon="2.522778">
        <ele>799.349</ele>
        <time>2021-05-26T17:52:05Z</time>
      </trkpt>
      <trkpt lat="41.866861" lon="2.522743">
        <ele>799.486</ele>
        <time>2021-05-26T17:52:07Z</time>
      </trkpt>
      <trkpt lat="41.866873" lon="2.522707">
        <ele>799.660</ele>
        <time>2021-05-26T17:52:09Z</time>
      </trkpt>
      <trkpt lat="41.866886" lon="2.522669">
        <ele>799.826</ele>
        <time>2021-05-26T17:52:11Z</time>
      </trkpt>
      <trkpt lat="41.866896" lon="2.522631">
        <ele>799.908</ele>
        <time>2021-05-26T17:52:13Z</time>
      </trkpt>
      <trkpt lat="41.866905" lon="2.522594">
        <ele>800.145</ele>
        <time>2021-05-26T17:52:15Z</time>
      </trkpt>
      <trkpt lat="41.866916" lon="2.522557">
        <ele>800.382</ele>
        <time>2021-05-26T17:52:17Z</time>
      </trkpt>
      <trkpt lat="41.866926" lon="2.522519">
        <ele>800.549</ele>
        <time>2021-05-26T17:52:19Z</time>
      </trkpt>
      <trkpt lat="41.866935" lon="2.522483">
        <ele>800.713</ele>
        <time>2021-05-26T17:52:21Z</time>
      </trkpt>
      <trkpt lat="41.866943" lon="2.522446">
        <ele>800.858</ele>
        <time>2021-05-26T17:52:23Z</time>
      </trkpt>
      <trkpt lat="41.866952" lon="2.522410">
        <ele>800.938</ele>
        <time>2021-05-26T17:52:25Z</time>
      </trkpt>
      <trkpt lat="41.866957" lon="2.522375">
        <ele>800.994</ele>
        <time>2021-05-26T17:52:27Z</time>
      </trkpt>
      <trkpt lat="41.866962" lon="2.522337">
        <ele>801.049</ele>
        <time>2021-05-26T17:52:29Z</time>
      </trkpt>
      <trkpt lat="41.866965" lon="2.522302">
        <ele>801.067</ele>
        <time>2021-05-26T17:52:31Z</time>
      </trkpt>
      <trkpt lat="41.866971" lon="2.522265">
        <ele>801.181</ele>
        <time>2021-05-26T17:52:33Z</time>
      </trkpt>
      <trkpt lat="41.866982" lon="2.522228">
        <ele>801.419</ele>
        <time>2021-05-26T17:52:35Z</time>
      </trkpt>
      <trkpt lat="41.866992" lon="2.522194">
        <ele>801.608</ele>
        <time>2021-05-26T17:52:37Z</time>
      </trkpt>
      <trkpt lat="41.867000" lon="2.522158">
        <ele>801.793</ele>
        <time>2021-05-26T17:52:39Z</time>
      </trkpt>
      <trkpt lat="41.867011" lon="2.522125">
        <ele>802.090</ele>
        <time>2021-05-26T17:52:41Z</time>
      </trkpt>
      <trkpt lat="41.867019" lon="2.522095">
        <ele>802.117</ele>
        <time>2021-05-26T17:52:44Z</time>
      </trkpt>
      <trkpt lat="41.867028" lon="2.522060">
        <ele>802.211</ele>
        <time>2021-05-26T17:52:45Z</time>
      </trkpt>
      <trkpt lat="41.867035" lon="2.522024">
        <ele>802.386</ele>
        <time>2021-05-26T17:52:47Z</time>
      </trkpt>
      <trkpt lat="41.867042" lon="2.521990">
        <ele>802.416</ele>
        <time>2021-05-26T17:52:49Z</time>
      </trkpt>
      <trkpt lat="41.867055" lon="2.521953">
        <ele>802.612</ele>
        <time>2021-05-26T17:52:51Z</time>
      </trkpt>
      <trkpt lat="41.867066" lon="2.521917">
        <ele>802.987</ele>
        <time>2021-05-26T17:52:53Z</time>
      </trkpt>
      <trkpt lat="41.867072" lon="2.521882">
        <ele>803.057</ele>
        <time>2021-05-26T17:52:55Z</time>
      </trkpt>
      <trkpt lat="41.867087" lon="2.521846">
        <ele>803.400</ele>
        <time>2021-05-26T17:52:57Z</time>
      </trkpt>
      <trkpt lat="41.867100" lon="2.521811">
        <ele>803.820</ele>
        <time>2021-05-26T17:52:59Z</time>
      </trkpt>
      <trkpt lat="41.867120" lon="2.521776">
        <ele>804.308</ele>
        <time>2021-05-26T17:53:01Z</time>
      </trkpt>
      <trkpt lat="41.867127" lon="2.521730">
        <ele>804.472</ele>
        <time>2021-05-26T17:53:03Z</time>
      </trkpt>
      <trkpt lat="41.867131" lon="2.521685">
        <ele>804.459</ele>
        <time>2021-05-26T17:53:05Z</time>
      </trkpt>
      <trkpt lat="41.867125" lon="2.521642">
        <ele>804.236</ele>
        <time>2021-05-26T17:53:07Z</time>
      </trkpt>
      <trkpt lat="41.867120" lon="2.521601">
        <ele>804.050</ele>
        <time>2021-05-26T17:53:09Z</time>
      </trkpt>
      <trkpt lat="41.867116" lon="2.521555">
        <ele>803.835</ele>
        <time>2021-05-26T17:53:11Z</time>
      </trkpt>
      <trkpt lat="41.867105" lon="2.521513">
        <ele>803.545</ele>
        <time>2021-05-26T17:53:13Z</time>
      </trkpt>
      <trkpt lat="41.867097" lon="2.521471">
        <ele>803.341</ele>
        <time>2021-05-26T17:53:15Z</time>
      </trkpt>
      <trkpt lat="41.867093" lon="2.521434">
        <ele>803.286</ele>
        <time>2021-05-26T17:53:17Z</time>
      </trkpt>
      <trkpt lat="41.867088" lon="2.521397">
        <ele>803.115</ele>
        <time>2021-05-26T17:53:19Z</time>
      </trkpt>
      <trkpt lat="41.867078" lon="2.521361">
        <ele>802.965</ele>
        <time>2021-05-26T17:53:22Z</time>
      </trkpt>
      <trkpt lat="41.867068" lon="2.521322">
        <ele>802.811</ele>
        <time>2021-05-26T17:53:23Z</time>
      </trkpt>
      <trkpt lat="41.867056" lon="2.521276">
        <ele>802.708</ele>
        <time>2021-05-26T17:53:25Z</time>
      </trkpt>
      <trkpt lat="41.867053" lon="2.521251">
        <ele>802.628</ele>
        <time>2021-05-26T17:53:26Z</time>
      </trkpt>
      <trkpt lat="41.867050" lon="2.521224">
        <ele>802.695</ele>
        <time>2021-05-26T17:53:27Z</time>
      </trkpt>
      <trkpt lat="41.867045" lon="2.521189">
        <ele>802.612</ele>
        <time>2021-05-26T17:53:28Z</time>
      </trkpt>
      <trkpt lat="41.867035" lon="2.521157">
        <ele>802.536</ele>
        <time>2021-05-26T17:53:29Z</time>
      </trkpt>
      <trkpt lat="41.867025" lon="2.521128">
        <ele>802.471</ele>
        <time>2021-05-26T17:53:30Z</time>
      </trkpt>
      <trkpt lat="41.867020" lon="2.521100">
        <ele>802.421</ele>
        <time>2021-05-26T17:53:31Z</time>
      </trkpt>
      <trkpt lat="41.867015" lon="2.521071">
        <ele>802.427</ele>
        <time>2021-05-26T17:53:32Z</time>
      </trkpt>
      <trkpt lat="41.867006" lon="2.521040">
        <ele>802.372</ele>
        <time>2021-05-26T17:53:33Z</time>
      </trkpt>
      <trkpt lat="41.866999" lon="2.521003">
        <ele>802.365</ele>
        <time>2021-05-26T17:53:34Z</time>
      </trkpt>
      <trkpt lat="41.866991" lon="2.520963">
        <ele>802.368</ele>
        <time>2021-05-26T17:53:35Z</time>
      </trkpt>
      <trkpt lat="41.866983" lon="2.520927">
        <ele>802.314</ele>
        <time>2021-05-26T17:53:36Z</time>
      </trkpt>
      <trkpt lat="41.866965" lon="2.520861">
        <ele>802.208</ele>
        <time>2021-05-26T17:53:38Z</time>
      </trkpt>
      <trkpt lat="41.866954" lon="2.520826">
        <ele>802.273</ele>
        <time>2021-05-26T17:53:39Z</time>
      </trkpt>
      <trkpt lat="41.866944" lon="2.520788">
        <ele>802.540</ele>
        <time>2021-05-26T17:53:40Z</time>
      </trkpt>
      <trkpt lat="41.866938" lon="2.520752">
        <ele>802.857</ele>
        <time>2021-05-26T17:53:41Z</time>
      </trkpt>
      <trkpt lat="41.866935" lon="2.520717">
        <ele>803.161</ele>
        <time>2021-05-26T17:53:42Z</time>
      </trkpt>
      <trkpt lat="41.866935" lon="2.520682">
        <ele>803.576</ele>
        <time>2021-05-26T17:53:43Z</time>
      </trkpt>
      <trkpt lat="41.866935" lon="2.520652">
        <ele>803.886</ele>
        <time>2021-05-26T17:53:44Z</time>
      </trkpt>
      <trkpt lat="41.866936" lon="2.520622">
        <ele>804.192</ele>
        <time>2021-05-26T17:53:45Z</time>
      </trkpt>
      <trkpt lat="41.866939" lon="2.520593">
        <ele>804.547</ele>
        <time>2021-05-26T17:53:46Z</time>
      </trkpt>
      <trkpt lat="41.866945" lon="2.520565">
        <ele>804.927</ele>
        <time>2021-05-26T17:53:47Z</time>
      </trkpt>
      <trkpt lat="41.866949" lon="2.520534">
        <ele>805.068</ele>
        <time>2021-05-26T17:53:48Z</time>
      </trkpt>
      <trkpt lat="41.866957" lon="2.520504">
        <ele>805.114</ele>
        <time>2021-05-26T17:53:49Z</time>
      </trkpt>
      <trkpt lat="41.866970" lon="2.520473">
        <ele>805.208</ele>
        <time>2021-05-26T17:53:50Z</time>
      </trkpt>
      <trkpt lat="41.866987" lon="2.520445">
        <ele>805.289</ele>
        <time>2021-05-26T17:53:51Z</time>
      </trkpt>
      <trkpt lat="41.867001" lon="2.520413">
        <ele>805.366</ele>
        <time>2021-05-26T17:53:52Z</time>
      </trkpt>
      <trkpt lat="41.867010" lon="2.520387">
        <ele>805.373</ele>
        <time>2021-05-26T17:53:53Z</time>
      </trkpt>
      <trkpt lat="41.867023" lon="2.520362">
        <ele>805.497</ele>
        <time>2021-05-26T17:53:54Z</time>
      </trkpt>
      <trkpt lat="41.867039" lon="2.520342">
        <ele>805.452</ele>
        <time>2021-05-26T17:53:55Z</time>
      </trkpt>
      <trkpt lat="41.867056" lon="2.520323">
        <ele>805.582</ele>
        <time>2021-05-26T17:53:56Z</time>
      </trkpt>
      <trkpt lat="41.867074" lon="2.520303">
        <ele>805.558</ele>
        <time>2021-05-26T17:53:57Z</time>
      </trkpt>
      <trkpt lat="41.867092" lon="2.520287">
        <ele>805.523</ele>
        <time>2021-05-26T17:53:58Z</time>
      </trkpt>
      <trkpt lat="41.867138" lon="2.520257">
        <ele>805.412</ele>
        <time>2021-05-26T17:54:00Z</time>
      </trkpt>
      <trkpt lat="41.867160" lon="2.520239">
        <ele>805.232</ele>
        <time>2021-05-26T17:54:01Z</time>
      </trkpt>
      <trkpt lat="41.867187" lon="2.520227">
        <ele>805.005</ele>
        <time>2021-05-26T17:54:02Z</time>
      </trkpt>
      <trkpt lat="41.867211" lon="2.520209">
        <ele>804.808</ele>
        <time>2021-05-26T17:54:03Z</time>
      </trkpt>
      <trkpt lat="41.867235" lon="2.520196">
        <ele>804.528</ele>
        <time>2021-05-26T17:54:04Z</time>
      </trkpt>
      <trkpt lat="41.867260" lon="2.520185">
        <ele>804.335</ele>
        <time>2021-05-26T17:54:05Z</time>
      </trkpt>
      <trkpt lat="41.867284" lon="2.520169">
        <ele>804.062</ele>
        <time>2021-05-26T17:54:06Z</time>
      </trkpt>
      <trkpt lat="41.867312" lon="2.520151">
        <ele>803.756</ele>
        <time>2021-05-26T17:54:07Z</time>
      </trkpt>
      <trkpt lat="41.867339" lon="2.520138">
        <ele>803.551</ele>
        <time>2021-05-26T17:54:08Z</time>
      </trkpt>
      <trkpt lat="41.867366" lon="2.520124">
        <ele>803.361</ele>
        <time>2021-05-26T17:54:09Z</time>
      </trkpt>
      <trkpt lat="41.867391" lon="2.520109">
        <ele>803.127</ele>
        <time>2021-05-26T17:54:10Z</time>
      </trkpt>
      <trkpt lat="41.867414" lon="2.520093">
        <ele>802.932</ele>
        <time>2021-05-26T17:54:11Z</time>
      </trkpt>
      <trkpt lat="41.867435" lon="2.520079">
        <ele>802.858</ele>
        <time>2021-05-26T17:54:12Z</time>
      </trkpt>
      <trkpt lat="41.867458" lon="2.520065">
        <ele>802.652</ele>
        <time>2021-05-26T17:54:13Z</time>
      </trkpt>
      <trkpt lat="41.867483" lon="2.520054">
        <ele>802.517</ele>
        <time>2021-05-26T17:54:14Z</time>
      </trkpt>
      <trkpt lat="41.867510" lon="2.520044">
        <ele>802.508</ele>
        <time>2021-05-26T17:54:15Z</time>
      </trkpt>
      <trkpt lat="41.867538" lon="2.520037">
        <ele>802.572</ele>
        <time>2021-05-26T17:54:16Z</time>
      </trkpt>
      <trkpt lat="41.867564" lon="2.520027">
        <ele>802.599</ele>
        <time>2021-05-26T17:54:17Z</time>
      </trkpt>
      <trkpt lat="41.867606" lon="2.520002">
        <ele>802.466</ele>
        <time>2021-05-26T17:54:19Z</time>
      </trkpt>
      <trkpt lat="41.867630" lon="2.519995">
        <ele>802.430</ele>
        <time>2021-05-26T17:54:20Z</time>
      </trkpt>
      <trkpt lat="41.867654" lon="2.519990">
        <ele>802.485</ele>
        <time>2021-05-26T17:54:21Z</time>
      </trkpt>
      <trkpt lat="41.867676" lon="2.519988">
        <ele>802.445</ele>
        <time>2021-05-26T17:54:22Z</time>
      </trkpt>
      <trkpt lat="41.867698" lon="2.519987">
        <ele>802.551</ele>
        <time>2021-05-26T17:54:23Z</time>
      </trkpt>
      <trkpt lat="41.867720" lon="2.519987">
        <ele>802.546</ele>
        <time>2021-05-26T17:54:24Z</time>
      </trkpt>
      <trkpt lat="41.867742" lon="2.519990">
        <ele>802.727</ele>
        <time>2021-05-26T17:54:25Z</time>
      </trkpt>
      <trkpt lat="41.867766" lon="2.519996">
        <ele>802.968</ele>
        <time>2021-05-26T17:54:26Z</time>
      </trkpt>
      <trkpt lat="41.867791" lon="2.520001">
        <ele>802.714</ele>
        <time>2021-05-26T17:54:27Z</time>
      </trkpt>
      <trkpt lat="41.867817" lon="2.520008">
        <ele>802.308</ele>
        <time>2021-05-26T17:54:28Z</time>
      </trkpt>
      <trkpt lat="41.867839" lon="2.520018">
        <ele>801.989</ele>
        <time>2021-05-26T17:54:29Z</time>
      </trkpt>
      <trkpt lat="41.867861" lon="2.520031">
        <ele>801.616</ele>
        <time>2021-05-26T17:54:30Z</time>
      </trkpt>
      <trkpt lat="41.867885" lon="2.520045">
        <ele>801.473</ele>
        <time>2021-05-26T17:54:31Z</time>
      </trkpt>
      <trkpt lat="41.867910" lon="2.520060">
        <ele>801.197</ele>
        <time>2021-05-26T17:54:32Z</time>
      </trkpt>
      <trkpt lat="41.867933" lon="2.520076">
        <ele>800.962</ele>
        <time>2021-05-26T17:54:33Z</time>
      </trkpt>
      <trkpt lat="41.867956" lon="2.520092">
        <ele>800.812</ele>
        <time>2021-05-26T17:54:34Z</time>
      </trkpt>
      <trkpt lat="41.867977" lon="2.520111">
        <ele>800.818</ele>
        <time>2021-05-26T17:54:35Z</time>
      </trkpt>
      <trkpt lat="41.867997" lon="2.520134">
        <ele>800.913</ele>
        <time>2021-05-26T17:54:36Z</time>
      </trkpt>
      <trkpt lat="41.868020" lon="2.520154">
        <ele>800.944</ele>
        <time>2021-05-26T17:54:37Z</time>
      </trkpt>
      <trkpt lat="41.868042" lon="2.520173">
        <ele>800.905</ele>
        <time>2021-05-26T17:54:38Z</time>
      </trkpt>
      <trkpt lat="41.868063" lon="2.520195">
        <ele>801.015</ele>
        <time>2021-05-26T17:54:39Z</time>
      </trkpt>
      <trkpt lat="41.868082" lon="2.520217">
        <ele>801.008</ele>
        <time>2021-05-26T17:54:40Z</time>
      </trkpt>
      <trkpt lat="41.868100" lon="2.520241">
        <ele>801.031</ele>
        <time>2021-05-26T17:54:41Z</time>
      </trkpt>
      <trkpt lat="41.868118" lon="2.520265">
        <ele>800.938</ele>
        <time>2021-05-26T17:54:42Z</time>
      </trkpt>
      <trkpt lat="41.868135" lon="2.520289">
        <ele>800.915</ele>
        <time>2021-05-26T17:54:43Z</time>
      </trkpt>
      <trkpt lat="41.868154" lon="2.520312">
        <ele>800.699</ele>
        <time>2021-05-26T17:54:44Z</time>
      </trkpt>
      <trkpt lat="41.868173" lon="2.520333">
        <ele>800.434</ele>
        <time>2021-05-26T17:54:45Z</time>
      </trkpt>
      <trkpt lat="41.868194" lon="2.520355">
        <ele>800.124</ele>
        <time>2021-05-26T17:54:46Z</time>
      </trkpt>
      <trkpt lat="41.868212" lon="2.520377">
        <ele>800.070</ele>
        <time>2021-05-26T17:54:47Z</time>
      </trkpt>
      <trkpt lat="41.868229" lon="2.520403">
        <ele>799.935</ele>
        <time>2021-05-26T17:54:48Z</time>
      </trkpt>
      <trkpt lat="41.868247" lon="2.520427">
        <ele>799.874</ele>
        <time>2021-05-26T17:54:49Z</time>
      </trkpt>
      <trkpt lat="41.868264" lon="2.520454">
        <ele>799.956</ele>
        <time>2021-05-26T17:54:50Z</time>
      </trkpt>
      <trkpt lat="41.868284" lon="2.520479">
        <ele>799.821</ele>
        <time>2021-05-26T17:54:51Z</time>
      </trkpt>
      <trkpt lat="41.868301" lon="2.520504">
        <ele>799.808</ele>
        <time>2021-05-26T17:54:52Z</time>
      </trkpt>
      <trkpt lat="41.868317" lon="2.520529">
        <ele>799.944</ele>
        <time>2021-05-26T17:54:53Z</time>
      </trkpt>
      <trkpt lat="41.868333" lon="2.520554">
        <ele>800.071</ele>
        <time>2021-05-26T17:54:54Z</time>
      </trkpt>
      <trkpt lat="41.868349" lon="2.520579">
        <ele>800.068</ele>
        <time>2021-05-26T17:54:55Z</time>
      </trkpt>
      <trkpt lat="41.868383" lon="2.520626">
        <ele>800.162</ele>
        <time>2021-05-26T17:54:57Z</time>
      </trkpt>
      <trkpt lat="41.868398" lon="2.520651">
        <ele>800.317</ele>
        <time>2021-05-26T17:54:58Z</time>
      </trkpt>
      <trkpt lat="41.868421" lon="2.520672">
        <ele>800.327</ele>
        <time>2021-05-26T17:54:59Z</time>
      </trkpt>
      <trkpt lat="41.868438" lon="2.520694">
        <ele>800.453</ele>
        <time>2021-05-26T17:55:00Z</time>
      </trkpt>
      <trkpt lat="41.868455" lon="2.520717">
        <ele>800.598</ele>
        <time>2021-05-26T17:55:01Z</time>
      </trkpt>
      <trkpt lat="41.868473" lon="2.520742">
        <ele>800.764</ele>
        <time>2021-05-26T17:55:02Z</time>
      </trkpt>
      <trkpt lat="41.868494" lon="2.520766">
        <ele>800.806</ele>
        <time>2021-05-26T17:55:03Z</time>
      </trkpt>
      <trkpt lat="41.868515" lon="2.520788">
        <ele>801.016</ele>
        <time>2021-05-26T17:55:04Z</time>
      </trkpt>
      <trkpt lat="41.868538" lon="2.520807">
        <ele>801.108</ele>
        <time>2021-05-26T17:55:05Z</time>
      </trkpt>
      <trkpt lat="41.868557" lon="2.520830">
        <ele>801.343</ele>
        <time>2021-05-26T17:55:06Z</time>
      </trkpt>
      <trkpt lat="41.868578" lon="2.520850">
        <ele>801.530</ele>
        <time>2021-05-26T17:55:07Z</time>
      </trkpt>
      <trkpt lat="41.868599" lon="2.520870">
        <ele>801.617</ele>
        <time>2021-05-26T17:55:08Z</time>
      </trkpt>
      <trkpt lat="41.868624" lon="2.520888">
        <ele>801.961</ele>
        <time>2021-05-26T17:55:09Z</time>
      </trkpt>
      <trkpt lat="41.868649" lon="2.520906">
        <ele>802.326</ele>
        <time>2021-05-26T17:55:10Z</time>
      </trkpt>
      <trkpt lat="41.868673" lon="2.520924">
        <ele>802.886</ele>
        <time>2021-05-26T17:55:11Z</time>
      </trkpt>
      <trkpt lat="41.868695" lon="2.520933">
        <ele>803.092</ele>
        <time>2021-05-26T17:55:12Z</time>
      </trkpt>
      <trkpt lat="41.868714" lon="2.520938">
        <ele>803.277</ele>
        <time>2021-05-26T17:55:13Z</time>
      </trkpt>
      <trkpt lat="41.868733" lon="2.520938">
        <ele>803.466</ele>
        <time>2021-05-26T17:55:14Z</time>
      </trkpt>
      <trkpt lat="41.868757" lon="2.520931">
        <ele>803.529</ele>
        <time>2021-05-26T17:55:15Z</time>
      </trkpt>
      <trkpt lat="41.868805" lon="2.520908">
        <ele>803.521</ele>
        <time>2021-05-26T17:55:17Z</time>
      </trkpt>
      <trkpt lat="41.868833" lon="2.520896">
        <ele>803.508</ele>
        <time>2021-05-26T17:55:18Z</time>
      </trkpt>
      <trkpt lat="41.868855" lon="2.520877">
        <ele>803.473</ele>
        <time>2021-05-26T17:55:19Z</time>
      </trkpt>
      <trkpt lat="41.868872" lon="2.520851">
        <ele>803.170</ele>
        <time>2021-05-26T17:55:20Z</time>
      </trkpt>
      <trkpt lat="41.868881" lon="2.520821">
        <ele>802.847</ele>
        <time>2021-05-26T17:55:21Z</time>
      </trkpt>
      <trkpt lat="41.868896" lon="2.520788">
        <ele>802.681</ele>
        <time>2021-05-26T17:55:22Z</time>
      </trkpt>
      <trkpt lat="41.868903" lon="2.520755">
        <ele>802.326</ele>
        <time>2021-05-26T17:55:23Z</time>
      </trkpt>
      <trkpt lat="41.868910" lon="2.520719">
        <ele>802.086</ele>
        <time>2021-05-26T17:55:24Z</time>
      </trkpt>
      <trkpt lat="41.868918" lon="2.520687">
        <ele>801.862</ele>
        <time>2021-05-26T17:55:25Z</time>
      </trkpt>
      <trkpt lat="41.868931" lon="2.520654">
        <ele>801.817</ele>
        <time>2021-05-26T17:55:26Z</time>
      </trkpt>
      <trkpt lat="41.868943" lon="2.520621">
        <ele>801.819</ele>
        <time>2021-05-26T17:55:27Z</time>
      </trkpt>
      <trkpt lat="41.868952" lon="2.520591">
        <ele>801.709</ele>
        <time>2021-05-26T17:55:28Z</time>
      </trkpt>
      <trkpt lat="41.868956" lon="2.520560">
        <ele>801.519</ele>
        <time>2021-05-26T17:55:29Z</time>
      </trkpt>
      <trkpt lat="41.868964" lon="2.520527">
        <ele>801.308</ele>
        <time>2021-05-26T17:55:30Z</time>
      </trkpt>
      <trkpt lat="41.868970" lon="2.520496">
        <ele>801.288</ele>
        <time>2021-05-26T17:55:31Z</time>
      </trkpt>
      <trkpt lat="41.868976" lon="2.520465">
        <ele>801.075</ele>
        <time>2021-05-26T17:55:32Z</time>
      </trkpt>
      <trkpt lat="41.868985" lon="2.520430">
        <ele>801.052</ele>
        <time>2021-05-26T17:55:33Z</time>
      </trkpt>
      <trkpt lat="41.869002" lon="2.520362">
        <ele>800.946</ele>
        <time>2021-05-26T17:55:35Z</time>
      </trkpt>
      <trkpt lat="41.869011" lon="2.520290">
        <ele>800.421</ele>
        <time>2021-05-26T17:55:37Z</time>
      </trkpt>
      <trkpt lat="41.869023" lon="2.520257">
        <ele>800.721</ele>
        <time>2021-05-26T17:55:38Z</time>
      </trkpt>
      <trkpt lat="41.869026" lon="2.520222">
        <ele>800.677</ele>
        <time>2021-05-26T17:55:39Z</time>
      </trkpt>
      <trkpt lat="41.869025" lon="2.520186">
        <ele>800.412</ele>
        <time>2021-05-26T17:55:40Z</time>
      </trkpt>
      <trkpt lat="41.869026" lon="2.520153">
        <ele>800.223</ele>
        <time>2021-05-26T17:55:41Z</time>
      </trkpt>
      <trkpt lat="41.869028" lon="2.520121">
        <ele>800.283</ele>
        <time>2021-05-26T17:55:42Z</time>
      </trkpt>
      <trkpt lat="41.869028" lon="2.520091">
        <ele>800.011</ele>
        <time>2021-05-26T17:55:43Z</time>
      </trkpt>
      <trkpt lat="41.869032" lon="2.520065">
        <ele>800.008</ele>
        <time>2021-05-26T17:55:44Z</time>
      </trkpt>
      <trkpt lat="41.869033" lon="2.520037">
        <ele>799.929</ele>
        <time>2021-05-26T17:55:45Z</time>
      </trkpt>
      <trkpt lat="41.869033" lon="2.520010">
        <ele>799.866</ele>
        <time>2021-05-26T17:55:46Z</time>
      </trkpt>
      <trkpt lat="41.869029" lon="2.519983">
        <ele>799.513</ele>
        <time>2021-05-26T17:55:47Z</time>
      </trkpt>
      <trkpt lat="41.869029" lon="2.519957">
        <ele>799.537</ele>
        <time>2021-05-26T17:55:48Z</time>
      </trkpt>
      <trkpt lat="41.869030" lon="2.519931">
        <ele>799.542</ele>
        <time>2021-05-26T17:55:49Z</time>
      </trkpt>
      <trkpt lat="41.869032" lon="2.519905">
        <ele>799.532</ele>
        <time>2021-05-26T17:55:50Z</time>
      </trkpt>
      <trkpt lat="41.869034" lon="2.519880">
        <ele>799.598</ele>
        <time>2021-05-26T17:55:51Z</time>
      </trkpt>
      <trkpt lat="41.869036" lon="2.519853">
        <ele>799.663</ele>
        <time>2021-05-26T17:55:52Z</time>
      </trkpt>
      <trkpt lat="41.869039" lon="2.519793">
        <ele>799.678</ele>
        <time>2021-05-26T17:55:54Z</time>
      </trkpt>
      <trkpt lat="41.869040" lon="2.519762">
        <ele>799.533</ele>
        <time>2021-05-26T17:55:55Z</time>
      </trkpt>
      <trkpt lat="41.869041" lon="2.519730">
        <ele>799.526</ele>
        <time>2021-05-26T17:55:56Z</time>
      </trkpt>
      <trkpt lat="41.869041" lon="2.519698">
        <ele>799.408</ele>
        <time>2021-05-26T17:55:57Z</time>
      </trkpt>
      <trkpt lat="41.869040" lon="2.519666">
        <ele>799.384</ele>
        <time>2021-05-26T17:55:58Z</time>
      </trkpt>
      <trkpt lat="41.869037" lon="2.519635">
        <ele>799.281</ele>
        <time>2021-05-26T17:55:59Z</time>
      </trkpt>
      <trkpt lat="41.869036" lon="2.519604">
        <ele>799.138</ele>
        <time>2021-05-26T17:56:00Z</time>
      </trkpt>
      <trkpt lat="41.869037" lon="2.519576">
        <ele>799.192</ele>
        <time>2021-05-26T17:56:01Z</time>
      </trkpt>
      <trkpt lat="41.869040" lon="2.519548">
        <ele>799.127</ele>
        <time>2021-05-26T17:56:02Z</time>
      </trkpt>
      <trkpt lat="41.869043" lon="2.519521">
        <ele>799.117</ele>
        <time>2021-05-26T17:56:03Z</time>
      </trkpt>
      <trkpt lat="41.869046" lon="2.519478">
        <ele>799.263</ele>
        <time>2021-05-26T17:56:05Z</time>
      </trkpt>
      <trkpt lat="41.869049" lon="2.519452">
        <ele>799.298</ele>
        <time>2021-05-26T17:56:06Z</time>
      </trkpt>
      <trkpt lat="41.869051" lon="2.519424">
        <ele>799.286</ele>
        <time>2021-05-26T17:56:07Z</time>
      </trkpt>
      <trkpt lat="41.869054" lon="2.519398">
        <ele>799.260</ele>
        <time>2021-05-26T17:56:08Z</time>
      </trkpt>
      <trkpt lat="41.869056" lon="2.519371">
        <ele>799.126</ele>
        <time>2021-05-26T17:56:09Z</time>
      </trkpt>
      <trkpt lat="41.869060" lon="2.519345">
        <ele>799.108</ele>
        <time>2021-05-26T17:56:10Z</time>
      </trkpt>
      <trkpt lat="41.869064" lon="2.519321">
        <ele>799.125</ele>
        <time>2021-05-26T17:56:11Z</time>
      </trkpt>
      <trkpt lat="41.869076" lon="2.519270">
        <ele>799.272</ele>
        <time>2021-05-26T17:56:13Z</time>
      </trkpt>
      <trkpt lat="41.869081" lon="2.519241">
        <ele>799.249</ele>
        <time>2021-05-26T17:56:14Z</time>
      </trkpt>
      <trkpt lat="41.869087" lon="2.519216">
        <ele>799.233</ele>
        <time>2021-05-26T17:56:15Z</time>
      </trkpt>
      <trkpt lat="41.869092" lon="2.519192">
        <ele>799.358</ele>
        <time>2021-05-26T17:56:16Z</time>
      </trkpt>
      <trkpt lat="41.869098" lon="2.519168">
        <ele>799.368</ele>
        <time>2021-05-26T17:56:17Z</time>
      </trkpt>
      <trkpt lat="41.869104" lon="2.519144">
        <ele>799.534</ele>
        <time>2021-05-26T17:56:18Z</time>
      </trkpt>
      <trkpt lat="41.869110" lon="2.519118">
        <ele>799.799</ele>
        <time>2021-05-26T17:56:19Z</time>
      </trkpt>
      <trkpt lat="41.869118" lon="2.519094">
        <ele>799.964</ele>
        <time>2021-05-26T17:56:20Z</time>
      </trkpt>
      <trkpt lat="41.869127" lon="2.519070">
        <ele>800.206</ele>
        <time>2021-05-26T17:56:21Z</time>
      </trkpt>
      <trkpt lat="41.869138" lon="2.519048">
        <ele>800.616</ele>
        <time>2021-05-26T17:56:22Z</time>
      </trkpt>
      <trkpt lat="41.869151" lon="2.519028">
        <ele>801.008</ele>
        <time>2021-05-26T17:56:23Z</time>
      </trkpt>
      <trkpt lat="41.869160" lon="2.519006">
        <ele>801.483</ele>
        <time>2021-05-26T17:56:24Z</time>
      </trkpt>
      <trkpt lat="41.869171" lon="2.518985">
        <ele>801.720</ele>
        <time>2021-05-26T17:56:25Z</time>
      </trkpt>
      <trkpt lat="41.869182" lon="2.518967">
        <ele>801.947</ele>
        <time>2021-05-26T17:56:26Z</time>
      </trkpt>
      <trkpt lat="41.869196" lon="2.518949">
        <ele>802.231</ele>
        <time>2021-05-26T17:56:27Z</time>
      </trkpt>
      <trkpt lat="41.869210" lon="2.518929">
        <ele>802.496</ele>
        <time>2021-05-26T17:56:28Z</time>
      </trkpt>
      <trkpt lat="41.869222" lon="2.518907">
        <ele>802.696</ele>
        <time>2021-05-26T17:56:29Z</time>
      </trkpt>
      <trkpt lat="41.869235" lon="2.518888">
        <ele>802.732</ele>
        <time>2021-05-26T17:56:30Z</time>
      </trkpt>
      <trkpt lat="41.869254" lon="2.518850">
        <ele>803.297</ele>
        <time>2021-05-26T17:56:32Z</time>
      </trkpt>
      <trkpt lat="41.869287" lon="2.518787">
        <ele>803.991</ele>
        <time>2021-05-26T17:56:35Z</time>
      </trkpt>
      <trkpt lat="41.869312" lon="2.518751">
        <ele>804.381</ele>
        <time>2021-05-26T17:56:37Z</time>
      </trkpt>
      <trkpt lat="41.869382" lon="2.518644">
        <ele>805.419</ele>
        <time>2021-05-26T17:56:42Z</time>
      </trkpt>
      <trkpt lat="41.869462" lon="2.518554">
        <ele>806.308</ele>
        <time>2021-05-26T17:56:47Z</time>
      </trkpt>
      <trkpt lat="41.869544" lon="2.518477">
        <ele>806.766</ele>
        <time>2021-05-26T17:56:53Z</time>
      </trkpt>
      <trkpt lat="41.869587" lon="2.518359">
        <ele>807.013</ele>
        <time>2021-05-26T17:56:59Z</time>
      </trkpt>
      <trkpt lat="41.869528" lon="2.518336">
        <ele>807.010</ele>
        <time>2021-05-26T17:57:04Z</time>
      </trkpt>
      <trkpt lat="41.869552" lon="2.518311">
        <ele>806.814</ele>
        <time>2021-05-26T17:57:13Z</time>
      </trkpt>
      <trkpt lat="41.869576" lon="2.518292">
        <ele>806.679</ele>
        <time>2021-05-26T17:57:15Z</time>
      </trkpt>
      <trkpt lat="41.869596" lon="2.518278">
        <ele>806.419</ele>
        <time>2021-05-26T17:57:17Z</time>
      </trkpt>
      <trkpt lat="41.869625" lon="2.518268">
        <ele>806.295</ele>
        <time>2021-05-26T17:57:19Z</time>
      </trkpt>
      <trkpt lat="41.869659" lon="2.518255">
        <ele>806.020</ele>
        <time>2021-05-26T17:57:21Z</time>
      </trkpt>
      <trkpt lat="41.869676" lon="2.518239">
        <ele>805.856</ele>
        <time>2021-05-26T17:57:23Z</time>
      </trkpt>
      <trkpt lat="41.869698" lon="2.518221">
        <ele>805.559</ele>
        <time>2021-05-26T17:57:25Z</time>
      </trkpt>
      <trkpt lat="41.869719" lon="2.518211">
        <ele>805.214</ele>
        <time>2021-05-26T17:57:27Z</time>
      </trkpt>
      <trkpt lat="41.869739" lon="2.518200">
        <ele>805.108</ele>
        <time>2021-05-26T17:57:29Z</time>
      </trkpt>
      <trkpt lat="41.869758" lon="2.518193">
        <ele>805.042</ele>
        <time>2021-05-26T17:57:30Z</time>
      </trkpt>
      <trkpt lat="41.869787" lon="2.518184">
        <ele>804.959</ele>
        <time>2021-05-26T17:57:32Z</time>
      </trkpt>
      <trkpt lat="41.869815" lon="2.518176">
        <ele>804.846</ele>
        <time>2021-05-26T17:57:34Z</time>
      </trkpt>
      <trkpt lat="41.869838" lon="2.518171">
        <ele>804.740</ele>
        <time>2021-05-26T17:57:36Z</time>
      </trkpt>
      <trkpt lat="41.869857" lon="2.518178">
        <ele>804.825</ele>
        <time>2021-05-26T17:57:38Z</time>
      </trkpt>
      <trkpt lat="41.869877" lon="2.518183">
        <ele>804.915</ele>
        <time>2021-05-26T17:57:39Z</time>
      </trkpt>
      <trkpt lat="41.869895" lon="2.518188">
        <ele>804.981</ele>
        <time>2021-05-26T17:57:40Z</time>
      </trkpt>
      <trkpt lat="41.869913" lon="2.518196">
        <ele>805.096</ele>
        <time>2021-05-26T17:57:42Z</time>
      </trkpt>
      <trkpt lat="41.869928" lon="2.518211">
        <ele>805.112</ele>
        <time>2021-05-26T17:57:43Z</time>
      </trkpt>
      <trkpt lat="41.869959" lon="2.518226">
        <ele>805.332</ele>
        <time>2021-05-26T17:57:44Z</time>
      </trkpt>
      <trkpt lat="41.869988" lon="2.518230">
        <ele>805.305</ele>
        <time>2021-05-26T17:57:46Z</time>
      </trkpt>
      <trkpt lat="41.870020" lon="2.518227">
        <ele>805.308</ele>
        <time>2021-05-26T17:57:48Z</time>
      </trkpt>
      <trkpt lat="41.870041" lon="2.518230">
        <ele>805.498</ele>
        <time>2021-05-26T17:57:49Z</time>
      </trkpt>
      <trkpt lat="41.870063" lon="2.518228">
        <ele>805.565</ele>
        <time>2021-05-26T17:57:50Z</time>
      </trkpt>
      <trkpt lat="41.870088" lon="2.518217">
        <ele>805.582</ele>
        <time>2021-05-26T17:57:51Z</time>
      </trkpt>
      <trkpt lat="41.870113" lon="2.518212">
        <ele>805.566</ele>
        <time>2021-05-26T17:57:52Z</time>
      </trkpt>
      <trkpt lat="41.870139" lon="2.518192">
        <ele>805.581</ele>
        <time>2021-05-26T17:57:53Z</time>
      </trkpt>
      <trkpt lat="41.870161" lon="2.518169">
        <ele>805.471</ele>
        <time>2021-05-26T17:57:54Z</time>
      </trkpt>
      <trkpt lat="41.870175" lon="2.518137">
        <ele>805.217</ele>
        <time>2021-05-26T17:57:55Z</time>
      </trkpt>
      <trkpt lat="41.870188" lon="2.518109">
        <ele>805.132</ele>
        <time>2021-05-26T17:57:56Z</time>
      </trkpt>
      <trkpt lat="41.870197" lon="2.518085">
        <ele>804.982</ele>
        <time>2021-05-26T17:57:57Z</time>
      </trkpt>
      <trkpt lat="41.870204" lon="2.518054">
        <ele>804.743</ele>
        <time>2021-05-26T17:57:59Z</time>
      </trkpt>
      <trkpt lat="41.870224" lon="2.518033">
        <ele>804.917</ele>
        <time>2021-05-26T17:58:01Z</time>
      </trkpt>
      <trkpt lat="41.870247" lon="2.518034">
        <ele>805.008</ele>
        <time>2021-05-26T17:58:03Z</time>
      </trkpt>
      <trkpt lat="41.870273" lon="2.518022">
        <ele>805.125</ele>
        <time>2021-05-26T17:58:05Z</time>
      </trkpt>
      <trkpt lat="41.870301" lon="2.518008">
        <ele>805.592</ele>
        <time>2021-05-26T17:58:07Z</time>
      </trkpt>
      <trkpt lat="41.870326" lon="2.518009">
        <ele>805.889</ele>
        <time>2021-05-26T17:58:09Z</time>
      </trkpt>
      <trkpt lat="41.870339" lon="2.517974">
        <ele>806.173</ele>
        <time>2021-05-26T17:58:11Z</time>
      </trkpt>
      <trkpt lat="41.870342" lon="2.517945">
        <ele>806.298</ele>
        <time>2021-05-26T17:58:12Z</time>
      </trkpt>
      <trkpt lat="41.870343" lon="2.517921">
        <ele>806.378</ele>
        <time>2021-05-26T17:58:13Z</time>
      </trkpt>
      <trkpt lat="41.870347" lon="2.517892">
        <ele>806.494</ele>
        <time>2021-05-26T17:58:14Z</time>
      </trkpt>
      <trkpt lat="41.870353" lon="2.517859">
        <ele>806.629</ele>
        <time>2021-05-26T17:58:15Z</time>
      </trkpt>
      <trkpt lat="41.870359" lon="2.517833">
        <ele>806.781</ele>
        <time>2021-05-26T17:58:16Z</time>
      </trkpt>
      <trkpt lat="41.870369" lon="2.517809">
        <ele>806.961</ele>
        <time>2021-05-26T17:58:17Z</time>
      </trkpt>
      <trkpt lat="41.870379" lon="2.517776">
        <ele>807.117</ele>
        <time>2021-05-26T17:58:19Z</time>
      </trkpt>
      <trkpt lat="41.870387" lon="2.517747">
        <ele>807.308</ele>
        <time>2021-05-26T17:58:21Z</time>
      </trkpt>
      <trkpt lat="41.870375" lon="2.517719">
        <ele>807.395</ele>
        <time>2021-05-26T17:58:23Z</time>
      </trkpt>
      <trkpt lat="41.870384" lon="2.517696">
        <ele>807.432</ele>
        <time>2021-05-26T17:58:24Z</time>
      </trkpt>
      <trkpt lat="41.870401" lon="2.517569">
        <ele>808.169</ele>
        <time>2021-05-26T17:58:28Z</time>
      </trkpt>
      <trkpt lat="41.870426" lon="2.517478">
        <ele>808.823</ele>
        <time>2021-05-26T17:58:31Z</time>
      </trkpt>
      <trkpt lat="41.870431" lon="2.517451">
        <ele>809.198</ele>
        <time>2021-05-26T17:58:32Z</time>
      </trkpt>
      <trkpt lat="41.870440" lon="2.517425">
        <ele>809.588</ele>
        <time>2021-05-26T17:58:33Z</time>
      </trkpt>
      <trkpt lat="41.870447" lon="2.517395">
        <ele>809.844</ele>
        <time>2021-05-26T17:58:34Z</time>
      </trkpt>
      <trkpt lat="41.870454" lon="2.517366">
        <ele>810.299</ele>
        <time>2021-05-26T17:58:35Z</time>
      </trkpt>
      <trkpt lat="41.870460" lon="2.517333">
        <ele>810.682</ele>
        <time>2021-05-26T17:58:36Z</time>
      </trkpt>
      <trkpt lat="41.870459" lon="2.517304">
        <ele>810.843</ele>
        <time>2021-05-26T17:58:37Z</time>
      </trkpt>
      <trkpt lat="41.870479" lon="2.517166">
        <ele>812.417</ele>
        <time>2021-05-26T17:58:43Z</time>
      </trkpt>
      <trkpt lat="41.870465" lon="2.517107">
        <ele>812.708</ele>
        <time>2021-05-26T17:58:45Z</time>
      </trkpt>
      <trkpt lat="41.870460" lon="2.517069">
        <ele>812.995</ele>
        <time>2021-05-26T17:58:47Z</time>
      </trkpt>
      <trkpt lat="41.870440" lon="2.517032">
        <ele>813.092</ele>
        <time>2021-05-26T17:58:49Z</time>
      </trkpt>
      <trkpt lat="41.870431" lon="2.517009">
        <ele>813.159</ele>
        <time>2021-05-26T17:58:50Z</time>
      </trkpt>
      <trkpt lat="41.870418" lon="2.516982">
        <ele>813.273</ele>
        <time>2021-05-26T17:58:51Z</time>
      </trkpt>
      <trkpt lat="41.870414" lon="2.516949">
        <ele>813.458</ele>
        <time>2021-05-26T17:58:52Z</time>
      </trkpt>
      <trkpt lat="41.870410" lon="2.516920">
        <ele>813.538</ele>
        <time>2021-05-26T17:58:54Z</time>
      </trkpt>
      <trkpt lat="41.870402" lon="2.516882">
        <ele>813.464</ele>
        <time>2021-05-26T17:58:55Z</time>
      </trkpt>
      <trkpt lat="41.870398" lon="2.516842">
        <ele>813.549</ele>
        <time>2021-05-26T17:58:57Z</time>
      </trkpt>
      <trkpt lat="41.870391" lon="2.516808">
        <ele>813.447</ele>
        <time>2021-05-26T17:58:58Z</time>
      </trkpt>
      <trkpt lat="41.870390" lon="2.516775">
        <ele>813.529</ele>
        <time>2021-05-26T17:58:59Z</time>
      </trkpt>
      <trkpt lat="41.870380" lon="2.516740">
        <ele>813.421</ele>
        <time>2021-05-26T17:59:00Z</time>
      </trkpt>
      <trkpt lat="41.870371" lon="2.516703">
        <ele>813.308</ele>
        <time>2021-05-26T17:59:01Z</time>
      </trkpt>
      <trkpt lat="41.870367" lon="2.516672">
        <ele>813.381</ele>
        <time>2021-05-26T17:59:02Z</time>
      </trkpt>
      <trkpt lat="41.870361" lon="2.516643">
        <ele>813.248</ele>
        <time>2021-05-26T17:59:03Z</time>
      </trkpt>
      <trkpt lat="41.870357" lon="2.516609">
        <ele>813.165</ele>
        <time>2021-05-26T17:59:04Z</time>
      </trkpt>
      <trkpt lat="41.870353" lon="2.516575">
        <ele>813.199</ele>
        <time>2021-05-26T17:59:05Z</time>
      </trkpt>
      <trkpt lat="41.870348" lon="2.516543">
        <ele>813.064</ele>
        <time>2021-05-26T17:59:06Z</time>
      </trkpt>
      <trkpt lat="41.870346" lon="2.516514">
        <ele>813.024</ele>
        <time>2021-05-26T17:59:07Z</time>
      </trkpt>
      <trkpt lat="41.870338" lon="2.516491">
        <ele>812.990</ele>
        <time>2021-05-26T17:59:08Z</time>
      </trkpt>
      <trkpt lat="41.870330" lon="2.516463">
        <ele>812.815</ele>
        <time>2021-05-26T17:59:09Z</time>
      </trkpt>
      <trkpt lat="41.870323" lon="2.516435">
        <ele>812.738</ele>
        <time>2021-05-26T17:59:10Z</time>
      </trkpt>
      <trkpt lat="41.870316" lon="2.516407">
        <ele>812.570</ele>
        <time>2021-05-26T17:59:11Z</time>
      </trkpt>
      <trkpt lat="41.870314" lon="2.516378">
        <ele>812.417</ele>
        <time>2021-05-26T17:59:12Z</time>
      </trkpt>
      <trkpt lat="41.870314" lon="2.516350">
        <ele>812.208</ele>
        <time>2021-05-26T17:59:13Z</time>
      </trkpt>
      <trkpt lat="41.870312" lon="2.516319">
        <ele>812.030</ele>
        <time>2021-05-26T17:59:14Z</time>
      </trkpt>
      <trkpt lat="41.870313" lon="2.516286">
        <ele>811.827</ele>
        <time>2021-05-26T17:59:15Z</time>
      </trkpt>
      <trkpt lat="41.870309" lon="2.516260">
        <ele>811.524</ele>
        <time>2021-05-26T17:59:16Z</time>
      </trkpt>
      <trkpt lat="41.870312" lon="2.516236">
        <ele>811.418</ele>
        <time>2021-05-26T17:59:17Z</time>
      </trkpt>
      <trkpt lat="41.870329" lon="2.516195">
        <ele>811.313</ele>
        <time>2021-05-26T17:59:19Z</time>
      </trkpt>
      <trkpt lat="41.870346" lon="2.516150">
        <ele>811.353</ele>
        <time>2021-05-26T17:59:21Z</time>
      </trkpt>
      <trkpt lat="41.870358" lon="2.516131">
        <ele>811.399</ele>
        <time>2021-05-26T17:59:22Z</time>
      </trkpt>
      <trkpt lat="41.870372" lon="2.516108">
        <ele>811.314</ele>
        <time>2021-05-26T17:59:23Z</time>
      </trkpt>
      <trkpt lat="41.870386" lon="2.516090">
        <ele>811.394</ele>
        <time>2021-05-26T17:59:24Z</time>
      </trkpt>
      <trkpt lat="41.870412" lon="2.516064">
        <ele>811.357</ele>
        <time>2021-05-26T17:59:26Z</time>
      </trkpt>
      <trkpt lat="41.870428" lon="2.516053">
        <ele>811.322</ele>
        <time>2021-05-26T17:59:27Z</time>
      </trkpt>
      <trkpt lat="41.870456" lon="2.516044">
        <ele>811.608</ele>
        <time>2021-05-26T17:59:29Z</time>
      </trkpt>
      <trkpt lat="41.870474" lon="2.516053">
        <ele>812.026</ele>
        <time>2021-05-26T17:59:30Z</time>
      </trkpt>
      <trkpt lat="41.870503" lon="2.516067">
        <ele>812.613</ele>
        <time>2021-05-26T17:59:32Z</time>
      </trkpt>
      <trkpt lat="41.870532" lon="2.516073">
        <ele>813.170</ele>
        <time>2021-05-26T17:59:34Z</time>
      </trkpt>
      <trkpt lat="41.870562" lon="2.516090">
        <ele>813.794</ele>
        <time>2021-05-26T17:59:36Z</time>
      </trkpt>
      <trkpt lat="41.870589" lon="2.516100">
        <ele>814.159</ele>
        <time>2021-05-26T17:59:38Z</time>
      </trkpt>
      <trkpt lat="41.870622" lon="2.516118">
        <ele>814.569</ele>
        <time>2021-05-26T17:59:40Z</time>
      </trkpt>
      <trkpt lat="41.870651" lon="2.516136">
        <ele>814.925</ele>
        <time>2021-05-26T17:59:42Z</time>
      </trkpt>
      <trkpt lat="41.870677" lon="2.516149">
        <ele>815.170</ele>
        <time>2021-05-26T17:59:44Z</time>
      </trkpt>
      <trkpt lat="41.870707" lon="2.516152">
        <ele>815.473</ele>
        <time>2021-05-26T17:59:46Z</time>
      </trkpt>
      <trkpt lat="41.870739" lon="2.516160">
        <ele>815.785</ele>
        <time>2021-05-26T17:59:48Z</time>
      </trkpt>
      <trkpt lat="41.870770" lon="2.516165">
        <ele>815.913</ele>
        <time>2021-05-26T17:59:50Z</time>
      </trkpt>
      <trkpt lat="41.870796" lon="2.516170">
        <ele>816.208</ele>
        <time>2021-05-26T17:59:52Z</time>
      </trkpt>
      <trkpt lat="41.870816" lon="2.516174">
        <ele>816.374</ele>
        <time>2021-05-26T17:59:54Z</time>
      </trkpt>
      <trkpt lat="41.870838" lon="2.516188">
        <ele>816.511</ele>
        <time>2021-05-26T17:59:56Z</time>
      </trkpt>
      <trkpt lat="41.870866" lon="2.516208">
        <ele>816.548</ele>
        <time>2021-05-26T17:59:58Z</time>
      </trkpt>
      <trkpt lat="41.870889" lon="2.516220">
        <ele>816.562</ele>
        <time>2021-05-26T18:00:00Z</time>
      </trkpt>
      <trkpt lat="41.870906" lon="2.516228">
        <ele>816.557</ele>
        <time>2021-05-26T18:00:02Z</time>
      </trkpt>
      <trkpt lat="41.870931" lon="2.516237">
        <ele>816.517</ele>
        <time>2021-05-26T18:00:04Z</time>
      </trkpt>
      <trkpt lat="41.870950" lon="2.516243">
        <ele>816.563</ele>
        <time>2021-05-26T18:00:05Z</time>
      </trkpt>
      <trkpt lat="41.870983" lon="2.516254">
        <ele>816.568</ele>
        <time>2021-05-26T18:00:07Z</time>
      </trkpt>
      <trkpt lat="41.871014" lon="2.516269">
        <ele>816.625</ele>
        <time>2021-05-26T18:00:09Z</time>
      </trkpt>
      <trkpt lat="41.871035" lon="2.516273">
        <ele>816.626</ele>
        <time>2021-05-26T18:00:11Z</time>
      </trkpt>
      <trkpt lat="41.871063" lon="2.516286">
        <ele>816.608</ele>
        <time>2021-05-26T18:00:13Z</time>
      </trkpt>
      <trkpt lat="41.871092" lon="2.516296">
        <ele>816.708</ele>
        <time>2021-05-26T18:00:15Z</time>
      </trkpt>
      <trkpt lat="41.871117" lon="2.516309">
        <ele>816.889</ele>
        <time>2021-05-26T18:00:17Z</time>
      </trkpt>
      <trkpt lat="41.871143" lon="2.516319">
        <ele>816.946</ele>
        <time>2021-05-26T18:00:19Z</time>
      </trkpt>
      <trkpt lat="41.871176" lon="2.516333">
        <ele>817.143</ele>
        <time>2021-05-26T18:00:21Z</time>
      </trkpt>
      <trkpt lat="41.871194" lon="2.516340">
        <ele>817.157</ele>
        <time>2021-05-26T18:00:22Z</time>
      </trkpt>
      <trkpt lat="41.871223" lon="2.516356">
        <ele>817.232</ele>
        <time>2021-05-26T18:00:24Z</time>
      </trkpt>
      <trkpt lat="41.871256" lon="2.516366">
        <ele>817.282</ele>
        <time>2021-05-26T18:00:26Z</time>
      </trkpt>
      <trkpt lat="41.871285" lon="2.516378">
        <ele>817.358</ele>
        <time>2021-05-26T18:00:28Z</time>
      </trkpt>
      <trkpt lat="41.871318" lon="2.516392">
        <ele>817.393</ele>
        <time>2021-05-26T18:00:30Z</time>
      </trkpt>
      <trkpt lat="41.871349" lon="2.516408">
        <ele>817.251</ele>
        <time>2021-05-26T18:00:32Z</time>
      </trkpt>
      <trkpt lat="41.871378" lon="2.516432">
        <ele>817.201</ele>
        <time>2021-05-26T18:00:34Z</time>
      </trkpt>
      <trkpt lat="41.871404" lon="2.516461">
        <ele>817.211</ele>
        <time>2021-05-26T18:00:36Z</time>
      </trkpt>
      <trkpt lat="41.871418" lon="2.516482">
        <ele>817.308</ele>
        <time>2021-05-26T18:00:38Z</time>
      </trkpt>
      <trkpt lat="41.871429" lon="2.516524">
        <ele>817.412</ele>
        <time>2021-05-26T18:00:40Z</time>
      </trkpt>
      <trkpt lat="41.871440" lon="2.516548">
        <ele>817.579</ele>
        <time>2021-05-26T18:00:41Z</time>
      </trkpt>
      <trkpt lat="41.871451" lon="2.516568">
        <ele>817.576</ele>
        <time>2021-05-26T18:00:42Z</time>
      </trkpt>
      <trkpt lat="41.871474" lon="2.516598">
        <ele>817.530</ele>
        <time>2021-05-26T18:00:44Z</time>
      </trkpt>
      <trkpt lat="41.871490" lon="2.516634">
        <ele>817.695</ele>
        <time>2021-05-26T18:00:46Z</time>
      </trkpt>
      <trkpt lat="41.871508" lon="2.516664">
        <ele>817.615</ele>
        <time>2021-05-26T18:00:48Z</time>
      </trkpt>
      <trkpt lat="41.871521" lon="2.516696">
        <ele>817.561</ele>
        <time>2021-05-26T18:00:50Z</time>
      </trkpt>
      <trkpt lat="41.871535" lon="2.516734">
        <ele>817.436</ele>
        <time>2021-05-26T18:00:52Z</time>
      </trkpt>
      <trkpt lat="41.871550" lon="2.516769">
        <ele>817.334</ele>
        <time>2021-05-26T18:00:54Z</time>
      </trkpt>
      <trkpt lat="41.871565" lon="2.516807">
        <ele>817.255</ele>
        <time>2021-05-26T18:00:56Z</time>
      </trkpt>
      <trkpt lat="41.871578" lon="2.516849">
        <ele>817.110</ele>
        <time>2021-05-26T18:00:58Z</time>
      </trkpt>
      <trkpt lat="41.871589" lon="2.516889">
        <ele>817.108</ele>
        <time>2021-05-26T18:01:00Z</time>
      </trkpt>
      <trkpt lat="41.871601" lon="2.516929">
        <ele>817.090</ele>
        <time>2021-05-26T18:01:02Z</time>
      </trkpt>
      <trkpt lat="41.871614" lon="2.516966">
        <ele>816.957</ele>
        <time>2021-05-26T18:01:04Z</time>
      </trkpt>
      <trkpt lat="41.871623" lon="2.517005">
        <ele>816.884</ele>
        <time>2021-05-26T18:01:06Z</time>
      </trkpt>
      <trkpt lat="41.871630" lon="2.517047">
        <ele>816.678</ele>
        <time>2021-05-26T18:01:08Z</time>
      </trkpt>
      <trkpt lat="41.871640" lon="2.517088">
        <ele>816.573</ele>
        <time>2021-05-26T18:01:10Z</time>
      </trkpt>
      <trkpt lat="41.871652" lon="2.517127">
        <ele>816.363</ele>
        <time>2021-05-26T18:01:12Z</time>
      </trkpt>
      <trkpt lat="41.871663" lon="2.517163">
        <ele>816.229</ele>
        <time>2021-05-26T18:01:14Z</time>
      </trkpt>
      <trkpt lat="41.871677" lon="2.517202">
        <ele>816.164</ele>
        <time>2021-05-26T18:01:16Z</time>
      </trkpt>
      <trkpt lat="41.871689" lon="2.517238">
        <ele>816.162</ele>
        <time>2021-05-26T18:01:18Z</time>
      </trkpt>
      <trkpt lat="41.871708" lon="2.517272">
        <ele>816.283</ele>
        <time>2021-05-26T18:01:20Z</time>
      </trkpt>
      <trkpt lat="41.871729" lon="2.517303">
        <ele>816.311</ele>
        <time>2021-05-26T18:01:22Z</time>
      </trkpt>
      <trkpt lat="41.871745" lon="2.517339">
        <ele>816.408</ele>
        <time>2021-05-26T18:01:24Z</time>
      </trkpt>
      <trkpt lat="41.871761" lon="2.517375">
        <ele>816.583</ele>
        <time>2021-05-26T18:01:26Z</time>
      </trkpt>
      <trkpt lat="41.871775" lon="2.517414">
        <ele>816.750</ele>
        <time>2021-05-26T18:01:28Z</time>
      </trkpt>
      <trkpt lat="41.871785" lon="2.517449">
        <ele>816.817</ele>
        <time>2021-05-26T18:01:30Z</time>
      </trkpt>
      <trkpt lat="41.871795" lon="2.517490">
        <ele>817.061</ele>
        <time>2021-05-26T18:01:32Z</time>
      </trkpt>
      <trkpt lat="41.871812" lon="2.517523">
        <ele>817.266</ele>
        <time>2021-05-26T18:01:34Z</time>
      </trkpt>
      <trkpt lat="41.871828" lon="2.517563">
        <ele>817.786</ele>
        <time>2021-05-26T18:01:36Z</time>
      </trkpt>
      <trkpt lat="41.871840" lon="2.517606">
        <ele>818.132</ele>
        <time>2021-05-26T18:01:38Z</time>
      </trkpt>
      <trkpt lat="41.871853" lon="2.517642">
        <ele>818.567</ele>
        <time>2021-05-26T18:01:40Z</time>
      </trkpt>
      <trkpt lat="41.871865" lon="2.517681">
        <ele>819.015</ele>
        <time>2021-05-26T18:01:42Z</time>
      </trkpt>
      <trkpt lat="41.871877" lon="2.517718">
        <ele>819.465</ele>
        <time>2021-05-26T18:01:44Z</time>
      </trkpt>
      <trkpt lat="41.871886" lon="2.517757">
        <ele>819.811</ele>
        <time>2021-05-26T18:01:46Z</time>
      </trkpt>
      <trkpt lat="41.871896" lon="2.517799">
        <ele>820.208</ele>
        <time>2021-05-26T18:01:48Z</time>
      </trkpt>
      <trkpt lat="41.871904" lon="2.517840">
        <ele>820.758</ele>
        <time>2021-05-26T18:01:50Z</time>
      </trkpt>
      <trkpt lat="41.871913" lon="2.517880">
        <ele>821.145</ele>
        <time>2021-05-26T18:01:52Z</time>
      </trkpt>
      <trkpt lat="41.871924" lon="2.517918">
        <ele>821.532</ele>
        <time>2021-05-26T18:01:54Z</time>
      </trkpt>
      <trkpt lat="41.871936" lon="2.517956">
        <ele>821.966</ele>
        <time>2021-05-26T18:01:56Z</time>
      </trkpt>
      <trkpt lat="41.871950" lon="2.517995">
        <ele>822.371</ele>
        <time>2021-05-26T18:01:58Z</time>
      </trkpt>
      <trkpt lat="41.871961" lon="2.518031">
        <ele>822.731</ele>
        <time>2021-05-26T18:02:00Z</time>
      </trkpt>
      <trkpt lat="41.871971" lon="2.518064">
        <ele>823.037</ele>
        <time>2021-05-26T18:02:02Z</time>
      </trkpt>
      <trkpt lat="41.871981" lon="2.518101">
        <ele>823.572</ele>
        <time>2021-05-26T18:02:04Z</time>
      </trkpt>
      <trkpt lat="41.871995" lon="2.518141">
        <ele>824.073</ele>
        <time>2021-05-26T18:02:06Z</time>
      </trkpt>
      <trkpt lat="41.872007" lon="2.518173">
        <ele>824.585</ele>
        <time>2021-05-26T18:02:08Z</time>
      </trkpt>
      <trkpt lat="41.872009" lon="2.518210">
        <ele>825.013</ele>
        <time>2021-05-26T18:02:10Z</time>
      </trkpt>
      <trkpt lat="41.872018" lon="2.518252">
        <ele>825.608</ele>
        <time>2021-05-26T18:02:12Z</time>
      </trkpt>
      <trkpt lat="41.872022" lon="2.518291">
        <ele>826.164</ele>
        <time>2021-05-26T18:02:14Z</time>
      </trkpt>
      <trkpt lat="41.872027" lon="2.518325">
        <ele>826.681</ele>
        <time>2021-05-26T18:02:16Z</time>
      </trkpt>
      <trkpt lat="41.872028" lon="2.518361">
        <ele>827.338</ele>
        <time>2021-05-26T18:02:18Z</time>
      </trkpt>
      <trkpt lat="41.872026" lon="2.518400">
        <ele>828.142</ele>
        <time>2021-05-26T18:02:20Z</time>
      </trkpt>
      <trkpt lat="41.872024" lon="2.518433">
        <ele>828.817</ele>
        <time>2021-05-26T18:02:22Z</time>
      </trkpt>
      <trkpt lat="41.872005" lon="2.518463">
        <ele>829.557</ele>
        <time>2021-05-26T18:02:24Z</time>
      </trkpt>
      <trkpt lat="41.871990" lon="2.518485">
        <ele>830.093</ele>
        <time>2021-05-26T18:02:26Z</time>
      </trkpt>
      <trkpt lat="41.871972" lon="2.518517">
        <ele>830.878</ele>
        <time>2021-05-26T18:02:28Z</time>
      </trkpt>
      <trkpt lat="41.871950" lon="2.518554">
        <ele>831.753</ele>
        <time>2021-05-26T18:02:30Z</time>
      </trkpt>
      <trkpt lat="41.871931" lon="2.518596">
        <ele>832.604</ele>
        <time>2021-05-26T18:02:32Z</time>
      </trkpt>
      <trkpt lat="41.871919" lon="2.518616">
        <ele>832.914</ele>
        <time>2021-05-26T18:02:33Z</time>
      </trkpt>
      <trkpt lat="41.871904" lon="2.518657">
        <ele>833.308</ele>
        <time>2021-05-26T18:02:35Z</time>
      </trkpt>
      <trkpt lat="41.871887" lon="2.518697">
        <ele>833.812</ele>
        <time>2021-05-26T18:02:37Z</time>
      </trkpt>
      <trkpt lat="41.871873" lon="2.518731">
        <ele>834.199</ele>
        <time>2021-05-26T18:02:39Z</time>
      </trkpt>
      <trkpt lat="41.871861" lon="2.518766">
        <ele>834.556</ele>
        <time>2021-05-26T18:02:41Z</time>
      </trkpt>
      <trkpt lat="41.871853" lon="2.518788">
        <ele>834.720</ele>
        <time>2021-05-26T18:02:42Z</time>
      </trkpt>
      <trkpt lat="41.871837" lon="2.518833">
        <ele>835.135</ele>
        <time>2021-05-26T18:02:44Z</time>
      </trkpt>
      <trkpt lat="41.871824" lon="2.518873">
        <ele>835.585</ele>
        <time>2021-05-26T18:02:46Z</time>
      </trkpt>
      <trkpt lat="41.871809" lon="2.518915">
        <ele>835.811</ele>
        <time>2021-05-26T18:02:48Z</time>
      </trkpt>
      <trkpt lat="41.871800" lon="2.518936">
        <ele>835.976</ele>
        <time>2021-05-26T18:02:49Z</time>
      </trkpt>
      <trkpt lat="41.871796" lon="2.518960">
        <ele>836.092</ele>
        <time>2021-05-26T18:02:50Z</time>
      </trkpt>
      <trkpt lat="41.871796" lon="2.518985">
        <ele>836.273</ele>
        <time>2021-05-26T18:02:51Z</time>
      </trkpt>
      <trkpt lat="41.871792" lon="2.519022">
        <ele>836.520</ele>
        <time>2021-05-26T18:02:53Z</time>
      </trkpt>
      <trkpt lat="41.871788" lon="2.519059">
        <ele>836.808</ele>
        <time>2021-05-26T18:02:55Z</time>
      </trkpt>
      <trkpt lat="41.871776" lon="2.519097">
        <ele>837.066</ele>
        <time>2021-05-26T18:02:57Z</time>
      </trkpt>
      <trkpt lat="41.871761" lon="2.519148">
        <ele>837.253</ele>
        <time>2021-05-26T18:02:59Z</time>
      </trkpt>
      <trkpt lat="41.871755" lon="2.519187">
        <ele>837.380</ele>
        <time>2021-05-26T18:03:01Z</time>
      </trkpt>
      <trkpt lat="41.871750" lon="2.519219">
        <ele>837.354</ele>
        <time>2021-05-26T18:03:03Z</time>
      </trkpt>
      <trkpt lat="41.871743" lon="2.519253">
        <ele>837.289</ele>
        <time>2021-05-26T18:03:05Z</time>
      </trkpt>
      <trkpt lat="41.871738" lon="2.519290">
        <ele>837.159</ele>
        <time>2021-05-26T18:03:07Z</time>
      </trkpt>
      <trkpt lat="41.871726" lon="2.519327">
        <ele>837.035</ele>
        <time>2021-05-26T18:03:09Z</time>
      </trkpt>
      <trkpt lat="41.871718" lon="2.519367">
        <ele>836.980</ele>
        <time>2021-05-26T18:03:11Z</time>
      </trkpt>
      <trkpt lat="41.871709" lon="2.519414">
        <ele>836.759</ele>
        <time>2021-05-26T18:03:13Z</time>
      </trkpt>
      <trkpt lat="41.871717" lon="2.519456">
        <ele>836.903</ele>
        <time>2021-05-26T18:03:15Z</time>
      </trkpt>
      <trkpt lat="41.871720" lon="2.519495">
        <ele>837.023</ele>
        <time>2021-05-26T18:03:17Z</time>
      </trkpt>
      <trkpt lat="41.871721" lon="2.519523">
        <ele>837.008</ele>
        <time>2021-05-26T18:03:18Z</time>
      </trkpt>
      <trkpt lat="41.871725" lon="2.519550">
        <ele>837.082</ele>
        <time>2021-05-26T18:03:19Z</time>
      </trkpt>
      <trkpt lat="41.871727" lon="2.519581">
        <ele>837.169</ele>
        <time>2021-05-26T18:03:20Z</time>
      </trkpt>
      <trkpt lat="41.871732" lon="2.519611">
        <ele>837.216</ele>
        <time>2021-05-26T18:03:21Z</time>
      </trkpt>
      <trkpt lat="41.871737" lon="2.519639">
        <ele>837.370</ele>
        <time>2021-05-26T18:03:22Z</time>
      </trkpt>
      <trkpt lat="41.871746" lon="2.519668">
        <ele>837.455</ele>
        <time>2021-05-26T18:03:23Z</time>
      </trkpt>
      <trkpt lat="41.871757" lon="2.519697">
        <ele>837.675</ele>
        <time>2021-05-26T18:03:24Z</time>
      </trkpt>
      <trkpt lat="41.871772" lon="2.519725">
        <ele>837.941</ele>
        <time>2021-05-26T18:03:25Z</time>
      </trkpt>
      <trkpt lat="41.871785" lon="2.519753">
        <ele>838.186</ele>
        <time>2021-05-26T18:03:26Z</time>
      </trkpt>
      <trkpt lat="41.871804" lon="2.519784">
        <ele>838.496</ele>
        <time>2021-05-26T18:03:27Z</time>
      </trkpt>
      <trkpt lat="41.871816" lon="2.519817">
        <ele>838.531</ele>
        <time>2021-05-26T18:03:28Z</time>
      </trkpt>
      <trkpt lat="41.871828" lon="2.519880">
        <ele>838.724</ele>
        <time>2021-05-26T18:03:30Z</time>
      </trkpt>
      <trkpt lat="41.871846" lon="2.520025">
        <ele>838.808</ele>
        <time>2021-05-26T18:03:34Z</time>
      </trkpt>
      <trkpt lat="41.871880" lon="2.520140">
        <ele>839.286</ele>
        <time>2021-05-26T18:03:38Z</time>
      </trkpt>
      <trkpt lat="41.871886" lon="2.520263">
        <ele>839.023</ele>
        <time>2021-05-26T18:03:42Z</time>
      </trkpt>
      <trkpt lat="41.871898" lon="2.520364">
        <ele>839.020</ele>
        <time>2021-05-26T18:03:46Z</time>
      </trkpt>
      <trkpt lat="41.871901" lon="2.520408">
        <ele>838.964</ele>
        <time>2021-05-26T18:03:48Z</time>
      </trkpt>
      <trkpt lat="41.871900" lon="2.520450">
        <ele>838.839</ele>
        <time>2021-05-26T18:03:50Z</time>
      </trkpt>
      <trkpt lat="41.871905" lon="2.520475">
        <ele>838.859</ele>
        <time>2021-05-26T18:03:51Z</time>
      </trkpt>
      <trkpt lat="41.871909" lon="2.520516">
        <ele>838.795</ele>
        <time>2021-05-26T18:03:53Z</time>
      </trkpt>
      <trkpt lat="41.871916" lon="2.520552">
        <ele>838.730</ele>
        <time>2021-05-26T18:03:55Z</time>
      </trkpt>
      <trkpt lat="41.871929" lon="2.520582">
        <ele>838.949</ele>
        <time>2021-05-26T18:03:57Z</time>
      </trkpt>
      <trkpt lat="41.871949" lon="2.520611">
        <ele>839.202</ele>
        <time>2021-05-26T18:03:59Z</time>
      </trkpt>
      <trkpt lat="41.872008" lon="2.520718">
        <ele>839.922</ele>
        <time>2021-05-26T18:04:06Z</time>
      </trkpt>
      <trkpt lat="41.872030" lon="2.520756">
        <ele>840.108</ele>
        <time>2021-05-26T18:04:08Z</time>
      </trkpt>
      <trkpt lat="41.872048" lon="2.520801">
        <ele>840.371</ele>
        <time>2021-05-26T18:04:10Z</time>
      </trkpt>
      <trkpt lat="41.872059" lon="2.520826">
        <ele>840.468</ele>
        <time>2021-05-26T18:04:11Z</time>
      </trkpt>
      <trkpt lat="41.872066" lon="2.520856">
        <ele>840.515</ele>
        <time>2021-05-26T18:04:12Z</time>
      </trkpt>
      <trkpt lat="41.872079" lon="2.520886">
        <ele>840.689</ele>
        <time>2021-05-26T18:04:13Z</time>
      </trkpt>
      <trkpt lat="41.872097" lon="2.520914">
        <ele>840.774</ele>
        <time>2021-05-26T18:04:14Z</time>
      </trkpt>
      <trkpt lat="41.872115" lon="2.520944">
        <ele>840.834</ele>
        <time>2021-05-26T18:04:15Z</time>
      </trkpt>
      <trkpt lat="41.872134" lon="2.520976">
        <ele>840.840</ele>
        <time>2021-05-26T18:04:16Z</time>
      </trkpt>
      <trkpt lat="41.872159" lon="2.521006">
        <ele>840.975</ele>
        <time>2021-05-26T18:04:17Z</time>
      </trkpt>
      <trkpt lat="41.872179" lon="2.521033">
        <ele>841.046</ele>
        <time>2021-05-26T18:04:18Z</time>
      </trkpt>
      <trkpt lat="41.872195" lon="2.521059">
        <ele>841.088</ele>
        <time>2021-05-26T18:04:19Z</time>
      </trkpt>
      <trkpt lat="41.872212" lon="2.521087">
        <ele>841.016</ele>
        <time>2021-05-26T18:04:20Z</time>
      </trkpt>
      <trkpt lat="41.872229" lon="2.521116">
        <ele>841.008</ele>
        <time>2021-05-26T18:04:21Z</time>
      </trkpt>
      <trkpt lat="41.872245" lon="2.521147">
        <ele>840.851</ele>
        <time>2021-05-26T18:04:22Z</time>
      </trkpt>
      <trkpt lat="41.872262" lon="2.521177">
        <ele>840.778</ele>
        <time>2021-05-26T18:04:23Z</time>
      </trkpt>
      <trkpt lat="41.872283" lon="2.521200">
        <ele>840.555</ele>
        <time>2021-05-26T18:04:24Z</time>
      </trkpt>
      <trkpt lat="41.872301" lon="2.521225">
        <ele>840.359</ele>
        <time>2021-05-26T18:04:25Z</time>
      </trkpt>
      <trkpt lat="41.872319" lon="2.521249">
        <ele>840.174</ele>
        <time>2021-05-26T18:04:26Z</time>
      </trkpt>
      <trkpt lat="41.872337" lon="2.521273">
        <ele>839.974</ele>
        <time>2021-05-26T18:04:27Z</time>
      </trkpt>
      <trkpt lat="41.872356" lon="2.521299">
        <ele>839.780</ele>
        <time>2021-05-26T18:04:28Z</time>
      </trkpt>
      <trkpt lat="41.872375" lon="2.521325">
        <ele>839.595</ele>
        <time>2021-05-26T18:04:29Z</time>
      </trkpt>
      <trkpt lat="41.872394" lon="2.521353">
        <ele>839.234</ele>
        <time>2021-05-26T18:04:30Z</time>
      </trkpt>
      <trkpt lat="41.872412" lon="2.521380">
        <ele>839.055</ele>
        <time>2021-05-26T18:04:31Z</time>
      </trkpt>
      <trkpt lat="41.872428" lon="2.521409">
        <ele>838.810</ele>
        <time>2021-05-26T18:04:32Z</time>
      </trkpt>
      <trkpt lat="41.872441" lon="2.521441">
        <ele>838.608</ele>
        <time>2021-05-26T18:04:33Z</time>
      </trkpt>
      <trkpt lat="41.872449" lon="2.521465">
        <ele>838.610</ele>
        <time>2021-05-26T18:04:34Z</time>
      </trkpt>
      <trkpt lat="41.872461" lon="2.521507">
        <ele>838.437</ele>
        <time>2021-05-26T18:04:36Z</time>
      </trkpt>
      <trkpt lat="41.872483" lon="2.521531">
        <ele>838.264</ele>
        <time>2021-05-26T18:04:38Z</time>
      </trkpt>
      <trkpt lat="41.872505" lon="2.521543">
        <ele>837.988</ele>
        <time>2021-05-26T18:04:42Z</time>
      </trkpt>
      <trkpt lat="41.872533" lon="2.521550">
        <ele>837.223</ele>
        <time>2021-05-26T18:04:44Z</time>
      </trkpt>
      <trkpt lat="41.872558" lon="2.521561">
        <ele>836.593</ele>
        <time>2021-05-26T18:04:46Z</time>
      </trkpt>
      <trkpt lat="41.872578" lon="2.521576">
        <ele>836.049</ele>
        <time>2021-05-26T18:04:48Z</time>
      </trkpt>
      <trkpt lat="41.872596" lon="2.521569">
        <ele>835.694</ele>
        <time>2021-05-26T18:04:50Z</time>
      </trkpt>
      <trkpt lat="41.872616" lon="2.521544">
        <ele>835.134</ele>
        <time>2021-05-26T18:04:52Z</time>
      </trkpt>
      <trkpt lat="41.872634" lon="2.521518">
        <ele>834.655</ele>
        <time>2021-05-26T18:04:54Z</time>
      </trkpt>
      <trkpt lat="41.872657" lon="2.521503">
        <ele>834.010</ele>
        <time>2021-05-26T18:04:56Z</time>
      </trkpt>
      <trkpt lat="41.872689" lon="2.521495">
        <ele>833.208</ele>
        <time>2021-05-26T18:04:58Z</time>
      </trkpt>
      <trkpt lat="41.872723" lon="2.521480">
        <ele>832.480</ele>
        <time>2021-05-26T18:05:00Z</time>
      </trkpt>
      <trkpt lat="41.872755" lon="2.521469">
        <ele>831.697</ele>
        <time>2021-05-26T18:05:02Z</time>
      </trkpt>
      <trkpt lat="41.872783" lon="2.521462">
        <ele>830.914</ele>
        <time>2021-05-26T18:05:04Z</time>
      </trkpt>
      <trkpt lat="41.872811" lon="2.521458">
        <ele>830.638</ele>
        <time>2021-05-26T18:05:06Z</time>
      </trkpt>
      <trkpt lat="41.872838" lon="2.521453">
        <ele>830.253</ele>
        <time>2021-05-26T18:05:08Z</time>
      </trkpt>
      <trkpt lat="41.872871" lon="2.521439">
        <ele>829.713</ele>
        <time>2021-05-26T18:05:10Z</time>
      </trkpt>
      <trkpt lat="41.872899" lon="2.521428">
        <ele>829.399</ele>
        <time>2021-05-26T18:05:12Z</time>
      </trkpt>
      <trkpt lat="41.872930" lon="2.521415">
        <ele>828.914</ele>
        <time>2021-05-26T18:05:14Z</time>
      </trkpt>
      <trkpt lat="41.872961" lon="2.521398">
        <ele>828.435</ele>
        <time>2021-05-26T18:05:16Z</time>
      </trkpt>
      <trkpt lat="41.872989" lon="2.521380">
        <ele>828.086</ele>
        <time>2021-05-26T18:05:18Z</time>
      </trkpt>
      <trkpt lat="41.873026" lon="2.521367">
        <ele>827.514</ele>
        <time>2021-05-26T18:05:20Z</time>
      </trkpt>
      <trkpt lat="41.873051" lon="2.521359">
        <ele>827.208</ele>
        <time>2021-05-26T18:05:21Z</time>
      </trkpt>
      <trkpt lat="41.873075" lon="2.521348">
        <ele>827.110</ele>
        <time>2021-05-26T18:05:22Z</time>
      </trkpt>
      <trkpt lat="41.873101" lon="2.521336">
        <ele>827.187</ele>
        <time>2021-05-26T18:05:23Z</time>
      </trkpt>
      <trkpt lat="41.873125" lon="2.521320">
        <ele>827.174</ele>
        <time>2021-05-26T18:05:24Z</time>
      </trkpt>
      <trkpt lat="41.873149" lon="2.521304">
        <ele>827.118</ele>
        <time>2021-05-26T18:05:25Z</time>
      </trkpt>
      <trkpt lat="41.873172" lon="2.521287">
        <ele>827.193</ele>
        <time>2021-05-26T18:05:26Z</time>
      </trkpt>
      <trkpt lat="41.873194" lon="2.521271">
        <ele>827.093</ele>
        <time>2021-05-26T18:05:27Z</time>
      </trkpt>
      <trkpt lat="41.873218" lon="2.521254">
        <ele>826.979</ele>
        <time>2021-05-26T18:05:28Z</time>
      </trkpt>
      <trkpt lat="41.873238" lon="2.521238">
        <ele>826.834</ele>
        <time>2021-05-26T18:05:29Z</time>
      </trkpt>
      <trkpt lat="41.873258" lon="2.521224">
        <ele>826.756</ele>
        <time>2021-05-26T18:05:30Z</time>
      </trkpt>
      <trkpt lat="41.873279" lon="2.521209">
        <ele>826.659</ele>
        <time>2021-05-26T18:05:31Z</time>
      </trkpt>
      <trkpt lat="41.873302" lon="2.521195">
        <ele>826.514</ele>
        <time>2021-05-26T18:05:32Z</time>
      </trkpt>
      <trkpt lat="41.873324" lon="2.521182">
        <ele>826.308</ele>
        <time>2021-05-26T18:05:33Z</time>
      </trkpt>
      <trkpt lat="41.873346" lon="2.521170">
        <ele>826.392</ele>
        <time>2021-05-26T18:05:34Z</time>
      </trkpt>
      <trkpt lat="41.873369" lon="2.521159">
        <ele>826.499</ele>
        <time>2021-05-26T18:05:35Z</time>
      </trkpt>
      <trkpt lat="41.873392" lon="2.521148">
        <ele>826.596</ele>
        <time>2021-05-26T18:05:36Z</time>
      </trkpt>
      <trkpt lat="41.873414" lon="2.521136">
        <ele>826.610</ele>
        <time>2021-05-26T18:05:37Z</time>
      </trkpt>
      <trkpt lat="41.873436" lon="2.521123">
        <ele>826.845</ele>
        <time>2021-05-26T18:05:38Z</time>
      </trkpt>
      <trkpt lat="41.873458" lon="2.521114">
        <ele>826.985</ele>
        <time>2021-05-26T18:05:39Z</time>
      </trkpt>
      <trkpt lat="41.873482" lon="2.521105">
        <ele>827.091</ele>
        <time>2021-05-26T18:05:40Z</time>
      </trkpt>
      <trkpt lat="41.873508" lon="2.521097">
        <ele>827.216</ele>
        <time>2021-05-26T18:05:41Z</time>
      </trkpt>
      <trkpt lat="41.873534" lon="2.521093">
        <ele>827.482</ele>
        <time>2021-05-26T18:05:42Z</time>
      </trkpt>
      <trkpt lat="41.873559" lon="2.521090">
        <ele>827.543</ele>
        <time>2021-05-26T18:05:43Z</time>
      </trkpt>
      <trkpt lat="41.873582" lon="2.521085">
        <ele>827.617</ele>
        <time>2021-05-26T18:05:44Z</time>
      </trkpt>
      <trkpt lat="41.873608" lon="2.521081">
        <ele>827.808</ele>
        <time>2021-05-26T18:05:45Z</time>
      </trkpt>
      <trkpt lat="41.873638" lon="2.521073">
        <ele>827.745</ele>
        <time>2021-05-26T18:05:46Z</time>
      </trkpt>
      <trkpt lat="41.873668" lon="2.521063">
        <ele>827.752</ele>
        <time>2021-05-26T18:05:47Z</time>
      </trkpt>
      <trkpt lat="41.873697" lon="2.521052">
        <ele>827.619</ele>
        <time>2021-05-26T18:05:48Z</time>
      </trkpt>
      <trkpt lat="41.873723" lon="2.521045">
        <ele>827.563</ele>
        <time>2021-05-26T18:05:49Z</time>
      </trkpt>
      <trkpt lat="41.873752" lon="2.521041">
        <ele>827.568</ele>
        <time>2021-05-26T18:05:50Z</time>
      </trkpt>
      <trkpt lat="41.873778" lon="2.521036">
        <ele>827.548</ele>
        <time>2021-05-26T18:05:51Z</time>
      </trkpt>
      <trkpt lat="41.873803" lon="2.521032">
        <ele>827.424</ele>
        <time>2021-05-26T18:05:52Z</time>
      </trkpt>
      <trkpt lat="41.873830" lon="2.521028">
        <ele>827.449</ele>
        <time>2021-05-26T18:05:53Z</time>
      </trkpt>
      <trkpt lat="41.873858" lon="2.521024">
        <ele>827.437</ele>
        <time>2021-05-26T18:05:54Z</time>
      </trkpt>
      <trkpt lat="41.873884" lon="2.521022">
        <ele>827.449</ele>
        <time>2021-05-26T18:05:55Z</time>
      </trkpt>
      <trkpt lat="41.873910" lon="2.521021">
        <ele>827.413</ele>
        <time>2021-05-26T18:05:56Z</time>
      </trkpt>
      <trkpt lat="41.873938" lon="2.521018">
        <ele>827.408</ele>
        <time>2021-05-26T18:05:57Z</time>
      </trkpt>
      <trkpt lat="41.873967" lon="2.521014">
        <ele>827.530</ele>
        <time>2021-05-26T18:05:58Z</time>
      </trkpt>
      <trkpt lat="41.873995" lon="2.521007">
        <ele>827.537</ele>
        <time>2021-05-26T18:05:59Z</time>
      </trkpt>
      <trkpt lat="41.874022" lon="2.520997">
        <ele>827.564</ele>
        <time>2021-05-26T18:06:00Z</time>
      </trkpt>
      <trkpt lat="41.874047" lon="2.520990">
        <ele>827.438</ele>
        <time>2021-05-26T18:06:01Z</time>
      </trkpt>
      <trkpt lat="41.874070" lon="2.520983">
        <ele>827.463</ele>
        <time>2021-05-26T18:06:02Z</time>
      </trkpt>
      <trkpt lat="41.874091" lon="2.520977">
        <ele>827.473</ele>
        <time>2021-05-26T18:06:03Z</time>
      </trkpt>
      <trkpt lat="41.874112" lon="2.520970">
        <ele>827.449</ele>
        <time>2021-05-26T18:06:04Z</time>
      </trkpt>
      <trkpt lat="41.874136" lon="2.520964">
        <ele>827.424</ele>
        <time>2021-05-26T18:06:05Z</time>
      </trkpt>
      <trkpt lat="41.874162" lon="2.520956">
        <ele>827.361</ele>
        <time>2021-05-26T18:06:06Z</time>
      </trkpt>
      <trkpt lat="41.874186" lon="2.520952">
        <ele>827.221</ele>
        <time>2021-05-26T18:06:07Z</time>
      </trkpt>
      <trkpt lat="41.874208" lon="2.520947">
        <ele>827.113</ele>
        <time>2021-05-26T18:06:08Z</time>
      </trkpt>
      <trkpt lat="41.874234" lon="2.520944">
        <ele>827.008</ele>
        <time>2021-05-26T18:06:09Z</time>
      </trkpt>
      <trkpt lat="41.874260" lon="2.520944">
        <ele>826.983</ele>
        <time>2021-05-26T18:06:10Z</time>
      </trkpt>
      <trkpt lat="41.874289" lon="2.520946">
        <ele>826.830</ele>
        <time>2021-05-26T18:06:11Z</time>
      </trkpt>
      <trkpt lat="41.874316" lon="2.520947">
        <ele>826.777</ele>
        <time>2021-05-26T18:06:12Z</time>
      </trkpt>
      <trkpt lat="41.874343" lon="2.520946">
        <ele>826.681</ele>
        <time>2021-05-26T18:06:13Z</time>
      </trkpt>
      <trkpt lat="41.874369" lon="2.520945">
        <ele>826.566</ele>
        <time>2021-05-26T18:06:14Z</time>
      </trkpt>
      <trkpt lat="41.874396" lon="2.520945">
        <ele>826.476</ele>
        <time>2021-05-26T18:06:15Z</time>
      </trkpt>
      <trkpt lat="41.874423" lon="2.520945">
        <ele>826.372</ele>
        <time>2021-05-26T18:06:16Z</time>
      </trkpt>
      <trkpt lat="41.874449" lon="2.520945">
        <ele>826.277</ele>
        <time>2021-05-26T18:06:17Z</time>
      </trkpt>
      <trkpt lat="41.874473" lon="2.520943">
        <ele>826.219</ele>
        <time>2021-05-26T18:06:18Z</time>
      </trkpt>
      <trkpt lat="41.874496" lon="2.520943">
        <ele>826.209</ele>
        <time>2021-05-26T18:06:19Z</time>
      </trkpt>
      <trkpt lat="41.874520" lon="2.520947">
        <ele>826.319</ele>
        <time>2021-05-26T18:06:20Z</time>
      </trkpt>
      <trkpt lat="41.874545" lon="2.520952">
        <ele>826.308</ele>
        <time>2021-05-26T18:06:21Z</time>
      </trkpt>
      <trkpt lat="41.874566" lon="2.520956">
        <ele>826.458</ele>
        <time>2021-05-26T18:06:22Z</time>
      </trkpt>
      <trkpt lat="41.874586" lon="2.520959">
        <ele>826.425</ele>
        <time>2021-05-26T18:06:23Z</time>
      </trkpt>
      <trkpt lat="41.874605" lon="2.520964">
        <ele>826.442</ele>
        <time>2021-05-26T18:06:24Z</time>
      </trkpt>
      <trkpt lat="41.874624" lon="2.520966">
        <ele>826.536</ele>
        <time>2021-05-26T18:06:25Z</time>
      </trkpt>
      <trkpt lat="41.874653" lon="2.520966">
        <ele>826.561</ele>
        <time>2021-05-26T18:06:27Z</time>
      </trkpt>
      <trkpt lat="41.874680" lon="2.520968">
        <ele>826.521</ele>
        <time>2021-05-26T18:06:29Z</time>
      </trkpt>
      <trkpt lat="41.874703" lon="2.520970">
        <ele>826.537</ele>
        <time>2021-05-26T18:06:31Z</time>
      </trkpt>
      <trkpt lat="41.874723" lon="2.520971">
        <ele>826.582</ele>
        <time>2021-05-26T18:06:44Z</time>
      </trkpt>
      <trkpt lat="41.874744" lon="2.520979">
        <ele>826.665</ele>
        <time>2021-05-26T18:06:46Z</time>
      </trkpt>
      <trkpt lat="41.874769" lon="2.520984">
        <ele>826.868</ele>
        <time>2021-05-26T18:06:48Z</time>
      </trkpt>
      <trkpt lat="41.874797" lon="2.520985">
        <ele>826.914</ele>
        <time>2021-05-26T18:06:50Z</time>
      </trkpt>
      <trkpt lat="41.874827" lon="2.520985">
        <ele>827.108</ele>
        <time>2021-05-26T18:06:52Z</time>
      </trkpt>
      <trkpt lat="41.874854" lon="2.520985">
        <ele>827.223</ele>
        <time>2021-05-26T18:06:54Z</time>
      </trkpt>
      <trkpt lat="41.874881" lon="2.520987">
        <ele>827.430</ele>
        <time>2021-05-26T18:06:56Z</time>
      </trkpt>
      <trkpt lat="41.874908" lon="2.520983">
        <ele>827.537</ele>
        <time>2021-05-26T18:06:59Z</time>
      </trkpt>
      <trkpt lat="41.874938" lon="2.520983">
        <ele>827.771</ele>
        <time>2021-05-26T18:07:00Z</time>
      </trkpt>
      <trkpt lat="41.874966" lon="2.520984">
        <ele>827.856</ele>
        <time>2021-05-26T18:07:02Z</time>
      </trkpt>
      <trkpt lat="41.874993" lon="2.520984">
        <ele>828.076</ele>
        <time>2021-05-26T18:07:04Z</time>
      </trkpt>
      <trkpt lat="41.875021" lon="2.520979">
        <ele>828.132</ele>
        <time>2021-05-26T18:07:06Z</time>
      </trkpt>
      <trkpt lat="41.875046" lon="2.520975">
        <ele>828.287</ele>
        <time>2021-05-26T18:07:08Z</time>
      </trkpt>
      <trkpt lat="41.875079" lon="2.520967">
        <ele>828.321</ele>
        <time>2021-05-26T18:07:10Z</time>
      </trkpt>
      <trkpt lat="41.875110" lon="2.520956">
        <ele>828.441</ele>
        <time>2021-05-26T18:07:12Z</time>
      </trkpt>
      <trkpt lat="41.875143" lon="2.520950">
        <ele>828.505</ele>
        <time>2021-05-26T18:07:14Z</time>
      </trkpt>
      <trkpt lat="41.875173" lon="2.520942">
        <ele>828.608</ele>
        <time>2021-05-26T18:07:16Z</time>
      </trkpt>
      <trkpt lat="41.875207" lon="2.520936">
        <ele>828.759</ele>
        <time>2021-05-26T18:07:18Z</time>
      </trkpt>
      <trkpt lat="41.875237" lon="2.520923">
        <ele>828.926</ele>
        <time>2021-05-26T18:07:20Z</time>
      </trkpt>
      <trkpt lat="41.875267" lon="2.520916">
        <ele>829.073</ele>
        <time>2021-05-26T18:07:22Z</time>
      </trkpt>
      <trkpt lat="41.875294" lon="2.520912">
        <ele>829.157</ele>
        <time>2021-05-26T18:07:24Z</time>
      </trkpt>
      <trkpt lat="41.875325" lon="2.520901">
        <ele>829.292</ele>
        <time>2021-05-26T18:07:26Z</time>
      </trkpt>
      <trkpt lat="41.875353" lon="2.520899">
        <ele>829.362</ele>
        <time>2021-05-26T18:07:28Z</time>
      </trkpt>
      <trkpt lat="41.875382" lon="2.520899">
        <ele>829.568</ele>
        <time>2021-05-26T18:07:30Z</time>
      </trkpt>
      <trkpt lat="41.875416" lon="2.520893">
        <ele>829.653</ele>
        <time>2021-05-26T18:07:32Z</time>
      </trkpt>
      <trkpt lat="41.875451" lon="2.520895">
        <ele>829.853</ele>
        <time>2021-05-26T18:07:34Z</time>
      </trkpt>
      <trkpt lat="41.875470" lon="2.520896">
        <ele>829.804</ele>
        <time>2021-05-26T18:07:35Z</time>
      </trkpt>
      <trkpt lat="41.875514" lon="2.520902">
        <ele>830.114</ele>
        <time>2021-05-26T18:07:37Z</time>
      </trkpt>
      <trkpt lat="41.875541" lon="2.520907">
        <ele>830.208</ele>
        <time>2021-05-26T18:07:38Z</time>
      </trkpt>
      <trkpt lat="41.875567" lon="2.520911">
        <ele>830.492</ele>
        <time>2021-05-26T18:07:39Z</time>
      </trkpt>
      <trkpt lat="41.875594" lon="2.520911">
        <ele>830.549</ele>
        <time>2021-05-26T18:07:40Z</time>
      </trkpt>
      <trkpt lat="41.875621" lon="2.520912">
        <ele>830.776</ele>
        <time>2021-05-26T18:07:41Z</time>
      </trkpt>
      <trkpt lat="41.875648" lon="2.520910">
        <ele>830.920</ele>
        <time>2021-05-26T18:07:42Z</time>
      </trkpt>
      <trkpt lat="41.875673" lon="2.520908">
        <ele>831.095</ele>
        <time>2021-05-26T18:07:43Z</time>
      </trkpt>
      <trkpt lat="41.875699" lon="2.520905">
        <ele>831.255</ele>
        <time>2021-05-26T18:07:44Z</time>
      </trkpt>
      <trkpt lat="41.875727" lon="2.520903">
        <ele>831.321</ele>
        <time>2021-05-26T18:07:45Z</time>
      </trkpt>
      <trkpt lat="41.875755" lon="2.520903">
        <ele>831.586</ele>
        <time>2021-05-26T18:07:46Z</time>
      </trkpt>
      <trkpt lat="41.875782" lon="2.520900">
        <ele>831.763</ele>
        <time>2021-05-26T18:07:47Z</time>
      </trkpt>
      <trkpt lat="41.875808" lon="2.520893">
        <ele>831.844</ele>
        <time>2021-05-26T18:07:48Z</time>
      </trkpt>
      <trkpt lat="41.875835" lon="2.520884">
        <ele>832.018</ele>
        <time>2021-05-26T18:07:49Z</time>
      </trkpt>
      <trkpt lat="41.875861" lon="2.520876">
        <ele>832.108</ele>
        <time>2021-05-26T18:07:50Z</time>
      </trkpt>
      <trkpt lat="41.875914" lon="2.520852">
        <ele>832.353</ele>
        <time>2021-05-26T18:07:52Z</time>
      </trkpt>
      <trkpt lat="41.875940" lon="2.520838">
        <ele>832.490</ele>
        <time>2021-05-26T18:07:53Z</time>
      </trkpt>
      <trkpt lat="41.875963" lon="2.520824">
        <ele>832.467</ele>
        <time>2021-05-26T18:07:54Z</time>
      </trkpt>
      <trkpt lat="41.875988" lon="2.520808">
        <ele>832.591</ele>
        <time>2021-05-26T18:07:55Z</time>
      </trkpt>
      <trkpt lat="41.876013" lon="2.520791">
        <ele>832.546</ele>
        <time>2021-05-26T18:07:56Z</time>
      </trkpt>
      <trkpt lat="41.876036" lon="2.520775">
        <ele>832.466</ele>
        <time>2021-05-26T18:07:57Z</time>
      </trkpt>
      <trkpt lat="41.876060" lon="2.520761">
        <ele>832.492</ele>
        <time>2021-05-26T18:07:58Z</time>
      </trkpt>
      <trkpt lat="41.876087" lon="2.520743">
        <ele>832.347</ele>
        <time>2021-05-26T18:07:59Z</time>
      </trkpt>
      <trkpt lat="41.876114" lon="2.520725">
        <ele>832.267</ele>
        <time>2021-05-26T18:08:00Z</time>
      </trkpt>
      <trkpt lat="41.876140" lon="2.520704">
        <ele>832.281</ele>
        <time>2021-05-26T18:08:01Z</time>
      </trkpt>
      <trkpt lat="41.876165" lon="2.520684">
        <ele>832.119</ele>
        <time>2021-05-26T18:08:02Z</time>
      </trkpt>
      <trkpt lat="41.876192" lon="2.520666">
        <ele>832.008</ele>
        <time>2021-05-26T18:08:03Z</time>
      </trkpt>
      <trkpt lat="41.876218" lon="2.520650">
        <ele>831.983</ele>
        <time>2021-05-26T18:08:04Z</time>
      </trkpt>
      <trkpt lat="41.876240" lon="2.520630">
        <ele>831.810</ele>
        <time>2021-05-26T18:08:05Z</time>
      </trkpt>
      <trkpt lat="41.876263" lon="2.520612">
        <ele>831.647</ele>
        <time>2021-05-26T18:08:06Z</time>
      </trkpt>
      <trkpt lat="41.876285" lon="2.520596">
        <ele>831.511</ele>
        <time>2021-05-26T18:08:07Z</time>
      </trkpt>
      <trkpt lat="41.876307" lon="2.520575">
        <ele>831.286</ele>
        <time>2021-05-26T18:08:08Z</time>
      </trkpt>
      <trkpt lat="41.876353" lon="2.520538">
        <ele>830.896</ele>
        <time>2021-05-26T18:08:10Z</time>
      </trkpt>
      <trkpt lat="41.876377" lon="2.520520">
        <ele>830.662</ele>
        <time>2021-05-26T18:08:11Z</time>
      </trkpt>
      <trkpt lat="41.876401" lon="2.520502">
        <ele>830.467</ele>
        <time>2021-05-26T18:08:12Z</time>
      </trkpt>
      <trkpt lat="41.876425" lon="2.520484">
        <ele>830.222</ele>
        <time>2021-05-26T18:08:13Z</time>
      </trkpt>
      <trkpt lat="41.876453" lon="2.520467">
        <ele>830.062</ele>
        <time>2021-05-26T18:08:14Z</time>
      </trkpt>
      <trkpt lat="41.876482" lon="2.520453">
        <ele>829.808</ele>
        <time>2021-05-26T18:08:15Z</time>
      </trkpt>
      <trkpt lat="41.876508" lon="2.520437">
        <ele>829.508</ele>
        <time>2021-05-26T18:08:16Z</time>
      </trkpt>
      <trkpt lat="41.876532" lon="2.520421">
        <ele>829.359</ele>
        <time>2021-05-26T18:08:17Z</time>
      </trkpt>
      <trkpt lat="41.876558" lon="2.520407">
        <ele>829.196</ele>
        <time>2021-05-26T18:08:18Z</time>
      </trkpt>
      <trkpt lat="41.876582" lon="2.520392">
        <ele>828.813</ele>
        <time>2021-05-26T18:08:19Z</time>
      </trkpt>
      <trkpt lat="41.876606" lon="2.520380">
        <ele>828.617</ele>
        <time>2021-05-26T18:08:20Z</time>
      </trkpt>
      <trkpt lat="41.876635" lon="2.520369">
        <ele>828.482</ele>
        <time>2021-05-26T18:08:21Z</time>
      </trkpt>
      <trkpt lat="41.876660" lon="2.520357">
        <ele>828.252</ele>
        <time>2021-05-26T18:08:22Z</time>
      </trkpt>
      <trkpt lat="41.876680" lon="2.520344">
        <ele>828.068</ele>
        <time>2021-05-26T18:08:23Z</time>
      </trkpt>
      <trkpt lat="41.876698" lon="2.520332">
        <ele>827.813</ele>
        <time>2021-05-26T18:08:24Z</time>
      </trkpt>
      <trkpt lat="41.876718" lon="2.520322">
        <ele>827.784</ele>
        <time>2021-05-26T18:08:25Z</time>
      </trkpt>
      <trkpt lat="41.876734" lon="2.520302">
        <ele>827.407</ele>
        <time>2021-05-26T18:08:26Z</time>
      </trkpt>
      <trkpt lat="41.876747" lon="2.520284">
        <ele>827.117</ele>
        <time>2021-05-26T18:08:27Z</time>
      </trkpt>
      <trkpt lat="41.876765" lon="2.520268">
        <ele>826.908</ele>
        <time>2021-05-26T18:08:28Z</time>
      </trkpt>
      <trkpt lat="41.876779" lon="2.520252">
        <ele>826.845</ele>
        <time>2021-05-26T18:08:29Z</time>
      </trkpt>
      <trkpt lat="41.876798" lon="2.520237">
        <ele>826.732</ele>
        <time>2021-05-26T18:08:30Z</time>
      </trkpt>
      <trkpt lat="41.876815" lon="2.520222">
        <ele>826.639</ele>
        <time>2021-05-26T18:08:31Z</time>
      </trkpt>
      <trkpt lat="41.876834" lon="2.520210">
        <ele>826.573</ele>
        <time>2021-05-26T18:08:32Z</time>
      </trkpt>
      <trkpt lat="41.876870" lon="2.520178">
        <ele>826.198</ele>
        <time>2021-05-26T18:08:34Z</time>
      </trkpt>
      <trkpt lat="41.876891" lon="2.520161">
        <ele>825.958</ele>
        <time>2021-05-26T18:08:35Z</time>
      </trkpt>
      <trkpt lat="41.876913" lon="2.520145">
        <ele>825.794</ele>
        <time>2021-05-26T18:08:36Z</time>
      </trkpt>
      <trkpt lat="41.876933" lon="2.520130">
        <ele>825.479</ele>
        <time>2021-05-26T18:08:37Z</time>
      </trkpt>
      <trkpt lat="41.876955" lon="2.520114">
        <ele>825.216</ele>
        <time>2021-05-26T18:08:38Z</time>
      </trkpt>
      <trkpt lat="41.876974" lon="2.520095">
        <ele>825.076</ele>
        <time>2021-05-26T18:08:39Z</time>
      </trkpt>
      <trkpt lat="41.876992" lon="2.520077">
        <ele>824.813</ele>
        <time>2021-05-26T18:08:40Z</time>
      </trkpt>
      <trkpt lat="41.877011" lon="2.520059">
        <ele>824.608</ele>
        <time>2021-05-26T18:08:41Z</time>
      </trkpt>
      <trkpt lat="41.877031" lon="2.520040">
        <ele>824.478</ele>
        <time>2021-05-26T18:08:42Z</time>
      </trkpt>
      <trkpt lat="41.877049" lon="2.520020">
        <ele>824.265</ele>
        <time>2021-05-26T18:08:43Z</time>
      </trkpt>
      <trkpt lat="41.877068" lon="2.520001">
        <ele>824.022</ele>
        <time>2021-05-26T18:08:44Z</time>
      </trkpt>
      <trkpt lat="41.877088" lon="2.519983">
        <ele>823.966</ele>
        <time>2021-05-26T18:08:45Z</time>
      </trkpt>
      <trkpt lat="41.877107" lon="2.519965">
        <ele>823.931</ele>
        <time>2021-05-26T18:08:46Z</time>
      </trkpt>
      <trkpt lat="41.877126" lon="2.519949">
        <ele>823.821</ele>
        <time>2021-05-26T18:08:47Z</time>
      </trkpt>
      <trkpt lat="41.877146" lon="2.519930">
        <ele>823.617</ele>
        <time>2021-05-26T18:08:48Z</time>
      </trkpt>
      <trkpt lat="41.877165" lon="2.519911">
        <ele>823.542</ele>
        <time>2021-05-26T18:08:49Z</time>
      </trkpt>
      <trkpt lat="41.877188" lon="2.519896">
        <ele>823.311</ele>
        <time>2021-05-26T18:08:50Z</time>
      </trkpt>
      <trkpt lat="41.877208" lon="2.519882">
        <ele>823.221</ele>
        <time>2021-05-26T18:08:51Z</time>
      </trkpt>
      <trkpt lat="41.877226" lon="2.519867">
        <ele>823.003</ele>
        <time>2021-05-26T18:08:52Z</time>
      </trkpt>
      <trkpt lat="41.877245" lon="2.519850">
        <ele>822.908</ele>
        <time>2021-05-26T18:08:53Z</time>
      </trkpt>
      <trkpt lat="41.877264" lon="2.519835">
        <ele>822.888</ele>
        <time>2021-05-26T18:08:54Z</time>
      </trkpt>
      <trkpt lat="41.877284" lon="2.519822">
        <ele>822.745</ele>
        <time>2021-05-26T18:08:55Z</time>
      </trkpt>
      <trkpt lat="41.877301" lon="2.519811">
        <ele>822.652</ele>
        <time>2021-05-26T18:08:56Z</time>
      </trkpt>
      <trkpt lat="41.877323" lon="2.519803">
        <ele>822.696</ele>
        <time>2021-05-26T18:08:57Z</time>
      </trkpt>
      <trkpt lat="41.877344" lon="2.519800">
        <ele>822.641</ele>
        <time>2021-05-26T18:08:58Z</time>
      </trkpt>
      <trkpt lat="41.877377" lon="2.519811">
        <ele>822.691</ele>
        <time>2021-05-26T18:09:00Z</time>
      </trkpt>
      <trkpt lat="41.877406" lon="2.519844">
        <ele>822.927</ele>
        <time>2021-05-26T18:09:02Z</time>
      </trkpt>
      <trkpt lat="41.877418" lon="2.519863">
        <ele>823.012</ele>
        <time>2021-05-26T18:09:03Z</time>
      </trkpt>
      <trkpt lat="41.877433" lon="2.519885">
        <ele>823.211</ele>
        <time>2021-05-26T18:09:04Z</time>
      </trkpt>
      <trkpt lat="41.877451" lon="2.519906">
        <ele>823.321</ele>
        <time>2021-05-26T18:09:05Z</time>
      </trkpt>
      <trkpt lat="41.877469" lon="2.519927">
        <ele>823.503</ele>
        <time>2021-05-26T18:09:06Z</time>
      </trkpt>
      <trkpt lat="41.877489" lon="2.519947">
        <ele>823.608</ele>
        <time>2021-05-26T18:09:07Z</time>
      </trkpt>
      <trkpt lat="41.877503" lon="2.519967">
        <ele>823.898</ele>
        <time>2021-05-26T18:09:08Z</time>
      </trkpt>
      <trkpt lat="41.877515" lon="2.519993">
        <ele>824.015</ele>
        <time>2021-05-26T18:09:09Z</time>
      </trkpt>
      <trkpt lat="41.877524" lon="2.520021">
        <ele>824.172</ele>
        <time>2021-05-26T18:09:10Z</time>
      </trkpt>
      <trkpt lat="41.877537" lon="2.520045">
        <ele>824.366</ele>
        <time>2021-05-26T18:09:11Z</time>
      </trkpt>
      <trkpt lat="41.877549" lon="2.520073">
        <ele>824.561</ele>
        <time>2021-05-26T18:09:12Z</time>
      </trkpt>
      <trkpt lat="41.877560" lon="2.520103">
        <ele>824.721</ele>
        <time>2021-05-26T18:09:13Z</time>
      </trkpt>
      <trkpt lat="41.877571" lon="2.520129">
        <ele>824.877</ele>
        <time>2021-05-26T18:09:14Z</time>
      </trkpt>
      <trkpt lat="41.877580" lon="2.520161">
        <ele>825.052</ele>
        <time>2021-05-26T18:09:15Z</time>
      </trkpt>
      <trkpt lat="41.877592" lon="2.520188">
        <ele>825.182</ele>
        <time>2021-05-26T18:09:16Z</time>
      </trkpt>
      <trkpt lat="41.877604" lon="2.520213">
        <ele>825.243</ele>
        <time>2021-05-26T18:09:17Z</time>
      </trkpt>
      <trkpt lat="41.877616" lon="2.520240">
        <ele>825.417</ele>
        <time>2021-05-26T18:09:18Z</time>
      </trkpt>
      <trkpt lat="41.877649" lon="2.520294">
        <ele>825.508</ele>
        <time>2021-05-26T18:09:20Z</time>
      </trkpt>
      <trkpt lat="41.877666" lon="2.520323">
        <ele>825.575</ele>
        <time>2021-05-26T18:09:21Z</time>
      </trkpt>
      <trkpt lat="41.877681" lon="2.520349">
        <ele>825.542</ele>
        <time>2021-05-26T18:09:22Z</time>
      </trkpt>
      <trkpt lat="41.877693" lon="2.520375">
        <ele>825.529</ele>
        <time>2021-05-26T18:09:23Z</time>
      </trkpt>
      <trkpt lat="41.877709" lon="2.520401">
        <ele>825.593</ele>
        <time>2021-05-26T18:09:24Z</time>
      </trkpt>
      <trkpt lat="41.877722" lon="2.520428">
        <ele>825.478</ele>
        <time>2021-05-26T18:09:25Z</time>
      </trkpt>
      <trkpt lat="41.877738" lon="2.520498">
        <ele>825.478</ele>
        <time>2021-05-26T18:09:27Z</time>
      </trkpt>
      <trkpt lat="41.877744" lon="2.520534">
        <ele>825.374</ele>
        <time>2021-05-26T18:09:28Z</time>
      </trkpt>
      <trkpt lat="41.877748" lon="2.520574">
        <ele>825.319</ele>
        <time>2021-05-26T18:09:29Z</time>
      </trkpt>
      <trkpt lat="41.877754" lon="2.520611">
        <ele>825.192</ele>
        <time>2021-05-26T18:09:30Z</time>
      </trkpt>
      <trkpt lat="41.877763" lon="2.520645">
        <ele>824.973</ele>
        <time>2021-05-26T18:09:31Z</time>
      </trkpt>
      <trkpt lat="41.877774" lon="2.520673">
        <ele>824.620</ele>
        <time>2021-05-26T18:09:32Z</time>
      </trkpt>
      <trkpt lat="41.877788" lon="2.520701">
        <ele>824.508</ele>
        <time>2021-05-26T18:09:33Z</time>
      </trkpt>
      <trkpt lat="41.877807" lon="2.520723">
        <ele>824.456</ele>
        <time>2021-05-26T18:09:34Z</time>
      </trkpt>
      <trkpt lat="41.877830" lon="2.520736">
        <ele>824.453</ele>
        <time>2021-05-26T18:09:35Z</time>
      </trkpt>
      <trkpt lat="41.877854" lon="2.520743">
        <ele>824.440</ele>
        <time>2021-05-26T18:09:36Z</time>
      </trkpt>
      <trkpt lat="41.877877" lon="2.520748">
        <ele>824.444</ele>
        <time>2021-05-26T18:09:37Z</time>
      </trkpt>
      <trkpt lat="41.877900" lon="2.520752">
        <ele>824.529</ele>
        <time>2021-05-26T18:09:38Z</time>
      </trkpt>
      <trkpt lat="41.877923" lon="2.520757">
        <ele>824.569</ele>
        <time>2021-05-26T18:09:39Z</time>
      </trkpt>
      <trkpt lat="41.877944" lon="2.520764">
        <ele>824.535</ele>
        <time>2021-05-26T18:09:40Z</time>
      </trkpt>
      <trkpt lat="41.877966" lon="2.520766">
        <ele>824.640</ele>
        <time>2021-05-26T18:09:41Z</time>
      </trkpt>
      <trkpt lat="41.878002" lon="2.520761">
        <ele>824.648</ele>
        <time>2021-05-26T18:09:43Z</time>
      </trkpt>
      <trkpt lat="41.878025" lon="2.520742">
        <ele>824.661</ele>
        <time>2021-05-26T18:09:44Z</time>
      </trkpt>
      <trkpt lat="41.878044" lon="2.520718">
        <ele>824.617</ele>
        <time>2021-05-26T18:09:45Z</time>
      </trkpt>
      <trkpt lat="41.878062" lon="2.520695">
        <ele>824.508</ele>
        <time>2021-05-26T18:09:46Z</time>
      </trkpt>
      <trkpt lat="41.878080" lon="2.520671">
        <ele>824.591</ele>
        <time>2021-05-26T18:09:47Z</time>
      </trkpt>
      <trkpt lat="41.878099" lon="2.520646">
        <ele>824.558</ele>
        <time>2021-05-26T18:09:48Z</time>
      </trkpt>
      <trkpt lat="41.878136" lon="2.520599">
        <ele>824.515</ele>
        <time>2021-05-26T18:09:50Z</time>
      </trkpt>
      <trkpt lat="41.878156" lon="2.520576">
        <ele>824.569</ele>
        <time>2021-05-26T18:09:51Z</time>
      </trkpt>
      <trkpt lat="41.878175" lon="2.520553">
        <ele>824.414</ele>
        <time>2021-05-26T18:09:52Z</time>
      </trkpt>
      <trkpt lat="41.878189" lon="2.520534">
        <ele>824.594</ele>
        <time>2021-05-26T18:09:53Z</time>
      </trkpt>
      <trkpt lat="41.878214" lon="2.520502">
        <ele>824.650</ele>
        <time>2021-05-26T18:09:55Z</time>
      </trkpt>
      <trkpt lat="41.878234" lon="2.520469">
        <ele>824.655</ele>
        <time>2021-05-26T18:09:57Z</time>
      </trkpt>
      <trkpt lat="41.878255" lon="2.520443">
        <ele>824.762</ele>
        <time>2021-05-26T18:09:59Z</time>
      </trkpt>
      <trkpt lat="41.878276" lon="2.520414">
        <ele>824.883</ele>
        <time>2021-05-26T18:10:01Z</time>
      </trkpt>
      <trkpt lat="41.878298" lon="2.520383">
        <ele>824.911</ele>
        <time>2021-05-26T18:10:03Z</time>
      </trkpt>
      <trkpt lat="41.878319" lon="2.520347">
        <ele>824.908</ele>
        <time>2021-05-26T18:10:05Z</time>
      </trkpt>
      <trkpt lat="41.878340" lon="2.520313">
        <ele>825.063</ele>
        <time>2021-05-26T18:10:07Z</time>
      </trkpt>
      <trkpt lat="41.878359" lon="2.520284">
        <ele>825.080</ele>
        <time>2021-05-26T18:10:09Z</time>
      </trkpt>
      <trkpt lat="41.878378" lon="2.520256">
        <ele>825.047</ele>
        <time>2021-05-26T18:10:11Z</time>
      </trkpt>
      <trkpt lat="41.878399" lon="2.520220">
        <ele>825.041</ele>
        <time>2021-05-26T18:10:13Z</time>
      </trkpt>
      <trkpt lat="41.878421" lon="2.520183">
        <ele>825.096</ele>
        <time>2021-05-26T18:10:15Z</time>
      </trkpt>
      <trkpt lat="41.878439" lon="2.520148">
        <ele>825.016</ele>
        <time>2021-05-26T18:10:17Z</time>
      </trkpt>
      <trkpt lat="41.878452" lon="2.520113">
        <ele>825.022</ele>
        <time>2021-05-26T18:10:19Z</time>
      </trkpt>
      <trkpt lat="41.878465" lon="2.520077">
        <ele>825.047</ele>
        <time>2021-05-26T18:10:21Z</time>
      </trkpt>
      <trkpt lat="41.878479" lon="2.520041">
        <ele>825.043</ele>
        <time>2021-05-26T18:10:23Z</time>
      </trkpt>
      <trkpt lat="41.878494" lon="2.520007">
        <ele>825.064</ele>
        <time>2021-05-26T18:10:25Z</time>
      </trkpt>
      <trkpt lat="41.878512" lon="2.519972">
        <ele>825.010</ele>
        <time>2021-05-26T18:10:27Z</time>
      </trkpt>
      <trkpt lat="41.878525" lon="2.519954">
        <ele>825.008</ele>
        <time>2021-05-26T18:10:28Z</time>
      </trkpt>
      <trkpt lat="41.878543" lon="2.519916">
        <ele>825.071</ele>
        <time>2021-05-26T18:10:30Z</time>
      </trkpt>
      <trkpt lat="41.878558" lon="2.519878">
        <ele>825.058</ele>
        <time>2021-05-26T18:10:32Z</time>
      </trkpt>
      <trkpt lat="41.878569" lon="2.519842">
        <ele>825.035</ele>
        <time>2021-05-26T18:10:34Z</time>
      </trkpt>
      <trkpt lat="41.878583" lon="2.519809">
        <ele>825.079</ele>
        <time>2021-05-26T18:10:36Z</time>
      </trkpt>
      <trkpt lat="41.878600" lon="2.519778">
        <ele>825.014</ele>
        <time>2021-05-26T18:10:38Z</time>
      </trkpt>
      <trkpt lat="41.878616" lon="2.519746">
        <ele>825.074</ele>
        <time>2021-05-26T18:10:40Z</time>
      </trkpt>
      <trkpt lat="41.878633" lon="2.519714">
        <ele>825.160</ele>
        <time>2021-05-26T18:10:42Z</time>
      </trkpt>
      <trkpt lat="41.878649" lon="2.519681">
        <ele>825.455</ele>
        <time>2021-05-26T18:10:44Z</time>
      </trkpt>
      <trkpt lat="41.878670" lon="2.519656">
        <ele>825.649</ele>
        <time>2021-05-26T18:10:46Z</time>
      </trkpt>
      <trkpt lat="41.878692" lon="2.519626">
        <ele>825.902</ele>
        <time>2021-05-26T18:10:48Z</time>
      </trkpt>
      <trkpt lat="41.878708" lon="2.519609">
        <ele>826.022</ele>
        <time>2021-05-26T18:10:49Z</time>
      </trkpt>
      <trkpt lat="41.878720" lon="2.519590">
        <ele>826.208</ele>
        <time>2021-05-26T18:10:50Z</time>
      </trkpt>
      <trkpt lat="41.878742" lon="2.519556">
        <ele>826.431</ele>
        <time>2021-05-26T18:10:52Z</time>
      </trkpt>
      <trkpt lat="41.878762" lon="2.519526">
        <ele>826.678</ele>
        <time>2021-05-26T18:10:54Z</time>
      </trkpt>
      <trkpt lat="41.878785" lon="2.519502">
        <ele>826.755</ele>
        <time>2021-05-26T18:10:56Z</time>
      </trkpt>
      <trkpt lat="41.878808" lon="2.519479">
        <ele>826.869</ele>
        <time>2021-05-26T18:10:58Z</time>
      </trkpt>
      <trkpt lat="41.878830" lon="2.519451">
        <ele>827.064</ele>
        <time>2021-05-26T18:11:00Z</time>
      </trkpt>
      <trkpt lat="41.878851" lon="2.519423">
        <ele>827.164</ele>
        <time>2021-05-26T18:11:02Z</time>
      </trkpt>
      <trkpt lat="41.878874" lon="2.519395">
        <ele>827.220</ele>
        <time>2021-05-26T18:11:04Z</time>
      </trkpt>
      <trkpt lat="41.878898" lon="2.519369">
        <ele>827.315</ele>
        <time>2021-05-26T18:11:06Z</time>
      </trkpt>
      <trkpt lat="41.878920" lon="2.519346">
        <ele>827.417</ele>
        <time>2021-05-26T18:11:08Z</time>
      </trkpt>
      <trkpt lat="41.878947" lon="2.519327">
        <ele>827.487</ele>
        <time>2021-05-26T18:11:10Z</time>
      </trkpt>
      <trkpt lat="41.878980" lon="2.519308">
        <ele>827.515</ele>
        <time>2021-05-26T18:11:12Z</time>
      </trkpt>
      <trkpt lat="41.879009" lon="2.519287">
        <ele>827.608</ele>
        <time>2021-05-26T18:11:14Z</time>
      </trkpt>
      <trkpt lat="41.879043" lon="2.519269">
        <ele>827.668</ele>
        <time>2021-05-26T18:11:16Z</time>
      </trkpt>
      <trkpt lat="41.879061" lon="2.519260">
        <ele>827.785</ele>
        <time>2021-05-26T18:11:17Z</time>
      </trkpt>
      <trkpt lat="41.879095" lon="2.519244">
        <ele>827.782</ele>
        <time>2021-05-26T18:11:19Z</time>
      </trkpt>
      <trkpt lat="41.879127" lon="2.519227">
        <ele>827.836</ele>
        <time>2021-05-26T18:11:21Z</time>
      </trkpt>
      <trkpt lat="41.879157" lon="2.519207">
        <ele>827.931</ele>
        <time>2021-05-26T18:11:23Z</time>
      </trkpt>
      <trkpt lat="41.879185" lon="2.519188">
        <ele>827.931</ele>
        <time>2021-05-26T18:11:25Z</time>
      </trkpt>
      <trkpt lat="41.879212" lon="2.519168">
        <ele>827.857</ele>
        <time>2021-05-26T18:11:27Z</time>
      </trkpt>
      <trkpt lat="41.879237" lon="2.519145">
        <ele>827.862</ele>
        <time>2021-05-26T18:11:29Z</time>
      </trkpt>
      <trkpt lat="41.879263" lon="2.519133">
        <ele>827.898</ele>
        <time>2021-05-26T18:11:31Z</time>
      </trkpt>
      <trkpt lat="41.879295" lon="2.519128">
        <ele>827.715</ele>
        <time>2021-05-26T18:11:33Z</time>
      </trkpt>
      <trkpt lat="41.879326" lon="2.519118">
        <ele>827.626</ele>
        <time>2021-05-26T18:11:35Z</time>
      </trkpt>
      <trkpt lat="41.879356" lon="2.519105">
        <ele>827.508</ele>
        <time>2021-05-26T18:11:37Z</time>
      </trkpt>
      <trkpt lat="41.879381" lon="2.519098">
        <ele>827.526</ele>
        <time>2021-05-26T18:11:39Z</time>
      </trkpt>
      <trkpt lat="41.879412" lon="2.519101">
        <ele>827.463</ele>
        <time>2021-05-26T18:11:41Z</time>
      </trkpt>
      <trkpt lat="41.879444" lon="2.519102">
        <ele>827.290</ele>
        <time>2021-05-26T18:11:43Z</time>
      </trkpt>
      <trkpt lat="41.879475" lon="2.519107">
        <ele>826.914</ele>
        <time>2021-05-26T18:11:45Z</time>
      </trkpt>
      <trkpt lat="41.879506" lon="2.519113">
        <ele>826.699</ele>
        <time>2021-05-26T18:11:47Z</time>
      </trkpt>
      <trkpt lat="41.879537" lon="2.519110">
        <ele>826.339</ele>
        <time>2021-05-26T18:11:49Z</time>
      </trkpt>
      <trkpt lat="41.879565" lon="2.519111">
        <ele>826.035</ele>
        <time>2021-05-26T18:11:51Z</time>
      </trkpt>
      <trkpt lat="41.879592" lon="2.519116">
        <ele>825.750</ele>
        <time>2021-05-26T18:11:53Z</time>
      </trkpt>
      <trkpt lat="41.879624" lon="2.519113">
        <ele>825.491</ele>
        <time>2021-05-26T18:11:55Z</time>
      </trkpt>
      <trkpt lat="41.879643" lon="2.519110">
        <ele>825.281</ele>
        <time>2021-05-26T18:11:56Z</time>
      </trkpt>
      <trkpt lat="41.879666" lon="2.519107">
        <ele>825.019</ele>
        <time>2021-05-26T18:11:57Z</time>
      </trkpt>
      <trkpt lat="41.879686" lon="2.519102">
        <ele>824.808</ele>
        <time>2021-05-26T18:11:58Z</time>
      </trkpt>
      <trkpt lat="41.879706" lon="2.519096">
        <ele>824.766</ele>
        <time>2021-05-26T18:11:59Z</time>
      </trkpt>
      <trkpt lat="41.879725" lon="2.519092">
        <ele>824.513</ele>
        <time>2021-05-26T18:12:00Z</time>
      </trkpt>
      <trkpt lat="41.879747" lon="2.519087">
        <ele>824.440</ele>
        <time>2021-05-26T18:12:01Z</time>
      </trkpt>
      <trkpt lat="41.879769" lon="2.519081">
        <ele>824.494</ele>
        <time>2021-05-26T18:12:02Z</time>
      </trkpt>
      <trkpt lat="41.879791" lon="2.519077">
        <ele>824.379</ele>
        <time>2021-05-26T18:12:03Z</time>
      </trkpt>
      <trkpt lat="41.879813" lon="2.519069">
        <ele>824.369</ele>
        <time>2021-05-26T18:12:04Z</time>
      </trkpt>
      <trkpt lat="41.879838" lon="2.519063">
        <ele>824.265</ele>
        <time>2021-05-26T18:12:05Z</time>
      </trkpt>
      <trkpt lat="41.879863" lon="2.519056">
        <ele>824.220</ele>
        <time>2021-05-26T18:12:06Z</time>
      </trkpt>
      <trkpt lat="41.879889" lon="2.519048">
        <ele>824.233</ele>
        <time>2021-05-26T18:12:07Z</time>
      </trkpt>
      <trkpt lat="41.879914" lon="2.519042">
        <ele>824.123</ele>
        <time>2021-05-26T18:12:08Z</time>
      </trkpt>
      <trkpt lat="41.879940" lon="2.519037">
        <ele>824.115</ele>
        <time>2021-05-26T18:12:09Z</time>
      </trkpt>
      <trkpt lat="41.879967" lon="2.519031">
        <ele>824.108</ele>
        <time>2021-05-26T18:12:10Z</time>
      </trkpt>
      <trkpt lat="41.879990" lon="2.519022">
        <ele>824.140</ele>
        <time>2021-05-26T18:12:11Z</time>
      </trkpt>
      <trkpt lat="41.880013" lon="2.519014">
        <ele>824.257</ele>
        <time>2021-05-26T18:12:12Z</time>
      </trkpt>
      <trkpt lat="41.880034" lon="2.519005">
        <ele>824.364</ele>
        <time>2021-05-26T18:12:13Z</time>
      </trkpt>
      <trkpt lat="41.880057" lon="2.518996">
        <ele>824.588</ele>
        <time>2021-05-26T18:12:14Z</time>
      </trkpt>
      <trkpt lat="41.880081" lon="2.518987">
        <ele>824.643</ele>
        <time>2021-05-26T18:12:15Z</time>
      </trkpt>
      <trkpt lat="41.880104" lon="2.518979">
        <ele>824.793</ele>
        <time>2021-05-26T18:12:16Z</time>
      </trkpt>
      <trkpt lat="41.880131" lon="2.518973">
        <ele>824.849</ele>
        <time>2021-05-26T18:12:17Z</time>
      </trkpt>
      <trkpt lat="41.880158" lon="2.518970">
        <ele>824.844</ele>
        <time>2021-05-26T18:12:18Z</time>
      </trkpt>
      <trkpt lat="41.880188" lon="2.518967">
        <ele>824.979</ele>
        <time>2021-05-26T18:12:19Z</time>
      </trkpt>
      <trkpt lat="41.880215" lon="2.518964">
        <ele>824.905</ele>
        <time>2021-05-26T18:12:20Z</time>
      </trkpt>
      <trkpt lat="41.880269" lon="2.518954">
        <ele>825.125</ele>
        <time>2021-05-26T18:12:22Z</time>
      </trkpt>
      <trkpt lat="41.880293" lon="2.518947">
        <ele>825.208</ele>
        <time>2021-05-26T18:12:23Z</time>
      </trkpt>
      <trkpt lat="41.880318" lon="2.518939">
        <ele>825.474</ele>
        <time>2021-05-26T18:12:24Z</time>
      </trkpt>
      <trkpt lat="41.880341" lon="2.518930">
        <ele>825.651</ele>
        <time>2021-05-26T18:12:25Z</time>
      </trkpt>
      <trkpt lat="41.880368" lon="2.518923">
        <ele>825.828</ele>
        <time>2021-05-26T18:12:26Z</time>
      </trkpt>
      <trkpt lat="41.880397" lon="2.518919">
        <ele>826.082</ele>
        <time>2021-05-26T18:12:27Z</time>
      </trkpt>
      <trkpt lat="41.880430" lon="2.518919">
        <ele>826.127</ele>
        <time>2021-05-26T18:12:28Z</time>
      </trkpt>
      <trkpt lat="41.880468" lon="2.518926">
        <ele>826.197</ele>
        <time>2021-05-26T18:12:29Z</time>
      </trkpt>
      <trkpt lat="41.880497" lon="2.518925">
        <ele>826.323</ele>
        <time>2021-05-26T18:12:30Z</time>
      </trkpt>
      <trkpt lat="41.880521" lon="2.518921">
        <ele>826.478</ele>
        <time>2021-05-26T18:12:31Z</time>
      </trkpt>
      <trkpt lat="41.880546" lon="2.518918">
        <ele>826.576</ele>
        <time>2021-05-26T18:12:32Z</time>
      </trkpt>
      <trkpt lat="41.880568" lon="2.518909">
        <ele>826.690</ele>
        <time>2021-05-26T18:12:33Z</time>
      </trkpt>
      <trkpt lat="41.880591" lon="2.518901">
        <ele>826.619</ele>
        <time>2021-05-26T18:12:34Z</time>
      </trkpt>
      <trkpt lat="41.880614" lon="2.518894">
        <ele>826.508</ele>
        <time>2021-05-26T18:12:35Z</time>
      </trkpt>
      <trkpt lat="41.880635" lon="2.518888">
        <ele>826.414</ele>
        <time>2021-05-26T18:12:36Z</time>
      </trkpt>
      <trkpt lat="41.880659" lon="2.518883">
        <ele>826.371</ele>
        <time>2021-05-26T18:12:37Z</time>
      </trkpt>
      <trkpt lat="41.880681" lon="2.518876">
        <ele>826.148</ele>
        <time>2021-05-26T18:12:38Z</time>
      </trkpt>
      <trkpt lat="41.880708" lon="2.518870">
        <ele>825.942</ele>
        <time>2021-05-26T18:12:39Z</time>
      </trkpt>
      <trkpt lat="41.880733" lon="2.518865">
        <ele>825.727</ele>
        <time>2021-05-26T18:12:40Z</time>
      </trkpt>
      <trkpt lat="41.880765" lon="2.518864">
        <ele>825.557</ele>
        <time>2021-05-26T18:12:41Z</time>
      </trkpt>
      <trkpt lat="41.880788" lon="2.518858">
        <ele>825.313</ele>
        <time>2021-05-26T18:12:42Z</time>
      </trkpt>
      <trkpt lat="41.880815" lon="2.518853">
        <ele>825.138</ele>
        <time>2021-05-26T18:12:43Z</time>
      </trkpt>
      <trkpt lat="41.880837" lon="2.518845">
        <ele>825.018</ele>
        <time>2021-05-26T18:12:44Z</time>
      </trkpt>
      <trkpt lat="41.880860" lon="2.518839">
        <ele>824.698</ele>
        <time>2021-05-26T18:12:45Z</time>
      </trkpt>
      <trkpt lat="41.880889" lon="2.518834">
        <ele>824.317</ele>
        <time>2021-05-26T18:12:46Z</time>
      </trkpt>
      <trkpt lat="41.880913" lon="2.518827">
        <ele>824.008</ele>
        <time>2021-05-26T18:12:47Z</time>
      </trkpt>
      <trkpt lat="41.880936" lon="2.518818">
        <ele>823.798</ele>
        <time>2021-05-26T18:12:48Z</time>
      </trkpt>
      <trkpt lat="41.880959" lon="2.518807">
        <ele>823.525</ele>
        <time>2021-05-26T18:12:49Z</time>
      </trkpt>
      <trkpt lat="41.880978" lon="2.518793">
        <ele>823.392</ele>
        <time>2021-05-26T18:12:50Z</time>
      </trkpt>
      <trkpt lat="41.880999" lon="2.518782">
        <ele>823.146</ele>
        <time>2021-05-26T18:12:51Z</time>
      </trkpt>
      <trkpt lat="41.881022" lon="2.518773">
        <ele>822.951</ele>
        <time>2021-05-26T18:12:52Z</time>
      </trkpt>
      <trkpt lat="41.881041" lon="2.518760">
        <ele>822.711</ele>
        <time>2021-05-26T18:12:53Z</time>
      </trkpt>
      <trkpt lat="41.881059" lon="2.518745">
        <ele>822.657</ele>
        <time>2021-05-26T18:12:54Z</time>
      </trkpt>
      <trkpt lat="41.881075" lon="2.518713">
        <ele>822.692</ele>
        <time>2021-05-26T18:12:56Z</time>
      </trkpt>
      <trkpt lat="41.881091" lon="2.518682">
        <ele>822.713</ele>
        <time>2021-05-26T18:13:00Z</time>
      </trkpt>
      <trkpt lat="41.881122" lon="2.518671">
        <ele>822.643</ele>
        <time>2021-05-26T18:13:01Z</time>
      </trkpt>
      <trkpt lat="41.881154" lon="2.518653">
        <ele>822.707</ele>
        <time>2021-05-26T18:13:03Z</time>
      </trkpt>
      <trkpt lat="41.881180" lon="2.518637">
        <ele>822.808</ele>
        <time>2021-05-26T18:13:05Z</time>
      </trkpt>
      <trkpt lat="41.881212" lon="2.518624">
        <ele>822.928</ele>
        <time>2021-05-26T18:13:07Z</time>
      </trkpt>
      <trkpt lat="41.881240" lon="2.518604">
        <ele>823.165</ele>
        <time>2021-05-26T18:13:09Z</time>
      </trkpt>
      <trkpt lat="41.881268" lon="2.518585">
        <ele>823.242</ele>
        <time>2021-05-26T18:13:11Z</time>
      </trkpt>
      <trkpt lat="41.881285" lon="2.518578">
        <ele>823.386</ele>
        <time>2021-05-26T18:13:12Z</time>
      </trkpt>
      <trkpt lat="41.881314" lon="2.518563">
        <ele>823.571</ele>
        <time>2021-05-26T18:13:14Z</time>
      </trkpt>
      <trkpt lat="41.881343" lon="2.518545">
        <ele>823.791</ele>
        <time>2021-05-26T18:13:16Z</time>
      </trkpt>
      <trkpt lat="41.881367" lon="2.518526">
        <ele>823.947</ele>
        <time>2021-05-26T18:13:18Z</time>
      </trkpt>
      <trkpt lat="41.881393" lon="2.518504">
        <ele>824.222</ele>
        <time>2021-05-26T18:13:20Z</time>
      </trkpt>
      <trkpt lat="41.881423" lon="2.518493">
        <ele>824.588</ele>
        <time>2021-05-26T18:13:22Z</time>
      </trkpt>
      <trkpt lat="41.881442" lon="2.518491">
        <ele>824.724</ele>
        <time>2021-05-26T18:13:23Z</time>
      </trkpt>
      <trkpt lat="41.881460" lon="2.518492">
        <ele>824.826</ele>
        <time>2021-05-26T18:13:24Z</time>
      </trkpt>
      <trkpt lat="41.881489" lon="2.518481">
        <ele>825.108</ele>
        <time>2021-05-26T18:13:26Z</time>
      </trkpt>
      <trkpt lat="41.881518" lon="2.518461">
        <ele>825.615</ele>
        <time>2021-05-26T18:13:28Z</time>
      </trkpt>
      <trkpt lat="41.881545" lon="2.518443">
        <ele>825.962</ele>
        <time>2021-05-26T18:13:30Z</time>
      </trkpt>
      <trkpt lat="41.881571" lon="2.518423">
        <ele>826.359</ele>
        <time>2021-05-26T18:13:32Z</time>
      </trkpt>
      <trkpt lat="41.881593" lon="2.518402">
        <ele>826.773</ele>
        <time>2021-05-26T18:13:34Z</time>
      </trkpt>
      <trkpt lat="41.881619" lon="2.518383">
        <ele>827.198</ele>
        <time>2021-05-26T18:13:36Z</time>
      </trkpt>
      <trkpt lat="41.881646" lon="2.518363">
        <ele>827.548</ele>
        <time>2021-05-26T18:13:38Z</time>
      </trkpt>
      <trkpt lat="41.881673" lon="2.518342">
        <ele>828.064</ele>
        <time>2021-05-26T18:13:40Z</time>
      </trkpt>
      <trkpt lat="41.881698" lon="2.518325">
        <ele>828.539</ele>
        <time>2021-05-26T18:13:42Z</time>
      </trkpt>
      <trkpt lat="41.881721" lon="2.518311">
        <ele>828.967</ele>
        <time>2021-05-26T18:13:44Z</time>
      </trkpt>
      <trkpt lat="41.881753" lon="2.518296">
        <ele>829.581</ele>
        <time>2021-05-26T18:13:46Z</time>
      </trkpt>
      <trkpt lat="41.881772" lon="2.518288">
        <ele>829.819</ele>
        <time>2021-05-26T18:13:47Z</time>
      </trkpt>
      <trkpt lat="41.881804" lon="2.518273">
        <ele>830.408</ele>
        <time>2021-05-26T18:13:49Z</time>
      </trkpt>
      <trkpt lat="41.881836" lon="2.518258">
        <ele>831.023</ele>
        <time>2021-05-26T18:13:51Z</time>
      </trkpt>
      <trkpt lat="41.881863" lon="2.518237">
        <ele>831.550</ele>
        <time>2021-05-26T18:13:53Z</time>
      </trkpt>
      <trkpt lat="41.881891" lon="2.518215">
        <ele>832.137</ele>
        <time>2021-05-26T18:13:55Z</time>
      </trkpt>
      <trkpt lat="41.881921" lon="2.518214">
        <ele>832.551</ele>
        <time>2021-05-26T18:13:57Z</time>
      </trkpt>
      <trkpt lat="41.881951" lon="2.518219">
        <ele>833.096</ele>
        <time>2021-05-26T18:13:59Z</time>
      </trkpt>
      <trkpt lat="41.881981" lon="2.518220">
        <ele>833.836</ele>
        <time>2021-05-26T18:14:01Z</time>
      </trkpt>
      <trkpt lat="41.882006" lon="2.518225">
        <ele>834.422</ele>
        <time>2021-05-26T18:14:03Z</time>
      </trkpt>
      <trkpt lat="41.882035" lon="2.518235">
        <ele>835.137</ele>
        <time>2021-05-26T18:14:05Z</time>
      </trkpt>
      <trkpt lat="41.882066" lon="2.518241">
        <ele>835.946</ele>
        <time>2021-05-26T18:14:07Z</time>
      </trkpt>
      <trkpt lat="41.882094" lon="2.518250">
        <ele>836.588</ele>
        <time>2021-05-26T18:14:09Z</time>
      </trkpt>
      <trkpt lat="41.882120" lon="2.518272">
        <ele>837.016</ele>
        <time>2021-05-26T18:14:11Z</time>
      </trkpt>
      <trkpt lat="41.882146" lon="2.518294">
        <ele>837.508</ele>
        <time>2021-05-26T18:14:13Z</time>
      </trkpt>
      <trkpt lat="41.882167" lon="2.518324">
        <ele>837.721</ele>
        <time>2021-05-26T18:14:15Z</time>
      </trkpt>
      <trkpt lat="41.882192" lon="2.518352">
        <ele>838.048</ele>
        <time>2021-05-26T18:14:17Z</time>
      </trkpt>
      <trkpt lat="41.882211" lon="2.518387">
        <ele>838.035</ele>
        <time>2021-05-26T18:14:19Z</time>
      </trkpt>
      <trkpt lat="41.882232" lon="2.518421">
        <ele>838.079</ele>
        <time>2021-05-26T18:14:21Z</time>
      </trkpt>
      <trkpt lat="41.882247" lon="2.518463">
        <ele>837.844</ele>
        <time>2021-05-26T18:14:23Z</time>
      </trkpt>
      <trkpt lat="41.882263" lon="2.518500">
        <ele>837.784</ele>
        <time>2021-05-26T18:14:25Z</time>
      </trkpt>
      <trkpt lat="41.882282" lon="2.518535">
        <ele>837.790</ele>
        <time>2021-05-26T18:14:27Z</time>
      </trkpt>
      <trkpt lat="41.882303" lon="2.518564">
        <ele>837.835</ele>
        <time>2021-05-26T18:14:29Z</time>
      </trkpt>
      <trkpt lat="41.882319" lon="2.518598">
        <ele>837.672</ele>
        <time>2021-05-26T18:14:31Z</time>
      </trkpt>
      <trkpt lat="41.882334" lon="2.518634">
        <ele>837.313</ele>
        <time>2021-05-26T18:14:33Z</time>
      </trkpt>
      <trkpt lat="41.882352" lon="2.518669">
        <ele>837.014</ele>
        <time>2021-05-26T18:14:35Z</time>
      </trkpt>
      <trkpt lat="41.882372" lon="2.518699">
        <ele>836.908</ele>
        <time>2021-05-26T18:14:37Z</time>
      </trkpt>
      <trkpt lat="41.882393" lon="2.518729">
        <ele>836.864</ele>
        <time>2021-05-26T18:14:39Z</time>
      </trkpt>
      <trkpt lat="41.882414" lon="2.518750">
        <ele>836.891</ele>
        <time>2021-05-26T18:14:41Z</time>
      </trkpt>
      <trkpt lat="41.882434" lon="2.518755">
        <ele>837.288</ele>
        <time>2021-05-26T18:14:43Z</time>
      </trkpt>
      <trkpt lat="41.882455" lon="2.518757">
        <ele>837.732</ele>
        <time>2021-05-26T18:14:46Z</time>
      </trkpt>
      <trkpt lat="41.882475" lon="2.518746">
        <ele>838.547</ele>
        <time>2021-05-26T18:14:49Z</time>
      </trkpt>
      <trkpt lat="41.882490" lon="2.518728">
        <ele>839.287</ele>
        <time>2021-05-26T18:14:52Z</time>
      </trkpt>
      <trkpt lat="41.882510" lon="2.518732">
        <ele>839.693</ele>
        <time>2021-05-26T18:14:55Z</time>
      </trkpt>
      <trkpt lat="41.882528" lon="2.518759">
        <ele>839.478</ele>
        <time>2021-05-26T18:14:57Z</time>
      </trkpt>
      <trkpt lat="41.882545" lon="2.518786">
        <ele>839.225</ele>
        <time>2021-05-26T18:14:59Z</time>
      </trkpt>
      <trkpt lat="41.882564" lon="2.518813">
        <ele>838.926</ele>
        <time>2021-05-26T18:15:01Z</time>
      </trkpt>
      <trkpt lat="41.882583" lon="2.518833">
        <ele>838.808</ele>
        <time>2021-05-26T18:15:03Z</time>
      </trkpt>
      <trkpt lat="41.882610" lon="2.518849">
        <ele>839.008</ele>
        <time>2021-05-26T18:15:05Z</time>
      </trkpt>
      <trkpt lat="41.882636" lon="2.518862">
        <ele>839.149</ele>
        <time>2021-05-26T18:15:07Z</time>
      </trkpt>
      <trkpt lat="41.882660" lon="2.518872">
        <ele>839.396</ele>
        <time>2021-05-26T18:15:09Z</time>
      </trkpt>
      <trkpt lat="41.882684" lon="2.518874">
        <ele>839.793</ele>
        <time>2021-05-26T18:15:11Z</time>
      </trkpt>
      <trkpt lat="41.882712" lon="2.518874">
        <ele>840.267</ele>
        <time>2021-05-26T18:15:13Z</time>
      </trkpt>
      <trkpt lat="41.882739" lon="2.518875">
        <ele>840.782</ele>
        <time>2021-05-26T18:15:15Z</time>
      </trkpt>
      <trkpt lat="41.882767" lon="2.518872">
        <ele>841.352</ele>
        <time>2021-05-26T18:15:17Z</time>
      </trkpt>
      <trkpt lat="41.882796" lon="2.518869">
        <ele>841.948</ele>
        <time>2021-05-26T18:15:19Z</time>
      </trkpt>
      <trkpt lat="41.882823" lon="2.518869">
        <ele>842.493</ele>
        <time>2021-05-26T18:15:21Z</time>
      </trkpt>
      <trkpt lat="41.882851" lon="2.518872">
        <ele>842.815</ele>
        <time>2021-05-26T18:15:23Z</time>
      </trkpt>
      <trkpt lat="41.882877" lon="2.518879">
        <ele>843.165</ele>
        <time>2021-05-26T18:15:25Z</time>
      </trkpt>
      <trkpt lat="41.882901" lon="2.518889">
        <ele>843.211</ele>
        <time>2021-05-26T18:15:27Z</time>
      </trkpt>
      <trkpt lat="41.882925" lon="2.518903">
        <ele>843.208</ele>
        <time>2021-05-26T18:15:29Z</time>
      </trkpt>
      <trkpt lat="41.882946" lon="2.518922">
        <ele>843.168</ele>
        <time>2021-05-26T18:15:31Z</time>
      </trkpt>
      <trkpt lat="41.882970" lon="2.518940">
        <ele>843.095</ele>
        <time>2021-05-26T18:15:33Z</time>
      </trkpt>
      <trkpt lat="41.882994" lon="2.518956">
        <ele>843.042</ele>
        <time>2021-05-26T18:15:35Z</time>
      </trkpt>
      <trkpt lat="41.883016" lon="2.518973">
        <ele>842.976</ele>
        <time>2021-05-26T18:15:37Z</time>
      </trkpt>
      <trkpt lat="41.883039" lon="2.518990">
        <ele>842.831</ele>
        <time>2021-05-26T18:15:39Z</time>
      </trkpt>
      <trkpt lat="41.883064" lon="2.519006">
        <ele>842.761</ele>
        <time>2021-05-26T18:15:41Z</time>
      </trkpt>
      <trkpt lat="41.883090" lon="2.519020">
        <ele>842.747</ele>
        <time>2021-05-26T18:15:43Z</time>
      </trkpt>
      <trkpt lat="41.883116" lon="2.519032">
        <ele>842.762</ele>
        <time>2021-05-26T18:15:45Z</time>
      </trkpt>
      <trkpt lat="41.883143" lon="2.519050">
        <ele>842.636</ele>
        <time>2021-05-26T18:15:47Z</time>
      </trkpt>
      <trkpt lat="41.883169" lon="2.519071">
        <ele>842.417</ele>
        <time>2021-05-26T18:15:49Z</time>
      </trkpt>
      <trkpt lat="41.883195" lon="2.519088">
        <ele>842.318</ele>
        <time>2021-05-26T18:15:51Z</time>
      </trkpt>
      <trkpt lat="41.883220" lon="2.519102">
        <ele>842.208</ele>
        <time>2021-05-26T18:15:53Z</time>
      </trkpt>
      <trkpt lat="41.883246" lon="2.519116">
        <ele>842.270</ele>
        <time>2021-05-26T18:15:55Z</time>
      </trkpt>
      <trkpt lat="41.883273" lon="2.519135">
        <ele>842.047</ele>
        <time>2021-05-26T18:15:57Z</time>
      </trkpt>
      <trkpt lat="41.883297" lon="2.519158">
        <ele>841.754</ele>
        <time>2021-05-26T18:15:59Z</time>
      </trkpt>
      <trkpt lat="41.883322" lon="2.519179">
        <ele>841.578</ele>
        <time>2021-05-26T18:16:01Z</time>
      </trkpt>
      <trkpt lat="41.883348" lon="2.519201">
        <ele>841.453</ele>
        <time>2021-05-26T18:16:03Z</time>
      </trkpt>
      <trkpt lat="41.883374" lon="2.519223">
        <ele>841.393</ele>
        <time>2021-05-26T18:16:05Z</time>
      </trkpt>
      <trkpt lat="41.883398" lon="2.519244">
        <ele>841.169</ele>
        <time>2021-05-26T18:16:07Z</time>
      </trkpt>
      <trkpt lat="41.883424" lon="2.519264">
        <ele>841.114</ele>
        <time>2021-05-26T18:16:09Z</time>
      </trkpt>
      <trkpt lat="41.883450" lon="2.519283">
        <ele>841.069</ele>
        <time>2021-05-26T18:16:11Z</time>
      </trkpt>
      <trkpt lat="41.883476" lon="2.519301">
        <ele>840.904</ele>
        <time>2021-05-26T18:16:13Z</time>
      </trkpt>
      <trkpt lat="41.883505" lon="2.519315">
        <ele>841.024</ele>
        <time>2021-05-26T18:16:15Z</time>
      </trkpt>
      <trkpt lat="41.883535" lon="2.519324">
        <ele>841.308</ele>
        <time>2021-05-26T18:16:17Z</time>
      </trkpt>
      <trkpt lat="41.883565" lon="2.519340">
        <ele>841.393</ele>
        <time>2021-05-26T18:16:19Z</time>
      </trkpt>
      <trkpt lat="41.883592" lon="2.519356">
        <ele>841.220</ele>
        <time>2021-05-26T18:16:21Z</time>
      </trkpt>
      <trkpt lat="41.883618" lon="2.519374">
        <ele>841.197</ele>
        <time>2021-05-26T18:16:23Z</time>
      </trkpt>
      <trkpt lat="41.883645" lon="2.519393">
        <ele>840.861</ele>
        <time>2021-05-26T18:16:25Z</time>
      </trkpt>
      <trkpt lat="41.883672" lon="2.519408">
        <ele>840.736</ele>
        <time>2021-05-26T18:16:27Z</time>
      </trkpt>
      <trkpt lat="41.883697" lon="2.519423">
        <ele>840.576</ele>
        <time>2021-05-26T18:16:29Z</time>
      </trkpt>
      <trkpt lat="41.883723" lon="2.519439">
        <ele>840.472</ele>
        <time>2021-05-26T18:16:31Z</time>
      </trkpt>
      <trkpt lat="41.883749" lon="2.519451">
        <ele>840.347</ele>
        <time>2021-05-26T18:16:33Z</time>
      </trkpt>
      <trkpt lat="41.883775" lon="2.519463">
        <ele>840.226</ele>
        <time>2021-05-26T18:16:35Z</time>
      </trkpt>
      <trkpt lat="41.883802" lon="2.519476">
        <ele>840.147</ele>
        <time>2021-05-26T18:16:37Z</time>
      </trkpt>
      <trkpt lat="41.883827" lon="2.519485">
        <ele>840.111</ele>
        <time>2021-05-26T18:16:39Z</time>
      </trkpt>
      <trkpt lat="41.883854" lon="2.519493">
        <ele>840.208</ele>
        <time>2021-05-26T18:16:41Z</time>
      </trkpt>
      <trkpt lat="41.883884" lon="2.519499">
        <ele>840.459</ele>
        <time>2021-05-26T18:16:43Z</time>
      </trkpt>
      <trkpt lat="41.883911" lon="2.519504">
        <ele>840.476</ele>
        <time>2021-05-26T18:16:45Z</time>
      </trkpt>
      <trkpt lat="41.883939" lon="2.519505">
        <ele>840.533</ele>
        <time>2021-05-26T18:16:47Z</time>
      </trkpt>
      <trkpt lat="41.883970" lon="2.519496">
        <ele>840.957</ele>
        <time>2021-05-26T18:16:49Z</time>
      </trkpt>
      <trkpt lat="41.883996" lon="2.519473">
        <ele>841.632</ele>
        <time>2021-05-26T18:16:51Z</time>
      </trkpt>
      <trkpt lat="41.884022" lon="2.519460">
        <ele>842.162</ele>
        <time>2021-05-26T18:16:53Z</time>
      </trkpt>
      <trkpt lat="41.884050" lon="2.519453">
        <ele>842.428</ele>
        <time>2021-05-26T18:16:55Z</time>
      </trkpt>
      <trkpt lat="41.884079" lon="2.519444">
        <ele>842.743</ele>
        <time>2021-05-26T18:16:57Z</time>
      </trkpt>
      <trkpt lat="41.884106" lon="2.519439">
        <ele>842.963</ele>
        <time>2021-05-26T18:16:59Z</time>
      </trkpt>
      <trkpt lat="41.884134" lon="2.519438">
        <ele>843.044</ele>
        <time>2021-05-26T18:17:01Z</time>
      </trkpt>
      <trkpt lat="41.884161" lon="2.519437">
        <ele>843.118</ele>
        <time>2021-05-26T18:17:03Z</time>
      </trkpt>
      <trkpt lat="41.884188" lon="2.519435">
        <ele>843.008</ele>
        <time>2021-05-26T18:17:05Z</time>
      </trkpt>
      <trkpt lat="41.884217" lon="2.519433">
        <ele>842.923</ele>
        <time>2021-05-26T18:17:07Z</time>
      </trkpt>
      <trkpt lat="41.884244" lon="2.519437">
        <ele>842.880</ele>
        <time>2021-05-26T18:17:09Z</time>
      </trkpt>
      <trkpt lat="41.884273" lon="2.519436">
        <ele>842.767</ele>
        <time>2021-05-26T18:17:11Z</time>
      </trkpt>
      <trkpt lat="41.884301" lon="2.519435">
        <ele>842.671</ele>
        <time>2021-05-26T18:17:13Z</time>
      </trkpt>
      <trkpt lat="41.884329" lon="2.519432">
        <ele>842.546</ele>
        <time>2021-05-26T18:17:15Z</time>
      </trkpt>
      <trkpt lat="41.884358" lon="2.519430">
        <ele>842.456</ele>
        <time>2021-05-26T18:17:17Z</time>
      </trkpt>
      <trkpt lat="41.884388" lon="2.519434">
        <ele>842.342</ele>
        <time>2021-05-26T18:17:19Z</time>
      </trkpt>
      <trkpt lat="41.884418" lon="2.519437">
        <ele>842.217</ele>
        <time>2021-05-26T18:17:21Z</time>
      </trkpt>
      <trkpt lat="41.884448" lon="2.519442">
        <ele>842.065</ele>
        <time>2021-05-26T18:17:23Z</time>
      </trkpt>
      <trkpt lat="41.884481" lon="2.519447">
        <ele>842.168</ele>
        <time>2021-05-26T18:17:25Z</time>
      </trkpt>
      <trkpt lat="41.884509" lon="2.519457">
        <ele>842.014</ele>
        <time>2021-05-26T18:17:27Z</time>
      </trkpt>
      <trkpt lat="41.884540" lon="2.519467">
        <ele>841.908</ele>
        <time>2021-05-26T18:17:29Z</time>
      </trkpt>
      <trkpt lat="41.884569" lon="2.519478">
        <ele>841.993</ele>
        <time>2021-05-26T18:17:31Z</time>
      </trkpt>
      <trkpt lat="41.884598" lon="2.519485">
        <ele>841.990</ele>
        <time>2021-05-26T18:17:33Z</time>
      </trkpt>
      <trkpt lat="41.884627" lon="2.519499">
        <ele>841.917</ele>
        <time>2021-05-26T18:17:35Z</time>
      </trkpt>
      <trkpt lat="41.884654" lon="2.519515">
        <ele>841.881</ele>
        <time>2021-05-26T18:17:37Z</time>
      </trkpt>
      <trkpt lat="41.884682" lon="2.519536">
        <ele>841.786</ele>
        <time>2021-05-26T18:17:39Z</time>
      </trkpt>
      <trkpt lat="41.884711" lon="2.519558">
        <ele>841.776</ele>
        <time>2021-05-26T18:17:41Z</time>
      </trkpt>
      <trkpt lat="41.884737" lon="2.519577">
        <ele>841.682</ele>
        <time>2021-05-26T18:17:43Z</time>
      </trkpt>
      <trkpt lat="41.884766" lon="2.519598">
        <ele>841.587</ele>
        <time>2021-05-26T18:17:45Z</time>
      </trkpt>
      <trkpt lat="41.884784" lon="2.519608">
        <ele>841.592</ele>
        <time>2021-05-26T18:17:46Z</time>
      </trkpt>
      <trkpt lat="41.884815" lon="2.519623">
        <ele>841.473</ele>
        <time>2021-05-26T18:17:48Z</time>
      </trkpt>
      <trkpt lat="41.884842" lon="2.519640">
        <ele>841.320</ele>
        <time>2021-05-26T18:17:50Z</time>
      </trkpt>
      <trkpt lat="41.884865" lon="2.519663">
        <ele>841.208</ele>
        <time>2021-05-26T18:17:52Z</time>
      </trkpt>
      <trkpt lat="41.884889" lon="2.519681">
        <ele>841.026</ele>
        <time>2021-05-26T18:17:54Z</time>
      </trkpt>
      <trkpt lat="41.884915" lon="2.519690">
        <ele>841.023</ele>
        <time>2021-05-26T18:17:56Z</time>
      </trkpt>
      <trkpt lat="41.884943" lon="2.519695">
        <ele>841.110</ele>
        <time>2021-05-26T18:17:58Z</time>
      </trkpt>
      <trkpt lat="41.884970" lon="2.519704">
        <ele>841.144</ele>
        <time>2021-05-26T18:18:00Z</time>
      </trkpt>
      <trkpt lat="41.885000" lon="2.519712">
        <ele>841.129</ele>
        <time>2021-05-26T18:18:02Z</time>
      </trkpt>
      <trkpt lat="41.885028" lon="2.519723">
        <ele>841.159</ele>
        <time>2021-05-26T18:18:04Z</time>
      </trkpt>
      <trkpt lat="41.885057" lon="2.519729">
        <ele>841.195</ele>
        <time>2021-05-26T18:18:06Z</time>
      </trkpt>
      <trkpt lat="41.885082" lon="2.519741">
        <ele>841.060</ele>
        <time>2021-05-26T18:18:08Z</time>
      </trkpt>
      <trkpt lat="41.885108" lon="2.519751">
        <ele>841.018</ele>
        <time>2021-05-26T18:18:10Z</time>
      </trkpt>
      <trkpt lat="41.885133" lon="2.519752">
        <ele>841.198</ele>
        <time>2021-05-26T18:18:12Z</time>
      </trkpt>
      <trkpt lat="41.885157" lon="2.519763">
        <ele>841.117</ele>
        <time>2021-05-26T18:18:14Z</time>
      </trkpt>
      <trkpt lat="41.885184" lon="2.519774">
        <ele>841.008</ele>
        <time>2021-05-26T18:18:16Z</time>
      </trkpt>
      <trkpt lat="41.885211" lon="2.519792">
        <ele>840.948</ele>
        <time>2021-05-26T18:18:18Z</time>
      </trkpt>
      <trkpt lat="41.885241" lon="2.519809">
        <ele>840.965</ele>
        <time>2021-05-26T18:18:20Z</time>
      </trkpt>
      <trkpt lat="41.885268" lon="2.519830">
        <ele>840.822</ele>
        <time>2021-05-26T18:18:22Z</time>
      </trkpt>
      <trkpt lat="41.885297" lon="2.519845">
        <ele>841.046</ele>
        <time>2021-05-26T18:18:24Z</time>
      </trkpt>
      <trkpt lat="41.885321" lon="2.519862">
        <ele>841.221</ele>
        <time>2021-05-26T18:18:26Z</time>
      </trkpt>
      <trkpt lat="41.885349" lon="2.519878">
        <ele>841.521</ele>
        <time>2021-05-26T18:18:28Z</time>
      </trkpt>
      <trkpt lat="41.885379" lon="2.519893">
        <ele>841.967</ele>
        <time>2021-05-26T18:18:30Z</time>
      </trkpt>
      <trkpt lat="41.885409" lon="2.519905">
        <ele>842.482</ele>
        <time>2021-05-26T18:18:32Z</time>
      </trkpt>
      <trkpt lat="41.885434" lon="2.519914">
        <ele>842.877</ele>
        <time>2021-05-26T18:18:34Z</time>
      </trkpt>
      <trkpt lat="41.885459" lon="2.519928">
        <ele>843.261</ele>
        <time>2021-05-26T18:18:36Z</time>
      </trkpt>
      <trkpt lat="41.885485" lon="2.519948">
        <ele>843.627</ele>
        <time>2021-05-26T18:18:38Z</time>
      </trkpt>
      <trkpt lat="41.885507" lon="2.519967">
        <ele>844.008</ele>
        <time>2021-05-26T18:18:40Z</time>
      </trkpt>
      <trkpt lat="41.885529" lon="2.519990">
        <ele>844.414</ele>
        <time>2021-05-26T18:18:42Z</time>
      </trkpt>
      <trkpt lat="41.885550" lon="2.520011">
        <ele>844.941</ele>
        <time>2021-05-26T18:18:44Z</time>
      </trkpt>
      <trkpt lat="41.885570" lon="2.520034">
        <ele>845.478</ele>
        <time>2021-05-26T18:18:46Z</time>
      </trkpt>
      <trkpt lat="41.885592" lon="2.520055">
        <ele>845.962</ele>
        <time>2021-05-26T18:18:48Z</time>
      </trkpt>
      <trkpt lat="41.885612" lon="2.520076">
        <ele>846.567</ele>
        <time>2021-05-26T18:18:50Z</time>
      </trkpt>
      <trkpt lat="41.885634" lon="2.520095">
        <ele>847.127</ele>
        <time>2021-05-26T18:18:52Z</time>
      </trkpt>
      <trkpt lat="41.885653" lon="2.520118">
        <ele>847.643</ele>
        <time>2021-05-26T18:18:54Z</time>
      </trkpt>
      <trkpt lat="41.885676" lon="2.520137">
        <ele>848.298</ele>
        <time>2021-05-26T18:18:56Z</time>
      </trkpt>
      <trkpt lat="41.885696" lon="2.520154">
        <ele>848.887</ele>
        <time>2021-05-26T18:18:58Z</time>
      </trkpt>
      <trkpt lat="41.885718" lon="2.520166">
        <ele>849.442</ele>
        <time>2021-05-26T18:19:00Z</time>
      </trkpt>
      <trkpt lat="41.885738" lon="2.520168">
        <ele>850.026</ele>
        <time>2021-05-26T18:19:02Z</time>
      </trkpt>
      <trkpt lat="41.885710" lon="2.520168">
        <ele>849.208</ele>
        <time>2021-05-26T18:19:07Z</time>
      </trkpt>
      <trkpt lat="41.885679" lon="2.520159">
        <ele>848.485</ele>
        <time>2021-05-26T18:19:09Z</time>
      </trkpt>
      <trkpt lat="41.885650" lon="2.520153">
        <ele>847.692</ele>
        <time>2021-05-26T18:19:11Z</time>
      </trkpt>
      <trkpt lat="41.885618" lon="2.520156">
        <ele>846.719</ele>
        <time>2021-05-26T18:19:13Z</time>
      </trkpt>
      <trkpt lat="41.885595" lon="2.520190">
        <ele>846.173</ele>
        <time>2021-05-26T18:19:15Z</time>
      </trkpt>
      <trkpt lat="41.885601" lon="2.520233">
        <ele>846.388</ele>
        <time>2021-05-26T18:19:17Z</time>
      </trkpt>
      <trkpt lat="41.885613" lon="2.520270">
        <ele>846.678</ele>
        <time>2021-05-26T18:19:19Z</time>
      </trkpt>
      <trkpt lat="41.885629" lon="2.520304">
        <ele>847.074</ele>
        <time>2021-05-26T18:19:21Z</time>
      </trkpt>
      <trkpt lat="41.885648" lon="2.520337">
        <ele>847.589</ele>
        <time>2021-05-26T18:19:23Z</time>
      </trkpt>
      <trkpt lat="41.885664" lon="2.520371">
        <ele>848.099</ele>
        <time>2021-05-26T18:19:25Z</time>
      </trkpt>
      <trkpt lat="41.885677" lon="2.520407">
        <ele>848.407</ele>
        <time>2021-05-26T18:19:27Z</time>
      </trkpt>
      <trkpt lat="41.885690" lon="2.520445">
        <ele>848.827</ele>
        <time>2021-05-26T18:19:29Z</time>
      </trkpt>
      <trkpt lat="41.885706" lon="2.520481">
        <ele>849.508</ele>
        <time>2021-05-26T18:19:31Z</time>
      </trkpt>
      <trkpt lat="41.885723" lon="2.520516">
        <ele>850.286</ele>
        <time>2021-05-26T18:19:33Z</time>
      </trkpt>
      <trkpt lat="41.885741" lon="2.520552">
        <ele>851.093</ele>
        <time>2021-05-26T18:19:35Z</time>
      </trkpt>
      <trkpt lat="41.885753" lon="2.520587">
        <ele>851.240</ele>
        <time>2021-05-26T18:19:37Z</time>
      </trkpt>
      <trkpt lat="41.885759" lon="2.520625">
        <ele>851.064</ele>
        <time>2021-05-26T18:19:39Z</time>
      </trkpt>
      <trkpt lat="41.885760" lon="2.520666">
        <ele>850.599</ele>
        <time>2021-05-26T18:19:41Z</time>
      </trkpt>
      <trkpt lat="41.885758" lon="2.520708">
        <ele>850.049</ele>
        <time>2021-05-26T18:19:43Z</time>
      </trkpt>
      <trkpt lat="41.885761" lon="2.520747">
        <ele>849.665</ele>
        <time>2021-05-26T18:19:45Z</time>
      </trkpt>
      <trkpt lat="41.885769" lon="2.520779">
        <ele>849.670</ele>
        <time>2021-05-26T18:19:47Z</time>
      </trkpt>
      <trkpt lat="41.885776" lon="2.520808">
        <ele>849.614</ele>
        <time>2021-05-26T18:19:49Z</time>
      </trkpt>
      <trkpt lat="41.885777" lon="2.520845">
        <ele>849.254</ele>
        <time>2021-05-26T18:19:51Z</time>
      </trkpt>
      <trkpt lat="41.885784" lon="2.520884">
        <ele>849.109</ele>
        <time>2021-05-26T18:19:53Z</time>
      </trkpt>
      <trkpt lat="41.885794" lon="2.520922">
        <ele>849.208</ele>
        <time>2021-05-26T18:19:55Z</time>
      </trkpt>
      <trkpt lat="41.885806" lon="2.520957">
        <ele>849.388</ele>
        <time>2021-05-26T18:19:58Z</time>
      </trkpt>
      <trkpt lat="41.885820" lon="2.520990">
        <ele>849.735</ele>
        <time>2021-05-26T18:19:59Z</time>
      </trkpt>
      <trkpt lat="41.885833" lon="2.521021">
        <ele>850.022</ele>
        <time>2021-05-26T18:20:01Z</time>
      </trkpt>
      <trkpt lat="41.885848" lon="2.521057">
        <ele>850.326</ele>
        <time>2021-05-26T18:20:03Z</time>
      </trkpt>
      <trkpt lat="41.885862" lon="2.521102">
        <ele>850.681</ele>
        <time>2021-05-26T18:20:05Z</time>
      </trkpt>
      <trkpt lat="41.885876" lon="2.521140">
        <ele>851.091</ele>
        <time>2021-05-26T18:20:07Z</time>
      </trkpt>
      <trkpt lat="41.885889" lon="2.521175">
        <ele>851.337</ele>
        <time>2021-05-26T18:20:09Z</time>
      </trkpt>
      <trkpt lat="41.885901" lon="2.521215">
        <ele>851.452</ele>
        <time>2021-05-26T18:20:11Z</time>
      </trkpt>
      <trkpt lat="41.885910" lon="2.521256">
        <ele>851.422</ele>
        <time>2021-05-26T18:20:13Z</time>
      </trkpt>
      <trkpt lat="41.885924" lon="2.521290">
        <ele>851.862</ele>
        <time>2021-05-26T18:20:15Z</time>
      </trkpt>
      <trkpt lat="41.885936" lon="2.521327">
        <ele>851.908</ele>
        <time>2021-05-26T18:20:17Z</time>
      </trkpt>
      <trkpt lat="41.885949" lon="2.521361">
        <ele>852.208</ele>
        <time>2021-05-26T18:20:19Z</time>
      </trkpt>
      <trkpt lat="41.885961" lon="2.521400">
        <ele>852.379</ele>
        <time>2021-05-26T18:20:21Z</time>
      </trkpt>
      <trkpt lat="41.885975" lon="2.521438">
        <ele>852.746</ele>
        <time>2021-05-26T18:20:23Z</time>
      </trkpt>
      <trkpt lat="41.885986" lon="2.521476">
        <ele>852.923</ele>
        <time>2021-05-26T18:20:25Z</time>
      </trkpt>
      <trkpt lat="41.885992" lon="2.521511">
        <ele>852.977</ele>
        <time>2021-05-26T18:20:27Z</time>
      </trkpt>
      <trkpt lat="41.885999" lon="2.521546">
        <ele>852.912</ele>
        <time>2021-05-26T18:20:29Z</time>
      </trkpt>
      <trkpt lat="41.886005" lon="2.521587">
        <ele>852.852</ele>
        <time>2021-05-26T18:20:31Z</time>
      </trkpt>
      <trkpt lat="41.886006" lon="2.521629">
        <ele>852.458</ele>
        <time>2021-05-26T18:20:33Z</time>
      </trkpt>
      <trkpt lat="41.886015" lon="2.521672">
        <ele>852.573</ele>
        <time>2021-05-26T18:20:35Z</time>
      </trkpt>
      <trkpt lat="41.886022" lon="2.521715">
        <ele>852.514</ele>
        <time>2021-05-26T18:20:37Z</time>
      </trkpt>
      <trkpt lat="41.886028" lon="2.521758">
        <ele>852.654</ele>
        <time>2021-05-26T18:20:39Z</time>
      </trkpt>
      <trkpt lat="41.886030" lon="2.521798">
        <ele>852.409</ele>
        <time>2021-05-26T18:20:41Z</time>
      </trkpt>
      <trkpt lat="41.886034" lon="2.521837">
        <ele>852.308</ele>
        <time>2021-05-26T18:20:43Z</time>
      </trkpt>
      <trkpt lat="41.886037" lon="2.521879">
        <ele>852.248</ele>
        <time>2021-05-26T18:20:45Z</time>
      </trkpt>
      <trkpt lat="41.886039" lon="2.521923">
        <ele>852.015</ele>
        <time>2021-05-26T18:20:47Z</time>
      </trkpt>
      <trkpt lat="41.886038" lon="2.521964">
        <ele>851.782</ele>
        <time>2021-05-26T18:20:49Z</time>
      </trkpt>
      <trkpt lat="41.886041" lon="2.522001">
        <ele>851.596</ele>
        <time>2021-05-26T18:20:51Z</time>
      </trkpt>
      <trkpt lat="41.886047" lon="2.522042">
        <ele>851.411</ele>
        <time>2021-05-26T18:20:53Z</time>
      </trkpt>
      <trkpt lat="41.886051" lon="2.522084">
        <ele>851.311</ele>
        <time>2021-05-26T18:20:55Z</time>
      </trkpt>
      <trkpt lat="41.886057" lon="2.522123">
        <ele>851.357</ele>
        <time>2021-05-26T18:20:57Z</time>
      </trkpt>
      <trkpt lat="41.886061" lon="2.522162">
        <ele>851.132</ele>
        <time>2021-05-26T18:20:59Z</time>
      </trkpt>
      <trkpt lat="41.886064" lon="2.522203">
        <ele>850.956</ele>
        <time>2021-05-26T18:21:01Z</time>
      </trkpt>
      <trkpt lat="41.886067" lon="2.522243">
        <ele>850.759</ele>
        <time>2021-05-26T18:21:03Z</time>
      </trkpt>
      <trkpt lat="41.886074" lon="2.522284">
        <ele>850.514</ele>
        <time>2021-05-26T18:21:05Z</time>
      </trkpt>
      <trkpt lat="41.886083" lon="2.522321">
        <ele>850.508</ele>
        <time>2021-05-26T18:21:07Z</time>
      </trkpt>
      <trkpt lat="41.886093" lon="2.522360">
        <ele>850.662</ele>
        <time>2021-05-26T18:21:09Z</time>
      </trkpt>
      <trkpt lat="41.886102" lon="2.522397">
        <ele>850.619</ele>
        <time>2021-05-26T18:21:11Z</time>
      </trkpt>
      <trkpt lat="41.886112" lon="2.522434">
        <ele>850.896</ele>
        <time>2021-05-26T18:21:13Z</time>
      </trkpt>
      <trkpt lat="41.886121" lon="2.522467">
        <ele>850.820</ele>
        <time>2021-05-26T18:21:15Z</time>
      </trkpt>
      <trkpt lat="41.886128" lon="2.522500">
        <ele>850.725</ele>
        <time>2021-05-26T18:21:17Z</time>
      </trkpt>
      <trkpt lat="41.886146" lon="2.522534">
        <ele>850.845</ele>
        <time>2021-05-26T18:21:19Z</time>
      </trkpt>
      <trkpt lat="41.886162" lon="2.522572">
        <ele>850.631</ele>
        <time>2021-05-26T18:21:21Z</time>
      </trkpt>
      <trkpt lat="41.886182" lon="2.522600">
        <ele>850.996</ele>
        <time>2021-05-26T18:21:23Z</time>
      </trkpt>
      <trkpt lat="41.886202" lon="2.522625">
        <ele>851.236</ele>
        <time>2021-05-26T18:21:25Z</time>
      </trkpt>
      <trkpt lat="41.886219" lon="2.522649">
        <ele>851.417</ele>
        <time>2021-05-26T18:21:27Z</time>
      </trkpt>
      <trkpt lat="41.886234" lon="2.522666">
        <ele>851.718</ele>
        <time>2021-05-26T18:21:29Z</time>
      </trkpt>
      <trkpt lat="41.886255" lon="2.522679">
        <ele>852.408</ele>
        <time>2021-05-26T18:21:31Z</time>
      </trkpt>
      <trkpt lat="41.886274" lon="2.522688">
        <ele>853.040</ele>
        <time>2021-05-26T18:21:34Z</time>
      </trkpt>
      <trkpt lat="41.886292" lon="2.522707">
        <ele>853.337</ele>
        <time>2021-05-26T18:21:35Z</time>
      </trkpt>
      <trkpt lat="41.886314" lon="2.522721">
        <ele>854.064</ele>
        <time>2021-05-26T18:21:37Z</time>
      </trkpt>
      <trkpt lat="41.886340" lon="2.522725">
        <ele>855.018</ele>
        <time>2021-05-26T18:21:39Z</time>
      </trkpt>
      <trkpt lat="41.886362" lon="2.522731">
        <ele>855.823</ele>
        <time>2021-05-26T18:21:41Z</time>
      </trkpt>
      <trkpt lat="41.886375" lon="2.522748">
        <ele>856.013</ele>
        <time>2021-05-26T18:21:52Z</time>
      </trkpt>
      <trkpt lat="41.886395" lon="2.522772">
        <ele>856.359</ele>
        <time>2021-05-26T18:22:05Z</time>
      </trkpt>
      <trkpt lat="41.886427" lon="2.522795">
        <ele>856.484</ele>
        <time>2021-05-26T18:22:08Z</time>
      </trkpt>
      <trkpt lat="41.886448" lon="2.522821">
        <ele>856.179</ele>
        <time>2021-05-26T18:22:09Z</time>
      </trkpt>
      <trkpt lat="41.886466" lon="2.522829">
        <ele>856.205</ele>
        <time>2021-05-26T18:22:10Z</time>
      </trkpt>
      <trkpt lat="41.886483" lon="2.522842">
        <ele>856.225</ele>
        <time>2021-05-26T18:22:11Z</time>
      </trkpt>
      <trkpt lat="41.886510" lon="2.522876">
        <ele>855.708</ele>
        <time>2021-05-26T18:22:13Z</time>
      </trkpt>
      <trkpt lat="41.886540" lon="2.522907">
        <ele>855.414</ele>
        <time>2021-05-26T18:22:15Z</time>
      </trkpt>
      <trkpt lat="41.886566" lon="2.522922">
        <ele>855.511</ele>
        <time>2021-05-26T18:22:16Z</time>
      </trkpt>
      <trkpt lat="41.886587" lon="2.522938">
        <ele>855.458</ele>
        <time>2021-05-26T18:22:17Z</time>
      </trkpt>
      <trkpt lat="41.886603" lon="2.522954">
        <ele>855.282</ele>
        <time>2021-05-26T18:22:18Z</time>
      </trkpt>
      <trkpt lat="41.886622" lon="2.522969">
        <ele>855.177</ele>
        <time>2021-05-26T18:22:19Z</time>
      </trkpt>
      <trkpt lat="41.886639" lon="2.522985">
        <ele>854.997</ele>
        <time>2021-05-26T18:22:20Z</time>
      </trkpt>
      <trkpt lat="41.886657" lon="2.522996">
        <ele>854.983</ele>
        <time>2021-05-26T18:22:21Z</time>
      </trkpt>
      <trkpt lat="41.886674" lon="2.523002">
        <ele>855.038</ele>
        <time>2021-05-26T18:22:22Z</time>
      </trkpt>
      <trkpt lat="41.886692" lon="2.523009">
        <ele>855.058</ele>
        <time>2021-05-26T18:22:23Z</time>
      </trkpt>
      <trkpt lat="41.886725" lon="2.523029">
        <ele>854.852</ele>
        <time>2021-05-26T18:22:25Z</time>
      </trkpt>
      <trkpt lat="41.886742" lon="2.523040">
        <ele>854.617</ele>
        <time>2021-05-26T18:22:26Z</time>
      </trkpt>
      <trkpt lat="41.886771" lon="2.523054">
        <ele>854.608</ele>
        <time>2021-05-26T18:22:28Z</time>
      </trkpt>
      <trkpt lat="41.886799" lon="2.523073">
        <ele>854.322</ele>
        <time>2021-05-26T18:22:30Z</time>
      </trkpt>
      <trkpt lat="41.886834" lon="2.523088">
        <ele>854.229</ele>
        <time>2021-05-26T18:22:32Z</time>
      </trkpt>
      <trkpt lat="41.886857" lon="2.523094">
        <ele>854.456</ele>
        <time>2021-05-26T18:22:33Z</time>
      </trkpt>
      <trkpt lat="41.886883" lon="2.523096">
        <ele>854.780</ele>
        <time>2021-05-26T18:22:34Z</time>
      </trkpt>
      <trkpt lat="41.886908" lon="2.523099">
        <ele>854.975</ele>
        <time>2021-05-26T18:22:35Z</time>
      </trkpt>
      <trkpt lat="41.886933" lon="2.523098">
        <ele>855.355</ele>
        <time>2021-05-26T18:22:36Z</time>
      </trkpt>
      <trkpt lat="41.886956" lon="2.523096">
        <ele>855.771</ele>
        <time>2021-05-26T18:22:37Z</time>
      </trkpt>
      <trkpt lat="41.886985" lon="2.523089">
        <ele>856.496</ele>
        <time>2021-05-26T18:22:38Z</time>
      </trkpt>
      <trkpt lat="41.887010" lon="2.523085">
        <ele>856.929</ele>
        <time>2021-05-26T18:22:39Z</time>
      </trkpt>
      <trkpt lat="41.887028" lon="2.523071">
        <ele>857.700</ele>
        <time>2021-05-26T18:22:40Z</time>
      </trkpt>
      <trkpt lat="41.887044" lon="2.523054">
        <ele>858.520</ele>
        <time>2021-05-26T18:22:41Z</time>
      </trkpt>
      <trkpt lat="41.887063" lon="2.523038">
        <ele>859.208</ele>
        <time>2021-05-26T18:22:42Z</time>
      </trkpt>
      <trkpt lat="41.887078" lon="2.523022">
        <ele>859.919</ele>
        <time>2021-05-26T18:22:43Z</time>
      </trkpt>
      <trkpt lat="41.887095" lon="2.523002">
        <ele>860.716</ele>
        <time>2021-05-26T18:22:44Z</time>
      </trkpt>
      <trkpt lat="41.887112" lon="2.522982">
        <ele>861.493</ele>
        <time>2021-05-26T18:22:45Z</time>
      </trkpt>
      <trkpt lat="41.887124" lon="2.522958">
        <ele>862.227</ele>
        <time>2021-05-26T18:22:46Z</time>
      </trkpt>
      <trkpt lat="41.887141" lon="2.522936">
        <ele>862.932</ele>
        <time>2021-05-26T18:22:47Z</time>
      </trkpt>
      <trkpt lat="41.887162" lon="2.522911">
        <ele>863.762</ele>
        <time>2021-05-26T18:22:48Z</time>
      </trkpt>
      <trkpt lat="41.887180" lon="2.522894">
        <ele>864.238</ele>
        <time>2021-05-26T18:22:49Z</time>
      </trkpt>
      <trkpt lat="41.887199" lon="2.522884">
        <ele>864.663</ele>
        <time>2021-05-26T18:22:50Z</time>
      </trkpt>
      <trkpt lat="41.887223" lon="2.522876">
        <ele>864.959</ele>
        <time>2021-05-26T18:22:51Z</time>
      </trkpt>
      <trkpt lat="41.887251" lon="2.522873">
        <ele>865.003</ele>
        <time>2021-05-26T18:22:52Z</time>
      </trkpt>
      <trkpt lat="41.887280" lon="2.522870">
        <ele>865.123</ele>
        <time>2021-05-26T18:22:53Z</time>
      </trkpt>
      <trkpt lat="41.887309" lon="2.522873">
        <ele>865.008</ele>
        <time>2021-05-26T18:22:54Z</time>
      </trkpt>
      <trkpt lat="41.887337" lon="2.522885">
        <ele>864.822</ele>
        <time>2021-05-26T18:22:55Z</time>
      </trkpt>
      <trkpt lat="41.887362" lon="2.522904">
        <ele>864.579</ele>
        <time>2021-05-26T18:22:56Z</time>
      </trkpt>
      <trkpt lat="41.887391" lon="2.522921">
        <ele>864.266</ele>
        <time>2021-05-26T18:22:57Z</time>
      </trkpt>
      <trkpt lat="41.887414" lon="2.522943">
        <ele>863.820</ele>
        <time>2021-05-26T18:22:58Z</time>
      </trkpt>
      <trkpt lat="41.887455" lon="2.522994">
        <ele>863.095</ele>
        <time>2021-05-26T18:23:00Z</time>
      </trkpt>
      <trkpt lat="41.887469" lon="2.523022">
        <ele>862.595</ele>
        <time>2021-05-26T18:23:01Z</time>
      </trkpt>
      <trkpt lat="41.887486" lon="2.523054">
        <ele>862.091</ele>
        <time>2021-05-26T18:23:02Z</time>
      </trkpt>
      <trkpt lat="41.887503" lon="2.523088">
        <ele>861.566</ele>
        <time>2021-05-26T18:23:03Z</time>
      </trkpt>
      <trkpt lat="41.887513" lon="2.523128">
        <ele>861.092</ele>
        <time>2021-05-26T18:23:04Z</time>
      </trkpt>
      <trkpt lat="41.887524" lon="2.523163">
        <ele>860.673</ele>
        <time>2021-05-26T18:23:05Z</time>
      </trkpt>
      <trkpt lat="41.887536" lon="2.523185">
        <ele>860.520</ele>
        <time>2021-05-26T18:23:06Z</time>
      </trkpt>
      <trkpt lat="41.887549" lon="2.523209">
        <ele>860.408</ele>
        <time>2021-05-26T18:23:07Z</time>
      </trkpt>
      <trkpt lat="41.887560" lon="2.523237">
        <ele>860.156</ele>
        <time>2021-05-26T18:23:08Z</time>
      </trkpt>
      <trkpt lat="41.887572" lon="2.523268">
        <ele>859.883</ele>
        <time>2021-05-26T18:23:09Z</time>
      </trkpt>
      <trkpt lat="41.887585" lon="2.523295">
        <ele>859.610</ele>
        <time>2021-05-26T18:23:10Z</time>
      </trkpt>
      <trkpt lat="41.887600" lon="2.523330">
        <ele>859.214</ele>
        <time>2021-05-26T18:23:11Z</time>
      </trkpt>
      <trkpt lat="41.887615" lon="2.523361">
        <ele>858.719</ele>
        <time>2021-05-26T18:23:12Z</time>
      </trkpt>
      <trkpt lat="41.887633" lon="2.523388">
        <ele>858.469</ele>
        <time>2021-05-26T18:23:13Z</time>
      </trkpt>
      <trkpt lat="41.887652" lon="2.523411">
        <ele>858.245</ele>
        <time>2021-05-26T18:23:14Z</time>
      </trkpt>
      <trkpt lat="41.887671" lon="2.523435">
        <ele>858.070</ele>
        <time>2021-05-26T18:23:15Z</time>
      </trkpt>
      <trkpt lat="41.887692" lon="2.523456">
        <ele>857.968</ele>
        <time>2021-05-26T18:23:16Z</time>
      </trkpt>
      <trkpt lat="41.887712" lon="2.523478">
        <ele>857.842</ele>
        <time>2021-05-26T18:23:17Z</time>
      </trkpt>
      <trkpt lat="41.887732" lon="2.523504">
        <ele>857.626</ele>
        <time>2021-05-26T18:23:18Z</time>
      </trkpt>
      <trkpt lat="41.887751" lon="2.523535">
        <ele>857.308</ele>
        <time>2021-05-26T18:23:19Z</time>
      </trkpt>
      <trkpt lat="41.887772" lon="2.523560">
        <ele>857.143</ele>
        <time>2021-05-26T18:23:20Z</time>
      </trkpt>
      <trkpt lat="41.887792" lon="2.523586">
        <ele>856.960</ele>
        <time>2021-05-26T18:23:21Z</time>
      </trkpt>
      <trkpt lat="41.887811" lon="2.523606">
        <ele>856.747</ele>
        <time>2021-05-26T18:23:22Z</time>
      </trkpt>
      <trkpt lat="41.887829" lon="2.523626">
        <ele>856.441</ele>
        <time>2021-05-26T18:23:23Z</time>
      </trkpt>
      <trkpt lat="41.887849" lon="2.523647">
        <ele>856.186</ele>
        <time>2021-05-26T18:23:24Z</time>
      </trkpt>
      <trkpt lat="41.887868" lon="2.523663">
        <ele>855.816</ele>
        <time>2021-05-26T18:23:25Z</time>
      </trkpt>
      <trkpt lat="41.887884" lon="2.523674">
        <ele>855.762</ele>
        <time>2021-05-26T18:23:26Z</time>
      </trkpt>
      <trkpt lat="41.887911" lon="2.523703">
        <ele>855.017</ele>
        <time>2021-05-26T18:23:28Z</time>
      </trkpt>
      <trkpt lat="41.887938" lon="2.523721">
        <ele>854.676</ele>
        <time>2021-05-26T18:23:30Z</time>
      </trkpt>
      <trkpt lat="41.887966" lon="2.523732">
        <ele>854.490</ele>
        <time>2021-05-26T18:23:32Z</time>
      </trkpt>
      <trkpt lat="41.887997" lon="2.523733">
        <ele>854.719</ele>
        <time>2021-05-26T18:23:34Z</time>
      </trkpt>
      <trkpt lat="41.888024" lon="2.523718">
        <ele>855.608</ele>
        <time>2021-05-26T18:23:36Z</time>
      </trkpt>
      <trkpt lat="41.888054" lon="2.523708">
        <ele>856.454</ele>
        <time>2021-05-26T18:23:38Z</time>
      </trkpt>
      <trkpt lat="41.888081" lon="2.523698">
        <ele>856.881</ele>
        <time>2021-05-26T18:23:40Z</time>
      </trkpt>
      <trkpt lat="41.888112" lon="2.523682">
        <ele>857.318</ele>
        <time>2021-05-26T18:23:42Z</time>
      </trkpt>
      <trkpt lat="41.888130" lon="2.523665">
        <ele>858.132</ele>
        <time>2021-05-26T18:23:43Z</time>
      </trkpt>
      <trkpt lat="41.888159" lon="2.523652">
        <ele>858.547</ele>
        <time>2021-05-26T18:23:45Z</time>
      </trkpt>
      <trkpt lat="41.888189" lon="2.523643">
        <ele>858.937</ele>
        <time>2021-05-26T18:23:47Z</time>
      </trkpt>
      <trkpt lat="41.888218" lon="2.523626">
        <ele>859.643</ele>
        <time>2021-05-26T18:23:49Z</time>
      </trkpt>
      <trkpt lat="41.888247" lon="2.523615">
        <ele>860.148</ele>
        <time>2021-05-26T18:23:51Z</time>
      </trkpt>
      <trkpt lat="41.888272" lon="2.523603">
        <ele>860.599</ele>
        <time>2021-05-26T18:23:53Z</time>
      </trkpt>
      <trkpt lat="41.888302" lon="2.523592">
        <ele>860.807</ele>
        <time>2021-05-26T18:23:55Z</time>
      </trkpt>
      <trkpt lat="41.888330" lon="2.523583">
        <ele>861.027</ele>
        <time>2021-05-26T18:23:57Z</time>
      </trkpt>
      <trkpt lat="41.888360" lon="2.523573">
        <ele>860.808</ele>
        <time>2021-05-26T18:23:59Z</time>
      </trkpt>
      <trkpt lat="41.888390" lon="2.523568">
        <ele>860.316</ele>
        <time>2021-05-26T18:24:01Z</time>
      </trkpt>
      <trkpt lat="41.888419" lon="2.523557">
        <ele>860.013</ele>
        <time>2021-05-26T18:24:03Z</time>
      </trkpt>
      <trkpt lat="41.888445" lon="2.523546">
        <ele>859.920</ele>
        <time>2021-05-26T18:24:05Z</time>
      </trkpt>
      <trkpt lat="41.888472" lon="2.523540">
        <ele>859.684</ele>
        <time>2021-05-26T18:24:07Z</time>
      </trkpt>
      <trkpt lat="41.888501" lon="2.523527">
        <ele>859.579</ele>
        <time>2021-05-26T18:24:09Z</time>
      </trkpt>
      <trkpt lat="41.888534" lon="2.523518">
        <ele>859.389</ele>
        <time>2021-05-26T18:24:11Z</time>
      </trkpt>
      <trkpt lat="41.888561" lon="2.523506">
        <ele>859.325</ele>
        <time>2021-05-26T18:24:13Z</time>
      </trkpt>
      <trkpt lat="41.888592" lon="2.523502">
        <ele>858.950</ele>
        <time>2021-05-26T18:24:15Z</time>
      </trkpt>
      <trkpt lat="41.888620" lon="2.523493">
        <ele>859.087</ele>
        <time>2021-05-26T18:24:17Z</time>
      </trkpt>
      <trkpt lat="41.888649" lon="2.523486">
        <ele>859.442</ele>
        <time>2021-05-26T18:24:19Z</time>
      </trkpt>
      <trkpt lat="41.888704" lon="2.523477">
        <ele>859.926</ele>
        <time>2021-05-26T18:24:22Z</time>
      </trkpt>
      <trkpt lat="41.888739" lon="2.523477">
        <ele>860.008</ele>
        <time>2021-05-26T18:24:24Z</time>
      </trkpt>
      <trkpt lat="41.888756" lon="2.523472">
        <ele>860.365</ele>
        <time>2021-05-26T18:24:25Z</time>
      </trkpt>
      <trkpt lat="41.888776" lon="2.523467">
        <ele>860.512</ele>
        <time>2021-05-26T18:24:26Z</time>
      </trkpt>
      <trkpt lat="41.888802" lon="2.523467">
        <ele>860.699</ele>
        <time>2021-05-26T18:24:27Z</time>
      </trkpt>
      <trkpt lat="41.888827" lon="2.523469">
        <ele>860.563</ele>
        <time>2021-05-26T18:24:28Z</time>
      </trkpt>
      <trkpt lat="41.888852" lon="2.523472">
        <ele>860.478</ele>
        <time>2021-05-26T18:24:29Z</time>
      </trkpt>
      <trkpt lat="41.888874" lon="2.523478">
        <ele>860.258</ele>
        <time>2021-05-26T18:24:30Z</time>
      </trkpt>
      <trkpt lat="41.888899" lon="2.523483">
        <ele>860.324</ele>
        <time>2021-05-26T18:24:31Z</time>
      </trkpt>
      <trkpt lat="41.888924" lon="2.523494">
        <ele>860.599</ele>
        <time>2021-05-26T18:24:32Z</time>
      </trkpt>
      <trkpt lat="41.888948" lon="2.523506">
        <ele>860.754</ele>
        <time>2021-05-26T18:24:33Z</time>
      </trkpt>
      <trkpt lat="41.888971" lon="2.523516">
        <ele>861.056</ele>
        <time>2021-05-26T18:24:34Z</time>
      </trkpt>
      <trkpt lat="41.888996" lon="2.523528">
        <ele>861.311</ele>
        <time>2021-05-26T18:24:35Z</time>
      </trkpt>
      <trkpt lat="41.889016" lon="2.523543">
        <ele>861.308</ele>
        <time>2021-05-26T18:24:36Z</time>
      </trkpt>
      <trkpt lat="41.889038" lon="2.523558">
        <ele>861.422</ele>
        <time>2021-05-26T18:24:37Z</time>
      </trkpt>
      <trkpt lat="41.889059" lon="2.523576">
        <ele>861.579</ele>
        <time>2021-05-26T18:24:38Z</time>
      </trkpt>
      <trkpt lat="41.889078" lon="2.523599">
        <ele>861.386</ele>
        <time>2021-05-26T18:24:39Z</time>
      </trkpt>
      <trkpt lat="41.889093" lon="2.523622">
        <ele>860.910</ele>
        <time>2021-05-26T18:24:40Z</time>
      </trkpt>
      <trkpt lat="41.889108" lon="2.523644">
        <ele>860.675</ele>
        <time>2021-05-26T18:24:41Z</time>
      </trkpt>
      <trkpt lat="41.889122" lon="2.523666">
        <ele>860.245</ele>
        <time>2021-05-26T18:24:42Z</time>
      </trkpt>
      <trkpt lat="41.889135" lon="2.523692">
        <ele>859.611</ele>
        <time>2021-05-26T18:24:43Z</time>
      </trkpt>
      <trkpt lat="41.889149" lon="2.523719">
        <ele>859.196</ele>
        <time>2021-05-26T18:24:44Z</time>
      </trkpt>
      <trkpt lat="41.889162" lon="2.523746">
        <ele>858.533</ele>
        <time>2021-05-26T18:24:45Z</time>
      </trkpt>
      <trkpt lat="41.889174" lon="2.523776">
        <ele>857.823</ele>
        <time>2021-05-26T18:24:46Z</time>
      </trkpt>
      <trkpt lat="41.889189" lon="2.523802">
        <ele>857.415</ele>
        <time>2021-05-26T18:24:47Z</time>
      </trkpt>
      <trkpt lat="41.889204" lon="2.523830">
        <ele>857.008</ele>
        <time>2021-05-26T18:24:48Z</time>
      </trkpt>
      <trkpt lat="41.889216" lon="2.523854">
        <ele>856.690</ele>
        <time>2021-05-26T18:24:49Z</time>
      </trkpt>
      <trkpt lat="41.889232" lon="2.523879">
        <ele>856.417</ele>
        <time>2021-05-26T18:24:50Z</time>
      </trkpt>
      <trkpt lat="41.889245" lon="2.523906">
        <ele>856.374</ele>
        <time>2021-05-26T18:24:51Z</time>
      </trkpt>
      <trkpt lat="41.889258" lon="2.523935">
        <ele>856.218</ele>
        <time>2021-05-26T18:24:52Z</time>
      </trkpt>
      <trkpt lat="41.889270" lon="2.523962">
        <ele>856.163</ele>
        <time>2021-05-26T18:24:53Z</time>
      </trkpt>
      <trkpt lat="41.889287" lon="2.523988">
        <ele>856.313</ele>
        <time>2021-05-26T18:24:54Z</time>
      </trkpt>
      <trkpt lat="41.889305" lon="2.524014">
        <ele>856.549</ele>
        <time>2021-05-26T18:24:55Z</time>
      </trkpt>
      <trkpt lat="41.889334" lon="2.524071">
        <ele>856.624</ele>
        <time>2021-05-26T18:24:57Z</time>
      </trkpt>
      <trkpt lat="41.889348" lon="2.524097">
        <ele>856.796</ele>
        <time>2021-05-26T18:24:58Z</time>
      </trkpt>
      <trkpt lat="41.889360" lon="2.524125">
        <ele>856.731</ele>
        <time>2021-05-26T18:24:59Z</time>
      </trkpt>
      <trkpt lat="41.889372" lon="2.524159">
        <ele>856.524</ele>
        <time>2021-05-26T18:25:00Z</time>
      </trkpt>
      <trkpt lat="41.889383" lon="2.524189">
        <ele>856.408</ele>
        <time>2021-05-26T18:25:01Z</time>
      </trkpt>
      <trkpt lat="41.889394" lon="2.524216">
        <ele>856.336</ele>
        <time>2021-05-26T18:25:02Z</time>
      </trkpt>
      <trkpt lat="41.889405" lon="2.524241">
        <ele>856.383</ele>
        <time>2021-05-26T18:25:03Z</time>
      </trkpt>
      <trkpt lat="41.889417" lon="2.524267">
        <ele>856.420</ele>
        <time>2021-05-26T18:25:04Z</time>
      </trkpt>
      <trkpt lat="41.889427" lon="2.524295">
        <ele>856.354</ele>
        <time>2021-05-26T18:25:05Z</time>
      </trkpt>
      <trkpt lat="41.889439" lon="2.524323">
        <ele>856.369</ele>
        <time>2021-05-26T18:25:06Z</time>
      </trkpt>
      <trkpt lat="41.889454" lon="2.524349">
        <ele>856.459</ele>
        <time>2021-05-26T18:25:07Z</time>
      </trkpt>
      <trkpt lat="41.889465" lon="2.524377">
        <ele>856.185</ele>
        <time>2021-05-26T18:25:08Z</time>
      </trkpt>
      <trkpt lat="41.889477" lon="2.524403">
        <ele>855.970</ele>
        <time>2021-05-26T18:25:09Z</time>
      </trkpt>
      <trkpt lat="41.889489" lon="2.524429">
        <ele>855.843</ele>
        <time>2021-05-26T18:25:10Z</time>
      </trkpt>
      <trkpt lat="41.889498" lon="2.524453">
        <ele>855.564</ele>
        <time>2021-05-26T18:25:11Z</time>
      </trkpt>
      <trkpt lat="41.889510" lon="2.524477">
        <ele>855.110</ele>
        <time>2021-05-26T18:25:12Z</time>
      </trkpt>
      <trkpt lat="41.889522" lon="2.524500">
        <ele>854.808</ele>
        <time>2021-05-26T18:25:13Z</time>
      </trkpt>
      <trkpt lat="41.889533" lon="2.524527">
        <ele>854.471</ele>
        <time>2021-05-26T18:25:14Z</time>
      </trkpt>
      <trkpt lat="41.889549" lon="2.524550">
        <ele>854.368</ele>
        <time>2021-05-26T18:25:15Z</time>
      </trkpt>
      <trkpt lat="41.889565" lon="2.524573">
        <ele>854.135</ele>
        <time>2021-05-26T18:25:16Z</time>
      </trkpt>
      <trkpt lat="41.889580" lon="2.524601">
        <ele>853.919</ele>
        <time>2021-05-26T18:25:17Z</time>
      </trkpt>
      <trkpt lat="41.889595" lon="2.524624">
        <ele>853.854</ele>
        <time>2021-05-26T18:25:18Z</time>
      </trkpt>
      <trkpt lat="41.889612" lon="2.524646">
        <ele>853.874</ele>
        <time>2021-05-26T18:25:19Z</time>
      </trkpt>
      <trkpt lat="41.889654" lon="2.524683">
        <ele>854.450</ele>
        <time>2021-05-26T18:25:21Z</time>
      </trkpt>
      <trkpt lat="41.889675" lon="2.524702">
        <ele>854.775</ele>
        <time>2021-05-26T18:25:22Z</time>
      </trkpt>
      <trkpt lat="41.889695" lon="2.524717">
        <ele>855.151</ele>
        <time>2021-05-26T18:25:23Z</time>
      </trkpt>
      <trkpt lat="41.889715" lon="2.524731">
        <ele>855.501</ele>
        <time>2021-05-26T18:25:24Z</time>
      </trkpt>
      <trkpt lat="41.889738" lon="2.524739">
        <ele>855.711</ele>
        <time>2021-05-26T18:25:25Z</time>
      </trkpt>
      <trkpt lat="41.889762" lon="2.524748">
        <ele>855.808</ele>
        <time>2021-05-26T18:25:26Z</time>
      </trkpt>
      <trkpt lat="41.889784" lon="2.524759">
        <ele>855.882</ele>
        <time>2021-05-26T18:25:27Z</time>
      </trkpt>
      <trkpt lat="41.889808" lon="2.524767">
        <ele>855.969</ele>
        <time>2021-05-26T18:25:28Z</time>
      </trkpt>
      <trkpt lat="41.889831" lon="2.524771">
        <ele>856.236</ele>
        <time>2021-05-26T18:25:29Z</time>
      </trkpt>
      <trkpt lat="41.889853" lon="2.524776">
        <ele>856.350</ele>
        <time>2021-05-26T18:25:30Z</time>
      </trkpt>
      <trkpt lat="41.889878" lon="2.524782">
        <ele>856.555</ele>
        <time>2021-05-26T18:25:31Z</time>
      </trkpt>
      <trkpt lat="41.889898" lon="2.524790">
        <ele>856.675</ele>
        <time>2021-05-26T18:25:32Z</time>
      </trkpt>
      <trkpt lat="41.889920" lon="2.524792">
        <ele>856.881</ele>
        <time>2021-05-26T18:25:33Z</time>
      </trkpt>
      <trkpt lat="41.889943" lon="2.524794">
        <ele>857.116</ele>
        <time>2021-05-26T18:25:34Z</time>
      </trkpt>
      <trkpt lat="41.889964" lon="2.524801">
        <ele>857.266</ele>
        <time>2021-05-26T18:25:35Z</time>
      </trkpt>
      <trkpt lat="41.889985" lon="2.524813">
        <ele>857.229</ele>
        <time>2021-05-26T18:25:36Z</time>
      </trkpt>
      <trkpt lat="41.890009" lon="2.524829">
        <ele>857.021</ele>
        <time>2021-05-26T18:25:37Z</time>
      </trkpt>
      <trkpt lat="41.890033" lon="2.524843">
        <ele>856.808</ele>
        <time>2021-05-26T18:25:38Z</time>
      </trkpt>
      <trkpt lat="41.890053" lon="2.524856">
        <ele>856.513</ele>
        <time>2021-05-26T18:25:39Z</time>
      </trkpt>
      <trkpt lat="41.890074" lon="2.524868">
        <ele>856.310</ele>
        <time>2021-05-26T18:25:40Z</time>
      </trkpt>
      <trkpt lat="41.890098" lon="2.524878">
        <ele>856.217</ele>
        <time>2021-05-26T18:25:41Z</time>
      </trkpt>
      <trkpt lat="41.890121" lon="2.524889">
        <ele>856.131</ele>
        <time>2021-05-26T18:25:42Z</time>
      </trkpt>
      <trkpt lat="41.890142" lon="2.524898">
        <ele>856.076</ele>
        <time>2021-05-26T18:25:43Z</time>
      </trkpt>
      <trkpt lat="41.890164" lon="2.524904">
        <ele>855.966</ele>
        <time>2021-05-26T18:25:44Z</time>
      </trkpt>
      <trkpt lat="41.890190" lon="2.524912">
        <ele>855.932</ele>
        <time>2021-05-26T18:25:45Z</time>
      </trkpt>
      <trkpt lat="41.890215" lon="2.524922">
        <ele>855.817</ele>
        <time>2021-05-26T18:25:46Z</time>
      </trkpt>
      <trkpt lat="41.890239" lon="2.524931">
        <ele>855.758</ele>
        <time>2021-05-26T18:25:47Z</time>
      </trkpt>
      <trkpt lat="41.890261" lon="2.524939">
        <ele>855.652</ele>
        <time>2021-05-26T18:25:48Z</time>
      </trkpt>
      <trkpt lat="41.890281" lon="2.524943">
        <ele>855.717</ele>
        <time>2021-05-26T18:25:49Z</time>
      </trkpt>
      <trkpt lat="41.890303" lon="2.524948">
        <ele>855.608</ele>
        <time>2021-05-26T18:25:50Z</time>
      </trkpt>
      <trkpt lat="41.890323" lon="2.524954">
        <ele>855.672</ele>
        <time>2021-05-26T18:25:51Z</time>
      </trkpt>
      <trkpt lat="41.890348" lon="2.524955">
        <ele>855.789</ele>
        <time>2021-05-26T18:25:52Z</time>
      </trkpt>
      <trkpt lat="41.890368" lon="2.524956">
        <ele>855.836</ele>
        <time>2021-05-26T18:25:53Z</time>
      </trkpt>
      <trkpt lat="41.890393" lon="2.524950">
        <ele>856.190</ele>
        <time>2021-05-26T18:25:54Z</time>
      </trkpt>
      <trkpt lat="41.890413" lon="2.524950">
        <ele>856.295</ele>
        <time>2021-05-26T18:25:55Z</time>
      </trkpt>
      <trkpt lat="41.890436" lon="2.524947">
        <ele>856.425</ele>
        <time>2021-05-26T18:25:56Z</time>
      </trkpt>
      <trkpt lat="41.890460" lon="2.524945">
        <ele>856.651</ele>
        <time>2021-05-26T18:25:57Z</time>
      </trkpt>
      <trkpt lat="41.890484" lon="2.524938">
        <ele>856.916</ele>
        <time>2021-05-26T18:25:58Z</time>
      </trkpt>
      <trkpt lat="41.890507" lon="2.524930">
        <ele>857.261</ele>
        <time>2021-05-26T18:25:59Z</time>
      </trkpt>
      <trkpt lat="41.890529" lon="2.524919">
        <ele>857.621</ele>
        <time>2021-05-26T18:26:00Z</time>
      </trkpt>
      <trkpt lat="41.890548" lon="2.524906">
        <ele>858.013</ele>
        <time>2021-05-26T18:26:01Z</time>
      </trkpt>
      <trkpt lat="41.890565" lon="2.524894">
        <ele>858.408</ele>
        <time>2021-05-26T18:26:02Z</time>
      </trkpt>
      <trkpt lat="41.890583" lon="2.524879">
        <ele>859.053</ele>
        <time>2021-05-26T18:26:03Z</time>
      </trkpt>
      <trkpt lat="41.890600" lon="2.524863">
        <ele>859.570</ele>
        <time>2021-05-26T18:26:04Z</time>
      </trkpt>
      <trkpt lat="41.890619" lon="2.524848">
        <ele>860.087</ele>
        <time>2021-05-26T18:26:05Z</time>
      </trkpt>
      <trkpt lat="41.890639" lon="2.524834">
        <ele>860.511</ele>
        <time>2021-05-26T18:26:06Z</time>
      </trkpt>
      <trkpt lat="41.890663" lon="2.524823">
        <ele>860.966</ele>
        <time>2021-05-26T18:26:07Z</time>
      </trkpt>
      <trkpt lat="41.890684" lon="2.524811">
        <ele>861.396</ele>
        <time>2021-05-26T18:26:08Z</time>
      </trkpt>
      <trkpt lat="41.890705" lon="2.524804">
        <ele>861.662</ele>
        <time>2021-05-26T18:26:09Z</time>
      </trkpt>
      <trkpt lat="41.890739" lon="2.524786">
        <ele>862.087</ele>
        <time>2021-05-26T18:26:11Z</time>
      </trkpt>
      <trkpt lat="41.890761" lon="2.524779">
        <ele>862.379</ele>
        <time>2021-05-26T18:26:12Z</time>
      </trkpt>
      <trkpt lat="41.890786" lon="2.524772">
        <ele>862.505</ele>
        <time>2021-05-26T18:26:13Z</time>
      </trkpt>
      <trkpt lat="41.890809" lon="2.524764">
        <ele>862.725</ele>
        <time>2021-05-26T18:26:14Z</time>
      </trkpt>
      <trkpt lat="41.890831" lon="2.524757">
        <ele>862.908</ele>
        <time>2021-05-26T18:26:15Z</time>
      </trkpt>
      <trkpt lat="41.890854" lon="2.524751">
        <ele>863.154</ele>
        <time>2021-05-26T18:26:16Z</time>
      </trkpt>
      <trkpt lat="41.890879" lon="2.524743">
        <ele>863.361</ele>
        <time>2021-05-26T18:26:17Z</time>
      </trkpt>
      <trkpt lat="41.890904" lon="2.524733">
        <ele>863.598</ele>
        <time>2021-05-26T18:26:18Z</time>
      </trkpt>
      <trkpt lat="41.890927" lon="2.524726">
        <ele>863.792</ele>
        <time>2021-05-26T18:26:19Z</time>
      </trkpt>
      <trkpt lat="41.890952" lon="2.524719">
        <ele>863.847</ele>
        <time>2021-05-26T18:26:20Z</time>
      </trkpt>
      <trkpt lat="41.890979" lon="2.524711">
        <ele>864.057</ele>
        <time>2021-05-26T18:26:21Z</time>
      </trkpt>
      <trkpt lat="41.891002" lon="2.524708">
        <ele>864.143</ele>
        <time>2021-05-26T18:26:22Z</time>
      </trkpt>
      <trkpt lat="41.891044" lon="2.524694">
        <ele>864.378</ele>
        <time>2021-05-26T18:26:24Z</time>
      </trkpt>
      <trkpt lat="41.891067" lon="2.524686">
        <ele>864.312</ele>
        <time>2021-05-26T18:26:25Z</time>
      </trkpt>
      <trkpt lat="41.891092" lon="2.524678">
        <ele>864.432</ele>
        <time>2021-05-26T18:26:26Z</time>
      </trkpt>
      <trkpt lat="41.891117" lon="2.524666">
        <ele>864.505</ele>
        <time>2021-05-26T18:26:27Z</time>
      </trkpt>
      <trkpt lat="41.891143" lon="2.524652">
        <ele>864.908</ele>
        <time>2021-05-26T18:26:28Z</time>
      </trkpt>
      <trkpt lat="41.891165" lon="2.524640">
        <ele>865.218</ele>
        <time>2021-05-26T18:26:29Z</time>
      </trkpt>
      <trkpt lat="41.891185" lon="2.524631">
        <ele>865.575</ele>
        <time>2021-05-26T18:26:30Z</time>
      </trkpt>
      <trkpt lat="41.891210" lon="2.524622">
        <ele>865.912</ele>
        <time>2021-05-26T18:26:31Z</time>
      </trkpt>
      <trkpt lat="41.891229" lon="2.524611">
        <ele>866.116</ele>
        <time>2021-05-26T18:26:32Z</time>
      </trkpt>
      <trkpt lat="41.891251" lon="2.524596">
        <ele>866.251</ele>
        <time>2021-05-26T18:26:33Z</time>
      </trkpt>
      <trkpt lat="41.891271" lon="2.524580">
        <ele>866.331</ele>
        <time>2021-05-26T18:26:34Z</time>
      </trkpt>
      <trkpt lat="41.891296" lon="2.524568">
        <ele>866.567</ele>
        <time>2021-05-26T18:26:35Z</time>
      </trkpt>
      <trkpt lat="41.891344" lon="2.524548">
        <ele>866.992</ele>
        <time>2021-05-26T18:26:37Z</time>
      </trkpt>
      <trkpt lat="41.891376" lon="2.524539">
        <ele>867.267</ele>
        <time>2021-05-26T18:26:38Z</time>
      </trkpt>
      <trkpt lat="41.891399" lon="2.524531">
        <ele>867.281</ele>
        <time>2021-05-26T18:26:39Z</time>
      </trkpt>
      <trkpt lat="41.891420" lon="2.524524">
        <ele>867.119</ele>
        <time>2021-05-26T18:26:40Z</time>
      </trkpt>
      <trkpt lat="41.891443" lon="2.524520">
        <ele>867.108</ele>
        <time>2021-05-26T18:26:41Z</time>
      </trkpt>
      <trkpt lat="41.891464" lon="2.524517">
        <ele>867.133</ele>
        <time>2021-05-26T18:26:42Z</time>
      </trkpt>
      <trkpt lat="41.891484" lon="2.524514">
        <ele>867.120</ele>
        <time>2021-05-26T18:26:43Z</time>
      </trkpt>
      <trkpt lat="41.891503" lon="2.524514">
        <ele>867.257</ele>
        <time>2021-05-26T18:26:44Z</time>
      </trkpt>
      <trkpt lat="41.891601" lon="2.524531">
        <ele>867.911</ele>
        <time>2021-05-26T18:26:49Z</time>
      </trkpt>
      <trkpt lat="41.891687" lon="2.524569">
        <ele>869.246</ele>
        <time>2021-05-26T18:26:53Z</time>
      </trkpt>
      <trkpt lat="41.891781" lon="2.524592">
        <ele>869.996</ele>
        <time>2021-05-26T18:26:57Z</time>
      </trkpt>
      <trkpt lat="41.891821" lon="2.524600">
        <ele>870.112</ele>
        <time>2021-05-26T18:26:59Z</time>
      </trkpt>
      <trkpt lat="41.891842" lon="2.524601">
        <ele>870.177</ele>
        <time>2021-05-26T18:27:00Z</time>
      </trkpt>
      <trkpt lat="41.891863" lon="2.524606">
        <ele>870.358</ele>
        <time>2021-05-26T18:27:01Z</time>
      </trkpt>
      <trkpt lat="41.891881" lon="2.524610">
        <ele>870.352</ele>
        <time>2021-05-26T18:27:02Z</time>
      </trkpt>
      <trkpt lat="41.891900" lon="2.524617">
        <ele>870.517</ele>
        <time>2021-05-26T18:27:03Z</time>
      </trkpt>
      <trkpt lat="41.891922" lon="2.524620">
        <ele>870.508</ele>
        <time>2021-05-26T18:27:04Z</time>
      </trkpt>
      <trkpt lat="41.892014" lon="2.524621">
        <ele>871.052</ele>
        <time>2021-05-26T18:27:08Z</time>
      </trkpt>
      <trkpt lat="41.892037" lon="2.524618">
        <ele>871.139</ele>
        <time>2021-05-26T18:27:09Z</time>
      </trkpt>
      <trkpt lat="41.892081" lon="2.524617">
        <ele>871.326</ele>
        <time>2021-05-26T18:27:11Z</time>
      </trkpt>
      <trkpt lat="41.892110" lon="2.524626">
        <ele>871.670</ele>
        <time>2021-05-26T18:27:12Z</time>
      </trkpt>
      <trkpt lat="41.892134" lon="2.524625">
        <ele>871.895</ele>
        <time>2021-05-26T18:27:13Z</time>
      </trkpt>
      <trkpt lat="41.892175" lon="2.524630">
        <ele>872.135</ele>
        <time>2021-05-26T18:27:15Z</time>
      </trkpt>
      <trkpt lat="41.892197" lon="2.524633">
        <ele>872.251</ele>
        <time>2021-05-26T18:27:16Z</time>
      </trkpt>
      <trkpt lat="41.892222" lon="2.524640">
        <ele>872.416</ele>
        <time>2021-05-26T18:27:17Z</time>
      </trkpt>
      <trkpt lat="41.892249" lon="2.524641">
        <ele>872.698</ele>
        <time>2021-05-26T18:27:18Z</time>
      </trkpt>
      <trkpt lat="41.892275" lon="2.524646">
        <ele>872.715</ele>
        <time>2021-05-26T18:27:19Z</time>
      </trkpt>
      <trkpt lat="41.892304" lon="2.524654">
        <ele>873.026</ele>
        <time>2021-05-26T18:27:20Z</time>
      </trkpt>
      <trkpt lat="41.892330" lon="2.524655">
        <ele>873.108</ele>
        <time>2021-05-26T18:27:21Z</time>
      </trkpt>
      <trkpt lat="41.892356" lon="2.524657">
        <ele>873.356</ele>
        <time>2021-05-26T18:27:22Z</time>
      </trkpt>
      <trkpt lat="41.892381" lon="2.524655">
        <ele>873.483</ele>
        <time>2021-05-26T18:27:23Z</time>
      </trkpt>
      <trkpt lat="41.892404" lon="2.524652">
        <ele>873.510</ele>
        <time>2021-05-26T18:27:24Z</time>
      </trkpt>
      <trkpt lat="41.892431" lon="2.524647">
        <ele>873.614</ele>
        <time>2021-05-26T18:27:25Z</time>
      </trkpt>
      <trkpt lat="41.892455" lon="2.524646">
        <ele>873.799</ele>
        <time>2021-05-26T18:27:26Z</time>
      </trkpt>
      <trkpt lat="41.892481" lon="2.524643">
        <ele>873.869</ele>
        <time>2021-05-26T18:27:27Z</time>
      </trkpt>
      <trkpt lat="41.892507" lon="2.524639">
        <ele>873.865</ele>
        <time>2021-05-26T18:27:28Z</time>
      </trkpt>
      <trkpt lat="41.892532" lon="2.524638">
        <ele>873.690</ele>
        <time>2021-05-26T18:27:29Z</time>
      </trkpt>
      <trkpt lat="41.892556" lon="2.524637">
        <ele>873.469</ele>
        <time>2021-05-26T18:27:30Z</time>
      </trkpt>
      <trkpt lat="41.892584" lon="2.524641">
        <ele>873.304</ele>
        <time>2021-05-26T18:27:31Z</time>
      </trkpt>
      <trkpt lat="41.892610" lon="2.524636">
        <ele>873.124</ele>
        <time>2021-05-26T18:27:32Z</time>
      </trkpt>
      <trkpt lat="41.892631" lon="2.524632">
        <ele>872.908</ele>
        <time>2021-05-26T18:27:33Z</time>
      </trkpt>
      <trkpt lat="41.892655" lon="2.524630">
        <ele>872.793</ele>
        <time>2021-05-26T18:27:34Z</time>
      </trkpt>
      <trkpt lat="41.892679" lon="2.524631">
        <ele>872.620</ele>
        <time>2021-05-26T18:27:35Z</time>
      </trkpt>
      <trkpt lat="41.892703" lon="2.524634">
        <ele>872.517</ele>
        <time>2021-05-26T18:27:36Z</time>
      </trkpt>
      <trkpt lat="41.892729" lon="2.524635">
        <ele>872.411</ele>
        <time>2021-05-26T18:27:37Z</time>
      </trkpt>
      <trkpt lat="41.892752" lon="2.524634">
        <ele>872.266</ele>
        <time>2021-05-26T18:27:38Z</time>
      </trkpt>
      <trkpt lat="41.892774" lon="2.524631">
        <ele>872.086</ele>
        <time>2021-05-26T18:27:39Z</time>
      </trkpt>
      <trkpt lat="41.892794" lon="2.524629">
        <ele>871.842</ele>
        <time>2021-05-26T18:27:40Z</time>
      </trkpt>
      <trkpt lat="41.892813" lon="2.524628">
        <ele>871.587</ele>
        <time>2021-05-26T18:27:41Z</time>
      </trkpt>
      <trkpt lat="41.892838" lon="2.524628">
        <ele>871.298</ele>
        <time>2021-05-26T18:27:42Z</time>
      </trkpt>
      <trkpt lat="41.892859" lon="2.524625">
        <ele>870.915</ele>
        <time>2021-05-26T18:27:43Z</time>
      </trkpt>
      <trkpt lat="41.892880" lon="2.524626">
        <ele>870.626</ele>
        <time>2021-05-26T18:27:44Z</time>
      </trkpt>
      <trkpt lat="41.892902" lon="2.524627">
        <ele>870.308</ele>
        <time>2021-05-26T18:27:45Z</time>
      </trkpt>
      <trkpt lat="41.892926" lon="2.524626">
        <ele>870.056</ele>
        <time>2021-05-26T18:27:46Z</time>
      </trkpt>
      <trkpt lat="41.892948" lon="2.524625">
        <ele>869.763</ele>
        <time>2021-05-26T18:27:47Z</time>
      </trkpt>
      <trkpt lat="41.892977" lon="2.524633">
        <ele>869.480</ele>
        <time>2021-05-26T18:27:48Z</time>
      </trkpt>
      <trkpt lat="41.892996" lon="2.524633">
        <ele>869.144</ele>
        <time>2021-05-26T18:27:49Z</time>
      </trkpt>
      <trkpt lat="41.893015" lon="2.524632">
        <ele>868.989</ele>
        <time>2021-05-26T18:27:50Z</time>
      </trkpt>
      <trkpt lat="41.893036" lon="2.524633">
        <ele>868.639</ele>
        <time>2021-05-26T18:27:51Z</time>
      </trkpt>
      <trkpt lat="41.893079" lon="2.524629">
        <ele>868.435</ele>
        <time>2021-05-26T18:27:53Z</time>
      </trkpt>
      <trkpt lat="41.893102" lon="2.524631">
        <ele>868.580</ele>
        <time>2021-05-26T18:27:54Z</time>
      </trkpt>
      <trkpt lat="41.893124" lon="2.524630">
        <ele>868.693</ele>
        <time>2021-05-26T18:27:55Z</time>
      </trkpt>
      <trkpt lat="41.893149" lon="2.524631">
        <ele>868.765</ele>
        <time>2021-05-26T18:27:56Z</time>
      </trkpt>
      <trkpt lat="41.893180" lon="2.524630">
        <ele>868.821</ele>
        <time>2021-05-26T18:27:57Z</time>
      </trkpt>
      <trkpt lat="41.893211" lon="2.524630">
        <ele>868.908</ele>
        <time>2021-05-26T18:27:58Z</time>
      </trkpt>
      <trkpt lat="41.893236" lon="2.524625">
        <ele>869.036</ele>
        <time>2021-05-26T18:27:59Z</time>
      </trkpt>
      <trkpt lat="41.893262" lon="2.524618">
        <ele>869.083</ele>
        <time>2021-05-26T18:28:00Z</time>
      </trkpt>
      <trkpt lat="41.893285" lon="2.524609">
        <ele>869.070</ele>
        <time>2021-05-26T18:28:01Z</time>
      </trkpt>
      <trkpt lat="41.893311" lon="2.524603">
        <ele>869.164</ele>
        <time>2021-05-26T18:28:02Z</time>
      </trkpt>
      <trkpt lat="41.893331" lon="2.524594">
        <ele>869.129</ele>
        <time>2021-05-26T18:28:03Z</time>
      </trkpt>
      <trkpt lat="41.893353" lon="2.524586">
        <ele>869.239</ele>
        <time>2021-05-26T18:28:04Z</time>
      </trkpt>
      <trkpt lat="41.893378" lon="2.524577">
        <ele>869.415</ele>
        <time>2021-05-26T18:28:05Z</time>
      </trkpt>
      <trkpt lat="41.893400" lon="2.524567">
        <ele>869.580</ele>
        <time>2021-05-26T18:28:06Z</time>
      </trkpt>
      <trkpt lat="41.893423" lon="2.524557">
        <ele>869.645</ele>
        <time>2021-05-26T18:28:07Z</time>
      </trkpt>
      <trkpt lat="41.893448" lon="2.524547">
        <ele>869.847</ele>
        <time>2021-05-26T18:28:08Z</time>
      </trkpt>
      <trkpt lat="41.893473" lon="2.524536">
        <ele>870.011</ele>
        <time>2021-05-26T18:28:09Z</time>
      </trkpt>
      <trkpt lat="41.893497" lon="2.524521">
        <ele>870.208</ele>
        <time>2021-05-26T18:28:10Z</time>
      </trkpt>
      <trkpt lat="41.893543" lon="2.524489">
        <ele>870.571</ele>
        <time>2021-05-26T18:28:12Z</time>
      </trkpt>
      <trkpt lat="41.893564" lon="2.524475">
        <ele>870.698</ele>
        <time>2021-05-26T18:28:13Z</time>
      </trkpt>
      <trkpt lat="41.893587" lon="2.524458">
        <ele>870.885</ele>
        <time>2021-05-26T18:28:14Z</time>
      </trkpt>
      <trkpt lat="41.893605" lon="2.524436">
        <ele>870.999</ele>
        <time>2021-05-26T18:28:15Z</time>
      </trkpt>
      <trkpt lat="41.893618" lon="2.524411">
        <ele>871.034</ele>
        <time>2021-05-26T18:28:16Z</time>
      </trkpt>
      <trkpt lat="41.893632" lon="2.524382">
        <ele>871.264</ele>
        <time>2021-05-26T18:28:17Z</time>
      </trkpt>
      <trkpt lat="41.893646" lon="2.524358">
        <ele>871.340</ele>
        <time>2021-05-26T18:28:18Z</time>
      </trkpt>
      <trkpt lat="41.893661" lon="2.524333">
        <ele>871.515</ele>
        <time>2021-05-26T18:28:19Z</time>
      </trkpt>
      <trkpt lat="41.893677" lon="2.524308">
        <ele>871.797</ele>
        <time>2021-05-26T18:28:20Z</time>
      </trkpt>
      <trkpt lat="41.893692" lon="2.524283">
        <ele>871.923</ele>
        <time>2021-05-26T18:28:21Z</time>
      </trkpt>
      <trkpt lat="41.893705" lon="2.524258">
        <ele>872.025</ele>
        <time>2021-05-26T18:28:22Z</time>
      </trkpt>
      <trkpt lat="41.893715" lon="2.524236">
        <ele>872.108</ele>
        <time>2021-05-26T18:28:23Z</time>
      </trkpt>
      <trkpt lat="41.893734" lon="2.524203">
        <ele>872.366</ele>
        <time>2021-05-26T18:28:25Z</time>
      </trkpt>
      <trkpt lat="41.893749" lon="2.524172">
        <ele>872.543</ele>
        <time>2021-05-26T18:28:27Z</time>
      </trkpt>
      <trkpt lat="41.893766" lon="2.524141">
        <ele>872.520</ele>
        <time>2021-05-26T18:28:29Z</time>
      </trkpt>
      <trkpt lat="41.893786" lon="2.524105">
        <ele>872.414</ele>
        <time>2021-05-26T18:28:31Z</time>
      </trkpt>
      <trkpt lat="41.893796" lon="2.524085">
        <ele>872.389</ele>
        <time>2021-05-26T18:28:32Z</time>
      </trkpt>
      <trkpt lat="41.893811" lon="2.524046">
        <ele>872.259</ele>
        <time>2021-05-26T18:28:34Z</time>
      </trkpt>
      <trkpt lat="41.893829" lon="2.524010">
        <ele>872.165</ele>
        <time>2021-05-26T18:28:36Z</time>
      </trkpt>
      <trkpt lat="41.893849" lon="2.523977">
        <ele>872.170</ele>
        <time>2021-05-26T18:28:38Z</time>
      </trkpt>
      <trkpt lat="41.893869" lon="2.523942">
        <ele>872.289</ele>
        <time>2021-05-26T18:28:40Z</time>
      </trkpt>
      <trkpt lat="41.893887" lon="2.523910">
        <ele>872.206</ele>
        <time>2021-05-26T18:28:42Z</time>
      </trkpt>
      <trkpt lat="41.893905" lon="2.523880">
        <ele>872.226</ele>
        <time>2021-05-26T18:28:44Z</time>
      </trkpt>
      <trkpt lat="41.893926" lon="2.523849">
        <ele>872.208</ele>
        <time>2021-05-26T18:28:46Z</time>
      </trkpt>
      <trkpt lat="41.893949" lon="2.523817">
        <ele>872.225</ele>
        <time>2021-05-26T18:28:48Z</time>
      </trkpt>
      <trkpt lat="41.893971" lon="2.523790">
        <ele>872.272</ele>
        <time>2021-05-26T18:28:50Z</time>
      </trkpt>
      <trkpt lat="41.893990" lon="2.523768">
        <ele>872.329</ele>
        <time>2021-05-26T18:28:52Z</time>
      </trkpt>
      <trkpt lat="41.894013" lon="2.523750">
        <ele>872.583</ele>
        <time>2021-05-26T18:28:54Z</time>
      </trkpt>
      <trkpt lat="41.894038" lon="2.523737">
        <ele>872.738</ele>
        <time>2021-05-26T18:28:56Z</time>
      </trkpt>
      <trkpt lat="41.894067" lon="2.523725">
        <ele>873.198</ele>
        <time>2021-05-26T18:28:58Z</time>
      </trkpt>
      <trkpt lat="41.894097" lon="2.523716">
        <ele>873.594</ele>
        <time>2021-05-26T18:29:00Z</time>
      </trkpt>
      <trkpt lat="41.894128" lon="2.523711">
        <ele>874.159</ele>
        <time>2021-05-26T18:29:02Z</time>
      </trkpt>
      <trkpt lat="41.894160" lon="2.523708">
        <ele>874.694</ele>
        <time>2021-05-26T18:29:04Z</time>
      </trkpt>
      <trkpt lat="41.894191" lon="2.523706">
        <ele>874.857</ele>
        <time>2021-05-26T18:29:06Z</time>
      </trkpt>
      <trkpt lat="41.894220" lon="2.523701">
        <ele>874.822</ele>
        <time>2021-05-26T18:29:09Z</time>
      </trkpt>
      <trkpt lat="41.894250" lon="2.523702">
        <ele>874.908</ele>
        <time>2021-05-26T18:29:10Z</time>
      </trkpt>
      <trkpt lat="41.894278" lon="2.523707">
        <ele>875.116</ele>
        <time>2021-05-26T18:29:12Z</time>
      </trkpt>
      <trkpt lat="41.894307" lon="2.523709">
        <ele>875.353</ele>
        <time>2021-05-26T18:29:14Z</time>
      </trkpt>
      <trkpt lat="41.894341" lon="2.523714">
        <ele>875.550</ele>
        <time>2021-05-26T18:29:16Z</time>
      </trkpt>
      <trkpt lat="41.894373" lon="2.523718">
        <ele>875.744</ele>
        <time>2021-05-26T18:29:18Z</time>
      </trkpt>
      <trkpt lat="41.894400" lon="2.523722">
        <ele>875.879</ele>
        <time>2021-05-26T18:29:20Z</time>
      </trkpt>
      <trkpt lat="41.894433" lon="2.523728">
        <ele>876.159</ele>
        <time>2021-05-26T18:29:22Z</time>
      </trkpt>
      <trkpt lat="41.894463" lon="2.523734">
        <ele>876.275</ele>
        <time>2021-05-26T18:29:24Z</time>
      </trkpt>
      <trkpt lat="41.894494" lon="2.523740">
        <ele>876.240</ele>
        <time>2021-05-26T18:29:26Z</time>
      </trkpt>
      <trkpt lat="41.894521" lon="2.523748">
        <ele>876.378</ele>
        <time>2021-05-26T18:29:28Z</time>
      </trkpt>
      <trkpt lat="41.894548" lon="2.523740">
        <ele>876.133</ele>
        <time>2021-05-26T18:29:30Z</time>
      </trkpt>
      <trkpt lat="41.894576" lon="2.523736">
        <ele>876.026</ele>
        <time>2021-05-26T18:29:32Z</time>
      </trkpt>
      <trkpt lat="41.894603" lon="2.523741">
        <ele>876.008</ele>
        <time>2021-05-26T18:29:34Z</time>
      </trkpt>
      <trkpt lat="41.894623" lon="2.523740">
        <ele>876.094</ele>
        <time>2021-05-26T18:29:36Z</time>
      </trkpt>
      <trkpt lat="41.894645" lon="2.523741">
        <ele>876.061</ele>
        <time>2021-05-26T18:29:38Z</time>
      </trkpt>
      <trkpt lat="41.894669" lon="2.523747">
        <ele>876.048</ele>
        <time>2021-05-26T18:29:40Z</time>
      </trkpt>
      <trkpt lat="41.894696" lon="2.523756">
        <ele>876.282</ele>
        <time>2021-05-26T18:29:42Z</time>
      </trkpt>
      <trkpt lat="41.894721" lon="2.523767">
        <ele>876.497</ele>
        <time>2021-05-26T18:29:44Z</time>
      </trkpt>
      <trkpt lat="41.894738" lon="2.523775">
        <ele>876.387</ele>
        <time>2021-05-26T18:29:45Z</time>
      </trkpt>
      <trkpt lat="41.894775" lon="2.523797">
        <ele>876.333</ele>
        <time>2021-05-26T18:29:47Z</time>
      </trkpt>
      <trkpt lat="41.894793" lon="2.523812">
        <ele>876.348</ele>
        <time>2021-05-26T18:29:48Z</time>
      </trkpt>
      <trkpt lat="41.894812" lon="2.523832">
        <ele>876.588</ele>
        <time>2021-05-26T18:29:49Z</time>
      </trkpt>
      <trkpt lat="41.894836" lon="2.523842">
        <ele>876.324</ele>
        <time>2021-05-26T18:29:50Z</time>
      </trkpt>
      <trkpt lat="41.894858" lon="2.523851">
        <ele>876.226</ele>
        <time>2021-05-26T18:29:51Z</time>
      </trkpt>
      <trkpt lat="41.894881" lon="2.523861">
        <ele>876.108</ele>
        <time>2021-05-26T18:29:52Z</time>
      </trkpt>
      <trkpt lat="41.894903" lon="2.523871">
        <ele>876.025</ele>
        <time>2021-05-26T18:29:53Z</time>
      </trkpt>
      <trkpt lat="41.894921" lon="2.523883">
        <ele>876.052</ele>
        <time>2021-05-26T18:29:54Z</time>
      </trkpt>
      <trkpt lat="41.894940" lon="2.523893">
        <ele>875.949</ele>
        <time>2021-05-26T18:29:55Z</time>
      </trkpt>
      <trkpt lat="41.894963" lon="2.523900">
        <ele>875.763</ele>
        <time>2021-05-26T18:29:56Z</time>
      </trkpt>
      <trkpt lat="41.894982" lon="2.523908">
        <ele>875.638</ele>
        <time>2021-05-26T18:29:57Z</time>
      </trkpt>
      <trkpt lat="41.895002" lon="2.523913">
        <ele>875.488</ele>
        <time>2021-05-26T18:29:58Z</time>
      </trkpt>
      <trkpt lat="41.895022" lon="2.523921">
        <ele>875.314</ele>
        <time>2021-05-26T18:29:59Z</time>
      </trkpt>
      <trkpt lat="41.895047" lon="2.523931">
        <ele>875.159</ele>
        <time>2021-05-26T18:30:00Z</time>
      </trkpt>
      <trkpt lat="41.895071" lon="2.523942">
        <ele>875.086</ele>
        <time>2021-05-26T18:30:01Z</time>
      </trkpt>
      <trkpt lat="41.895107" lon="2.523963">
        <ele>874.960</ele>
        <time>2021-05-26T18:30:03Z</time>
      </trkpt>
      <trkpt lat="41.895141" lon="2.523966">
        <ele>874.526</ele>
        <time>2021-05-26T18:30:05Z</time>
      </trkpt>
      <trkpt lat="41.895160" lon="2.523960">
        <ele>874.108</ele>
        <time>2021-05-26T18:30:06Z</time>
      </trkpt>
      <trkpt lat="41.895181" lon="2.523957">
        <ele>873.875</ele>
        <time>2021-05-26T18:30:07Z</time>
      </trkpt>
      <trkpt lat="41.895204" lon="2.523960">
        <ele>873.572</ele>
        <time>2021-05-26T18:30:08Z</time>
      </trkpt>
      <trkpt lat="41.895306" lon="2.523966">
        <ele>872.919</ele>
        <time>2021-05-26T18:30:12Z</time>
      </trkpt>
      <trkpt lat="41.895336" lon="2.523964">
        <ele>873.083</ele>
        <time>2021-05-26T18:30:13Z</time>
      </trkpt>
      <trkpt lat="41.895365" lon="2.523968">
        <ele>873.328</ele>
        <time>2021-05-26T18:30:14Z</time>
      </trkpt>
      <trkpt lat="41.895399" lon="2.523980">
        <ele>873.748</ele>
        <time>2021-05-26T18:30:15Z</time>
      </trkpt>
      <trkpt lat="41.895431" lon="2.523989">
        <ele>874.094</ele>
        <time>2021-05-26T18:30:16Z</time>
      </trkpt>
      <trkpt lat="41.895464" lon="2.523998">
        <ele>874.349</ele>
        <time>2021-05-26T18:30:17Z</time>
      </trkpt>
      <trkpt lat="41.895497" lon="2.524016">
        <ele>874.752</ele>
        <time>2021-05-26T18:30:18Z</time>
      </trkpt>
      <trkpt lat="41.895529" lon="2.524030">
        <ele>874.953</ele>
        <time>2021-05-26T18:30:19Z</time>
      </trkpt>
      <trkpt lat="41.895558" lon="2.524043">
        <ele>875.108</ele>
        <time>2021-05-26T18:30:20Z</time>
      </trkpt>
      <trkpt lat="41.895586" lon="2.524054">
        <ele>875.408</ele>
        <time>2021-05-26T18:30:21Z</time>
      </trkpt>
      <trkpt lat="41.895617" lon="2.524062">
        <ele>875.652</ele>
        <time>2021-05-26T18:30:22Z</time>
      </trkpt>
      <trkpt lat="41.895646" lon="2.524069">
        <ele>875.949</ele>
        <time>2021-05-26T18:30:23Z</time>
      </trkpt>
      <trkpt lat="41.895705" lon="2.524078">
        <ele>876.236</ele>
        <time>2021-05-26T18:30:25Z</time>
      </trkpt>
      <trkpt lat="41.895733" lon="2.524079">
        <ele>876.430</ele>
        <time>2021-05-26T18:30:26Z</time>
      </trkpt>
      <trkpt lat="41.895762" lon="2.524083">
        <ele>876.645</ele>
        <time>2021-05-26T18:30:27Z</time>
      </trkpt>
      <trkpt lat="41.895788" lon="2.524088">
        <ele>876.775</ele>
        <time>2021-05-26T18:30:28Z</time>
      </trkpt>
      <trkpt lat="41.895814" lon="2.524092">
        <ele>876.941</ele>
        <time>2021-05-26T18:30:29Z</time>
      </trkpt>
      <trkpt lat="41.895839" lon="2.524097">
        <ele>877.036</ele>
        <time>2021-05-26T18:30:30Z</time>
      </trkpt>
      <trkpt lat="41.895863" lon="2.524099">
        <ele>877.236</ele>
        <time>2021-05-26T18:30:31Z</time>
      </trkpt>
      <trkpt lat="41.895888" lon="2.524099">
        <ele>877.417</ele>
        <time>2021-05-26T18:30:32Z</time>
      </trkpt>
      <trkpt lat="41.895913" lon="2.524102">
        <ele>877.618</ele>
        <time>2021-05-26T18:30:33Z</time>
      </trkpt>
      <trkpt lat="41.895936" lon="2.524101">
        <ele>877.708</ele>
        <time>2021-05-26T18:30:34Z</time>
      </trkpt>
      <trkpt lat="41.895958" lon="2.524100">
        <ele>877.950</ele>
        <time>2021-05-26T18:30:35Z</time>
      </trkpt>
      <trkpt lat="41.895976" lon="2.524098">
        <ele>878.067</ele>
        <time>2021-05-26T18:30:36Z</time>
      </trkpt>
      <trkpt lat="41.896010" lon="2.524097">
        <ele>878.364</ele>
        <time>2021-05-26T18:30:38Z</time>
      </trkpt>
      <trkpt lat="41.896042" lon="2.524094">
        <ele>878.598</ele>
        <time>2021-05-26T18:30:40Z</time>
      </trkpt>
      <trkpt lat="41.896075" lon="2.524094">
        <ele>878.873</ele>
        <time>2021-05-26T18:30:42Z</time>
      </trkpt>
      <trkpt lat="41.896106" lon="2.524089">
        <ele>879.173</ele>
        <time>2021-05-26T18:30:44Z</time>
      </trkpt>
      <trkpt lat="41.896138" lon="2.524083">
        <ele>879.219</ele>
        <time>2021-05-26T18:30:46Z</time>
      </trkpt>
      <trkpt lat="41.896169" lon="2.524078">
        <ele>879.334</ele>
        <time>2021-05-26T18:30:48Z</time>
      </trkpt>
      <trkpt lat="41.896201" lon="2.524068">
        <ele>879.437</ele>
        <time>2021-05-26T18:30:50Z</time>
      </trkpt>
      <trkpt lat="41.896232" lon="2.524059">
        <ele>879.649</ele>
        <time>2021-05-26T18:30:52Z</time>
      </trkpt>
      <trkpt lat="41.896262" lon="2.524056">
        <ele>879.713</ele>
        <time>2021-05-26T18:30:54Z</time>
      </trkpt>
      <trkpt lat="41.896291" lon="2.524056">
        <ele>879.708</ele>
        <time>2021-05-26T18:30:56Z</time>
      </trkpt>
      <trkpt lat="41.896321" lon="2.524051">
        <ele>879.980</ele>
        <time>2021-05-26T18:30:58Z</time>
      </trkpt>
      <trkpt lat="41.896352" lon="2.524046">
        <ele>880.057</ele>
        <time>2021-05-26T18:31:00Z</time>
      </trkpt>
      <trkpt lat="41.896370" lon="2.524035">
        <ele>880.344</ele>
        <time>2021-05-26T18:31:01Z</time>
      </trkpt>
      <trkpt lat="41.896400" lon="2.524027">
        <ele>880.538</ele>
        <time>2021-05-26T18:31:03Z</time>
      </trkpt>
      <trkpt lat="41.896430" lon="2.524014">
        <ele>880.963</ele>
        <time>2021-05-26T18:31:05Z</time>
      </trkpt>
      <trkpt lat="41.896459" lon="2.523999">
        <ele>881.343</ele>
        <time>2021-05-26T18:31:07Z</time>
      </trkpt>
      <trkpt lat="41.896488" lon="2.523985">
        <ele>881.739</ele>
        <time>2021-05-26T18:31:09Z</time>
      </trkpt>
      <trkpt lat="41.896517" lon="2.523970">
        <ele>882.194</ele>
        <time>2021-05-26T18:31:11Z</time>
      </trkpt>
      <trkpt lat="41.896545" lon="2.523960">
        <ele>882.525</ele>
        <time>2021-05-26T18:31:13Z</time>
      </trkpt>
      <trkpt lat="41.896573" lon="2.523953">
        <ele>882.726</ele>
        <time>2021-05-26T18:31:15Z</time>
      </trkpt>
      <trkpt lat="41.896602" lon="2.523944">
        <ele>883.108</ele>
        <time>2021-05-26T18:31:17Z</time>
      </trkpt>
      <trkpt lat="41.896633" lon="2.523935">
        <ele>883.408</ele>
        <time>2021-05-26T18:31:19Z</time>
      </trkpt>
      <trkpt lat="41.896662" lon="2.523925">
        <ele>883.889</ele>
        <time>2021-05-26T18:31:21Z</time>
      </trkpt>
      <trkpt lat="41.896691" lon="2.523918">
        <ele>884.316</ele>
        <time>2021-05-26T18:31:23Z</time>
      </trkpt>
      <trkpt lat="41.896721" lon="2.523917">
        <ele>884.733</ele>
        <time>2021-05-26T18:31:25Z</time>
      </trkpt>
      <trkpt lat="41.896750" lon="2.523919">
        <ele>884.957</ele>
        <time>2021-05-26T18:31:27Z</time>
      </trkpt>
      <trkpt lat="41.896778" lon="2.523919">
        <ele>885.212</ele>
        <time>2021-05-26T18:31:29Z</time>
      </trkpt>
      <trkpt lat="41.896808" lon="2.523920">
        <ele>885.542</ele>
        <time>2021-05-26T18:31:31Z</time>
      </trkpt>
      <trkpt lat="41.896837" lon="2.523920">
        <ele>885.898</ele>
        <time>2021-05-26T18:31:33Z</time>
      </trkpt>
      <trkpt lat="41.896866" lon="2.523922">
        <ele>886.013</ele>
        <time>2021-05-26T18:31:35Z</time>
      </trkpt>
      <trkpt lat="41.896896" lon="2.523925">
        <ele>886.221</ele>
        <time>2021-05-26T18:31:37Z</time>
      </trkpt>
      <trkpt lat="41.896923" lon="2.523928">
        <ele>886.441</ele>
        <time>2021-05-26T18:31:39Z</time>
      </trkpt>
      <trkpt lat="41.896951" lon="2.523931">
        <ele>886.505</ele>
        <time>2021-05-26T18:31:41Z</time>
      </trkpt>
      <trkpt lat="41.896978" lon="2.523940">
        <ele>886.308</ele>
        <time>2021-05-26T18:31:43Z</time>
      </trkpt>
      <trkpt lat="41.897005" lon="2.523947">
        <ele>886.229</ele>
        <time>2021-05-26T18:31:45Z</time>
      </trkpt>
      <trkpt lat="41.897027" lon="2.523953">
        <ele>886.116</ele>
        <time>2021-05-26T18:31:47Z</time>
      </trkpt>
      <trkpt lat="41.897052" lon="2.523964">
        <ele>885.883</ele>
        <time>2021-05-26T18:31:49Z</time>
      </trkpt>
      <trkpt lat="41.897079" lon="2.523977">
        <ele>885.517</ele>
        <time>2021-05-26T18:31:51Z</time>
      </trkpt>
      <trkpt lat="41.897107" lon="2.523992">
        <ele>885.162</ele>
        <time>2021-05-26T18:31:53Z</time>
      </trkpt>
      <trkpt lat="41.897134" lon="2.524007">
        <ele>884.772</ele>
        <time>2021-05-26T18:31:55Z</time>
      </trkpt>
      <trkpt lat="41.897163" lon="2.524020">
        <ele>884.458</ele>
        <time>2021-05-26T18:31:57Z</time>
      </trkpt>
      <trkpt lat="41.897191" lon="2.524038">
        <ele>884.053</ele>
        <time>2021-05-26T18:32:00Z</time>
      </trkpt>
      <trkpt lat="41.897222" lon="2.524056">
        <ele>883.638</ele>
        <time>2021-05-26T18:32:01Z</time>
      </trkpt>
      <trkpt lat="41.897250" lon="2.524074">
        <ele>883.570</ele>
        <time>2021-05-26T18:32:03Z</time>
      </trkpt>
      <trkpt lat="41.897274" lon="2.524096">
        <ele>883.217</ele>
        <time>2021-05-26T18:32:05Z</time>
      </trkpt>
      <trkpt lat="41.897298" lon="2.524114">
        <ele>883.108</ele>
        <time>2021-05-26T18:32:07Z</time>
      </trkpt>
      <trkpt lat="41.897323" lon="2.524132">
        <ele>883.160</ele>
        <time>2021-05-26T18:32:09Z</time>
      </trkpt>
      <trkpt lat="41.897355" lon="2.524148">
        <ele>883.387</ele>
        <time>2021-05-26T18:32:11Z</time>
      </trkpt>
      <trkpt lat="41.897382" lon="2.524165">
        <ele>883.514</ele>
        <time>2021-05-26T18:32:13Z</time>
      </trkpt>
      <trkpt lat="41.897409" lon="2.524182">
        <ele>883.638</ele>
        <time>2021-05-26T18:32:15Z</time>
      </trkpt>
      <trkpt lat="41.897436" lon="2.524204">
        <ele>883.563</ele>
        <time>2021-05-26T18:32:17Z</time>
      </trkpt>
      <trkpt lat="41.897459" lon="2.524229">
        <ele>883.393</ele>
        <time>2021-05-26T18:32:19Z</time>
      </trkpt>
      <trkpt lat="41.897481" lon="2.524257">
        <ele>882.929</ele>
        <time>2021-05-26T18:32:21Z</time>
      </trkpt>
      <trkpt lat="41.897500" lon="2.524287">
        <ele>882.584</ele>
        <time>2021-05-26T18:32:23Z</time>
      </trkpt>
      <trkpt lat="41.897522" lon="2.524317">
        <ele>882.327</ele>
        <time>2021-05-26T18:32:25Z</time>
      </trkpt>
      <trkpt lat="41.897541" lon="2.524347">
        <ele>882.068</ele>
        <time>2021-05-26T18:32:27Z</time>
      </trkpt>
      <trkpt lat="41.897558" lon="2.524376">
        <ele>881.714</ele>
        <time>2021-05-26T18:32:29Z</time>
      </trkpt>
      <trkpt lat="41.897575" lon="2.524411">
        <ele>881.308</ele>
        <time>2021-05-26T18:32:31Z</time>
      </trkpt>
      <trkpt lat="41.897593" lon="2.524443">
        <ele>881.079</ele>
        <time>2021-05-26T18:32:33Z</time>
      </trkpt>
      <trkpt lat="41.897612" lon="2.524474">
        <ele>880.766</ele>
        <time>2021-05-26T18:32:35Z</time>
      </trkpt>
      <trkpt lat="41.897632" lon="2.524506">
        <ele>880.493</ele>
        <time>2021-05-26T18:32:37Z</time>
      </trkpt>
      <trkpt lat="41.897653" lon="2.524536">
        <ele>880.167</ele>
        <time>2021-05-26T18:32:39Z</time>
      </trkpt>
      <trkpt lat="41.897672" lon="2.524565">
        <ele>879.852</ele>
        <time>2021-05-26T18:32:41Z</time>
      </trkpt>
      <trkpt lat="41.897696" lon="2.524592">
        <ele>879.752</ele>
        <time>2021-05-26T18:32:43Z</time>
      </trkpt>
      <trkpt lat="41.897718" lon="2.524616">
        <ele>879.638</ele>
        <time>2021-05-26T18:32:45Z</time>
      </trkpt>
      <trkpt lat="41.897743" lon="2.524637">
        <ele>879.773</ele>
        <time>2021-05-26T18:32:47Z</time>
      </trkpt>
      <trkpt lat="41.897767" lon="2.524655">
        <ele>879.967</ele>
        <time>2021-05-26T18:32:49Z</time>
      </trkpt>
      <trkpt lat="41.897791" lon="2.524670">
        <ele>880.181</ele>
        <time>2021-05-26T18:32:51Z</time>
      </trkpt>
      <trkpt lat="41.897817" lon="2.524679">
        <ele>880.619</ele>
        <time>2021-05-26T18:32:53Z</time>
      </trkpt>
      <trkpt lat="41.897846" lon="2.524686">
        <ele>881.308</ele>
        <time>2021-05-26T18:32:55Z</time>
      </trkpt>
      <trkpt lat="41.897876" lon="2.524691">
        <ele>882.143</ele>
        <time>2021-05-26T18:32:57Z</time>
      </trkpt>
      <trkpt lat="41.897905" lon="2.524690">
        <ele>883.150</ele>
        <time>2021-05-26T18:32:59Z</time>
      </trkpt>
      <trkpt lat="41.897934" lon="2.524683">
        <ele>884.247</ele>
        <time>2021-05-26T18:33:01Z</time>
      </trkpt>
      <trkpt lat="41.897964" lon="2.524679">
        <ele>885.291</ele>
        <time>2021-05-26T18:33:03Z</time>
      </trkpt>
      <trkpt lat="41.897995" lon="2.524672">
        <ele>886.436</ele>
        <time>2021-05-26T18:33:05Z</time>
      </trkpt>
      <trkpt lat="41.898028" lon="2.524660">
        <ele>887.756</ele>
        <time>2021-05-26T18:33:07Z</time>
      </trkpt>
      <trkpt lat="41.898060" lon="2.524657">
        <ele>888.722</ele>
        <time>2021-05-26T18:33:09Z</time>
      </trkpt>
      <trkpt lat="41.898093" lon="2.524657">
        <ele>889.397</ele>
        <time>2021-05-26T18:33:11Z</time>
      </trkpt>
      <trkpt lat="41.898128" lon="2.524660">
        <ele>889.889</ele>
        <time>2021-05-26T18:33:13Z</time>
      </trkpt>
      <trkpt lat="41.898159" lon="2.524664">
        <ele>890.206</ele>
        <time>2021-05-26T18:33:15Z</time>
      </trkpt>
      <trkpt lat="41.898190" lon="2.524668">
        <ele>890.626</ele>
        <time>2021-05-26T18:33:17Z</time>
      </trkpt>
      <trkpt lat="41.898208" lon="2.524668">
        <ele>890.908</ele>
        <time>2021-05-26T18:33:18Z</time>
      </trkpt>
      <trkpt lat="41.898241" lon="2.524671">
        <ele>891.445</ele>
        <time>2021-05-26T18:33:20Z</time>
      </trkpt>
      <trkpt lat="41.898271" lon="2.524678">
        <ele>891.772</ele>
        <time>2021-05-26T18:33:22Z</time>
      </trkpt>
      <trkpt lat="41.898302" lon="2.524683">
        <ele>892.229</ele>
        <time>2021-05-26T18:33:24Z</time>
      </trkpt>
      <trkpt lat="41.898332" lon="2.524691">
        <ele>892.513</ele>
        <time>2021-05-26T18:33:26Z</time>
      </trkpt>
      <trkpt lat="41.898360" lon="2.524703">
        <ele>892.678</ele>
        <time>2021-05-26T18:33:28Z</time>
      </trkpt>
      <trkpt lat="41.898390" lon="2.524715">
        <ele>892.898</ele>
        <time>2021-05-26T18:33:30Z</time>
      </trkpt>
      <trkpt lat="41.898420" lon="2.524728">
        <ele>892.774</ele>
        <time>2021-05-26T18:33:32Z</time>
      </trkpt>
      <trkpt lat="41.898449" lon="2.524741">
        <ele>892.699</ele>
        <time>2021-05-26T18:33:34Z</time>
      </trkpt>
      <trkpt lat="41.898484" lon="2.524750">
        <ele>892.714</ele>
        <time>2021-05-26T18:33:36Z</time>
      </trkpt>
      <trkpt lat="41.898517" lon="2.524755">
        <ele>892.954</ele>
        <time>2021-05-26T18:33:38Z</time>
      </trkpt>
      <trkpt lat="41.898535" lon="2.524757">
        <ele>893.109</ele>
        <time>2021-05-26T18:33:39Z</time>
      </trkpt>
      <trkpt lat="41.898561" lon="2.524764">
        <ele>893.108</ele>
        <time>2021-05-26T18:33:41Z</time>
      </trkpt>
      <trkpt lat="41.898589" lon="2.524771">
        <ele>893.238</ele>
        <time>2021-05-26T18:33:43Z</time>
      </trkpt>
      <trkpt lat="41.898622" lon="2.524782">
        <ele>893.385</ele>
        <time>2021-05-26T18:33:45Z</time>
      </trkpt>
      <trkpt lat="41.898653" lon="2.524793">
        <ele>893.482</ele>
        <time>2021-05-26T18:33:47Z</time>
      </trkpt>
      <trkpt lat="41.898687" lon="2.524803">
        <ele>893.726</ele>
        <time>2021-05-26T18:33:49Z</time>
      </trkpt>
      <trkpt lat="41.898721" lon="2.524809">
        <ele>894.051</ele>
        <time>2021-05-26T18:33:51Z</time>
      </trkpt>
      <trkpt lat="41.898752" lon="2.524815">
        <ele>894.471</ele>
        <time>2021-05-26T18:33:53Z</time>
      </trkpt>
      <trkpt lat="41.898778" lon="2.524832">
        <ele>894.277</ele>
        <time>2021-05-26T18:33:55Z</time>
      </trkpt>
      <trkpt lat="41.898808" lon="2.524852">
        <ele>894.022</ele>
        <time>2021-05-26T18:33:57Z</time>
      </trkpt>
      <trkpt lat="41.898836" lon="2.524876">
        <ele>893.645</ele>
        <time>2021-05-26T18:33:59Z</time>
      </trkpt>
      <trkpt lat="41.898862" lon="2.524895">
        <ele>893.447</ele>
        <time>2021-05-26T18:34:01Z</time>
      </trkpt>
      <trkpt lat="41.898886" lon="2.524922">
        <ele>892.811</ele>
        <time>2021-05-26T18:34:03Z</time>
      </trkpt>
      <trkpt lat="41.898912" lon="2.524948">
        <ele>892.608</ele>
        <time>2021-05-26T18:34:05Z</time>
      </trkpt>
      <trkpt lat="41.898936" lon="2.524972">
        <ele>892.581</ele>
        <time>2021-05-26T18:34:07Z</time>
      </trkpt>
      <trkpt lat="41.898960" lon="2.524995">
        <ele>892.568</ele>
        <time>2021-05-26T18:34:09Z</time>
      </trkpt>
      <trkpt lat="41.898984" lon="2.525019">
        <ele>892.785</ele>
        <time>2021-05-26T18:34:11Z</time>
      </trkpt>
      <trkpt lat="41.899013" lon="2.525035">
        <ele>893.359</ele>
        <time>2021-05-26T18:34:13Z</time>
      </trkpt>
      <trkpt lat="41.899041" lon="2.525044">
        <ele>894.134</ele>
        <time>2021-05-26T18:34:15Z</time>
      </trkpt>
      <trkpt lat="41.899071" lon="2.525058">
        <ele>894.994</ele>
        <time>2021-05-26T18:34:17Z</time>
      </trkpt>
      <trkpt lat="41.899098" lon="2.525079">
        <ele>895.610</ele>
        <time>2021-05-26T18:34:19Z</time>
      </trkpt>
      <trkpt lat="41.899122" lon="2.525102">
        <ele>896.245</ele>
        <time>2021-05-26T18:34:21Z</time>
      </trkpt>
      <trkpt lat="41.899146" lon="2.525125">
        <ele>896.828</ele>
        <time>2021-05-26T18:34:23Z</time>
      </trkpt>
      <trkpt lat="41.899169" lon="2.525151">
        <ele>897.589</ele>
        <time>2021-05-26T18:34:25Z</time>
      </trkpt>
      <trkpt lat="41.899188" lon="2.525178">
        <ele>898.117</ele>
        <time>2021-05-26T18:34:27Z</time>
      </trkpt>
      <trkpt lat="41.899204" lon="2.525212">
        <ele>898.508</ele>
        <time>2021-05-26T18:34:29Z</time>
      </trkpt>
      <trkpt lat="41.899222" lon="2.525243">
        <ele>899.029</ele>
        <time>2021-05-26T18:34:31Z</time>
      </trkpt>
      <trkpt lat="41.899232" lon="2.525281">
        <ele>899.116</ele>
        <time>2021-05-26T18:34:33Z</time>
      </trkpt>
      <trkpt lat="41.899239" lon="2.525316">
        <ele>899.553</ele>
        <time>2021-05-26T18:34:35Z</time>
      </trkpt>
      <trkpt lat="41.899243" lon="2.525343">
        <ele>899.827</ele>
        <time>2021-05-26T18:34:37Z</time>
      </trkpt>
      <trkpt lat="41.899235" lon="2.525377">
        <ele>899.612</ele>
        <time>2021-05-26T18:34:39Z</time>
      </trkpt>
      <trkpt lat="41.899231" lon="2.525416">
        <ele>899.582</ele>
        <time>2021-05-26T18:34:41Z</time>
      </trkpt>
      <trkpt lat="41.899225" lon="2.525452">
        <ele>899.448</ele>
        <time>2021-05-26T18:34:43Z</time>
      </trkpt>
      <trkpt lat="41.899216" lon="2.525484">
        <ele>899.133</ele>
        <time>2021-05-26T18:34:45Z</time>
      </trkpt>
      <trkpt lat="41.899206" lon="2.525520">
        <ele>898.754</ele>
        <time>2021-05-26T18:34:47Z</time>
      </trkpt>
      <trkpt lat="41.899192" lon="2.525561">
        <ele>898.256</ele>
        <time>2021-05-26T18:34:49Z</time>
      </trkpt>
      <trkpt lat="41.899186" lon="2.525598">
        <ele>897.911</ele>
        <time>2021-05-26T18:34:51Z</time>
      </trkpt>
      <trkpt lat="41.899183" lon="2.525633">
        <ele>897.808</ele>
        <time>2021-05-26T18:34:53Z</time>
      </trkpt>
      <trkpt lat="41.899184" lon="2.525671">
        <ele>897.882</ele>
        <time>2021-05-26T18:34:55Z</time>
      </trkpt>
      <trkpt lat="41.899185" lon="2.525711">
        <ele>897.949</ele>
        <time>2021-05-26T18:34:57Z</time>
      </trkpt>
      <trkpt lat="41.899185" lon="2.525752">
        <ele>897.976</ele>
        <time>2021-05-26T18:34:59Z</time>
      </trkpt>
      <trkpt lat="41.899188" lon="2.525793">
        <ele>898.160</ele>
        <time>2021-05-26T18:35:01Z</time>
      </trkpt>
      <trkpt lat="41.899190" lon="2.525830">
        <ele>898.285</ele>
        <time>2021-05-26T18:35:03Z</time>
      </trkpt>
      <trkpt lat="41.899195" lon="2.525866">
        <ele>898.475</ele>
        <time>2021-05-26T18:35:05Z</time>
      </trkpt>
      <trkpt lat="41.899195" lon="2.525902">
        <ele>898.431</ele>
        <time>2021-05-26T18:35:07Z</time>
      </trkpt>
      <trkpt lat="41.899193" lon="2.525938">
        <ele>898.386</ele>
        <time>2021-05-26T18:35:09Z</time>
      </trkpt>
      <trkpt lat="41.899188" lon="2.525975">
        <ele>898.193</ele>
        <time>2021-05-26T18:35:11Z</time>
      </trkpt>
      <trkpt lat="41.899181" lon="2.526012">
        <ele>897.765</ele>
        <time>2021-05-26T18:35:13Z</time>
      </trkpt>
      <trkpt lat="41.899175" lon="2.526050">
        <ele>897.421</ele>
        <time>2021-05-26T18:35:15Z</time>
      </trkpt>
      <trkpt lat="41.899159" lon="2.526090">
        <ele>896.508</ele>
        <time>2021-05-26T18:35:17Z</time>
      </trkpt>
      <trkpt lat="41.899149" lon="2.526121">
        <ele>895.876</ele>
        <time>2021-05-26T18:35:19Z</time>
      </trkpt>
      <trkpt lat="41.899145" lon="2.526150">
        <ele>895.783</ele>
        <time>2021-05-26T18:35:21Z</time>
      </trkpt>
      <trkpt lat="41.899132" lon="2.526183">
        <ele>895.040</ele>
        <time>2021-05-26T18:35:23Z</time>
      </trkpt>
      <trkpt lat="41.899120" lon="2.526219">
        <ele>894.384</ele>
        <time>2021-05-26T18:35:25Z</time>
      </trkpt>
      <trkpt lat="41.899097" lon="2.526252">
        <ele>893.019</ele>
        <time>2021-05-26T18:35:27Z</time>
      </trkpt>
      <trkpt lat="41.899083" lon="2.526285">
        <ele>892.349</ele>
        <time>2021-05-26T18:35:29Z</time>
      </trkpt>
      <trkpt lat="41.899065" lon="2.526315">
        <ele>891.325</ele>
        <time>2021-05-26T18:35:31Z</time>
      </trkpt>
      <trkpt lat="41.899049" lon="2.526352">
        <ele>890.660</ele>
        <time>2021-05-26T18:35:33Z</time>
      </trkpt>
      <trkpt lat="41.899035" lon="2.526389">
        <ele>889.975</ele>
        <time>2021-05-26T18:35:35Z</time>
      </trkpt>
      <trkpt lat="41.899019" lon="2.526425">
        <ele>889.128</ele>
        <time>2021-05-26T18:35:37Z</time>
      </trkpt>
      <trkpt lat="41.899005" lon="2.526468">
        <ele>888.520</ele>
        <time>2021-05-26T18:35:39Z</time>
      </trkpt>
      <trkpt lat="41.898992" lon="2.526505">
        <ele>887.908</ele>
        <time>2021-05-26T18:35:41Z</time>
      </trkpt>
      <trkpt lat="41.898979" lon="2.526546">
        <ele>887.584</ele>
        <time>2021-05-26T18:35:43Z</time>
      </trkpt>
      <trkpt lat="41.898971" lon="2.526588">
        <ele>887.371</ele>
        <time>2021-05-26T18:35:45Z</time>
      </trkpt>
      <trkpt lat="41.898963" lon="2.526630">
        <ele>887.288</ele>
        <time>2021-05-26T18:35:47Z</time>
      </trkpt>
      <trkpt lat="41.898960" lon="2.526670">
        <ele>887.332</ele>
        <time>2021-05-26T18:35:49Z</time>
      </trkpt>
      <trkpt lat="41.898955" lon="2.526711">
        <ele>886.977</ele>
        <time>2021-05-26T18:35:51Z</time>
      </trkpt>
      <trkpt lat="41.898953" lon="2.526752">
        <ele>886.727</ele>
        <time>2021-05-26T18:35:53Z</time>
      </trkpt>
      <trkpt lat="41.898951" lon="2.526795">
        <ele>886.483</ele>
        <time>2021-05-26T18:35:55Z</time>
      </trkpt>
      <trkpt lat="41.898951" lon="2.526837">
        <ele>886.388</ele>
        <time>2021-05-26T18:35:57Z</time>
      </trkpt>
      <trkpt lat="41.898957" lon="2.526877">
        <ele>886.438</ele>
        <time>2021-05-26T18:35:59Z</time>
      </trkpt>
      <trkpt lat="41.898960" lon="2.526914">
        <ele>886.470</ele>
        <time>2021-05-26T18:36:01Z</time>
      </trkpt>
      <trkpt lat="41.898966" lon="2.526955">
        <ele>886.617</ele>
        <time>2021-05-26T18:36:03Z</time>
      </trkpt>
      <trkpt lat="41.898973" lon="2.526997">
        <ele>886.908</ele>
        <time>2021-05-26T18:36:05Z</time>
      </trkpt>
      <trkpt lat="41.898988" lon="2.527041">
        <ele>887.510</ele>
        <time>2021-05-26T18:36:07Z</time>
      </trkpt>
      <trkpt lat="41.898996" lon="2.527063">
        <ele>887.877</ele>
        <time>2021-05-26T18:36:08Z</time>
      </trkpt>
      <trkpt lat="41.899006" lon="2.527085">
        <ele>888.364</ele>
        <time>2021-05-26T18:36:09Z</time>
      </trkpt>
      <trkpt lat="41.899014" lon="2.527112">
        <ele>888.668</ele>
        <time>2021-05-26T18:36:10Z</time>
      </trkpt>
      <trkpt lat="41.899026" lon="2.527137">
        <ele>889.163</ele>
        <time>2021-05-26T18:36:11Z</time>
      </trkpt>
      <trkpt lat="41.899038" lon="2.527165">
        <ele>889.683</ele>
        <time>2021-05-26T18:36:12Z</time>
      </trkpt>
      <trkpt lat="41.899052" lon="2.527194">
        <ele>890.119</ele>
        <time>2021-05-26T18:36:13Z</time>
      </trkpt>
      <trkpt lat="41.899063" lon="2.527227">
        <ele>890.534</ele>
        <time>2021-05-26T18:36:14Z</time>
      </trkpt>
      <trkpt lat="41.899072" lon="2.527254">
        <ele>890.848</ele>
        <time>2021-05-26T18:36:15Z</time>
      </trkpt>
      <trkpt lat="41.899082" lon="2.527284">
        <ele>891.061</ele>
        <time>2021-05-26T18:36:16Z</time>
      </trkpt>
      <trkpt lat="41.899094" lon="2.527314">
        <ele>891.417</ele>
        <time>2021-05-26T18:36:17Z</time>
      </trkpt>
      <trkpt lat="41.899105" lon="2.527345">
        <ele>891.608</ele>
        <time>2021-05-26T18:36:18Z</time>
      </trkpt>
      <trkpt lat="41.899114" lon="2.527374">
        <ele>891.831</ele>
        <time>2021-05-26T18:36:19Z</time>
      </trkpt>
      <trkpt lat="41.899122" lon="2.527405">
        <ele>892.088</ele>
        <time>2021-05-26T18:36:20Z</time>
      </trkpt>
      <trkpt lat="41.899130" lon="2.527437">
        <ele>892.145</ele>
        <time>2021-05-26T18:36:21Z</time>
      </trkpt>
      <trkpt lat="41.899136" lon="2.527469">
        <ele>892.199</ele>
        <time>2021-05-26T18:36:22Z</time>
      </trkpt>
      <trkpt lat="41.899143" lon="2.527503">
        <ele>892.184</ele>
        <time>2021-05-26T18:36:23Z</time>
      </trkpt>
      <trkpt lat="41.899148" lon="2.527540">
        <ele>891.874</ele>
        <time>2021-05-26T18:36:24Z</time>
      </trkpt>
      <trkpt lat="41.899156" lon="2.527571">
        <ele>891.680</ele>
        <time>2021-05-26T18:36:25Z</time>
      </trkpt>
      <trkpt lat="41.899162" lon="2.527607">
        <ele>891.315</ele>
        <time>2021-05-26T18:36:26Z</time>
      </trkpt>
      <trkpt lat="41.899167" lon="2.527647">
        <ele>890.975</ele>
        <time>2021-05-26T18:36:27Z</time>
      </trkpt>
      <trkpt lat="41.899172" lon="2.527683">
        <ele>890.428</ele>
        <time>2021-05-26T18:36:28Z</time>
      </trkpt>
      <trkpt lat="41.899180" lon="2.527717">
        <ele>890.020</ele>
        <time>2021-05-26T18:36:29Z</time>
      </trkpt>
      <trkpt lat="41.899188" lon="2.527753">
        <ele>889.608</ele>
        <time>2021-05-26T18:36:30Z</time>
      </trkpt>
      <trkpt lat="41.899196" lon="2.527782">
        <ele>889.344</ele>
        <time>2021-05-26T18:36:31Z</time>
      </trkpt>
      <trkpt lat="41.899205" lon="2.527809">
        <ele>889.151</ele>
        <time>2021-05-26T18:36:32Z</time>
      </trkpt>
      <trkpt lat="41.899223" lon="2.527832">
        <ele>889.058</ele>
        <time>2021-05-26T18:36:33Z</time>
      </trkpt>
      <trkpt lat="41.899245" lon="2.527842">
        <ele>889.292</ele>
        <time>2021-05-26T18:36:34Z</time>
      </trkpt>
      <trkpt lat="41.899268" lon="2.527833">
        <ele>889.537</ele>
        <time>2021-05-26T18:36:35Z</time>
      </trkpt>
      <trkpt lat="41.899285" lon="2.527822">
        <ele>889.847</ele>
        <time>2021-05-26T18:36:36Z</time>
      </trkpt>
      <trkpt lat="41.899315" lon="2.527803">
        <ele>890.393</ele>
        <time>2021-05-26T18:36:38Z</time>
      </trkpt>
      <trkpt lat="41.899351" lon="2.527797">
        <ele>890.818</ele>
        <time>2021-05-26T18:36:40Z</time>
      </trkpt>
      <trkpt lat="41.899371" lon="2.527800">
        <ele>891.077</ele>
        <time>2021-05-26T18:36:41Z</time>
      </trkpt>
      <trkpt lat="41.899405" lon="2.527804">
        <ele>891.361</ele>
        <time>2021-05-26T18:36:43Z</time>
      </trkpt>
      <trkpt lat="41.899436" lon="2.527825">
        <ele>891.427</ele>
        <time>2021-05-26T18:36:45Z</time>
      </trkpt>
      <trkpt lat="41.899454" lon="2.527864">
        <ele>891.108</ele>
        <time>2021-05-26T18:36:47Z</time>
      </trkpt>
      <trkpt lat="41.899468" lon="2.527902">
        <ele>890.784</ele>
        <time>2021-05-26T18:36:49Z</time>
      </trkpt>
      <trkpt lat="41.899471" lon="2.527928">
        <ele>890.471</ele>
        <time>2021-05-26T18:36:50Z</time>
      </trkpt>
      <trkpt lat="41.899478" lon="2.527957">
        <ele>890.138</ele>
        <time>2021-05-26T18:36:51Z</time>
      </trkpt>
      <trkpt lat="41.899484" lon="2.527985">
        <ele>889.732</ele>
        <time>2021-05-26T18:36:52Z</time>
      </trkpt>
      <trkpt lat="41.899491" lon="2.528014">
        <ele>889.437</ele>
        <time>2021-05-26T18:36:53Z</time>
      </trkpt>
      <trkpt lat="41.899503" lon="2.528036">
        <ele>889.097</ele>
        <time>2021-05-26T18:36:54Z</time>
      </trkpt>
      <trkpt lat="41.899519" lon="2.528060">
        <ele>888.783</ele>
        <time>2021-05-26T18:36:55Z</time>
      </trkpt>
      <trkpt lat="41.899535" lon="2.528085">
        <ele>888.598</ele>
        <time>2021-05-26T18:36:56Z</time>
      </trkpt>
      <trkpt lat="41.899549" lon="2.528104">
        <ele>888.472</ele>
        <time>2021-05-26T18:36:57Z</time>
      </trkpt>
      <trkpt lat="41.899566" lon="2.528121">
        <ele>888.213</ele>
        <time>2021-05-26T18:36:58Z</time>
      </trkpt>
      <trkpt lat="41.899582" lon="2.528140">
        <ele>888.014</ele>
        <time>2021-05-26T18:36:59Z</time>
      </trkpt>
      <trkpt lat="41.899601" lon="2.528159">
        <ele>887.908</ele>
        <time>2021-05-26T18:37:00Z</time>
      </trkpt>
      <trkpt lat="41.899617" lon="2.528177">
        <ele>887.754</ele>
        <time>2021-05-26T18:37:01Z</time>
      </trkpt>
      <trkpt lat="41.899648" lon="2.528199">
        <ele>887.431</ele>
        <time>2021-05-26T18:37:03Z</time>
      </trkpt>
      <trkpt lat="41.899665" lon="2.528213">
        <ele>887.238</ele>
        <time>2021-05-26T18:37:04Z</time>
      </trkpt>
      <trkpt lat="41.899683" lon="2.528223">
        <ele>887.082</ele>
        <time>2021-05-26T18:37:05Z</time>
      </trkpt>
      <trkpt lat="41.899703" lon="2.528232">
        <ele>886.897</ele>
        <time>2021-05-26T18:37:06Z</time>
      </trkpt>
      <trkpt lat="41.899727" lon="2.528242">
        <ele>886.627</ele>
        <time>2021-05-26T18:37:07Z</time>
      </trkpt>
      <trkpt lat="41.899750" lon="2.528254">
        <ele>886.333</ele>
        <time>2021-05-26T18:37:08Z</time>
      </trkpt>
      <trkpt lat="41.899771" lon="2.528270">
        <ele>886.028</ele>
        <time>2021-05-26T18:37:09Z</time>
      </trkpt>
      <trkpt lat="41.899792" lon="2.528288">
        <ele>885.621</ele>
        <time>2021-05-26T18:37:10Z</time>
      </trkpt>
      <trkpt lat="41.899808" lon="2.528301">
        <ele>885.341</ele>
        <time>2021-05-26T18:37:11Z</time>
      </trkpt>
      <trkpt lat="41.899826" lon="2.528316">
        <ele>885.005</ele>
        <time>2021-05-26T18:37:12Z</time>
      </trkpt>
      <trkpt lat="41.899847" lon="2.528323">
        <ele>884.708</ele>
        <time>2021-05-26T18:37:13Z</time>
      </trkpt>
      <trkpt lat="41.899873" lon="2.528327">
        <ele>884.459</ele>
        <time>2021-05-26T18:37:14Z</time>
      </trkpt>
      <trkpt lat="41.899900" lon="2.528327">
        <ele>884.146</ele>
        <time>2021-05-26T18:37:15Z</time>
      </trkpt>
      <trkpt lat="41.899927" lon="2.528322">
        <ele>883.923</ele>
        <time>2021-05-26T18:37:16Z</time>
      </trkpt>
      <trkpt lat="41.899953" lon="2.528309">
        <ele>883.877</ele>
        <time>2021-05-26T18:37:17Z</time>
      </trkpt>
      <trkpt lat="41.899975" lon="2.528306">
        <ele>883.642</ele>
        <time>2021-05-26T18:37:18Z</time>
      </trkpt>
      <trkpt lat="41.900013" lon="2.528286">
        <ele>883.492</ele>
        <time>2021-05-26T18:37:20Z</time>
      </trkpt>
      <trkpt lat="41.900039" lon="2.528274">
        <ele>883.358</ele>
        <time>2021-05-26T18:37:21Z</time>
      </trkpt>
      <trkpt lat="41.900063" lon="2.528258">
        <ele>883.333</ele>
        <time>2021-05-26T18:37:22Z</time>
      </trkpt>
      <trkpt lat="41.900089" lon="2.528242">
        <ele>883.238</ele>
        <time>2021-05-26T18:37:23Z</time>
      </trkpt>
      <trkpt lat="41.900112" lon="2.528234">
        <ele>883.170</ele>
        <time>2021-05-26T18:37:24Z</time>
      </trkpt>
      <trkpt lat="41.900135" lon="2.528226">
        <ele>883.017</ele>
        <time>2021-05-26T18:37:25Z</time>
      </trkpt>
      <trkpt lat="41.900159" lon="2.528220">
        <ele>882.808</ele>
        <time>2021-05-26T18:37:26Z</time>
      </trkpt>
      <trkpt lat="41.900183" lon="2.528212">
        <ele>882.710</ele>
        <time>2021-05-26T18:37:27Z</time>
      </trkpt>
      <trkpt lat="41.900205" lon="2.528206">
        <ele>882.617</ele>
        <time>2021-05-26T18:37:28Z</time>
      </trkpt>
      <trkpt lat="41.900224" lon="2.528203">
        <ele>882.484</ele>
        <time>2021-05-26T18:37:29Z</time>
      </trkpt>
      <trkpt lat="41.900244" lon="2.528202">
        <ele>882.218</ele>
        <time>2021-05-26T18:37:30Z</time>
      </trkpt>
      <trkpt lat="41.900265" lon="2.528203">
        <ele>882.123</ele>
        <time>2021-05-26T18:37:31Z</time>
      </trkpt>
      <trkpt lat="41.900285" lon="2.528203">
        <ele>881.883</ele>
        <time>2021-05-26T18:37:32Z</time>
      </trkpt>
      <trkpt lat="41.900303" lon="2.528197">
        <ele>881.749</ele>
        <time>2021-05-26T18:37:33Z</time>
      </trkpt>
      <trkpt lat="41.900321" lon="2.528199">
        <ele>881.474</ele>
        <time>2021-05-26T18:37:34Z</time>
      </trkpt>
      <trkpt lat="41.900360" lon="2.528201">
        <ele>880.981</ele>
        <time>2021-05-26T18:37:36Z</time>
      </trkpt>
      <trkpt lat="41.900380" lon="2.528201">
        <ele>880.761</ele>
        <time>2021-05-26T18:37:37Z</time>
      </trkpt>
      <trkpt lat="41.900415" lon="2.528205">
        <ele>880.217</ele>
        <time>2021-05-26T18:37:39Z</time>
      </trkpt>
      <trkpt lat="41.900436" lon="2.528210">
        <ele>879.908</ele>
        <time>2021-05-26T18:37:40Z</time>
      </trkpt>
      <trkpt lat="41.900454" lon="2.528219">
        <ele>879.725</ele>
        <time>2021-05-26T18:37:41Z</time>
      </trkpt>
      <trkpt lat="41.900482" lon="2.528229">
        <ele>879.362</ele>
        <time>2021-05-26T18:37:42Z</time>
      </trkpt>
      <trkpt lat="41.900507" lon="2.528238">
        <ele>878.979</ele>
        <time>2021-05-26T18:37:43Z</time>
      </trkpt>
      <trkpt lat="41.900531" lon="2.528253">
        <ele>878.673</ele>
        <time>2021-05-26T18:37:44Z</time>
      </trkpt>
      <trkpt lat="41.900551" lon="2.528269">
        <ele>878.388</ele>
        <time>2021-05-26T18:37:45Z</time>
      </trkpt>
      <trkpt lat="41.900567" lon="2.528282">
        <ele>878.088</ele>
        <time>2021-05-26T18:37:46Z</time>
      </trkpt>
      <trkpt lat="41.900582" lon="2.528297">
        <ele>877.764</ele>
        <time>2021-05-26T18:37:47Z</time>
      </trkpt>
      <trkpt lat="41.900600" lon="2.528308">
        <ele>877.339</ele>
        <time>2021-05-26T18:37:48Z</time>
      </trkpt>
      <trkpt lat="41.900620" lon="2.528326">
        <ele>876.962</ele>
        <time>2021-05-26T18:37:49Z</time>
      </trkpt>
      <trkpt lat="41.900638" lon="2.528339">
        <ele>876.683</ele>
        <time>2021-05-26T18:37:50Z</time>
      </trkpt>
      <trkpt lat="41.900663" lon="2.528353">
        <ele>876.311</ele>
        <time>2021-05-26T18:37:51Z</time>
      </trkpt>
      <trkpt lat="41.900687" lon="2.528375">
        <ele>876.108</ele>
        <time>2021-05-26T18:37:52Z</time>
      </trkpt>
      <trkpt lat="41.900709" lon="2.528396">
        <ele>875.953</ele>
        <time>2021-05-26T18:37:53Z</time>
      </trkpt>
      <trkpt lat="41.900732" lon="2.528418">
        <ele>875.710</ele>
        <time>2021-05-26T18:37:54Z</time>
      </trkpt>
      <trkpt lat="41.900756" lon="2.528438">
        <ele>875.517</ele>
        <time>2021-05-26T18:37:55Z</time>
      </trkpt>
      <trkpt lat="41.900779" lon="2.528456">
        <ele>875.311</ele>
        <time>2021-05-26T18:37:56Z</time>
      </trkpt>
      <trkpt lat="41.900797" lon="2.528478">
        <ele>875.266</ele>
        <time>2021-05-26T18:37:57Z</time>
      </trkpt>
      <trkpt lat="41.900819" lon="2.528506">
        <ele>875.136</ele>
        <time>2021-05-26T18:37:58Z</time>
      </trkpt>
      <trkpt lat="41.900838" lon="2.528532">
        <ele>875.022</ele>
        <time>2021-05-26T18:37:59Z</time>
      </trkpt>
      <trkpt lat="41.900857" lon="2.528554">
        <ele>874.827</ele>
        <time>2021-05-26T18:38:00Z</time>
      </trkpt>
      <trkpt lat="41.900874" lon="2.528572">
        <ele>874.643</ele>
        <time>2021-05-26T18:38:01Z</time>
      </trkpt>
      <trkpt lat="41.900891" lon="2.528588">
        <ele>874.364</ele>
        <time>2021-05-26T18:38:02Z</time>
      </trkpt>
      <trkpt lat="41.900912" lon="2.528599">
        <ele>873.910</ele>
        <time>2021-05-26T18:38:03Z</time>
      </trkpt>
      <trkpt lat="41.900944" lon="2.528615">
        <ele>873.308</ele>
        <time>2021-05-26T18:38:05Z</time>
      </trkpt>
      <trkpt lat="41.900980" lon="2.528628">
        <ele>872.511</ele>
        <time>2021-05-26T18:38:07Z</time>
      </trkpt>
      <trkpt lat="41.900997" lon="2.528638">
        <ele>872.388</ele>
        <time>2021-05-26T18:38:08Z</time>
      </trkpt>
      <trkpt lat="41.901014" lon="2.528647">
        <ele>872.055</ele>
        <time>2021-05-26T18:38:09Z</time>
      </trkpt>
      <trkpt lat="41.901033" lon="2.528657">
        <ele>871.649</ele>
        <time>2021-05-26T18:38:10Z</time>
      </trkpt>
      <trkpt lat="41.901050" lon="2.528670">
        <ele>871.484</ele>
        <time>2021-05-26T18:38:11Z</time>
      </trkpt>
      <trkpt lat="41.901077" lon="2.528693">
        <ele>871.024</ele>
        <time>2021-05-26T18:38:13Z</time>
      </trkpt>
      <trkpt lat="41.901094" lon="2.528702">
        <ele>870.780</ele>
        <time>2021-05-26T18:38:14Z</time>
      </trkpt>
      <trkpt lat="41.901111" lon="2.528713">
        <ele>870.535</ele>
        <time>2021-05-26T18:38:15Z</time>
      </trkpt>
      <trkpt lat="41.901129" lon="2.528724">
        <ele>870.287</ele>
        <time>2021-05-26T18:38:16Z</time>
      </trkpt>
      <trkpt lat="41.901147" lon="2.528736">
        <ele>869.942</ele>
        <time>2021-05-26T18:38:17Z</time>
      </trkpt>
      <trkpt lat="41.901166" lon="2.528744">
        <ele>869.526</ele>
        <time>2021-05-26T18:38:18Z</time>
      </trkpt>
      <trkpt lat="41.901188" lon="2.528756">
        <ele>869.108</ele>
        <time>2021-05-26T18:38:19Z</time>
      </trkpt>
      <trkpt lat="41.901204" lon="2.528768">
        <ele>868.945</ele>
        <time>2021-05-26T18:38:20Z</time>
      </trkpt>
      <trkpt lat="41.901221" lon="2.528780">
        <ele>868.792</ele>
        <time>2021-05-26T18:38:21Z</time>
      </trkpt>
      <trkpt lat="41.901236" lon="2.528799">
        <ele>868.679</ele>
        <time>2021-05-26T18:38:22Z</time>
      </trkpt>
      <trkpt lat="41.901258" lon="2.528823">
        <ele>868.443</ele>
        <time>2021-05-26T18:38:23Z</time>
      </trkpt>
      <trkpt lat="41.901281" lon="2.528845">
        <ele>868.158</ele>
        <time>2021-05-26T18:38:24Z</time>
      </trkpt>
      <trkpt lat="41.901306" lon="2.528859">
        <ele>867.758</ele>
        <time>2021-05-26T18:38:25Z</time>
      </trkpt>
      <trkpt lat="41.901328" lon="2.528871">
        <ele>867.324</ele>
        <time>2021-05-26T18:38:26Z</time>
      </trkpt>
      <trkpt lat="41.901349" lon="2.528883">
        <ele>866.929</ele>
        <time>2021-05-26T18:38:27Z</time>
      </trkpt>
      <trkpt lat="41.901365" lon="2.528895">
        <ele>866.782</ele>
        <time>2021-05-26T18:38:28Z</time>
      </trkpt>
      <trkpt lat="41.901383" lon="2.528907">
        <ele>866.443</ele>
        <time>2021-05-26T18:38:29Z</time>
      </trkpt>
      <trkpt lat="41.901403" lon="2.528913">
        <ele>865.917</ele>
        <time>2021-05-26T18:38:30Z</time>
      </trkpt>
      <trkpt lat="41.901429" lon="2.528921">
        <ele>865.308</ele>
        <time>2021-05-26T18:38:31Z</time>
      </trkpt>
      <trkpt lat="41.901461" lon="2.528915">
        <ele>864.285</ele>
        <time>2021-05-26T18:38:32Z</time>
      </trkpt>
      <trkpt lat="41.901488" lon="2.528912">
        <ele>863.472</ele>
        <time>2021-05-26T18:38:33Z</time>
      </trkpt>
      <trkpt lat="41.901514" lon="2.528922">
        <ele>862.859</ele>
        <time>2021-05-26T18:38:34Z</time>
      </trkpt>
      <trkpt lat="41.901535" lon="2.528926">
        <ele>862.283</ele>
        <time>2021-05-26T18:38:35Z</time>
      </trkpt>
      <trkpt lat="41.901560" lon="2.528927">
        <ele>861.518</ele>
        <time>2021-05-26T18:38:36Z</time>
      </trkpt>
      <trkpt lat="41.901598" lon="2.528923">
        <ele>860.378</ele>
        <time>2021-05-26T18:38:38Z</time>
      </trkpt>
      <trkpt lat="41.901618" lon="2.528918">
        <ele>859.624</ele>
        <time>2021-05-26T18:38:39Z</time>
      </trkpt>
      <trkpt lat="41.901653" lon="2.528909">
        <ele>858.579</ele>
        <time>2021-05-26T18:38:42Z</time>
      </trkpt>
      <trkpt lat="41.901673" lon="2.528914">
        <ele>858.167</ele>
        <time>2021-05-26T18:39:26Z</time>
      </trkpt>
      <trkpt lat="41.901696" lon="2.528937">
        <ele>857.981</ele>
        <time>2021-05-26T18:39:29Z</time>
      </trkpt>
      <trkpt lat="41.901727" lon="2.528952">
        <ele>857.519</ele>
        <time>2021-05-26T18:39:30Z</time>
      </trkpt>
      <trkpt lat="41.901744" lon="2.528961">
        <ele>857.308</ele>
        <time>2021-05-26T18:39:31Z</time>
      </trkpt>
      <trkpt lat="41.901769" lon="2.528980">
        <ele>857.173</ele>
        <time>2021-05-26T18:39:33Z</time>
      </trkpt>
      <trkpt lat="41.901790" lon="2.529006">
        <ele>856.940</ele>
        <time>2021-05-26T18:39:35Z</time>
      </trkpt>
      <trkpt lat="41.901808" lon="2.529041">
        <ele>856.877</ele>
        <time>2021-05-26T18:39:37Z</time>
      </trkpt>
      <trkpt lat="41.901824" lon="2.529059">
        <ele>856.661</ele>
        <time>2021-05-26T18:39:38Z</time>
      </trkpt>
      <trkpt lat="41.901842" lon="2.529073">
        <ele>856.456</ele>
        <time>2021-05-26T18:39:39Z</time>
      </trkpt>
      <trkpt lat="41.901874" lon="2.529093">
        <ele>855.976</ele>
        <time>2021-05-26T18:39:41Z</time>
      </trkpt>
      <trkpt lat="41.901910" lon="2.529102">
        <ele>855.482</ele>
        <time>2021-05-26T18:39:43Z</time>
      </trkpt>
      <trkpt lat="41.901936" lon="2.529111">
        <ele>854.977</ele>
        <time>2021-05-26T18:39:45Z</time>
      </trkpt>
      <trkpt lat="41.901974" lon="2.529120">
        <ele>854.635</ele>
        <time>2021-05-26T18:39:47Z</time>
      </trkpt>
      <trkpt lat="41.902011" lon="2.529138">
        <ele>854.486</ele>
        <time>2021-05-26T18:39:49Z</time>
      </trkpt>
      <trkpt lat="41.902032" lon="2.529144">
        <ele>854.314</ele>
        <time>2021-05-26T18:39:50Z</time>
      </trkpt>
      <trkpt lat="41.902050" lon="2.529151">
        <ele>854.208</ele>
        <time>2021-05-26T18:39:51Z</time>
      </trkpt>
      <trkpt lat="41.902066" lon="2.529163">
        <ele>854.150</ele>
        <time>2021-05-26T18:39:52Z</time>
      </trkpt>
      <trkpt lat="41.902085" lon="2.529181">
        <ele>853.817</ele>
        <time>2021-05-26T18:39:53Z</time>
      </trkpt>
      <trkpt lat="41.902106" lon="2.529192">
        <ele>853.564</ele>
        <time>2021-05-26T18:39:54Z</time>
      </trkpt>
      <trkpt lat="41.902123" lon="2.529206">
        <ele>853.278</ele>
        <time>2021-05-26T18:39:55Z</time>
      </trkpt>
      <trkpt lat="41.902139" lon="2.529226">
        <ele>852.913</ele>
        <time>2021-05-26T18:39:56Z</time>
      </trkpt>
      <trkpt lat="41.902156" lon="2.529248">
        <ele>852.433</ele>
        <time>2021-05-26T18:39:57Z</time>
      </trkpt>
      <trkpt lat="41.902174" lon="2.529273">
        <ele>851.929</ele>
        <time>2021-05-26T18:39:58Z</time>
      </trkpt>
      <trkpt lat="41.902196" lon="2.529297">
        <ele>851.424</ele>
        <time>2021-05-26T18:39:59Z</time>
      </trkpt>
      <trkpt lat="41.902214" lon="2.529314">
        <ele>851.084</ele>
        <time>2021-05-26T18:40:00Z</time>
      </trkpt>
      <trkpt lat="41.902236" lon="2.529326">
        <ele>850.507</ele>
        <time>2021-05-26T18:40:01Z</time>
      </trkpt>
      <trkpt lat="41.902257" lon="2.529341">
        <ele>850.017</ele>
        <time>2021-05-26T18:40:02Z</time>
      </trkpt>
      <trkpt lat="41.902279" lon="2.529359">
        <ele>849.408</ele>
        <time>2021-05-26T18:40:03Z</time>
      </trkpt>
      <trkpt lat="41.902297" lon="2.529376">
        <ele>849.055</ele>
        <time>2021-05-26T18:40:04Z</time>
      </trkpt>
      <trkpt lat="41.902319" lon="2.529410">
        <ele>848.372</ele>
        <time>2021-05-26T18:40:06Z</time>
      </trkpt>
      <trkpt lat="41.902334" lon="2.529426">
        <ele>848.069</ele>
        <time>2021-05-26T18:40:07Z</time>
      </trkpt>
      <trkpt lat="41.902351" lon="2.529443">
        <ele>847.683</ele>
        <time>2021-05-26T18:40:08Z</time>
      </trkpt>
      <trkpt lat="41.902368" lon="2.529456">
        <ele>847.318</ele>
        <time>2021-05-26T18:40:09Z</time>
      </trkpt>
      <trkpt lat="41.902386" lon="2.529466">
        <ele>847.018</ele>
        <time>2021-05-26T18:40:10Z</time>
      </trkpt>
      <trkpt lat="41.902415" lon="2.529487">
        <ele>846.424</ele>
        <time>2021-05-26T18:40:12Z</time>
      </trkpt>
      <trkpt lat="41.902439" lon="2.529507">
        <ele>845.949</ele>
        <time>2021-05-26T18:40:14Z</time>
      </trkpt>
      <trkpt lat="41.902467" lon="2.529518">
        <ele>845.598</ele>
        <time>2021-05-26T18:40:16Z</time>
      </trkpt>
      <trkpt lat="41.902501" lon="2.529538">
        <ele>845.015</ele>
        <time>2021-05-26T18:40:18Z</time>
      </trkpt>
      <trkpt lat="41.902521" lon="2.529539">
        <ele>844.726</ele>
        <time>2021-05-26T18:40:19Z</time>
      </trkpt>
      <trkpt lat="41.902550" lon="2.529553">
        <ele>844.208</ele>
        <time>2021-05-26T18:40:21Z</time>
      </trkpt>
      <trkpt lat="41.902569" lon="2.529574">
        <ele>843.756</ele>
        <time>2021-05-26T18:40:23Z</time>
      </trkpt>
      <trkpt lat="41.902572" lon="2.529603">
        <ele>843.413</ele>
        <time>2021-05-26T18:40:25Z</time>
      </trkpt>
      <trkpt lat="41.902566" lon="2.529633">
        <ele>843.260</ele>
        <time>2021-05-26T18:40:27Z</time>
      </trkpt>
      <trkpt lat="41.902557" lon="2.529663">
        <ele>843.034</ele>
        <time>2021-05-26T18:40:29Z</time>
      </trkpt>
      <trkpt lat="41.902543" lon="2.529696">
        <ele>842.869</ele>
        <time>2021-05-26T18:40:31Z</time>
      </trkpt>
      <trkpt lat="41.902539" lon="2.529728">
        <ele>842.559</ele>
        <time>2021-05-26T18:40:33Z</time>
      </trkpt>
      <trkpt lat="41.902527" lon="2.529760">
        <ele>842.095</ele>
        <time>2021-05-26T18:40:35Z</time>
      </trkpt>
      <trkpt lat="41.902509" lon="2.529780">
        <ele>841.930</ele>
        <time>2021-05-26T18:40:37Z</time>
      </trkpt>
      <trkpt lat="41.902485" lon="2.529794">
        <ele>841.883</ele>
        <time>2021-05-26T18:40:39Z</time>
      </trkpt>
      <trkpt lat="41.902455" lon="2.529816">
        <ele>841.625</ele>
        <time>2021-05-26T18:40:41Z</time>
      </trkpt>
      <trkpt lat="41.902423" lon="2.529838">
        <ele>841.417</ele>
        <time>2021-05-26T18:40:43Z</time>
      </trkpt>
      <trkpt lat="41.902405" lon="2.529843">
        <ele>841.408</ele>
        <time>2021-05-26T18:40:44Z</time>
      </trkpt>
      <trkpt lat="41.902378" lon="2.529846">
        <ele>841.525</ele>
        <time>2021-05-26T18:40:46Z</time>
      </trkpt>
      <trkpt lat="41.902358" lon="2.529855">
        <ele>841.432</ele>
        <time>2021-05-26T18:40:48Z</time>
      </trkpt>
      <trkpt lat="41.902332" lon="2.529858">
        <ele>841.529</ele>
        <time>2021-05-26T18:40:50Z</time>
      </trkpt>
      <trkpt lat="41.902313" lon="2.529871">
        <ele>841.363</ele>
        <time>2021-05-26T18:40:53Z</time>
      </trkpt>
      <trkpt lat="41.902287" lon="2.529878">
        <ele>841.318</ele>
        <time>2021-05-26T18:40:55Z</time>
      </trkpt>
      <trkpt lat="41.902265" lon="2.529879">
        <ele>841.448</ele>
        <time>2021-05-26T18:40:57Z</time>
      </trkpt>
      <trkpt lat="41.902236" lon="2.529898">
        <ele>841.194</ele>
        <time>2021-05-26T18:40:59Z</time>
      </trkpt>
      <trkpt lat="41.902225" lon="2.529919">
        <ele>840.739</ele>
        <time>2021-05-26T18:41:00Z</time>
      </trkpt>
      <trkpt lat="41.902210" lon="2.529940">
        <ele>840.581</ele>
        <time>2021-05-26T18:41:02Z</time>
      </trkpt>
      <trkpt lat="41.902193" lon="2.529960">
        <ele>840.361</ele>
        <time>2021-05-26T18:41:04Z</time>
      </trkpt>
      <trkpt lat="41.902175" lon="2.529964">
        <ele>840.517</ele>
        <time>2021-05-26T18:41:06Z</time>
      </trkpt>
      <trkpt lat="41.902162" lon="2.529982">
        <ele>840.308</ele>
        <time>2021-05-26T18:41:08Z</time>
      </trkpt>
      <trkpt lat="41.902151" lon="2.530007">
        <ele>839.835</ele>
        <time>2021-05-26T18:41:10Z</time>
      </trkpt>
      <trkpt lat="41.902160" lon="2.530038">
        <ele>838.942</ele>
        <time>2021-05-26T18:41:13Z</time>
      </trkpt>
      <trkpt lat="41.902184" lon="2.530049">
        <ele>838.339</ele>
        <time>2021-05-26T18:41:15Z</time>
      </trkpt>
      <trkpt lat="41.902205" lon="2.530055">
        <ele>837.933</ele>
        <time>2021-05-26T18:41:17Z</time>
      </trkpt>
      <trkpt lat="41.902229" lon="2.530053">
        <ele>837.678</ele>
        <time>2021-05-26T18:41:19Z</time>
      </trkpt>
      <trkpt lat="41.902248" lon="2.530054">
        <ele>837.658</ele>
        <time>2021-05-26T18:41:21Z</time>
      </trkpt>
      <trkpt lat="41.902267" lon="2.530061">
        <ele>837.474</ele>
        <time>2021-05-26T18:41:23Z</time>
      </trkpt>
      <trkpt lat="41.902251" lon="2.530085">
        <ele>836.829</ele>
        <time>2021-05-26T18:41:27Z</time>
      </trkpt>
      <trkpt lat="41.902245" lon="2.530111">
        <ele>836.277</ele>
        <time>2021-05-26T18:41:28Z</time>
      </trkpt>
      <trkpt lat="41.902237" lon="2.530133">
        <ele>835.661</ele>
        <time>2021-05-26T18:41:31Z</time>
      </trkpt>
      <trkpt lat="41.902246" lon="2.530159">
        <ele>835.027</ele>
        <time>2021-05-26T18:41:32Z</time>
      </trkpt>
      <trkpt lat="41.902268" lon="2.530180">
        <ele>834.508</ele>
        <time>2021-05-26T18:41:34Z</time>
      </trkpt>
      <trkpt lat="41.902251" lon="2.530197">
        <ele>834.144</ele>
        <time>2021-05-26T18:41:38Z</time>
      </trkpt>
      <trkpt lat="41.902235" lon="2.530219">
        <ele>833.531</ele>
        <time>2021-05-26T18:41:39Z</time>
      </trkpt>
      <trkpt lat="41.902216" lon="2.530242">
        <ele>833.028</ele>
        <time>2021-05-26T18:41:41Z</time>
      </trkpt>
      <trkpt lat="41.902207" lon="2.530272">
        <ele>832.472</ele>
        <time>2021-05-26T18:41:43Z</time>
      </trkpt>
      <trkpt lat="41.902203" lon="2.530339">
        <ele>831.837</ele>
        <time>2021-05-26T18:41:47Z</time>
      </trkpt>
      <trkpt lat="41.902195" lon="2.530395">
        <ele>831.427</ele>
        <time>2021-05-26T18:41:50Z</time>
      </trkpt>
      <trkpt lat="41.902191" lon="2.530420">
        <ele>831.393</ele>
        <time>2021-05-26T18:41:51Z</time>
      </trkpt>
      <trkpt lat="41.902198" lon="2.530463">
        <ele>830.838</ele>
        <time>2021-05-26T18:41:53Z</time>
      </trkpt>
      <trkpt lat="41.902199" lon="2.530488">
        <ele>830.662</ele>
        <time>2021-05-26T18:41:54Z</time>
      </trkpt>
      <trkpt lat="41.902204" lon="2.530533">
        <ele>830.283</ele>
        <time>2021-05-26T18:41:56Z</time>
      </trkpt>
      <trkpt lat="41.902205" lon="2.530557">
        <ele>830.111</ele>
        <time>2021-05-26T18:41:57Z</time>
      </trkpt>
      <trkpt lat="41.902206" lon="2.530599">
        <ele>829.908</ele>
        <time>2021-05-26T18:41:59Z</time>
      </trkpt>
      <trkpt lat="41.902210" lon="2.530629">
        <ele>829.873</ele>
        <time>2021-05-26T18:42:01Z</time>
      </trkpt>
      <trkpt lat="41.902216" lon="2.530657">
        <ele>829.680</ele>
        <time>2021-05-26T18:42:04Z</time>
      </trkpt>
      <trkpt lat="41.902224" lon="2.530687">
        <ele>829.577</ele>
        <time>2021-05-26T18:42:06Z</time>
      </trkpt>
      <trkpt lat="41.902224" lon="2.530717">
        <ele>829.481</ele>
        <time>2021-05-26T18:42:08Z</time>
      </trkpt>
      <trkpt lat="41.902235" lon="2.530751">
        <ele>829.426</ele>
        <time>2021-05-26T18:42:10Z</time>
      </trkpt>
      <trkpt lat="41.902255" lon="2.530780">
        <ele>829.656</ele>
        <time>2021-05-26T18:42:12Z</time>
      </trkpt>
      <trkpt lat="41.902273" lon="2.530805">
        <ele>829.872</ele>
        <time>2021-05-26T18:42:14Z</time>
      </trkpt>
      <trkpt lat="41.902290" lon="2.530841">
        <ele>830.017</ele>
        <time>2021-05-26T18:42:16Z</time>
      </trkpt>
      <trkpt lat="41.902300" lon="2.530878">
        <ele>830.376</ele>
        <time>2021-05-26T18:42:18Z</time>
      </trkpt>
      <trkpt lat="41.902313" lon="2.530907">
        <ele>830.790</ele>
        <time>2021-05-26T18:42:20Z</time>
      </trkpt>
      <trkpt lat="41.902320" lon="2.530939">
        <ele>830.919</ele>
        <time>2021-05-26T18:42:22Z</time>
      </trkpt>
      <trkpt lat="41.902329" lon="2.530970">
        <ele>831.208</ele>
        <time>2021-05-26T18:42:24Z</time>
      </trkpt>
      <trkpt lat="41.902321" lon="2.530992">
        <ele>831.214</ele>
        <time>2021-05-26T18:42:30Z</time>
      </trkpt>
      <trkpt lat="41.902340" lon="2.531012">
        <ele>831.671</ele>
        <time>2021-05-26T18:42:32Z</time>
      </trkpt>
      <trkpt lat="41.902364" lon="2.531033">
        <ele>832.118</ele>
        <time>2021-05-26T18:42:34Z</time>
      </trkpt>
      <trkpt lat="41.902386" lon="2.531055">
        <ele>832.672</ele>
        <time>2021-05-26T18:42:36Z</time>
      </trkpt>
      <trkpt lat="41.902408" lon="2.531077">
        <ele>833.137</ele>
        <time>2021-05-26T18:42:38Z</time>
      </trkpt>
      <trkpt lat="41.902423" lon="2.531103">
        <ele>833.627</ele>
        <time>2021-05-26T18:42:40Z</time>
      </trkpt>
      <trkpt lat="41.902431" lon="2.531132">
        <ele>833.733</ele>
        <time>2021-05-26T18:42:42Z</time>
      </trkpt>
      <trkpt lat="41.902441" lon="2.531159">
        <ele>833.838</ele>
        <time>2021-05-26T18:42:44Z</time>
      </trkpt>
      <trkpt lat="41.902452" lon="2.531193">
        <ele>833.864</ele>
        <time>2021-05-26T18:42:46Z</time>
      </trkpt>
      <trkpt lat="41.902468" lon="2.531224">
        <ele>834.006</ele>
        <time>2021-05-26T18:42:48Z</time>
      </trkpt>
      <trkpt lat="41.902479" lon="2.531257">
        <ele>834.116</ele>
        <time>2021-05-26T18:42:50Z</time>
      </trkpt>
      <trkpt lat="41.902493" lon="2.531285">
        <ele>834.208</ele>
        <time>2021-05-26T18:42:52Z</time>
      </trkpt>
      <trkpt lat="41.902505" lon="2.531312">
        <ele>834.473</ele>
        <time>2021-05-26T18:42:54Z</time>
      </trkpt>
      <trkpt lat="41.902513" lon="2.531335">
        <ele>834.410</ele>
        <time>2021-05-26T18:42:56Z</time>
      </trkpt>
      <trkpt lat="41.902520" lon="2.531361">
        <ele>834.547</ele>
        <time>2021-05-26T18:42:58Z</time>
      </trkpt>
      <trkpt lat="41.902532" lon="2.531385">
        <ele>834.671</ele>
        <time>2021-05-26T18:43:00Z</time>
      </trkpt>
      <trkpt lat="41.902546" lon="2.531413">
        <ele>834.936</ele>
        <time>2021-05-26T18:43:02Z</time>
      </trkpt>
      <trkpt lat="41.902560" lon="2.531430">
        <ele>835.246</ele>
        <time>2021-05-26T18:43:04Z</time>
      </trkpt>
      <trkpt lat="41.902568" lon="2.531454">
        <ele>835.342</ele>
        <time>2021-05-26T18:43:07Z</time>
      </trkpt>
      <trkpt lat="41.902589" lon="2.531463">
        <ele>835.787</ele>
        <time>2021-05-26T18:43:10Z</time>
      </trkpt>
      <trkpt lat="41.902617" lon="2.531479">
        <ele>836.236</ele>
        <time>2021-05-26T18:43:12Z</time>
      </trkpt>
      <trkpt lat="41.902641" lon="2.531491">
        <ele>836.517</ele>
        <time>2021-05-26T18:43:14Z</time>
      </trkpt>
      <trkpt lat="41.902658" lon="2.531503">
        <ele>836.818</ele>
        <time>2021-05-26T18:43:16Z</time>
      </trkpt>
      <trkpt lat="41.902677" lon="2.531524">
        <ele>837.108</ele>
        <time>2021-05-26T18:43:19Z</time>
      </trkpt>
      <trkpt lat="41.902699" lon="2.531540">
        <ele>837.350</ele>
        <time>2021-05-26T18:43:21Z</time>
      </trkpt>
      <trkpt lat="41.902725" lon="2.531550">
        <ele>837.767</ele>
        <time>2021-05-26T18:43:23Z</time>
      </trkpt>
      <trkpt lat="41.902754" lon="2.531552">
        <ele>838.114</ele>
        <time>2021-05-26T18:43:25Z</time>
      </trkpt>
      <trkpt lat="41.902776" lon="2.531557">
        <ele>838.438</ele>
        <time>2021-05-26T18:43:27Z</time>
      </trkpt>
      <trkpt lat="41.902797" lon="2.531564">
        <ele>838.863</ele>
        <time>2021-05-26T18:43:29Z</time>
      </trkpt>
      <trkpt lat="41.902821" lon="2.531569">
        <ele>839.313</ele>
        <time>2021-05-26T18:43:31Z</time>
      </trkpt>
      <trkpt lat="41.902843" lon="2.531574">
        <ele>839.799</ele>
        <time>2021-05-26T18:43:33Z</time>
      </trkpt>
      <trkpt lat="41.902863" lon="2.531585">
        <ele>840.144</ele>
        <time>2021-05-26T18:43:35Z</time>
      </trkpt>
      <trkpt lat="41.902883" lon="2.531590">
        <ele>840.559</ele>
        <time>2021-05-26T18:43:37Z</time>
      </trkpt>
      <trkpt lat="41.902905" lon="2.531596">
        <ele>841.003</ele>
        <time>2021-05-26T18:43:39Z</time>
      </trkpt>
      <trkpt lat="41.902927" lon="2.531617">
        <ele>841.423</ele>
        <time>2021-05-26T18:43:42Z</time>
      </trkpt>
      <trkpt lat="41.902946" lon="2.531641">
        <ele>841.708</ele>
        <time>2021-05-26T18:43:44Z</time>
      </trkpt>
      <trkpt lat="41.902968" lon="2.531663">
        <ele>842.122</ele>
        <time>2021-05-26T18:43:46Z</time>
      </trkpt>
      <trkpt lat="41.902984" lon="2.531686">
        <ele>842.419</ele>
        <time>2021-05-26T18:43:48Z</time>
      </trkpt>
      <trkpt lat="41.902999" lon="2.531712">
        <ele>842.796</ele>
        <time>2021-05-26T18:43:50Z</time>
      </trkpt>
      <trkpt lat="41.903014" lon="2.531734">
        <ele>842.980</ele>
        <time>2021-05-26T18:43:52Z</time>
      </trkpt>
      <trkpt lat="41.903032" lon="2.531752">
        <ele>843.275</ele>
        <time>2021-05-26T18:43:54Z</time>
      </trkpt>
      <trkpt lat="41.903048" lon="2.531774">
        <ele>843.555</ele>
        <time>2021-05-26T18:43:56Z</time>
      </trkpt>
      <trkpt lat="41.903066" lon="2.531795">
        <ele>843.841</ele>
        <time>2021-05-26T18:43:58Z</time>
      </trkpt>
      <trkpt lat="41.903086" lon="2.531818">
        <ele>844.276</ele>
        <time>2021-05-26T18:44:00Z</time>
      </trkpt>
      <trkpt lat="41.903106" lon="2.531841">
        <ele>844.511</ele>
        <time>2021-05-26T18:44:02Z</time>
      </trkpt>
      <trkpt lat="41.903128" lon="2.531857">
        <ele>845.021</ele>
        <time>2021-05-26T18:44:04Z</time>
      </trkpt>
      <trkpt lat="41.903151" lon="2.531876">
        <ele>845.403</ele>
        <time>2021-05-26T18:44:06Z</time>
      </trkpt>
      <trkpt lat="41.903174" lon="2.531894">
        <ele>845.808</ele>
        <time>2021-05-26T18:44:08Z</time>
      </trkpt>
      <trkpt lat="41.903199" lon="2.531906">
        <ele>846.378</ele>
        <time>2021-05-26T18:44:10Z</time>
      </trkpt>
      <trkpt lat="41.903223" lon="2.531917">
        <ele>846.815</ele>
        <time>2021-05-26T18:44:12Z</time>
      </trkpt>
      <trkpt lat="41.903244" lon="2.531933">
        <ele>847.142</ele>
        <time>2021-05-26T18:44:14Z</time>
      </trkpt>
      <trkpt lat="41.903268" lon="2.531943">
        <ele>847.656</ele>
        <time>2021-05-26T18:44:16Z</time>
      </trkpt>
      <trkpt lat="41.903292" lon="2.531951">
        <ele>848.141</ele>
        <time>2021-05-26T18:44:18Z</time>
      </trkpt>
      <trkpt lat="41.903316" lon="2.531959">
        <ele>848.681</ele>
        <time>2021-05-26T18:44:20Z</time>
      </trkpt>
      <trkpt lat="41.903336" lon="2.531967">
        <ele>849.017</ele>
        <time>2021-05-26T18:44:22Z</time>
      </trkpt>
      <trkpt lat="41.903359" lon="2.531972">
        <ele>849.412</ele>
        <time>2021-05-26T18:44:24Z</time>
      </trkpt>
      <trkpt lat="41.903380" lon="2.531979">
        <ele>849.897</ele>
        <time>2021-05-26T18:44:26Z</time>
      </trkpt>
      <trkpt lat="41.903406" lon="2.531985">
        <ele>850.223</ele>
        <time>2021-05-26T18:44:28Z</time>
      </trkpt>
      <trkpt lat="41.903429" lon="2.531993">
        <ele>850.625</ele>
        <time>2021-05-26T18:44:30Z</time>
      </trkpt>
      <trkpt lat="41.903451" lon="2.532000">
        <ele>850.908</ele>
        <time>2021-05-26T18:44:32Z</time>
      </trkpt>
      <trkpt lat="41.903474" lon="2.532009">
        <ele>851.356</ele>
        <time>2021-05-26T18:44:34Z</time>
      </trkpt>
      <trkpt lat="41.903496" lon="2.532019">
        <ele>851.643</ele>
        <time>2021-05-26T18:44:36Z</time>
      </trkpt>
      <trkpt lat="41.903519" lon="2.532030">
        <ele>851.980</ele>
        <time>2021-05-26T18:44:38Z</time>
      </trkpt>
      <trkpt lat="41.903540" lon="2.532043">
        <ele>852.264</ele>
        <time>2021-05-26T18:44:41Z</time>
      </trkpt>
      <trkpt lat="41.903560" lon="2.532047">
        <ele>852.549</ele>
        <time>2021-05-26T18:44:43Z</time>
      </trkpt>
      <trkpt lat="41.903578" lon="2.532046">
        <ele>852.819</ele>
        <time>2021-05-26T18:44:45Z</time>
      </trkpt>
      <trkpt lat="41.903599" lon="2.532054">
        <ele>853.095</ele>
        <time>2021-05-26T18:44:47Z</time>
      </trkpt>
      <trkpt lat="41.903623" lon="2.532060">
        <ele>853.270</ele>
        <time>2021-05-26T18:44:49Z</time>
      </trkpt>
      <trkpt lat="41.903648" lon="2.532065">
        <ele>853.476</ele>
        <time>2021-05-26T18:44:51Z</time>
      </trkpt>
      <trkpt lat="41.903667" lon="2.532075">
        <ele>853.590</ele>
        <time>2021-05-26T18:44:53Z</time>
      </trkpt>
      <trkpt lat="41.903689" lon="2.532080">
        <ele>853.619</ele>
        <time>2021-05-26T18:44:55Z</time>
      </trkpt>
      <trkpt lat="41.903710" lon="2.532080">
        <ele>853.708</ele>
        <time>2021-05-26T18:44:57Z</time>
      </trkpt>
      <trkpt lat="41.903730" lon="2.532084">
        <ele>853.994</ele>
        <time>2021-05-26T18:45:00Z</time>
      </trkpt>
      <trkpt lat="41.903748" lon="2.532082">
        <ele>854.011</ele>
        <time>2021-05-26T18:45:01Z</time>
      </trkpt>
      <trkpt lat="41.903775" lon="2.532084">
        <ele>854.298</ele>
        <time>2021-05-26T18:45:04Z</time>
      </trkpt>
      <trkpt lat="41.903800" lon="2.532082">
        <ele>854.482</ele>
        <time>2021-05-26T18:45:06Z</time>
      </trkpt>
      <trkpt lat="41.903820" lon="2.532068">
        <ele>854.547</ele>
        <time>2021-05-26T18:45:08Z</time>
      </trkpt>
      <trkpt lat="41.903839" lon="2.532060">
        <ele>854.747</ele>
        <time>2021-05-26T18:45:10Z</time>
      </trkpt>
      <trkpt lat="41.903865" lon="2.532050">
        <ele>854.813</ele>
        <time>2021-05-26T18:45:12Z</time>
      </trkpt>
      <trkpt lat="41.903887" lon="2.532041">
        <ele>855.038</ele>
        <time>2021-05-26T18:45:14Z</time>
      </trkpt>
      <trkpt lat="41.903919" lon="2.532035">
        <ele>855.197</ele>
        <time>2021-05-26T18:45:16Z</time>
      </trkpt>
      <trkpt lat="41.903942" lon="2.532034">
        <ele>855.323</ele>
        <time>2021-05-26T18:45:18Z</time>
      </trkpt>
      <trkpt lat="41.903964" lon="2.532029">
        <ele>855.425</ele>
        <time>2021-05-26T18:45:20Z</time>
      </trkpt>
      <trkpt lat="41.903987" lon="2.532022">
        <ele>855.508</ele>
        <time>2021-05-26T18:45:22Z</time>
      </trkpt>
      <trkpt lat="41.904008" lon="2.532012">
        <ele>855.546</ele>
        <time>2021-05-26T18:45:24Z</time>
      </trkpt>
      <trkpt lat="41.904036" lon="2.531998">
        <ele>855.653</ele>
        <time>2021-05-26T18:45:27Z</time>
      </trkpt>
      <trkpt lat="41.904064" lon="2.531982">
        <ele>855.750</ele>
        <time>2021-05-26T18:45:29Z</time>
      </trkpt>
      <trkpt lat="41.904087" lon="2.531963">
        <ele>855.874</ele>
        <time>2021-05-26T18:45:31Z</time>
      </trkpt>
      <trkpt lat="41.904112" lon="2.531943">
        <ele>855.869</ele>
        <time>2021-05-26T18:45:33Z</time>
      </trkpt>
      <trkpt lat="41.904135" lon="2.531928">
        <ele>855.899</ele>
        <time>2021-05-26T18:45:35Z</time>
      </trkpt>
      <trkpt lat="41.904156" lon="2.531916">
        <ele>855.895</ele>
        <time>2021-05-26T18:45:39Z</time>
      </trkpt>
      <trkpt lat="41.904181" lon="2.531918">
        <ele>856.070</ele>
        <time>2021-05-26T18:45:42Z</time>
      </trkpt>
      <trkpt lat="41.904204" lon="2.531917">
        <ele>856.375</ele>
        <time>2021-05-26T18:45:44Z</time>
      </trkpt>
      <trkpt lat="41.904227" lon="2.531927">
        <ele>856.728</ele>
        <time>2021-05-26T18:45:46Z</time>
      </trkpt>
      <trkpt lat="41.904244" lon="2.531939">
        <ele>857.120</ele>
        <time>2021-05-26T18:45:48Z</time>
      </trkpt>
      <trkpt lat="41.904261" lon="2.531951">
        <ele>857.408</ele>
        <time>2021-05-26T18:45:50Z</time>
      </trkpt>
      <trkpt lat="41.904278" lon="2.531967">
        <ele>857.734</ele>
        <time>2021-05-26T18:45:52Z</time>
      </trkpt>
      <trkpt lat="41.904292" lon="2.531986">
        <ele>858.091</ele>
        <time>2021-05-26T18:45:54Z</time>
      </trkpt>
      <trkpt lat="41.904307" lon="2.532002">
        <ele>858.338</ele>
        <time>2021-05-26T18:45:56Z</time>
      </trkpt>
      <trkpt lat="41.904325" lon="2.532012">
        <ele>858.742</ele>
        <time>2021-05-26T18:45:58Z</time>
      </trkpt>
      <trkpt lat="41.904347" lon="2.532016">
        <ele>859.027</ele>
        <time>2021-05-26T18:46:00Z</time>
      </trkpt>
      <trkpt lat="41.904365" lon="2.532028">
        <ele>859.437</ele>
        <time>2021-05-26T18:46:02Z</time>
      </trkpt>
      <trkpt lat="41.904387" lon="2.532032">
        <ele>859.733</ele>
        <time>2021-05-26T18:46:04Z</time>
      </trkpt>
      <trkpt lat="41.904406" lon="2.532021">
        <ele>860.098</ele>
        <time>2021-05-26T18:46:06Z</time>
      </trkpt>
      <trkpt lat="41.904426" lon="2.532007">
        <ele>860.232</ele>
        <time>2021-05-26T18:46:08Z</time>
      </trkpt>
      <trkpt lat="41.904447" lon="2.532003">
        <ele>860.592</ele>
        <time>2021-05-26T18:46:10Z</time>
      </trkpt>
      <trkpt lat="41.904468" lon="2.532000">
        <ele>861.011</ele>
        <time>2021-05-26T18:46:12Z</time>
      </trkpt>
      <trkpt lat="41.904490" lon="2.532004">
        <ele>861.608</ele>
        <time>2021-05-26T18:46:15Z</time>
      </trkpt>
      <trkpt lat="41.904510" lon="2.532012">
        <ele>862.180</ele>
        <time>2021-05-26T18:46:16Z</time>
      </trkpt>
      <trkpt lat="41.904531" lon="2.532015">
        <ele>862.797</ele>
        <time>2021-05-26T18:46:18Z</time>
      </trkpt>
      <trkpt lat="41.904548" lon="2.532022">
        <ele>863.274</ele>
        <time>2021-05-26T18:46:20Z</time>
      </trkpt>
      <trkpt lat="41.904567" lon="2.532027">
        <ele>863.758</ele>
        <time>2021-05-26T18:46:22Z</time>
      </trkpt>
      <trkpt lat="41.904592" lon="2.532031">
        <ele>864.353</ele>
        <time>2021-05-26T18:46:25Z</time>
      </trkpt>
      <trkpt lat="41.904615" lon="2.532035">
        <ele>865.013</ele>
        <time>2021-05-26T18:46:28Z</time>
      </trkpt>
      <trkpt lat="41.904640" lon="2.532039">
        <ele>865.699</ele>
        <time>2021-05-26T18:46:31Z</time>
      </trkpt>
      <trkpt lat="41.904666" lon="2.532036">
        <ele>866.264</ele>
        <time>2021-05-26T18:46:34Z</time>
      </trkpt>
      <trkpt lat="41.904684" lon="2.532041">
        <ele>866.727</ele>
        <time>2021-05-26T18:46:36Z</time>
      </trkpt>
      <trkpt lat="41.904710" lon="2.532034">
        <ele>867.368</ele>
        <time>2021-05-26T18:46:39Z</time>
      </trkpt>
      <trkpt lat="41.904729" lon="2.532029">
        <ele>867.814</ele>
        <time>2021-05-26T18:46:42Z</time>
      </trkpt>
      <trkpt lat="41.904752" lon="2.532036">
        <ele>868.608</ele>
        <time>2021-05-26T18:46:45Z</time>
      </trkpt>
      <trkpt lat="41.904775" lon="2.532042">
        <ele>869.379</ele>
        <time>2021-05-26T18:46:48Z</time>
      </trkpt>
      <trkpt lat="41.904793" lon="2.532050">
        <ele>870.076</ele>
        <time>2021-05-26T18:46:50Z</time>
      </trkpt>
      <trkpt lat="41.904816" lon="2.532065">
        <ele>870.853</ele>
        <time>2021-05-26T18:46:53Z</time>
      </trkpt>
      <trkpt lat="41.904841" lon="2.532079">
        <ele>871.697</ele>
        <time>2021-05-26T18:46:56Z</time>
      </trkpt>
      <trkpt lat="41.904862" lon="2.532096">
        <ele>872.382</ele>
        <time>2021-05-26T18:46:59Z</time>
      </trkpt>
      <trkpt lat="41.904878" lon="2.532121">
        <ele>873.042</ele>
        <time>2021-05-26T18:47:02Z</time>
      </trkpt>
      <trkpt lat="41.904887" lon="2.532145">
        <ele>873.488</ele>
        <time>2021-05-26T18:47:05Z</time>
      </trkpt>
      <trkpt lat="41.904906" lon="2.532168">
        <ele>874.023</ele>
        <time>2021-05-26T18:47:09Z</time>
      </trkpt>
      <trkpt lat="41.904922" lon="2.532181">
        <ele>874.623</ele>
        <time>2021-05-26T18:47:10Z</time>
      </trkpt>
      <trkpt lat="41.904940" lon="2.532188">
        <ele>875.183</ele>
        <time>2021-05-26T18:47:13Z</time>
      </trkpt>
      <trkpt lat="41.904959" lon="2.532196">
        <ele>875.711</ele>
        <time>2021-05-26T18:47:15Z</time>
      </trkpt>
      <trkpt lat="41.904984" lon="2.532216">
        <ele>876.508</ele>
        <time>2021-05-26T18:47:18Z</time>
      </trkpt>
      <trkpt lat="41.905009" lon="2.532228">
        <ele>877.379</ele>
        <time>2021-05-26T18:47:22Z</time>
      </trkpt>
      <trkpt lat="41.905027" lon="2.532232">
        <ele>877.986</ele>
        <time>2021-05-26T18:47:24Z</time>
      </trkpt>
      <trkpt lat="41.905051" lon="2.532239">
        <ele>878.713</ele>
        <time>2021-05-26T18:47:27Z</time>
      </trkpt>
      <trkpt lat="41.905077" lon="2.532249">
        <ele>879.687</ele>
        <time>2021-05-26T18:47:31Z</time>
      </trkpt>
      <trkpt lat="41.905099" lon="2.532262">
        <ele>880.392</ele>
        <time>2021-05-26T18:47:33Z</time>
      </trkpt>
      <trkpt lat="41.905117" lon="2.532272">
        <ele>880.962</ele>
        <time>2021-05-26T18:47:36Z</time>
      </trkpt>
      <trkpt lat="41.905138" lon="2.532277">
        <ele>881.668</ele>
        <time>2021-05-26T18:47:40Z</time>
      </trkpt>
      <trkpt lat="41.905159" lon="2.532278">
        <ele>882.243</ele>
        <time>2021-05-26T18:47:44Z</time>
      </trkpt>
      <trkpt lat="41.905180" lon="2.532294">
        <ele>882.941</ele>
        <time>2021-05-26T18:47:46Z</time>
      </trkpt>
      <trkpt lat="41.905192" lon="2.532320">
        <ele>883.381</ele>
        <time>2021-05-26T18:47:48Z</time>
      </trkpt>
      <trkpt lat="41.905206" lon="2.532339">
        <ele>883.809</ele>
        <time>2021-05-26T18:47:50Z</time>
      </trkpt>
      <trkpt lat="41.905215" lon="2.532361">
        <ele>884.108</ele>
        <time>2021-05-26T18:47:52Z</time>
      </trkpt>
      <trkpt lat="41.905223" lon="2.532388">
        <ele>884.381</ele>
        <time>2021-05-26T18:47:54Z</time>
      </trkpt>
      <trkpt lat="41.905230" lon="2.532416">
        <ele>884.638</ele>
        <time>2021-05-26T18:47:56Z</time>
      </trkpt>
      <trkpt lat="41.905239" lon="2.532442">
        <ele>884.925</ele>
        <time>2021-05-26T18:47:58Z</time>
      </trkpt>
      <trkpt lat="41.905250" lon="2.532475">
        <ele>885.289</ele>
        <time>2021-05-26T18:48:01Z</time>
      </trkpt>
      <trkpt lat="41.905258" lon="2.532499">
        <ele>885.494</ele>
        <time>2021-05-26T18:48:03Z</time>
      </trkpt>
      <trkpt lat="41.905267" lon="2.532529">
        <ele>885.654</ele>
        <time>2021-05-26T18:48:05Z</time>
      </trkpt>
      <trkpt lat="41.905275" lon="2.532560">
        <ele>885.780</ele>
        <time>2021-05-26T18:48:07Z</time>
      </trkpt>
      <trkpt lat="41.905285" lon="2.532591">
        <ele>885.875</ele>
        <time>2021-05-26T18:48:09Z</time>
      </trkpt>
      <trkpt lat="41.905298" lon="2.532615">
        <ele>886.189</ele>
        <time>2021-05-26T18:48:11Z</time>
      </trkpt>
      <trkpt lat="41.905307" lon="2.532638">
        <ele>886.206</ele>
        <time>2021-05-26T18:48:13Z</time>
      </trkpt>
      <trkpt lat="41.905313" lon="2.532666">
        <ele>886.226</ele>
        <time>2021-05-26T18:48:15Z</time>
      </trkpt>
      <trkpt lat="41.905320" lon="2.532692">
        <ele>886.308</ele>
        <time>2021-05-26T18:48:17Z</time>
      </trkpt>
      <trkpt lat="41.905330" lon="2.532716">
        <ele>886.545</ele>
        <time>2021-05-26T18:48:19Z</time>
      </trkpt>
      <trkpt lat="41.905341" lon="2.532740">
        <ele>886.762</ele>
        <time>2021-05-26T18:48:21Z</time>
      </trkpt>
      <trkpt lat="41.905350" lon="2.532766">
        <ele>886.999</ele>
        <time>2021-05-26T18:48:23Z</time>
      </trkpt>
      <trkpt lat="41.905358" lon="2.532790">
        <ele>887.063</ele>
        <time>2021-05-26T18:48:25Z</time>
      </trkpt>
      <trkpt lat="41.905368" lon="2.532815">
        <ele>887.318</ele>
        <time>2021-05-26T18:48:27Z</time>
      </trkpt>
      <trkpt lat="41.905378" lon="2.532836">
        <ele>887.668</ele>
        <time>2021-05-26T18:48:29Z</time>
      </trkpt>
      <trkpt lat="41.905389" lon="2.532857">
        <ele>887.964</ele>
        <time>2021-05-26T18:48:31Z</time>
      </trkpt>
      <trkpt lat="41.905401" lon="2.532878">
        <ele>888.339</ele>
        <time>2021-05-26T18:48:33Z</time>
      </trkpt>
      <trkpt lat="41.905416" lon="2.532909">
        <ele>888.755</ele>
        <time>2021-05-26T18:48:36Z</time>
      </trkpt>
      <trkpt lat="41.905427" lon="2.532933">
        <ele>889.107</ele>
        <time>2021-05-26T18:48:38Z</time>
      </trkpt>
      <trkpt lat="41.905439" lon="2.532958">
        <ele>889.417</ele>
        <time>2021-05-26T18:48:40Z</time>
      </trkpt>
      <trkpt lat="41.905454" lon="2.532981">
        <ele>889.908</ele>
        <time>2021-05-26T18:48:42Z</time>
      </trkpt>
      <trkpt lat="41.905465" lon="2.533002">
        <ele>890.382</ele>
        <time>2021-05-26T18:48:44Z</time>
      </trkpt>
      <trkpt lat="41.905477" lon="2.533021">
        <ele>890.679</ele>
        <time>2021-05-26T18:48:46Z</time>
      </trkpt>
      <trkpt lat="41.905487" lon="2.533042">
        <ele>891.036</ele>
        <time>2021-05-26T18:48:48Z</time>
      </trkpt>
      <trkpt lat="41.905496" lon="2.533064">
        <ele>891.350</ele>
        <time>2021-05-26T18:48:50Z</time>
      </trkpt>
      <trkpt lat="41.905510" lon="2.533092">
        <ele>891.755</ele>
        <time>2021-05-26T18:48:53Z</time>
      </trkpt>
      <trkpt lat="41.905523" lon="2.533111">
        <ele>892.165</ele>
        <time>2021-05-26T18:48:55Z</time>
      </trkpt>
      <trkpt lat="41.905537" lon="2.533132">
        <ele>892.581</ele>
        <time>2021-05-26T18:48:57Z</time>
      </trkpt>
      <trkpt lat="41.905549" lon="2.533155">
        <ele>892.846</ele>
        <time>2021-05-26T18:48:59Z</time>
      </trkpt>
      <trkpt lat="41.905561" lon="2.533175">
        <ele>893.175</ele>
        <time>2021-05-26T18:49:01Z</time>
      </trkpt>
      <trkpt lat="41.905573" lon="2.533199">
        <ele>893.328</ele>
        <time>2021-05-26T18:49:03Z</time>
      </trkpt>
      <trkpt lat="41.905586" lon="2.533228">
        <ele>893.520</ele>
        <time>2021-05-26T18:49:05Z</time>
      </trkpt>
      <trkpt lat="41.905597" lon="2.533252">
        <ele>893.708</ele>
        <time>2021-05-26T18:49:07Z</time>
      </trkpt>
      <trkpt lat="41.905606" lon="2.533278">
        <ele>893.924</ele>
        <time>2021-05-26T18:49:09Z</time>
      </trkpt>
      <trkpt lat="41.905614" lon="2.533302">
        <ele>894.181</ele>
        <time>2021-05-26T18:49:11Z</time>
      </trkpt>
      <trkpt lat="41.905630" lon="2.533332">
        <ele>894.398</ele>
        <time>2021-05-26T18:49:14Z</time>
      </trkpt>
      <trkpt lat="41.905643" lon="2.533357">
        <ele>894.522</ele>
        <time>2021-05-26T18:49:16Z</time>
      </trkpt>
      <trkpt lat="41.905654" lon="2.533376">
        <ele>894.727</ele>
        <time>2021-05-26T18:49:18Z</time>
      </trkpt>
      <trkpt lat="41.905667" lon="2.533397">
        <ele>894.947</ele>
        <time>2021-05-26T18:49:20Z</time>
      </trkpt>
      <trkpt lat="41.905680" lon="2.533415">
        <ele>895.173</ele>
        <time>2021-05-26T18:49:22Z</time>
      </trkpt>
      <trkpt lat="41.905746" lon="2.533503">
        <ele>896.078</ele>
        <time>2021-05-26T18:49:32Z</time>
      </trkpt>
      <trkpt lat="41.905777" lon="2.533571">
        <ele>896.382</ele>
        <time>2021-05-26T18:49:37Z</time>
      </trkpt>
      <trkpt lat="41.905780" lon="2.533599">
        <ele>896.343</ele>
        <time>2021-05-26T18:49:39Z</time>
      </trkpt>
      <trkpt lat="41.905791" lon="2.533625">
        <ele>896.417</ele>
        <time>2021-05-26T18:49:42Z</time>
      </trkpt>
      <trkpt lat="41.905797" lon="2.533660">
        <ele>896.508</ele>
        <time>2021-05-26T18:49:44Z</time>
      </trkpt>
      <trkpt lat="41.905799" lon="2.533692">
        <ele>896.515</ele>
        <time>2021-05-26T18:49:46Z</time>
      </trkpt>
      <trkpt lat="41.905804" lon="2.533726">
        <ele>896.632</ele>
        <time>2021-05-26T18:49:48Z</time>
      </trkpt>
      <trkpt lat="41.905807" lon="2.533760">
        <ele>896.639</ele>
        <time>2021-05-26T18:49:50Z</time>
      </trkpt>
      <trkpt lat="41.905808" lon="2.533793">
        <ele>896.653</ele>
        <time>2021-05-26T18:49:52Z</time>
      </trkpt>
      <trkpt lat="41.905804" lon="2.533823">
        <ele>896.698</ele>
        <time>2021-05-26T18:49:54Z</time>
      </trkpt>
      <trkpt lat="41.905801" lon="2.533854">
        <ele>896.578</ele>
        <time>2021-05-26T18:49:56Z</time>
      </trkpt>
      <trkpt lat="41.905797" lon="2.533882">
        <ele>896.584</ele>
        <time>2021-05-26T18:49:58Z</time>
      </trkpt>
      <trkpt lat="41.905793" lon="2.533912">
        <ele>896.429</ele>
        <time>2021-05-26T18:50:00Z</time>
      </trkpt>
      <trkpt lat="41.905787" lon="2.533946">
        <ele>896.387</ele>
        <time>2021-05-26T18:50:02Z</time>
      </trkpt>
      <trkpt lat="41.905784" lon="2.533978">
        <ele>896.242</ele>
        <time>2021-05-26T18:50:04Z</time>
      </trkpt>
      <trkpt lat="41.905777" lon="2.534005">
        <ele>896.126</ele>
        <time>2021-05-26T18:50:06Z</time>
      </trkpt>
      <trkpt lat="41.905765" lon="2.534032">
        <ele>895.908</ele>
        <time>2021-05-26T18:50:08Z</time>
      </trkpt>
      <trkpt lat="41.905747" lon="2.534062">
        <ele>895.615</ele>
        <time>2021-05-26T18:50:10Z</time>
      </trkpt>
      <trkpt lat="41.905738" lon="2.534095">
        <ele>895.492</ele>
        <time>2021-05-26T18:50:12Z</time>
      </trkpt>
      <trkpt lat="41.905736" lon="2.534124">
        <ele>895.369</ele>
        <time>2021-05-26T18:50:14Z</time>
      </trkpt>
      <trkpt lat="41.905747" lon="2.534166">
        <ele>895.413</ele>
        <time>2021-05-26T18:50:16Z</time>
      </trkpt>
      <trkpt lat="41.905764" lon="2.534201">
        <ele>895.688</ele>
        <time>2021-05-26T18:50:18Z</time>
      </trkpt>
      <trkpt lat="41.905776" lon="2.534218">
        <ele>895.738</ele>
        <time>2021-05-26T18:50:19Z</time>
      </trkpt>
      <trkpt lat="41.905801" lon="2.534240">
        <ele>896.134</ele>
        <time>2021-05-26T18:50:21Z</time>
      </trkpt>
      <trkpt lat="41.905812" lon="2.534260">
        <ele>896.329</ele>
        <time>2021-05-26T18:50:23Z</time>
      </trkpt>
      <trkpt lat="41.905825" lon="2.534279">
        <ele>896.451</ele>
        <time>2021-05-26T18:50:25Z</time>
      </trkpt>
      <trkpt lat="41.905849" lon="2.534296">
        <ele>896.701</ele>
        <time>2021-05-26T18:50:27Z</time>
      </trkpt>
      <trkpt lat="41.905866" lon="2.534315">
        <ele>896.811</ele>
        <time>2021-05-26T18:50:29Z</time>
      </trkpt>
      <trkpt lat="41.905934" lon="2.534385">
        <ele>897.308</ele>
        <time>2021-05-26T18:50:37Z</time>
      </trkpt>
      <trkpt lat="41.906000" lon="2.534403">
        <ele>897.942</ele>
        <time>2021-05-26T18:50:44Z</time>
      </trkpt>
      <trkpt lat="41.906021" lon="2.534403">
        <ele>898.299</ele>
        <time>2021-05-26T18:50:46Z</time>
      </trkpt>
      <trkpt lat="41.906048" lon="2.534413">
        <ele>898.436</ele>
        <time>2021-05-26T18:50:48Z</time>
      </trkpt>
      <trkpt lat="41.906070" lon="2.534432">
        <ele>898.670</ele>
        <time>2021-05-26T18:50:50Z</time>
      </trkpt>
      <trkpt lat="41.906092" lon="2.534441">
        <ele>898.835</ele>
        <time>2021-05-26T18:50:52Z</time>
      </trkpt>
      <trkpt lat="41.906110" lon="2.534450">
        <ele>899.065</ele>
        <time>2021-05-26T18:50:54Z</time>
      </trkpt>
      <trkpt lat="41.906131" lon="2.534456">
        <ele>899.411</ele>
        <time>2021-05-26T18:50:56Z</time>
      </trkpt>
      <trkpt lat="41.906154" lon="2.534466">
        <ele>899.886</ele>
        <time>2021-05-26T18:50:58Z</time>
      </trkpt>
      <trkpt lat="41.906174" lon="2.534474">
        <ele>900.177</ele>
        <time>2021-05-26T18:51:00Z</time>
      </trkpt>
      <trkpt lat="41.906193" lon="2.534481">
        <ele>900.561</ele>
        <time>2021-05-26T18:51:02Z</time>
      </trkpt>
      <trkpt lat="41.906214" lon="2.534491">
        <ele>900.927</ele>
        <time>2021-05-26T18:51:04Z</time>
      </trkpt>
      <trkpt lat="41.906243" lon="2.534502">
        <ele>901.408</ele>
        <time>2021-05-26T18:51:06Z</time>
      </trkpt>
      <trkpt lat="41.906268" lon="2.534513">
        <ele>901.854</ele>
        <time>2021-05-26T18:51:08Z</time>
      </trkpt>
      <trkpt lat="41.906288" lon="2.534530">
        <ele>902.291</ele>
        <time>2021-05-26T18:51:10Z</time>
      </trkpt>
      <trkpt lat="41.906311" lon="2.534538">
        <ele>902.678</ele>
        <time>2021-05-26T18:51:12Z</time>
      </trkpt>
      <trkpt lat="41.906333" lon="2.534551">
        <ele>903.092</ele>
        <time>2021-05-26T18:51:14Z</time>
      </trkpt>
      <trkpt lat="41.906351" lon="2.534571">
        <ele>903.347</ele>
        <time>2021-05-26T18:51:16Z</time>
      </trkpt>
      <trkpt lat="41.906369" lon="2.534580">
        <ele>903.687</ele>
        <time>2021-05-26T18:51:18Z</time>
      </trkpt>
      <trkpt lat="41.906395" lon="2.534592">
        <ele>904.113</ele>
        <time>2021-05-26T18:51:20Z</time>
      </trkpt>
      <trkpt lat="41.906421" lon="2.534600">
        <ele>904.658</ele>
        <time>2021-05-26T18:51:22Z</time>
      </trkpt>
      <trkpt lat="41.906443" lon="2.534617">
        <ele>905.037</ele>
        <time>2021-05-26T18:51:24Z</time>
      </trkpt>
      <trkpt lat="41.906462" lon="2.534635">
        <ele>905.349</ele>
        <time>2021-05-26T18:51:26Z</time>
      </trkpt>
      <trkpt lat="41.906480" lon="2.534660">
        <ele>905.613</ele>
        <time>2021-05-26T18:51:28Z</time>
      </trkpt>
      <trkpt lat="41.906495" lon="2.534690">
        <ele>905.908</ele>
        <time>2021-05-26T18:51:30Z</time>
      </trkpt>
      <trkpt lat="41.906503" lon="2.534722">
        <ele>906.170</ele>
        <time>2021-05-26T18:51:32Z</time>
      </trkpt>
      <trkpt lat="41.906508" lon="2.534749">
        <ele>906.277</ele>
        <time>2021-05-26T18:51:34Z</time>
      </trkpt>
      <trkpt lat="41.906517" lon="2.534779">
        <ele>906.474</ele>
        <time>2021-05-26T18:51:36Z</time>
      </trkpt>
      <trkpt lat="41.906521" lon="2.534809">
        <ele>906.548</ele>
        <time>2021-05-26T18:51:38Z</time>
      </trkpt>
      <trkpt lat="41.906525" lon="2.534840">
        <ele>906.763</ele>
        <time>2021-05-26T18:51:40Z</time>
      </trkpt>
      <trkpt lat="41.906527" lon="2.534868">
        <ele>906.783</ele>
        <time>2021-05-26T18:51:42Z</time>
      </trkpt>
      <trkpt lat="41.906532" lon="2.534893">
        <ele>906.949</ele>
        <time>2021-05-26T18:51:44Z</time>
      </trkpt>
      <trkpt lat="41.906536" lon="2.534922">
        <ele>907.054</ele>
        <time>2021-05-26T18:51:46Z</time>
      </trkpt>
      <trkpt lat="41.906535" lon="2.534954">
        <ele>907.173</ele>
        <time>2021-05-26T18:51:48Z</time>
      </trkpt>
      <trkpt lat="41.906539" lon="2.534984">
        <ele>907.285</ele>
        <time>2021-05-26T18:51:50Z</time>
      </trkpt>
      <trkpt lat="41.906544" lon="2.535018">
        <ele>907.413</ele>
        <time>2021-05-26T18:51:52Z</time>
      </trkpt>
      <trkpt lat="41.906555" lon="2.535043">
        <ele>907.808</ele>
        <time>2021-05-26T18:51:54Z</time>
      </trkpt>
      <trkpt lat="41.906571" lon="2.535071">
        <ele>908.324</ele>
        <time>2021-05-26T18:51:56Z</time>
      </trkpt>
      <trkpt lat="41.906590" lon="2.535091">
        <ele>908.831</ele>
        <time>2021-05-26T18:51:58Z</time>
      </trkpt>
      <trkpt lat="41.906605" lon="2.535115">
        <ele>909.278</ele>
        <time>2021-05-26T18:52:00Z</time>
      </trkpt>
      <trkpt lat="41.906617" lon="2.535136">
        <ele>909.542</ele>
        <time>2021-05-26T18:52:02Z</time>
      </trkpt>
      <trkpt lat="41.906629" lon="2.535158">
        <ele>909.847</ele>
        <time>2021-05-26T18:52:04Z</time>
      </trkpt>
      <trkpt lat="41.906647" lon="2.535177">
        <ele>910.357</ele>
        <time>2021-05-26T18:52:06Z</time>
      </trkpt>
      <trkpt lat="41.906666" lon="2.535195">
        <ele>910.723</ele>
        <time>2021-05-26T18:52:08Z</time>
      </trkpt>
      <trkpt lat="41.906686" lon="2.535220">
        <ele>911.038</ele>
        <time>2021-05-26T18:52:10Z</time>
      </trkpt>
      <trkpt lat="41.906702" lon="2.535247">
        <ele>911.394</ele>
        <time>2021-05-26T18:52:12Z</time>
      </trkpt>
      <trkpt lat="41.906720" lon="2.535269">
        <ele>911.557</ele>
        <time>2021-05-26T18:52:14Z</time>
      </trkpt>
      <trkpt lat="41.906742" lon="2.535295">
        <ele>911.722</ele>
        <time>2021-05-26T18:52:16Z</time>
      </trkpt>
      <trkpt lat="41.906758" lon="2.535322">
        <ele>911.708</ele>
        <time>2021-05-26T18:52:18Z</time>
      </trkpt>
      <trkpt lat="41.906776" lon="2.535346">
        <ele>911.756</ele>
        <time>2021-05-26T18:52:20Z</time>
      </trkpt>
      <trkpt lat="41.906797" lon="2.535364">
        <ele>911.813</ele>
        <time>2021-05-26T18:52:22Z</time>
      </trkpt>
      <trkpt lat="41.906817" lon="2.535380">
        <ele>911.950</ele>
        <time>2021-05-26T18:52:24Z</time>
      </trkpt>
      <trkpt lat="41.906842" lon="2.535392">
        <ele>912.134</ele>
        <time>2021-05-26T18:52:26Z</time>
      </trkpt>
      <trkpt lat="41.906857" lon="2.535406">
        <ele>912.149</ele>
        <time>2021-05-26T18:52:28Z</time>
      </trkpt>
      <trkpt lat="41.906874" lon="2.535418">
        <ele>912.229</ele>
        <time>2021-05-26T18:52:30Z</time>
      </trkpt>
      <trkpt lat="41.906892" lon="2.535430">
        <ele>912.365</ele>
        <time>2021-05-26T18:52:32Z</time>
      </trkpt>
      <trkpt lat="41.906916" lon="2.535442">
        <ele>912.540</ele>
        <time>2021-05-26T18:52:35Z</time>
      </trkpt>
      <trkpt lat="41.906936" lon="2.535443">
        <ele>912.742</ele>
        <time>2021-05-26T18:52:37Z</time>
      </trkpt>
      <trkpt lat="41.906960" lon="2.535445">
        <ele>913.022</ele>
        <time>2021-05-26T18:52:39Z</time>
      </trkpt>
      <trkpt lat="41.906987" lon="2.535449">
        <ele>913.214</ele>
        <time>2021-05-26T18:52:41Z</time>
      </trkpt>
      <trkpt lat="41.907016" lon="2.535459">
        <ele>913.408</ele>
        <time>2021-05-26T18:52:43Z</time>
      </trkpt>
      <trkpt lat="41.907036" lon="2.535472">
        <ele>913.521</ele>
        <time>2021-05-26T18:52:45Z</time>
      </trkpt>
      <trkpt lat="41.907057" lon="2.535484">
        <ele>913.568</ele>
        <time>2021-05-26T18:52:47Z</time>
      </trkpt>
      <trkpt lat="41.907077" lon="2.535488">
        <ele>913.785</ele>
        <time>2021-05-26T18:52:49Z</time>
      </trkpt>
      <trkpt lat="41.907103" lon="2.535495">
        <ele>913.849</ele>
        <time>2021-05-26T18:52:52Z</time>
      </trkpt>
      <trkpt lat="41.907131" lon="2.535497">
        <ele>914.074</ele>
        <time>2021-05-26T18:52:55Z</time>
      </trkpt>
      <trkpt lat="41.907152" lon="2.535491">
        <ele>914.354</ele>
        <time>2021-05-26T18:52:57Z</time>
      </trkpt>
      <trkpt lat="41.907173" lon="2.535483">
        <ele>914.660</ele>
        <time>2021-05-26T18:52:59Z</time>
      </trkpt>
      <trkpt lat="41.907194" lon="2.535474">
        <ele>914.915</ele>
        <time>2021-05-26T18:53:01Z</time>
      </trkpt>
      <trkpt lat="41.907215" lon="2.535464">
        <ele>915.257</ele>
        <time>2021-05-26T18:53:03Z</time>
      </trkpt>
      <trkpt lat="41.907234" lon="2.535446">
        <ele>915.600</ele>
        <time>2021-05-26T18:53:05Z</time>
      </trkpt>
      <trkpt lat="41.907255" lon="2.535437">
        <ele>915.820</ele>
        <time>2021-05-26T18:53:07Z</time>
      </trkpt>
      <trkpt lat="41.907280" lon="2.535426">
        <ele>916.108</ele>
        <time>2021-05-26T18:53:09Z</time>
      </trkpt>
      <trkpt lat="41.907300" lon="2.535410">
        <ele>916.442</ele>
        <time>2021-05-26T18:53:11Z</time>
      </trkpt>
      <trkpt lat="41.907325" lon="2.535399">
        <ele>916.679</ele>
        <time>2021-05-26T18:53:13Z</time>
      </trkpt>
      <trkpt lat="41.907354" lon="2.535389">
        <ele>916.866</ele>
        <time>2021-05-26T18:53:15Z</time>
      </trkpt>
      <trkpt lat="41.907381" lon="2.535374">
        <ele>917.070</ele>
        <time>2021-05-26T18:53:17Z</time>
      </trkpt>
      <trkpt lat="41.907407" lon="2.535353">
        <ele>917.355</ele>
        <time>2021-05-26T18:53:19Z</time>
      </trkpt>
      <trkpt lat="41.907434" lon="2.535329">
        <ele>917.595</ele>
        <time>2021-05-26T18:53:21Z</time>
      </trkpt>
      <trkpt lat="41.907464" lon="2.535314">
        <ele>917.751</ele>
        <time>2021-05-26T18:53:23Z</time>
      </trkpt>
      <trkpt lat="41.907490" lon="2.535291">
        <ele>917.926</ele>
        <time>2021-05-26T18:53:25Z</time>
      </trkpt>
      <trkpt lat="41.907506" lon="2.535277">
        <ele>918.044</ele>
        <time>2021-05-26T18:53:26Z</time>
      </trkpt>
      <trkpt lat="41.907526" lon="2.535263">
        <ele>918.005</ele>
        <time>2021-05-26T18:53:27Z</time>
      </trkpt>
      <trkpt lat="41.907543" lon="2.535247">
        <ele>918.015</ele>
        <time>2021-05-26T18:53:28Z</time>
      </trkpt>
      <trkpt lat="41.907565" lon="2.535227">
        <ele>918.008</ele>
        <time>2021-05-26T18:53:30Z</time>
      </trkpt>
      <trkpt lat="41.907594" lon="2.535212">
        <ele>917.971</ele>
        <time>2021-05-26T18:53:33Z</time>
      </trkpt>
      <trkpt lat="41.907619" lon="2.535197">
        <ele>917.898</ele>
        <time>2021-05-26T18:53:35Z</time>
      </trkpt>
      <trkpt lat="41.907648" lon="2.535194">
        <ele>917.545</ele>
        <time>2021-05-26T18:53:37Z</time>
      </trkpt>
      <trkpt lat="41.907672" lon="2.535202">
        <ele>917.239</ele>
        <time>2021-05-26T18:53:39Z</time>
      </trkpt>
      <trkpt lat="41.907694" lon="2.535227">
        <ele>916.954</ele>
        <time>2021-05-26T18:53:41Z</time>
      </trkpt>
      <trkpt lat="41.907708" lon="2.535258">
        <ele>916.614</ele>
        <time>2021-05-26T18:53:43Z</time>
      </trkpt>
      <trkpt lat="41.907701" lon="2.535291">
        <ele>916.510</ele>
        <time>2021-05-26T18:53:45Z</time>
      </trkpt>
      <trkpt lat="41.907699" lon="2.535322">
        <ele>916.485</ele>
        <time>2021-05-26T18:53:47Z</time>
      </trkpt>
      <trkpt lat="41.907694" lon="2.535354">
        <ele>916.241</ele>
        <time>2021-05-26T18:53:49Z</time>
      </trkpt>
      <trkpt lat="41.907682" lon="2.535376">
        <ele>916.281</ele>
        <time>2021-05-26T18:53:51Z</time>
      </trkpt>
      <trkpt lat="41.907677" lon="2.535409">
        <ele>916.109</ele>
        <time>2021-05-26T18:53:53Z</time>
      </trkpt>
      <trkpt lat="41.907683" lon="2.535455">
        <ele>915.808</ele>
        <time>2021-05-26T18:53:55Z</time>
      </trkpt>
      <trkpt lat="41.907682" lon="2.535499">
        <ele>915.621</ele>
        <time>2021-05-26T18:53:57Z</time>
      </trkpt>
      <trkpt lat="41.907681" lon="2.535543">
        <ele>915.478</ele>
        <time>2021-05-26T18:53:59Z</time>
      </trkpt>
      <trkpt lat="41.907684" lon="2.535569">
        <ele>915.315</ele>
        <time>2021-05-26T18:54:00Z</time>
      </trkpt>
      <trkpt lat="41.907695" lon="2.535609">
        <ele>915.169</ele>
        <time>2021-05-26T18:54:02Z</time>
      </trkpt>
      <trkpt lat="41.907703" lon="2.535649">
        <ele>915.034</ele>
        <time>2021-05-26T18:54:04Z</time>
      </trkpt>
      <trkpt lat="41.907717" lon="2.535683">
        <ele>914.994</ele>
        <time>2021-05-26T18:54:06Z</time>
      </trkpt>
      <trkpt lat="41.907736" lon="2.535706">
        <ele>914.950</ele>
        <time>2021-05-26T18:54:08Z</time>
      </trkpt>
      <trkpt lat="41.907757" lon="2.535715">
        <ele>914.985</ele>
        <time>2021-05-26T18:54:10Z</time>
      </trkpt>
      <trkpt lat="41.907778" lon="2.535717">
        <ele>915.031</ele>
        <time>2021-05-26T18:54:12Z</time>
      </trkpt>
      <trkpt lat="41.907800" lon="2.535723">
        <ele>914.961</ele>
        <time>2021-05-26T18:54:14Z</time>
      </trkpt>
      <trkpt lat="41.907823" lon="2.535735">
        <ele>914.807</ele>
        <time>2021-05-26T18:54:16Z</time>
      </trkpt>
      <trkpt lat="41.907841" lon="2.535747">
        <ele>914.708</ele>
        <time>2021-05-26T18:54:18Z</time>
      </trkpt>
      <trkpt lat="41.907859" lon="2.535770">
        <ele>914.620</ele>
        <time>2021-05-26T18:54:20Z</time>
      </trkpt>
      <trkpt lat="41.907876" lon="2.535788">
        <ele>914.627</ele>
        <time>2021-05-26T18:54:22Z</time>
      </trkpt>
      <trkpt lat="41.907894" lon="2.535808">
        <ele>914.574</ele>
        <time>2021-05-26T18:54:24Z</time>
      </trkpt>
      <trkpt lat="41.907912" lon="2.535829">
        <ele>914.558</ele>
        <time>2021-05-26T18:54:26Z</time>
      </trkpt>
      <trkpt lat="41.907925" lon="2.535850">
        <ele>914.643</ele>
        <time>2021-05-26T18:54:27Z</time>
      </trkpt>
      <trkpt lat="41.907945" lon="2.535882">
        <ele>914.793</ele>
        <time>2021-05-26T18:54:29Z</time>
      </trkpt>
      <trkpt lat="41.907956" lon="2.535903">
        <ele>914.819</ele>
        <time>2021-05-26T18:54:30Z</time>
      </trkpt>
      <trkpt lat="41.907970" lon="2.535939">
        <ele>915.094</ele>
        <time>2021-05-26T18:54:32Z</time>
      </trkpt>
      <trkpt lat="41.907994" lon="2.535969">
        <ele>915.193</ele>
        <time>2021-05-26T18:54:34Z</time>
      </trkpt>
      <trkpt lat="41.908018" lon="2.535997">
        <ele>915.265</ele>
        <time>2021-05-26T18:54:36Z</time>
      </trkpt>
      <trkpt lat="41.908036" lon="2.536025">
        <ele>915.421</ele>
        <time>2021-05-26T18:54:38Z</time>
      </trkpt>
      <trkpt lat="41.908048" lon="2.536053">
        <ele>915.608</ele>
        <time>2021-05-26T18:54:40Z</time>
      </trkpt>
      <trkpt lat="41.908059" lon="2.536084">
        <ele>915.756</ele>
        <time>2021-05-26T18:54:42Z</time>
      </trkpt>
      <trkpt lat="41.908076" lon="2.536112">
        <ele>915.553</ele>
        <time>2021-05-26T18:54:44Z</time>
      </trkpt>
      <trkpt lat="41.908086" lon="2.536146">
        <ele>915.480</ele>
        <time>2021-05-26T18:54:46Z</time>
      </trkpt>
      <trkpt lat="41.908097" lon="2.536183">
        <ele>915.314</ele>
        <time>2021-05-26T18:54:48Z</time>
      </trkpt>
      <trkpt lat="41.908108" lon="2.536210">
        <ele>915.129</ele>
        <time>2021-05-26T18:54:50Z</time>
      </trkpt>
      <trkpt lat="41.908116" lon="2.536236">
        <ele>915.089</ele>
        <time>2021-05-26T18:54:52Z</time>
      </trkpt>
      <trkpt lat="41.908127" lon="2.536268">
        <ele>914.925</ele>
        <time>2021-05-26T18:54:54Z</time>
      </trkpt>
      <trkpt lat="41.908136" lon="2.536292">
        <ele>914.820</ele>
        <time>2021-05-26T18:54:56Z</time>
      </trkpt>
      <trkpt lat="41.908150" lon="2.536329">
        <ele>914.754</ele>
        <time>2021-05-26T18:54:59Z</time>
      </trkpt>
      <trkpt lat="41.908158" lon="2.536361">
        <ele>914.656</ele>
        <time>2021-05-26T18:55:01Z</time>
      </trkpt>
      <trkpt lat="41.908170" lon="2.536391">
        <ele>914.511</ele>
        <time>2021-05-26T18:55:03Z</time>
      </trkpt>
      <trkpt lat="41.908186" lon="2.536418">
        <ele>914.308</ele>
        <time>2021-05-26T18:55:05Z</time>
      </trkpt>
      <trkpt lat="41.908196" lon="2.536456">
        <ele>914.242</ele>
        <time>2021-05-26T18:55:07Z</time>
      </trkpt>
      <trkpt lat="41.908204" lon="2.536495">
        <ele>914.259</ele>
        <time>2021-05-26T18:55:09Z</time>
      </trkpt>
      <trkpt lat="41.908217" lon="2.536532">
        <ele>914.036</ele>
        <time>2021-05-26T18:55:11Z</time>
      </trkpt>
      <trkpt lat="41.908227" lon="2.536561">
        <ele>913.940</ele>
        <time>2021-05-26T18:55:13Z</time>
      </trkpt>
      <trkpt lat="41.908242" lon="2.536590">
        <ele>913.755</ele>
        <time>2021-05-26T18:55:15Z</time>
      </trkpt>
      <trkpt lat="41.908257" lon="2.536614">
        <ele>913.575</ele>
        <time>2021-05-26T18:55:17Z</time>
      </trkpt>
      <trkpt lat="41.908282" lon="2.536667">
        <ele>913.111</ele>
        <time>2021-05-26T18:55:21Z</time>
      </trkpt>
      <trkpt lat="41.908337" lon="2.536759">
        <ele>912.936</ele>
        <time>2021-05-26T18:55:28Z</time>
      </trkpt>
      <trkpt lat="41.908352" lon="2.536785">
        <ele>912.969</ele>
        <time>2021-05-26T18:55:31Z</time>
      </trkpt>
      <trkpt lat="41.908361" lon="2.536807">
        <ele>913.004</ele>
        <time>2021-05-26T18:55:32Z</time>
      </trkpt>
      <trkpt lat="41.908421" lon="2.536906">
        <ele>913.224</ele>
        <time>2021-05-26T18:55:40Z</time>
      </trkpt>
      <trkpt lat="41.908492" lon="2.536980">
        <ele>913.708</ele>
        <time>2021-05-26T18:55:47Z</time>
      </trkpt>
      <trkpt lat="41.908583" lon="2.537032">
        <ele>914.173</ele>
        <time>2021-05-26T18:55:55Z</time>
      </trkpt>
      <trkpt lat="41.908681" lon="2.537069">
        <ele>914.030</ele>
        <time>2021-05-26T18:56:02Z</time>
      </trkpt>
      <trkpt lat="41.908771" lon="2.537048">
        <ele>912.197</ele>
        <time>2021-05-26T18:56:10Z</time>
      </trkpt>
      <trkpt lat="41.908862" lon="2.537070">
        <ele>911.531</ele>
        <time>2021-05-26T18:56:16Z</time>
      </trkpt>
      <trkpt lat="41.908956" lon="2.537039">
        <ele>908.786</ele>
        <time>2021-05-26T18:56:22Z</time>
      </trkpt>
      <trkpt lat="41.908988" lon="2.537044">
        <ele>908.246</ele>
        <time>2021-05-26T18:56:24Z</time>
      </trkpt>
      <trkpt lat="41.909020" lon="2.537046">
        <ele>907.692</ele>
        <time>2021-05-26T18:56:26Z</time>
      </trkpt>
      <trkpt lat="41.909047" lon="2.537054">
        <ele>907.327</ele>
        <time>2021-05-26T18:56:28Z</time>
      </trkpt>
      <trkpt lat="41.909072" lon="2.537066">
        <ele>907.169</ele>
        <time>2021-05-26T18:56:30Z</time>
      </trkpt>
      <trkpt lat="41.909090" lon="2.537076">
        <ele>907.004</ele>
        <time>2021-05-26T18:56:32Z</time>
      </trkpt>
      <trkpt lat="41.909117" lon="2.537095">
        <ele>906.924</ele>
        <time>2021-05-26T18:56:34Z</time>
      </trkpt>
      <trkpt lat="41.909209" lon="2.537155">
        <ele>906.708</ele>
        <time>2021-05-26T18:56:41Z</time>
      </trkpt>
      <trkpt lat="41.909291" lon="2.537221">
        <ele>907.283</ele>
        <time>2021-05-26T18:56:49Z</time>
      </trkpt>
      <trkpt lat="41.909393" lon="2.537260">
        <ele>907.030</ele>
        <time>2021-05-26T18:56:57Z</time>
      </trkpt>
      <trkpt lat="41.909466" lon="2.537291">
        <ele>906.477</ele>
        <time>2021-05-26T18:57:03Z</time>
      </trkpt>
      <trkpt lat="41.909542" lon="2.537361">
        <ele>905.871</ele>
        <time>2021-05-26T18:57:09Z</time>
      </trkpt>
      <trkpt lat="41.909585" lon="2.537452">
        <ele>907.086</ele>
        <time>2021-05-26T18:57:15Z</time>
      </trkpt>
      <trkpt lat="41.909604" lon="2.537483">
        <ele>907.236</ele>
        <time>2021-05-26T18:57:17Z</time>
      </trkpt>
      <trkpt lat="41.909618" lon="2.537511">
        <ele>907.462</ele>
        <time>2021-05-26T18:57:19Z</time>
      </trkpt>
      <trkpt lat="41.909634" lon="2.537537">
        <ele>907.457</ele>
        <time>2021-05-26T18:57:21Z</time>
      </trkpt>
      <trkpt lat="41.909644" lon="2.537568">
        <ele>907.746</ele>
        <time>2021-05-26T18:57:23Z</time>
      </trkpt>
      <trkpt lat="41.909659" lon="2.537597">
        <ele>907.888</ele>
        <time>2021-05-26T18:57:25Z</time>
      </trkpt>
      <trkpt lat="41.909672" lon="2.537629">
        <ele>907.916</ele>
        <time>2021-05-26T18:57:27Z</time>
      </trkpt>
      <trkpt lat="41.909690" lon="2.537652">
        <ele>907.708</ele>
        <time>2021-05-26T18:57:29Z</time>
      </trkpt>
      <trkpt lat="41.909703" lon="2.537675">
        <ele>907.671</ele>
        <time>2021-05-26T18:57:31Z</time>
      </trkpt>
      <trkpt lat="41.909717" lon="2.537748">
        <ele>908.648</ele>
        <time>2021-05-26T18:57:36Z</time>
      </trkpt>
      <trkpt lat="41.909723" lon="2.537784">
        <ele>909.085</ele>
        <time>2021-05-26T18:57:38Z</time>
      </trkpt>
      <trkpt lat="41.909729" lon="2.537809">
        <ele>908.989</ele>
        <time>2021-05-26T18:57:40Z</time>
      </trkpt>
      <trkpt lat="41.909734" lon="2.537841">
        <ele>909.074</ele>
        <time>2021-05-26T18:57:42Z</time>
      </trkpt>
      <trkpt lat="41.909746" lon="2.537877">
        <ele>908.794</ele>
        <time>2021-05-26T18:57:44Z</time>
      </trkpt>
      <trkpt lat="41.909755" lon="2.537908">
        <ele>908.630</ele>
        <time>2021-05-26T18:57:46Z</time>
      </trkpt>
      <trkpt lat="41.909763" lon="2.537941">
        <ele>908.515</ele>
        <time>2021-05-26T18:57:48Z</time>
      </trkpt>
      <trkpt lat="41.909802" lon="2.538003">
        <ele>907.431</ele>
        <time>2021-05-26T18:57:55Z</time>
      </trkpt>
      <trkpt lat="41.909822" lon="2.538020">
        <ele>906.761</ele>
        <time>2021-05-26T18:57:57Z</time>
      </trkpt>
      <trkpt lat="41.909842" lon="2.538039">
        <ele>906.107</ele>
        <time>2021-05-26T18:57:59Z</time>
      </trkpt>
      <trkpt lat="41.909862" lon="2.538056">
        <ele>905.508</ele>
        <time>2021-05-26T18:58:04Z</time>
      </trkpt>
      <trkpt lat="41.909877" lon="2.538079">
        <ele>905.140</ele>
        <time>2021-05-26T18:58:06Z</time>
      </trkpt>
      <trkpt lat="41.909921" lon="2.538190">
        <ele>904.427</ele>
        <time>2021-05-26T18:58:15Z</time>
      </trkpt>
      <trkpt lat="41.909979" lon="2.538301">
        <ele>903.444</ele>
        <time>2021-05-26T18:58:21Z</time>
      </trkpt>
      <trkpt lat="41.910039" lon="2.538402">
        <ele>902.518</ele>
        <time>2021-05-26T18:58:27Z</time>
      </trkpt>
      <trkpt lat="41.910062" lon="2.538530">
        <ele>903.433</ele>
        <time>2021-05-26T18:58:35Z</time>
      </trkpt>
      <trkpt lat="41.910134" lon="2.538618">
        <ele>901.843</ele>
        <time>2021-05-26T18:58:43Z</time>
      </trkpt>
      <trkpt lat="41.910231" lon="2.538684">
        <ele>899.279</ele>
        <time>2021-05-26T18:58:48Z</time>
      </trkpt>
      <trkpt lat="41.910314" lon="2.538752">
        <ele>897.044</ele>
        <time>2021-05-26T18:58:54Z</time>
      </trkpt>
      <trkpt lat="41.910355" lon="2.538869">
        <ele>897.347</ele>
        <time>2021-05-26T18:59:01Z</time>
      </trkpt>
      <trkpt lat="41.910393" lon="2.538942">
        <ele>896.629</ele>
        <time>2021-05-26T18:59:06Z</time>
      </trkpt>
      <trkpt lat="41.910400" lon="2.538975">
        <ele>896.721</ele>
        <time>2021-05-26T18:59:08Z</time>
      </trkpt>
      <trkpt lat="41.910410" lon="2.539005">
        <ele>896.708</ele>
        <time>2021-05-26T18:59:10Z</time>
      </trkpt>
      <trkpt lat="41.910431" lon="2.539034">
        <ele>896.331</ele>
        <time>2021-05-26T18:59:12Z</time>
      </trkpt>
      <trkpt lat="41.910456" lon="2.539064">
        <ele>895.878</ele>
        <time>2021-05-26T18:59:14Z</time>
      </trkpt>
      <trkpt lat="41.910475" lon="2.539089">
        <ele>895.595</ele>
        <time>2021-05-26T18:59:16Z</time>
      </trkpt>
      <trkpt lat="41.910478" lon="2.539116">
        <ele>895.829</ele>
        <time>2021-05-26T18:59:18Z</time>
      </trkpt>
      <trkpt lat="41.910486" lon="2.539145">
        <ele>895.994</ele>
        <time>2021-05-26T18:59:20Z</time>
      </trkpt>
      <trkpt lat="41.910498" lon="2.539174">
        <ele>896.064</ele>
        <time>2021-05-26T18:59:22Z</time>
      </trkpt>
      <trkpt lat="41.910504" lon="2.539204">
        <ele>896.620</ele>
        <time>2021-05-26T18:59:24Z</time>
      </trkpt>
      <trkpt lat="41.910509" lon="2.539236">
        <ele>897.215</ele>
        <time>2021-05-26T18:59:26Z</time>
      </trkpt>
      <trkpt lat="41.910515" lon="2.539265">
        <ele>897.729</ele>
        <time>2021-05-26T18:59:28Z</time>
      </trkpt>
      <trkpt lat="41.910519" lon="2.539290">
        <ele>898.200</ele>
        <time>2021-05-26T18:59:30Z</time>
      </trkpt>
      <trkpt lat="41.910521" lon="2.539329">
        <ele>899.120</ele>
        <time>2021-05-26T18:59:33Z</time>
      </trkpt>
      <trkpt lat="41.910509" lon="2.539359">
        <ele>900.208</ele>
        <time>2021-05-26T18:59:35Z</time>
      </trkpt>
      <trkpt lat="41.910504" lon="2.539388">
        <ele>901.139</ele>
        <time>2021-05-26T18:59:37Z</time>
      </trkpt>
      <trkpt lat="41.910493" lon="2.539424">
        <ele>902.326</ele>
        <time>2021-05-26T18:59:39Z</time>
      </trkpt>
      <trkpt lat="41.910491" lon="2.539462">
        <ele>903.273</ele>
        <time>2021-05-26T18:59:41Z</time>
      </trkpt>
      <trkpt lat="41.910493" lon="2.539504">
        <ele>903.917</ele>
        <time>2021-05-26T18:59:43Z</time>
      </trkpt>
      <trkpt lat="41.910493" lon="2.539545">
        <ele>904.622</ele>
        <time>2021-05-26T18:59:45Z</time>
      </trkpt>
      <trkpt lat="41.910495" lon="2.539575">
        <ele>905.152</ele>
        <time>2021-05-26T18:59:47Z</time>
      </trkpt>
      <trkpt lat="41.910494" lon="2.539609">
        <ele>905.768</ele>
        <time>2021-05-26T18:59:50Z</time>
      </trkpt>
      <trkpt lat="41.910522" lon="2.539653">
        <ele>905.723</ele>
        <time>2021-05-26T18:59:56Z</time>
      </trkpt>
      <trkpt lat="41.910545" lon="2.539649">
        <ele>905.054</ele>
        <time>2021-05-26T19:00:00Z</time>
      </trkpt>
      <trkpt lat="41.910622" lon="2.539574">
        <ele>903.356</ele>
        <time>2021-05-26T19:00:09Z</time>
      </trkpt>
      <trkpt lat="41.910651" lon="2.539542">
        <ele>902.711</ele>
        <time>2021-05-26T19:00:11Z</time>
      </trkpt>
      <trkpt lat="41.910664" lon="2.539525">
        <ele>902.308</ele>
        <time>2021-05-26T19:00:12Z</time>
      </trkpt>
      <trkpt lat="41.910683" lon="2.539499">
        <ele>901.772</ele>
        <time>2021-05-26T19:00:14Z</time>
      </trkpt>
      <trkpt lat="41.910701" lon="2.539482">
        <ele>901.379</ele>
        <time>2021-05-26T19:00:16Z</time>
      </trkpt>
      <trkpt lat="41.910721" lon="2.539475">
        <ele>901.136</ele>
        <time>2021-05-26T19:00:18Z</time>
      </trkpt>
      <trkpt lat="41.910744" lon="2.539475">
        <ele>901.030</ele>
        <time>2021-05-26T19:00:20Z</time>
      </trkpt>
      <trkpt lat="41.910766" lon="2.539479">
        <ele>901.135</ele>
        <time>2021-05-26T19:00:22Z</time>
      </trkpt>
      <trkpt lat="41.910792" lon="2.539483">
        <ele>901.145</ele>
        <time>2021-05-26T19:00:24Z</time>
      </trkpt>
      <trkpt lat="41.910818" lon="2.539494">
        <ele>901.311</ele>
        <time>2021-05-26T19:00:26Z</time>
      </trkpt>
      <trkpt lat="41.910845" lon="2.539488">
        <ele>901.316</ele>
        <time>2021-05-26T19:00:28Z</time>
      </trkpt>
      <trkpt lat="41.910866" lon="2.539475">
        <ele>901.394</ele>
        <time>2021-05-26T19:00:30Z</time>
      </trkpt>
      <trkpt lat="41.910882" lon="2.539457">
        <ele>901.257</ele>
        <time>2021-05-26T19:00:32Z</time>
      </trkpt>
      <trkpt lat="41.910897" lon="2.539441">
        <ele>901.122</ele>
        <time>2021-05-26T19:00:34Z</time>
      </trkpt>
      <trkpt lat="41.910898" lon="2.539414">
        <ele>900.308</ele>
        <time>2021-05-26T19:00:37Z</time>
      </trkpt>
      <trkpt lat="41.910898" lon="2.539388">
        <ele>899.626</ele>
        <time>2021-05-26T19:00:39Z</time>
      </trkpt>
      <trkpt lat="41.910896" lon="2.539359">
        <ele>898.873</ele>
        <time>2021-05-26T19:00:41Z</time>
      </trkpt>
      <trkpt lat="41.910893" lon="2.539326">
        <ele>897.810</ele>
        <time>2021-05-26T19:00:44Z</time>
      </trkpt>
      <trkpt lat="41.910898" lon="2.539295">
        <ele>897.174</ele>
        <time>2021-05-26T19:00:46Z</time>
      </trkpt>
      <trkpt lat="41.910897" lon="2.539267">
        <ele>896.319</ele>
        <time>2021-05-26T19:00:48Z</time>
      </trkpt>
      <trkpt lat="41.910904" lon="2.539239">
        <ele>895.749</ele>
        <time>2021-05-26T19:00:50Z</time>
      </trkpt>
      <trkpt lat="41.910912" lon="2.539209">
        <ele>895.185</ele>
        <time>2021-05-26T19:00:52Z</time>
      </trkpt>
      <trkpt lat="41.910918" lon="2.539180">
        <ele>894.530</ele>
        <time>2021-05-26T19:00:54Z</time>
      </trkpt>
      <trkpt lat="41.910932" lon="2.539150">
        <ele>894.251</ele>
        <time>2021-05-26T19:00:56Z</time>
      </trkpt>
      <trkpt lat="41.910945" lon="2.539124">
        <ele>894.001</ele>
        <time>2021-05-26T19:00:58Z</time>
      </trkpt>
      <trkpt lat="41.910970" lon="2.539102">
        <ele>894.311</ele>
        <time>2021-05-26T19:01:00Z</time>
      </trkpt>
      <trkpt lat="41.910991" lon="2.539089">
        <ele>894.608</ele>
        <time>2021-05-26T19:01:02Z</time>
      </trkpt>
      <trkpt lat="41.911013" lon="2.539080">
        <ele>895.082</ele>
        <time>2021-05-26T19:01:04Z</time>
      </trkpt>
      <trkpt lat="41.911034" lon="2.539074">
        <ele>895.499</ele>
        <time>2021-05-26T19:01:06Z</time>
      </trkpt>
      <trkpt lat="41.911053" lon="2.539067">
        <ele>895.756</ele>
        <time>2021-05-26T19:01:08Z</time>
      </trkpt>
      <trkpt lat="41.911075" lon="2.539055">
        <ele>896.110</ele>
        <time>2021-05-26T19:01:10Z</time>
      </trkpt>
      <trkpt lat="41.911102" lon="2.539044">
        <ele>896.635</ele>
        <time>2021-05-26T19:01:12Z</time>
      </trkpt>
      <trkpt lat="41.911130" lon="2.539025">
        <ele>897.335</ele>
        <time>2021-05-26T19:01:14Z</time>
      </trkpt>
      <trkpt lat="41.911154" lon="2.539002">
        <ele>898.121</ele>
        <time>2021-05-26T19:01:16Z</time>
      </trkpt>
      <trkpt lat="41.911177" lon="2.538982">
        <ele>898.866</ele>
        <time>2021-05-26T19:01:18Z</time>
      </trkpt>
      <trkpt lat="41.911193" lon="2.538958">
        <ele>899.259</ele>
        <time>2021-05-26T19:01:20Z</time>
      </trkpt>
      <trkpt lat="41.911207" lon="2.538938">
        <ele>899.603</ele>
        <time>2021-05-26T19:01:22Z</time>
      </trkpt>
      <trkpt lat="41.911220" lon="2.538920">
        <ele>900.023</ele>
        <time>2021-05-26T19:01:24Z</time>
      </trkpt>
      <trkpt lat="41.911239" lon="2.538896">
        <ele>900.508</ele>
        <time>2021-05-26T19:01:26Z</time>
      </trkpt>
      <trkpt lat="41.911257" lon="2.538871">
        <ele>900.922</ele>
        <time>2021-05-26T19:01:28Z</time>
      </trkpt>
      <trkpt lat="41.911269" lon="2.538849">
        <ele>901.029</ele>
        <time>2021-05-26T19:01:30Z</time>
      </trkpt>
      <trkpt lat="41.911278" lon="2.538829">
        <ele>900.916</ele>
        <time>2021-05-26T19:01:32Z</time>
      </trkpt>
      <trkpt lat="41.911291" lon="2.538806">
        <ele>901.080</ele>
        <time>2021-05-26T19:01:34Z</time>
      </trkpt>
      <trkpt lat="41.911302" lon="2.538780">
        <ele>900.925</ele>
        <time>2021-05-26T19:01:36Z</time>
      </trkpt>
      <trkpt lat="41.911311" lon="2.538752">
        <ele>900.575</ele>
        <time>2021-05-26T19:01:38Z</time>
      </trkpt>
      <trkpt lat="41.911320" lon="2.538721">
        <ele>900.111</ele>
        <time>2021-05-26T19:01:41Z</time>
      </trkpt>
      <trkpt lat="41.911331" lon="2.538698">
        <ele>900.026</ele>
        <time>2021-05-26T19:01:44Z</time>
      </trkpt>
      <trkpt lat="41.911341" lon="2.538669">
        <ele>899.747</ele>
        <time>2021-05-26T19:01:48Z</time>
      </trkpt>
      <trkpt lat="41.911349" lon="2.538646">
        <ele>899.429</ele>
        <time>2021-05-26T19:01:50Z</time>
      </trkpt>
      <trkpt lat="41.911359" lon="2.538622">
        <ele>899.121</ele>
        <time>2021-05-26T19:01:52Z</time>
      </trkpt>
      <trkpt lat="41.911376" lon="2.538594">
        <ele>899.208</ele>
        <time>2021-05-26T19:01:55Z</time>
      </trkpt>
      <trkpt lat="41.911393" lon="2.538578">
        <ele>899.691</ele>
        <time>2021-05-26T19:01:57Z</time>
      </trkpt>
      <trkpt lat="41.911408" lon="2.538556">
        <ele>899.988</ele>
        <time>2021-05-26T19:01:59Z</time>
      </trkpt>
      <trkpt lat="41.911424" lon="2.538535">
        <ele>900.315</ele>
        <time>2021-05-26T19:02:01Z</time>
      </trkpt>
      <trkpt lat="41.911437" lon="2.538516">
        <ele>900.679</ele>
        <time>2021-05-26T19:02:03Z</time>
      </trkpt>
      <trkpt lat="41.911451" lon="2.538500">
        <ele>901.044</ele>
        <time>2021-05-26T19:02:05Z</time>
      </trkpt>
      <trkpt lat="41.911463" lon="2.538481">
        <ele>901.174</ele>
        <time>2021-05-26T19:02:07Z</time>
      </trkpt>
      <trkpt lat="41.911475" lon="2.538461">
        <ele>901.370</ele>
        <time>2021-05-26T19:02:09Z</time>
      </trkpt>
      <trkpt lat="41.911486" lon="2.538433">
        <ele>901.295</ele>
        <time>2021-05-26T19:02:11Z</time>
      </trkpt>
      <trkpt lat="41.911496" lon="2.538404">
        <ele>901.195</ele>
        <time>2021-05-26T19:02:13Z</time>
      </trkpt>
      <trkpt lat="41.911506" lon="2.538377">
        <ele>901.049</ele>
        <time>2021-05-26T19:02:15Z</time>
      </trkpt>
      <trkpt lat="41.911517" lon="2.538349">
        <ele>900.923</ele>
        <time>2021-05-26T19:02:17Z</time>
      </trkpt>
      <trkpt lat="41.911528" lon="2.538322">
        <ele>900.808</ele>
        <time>2021-05-26T19:02:19Z</time>
      </trkpt>
      <trkpt lat="41.911539" lon="2.538297">
        <ele>900.996</ele>
        <time>2021-05-26T19:02:21Z</time>
      </trkpt>
      <trkpt lat="41.911552" lon="2.538270">
        <ele>901.083</ele>
        <time>2021-05-26T19:02:24Z</time>
      </trkpt>
      <trkpt lat="41.911565" lon="2.538241">
        <ele>901.160</ele>
        <time>2021-05-26T19:02:25Z</time>
      </trkpt>
      <trkpt lat="41.911578" lon="2.538215">
        <ele>901.244</ele>
        <time>2021-05-26T19:02:27Z</time>
      </trkpt>
      <trkpt lat="41.911592" lon="2.538191">
        <ele>901.429</ele>
        <time>2021-05-26T19:02:29Z</time>
      </trkpt>
      <trkpt lat="41.911609" lon="2.538166">
        <ele>901.699</ele>
        <time>2021-05-26T19:02:31Z</time>
      </trkpt>
      <trkpt lat="41.911626" lon="2.538138">
        <ele>901.825</ele>
        <time>2021-05-26T19:02:33Z</time>
      </trkpt>
      <trkpt lat="41.911644" lon="2.538112">
        <ele>902.190</ele>
        <time>2021-05-26T19:02:35Z</time>
      </trkpt>
      <trkpt lat="41.911662" lon="2.538093">
        <ele>902.512</ele>
        <time>2021-05-26T19:02:37Z</time>
      </trkpt>
      <trkpt lat="41.911681" lon="2.538078">
        <ele>902.732</ele>
        <time>2021-05-26T19:02:39Z</time>
      </trkpt>
      <trkpt lat="41.911699" lon="2.538065">
        <ele>902.805</ele>
        <time>2021-05-26T19:02:41Z</time>
      </trkpt>
      <trkpt lat="41.911718" lon="2.538048">
        <ele>902.808</ele>
        <time>2021-05-26T19:02:43Z</time>
      </trkpt>
      <trkpt lat="41.911738" lon="2.538033">
        <ele>902.938</ele>
        <time>2021-05-26T19:02:45Z</time>
      </trkpt>
      <trkpt lat="41.911759" lon="2.538013">
        <ele>902.925</ele>
        <time>2021-05-26T19:02:47Z</time>
      </trkpt>
      <trkpt lat="41.911780" lon="2.537996">
        <ele>903.012</ele>
        <time>2021-05-26T19:02:49Z</time>
      </trkpt>
      <trkpt lat="41.911805" lon="2.537987">
        <ele>903.326</ele>
        <time>2021-05-26T19:02:52Z</time>
      </trkpt>
      <trkpt lat="41.911828" lon="2.537972">
        <ele>903.491</ele>
        <time>2021-05-26T19:02:54Z</time>
      </trkpt>
      <trkpt lat="41.911847" lon="2.537959">
        <ele>903.531</ele>
        <time>2021-05-26T19:02:56Z</time>
      </trkpt>
      <trkpt lat="41.911912" lon="2.537947">
        <ele>904.547</ele>
        <time>2021-05-26T19:03:02Z</time>
      </trkpt>
      <trkpt lat="41.911934" lon="2.537946">
        <ele>904.822</ele>
        <time>2021-05-26T19:03:04Z</time>
      </trkpt>
      <trkpt lat="41.912021" lon="2.537994">
        <ele>905.293</ele>
        <time>2021-05-26T19:03:12Z</time>
      </trkpt>
      <trkpt lat="41.912105" lon="2.538069">
        <ele>906.165</ele>
        <time>2021-05-26T19:03:19Z</time>
      </trkpt>
      <trkpt lat="41.912154" lon="2.538172">
        <ele>907.421</ele>
        <time>2021-05-26T19:03:26Z</time>
      </trkpt>
      <trkpt lat="41.912175" lon="2.538214">
        <ele>907.808</ele>
        <time>2021-05-26T19:03:29Z</time>
      </trkpt>
      <trkpt lat="41.912187" lon="2.538238">
        <ele>908.056</ele>
        <time>2021-05-26T19:03:32Z</time>
      </trkpt>
      <trkpt lat="41.912203" lon="2.538264">
        <ele>908.253</ele>
        <time>2021-05-26T19:03:34Z</time>
      </trkpt>
      <trkpt lat="41.912228" lon="2.538342">
        <ele>909.020</ele>
        <time>2021-05-26T19:03:39Z</time>
      </trkpt>
      <trkpt lat="41.912238" lon="2.538367">
        <ele>909.384</ele>
        <time>2021-05-26T19:03:41Z</time>
      </trkpt>
      <trkpt lat="41.912263" lon="2.538487">
        <ele>911.219</ele>
        <time>2021-05-26T19:03:50Z</time>
      </trkpt>
      <trkpt lat="41.912287" lon="2.538540">
        <ele>911.719</ele>
        <time>2021-05-26T19:03:53Z</time>
      </trkpt>
      <trkpt lat="41.912301" lon="2.538574">
        <ele>912.095</ele>
        <time>2021-05-26T19:03:55Z</time>
      </trkpt>
      <trkpt lat="41.912311" lon="2.538623">
        <ele>912.720</ele>
        <time>2021-05-26T19:03:59Z</time>
      </trkpt>
      <trkpt lat="41.912317" lon="2.538663">
        <ele>913.335</ele>
        <time>2021-05-26T19:04:01Z</time>
      </trkpt>
      <trkpt lat="41.912321" lon="2.538705">
        <ele>914.186</ele>
        <time>2021-05-26T19:04:03Z</time>
      </trkpt>
      <trkpt lat="41.912324" lon="2.538741">
        <ele>914.714</ele>
        <time>2021-05-26T19:04:05Z</time>
      </trkpt>
      <trkpt lat="41.912331" lon="2.538776">
        <ele>915.208</ele>
        <time>2021-05-26T19:04:07Z</time>
      </trkpt>
      <trkpt lat="41.912334" lon="2.538807">
        <ele>915.730</ele>
        <time>2021-05-26T19:04:09Z</time>
      </trkpt>
      <trkpt lat="41.912340" lon="2.538839">
        <ele>916.277</ele>
        <time>2021-05-26T19:04:11Z</time>
      </trkpt>
      <trkpt lat="41.912352" lon="2.538864">
        <ele>916.364</ele>
        <time>2021-05-26T19:04:13Z</time>
      </trkpt>
      <trkpt lat="41.912364" lon="2.538884">
        <ele>916.348</ele>
        <time>2021-05-26T19:04:15Z</time>
      </trkpt>
      <trkpt lat="41.912381" lon="2.538909">
        <ele>916.273</ele>
        <time>2021-05-26T19:04:18Z</time>
      </trkpt>
      <trkpt lat="41.912394" lon="2.538936">
        <ele>916.243</ele>
        <time>2021-05-26T19:04:20Z</time>
      </trkpt>
      <trkpt lat="41.912405" lon="2.538965">
        <ele>916.369</ele>
        <time>2021-05-26T19:04:22Z</time>
      </trkpt>
      <trkpt lat="41.912410" lon="2.538996">
        <ele>916.654</ele>
        <time>2021-05-26T19:04:24Z</time>
      </trkpt>
      <trkpt lat="41.912422" lon="2.539020">
        <ele>916.551</ele>
        <time>2021-05-26T19:04:26Z</time>
      </trkpt>
      <trkpt lat="41.912424" lon="2.539047">
        <ele>916.901</ele>
        <time>2021-05-26T19:04:30Z</time>
      </trkpt>
      <trkpt lat="41.912468" lon="2.539162">
        <ele>917.111</ele>
        <time>2021-05-26T19:04:40Z</time>
      </trkpt>
      <trkpt lat="41.912505" lon="2.539287">
        <ele>918.908</ele>
        <time>2021-05-26T19:04:47Z</time>
      </trkpt>
      <trkpt lat="41.912547" lon="2.539364">
        <ele>919.492</ele>
        <time>2021-05-26T19:04:53Z</time>
      </trkpt>
      <trkpt lat="41.912618" lon="2.539458">
        <ele>919.219</ele>
        <time>2021-05-26T19:05:01Z</time>
      </trkpt>
      <trkpt lat="41.912635" lon="2.539478">
        <ele>919.376</ele>
        <time>2021-05-26T19:05:03Z</time>
      </trkpt>
      <trkpt lat="41.912669" lon="2.539530">
        <ele>919.940</ele>
        <time>2021-05-26T19:05:08Z</time>
      </trkpt>
      <trkpt lat="41.912745" lon="2.539621">
        <ele>920.585</ele>
        <time>2021-05-26T19:05:17Z</time>
      </trkpt>
      <trkpt lat="41.912799" lon="2.539703">
        <ele>921.965</ele>
        <time>2021-05-26T19:05:25Z</time>
      </trkpt>
      <trkpt lat="41.912823" lon="2.539719">
        <ele>921.981</ele>
        <time>2021-05-26T19:05:27Z</time>
      </trkpt>
      <trkpt lat="41.912846" lon="2.539730">
        <ele>921.836</ele>
        <time>2021-05-26T19:05:29Z</time>
      </trkpt>
      <trkpt lat="41.912867" lon="2.539741">
        <ele>921.886</ele>
        <time>2021-05-26T19:05:31Z</time>
      </trkpt>
      <trkpt lat="41.912891" lon="2.539743">
        <ele>921.460</ele>
        <time>2021-05-26T19:05:34Z</time>
      </trkpt>
      <trkpt lat="41.912917" lon="2.539748">
        <ele>921.026</ele>
        <time>2021-05-26T19:05:35Z</time>
      </trkpt>
      <trkpt lat="41.913008" lon="2.539740">
        <ele>918.708</ele>
        <time>2021-05-26T19:05:44Z</time>
      </trkpt>
      <trkpt lat="41.913070" lon="2.539827">
        <ele>920.775</ele>
        <time>2021-05-26T19:05:51Z</time>
      </trkpt>
      <trkpt lat="41.913147" lon="2.539892">
        <ele>922.532</ele>
        <time>2021-05-26T19:06:02Z</time>
      </trkpt>
      <trkpt lat="41.913201" lon="2.539990">
        <ele>925.129</ele>
        <time>2021-05-26T19:06:09Z</time>
      </trkpt>
      <trkpt lat="41.913278" lon="2.540074">
        <ele>926.733</ele>
        <time>2021-05-26T19:06:15Z</time>
      </trkpt>
      <trkpt lat="41.913330" lon="2.540176">
        <ele>928.538</ele>
        <time>2021-05-26T19:06:22Z</time>
      </trkpt>
      <trkpt lat="41.913405" lon="2.540259">
        <ele>930.668</ele>
        <time>2021-05-26T19:06:30Z</time>
      </trkpt>
      <trkpt lat="41.913470" lon="2.540361">
        <ele>932.764</ele>
        <time>2021-05-26T19:06:39Z</time>
      </trkpt>
      <trkpt lat="41.913555" lon="2.540432">
        <ele>933.639</ele>
        <time>2021-05-26T19:06:45Z</time>
      </trkpt>
      <trkpt lat="41.913612" lon="2.540530">
        <ele>934.619</ele>
        <time>2021-05-26T19:06:53Z</time>
      </trkpt>
      <trkpt lat="41.913667" lon="2.540634">
        <ele>935.909</ele>
        <time>2021-05-26T19:07:01Z</time>
      </trkpt>
      <trkpt lat="41.913766" lon="2.540589">
        <ele>935.419</ele>
        <time>2021-05-26T19:07:10Z</time>
      </trkpt>
      <trkpt lat="41.913806" lon="2.540470">
        <ele>934.408</ele>
        <time>2021-05-26T19:07:18Z</time>
      </trkpt>
      <trkpt lat="41.913780" lon="2.540348">
        <ele>933.488</ele>
        <time>2021-05-26T19:07:30Z</time>
      </trkpt>
      <trkpt lat="41.913801" lon="2.540467">
        <ele>934.485</ele>
        <time>2021-05-26T19:07:56Z</time>
      </trkpt>
      <trkpt lat="41.913760" lon="2.540582">
        <ele>935.312</ele>
        <time>2021-05-26T19:08:07Z</time>
      </trkpt>
      <trkpt lat="41.913693" lon="2.540670">
        <ele>936.476</ele>
        <time>2021-05-26T19:08:22Z</time>
      </trkpt>
      <trkpt lat="41.913619" lon="2.540751">
        <ele>937.141</ele>
        <time>2021-05-26T19:08:32Z</time>
      </trkpt>
      <trkpt lat="41.913587" lon="2.540809">
        <ele>938.051</ele>
        <time>2021-05-26T19:09:00Z</time>
      </trkpt>
      <trkpt lat="41.913495" lon="2.540800">
        <ele>938.997</ele>
        <time>2021-05-26T19:09:31Z</time>
      </trkpt>
      <trkpt lat="41.913492" lon="2.540726">
        <ele>938.122</ele>
        <time>2021-05-26T19:09:54Z</time>
      </trkpt>
      <trkpt lat="41.913429" lon="2.540635">
        <ele>937.839</ele>
        <time>2021-05-26T19:10:10Z</time>
      </trkpt>
      <trkpt lat="41.913351" lon="2.540555">
        <ele>937.801</ele>
        <time>2021-05-26T19:10:21Z</time>
      </trkpt>
      <trkpt lat="41.913330" lon="2.540545">
        <ele>937.921</ele>
        <time>2021-05-26T19:10:31Z</time>
      </trkpt>
      <trkpt lat="41.913323" lon="2.540567">
        <ele>938.508</ele>
        <time>2021-05-26T19:10:35Z</time>
      </trkpt>
      <trkpt lat="41.913315" lon="2.540594">
        <ele>939.160</ele>
        <time>2021-05-26T19:10:38Z</time>
      </trkpt>
      <trkpt lat="41.913299" lon="2.540616">
        <ele>939.927</ele>
        <time>2021-05-26T19:10:43Z</time>
      </trkpt>
      <trkpt lat="41.913259" lon="2.540613">
        <ele>941.494</ele>
        <time>2021-05-26T19:10:54Z</time>
      </trkpt>
      <trkpt lat="41.913247" lon="2.540634">
        <ele>942.048</ele>
        <time>2021-05-26T19:10:58Z</time>
      </trkpt>
      <trkpt lat="41.913192" lon="2.540590">
        <ele>943.553</ele>
        <time>2021-05-26T19:11:18Z</time>
      </trkpt>
      <trkpt lat="41.913126" lon="2.540506">
        <ele>943.893</ele>
        <time>2021-05-26T19:11:36Z</time>
      </trkpt>
      <trkpt lat="41.913034" lon="2.540494">
        <ele>946.349</ele>
        <time>2021-05-26T19:11:56Z</time>
      </trkpt>
      <trkpt lat="41.912941" lon="2.540512">
        <ele>949.414</ele>
        <time>2021-05-26T19:12:08Z</time>
      </trkpt>
      <trkpt lat="41.912892" lon="2.540533">
        <ele>951.432</ele>
        <time>2021-05-26T19:12:17Z</time>
      </trkpt>
      <trkpt lat="41.912872" lon="2.540541">
        <ele>952.192</ele>
        <time>2021-05-26T19:12:24Z</time>
      </trkpt>
      <trkpt lat="41.912862" lon="2.540565">
        <ele>953.111</ele>
        <time>2021-05-26T19:12:29Z</time>
      </trkpt>
      <trkpt lat="41.912854" lon="2.540592">
        <ele>953.808</ele>
        <time>2021-05-26T19:12:34Z</time>
      </trkpt>
      <trkpt lat="41.912821" lon="2.540711">
        <ele>957.160</ele>
        <time>2021-05-26T19:12:50Z</time>
      </trkpt>
      <trkpt lat="41.912786" lon="2.540823">
        <ele>960.597</ele>
        <time>2021-05-26T19:13:15Z</time>
      </trkpt>
      <trkpt lat="41.912732" lon="2.540921">
        <ele>963.764</ele>
        <time>2021-05-26T19:13:34Z</time>
      </trkpt>
      <trkpt lat="41.912666" lon="2.541015">
        <ele>967.278</ele>
        <time>2021-05-26T19:13:51Z</time>
      </trkpt>
      <trkpt lat="41.912598" lon="2.541109">
        <ele>970.873</ele>
        <time>2021-05-26T19:14:10Z</time>
      </trkpt>
      <trkpt lat="41.912512" lon="2.541164">
        <ele>973.653</ele>
        <time>2021-05-26T19:14:46Z</time>
      </trkpt>
      <trkpt lat="41.912486" lon="2.541289">
        <ele>974.189</ele>
        <time>2021-05-26T19:15:06Z</time>
      </trkpt>
      <trkpt lat="41.912411" lon="2.541357">
        <ele>974.724</ele>
        <time>2021-05-26T19:15:27Z</time>
      </trkpt>
      <trkpt lat="41.912340" lon="2.541417">
        <ele>974.739</ele>
        <time>2021-05-26T19:15:46Z</time>
      </trkpt>
      <trkpt lat="41.912310" lon="2.541461">
        <ele>974.201</ele>
        <time>2021-05-26T19:15:57Z</time>
      </trkpt>
      <trkpt lat="41.912291" lon="2.541476">
        <ele>974.021</ele>
        <time>2021-05-26T19:16:00Z</time>
      </trkpt>
      <trkpt lat="41.912278" lon="2.541447">
        <ele>974.608</ele>
        <time>2021-05-26T19:16:15Z</time>
      </trkpt>
      <trkpt lat="41.912190" lon="2.541396">
        <ele>975.890</ele>
        <time>2021-05-26T19:16:36Z</time>
      </trkpt>
      <trkpt lat="41.912099" lon="2.541401">
        <ele>975.387</ele>
        <time>2021-05-26T19:16:59Z</time>
      </trkpt>
      <trkpt lat="41.912009" lon="2.541444">
        <ele>974.294</ele>
        <time>2021-05-26T19:17:15Z</time>
      </trkpt>
      <trkpt lat="41.911923" lon="2.541490">
        <ele>973.158</ele>
        <time>2021-05-26T19:17:25Z</time>
      </trkpt>
      <trkpt lat="41.911835" lon="2.541450">
        <ele>973.343</ele>
        <time>2021-05-26T19:17:38Z</time>
      </trkpt>
      <trkpt lat="41.911841" lon="2.541424">
        <ele>973.763</ele>
        <time>2021-05-26T19:17:41Z</time>
      </trkpt>
      <trkpt lat="41.911768" lon="2.541366">
        <ele>973.629</ele>
        <time>2021-05-26T19:18:01Z</time>
      </trkpt>
      <trkpt lat="41.911748" lon="2.541369">
        <ele>973.434</ele>
        <time>2021-05-26T19:18:04Z</time>
      </trkpt>
      <trkpt lat="41.911728" lon="2.541362">
        <ele>973.213</ele>
        <time>2021-05-26T19:18:15Z</time>
      </trkpt>
      <trkpt lat="41.911718" lon="2.541340">
        <ele>972.943</ele>
        <time>2021-05-26T19:18:22Z</time>
      </trkpt>
      <trkpt lat="41.911709" lon="2.541316">
        <ele>972.607</ele>
        <time>2021-05-26T19:18:31Z</time>
      </trkpt>
      <trkpt lat="41.911692" lon="2.541328">
        <ele>972.608</ele>
        <time>2021-05-26T19:18:39Z</time>
      </trkpt>
      <trkpt lat="41.911673" lon="2.541348">
        <ele>972.628</ele>
        <time>2021-05-26T19:18:42Z</time>
      </trkpt>
      <trkpt lat="41.911651" lon="2.541356">
        <ele>972.435</ele>
        <time>2021-05-26T19:18:45Z</time>
      </trkpt>
      <trkpt lat="41.911744" lon="2.541306">
        <ele>972.952</ele>
        <time>2021-05-26T19:19:05Z</time>
      </trkpt>
      <trkpt lat="41.911776" lon="2.541285">
        <ele>973.146</ele>
        <time>2021-05-26T19:19:11Z</time>
      </trkpt>
      <trkpt lat="41.911785" lon="2.541262">
        <ele>973.191</ele>
        <time>2021-05-26T19:19:19Z</time>
      </trkpt>
      <trkpt lat="41.911808" lon="2.541243">
        <ele>973.281</ele>
        <time>2021-05-26T19:19:22Z</time>
      </trkpt>
      <trkpt lat="41.911828" lon="2.541222">
        <ele>973.437</ele>
        <time>2021-05-26T19:19:23Z</time>
      </trkpt>
      <trkpt lat="41.911850" lon="2.541211">
        <ele>973.712</ele>
        <time>2021-05-26T19:19:25Z</time>
      </trkpt>
      <trkpt lat="41.911873" lon="2.541200">
        <ele>974.099</ele>
        <time>2021-05-26T19:19:27Z</time>
      </trkpt>
      <trkpt lat="41.911896" lon="2.541185">
        <ele>974.307</ele>
        <time>2021-05-26T19:19:29Z</time>
      </trkpt>
      <trkpt lat="41.911912" lon="2.541168">
        <ele>974.527</ele>
        <time>2021-05-26T19:19:31Z</time>
      </trkpt>
      <trkpt lat="41.911958" lon="2.541094">
        <ele>974.708</ele>
        <time>2021-05-26T19:20:01Z</time>
      </trkpt>
      <trkpt lat="41.911984" lon="2.541077">
        <ele>974.516</ele>
        <time>2021-05-26T19:20:04Z</time>
      </trkpt>
      <trkpt lat="41.912006" lon="2.541066">
        <ele>974.413</ele>
        <time>2021-05-26T19:20:06Z</time>
      </trkpt>
      <trkpt lat="41.912025" lon="2.541054">
        <ele>974.390</ele>
        <time>2021-05-26T19:20:08Z</time>
      </trkpt>
      <trkpt lat="41.912044" lon="2.541042">
        <ele>974.254</ele>
        <time>2021-05-26T19:20:10Z</time>
      </trkpt>
      <trkpt lat="41.912060" lon="2.541029">
        <ele>974.159</ele>
        <time>2021-05-26T19:20:12Z</time>
      </trkpt>
      <trkpt lat="41.912076" lon="2.541013">
        <ele>974.039</ele>
        <time>2021-05-26T19:20:14Z</time>
      </trkpt>
      <trkpt lat="41.912094" lon="2.540996">
        <ele>973.855</ele>
        <time>2021-05-26T19:20:16Z</time>
      </trkpt>
      <trkpt lat="41.912109" lon="2.540974">
        <ele>973.620</ele>
        <time>2021-05-26T19:20:18Z</time>
      </trkpt>
      <trkpt lat="41.912129" lon="2.540952">
        <ele>973.516</ele>
        <time>2021-05-26T19:20:20Z</time>
      </trkpt>
      <trkpt lat="41.912149" lon="2.540934">
        <ele>973.476</ele>
        <time>2021-05-26T19:20:22Z</time>
      </trkpt>
      <trkpt lat="41.912174" lon="2.540914">
        <ele>973.413</ele>
        <time>2021-05-26T19:20:24Z</time>
      </trkpt>
      <trkpt lat="41.912198" lon="2.540890">
        <ele>973.408</ele>
        <time>2021-05-26T19:20:26Z</time>
      </trkpt>
      <trkpt lat="41.912226" lon="2.540888">
        <ele>973.758</ele>
        <time>2021-05-26T19:20:28Z</time>
      </trkpt>
      <trkpt lat="41.912323" lon="2.540904">
        <ele>972.935</ele>
        <time>2021-05-26T19:20:37Z</time>
      </trkpt>
      <trkpt lat="41.912414" lon="2.540944">
        <ele>972.592</ele>
        <time>2021-05-26T19:20:46Z</time>
      </trkpt>
      <trkpt lat="41.912483" lon="2.541031">
        <ele>973.066</ele>
        <time>2021-05-26T19:20:54Z</time>
      </trkpt>
      <trkpt lat="41.912558" lon="2.541103">
        <ele>972.011</ele>
        <time>2021-05-26T19:21:00Z</time>
      </trkpt>
      <trkpt lat="41.912617" lon="2.541198">
        <ele>970.641</ele>
        <time>2021-05-26T19:21:09Z</time>
      </trkpt>
      <trkpt lat="41.912649" lon="2.541322">
        <ele>970.467</ele>
        <time>2021-05-26T19:21:20Z</time>
      </trkpt>
      <trkpt lat="41.912686" lon="2.541447">
        <ele>969.662</ele>
        <time>2021-05-26T19:21:28Z</time>
      </trkpt>
      <trkpt lat="41.912740" lon="2.541554">
        <ele>968.046</ele>
        <time>2021-05-26T19:21:33Z</time>
      </trkpt>
      <trkpt lat="41.912780" lon="2.541625">
        <ele>967.188</ele>
        <time>2021-05-26T19:21:41Z</time>
      </trkpt>
      <trkpt lat="41.912798" lon="2.541641">
        <ele>966.616</ele>
        <time>2021-05-26T19:21:43Z</time>
      </trkpt>
      <trkpt lat="41.912861" lon="2.541757">
        <ele>963.908</ele>
        <time>2021-05-26T19:21:51Z</time>
      </trkpt>
      <trkpt lat="41.912898" lon="2.541783">
        <ele>962.981</ele>
        <time>2021-05-26T19:21:55Z</time>
      </trkpt>
      <trkpt lat="41.912912" lon="2.541804">
        <ele>962.338</ele>
        <time>2021-05-26T19:21:57Z</time>
      </trkpt>
      <trkpt lat="41.912932" lon="2.541816">
        <ele>961.995</ele>
        <time>2021-05-26T19:21:59Z</time>
      </trkpt>
      <trkpt lat="41.913042" lon="2.541847">
        <ele>959.979</ele>
        <time>2021-05-26T19:22:04Z</time>
      </trkpt>
      <trkpt lat="41.913144" lon="2.541841">
        <ele>959.164</ele>
        <time>2021-05-26T19:22:08Z</time>
      </trkpt>
      <trkpt lat="41.913257" lon="2.541825">
        <ele>958.254</ele>
        <time>2021-05-26T19:22:11Z</time>
      </trkpt>
      <trkpt lat="41.913359" lon="2.541800">
        <ele>957.590</ele>
        <time>2021-05-26T19:22:15Z</time>
      </trkpt>
      <trkpt lat="41.913452" lon="2.541782">
        <ele>957.375</ele>
        <time>2021-05-26T19:22:20Z</time>
      </trkpt>
      <trkpt lat="41.913549" lon="2.541804">
        <ele>957.518</ele>
        <time>2021-05-26T19:22:25Z</time>
      </trkpt>
      <trkpt lat="41.913650" lon="2.541812">
        <ele>957.698</ele>
        <time>2021-05-26T19:22:30Z</time>
      </trkpt>
      <trkpt lat="41.913761" lon="2.541803">
        <ele>957.717</ele>
        <time>2021-05-26T19:22:34Z</time>
      </trkpt>
      <trkpt lat="41.913871" lon="2.541836">
        <ele>958.408</ele>
        <time>2021-05-26T19:22:39Z</time>
      </trkpt>
      <trkpt lat="41.913959" lon="2.541858">
        <ele>958.788</ele>
        <time>2021-05-26T19:22:43Z</time>
      </trkpt>
      <trkpt lat="41.914051" lon="2.541850">
        <ele>958.565</ele>
        <time>2021-05-26T19:22:47Z</time>
      </trkpt>
      <trkpt lat="41.914154" lon="2.541834">
        <ele>958.292</ele>
        <time>2021-05-26T19:22:53Z</time>
      </trkpt>
      <trkpt lat="41.914240" lon="2.541760">
        <ele>959.346</ele>
        <time>2021-05-26T19:23:00Z</time>
      </trkpt>
      <trkpt lat="41.914300" lon="2.541667">
        <ele>960.471</ele>
        <time>2021-05-26T19:23:07Z</time>
      </trkpt>
      <trkpt lat="41.914361" lon="2.541566">
        <ele>960.171</ele>
        <time>2021-05-26T19:23:16Z</time>
      </trkpt>
      <trkpt lat="41.914417" lon="2.541453">
        <ele>959.537</ele>
        <time>2021-05-26T19:23:24Z</time>
      </trkpt>
      <trkpt lat="41.914462" lon="2.541338">
        <ele>958.512</ele>
        <time>2021-05-26T19:23:32Z</time>
      </trkpt>
      <trkpt lat="41.914403" lon="2.541450">
        <ele>959.123</ele>
        <time>2021-05-26T19:23:46Z</time>
      </trkpt>
      <trkpt lat="41.914327" lon="2.541526">
        <ele>958.583</ele>
        <time>2021-05-26T19:23:51Z</time>
      </trkpt>
      <trkpt lat="41.914272" lon="2.541632">
        <ele>959.011</ele>
        <time>2021-05-26T19:23:55Z</time>
      </trkpt>
      <trkpt lat="41.914179" lon="2.541727">
        <ele>957.708</ele>
        <time>2021-05-26T19:24:00Z</time>
      </trkpt>
      <trkpt lat="41.914096" lon="2.541808">
        <ele>958.039</ele>
        <time>2021-05-26T19:24:06Z</time>
      </trkpt>
      <trkpt lat="41.914017" lon="2.541870">
        <ele>958.766</ele>
        <time>2021-05-26T19:24:15Z</time>
      </trkpt>
      <trkpt lat="41.913950" lon="2.541959">
        <ele>959.783</ele>
        <time>2021-05-26T19:24:24Z</time>
      </trkpt>
      <trkpt lat="41.913945" lon="2.542090">
        <ele>959.287</ele>
        <time>2021-05-26T19:24:34Z</time>
      </trkpt>
      <trkpt lat="41.913980" lon="2.542188">
        <ele>958.542</ele>
        <time>2021-05-26T19:24:52Z</time>
      </trkpt>
      <trkpt lat="41.913991" lon="2.542209">
        <ele>958.392</ele>
        <time>2021-05-26T19:25:24Z</time>
      </trkpt>
      <trkpt lat="41.914018" lon="2.542244">
        <ele>957.578</ele>
        <time>2021-05-26T19:25:33Z</time>
      </trkpt>
      <trkpt lat="41.914026" lon="2.542272">
        <ele>956.783</ele>
        <time>2021-05-26T19:25:36Z</time>
      </trkpt>
      <trkpt lat="41.914043" lon="2.542292">
        <ele>956.079</ele>
        <time>2021-05-26T19:25:41Z</time>
      </trkpt>
      <trkpt lat="41.914075" lon="2.542333">
        <ele>954.605</ele>
        <time>2021-05-26T19:25:47Z</time>
      </trkpt>
      <trkpt lat="41.914090" lon="2.542363">
        <ele>953.625</ele>
        <time>2021-05-26T19:25:49Z</time>
      </trkpt>
      <trkpt lat="41.914091" lon="2.542389">
        <ele>952.908</ele>
        <time>2021-05-26T19:25:53Z</time>
      </trkpt>
      <trkpt lat="41.914111" lon="2.542514">
        <ele>949.274</ele>
        <time>2021-05-26T19:26:11Z</time>
      </trkpt>
      <trkpt lat="41.914188" lon="2.542579">
        <ele>946.551</ele>
        <time>2021-05-26T19:26:18Z</time>
      </trkpt>
      <trkpt lat="41.914286" lon="2.542627">
        <ele>943.978</ele>
        <time>2021-05-26T19:26:23Z</time>
      </trkpt>
      <trkpt lat="41.914391" lon="2.542644">
        <ele>942.042</ele>
        <time>2021-05-26T19:26:27Z</time>
      </trkpt>
      <trkpt lat="41.914491" lon="2.542630">
        <ele>942.167</ele>
        <time>2021-05-26T19:26:31Z</time>
      </trkpt>
      <trkpt lat="41.914603" lon="2.542621">
        <ele>943.227</ele>
        <time>2021-05-26T19:26:36Z</time>
      </trkpt>
      <trkpt lat="41.914694" lon="2.542641">
        <ele>942.763</ele>
        <time>2021-05-26T19:26:40Z</time>
      </trkpt>
      <trkpt lat="41.914786" lon="2.542655">
        <ele>942.088</ele>
        <time>2021-05-26T19:26:44Z</time>
      </trkpt>
      <trkpt lat="41.914900" lon="2.542662">
        <ele>941.558</ele>
        <time>2021-05-26T19:26:48Z</time>
      </trkpt>
      <trkpt lat="41.914994" lon="2.542568">
        <ele>944.152</ele>
        <time>2021-05-26T19:26:52Z</time>
      </trkpt>
      <trkpt lat="41.915057" lon="2.542441">
        <ele>945.917</ele>
        <time>2021-05-26T19:26:56Z</time>
      </trkpt>
      <trkpt lat="41.915116" lon="2.542321">
        <ele>947.408</ele>
        <time>2021-05-26T19:27:01Z</time>
      </trkpt>
      <trkpt lat="41.915219" lon="2.542243">
        <ele>946.352</ele>
        <time>2021-05-26T19:27:06Z</time>
      </trkpt>
      <trkpt lat="41.915318" lon="2.542257">
        <ele>943.539</ele>
        <time>2021-05-26T19:27:11Z</time>
      </trkpt>
      <trkpt lat="41.915406" lon="2.542304">
        <ele>940.776</ele>
        <time>2021-05-26T19:27:14Z</time>
      </trkpt>
      <trkpt lat="41.915499" lon="2.542311">
        <ele>939.010</ele>
        <time>2021-05-26T19:27:18Z</time>
      </trkpt>
      <trkpt lat="41.915585" lon="2.542224">
        <ele>940.975</ele>
        <time>2021-05-26T19:27:26Z</time>
      </trkpt>
      <trkpt lat="41.915662" lon="2.542136">
        <ele>941.245</ele>
        <time>2021-05-26T19:27:29Z</time>
      </trkpt>
      <trkpt lat="41.915738" lon="2.542061">
        <ele>941.421</ele>
        <time>2021-05-26T19:27:33Z</time>
      </trkpt>
      <trkpt lat="41.915813" lon="2.541938">
        <ele>943.876</ele>
        <time>2021-05-26T19:27:37Z</time>
      </trkpt>
      <trkpt lat="41.915895" lon="2.541851">
        <ele>942.927</ele>
        <time>2021-05-26T19:27:42Z</time>
      </trkpt>
      <trkpt lat="41.916003" lon="2.541872">
        <ele>937.368</ele>
        <time>2021-05-26T19:27:48Z</time>
      </trkpt>
      <trkpt lat="41.916077" lon="2.541946">
        <ele>931.514</ele>
        <time>2021-05-26T19:27:51Z</time>
      </trkpt>
      <trkpt lat="41.916171" lon="2.541988">
        <ele>926.208</ele>
        <time>2021-05-26T19:27:56Z</time>
      </trkpt>
      <trkpt lat="41.916278" lon="2.541964">
        <ele>924.669</ele>
        <time>2021-05-26T19:28:00Z</time>
      </trkpt>
      <trkpt lat="41.916362" lon="2.541913">
        <ele>925.386</ele>
        <time>2021-05-26T19:28:05Z</time>
      </trkpt>
      <trkpt lat="41.916445" lon="2.541853">
        <ele>926.553</ele>
        <time>2021-05-26T19:28:10Z</time>
      </trkpt>
      <trkpt lat="41.916522" lon="2.541768">
        <ele>928.947</ele>
        <time>2021-05-26T19:28:16Z</time>
      </trkpt>
      <trkpt lat="41.916611" lon="2.541792">
        <ele>925.292</ele>
        <time>2021-05-26T19:28:21Z</time>
      </trkpt>
      <trkpt lat="41.916588" lon="2.541917">
        <ele>919.412</ele>
        <time>2021-05-26T19:28:26Z</time>
      </trkpt>
      <trkpt lat="41.916525" lon="2.542028">
        <ele>913.498</ele>
        <time>2021-05-26T19:28:29Z</time>
      </trkpt>
      <trkpt lat="41.916440" lon="2.542101">
        <ele>910.313</ele>
        <time>2021-05-26T19:28:33Z</time>
      </trkpt>
      <trkpt lat="41.916334" lon="2.542167">
        <ele>909.558</ele>
        <time>2021-05-26T19:28:37Z</time>
      </trkpt>
      <trkpt lat="41.916246" lon="2.542198">
        <ele>911.652</ele>
        <time>2021-05-26T19:28:40Z</time>
      </trkpt>
      <trkpt lat="41.916150" lon="2.542201">
        <ele>916.117</ele>
        <time>2021-05-26T19:28:44Z</time>
      </trkpt>
      <trkpt lat="41.916053" lon="2.542142">
        <ele>923.808</ele>
        <time>2021-05-26T19:28:48Z</time>
      </trkpt>
      <trkpt lat="41.915971" lon="2.542074">
        <ele>931.032</ele>
        <time>2021-05-26T19:28:53Z</time>
      </trkpt>
      <trkpt lat="41.915896" lon="2.542161">
        <ele>931.159</ele>
        <time>2021-05-26T19:28:59Z</time>
      </trkpt>
      <trkpt lat="41.915837" lon="2.542295">
        <ele>928.796</ele>
        <time>2021-05-26T19:29:04Z</time>
      </trkpt>
      <trkpt lat="41.915819" lon="2.542441">
        <ele>923.170</ele>
        <time>2021-05-26T19:29:08Z</time>
      </trkpt>
      <trkpt lat="41.915844" lon="2.542582">
        <ele>917.215</ele>
        <time>2021-05-26T19:29:13Z</time>
      </trkpt>
      <trkpt lat="41.915857" lon="2.542725">
        <ele>912.715</ele>
        <time>2021-05-26T19:29:17Z</time>
      </trkpt>
      <trkpt lat="41.915891" lon="2.542861">
        <ele>909.871</ele>
        <time>2021-05-26T19:29:22Z</time>
      </trkpt>
      <trkpt lat="41.915977" lon="2.542927">
        <ele>907.196</ele>
        <time>2021-05-26T19:29:26Z</time>
      </trkpt>
      <trkpt lat="41.916052" lon="2.542997">
        <ele>904.743</ele>
        <time>2021-05-26T19:29:30Z</time>
      </trkpt>
      <trkpt lat="41.916109" lon="2.543099">
        <ele>902.964</ele>
        <time>2021-05-26T19:29:36Z</time>
      </trkpt>
      <trkpt lat="41.916023" lon="2.543194">
        <ele>904.210</ele>
        <time>2021-05-26T19:29:42Z</time>
      </trkpt>
      <trkpt lat="41.915942" lon="2.543248">
        <ele>905.308</ele>
        <time>2021-05-26T19:29:46Z</time>
      </trkpt>
      <trkpt lat="41.915852" lon="2.543275">
        <ele>906.541</ele>
        <time>2021-05-26T19:29:50Z</time>
      </trkpt>
      <trkpt lat="41.915748" lon="2.543294">
        <ele>907.628</ele>
        <time>2021-05-26T19:29:55Z</time>
      </trkpt>
      <trkpt lat="41.915650" lon="2.543303">
        <ele>908.695</ele>
        <time>2021-05-26T19:29:59Z</time>
      </trkpt>
      <trkpt lat="41.915616" lon="2.543426">
        <ele>907.049</ele>
        <time>2021-05-26T19:30:08Z</time>
      </trkpt>
      <trkpt lat="41.915586" lon="2.543565">
        <ele>905.334</ele>
        <time>2021-05-26T19:30:13Z</time>
      </trkpt>
      <trkpt lat="41.915535" lon="2.543683">
        <ele>904.524</ele>
        <time>2021-05-26T19:30:18Z</time>
      </trkpt>
      <trkpt lat="41.915511" lon="2.543801">
        <ele>903.620</ele>
        <time>2021-05-26T19:30:21Z</time>
      </trkpt>
      <trkpt lat="41.915552" lon="2.543945">
        <ele>903.055</ele>
        <time>2021-05-26T19:30:25Z</time>
      </trkpt>
      <trkpt lat="41.915638" lon="2.543999">
        <ele>902.023</ele>
        <time>2021-05-26T19:30:30Z</time>
      </trkpt>
      <trkpt lat="41.915724" lon="2.544081">
        <ele>900.883</ele>
        <time>2021-05-26T19:30:34Z</time>
      </trkpt>
      <trkpt lat="41.915788" lon="2.544199">
        <ele>899.611</ele>
        <time>2021-05-26T19:30:39Z</time>
      </trkpt>
      <trkpt lat="41.915845" lon="2.544302">
        <ele>898.808</ele>
        <time>2021-05-26T19:30:44Z</time>
      </trkpt>
      <trkpt lat="41.915847" lon="2.544425">
        <ele>898.739</ele>
        <time>2021-05-26T19:30:55Z</time>
      </trkpt>
      <trkpt lat="41.915884" lon="2.544541">
        <ele>896.916</ele>
        <time>2021-05-26T19:31:01Z</time>
      </trkpt>
      <trkpt lat="41.915937" lon="2.544668">
        <ele>894.633</ele>
        <time>2021-05-26T19:31:06Z</time>
      </trkpt>
      <trkpt lat="41.915979" lon="2.544776">
        <ele>893.097</ele>
        <time>2021-05-26T19:31:09Z</time>
      </trkpt>
      <trkpt lat="41.916006" lon="2.544894">
        <ele>891.752</ele>
        <time>2021-05-26T19:31:12Z</time>
      </trkpt>
      <trkpt lat="41.916094" lon="2.544954">
        <ele>889.632</ele>
        <time>2021-05-26T19:31:18Z</time>
      </trkpt>
      <trkpt lat="41.916075" lon="2.544831">
        <ele>890.998</ele>
        <time>2021-05-26T19:31:26Z</time>
      </trkpt>
      <trkpt lat="41.916009" lon="2.544729">
        <ele>892.843</ele>
        <time>2021-05-26T19:31:32Z</time>
      </trkpt>
      <trkpt lat="41.915998" lon="2.544596">
        <ele>894.162</ele>
        <time>2021-05-26T19:31:37Z</time>
      </trkpt>
      <trkpt lat="41.915982" lon="2.544459">
        <ele>895.783</ele>
        <time>2021-05-26T19:31:43Z</time>
      </trkpt>
      <trkpt lat="41.915983" lon="2.544331">
        <ele>896.011</ele>
        <time>2021-05-26T19:31:47Z</time>
      </trkpt>
      <trkpt lat="41.916045" lon="2.544221">
        <ele>895.008</ele>
        <time>2021-05-26T19:31:53Z</time>
      </trkpt>
      <trkpt lat="41.916140" lon="2.544228">
        <ele>893.223</ele>
        <time>2021-05-26T19:31:57Z</time>
      </trkpt>
      <trkpt lat="41.916233" lon="2.544310">
        <ele>890.990</ele>
        <time>2021-05-26T19:32:02Z</time>
      </trkpt>
      <trkpt lat="41.916321" lon="2.544394">
        <ele>888.637</ele>
        <time>2021-05-26T19:32:07Z</time>
      </trkpt>
      <trkpt lat="41.916402" lon="2.544509">
        <ele>886.461</ele>
        <time>2021-05-26T19:32:11Z</time>
      </trkpt>
      <trkpt lat="41.916441" lon="2.544635">
        <ele>885.026</ele>
        <time>2021-05-26T19:32:14Z</time>
      </trkpt>
      <trkpt lat="41.916503" lon="2.544745">
        <ele>883.656</ele>
        <time>2021-05-26T19:32:18Z</time>
      </trkpt>
      <trkpt lat="41.916556" lon="2.544850">
        <ele>882.092</ele>
        <time>2021-05-26T19:32:24Z</time>
      </trkpt>
      <trkpt lat="41.916605" lon="2.544954">
        <ele>880.367</ele>
        <time>2021-05-26T19:32:28Z</time>
      </trkpt>
      <trkpt lat="41.916623" lon="2.544996">
        <ele>879.739</ele>
        <time>2021-05-26T19:32:30Z</time>
      </trkpt>
      <trkpt lat="41.916636" lon="2.545042">
        <ele>878.601</ele>
        <time>2021-05-26T19:32:32Z</time>
      </trkpt>
      <trkpt lat="41.916657" lon="2.545067">
        <ele>877.721</ele>
        <time>2021-05-26T19:32:34Z</time>
      </trkpt>
      <trkpt lat="41.916672" lon="2.545083">
        <ele>877.108</ele>
        <time>2021-05-26T19:32:36Z</time>
      </trkpt>
      <trkpt lat="41.916682" lon="2.545111">
        <ele>876.490</ele>
        <time>2021-05-26T19:32:38Z</time>
      </trkpt>
      <trkpt lat="41.916693" lon="2.545136">
        <ele>875.777</ele>
        <time>2021-05-26T19:32:40Z</time>
      </trkpt>
      <trkpt lat="41.916708" lon="2.545157">
        <ele>875.024</ele>
        <time>2021-05-26T19:32:42Z</time>
      </trkpt>
      <trkpt lat="41.916718" lon="2.545176">
        <ele>874.558</ele>
        <time>2021-05-26T19:32:43Z</time>
      </trkpt>
      <trkpt lat="41.916731" lon="2.545193">
        <ele>874.013</ele>
        <time>2021-05-26T19:32:44Z</time>
      </trkpt>
      <trkpt lat="41.916758" lon="2.545213">
        <ele>873.353</ele>
        <time>2021-05-26T19:32:46Z</time>
      </trkpt>
      <trkpt lat="41.916777" lon="2.545227">
        <ele>872.859</ele>
        <time>2021-05-26T19:32:48Z</time>
      </trkpt>
      <trkpt lat="41.916803" lon="2.545244">
        <ele>872.194</ele>
        <time>2021-05-26T19:32:50Z</time>
      </trkpt>
      <trkpt lat="41.916830" lon="2.545266">
        <ele>871.474</ele>
        <time>2021-05-26T19:32:52Z</time>
      </trkpt>
      <trkpt lat="41.916853" lon="2.545284">
        <ele>870.956</ele>
        <time>2021-05-26T19:32:54Z</time>
      </trkpt>
      <trkpt lat="41.916874" lon="2.545296">
        <ele>870.421</ele>
        <time>2021-05-26T19:32:56Z</time>
      </trkpt>
      <trkpt lat="41.916904" lon="2.545282">
        <ele>870.408</ele>
        <time>2021-05-26T19:32:58Z</time>
      </trkpt>
      <trkpt lat="41.916921" lon="2.545270">
        <ele>870.454</ele>
        <time>2021-05-26T19:32:59Z</time>
      </trkpt>
      <trkpt lat="41.916946" lon="2.545250">
        <ele>870.471</ele>
        <time>2021-05-26T19:33:00Z</time>
      </trkpt>
      <trkpt lat="41.916966" lon="2.545225">
        <ele>870.798</ele>
        <time>2021-05-26T19:33:01Z</time>
      </trkpt>
      <trkpt lat="41.916983" lon="2.545201">
        <ele>870.942</ele>
        <time>2021-05-26T19:33:02Z</time>
      </trkpt>
      <trkpt lat="41.917000" lon="2.545175">
        <ele>871.277</ele>
        <time>2021-05-26T19:33:03Z</time>
      </trkpt>
      <trkpt lat="41.917015" lon="2.545151">
        <ele>871.557</ele>
        <time>2021-05-26T19:33:04Z</time>
      </trkpt>
      <trkpt lat="41.917025" lon="2.545121">
        <ele>871.813</ele>
        <time>2021-05-26T19:33:05Z</time>
      </trkpt>
      <trkpt lat="41.917028" lon="2.545086">
        <ele>872.328</ele>
        <time>2021-05-26T19:33:06Z</time>
      </trkpt>
      <trkpt lat="41.917026" lon="2.545049">
        <ele>872.842</ele>
        <time>2021-05-26T19:33:07Z</time>
      </trkpt>
      <trkpt lat="41.917025" lon="2.545014">
        <ele>873.222</ele>
        <time>2021-05-26T19:33:08Z</time>
      </trkpt>
      <trkpt lat="41.917019" lon="2.544976">
        <ele>873.614</ele>
        <time>2021-05-26T19:33:09Z</time>
      </trkpt>
      <trkpt lat="41.917010" lon="2.544941">
        <ele>874.008</ele>
        <time>2021-05-26T19:33:10Z</time>
      </trkpt>
      <trkpt lat="41.917001" lon="2.544914">
        <ele>874.361</ele>
        <time>2021-05-26T19:33:11Z</time>
      </trkpt>
      <trkpt lat="41.916996" lon="2.544889">
        <ele>874.558</ele>
        <time>2021-05-26T19:33:12Z</time>
      </trkpt>
      <trkpt lat="41.916977" lon="2.544841">
        <ele>875.265</ele>
        <time>2021-05-26T19:33:14Z</time>
      </trkpt>
      <trkpt lat="41.916966" lon="2.544815">
        <ele>875.689</ele>
        <time>2021-05-26T19:33:15Z</time>
      </trkpt>
      <trkpt lat="41.916961" lon="2.544789">
        <ele>876.094</ele>
        <time>2021-05-26T19:33:16Z</time>
      </trkpt>
      <trkpt lat="41.916973" lon="2.544759">
        <ele>876.014</ele>
        <time>2021-05-26T19:33:17Z</time>
      </trkpt>
      <trkpt lat="41.916987" lon="2.544730">
        <ele>876.080</ele>
        <time>2021-05-26T19:33:18Z</time>
      </trkpt>
      <trkpt lat="41.917003" lon="2.544701">
        <ele>875.755</ele>
        <time>2021-05-26T19:33:19Z</time>
      </trkpt>
      <trkpt lat="41.917021" lon="2.544673">
        <ele>875.298</ele>
        <time>2021-05-26T19:33:20Z</time>
      </trkpt>
      <trkpt lat="41.917039" lon="2.544641">
        <ele>874.815</ele>
        <time>2021-05-26T19:33:21Z</time>
      </trkpt>
      <trkpt lat="41.917060" lon="2.544610">
        <ele>874.226</ele>
        <time>2021-05-26T19:33:22Z</time>
      </trkpt>
      <trkpt lat="41.917077" lon="2.544583">
        <ele>873.708</ele>
        <time>2021-05-26T19:33:23Z</time>
      </trkpt>
      <trkpt lat="41.917095" lon="2.544557">
        <ele>873.146</ele>
        <time>2021-05-26T19:33:24Z</time>
      </trkpt>
      <trkpt lat="41.917112" lon="2.544533">
        <ele>872.633</ele>
        <time>2021-05-26T19:33:25Z</time>
      </trkpt>
      <trkpt lat="41.917167" lon="2.544459">
        <ele>870.780</ele>
        <time>2021-05-26T19:33:28Z</time>
      </trkpt>
      <trkpt lat="41.917194" lon="2.544439">
        <ele>869.744</ele>
        <time>2021-05-26T19:33:30Z</time>
      </trkpt>
      <trkpt lat="41.917224" lon="2.544496">
        <ele>869.379</ele>
        <time>2021-05-26T19:33:37Z</time>
      </trkpt>
      <trkpt lat="41.917224" lon="2.544529">
        <ele>869.549</ele>
        <time>2021-05-26T19:33:39Z</time>
      </trkpt>
      <trkpt lat="41.917218" lon="2.544556">
        <ele>869.995</ele>
        <time>2021-05-26T19:33:41Z</time>
      </trkpt>
      <trkpt lat="41.917213" lon="2.544590">
        <ele>870.310</ele>
        <time>2021-05-26T19:33:43Z</time>
      </trkpt>
      <trkpt lat="41.917223" lon="2.544631">
        <ele>870.311</ele>
        <time>2021-05-26T19:33:45Z</time>
      </trkpt>
      <trkpt lat="41.917243" lon="2.544674">
        <ele>869.921</ele>
        <time>2021-05-26T19:33:47Z</time>
      </trkpt>
      <trkpt lat="41.917259" lon="2.544699">
        <ele>869.603</ele>
        <time>2021-05-26T19:33:48Z</time>
      </trkpt>
      <trkpt lat="41.917276" lon="2.544723">
        <ele>869.308</ele>
        <time>2021-05-26T19:33:49Z</time>
      </trkpt>
      <trkpt lat="41.917295" lon="2.544741">
        <ele>868.758</ele>
        <time>2021-05-26T19:33:50Z</time>
      </trkpt>
      <trkpt lat="41.917328" lon="2.544779">
        <ele>867.915</ele>
        <time>2021-05-26T19:33:52Z</time>
      </trkpt>
      <trkpt lat="41.917399" lon="2.544849">
        <ele>866.392</ele>
        <time>2021-05-26T19:33:56Z</time>
      </trkpt>
      <trkpt lat="41.917414" lon="2.544872">
        <ele>866.176</ele>
        <time>2021-05-26T19:33:57Z</time>
      </trkpt>
      <trkpt lat="41.917435" lon="2.544893">
        <ele>865.741</ele>
        <time>2021-05-26T19:33:58Z</time>
      </trkpt>
      <trkpt lat="41.917469" lon="2.544940">
        <ele>865.291</ele>
        <time>2021-05-26T19:34:00Z</time>
      </trkpt>
      <trkpt lat="41.917528" lon="2.545001">
        <ele>864.047</ele>
        <time>2021-05-26T19:34:03Z</time>
      </trkpt>
      <trkpt lat="41.917543" lon="2.545022">
        <ele>863.622</ele>
        <time>2021-05-26T19:34:04Z</time>
      </trkpt>
      <trkpt lat="41.917613" lon="2.545119">
        <ele>861.675</ele>
        <time>2021-05-26T19:34:09Z</time>
      </trkpt>
      <trkpt lat="41.917629" lon="2.545169">
        <ele>861.328</ele>
        <time>2021-05-26T19:34:11Z</time>
      </trkpt>
      <trkpt lat="41.917638" lon="2.545193">
        <ele>861.120</ele>
        <time>2021-05-26T19:34:12Z</time>
      </trkpt>
      <trkpt lat="41.917644" lon="2.545227">
        <ele>861.008</ele>
        <time>2021-05-26T19:34:13Z</time>
      </trkpt>
      <trkpt lat="41.917647" lon="2.545256">
        <ele>861.194</ele>
        <time>2021-05-26T19:34:14Z</time>
      </trkpt>
      <trkpt lat="41.917644" lon="2.545288">
        <ele>861.231</ele>
        <time>2021-05-26T19:34:15Z</time>
      </trkpt>
      <trkpt lat="41.917637" lon="2.545315">
        <ele>861.368</ele>
        <time>2021-05-26T19:34:16Z</time>
      </trkpt>
      <trkpt lat="41.917630" lon="2.545347">
        <ele>861.342</ele>
        <time>2021-05-26T19:34:17Z</time>
      </trkpt>
      <trkpt lat="41.917620" lon="2.545378">
        <ele>861.497</ele>
        <time>2021-05-26T19:34:18Z</time>
      </trkpt>
      <trkpt lat="41.917604" lon="2.545405">
        <ele>861.777</ele>
        <time>2021-05-26T19:34:19Z</time>
      </trkpt>
      <trkpt lat="41.917589" lon="2.545433">
        <ele>862.023</ele>
        <time>2021-05-26T19:34:20Z</time>
      </trkpt>
      <trkpt lat="41.917574" lon="2.545457">
        <ele>862.218</ele>
        <time>2021-05-26T19:34:21Z</time>
      </trkpt>
      <trkpt lat="41.917556" lon="2.545486">
        <ele>862.422</ele>
        <time>2021-05-26T19:34:22Z</time>
      </trkpt>
      <trkpt lat="41.917532" lon="2.545508">
        <ele>862.862</ele>
        <time>2021-05-26T19:34:23Z</time>
      </trkpt>
      <trkpt lat="41.917492" lon="2.545555">
        <ele>863.008</ele>
        <time>2021-05-26T19:34:25Z</time>
      </trkpt>
      <trkpt lat="41.917472" lon="2.545575">
        <ele>862.408</ele>
        <time>2021-05-26T19:34:26Z</time>
      </trkpt>
      <trkpt lat="41.917456" lon="2.545592">
        <ele>861.839</ele>
        <time>2021-05-26T19:34:27Z</time>
      </trkpt>
      <trkpt lat="41.917435" lon="2.545611">
        <ele>861.256</ele>
        <time>2021-05-26T19:34:28Z</time>
      </trkpt>
      <trkpt lat="41.917419" lon="2.545625">
        <ele>860.833</ele>
        <time>2021-05-26T19:34:29Z</time>
      </trkpt>
      <trkpt lat="41.917402" lon="2.545636">
        <ele>860.587</ele>
        <time>2021-05-26T19:34:30Z</time>
      </trkpt>
      <trkpt lat="41.917375" lon="2.545656">
        <ele>859.812</ele>
        <time>2021-05-26T19:34:32Z</time>
      </trkpt>
      <trkpt lat="41.917349" lon="2.545669">
        <ele>859.572</ele>
        <time>2021-05-26T19:34:34Z</time>
      </trkpt>
      <trkpt lat="41.917319" lon="2.545677">
        <ele>859.318</ele>
        <time>2021-05-26T19:34:36Z</time>
      </trkpt>
      <trkpt lat="41.917289" lon="2.545683">
        <ele>859.253</ele>
        <time>2021-05-26T19:34:38Z</time>
      </trkpt>
      <trkpt lat="41.917261" lon="2.545680">
        <ele>859.475</ele>
        <time>2021-05-26T19:34:40Z</time>
      </trkpt>
      <trkpt lat="41.917230" lon="2.545671">
        <ele>859.828</ele>
        <time>2021-05-26T19:34:42Z</time>
      </trkpt>
      <trkpt lat="41.917204" lon="2.545665">
        <ele>860.120</ele>
        <time>2021-05-26T19:34:44Z</time>
      </trkpt>
      <trkpt lat="41.917178" lon="2.545657">
        <ele>860.508</ele>
        <time>2021-05-26T19:34:46Z</time>
      </trkpt>
      <trkpt lat="41.917158" lon="2.545655">
        <ele>860.634</ele>
        <time>2021-05-26T19:34:48Z</time>
      </trkpt>
      <trkpt lat="41.917137" lon="2.545654">
        <ele>860.711</ele>
        <time>2021-05-26T19:34:50Z</time>
      </trkpt>
      <trkpt lat="41.917032" lon="2.545666">
        <ele>860.678</ele>
        <time>2021-05-26T19:34:58Z</time>
      </trkpt>
      <trkpt lat="41.917008" lon="2.545647">
        <ele>861.222</ele>
        <time>2021-05-26T19:35:00Z</time>
      </trkpt>
      <trkpt lat="41.916977" lon="2.545622">
        <ele>862.077</ele>
        <time>2021-05-26T19:35:02Z</time>
      </trkpt>
      <trkpt lat="41.916961" lon="2.545609">
        <ele>862.437</ele>
        <time>2021-05-26T19:35:04Z</time>
      </trkpt>
      <trkpt lat="41.916934" lon="2.545600">
        <ele>863.013</ele>
        <time>2021-05-26T19:35:05Z</time>
      </trkpt>
      <trkpt lat="41.916902" lon="2.545594">
        <ele>863.958</ele>
        <time>2021-05-26T19:35:07Z</time>
      </trkpt>
      <trkpt lat="41.916813" lon="2.545536">
        <ele>867.286</ele>
        <time>2021-05-26T19:35:13Z</time>
      </trkpt>
      <trkpt lat="41.916818" lon="2.545703">
        <ele>863.260</ele>
        <time>2021-05-26T19:35:20Z</time>
      </trkpt>
      <trkpt lat="41.916819" lon="2.545844">
        <ele>859.826</ele>
        <time>2021-05-26T19:35:24Z</time>
      </trkpt>
      <trkpt lat="41.916807" lon="2.546005">
        <ele>855.508</ele>
        <time>2021-05-26T19:35:29Z</time>
      </trkpt>
      <trkpt lat="41.916804" lon="2.546167">
        <ele>850.945</ele>
        <time>2021-05-26T19:35:32Z</time>
      </trkpt>
      <trkpt lat="41.916809" lon="2.546302">
        <ele>846.912</ele>
        <time>2021-05-26T19:35:36Z</time>
      </trkpt>
      <trkpt lat="41.916794" lon="2.546445">
        <ele>844.589</ele>
        <time>2021-05-26T19:35:40Z</time>
      </trkpt>
      <trkpt lat="41.916797" lon="2.546589">
        <ele>843.473</ele>
        <time>2021-05-26T19:35:44Z</time>
      </trkpt>
      <trkpt lat="41.916826" lon="2.546720">
        <ele>841.718</ele>
        <time>2021-05-26T19:35:48Z</time>
      </trkpt>
      <trkpt lat="41.916819" lon="2.546873">
        <ele>841.728</ele>
        <time>2021-05-26T19:35:52Z</time>
      </trkpt>
      <trkpt lat="41.916823" lon="2.546980">
        <ele>841.134</ele>
        <time>2021-05-26T19:35:55Z</time>
      </trkpt>
      <trkpt lat="41.916815" lon="2.547019">
        <ele>841.039</ele>
        <time>2021-05-26T19:35:56Z</time>
      </trkpt>
      <trkpt lat="41.916807" lon="2.547057">
        <ele>840.929</ele>
        <time>2021-05-26T19:35:57Z</time>
      </trkpt>
      <trkpt lat="41.916805" lon="2.547093">
        <ele>840.700</ele>
        <time>2021-05-26T19:35:58Z</time>
      </trkpt>
      <trkpt lat="41.916806" lon="2.547117">
        <ele>840.420</ele>
        <time>2021-05-26T19:35:59Z</time>
      </trkpt>
      <trkpt lat="41.916805" lon="2.547145">
        <ele>840.208</ele>
        <time>2021-05-26T19:36:00Z</time>
      </trkpt>
      <trkpt lat="41.916796" lon="2.547174">
        <ele>840.119</ele>
        <time>2021-05-26T19:36:01Z</time>
      </trkpt>
      <trkpt lat="41.916781" lon="2.547203">
        <ele>840.136</ele>
        <time>2021-05-26T19:36:02Z</time>
      </trkpt>
      <trkpt lat="41.916746" lon="2.547261">
        <ele>840.243</ele>
        <time>2021-05-26T19:36:04Z</time>
      </trkpt>
      <trkpt lat="41.916728" lon="2.547284">
        <ele>840.337</ele>
        <time>2021-05-26T19:36:05Z</time>
      </trkpt>
      <trkpt lat="41.916710" lon="2.547304">
        <ele>840.462</ele>
        <time>2021-05-26T19:36:06Z</time>
      </trkpt>
      <trkpt lat="41.916689" lon="2.547323">
        <ele>840.582</ele>
        <time>2021-05-26T19:36:07Z</time>
      </trkpt>
      <trkpt lat="41.916666" lon="2.547338">
        <ele>840.798</ele>
        <time>2021-05-26T19:36:08Z</time>
      </trkpt>
      <trkpt lat="41.916644" lon="2.547356">
        <ele>840.443</ele>
        <time>2021-05-26T19:36:09Z</time>
      </trkpt>
      <trkpt lat="41.916627" lon="2.547376">
        <ele>839.915</ele>
        <time>2021-05-26T19:36:10Z</time>
      </trkpt>
      <trkpt lat="41.916613" lon="2.547401">
        <ele>839.465</ele>
        <time>2021-05-26T19:36:11Z</time>
      </trkpt>
      <trkpt lat="41.916606" lon="2.547430">
        <ele>838.911</ele>
        <time>2021-05-26T19:36:12Z</time>
      </trkpt>
      <trkpt lat="41.916623" lon="2.547479">
        <ele>838.508</ele>
        <time>2021-05-26T19:36:14Z</time>
      </trkpt>
      <trkpt lat="41.916641" lon="2.547486">
        <ele>838.718</ele>
        <time>2021-05-26T19:36:15Z</time>
      </trkpt>
      <trkpt lat="41.916664" lon="2.547495">
        <ele>839.055</ele>
        <time>2021-05-26T19:36:16Z</time>
      </trkpt>
      <trkpt lat="41.916689" lon="2.547500">
        <ele>838.762</ele>
        <time>2021-05-26T19:36:17Z</time>
      </trkpt>
      <trkpt lat="41.916711" lon="2.547504">
        <ele>838.326</ele>
        <time>2021-05-26T19:36:18Z</time>
      </trkpt>
      <trkpt lat="41.916735" lon="2.547499">
        <ele>838.051</ele>
        <time>2021-05-26T19:36:19Z</time>
      </trkpt>
      <trkpt lat="41.916757" lon="2.547490">
        <ele>837.871</ele>
        <time>2021-05-26T19:36:20Z</time>
      </trkpt>
      <trkpt lat="41.916802" lon="2.547458">
        <ele>837.477</ele>
        <time>2021-05-26T19:36:22Z</time>
      </trkpt>
      <trkpt lat="41.916825" lon="2.547437">
        <ele>837.322</ele>
        <time>2021-05-26T19:36:23Z</time>
      </trkpt>
      <trkpt lat="41.916843" lon="2.547417">
        <ele>837.264</ele>
        <time>2021-05-26T19:36:24Z</time>
      </trkpt>
      <trkpt lat="41.916862" lon="2.547393">
        <ele>837.106</ele>
        <time>2021-05-26T19:36:25Z</time>
      </trkpt>
      <trkpt lat="41.916879" lon="2.547365">
        <ele>837.016</ele>
        <time>2021-05-26T19:36:26Z</time>
      </trkpt>
      <trkpt lat="41.916888" lon="2.547336">
        <ele>837.108</ele>
        <time>2021-05-26T19:36:27Z</time>
      </trkpt>
      <trkpt lat="41.916900" lon="2.547275">
        <ele>837.423</ele>
        <time>2021-05-26T19:36:29Z</time>
      </trkpt>
      <trkpt lat="41.916906" lon="2.547244">
        <ele>837.590</ele>
        <time>2021-05-26T19:36:30Z</time>
      </trkpt>
      <trkpt lat="41.916911" lon="2.547213">
        <ele>837.687</ele>
        <time>2021-05-26T19:36:31Z</time>
      </trkpt>
      <trkpt lat="41.916916" lon="2.547180">
        <ele>837.651</ele>
        <time>2021-05-26T19:36:32Z</time>
      </trkpt>
      <trkpt lat="41.916923" lon="2.547146">
        <ele>837.556</ele>
        <time>2021-05-26T19:36:33Z</time>
      </trkpt>
      <trkpt lat="41.916931" lon="2.547111">
        <ele>837.366</ele>
        <time>2021-05-26T19:36:34Z</time>
      </trkpt>
      <trkpt lat="41.916942" lon="2.547046">
        <ele>837.162</ele>
        <time>2021-05-26T19:36:36Z</time>
      </trkpt>
      <trkpt lat="41.916943" lon="2.547015">
        <ele>837.067</ele>
        <time>2021-05-26T19:36:37Z</time>
      </trkpt>
      <trkpt lat="41.916946" lon="2.546985">
        <ele>836.957</ele>
        <time>2021-05-26T19:36:38Z</time>
      </trkpt>
      <trkpt lat="41.916948" lon="2.546952">
        <ele>836.900</ele>
        <time>2021-05-26T19:36:39Z</time>
      </trkpt>
      <trkpt lat="41.916949" lon="2.546920">
        <ele>836.920</ele>
        <time>2021-05-26T19:36:40Z</time>
      </trkpt>
      <trkpt lat="41.916954" lon="2.546887">
        <ele>836.808</ele>
        <time>2021-05-26T19:36:41Z</time>
      </trkpt>
      <trkpt lat="41.916966" lon="2.546857">
        <ele>836.542</ele>
        <time>2021-05-26T19:36:42Z</time>
      </trkpt>
      <trkpt lat="41.916974" lon="2.546829">
        <ele>836.319</ele>
        <time>2021-05-26T19:36:43Z</time>
      </trkpt>
      <trkpt lat="41.916982" lon="2.546799">
        <ele>836.266</ele>
        <time>2021-05-26T19:36:44Z</time>
      </trkpt>
      <trkpt lat="41.916983" lon="2.546765">
        <ele>836.370</ele>
        <time>2021-05-26T19:36:45Z</time>
      </trkpt>
      <trkpt lat="41.916986" lon="2.546730">
        <ele>836.445</ele>
        <time>2021-05-26T19:36:46Z</time>
      </trkpt>
      <trkpt lat="41.916992" lon="2.546661">
        <ele>836.575</ele>
        <time>2021-05-26T19:36:48Z</time>
      </trkpt>
      <trkpt lat="41.917000" lon="2.546628">
        <ele>836.571</ele>
        <time>2021-05-26T19:36:49Z</time>
      </trkpt>
      <trkpt lat="41.916999" lon="2.546597">
        <ele>836.796</ele>
        <time>2021-05-26T19:36:50Z</time>
      </trkpt>
      <trkpt lat="41.916998" lon="2.546565">
        <ele>837.015</ele>
        <time>2021-05-26T19:36:51Z</time>
      </trkpt>
      <trkpt lat="41.917003" lon="2.546531">
        <ele>837.165</ele>
        <time>2021-05-26T19:36:52Z</time>
      </trkpt>
      <trkpt lat="41.917002" lon="2.546501">
        <ele>837.311</ele>
        <time>2021-05-26T19:36:53Z</time>
      </trkpt>
      <trkpt lat="41.917003" lon="2.546470">
        <ele>837.608</ele>
        <time>2021-05-26T19:36:54Z</time>
      </trkpt>
      <trkpt lat="41.916997" lon="2.546444">
        <ele>837.948</ele>
        <time>2021-05-26T19:36:55Z</time>
      </trkpt>
      <trkpt lat="41.916988" lon="2.546396">
        <ele>838.365</ele>
        <time>2021-05-26T19:36:57Z</time>
      </trkpt>
      <trkpt lat="41.916989" lon="2.546369">
        <ele>839.082</ele>
        <time>2021-05-26T19:36:58Z</time>
      </trkpt>
      <trkpt lat="41.916986" lon="2.546343">
        <ele>839.996</ele>
        <time>2021-05-26T19:36:59Z</time>
      </trkpt>
      <trkpt lat="41.916982" lon="2.546314">
        <ele>840.891</ele>
        <time>2021-05-26T19:37:00Z</time>
      </trkpt>
      <trkpt lat="41.916974" lon="2.546253">
        <ele>842.911</ele>
        <time>2021-05-26T19:37:02Z</time>
      </trkpt>
      <trkpt lat="41.916988" lon="2.546111">
        <ele>847.227</ele>
        <time>2021-05-26T19:37:07Z</time>
      </trkpt>
      <trkpt lat="41.917073" lon="2.546066">
        <ele>847.212</ele>
        <time>2021-05-26T19:37:13Z</time>
      </trkpt>
      <trkpt lat="41.917171" lon="2.546090">
        <ele>844.732</ele>
        <time>2021-05-26T19:37:18Z</time>
      </trkpt>
      <trkpt lat="41.917243" lon="2.546205">
        <ele>840.292</ele>
        <time>2021-05-26T19:37:23Z</time>
      </trkpt>
      <trkpt lat="41.917322" lon="2.546284">
        <ele>837.611</ele>
        <time>2021-05-26T19:37:25Z</time>
      </trkpt>
      <trkpt lat="41.917387" lon="2.546377">
        <ele>834.208</ele>
        <time>2021-05-26T19:37:28Z</time>
      </trkpt>
      <trkpt lat="41.917457" lon="2.546474">
        <ele>830.420</ele>
        <time>2021-05-26T19:37:33Z</time>
      </trkpt>
      <trkpt lat="41.917525" lon="2.546577">
        <ele>826.387</ele>
        <time>2021-05-26T19:37:37Z</time>
      </trkpt>
      <trkpt lat="41.917630" lon="2.546588">
        <ele>826.274</ele>
        <time>2021-05-26T19:37:42Z</time>
      </trkpt>
      <trkpt lat="41.917653" lon="2.546572">
        <ele>826.818</ele>
        <time>2021-05-26T19:37:43Z</time>
      </trkpt>
      <trkpt lat="41.917673" lon="2.546556">
        <ele>827.453</ele>
        <time>2021-05-26T19:37:44Z</time>
      </trkpt>
      <trkpt lat="41.917694" lon="2.546539">
        <ele>828.043</ele>
        <time>2021-05-26T19:37:45Z</time>
      </trkpt>
      <trkpt lat="41.917729" lon="2.546519">
        <ele>828.729</ele>
        <time>2021-05-26T19:37:47Z</time>
      </trkpt>
      <trkpt lat="41.917819" lon="2.546494">
        <ele>828.914</ele>
        <time>2021-05-26T19:37:52Z</time>
      </trkpt>
      <trkpt lat="41.917912" lon="2.546480">
        <ele>827.644</ele>
        <time>2021-05-26T19:37:55Z</time>
      </trkpt>
      <trkpt lat="41.918008" lon="2.546481">
        <ele>825.905</ele>
        <time>2021-05-26T19:37:59Z</time>
      </trkpt>
      <trkpt lat="41.918100" lon="2.546465">
        <ele>824.015</ele>
        <time>2021-05-26T19:38:02Z</time>
      </trkpt>
      <trkpt lat="41.918200" lon="2.546462">
        <ele>820.708</ele>
        <time>2021-05-26T19:38:06Z</time>
      </trkpt>
      <trkpt lat="41.918294" lon="2.546477">
        <ele>816.981</ele>
        <time>2021-05-26T19:38:09Z</time>
      </trkpt>
      <trkpt lat="41.918406" lon="2.546480">
        <ele>813.738</ele>
        <time>2021-05-26T19:38:14Z</time>
      </trkpt>
      <trkpt lat="41.918506" lon="2.546443">
        <ele>812.785</ele>
        <time>2021-05-26T19:38:18Z</time>
      </trkpt>
      <trkpt lat="41.918595" lon="2.546405">
        <ele>811.979</ele>
        <time>2021-05-26T19:38:21Z</time>
      </trkpt>
      <trkpt lat="41.918621" lon="2.546389">
        <ele>811.844</ele>
        <time>2021-05-26T19:38:22Z</time>
      </trkpt>
      <trkpt lat="41.918649" lon="2.546381">
        <ele>811.424</ele>
        <time>2021-05-26T19:38:23Z</time>
      </trkpt>
      <trkpt lat="41.918675" lon="2.546371">
        <ele>811.110</ele>
        <time>2021-05-26T19:38:24Z</time>
      </trkpt>
      <trkpt lat="41.918703" lon="2.546360">
        <ele>810.845</ele>
        <time>2021-05-26T19:38:25Z</time>
      </trkpt>
      <trkpt lat="41.918725" lon="2.546348">
        <ele>810.666</ele>
        <time>2021-05-26T19:38:26Z</time>
      </trkpt>
      <trkpt lat="41.918748" lon="2.546337">
        <ele>810.429</ele>
        <time>2021-05-26T19:38:27Z</time>
      </trkpt>
      <trkpt lat="41.918770" lon="2.546329">
        <ele>810.021</ele>
        <time>2021-05-26T19:38:28Z</time>
      </trkpt>
      <trkpt lat="41.918816" lon="2.546310">
        <ele>809.308</ele>
        <time>2021-05-26T19:38:30Z</time>
      </trkpt>
      <trkpt lat="41.918840" lon="2.546302">
        <ele>808.873</ele>
        <time>2021-05-26T19:38:31Z</time>
      </trkpt>
      <trkpt lat="41.918862" lon="2.546299">
        <ele>808.390</ele>
        <time>2021-05-26T19:38:32Z</time>
      </trkpt>
      <trkpt lat="41.918899" lon="2.546308">
        <ele>807.337</ele>
        <time>2021-05-26T19:38:34Z</time>
      </trkpt>
      <trkpt lat="41.918929" lon="2.546324">
        <ele>806.591</ele>
        <time>2021-05-26T19:38:36Z</time>
      </trkpt>
      <trkpt lat="41.918984" lon="2.546357">
        <ele>805.156</ele>
        <time>2021-05-26T19:38:39Z</time>
      </trkpt>
      <trkpt lat="41.919001" lon="2.546365">
        <ele>804.756</ele>
        <time>2021-05-26T19:38:40Z</time>
      </trkpt>
      <trkpt lat="41.919023" lon="2.546373">
        <ele>804.352</ele>
        <time>2021-05-26T19:38:41Z</time>
      </trkpt>
      <trkpt lat="41.919045" lon="2.546379">
        <ele>803.987</ele>
        <time>2021-05-26T19:38:42Z</time>
      </trkpt>
      <trkpt lat="41.919092" lon="2.546396">
        <ele>802.965</ele>
        <time>2021-05-26T19:38:44Z</time>
      </trkpt>
      <trkpt lat="41.919120" lon="2.546401">
        <ele>802.368</ele>
        <time>2021-05-26T19:38:45Z</time>
      </trkpt>
      <trkpt lat="41.919162" lon="2.546420">
        <ele>801.214</ele>
        <time>2021-05-26T19:38:47Z</time>
      </trkpt>
      <trkpt lat="41.919208" lon="2.546445">
        <ele>800.008</ele>
        <time>2021-05-26T19:38:49Z</time>
      </trkpt>
      <trkpt lat="41.919237" lon="2.546450">
        <ele>799.553</ele>
        <time>2021-05-26T19:38:50Z</time>
      </trkpt>
      <trkpt lat="41.919262" lon="2.546459">
        <ele>799.020</ele>
        <time>2021-05-26T19:38:51Z</time>
      </trkpt>
      <trkpt lat="41.919291" lon="2.546450">
        <ele>799.067</ele>
        <time>2021-05-26T19:38:52Z</time>
      </trkpt>
      <trkpt lat="41.919324" lon="2.546434">
        <ele>799.151</ele>
        <time>2021-05-26T19:38:53Z</time>
      </trkpt>
      <trkpt lat="41.919353" lon="2.546421">
        <ele>799.116</ele>
        <time>2021-05-26T19:38:54Z</time>
      </trkpt>
      <trkpt lat="41.919405" lon="2.546382">
        <ele>799.596</ele>
        <time>2021-05-26T19:38:56Z</time>
      </trkpt>
      <trkpt lat="41.919428" lon="2.546361">
        <ele>799.342</ele>
        <time>2021-05-26T19:38:57Z</time>
      </trkpt>
      <trkpt lat="41.919445" lon="2.546343">
        <ele>799.287</ele>
        <time>2021-05-26T19:38:58Z</time>
      </trkpt>
      <trkpt lat="41.919462" lon="2.546319">
        <ele>798.976</ele>
        <time>2021-05-26T19:38:59Z</time>
      </trkpt>
      <trkpt lat="41.919492" lon="2.546272">
        <ele>798.390</ele>
        <time>2021-05-26T19:39:01Z</time>
      </trkpt>
      <trkpt lat="41.919500" lon="2.546246">
        <ele>798.219</ele>
        <time>2021-05-26T19:39:02Z</time>
      </trkpt>
      <trkpt lat="41.919508" lon="2.546223">
        <ele>798.008</ele>
        <time>2021-05-26T19:39:03Z</time>
      </trkpt>
      <trkpt lat="41.919515" lon="2.546183">
        <ele>797.984</ele>
        <time>2021-05-26T19:39:06Z</time>
      </trkpt>
      <trkpt lat="41.919511" lon="2.546152">
        <ele>798.081</ele>
        <time>2021-05-26T19:39:08Z</time>
      </trkpt>
      <trkpt lat="41.919511" lon="2.546121">
        <ele>798.188</ele>
        <time>2021-05-26T19:39:09Z</time>
      </trkpt>
      <trkpt lat="41.919503" lon="2.546087">
        <ele>798.012</ele>
        <time>2021-05-26T19:39:11Z</time>
      </trkpt>
      <trkpt lat="41.919480" lon="2.546056">
        <ele>798.247</ele>
        <time>2021-05-26T19:39:13Z</time>
      </trkpt>
      <trkpt lat="41.919455" lon="2.546028">
        <ele>798.537</ele>
        <time>2021-05-26T19:39:15Z</time>
      </trkpt>
      <trkpt lat="41.919430" lon="2.546003">
        <ele>798.773</ele>
        <time>2021-05-26T19:39:18Z</time>
      </trkpt>
      <trkpt lat="41.919404" lon="2.545976">
        <ele>798.828</ele>
        <time>2021-05-26T19:39:19Z</time>
      </trkpt>
      <trkpt lat="41.919369" lon="2.545956">
        <ele>799.334</ele>
        <time>2021-05-26T19:39:21Z</time>
      </trkpt>
      <trkpt lat="41.919337" lon="2.545946">
        <ele>799.955</ele>
        <time>2021-05-26T19:39:23Z</time>
      </trkpt>
      <trkpt lat="41.919300" lon="2.545934">
        <ele>800.510</ele>
        <time>2021-05-26T19:39:25Z</time>
      </trkpt>
      <trkpt lat="41.919279" lon="2.545924">
        <ele>800.908</ele>
        <time>2021-05-26T19:39:27Z</time>
      </trkpt>
      <trkpt lat="41.919244" lon="2.545900">
        <ele>801.530</ele>
        <time>2021-05-26T19:39:28Z</time>
      </trkpt>
      <trkpt lat="41.919209" lon="2.545855">
        <ele>802.057</ele>
        <time>2021-05-26T19:39:30Z</time>
      </trkpt>
      <trkpt lat="41.919198" lon="2.545832">
        <ele>802.234</ele>
        <time>2021-05-26T19:39:31Z</time>
      </trkpt>
      <trkpt lat="41.919185" lon="2.545808">
        <ele>802.388</ele>
        <time>2021-05-26T19:39:32Z</time>
      </trkpt>
      <trkpt lat="41.919171" lon="2.545784">
        <ele>802.413</ele>
        <time>2021-05-26T19:39:33Z</time>
      </trkpt>
      <trkpt lat="41.919156" lon="2.545756">
        <ele>802.683</ele>
        <time>2021-05-26T19:39:34Z</time>
      </trkpt>
      <trkpt lat="41.919136" lon="2.545729">
        <ele>803.249</ele>
        <time>2021-05-26T19:39:35Z</time>
      </trkpt>
      <trkpt lat="41.919119" lon="2.545701">
        <ele>803.614</ele>
        <time>2021-05-26T19:39:36Z</time>
      </trkpt>
      <trkpt lat="41.919103" lon="2.545678">
        <ele>804.148</ele>
        <time>2021-05-26T19:39:37Z</time>
      </trkpt>
      <trkpt lat="41.919091" lon="2.545646">
        <ele>804.361</ele>
        <time>2021-05-26T19:39:38Z</time>
      </trkpt>
      <trkpt lat="41.919074" lon="2.545586">
        <ele>804.617</ele>
        <time>2021-05-26T19:39:40Z</time>
      </trkpt>
      <trkpt lat="41.919064" lon="2.545555">
        <ele>804.808</ele>
        <time>2021-05-26T19:39:41Z</time>
      </trkpt>
      <trkpt lat="41.919058" lon="2.545520">
        <ele>804.611</ele>
        <time>2021-05-26T19:39:42Z</time>
      </trkpt>
      <trkpt lat="41.919055" lon="2.545490">
        <ele>804.498</ele>
        <time>2021-05-26T19:39:43Z</time>
      </trkpt>
      <trkpt lat="41.919053" lon="2.545460">
        <ele>804.185</ele>
        <time>2021-05-26T19:39:44Z</time>
      </trkpt>
      <trkpt lat="41.919052" lon="2.545425">
        <ele>803.759</ele>
        <time>2021-05-26T19:39:45Z</time>
      </trkpt>
      <trkpt lat="41.919051" lon="2.545389">
        <ele>803.334</ele>
        <time>2021-05-26T19:39:46Z</time>
      </trkpt>
      <trkpt lat="41.919047" lon="2.545351">
        <ele>803.044</ele>
        <time>2021-05-26T19:39:47Z</time>
      </trkpt>
      <trkpt lat="41.919045" lon="2.545317">
        <ele>802.670</ele>
        <time>2021-05-26T19:39:48Z</time>
      </trkpt>
      <trkpt lat="41.919042" lon="2.545283">
        <ele>802.485</ele>
        <time>2021-05-26T19:39:49Z</time>
      </trkpt>
      <trkpt lat="41.919038" lon="2.545250">
        <ele>802.078</ele>
        <time>2021-05-26T19:39:50Z</time>
      </trkpt>
      <trkpt lat="41.919037" lon="2.545221">
        <ele>801.533</ele>
        <time>2021-05-26T19:39:51Z</time>
      </trkpt>
      <trkpt lat="41.919031" lon="2.545162">
        <ele>800.826</ele>
        <time>2021-05-26T19:39:53Z</time>
      </trkpt>
      <trkpt lat="41.919021" lon="2.545100">
        <ele>800.108</ele>
        <time>2021-05-26T19:39:55Z</time>
      </trkpt>
      <trkpt lat="41.919020" lon="2.545067">
        <ele>799.614</ele>
        <time>2021-05-26T19:39:56Z</time>
      </trkpt>
      <trkpt lat="41.919014" lon="2.545035">
        <ele>799.271</ele>
        <time>2021-05-26T19:39:57Z</time>
      </trkpt>
      <trkpt lat="41.919010" lon="2.544998">
        <ele>798.778</ele>
        <time>2021-05-26T19:39:58Z</time>
      </trkpt>
      <trkpt lat="41.918998" lon="2.544971">
        <ele>798.932</ele>
        <time>2021-05-26T19:39:59Z</time>
      </trkpt>
      <trkpt lat="41.918987" lon="2.544944">
        <ele>799.037</ele>
        <time>2021-05-26T19:40:00Z</time>
      </trkpt>
      <trkpt lat="41.918968" lon="2.544909">
        <ele>799.437</ele>
        <time>2021-05-26T19:40:02Z</time>
      </trkpt>
      <trkpt lat="41.918959" lon="2.544886">
        <ele>799.473</ele>
        <time>2021-05-26T19:40:03Z</time>
      </trkpt>
      <trkpt lat="41.918951" lon="2.544857">
        <ele>799.418</ele>
        <time>2021-05-26T19:40:04Z</time>
      </trkpt>
      <trkpt lat="41.918943" lon="2.544827">
        <ele>799.333</ele>
        <time>2021-05-26T19:40:05Z</time>
      </trkpt>
      <trkpt lat="41.918936" lon="2.544802">
        <ele>799.223</ele>
        <time>2021-05-26T19:40:06Z</time>
      </trkpt>
      <trkpt lat="41.918936" lon="2.544777">
        <ele>798.915</ele>
        <time>2021-05-26T19:40:07Z</time>
      </trkpt>
      <trkpt lat="41.918958" lon="2.544753">
        <ele>797.708</ele>
        <time>2021-05-26T19:40:09Z</time>
      </trkpt>
      <trkpt lat="41.918984" lon="2.544777">
        <ele>797.040</ele>
        <time>2021-05-26T19:40:11Z</time>
      </trkpt>
      <trkpt lat="41.919000" lon="2.544803">
        <ele>796.687</ele>
        <time>2021-05-26T19:40:12Z</time>
      </trkpt>
      <trkpt lat="41.919013" lon="2.544829">
        <ele>796.574</ele>
        <time>2021-05-26T19:40:13Z</time>
      </trkpt>
      <trkpt lat="41.919032" lon="2.544855">
        <ele>796.028</ele>
        <time>2021-05-26T19:40:14Z</time>
      </trkpt>
      <trkpt lat="41.919085" lon="2.544964">
        <ele>795.123</ele>
        <time>2021-05-26T19:40:18Z</time>
      </trkpt>
      <trkpt lat="41.919093" lon="2.545098">
        <ele>796.893</ele>
        <time>2021-05-26T19:40:22Z</time>
      </trkpt>
      <trkpt lat="41.919094" lon="2.545225">
        <ele>798.829</ele>
        <time>2021-05-26T19:40:27Z</time>
      </trkpt>
      <trkpt lat="41.919125" lon="2.545319">
        <ele>798.734</ele>
        <time>2021-05-26T19:40:30Z</time>
      </trkpt>
      <trkpt lat="41.919140" lon="2.545365">
        <ele>798.652</ele>
        <time>2021-05-26T19:40:32Z</time>
      </trkpt>
      <trkpt lat="41.919151" lon="2.545387">
        <ele>798.353</ele>
        <time>2021-05-26T19:40:34Z</time>
      </trkpt>
      <trkpt lat="41.919165" lon="2.545444">
        <ele>798.508</ele>
        <time>2021-05-26T19:40:35Z</time>
      </trkpt>
      <trkpt lat="41.919168" lon="2.545470">
        <ele>798.708</ele>
        <time>2021-05-26T19:40:37Z</time>
      </trkpt>
      <trkpt lat="41.919171" lon="2.545610">
        <ele>800.552</ele>
        <time>2021-05-26T19:40:42Z</time>
      </trkpt>
      <trkpt lat="41.919207" lon="2.545710">
        <ele>800.689</ele>
        <time>2021-05-26T19:40:45Z</time>
      </trkpt>
      <trkpt lat="41.919287" lon="2.545783">
        <ele>799.336</ele>
        <time>2021-05-26T19:40:50Z</time>
      </trkpt>
      <trkpt lat="41.919372" lon="2.545790">
        <ele>797.220</ele>
        <time>2021-05-26T19:40:53Z</time>
      </trkpt>
      <trkpt lat="41.919397" lon="2.545795">
        <ele>796.795</ele>
        <time>2021-05-26T19:40:54Z</time>
      </trkpt>
      <trkpt lat="41.919419" lon="2.545803">
        <ele>796.265</ele>
        <time>2021-05-26T19:40:55Z</time>
      </trkpt>
      <trkpt lat="41.919443" lon="2.545813">
        <ele>795.751</ele>
        <time>2021-05-26T19:40:56Z</time>
      </trkpt>
      <trkpt lat="41.919466" lon="2.545825">
        <ele>795.316</ele>
        <time>2021-05-26T19:40:57Z</time>
      </trkpt>
      <trkpt lat="41.919488" lon="2.545840">
        <ele>794.817</ele>
        <time>2021-05-26T19:40:58Z</time>
      </trkpt>
      <trkpt lat="41.919531" lon="2.545863">
        <ele>793.987</ele>
        <time>2021-05-26T19:41:00Z</time>
      </trkpt>
      <trkpt lat="41.919567" lon="2.545894">
        <ele>793.315</ele>
        <time>2021-05-26T19:41:02Z</time>
      </trkpt>
      <trkpt lat="41.919598" lon="2.545943">
        <ele>793.208</ele>
        <time>2021-05-26T19:41:04Z</time>
      </trkpt>
      <trkpt lat="41.919615" lon="2.545969">
        <ele>793.068</ele>
        <time>2021-05-26T19:41:05Z</time>
      </trkpt>
      <trkpt lat="41.919633" lon="2.545992">
        <ele>792.925</ele>
        <time>2021-05-26T19:41:06Z</time>
      </trkpt>
      <trkpt lat="41.919652" lon="2.546013">
        <ele>792.622</ele>
        <time>2021-05-26T19:41:07Z</time>
      </trkpt>
      <trkpt lat="41.919669" lon="2.546036">
        <ele>792.556</ele>
        <time>2021-05-26T19:41:08Z</time>
      </trkpt>
      <trkpt lat="41.919712" lon="2.546078">
        <ele>791.891</ele>
        <time>2021-05-26T19:41:10Z</time>
      </trkpt>
      <trkpt lat="41.919735" lon="2.546100">
        <ele>791.491</ele>
        <time>2021-05-26T19:41:11Z</time>
      </trkpt>
      <trkpt lat="41.919757" lon="2.546120">
        <ele>790.997</ele>
        <time>2021-05-26T19:41:12Z</time>
      </trkpt>
      <trkpt lat="41.919774" lon="2.546138">
        <ele>790.542</ele>
        <time>2021-05-26T19:41:13Z</time>
      </trkpt>
      <trkpt lat="41.919812" lon="2.546176">
        <ele>789.641</ele>
        <time>2021-05-26T19:41:15Z</time>
      </trkpt>
      <trkpt lat="41.919833" lon="2.546195">
        <ele>789.181</ele>
        <time>2021-05-26T19:41:16Z</time>
      </trkpt>
      <trkpt lat="41.919854" lon="2.546216">
        <ele>788.709</ele>
        <time>2021-05-26T19:41:17Z</time>
      </trkpt>
      <trkpt lat="41.919873" lon="2.546239">
        <ele>788.308</ele>
        <time>2021-05-26T19:41:18Z</time>
      </trkpt>
      <trkpt lat="41.919940" lon="2.546344">
        <ele>787.361</ele>
        <time>2021-05-26T19:41:22Z</time>
      </trkpt>
      <trkpt lat="41.919997" lon="2.546451">
        <ele>786.338</ele>
        <time>2021-05-26T19:41:26Z</time>
      </trkpt>
      <trkpt lat="41.920027" lon="2.546512">
        <ele>785.515</ele>
        <time>2021-05-26T19:41:28Z</time>
      </trkpt>
      <trkpt lat="41.920087" lon="2.546619">
        <ele>784.089</ele>
        <time>2021-05-26T19:41:32Z</time>
      </trkpt>
      <trkpt lat="41.920143" lon="2.546737">
        <ele>781.944</ele>
        <time>2021-05-26T19:41:37Z</time>
      </trkpt>
      <trkpt lat="41.920137" lon="2.546860">
        <ele>781.274</ele>
        <time>2021-05-26T19:41:42Z</time>
      </trkpt>
      <trkpt lat="41.920102" lon="2.546974">
        <ele>780.840</ele>
        <time>2021-05-26T19:41:47Z</time>
      </trkpt>
      <trkpt lat="41.920070" lon="2.547004">
        <ele>780.815</ele>
        <time>2021-05-26T19:41:49Z</time>
      </trkpt>
      <trkpt lat="41.920052" lon="2.547009">
        <ele>781.178</ele>
        <time>2021-05-26T19:41:50Z</time>
      </trkpt>
      <trkpt lat="41.920034" lon="2.547018">
        <ele>781.433</ele>
        <time>2021-05-26T19:41:51Z</time>
      </trkpt>
      <trkpt lat="41.920011" lon="2.547036">
        <ele>781.426</ele>
        <time>2021-05-26T19:41:52Z</time>
      </trkpt>
      <trkpt lat="41.919987" lon="2.547053">
        <ele>781.108</ele>
        <time>2021-05-26T19:41:53Z</time>
      </trkpt>
      <trkpt lat="41.919931" lon="2.547089">
        <ele>779.664</ele>
        <time>2021-05-26T19:41:55Z</time>
      </trkpt>
      <trkpt lat="41.919910" lon="2.547109">
        <ele>778.851</ele>
        <time>2021-05-26T19:41:56Z</time>
      </trkpt>
      <trkpt lat="41.919886" lon="2.547121">
        <ele>778.228</ele>
        <time>2021-05-26T19:41:57Z</time>
      </trkpt>
      <trkpt lat="41.919865" lon="2.547134">
        <ele>777.682</ele>
        <time>2021-05-26T19:41:58Z</time>
      </trkpt>
      <trkpt lat="41.919818" lon="2.547154">
        <ele>776.487</ele>
        <time>2021-05-26T19:42:00Z</time>
      </trkpt>
      <trkpt lat="41.919795" lon="2.547156">
        <ele>776.137</ele>
        <time>2021-05-26T19:42:01Z</time>
      </trkpt>
      <trkpt lat="41.919773" lon="2.547158">
        <ele>775.793</ele>
        <time>2021-05-26T19:42:02Z</time>
      </trkpt>
      <trkpt lat="41.919753" lon="2.547164">
        <ele>775.318</ele>
        <time>2021-05-26T19:42:03Z</time>
      </trkpt>
      <trkpt lat="41.919731" lon="2.547171">
        <ele>774.897</ele>
        <time>2021-05-26T19:42:04Z</time>
      </trkpt>
      <trkpt lat="41.919708" lon="2.547174">
        <ele>774.223</ele>
        <time>2021-05-26T19:42:05Z</time>
      </trkpt>
      <trkpt lat="41.919683" lon="2.547177">
        <ele>773.525</ele>
        <time>2021-05-26T19:42:06Z</time>
      </trkpt>
      <trkpt lat="41.919656" lon="2.547178">
        <ele>772.708</ele>
        <time>2021-05-26T19:42:07Z</time>
      </trkpt>
      <trkpt lat="41.919564" lon="2.547197">
        <ele>769.556</ele>
        <time>2021-05-26T19:42:12Z</time>
      </trkpt>
      <trkpt lat="41.919474" lon="2.547263">
        <ele>764.373</ele>
        <time>2021-05-26T19:42:16Z</time>
      </trkpt>
      <trkpt lat="41.919481" lon="2.547310">
        <ele>762.720</ele>
        <time>2021-05-26T19:42:17Z</time>
      </trkpt>
      <trkpt lat="41.919491" lon="2.547350">
        <ele>761.444</ele>
        <time>2021-05-26T19:42:18Z</time>
      </trkpt>
      <trkpt lat="41.919503" lon="2.547381">
        <ele>760.549</ele>
        <time>2021-05-26T19:42:19Z</time>
      </trkpt>
      <trkpt lat="41.919519" lon="2.547401">
        <ele>760.019</ele>
        <time>2021-05-26T19:42:20Z</time>
      </trkpt>
      <trkpt lat="41.919535" lon="2.547421">
        <ele>759.535</ele>
        <time>2021-05-26T19:42:21Z</time>
      </trkpt>
      <trkpt lat="41.919553" lon="2.547436">
        <ele>759.230</ele>
        <time>2021-05-26T19:42:22Z</time>
      </trkpt>
      <trkpt lat="41.919574" lon="2.547441">
        <ele>759.427</ele>
        <time>2021-05-26T19:42:23Z</time>
      </trkpt>
      <trkpt lat="41.919594" lon="2.547444">
        <ele>759.668</ele>
        <time>2021-05-26T19:42:24Z</time>
      </trkpt>
      <trkpt lat="41.919658" lon="2.547455">
        <ele>760.214</ele>
        <time>2021-05-26T19:42:27Z</time>
      </trkpt>
      <trkpt lat="41.919680" lon="2.547459">
        <ele>760.408</ele>
        <time>2021-05-26T19:42:28Z</time>
      </trkpt>
      <trkpt lat="41.919720" lon="2.547466">
        <ele>760.799</ele>
        <time>2021-05-26T19:42:30Z</time>
      </trkpt>
      <trkpt lat="41.919742" lon="2.547463">
        <ele>761.246</ele>
        <time>2021-05-26T19:42:31Z</time>
      </trkpt>
      <trkpt lat="41.919761" lon="2.547463">
        <ele>761.553</ele>
        <time>2021-05-26T19:42:32Z</time>
      </trkpt>
      <trkpt lat="41.919781" lon="2.547466">
        <ele>761.767</ele>
        <time>2021-05-26T19:42:33Z</time>
      </trkpt>
      <trkpt lat="41.919804" lon="2.547479">
        <ele>761.512</ele>
        <time>2021-05-26T19:42:34Z</time>
      </trkpt>
      <trkpt lat="41.919824" lon="2.547490">
        <ele>761.382</ele>
        <time>2021-05-26T19:42:35Z</time>
      </trkpt>
      <trkpt lat="41.919845" lon="2.547493">
        <ele>761.678</ele>
        <time>2021-05-26T19:42:36Z</time>
      </trkpt>
      <trkpt lat="41.919867" lon="2.547490">
        <ele>762.133</ele>
        <time>2021-05-26T19:42:37Z</time>
      </trkpt>
      <trkpt lat="41.919888" lon="2.547501">
        <ele>761.962</ele>
        <time>2021-05-26T19:42:38Z</time>
      </trkpt>
      <trkpt lat="41.919907" lon="2.547504">
        <ele>762.183</ele>
        <time>2021-05-26T19:42:39Z</time>
      </trkpt>
      <trkpt lat="41.919926" lon="2.547506">
        <ele>762.311</ele>
        <time>2021-05-26T19:42:40Z</time>
      </trkpt>
      <trkpt lat="41.919947" lon="2.547503">
        <ele>762.908</ele>
        <time>2021-05-26T19:42:41Z</time>
      </trkpt>
      <trkpt lat="41.919970" lon="2.547496">
        <ele>763.633</ele>
        <time>2021-05-26T19:42:43Z</time>
      </trkpt>
      <trkpt lat="41.920048" lon="2.547508">
        <ele>763.490</ele>
        <time>2021-05-26T19:42:46Z</time>
      </trkpt>
      <trkpt lat="41.920076" lon="2.547522">
        <ele>762.527</ele>
        <time>2021-05-26T19:42:47Z</time>
      </trkpt>
      <trkpt lat="41.920102" lon="2.547539">
        <ele>761.531</ele>
        <time>2021-05-26T19:42:48Z</time>
      </trkpt>
      <trkpt lat="41.920145" lon="2.547597">
        <ele>758.326</ele>
        <time>2021-05-26T19:42:50Z</time>
      </trkpt>
      <trkpt lat="41.920167" lon="2.547617">
        <ele>757.266</ele>
        <time>2021-05-26T19:42:51Z</time>
      </trkpt>
      <trkpt lat="41.920192" lon="2.547640">
        <ele>755.932</ele>
        <time>2021-05-26T19:42:52Z</time>
      </trkpt>
      <trkpt lat="41.920210" lon="2.547654">
        <ele>755.257</ele>
        <time>2021-05-26T19:42:53Z</time>
      </trkpt>
      <trkpt lat="41.920237" lon="2.547695">
        <ele>753.164</ele>
        <time>2021-05-26T19:42:55Z</time>
      </trkpt>
      <trkpt lat="41.920251" lon="2.547712">
        <ele>752.306</ele>
        <time>2021-05-26T19:42:56Z</time>
      </trkpt>
      <trkpt lat="41.920269" lon="2.547729">
        <ele>751.416</ele>
        <time>2021-05-26T19:42:57Z</time>
      </trkpt>
      <trkpt lat="41.920290" lon="2.547738">
        <ele>751.008</ele>
        <time>2021-05-26T19:42:58Z</time>
      </trkpt>
      <trkpt lat="41.920313" lon="2.547750">
        <ele>750.453</ele>
        <time>2021-05-26T19:42:59Z</time>
      </trkpt>
      <trkpt lat="41.920338" lon="2.547761">
        <ele>750.010</ele>
        <time>2021-05-26T19:43:00Z</time>
      </trkpt>
      <trkpt lat="41.920366" lon="2.547763">
        <ele>749.997</ele>
        <time>2021-05-26T19:43:01Z</time>
      </trkpt>
      <trkpt lat="41.920391" lon="2.547767">
        <ele>749.891</ele>
        <time>2021-05-26T19:43:02Z</time>
      </trkpt>
      <trkpt lat="41.920415" lon="2.547769">
        <ele>749.856</ele>
        <time>2021-05-26T19:43:03Z</time>
      </trkpt>
      <trkpt lat="41.920446" lon="2.547771">
        <ele>749.836</ele>
        <time>2021-05-26T19:43:04Z</time>
      </trkpt>
      <trkpt lat="41.920474" lon="2.547762">
        <ele>750.272</ele>
        <time>2021-05-26T19:43:05Z</time>
      </trkpt>
      <trkpt lat="41.920502" lon="2.547750">
        <ele>750.687</ele>
        <time>2021-05-26T19:43:06Z</time>
      </trkpt>
      <trkpt lat="41.920531" lon="2.547732">
        <ele>751.028</ele>
        <time>2021-05-26T19:43:07Z</time>
      </trkpt>
      <trkpt lat="41.920558" lon="2.547717">
        <ele>751.389</ele>
        <time>2021-05-26T19:43:08Z</time>
      </trkpt>
      <trkpt lat="41.920583" lon="2.547702">
        <ele>751.017</ele>
        <time>2021-05-26T19:43:09Z</time>
      </trkpt>
      <trkpt lat="41.920608" lon="2.547682">
        <ele>750.708</ele>
        <time>2021-05-26T19:43:10Z</time>
      </trkpt>
      <trkpt lat="41.920629" lon="2.547661">
        <ele>750.559</ele>
        <time>2021-05-26T19:43:11Z</time>
      </trkpt>
      <trkpt lat="41.920650" lon="2.547640">
        <ele>750.386</ele>
        <time>2021-05-26T19:43:12Z</time>
      </trkpt>
      <trkpt lat="41.920673" lon="2.547624">
        <ele>749.873</ele>
        <time>2021-05-26T19:43:13Z</time>
      </trkpt>
      <trkpt lat="41.920721" lon="2.547611">
        <ele>748.567</ele>
        <time>2021-05-26T19:43:15Z</time>
      </trkpt>
      <trkpt lat="41.920738" lon="2.547630">
        <ele>747.832</ele>
        <time>2021-05-26T19:43:17Z</time>
      </trkpt>
      <trkpt lat="41.920737" lon="2.547655">
        <ele>747.712</ele>
        <time>2021-05-26T19:43:19Z</time>
      </trkpt>
      <trkpt lat="41.920722" lon="2.547679">
        <ele>747.958</ele>
        <time>2021-05-26T19:43:21Z</time>
      </trkpt>
      <trkpt lat="41.920703" lon="2.547701">
        <ele>748.133</ele>
        <time>2021-05-26T19:43:23Z</time>
      </trkpt>
      <trkpt lat="41.920682" lon="2.547723">
        <ele>748.437</ele>
        <time>2021-05-26T19:43:25Z</time>
      </trkpt>
      <trkpt lat="41.920664" lon="2.547730">
        <ele>748.749</ele>
        <time>2021-05-26T19:43:34Z</time>
      </trkpt>
      <trkpt lat="41.920656" lon="2.547707">
        <ele>749.213</ele>
        <time>2021-05-26T19:43:45Z</time>
      </trkpt>
      <trkpt lat="41.920678" lon="2.547725">
        <ele>748.408</ele>
        <time>2021-05-26T19:44:15Z</time>
      </trkpt>
      <trkpt lat="41.920701" lon="2.547747">
        <ele>747.730</ele>
        <time>2021-05-26T19:44:16Z</time>
      </trkpt>
      <trkpt lat="41.920722" lon="2.547776">
        <ele>747.077</ele>
        <time>2021-05-26T19:44:18Z</time>
      </trkpt>
      <trkpt lat="41.920736" lon="2.547813">
        <ele>746.084</ele>
        <time>2021-05-26T19:44:20Z</time>
      </trkpt>
      <trkpt lat="41.920749" lon="2.547856">
        <ele>744.958</ele>
        <time>2021-05-26T19:44:22Z</time>
      </trkpt>
      <trkpt lat="41.920768" lon="2.547890">
        <ele>744.063</ele>
        <time>2021-05-26T19:44:24Z</time>
      </trkpt>
      <trkpt lat="41.920789" lon="2.547924">
        <ele>743.233</ele>
        <time>2021-05-26T19:44:26Z</time>
      </trkpt>
      <trkpt lat="41.920817" lon="2.547950">
        <ele>742.669</ele>
        <time>2021-05-26T19:44:28Z</time>
      </trkpt>
      <trkpt lat="41.920842" lon="2.547961">
        <ele>742.174</ele>
        <time>2021-05-26T19:44:31Z</time>
      </trkpt>
      <trkpt lat="41.920868" lon="2.547969">
        <ele>741.333</ele>
        <time>2021-05-26T19:44:32Z</time>
      </trkpt>
      <trkpt lat="41.920896" lon="2.547975">
        <ele>740.423</ele>
        <time>2021-05-26T19:44:34Z</time>
      </trkpt>
      <trkpt lat="41.920914" lon="2.547980">
        <ele>739.915</ele>
        <time>2021-05-26T19:44:35Z</time>
      </trkpt>
      <trkpt lat="41.920932" lon="2.547988">
        <ele>739.308</ele>
        <time>2021-05-26T19:44:36Z</time>
      </trkpt>
      <trkpt lat="41.920948" lon="2.548001">
        <ele>738.880</ele>
        <time>2021-05-26T19:44:37Z</time>
      </trkpt>
      <trkpt lat="41.920968" lon="2.548016">
        <ele>738.287</ele>
        <time>2021-05-26T19:44:38Z</time>
      </trkpt>
      <trkpt lat="41.920984" lon="2.548036">
        <ele>737.844</ele>
        <time>2021-05-26T19:44:39Z</time>
      </trkpt>
      <trkpt lat="41.920995" lon="2.548064">
        <ele>737.438</ele>
        <time>2021-05-26T19:44:40Z</time>
      </trkpt>
      <trkpt lat="41.921012" lon="2.548088">
        <ele>736.743</ele>
        <time>2021-05-26T19:44:41Z</time>
      </trkpt>
      <trkpt lat="41.921030" lon="2.548109">
        <ele>736.153</ele>
        <time>2021-05-26T19:44:42Z</time>
      </trkpt>
      <trkpt lat="41.921049" lon="2.548130">
        <ele>735.599</ele>
        <time>2021-05-26T19:44:43Z</time>
      </trkpt>
      <trkpt lat="41.921062" lon="2.548153">
        <ele>735.054</ele>
        <time>2021-05-26T19:44:44Z</time>
      </trkpt>
      <trkpt lat="41.921076" lon="2.548190">
        <ele>734.537</ele>
        <time>2021-05-26T19:44:46Z</time>
      </trkpt>
      <trkpt lat="41.921074" lon="2.548236">
        <ele>734.149</ele>
        <time>2021-05-26T19:44:48Z</time>
      </trkpt>
      <trkpt lat="41.921067" lon="2.548261">
        <ele>733.913</ele>
        <time>2021-05-26T19:44:49Z</time>
      </trkpt>
      <trkpt lat="41.921058" lon="2.548282">
        <ele>733.708</ele>
        <time>2021-05-26T19:44:50Z</time>
      </trkpt>
      <trkpt lat="41.921036" lon="2.548311">
        <ele>733.580</ele>
        <time>2021-05-26T19:44:52Z</time>
      </trkpt>
      <trkpt lat="41.921010" lon="2.548326">
        <ele>733.547</ele>
        <time>2021-05-26T19:44:54Z</time>
      </trkpt>
      <trkpt lat="41.920984" lon="2.548326">
        <ele>733.654</ele>
        <time>2021-05-26T19:44:56Z</time>
      </trkpt>
      <trkpt lat="41.920951" lon="2.548321">
        <ele>733.818</ele>
        <time>2021-05-26T19:44:58Z</time>
      </trkpt>
      <trkpt lat="41.920924" lon="2.548334">
        <ele>733.773</ele>
        <time>2021-05-26T19:45:00Z</time>
      </trkpt>
      <trkpt lat="41.920909" lon="2.548362">
        <ele>732.963</ele>
        <time>2021-05-26T19:45:02Z</time>
      </trkpt>
      <trkpt lat="41.920917" lon="2.548406">
        <ele>731.739</ele>
        <time>2021-05-26T19:45:04Z</time>
      </trkpt>
      <trkpt lat="41.920926" lon="2.548431">
        <ele>731.184</ele>
        <time>2021-05-26T19:45:05Z</time>
      </trkpt>
      <trkpt lat="41.920954" lon="2.548440">
        <ele>730.949</ele>
        <time>2021-05-26T19:45:07Z</time>
      </trkpt>
      <trkpt lat="41.920992" lon="2.548433">
        <ele>731.202</ele>
        <time>2021-05-26T19:45:09Z</time>
      </trkpt>
      <trkpt lat="41.921015" lon="2.548439">
        <ele>731.222</ele>
        <time>2021-05-26T19:45:10Z</time>
      </trkpt>
      <trkpt lat="41.921037" lon="2.548446">
        <ele>731.108</ele>
        <time>2021-05-26T19:45:11Z</time>
      </trkpt>
      <trkpt lat="41.921062" lon="2.548446">
        <ele>731.231</ele>
        <time>2021-05-26T19:45:12Z</time>
      </trkpt>
      <trkpt lat="41.921085" lon="2.548442">
        <ele>731.398</ele>
        <time>2021-05-26T19:45:13Z</time>
      </trkpt>
      <trkpt lat="41.921108" lon="2.548441">
        <ele>731.495</ele>
        <time>2021-05-26T19:45:14Z</time>
      </trkpt>
      <trkpt lat="41.921128" lon="2.548437">
        <ele>731.239</ele>
        <time>2021-05-26T19:45:15Z</time>
      </trkpt>
      <trkpt lat="41.921153" lon="2.548424">
        <ele>730.934</ele>
        <time>2021-05-26T19:45:16Z</time>
      </trkpt>
      <trkpt lat="41.921174" lon="2.548406">
        <ele>730.884</ele>
        <time>2021-05-26T19:45:17Z</time>
      </trkpt>
      <trkpt lat="41.921192" lon="2.548382">
        <ele>730.730</ele>
        <time>2021-05-26T19:45:18Z</time>
      </trkpt>
      <trkpt lat="41.921211" lon="2.548356">
        <ele>730.625</ele>
        <time>2021-05-26T19:45:19Z</time>
      </trkpt>
      <trkpt lat="41.921229" lon="2.548328">
        <ele>730.581</ele>
        <time>2021-05-26T19:45:20Z</time>
      </trkpt>
      <trkpt lat="41.921256" lon="2.548280">
        <ele>729.861</ele>
        <time>2021-05-26T19:45:22Z</time>
      </trkpt>
      <trkpt lat="41.921270" lon="2.548239">
        <ele>729.317</ele>
        <time>2021-05-26T19:45:24Z</time>
      </trkpt>
      <trkpt lat="41.921281" lon="2.548196">
        <ele>728.808</ele>
        <time>2021-05-26T19:45:26Z</time>
      </trkpt>
      <trkpt lat="41.921280" lon="2.548154">
        <ele>728.765</ele>
        <time>2021-05-26T19:45:28Z</time>
      </trkpt>
      <trkpt lat="41.921268" lon="2.548107">
        <ele>728.982</ele>
        <time>2021-05-26T19:45:30Z</time>
      </trkpt>
      <trkpt lat="41.921251" lon="2.548076">
        <ele>729.569</ele>
        <time>2021-05-26T19:45:32Z</time>
      </trkpt>
      <trkpt lat="41.921232" lon="2.548041">
        <ele>730.063</ele>
        <time>2021-05-26T19:45:34Z</time>
      </trkpt>
      <trkpt lat="41.921217" lon="2.547991">
        <ele>730.178</ele>
        <time>2021-05-26T19:45:36Z</time>
      </trkpt>
      <trkpt lat="41.921217" lon="2.547966">
        <ele>729.878</ele>
        <time>2021-05-26T19:45:37Z</time>
      </trkpt>
      <trkpt lat="41.921219" lon="2.547936">
        <ele>729.414</ele>
        <time>2021-05-26T19:45:38Z</time>
      </trkpt>
      <trkpt lat="41.921224" lon="2.547880">
        <ele>728.549</ele>
        <time>2021-05-26T19:45:40Z</time>
      </trkpt>
      <trkpt lat="41.921225" lon="2.547848">
        <ele>728.172</ele>
        <time>2021-05-26T19:45:41Z</time>
      </trkpt>
      <trkpt lat="41.921223" lon="2.547816">
        <ele>727.813</ele>
        <time>2021-05-26T19:45:42Z</time>
      </trkpt>
      <trkpt lat="41.921213" lon="2.547761">
        <ele>727.714</ele>
        <time>2021-05-26T19:45:44Z</time>
      </trkpt>
      <trkpt lat="41.921217" lon="2.547737">
        <ele>727.308</ele>
        <time>2021-05-26T19:45:45Z</time>
      </trkpt>
      <trkpt lat="41.921228" lon="2.547600">
        <ele>725.344</ele>
        <time>2021-05-26T19:45:50Z</time>
      </trkpt>
      <trkpt lat="41.921165" lon="2.547480">
        <ele>727.581</ele>
        <time>2021-05-26T19:45:56Z</time>
      </trkpt>
      <trkpt lat="41.921100" lon="2.547361">
        <ele>729.178</ele>
        <time>2021-05-26T19:46:00Z</time>
      </trkpt>
      <trkpt lat="41.921105" lon="2.547214">
        <ele>726.272</ele>
        <time>2021-05-26T19:46:06Z</time>
      </trkpt>
      <trkpt lat="41.921106" lon="2.547084">
        <ele>724.317</ele>
        <time>2021-05-26T19:46:10Z</time>
      </trkpt>
      <trkpt lat="41.921117" lon="2.546946">
        <ele>721.757</ele>
        <time>2021-05-26T19:46:14Z</time>
      </trkpt>
      <trkpt lat="41.921088" lon="2.546796">
        <ele>722.133</ele>
        <time>2021-05-26T19:46:18Z</time>
      </trkpt>
      <trkpt lat="41.921079" lon="2.546659">
        <ele>721.618</ele>
        <time>2021-05-26T19:46:23Z</time>
      </trkpt>
      <trkpt lat="41.921092" lon="2.546524">
        <ele>720.062</ele>
        <time>2021-05-26T19:46:29Z</time>
      </trkpt>
      <trkpt lat="41.921143" lon="2.546396">
        <ele>717.583</ele>
        <time>2021-05-26T19:46:33Z</time>
      </trkpt>
      <trkpt lat="41.921123" lon="2.546276">
        <ele>716.711</ele>
        <time>2021-05-26T19:46:40Z</time>
      </trkpt>
      <trkpt lat="41.921015" lon="2.546239">
        <ele>720.808</ele>
        <time>2021-05-26T19:46:48Z</time>
      </trkpt>
      <trkpt lat="41.920939" lon="2.546139">
        <ele>721.923</ele>
        <time>2021-05-26T19:46:52Z</time>
      </trkpt>
      <trkpt lat="41.920966" lon="2.545982">
        <ele>720.470</ele>
        <time>2021-05-26T19:46:57Z</time>
      </trkpt>
      <trkpt lat="41.921073" lon="2.545930">
        <ele>717.487</ele>
        <time>2021-05-26T19:47:00Z</time>
      </trkpt>
      <trkpt lat="41.921169" lon="2.545950">
        <ele>716.871</ele>
        <time>2021-05-26T19:47:05Z</time>
      </trkpt>
      <trkpt lat="41.921269" lon="2.545958">
        <ele>717.736</ele>
        <time>2021-05-26T19:47:09Z</time>
      </trkpt>
      <trkpt lat="41.921361" lon="2.545936">
        <ele>719.186</ele>
        <time>2021-05-26T19:47:12Z</time>
      </trkpt>
      <trkpt lat="41.921452" lon="2.545992">
        <ele>718.852</ele>
        <time>2021-05-26T19:47:20Z</time>
      </trkpt>
      <trkpt lat="41.921464" lon="2.546113">
        <ele>715.847</ele>
        <time>2021-05-26T19:47:32Z</time>
      </trkpt>
      <trkpt lat="41.921493" lon="2.546233">
        <ele>714.688</ele>
        <time>2021-05-26T19:47:38Z</time>
      </trkpt>
      <trkpt lat="41.921569" lon="2.546307">
        <ele>713.724</ele>
        <time>2021-05-26T19:47:43Z</time>
      </trkpt>
      <trkpt lat="41.921653" lon="2.546404">
        <ele>711.626</ele>
        <time>2021-05-26T19:47:47Z</time>
      </trkpt>
      <trkpt lat="41.921717" lon="2.546515">
        <ele>708.108</ele>
        <time>2021-05-26T19:47:51Z</time>
      </trkpt>
      <trkpt lat="41.921799" lon="2.546614">
        <ele>704.795</ele>
        <time>2021-05-26T19:47:56Z</time>
      </trkpt>
      <trkpt lat="41.921893" lon="2.546683">
        <ele>701.842</ele>
        <time>2021-05-26T19:48:01Z</time>
      </trkpt>
      <trkpt lat="41.921985" lon="2.546729">
        <ele>699.159</ele>
        <time>2021-05-26T19:48:06Z</time>
      </trkpt>
      <trkpt lat="41.922080" lon="2.546794">
        <ele>695.513</ele>
        <time>2021-05-26T19:48:10Z</time>
      </trkpt>
      <trkpt lat="41.922185" lon="2.546833">
        <ele>692.848</ele>
        <time>2021-05-26T19:48:16Z</time>
      </trkpt>
      <trkpt lat="41.922281" lon="2.546917">
        <ele>689.068</ele>
        <time>2021-05-26T19:48:20Z</time>
      </trkpt>
      <trkpt lat="41.922367" lon="2.546973">
        <ele>687.324</ele>
        <time>2021-05-26T19:48:24Z</time>
      </trkpt>
      <trkpt lat="41.922470" lon="2.546930">
        <ele>688.539</ele>
        <time>2021-05-26T19:48:28Z</time>
      </trkpt>
      <trkpt lat="41.922397" lon="2.547002">
        <ele>686.587</ele>
        <time>2021-05-26T19:48:47Z</time>
      </trkpt>
      <trkpt lat="41.922289" lon="2.546985">
        <ele>687.142</ele>
        <time>2021-05-26T19:48:52Z</time>
      </trkpt>
      <trkpt lat="41.922185" lon="2.546952">
        <ele>688.226</ele>
        <time>2021-05-26T19:48:59Z</time>
      </trkpt>
      <trkpt lat="41.922072" lon="2.546932">
        <ele>690.108</ele>
        <time>2021-05-26T19:49:03Z</time>
      </trkpt>
      <trkpt lat="41.921962" lon="2.546938">
        <ele>691.185</ele>
        <time>2021-05-26T19:49:07Z</time>
      </trkpt>
      <trkpt lat="41.921860" lon="2.546941">
        <ele>692.642</ele>
        <time>2021-05-26T19:49:11Z</time>
      </trkpt>
      <trkpt lat="41.921788" lon="2.546868">
        <ele>696.459</ele>
        <time>2021-05-26T19:49:18Z</time>
      </trkpt>
      <trkpt lat="41.921733" lon="2.546753">
        <ele>700.873</ele>
        <time>2021-05-26T19:49:25Z</time>
      </trkpt>
      <trkpt lat="41.921692" lon="2.546637">
        <ele>704.718</ele>
        <time>2021-05-26T19:49:31Z</time>
      </trkpt>
      <trkpt lat="41.921667" lon="2.546510">
        <ele>708.538</ele>
        <time>2021-05-26T19:49:38Z</time>
      </trkpt>
      <trkpt lat="41.921582" lon="2.546552">
        <ele>708.594</ele>
        <time>2021-05-26T19:49:50Z</time>
      </trkpt>
      <trkpt lat="41.921600" lon="2.546695">
        <ele>704.819</ele>
        <time>2021-05-26T19:49:54Z</time>
      </trkpt>
      <trkpt lat="41.921593" lon="2.546818">
        <ele>702.288</ele>
        <time>2021-05-26T19:49:58Z</time>
      </trkpt>
      <trkpt lat="41.921552" lon="2.546926">
        <ele>701.724</ele>
        <time>2021-05-26T19:50:02Z</time>
      </trkpt>
      <trkpt lat="41.921568" lon="2.547059">
        <ele>700.226</ele>
        <time>2021-05-26T19:50:09Z</time>
      </trkpt>
      <trkpt lat="41.921589" lon="2.547179">
        <ele>698.708</ele>
        <time>2021-05-26T19:50:14Z</time>
      </trkpt>
      <trkpt lat="41.921670" lon="2.547241">
        <ele>694.215</ele>
        <time>2021-05-26T19:50:19Z</time>
      </trkpt>
      <trkpt lat="41.921722" lon="2.547353">
        <ele>693.832</ele>
        <time>2021-05-26T19:50:26Z</time>
      </trkpt>
      <trkpt lat="41.921774" lon="2.547470">
        <ele>693.149</ele>
        <time>2021-05-26T19:50:31Z</time>
      </trkpt>
      <trkpt lat="41.921846" lon="2.547569">
        <ele>691.143</ele>
        <time>2021-05-26T19:50:36Z</time>
      </trkpt>
      <trkpt lat="41.921924" lon="2.547661">
        <ele>688.288</ele>
        <time>2021-05-26T19:50:41Z</time>
      </trkpt>
      <trkpt lat="41.922051" lon="2.547698">
        <ele>684.528</ele>
        <time>2021-05-26T19:50:46Z</time>
      </trkpt>
      <trkpt lat="41.922148" lon="2.547716">
        <ele>681.934</ele>
        <time>2021-05-26T19:50:47Z</time>
      </trkpt>
      <trkpt lat="41.922191" lon="2.547828">
        <ele>681.449</ele>
        <time>2021-05-26T19:50:51Z</time>
      </trkpt>
      <trkpt lat="41.922232" lon="2.547943">
        <ele>680.977</ele>
        <time>2021-05-26T19:50:55Z</time>
      </trkpt>
      <trkpt lat="41.922268" lon="2.548066">
        <ele>680.561</ele>
        <time>2021-05-26T19:51:00Z</time>
      </trkpt>
      <trkpt lat="41.922324" lon="2.548172">
        <ele>680.127</ele>
        <time>2021-05-26T19:51:05Z</time>
      </trkpt>
      <trkpt lat="41.922361" lon="2.548313">
        <ele>680.208</ele>
        <time>2021-05-26T19:51:10Z</time>
      </trkpt>
      <trkpt lat="41.922374" lon="2.548457">
        <ele>682.244</ele>
        <time>2021-05-26T19:51:14Z</time>
      </trkpt>
      <trkpt lat="41.922388" lon="2.548583">
        <ele>683.791</ele>
        <time>2021-05-26T19:51:18Z</time>
      </trkpt>
      <trkpt lat="41.922435" lon="2.548719">
        <ele>683.158</ele>
        <time>2021-05-26T19:51:23Z</time>
      </trkpt>
      <trkpt lat="41.922487" lon="2.548818">
        <ele>681.032</ele>
        <time>2021-05-26T19:51:27Z</time>
      </trkpt>
      <trkpt lat="41.922491" lon="2.548941">
        <ele>683.277</ele>
        <time>2021-05-26T19:51:33Z</time>
      </trkpt>
      <trkpt lat="41.922570" lon="2.549014">
        <ele>680.387</ele>
        <time>2021-05-26T19:51:39Z</time>
      </trkpt>
      <trkpt lat="41.922662" lon="2.549006">
        <ele>674.483</ele>
        <time>2021-05-26T19:51:43Z</time>
      </trkpt>
      <trkpt lat="41.922763" lon="2.549015">
        <ele>668.378</ele>
        <time>2021-05-26T19:51:48Z</time>
      </trkpt>
      <trkpt lat="41.922873" lon="2.549046">
        <ele>664.357</ele>
        <time>2021-05-26T19:51:52Z</time>
      </trkpt>
      <trkpt lat="41.923011" lon="2.549087">
        <ele>659.700</ele>
        <time>2021-05-26T19:51:55Z</time>
      </trkpt>
      <trkpt lat="41.923106" lon="2.549129">
        <ele>656.720</ele>
        <time>2021-05-26T19:51:57Z</time>
      </trkpt>
      <trkpt lat="41.923196" lon="2.549199">
        <ele>654.008</ele>
        <time>2021-05-26T19:52:00Z</time>
      </trkpt>
      <trkpt lat="41.923270" lon="2.549288">
        <ele>652.112</ele>
        <time>2021-05-26T19:52:05Z</time>
      </trkpt>
      <trkpt lat="41.923310" lon="2.549410">
        <ele>651.819</ele>
        <time>2021-05-26T19:52:09Z</time>
      </trkpt>
      <trkpt lat="41.923295" lon="2.549532">
        <ele>654.916</ele>
        <time>2021-05-26T19:52:13Z</time>
      </trkpt>
      <trkpt lat="41.923302" lon="2.549675">
        <ele>657.770</ele>
        <time>2021-05-26T19:52:18Z</time>
      </trkpt>
      <trkpt lat="41.923344" lon="2.549795">
        <ele>657.715</ele>
        <time>2021-05-26T19:52:22Z</time>
      </trkpt>
      <trkpt lat="41.923404" lon="2.549918">
        <ele>656.985</ele>
        <time>2021-05-26T19:52:26Z</time>
      </trkpt>
      <trkpt lat="41.923478" lon="2.550024">
        <ele>655.861</ele>
        <time>2021-05-26T19:52:32Z</time>
      </trkpt>
      <trkpt lat="41.923562" lon="2.550115">
        <ele>654.716</ele>
        <time>2021-05-26T19:52:35Z</time>
      </trkpt>
      <trkpt lat="41.923637" lon="2.550188">
        <ele>654.217</ele>
        <time>2021-05-26T19:52:39Z</time>
      </trkpt>
      <trkpt lat="41.923717" lon="2.550277">
        <ele>654.587</ele>
        <time>2021-05-26T19:52:44Z</time>
      </trkpt>
      <trkpt lat="41.923745" lon="2.550405">
        <ele>656.215</ele>
        <time>2021-05-26T19:52:54Z</time>
      </trkpt>
      <trkpt lat="41.923732" lon="2.550530">
        <ele>659.008</ele>
        <time>2021-05-26T19:53:00Z</time>
      </trkpt>
      <trkpt lat="41.923654" lon="2.550631">
        <ele>661.188</ele>
        <time>2021-05-26T19:53:06Z</time>
      </trkpt>
      <trkpt lat="41.923583" lon="2.550735">
        <ele>661.535</ele>
        <time>2021-05-26T19:53:14Z</time>
      </trkpt>
      <trkpt lat="41.923490" lon="2.550783">
        <ele>662.472</ele>
        <time>2021-05-26T19:53:19Z</time>
      </trkpt>
      <trkpt lat="41.923396" lon="2.550893">
        <ele>660.946</ele>
        <time>2021-05-26T19:53:22Z</time>
      </trkpt>
      <trkpt lat="41.923313" lon="2.551015">
        <ele>657.231</ele>
        <time>2021-05-26T19:53:25Z</time>
      </trkpt>
      <trkpt lat="41.923258" lon="2.551137">
        <ele>651.911</ele>
        <time>2021-05-26T19:53:29Z</time>
      </trkpt>
      <trkpt lat="41.923223" lon="2.551261">
        <ele>646.637</ele>
        <time>2021-05-26T19:53:34Z</time>
      </trkpt>
      <trkpt lat="41.923234" lon="2.551383">
        <ele>642.132</ele>
        <time>2021-05-26T19:53:39Z</time>
      </trkpt>
      <trkpt lat="41.923223" lon="2.551450">
        <ele>639.931</ele>
        <time>2021-05-26T19:53:40Z</time>
      </trkpt>
      <trkpt lat="41.923187" lon="2.551488">
        <ele>638.061</ele>
        <time>2021-05-26T19:53:42Z</time>
      </trkpt>
      <trkpt lat="41.923165" lon="2.551496">
        <ele>637.307</ele>
        <time>2021-05-26T19:53:43Z</time>
      </trkpt>
      <trkpt lat="41.923143" lon="2.551496">
        <ele>636.808</ele>
        <time>2021-05-26T19:53:44Z</time>
      </trkpt>
      <trkpt lat="41.923123" lon="2.551495">
        <ele>636.410</ele>
        <time>2021-05-26T19:53:45Z</time>
      </trkpt>
      <trkpt lat="41.923103" lon="2.551484">
        <ele>636.357</ele>
        <time>2021-05-26T19:53:46Z</time>
      </trkpt>
      <trkpt lat="41.923082" lon="2.551469">
        <ele>636.364</ele>
        <time>2021-05-26T19:53:47Z</time>
      </trkpt>
      <trkpt lat="41.923060" lon="2.551450">
        <ele>636.368</ele>
        <time>2021-05-26T19:53:48Z</time>
      </trkpt>
      <trkpt lat="41.923042" lon="2.551427">
        <ele>636.523</ele>
        <time>2021-05-26T19:53:49Z</time>
      </trkpt>
      <trkpt lat="41.923013" lon="2.551393">
        <ele>636.513</ele>
        <time>2021-05-26T19:53:51Z</time>
      </trkpt>
      <trkpt lat="41.922996" lon="2.551372">
        <ele>636.829</ele>
        <time>2021-05-26T19:53:52Z</time>
      </trkpt>
      <trkpt lat="41.922983" lon="2.551353">
        <ele>637.284</ele>
        <time>2021-05-26T19:53:53Z</time>
      </trkpt>
      <trkpt lat="41.922969" lon="2.551334">
        <ele>637.559</ele>
        <time>2021-05-26T19:53:54Z</time>
      </trkpt>
      <trkpt lat="41.922897" lon="2.551258">
        <ele>638.203</ele>
        <time>2021-05-26T19:53:59Z</time>
      </trkpt>
      <trkpt lat="41.922801" lon="2.551206">
        <ele>637.023</ele>
        <time>2021-05-26T19:54:04Z</time>
      </trkpt>
      <trkpt lat="41.922712" lon="2.551189">
        <ele>635.508</ele>
        <time>2021-05-26T19:54:08Z</time>
      </trkpt>
      <trkpt lat="41.922622" lon="2.551139">
        <ele>635.572</ele>
        <time>2021-05-26T19:54:13Z</time>
      </trkpt>
      <trkpt lat="41.922536" lon="2.551054">
        <ele>637.999</ele>
        <time>2021-05-26T19:54:18Z</time>
      </trkpt>
      <trkpt lat="41.922460" lon="2.550985">
        <ele>639.986</ele>
        <time>2021-05-26T19:54:21Z</time>
      </trkpt>
      <trkpt lat="41.922367" lon="2.550931">
        <ele>640.740</ele>
        <time>2021-05-26T19:54:25Z</time>
      </trkpt>
      <trkpt lat="41.922265" lon="2.550966">
        <ele>636.475</ele>
        <time>2021-05-26T19:54:30Z</time>
      </trkpt>
      <trkpt lat="41.922172" lon="2.550996">
        <ele>632.985</ele>
        <time>2021-05-26T19:54:35Z</time>
      </trkpt>
      <trkpt lat="41.922069" lon="2.550980">
        <ele>632.181</ele>
        <time>2021-05-26T19:54:40Z</time>
      </trkpt>
      <trkpt lat="41.921973" lon="2.550984">
        <ele>630.416</ele>
        <time>2021-05-26T19:54:44Z</time>
      </trkpt>
      <trkpt lat="41.921872" lon="2.551024">
        <ele>627.838</ele>
        <time>2021-05-26T19:54:48Z</time>
      </trkpt>
      <trkpt lat="41.921759" lon="2.551022">
        <ele>627.570</ele>
        <time>2021-05-26T19:54:53Z</time>
      </trkpt>
      <trkpt lat="41.921669" lon="2.551005">
        <ele>627.817</ele>
        <time>2021-05-26T19:54:57Z</time>
      </trkpt>
      <trkpt lat="41.921568" lon="2.551004">
        <ele>628.308</ele>
        <time>2021-05-26T19:55:02Z</time>
      </trkpt>
      <trkpt lat="41.921464" lon="2.550998">
        <ele>628.930</ele>
        <time>2021-05-26T19:55:09Z</time>
      </trkpt>
      <trkpt lat="41.921364" lon="2.551000">
        <ele>629.897</ele>
        <time>2021-05-26T19:55:14Z</time>
      </trkpt>
      <trkpt lat="41.921276" lon="2.551023">
        <ele>631.564</ele>
        <time>2021-05-26T19:55:19Z</time>
      </trkpt>
      <trkpt lat="41.921177" lon="2.551087">
        <ele>632.758</ele>
        <time>2021-05-26T19:55:25Z</time>
      </trkpt>
      <trkpt lat="41.921101" lon="2.551177">
        <ele>633.783</ele>
        <time>2021-05-26T19:55:31Z</time>
      </trkpt>
      <trkpt lat="41.921007" lon="2.551202">
        <ele>634.743</ele>
        <time>2021-05-26T19:55:35Z</time>
      </trkpt>
      <trkpt lat="41.920897" lon="2.551212">
        <ele>636.159</ele>
        <time>2021-05-26T19:55:40Z</time>
      </trkpt>
      <trkpt lat="41.920801" lon="2.551181">
        <ele>637.744</ele>
        <time>2021-05-26T19:55:44Z</time>
      </trkpt>
      <trkpt lat="41.920705" lon="2.551167">
        <ele>639.249</ele>
        <time>2021-05-26T19:55:49Z</time>
      </trkpt>
      <trkpt lat="41.920618" lon="2.551203">
        <ele>640.102</ele>
        <time>2021-05-26T19:55:55Z</time>
      </trkpt>
      <trkpt lat="41.920618" lon="2.551327">
        <ele>638.822</ele>
        <time>2021-05-26T19:56:02Z</time>
      </trkpt>
      <trkpt lat="41.920688" lon="2.551404">
        <ele>637.108</ele>
        <time>2021-05-26T19:56:09Z</time>
      </trkpt>
      <trkpt lat="41.920768" lon="2.551464">
        <ele>636.471</ele>
        <time>2021-05-26T19:56:16Z</time>
      </trkpt>
      <trkpt lat="41.920864" lon="2.551488">
        <ele>635.438</ele>
        <time>2021-05-26T19:56:24Z</time>
      </trkpt>
      <trkpt lat="41.920966" lon="2.551526">
        <ele>634.865</ele>
        <time>2021-05-26T19:56:35Z</time>
      </trkpt>
      <trkpt lat="41.921058" lon="2.551572">
        <ele>634.469</ele>
        <time>2021-05-26T19:56:42Z</time>
      </trkpt>
      <trkpt lat="41.921149" lon="2.551604">
        <ele>633.714</ele>
        <time>2021-05-26T19:56:49Z</time>
      </trkpt>
      <trkpt lat="41.921190" lon="2.551604">
        <ele>633.184</ele>
        <time>2021-05-26T19:56:51Z</time>
      </trkpt>
      <trkpt lat="41.921244" lon="2.551623">
        <ele>632.520</ele>
        <time>2021-05-26T19:56:56Z</time>
      </trkpt>
      <trkpt lat="41.921351" lon="2.551633">
        <ele>631.015</ele>
        <time>2021-05-26T19:57:04Z</time>
      </trkpt>
      <trkpt lat="41.921373" lon="2.551654">
        <ele>631.078</ele>
        <time>2021-05-26T19:57:05Z</time>
      </trkpt>
      <trkpt lat="41.921449" lon="2.551727">
        <ele>630.233</ele>
        <time>2021-05-26T19:57:12Z</time>
      </trkpt>
      <trkpt lat="41.921499" lon="2.551746">
        <ele>629.126</ele>
        <time>2021-05-26T19:57:15Z</time>
      </trkpt>
      <trkpt lat="41.921521" lon="2.551743">
        <ele>628.408</ele>
        <time>2021-05-26T19:57:16Z</time>
      </trkpt>
      <trkpt lat="41.921615" lon="2.551765">
        <ele>626.254</ele>
        <time>2021-05-26T19:57:20Z</time>
      </trkpt>
      <trkpt lat="41.921701" lon="2.551804">
        <ele>624.311</ele>
        <time>2021-05-26T19:57:24Z</time>
      </trkpt>
      <trkpt lat="41.921800" lon="2.551868">
        <ele>621.778</ele>
        <time>2021-05-26T19:57:27Z</time>
      </trkpt>
      <trkpt lat="41.921873" lon="2.551943">
        <ele>619.842</ele>
        <time>2021-05-26T19:57:30Z</time>
      </trkpt>
      <trkpt lat="41.921950" lon="2.552027">
        <ele>618.327</ele>
        <time>2021-05-26T19:57:34Z</time>
      </trkpt>
      <trkpt lat="41.922024" lon="2.552129">
        <ele>617.927</ele>
        <time>2021-05-26T19:57:38Z</time>
      </trkpt>
      <trkpt lat="41.922062" lon="2.552256">
        <ele>618.793</ele>
        <time>2021-05-26T19:57:44Z</time>
      </trkpt>
      <trkpt lat="41.922101" lon="2.552369">
        <ele>619.018</ele>
        <time>2021-05-26T19:57:51Z</time>
      </trkpt>
      <trkpt lat="41.922215" lon="2.552346">
        <ele>614.663</ele>
        <time>2021-05-26T19:57:56Z</time>
      </trkpt>
      <trkpt lat="41.922307" lon="2.552356">
        <ele>612.344</ele>
        <time>2021-05-26T19:57:59Z</time>
      </trkpt>
      <trkpt lat="41.922396" lon="2.552403">
        <ele>610.618</ele>
        <time>2021-05-26T19:58:02Z</time>
      </trkpt>
      <trkpt lat="41.922495" lon="2.552478">
        <ele>608.908</ele>
        <time>2021-05-26T19:58:05Z</time>
      </trkpt>
      <trkpt lat="41.922562" lon="2.552562">
        <ele>608.423</ele>
        <time>2021-05-26T19:58:09Z</time>
      </trkpt>
      <trkpt lat="41.922609" lon="2.552668">
        <ele>608.990</ele>
        <time>2021-05-26T19:58:14Z</time>
      </trkpt>
      <trkpt lat="41.922681" lon="2.552753">
        <ele>609.097</ele>
        <time>2021-05-26T19:58:18Z</time>
      </trkpt>
      <trkpt lat="41.922749" lon="2.552839">
        <ele>609.631</ele>
        <time>2021-05-26T19:58:22Z</time>
      </trkpt>
      <trkpt lat="41.922818" lon="2.552954">
        <ele>610.766</ele>
        <time>2021-05-26T19:58:26Z</time>
      </trkpt>
      <trkpt lat="41.922870" lon="2.553055">
        <ele>611.336</ele>
        <time>2021-05-26T19:58:31Z</time>
      </trkpt>
      <trkpt lat="41.922886" lon="2.553179">
        <ele>613.222</ele>
        <time>2021-05-26T19:58:42Z</time>
      </trkpt>
      <trkpt lat="41.923023" lon="2.553214">
        <ele>610.587</ele>
        <time>2021-05-26T19:58:48Z</time>
      </trkpt>
      <trkpt lat="41.923122" lon="2.553202">
        <ele>607.892</ele>
        <time>2021-05-26T19:58:52Z</time>
      </trkpt>
      <trkpt lat="41.923217" lon="2.553189">
        <ele>605.173</ele>
        <time>2021-05-26T19:58:55Z</time>
      </trkpt>
      <trkpt lat="41.923325" lon="2.553222">
        <ele>602.420</ele>
        <time>2021-05-26T19:58:59Z</time>
      </trkpt>
      <trkpt lat="41.923426" lon="2.553278">
        <ele>601.608</ele>
        <time>2021-05-26T19:59:05Z</time>
      </trkpt>
      <trkpt lat="41.923517" lon="2.553309">
        <ele>600.876</ele>
        <time>2021-05-26T19:59:09Z</time>
      </trkpt>
      <trkpt lat="41.923607" lon="2.553351">
        <ele>600.513</ele>
        <time>2021-05-26T19:59:14Z</time>
      </trkpt>
      <trkpt lat="41.923704" lon="2.553383">
        <ele>599.530</ele>
        <time>2021-05-26T19:59:21Z</time>
      </trkpt>
      <trkpt lat="41.923781" lon="2.553456">
        <ele>599.864</ele>
        <time>2021-05-26T19:59:26Z</time>
      </trkpt>
      <trkpt lat="41.923866" lon="2.553504">
        <ele>599.149</ele>
        <time>2021-05-26T19:59:33Z</time>
      </trkpt>
      <trkpt lat="41.923968" lon="2.553544">
        <ele>597.289</ele>
        <time>2021-05-26T19:59:36Z</time>
      </trkpt>
      <trkpt lat="41.924058" lon="2.553626">
        <ele>595.915</ele>
        <time>2021-05-26T19:59:40Z</time>
      </trkpt>
      <trkpt lat="41.924127" lon="2.553721">
        <ele>596.190</ele>
        <time>2021-05-26T19:59:44Z</time>
      </trkpt>
      <trkpt lat="41.924215" lon="2.553773">
        <ele>595.595</ele>
        <time>2021-05-26T19:59:47Z</time>
      </trkpt>
      <trkpt lat="41.924332" lon="2.553783">
        <ele>594.249</ele>
        <time>2021-05-26T19:59:50Z</time>
      </trkpt>
      <trkpt lat="41.924414" lon="2.553706">
        <ele>591.423</ele>
        <time>2021-05-26T19:59:54Z</time>
      </trkpt>
      <trkpt lat="41.924386" lon="2.553577">
        <ele>589.308</ele>
        <time>2021-05-26T20:00:00Z</time>
      </trkpt>
      <trkpt lat="41.924338" lon="2.553441">
        <ele>588.316</ele>
        <time>2021-05-26T20:00:06Z</time>
      </trkpt>
      <trkpt lat="41.924285" lon="2.553398">
        <ele>588.453</ele>
        <time>2021-05-26T20:00:09Z</time>
      </trkpt>
      <trkpt lat="41.924266" lon="2.553384">
        <ele>588.530</ele>
        <time>2021-05-26T20:00:10Z</time>
      </trkpt>
      <trkpt lat="41.924245" lon="2.553373">
        <ele>588.634</ele>
        <time>2021-05-26T20:00:11Z</time>
      </trkpt>
      <trkpt lat="41.924156" lon="2.553334">
        <ele>589.229</ele>
        <time>2021-05-26T20:00:15Z</time>
      </trkpt>
      <trkpt lat="41.924052" lon="2.553284">
        <ele>591.449</ele>
        <time>2021-05-26T20:00:19Z</time>
      </trkpt>
      <trkpt lat="41.923965" lon="2.553209">
        <ele>593.015</ele>
        <time>2021-05-26T20:00:24Z</time>
      </trkpt>
      <trkpt lat="41.923949" lon="2.553085">
        <ele>593.090</ele>
        <time>2021-05-26T20:00:33Z</time>
      </trkpt>
      <trkpt lat="41.924044" lon="2.553099">
        <ele>591.396</ele>
        <time>2021-05-26T20:00:43Z</time>
      </trkpt>
      <trkpt lat="41.924142" lon="2.553074">
        <ele>589.531</ele>
        <time>2021-05-26T20:00:49Z</time>
      </trkpt>
      <trkpt lat="41.924248" lon="2.553056">
        <ele>588.724</ele>
        <time>2021-05-26T20:00:55Z</time>
      </trkpt>
      <trkpt lat="41.924345" lon="2.553039">
        <ele>588.608</ele>
        <time>2021-05-26T20:01:00Z</time>
      </trkpt>
      <trkpt lat="41.924435" lon="2.553040">
        <ele>588.376</ele>
        <time>2021-05-26T20:01:04Z</time>
      </trkpt>
      <trkpt lat="41.924529" lon="2.553065">
        <ele>586.483</ele>
        <time>2021-05-26T20:01:08Z</time>
      </trkpt>
      <trkpt lat="41.924621" lon="2.553064">
        <ele>584.880</ele>
        <time>2021-05-26T20:01:13Z</time>
      </trkpt>
      <trkpt lat="41.924718" lon="2.553041">
        <ele>583.454</ele>
        <time>2021-05-26T20:01:17Z</time>
      </trkpt>
      <trkpt lat="41.924815" lon="2.552992">
        <ele>581.939</ele>
        <time>2021-05-26T20:01:22Z</time>
      </trkpt>
      <trkpt lat="41.924931" lon="2.552943">
        <ele>580.319</ele>
        <time>2021-05-26T20:01:26Z</time>
      </trkpt>
      <trkpt lat="41.925028" lon="2.552847">
        <ele>580.885</ele>
        <time>2021-05-26T20:01:30Z</time>
      </trkpt>
      <trkpt lat="41.925132" lon="2.552771">
        <ele>579.130</ele>
        <time>2021-05-26T20:01:33Z</time>
      </trkpt>
      <trkpt lat="41.925219" lon="2.552702">
        <ele>578.687</ele>
        <time>2021-05-26T20:01:37Z</time>
      </trkpt>
      <trkpt lat="41.925310" lon="2.552673">
        <ele>576.242</ele>
        <time>2021-05-26T20:01:43Z</time>
      </trkpt>
      <trkpt lat="41.925392" lon="2.552722">
        <ele>571.026</ele>
        <time>2021-05-26T20:01:48Z</time>
      </trkpt>
      <trkpt lat="41.925490" lon="2.552780">
        <ele>565.408</ele>
        <time>2021-05-26T20:01:54Z</time>
      </trkpt>
      <trkpt lat="41.925585" lon="2.552841">
        <ele>562.945</ele>
        <time>2021-05-26T20:01:57Z</time>
      </trkpt>
      <trkpt lat="41.925677" lon="2.552865">
        <ele>561.632</ele>
        <time>2021-05-26T20:02:00Z</time>
      </trkpt>
      <trkpt lat="41.925769" lon="2.552867">
        <ele>560.049</ele>
        <time>2021-05-26T20:02:06Z</time>
      </trkpt>
      <trkpt lat="41.925859" lon="2.552868">
        <ele>558.973</ele>
        <time>2021-05-26T20:02:11Z</time>
      </trkpt>
      <trkpt lat="41.925962" lon="2.552835">
        <ele>558.178</ele>
        <time>2021-05-26T20:02:15Z</time>
      </trkpt>
      <trkpt lat="41.926060" lon="2.552817">
        <ele>557.558</ele>
        <time>2021-05-26T20:02:19Z</time>
      </trkpt>
      <trkpt lat="41.926147" lon="2.552751">
        <ele>556.534</ele>
        <time>2021-05-26T20:02:23Z</time>
      </trkpt>
      <trkpt lat="41.926242" lon="2.552692">
        <ele>555.459</ele>
        <time>2021-05-26T20:02:28Z</time>
      </trkpt>
      <trkpt lat="41.926335" lon="2.552638">
        <ele>554.527</ele>
        <time>2021-05-26T20:02:33Z</time>
      </trkpt>
      <trkpt lat="41.926431" lon="2.552624">
        <ele>553.068</ele>
        <time>2021-05-26T20:02:38Z</time>
      </trkpt>
      <trkpt lat="41.926526" lon="2.552596">
        <ele>551.814</ele>
        <time>2021-05-26T20:02:43Z</time>
      </trkpt>
      <trkpt lat="41.926616" lon="2.552610">
        <ele>549.908</ele>
        <time>2021-05-26T20:02:47Z</time>
      </trkpt>
      <trkpt lat="41.926716" lon="2.552625">
        <ele>548.499</ele>
        <time>2021-05-26T20:02:52Z</time>
      </trkpt>
      <trkpt lat="41.926820" lon="2.552596">
        <ele>548.026</ele>
        <time>2021-05-26T20:02:57Z</time>
      </trkpt>
      <trkpt lat="41.926925" lon="2.552586">
        <ele>547.223</ele>
        <time>2021-05-26T20:03:01Z</time>
      </trkpt>
      <trkpt lat="41.927027" lon="2.552572">
        <ele>546.817</ele>
        <time>2021-05-26T20:03:06Z</time>
      </trkpt>
      <trkpt lat="41.927130" lon="2.552539">
        <ele>546.832</ele>
        <time>2021-05-26T20:03:10Z</time>
      </trkpt>
      <trkpt lat="41.927241" lon="2.552494">
        <ele>546.942</ele>
        <time>2021-05-26T20:03:14Z</time>
      </trkpt>
      <trkpt lat="41.927318" lon="2.552407">
        <ele>546.918</ele>
        <time>2021-05-26T20:03:18Z</time>
      </trkpt>
      <trkpt lat="41.927319" lon="2.552285">
        <ele>548.023</ele>
        <time>2021-05-26T20:03:24Z</time>
      </trkpt>
      <trkpt lat="41.927266" lon="2.552175">
        <ele>549.621</ele>
        <time>2021-05-26T20:03:29Z</time>
      </trkpt>
      <trkpt lat="41.927231" lon="2.552062">
        <ele>550.541</ele>
        <time>2021-05-26T20:03:34Z</time>
      </trkpt>
      <trkpt lat="41.927211" lon="2.551936">
        <ele>551.305</ele>
        <time>2021-05-26T20:03:41Z</time>
      </trkpt>
      <trkpt lat="41.927247" lon="2.551933">
        <ele>550.908</ele>
        <time>2021-05-26T20:03:47Z</time>
      </trkpt>
      <trkpt lat="41.927346" lon="2.551988">
        <ele>549.849</ele>
        <time>2021-05-26T20:03:55Z</time>
      </trkpt>
      <trkpt lat="41.927431" lon="2.552063">
        <ele>548.486</ele>
        <time>2021-05-26T20:04:01Z</time>
      </trkpt>
      <trkpt lat="41.927518" lon="2.552148">
        <ele>546.793</ele>
        <time>2021-05-26T20:04:07Z</time>
      </trkpt>
      <trkpt lat="41.927615" lon="2.552184">
        <ele>545.677</ele>
        <time>2021-05-26T20:04:11Z</time>
      </trkpt>
      <trkpt lat="41.927685" lon="2.552267">
        <ele>544.132</ele>
        <time>2021-05-26T20:04:18Z</time>
      </trkpt>
      <trkpt lat="41.927746" lon="2.552358">
        <ele>542.462</ele>
        <time>2021-05-26T20:04:22Z</time>
      </trkpt>
      <trkpt lat="41.927834" lon="2.552443">
        <ele>540.598</ele>
        <time>2021-05-26T20:04:26Z</time>
      </trkpt>
      <trkpt lat="41.927893" lon="2.552537">
        <ele>538.723</ele>
        <time>2021-05-26T20:04:30Z</time>
      </trkpt>
      <trkpt lat="41.927962" lon="2.552631">
        <ele>536.694</ele>
        <time>2021-05-26T20:04:34Z</time>
      </trkpt>
      <trkpt lat="41.928035" lon="2.552710">
        <ele>534.557</ele>
        <time>2021-05-26T20:04:38Z</time>
      </trkpt>
      <trkpt lat="41.928126" lon="2.552759">
        <ele>533.322</ele>
        <time>2021-05-26T20:04:45Z</time>
      </trkpt>
      <trkpt lat="41.928220" lon="2.552815">
        <ele>532.808</ele>
        <time>2021-05-26T20:04:51Z</time>
      </trkpt>
      <trkpt lat="41.928308" lon="2.552862">
        <ele>532.426</ele>
        <time>2021-05-26T20:04:56Z</time>
      </trkpt>
      <trkpt lat="41.928401" lon="2.552905">
        <ele>532.343</ele>
        <time>2021-05-26T20:05:00Z</time>
      </trkpt>
      <trkpt lat="41.928496" lon="2.552923">
        <ele>532.560</ele>
        <time>2021-05-26T20:05:04Z</time>
      </trkpt>
      <trkpt lat="41.928593" lon="2.552975">
        <ele>532.134</ele>
        <time>2021-05-26T20:05:09Z</time>
      </trkpt>
      <trkpt lat="41.928676" lon="2.553043">
        <ele>531.229</ele>
        <time>2021-05-26T20:05:13Z</time>
      </trkpt>
      <trkpt lat="41.928765" lon="2.553108">
        <ele>530.479</ele>
        <time>2021-05-26T20:05:18Z</time>
      </trkpt>
      <trkpt lat="41.928855" lon="2.553142">
        <ele>529.695</ele>
        <time>2021-05-26T20:05:23Z</time>
      </trkpt>
      <trkpt lat="41.928976" lon="2.553185">
        <ele>527.990</ele>
        <time>2021-05-26T20:05:27Z</time>
      </trkpt>
      <trkpt lat="41.929083" lon="2.553190">
        <ele>526.992</ele>
        <time>2021-05-26T20:05:31Z</time>
      </trkpt>
      <trkpt lat="41.929184" lon="2.553211">
        <ele>525.373</ele>
        <time>2021-05-26T20:05:35Z</time>
      </trkpt>
      <trkpt lat="41.929285" lon="2.553230">
        <ele>524.320</ele>
        <time>2021-05-26T20:05:41Z</time>
      </trkpt>
      <trkpt lat="41.929379" lon="2.553272">
        <ele>522.408</ele>
        <time>2021-05-26T20:05:47Z</time>
      </trkpt>
      <trkpt lat="41.929484" lon="2.553302">
        <ele>521.186</ele>
        <time>2021-05-26T20:05:52Z</time>
      </trkpt>
      <trkpt lat="41.929578" lon="2.553327">
        <ele>520.253</ele>
        <time>2021-05-26T20:05:56Z</time>
      </trkpt>
      <trkpt lat="41.929667" lon="2.553358">
        <ele>519.510</ele>
        <time>2021-05-26T20:05:59Z</time>
      </trkpt>
      <trkpt lat="41.929762" lon="2.553385">
        <ele>518.544</ele>
        <time>2021-05-26T20:06:03Z</time>
      </trkpt>
      <trkpt lat="41.929857" lon="2.553417">
        <ele>516.749</ele>
        <time>2021-05-26T20:06:05Z</time>
      </trkpt>
      <trkpt lat="41.929948" lon="2.553468">
        <ele>514.799</ele>
        <time>2021-05-26T20:06:09Z</time>
      </trkpt>
      <trkpt lat="41.930053" lon="2.553509">
        <ele>512.685</ele>
        <time>2021-05-26T20:06:14Z</time>
      </trkpt>
      <trkpt lat="41.930153" lon="2.553498">
        <ele>511.670</ele>
        <time>2021-05-26T20:06:19Z</time>
      </trkpt>
      <trkpt lat="41.930246" lon="2.553474">
        <ele>510.934</ele>
        <time>2021-05-26T20:06:24Z</time>
      </trkpt>
      <trkpt lat="41.930339" lon="2.553458">
        <ele>510.355</ele>
        <time>2021-05-26T20:06:28Z</time>
      </trkpt>
      <trkpt lat="41.930454" lon="2.553416">
        <ele>510.010</ele>
        <time>2021-05-26T20:06:33Z</time>
      </trkpt>
      <trkpt lat="41.930538" lon="2.553461">
        <ele>508.808</ele>
        <time>2021-05-26T20:06:36Z</time>
      </trkpt>
      <trkpt lat="41.930625" lon="2.553536">
        <ele>506.990</ele>
        <time>2021-05-26T20:06:41Z</time>
      </trkpt>
      <trkpt lat="41.930694" lon="2.553618">
        <ele>504.997</ele>
        <time>2021-05-26T20:06:45Z</time>
      </trkpt>
      <trkpt lat="41.930657" lon="2.553737">
        <ele>504.044</ele>
        <time>2021-05-26T20:06:52Z</time>
      </trkpt>
      <trkpt lat="41.930559" lon="2.553786">
        <ele>505.178</ele>
        <time>2021-05-26T20:06:57Z</time>
      </trkpt>
      <trkpt lat="41.930461" lon="2.553805">
        <ele>505.713</ele>
        <time>2021-05-26T20:07:01Z</time>
      </trkpt>
      <trkpt lat="41.930360" lon="2.553823">
        <ele>506.543</ele>
        <time>2021-05-26T20:07:06Z</time>
      </trkpt>
      <trkpt lat="41.930264" lon="2.553846">
        <ele>507.329</ele>
        <time>2021-05-26T20:07:12Z</time>
      </trkpt>
      <trkpt lat="41.930184" lon="2.553926">
        <ele>508.764</ele>
        <time>2021-05-26T20:07:17Z</time>
      </trkpt>
      <trkpt lat="41.930175" lon="2.554048">
        <ele>509.964</ele>
        <time>2021-05-26T20:07:23Z</time>
      </trkpt>
      <trkpt lat="41.930251" lon="2.554118">
        <ele>508.506</ele>
        <time>2021-05-26T20:07:31Z</time>
      </trkpt>
      <trkpt lat="41.930343" lon="2.554179">
        <ele>507.616</ele>
        <time>2021-05-26T20:07:39Z</time>
      </trkpt>
      <trkpt lat="41.930417" lon="2.554253">
        <ele>508.708</ele>
        <time>2021-05-26T20:07:48Z</time>
      </trkpt>
      <trkpt lat="41.930520" lon="2.554274">
        <ele>508.183</ele>
        <time>2021-05-26T20:07:55Z</time>
      </trkpt>
      <trkpt lat="41.930604" lon="2.554180">
        <ele>504.560</ele>
        <time>2021-05-26T20:08:03Z</time>
      </trkpt>
      <trkpt lat="41.930691" lon="2.554135">
        <ele>502.467</ele>
        <time>2021-05-26T20:08:07Z</time>
      </trkpt>
      <trkpt lat="41.930766" lon="2.554058">
        <ele>500.851</ele>
        <time>2021-05-26T20:08:11Z</time>
      </trkpt>
      <trkpt lat="41.930840" lon="2.553981">
        <ele>499.226</ele>
        <time>2021-05-26T20:08:16Z</time>
      </trkpt>
      <trkpt lat="41.930930" lon="2.553971">
        <ele>497.666</ele>
        <time>2021-05-26T20:08:20Z</time>
      </trkpt>
      <trkpt lat="41.931023" lon="2.553977">
        <ele>495.922</ele>
        <time>2021-05-26T20:08:24Z</time>
      </trkpt>
      <trkpt lat="41.931127" lon="2.553989">
        <ele>494.357</ele>
        <time>2021-05-26T20:08:28Z</time>
      </trkpt>
      <trkpt lat="41.931224" lon="2.554034">
        <ele>493.922</ele>
        <time>2021-05-26T20:08:32Z</time>
      </trkpt>
      <trkpt lat="41.931306" lon="2.554118">
        <ele>493.562</ele>
        <time>2021-05-26T20:08:37Z</time>
      </trkpt>
      <trkpt lat="41.931375" lon="2.554218">
        <ele>493.708</ele>
        <time>2021-05-26T20:08:41Z</time>
      </trkpt>
      <trkpt lat="41.931450" lon="2.554287">
        <ele>493.608</ele>
        <time>2021-05-26T20:08:45Z</time>
      </trkpt>
      <trkpt lat="41.931542" lon="2.554356">
        <ele>492.839</ele>
        <time>2021-05-26T20:08:49Z</time>
      </trkpt>
      <trkpt lat="41.931609" lon="2.554437">
        <ele>492.056</ele>
        <time>2021-05-26T20:08:53Z</time>
      </trkpt>
      <trkpt lat="41.931688" lon="2.554506">
        <ele>491.873</ele>
        <time>2021-05-26T20:08:57Z</time>
      </trkpt>
      <trkpt lat="41.931765" lon="2.554584">
        <ele>491.787</ele>
        <time>2021-05-26T20:09:01Z</time>
      </trkpt>
      <trkpt lat="41.931866" lon="2.554584">
        <ele>489.972</ele>
        <time>2021-05-26T20:09:06Z</time>
      </trkpt>
      <trkpt lat="41.931946" lon="2.554652">
        <ele>489.232</ele>
        <time>2021-05-26T20:09:13Z</time>
      </trkpt>
      <trkpt lat="41.932039" lon="2.554688">
        <ele>487.348</ele>
        <time>2021-05-26T20:09:21Z</time>
      </trkpt>
      <trkpt lat="41.932123" lon="2.554745">
        <ele>486.193</ele>
        <time>2021-05-26T20:09:26Z</time>
      </trkpt>
      <trkpt lat="41.932218" lon="2.554800">
        <ele>484.849</ele>
        <time>2021-05-26T20:09:32Z</time>
      </trkpt>
      <trkpt lat="41.932274" lon="2.554912">
        <ele>485.702</ele>
        <time>2021-05-26T20:09:40Z</time>
      </trkpt>
      <trkpt lat="41.932344" lon="2.555013">
        <ele>485.922</ele>
        <time>2021-05-26T20:09:51Z</time>
      </trkpt>
      <trkpt lat="41.932375" lon="2.555130">
        <ele>488.308</ele>
        <time>2021-05-26T20:10:00Z</time>
      </trkpt>
      <trkpt lat="41.932449" lon="2.555240">
        <ele>488.811</ele>
        <time>2021-05-26T20:10:06Z</time>
      </trkpt>
      <trkpt lat="41.932527" lon="2.555320">
        <ele>488.668</ele>
        <time>2021-05-26T20:10:12Z</time>
      </trkpt>
      <trkpt lat="41.932609" lon="2.555377">
        <ele>488.065</ele>
        <time>2021-05-26T20:10:18Z</time>
      </trkpt>
      <trkpt lat="41.932702" lon="2.555411">
        <ele>486.349</ele>
        <time>2021-05-26T20:10:25Z</time>
      </trkpt>
      <trkpt lat="41.932786" lon="2.555456">
        <ele>485.364</ele>
        <time>2021-05-26T20:10:37Z</time>
      </trkpt>
      <trkpt lat="41.932860" lon="2.555545">
        <ele>487.214</ele>
        <time>2021-05-26T20:10:47Z</time>
      </trkpt>
      <trkpt lat="41.932939" lon="2.555605">
        <ele>488.430</ele>
        <time>2021-05-26T20:11:00Z</time>
      </trkpt>
      <trkpt lat="41.933023" lon="2.555657">
        <ele>489.665</ele>
        <time>2021-05-26T20:11:07Z</time>
      </trkpt>
      <trkpt lat="41.933115" lon="2.555714">
        <ele>491.038</ele>
        <time>2021-05-26T20:11:13Z</time>
      </trkpt>
      <trkpt lat="41.933198" lon="2.555766">
        <ele>491.970</ele>
        <time>2021-05-26T20:11:20Z</time>
      </trkpt>
      <trkpt lat="41.933292" lon="2.555797">
        <ele>491.417</ele>
        <time>2021-05-26T20:11:28Z</time>
      </trkpt>
      <trkpt lat="41.933338" lon="2.555792">
        <ele>490.308</ele>
        <time>2021-05-26T20:11:32Z</time>
      </trkpt>
      <trkpt lat="41.933362" lon="2.555806">
        <ele>490.650</ele>
        <time>2021-05-26T20:11:34Z</time>
      </trkpt>
      <trkpt lat="41.933386" lon="2.555823">
        <ele>491.027</ele>
        <time>2021-05-26T20:11:36Z</time>
      </trkpt>
      <trkpt lat="41.933417" lon="2.555841">
        <ele>491.514</ele>
        <time>2021-05-26T20:11:38Z</time>
      </trkpt>
      <trkpt lat="41.933502" lon="2.555895">
        <ele>493.298</ele>
        <time>2021-05-26T20:11:45Z</time>
      </trkpt>
      <trkpt lat="41.933588" lon="2.555945">
        <ele>494.533</ele>
        <time>2021-05-26T20:11:54Z</time>
      </trkpt>
      <trkpt lat="41.933668" lon="2.556014">
        <ele>495.633</ele>
        <time>2021-05-26T20:12:04Z</time>
      </trkpt>
      <trkpt lat="41.933715" lon="2.556129">
        <ele>499.439</ele>
        <time>2021-05-26T20:12:19Z</time>
      </trkpt>
      <trkpt lat="41.933783" lon="2.556225">
        <ele>501.144</ele>
        <time>2021-05-26T20:12:27Z</time>
      </trkpt>
      <trkpt lat="41.933843" lon="2.556321">
        <ele>502.939</ele>
        <time>2021-05-26T20:12:37Z</time>
      </trkpt>
      <trkpt lat="41.933934" lon="2.556385">
        <ele>501.301</ele>
        <time>2021-05-26T20:12:44Z</time>
      </trkpt>
      <trkpt lat="41.934037" lon="2.556424">
        <ele>496.021</ele>
        <time>2021-05-26T20:12:51Z</time>
      </trkpt>
      <trkpt lat="41.934130" lon="2.556454">
        <ele>491.108</ele>
        <time>2021-05-26T20:12:58Z</time>
      </trkpt>
      <trkpt lat="41.934177" lon="2.556471">
        <ele>488.640</ele>
        <time>2021-05-26T20:13:01Z</time>
      </trkpt>
      <trkpt lat="41.934193" lon="2.556482">
        <ele>487.937</ele>
        <time>2021-05-26T20:13:02Z</time>
      </trkpt>
      <trkpt lat="41.934212" lon="2.556502">
        <ele>487.214</ele>
        <time>2021-05-26T20:13:04Z</time>
      </trkpt>
      <trkpt lat="41.934231" lon="2.556527">
        <ele>486.658</ele>
        <time>2021-05-26T20:13:06Z</time>
      </trkpt>
      <trkpt lat="41.934250" lon="2.556554">
        <ele>486.213</ele>
        <time>2021-05-26T20:13:08Z</time>
      </trkpt>
      <trkpt lat="41.934263" lon="2.556582">
        <ele>486.153</ele>
        <time>2021-05-26T20:13:10Z</time>
      </trkpt>
      <trkpt lat="41.934270" lon="2.556620">
        <ele>486.639</ele>
        <time>2021-05-26T20:13:13Z</time>
      </trkpt>
      <trkpt lat="41.934266" lon="2.556646">
        <ele>487.384</ele>
        <time>2021-05-26T20:13:15Z</time>
      </trkpt>
      <trkpt lat="41.934262" lon="2.556774">
        <ele>490.148</ele>
        <time>2021-05-26T20:13:23Z</time>
      </trkpt>
      <trkpt lat="41.934268" lon="2.556902">
        <ele>492.561</ele>
        <time>2021-05-26T20:13:29Z</time>
      </trkpt>
      <trkpt lat="41.934266" lon="2.557027">
        <ele>494.017</ele>
        <time>2021-05-26T20:13:37Z</time>
      </trkpt>
      <trkpt lat="41.934213" lon="2.557127">
        <ele>496.308</ele>
        <time>2021-05-26T20:13:41Z</time>
      </trkpt>
      <trkpt lat="41.934157" lon="2.557230">
        <ele>498.761</ele>
        <time>2021-05-26T20:13:45Z</time>
      </trkpt>
      <trkpt lat="41.934135" lon="2.557356">
        <ele>502.058</ele>
        <time>2021-05-26T20:13:51Z</time>
      </trkpt>
      <trkpt lat="41.934086" lon="2.557469">
        <ele>506.165</ele>
        <time>2021-05-26T20:13:59Z</time>
      </trkpt>
      <trkpt lat="41.934072" lon="2.557600">
        <ele>509.169</ele>
        <time>2021-05-26T20:14:06Z</time>
      </trkpt>
      <trkpt lat="41.934167" lon="2.557613">
        <ele>505.854</ele>
        <time>2021-05-26T20:14:13Z</time>
      </trkpt>
      <trkpt lat="41.934274" lon="2.557615">
        <ele>504.564</ele>
        <time>2021-05-26T20:14:21Z</time>
      </trkpt>
      <trkpt lat="41.934363" lon="2.557595">
        <ele>502.630</ele>
        <time>2021-05-26T20:14:29Z</time>
      </trkpt>
      <trkpt lat="41.934439" lon="2.557521">
        <ele>498.145</ele>
        <time>2021-05-26T20:14:37Z</time>
      </trkpt>
      <trkpt lat="41.934540" lon="2.557474">
        <ele>496.321</ele>
        <time>2021-05-26T20:14:44Z</time>
      </trkpt>
      <trkpt lat="41.934623" lon="2.557428">
        <ele>494.941</ele>
        <time>2021-05-26T20:14:52Z</time>
      </trkpt>
      <trkpt lat="41.934710" lon="2.557391">
        <ele>493.505</ele>
        <time>2021-05-26T20:14:57Z</time>
      </trkpt>
      <trkpt lat="41.934805" lon="2.557345">
        <ele>492.208</ele>
        <time>2021-05-26T20:15:03Z</time>
      </trkpt>
      <trkpt lat="41.934898" lon="2.557283">
        <ele>490.289</ele>
        <time>2021-05-26T20:15:09Z</time>
      </trkpt>
      <trkpt lat="41.934976" lon="2.557214">
        <ele>487.756</ele>
        <time>2021-05-26T20:15:17Z</time>
      </trkpt>
      <trkpt lat="41.935061" lon="2.557163">
        <ele>486.593</ele>
        <time>2021-05-26T20:15:25Z</time>
      </trkpt>
      <trkpt lat="41.935149" lon="2.557131">
        <ele>485.987</ele>
        <time>2021-05-26T20:15:31Z</time>
      </trkpt>
      <trkpt lat="41.935244" lon="2.557128">
        <ele>486.412</ele>
        <time>2021-05-26T20:15:39Z</time>
      </trkpt>
      <trkpt lat="41.935277" lon="2.557140">
        <ele>487.052</ele>
        <time>2021-05-26T20:15:42Z</time>
      </trkpt>
      <trkpt lat="41.935306" lon="2.557154">
        <ele>487.448</ele>
        <time>2021-05-26T20:15:44Z</time>
      </trkpt>
      <trkpt lat="41.935325" lon="2.557159">
        <ele>487.633</ele>
        <time>2021-05-26T20:15:46Z</time>
      </trkpt>
      <trkpt lat="41.935349" lon="2.557165">
        <ele>487.792</ele>
        <time>2021-05-26T20:15:48Z</time>
      </trkpt>
      <trkpt lat="41.935377" lon="2.557169">
        <ele>487.773</ele>
        <time>2021-05-26T20:15:52Z</time>
      </trkpt>
      <trkpt lat="41.935399" lon="2.557178">
        <ele>488.020</ele>
        <time>2021-05-26T20:15:53Z</time>
      </trkpt>
      <trkpt lat="41.935427" lon="2.557186">
        <ele>488.208</ele>
        <time>2021-05-26T20:15:55Z</time>
      </trkpt>
      <trkpt lat="41.935478" lon="2.557191">
        <ele>488.256</ele>
        <time>2021-05-26T20:15:59Z</time>
      </trkpt>
      <trkpt lat="41.935567" lon="2.557205">
        <ele>488.223</ele>
        <time>2021-05-26T20:16:06Z</time>
      </trkpt>
      <trkpt lat="41.935633" lon="2.557222">
        <ele>487.990</ele>
        <time>2021-05-26T20:16:11Z</time>
      </trkpt>
      <trkpt lat="41.935725" lon="2.557238">
        <ele>487.094</ele>
        <time>2021-05-26T20:16:17Z</time>
      </trkpt>
      <trkpt lat="41.935827" lon="2.557254">
        <ele>486.079</ele>
        <time>2021-05-26T20:16:25Z</time>
      </trkpt>
      <trkpt lat="41.935924" lon="2.557255">
        <ele>484.769</ele>
        <time>2021-05-26T20:16:33Z</time>
      </trkpt>
      <trkpt lat="41.936012" lon="2.557260">
        <ele>483.745</ele>
        <time>2021-05-26T20:16:39Z</time>
      </trkpt>
      <trkpt lat="41.936106" lon="2.557246">
        <ele>481.930</ele>
        <time>2021-05-26T20:16:45Z</time>
      </trkpt>
      <trkpt lat="41.936131" lon="2.557240">
        <ele>481.511</ele>
        <time>2021-05-26T20:16:47Z</time>
      </trkpt>
      <trkpt lat="41.936160" lon="2.557234">
        <ele>481.121</ele>
        <time>2021-05-26T20:16:48Z</time>
      </trkpt>
      <trkpt lat="41.936225" lon="2.557220">
        <ele>480.103</ele>
        <time>2021-05-26T20:16:53Z</time>
      </trkpt>
      <trkpt lat="41.936250" lon="2.557213">
        <ele>479.808</ele>
        <time>2021-05-26T20:16:55Z</time>
      </trkpt>
      <trkpt lat="41.936297" lon="2.557202">
        <ele>479.298</ele>
        <time>2021-05-26T20:17:00Z</time>
      </trkpt>
      <trkpt lat="41.936325" lon="2.557199">
        <ele>478.965</ele>
        <time>2021-05-26T20:17:01Z</time>
      </trkpt>
      <trkpt lat="41.936357" lon="2.557203">
        <ele>478.772</ele>
        <time>2021-05-26T20:17:03Z</time>
      </trkpt>
      <trkpt lat="41.936384" lon="2.557205">
        <ele>478.616</ele>
        <time>2021-05-26T20:17:05Z</time>
      </trkpt>
      <trkpt lat="41.936478" lon="2.557199">
        <ele>478.451</ele>
        <time>2021-05-26T20:17:12Z</time>
      </trkpt>
      <trkpt lat="41.936510" lon="2.557201">
        <ele>478.481</ele>
        <time>2021-05-26T20:17:14Z</time>
      </trkpt>
      <trkpt lat="41.936536" lon="2.557202">
        <ele>478.437</ele>
        <time>2021-05-26T20:17:16Z</time>
      </trkpt>
      <trkpt lat="41.936559" lon="2.557200">
        <ele>478.372</ele>
        <time>2021-05-26T20:17:18Z</time>
      </trkpt>
      <trkpt lat="41.936637" lon="2.557210">
        <ele>478.642</ele>
        <time>2021-05-26T20:17:24Z</time>
      </trkpt>
      <trkpt lat="41.936658" lon="2.557208">
        <ele>478.522</ele>
        <time>2021-05-26T20:17:27Z</time>
      </trkpt>
      <trkpt lat="41.936691" lon="2.557212">
        <ele>478.714</ele>
        <time>2021-05-26T20:17:29Z</time>
      </trkpt>
      <trkpt lat="41.936713" lon="2.557215">
        <ele>478.808</ele>
        <time>2021-05-26T20:17:31Z</time>
      </trkpt>
      <trkpt lat="41.936740" lon="2.557219">
        <ele>478.911</ele>
        <time>2021-05-26T20:17:34Z</time>
      </trkpt>
      <trkpt lat="41.936766" lon="2.557226">
        <ele>479.238</ele>
        <time>2021-05-26T20:17:35Z</time>
      </trkpt>
      <trkpt lat="41.936789" lon="2.557229">
        <ele>479.345</ele>
        <time>2021-05-26T20:17:38Z</time>
      </trkpt>
      <trkpt lat="41.936816" lon="2.557231">
        <ele>479.419</ele>
        <time>2021-05-26T20:17:39Z</time>
      </trkpt>
      <trkpt lat="41.936871" lon="2.557212">
        <ele>478.614</ele>
        <time>2021-05-26T20:17:44Z</time>
      </trkpt>
      <trkpt lat="41.936906" lon="2.557209">
        <ele>478.514</ele>
        <time>2021-05-26T20:17:46Z</time>
      </trkpt>
      <trkpt lat="41.936948" lon="2.557204">
        <ele>478.360</ele>
        <time>2021-05-26T20:17:49Z</time>
      </trkpt>
      <trkpt lat="41.936975" lon="2.557195">
        <ele>478.355</ele>
        <time>2021-05-26T20:17:51Z</time>
      </trkpt>
      <trkpt lat="41.937004" lon="2.557187">
        <ele>478.488</ele>
        <time>2021-05-26T20:17:53Z</time>
      </trkpt>
      <trkpt lat="41.937032" lon="2.557176">
        <ele>478.324</ele>
        <time>2021-05-26T20:17:55Z</time>
      </trkpt>
      <trkpt lat="41.937060" lon="2.557165">
        <ele>478.126</ele>
        <time>2021-05-26T20:17:57Z</time>
      </trkpt>
      <trkpt lat="41.937088" lon="2.557155">
        <ele>478.008</ele>
        <time>2021-05-26T20:17:59Z</time>
      </trkpt>
      <trkpt lat="41.937112" lon="2.557141">
        <ele>477.725</ele>
        <time>2021-05-26T20:18:01Z</time>
      </trkpt>
      <trkpt lat="41.937136" lon="2.557135">
        <ele>477.712</ele>
        <time>2021-05-26T20:18:03Z</time>
      </trkpt>
      <trkpt lat="41.937161" lon="2.557127">
        <ele>477.599</ele>
        <time>2021-05-26T20:18:05Z</time>
      </trkpt>
      <trkpt lat="41.937186" lon="2.557121">
        <ele>477.553</ele>
        <time>2021-05-26T20:18:07Z</time>
      </trkpt>
      <trkpt lat="41.937205" lon="2.557113">
        <ele>477.328</ele>
        <time>2021-05-26T20:18:09Z</time>
      </trkpt>
      <trkpt lat="41.937225" lon="2.557110">
        <ele>477.488</ele>
        <time>2021-05-26T20:18:11Z</time>
      </trkpt>
      <trkpt lat="41.937256" lon="2.557098">
        <ele>477.244</ele>
        <time>2021-05-26T20:18:13Z</time>
      </trkpt>
      <trkpt lat="41.937273" lon="2.557070">
        <ele>476.069</ele>
        <time>2021-05-26T20:18:15Z</time>
      </trkpt>
      <trkpt lat="41.937269" lon="2.557038">
        <ele>474.379</ele>
        <time>2021-05-26T20:18:17Z</time>
      </trkpt>
      <trkpt lat="41.937249" lon="2.557021">
        <ele>473.205</ele>
        <time>2021-05-26T20:18:19Z</time>
      </trkpt>
      <trkpt lat="41.937224" lon="2.557012">
        <ele>472.425</ele>
        <time>2021-05-26T20:18:21Z</time>
      </trkpt>
      <trkpt lat="41.937200" lon="2.557011">
        <ele>472.208</ele>
        <time>2021-05-26T20:18:23Z</time>
      </trkpt>
      <trkpt lat="41.937170" lon="2.557002">
        <ele>471.634</ele>
        <time>2021-05-26T20:18:28Z</time>
      </trkpt>
      <trkpt lat="41.937139" lon="2.556999">
        <ele>471.381</ele>
        <time>2021-05-26T20:18:30Z</time>
      </trkpt>
      <trkpt lat="41.937109" lon="2.556997">
        <ele>471.028</ele>
        <time>2021-05-26T20:18:32Z</time>
      </trkpt>
      <trkpt lat="41.937085" lon="2.556995">
        <ele>470.892</ele>
        <time>2021-05-26T20:18:34Z</time>
      </trkpt>
      <trkpt lat="41.937058" lon="2.556988">
        <ele>470.337</ele>
        <time>2021-05-26T20:18:36Z</time>
      </trkpt>
      <trkpt lat="41.937038" lon="2.556981">
        <ele>469.947</ele>
        <time>2021-05-26T20:18:38Z</time>
      </trkpt>
      <trkpt lat="41.937020" lon="2.556973">
        <ele>469.533</ele>
        <time>2021-05-26T20:18:40Z</time>
      </trkpt>
      <trkpt lat="41.936996" lon="2.556968">
        <ele>469.288</ele>
        <time>2021-05-26T20:18:42Z</time>
      </trkpt>
      <trkpt lat="41.936969" lon="2.556962">
        <ele>468.898</ele>
        <time>2021-05-26T20:18:44Z</time>
      </trkpt>
      <trkpt lat="41.936941" lon="2.556953">
        <ele>468.415</ele>
        <time>2021-05-26T20:18:46Z</time>
      </trkpt>
      <trkpt lat="41.936912" lon="2.556949">
        <ele>468.426</ele>
        <time>2021-05-26T20:18:48Z</time>
      </trkpt>
      <trkpt lat="41.936885" lon="2.556943">
        <ele>468.408</ele>
        <time>2021-05-26T20:18:50Z</time>
      </trkpt>
      <trkpt lat="41.936864" lon="2.556933">
        <ele>468.116</ele>
        <time>2021-05-26T20:18:52Z</time>
      </trkpt>
      <trkpt lat="41.936843" lon="2.556928">
        <ele>468.113</ele>
        <time>2021-05-26T20:18:54Z</time>
      </trkpt>
      <trkpt lat="41.936822" lon="2.556930">
        <ele>468.350</ele>
        <time>2021-05-26T20:18:56Z</time>
      </trkpt>
      <trkpt lat="41.936803" lon="2.556928">
        <ele>468.474</ele>
        <time>2021-05-26T20:18:58Z</time>
      </trkpt>
      <trkpt lat="41.936781" lon="2.556924">
        <ele>468.469</ele>
        <time>2021-05-26T20:19:00Z</time>
      </trkpt>
      <trkpt lat="41.936759" lon="2.556914">
        <ele>468.249</ele>
        <time>2021-05-26T20:19:02Z</time>
      </trkpt>
      <trkpt lat="41.936732" lon="2.556909">
        <ele>468.215</ele>
        <time>2021-05-26T20:19:04Z</time>
      </trkpt>
      <trkpt lat="41.936705" lon="2.556907">
        <ele>468.410</ele>
        <time>2021-05-26T20:19:06Z</time>
      </trkpt>
      <trkpt lat="41.936683" lon="2.556903">
        <ele>468.419</ele>
        <time>2021-05-26T20:19:08Z</time>
      </trkpt>
      <trkpt lat="41.936662" lon="2.556894">
        <ele>468.209</ele>
        <time>2021-05-26T20:19:10Z</time>
      </trkpt>
      <trkpt lat="41.936641" lon="2.556887">
        <ele>468.119</ele>
        <time>2021-05-26T20:19:12Z</time>
      </trkpt>
      <trkpt lat="41.936623" lon="2.556876">
        <ele>467.808</ele>
        <time>2021-05-26T20:19:17Z</time>
      </trkpt>
      <trkpt lat="41.936598" lon="2.556869">
        <ele>467.798</ele>
        <time>2021-05-26T20:19:21Z</time>
      </trkpt>
      <trkpt lat="41.936574" lon="2.556856">
        <ele>467.455</ele>
        <time>2021-05-26T20:19:23Z</time>
      </trkpt>
      <trkpt lat="41.936548" lon="2.556846">
        <ele>467.242</ele>
        <time>2021-05-26T20:19:24Z</time>
      </trkpt>
      <trkpt lat="41.936522" lon="2.556845">
        <ele>467.386</ele>
        <time>2021-05-26T20:19:26Z</time>
      </trkpt>
      <trkpt lat="41.936497" lon="2.556842">
        <ele>467.311</ele>
        <time>2021-05-26T20:19:29Z</time>
      </trkpt>
      <trkpt lat="41.936474" lon="2.556836">
        <ele>467.271</ele>
        <time>2021-05-26T20:19:31Z</time>
      </trkpt>
      <trkpt lat="41.936452" lon="2.556821">
        <ele>466.817</ele>
        <time>2021-05-26T20:19:33Z</time>
      </trkpt>
      <trkpt lat="41.936428" lon="2.556812">
        <ele>466.562</ele>
        <time>2021-05-26T20:19:34Z</time>
      </trkpt>
      <trkpt lat="41.936404" lon="2.556800">
        <ele>466.276</ele>
        <time>2021-05-26T20:19:36Z</time>
      </trkpt>
      <trkpt lat="41.936380" lon="2.556792">
        <ele>466.090</ele>
        <time>2021-05-26T20:19:39Z</time>
      </trkpt>
      <trkpt lat="41.936356" lon="2.556786">
        <ele>466.019</ele>
        <time>2021-05-26T20:19:41Z</time>
      </trkpt>
      <trkpt lat="41.936334" lon="2.556784">
        <ele>466.208</ele>
        <time>2021-05-26T20:19:43Z</time>
      </trkpt>
      <trkpt lat="41.936308" lon="2.556782">
        <ele>466.394</ele>
        <time>2021-05-26T20:19:45Z</time>
      </trkpt>
      <trkpt lat="41.936285" lon="2.556779">
        <ele>466.471</ele>
        <time>2021-05-26T20:19:47Z</time>
      </trkpt>
      <trkpt lat="41.936265" lon="2.556779">
        <ele>466.628</ele>
        <time>2021-05-26T20:19:49Z</time>
      </trkpt>
      <trkpt lat="41.936246" lon="2.556776">
        <ele>466.792</ele>
        <time>2021-05-26T20:19:51Z</time>
      </trkpt>
      <trkpt lat="41.936224" lon="2.556779">
        <ele>467.077</ele>
        <time>2021-05-26T20:19:53Z</time>
      </trkpt>
      <trkpt lat="41.936200" lon="2.556769">
        <ele>466.857</ele>
        <time>2021-05-26T20:19:55Z</time>
      </trkpt>
      <trkpt lat="41.936179" lon="2.556763">
        <ele>466.813</ele>
        <time>2021-05-26T20:19:57Z</time>
      </trkpt>
      <trkpt lat="41.936156" lon="2.556761">
        <ele>467.018</ele>
        <time>2021-05-26T20:19:58Z</time>
      </trkpt>
      <trkpt lat="41.936133" lon="2.556761">
        <ele>467.256</ele>
        <time>2021-05-26T20:20:01Z</time>
      </trkpt>
      <trkpt lat="41.936106" lon="2.556749">
        <ele>467.059</ele>
        <time>2021-05-26T20:20:02Z</time>
      </trkpt>
      <trkpt lat="41.936080" lon="2.556737">
        <ele>466.614</ele>
        <time>2021-05-26T20:20:04Z</time>
      </trkpt>
      <trkpt lat="41.936057" lon="2.556745">
        <ele>467.008</ele>
        <time>2021-05-26T20:20:06Z</time>
      </trkpt>
      <trkpt lat="41.936021" lon="2.556724">
        <ele>466.362</ele>
        <time>2021-05-26T20:20:09Z</time>
      </trkpt>
      <trkpt lat="41.935996" lon="2.556714">
        <ele>465.959</ele>
        <time>2021-05-26T20:20:11Z</time>
      </trkpt>
      <trkpt lat="41.935971" lon="2.556711">
        <ele>465.886</ele>
        <time>2021-05-26T20:20:13Z</time>
      </trkpt>
      <trkpt lat="41.935946" lon="2.556705">
        <ele>465.610</ele>
        <time>2021-05-26T20:20:15Z</time>
      </trkpt>
      <trkpt lat="41.935922" lon="2.556700">
        <ele>465.415</ele>
        <time>2021-05-26T20:20:17Z</time>
      </trkpt>
      <trkpt lat="41.935900" lon="2.556694">
        <ele>465.225</ele>
        <time>2021-05-26T20:20:19Z</time>
      </trkpt>
      <trkpt lat="41.935878" lon="2.556680">
        <ele>464.671</ele>
        <time>2021-05-26T20:20:21Z</time>
      </trkpt>
      <trkpt lat="41.935855" lon="2.556668">
        <ele>464.166</ele>
        <time>2021-05-26T20:20:23Z</time>
      </trkpt>
      <trkpt lat="41.935832" lon="2.556662">
        <ele>463.856</ele>
        <time>2021-05-26T20:20:25Z</time>
      </trkpt>
      <trkpt lat="41.935807" lon="2.556661">
        <ele>463.959</ele>
        <time>2021-05-26T20:20:27Z</time>
      </trkpt>
      <trkpt lat="41.935784" lon="2.556662">
        <ele>464.114</ele>
        <time>2021-05-26T20:20:29Z</time>
      </trkpt>
      <trkpt lat="41.935763" lon="2.556660">
        <ele>464.108</ele>
        <time>2021-05-26T20:20:31Z</time>
      </trkpt>
      <trkpt lat="41.935742" lon="2.556660">
        <ele>464.372</ele>
        <time>2021-05-26T20:20:33Z</time>
      </trkpt>
      <trkpt lat="41.935719" lon="2.556656">
        <ele>464.279</ele>
        <time>2021-05-26T20:20:35Z</time>
      </trkpt>
      <trkpt lat="41.935695" lon="2.556654">
        <ele>464.396</ele>
        <time>2021-05-26T20:20:37Z</time>
      </trkpt>
      <trkpt lat="41.935671" lon="2.556650">
        <ele>464.350</ele>
        <time>2021-05-26T20:20:39Z</time>
      </trkpt>
      <trkpt lat="41.935647" lon="2.556645">
        <ele>464.275</ele>
        <time>2021-05-26T20:20:41Z</time>
      </trkpt>
      <trkpt lat="41.935623" lon="2.556636">
        <ele>463.915</ele>
        <time>2021-05-26T20:20:43Z</time>
      </trkpt>
      <trkpt lat="41.935596" lon="2.556635">
        <ele>464.011</ele>
        <time>2021-05-26T20:20:45Z</time>
      </trkpt>
      <trkpt lat="41.935575" lon="2.556637">
        <ele>464.346</ele>
        <time>2021-05-26T20:20:47Z</time>
      </trkpt>
      <trkpt lat="41.935554" lon="2.556638">
        <ele>464.557</ele>
        <time>2021-05-26T20:20:49Z</time>
      </trkpt>
      <trkpt lat="41.935532" lon="2.556627">
        <ele>464.100</ele>
        <time>2021-05-26T20:20:51Z</time>
      </trkpt>
      <trkpt lat="41.935497" lon="2.556612">
        <ele>463.620</ele>
        <time>2021-05-26T20:20:54Z</time>
      </trkpt>
      <trkpt lat="41.935438" lon="2.556563">
        <ele>461.708</ele>
        <time>2021-05-26T20:21:00Z</time>
      </trkpt>
      <trkpt lat="41.935388" lon="2.556516">
        <ele>460.172</ele>
        <time>2021-05-26T20:21:05Z</time>
      </trkpt>
      <trkpt lat="41.935363" lon="2.556490">
        <ele>459.219</ele>
        <time>2021-05-26T20:21:07Z</time>
      </trkpt>
      <trkpt lat="41.935336" lon="2.556469">
        <ele>458.666</ele>
        <time>2021-05-26T20:21:09Z</time>
      </trkpt>
      <trkpt lat="41.935310" lon="2.556453">
        <ele>458.360</ele>
        <time>2021-05-26T20:21:11Z</time>
      </trkpt>
      <trkpt lat="41.935281" lon="2.556440">
        <ele>458.235</ele>
        <time>2021-05-26T20:21:13Z</time>
      </trkpt>
      <trkpt lat="41.935255" lon="2.556433">
        <ele>458.065</ele>
        <time>2021-05-26T20:21:15Z</time>
      </trkpt>
      <trkpt lat="41.935228" lon="2.556433">
        <ele>458.181</ele>
        <time>2021-05-26T20:21:16Z</time>
      </trkpt>
      <trkpt lat="41.935200" lon="2.556432">
        <ele>458.126</ele>
        <time>2021-05-26T20:21:18Z</time>
      </trkpt>
      <trkpt lat="41.935174" lon="2.556437">
        <ele>458.585</ele>
        <time>2021-05-26T20:21:20Z</time>
      </trkpt>
      <trkpt lat="41.935146" lon="2.556436">
        <ele>458.589</ele>
        <time>2021-05-26T20:21:22Z</time>
      </trkpt>
      <trkpt lat="41.935114" lon="2.556443">
        <ele>458.917</ele>
        <time>2021-05-26T20:21:25Z</time>
      </trkpt>
      <trkpt lat="41.935101" lon="2.556405">
        <ele>457.308</ele>
        <time>2021-05-26T20:21:30Z</time>
      </trkpt>
      <trkpt lat="41.935115" lon="2.556383">
        <ele>456.415</ele>
        <time>2021-05-26T20:21:32Z</time>
      </trkpt>
      <trkpt lat="41.935194" lon="2.556314">
        <ele>453.612</ele>
        <time>2021-05-26T20:21:41Z</time>
      </trkpt>
      <trkpt lat="41.935294" lon="2.556289">
        <ele>451.879</ele>
        <time>2021-05-26T20:21:49Z</time>
      </trkpt>
      <trkpt lat="41.935378" lon="2.556337">
        <ele>452.113</ele>
        <time>2021-05-26T20:21:57Z</time>
      </trkpt>
      <trkpt lat="41.935473" lon="2.556359">
        <ele>451.318</ele>
        <time>2021-05-26T20:22:03Z</time>
      </trkpt>
      <trkpt lat="41.935568" lon="2.556357">
        <ele>449.728</ele>
        <time>2021-05-26T20:22:10Z</time>
      </trkpt>
      <trkpt lat="41.935668" lon="2.556345">
        <ele>448.654</ele>
        <time>2021-05-26T20:22:20Z</time>
      </trkpt>
      <trkpt lat="41.935748" lon="2.556311">
        <ele>446.989</ele>
        <time>2021-05-26T20:22:30Z</time>
      </trkpt>
      <trkpt lat="41.935766" lon="2.556308">
        <ele>446.721</ele>
        <time>2021-05-26T20:22:38Z</time>
      </trkpt>
      <trkpt lat="41.935787" lon="2.556294">
        <ele>446.141</ele>
        <time>2021-05-26T20:22:42Z</time>
      </trkpt>
      <trkpt lat="41.935867" lon="2.556237">
        <ele>444.005</ele>
        <time>2021-05-26T20:22:53Z</time>
      </trkpt>
      <trkpt lat="41.935967" lon="2.556234">
        <ele>443.708</ele>
        <time>2021-05-26T20:22:59Z</time>
      </trkpt>
      <trkpt lat="41.936057" lon="2.556198">
        <ele>442.349</ele>
        <time>2021-05-26T20:23:07Z</time>
      </trkpt>
      <trkpt lat="41.936148" lon="2.556163">
        <ele>440.876</ele>
        <time>2021-05-26T20:23:14Z</time>
      </trkpt>
      <trkpt lat="41.936243" lon="2.556149">
        <ele>440.043</ele>
        <time>2021-05-26T20:23:19Z</time>
      </trkpt>
      <trkpt lat="41.936349" lon="2.556124">
        <ele>438.637</ele>
        <time>2021-05-26T20:23:26Z</time>
      </trkpt>
      <trkpt lat="41.936449" lon="2.556106">
        <ele>437.452</ele>
        <time>2021-05-26T20:23:33Z</time>
      </trkpt>
      <trkpt lat="41.936545" lon="2.556092">
        <ele>436.462</ele>
        <time>2021-05-26T20:23:40Z</time>
      </trkpt>
      <trkpt lat="41.936636" lon="2.556075">
        <ele>435.268</ele>
        <time>2021-05-26T20:23:48Z</time>
      </trkpt>
      <trkpt lat="41.936732" lon="2.556079">
        <ele>434.643</ele>
        <time>2021-05-26T20:23:54Z</time>
      </trkpt>
      <trkpt lat="41.936827" lon="2.556058">
        <ele>433.368</ele>
        <time>2021-05-26T20:24:02Z</time>
      </trkpt>
      <trkpt lat="41.936917" lon="2.556041">
        <ele>432.242</ele>
        <time>2021-05-26T20:24:10Z</time>
      </trkpt>
      <trkpt lat="41.937009" lon="2.556028">
        <ele>431.526</ele>
        <time>2021-05-26T20:24:17Z</time>
      </trkpt>
      <trkpt lat="41.937101" lon="2.556001">
        <ele>430.608</ele>
        <time>2021-05-26T20:24:25Z</time>
      </trkpt>
      <trkpt lat="41.937188" lon="2.555960">
        <ele>429.213</ele>
        <time>2021-05-26T20:24:33Z</time>
      </trkpt>
      <trkpt lat="41.937284" lon="2.555941">
        <ele>427.910</ele>
        <time>2021-05-26T20:24:40Z</time>
      </trkpt>
      <trkpt lat="41.937359" lon="2.555861">
        <ele>424.537</ele>
        <time>2021-05-26T20:24:46Z</time>
      </trkpt>
      <trkpt lat="41.937275" lon="2.555795">
        <ele>423.851</ele>
        <time>2021-05-26T20:24:52Z</time>
      </trkpt>
      <trkpt lat="41.937224" lon="2.555786">
        <ele>424.166</ele>
        <time>2021-05-26T20:24:58Z</time>
      </trkpt>
      <trkpt lat="41.937141" lon="2.555737">
        <ele>423.666</ele>
        <time>2021-05-26T20:25:07Z</time>
      </trkpt>
      <trkpt lat="41.937057" lon="2.555664">
        <ele>422.562</ele>
        <time>2021-05-26T20:25:15Z</time>
      </trkpt>
      <trkpt lat="41.936982" lon="2.555579">
        <ele>421.327</ele>
        <time>2021-05-26T20:25:22Z</time>
      </trkpt>
      <trkpt lat="41.936962" lon="2.555453">
        <ele>421.361</ele>
        <time>2021-05-26T20:25:33Z</time>
      </trkpt>
      <trkpt lat="41.937057" lon="2.555443">
        <ele>421.021</ele>
        <time>2021-05-26T20:25:39Z</time>
      </trkpt>
      <trkpt lat="41.937151" lon="2.555467">
        <ele>420.613</ele>
        <time>2021-05-26T20:25:47Z</time>
      </trkpt>
      <trkpt lat="41.937241" lon="2.555479">
        <ele>420.208</ele>
        <time>2021-05-26T20:25:54Z</time>
      </trkpt>
      <trkpt lat="41.937343" lon="2.555500">
        <ele>419.643</ele>
        <time>2021-05-26T20:26:02Z</time>
      </trkpt>
      <trkpt lat="41.937436" lon="2.555523">
        <ele>419.260</ele>
        <time>2021-05-26T20:26:08Z</time>
      </trkpt>
      <trkpt lat="41.937532" lon="2.555573">
        <ele>419.077</ele>
        <time>2021-05-26T20:26:14Z</time>
      </trkpt>
      <trkpt lat="41.937622" lon="2.555610">
        <ele>419.091</ele>
        <time>2021-05-26T20:26:22Z</time>
      </trkpt>
      <trkpt lat="41.937727" lon="2.555606">
        <ele>418.446</ele>
        <time>2021-05-26T20:26:28Z</time>
      </trkpt>
      <trkpt lat="41.937828" lon="2.555589">
        <ele>417.436</ele>
        <time>2021-05-26T20:26:35Z</time>
      </trkpt>
      <trkpt lat="41.937912" lon="2.555544">
        <ele>416.062</ele>
        <time>2021-05-26T20:26:40Z</time>
      </trkpt>
      <trkpt lat="41.937989" lon="2.555472">
        <ele>415.177</ele>
        <time>2021-05-26T20:26:47Z</time>
      </trkpt>
      <trkpt lat="41.938086" lon="2.555437">
        <ele>414.569</ele>
        <time>2021-05-26T20:26:53Z</time>
      </trkpt>
      <trkpt lat="41.938182" lon="2.555423">
        <ele>414.104</ele>
        <time>2021-05-26T20:27:03Z</time>
      </trkpt>
      <trkpt lat="41.938257" lon="2.555400">
        <ele>413.524</ele>
        <time>2021-05-26T20:27:17Z</time>
      </trkpt>
      <trkpt lat="41.938336" lon="2.555378">
        <ele>412.808</ele>
        <time>2021-05-26T20:27:27Z</time>
      </trkpt>
      <trkpt lat="41.938428" lon="2.555442">
        <ele>412.713</ele>
        <time>2021-05-26T20:27:37Z</time>
      </trkpt>
      <trkpt lat="41.938491" lon="2.555532">
        <ele>413.440</ele>
        <time>2021-05-26T20:27:44Z</time>
      </trkpt>
      <trkpt lat="41.938560" lon="2.555626">
        <ele>415.037</ele>
        <time>2021-05-26T20:27:52Z</time>
      </trkpt>
      <trkpt lat="41.938638" lon="2.555696">
        <ele>416.141</ele>
        <time>2021-05-26T20:28:00Z</time>
      </trkpt>
      <trkpt lat="41.938723" lon="2.555744">
        <ele>416.166</ele>
        <time>2021-05-26T20:28:05Z</time>
      </trkpt>
      <trkpt lat="41.938814" lon="2.555762">
        <ele>415.036</ele>
        <time>2021-05-26T20:28:11Z</time>
      </trkpt>
      <trkpt lat="41.938912" lon="2.555798">
        <ele>414.592</ele>
        <time>2021-05-26T20:28:18Z</time>
      </trkpt>
      <trkpt lat="41.939006" lon="2.555798">
        <ele>413.377</ele>
        <time>2021-05-26T20:28:25Z</time>
      </trkpt>
      <trkpt lat="41.939104" lon="2.555758">
        <ele>410.955</ele>
        <time>2021-05-26T20:28:31Z</time>
      </trkpt>
      <trkpt lat="41.939203" lon="2.555736">
        <ele>409.607</ele>
        <time>2021-05-26T20:28:38Z</time>
      </trkpt>
      <trkpt lat="41.939294" lon="2.555718">
        <ele>409.217</ele>
        <time>2021-05-26T20:28:46Z</time>
      </trkpt>
      <trkpt lat="41.939399" lon="2.555708">
        <ele>408.908</ele>
        <time>2021-05-26T20:28:55Z</time>
      </trkpt>
      <trkpt lat="41.939498" lon="2.555666">
        <ele>407.562</ele>
        <time>2021-05-26T20:29:01Z</time>
      </trkpt>
      <trkpt lat="41.939586" lon="2.555619">
        <ele>405.869</ele>
        <time>2021-05-26T20:29:08Z</time>
      </trkpt>
      <trkpt lat="41.939669" lon="2.555543">
        <ele>403.076</ele>
        <time>2021-05-26T20:29:14Z</time>
      </trkpt>
      <trkpt lat="41.939726" lon="2.555445">
        <ele>401.460</ele>
        <time>2021-05-26T20:29:22Z</time>
      </trkpt>
      <trkpt lat="41.939815" lon="2.555403">
        <ele>400.825</ele>
        <time>2021-05-26T20:29:30Z</time>
      </trkpt>
      <trkpt lat="41.939840" lon="2.555395">
        <ele>400.625</ele>
        <time>2021-05-26T20:29:32Z</time>
      </trkpt>
      <trkpt lat="41.939866" lon="2.555391">
        <ele>400.571</ele>
        <time>2021-05-26T20:29:35Z</time>
      </trkpt>
      <trkpt lat="41.939890" lon="2.555386">
        <ele>400.466</ele>
        <time>2021-05-26T20:29:37Z</time>
      </trkpt>
      <trkpt lat="41.939915" lon="2.555381">
        <ele>400.319</ele>
        <time>2021-05-26T20:29:39Z</time>
      </trkpt>
      <trkpt lat="41.939940" lon="2.555379">
        <ele>400.209</ele>
        <time>2021-05-26T20:29:41Z</time>
      </trkpt>
      <trkpt lat="41.939967" lon="2.555375">
        <ele>400.119</ele>
        <time>2021-05-26T20:29:42Z</time>
      </trkpt>
      <trkpt lat="41.939998" lon="2.555371">
        <ele>400.008</ele>
        <time>2021-05-26T20:29:44Z</time>
      </trkpt>
      <trkpt lat="41.940024" lon="2.555361">
        <ele>399.658</ele>
        <time>2021-05-26T20:29:46Z</time>
      </trkpt>
      <trkpt lat="41.940046" lon="2.555354">
        <ele>399.345</ele>
        <time>2021-05-26T20:29:48Z</time>
      </trkpt>
      <trkpt lat="41.940070" lon="2.555344">
        <ele>398.992</ele>
        <time>2021-05-26T20:29:51Z</time>
      </trkpt>
      <trkpt lat="41.940097" lon="2.555329">
        <ele>398.466</ele>
        <time>2021-05-26T20:29:53Z</time>
      </trkpt>
      <trkpt lat="41.940123" lon="2.555324">
        <ele>398.131</ele>
        <time>2021-05-26T20:29:54Z</time>
      </trkpt>
      <trkpt lat="41.940148" lon="2.555322">
        <ele>397.911</ele>
        <time>2021-05-26T20:29:56Z</time>
      </trkpt>
      <trkpt lat="41.940167" lon="2.555320">
        <ele>397.777</ele>
        <time>2021-05-26T20:29:58Z</time>
      </trkpt>
      <trkpt lat="41.940260" lon="2.555297">
        <ele>396.542</ele>
        <time>2021-05-26T20:30:05Z</time>
      </trkpt>
      <trkpt lat="41.940334" lon="2.555289">
        <ele>395.832</ele>
        <time>2021-05-26T20:30:10Z</time>
      </trkpt>
      <trkpt lat="41.940363" lon="2.555284">
        <ele>395.592</ele>
        <time>2021-05-26T20:30:12Z</time>
      </trkpt>
      <trkpt lat="41.940459" lon="2.555277">
        <ele>394.711</ele>
        <time>2021-05-26T20:30:19Z</time>
      </trkpt>
      <trkpt lat="41.940556" lon="2.555306">
        <ele>394.508</ele>
        <time>2021-05-26T20:30:26Z</time>
      </trkpt>
      <trkpt lat="41.940642" lon="2.555383">
        <ele>394.570</ele>
        <time>2021-05-26T20:30:35Z</time>
      </trkpt>
      <trkpt lat="41.940712" lon="2.555472">
        <ele>394.847</ele>
        <time>2021-05-26T20:30:42Z</time>
      </trkpt>
      <trkpt lat="41.940784" lon="2.555546">
        <ele>394.734</ele>
        <time>2021-05-26T20:30:47Z</time>
      </trkpt>
      <trkpt lat="41.940864" lon="2.555609">
        <ele>394.348</ele>
        <time>2021-05-26T20:30:53Z</time>
      </trkpt>
      <trkpt lat="41.940937" lon="2.555700">
        <ele>394.333</ele>
        <time>2021-05-26T20:30:59Z</time>
      </trkpt>
      <trkpt lat="41.941024" lon="2.555744">
        <ele>393.013</ele>
        <time>2021-05-26T20:31:07Z</time>
      </trkpt>
      <trkpt lat="41.941106" lon="2.555800">
        <ele>392.359</ele>
        <time>2021-05-26T20:31:13Z</time>
      </trkpt>
      <trkpt lat="41.941207" lon="2.555831">
        <ele>390.974</ele>
        <time>2021-05-26T20:31:21Z</time>
      </trkpt>
      <trkpt lat="41.941288" lon="2.555898">
        <ele>390.947</ele>
        <time>2021-05-26T20:31:29Z</time>
      </trkpt>
      <trkpt lat="41.941366" lon="2.555960">
        <ele>390.729</ele>
        <time>2021-05-26T20:31:34Z</time>
      </trkpt>
      <trkpt lat="41.941449" lon="2.556014">
        <ele>389.921</ele>
        <time>2021-05-26T20:31:41Z</time>
      </trkpt>
      <trkpt lat="41.941535" lon="2.556055">
        <ele>388.508</ele>
        <time>2021-05-26T20:31:48Z</time>
      </trkpt>
      <trkpt lat="41.941623" lon="2.556103">
        <ele>387.171</ele>
        <time>2021-05-26T20:31:55Z</time>
      </trkpt>
      <trkpt lat="41.941719" lon="2.556132">
        <ele>385.648</ele>
        <time>2021-05-26T20:32:01Z</time>
      </trkpt>
      <trkpt lat="41.941803" lon="2.556202">
        <ele>386.035</ele>
        <time>2021-05-26T20:32:09Z</time>
      </trkpt>
      <trkpt lat="41.941889" lon="2.556271">
        <ele>386.099</ele>
        <time>2021-05-26T20:32:16Z</time>
      </trkpt>
      <trkpt lat="41.941974" lon="2.556352">
        <ele>386.054</ele>
        <time>2021-05-26T20:32:23Z</time>
      </trkpt>
      <trkpt lat="41.942066" lon="2.556397">
        <ele>384.374</ele>
        <time>2021-05-26T20:32:29Z</time>
      </trkpt>
      <trkpt lat="41.942166" lon="2.556417">
        <ele>381.790</ele>
        <time>2021-05-26T20:32:38Z</time>
      </trkpt>
      <trkpt lat="41.942256" lon="2.556474">
        <ele>381.135</ele>
        <time>2021-05-26T20:32:44Z</time>
      </trkpt>
      <trkpt lat="41.942338" lon="2.556538">
        <ele>381.513</ele>
        <time>2021-05-26T20:32:52Z</time>
      </trkpt>
      <trkpt lat="41.942408" lon="2.556619">
        <ele>382.643</ele>
        <time>2021-05-26T20:32:59Z</time>
      </trkpt>
      <trkpt lat="41.942470" lon="2.556707">
        <ele>384.007</ele>
        <time>2021-05-26T20:33:05Z</time>
      </trkpt>
      <trkpt lat="41.942553" lon="2.556636">
        <ele>379.808</ele>
        <time>2021-05-26T20:33:15Z</time>
      </trkpt>
      <trkpt lat="41.942534" lon="2.556508">
        <ele>376.878</ele>
        <time>2021-05-26T20:33:24Z</time>
      </trkpt>
      <trkpt lat="41.942457" lon="2.556425">
        <ele>375.835</ele>
        <time>2021-05-26T20:33:32Z</time>
      </trkpt>
      <trkpt lat="41.942383" lon="2.556345">
        <ele>375.482</ele>
        <time>2021-05-26T20:33:39Z</time>
      </trkpt>
      <trkpt lat="41.942313" lon="2.556264">
        <ele>375.366</ele>
        <time>2021-05-26T20:33:45Z</time>
      </trkpt>
      <trkpt lat="41.942229" lon="2.556208">
        <ele>375.661</ele>
        <time>2021-05-26T20:33:51Z</time>
      </trkpt>
      <trkpt lat="41.942139" lon="2.556130">
        <ele>376.271</ele>
        <time>2021-05-26T20:33:58Z</time>
      </trkpt>
      <trkpt lat="41.942074" lon="2.556040">
        <ele>376.237</ele>
        <time>2021-05-26T20:34:07Z</time>
      </trkpt>
      <trkpt lat="41.942018" lon="2.555931">
        <ele>375.512</ele>
        <time>2021-05-26T20:34:16Z</time>
      </trkpt>
      <trkpt lat="41.941949" lon="2.555828">
        <ele>374.942</ele>
        <time>2021-05-26T20:34:23Z</time>
      </trkpt>
      <trkpt lat="41.941868" lon="2.555769">
        <ele>375.822</ele>
        <time>2021-05-26T20:34:29Z</time>
      </trkpt>
      <trkpt lat="41.941783" lon="2.555719">
        <ele>376.814</ele>
        <time>2021-05-26T20:34:37Z</time>
      </trkpt>
      <trkpt lat="41.941747" lon="2.555594">
        <ele>376.208</ele>
        <time>2021-05-26T20:34:44Z</time>
      </trkpt>
      <trkpt lat="41.941835" lon="2.555552">
        <ele>374.621</ele>
        <time>2021-05-26T20:34:58Z</time>
      </trkpt>
      <trkpt lat="41.941924" lon="2.555607">
        <ele>373.768</ele>
        <time>2021-05-26T20:35:04Z</time>
      </trkpt>
      <trkpt lat="41.942016" lon="2.555650">
        <ele>372.865</ele>
        <time>2021-05-26T20:35:11Z</time>
      </trkpt>
      <trkpt lat="41.942118" lon="2.555682">
        <ele>371.829</ele>
        <time>2021-05-26T20:35:19Z</time>
      </trkpt>
      <trkpt lat="41.942202" lon="2.555749">
        <ele>371.084</ele>
        <time>2021-05-26T20:35:27Z</time>
      </trkpt>
      <trkpt lat="41.942286" lon="2.555798">
        <ele>370.354</ele>
        <time>2021-05-26T20:35:34Z</time>
      </trkpt>
      <trkpt lat="41.942374" lon="2.555842">
        <ele>369.420</ele>
        <time>2021-05-26T20:35:41Z</time>
      </trkpt>
      <trkpt lat="41.942468" lon="2.555846">
        <ele>368.445</ele>
        <time>2021-05-26T20:35:47Z</time>
      </trkpt>
      <trkpt lat="41.942545" lon="2.555830">
        <ele>367.982</ele>
        <time>2021-05-26T20:35:52Z</time>
      </trkpt>
      <trkpt lat="41.942569" lon="2.555817">
        <ele>368.043</ele>
        <time>2021-05-26T20:35:54Z</time>
      </trkpt>
      <trkpt lat="41.942592" lon="2.555808">
        <ele>368.017</ele>
        <time>2021-05-26T20:35:56Z</time>
      </trkpt>
      <trkpt lat="41.942621" lon="2.555803">
        <ele>368.008</ele>
        <time>2021-05-26T20:35:58Z</time>
      </trkpt>
      <trkpt lat="41.942645" lon="2.555796">
        <ele>368.085</ele>
        <time>2021-05-26T20:36:00Z</time>
      </trkpt>
      <trkpt lat="41.942667" lon="2.555789">
        <ele>368.152</ele>
        <time>2021-05-26T20:36:02Z</time>
      </trkpt>
      <trkpt lat="41.942692" lon="2.555791">
        <ele>368.069</ele>
        <time>2021-05-26T20:36:04Z</time>
      </trkpt>
      <trkpt lat="41.942721" lon="2.555796">
        <ele>367.873</ele>
        <time>2021-05-26T20:36:06Z</time>
      </trkpt>
      <trkpt lat="41.942746" lon="2.555789">
        <ele>367.958</ele>
        <time>2021-05-26T20:36:08Z</time>
      </trkpt>
      <trkpt lat="41.942772" lon="2.555774">
        <ele>368.158</ele>
        <time>2021-05-26T20:36:10Z</time>
      </trkpt>
      <trkpt lat="41.942794" lon="2.555751">
        <ele>368.654</ele>
        <time>2021-05-26T20:36:12Z</time>
      </trkpt>
      <trkpt lat="41.942813" lon="2.555729">
        <ele>369.189</ele>
        <time>2021-05-26T20:36:14Z</time>
      </trkpt>
      <trkpt lat="41.942837" lon="2.555699">
        <ele>369.719</ele>
        <time>2021-05-26T20:36:18Z</time>
      </trkpt>
      <trkpt lat="41.942848" lon="2.555654">
        <ele>370.609</ele>
        <time>2021-05-26T20:36:24Z</time>
      </trkpt>
      <trkpt lat="41.942863" lon="2.555640">
        <ele>371.019</ele>
        <time>2021-05-26T20:36:26Z</time>
      </trkpt>
      <trkpt lat="41.942897" lon="2.555634">
        <ele>371.308</ele>
        <time>2021-05-26T20:36:33Z</time>
      </trkpt>
      <trkpt lat="41.942887" lon="2.555656">
        <ele>370.888</ele>
        <time>2021-05-26T20:36:35Z</time>
      </trkpt>
      <trkpt lat="41.942979" lon="2.555709">
        <ele>370.335</ele>
        <time>2021-05-26T20:36:49Z</time>
      </trkpt>
      <trkpt lat="41.943063" lon="2.555753">
        <ele>369.842</ele>
        <time>2021-05-26T20:36:59Z</time>
      </trkpt>
      <trkpt lat="41.943140" lon="2.555820">
        <ele>368.396</ele>
        <time>2021-05-26T20:37:06Z</time>
      </trkpt>
      <trkpt lat="41.943238" lon="2.555833">
        <ele>368.021</ele>
        <time>2021-05-26T20:37:13Z</time>
      </trkpt>
      <trkpt lat="41.943320" lon="2.555884">
        <ele>367.171</ele>
        <time>2021-05-26T20:37:21Z</time>
      </trkpt>
      <trkpt lat="41.943397" lon="2.555965">
        <ele>365.127</ele>
        <time>2021-05-26T20:37:29Z</time>
      </trkpt>
      <trkpt lat="41.943475" lon="2.556033">
        <ele>363.092</ele>
        <time>2021-05-26T20:37:37Z</time>
      </trkpt>
      <trkpt lat="41.943571" lon="2.556023">
        <ele>362.389</ele>
        <time>2021-05-26T20:37:45Z</time>
      </trkpt>
      <trkpt lat="41.943651" lon="2.556025">
        <ele>361.606</ele>
        <time>2021-05-26T20:37:53Z</time>
      </trkpt>
      <trkpt lat="41.943676" lon="2.556044">
        <ele>361.026</ele>
        <time>2021-05-26T20:37:55Z</time>
      </trkpt>
      <trkpt lat="41.943694" lon="2.556072">
        <ele>360.108</ele>
        <time>2021-05-26T20:37:57Z</time>
      </trkpt>
      <trkpt lat="41.943711" lon="2.556104">
        <ele>359.145</ele>
        <time>2021-05-26T20:37:58Z</time>
      </trkpt>
      <trkpt lat="41.943732" lon="2.556153">
        <ele>358.462</ele>
        <time>2021-05-26T20:38:02Z</time>
      </trkpt>
      <trkpt lat="41.943796" lon="2.556248">
        <ele>357.059</ele>
        <time>2021-05-26T20:38:10Z</time>
      </trkpt>
      <trkpt lat="41.943850" lon="2.556351">
        <ele>355.753</ele>
        <time>2021-05-26T20:38:17Z</time>
      </trkpt>
      <trkpt lat="41.943878" lon="2.556367">
        <ele>355.398</ele>
        <time>2021-05-26T20:38:19Z</time>
      </trkpt>
      <trkpt lat="41.943893" lon="2.556387">
        <ele>355.018</ele>
        <time>2021-05-26T20:38:21Z</time>
      </trkpt>
      <trkpt lat="41.943917" lon="2.556398">
        <ele>354.774</ele>
        <time>2021-05-26T20:38:23Z</time>
      </trkpt>
      <trkpt lat="41.943943" lon="2.556399">
        <ele>354.439</ele>
        <time>2021-05-26T20:38:25Z</time>
      </trkpt>
      <trkpt lat="41.943967" lon="2.556415">
        <ele>354.238</ele>
        <time>2021-05-26T20:38:27Z</time>
      </trkpt>
      <trkpt lat="41.944007" lon="2.556471">
        <ele>353.870</ele>
        <time>2021-05-26T20:38:31Z</time>
      </trkpt>
      <trkpt lat="41.944046" lon="2.556592">
        <ele>353.217</ele>
        <time>2021-05-26T20:38:36Z</time>
      </trkpt>
      <trkpt lat="41.944048" lon="2.556621">
        <ele>353.208</ele>
        <time>2021-05-26T20:38:38Z</time>
      </trkpt>
      <trkpt lat="41.944051" lon="2.556701">
        <ele>353.670</ele>
        <time>2021-05-26T20:38:44Z</time>
      </trkpt>
      <trkpt lat="41.944067" lon="2.556726">
        <ele>353.797</ele>
        <time>2021-05-26T20:38:47Z</time>
      </trkpt>
      <trkpt lat="41.944122" lon="2.556724">
        <ele>352.724</ele>
        <time>2021-05-26T20:38:50Z</time>
      </trkpt>
      <trkpt lat="41.944144" lon="2.556730">
        <ele>352.358</ele>
        <time>2021-05-26T20:38:52Z</time>
      </trkpt>
      <trkpt lat="41.944166" lon="2.556750">
        <ele>352.213</ele>
        <time>2021-05-26T20:38:54Z</time>
      </trkpt>
      <trkpt lat="41.944187" lon="2.556763">
        <ele>352.243</ele>
        <time>2021-05-26T20:38:57Z</time>
      </trkpt>
      <trkpt lat="41.944209" lon="2.556779">
        <ele>352.359</ele>
        <time>2021-05-26T20:38:58Z</time>
      </trkpt>
      <trkpt lat="41.944239" lon="2.556780">
        <ele>352.144</ele>
        <time>2021-05-26T20:39:00Z</time>
      </trkpt>
      <trkpt lat="41.944264" lon="2.556782">
        <ele>351.974</ele>
        <time>2021-05-26T20:39:02Z</time>
      </trkpt>
      <trkpt lat="41.944301" lon="2.556782">
        <ele>351.656</ele>
        <time>2021-05-26T20:39:05Z</time>
      </trkpt>
      <trkpt lat="41.944320" lon="2.556789">
        <ele>351.521</ele>
        <time>2021-05-26T20:39:07Z</time>
      </trkpt>
      <trkpt lat="41.944347" lon="2.556804">
        <ele>351.408</ele>
        <time>2021-05-26T20:39:10Z</time>
      </trkpt>
      <trkpt lat="41.944377" lon="2.556824">
        <ele>351.284</ele>
        <time>2021-05-26T20:39:13Z</time>
      </trkpt>
      <trkpt lat="41.944421" lon="2.556831">
        <ele>350.861</ele>
        <time>2021-05-26T20:39:17Z</time>
      </trkpt>
      <trkpt lat="41.944438" lon="2.556826">
        <ele>350.648</ele>
        <time>2021-05-26T20:39:20Z</time>
      </trkpt>
      <trkpt lat="41.944409" lon="2.556798">
        <ele>350.892</ele>
        <time>2021-05-26T20:39:37Z</time>
      </trkpt>
      <trkpt lat="41.944427" lon="2.556807">
        <ele>350.727</ele>
        <time>2021-05-26T20:39:41Z</time>
      </trkpt>
      <trkpt lat="41.944447" lon="2.556810">
        <ele>350.577</ele>
        <time>2021-05-26T20:39:43Z</time>
      </trkpt>
      <trkpt lat="41.944471" lon="2.556803">
        <ele>350.463</ele>
        <time>2021-05-26T20:39:44Z</time>
      </trkpt>
      <trkpt lat="41.944501" lon="2.556799">
        <ele>350.488</ele>
        <time>2021-05-26T20:39:47Z</time>
      </trkpt>
      <trkpt lat="41.944532" lon="2.556788">
        <ele>350.342</ele>
        <time>2021-05-26T20:39:49Z</time>
      </trkpt>
      <trkpt lat="41.944562" lon="2.556788">
        <ele>350.322</ele>
        <time>2021-05-26T20:39:51Z</time>
      </trkpt>
      <trkpt lat="41.944590" lon="2.556791">
        <ele>350.214</ele>
        <time>2021-05-26T20:39:52Z</time>
      </trkpt>
      <trkpt lat="41.944616" lon="2.556793">
        <ele>350.208</ele>
        <time>2021-05-26T20:39:54Z</time>
      </trkpt>
      <trkpt lat="41.944642" lon="2.556774">
        <ele>350.131</ele>
        <time>2021-05-26T20:39:57Z</time>
      </trkpt>
      <trkpt lat="41.944664" lon="2.556767">
        <ele>350.178</ele>
        <time>2021-05-26T20:39:59Z</time>
      </trkpt>
      <trkpt lat="41.944683" lon="2.556757">
        <ele>350.055</ele>
        <time>2021-05-26T20:40:00Z</time>
      </trkpt>
      <trkpt lat="41.944710" lon="2.556739">
        <ele>350.099</ele>
        <time>2021-05-26T20:40:02Z</time>
      </trkpt>
      <trkpt lat="41.944747" lon="2.556701">
        <ele>350.024</ele>
        <time>2021-05-26T20:40:04Z</time>
      </trkpt>
      <trkpt lat="41.944822" lon="2.556683">
        <ele>350.064</ele>
        <time>2021-05-26T20:40:09Z</time>
      </trkpt>
      <trkpt lat="41.944913" lon="2.556665">
        <ele>350.060</ele>
        <time>2021-05-26T20:40:15Z</time>
      </trkpt>
      <trkpt lat="41.944944" lon="2.556677">
        <ele>350.025</ele>
        <time>2021-05-26T20:40:17Z</time>
      </trkpt>
      <trkpt lat="41.945005" lon="2.556774">
        <ele>349.657</ele>
        <time>2021-05-26T20:40:22Z</time>
      </trkpt>
      <trkpt lat="41.945028" lon="2.556813">
        <ele>349.200</ele>
        <time>2021-05-26T20:40:25Z</time>
      </trkpt>
      <trkpt lat="41.945055" lon="2.556835">
        <ele>348.920</ele>
        <time>2021-05-26T20:40:27Z</time>
      </trkpt>
      <trkpt lat="41.945078" lon="2.556840">
        <ele>348.608</ele>
        <time>2021-05-26T20:40:29Z</time>
      </trkpt>
      <trkpt lat="41.945099" lon="2.556848">
        <ele>348.432</ele>
        <time>2021-05-26T20:40:30Z</time>
      </trkpt>
      <trkpt lat="41.945125" lon="2.556866">
        <ele>348.129</ele>
        <time>2021-05-26T20:40:32Z</time>
      </trkpt>
      <trkpt lat="41.945146" lon="2.556892">
        <ele>347.726</ele>
        <time>2021-05-26T20:40:34Z</time>
      </trkpt>
      <trkpt lat="41.945169" lon="2.556910">
        <ele>347.460</ele>
        <time>2021-05-26T20:40:36Z</time>
      </trkpt>
      <trkpt lat="41.945192" lon="2.556923">
        <ele>347.115</ele>
        <time>2021-05-26T20:40:38Z</time>
      </trkpt>
      <trkpt lat="41.945216" lon="2.556929">
        <ele>346.845</ele>
        <time>2021-05-26T20:40:40Z</time>
      </trkpt>
      <trkpt lat="41.945234" lon="2.556922">
        <ele>346.681</ele>
        <time>2021-05-26T20:40:41Z</time>
      </trkpt>
      <trkpt lat="41.945254" lon="2.556911">
        <ele>346.566</ele>
        <time>2021-05-26T20:40:42Z</time>
      </trkpt>
      <trkpt lat="41.945279" lon="2.556886">
        <ele>346.481</ele>
        <time>2021-05-26T20:40:43Z</time>
      </trkpt>
      <trkpt lat="41.945300" lon="2.556865">
        <ele>346.061</ele>
        <time>2021-05-26T20:40:45Z</time>
      </trkpt>
      <trkpt lat="41.945315" lon="2.556848">
        <ele>345.817</ele>
        <time>2021-05-26T20:40:46Z</time>
      </trkpt>
      <trkpt lat="41.945333" lon="2.556831">
        <ele>345.508</ele>
        <time>2021-05-26T20:40:48Z</time>
      </trkpt>
      <trkpt lat="41.945352" lon="2.556823">
        <ele>345.135</ele>
        <time>2021-05-26T20:40:52Z</time>
      </trkpt>
      <trkpt lat="41.945371" lon="2.556814">
        <ele>344.792</ele>
        <time>2021-05-26T20:40:55Z</time>
      </trkpt>
      <trkpt lat="41.945390" lon="2.556808">
        <ele>344.459</ele>
        <time>2021-05-26T20:40:58Z</time>
      </trkpt>
      <trkpt lat="41.945414" lon="2.556802">
        <ele>343.893</ele>
        <time>2021-05-26T20:41:01Z</time>
      </trkpt>
      <trkpt lat="41.945442" lon="2.556792">
        <ele>343.328</ele>
        <time>2021-05-26T20:41:04Z</time>
      </trkpt>
      <trkpt lat="41.945533" lon="2.556774">
        <ele>341.448</ele>
        <time>2021-05-26T20:41:14Z</time>
      </trkpt>
      <trkpt lat="41.945591" lon="2.556752">
        <ele>340.514</ele>
        <time>2021-05-26T20:41:19Z</time>
      </trkpt>
      <trkpt lat="41.945612" lon="2.556753">
        <ele>340.219</ele>
        <time>2021-05-26T20:41:20Z</time>
      </trkpt>
      <trkpt lat="41.945630" lon="2.556733">
        <ele>340.113</ele>
        <time>2021-05-26T20:41:24Z</time>
      </trkpt>
      <trkpt lat="41.945639" lon="2.556703">
        <ele>340.243</ele>
        <time>2021-05-26T20:41:26Z</time>
      </trkpt>
      <trkpt lat="41.945645" lon="2.556672">
        <ele>340.307</ele>
        <time>2021-05-26T20:41:29Z</time>
      </trkpt>
      <trkpt lat="41.945661" lon="2.556546">
        <ele>340.508</ele>
        <time>2021-05-26T20:41:36Z</time>
      </trkpt>
      <trkpt lat="41.945672" lon="2.556410">
        <ele>340.828</ele>
        <time>2021-05-26T20:41:44Z</time>
      </trkpt>
      <trkpt lat="41.945674" lon="2.556284">
        <ele>341.135</ele>
        <time>2021-05-26T20:41:49Z</time>
      </trkpt>
      <trkpt lat="41.945657" lon="2.556146">
        <ele>341.742</ele>
        <time>2021-05-26T20:42:00Z</time>
      </trkpt>
      <trkpt lat="41.945663" lon="2.556022">
        <ele>342.196</ele>
        <time>2021-05-26T20:42:08Z</time>
      </trkpt>
      <trkpt lat="41.945685" lon="2.555895">
        <ele>342.171</ele>
        <time>2021-05-26T20:42:14Z</time>
      </trkpt>
      <trkpt lat="41.945726" lon="2.555778">
        <ele>340.881</ele>
        <time>2021-05-26T20:42:20Z</time>
      </trkpt>
      <trkpt lat="41.945776" lon="2.555669">
        <ele>338.727</ele>
        <time>2021-05-26T20:42:42Z</time>
      </trkpt>
      <trkpt lat="41.945869" lon="2.555700">
        <ele>335.752</ele>
        <time>2021-05-26T20:42:54Z</time>
      </trkpt>
      <trkpt lat="41.945931" lon="2.555596">
        <ele>333.796</ele>
        <time>2021-05-26T20:43:03Z</time>
      </trkpt>
      <trkpt lat="41.945915" lon="2.555462">
        <ele>333.931</ele>
        <time>2021-05-26T20:43:13Z</time>
      </trkpt>
      <trkpt lat="41.946000" lon="2.555402">
        <ele>331.824</ele>
        <time>2021-05-26T20:43:19Z</time>
      </trkpt>
      <trkpt lat="41.945995" lon="2.555280">
        <ele>331.908</ele>
        <time>2021-05-26T20:43:27Z</time>
      </trkpt>
      <trkpt lat="41.945937" lon="2.555185">
        <ele>333.326</ele>
        <time>2021-05-26T20:43:34Z</time>
      </trkpt>
      <trkpt lat="41.945919" lon="2.555168">
        <ele>333.723</ele>
        <time>2021-05-26T20:43:35Z</time>
      </trkpt>
      <trkpt lat="41.945908" lon="2.555144">
        <ele>333.950</ele>
        <time>2021-05-26T20:43:39Z</time>
      </trkpt>
      <trkpt lat="41.945889" lon="2.555121">
        <ele>334.354</ele>
        <time>2021-05-26T20:43:41Z</time>
      </trkpt>
      <trkpt lat="41.945883" lon="2.555096">
        <ele>334.329</ele>
        <time>2021-05-26T20:43:46Z</time>
      </trkpt>
      <trkpt lat="41.945866" lon="2.555085">
        <ele>334.699</ele>
        <time>2021-05-26T20:44:05Z</time>
      </trkpt>
      <trkpt lat="41.945847" lon="2.555092">
        <ele>335.115</ele>
        <time>2021-05-26T20:44:24Z</time>
      </trkpt>
      <trkpt lat="41.945851" lon="2.555117">
        <ele>335.160</ele>
        <time>2021-05-26T20:44:29Z</time>
      </trkpt>
      <trkpt lat="41.945859" lon="2.555143">
        <ele>335.012</ele>
        <time>2021-05-26T20:44:33Z</time>
      </trkpt>
      <trkpt lat="41.945860" lon="2.555171">
        <ele>335.032</ele>
        <time>2021-05-26T20:44:37Z</time>
      </trkpt>
      <trkpt lat="41.945857" lon="2.555205">
        <ele>335.205</ele>
        <time>2021-05-26T20:44:41Z</time>
      </trkpt>
      <trkpt lat="41.945865" lon="2.555244">
        <ele>335.108</ele>
        <time>2021-05-26T20:44:42Z</time>
      </trkpt>
      <trkpt lat="41.945874" lon="2.555282">
        <ele>335.068</ele>
        <time>2021-05-26T20:44:45Z</time>
      </trkpt>
      <trkpt lat="41.945877" lon="2.555318">
        <ele>334.955</ele>
        <time>2021-05-26T20:44:46Z</time>
      </trkpt>
      <trkpt lat="41.945887" lon="2.555351">
        <ele>334.612</ele>
        <time>2021-05-26T20:44:48Z</time>
      </trkpt>
      <trkpt lat="41.945894" lon="2.555383">
        <ele>334.596</ele>
        <time>2021-05-26T20:44:50Z</time>
      </trkpt>
      <trkpt lat="41.945919" lon="2.555475">
        <ele>333.861</ele>
        <time>2021-05-26T20:44:55Z</time>
      </trkpt>
      <trkpt lat="41.945921" lon="2.555508">
        <ele>333.831</ele>
        <time>2021-05-26T20:44:57Z</time>
      </trkpt>
      <trkpt lat="41.945934" lon="2.555542">
        <ele>333.587</ele>
        <time>2021-05-26T20:44:59Z</time>
      </trkpt>
      <trkpt lat="41.945951" lon="2.555552">
        <ele>333.042</ele>
        <time>2021-05-26T20:45:01Z</time>
      </trkpt>
      <trkpt lat="41.946041" lon="2.555506">
        <ele>330.843</ele>
        <time>2021-05-26T20:45:10Z</time>
      </trkpt>
      <trkpt lat="41.946141" lon="2.555476">
        <ele>329.164</ele>
        <time>2021-05-26T20:45:16Z</time>
      </trkpt>
      <trkpt lat="41.946174" lon="2.555474">
        <ele>329.210</ele>
        <time>2021-05-26T20:45:19Z</time>
      </trkpt>
      <trkpt lat="41.946194" lon="2.555466">
        <ele>329.308</ele>
        <time>2021-05-26T20:45:20Z</time>
      </trkpt>
      <trkpt lat="41.946223" lon="2.555454">
        <ele>329.411</ele>
        <time>2021-05-26T20:45:23Z</time>
      </trkpt>
      <trkpt lat="41.946246" lon="2.555435">
        <ele>329.578</ele>
        <time>2021-05-26T20:45:26Z</time>
      </trkpt>
      <trkpt lat="41.946309" lon="2.555348">
        <ele>329.715</ele>
        <time>2021-05-26T20:45:36Z</time>
      </trkpt>
      <trkpt lat="41.946288" lon="2.555217">
        <ele>330.049</ele>
        <time>2021-05-26T20:45:45Z</time>
      </trkpt>
      <trkpt lat="41.946272" lon="2.555082">
        <ele>330.734</ele>
        <time>2021-05-26T20:45:53Z</time>
      </trkpt>
      <trkpt lat="41.946239" lon="2.554960">
        <ele>331.174</ele>
        <time>2021-05-26T20:46:00Z</time>
      </trkpt>
      <trkpt lat="41.946234" lon="2.554835">
        <ele>331.530</ele>
        <time>2021-05-26T20:46:06Z</time>
      </trkpt>
      <trkpt lat="41.946191" lon="2.554723">
        <ele>331.625</ele>
        <time>2021-05-26T20:46:14Z</time>
      </trkpt>
      <trkpt lat="41.946160" lon="2.554599">
        <ele>332.324</ele>
        <time>2021-05-26T20:46:22Z</time>
      </trkpt>
      <trkpt lat="41.946133" lon="2.554478">
        <ele>333.004</ele>
        <time>2021-05-26T20:46:30Z</time>
      </trkpt>
      <trkpt lat="41.946148" lon="2.554491">
        <ele>333.014</ele>
        <time>2021-05-26T20:46:38Z</time>
      </trkpt>
      <trkpt lat="41.946135" lon="2.554440">
        <ele>333.308</ele>
        <time>2021-05-26T20:46:48Z</time>
      </trkpt>
      <trkpt lat="41.946147" lon="2.554473">
        <ele>333.279</ele>
        <time>2021-05-26T20:47:47Z</time>
      </trkpt>
      <trkpt lat="41.946153" lon="2.554508">
        <ele>333.066</ele>
        <time>2021-05-26T20:47:49Z</time>
      </trkpt>
      <trkpt lat="41.946163" lon="2.554539">
        <ele>332.823</ele>
        <time>2021-05-26T20:47:51Z</time>
      </trkpt>
      <trkpt lat="41.946172" lon="2.554574">
        <ele>332.697</ele>
        <time>2021-05-26T20:47:52Z</time>
      </trkpt>
      <trkpt lat="41.946177" lon="2.554625">
        <ele>332.322</ele>
        <time>2021-05-26T20:47:55Z</time>
      </trkpt>
      <trkpt lat="41.946185" lon="2.554656">
        <ele>332.112</ele>
        <time>2021-05-26T20:47:58Z</time>
      </trkpt>
      <trkpt lat="41.946196" lon="2.554687">
        <ele>331.938</ele>
        <time>2021-05-26T20:47:59Z</time>
      </trkpt>
      <trkpt lat="41.946209" lon="2.554720">
        <ele>331.783</ele>
        <time>2021-05-26T20:48:01Z</time>
      </trkpt>
      <trkpt lat="41.946221" lon="2.554758">
        <ele>331.745</ele>
        <time>2021-05-26T20:48:03Z</time>
      </trkpt>
      <trkpt lat="41.946238" lon="2.554804">
        <ele>331.647</ele>
        <time>2021-05-26T20:48:08Z</time>
      </trkpt>
      <trkpt lat="41.946274" lon="2.554931">
        <ele>331.411</ele>
        <time>2021-05-26T20:48:14Z</time>
      </trkpt>
      <trkpt lat="41.946302" lon="2.555043">
        <ele>331.108</ele>
        <time>2021-05-26T20:48:21Z</time>
      </trkpt>
      <trkpt lat="41.946308" lon="2.555083">
        <ele>330.961</ele>
        <time>2021-05-26T20:48:23Z</time>
      </trkpt>
      <trkpt lat="41.946315" lon="2.555123">
        <ele>330.778</ele>
        <time>2021-05-26T20:48:24Z</time>
      </trkpt>
      <trkpt lat="41.946328" lon="2.555180">
        <ele>330.415</ele>
        <time>2021-05-26T20:48:27Z</time>
      </trkpt>
      <trkpt lat="41.946360" lon="2.555299">
        <ele>329.929</ele>
        <time>2021-05-26T20:48:35Z</time>
      </trkpt>
      <trkpt lat="41.946389" lon="2.555422">
        <ele>330.084</ele>
        <time>2021-05-26T20:48:44Z</time>
      </trkpt>
      <trkpt lat="41.946481" lon="2.555484">
        <ele>331.554</ele>
        <time>2021-05-26T20:48:57Z</time>
      </trkpt>
      <trkpt lat="41.946531" lon="2.555591">
        <ele>332.010</ele>
        <time>2021-05-26T20:49:10Z</time>
      </trkpt>
      <trkpt lat="41.946503" lon="2.555707">
        <ele>331.455</ele>
        <time>2021-05-26T20:49:19Z</time>
      </trkpt>
      <trkpt lat="41.946496" lon="2.555842">
        <ele>331.197</ele>
        <time>2021-05-26T20:49:26Z</time>
      </trkpt>
      <trkpt lat="41.946502" lon="2.555934">
        <ele>330.923</ele>
        <time>2021-05-26T20:49:31Z</time>
      </trkpt>
      <trkpt lat="41.946509" lon="2.555967">
        <ele>330.825</ele>
        <time>2021-05-26T20:49:33Z</time>
      </trkpt>
      <trkpt lat="41.946556" lon="2.556085">
        <ele>330.908</ele>
        <time>2021-05-26T20:49:42Z</time>
      </trkpt>
      <trkpt lat="41.946581" lon="2.556105">
        <ele>331.186</ele>
        <time>2021-05-26T20:49:45Z</time>
      </trkpt>
      <trkpt lat="41.946605" lon="2.556128">
        <ele>331.413</ele>
        <time>2021-05-26T20:49:46Z</time>
      </trkpt>
      <trkpt lat="41.946627" lon="2.556151">
        <ele>331.750</ele>
        <time>2021-05-26T20:49:48Z</time>
      </trkpt>
      <trkpt lat="41.946655" lon="2.556159">
        <ele>332.044</ele>
        <time>2021-05-26T20:49:50Z</time>
      </trkpt>
      <trkpt lat="41.946672" lon="2.556150">
        <ele>332.219</ele>
        <time>2021-05-26T20:49:51Z</time>
      </trkpt>
      <trkpt lat="41.946705" lon="2.556136">
        <ele>332.889</ele>
        <time>2021-05-26T20:49:53Z</time>
      </trkpt>
      <trkpt lat="41.946733" lon="2.556117">
        <ele>333.265</ele>
        <time>2021-05-26T20:49:55Z</time>
      </trkpt>
      <trkpt lat="41.946757" lon="2.556087">
        <ele>333.740</ele>
        <time>2021-05-26T20:49:57Z</time>
      </trkpt>
      <trkpt lat="41.946771" lon="2.556054">
        <ele>334.114</ele>
        <time>2021-05-26T20:50:00Z</time>
      </trkpt>
      <trkpt lat="41.946780" lon="2.556022">
        <ele>334.454</ele>
        <time>2021-05-26T20:50:01Z</time>
      </trkpt>
      <trkpt lat="41.946793" lon="2.555996">
        <ele>334.709</ele>
        <time>2021-05-26T20:50:04Z</time>
      </trkpt>
      <trkpt lat="41.946808" lon="2.555970">
        <ele>335.108</ele>
        <time>2021-05-26T20:50:05Z</time>
      </trkpt>
      <trkpt lat="41.946824" lon="2.555946">
        <ele>335.498</ele>
        <time>2021-05-26T20:50:07Z</time>
      </trkpt>
      <trkpt lat="41.946844" lon="2.555924">
        <ele>335.965</ele>
        <time>2021-05-26T20:50:09Z</time>
      </trkpt>
      <trkpt lat="41.946862" lon="2.555903">
        <ele>336.382</ele>
        <time>2021-05-26T20:50:11Z</time>
      </trkpt>
      <trkpt lat="41.946883" lon="2.555884">
        <ele>336.786</ele>
        <time>2021-05-26T20:50:14Z</time>
      </trkpt>
      <trkpt lat="41.946903" lon="2.555867">
        <ele>337.181</ele>
        <time>2021-05-26T20:50:16Z</time>
      </trkpt>
      <trkpt lat="41.946923" lon="2.555849">
        <ele>337.641</ele>
        <time>2021-05-26T20:50:18Z</time>
      </trkpt>
      <trkpt lat="41.946941" lon="2.555836">
        <ele>337.987</ele>
        <time>2021-05-26T20:50:20Z</time>
      </trkpt>
      <trkpt lat="41.946953" lon="2.555810">
        <ele>338.492</ele>
        <time>2021-05-26T20:50:22Z</time>
      </trkpt>
      <trkpt lat="41.946961" lon="2.555775">
        <ele>338.857</ele>
        <time>2021-05-26T20:50:23Z</time>
      </trkpt>
      <trkpt lat="41.946964" lon="2.555739">
        <ele>339.100</ele>
        <time>2021-05-26T20:50:25Z</time>
      </trkpt>
      <trkpt lat="41.946966" lon="2.555705">
        <ele>339.420</ele>
        <time>2021-05-26T20:50:27Z</time>
      </trkpt>
      <trkpt lat="41.946964" lon="2.555671">
        <ele>339.608</ele>
        <time>2021-05-26T20:50:29Z</time>
      </trkpt>
      <trkpt lat="41.946964" lon="2.555633">
        <ele>339.912</ele>
        <time>2021-05-26T20:50:31Z</time>
      </trkpt>
      <trkpt lat="41.946964" lon="2.555598">
        <ele>340.289</ele>
        <time>2021-05-26T20:50:33Z</time>
      </trkpt>
      <trkpt lat="41.946960" lon="2.555570">
        <ele>340.316</ele>
        <time>2021-05-26T20:50:35Z</time>
      </trkpt>
      <trkpt lat="41.946954" lon="2.555543">
        <ele>340.360</ele>
        <time>2021-05-26T20:50:37Z</time>
      </trkpt>
      <trkpt lat="41.946947" lon="2.555513">
        <ele>340.455</ele>
        <time>2021-05-26T20:50:39Z</time>
      </trkpt>
      <trkpt lat="41.946948" lon="2.555483">
        <ele>340.615</ele>
        <time>2021-05-26T20:50:42Z</time>
      </trkpt>
      <trkpt lat="41.946945" lon="2.555450">
        <ele>340.881</ele>
        <time>2021-05-26T20:50:43Z</time>
      </trkpt>
      <trkpt lat="41.946943" lon="2.555419">
        <ele>341.076</ele>
        <time>2021-05-26T20:50:45Z</time>
      </trkpt>
      <trkpt lat="41.946941" lon="2.555388">
        <ele>341.199</ele>
        <time>2021-05-26T20:50:47Z</time>
      </trkpt>
      <trkpt lat="41.946938" lon="2.555360">
        <ele>341.307</ele>
        <time>2021-05-26T20:50:49Z</time>
      </trkpt>
      <trkpt lat="41.946936" lon="2.555328">
        <ele>341.527</ele>
        <time>2021-05-26T20:50:51Z</time>
      </trkpt>
      <trkpt lat="41.946933" lon="2.555295">
        <ele>341.608</ele>
        <time>2021-05-26T20:50:54Z</time>
      </trkpt>
      <trkpt lat="41.946929" lon="2.555262">
        <ele>341.826</ele>
        <time>2021-05-26T20:50:56Z</time>
      </trkpt>
      <trkpt lat="41.946924" lon="2.555229">
        <ele>341.913</ele>
        <time>2021-05-26T20:50:58Z</time>
      </trkpt>
      <trkpt lat="41.946923" lon="2.555198">
        <ele>342.170</ele>
        <time>2021-05-26T20:50:59Z</time>
      </trkpt>
      <trkpt lat="41.946921" lon="2.555167">
        <ele>342.384</ele>
        <time>2021-05-26T20:51:02Z</time>
      </trkpt>
      <trkpt lat="41.946912" lon="2.555135">
        <ele>342.389</ele>
        <time>2021-05-26T20:51:04Z</time>
      </trkpt>
      <trkpt lat="41.946899" lon="2.555100">
        <ele>342.389</ele>
        <time>2021-05-26T20:51:06Z</time>
      </trkpt>
      <trkpt lat="41.946891" lon="2.555066">
        <ele>342.495</ele>
        <time>2021-05-26T20:51:08Z</time>
      </trkpt>
      <trkpt lat="41.946881" lon="2.555031">
        <ele>342.490</ele>
        <time>2021-05-26T20:51:10Z</time>
      </trkpt>
      <trkpt lat="41.946870" lon="2.554999">
        <ele>342.462</ele>
        <time>2021-05-26T20:51:12Z</time>
      </trkpt>
      <trkpt lat="41.946859" lon="2.554968">
        <ele>342.583</ele>
        <time>2021-05-26T20:51:13Z</time>
      </trkpt>
      <trkpt lat="41.946852" lon="2.554934">
        <ele>342.711</ele>
        <time>2021-05-26T20:51:15Z</time>
      </trkpt>
      <trkpt lat="41.946846" lon="2.554899">
        <ele>343.008</ele>
        <time>2021-05-26T20:51:17Z</time>
      </trkpt>
      <trkpt lat="41.946840" lon="2.554864">
        <ele>343.253</ele>
        <time>2021-05-26T20:51:19Z</time>
      </trkpt>
      <trkpt lat="41.946828" lon="2.554829">
        <ele>343.340</ele>
        <time>2021-05-26T20:51:21Z</time>
      </trkpt>
      <trkpt lat="41.946821" lon="2.554802">
        <ele>343.567</ele>
        <time>2021-05-26T20:51:23Z</time>
      </trkpt>
      <trkpt lat="41.946811" lon="2.554776">
        <ele>343.521</ele>
        <time>2021-05-26T20:51:25Z</time>
      </trkpt>
      <trkpt lat="41.946801" lon="2.554749">
        <ele>343.636</ele>
        <time>2021-05-26T20:51:27Z</time>
      </trkpt>
      <trkpt lat="41.946793" lon="2.554718">
        <ele>343.876</ele>
        <time>2021-05-26T20:51:29Z</time>
      </trkpt>
      <trkpt lat="41.946781" lon="2.554684">
        <ele>343.772</ele>
        <time>2021-05-26T20:51:31Z</time>
      </trkpt>
      <trkpt lat="41.946775" lon="2.554648">
        <ele>343.927</ele>
        <time>2021-05-26T20:51:33Z</time>
      </trkpt>
      <trkpt lat="41.946780" lon="2.554620">
        <ele>344.287</ele>
        <time>2021-05-26T20:51:35Z</time>
      </trkpt>
      <trkpt lat="41.946772" lon="2.554589">
        <ele>344.242</ele>
        <time>2021-05-26T20:51:37Z</time>
      </trkpt>
      <trkpt lat="41.946758" lon="2.554554">
        <ele>344.226</ele>
        <time>2021-05-26T20:51:39Z</time>
      </trkpt>
      <trkpt lat="41.946751" lon="2.554522">
        <ele>344.308</ele>
        <time>2021-05-26T20:51:41Z</time>
      </trkpt>
      <trkpt lat="41.946749" lon="2.554491">
        <ele>344.465</ele>
        <time>2021-05-26T20:51:43Z</time>
      </trkpt>
      <trkpt lat="41.946739" lon="2.554456">
        <ele>344.552</ele>
        <time>2021-05-26T20:51:45Z</time>
      </trkpt>
      <trkpt lat="41.946734" lon="2.554423">
        <ele>344.549</ele>
        <time>2021-05-26T20:51:47Z</time>
      </trkpt>
      <trkpt lat="41.946723" lon="2.554390">
        <ele>344.463</ele>
        <time>2021-05-26T20:51:50Z</time>
      </trkpt>
      <trkpt lat="41.946712" lon="2.554357">
        <ele>344.338</ele>
        <time>2021-05-26T20:51:51Z</time>
      </trkpt>
      <trkpt lat="41.946705" lon="2.554322">
        <ele>344.318</ele>
        <time>2021-05-26T20:51:53Z</time>
      </trkpt>
      <trkpt lat="41.946697" lon="2.554287">
        <ele>344.284</ele>
        <time>2021-05-26T20:51:55Z</time>
      </trkpt>
      <trkpt lat="41.946692" lon="2.554252">
        <ele>344.239</ele>
        <time>2021-05-26T20:51:58Z</time>
      </trkpt>
      <trkpt lat="41.946686" lon="2.554218">
        <ele>344.221</ele>
        <time>2021-05-26T20:51:59Z</time>
      </trkpt>
      <trkpt lat="41.946682" lon="2.554187">
        <ele>344.341</ele>
        <time>2021-05-26T20:52:01Z</time>
      </trkpt>
      <trkpt lat="41.946678" lon="2.554158">
        <ele>344.205</ele>
        <time>2021-05-26T20:52:03Z</time>
      </trkpt>
      <trkpt lat="41.946678" lon="2.554128">
        <ele>344.208</ele>
        <time>2021-05-26T20:52:05Z</time>
      </trkpt>
      <trkpt lat="41.946677" lon="2.554094">
        <ele>344.289</ele>
        <time>2021-05-26T20:52:07Z</time>
      </trkpt>
      <trkpt lat="41.946678" lon="2.554058">
        <ele>344.266</ele>
        <time>2021-05-26T20:52:09Z</time>
      </trkpt>
      <trkpt lat="41.946680" lon="2.554023">
        <ele>344.373</ele>
        <time>2021-05-26T20:52:11Z</time>
      </trkpt>
      <trkpt lat="41.946684" lon="2.553988">
        <ele>344.487</ele>
        <time>2021-05-26T20:52:14Z</time>
      </trkpt>
      <trkpt lat="41.946682" lon="2.553952">
        <ele>344.312</ele>
        <time>2021-05-26T20:52:15Z</time>
      </trkpt>
      <trkpt lat="41.946680" lon="2.553924">
        <ele>344.322</ele>
        <time>2021-05-26T20:52:17Z</time>
      </trkpt>
      <trkpt lat="41.946687" lon="2.553897">
        <ele>344.438</ele>
        <time>2021-05-26T20:52:19Z</time>
      </trkpt>
      <trkpt lat="41.946690" lon="2.553871">
        <ele>344.523</ele>
        <time>2021-05-26T20:52:21Z</time>
      </trkpt>
      <trkpt lat="41.946671" lon="2.553880">
        <ele>344.138</ele>
        <time>2021-05-26T20:52:27Z</time>
      </trkpt>
      <trkpt lat="41.946659" lon="2.553906">
        <ele>343.970</ele>
        <time>2021-05-26T20:52:29Z</time>
      </trkpt>
      <trkpt lat="41.946650" lon="2.553933">
        <ele>343.817</ele>
        <time>2021-05-26T20:52:30Z</time>
      </trkpt>
      <trkpt lat="41.946630" lon="2.553944">
        <ele>343.408</ele>
        <time>2021-05-26T20:52:32Z</time>
      </trkpt>
      <trkpt lat="41.946603" lon="2.553948">
        <ele>343.020</ele>
        <time>2021-05-26T20:52:35Z</time>
      </trkpt>
      <trkpt lat="41.946573" lon="2.553956">
        <ele>342.627</ele>
        <time>2021-05-26T20:52:38Z</time>
      </trkpt>
      <trkpt lat="41.946547" lon="2.553970">
        <ele>342.294</ele>
        <time>2021-05-26T20:52:40Z</time>
      </trkpt>
      <trkpt lat="41.946518" lon="2.553986">
        <ele>341.788</ele>
        <time>2021-05-26T20:52:41Z</time>
      </trkpt>
      <trkpt lat="41.946491" lon="2.553997">
        <ele>341.263</ele>
        <time>2021-05-26T20:52:43Z</time>
      </trkpt>
      <trkpt lat="41.946464" lon="2.554011">
        <ele>340.893</ele>
        <time>2021-05-26T20:52:45Z</time>
      </trkpt>
      <trkpt lat="41.946436" lon="2.554019">
        <ele>340.399</ele>
        <time>2021-05-26T20:52:47Z</time>
      </trkpt>
      <trkpt lat="41.946408" lon="2.554023">
        <ele>339.894</ele>
        <time>2021-05-26T20:52:49Z</time>
      </trkpt>
      <trkpt lat="41.946381" lon="2.554023">
        <ele>339.457</ele>
        <time>2021-05-26T20:52:51Z</time>
      </trkpt>
      <trkpt lat="41.946353" lon="2.554030">
        <ele>338.800</ele>
        <time>2021-05-26T20:52:53Z</time>
      </trkpt>
      <trkpt lat="41.946327" lon="2.554038">
        <ele>338.320</ele>
        <time>2021-05-26T20:52:55Z</time>
      </trkpt>
      <trkpt lat="41.946298" lon="2.554044">
        <ele>337.808</ele>
        <time>2021-05-26T20:52:57Z</time>
      </trkpt>
      <trkpt lat="41.946270" lon="2.554049">
        <ele>337.332</ele>
        <time>2021-05-26T20:53:00Z</time>
      </trkpt>
      <trkpt lat="41.946246" lon="2.554051">
        <ele>336.889</ele>
        <time>2021-05-26T20:53:02Z</time>
      </trkpt>
      <trkpt lat="41.946224" lon="2.554053">
        <ele>336.466</ele>
        <time>2021-05-26T20:53:03Z</time>
      </trkpt>
      <trkpt lat="41.946203" lon="2.554063">
        <ele>336.090</ele>
        <time>2021-05-26T20:53:05Z</time>
      </trkpt>
      <trkpt lat="41.946183" lon="2.554080">
        <ele>335.615</ele>
        <time>2021-05-26T20:53:07Z</time>
      </trkpt>
      <trkpt lat="41.946155" lon="2.554088">
        <ele>335.125</ele>
        <time>2021-05-26T20:53:10Z</time>
      </trkpt>
      <trkpt lat="41.946126" lon="2.554092">
        <ele>334.531</ele>
        <time>2021-05-26T20:53:12Z</time>
      </trkpt>
      <trkpt lat="41.946111" lon="2.554069">
        <ele>334.446</ele>
        <time>2021-05-26T20:53:13Z</time>
      </trkpt>
      <trkpt lat="41.946055" lon="2.553960">
        <ele>334.456</ele>
        <time>2021-05-26T20:53:19Z</time>
      </trkpt>
      <trkpt lat="41.946051" lon="2.553922">
        <ele>334.559</ele>
        <time>2021-05-26T20:53:21Z</time>
      </trkpt>
      <trkpt lat="41.946046" lon="2.553889">
        <ele>334.514</ele>
        <time>2021-05-26T20:53:23Z</time>
      </trkpt>
      <trkpt lat="41.946043" lon="2.553861">
        <ele>334.508</ele>
        <time>2021-05-26T20:53:25Z</time>
      </trkpt>
      <trkpt lat="41.946040" lon="2.553831">
        <ele>334.462</ele>
        <time>2021-05-26T20:53:28Z</time>
      </trkpt>
      <trkpt lat="41.946039" lon="2.553800">
        <ele>334.489</ele>
        <time>2021-05-26T20:53:29Z</time>
      </trkpt>
      <trkpt lat="41.946039" lon="2.553767">
        <ele>334.466</ele>
        <time>2021-05-26T20:53:31Z</time>
      </trkpt>
      <trkpt lat="41.946039" lon="2.553740">
        <ele>334.350</ele>
        <time>2021-05-26T20:53:33Z</time>
      </trkpt>
      <trkpt lat="41.946037" lon="2.553711">
        <ele>334.385</ele>
        <time>2021-05-26T20:53:35Z</time>
      </trkpt>
      <trkpt lat="41.946035" lon="2.553685">
        <ele>334.395</ele>
        <time>2021-05-26T20:53:37Z</time>
      </trkpt>
      <trkpt lat="41.946030" lon="2.553651">
        <ele>334.241</ele>
        <time>2021-05-26T20:53:40Z</time>
      </trkpt>
      <trkpt lat="41.946022" lon="2.553617">
        <ele>334.096</ele>
        <time>2021-05-26T20:53:41Z</time>
      </trkpt>
      <trkpt lat="41.946003" lon="2.553580">
        <ele>333.932</ele>
        <time>2021-05-26T20:53:43Z</time>
      </trkpt>
      <trkpt lat="41.945985" lon="2.553546">
        <ele>333.792</ele>
        <time>2021-05-26T20:53:45Z</time>
      </trkpt>
      <trkpt lat="41.945969" lon="2.553516">
        <ele>333.611</ele>
        <time>2021-05-26T20:53:48Z</time>
      </trkpt>
      <trkpt lat="41.945950" lon="2.553488">
        <ele>333.508</ele>
        <time>2021-05-26T20:53:50Z</time>
      </trkpt>
      <trkpt lat="41.945927" lon="2.553464">
        <ele>333.470</ele>
        <time>2021-05-26T20:53:51Z</time>
      </trkpt>
      <trkpt lat="41.945909" lon="2.553439">
        <ele>333.347</ele>
        <time>2021-05-26T20:53:53Z</time>
      </trkpt>
      <trkpt lat="41.945900" lon="2.553412">
        <ele>333.394</ele>
        <time>2021-05-26T20:53:55Z</time>
      </trkpt>
      <trkpt lat="41.945896" lon="2.553384">
        <ele>333.318</ele>
        <time>2021-05-26T20:53:57Z</time>
      </trkpt>
      <trkpt lat="41.945884" lon="2.553357">
        <ele>333.353</ele>
        <time>2021-05-26T20:53:59Z</time>
      </trkpt>
      <trkpt lat="41.945871" lon="2.553331">
        <ele>333.353</ele>
        <time>2021-05-26T20:54:01Z</time>
      </trkpt>
      <trkpt lat="41.945858" lon="2.553304">
        <ele>333.339</ele>
        <time>2021-05-26T20:54:03Z</time>
      </trkpt>
      <trkpt lat="41.945847" lon="2.553273">
        <ele>333.344</ele>
        <time>2021-05-26T20:54:05Z</time>
      </trkpt>
      <trkpt lat="41.945838" lon="2.553240">
        <ele>333.446</ele>
        <time>2021-05-26T20:54:07Z</time>
      </trkpt>
      <trkpt lat="41.945839" lon="2.553209">
        <ele>333.588</ele>
        <time>2021-05-26T20:54:09Z</time>
      </trkpt>
      <trkpt lat="41.945840" lon="2.553176">
        <ele>333.616</ele>
        <time>2021-05-26T20:54:11Z</time>
      </trkpt>
      <trkpt lat="41.945837" lon="2.553143">
        <ele>333.708</ele>
        <time>2021-05-26T20:54:13Z</time>
      </trkpt>
      <trkpt lat="41.945832" lon="2.553109">
        <ele>333.881</ele>
        <time>2021-05-26T20:54:15Z</time>
      </trkpt>
      <trkpt lat="41.945828" lon="2.553074">
        <ele>334.088</ele>
        <time>2021-05-26T20:54:17Z</time>
      </trkpt>
      <trkpt lat="41.945830" lon="2.553043">
        <ele>334.195</ele>
        <time>2021-05-26T20:54:19Z</time>
      </trkpt>
      <trkpt lat="41.945837" lon="2.553012">
        <ele>334.269</ele>
        <time>2021-05-26T20:54:21Z</time>
      </trkpt>
      <trkpt lat="41.945851" lon="2.552980">
        <ele>334.414</ele>
        <time>2021-05-26T20:54:23Z</time>
      </trkpt>
      <trkpt lat="41.945870" lon="2.552953">
        <ele>334.654</ele>
        <time>2021-05-26T20:54:25Z</time>
      </trkpt>
      <trkpt lat="41.945888" lon="2.552926">
        <ele>334.930</ele>
        <time>2021-05-26T20:54:27Z</time>
      </trkpt>
      <trkpt lat="41.945905" lon="2.552902">
        <ele>335.195</ele>
        <time>2021-05-26T20:54:29Z</time>
      </trkpt>
      <trkpt lat="41.945924" lon="2.552879">
        <ele>335.381</ele>
        <time>2021-05-26T20:54:31Z</time>
      </trkpt>
      <trkpt lat="41.945948" lon="2.552860">
        <ele>335.561</ele>
        <time>2021-05-26T20:54:33Z</time>
      </trkpt>
      <trkpt lat="41.945975" lon="2.552841">
        <ele>335.817</ele>
        <time>2021-05-26T20:54:35Z</time>
      </trkpt>
      <trkpt lat="41.946003" lon="2.552827">
        <ele>336.008</ele>
        <time>2021-05-26T20:54:37Z</time>
      </trkpt>
      <trkpt lat="41.946022" lon="2.552805">
        <ele>336.385</ele>
        <time>2021-05-26T20:54:39Z</time>
      </trkpt>
      <trkpt lat="41.946037" lon="2.552782">
        <ele>336.522</ele>
        <time>2021-05-26T20:54:42Z</time>
      </trkpt>
      <trkpt lat="41.946057" lon="2.552758">
        <ele>336.619</ele>
        <time>2021-05-26T20:54:44Z</time>
      </trkpt>
      <trkpt lat="41.946074" lon="2.552730">
        <ele>336.643</ele>
        <time>2021-05-26T20:54:46Z</time>
      </trkpt>
      <trkpt lat="41.946092" lon="2.552702">
        <ele>336.618</ele>
        <time>2021-05-26T20:54:48Z</time>
      </trkpt>
      <trkpt lat="41.946110" lon="2.552674">
        <ele>336.618</ele>
        <time>2021-05-26T20:54:49Z</time>
      </trkpt>
      <trkpt lat="41.946128" lon="2.552640">
        <ele>336.744</ele>
        <time>2021-05-26T20:54:52Z</time>
      </trkpt>
      <trkpt lat="41.946142" lon="2.552612">
        <ele>336.959</ele>
        <time>2021-05-26T20:54:53Z</time>
      </trkpt>
      <trkpt lat="41.946155" lon="2.552589">
        <ele>337.027</ele>
        <time>2021-05-26T20:54:55Z</time>
      </trkpt>
      <trkpt lat="41.946163" lon="2.552559">
        <ele>337.168</ele>
        <time>2021-05-26T20:54:57Z</time>
      </trkpt>
      <trkpt lat="41.946170" lon="2.552527">
        <ele>337.114</ele>
        <time>2021-05-26T20:54:59Z</time>
      </trkpt>
      <trkpt lat="41.946174" lon="2.552496">
        <ele>337.108</ele>
        <time>2021-05-26T20:55:01Z</time>
      </trkpt>
      <trkpt lat="41.946187" lon="2.552469">
        <ele>337.489</ele>
        <time>2021-05-26T20:55:03Z</time>
      </trkpt>
      <trkpt lat="41.946195" lon="2.552444">
        <ele>337.596</ele>
        <time>2021-05-26T20:55:05Z</time>
      </trkpt>
      <trkpt lat="41.946206" lon="2.552418">
        <ele>337.753</ele>
        <time>2021-05-26T20:55:07Z</time>
      </trkpt>
      <trkpt lat="41.946219" lon="2.552393">
        <ele>337.927</ele>
        <time>2021-05-26T20:55:09Z</time>
      </trkpt>
      <trkpt lat="41.946233" lon="2.552363">
        <ele>338.282</ele>
        <time>2021-05-26T20:55:11Z</time>
      </trkpt>
      <trkpt lat="41.946249" lon="2.552324">
        <ele>338.512</ele>
        <time>2021-05-26T20:55:14Z</time>
      </trkpt>
      <trkpt lat="41.946259" lon="2.552298">
        <ele>338.788</ele>
        <time>2021-05-26T20:55:16Z</time>
      </trkpt>
      <trkpt lat="41.946270" lon="2.552275">
        <ele>338.953</ele>
        <time>2021-05-26T20:55:18Z</time>
      </trkpt>
      <trkpt lat="41.946280" lon="2.552250">
        <ele>339.032</ele>
        <time>2021-05-26T20:55:20Z</time>
      </trkpt>
      <trkpt lat="41.946289" lon="2.552219">
        <ele>339.292</ele>
        <time>2021-05-26T20:55:22Z</time>
      </trkpt>
      <trkpt lat="41.946299" lon="2.552194">
        <ele>339.411</ele>
        <time>2021-05-26T20:55:24Z</time>
      </trkpt>
      <trkpt lat="41.946316" lon="2.552170">
        <ele>339.708</ele>
        <time>2021-05-26T20:55:26Z</time>
      </trkpt>
      <trkpt lat="41.946328" lon="2.552143">
        <ele>339.950</ele>
        <time>2021-05-26T20:55:28Z</time>
      </trkpt>
      <trkpt lat="41.946335" lon="2.552117">
        <ele>340.017</ele>
        <time>2021-05-26T20:55:30Z</time>
      </trkpt>
      <trkpt lat="41.946348" lon="2.552095">
        <ele>340.334</ele>
        <time>2021-05-26T20:55:32Z</time>
      </trkpt>
      <trkpt lat="41.946363" lon="2.552075">
        <ele>340.588</ele>
        <time>2021-05-26T20:55:35Z</time>
      </trkpt>
      <trkpt lat="41.946384" lon="2.552054">
        <ele>340.973</ele>
        <time>2021-05-26T20:55:36Z</time>
      </trkpt>
      <trkpt lat="41.946400" lon="2.552035">
        <ele>341.283</ele>
        <time>2021-05-26T20:55:38Z</time>
      </trkpt>
      <trkpt lat="41.946412" lon="2.552014">
        <ele>341.589</ele>
        <time>2021-05-26T20:55:40Z</time>
      </trkpt>
      <trkpt lat="41.946436" lon="2.551998">
        <ele>342.074</ele>
        <time>2021-05-26T20:55:42Z</time>
      </trkpt>
      <trkpt lat="41.946459" lon="2.551986">
        <ele>342.569</ele>
        <time>2021-05-26T20:55:44Z</time>
      </trkpt>
      <trkpt lat="41.946479" lon="2.551978">
        <ele>342.904</ele>
        <time>2021-05-26T20:55:46Z</time>
      </trkpt>
      <trkpt lat="41.946500" lon="2.551972">
        <ele>343.424</ele>
        <time>2021-05-26T20:55:48Z</time>
      </trkpt>
      <trkpt lat="41.946526" lon="2.551967">
        <ele>343.908</ele>
        <time>2021-05-26T20:55:50Z</time>
      </trkpt>
      <trkpt lat="41.946552" lon="2.551964">
        <ele>344.573</ele>
        <time>2021-05-26T20:55:52Z</time>
      </trkpt>
      <trkpt lat="41.946573" lon="2.551954">
        <ele>345.070</ele>
        <time>2021-05-26T20:55:54Z</time>
      </trkpt>
      <trkpt lat="41.946595" lon="2.551937">
        <ele>345.527</ele>
        <time>2021-05-26T20:55:56Z</time>
      </trkpt>
      <trkpt lat="41.946617" lon="2.551914">
        <ele>345.971</ele>
        <time>2021-05-26T20:55:59Z</time>
      </trkpt>
      <trkpt lat="41.946638" lon="2.551892">
        <ele>346.426</ele>
        <time>2021-05-26T20:56:00Z</time>
      </trkpt>
      <trkpt lat="41.946660" lon="2.551872">
        <ele>346.956</ele>
        <time>2021-05-26T20:56:02Z</time>
      </trkpt>
      <trkpt lat="41.946675" lon="2.551850">
        <ele>347.122</ele>
        <time>2021-05-26T20:56:05Z</time>
      </trkpt>
      <trkpt lat="41.946695" lon="2.551827">
        <ele>347.227</ele>
        <time>2021-05-26T20:56:06Z</time>
      </trkpt>
      <trkpt lat="41.946714" lon="2.551803">
        <ele>347.385</ele>
        <time>2021-05-26T20:56:08Z</time>
      </trkpt>
      <trkpt lat="41.946732" lon="2.551779">
        <ele>347.389</ele>
        <time>2021-05-26T20:56:10Z</time>
      </trkpt>
      <trkpt lat="41.946748" lon="2.551752">
        <ele>347.417</ele>
        <time>2021-05-26T20:56:12Z</time>
      </trkpt>
      <trkpt lat="41.946760" lon="2.551726">
        <ele>347.408</ele>
        <time>2021-05-26T20:56:14Z</time>
      </trkpt>
      <trkpt lat="41.946779" lon="2.551704">
        <ele>347.525</ele>
        <time>2021-05-26T20:56:17Z</time>
      </trkpt>
      <trkpt lat="41.946797" lon="2.551687">
        <ele>347.542</ele>
        <time>2021-05-26T20:56:18Z</time>
      </trkpt>
      <trkpt lat="41.946816" lon="2.551674">
        <ele>347.679</ele>
        <time>2021-05-26T20:56:20Z</time>
      </trkpt>
      <trkpt lat="41.946840" lon="2.551659">
        <ele>347.623</ele>
        <time>2021-05-26T20:56:26Z</time>
      </trkpt>
      <trkpt lat="41.946864" lon="2.551649">
        <ele>347.858</ele>
        <time>2021-05-26T20:56:27Z</time>
      </trkpt>
      <trkpt lat="41.946883" lon="2.551631">
        <ele>347.978</ele>
        <time>2021-05-26T20:56:29Z</time>
      </trkpt>
      <trkpt lat="41.946901" lon="2.551607">
        <ele>348.064</ele>
        <time>2021-05-26T20:56:31Z</time>
      </trkpt>
      <trkpt lat="41.946923" lon="2.551585">
        <ele>348.279</ele>
        <time>2021-05-26T20:56:33Z</time>
      </trkpt>
      <trkpt lat="41.946941" lon="2.551557">
        <ele>348.493</ele>
        <time>2021-05-26T20:56:35Z</time>
      </trkpt>
      <trkpt lat="41.946962" lon="2.551532">
        <ele>348.665</ele>
        <time>2021-05-26T20:56:37Z</time>
      </trkpt>
      <trkpt lat="41.946982" lon="2.551508">
        <ele>348.821</ele>
        <time>2021-05-26T20:56:39Z</time>
      </trkpt>
      <trkpt lat="41.947000" lon="2.551484">
        <ele>348.908</ele>
        <time>2021-05-26T20:56:41Z</time>
      </trkpt>
      <trkpt lat="41.947017" lon="2.551463">
        <ele>349.146</ele>
        <time>2021-05-26T20:56:43Z</time>
      </trkpt>
      <trkpt lat="41.947029" lon="2.551435">
        <ele>349.213</ele>
        <time>2021-05-26T20:56:45Z</time>
      </trkpt>
      <trkpt lat="41.947047" lon="2.551405">
        <ele>349.390</ele>
        <time>2021-05-26T20:56:47Z</time>
      </trkpt>
      <trkpt lat="41.947061" lon="2.551373">
        <ele>349.534</ele>
        <time>2021-05-26T20:56:49Z</time>
      </trkpt>
      <trkpt lat="41.947079" lon="2.551345">
        <ele>349.679</ele>
        <time>2021-05-26T20:56:51Z</time>
      </trkpt>
      <trkpt lat="41.947096" lon="2.551316">
        <ele>349.839</ele>
        <time>2021-05-26T20:56:53Z</time>
      </trkpt>
      <trkpt lat="41.947113" lon="2.551287">
        <ele>350.175</ele>
        <time>2021-05-26T20:56:55Z</time>
      </trkpt>
      <trkpt lat="41.947131" lon="2.551258">
        <ele>350.330</ele>
        <time>2021-05-26T20:56:57Z</time>
      </trkpt>
      <trkpt lat="41.947152" lon="2.551231">
        <ele>350.697</ele>
        <time>2021-05-26T20:56:59Z</time>
      </trkpt>
      <trkpt lat="41.947165" lon="2.551200">
        <ele>350.923</ele>
        <time>2021-05-26T20:57:01Z</time>
      </trkpt>
      <trkpt lat="41.947179" lon="2.551172">
        <ele>351.225</ele>
        <time>2021-05-26T20:57:03Z</time>
      </trkpt>
      <trkpt lat="41.947191" lon="2.551144">
        <ele>351.508</ele>
        <time>2021-05-26T20:57:05Z</time>
      </trkpt>
      <trkpt lat="41.947200" lon="2.551116">
        <ele>351.726</ele>
        <time>2021-05-26T20:57:07Z</time>
      </trkpt>
      <trkpt lat="41.947209" lon="2.551085">
        <ele>352.093</ele>
        <time>2021-05-26T20:57:09Z</time>
      </trkpt>
      <trkpt lat="41.947220" lon="2.551049">
        <ele>352.220</ele>
        <time>2021-05-26T20:57:11Z</time>
      </trkpt>
      <trkpt lat="41.947231" lon="2.551018">
        <ele>352.564</ele>
        <time>2021-05-26T20:57:13Z</time>
      </trkpt>
      <trkpt lat="41.947249" lon="2.550987">
        <ele>352.999</ele>
        <time>2021-05-26T20:57:15Z</time>
      </trkpt>
      <trkpt lat="41.947262" lon="2.550958">
        <ele>353.369</ele>
        <time>2021-05-26T20:57:17Z</time>
      </trkpt>
      <trkpt lat="41.947277" lon="2.550930">
        <ele>353.635</ele>
        <time>2021-05-26T20:57:19Z</time>
      </trkpt>
      <trkpt lat="41.947292" lon="2.550901">
        <ele>354.070</ele>
        <time>2021-05-26T20:57:22Z</time>
      </trkpt>
      <trkpt lat="41.947307" lon="2.550871">
        <ele>354.485</ele>
        <time>2021-05-26T20:57:23Z</time>
      </trkpt>
      <trkpt lat="41.947319" lon="2.550841">
        <ele>354.789</ele>
        <time>2021-05-26T20:57:25Z</time>
      </trkpt>
      <trkpt lat="41.947332" lon="2.550812">
        <ele>354.917</ele>
        <time>2021-05-26T20:57:27Z</time>
      </trkpt>
      <trkpt lat="41.947343" lon="2.550782">
        <ele>355.108</ele>
        <time>2021-05-26T20:57:29Z</time>
      </trkpt>
      <trkpt lat="41.947355" lon="2.550750">
        <ele>355.255</ele>
        <time>2021-05-26T20:57:31Z</time>
      </trkpt>
      <trkpt lat="41.947365" lon="2.550719">
        <ele>355.442</ele>
        <time>2021-05-26T20:57:33Z</time>
      </trkpt>
      <trkpt lat="41.947377" lon="2.550695">
        <ele>355.589</ele>
        <time>2021-05-26T20:57:35Z</time>
      </trkpt>
      <trkpt lat="41.947389" lon="2.550670">
        <ele>355.613</ele>
        <time>2021-05-26T20:57:37Z</time>
      </trkpt>
      <trkpt lat="41.947401" lon="2.550641">
        <ele>355.838</ele>
        <time>2021-05-26T20:57:40Z</time>
      </trkpt>
      <trkpt lat="41.947416" lon="2.550611">
        <ele>355.918</ele>
        <time>2021-05-26T20:57:41Z</time>
      </trkpt>
      <trkpt lat="41.947431" lon="2.550578">
        <ele>356.154</ele>
        <time>2021-05-26T20:57:43Z</time>
      </trkpt>
      <trkpt lat="41.947444" lon="2.550547">
        <ele>356.189</ele>
        <time>2021-05-26T20:57:45Z</time>
      </trkpt>
      <trkpt lat="41.947459" lon="2.550520">
        <ele>356.019</ele>
        <time>2021-05-26T20:57:47Z</time>
      </trkpt>
      <trkpt lat="41.947472" lon="2.550489">
        <ele>355.909</ele>
        <time>2021-05-26T20:57:49Z</time>
      </trkpt>
      <trkpt lat="41.947483" lon="2.550458">
        <ele>355.719</ele>
        <time>2021-05-26T20:57:51Z</time>
      </trkpt>
      <trkpt lat="41.947493" lon="2.550425">
        <ele>355.508</ele>
        <time>2021-05-26T20:57:53Z</time>
      </trkpt>
      <trkpt lat="41.947506" lon="2.550390">
        <ele>355.398</ele>
        <time>2021-05-26T20:57:55Z</time>
      </trkpt>
      <trkpt lat="41.947517" lon="2.550357">
        <ele>355.255</ele>
        <time>2021-05-26T20:57:57Z</time>
      </trkpt>
      <trkpt lat="41.947530" lon="2.550326">
        <ele>355.132</ele>
        <time>2021-05-26T20:57:59Z</time>
      </trkpt>
      <trkpt lat="41.947541" lon="2.550297">
        <ele>354.926</ele>
        <time>2021-05-26T20:58:01Z</time>
      </trkpt>
      <trkpt lat="41.947553" lon="2.550269">
        <ele>354.821</ele>
        <time>2021-05-26T20:58:03Z</time>
      </trkpt>
      <trkpt lat="41.947567" lon="2.550241">
        <ele>354.731</ele>
        <time>2021-05-26T20:58:05Z</time>
      </trkpt>
      <trkpt lat="41.947578" lon="2.550213">
        <ele>354.537</ele>
        <time>2021-05-26T20:58:08Z</time>
      </trkpt>
      <trkpt lat="41.947591" lon="2.550186">
        <ele>354.332</ele>
        <time>2021-05-26T20:58:09Z</time>
      </trkpt>
      <trkpt lat="41.947606" lon="2.550157">
        <ele>354.219</ele>
        <time>2021-05-26T20:58:11Z</time>
      </trkpt>
      <trkpt lat="41.947620" lon="2.550129">
        <ele>354.009</ele>
        <time>2021-05-26T20:58:13Z</time>
      </trkpt>
      <trkpt lat="41.947635" lon="2.550103">
        <ele>353.919</ele>
        <time>2021-05-26T20:58:16Z</time>
      </trkpt>
      <trkpt lat="41.947655" lon="2.550081">
        <ele>354.008</ele>
        <time>2021-05-26T20:58:17Z</time>
      </trkpt>
      <trkpt lat="41.947675" lon="2.550060">
        <ele>354.028</ele>
        <time>2021-05-26T20:58:19Z</time>
      </trkpt>
      <trkpt lat="41.947694" lon="2.550039">
        <ele>354.185</ele>
        <time>2021-05-26T20:58:22Z</time>
      </trkpt>
      <trkpt lat="41.947716" lon="2.550021">
        <ele>354.262</ele>
        <time>2021-05-26T20:58:23Z</time>
      </trkpt>
      <trkpt lat="41.947735" lon="2.550006">
        <ele>354.356</ele>
        <time>2021-05-26T20:58:25Z</time>
      </trkpt>
      <trkpt lat="41.947758" lon="2.549992">
        <ele>354.631</ele>
        <time>2021-05-26T20:58:27Z</time>
      </trkpt>
      <trkpt lat="41.947781" lon="2.549979">
        <ele>354.831</ele>
        <time>2021-05-26T20:58:29Z</time>
      </trkpt>
      <trkpt lat="41.947804" lon="2.549965">
        <ele>355.247</ele>
        <time>2021-05-26T20:58:31Z</time>
      </trkpt>
      <trkpt lat="41.947825" lon="2.549954">
        <ele>355.622</ele>
        <time>2021-05-26T20:58:33Z</time>
      </trkpt>
      <trkpt lat="41.947847" lon="2.549941">
        <ele>355.944</ele>
        <time>2021-05-26T20:58:35Z</time>
      </trkpt>
      <trkpt lat="41.947868" lon="2.549927">
        <ele>356.205</ele>
        <time>2021-05-26T20:58:37Z</time>
      </trkpt>
      <trkpt lat="41.947891" lon="2.549913">
        <ele>356.615</ele>
        <time>2021-05-26T20:58:39Z</time>
      </trkpt>
      <trkpt lat="41.947917" lon="2.549902">
        <ele>357.108</ele>
        <time>2021-05-26T20:58:41Z</time>
      </trkpt>
      <trkpt lat="41.947941" lon="2.549888">
        <ele>357.691</ele>
        <time>2021-05-26T20:58:43Z</time>
      </trkpt>
      <trkpt lat="41.947964" lon="2.549872">
        <ele>357.958</ele>
        <time>2021-05-26T20:58:45Z</time>
      </trkpt>
      <trkpt lat="41.947990" lon="2.549856">
        <ele>358.475</ele>
        <time>2021-05-26T20:58:47Z</time>
      </trkpt>
      <trkpt lat="41.948010" lon="2.549841">
        <ele>358.849</ele>
        <time>2021-05-26T20:58:49Z</time>
      </trkpt>
      <trkpt lat="41.948029" lon="2.549824">
        <ele>359.194</ele>
        <time>2021-05-26T20:58:51Z</time>
      </trkpt>
      <trkpt lat="41.948047" lon="2.549805">
        <ele>359.464</ele>
        <time>2021-05-26T20:58:54Z</time>
      </trkpt>
      <trkpt lat="41.948070" lon="2.549826">
        <ele>360.030</ele>
        <time>2021-05-26T20:59:00Z</time>
      </trkpt>
      <trkpt lat="41.948093" lon="2.549830">
        <ele>360.345</ele>
        <time>2021-05-26T20:59:03Z</time>
      </trkpt>
      <trkpt lat="41.948117" lon="2.549828">
        <ele>360.675</ele>
        <time>2021-05-26T20:59:04Z</time>
      </trkpt>
      <trkpt lat="41.948143" lon="2.549825">
        <ele>361.028</ele>
        <time>2021-05-26T20:59:06Z</time>
      </trkpt>
      <trkpt lat="41.948167" lon="2.549819">
        <ele>361.320</ele>
        <time>2021-05-26T20:59:08Z</time>
      </trkpt>
      <trkpt lat="41.948189" lon="2.549809">
        <ele>361.508</ele>
        <time>2021-05-26T20:59:10Z</time>
      </trkpt>
      <trkpt lat="41.948209" lon="2.549802">
        <ele>361.844</ele>
        <time>2021-05-26T20:59:12Z</time>
      </trkpt>
      <trkpt lat="41.948230" lon="2.549796">
        <ele>362.091</ele>
        <time>2021-05-26T20:59:14Z</time>
      </trkpt>
      <trkpt lat="41.948249" lon="2.549787">
        <ele>362.368</ele>
        <time>2021-05-26T20:59:16Z</time>
      </trkpt>
      <trkpt lat="41.948269" lon="2.549776">
        <ele>362.532</ele>
        <time>2021-05-26T20:59:18Z</time>
      </trkpt>
      <trkpt lat="41.948290" lon="2.549764">
        <ele>362.777</ele>
        <time>2021-05-26T20:59:20Z</time>
      </trkpt>
      <trkpt lat="41.948312" lon="2.549753">
        <ele>362.917</ele>
        <time>2021-05-26T20:59:22Z</time>
      </trkpt>
      <trkpt lat="41.948332" lon="2.549740">
        <ele>363.143</ele>
        <time>2021-05-26T20:59:24Z</time>
      </trkpt>
      <trkpt lat="41.948353" lon="2.549727">
        <ele>363.478</ele>
        <time>2021-05-26T20:59:26Z</time>
      </trkpt>
      <trkpt lat="41.948372" lon="2.549713">
        <ele>363.693</ele>
        <time>2021-05-26T20:59:28Z</time>
      </trkpt>
      <trkpt lat="41.948394" lon="2.549699">
        <ele>363.965</ele>
        <time>2021-05-26T20:59:30Z</time>
      </trkpt>
      <trkpt lat="41.948416" lon="2.549682">
        <ele>364.221</ele>
        <time>2021-05-26T20:59:32Z</time>
      </trkpt>
      <trkpt lat="41.948441" lon="2.549672">
        <ele>364.608</ele>
        <time>2021-05-26T20:59:34Z</time>
      </trkpt>
      <trkpt lat="41.948464" lon="2.549659">
        <ele>365.036</ele>
        <time>2021-05-26T20:59:36Z</time>
      </trkpt>
      <trkpt lat="41.948485" lon="2.549640">
        <ele>365.313</ele>
        <time>2021-05-26T20:59:38Z</time>
      </trkpt>
      <trkpt lat="41.948499" lon="2.549616">
        <ele>365.440</ele>
        <time>2021-05-26T20:59:40Z</time>
      </trkpt>
      <trkpt lat="41.948517" lon="2.549594">
        <ele>365.764</ele>
        <time>2021-05-26T20:59:42Z</time>
      </trkpt>
      <trkpt lat="41.948537" lon="2.549574">
        <ele>366.069</ele>
        <time>2021-05-26T20:59:44Z</time>
      </trkpt>
      <trkpt lat="41.948549" lon="2.549550">
        <ele>366.159</ele>
        <time>2021-05-26T20:59:46Z</time>
      </trkpt>
      <trkpt lat="41.948557" lon="2.549526">
        <ele>366.235</ele>
        <time>2021-05-26T20:59:48Z</time>
      </trkpt>
      <trkpt lat="41.948567" lon="2.549502">
        <ele>366.360</ele>
        <time>2021-05-26T20:59:50Z</time>
      </trkpt>
      <trkpt lat="41.948579" lon="2.549479">
        <ele>366.436</ele>
        <time>2021-05-26T20:59:53Z</time>
      </trkpt>
      <trkpt lat="41.948592" lon="2.549456">
        <ele>366.617</ele>
        <time>2021-05-26T20:59:54Z</time>
      </trkpt>
      <trkpt lat="41.948606" lon="2.549433">
        <ele>366.818</ele>
        <time>2021-05-26T20:59:56Z</time>
      </trkpt>
      <trkpt lat="41.948617" lon="2.549409">
        <ele>366.708</ele>
        <time>2021-05-26T20:59:58Z</time>
      </trkpt>
      <trkpt lat="41.948630" lon="2.549385">
        <ele>366.780</ele>
        <time>2021-05-26T21:00:00Z</time>
      </trkpt>
      <trkpt lat="41.948646" lon="2.549359">
        <ele>366.787</ele>
        <time>2021-05-26T21:00:02Z</time>
      </trkpt>
      <trkpt lat="41.948664" lon="2.549335">
        <ele>366.894</ele>
        <time>2021-05-26T21:00:05Z</time>
      </trkpt>
      <trkpt lat="41.948680" lon="2.549311">
        <ele>366.988</ele>
        <time>2021-05-26T21:00:07Z</time>
      </trkpt>
      <trkpt lat="41.948698" lon="2.549292">
        <ele>367.133</ele>
        <time>2021-05-26T21:00:09Z</time>
      </trkpt>
      <trkpt lat="41.948716" lon="2.549271">
        <ele>367.323</ele>
        <time>2021-05-26T21:00:11Z</time>
      </trkpt>
      <trkpt lat="41.948731" lon="2.549249">
        <ele>367.419</ele>
        <time>2021-05-26T21:00:12Z</time>
      </trkpt>
      <trkpt lat="41.948744" lon="2.549226">
        <ele>367.464</ele>
        <time>2021-05-26T21:00:14Z</time>
      </trkpt>
      <trkpt lat="41.948756" lon="2.549203">
        <ele>367.527</ele>
        <time>2021-05-26T21:00:16Z</time>
      </trkpt>
      <trkpt lat="41.948766" lon="2.549180">
        <ele>367.568</ele>
        <time>2021-05-26T21:00:18Z</time>
      </trkpt>
      <trkpt lat="41.948777" lon="2.549158">
        <ele>367.514</ele>
        <time>2021-05-26T21:00:20Z</time>
      </trkpt>
      <trkpt lat="41.948787" lon="2.549138">
        <ele>367.508</ele>
        <time>2021-05-26T21:00:22Z</time>
      </trkpt>
      <trkpt lat="41.948799" lon="2.549115">
        <ele>367.559</ele>
        <time>2021-05-26T21:00:24Z</time>
      </trkpt>
      <trkpt lat="41.948807" lon="2.549091">
        <ele>367.476</ele>
        <time>2021-05-26T21:00:26Z</time>
      </trkpt>
      <trkpt lat="41.948817" lon="2.549070">
        <ele>367.463</ele>
        <time>2021-05-26T21:00:29Z</time>
      </trkpt>
      <trkpt lat="41.948826" lon="2.549049">
        <ele>367.477</ele>
        <time>2021-05-26T21:00:30Z</time>
      </trkpt>
      <trkpt lat="41.948844" lon="2.549028">
        <ele>367.582</ele>
        <time>2021-05-26T21:00:33Z</time>
      </trkpt>
      <trkpt lat="41.948862" lon="2.549005">
        <ele>367.722</ele>
        <time>2021-05-26T21:00:35Z</time>
      </trkpt>
      <trkpt lat="41.948874" lon="2.548981">
        <ele>367.768</ele>
        <time>2021-05-26T21:00:37Z</time>
      </trkpt>
      <trkpt lat="41.948890" lon="2.548960">
        <ele>367.843</ele>
        <time>2021-05-26T21:00:39Z</time>
      </trkpt>
      <trkpt lat="41.948906" lon="2.548939">
        <ele>367.882</ele>
        <time>2021-05-26T21:00:41Z</time>
      </trkpt>
      <trkpt lat="41.948926" lon="2.548920">
        <ele>368.043</ele>
        <time>2021-05-26T21:00:43Z</time>
      </trkpt>
      <trkpt lat="41.948950" lon="2.548906">
        <ele>368.317</ele>
        <time>2021-05-26T21:00:45Z</time>
      </trkpt>
      <trkpt lat="41.948974" lon="2.548890">
        <ele>368.508</ele>
        <time>2021-05-26T21:00:47Z</time>
      </trkpt>
      <trkpt lat="41.948993" lon="2.548868">
        <ele>368.685</ele>
        <time>2021-05-26T21:00:49Z</time>
      </trkpt>
      <trkpt lat="41.949018" lon="2.548844">
        <ele>368.782</ele>
        <time>2021-05-26T21:00:50Z</time>
      </trkpt>
      <trkpt lat="41.949044" lon="2.548829">
        <ele>368.919</ele>
        <time>2021-05-26T21:00:52Z</time>
      </trkpt>
      <trkpt lat="41.949069" lon="2.548813">
        <ele>369.153</ele>
        <time>2021-05-26T21:00:54Z</time>
      </trkpt>
      <trkpt lat="41.949092" lon="2.548802">
        <ele>369.498</ele>
        <time>2021-05-26T21:00:56Z</time>
      </trkpt>
      <trkpt lat="41.949110" lon="2.548790">
        <ele>369.688</ele>
        <time>2021-05-26T21:00:58Z</time>
      </trkpt>
      <trkpt lat="41.949132" lon="2.548773">
        <ele>369.764</ele>
        <time>2021-05-26T21:01:00Z</time>
      </trkpt>
      <trkpt lat="41.949152" lon="2.548752">
        <ele>369.819</ele>
        <time>2021-05-26T21:01:02Z</time>
      </trkpt>
      <trkpt lat="41.949172" lon="2.548731">
        <ele>369.976</ele>
        <time>2021-05-26T21:01:04Z</time>
      </trkpt>
      <trkpt lat="41.949193" lon="2.548708">
        <ele>370.490</ele>
        <time>2021-05-26T21:01:06Z</time>
      </trkpt>
      <trkpt lat="41.949212" lon="2.548685">
        <ele>370.719</ele>
        <time>2021-05-26T21:01:08Z</time>
      </trkpt>
      <trkpt lat="41.949233" lon="2.548664">
        <ele>371.208</ele>
        <time>2021-05-26T21:01:10Z</time>
      </trkpt>
      <trkpt lat="41.949254" lon="2.548646">
        <ele>371.724</ele>
        <time>2021-05-26T21:01:12Z</time>
      </trkpt>
      <trkpt lat="41.949277" lon="2.548618">
        <ele>372.111</ele>
        <time>2021-05-26T21:01:14Z</time>
      </trkpt>
      <trkpt lat="41.949290" lon="2.548600">
        <ele>372.328</ele>
        <time>2021-05-26T21:01:15Z</time>
      </trkpt>
      <trkpt lat="41.949303" lon="2.548577">
        <ele>372.412</ele>
        <time>2021-05-26T21:01:16Z</time>
      </trkpt>
      <trkpt lat="41.949314" lon="2.548556">
        <ele>372.427</ele>
        <time>2021-05-26T21:01:17Z</time>
      </trkpt>
      <trkpt lat="41.949329" lon="2.548537">
        <ele>372.667</ele>
        <time>2021-05-26T21:01:18Z</time>
      </trkpt>
      <trkpt lat="41.949341" lon="2.548517">
        <ele>372.713</ele>
        <time>2021-05-26T21:01:19Z</time>
      </trkpt>
      <trkpt lat="41.949356" lon="2.548497">
        <ele>372.968</ele>
        <time>2021-05-26T21:01:20Z</time>
      </trkpt>
      <trkpt lat="41.949374" lon="2.548479">
        <ele>373.233</ele>
        <time>2021-05-26T21:01:21Z</time>
      </trkpt>
      <trkpt lat="41.949394" lon="2.548462">
        <ele>373.623</ele>
        <time>2021-05-26T21:01:22Z</time>
      </trkpt>
      <trkpt lat="41.949406" lon="2.548438">
        <ele>373.615</ele>
        <time>2021-05-26T21:01:23Z</time>
      </trkpt>
      <trkpt lat="41.949422" lon="2.548416">
        <ele>373.708</ele>
        <time>2021-05-26T21:01:24Z</time>
      </trkpt>
      <trkpt lat="41.949440" lon="2.548397">
        <ele>374.070</ele>
        <time>2021-05-26T21:01:25Z</time>
      </trkpt>
      <trkpt lat="41.949462" lon="2.548383">
        <ele>374.627</ele>
        <time>2021-05-26T21:01:26Z</time>
      </trkpt>
      <trkpt lat="41.949546" lon="2.548282">
        <ele>375.784</ele>
        <time>2021-05-26T21:01:31Z</time>
      </trkpt>
      <trkpt lat="41.949624" lon="2.548201">
        <ele>376.368</ele>
        <time>2021-05-26T21:01:36Z</time>
      </trkpt>
      <trkpt lat="41.949697" lon="2.548107">
        <ele>375.943</ele>
        <time>2021-05-26T21:01:41Z</time>
      </trkpt>
      <trkpt lat="41.949785" lon="2.548047">
        <ele>377.333</ele>
        <time>2021-05-26T21:01:46Z</time>
      </trkpt>
      <trkpt lat="41.949879" lon="2.547979">
        <ele>379.279</ele>
        <time>2021-05-26T21:01:52Z</time>
      </trkpt>
      <trkpt lat="41.949955" lon="2.547904">
        <ele>380.014</ele>
        <time>2021-05-26T21:01:56Z</time>
      </trkpt>
      <trkpt lat="41.950014" lon="2.547776">
        <ele>378.369</ele>
        <time>2021-05-26T21:02:01Z</time>
      </trkpt>
      <trkpt lat="41.950070" lon="2.547648">
        <ele>376.104</ele>
        <time>2021-05-26T21:02:07Z</time>
      </trkpt>
      <trkpt lat="41.950127" lon="2.547550">
        <ele>374.624</ele>
        <time>2021-05-26T21:02:10Z</time>
      </trkpt>
      <trkpt lat="41.950164" lon="2.547425">
        <ele>371.908</ele>
        <time>2021-05-26T21:02:14Z</time>
      </trkpt>
      <trkpt lat="41.950220" lon="2.547327">
        <ele>370.133</ele>
        <time>2021-05-26T21:02:18Z</time>
      </trkpt>
      <trkpt lat="41.950313" lon="2.547273">
        <ele>370.360</ele>
        <time>2021-05-26T21:02:23Z</time>
      </trkpt>
      <trkpt lat="41.950408" lon="2.547279">
        <ele>372.567</ele>
        <time>2021-05-26T21:02:29Z</time>
      </trkpt>
      <trkpt lat="41.950447" lon="2.547291">
        <ele>373.671</ele>
        <time>2021-05-26T21:02:30Z</time>
      </trkpt>
      <trkpt lat="41.950471" lon="2.547300">
        <ele>374.376</ele>
        <time>2021-05-26T21:02:31Z</time>
      </trkpt>
      <trkpt lat="41.950574" lon="2.547340">
        <ele>377.036</ele>
        <time>2021-05-26T21:02:37Z</time>
      </trkpt>
      <trkpt lat="41.950666" lon="2.547347">
        <ele>378.812</ele>
        <time>2021-05-26T21:02:41Z</time>
      </trkpt>
      <trkpt lat="41.950703" lon="2.547310">
        <ele>379.197</ele>
        <time>2021-05-26T21:02:42Z</time>
      </trkpt>
      <trkpt lat="41.950715" lon="2.547289">
        <ele>379.112</ele>
        <time>2021-05-26T21:02:43Z</time>
      </trkpt>
      <trkpt lat="41.950723" lon="2.547265">
        <ele>379.032</ele>
        <time>2021-05-26T21:02:45Z</time>
      </trkpt>
      <trkpt lat="41.950731" lon="2.547242">
        <ele>379.005</ele>
        <time>2021-05-26T21:02:46Z</time>
      </trkpt>
      <trkpt lat="41.950736" lon="2.547205">
        <ele>378.808</ele>
        <time>2021-05-26T21:02:47Z</time>
      </trkpt>
      <trkpt lat="41.950737" lon="2.547170">
        <ele>378.588</ele>
        <time>2021-05-26T21:02:49Z</time>
      </trkpt>
      <trkpt lat="41.950738" lon="2.547137">
        <ele>378.215</ele>
        <time>2021-05-26T21:02:51Z</time>
      </trkpt>
      <trkpt lat="41.950741" lon="2.547098">
        <ele>378.092</ele>
        <time>2021-05-26T21:02:53Z</time>
      </trkpt>
      <trkpt lat="41.950739" lon="2.547058">
        <ele>377.626</ele>
        <time>2021-05-26T21:02:55Z</time>
      </trkpt>
      <trkpt lat="41.950736" lon="2.547019">
        <ele>377.281</ele>
        <time>2021-05-26T21:02:57Z</time>
      </trkpt>
      <trkpt lat="41.950732" lon="2.546970">
        <ele>376.771</ele>
        <time>2021-05-26T21:02:59Z</time>
      </trkpt>
      <trkpt lat="41.950731" lon="2.546929">
        <ele>376.377</ele>
        <time>2021-05-26T21:03:01Z</time>
      </trkpt>
      <trkpt lat="41.950733" lon="2.546888">
        <ele>376.052</ele>
        <time>2021-05-26T21:03:03Z</time>
      </trkpt>
      <trkpt lat="41.950739" lon="2.546851">
        <ele>375.842</ele>
        <time>2021-05-26T21:03:05Z</time>
      </trkpt>
      <trkpt lat="41.950740" lon="2.546809">
        <ele>375.522</ele>
        <time>2021-05-26T21:03:07Z</time>
      </trkpt>
      <trkpt lat="41.950741" lon="2.546772">
        <ele>375.214</ele>
        <time>2021-05-26T21:03:09Z</time>
      </trkpt>
      <trkpt lat="41.950743" lon="2.546741">
        <ele>375.008</ele>
        <time>2021-05-26T21:03:11Z</time>
      </trkpt>
      <trkpt lat="41.950749" lon="2.546708">
        <ele>374.991</ele>
        <time>2021-05-26T21:03:13Z</time>
      </trkpt>
      <trkpt lat="41.950756" lon="2.546675">
        <ele>374.868</ele>
        <time>2021-05-26T21:03:15Z</time>
      </trkpt>
      <trkpt lat="41.950764" lon="2.546643">
        <ele>374.695</ele>
        <time>2021-05-26T21:03:17Z</time>
      </trkpt>
      <trkpt lat="41.950774" lon="2.546611">
        <ele>374.339</ele>
        <time>2021-05-26T21:03:19Z</time>
      </trkpt>
      <trkpt lat="41.950792" lon="2.546573">
        <ele>374.134</ele>
        <time>2021-05-26T21:03:22Z</time>
      </trkpt>
      <trkpt lat="41.950808" lon="2.546551">
        <ele>374.274</ele>
        <time>2021-05-26T21:03:24Z</time>
      </trkpt>
      <trkpt lat="41.950824" lon="2.546528">
        <ele>374.290</ele>
        <time>2021-05-26T21:03:26Z</time>
      </trkpt>
      <trkpt lat="41.950840" lon="2.546507">
        <ele>374.345</ele>
        <time>2021-05-26T21:03:28Z</time>
      </trkpt>
      <trkpt lat="41.950855" lon="2.546487">
        <ele>374.373</ele>
        <time>2021-05-26T21:03:30Z</time>
      </trkpt>
      <trkpt lat="41.950867" lon="2.546463">
        <ele>374.285</ele>
        <time>2021-05-26T21:03:33Z</time>
      </trkpt>
      <trkpt lat="41.950877" lon="2.546432">
        <ele>373.913</ele>
        <time>2021-05-26T21:03:34Z</time>
      </trkpt>
      <trkpt lat="41.950890" lon="2.546405">
        <ele>373.708</ele>
        <time>2021-05-26T21:03:36Z</time>
      </trkpt>
      <trkpt lat="41.950906" lon="2.546346">
        <ele>372.714</ele>
        <time>2021-05-26T21:03:39Z</time>
      </trkpt>
      <trkpt lat="41.950922" lon="2.546314">
        <ele>372.341</ele>
        <time>2021-05-26T21:03:42Z</time>
      </trkpt>
      <trkpt lat="41.950939" lon="2.546285">
        <ele>372.148</ele>
        <time>2021-05-26T21:03:44Z</time>
      </trkpt>
      <trkpt lat="41.950956" lon="2.546263">
        <ele>372.142</ele>
        <time>2021-05-26T21:03:46Z</time>
      </trkpt>
      <trkpt lat="41.950973" lon="2.546236">
        <ele>371.987</ele>
        <time>2021-05-26T21:03:48Z</time>
      </trkpt>
      <trkpt lat="41.950986" lon="2.546206">
        <ele>371.747</ele>
        <time>2021-05-26T21:03:50Z</time>
      </trkpt>
      <trkpt lat="41.951005" lon="2.546178">
        <ele>371.793</ele>
        <time>2021-05-26T21:03:52Z</time>
      </trkpt>
      <trkpt lat="41.951024" lon="2.546152">
        <ele>371.798</ele>
        <time>2021-05-26T21:03:54Z</time>
      </trkpt>
      <trkpt lat="41.951049" lon="2.546135">
        <ele>372.372</ele>
        <time>2021-05-26T21:03:56Z</time>
      </trkpt>
      <trkpt lat="41.951076" lon="2.546118">
        <ele>372.913</ele>
        <time>2021-05-26T21:03:58Z</time>
      </trkpt>
      <trkpt lat="41.951098" lon="2.546091">
        <ele>373.114</ele>
        <time>2021-05-26T21:03:59Z</time>
      </trkpt>
      <trkpt lat="41.951122" lon="2.546067">
        <ele>373.408</ele>
        <time>2021-05-26T21:04:01Z</time>
      </trkpt>
      <trkpt lat="41.951142" lon="2.546032">
        <ele>373.494</ele>
        <time>2021-05-26T21:04:03Z</time>
      </trkpt>
      <trkpt lat="41.951156" lon="2.546004">
        <ele>373.371</ele>
        <time>2021-05-26T21:04:05Z</time>
      </trkpt>
      <trkpt lat="41.951170" lon="2.545978">
        <ele>373.228</ele>
        <time>2021-05-26T21:04:07Z</time>
      </trkpt>
      <trkpt lat="41.951192" lon="2.545947">
        <ele>373.482</ele>
        <time>2021-05-26T21:04:09Z</time>
      </trkpt>
      <trkpt lat="41.951209" lon="2.545918">
        <ele>373.517</ele>
        <time>2021-05-26T21:04:11Z</time>
      </trkpt>
      <trkpt lat="41.951228" lon="2.545889">
        <ele>373.777</ele>
        <time>2021-05-26T21:04:13Z</time>
      </trkpt>
      <trkpt lat="41.951249" lon="2.545863">
        <ele>374.063</ele>
        <time>2021-05-26T21:04:15Z</time>
      </trkpt>
      <trkpt lat="41.951266" lon="2.545840">
        <ele>374.388</ele>
        <time>2021-05-26T21:04:17Z</time>
      </trkpt>
      <trkpt lat="41.951281" lon="2.545818">
        <ele>374.449</ele>
        <time>2021-05-26T21:04:19Z</time>
      </trkpt>
      <trkpt lat="41.951309" lon="2.545777">
        <ele>374.702</ele>
        <time>2021-05-26T21:04:23Z</time>
      </trkpt>
      <trkpt lat="41.951322" lon="2.545744">
        <ele>374.622</ele>
        <time>2021-05-26T21:04:25Z</time>
      </trkpt>
      <trkpt lat="41.951335" lon="2.545710">
        <ele>374.508</ele>
        <time>2021-05-26T21:04:27Z</time>
      </trkpt>
      <trkpt lat="41.951350" lon="2.545681">
        <ele>374.691</ele>
        <time>2021-05-26T21:04:28Z</time>
      </trkpt>
      <trkpt lat="41.951358" lon="2.545650">
        <ele>374.368</ele>
        <time>2021-05-26T21:04:30Z</time>
      </trkpt>
      <trkpt lat="41.951378" lon="2.545623">
        <ele>374.745</ele>
        <time>2021-05-26T21:04:32Z</time>
      </trkpt>
      <trkpt lat="41.951390" lon="2.545597">
        <ele>374.899</ele>
        <time>2021-05-26T21:04:34Z</time>
      </trkpt>
      <trkpt lat="41.951406" lon="2.545569">
        <ele>375.034</ele>
        <time>2021-05-26T21:04:36Z</time>
      </trkpt>
      <trkpt lat="41.951433" lon="2.545489">
        <ele>374.954</ele>
        <time>2021-05-26T21:04:40Z</time>
      </trkpt>
      <trkpt lat="41.951446" lon="2.545458">
        <ele>375.110</ele>
        <time>2021-05-26T21:04:42Z</time>
      </trkpt>
      <trkpt lat="41.951468" lon="2.545383">
        <ele>374.985</ele>
        <time>2021-05-26T21:04:47Z</time>
      </trkpt>
      <trkpt lat="41.951476" lon="2.545352">
        <ele>374.988</ele>
        <time>2021-05-26T21:04:49Z</time>
      </trkpt>
      <trkpt lat="41.951486" lon="2.545321">
        <ele>374.924</ele>
        <time>2021-05-26T21:04:51Z</time>
      </trkpt>
      <trkpt lat="41.951490" lon="2.545282">
        <ele>374.526</ele>
        <time>2021-05-26T21:04:53Z</time>
      </trkpt>
      <trkpt lat="41.951494" lon="2.545251">
        <ele>374.408</ele>
        <time>2021-05-26T21:04:55Z</time>
      </trkpt>
      <trkpt lat="41.951505" lon="2.545231">
        <ele>374.835</ele>
        <time>2021-05-26T21:04:57Z</time>
      </trkpt>
      <trkpt lat="41.951516" lon="2.545202">
        <ele>375.122</ele>
        <time>2021-05-26T21:04:59Z</time>
      </trkpt>
      <trkpt lat="41.951530" lon="2.545167">
        <ele>375.499</ele>
        <time>2021-05-26T21:05:01Z</time>
      </trkpt>
      <trkpt lat="41.951542" lon="2.545140">
        <ele>375.713</ele>
        <time>2021-05-26T21:05:03Z</time>
      </trkpt>
      <trkpt lat="41.951561" lon="2.545118">
        <ele>376.448</ele>
        <time>2021-05-26T21:05:05Z</time>
      </trkpt>
      <trkpt lat="41.951576" lon="2.545092">
        <ele>376.978</ele>
        <time>2021-05-26T21:05:07Z</time>
      </trkpt>
      <trkpt lat="41.951592" lon="2.545065">
        <ele>377.354</ele>
        <time>2021-05-26T21:05:09Z</time>
      </trkpt>
      <trkpt lat="41.951607" lon="2.545038">
        <ele>377.799</ele>
        <time>2021-05-26T21:05:11Z</time>
      </trkpt>
      <trkpt lat="41.951625" lon="2.545017">
        <ele>378.386</ele>
        <time>2021-05-26T21:05:13Z</time>
      </trkpt>
      <trkpt lat="41.951646" lon="2.545001">
        <ele>379.060</ele>
        <time>2021-05-26T21:05:15Z</time>
      </trkpt>
      <trkpt lat="41.951664" lon="2.544988">
        <ele>379.826</ele>
        <time>2021-05-26T21:05:17Z</time>
      </trkpt>
      <trkpt lat="41.951682" lon="2.544973">
        <ele>380.208</ele>
        <time>2021-05-26T21:05:19Z</time>
      </trkpt>
      <trkpt lat="41.951697" lon="2.544957">
        <ele>380.645</ele>
        <time>2021-05-26T21:05:21Z</time>
      </trkpt>
      <trkpt lat="41.951715" lon="2.544943">
        <ele>381.052</ele>
        <time>2021-05-26T21:05:23Z</time>
      </trkpt>
      <trkpt lat="41.951737" lon="2.544934">
        <ele>381.669</ele>
        <time>2021-05-26T21:05:25Z</time>
      </trkpt>
      <trkpt lat="41.951758" lon="2.544928">
        <ele>382.133</ele>
        <time>2021-05-26T21:05:27Z</time>
      </trkpt>
      <trkpt lat="41.951781" lon="2.544912">
        <ele>382.728</ele>
        <time>2021-05-26T21:05:29Z</time>
      </trkpt>
      <trkpt lat="41.951799" lon="2.544888">
        <ele>383.038</ele>
        <time>2021-05-26T21:05:31Z</time>
      </trkpt>
      <trkpt lat="41.951807" lon="2.544853">
        <ele>383.044</ele>
        <time>2021-05-26T21:05:33Z</time>
      </trkpt>
      <trkpt lat="41.951809" lon="2.544816">
        <ele>382.899</ele>
        <time>2021-05-26T21:05:35Z</time>
      </trkpt>
      <trkpt lat="41.951801" lon="2.544787">
        <ele>382.341</ele>
        <time>2021-05-26T21:05:37Z</time>
      </trkpt>
      <trkpt lat="41.951791" lon="2.544757">
        <ele>381.881</ele>
        <time>2021-05-26T21:05:39Z</time>
      </trkpt>
      <trkpt lat="41.951782" lon="2.544725">
        <ele>381.309</ele>
        <time>2021-05-26T21:05:41Z</time>
      </trkpt>
      <trkpt lat="41.951776" lon="2.544689">
        <ele>380.908</ele>
        <time>2021-05-26T21:05:43Z</time>
      </trkpt>
      <trkpt lat="41.951771" lon="2.544657">
        <ele>380.541</ele>
        <time>2021-05-26T21:05:45Z</time>
      </trkpt>
      <trkpt lat="41.951777" lon="2.544623">
        <ele>380.468</ele>
        <time>2021-05-26T21:05:47Z</time>
      </trkpt>
      <trkpt lat="41.951790" lon="2.544595">
        <ele>380.685</ele>
        <time>2021-05-26T21:05:49Z</time>
      </trkpt>
      <trkpt lat="41.951808" lon="2.544576">
        <ele>381.049</ele>
        <time>2021-05-26T21:05:51Z</time>
      </trkpt>
      <trkpt lat="41.951826" lon="2.544560">
        <ele>381.594</ele>
        <time>2021-05-26T21:05:53Z</time>
      </trkpt>
      <trkpt lat="41.951844" lon="2.544545">
        <ele>382.084</ele>
        <time>2021-05-26T21:05:55Z</time>
      </trkpt>
      <trkpt lat="41.951869" lon="2.544536">
        <ele>382.810</ele>
        <time>2021-05-26T21:05:58Z</time>
      </trkpt>
      <trkpt lat="41.951887" lon="2.544533">
        <ele>383.485</ele>
        <time>2021-05-26T21:06:00Z</time>
      </trkpt>
      <trkpt lat="41.951915" lon="2.544522">
        <ele>384.321</ele>
        <time>2021-05-26T21:06:03Z</time>
      </trkpt>
      <trkpt lat="41.951944" lon="2.544524">
        <ele>385.341</ele>
        <time>2021-05-26T21:06:05Z</time>
      </trkpt>
      <trkpt lat="41.951968" lon="2.544521">
        <ele>385.705</ele>
        <time>2021-05-26T21:06:07Z</time>
      </trkpt>
      <trkpt lat="41.951989" lon="2.544522">
        <ele>386.108</ele>
        <time>2021-05-26T21:06:09Z</time>
      </trkpt>
      <trkpt lat="41.952013" lon="2.544521">
        <ele>386.599</ele>
        <time>2021-05-26T21:06:11Z</time>
      </trkpt>
      <trkpt lat="41.952039" lon="2.544518">
        <ele>387.076</ele>
        <time>2021-05-26T21:06:13Z</time>
      </trkpt>
      <trkpt lat="41.952061" lon="2.544512">
        <ele>387.383</ele>
        <time>2021-05-26T21:06:15Z</time>
      </trkpt>
      <trkpt lat="41.952080" lon="2.544510">
        <ele>387.767</ele>
        <time>2021-05-26T21:06:17Z</time>
      </trkpt>
      <trkpt lat="41.952100" lon="2.544508">
        <ele>388.062</ele>
        <time>2021-05-26T21:06:19Z</time>
      </trkpt>
      <trkpt lat="41.952125" lon="2.544498">
        <ele>388.422</ele>
        <time>2021-05-26T21:06:22Z</time>
      </trkpt>
      <trkpt lat="41.952143" lon="2.544492">
        <ele>388.798</ele>
        <time>2021-05-26T21:06:25Z</time>
      </trkpt>
      <trkpt lat="41.952166" lon="2.544489">
        <ele>389.193</ele>
        <time>2021-05-26T21:06:26Z</time>
      </trkpt>
      <trkpt lat="41.952188" lon="2.544480">
        <ele>389.529</ele>
        <time>2021-05-26T21:06:28Z</time>
      </trkpt>
      <trkpt lat="41.952212" lon="2.544465">
        <ele>389.900</ele>
        <time>2021-05-26T21:06:31Z</time>
      </trkpt>
      <trkpt lat="41.952234" lon="2.544459">
        <ele>390.320</ele>
        <time>2021-05-26T21:06:34Z</time>
      </trkpt>
      <trkpt lat="41.952260" lon="2.544461">
        <ele>390.908</ele>
        <time>2021-05-26T21:06:37Z</time>
      </trkpt>
      <trkpt lat="41.952284" lon="2.544468">
        <ele>391.439</ele>
        <time>2021-05-26T21:06:39Z</time>
      </trkpt>
      <trkpt lat="41.952308" lon="2.544467">
        <ele>391.916</ele>
        <time>2021-05-26T21:06:41Z</time>
      </trkpt>
      <trkpt lat="41.952330" lon="2.544475">
        <ele>392.463</ele>
        <time>2021-05-26T21:06:43Z</time>
      </trkpt>
      <trkpt lat="41.952352" lon="2.544479">
        <ele>392.957</ele>
        <time>2021-05-26T21:06:45Z</time>
      </trkpt>
      <trkpt lat="41.952372" lon="2.544485">
        <ele>393.362</ele>
        <time>2021-05-26T21:06:47Z</time>
      </trkpt>
      <trkpt lat="41.952390" lon="2.544490">
        <ele>393.742</ele>
        <time>2021-05-26T21:06:49Z</time>
      </trkpt>
      <trkpt lat="41.952410" lon="2.544500">
        <ele>394.198</ele>
        <time>2021-05-26T21:06:51Z</time>
      </trkpt>
      <trkpt lat="41.952433" lon="2.544506">
        <ele>394.633</ele>
        <time>2021-05-26T21:06:53Z</time>
      </trkpt>
      <trkpt lat="41.952455" lon="2.544520">
        <ele>395.184</ele>
        <time>2021-05-26T21:06:55Z</time>
      </trkpt>
      <trkpt lat="41.952477" lon="2.544528">
        <ele>395.507</ele>
        <time>2021-05-26T21:06:57Z</time>
      </trkpt>
      <trkpt lat="41.952502" lon="2.544536">
        <ele>396.017</ele>
        <time>2021-05-26T21:06:59Z</time>
      </trkpt>
      <trkpt lat="41.952529" lon="2.544544">
        <ele>396.408</ele>
        <time>2021-05-26T21:07:01Z</time>
      </trkpt>
      <trkpt lat="41.952552" lon="2.544551">
        <ele>396.765</ele>
        <time>2021-05-26T21:07:03Z</time>
      </trkpt>
      <trkpt lat="41.952576" lon="2.544558">
        <ele>397.042</ele>
        <time>2021-05-26T21:07:05Z</time>
      </trkpt>
      <trkpt lat="41.952601" lon="2.544560">
        <ele>397.349</ele>
        <time>2021-05-26T21:07:07Z</time>
      </trkpt>
      <trkpt lat="41.952626" lon="2.544558">
        <ele>397.643</ele>
        <time>2021-05-26T21:07:09Z</time>
      </trkpt>
      <trkpt lat="41.952648" lon="2.544550">
        <ele>397.968</ele>
        <time>2021-05-26T21:07:11Z</time>
      </trkpt>
      <trkpt lat="41.952673" lon="2.544551">
        <ele>398.398</ele>
        <time>2021-05-26T21:07:13Z</time>
      </trkpt>
      <trkpt lat="41.952696" lon="2.544551">
        <ele>398.654</ele>
        <time>2021-05-26T21:07:15Z</time>
      </trkpt>
      <trkpt lat="41.952717" lon="2.544552">
        <ele>398.889</ele>
        <time>2021-05-26T21:07:19Z</time>
      </trkpt>
      <trkpt lat="41.952746" lon="2.544560">
        <ele>399.219</ele>
        <time>2021-05-26T21:07:21Z</time>
      </trkpt>
      <trkpt lat="41.952769" lon="2.544562">
        <ele>399.509</ele>
        <time>2021-05-26T21:07:23Z</time>
      </trkpt>
      <trkpt lat="41.952795" lon="2.544561">
        <ele>399.819</ele>
        <time>2021-05-26T21:07:25Z</time>
      </trkpt>
      <trkpt lat="41.952819" lon="2.544564">
        <ele>400.008</ele>
        <time>2021-05-26T21:07:27Z</time>
      </trkpt>
      <trkpt lat="41.952838" lon="2.544562">
        <ele>400.248</ele>
        <time>2021-05-26T21:07:29Z</time>
      </trkpt>
      <trkpt lat="41.952865" lon="2.544564">
        <ele>400.585</ele>
        <time>2021-05-26T21:07:32Z</time>
      </trkpt>
      <trkpt lat="41.952891" lon="2.544562">
        <ele>400.782</ele>
        <time>2021-05-26T21:07:34Z</time>
      </trkpt>
      <trkpt lat="41.952918" lon="2.544563">
        <ele>401.036</ele>
        <time>2021-05-26T21:07:36Z</time>
      </trkpt>
      <trkpt lat="41.952940" lon="2.544563">
        <ele>401.261</ele>
        <time>2021-05-26T21:07:38Z</time>
      </trkpt>
      <trkpt lat="41.952962" lon="2.544565">
        <ele>401.541</ele>
        <time>2021-05-26T21:07:40Z</time>
      </trkpt>
      <trkpt lat="41.952990" lon="2.544574">
        <ele>401.847</ele>
        <time>2021-05-26T21:07:42Z</time>
      </trkpt>
      <trkpt lat="41.953015" lon="2.544582">
        <ele>402.162</ele>
        <time>2021-05-26T21:07:44Z</time>
      </trkpt>
      <trkpt lat="41.953040" lon="2.544591">
        <ele>402.496</ele>
        <time>2021-05-26T21:07:46Z</time>
      </trkpt>
      <trkpt lat="41.953059" lon="2.544595">
        <ele>402.631</ele>
        <time>2021-05-26T21:07:48Z</time>
      </trkpt>
      <trkpt lat="41.953082" lon="2.544604">
        <ele>403.124</ele>
        <time>2021-05-26T21:07:50Z</time>
      </trkpt>
      <trkpt lat="41.953103" lon="2.544605">
        <ele>403.508</ele>
        <time>2021-05-26T21:07:53Z</time>
      </trkpt>
      <trkpt lat="41.953125" lon="2.544605">
        <ele>404.066</ele>
        <time>2021-05-26T21:07:55Z</time>
      </trkpt>
      <trkpt lat="41.953146" lon="2.544612">
        <ele>404.483</ele>
        <time>2021-05-26T21:07:57Z</time>
      </trkpt>
      <trkpt lat="41.953172" lon="2.544625">
        <ele>405.090</ele>
        <time>2021-05-26T21:07:59Z</time>
      </trkpt>
      <trkpt lat="41.953198" lon="2.544640">
        <ele>405.654</ele>
        <time>2021-05-26T21:08:01Z</time>
      </trkpt>
      <trkpt lat="41.953217" lon="2.544647">
        <ele>406.149</ele>
        <time>2021-05-26T21:08:03Z</time>
      </trkpt>
      <trkpt lat="41.953235" lon="2.544656">
        <ele>406.599</ele>
        <time>2021-05-26T21:08:05Z</time>
      </trkpt>
      <trkpt lat="41.953256" lon="2.544674">
        <ele>407.075</ele>
        <time>2021-05-26T21:08:06Z</time>
      </trkpt>
      <trkpt lat="41.953274" lon="2.544689">
        <ele>407.540</ele>
        <time>2021-05-26T21:08:08Z</time>
      </trkpt>
      <trkpt lat="41.953295" lon="2.544696">
        <ele>408.028</ele>
        <time>2021-05-26T21:08:10Z</time>
      </trkpt>
      <trkpt lat="41.953320" lon="2.544703">
        <ele>408.689</ele>
        <time>2021-05-26T21:08:12Z</time>
      </trkpt>
      <trkpt lat="41.953341" lon="2.544702">
        <ele>409.117</ele>
        <time>2021-05-26T21:08:15Z</time>
      </trkpt>
      <trkpt lat="41.953361" lon="2.544710">
        <ele>409.808</ele>
        <time>2021-05-26T21:08:16Z</time>
      </trkpt>
      <trkpt lat="41.953386" lon="2.544716">
        <ele>410.799</ele>
        <time>2021-05-26T21:08:18Z</time>
      </trkpt>
      <trkpt lat="41.953413" lon="2.544723">
        <ele>411.676</ele>
        <time>2021-05-26T21:08:21Z</time>
      </trkpt>
      <trkpt lat="41.953436" lon="2.544731">
        <ele>412.463</ele>
        <time>2021-05-26T21:08:24Z</time>
      </trkpt>
      <trkpt lat="41.953453" lon="2.544740">
        <ele>413.187</ele>
        <time>2021-05-26T21:08:26Z</time>
      </trkpt>
      <trkpt lat="41.953470" lon="2.544761">
        <ele>413.952</ele>
        <time>2021-05-26T21:08:28Z</time>
      </trkpt>
      <trkpt lat="41.953490" lon="2.544773">
        <ele>414.712</ele>
        <time>2021-05-26T21:08:30Z</time>
      </trkpt>
      <trkpt lat="41.953514" lon="2.544773">
        <ele>415.548</ele>
        <time>2021-05-26T21:08:33Z</time>
      </trkpt>
      <trkpt lat="41.953541" lon="2.544770">
        <ele>416.443</ele>
        <time>2021-05-26T21:08:36Z</time>
      </trkpt>
      <trkpt lat="41.953564" lon="2.544770">
        <ele>417.129</ele>
        <time>2021-05-26T21:08:38Z</time>
      </trkpt>
      <trkpt lat="41.953588" lon="2.544772">
        <ele>418.000</ele>
        <time>2021-05-26T21:08:40Z</time>
      </trkpt>
      <trkpt lat="41.953608" lon="2.544785">
        <ele>418.820</ele>
        <time>2021-05-26T21:08:42Z</time>
      </trkpt>
      <trkpt lat="41.953635" lon="2.544789">
        <ele>419.608</ele>
        <time>2021-05-26T21:08:45Z</time>
      </trkpt>
      <trkpt lat="41.953692" lon="2.544790">
        <ele>421.119</ele>
        <time>2021-05-26T21:08:49Z</time>
      </trkpt>
      <trkpt lat="41.953717" lon="2.544796">
        <ele>421.836</ele>
        <time>2021-05-26T21:08:51Z</time>
      </trkpt>
      <trkpt lat="41.953739" lon="2.544806">
        <ele>422.683</ele>
        <time>2021-05-26T21:08:53Z</time>
      </trkpt>
      <trkpt lat="41.953758" lon="2.544816">
        <ele>423.247</ele>
        <time>2021-05-26T21:08:55Z</time>
      </trkpt>
      <trkpt lat="41.953777" lon="2.544830">
        <ele>424.022</ele>
        <time>2021-05-26T21:08:57Z</time>
      </trkpt>
      <trkpt lat="41.953792" lon="2.544854">
        <ele>424.852</ele>
        <time>2021-05-26T21:09:00Z</time>
      </trkpt>
      <trkpt lat="41.953803" lon="2.544876">
        <ele>425.458</ele>
        <time>2021-05-26T21:09:02Z</time>
      </trkpt>
      <trkpt lat="41.953832" lon="2.544885">
        <ele>426.493</ele>
        <time>2021-05-26T21:09:06Z</time>
      </trkpt>
      <trkpt lat="41.953857" lon="2.544888">
        <ele>427.165</ele>
        <time>2021-05-26T21:09:07Z</time>
      </trkpt>
      <trkpt lat="41.953879" lon="2.544893">
        <ele>427.868</ele>
        <time>2021-05-26T21:09:09Z</time>
      </trkpt>
      <trkpt lat="41.953898" lon="2.544893">
        <ele>428.414</ele>
        <time>2021-05-26T21:09:12Z</time>
      </trkpt>
      <trkpt lat="41.953919" lon="2.544898">
        <ele>429.308</ele>
        <time>2021-05-26T21:09:13Z</time>
      </trkpt>
      <trkpt lat="41.953942" lon="2.544903">
        <ele>430.223</ele>
        <time>2021-05-26T21:09:16Z</time>
      </trkpt>
      <trkpt lat="41.953961" lon="2.544895">
        <ele>430.850</ele>
        <time>2021-05-26T21:09:18Z</time>
      </trkpt>
      <trkpt lat="41.953980" lon="2.544880">
        <ele>431.367</ele>
        <time>2021-05-26T21:09:21Z</time>
      </trkpt>
      <trkpt lat="41.953995" lon="2.544859">
        <ele>431.591</ele>
        <time>2021-05-26T21:09:22Z</time>
      </trkpt>
      <trkpt lat="41.954016" lon="2.544845">
        <ele>432.076</ele>
        <time>2021-05-26T21:09:25Z</time>
      </trkpt>
      <trkpt lat="41.954032" lon="2.544826">
        <ele>432.366</ele>
        <time>2021-05-26T21:09:26Z</time>
      </trkpt>
      <trkpt lat="41.954050" lon="2.544800">
        <ele>432.692</ele>
        <time>2021-05-26T21:09:28Z</time>
      </trkpt>
      <trkpt lat="41.954066" lon="2.544776">
        <ele>432.937</ele>
        <time>2021-05-26T21:09:31Z</time>
      </trkpt>
      <trkpt lat="41.954085" lon="2.544747">
        <ele>433.184</ele>
        <time>2021-05-26T21:09:33Z</time>
      </trkpt>
      <trkpt lat="41.954104" lon="2.544718">
        <ele>433.407</ele>
        <time>2021-05-26T21:09:34Z</time>
      </trkpt>
      <trkpt lat="41.954121" lon="2.544690">
        <ele>433.617</ele>
        <time>2021-05-26T21:09:36Z</time>
      </trkpt>
      <trkpt lat="41.954134" lon="2.544658">
        <ele>433.408</ele>
        <time>2021-05-26T21:09:38Z</time>
      </trkpt>
      <trkpt lat="41.954152" lon="2.544649">
        <ele>433.955</ele>
        <time>2021-05-26T21:09:40Z</time>
      </trkpt>
      <trkpt lat="41.954169" lon="2.544634">
        <ele>434.262</ele>
        <time>2021-05-26T21:09:42Z</time>
      </trkpt>
      <trkpt lat="41.954189" lon="2.544620">
        <ele>434.519</ele>
        <time>2021-05-26T21:09:44Z</time>
      </trkpt>
      <trkpt lat="41.954210" lon="2.544604">
        <ele>434.953</ele>
        <time>2021-05-26T21:09:46Z</time>
      </trkpt>
      <trkpt lat="41.954236" lon="2.544588">
        <ele>435.468</ele>
        <time>2021-05-26T21:09:49Z</time>
      </trkpt>
      <trkpt lat="41.954310" lon="2.544522">
        <ele>436.168</ele>
        <time>2021-05-26T21:09:57Z</time>
      </trkpt>
      <trkpt lat="41.954325" lon="2.544507">
        <ele>436.234</ele>
        <time>2021-05-26T21:09:58Z</time>
      </trkpt>
      <trkpt lat="41.954359" lon="2.544492">
        <ele>436.869</ele>
        <time>2021-05-26T21:10:02Z</time>
      </trkpt>
      <trkpt lat="41.954445" lon="2.544451">
        <ele>438.248</ele>
        <time>2021-05-26T21:10:12Z</time>
      </trkpt>
      <trkpt lat="41.954527" lon="2.544396">
        <ele>438.261</ele>
        <time>2021-05-26T21:10:22Z</time>
      </trkpt>
      <trkpt lat="41.954622" lon="2.544378">
        <ele>439.717</ele>
        <time>2021-05-26T21:10:30Z</time>
      </trkpt>
      <trkpt lat="41.954719" lon="2.544357">
        <ele>441.108</ele>
        <time>2021-05-26T21:10:41Z</time>
      </trkpt>
      <trkpt lat="41.954809" lon="2.544324">
        <ele>442.531</ele>
        <time>2021-05-26T21:10:47Z</time>
      </trkpt>
      <trkpt lat="41.954885" lon="2.544310">
        <ele>444.088</ele>
        <time>2021-05-26T21:10:55Z</time>
      </trkpt>
      <trkpt lat="41.954930" lon="2.544314">
        <ele>445.475</ele>
        <time>2021-05-26T21:10:59Z</time>
      </trkpt>
      <trkpt lat="41.954954" lon="2.544322">
        <ele>446.349</ele>
        <time>2021-05-26T21:11:01Z</time>
      </trkpt>
      <trkpt lat="41.954975" lon="2.544335">
        <ele>447.434</ele>
        <time>2021-05-26T21:11:04Z</time>
      </trkpt>
      <trkpt lat="41.955001" lon="2.544339">
        <ele>448.224</ele>
        <time>2021-05-26T21:11:06Z</time>
      </trkpt>
      <trkpt lat="41.955022" lon="2.544332">
        <ele>448.690</ele>
        <time>2021-05-26T21:11:08Z</time>
      </trkpt>
      <trkpt lat="41.955044" lon="2.544313">
        <ele>448.715</ele>
        <time>2021-05-26T21:11:11Z</time>
      </trkpt>
      <trkpt lat="41.955064" lon="2.544299">
        <ele>448.842</ele>
        <time>2021-05-26T21:11:13Z</time>
      </trkpt>
      <trkpt lat="41.955080" lon="2.544272">
        <ele>448.522</ele>
        <time>2021-05-26T21:11:14Z</time>
      </trkpt>
      <trkpt lat="41.955130" lon="2.544182">
        <ele>447.214</ele>
        <time>2021-05-26T21:11:21Z</time>
      </trkpt>
      <trkpt lat="41.955201" lon="2.544096">
        <ele>447.908</ele>
        <time>2021-05-26T21:11:27Z</time>
      </trkpt>
      <trkpt lat="41.955297" lon="2.544116">
        <ele>451.491</ele>
        <time>2021-05-26T21:11:35Z</time>
      </trkpt>
      <trkpt lat="41.955386" lon="2.544134">
        <ele>454.148</ele>
        <time>2021-05-26T21:11:42Z</time>
      </trkpt>
      <trkpt lat="41.955466" lon="2.544041">
        <ele>454.665</ele>
        <time>2021-05-26T21:11:50Z</time>
      </trkpt>
      <trkpt lat="41.955500" lon="2.543919">
        <ele>453.749</ele>
        <time>2021-05-26T21:11:57Z</time>
      </trkpt>
      <trkpt lat="41.955486" lon="2.543872">
        <ele>452.634</ele>
        <time>2021-05-26T21:11:59Z</time>
      </trkpt>
      <trkpt lat="41.955481" lon="2.543839">
        <ele>452.384</ele>
        <time>2021-05-26T21:12:01Z</time>
      </trkpt>
      <trkpt lat="41.955485" lon="2.543803">
        <ele>452.280</ele>
        <time>2021-05-26T21:12:03Z</time>
      </trkpt>
      <trkpt lat="41.955492" lon="2.543771">
        <ele>452.245</ele>
        <time>2021-05-26T21:12:05Z</time>
      </trkpt>
      <trkpt lat="41.955511" lon="2.543728">
        <ele>452.539</ele>
        <time>2021-05-26T21:12:09Z</time>
      </trkpt>
      <trkpt lat="41.955561" lon="2.543668">
        <ele>453.601</ele>
        <time>2021-05-26T21:12:13Z</time>
      </trkpt>
      <trkpt lat="41.955583" lon="2.543648">
        <ele>454.221</ele>
        <time>2021-05-26T21:12:15Z</time>
      </trkpt>
      <trkpt lat="41.955602" lon="2.543626">
        <ele>454.608</ele>
        <time>2021-05-26T21:12:18Z</time>
      </trkpt>
      <trkpt lat="41.955622" lon="2.543619">
        <ele>455.240</ele>
        <time>2021-05-26T21:12:20Z</time>
      </trkpt>
      <trkpt lat="41.955655" lon="2.543621">
        <ele>456.327</ele>
        <time>2021-05-26T21:12:23Z</time>
      </trkpt>
      <trkpt lat="41.955675" lon="2.543616">
        <ele>456.914</ele>
        <time>2021-05-26T21:12:25Z</time>
      </trkpt>
      <trkpt lat="41.955715" lon="2.543610">
        <ele>458.218</ele>
        <time>2021-05-26T21:12:28Z</time>
      </trkpt>
      <trkpt lat="41.955737" lon="2.543604">
        <ele>458.923</ele>
        <time>2021-05-26T21:12:31Z</time>
      </trkpt>
      <trkpt lat="41.955829" lon="2.543573">
        <ele>461.793</ele>
        <time>2021-05-26T21:12:41Z</time>
      </trkpt>
      <trkpt lat="41.955912" lon="2.543529">
        <ele>463.979</ele>
        <time>2021-05-26T21:12:50Z</time>
      </trkpt>
      <trkpt lat="41.955972" lon="2.543488">
        <ele>465.394</ele>
        <time>2021-05-26T21:12:57Z</time>
      </trkpt>
      <trkpt lat="41.955993" lon="2.543479">
        <ele>465.877</ele>
        <time>2021-05-26T21:13:01Z</time>
      </trkpt>
      <trkpt lat="41.956024" lon="2.543474">
        <ele>466.761</ele>
        <time>2021-05-26T21:13:03Z</time>
      </trkpt>
      <trkpt lat="41.956047" lon="2.543465">
        <ele>467.227</ele>
        <time>2021-05-26T21:13:05Z</time>
      </trkpt>
      <trkpt lat="41.956103" lon="2.543444">
        <ele>468.608</ele>
        <time>2021-05-26T21:13:10Z</time>
      </trkpt>
      <trkpt lat="41.956123" lon="2.543434">
        <ele>469.194</ele>
        <time>2021-05-26T21:13:13Z</time>
      </trkpt>
      <trkpt lat="41.956146" lon="2.543415">
        <ele>469.651</ele>
        <time>2021-05-26T21:13:15Z</time>
      </trkpt>
      <trkpt lat="41.956159" lon="2.543396">
        <ele>469.858</ele>
        <time>2021-05-26T21:13:18Z</time>
      </trkpt>
      <trkpt lat="41.956214" lon="2.543331">
        <ele>470.682</ele>
        <time>2021-05-26T21:13:27Z</time>
      </trkpt>
      <trkpt lat="41.956300" lon="2.543369">
        <ele>473.417</ele>
        <time>2021-05-26T21:13:36Z</time>
      </trkpt>
      <trkpt lat="41.956393" lon="2.543377">
        <ele>476.137</ele>
        <time>2021-05-26T21:13:45Z</time>
      </trkpt>
      <trkpt lat="41.956483" lon="2.543320">
        <ele>477.773</ele>
        <time>2021-05-26T21:13:57Z</time>
      </trkpt>
      <trkpt lat="41.956550" lon="2.543238">
        <ele>479.418</ele>
        <time>2021-05-26T21:14:04Z</time>
      </trkpt>
      <trkpt lat="41.956627" lon="2.543175">
        <ele>481.455</ele>
        <time>2021-05-26T21:14:10Z</time>
      </trkpt>
      <trkpt lat="41.956699" lon="2.543090">
        <ele>483.307</ele>
        <time>2021-05-26T21:14:17Z</time>
      </trkpt>
      <trkpt lat="41.956730" lon="2.543060">
        <ele>484.317</ele>
        <time>2021-05-26T21:14:20Z</time>
      </trkpt>
      <trkpt lat="41.956705" lon="2.542937">
        <ele>485.608</ele>
        <time>2021-05-26T21:14:38Z</time>
      </trkpt>
      <trkpt lat="41.956637" lon="2.542858">
        <ele>485.032</ele>
        <time>2021-05-26T21:14:47Z</time>
      </trkpt>
      <trkpt lat="41.956559" lon="2.542822">
        <ele>484.169</ele>
        <time>2021-05-26T21:14:55Z</time>
      </trkpt>
      <trkpt lat="41.956539" lon="2.542810">
        <ele>484.086</ele>
        <time>2021-05-26T21:14:57Z</time>
      </trkpt>
      <trkpt lat="41.956522" lon="2.542784">
        <ele>484.320</ele>
        <time>2021-05-26T21:14:59Z</time>
      </trkpt>
      <trkpt lat="41.956505" lon="2.542769">
        <ele>484.395</ele>
        <time>2021-05-26T21:15:01Z</time>
      </trkpt>
      <trkpt lat="41.956491" lon="2.542747">
        <ele>484.795</ele>
        <time>2021-05-26T21:15:03Z</time>
      </trkpt>
      <trkpt lat="41.956408" lon="2.542682">
        <ele>484.861</ele>
        <time>2021-05-26T21:15:13Z</time>
      </trkpt>
      <trkpt lat="41.956388" lon="2.542678">
        <ele>484.596</ele>
        <time>2021-05-26T21:15:16Z</time>
      </trkpt>
      <trkpt lat="41.956367" lon="2.542658">
        <ele>484.775</ele>
        <time>2021-05-26T21:15:18Z</time>
      </trkpt>
      <trkpt lat="41.956345" lon="2.542642">
        <ele>484.928</ele>
        <time>2021-05-26T21:15:20Z</time>
      </trkpt>
      <trkpt lat="41.956254" lon="2.542599">
        <ele>484.920</ele>
        <time>2021-05-26T21:15:29Z</time>
      </trkpt>
      <trkpt lat="41.956161" lon="2.542588">
        <ele>484.108</ele>
        <time>2021-05-26T21:15:37Z</time>
      </trkpt>
      <trkpt lat="41.956131" lon="2.542574">
        <ele>484.144</ele>
        <time>2021-05-26T21:15:39Z</time>
      </trkpt>
      <trkpt lat="41.956096" lon="2.542571">
        <ele>483.831</ele>
        <time>2021-05-26T21:15:42Z</time>
      </trkpt>
      <trkpt lat="41.956076" lon="2.542558">
        <ele>483.978</ele>
        <time>2021-05-26T21:15:45Z</time>
      </trkpt>
      <trkpt lat="41.956054" lon="2.542546">
        <ele>483.982</ele>
        <time>2021-05-26T21:15:47Z</time>
      </trkpt>
      <trkpt lat="41.956028" lon="2.542534">
        <ele>483.917</ele>
        <time>2021-05-26T21:15:49Z</time>
      </trkpt>
      <trkpt lat="41.955940" lon="2.542498">
        <ele>483.537</ele>
        <time>2021-05-26T21:15:56Z</time>
      </trkpt>
      <trkpt lat="41.955842" lon="2.542500">
        <ele>482.143</ele>
        <time>2021-05-26T21:16:05Z</time>
      </trkpt>
      <trkpt lat="41.955818" lon="2.542511">
        <ele>481.728</ele>
        <time>2021-05-26T21:16:07Z</time>
      </trkpt>
      <trkpt lat="41.955796" lon="2.542509">
        <ele>481.717</ele>
        <time>2021-05-26T21:16:09Z</time>
      </trkpt>
      <trkpt lat="41.955770" lon="2.542511">
        <ele>481.587</ele>
        <time>2021-05-26T21:16:11Z</time>
      </trkpt>
      <trkpt lat="41.955747" lon="2.542515">
        <ele>481.415</ele>
        <time>2021-05-26T21:16:13Z</time>
      </trkpt>
      <trkpt lat="41.955718" lon="2.542510">
        <ele>481.408</ele>
        <time>2021-05-26T21:16:16Z</time>
      </trkpt>
      <trkpt lat="41.955696" lon="2.542502">
        <ele>481.598</ele>
        <time>2021-05-26T21:16:18Z</time>
      </trkpt>
      <trkpt lat="41.955673" lon="2.542484">
        <ele>481.535</ele>
        <time>2021-05-26T21:16:22Z</time>
      </trkpt>
      <trkpt lat="41.955663" lon="2.542452">
        <ele>481.662</ele>
        <time>2021-05-26T21:16:23Z</time>
      </trkpt>
      <trkpt lat="41.955663" lon="2.542414">
        <ele>481.786</ele>
        <time>2021-05-26T21:16:25Z</time>
      </trkpt>
      <trkpt lat="41.955666" lon="2.542379">
        <ele>481.871</ele>
        <time>2021-05-26T21:16:27Z</time>
      </trkpt>
      <trkpt lat="41.955680" lon="2.542348">
        <ele>482.021</ele>
        <time>2021-05-26T21:16:29Z</time>
      </trkpt>
      <trkpt lat="41.955699" lon="2.542323">
        <ele>482.237</ele>
        <time>2021-05-26T21:16:31Z</time>
      </trkpt>
      <trkpt lat="41.955716" lon="2.542298">
        <ele>482.392</ele>
        <time>2021-05-26T21:16:33Z</time>
      </trkpt>
      <trkpt lat="41.955738" lon="2.542278">
        <ele>482.558</ele>
        <time>2021-05-26T21:16:35Z</time>
      </trkpt>
      <trkpt lat="41.955758" lon="2.542260">
        <ele>482.652</ele>
        <time>2021-05-26T21:16:37Z</time>
      </trkpt>
      <trkpt lat="41.955786" lon="2.542248">
        <ele>482.717</ele>
        <time>2021-05-26T21:16:40Z</time>
      </trkpt>
      <trkpt lat="41.955806" lon="2.542243">
        <ele>482.808</ele>
        <time>2021-05-26T21:16:41Z</time>
      </trkpt>
      <trkpt lat="41.955827" lon="2.542234">
        <ele>482.972</ele>
        <time>2021-05-26T21:16:43Z</time>
      </trkpt>
      <trkpt lat="41.955851" lon="2.542219">
        <ele>483.219</ele>
        <time>2021-05-26T21:16:45Z</time>
      </trkpt>
      <trkpt lat="41.955877" lon="2.542213">
        <ele>483.416</ele>
        <time>2021-05-26T21:16:47Z</time>
      </trkpt>
      <trkpt lat="41.955905" lon="2.542207">
        <ele>483.790</ele>
        <time>2021-05-26T21:16:49Z</time>
      </trkpt>
      <trkpt lat="41.955929" lon="2.542202">
        <ele>483.935</ele>
        <time>2021-05-26T21:16:52Z</time>
      </trkpt>
      <trkpt lat="41.955951" lon="2.542193">
        <ele>484.115</ele>
        <time>2021-05-26T21:16:54Z</time>
      </trkpt>
      <trkpt lat="41.955976" lon="2.542185">
        <ele>484.321</ele>
        <time>2021-05-26T21:16:55Z</time>
      </trkpt>
      <trkpt lat="41.956001" lon="2.542176">
        <ele>484.696</ele>
        <time>2021-05-26T21:16:57Z</time>
      </trkpt>
      <trkpt lat="41.956024" lon="2.542160">
        <ele>484.611</ele>
        <time>2021-05-26T21:16:59Z</time>
      </trkpt>
      <trkpt lat="41.956050" lon="2.542148">
        <ele>484.921</ele>
        <time>2021-05-26T21:17:02Z</time>
      </trkpt>
      <trkpt lat="41.956074" lon="2.542133">
        <ele>485.103</ele>
        <time>2021-05-26T21:17:04Z</time>
      </trkpt>
      <trkpt lat="41.956099" lon="2.542123">
        <ele>485.408</ele>
        <time>2021-05-26T21:17:06Z</time>
      </trkpt>
      <trkpt lat="41.956123" lon="2.542118">
        <ele>485.888</ele>
        <time>2021-05-26T21:17:08Z</time>
      </trkpt>
      <trkpt lat="41.956142" lon="2.542107">
        <ele>486.225</ele>
        <time>2021-05-26T21:17:10Z</time>
      </trkpt>
      <trkpt lat="41.956164" lon="2.542093">
        <ele>486.652</ele>
        <time>2021-05-26T21:17:12Z</time>
      </trkpt>
      <trkpt lat="41.956185" lon="2.542084">
        <ele>487.136</ele>
        <time>2021-05-26T21:17:14Z</time>
      </trkpt>
      <trkpt lat="41.956208" lon="2.542074">
        <ele>487.731</ele>
        <time>2021-05-26T21:17:16Z</time>
      </trkpt>
      <trkpt lat="41.956226" lon="2.542058">
        <ele>488.081</ele>
        <time>2021-05-26T21:17:17Z</time>
      </trkpt>
      <trkpt lat="41.956247" lon="2.542050">
        <ele>488.667</ele>
        <time>2021-05-26T21:17:19Z</time>
      </trkpt>
      <trkpt lat="41.956260" lon="2.542075">
        <ele>489.282</ele>
        <time>2021-05-26T21:17:23Z</time>
      </trkpt>
      <trkpt lat="41.956272" lon="2.542095">
        <ele>489.886</ele>
        <time>2021-05-26T21:17:25Z</time>
      </trkpt>
      <trkpt lat="41.956290" lon="2.542119">
        <ele>490.560</ele>
        <time>2021-05-26T21:17:27Z</time>
      </trkpt>
      <trkpt lat="41.956305" lon="2.542134">
        <ele>491.126</ele>
        <time>2021-05-26T21:17:29Z</time>
      </trkpt>
      <trkpt lat="41.956317" lon="2.542166">
        <ele>491.708</ele>
        <time>2021-05-26T21:17:33Z</time>
      </trkpt>
      <trkpt lat="41.956326" lon="2.542189">
        <ele>492.165</ele>
        <time>2021-05-26T21:17:35Z</time>
      </trkpt>
      <trkpt lat="41.956339" lon="2.542207">
        <ele>492.612</ele>
        <time>2021-05-26T21:17:37Z</time>
      </trkpt>
      <trkpt lat="41.956356" lon="2.542217">
        <ele>493.129</ele>
        <time>2021-05-26T21:17:38Z</time>
      </trkpt>
      <trkpt lat="41.956374" lon="2.542221">
        <ele>493.673</ele>
        <time>2021-05-26T21:17:40Z</time>
      </trkpt>
      <trkpt lat="41.956396" lon="2.542216">
        <ele>494.258</ele>
        <time>2021-05-26T21:17:44Z</time>
      </trkpt>
      <trkpt lat="41.956415" lon="2.542209">
        <ele>494.718</ele>
        <time>2021-05-26T21:17:48Z</time>
      </trkpt>
      <trkpt lat="41.956432" lon="2.542198">
        <ele>495.174</ele>
        <time>2021-05-26T21:17:50Z</time>
      </trkpt>
      <trkpt lat="41.956454" lon="2.542186">
        <ele>495.689</ele>
        <time>2021-05-26T21:17:51Z</time>
      </trkpt>
      <trkpt lat="41.956472" lon="2.542178">
        <ele>496.168</ele>
        <time>2021-05-26T21:17:55Z</time>
      </trkpt>
      <trkpt lat="41.956491" lon="2.542168">
        <ele>496.642</ele>
        <time>2021-05-26T21:17:58Z</time>
      </trkpt>
      <trkpt lat="41.956515" lon="2.542162">
        <ele>497.326</ele>
        <time>2021-05-26T21:18:01Z</time>
      </trkpt>
      <trkpt lat="41.956540" lon="2.542153">
        <ele>498.008</ele>
        <time>2021-05-26T21:18:04Z</time>
      </trkpt>
      <trkpt lat="41.956558" lon="2.542144">
        <ele>498.573</ele>
        <time>2021-05-26T21:18:06Z</time>
      </trkpt>
      <trkpt lat="41.956583" lon="2.542139">
        <ele>499.260</ele>
        <time>2021-05-26T21:18:10Z</time>
      </trkpt>
      <trkpt lat="41.956603" lon="2.542140">
        <ele>499.867</ele>
        <time>2021-05-26T21:18:13Z</time>
      </trkpt>
      <trkpt lat="41.956623" lon="2.542144">
        <ele>500.431</ele>
        <time>2021-05-26T21:18:15Z</time>
      </trkpt>
      <trkpt lat="41.956643" lon="2.542142">
        <ele>501.086</ele>
        <time>2021-05-26T21:18:17Z</time>
      </trkpt>
      <trkpt lat="41.956661" lon="2.542134">
        <ele>501.576</ele>
        <time>2021-05-26T21:18:20Z</time>
      </trkpt>
      <trkpt lat="41.956678" lon="2.542144">
        <ele>502.162</ele>
        <time>2021-05-26T21:18:23Z</time>
      </trkpt>
      <trkpt lat="41.956702" lon="2.542154">
        <ele>503.037</ele>
        <time>2021-05-26T21:18:25Z</time>
      </trkpt>
      <trkpt lat="41.956727" lon="2.542154">
        <ele>503.914</ele>
        <time>2021-05-26T21:18:28Z</time>
      </trkpt>
      <trkpt lat="41.956749" lon="2.542152">
        <ele>504.654</ele>
        <time>2021-05-26T21:18:32Z</time>
      </trkpt>
      <trkpt lat="41.956772" lon="2.542162">
        <ele>505.509</ele>
        <time>2021-05-26T21:18:36Z</time>
      </trkpt>
      <trkpt lat="41.956792" lon="2.542169">
        <ele>506.208</ele>
        <time>2021-05-26T21:18:39Z</time>
      </trkpt>
      <trkpt lat="41.956810" lon="2.542179">
        <ele>506.988</ele>
        <time>2021-05-26T21:18:42Z</time>
      </trkpt>
      <trkpt lat="41.956828" lon="2.542182">
        <ele>507.685</ele>
        <time>2021-05-26T21:18:45Z</time>
      </trkpt>
      <trkpt lat="41.956844" lon="2.542198">
        <ele>508.232</ele>
        <time>2021-05-26T21:18:49Z</time>
      </trkpt>
      <trkpt lat="41.956870" lon="2.542205">
        <ele>509.216</ele>
        <time>2021-05-26T21:18:53Z</time>
      </trkpt>
      <trkpt lat="41.956892" lon="2.542204">
        <ele>510.021</ele>
        <time>2021-05-26T21:18:56Z</time>
      </trkpt>
      <trkpt lat="41.956910" lon="2.542202">
        <ele>510.651</ele>
        <time>2021-05-26T21:18:57Z</time>
      </trkpt>
      <trkpt lat="41.956932" lon="2.542192">
        <ele>511.377</ele>
        <time>2021-05-26T21:19:01Z</time>
      </trkpt>
      <trkpt lat="41.956948" lon="2.542166">
        <ele>511.892</ele>
        <time>2021-05-26T21:19:04Z</time>
      </trkpt>
      <trkpt lat="41.956964" lon="2.542145">
        <ele>512.314</ele>
        <time>2021-05-26T21:19:07Z</time>
      </trkpt>
      <trkpt lat="41.956976" lon="2.542118">
        <ele>512.754</ele>
        <time>2021-05-26T21:19:10Z</time>
      </trkpt>
      <trkpt lat="41.956990" lon="2.542098">
        <ele>513.209</ele>
        <time>2021-05-26T21:19:12Z</time>
      </trkpt>
      <trkpt lat="41.957014" lon="2.542075">
        <ele>514.208</ele>
        <time>2021-05-26T21:19:14Z</time>
      </trkpt>
      <trkpt lat="41.957025" lon="2.542057">
        <ele>514.618</ele>
        <time>2021-05-26T21:19:17Z</time>
      </trkpt>
      <trkpt lat="41.957048" lon="2.542045">
        <ele>515.795</ele>
        <time>2021-05-26T21:19:20Z</time>
      </trkpt>
      <trkpt lat="41.957072" lon="2.542059">
        <ele>516.962</ele>
        <time>2021-05-26T21:19:23Z</time>
      </trkpt>
      <trkpt lat="41.957088" lon="2.542071">
        <ele>517.746</ele>
        <time>2021-05-26T21:19:25Z</time>
      </trkpt>
      <trkpt lat="41.957109" lon="2.542090">
        <ele>518.761</ele>
        <time>2021-05-26T21:19:28Z</time>
      </trkpt>
      <trkpt lat="41.957126" lon="2.542103">
        <ele>519.521</ele>
        <time>2021-05-26T21:19:30Z</time>
      </trkpt>
      <trkpt lat="41.957149" lon="2.542115">
        <ele>520.647</ele>
        <time>2021-05-26T21:19:33Z</time>
      </trkpt>
      <trkpt lat="41.957169" lon="2.542117">
        <ele>521.692</ele>
        <time>2021-05-26T21:19:35Z</time>
      </trkpt>
      <trkpt lat="41.957192" lon="2.542118">
        <ele>522.633</ele>
        <time>2021-05-26T21:19:38Z</time>
      </trkpt>
      <trkpt lat="41.957215" lon="2.542116">
        <ele>523.723</ele>
        <time>2021-05-26T21:19:42Z</time>
      </trkpt>
      <trkpt lat="41.957236" lon="2.542112">
        <ele>524.715</ele>
        <time>2021-05-26T21:19:45Z</time>
      </trkpt>
      <trkpt lat="41.957259" lon="2.542105">
        <ele>525.708</ele>
        <time>2021-05-26T21:19:47Z</time>
      </trkpt>
      <trkpt lat="41.957280" lon="2.542082">
        <ele>526.780</ele>
        <time>2021-05-26T21:19:51Z</time>
      </trkpt>
      <trkpt lat="41.957293" lon="2.542063">
        <ele>527.337</ele>
        <time>2021-05-26T21:19:52Z</time>
      </trkpt>
      <trkpt lat="41.957307" lon="2.542040">
        <ele>527.954</ele>
        <time>2021-05-26T21:19:55Z</time>
      </trkpt>
      <trkpt lat="41.957326" lon="2.542024">
        <ele>528.788</ele>
        <time>2021-05-26T21:19:57Z</time>
      </trkpt>
      <trkpt lat="41.957354" lon="2.542003">
        <ele>529.933</ele>
        <time>2021-05-26T21:20:00Z</time>
      </trkpt>
      <trkpt lat="41.957385" lon="2.541983">
        <ele>531.263</ele>
        <time>2021-05-26T21:20:03Z</time>
      </trkpt>
      <trkpt lat="41.957403" lon="2.541976">
        <ele>532.079</ele>
        <time>2021-05-26T21:20:05Z</time>
      </trkpt>
      <trkpt lat="41.957417" lon="2.541945">
        <ele>532.434</ele>
        <time>2021-05-26T21:20:08Z</time>
      </trkpt>
      <trkpt lat="41.957431" lon="2.541924">
        <ele>532.767</ele>
        <time>2021-05-26T21:20:10Z</time>
      </trkpt>
      <trkpt lat="41.957447" lon="2.541904">
        <ele>533.081</ele>
        <time>2021-05-26T21:20:12Z</time>
      </trkpt>
      <trkpt lat="41.957462" lon="2.541880">
        <ele>533.219</ele>
        <time>2021-05-26T21:20:15Z</time>
      </trkpt>
      <trkpt lat="41.957522" lon="2.541777">
        <ele>533.908</ele>
        <time>2021-05-26T21:20:28Z</time>
      </trkpt>
      <trkpt lat="41.957606" lon="2.541708">
        <ele>536.393</ele>
        <time>2021-05-26T21:20:38Z</time>
      </trkpt>
      <trkpt lat="41.957696" lon="2.541653">
        <ele>539.380</ele>
        <time>2021-05-26T21:20:48Z</time>
      </trkpt>
      <trkpt lat="41.957782" lon="2.541614">
        <ele>542.617</ele>
        <time>2021-05-26T21:20:56Z</time>
      </trkpt>
      <trkpt lat="41.957858" lon="2.541547">
        <ele>545.541</ele>
        <time>2021-05-26T21:21:01Z</time>
      </trkpt>
      <trkpt lat="41.957884" lon="2.541532">
        <ele>546.526</ele>
        <time>2021-05-26T21:21:03Z</time>
      </trkpt>
      <trkpt lat="41.957897" lon="2.541508">
        <ele>546.946</ele>
        <time>2021-05-26T21:21:05Z</time>
      </trkpt>
      <trkpt lat="41.957912" lon="2.541489">
        <ele>547.432</ele>
        <time>2021-05-26T21:21:08Z</time>
      </trkpt>
      <trkpt lat="41.957930" lon="2.541464">
        <ele>547.917</ele>
        <time>2021-05-26T21:21:11Z</time>
      </trkpt>
      <trkpt lat="41.957945" lon="2.541441">
        <ele>548.474</ele>
        <time>2021-05-26T21:21:12Z</time>
      </trkpt>
      <trkpt lat="41.957961" lon="2.541410">
        <ele>548.856</ele>
        <time>2021-05-26T21:21:15Z</time>
      </trkpt>
      <trkpt lat="41.957973" lon="2.541388">
        <ele>549.121</ele>
        <time>2021-05-26T21:21:17Z</time>
      </trkpt>
      <trkpt lat="41.957986" lon="2.541367">
        <ele>549.508</ele>
        <time>2021-05-26T21:21:19Z</time>
      </trkpt>
      <trkpt lat="41.958011" lon="2.541345">
        <ele>550.414</ele>
        <time>2021-05-26T21:21:21Z</time>
      </trkpt>
      <trkpt lat="41.958026" lon="2.541327">
        <ele>550.991</ele>
        <time>2021-05-26T21:21:23Z</time>
      </trkpt>
      <trkpt lat="41.958043" lon="2.541304">
        <ele>551.548</ele>
        <time>2021-05-26T21:21:26Z</time>
      </trkpt>
      <trkpt lat="41.958063" lon="2.541282">
        <ele>552.262</ele>
        <time>2021-05-26T21:21:30Z</time>
      </trkpt>
      <trkpt lat="41.958077" lon="2.541256">
        <ele>552.767</ele>
        <time>2021-05-26T21:21:33Z</time>
      </trkpt>
      <trkpt lat="41.958088" lon="2.541223">
        <ele>553.037</ele>
        <time>2021-05-26T21:21:36Z</time>
      </trkpt>
      <trkpt lat="41.958096" lon="2.541198">
        <ele>553.193</ele>
        <time>2021-05-26T21:21:38Z</time>
      </trkpt>
      <trkpt lat="41.958103" lon="2.541167">
        <ele>553.298</ele>
        <time>2021-05-26T21:21:41Z</time>
      </trkpt>
      <trkpt lat="41.958108" lon="2.541143">
        <ele>553.233</ele>
        <time>2021-05-26T21:21:43Z</time>
      </trkpt>
      <trkpt lat="41.958123" lon="2.541110">
        <ele>553.623</ele>
        <time>2021-05-26T21:21:45Z</time>
      </trkpt>
      <trkpt lat="41.958140" lon="2.541093">
        <ele>554.415</ele>
        <time>2021-05-26T21:21:48Z</time>
      </trkpt>
      <trkpt lat="41.958141" lon="2.541061">
        <ele>554.208</ele>
        <time>2021-05-26T21:21:50Z</time>
      </trkpt>
      <trkpt lat="41.958146" lon="2.541035">
        <ele>554.270</ele>
        <time>2021-05-26T21:21:53Z</time>
      </trkpt>
      <trkpt lat="41.958155" lon="2.541013">
        <ele>554.527</ele>
        <time>2021-05-26T21:21:57Z</time>
      </trkpt>
      <trkpt lat="41.958164" lon="2.540983">
        <ele>554.834</ele>
        <time>2021-05-26T21:21:59Z</time>
      </trkpt>
      <trkpt lat="41.958181" lon="2.540954">
        <ele>555.458</ele>
        <time>2021-05-26T21:22:03Z</time>
      </trkpt>
      <trkpt lat="41.958185" lon="2.540930">
        <ele>555.443</ele>
        <time>2021-05-26T21:22:05Z</time>
      </trkpt>
      <trkpt lat="41.958192" lon="2.540902">
        <ele>555.543</ele>
        <time>2021-05-26T21:22:08Z</time>
      </trkpt>
      <trkpt lat="41.958210" lon="2.540878">
        <ele>556.289</ele>
        <time>2021-05-26T21:22:10Z</time>
      </trkpt>
      <trkpt lat="41.958227" lon="2.540858">
        <ele>556.994</ele>
        <time>2021-05-26T21:22:14Z</time>
      </trkpt>
      <trkpt lat="41.958247" lon="2.540834">
        <ele>557.778</ele>
        <time>2021-05-26T21:22:17Z</time>
      </trkpt>
      <trkpt lat="41.958258" lon="2.540811">
        <ele>557.933</ele>
        <time>2021-05-26T21:22:19Z</time>
      </trkpt>
      <trkpt lat="41.958271" lon="2.540784">
        <ele>558.226</ele>
        <time>2021-05-26T21:22:21Z</time>
      </trkpt>
      <trkpt lat="41.958276" lon="2.540753">
        <ele>558.008</ele>
        <time>2021-05-26T21:22:24Z</time>
      </trkpt>
      <trkpt lat="41.958284" lon="2.540730">
        <ele>558.124</ele>
        <time>2021-05-26T21:22:26Z</time>
      </trkpt>
      <trkpt lat="41.958298" lon="2.540713">
        <ele>558.531</ele>
        <time>2021-05-26T21:22:28Z</time>
      </trkpt>
      <trkpt lat="41.958317" lon="2.540695">
        <ele>559.278</ele>
        <time>2021-05-26T21:22:30Z</time>
      </trkpt>
      <trkpt lat="41.958335" lon="2.540684">
        <ele>559.982</ele>
        <time>2021-05-26T21:22:46Z</time>
      </trkpt>
      <trkpt lat="41.958347" lon="2.540659">
        <ele>560.077</ele>
        <time>2021-05-26T21:22:50Z</time>
      </trkpt>
      <trkpt lat="41.958359" lon="2.540629">
        <ele>560.077</ele>
        <time>2021-05-26T21:22:53Z</time>
      </trkpt>
      <trkpt lat="41.958373" lon="2.540602">
        <ele>560.073</ele>
        <time>2021-05-26T21:22:56Z</time>
      </trkpt>
      <trkpt lat="41.958390" lon="2.540563">
        <ele>560.098</ele>
        <time>2021-05-26T21:22:59Z</time>
      </trkpt>
      <trkpt lat="41.958401" lon="2.540544">
        <ele>559.881</ele>
        <time>2021-05-26T21:23:01Z</time>
      </trkpt>
      <trkpt lat="41.958416" lon="2.540522">
        <ele>559.661</ele>
        <time>2021-05-26T21:23:04Z</time>
      </trkpt>
      <trkpt lat="41.958430" lon="2.540503">
        <ele>559.417</ele>
        <time>2021-05-26T21:23:06Z</time>
      </trkpt>
      <trkpt lat="41.958454" lon="2.540485">
        <ele>559.508</ele>
        <time>2021-05-26T21:23:08Z</time>
      </trkpt>
      <trkpt lat="41.958474" lon="2.540477">
        <ele>559.925</ele>
        <time>2021-05-26T21:23:10Z</time>
      </trkpt>
      <trkpt lat="41.958495" lon="2.540469">
        <ele>560.222</ele>
        <time>2021-05-26T21:23:12Z</time>
      </trkpt>
      <trkpt lat="41.958518" lon="2.540466">
        <ele>560.859</ele>
        <time>2021-05-26T21:23:14Z</time>
      </trkpt>
      <trkpt lat="41.958539" lon="2.540462">
        <ele>561.273</ele>
        <time>2021-05-26T21:23:17Z</time>
      </trkpt>
      <trkpt lat="41.958557" lon="2.540457">
        <ele>561.628</ele>
        <time>2021-05-26T21:23:18Z</time>
      </trkpt>
      <trkpt lat="41.958577" lon="2.540451">
        <ele>561.988</ele>
        <time>2021-05-26T21:23:20Z</time>
      </trkpt>
      <trkpt lat="41.958605" lon="2.540436">
        <ele>562.124</ele>
        <time>2021-05-26T21:23:24Z</time>
      </trkpt>
      <trkpt lat="41.958624" lon="2.540425">
        <ele>562.179</ele>
        <time>2021-05-26T21:23:26Z</time>
      </trkpt>
      <trkpt lat="41.958644" lon="2.540405">
        <ele>561.891</ele>
        <time>2021-05-26T21:23:29Z</time>
      </trkpt>
      <trkpt lat="41.958669" lon="2.540394">
        <ele>561.981</ele>
        <time>2021-05-26T21:23:31Z</time>
      </trkpt>
      <trkpt lat="41.958687" lon="2.540386">
        <ele>562.019</ele>
        <time>2021-05-26T21:23:33Z</time>
      </trkpt>
      <trkpt lat="41.958709" lon="2.540381">
        <ele>562.308</ele>
        <time>2021-05-26T21:23:35Z</time>
      </trkpt>
      <trkpt lat="41.958730" lon="2.540378">
        <ele>562.716</ele>
        <time>2021-05-26T21:23:37Z</time>
      </trkpt>
      <trkpt lat="41.958749" lon="2.540380">
        <ele>563.213</ele>
        <time>2021-05-26T21:23:39Z</time>
      </trkpt>
      <trkpt lat="41.958773" lon="2.540388">
        <ele>564.160</ele>
        <time>2021-05-26T21:23:41Z</time>
      </trkpt>
      <trkpt lat="41.958800" lon="2.540394">
        <ele>565.064</ele>
        <time>2021-05-26T21:23:43Z</time>
      </trkpt>
      <trkpt lat="41.958823" lon="2.540407">
        <ele>566.049</ele>
        <time>2021-05-26T21:23:45Z</time>
      </trkpt>
      <trkpt lat="41.958849" lon="2.540421">
        <ele>567.389</ele>
        <time>2021-05-26T21:23:47Z</time>
      </trkpt>
      <trkpt lat="41.958870" lon="2.540431">
        <ele>568.245</ele>
        <time>2021-05-26T21:23:49Z</time>
      </trkpt>
      <trkpt lat="41.958894" lon="2.540440">
        <ele>569.180</ele>
        <time>2021-05-26T21:23:51Z</time>
      </trkpt>
      <trkpt lat="41.958920" lon="2.540449">
        <ele>570.055</ele>
        <time>2021-05-26T21:23:53Z</time>
      </trkpt>
      <trkpt lat="41.958946" lon="2.540451">
        <ele>570.707</ele>
        <time>2021-05-26T21:23:55Z</time>
      </trkpt>
      <trkpt lat="41.958968" lon="2.540453">
        <ele>571.217</ele>
        <time>2021-05-26T21:23:56Z</time>
      </trkpt>
      <trkpt lat="41.958990" lon="2.540453">
        <ele>571.708</ele>
        <time>2021-05-26T21:23:58Z</time>
      </trkpt>
      <trkpt lat="41.959013" lon="2.540455">
        <ele>572.212</ele>
        <time>2021-05-26T21:24:00Z</time>
      </trkpt>
      <trkpt lat="41.959040" lon="2.540456">
        <ele>572.859</ele>
        <time>2021-05-26T21:24:02Z</time>
      </trkpt>
      <trkpt lat="41.959067" lon="2.540462">
        <ele>573.676</ele>
        <time>2021-05-26T21:24:04Z</time>
      </trkpt>
      <trkpt lat="41.959088" lon="2.540459">
        <ele>573.970</ele>
        <time>2021-05-26T21:24:06Z</time>
      </trkpt>
      <trkpt lat="41.959113" lon="2.540447">
        <ele>574.065</ele>
        <time>2021-05-26T21:24:08Z</time>
      </trkpt>
      <trkpt lat="41.959133" lon="2.540439">
        <ele>574.115</ele>
        <time>2021-05-26T21:24:09Z</time>
      </trkpt>
      <trkpt lat="41.959165" lon="2.540439">
        <ele>574.861</ele>
        <time>2021-05-26T21:24:11Z</time>
      </trkpt>
      <trkpt lat="41.959190" lon="2.540438">
        <ele>575.586</ele>
        <time>2021-05-26T21:24:13Z</time>
      </trkpt>
      <trkpt lat="41.959218" lon="2.540446">
        <ele>576.779</ele>
        <time>2021-05-26T21:24:17Z</time>
      </trkpt>
      <trkpt lat="41.959244" lon="2.540452">
        <ele>577.705</ele>
        <time>2021-05-26T21:24:18Z</time>
      </trkpt>
      <trkpt lat="41.959276" lon="2.540456">
        <ele>578.925</ele>
        <time>2021-05-26T21:24:20Z</time>
      </trkpt>
      <trkpt lat="41.959306" lon="2.540451">
        <ele>579.708</ele>
        <time>2021-05-26T21:24:22Z</time>
      </trkpt>
      <trkpt lat="41.959329" lon="2.540436">
        <ele>580.084</ele>
        <time>2021-05-26T21:24:24Z</time>
      </trkpt>
      <trkpt lat="41.959348" lon="2.540422">
        <ele>580.351</ele>
        <time>2021-05-26T21:24:26Z</time>
      </trkpt>
      <trkpt lat="41.959356" lon="2.540391">
        <ele>579.958</ele>
        <time>2021-05-26T21:24:28Z</time>
      </trkpt>
      <trkpt lat="41.959363" lon="2.540361">
        <ele>579.412</ele>
        <time>2021-05-26T21:24:30Z</time>
      </trkpt>
      <trkpt lat="41.959368" lon="2.540330">
        <ele>578.947</ele>
        <time>2021-05-26T21:24:32Z</time>
      </trkpt>
      <trkpt lat="41.959360" lon="2.540304">
        <ele>578.097</ele>
        <time>2021-05-26T21:24:34Z</time>
      </trkpt>
      <trkpt lat="41.959353" lon="2.540275">
        <ele>577.023</ele>
        <time>2021-05-26T21:24:36Z</time>
      </trkpt>
      <trkpt lat="41.959348" lon="2.540244">
        <ele>576.058</ele>
        <time>2021-05-26T21:24:39Z</time>
      </trkpt>
      <trkpt lat="41.959339" lon="2.540215">
        <ele>574.993</ele>
        <time>2021-05-26T21:24:40Z</time>
      </trkpt>
      <trkpt lat="41.959340" lon="2.540187">
        <ele>574.265</ele>
        <time>2021-05-26T21:24:42Z</time>
      </trkpt>
      <trkpt lat="41.959337" lon="2.540156">
        <ele>573.321</ele>
        <time>2021-05-26T21:24:44Z</time>
      </trkpt>
      <trkpt lat="41.959339" lon="2.540121">
        <ele>572.608</ele>
        <time>2021-05-26T21:24:46Z</time>
      </trkpt>
      <trkpt lat="41.959335" lon="2.540091">
        <ele>571.656</ele>
        <time>2021-05-26T21:24:48Z</time>
      </trkpt>
      <trkpt lat="41.959331" lon="2.540061">
        <ele>570.653</ele>
        <time>2021-05-26T21:24:50Z</time>
      </trkpt>
      <trkpt lat="41.959328" lon="2.540033">
        <ele>569.730</ele>
        <time>2021-05-26T21:24:52Z</time>
      </trkpt>
      <trkpt lat="41.959331" lon="2.540005">
        <ele>569.214</ele>
        <time>2021-05-26T21:24:54Z</time>
      </trkpt>
      <trkpt lat="41.959333" lon="2.539978">
        <ele>568.959</ele>
        <time>2021-05-26T21:24:56Z</time>
      </trkpt>
      <trkpt lat="41.959335" lon="2.539952">
        <ele>568.689</ele>
        <time>2021-05-26T21:24:59Z</time>
      </trkpt>
      <trkpt lat="41.959340" lon="2.539926">
        <ele>568.625</ele>
        <time>2021-05-26T21:25:00Z</time>
      </trkpt>
      <trkpt lat="41.959347" lon="2.539898">
        <ele>568.740</ele>
        <time>2021-05-26T21:25:03Z</time>
      </trkpt>
      <trkpt lat="41.959356" lon="2.539868">
        <ele>568.914</ele>
        <time>2021-05-26T21:25:07Z</time>
      </trkpt>
      <trkpt lat="41.959369" lon="2.539835">
        <ele>569.354</ele>
        <time>2021-05-26T21:25:09Z</time>
      </trkpt>
      <trkpt lat="41.959378" lon="2.539814">
        <ele>569.609</ele>
        <time>2021-05-26T21:25:11Z</time>
      </trkpt>
      <trkpt lat="41.959389" lon="2.539791">
        <ele>570.008</ele>
        <time>2021-05-26T21:25:14Z</time>
      </trkpt>
      <trkpt lat="41.959405" lon="2.539763">
        <ele>570.868</ele>
        <time>2021-05-26T21:25:17Z</time>
      </trkpt>
      <trkpt lat="41.959414" lon="2.539742">
        <ele>571.155</ele>
        <time>2021-05-26T21:25:19Z</time>
      </trkpt>
      <trkpt lat="41.959424" lon="2.539719">
        <ele>571.562</ele>
        <time>2021-05-26T21:25:22Z</time>
      </trkpt>
      <trkpt lat="41.959437" lon="2.539692">
        <ele>572.086</ele>
        <time>2021-05-26T21:25:25Z</time>
      </trkpt>
      <trkpt lat="41.959449" lon="2.539663">
        <ele>572.331</ele>
        <time>2021-05-26T21:25:28Z</time>
      </trkpt>
      <trkpt lat="41.959460" lon="2.539633">
        <ele>572.581</ele>
        <time>2021-05-26T21:25:31Z</time>
      </trkpt>
      <trkpt lat="41.959469" lon="2.539611">
        <ele>572.747</ele>
        <time>2021-05-26T21:25:33Z</time>
      </trkpt>
      <trkpt lat="41.959480" lon="2.539592">
        <ele>573.252</ele>
        <time>2021-05-26T21:25:35Z</time>
      </trkpt>
      <trkpt lat="41.959484" lon="2.539567">
        <ele>573.036</ele>
        <time>2021-05-26T21:25:37Z</time>
      </trkpt>
      <trkpt lat="41.959491" lon="2.539545">
        <ele>573.117</ele>
        <time>2021-05-26T21:25:39Z</time>
      </trkpt>
      <trkpt lat="41.959499" lon="2.539522">
        <ele>573.218</ele>
        <time>2021-05-26T21:25:41Z</time>
      </trkpt>
      <trkpt lat="41.959508" lon="2.539499">
        <ele>573.408</ele>
        <time>2021-05-26T21:25:43Z</time>
      </trkpt>
      <trkpt lat="41.959518" lon="2.539475">
        <ele>573.640</ele>
        <time>2021-05-26T21:25:45Z</time>
      </trkpt>
      <trkpt lat="41.959525" lon="2.539451">
        <ele>573.647</ele>
        <time>2021-05-26T21:25:47Z</time>
      </trkpt>
      <trkpt lat="41.959537" lon="2.539428">
        <ele>574.044</ele>
        <time>2021-05-26T21:25:49Z</time>
      </trkpt>
      <trkpt lat="41.959551" lon="2.539405">
        <ele>574.498</ele>
        <time>2021-05-26T21:25:51Z</time>
      </trkpt>
      <trkpt lat="41.959566" lon="2.539386">
        <ele>575.063</ele>
        <time>2021-05-26T21:25:54Z</time>
      </trkpt>
      <trkpt lat="41.959579" lon="2.539367">
        <ele>575.493</ele>
        <time>2021-05-26T21:25:56Z</time>
      </trkpt>
      <trkpt lat="41.959595" lon="2.539351">
        <ele>576.179</ele>
        <time>2021-05-26T21:25:58Z</time>
      </trkpt>
      <trkpt lat="41.959617" lon="2.539330">
        <ele>577.144</ele>
        <time>2021-05-26T21:26:01Z</time>
      </trkpt>
      <trkpt lat="41.959634" lon="2.539320">
        <ele>578.011</ele>
        <time>2021-05-26T21:26:03Z</time>
      </trkpt>
      <trkpt lat="41.959658" lon="2.539304">
        <ele>579.221</ele>
        <time>2021-05-26T21:26:06Z</time>
      </trkpt>
      <trkpt lat="41.959675" lon="2.539291">
        <ele>580.003</ele>
        <time>2021-05-26T21:26:08Z</time>
      </trkpt>
      <trkpt lat="41.959693" lon="2.539283">
        <ele>581.008</ele>
        <time>2021-05-26T21:26:10Z</time>
      </trkpt>
      <trkpt lat="41.959713" lon="2.539265">
        <ele>581.958</ele>
        <time>2021-05-26T21:26:12Z</time>
      </trkpt>
      <trkpt lat="41.959734" lon="2.539249">
        <ele>583.055</ele>
        <time>2021-05-26T21:26:15Z</time>
      </trkpt>
      <trkpt lat="41.959756" lon="2.539234">
        <ele>584.322</ele>
        <time>2021-05-26T21:26:18Z</time>
      </trkpt>
      <trkpt lat="41.959771" lon="2.539220">
        <ele>585.196</ele>
        <time>2021-05-26T21:26:20Z</time>
      </trkpt>
      <trkpt lat="41.959785" lon="2.539193">
        <ele>585.691</ele>
        <time>2021-05-26T21:26:23Z</time>
      </trkpt>
      <trkpt lat="41.959796" lon="2.539161">
        <ele>585.731</ele>
        <time>2021-05-26T21:26:26Z</time>
      </trkpt>
      <trkpt lat="41.959805" lon="2.539140">
        <ele>586.047</ele>
        <time>2021-05-26T21:26:28Z</time>
      </trkpt>
      <trkpt lat="41.959815" lon="2.539106">
        <ele>586.082</ele>
        <time>2021-05-26T21:26:31Z</time>
      </trkpt>
      <trkpt lat="41.959823" lon="2.539083">
        <ele>586.233</ele>
        <time>2021-05-26T21:26:33Z</time>
      </trkpt>
      <trkpt lat="41.959831" lon="2.539059">
        <ele>586.423</ele>
        <time>2021-05-26T21:26:35Z</time>
      </trkpt>
      <trkpt lat="41.959832" lon="2.539030">
        <ele>585.815</ele>
        <time>2021-05-26T21:26:37Z</time>
      </trkpt>
      <trkpt lat="41.959836" lon="2.539004">
        <ele>585.608</ele>
        <time>2021-05-26T21:26:39Z</time>
      </trkpt>
      <trkpt lat="41.959841" lon="2.538980">
        <ele>585.670</ele>
        <time>2021-05-26T21:26:41Z</time>
      </trkpt>
      <trkpt lat="41.959842" lon="2.538949">
        <ele>585.087</ele>
        <time>2021-05-26T21:26:43Z</time>
      </trkpt>
      <trkpt lat="41.959848" lon="2.538920">
        <ele>585.094</ele>
        <time>2021-05-26T21:26:45Z</time>
      </trkpt>
      <trkpt lat="41.959854" lon="2.538893">
        <ele>584.958</ele>
        <time>2021-05-26T21:26:47Z</time>
      </trkpt>
      <trkpt lat="41.959858" lon="2.538866">
        <ele>584.763</ele>
        <time>2021-05-26T21:26:49Z</time>
      </trkpt>
      <trkpt lat="41.959861" lon="2.538841">
        <ele>584.573</ele>
        <time>2021-05-26T21:26:51Z</time>
      </trkpt>
      <trkpt lat="41.959867" lon="2.538815">
        <ele>584.449</ele>
        <time>2021-05-26T21:26:53Z</time>
      </trkpt>
      <trkpt lat="41.959872" lon="2.538790">
        <ele>584.324</ele>
        <time>2021-05-26T21:26:55Z</time>
      </trkpt>
      <trkpt lat="41.959876" lon="2.538765">
        <ele>584.246</ele>
        <time>2021-05-26T21:26:57Z</time>
      </trkpt>
      <trkpt lat="41.959882" lon="2.538741">
        <ele>584.288</ele>
        <time>2021-05-26T21:27:00Z</time>
      </trkpt>
      <trkpt lat="41.959893" lon="2.538717">
        <ele>584.716</ele>
        <time>2021-05-26T21:27:02Z</time>
      </trkpt>
      <trkpt lat="41.959902" lon="2.538696">
        <ele>585.008</ele>
        <time>2021-05-26T21:27:04Z</time>
      </trkpt>
      <trkpt lat="41.959914" lon="2.538675">
        <ele>585.661</ele>
        <time>2021-05-26T21:27:06Z</time>
      </trkpt>
      <trkpt lat="41.959926" lon="2.538651">
        <ele>586.278</ele>
        <time>2021-05-26T21:27:07Z</time>
      </trkpt>
      <trkpt lat="41.959939" lon="2.538627">
        <ele>586.965</ele>
        <time>2021-05-26T21:27:11Z</time>
      </trkpt>
      <trkpt lat="41.959955" lon="2.538602">
        <ele>587.779</ele>
        <time>2021-05-26T21:27:14Z</time>
      </trkpt>
      <trkpt lat="41.959972" lon="2.538577">
        <ele>588.714</ele>
        <time>2021-05-26T21:27:17Z</time>
      </trkpt>
      <trkpt lat="41.959989" lon="2.538551">
        <ele>589.524</ele>
        <time>2021-05-26T21:27:20Z</time>
      </trkpt>
      <trkpt lat="41.960006" lon="2.538526">
        <ele>590.310</ele>
        <time>2021-05-26T21:27:22Z</time>
      </trkpt>
      <trkpt lat="41.960020" lon="2.538496">
        <ele>590.565</ele>
        <time>2021-05-26T21:27:26Z</time>
      </trkpt>
      <trkpt lat="41.960035" lon="2.538470">
        <ele>591.012</ele>
        <time>2021-05-26T21:27:28Z</time>
      </trkpt>
      <trkpt lat="41.960051" lon="2.538447">
        <ele>591.632</ele>
        <time>2021-05-26T21:27:31Z</time>
      </trkpt>
      <trkpt lat="41.960070" lon="2.538428">
        <ele>592.505</ele>
        <time>2021-05-26T21:27:34Z</time>
      </trkpt>
      <trkpt lat="41.960083" lon="2.538410">
        <ele>593.008</ele>
        <time>2021-05-26T21:27:38Z</time>
      </trkpt>
      <trkpt lat="41.960094" lon="2.538385">
        <ele>593.398</ele>
        <time>2021-05-26T21:27:42Z</time>
      </trkpt>
      <trkpt lat="41.960110" lon="2.538365">
        <ele>594.045</ele>
        <time>2021-05-26T21:27:45Z</time>
      </trkpt>
      <trkpt lat="41.960127" lon="2.538349">
        <ele>594.912</ele>
        <time>2021-05-26T21:27:47Z</time>
      </trkpt>
      <trkpt lat="41.960141" lon="2.538332">
        <ele>595.676</ele>
        <time>2021-05-26T21:27:50Z</time>
      </trkpt>
      <trkpt lat="41.960158" lon="2.538302">
        <ele>596.451</ele>
        <time>2021-05-26T21:27:52Z</time>
      </trkpt>
      <trkpt lat="41.960169" lon="2.538278">
        <ele>596.831</ele>
        <time>2021-05-26T21:27:54Z</time>
      </trkpt>
      <trkpt lat="41.960190" lon="2.538258">
        <ele>598.137</ele>
        <time>2021-05-26T21:27:56Z</time>
      </trkpt>
      <trkpt lat="41.960204" lon="2.538241">
        <ele>598.922</ele>
        <time>2021-05-26T21:27:58Z</time>
      </trkpt>
      <trkpt lat="41.960220" lon="2.538226">
        <ele>599.948</ele>
        <time>2021-05-26T21:28:00Z</time>
      </trkpt>
      <trkpt lat="41.960230" lon="2.538206">
        <ele>600.461</ele>
        <time>2021-05-26T21:28:02Z</time>
      </trkpt>
      <trkpt lat="41.960246" lon="2.538178">
        <ele>601.217</ele>
        <time>2021-05-26T21:28:06Z</time>
      </trkpt>
      <trkpt lat="41.960253" lon="2.538147">
        <ele>601.308</ele>
        <time>2021-05-26T21:28:07Z</time>
      </trkpt>
      <trkpt lat="41.960259" lon="2.538115">
        <ele>601.371</ele>
        <time>2021-05-26T21:28:10Z</time>
      </trkpt>
      <trkpt lat="41.960267" lon="2.538076">
        <ele>601.418</ele>
        <time>2021-05-26T21:28:11Z</time>
      </trkpt>
      <trkpt lat="41.960278" lon="2.538047">
        <ele>601.985</ele>
        <time>2021-05-26T21:28:13Z</time>
      </trkpt>
      <trkpt lat="41.960292" lon="2.538011">
        <ele>602.289</ele>
        <time>2021-05-26T21:28:16Z</time>
      </trkpt>
      <trkpt lat="41.960299" lon="2.537980">
        <ele>602.174</ele>
        <time>2021-05-26T21:28:17Z</time>
      </trkpt>
      <trkpt lat="41.960303" lon="2.537944">
        <ele>601.744</ele>
        <time>2021-05-26T21:28:19Z</time>
      </trkpt>
      <trkpt lat="41.960301" lon="2.537910">
        <ele>601.070</ele>
        <time>2021-05-26T21:28:21Z</time>
      </trkpt>
      <trkpt lat="41.960310" lon="2.537877">
        <ele>601.065</ele>
        <time>2021-05-26T21:28:23Z</time>
      </trkpt>
      <trkpt lat="41.960310" lon="2.537842">
        <ele>600.432</ele>
        <time>2021-05-26T21:28:25Z</time>
      </trkpt>
      <trkpt lat="41.960308" lon="2.537809">
        <ele>599.692</ele>
        <time>2021-05-26T21:28:28Z</time>
      </trkpt>
      <trkpt lat="41.960310" lon="2.537774">
        <ele>599.211</ele>
        <time>2021-05-26T21:28:30Z</time>
      </trkpt>
      <trkpt lat="41.960315" lon="2.537742">
        <ele>599.308</ele>
        <time>2021-05-26T21:28:32Z</time>
      </trkpt>
      <trkpt lat="41.960322" lon="2.537712">
        <ele>599.510</ele>
        <time>2021-05-26T21:28:34Z</time>
      </trkpt>
      <trkpt lat="41.960335" lon="2.537680">
        <ele>600.157</ele>
        <time>2021-05-26T21:28:36Z</time>
      </trkpt>
      <trkpt lat="41.960341" lon="2.537650">
        <ele>600.284</ele>
        <time>2021-05-26T21:28:38Z</time>
      </trkpt>
      <trkpt lat="41.960348" lon="2.537617">
        <ele>600.458</ele>
        <time>2021-05-26T21:28:40Z</time>
      </trkpt>
      <trkpt lat="41.960356" lon="2.537583">
        <ele>600.633</ele>
        <time>2021-05-26T21:28:41Z</time>
      </trkpt>
      <trkpt lat="41.960369" lon="2.537554">
        <ele>601.113</ele>
        <time>2021-05-26T21:28:43Z</time>
      </trkpt>
      <trkpt lat="41.960383" lon="2.537531">
        <ele>601.779</ele>
        <time>2021-05-26T21:28:46Z</time>
      </trkpt>
      <trkpt lat="41.960398" lon="2.537504">
        <ele>602.464</ele>
        <time>2021-05-26T21:28:48Z</time>
      </trkpt>
      <trkpt lat="41.960409" lon="2.537476">
        <ele>602.712</ele>
        <time>2021-05-26T21:28:50Z</time>
      </trkpt>
      <trkpt lat="41.960426" lon="2.537447">
        <ele>603.432</ele>
        <time>2021-05-26T21:28:51Z</time>
      </trkpt>
      <trkpt lat="41.960440" lon="2.537414">
        <ele>603.805</ele>
        <time>2021-05-26T21:28:53Z</time>
      </trkpt>
      <trkpt lat="41.960456" lon="2.537384">
        <ele>604.408</ele>
        <time>2021-05-26T21:28:55Z</time>
      </trkpt>
      <trkpt lat="41.960469" lon="2.537356">
        <ele>604.878</ele>
        <time>2021-05-26T21:28:58Z</time>
      </trkpt>
      <trkpt lat="41.960481" lon="2.537327">
        <ele>605.185</ele>
        <time>2021-05-26T21:28:59Z</time>
      </trkpt>
      <trkpt lat="41.960495" lon="2.537299">
        <ele>605.612</ele>
        <time>2021-05-26T21:29:02Z</time>
      </trkpt>
      <trkpt lat="41.960509" lon="2.537272">
        <ele>606.096</ele>
        <time>2021-05-26T21:29:03Z</time>
      </trkpt>
      <trkpt lat="41.960528" lon="2.537249">
        <ele>606.851</ele>
        <time>2021-05-26T21:29:06Z</time>
      </trkpt>
      <trkpt lat="41.960541" lon="2.537224">
        <ele>607.221</ele>
        <time>2021-05-26T21:29:07Z</time>
      </trkpt>
      <trkpt lat="41.960550" lon="2.537193">
        <ele>607.687</ele>
        <time>2021-05-26T21:29:10Z</time>
      </trkpt>
      <trkpt lat="41.960562" lon="2.537163">
        <ele>608.142</ele>
        <time>2021-05-26T21:29:11Z</time>
      </trkpt>
      <trkpt lat="41.960574" lon="2.537133">
        <ele>608.696</ele>
        <time>2021-05-26T21:29:13Z</time>
      </trkpt>
      <trkpt lat="41.960587" lon="2.537100">
        <ele>609.131</ele>
        <time>2021-05-26T21:29:16Z</time>
      </trkpt>
      <trkpt lat="41.960595" lon="2.537066">
        <ele>609.224</ele>
        <time>2021-05-26T21:29:18Z</time>
      </trkpt>
      <trkpt lat="41.960599" lon="2.537033">
        <ele>609.208</ele>
        <time>2021-05-26T21:29:19Z</time>
      </trkpt>
      <trkpt lat="41.960607" lon="2.536999">
        <ele>609.476</ele>
        <time>2021-05-26T21:29:22Z</time>
      </trkpt>
      <trkpt lat="41.960609" lon="2.536965">
        <ele>609.213</ele>
        <time>2021-05-26T21:29:24Z</time>
      </trkpt>
      <trkpt lat="41.960603" lon="2.536924">
        <ele>609.020</ele>
        <time>2021-05-26T21:29:26Z</time>
      </trkpt>
      <trkpt lat="41.960595" lon="2.536891">
        <ele>608.954</ele>
        <time>2021-05-26T21:29:28Z</time>
      </trkpt>
      <trkpt lat="41.960586" lon="2.536861">
        <ele>608.729</ele>
        <time>2021-05-26T21:29:30Z</time>
      </trkpt>
      <trkpt lat="41.960579" lon="2.536829">
        <ele>608.759</ele>
        <time>2021-05-26T21:29:32Z</time>
      </trkpt>
      <trkpt lat="41.960569" lon="2.536798">
        <ele>608.595</ele>
        <time>2021-05-26T21:29:35Z</time>
      </trkpt>
      <trkpt lat="41.960558" lon="2.536767">
        <ele>608.420</ele>
        <time>2021-05-26T21:29:37Z</time>
      </trkpt>
      <trkpt lat="41.960543" lon="2.536737">
        <ele>608.035</ele>
        <time>2021-05-26T21:29:38Z</time>
      </trkpt>
      <trkpt lat="41.960530" lon="2.536707">
        <ele>607.786</ele>
        <time>2021-05-26T21:29:41Z</time>
      </trkpt>
      <trkpt lat="41.960520" lon="2.536675">
        <ele>607.514</ele>
        <time>2021-05-26T21:29:42Z</time>
      </trkpt>
      <trkpt lat="41.960506" lon="2.536638">
        <ele>607.508</ele>
        <time>2021-05-26T21:29:44Z</time>
      </trkpt>
      <trkpt lat="41.960494" lon="2.536602">
        <ele>607.680</ele>
        <time>2021-05-26T21:29:46Z</time>
      </trkpt>
      <trkpt lat="41.960485" lon="2.536569">
        <ele>607.847</ele>
        <time>2021-05-26T21:29:49Z</time>
      </trkpt>
      <trkpt lat="41.960477" lon="2.536532">
        <ele>608.194</ele>
        <time>2021-05-26T21:29:50Z</time>
      </trkpt>
      <trkpt lat="41.960469" lon="2.536495">
        <ele>608.458</ele>
        <time>2021-05-26T21:29:52Z</time>
      </trkpt>
      <trkpt lat="41.960456" lon="2.536460">
        <ele>608.623</ele>
        <time>2021-05-26T21:29:54Z</time>
      </trkpt>
      <trkpt lat="41.960450" lon="2.536436">
        <ele>608.813</ele>
        <time>2021-05-26T21:29:55Z</time>
      </trkpt>
      <trkpt lat="41.960439" lon="2.536384">
        <ele>609.329</ele>
        <time>2021-05-26T21:29:58Z</time>
      </trkpt>
      <trkpt lat="41.960437" lon="2.536350">
        <ele>609.724</ele>
        <time>2021-05-26T21:30:01Z</time>
      </trkpt>
      <trkpt lat="41.960434" lon="2.536317">
        <ele>610.133</ele>
        <time>2021-05-26T21:30:02Z</time>
      </trkpt>
      <trkpt lat="41.960427" lon="2.536280">
        <ele>610.423</ele>
        <time>2021-05-26T21:30:05Z</time>
      </trkpt>
      <trkpt lat="41.960420" lon="2.536250">
        <ele>610.615</ele>
        <time>2021-05-26T21:30:06Z</time>
      </trkpt>
      <trkpt lat="41.960406" lon="2.536214">
        <ele>610.708</ele>
        <time>2021-05-26T21:30:09Z</time>
      </trkpt>
      <trkpt lat="41.960391" lon="2.536179">
        <ele>610.870</ele>
        <time>2021-05-26T21:30:11Z</time>
      </trkpt>
      <trkpt lat="41.960378" lon="2.536151">
        <ele>610.947</ele>
        <time>2021-05-26T21:30:12Z</time>
      </trkpt>
      <trkpt lat="41.960363" lon="2.536126">
        <ele>610.984</ele>
        <time>2021-05-26T21:30:15Z</time>
      </trkpt>
      <trkpt lat="41.960350" lon="2.536101">
        <ele>611.078</ele>
        <time>2021-05-26T21:30:16Z</time>
      </trkpt>
      <trkpt lat="41.960332" lon="2.536072">
        <ele>611.073</ele>
        <time>2021-05-26T21:30:19Z</time>
      </trkpt>
      <trkpt lat="41.960327" lon="2.536048">
        <ele>611.333</ele>
        <time>2021-05-26T21:30:20Z</time>
      </trkpt>
      <trkpt lat="41.960344" lon="2.536026">
        <ele>612.189</ele>
        <time>2021-05-26T21:30:22Z</time>
      </trkpt>
      <trkpt lat="41.960368" lon="2.536024">
        <ele>612.744</ele>
        <time>2021-05-26T21:30:26Z</time>
      </trkpt>
      <trkpt lat="41.960385" lon="2.536031">
        <ele>613.079</ele>
        <time>2021-05-26T21:30:28Z</time>
      </trkpt>
      <trkpt lat="41.960403" lon="2.536038">
        <ele>613.405</ele>
        <time>2021-05-26T21:30:30Z</time>
      </trkpt>
      <trkpt lat="41.960424" lon="2.536048">
        <ele>613.725</ele>
        <time>2021-05-26T21:30:32Z</time>
      </trkpt>
      <trkpt lat="41.960450" lon="2.536050">
        <ele>614.308</ele>
        <time>2021-05-26T21:30:33Z</time>
      </trkpt>
      <trkpt lat="41.960474" lon="2.536065">
        <ele>614.744</ele>
        <time>2021-05-26T21:30:36Z</time>
      </trkpt>
      <trkpt lat="41.960489" lon="2.536079">
        <ele>614.851</ele>
        <time>2021-05-26T21:30:38Z</time>
      </trkpt>
      <trkpt lat="41.960504" lon="2.536101">
        <ele>614.938</ele>
        <time>2021-05-26T21:30:41Z</time>
      </trkpt>
      <trkpt lat="41.960520" lon="2.536120">
        <ele>615.042</ele>
        <time>2021-05-26T21:30:43Z</time>
      </trkpt>
      <trkpt lat="41.960533" lon="2.536145">
        <ele>615.067</ele>
        <time>2021-05-26T21:30:45Z</time>
      </trkpt>
      <trkpt lat="41.960545" lon="2.536171">
        <ele>615.197</ele>
        <time>2021-05-26T21:30:47Z</time>
      </trkpt>
      <trkpt lat="41.960555" lon="2.536193">
        <ele>615.183</ele>
        <time>2021-05-26T21:30:48Z</time>
      </trkpt>
      <trkpt lat="41.960568" lon="2.536220">
        <ele>615.078</ele>
        <time>2021-05-26T21:30:50Z</time>
      </trkpt>
      <trkpt lat="41.960583" lon="2.536252">
        <ele>614.916</ele>
        <time>2021-05-26T21:30:52Z</time>
      </trkpt>
      <trkpt lat="41.960590" lon="2.536288">
        <ele>614.676</ele>
        <time>2021-05-26T21:30:54Z</time>
      </trkpt>
      <trkpt lat="41.960595" lon="2.536320">
        <ele>614.413</ele>
        <time>2021-05-26T21:30:56Z</time>
      </trkpt>
      <trkpt lat="41.960594" lon="2.536352">
        <ele>614.108</ele>
        <time>2021-05-26T21:30:59Z</time>
      </trkpt>
      <trkpt lat="41.960599" lon="2.536384">
        <ele>613.898</ele>
        <time>2021-05-26T21:31:01Z</time>
      </trkpt>
      <trkpt lat="41.960605" lon="2.536414">
        <ele>613.645</ele>
        <time>2021-05-26T21:31:02Z</time>
      </trkpt>
      <trkpt lat="41.960613" lon="2.536445">
        <ele>613.442</ele>
        <time>2021-05-26T21:31:04Z</time>
      </trkpt>
      <trkpt lat="41.960623" lon="2.536477">
        <ele>613.356</ele>
        <time>2021-05-26T21:31:06Z</time>
      </trkpt>
      <trkpt lat="41.960633" lon="2.536508">
        <ele>613.291</ele>
        <time>2021-05-26T21:31:08Z</time>
      </trkpt>
      <trkpt lat="41.960646" lon="2.536537">
        <ele>613.271</ele>
        <time>2021-05-26T21:31:11Z</time>
      </trkpt>
      <trkpt lat="41.960664" lon="2.536565">
        <ele>613.437</ele>
        <time>2021-05-26T21:31:13Z</time>
      </trkpt>
      <trkpt lat="41.960684" lon="2.536589">
        <ele>613.812</ele>
        <time>2021-05-26T21:31:15Z</time>
      </trkpt>
      <trkpt lat="41.960706" lon="2.536610">
        <ele>614.234</ele>
        <time>2021-05-26T21:31:17Z</time>
      </trkpt>
      <trkpt lat="41.960727" lon="2.536626">
        <ele>614.855</ele>
        <time>2021-05-26T21:31:18Z</time>
      </trkpt>
      <trkpt lat="41.960750" lon="2.536632">
        <ele>615.510</ele>
        <time>2021-05-26T21:31:20Z</time>
      </trkpt>
      <trkpt lat="41.960776" lon="2.536639">
        <ele>616.208</ele>
        <time>2021-05-26T21:31:22Z</time>
      </trkpt>
      <trkpt lat="41.960798" lon="2.536642">
        <ele>616.960</ele>
        <time>2021-05-26T21:31:25Z</time>
      </trkpt>
      <trkpt lat="41.960823" lon="2.536651">
        <ele>617.727</ele>
        <time>2021-05-26T21:31:26Z</time>
      </trkpt>
      <trkpt lat="41.960847" lon="2.536662">
        <ele>618.054</ele>
        <time>2021-05-26T21:31:28Z</time>
      </trkpt>
      <trkpt lat="41.960867" lon="2.536670">
        <ele>618.018</ele>
        <time>2021-05-26T21:31:30Z</time>
      </trkpt>
      <trkpt lat="41.960890" lon="2.536685">
        <ele>618.113</ele>
        <time>2021-05-26T21:31:33Z</time>
      </trkpt>
      <trkpt lat="41.960901" lon="2.536715">
        <ele>618.313</ele>
        <time>2021-05-26T21:31:36Z</time>
      </trkpt>
      <trkpt lat="41.960907" lon="2.536689">
        <ele>618.129</ele>
        <time>2021-05-26T21:32:20Z</time>
      </trkpt>
      <trkpt lat="41.960903" lon="2.536659">
        <ele>618.054</ele>
        <time>2021-05-26T21:32:22Z</time>
      </trkpt>
      <trkpt lat="41.960898" lon="2.536635">
        <ele>617.986</ele>
        <time>2021-05-26T21:32:24Z</time>
      </trkpt>
      <trkpt lat="41.960899" lon="2.536607">
        <ele>617.860</ele>
        <time>2021-05-26T21:32:26Z</time>
      </trkpt>
      <trkpt lat="41.960896" lon="2.536583">
        <ele>617.826</ele>
        <time>2021-05-26T21:32:27Z</time>
      </trkpt>
      <trkpt lat="41.960895" lon="2.536552">
        <ele>617.708</ele>
        <time>2021-05-26T21:32:30Z</time>
      </trkpt>
      <trkpt lat="41.960889" lon="2.536591">
        <ele>617.815</ele>
        <time>2021-05-26T21:32:37Z</time>
      </trkpt>
      <trkpt lat="41.960893" lon="2.536625">
        <ele>617.992</ele>
        <time>2021-05-26T21:32:39Z</time>
      </trkpt>
      <trkpt lat="41.960902" lon="2.536659">
        <ele>618.049</ele>
        <time>2021-05-26T21:32:41Z</time>
      </trkpt>
      <trkpt lat="41.960914" lon="2.536687">
        <ele>618.153</ele>
        <time>2021-05-26T21:32:44Z</time>
      </trkpt>
      <trkpt lat="41.960931" lon="2.536701">
        <ele>618.368</ele>
        <time>2021-05-26T21:32:45Z</time>
      </trkpt>
      <trkpt lat="41.960922" lon="2.536731">
        <ele>618.448</ele>
        <time>2021-05-26T21:32:51Z</time>
      </trkpt>
      <trkpt lat="41.960942" lon="2.536746">
        <ele>618.734</ele>
        <time>2021-05-26T21:32:52Z</time>
      </trkpt>
      <trkpt lat="41.960966" lon="2.536739">
        <ele>618.759</ele>
        <time>2021-05-26T21:32:54Z</time>
      </trkpt>
      <trkpt lat="41.960980" lon="2.536714">
        <ele>618.574</ele>
        <time>2021-05-26T21:32:56Z</time>
      </trkpt>
      <trkpt lat="41.960988" lon="2.536683">
        <ele>618.256</ele>
        <time>2021-05-26T21:32:59Z</time>
      </trkpt>
      <trkpt lat="41.960998" lon="2.536653">
        <ele>617.921</ele>
        <time>2021-05-26T21:33:01Z</time>
      </trkpt>
      <trkpt lat="41.961009" lon="2.536626">
        <ele>617.708</ele>
        <time>2021-05-26T21:33:02Z</time>
      </trkpt>
      <trkpt lat="41.961016" lon="2.536601">
        <ele>617.584</ele>
        <time>2021-05-26T21:33:04Z</time>
      </trkpt>
      <trkpt lat="41.961021" lon="2.536572">
        <ele>617.391</ele>
        <time>2021-05-26T21:33:06Z</time>
      </trkpt>
      <trkpt lat="41.961027" lon="2.536541">
        <ele>617.138</ele>
        <time>2021-05-26T21:33:08Z</time>
      </trkpt>
      <trkpt lat="41.961030" lon="2.536508">
        <ele>616.892</ele>
        <time>2021-05-26T21:33:15Z</time>
      </trkpt>
      <trkpt lat="41.961035" lon="2.536472">
        <ele>616.547</ele>
        <time>2021-05-26T21:33:17Z</time>
      </trkpt>
      <trkpt lat="41.961035" lon="2.536435">
        <ele>616.217</ele>
        <time>2021-05-26T21:33:18Z</time>
      </trkpt>
      <trkpt lat="41.961032" lon="2.536398">
        <ele>615.973</ele>
        <time>2021-05-26T21:33:21Z</time>
      </trkpt>
      <trkpt lat="41.961029" lon="2.536361">
        <ele>615.858</ele>
        <time>2021-05-26T21:33:22Z</time>
      </trkpt>
      <trkpt lat="41.961029" lon="2.536323">
        <ele>615.625</ele>
        <time>2021-05-26T21:33:25Z</time>
      </trkpt>
      <trkpt lat="41.961028" lon="2.536272">
        <ele>615.426</ele>
        <time>2021-05-26T21:33:26Z</time>
      </trkpt>
      <trkpt lat="41.961028" lon="2.536218">
        <ele>615.208</ele>
        <time>2021-05-26T21:33:28Z</time>
      </trkpt>
      <trkpt lat="41.961029" lon="2.536191">
        <ele>615.108</ele>
        <time>2021-05-26T21:33:30Z</time>
      </trkpt>
      <trkpt lat="41.961031" lon="2.536136">
        <ele>614.879</ele>
        <time>2021-05-26T21:33:31Z</time>
      </trkpt>
      <trkpt lat="41.961027" lon="2.536074">
        <ele>614.716</ele>
        <time>2021-05-26T21:33:33Z</time>
      </trkpt>
      <trkpt lat="41.961026" lon="2.536012">
        <ele>614.613</ele>
        <time>2021-05-26T21:33:35Z</time>
      </trkpt>
      <trkpt lat="41.961024" lon="2.535987">
        <ele>614.687</ele>
        <time>2021-05-26T21:33:36Z</time>
      </trkpt>
      <trkpt lat="41.961018" lon="2.535959">
        <ele>614.672</ele>
        <time>2021-05-26T21:33:38Z</time>
      </trkpt>
      <trkpt lat="41.961016" lon="2.535931">
        <ele>614.652</ele>
        <time>2021-05-26T21:33:39Z</time>
      </trkpt>
      <trkpt lat="41.961013" lon="2.535898">
        <ele>614.698</ele>
        <time>2021-05-26T21:33:40Z</time>
      </trkpt>
      <trkpt lat="41.961013" lon="2.535865">
        <ele>614.523</ele>
        <time>2021-05-26T21:33:41Z</time>
      </trkpt>
      <trkpt lat="41.961014" lon="2.535834">
        <ele>614.461</ele>
        <time>2021-05-26T21:33:42Z</time>
      </trkpt>
      <trkpt lat="41.961015" lon="2.535799">
        <ele>614.521</ele>
        <time>2021-05-26T21:33:43Z</time>
      </trkpt>
      <trkpt lat="41.961013" lon="2.535735">
        <ele>614.613</ele>
        <time>2021-05-26T21:33:44Z</time>
      </trkpt>
      <trkpt lat="41.961012" lon="2.535700">
        <ele>614.708</ele>
        <time>2021-05-26T21:33:45Z</time>
      </trkpt>
      <trkpt lat="41.961011" lon="2.535664">
        <ele>614.853</ele>
        <time>2021-05-26T21:33:46Z</time>
      </trkpt>
      <trkpt lat="41.961008" lon="2.535628">
        <ele>615.020</ele>
        <time>2021-05-26T21:33:48Z</time>
      </trkpt>
      <trkpt lat="41.961008" lon="2.535563">
        <ele>615.117</ele>
        <time>2021-05-26T21:33:49Z</time>
      </trkpt>
      <trkpt lat="41.961015" lon="2.535523">
        <ele>615.041</ele>
        <time>2021-05-26T21:33:50Z</time>
      </trkpt>
      <trkpt lat="41.961026" lon="2.535451">
        <ele>614.846</ele>
        <time>2021-05-26T21:33:52Z</time>
      </trkpt>
      <trkpt lat="41.961043" lon="2.535384">
        <ele>614.326</ele>
        <time>2021-05-26T21:33:54Z</time>
      </trkpt>
      <trkpt lat="41.961053" lon="2.535351">
        <ele>613.912</ele>
        <time>2021-05-26T21:33:55Z</time>
      </trkpt>
      <trkpt lat="41.961064" lon="2.535317">
        <ele>613.477</ele>
        <time>2021-05-26T21:33:56Z</time>
      </trkpt>
      <trkpt lat="41.961077" lon="2.535287">
        <ele>612.889</ele>
        <time>2021-05-26T21:33:57Z</time>
      </trkpt>
      <trkpt lat="41.961102" lon="2.535229">
        <ele>611.306</ele>
        <time>2021-05-26T21:33:59Z</time>
      </trkpt>
      <trkpt lat="41.961137" lon="2.535113">
        <ele>609.026</ele>
        <time>2021-05-26T21:34:03Z</time>
      </trkpt>
      <trkpt lat="41.961151" lon="2.535082">
        <ele>608.208</ele>
        <time>2021-05-26T21:34:04Z</time>
      </trkpt>
      <trkpt lat="41.961155" lon="2.535050">
        <ele>607.845</ele>
        <time>2021-05-26T21:34:06Z</time>
      </trkpt>
      <trkpt lat="41.961162" lon="2.535022">
        <ele>607.322</ele>
        <time>2021-05-26T21:34:07Z</time>
      </trkpt>
      <trkpt lat="41.961172" lon="2.534968">
        <ele>606.679</ele>
        <time>2021-05-26T21:34:08Z</time>
      </trkpt>
      <trkpt lat="41.961172" lon="2.534941">
        <ele>606.573</ele>
        <time>2021-05-26T21:34:09Z</time>
      </trkpt>
      <trkpt lat="41.961171" lon="2.534912">
        <ele>606.458</ele>
        <time>2021-05-26T21:34:10Z</time>
      </trkpt>
      <trkpt lat="41.961176" lon="2.534881">
        <ele>606.198</ele>
        <time>2021-05-26T21:34:11Z</time>
      </trkpt>
      <trkpt lat="41.961187" lon="2.534851">
        <ele>605.414</ele>
        <time>2021-05-26T21:34:12Z</time>
      </trkpt>
      <trkpt lat="41.961197" lon="2.534824">
        <ele>604.769</ele>
        <time>2021-05-26T21:34:13Z</time>
      </trkpt>
      <trkpt lat="41.961208" lon="2.534792">
        <ele>604.039</ele>
        <time>2021-05-26T21:34:14Z</time>
      </trkpt>
      <trkpt lat="41.961218" lon="2.534761">
        <ele>603.401</ele>
        <time>2021-05-26T21:34:15Z</time>
      </trkpt>
      <trkpt lat="41.961227" lon="2.534732">
        <ele>602.821</ele>
        <time>2021-05-26T21:34:16Z</time>
      </trkpt>
      <trkpt lat="41.961235" lon="2.534698">
        <ele>602.408</ele>
        <time>2021-05-26T21:34:17Z</time>
      </trkpt>
      <trkpt lat="41.961243" lon="2.534663">
        <ele>602.280</ele>
        <time>2021-05-26T21:34:18Z</time>
      </trkpt>
      <trkpt lat="41.961251" lon="2.534628">
        <ele>602.037</ele>
        <time>2021-05-26T21:34:20Z</time>
      </trkpt>
      <trkpt lat="41.961254" lon="2.534594">
        <ele>602.014</ele>
        <time>2021-05-26T21:34:21Z</time>
      </trkpt>
      <trkpt lat="41.961260" lon="2.534565">
        <ele>601.868</ele>
        <time>2021-05-26T21:34:22Z</time>
      </trkpt>
      <trkpt lat="41.961266" lon="2.534533">
        <ele>601.653</ele>
        <time>2021-05-26T21:34:23Z</time>
      </trkpt>
      <trkpt lat="41.961271" lon="2.534499">
        <ele>601.593</ele>
        <time>2021-05-26T21:34:24Z</time>
      </trkpt>
      <trkpt lat="41.961277" lon="2.534466">
        <ele>601.329</ele>
        <time>2021-05-26T21:34:25Z</time>
      </trkpt>
      <trkpt lat="41.961289" lon="2.534430">
        <ele>601.124</ele>
        <time>2021-05-26T21:34:26Z</time>
      </trkpt>
      <trkpt lat="41.961295" lon="2.534391">
        <ele>601.614</ele>
        <time>2021-05-26T21:34:27Z</time>
      </trkpt>
      <trkpt lat="41.961308" lon="2.534358">
        <ele>601.554</ele>
        <time>2021-05-26T21:34:28Z</time>
      </trkpt>
      <trkpt lat="41.961321" lon="2.534330">
        <ele>601.309</ele>
        <time>2021-05-26T21:34:29Z</time>
      </trkpt>
      <trkpt lat="41.961349" lon="2.534263">
        <ele>600.808</ele>
        <time>2021-05-26T21:34:30Z</time>
      </trkpt>
      <trkpt lat="41.961355" lon="2.534231">
        <ele>601.168</ele>
        <time>2021-05-26T21:34:32Z</time>
      </trkpt>
      <trkpt lat="41.961376" lon="2.534168">
        <ele>600.925</ele>
        <time>2021-05-26T21:34:33Z</time>
      </trkpt>
      <trkpt lat="41.961386" lon="2.534139">
        <ele>600.912</ele>
        <time>2021-05-26T21:34:34Z</time>
      </trkpt>
      <trkpt lat="41.961398" lon="2.534113">
        <ele>600.876</ele>
        <time>2021-05-26T21:34:36Z</time>
      </trkpt>
      <trkpt lat="41.961422" lon="2.534060">
        <ele>600.511</ele>
        <time>2021-05-26T21:34:37Z</time>
      </trkpt>
      <trkpt lat="41.961435" lon="2.534035">
        <ele>600.351</ele>
        <time>2021-05-26T21:34:38Z</time>
      </trkpt>
      <trkpt lat="41.961443" lon="2.534007">
        <ele>600.517</ele>
        <time>2021-05-26T21:34:39Z</time>
      </trkpt>
      <trkpt lat="41.961450" lon="2.533980">
        <ele>600.782</ele>
        <time>2021-05-26T21:34:40Z</time>
      </trkpt>
      <trkpt lat="41.961474" lon="2.533927">
        <ele>600.534</ele>
        <time>2021-05-26T21:34:42Z</time>
      </trkpt>
      <trkpt lat="41.961487" lon="2.533901">
        <ele>600.355</ele>
        <time>2021-05-26T21:34:43Z</time>
      </trkpt>
      <trkpt lat="41.961497" lon="2.533875">
        <ele>600.410</ele>
        <time>2021-05-26T21:34:44Z</time>
      </trkpt>
      <trkpt lat="41.961521" lon="2.533822">
        <ele>600.408</ele>
        <time>2021-05-26T21:34:46Z</time>
      </trkpt>
      <trkpt lat="41.961533" lon="2.533799">
        <ele>600.210</ele>
        <time>2021-05-26T21:34:48Z</time>
      </trkpt>
      <trkpt lat="41.961539" lon="2.533777">
        <ele>600.527</ele>
        <time>2021-05-26T21:34:49Z</time>
      </trkpt>
      <trkpt lat="41.961550" lon="2.533755">
        <ele>600.414</ele>
        <time>2021-05-26T21:34:50Z</time>
      </trkpt>
      <trkpt lat="41.961581" lon="2.533716">
        <ele>599.568</ele>
        <time>2021-05-26T21:34:51Z</time>
      </trkpt>
      <trkpt lat="41.961596" lon="2.533696">
        <ele>599.163</ele>
        <time>2021-05-26T21:34:52Z</time>
      </trkpt>
      <trkpt lat="41.961611" lon="2.533675">
        <ele>598.893</ele>
        <time>2021-05-26T21:34:53Z</time>
      </trkpt>
      <trkpt lat="41.961628" lon="2.533653">
        <ele>598.359</ele>
        <time>2021-05-26T21:34:54Z</time>
      </trkpt>
      <trkpt lat="41.961644" lon="2.533631">
        <ele>597.954</ele>
        <time>2021-05-26T21:34:56Z</time>
      </trkpt>
      <trkpt lat="41.961659" lon="2.533608">
        <ele>597.627</ele>
        <time>2021-05-26T21:34:57Z</time>
      </trkpt>
      <trkpt lat="41.961675" lon="2.533587">
        <ele>597.368</ele>
        <time>2021-05-26T21:34:58Z</time>
      </trkpt>
      <trkpt lat="41.961708" lon="2.533542">
        <ele>597.114</ele>
        <time>2021-05-26T21:34:59Z</time>
      </trkpt>
      <trkpt lat="41.961726" lon="2.533520">
        <ele>596.908</ele>
        <time>2021-05-26T21:35:00Z</time>
      </trkpt>
      <trkpt lat="41.961739" lon="2.533498">
        <ele>596.929</ele>
        <time>2021-05-26T21:35:01Z</time>
      </trkpt>
      <trkpt lat="41.961778" lon="2.533456">
        <ele>596.286</ele>
        <time>2021-05-26T21:35:03Z</time>
      </trkpt>
      <trkpt lat="41.961794" lon="2.533435">
        <ele>596.073</ele>
        <time>2021-05-26T21:35:05Z</time>
      </trkpt>
      <trkpt lat="41.961824" lon="2.533388">
        <ele>595.797</ele>
        <time>2021-05-26T21:35:06Z</time>
      </trkpt>
      <trkpt lat="41.961841" lon="2.533366">
        <ele>595.452</ele>
        <time>2021-05-26T21:35:08Z</time>
      </trkpt>
      <trkpt lat="41.961880" lon="2.533325">
        <ele>594.442</ele>
        <time>2021-05-26T21:35:09Z</time>
      </trkpt>
      <trkpt lat="41.961895" lon="2.533305">
        <ele>594.168</ele>
        <time>2021-05-26T21:35:10Z</time>
      </trkpt>
      <trkpt lat="41.961910" lon="2.533286">
        <ele>593.783</ele>
        <time>2021-05-26T21:35:12Z</time>
      </trkpt>
      <trkpt lat="41.961928" lon="2.533268">
        <ele>593.239</ele>
        <time>2021-05-26T21:35:13Z</time>
      </trkpt>
      <trkpt lat="41.961946" lon="2.533249">
        <ele>592.701</ele>
        <time>2021-05-26T21:35:14Z</time>
      </trkpt>
      <trkpt lat="41.961959" lon="2.533224">
        <ele>592.421</ele>
        <time>2021-05-26T21:35:15Z</time>
      </trkpt>
      <trkpt lat="41.961976" lon="2.533198">
        <ele>591.708</ele>
        <time>2021-05-26T21:35:16Z</time>
      </trkpt>
      <trkpt lat="41.961992" lon="2.533171">
        <ele>591.130</ele>
        <time>2021-05-26T21:35:17Z</time>
      </trkpt>
      <trkpt lat="41.962001" lon="2.533139">
        <ele>590.977</ele>
        <time>2021-05-26T21:35:18Z</time>
      </trkpt>
      <trkpt lat="41.962014" lon="2.533109">
        <ele>590.474</ele>
        <time>2021-05-26T21:35:19Z</time>
      </trkpt>
      <trkpt lat="41.962039" lon="2.533053">
        <ele>589.288</ele>
        <time>2021-05-26T21:35:20Z</time>
      </trkpt>
      <trkpt lat="41.962056" lon="2.533029">
        <ele>587.913</ele>
        <time>2021-05-26T21:35:21Z</time>
      </trkpt>
      <trkpt lat="41.962073" lon="2.533003">
        <ele>586.693</ele>
        <time>2021-05-26T21:35:22Z</time>
      </trkpt>
      <trkpt lat="41.962087" lon="2.532980">
        <ele>585.659</ele>
        <time>2021-05-26T21:35:23Z</time>
      </trkpt>
      <trkpt lat="41.962105" lon="2.532959">
        <ele>584.374</ele>
        <time>2021-05-26T21:35:24Z</time>
      </trkpt>
      <trkpt lat="41.962120" lon="2.532935">
        <ele>583.211</ele>
        <time>2021-05-26T21:35:25Z</time>
      </trkpt>
      <trkpt lat="41.962133" lon="2.532909">
        <ele>582.321</ele>
        <time>2021-05-26T21:35:26Z</time>
      </trkpt>
      <trkpt lat="41.962144" lon="2.532880">
        <ele>581.603</ele>
        <time>2021-05-26T21:35:27Z</time>
      </trkpt>
      <trkpt lat="41.962154" lon="2.532848">
        <ele>581.008</ele>
        <time>2021-05-26T21:35:28Z</time>
      </trkpt>
      <trkpt lat="41.962166" lon="2.532819">
        <ele>580.258</ele>
        <time>2021-05-26T21:35:29Z</time>
      </trkpt>
      <trkpt lat="41.962169" lon="2.532790">
        <ele>580.185</ele>
        <time>2021-05-26T21:35:30Z</time>
      </trkpt>
      <trkpt lat="41.962172" lon="2.532762">
        <ele>580.482</ele>
        <time>2021-05-26T21:35:31Z</time>
      </trkpt>
      <trkpt lat="41.962170" lon="2.532731">
        <ele>581.376</ele>
        <time>2021-05-26T21:35:32Z</time>
      </trkpt>
      <trkpt lat="41.962169" lon="2.532700">
        <ele>582.181</ele>
        <time>2021-05-26T21:35:33Z</time>
      </trkpt>
      <trkpt lat="41.962169" lon="2.532668">
        <ele>582.841</ele>
        <time>2021-05-26T21:35:34Z</time>
      </trkpt>
      <trkpt lat="41.962165" lon="2.532635">
        <ele>583.967</ele>
        <time>2021-05-26T21:35:35Z</time>
      </trkpt>
      <trkpt lat="41.962165" lon="2.532610">
        <ele>584.582</ele>
        <time>2021-05-26T21:35:36Z</time>
      </trkpt>
      <trkpt lat="41.962166" lon="2.532582">
        <ele>585.175</ele>
        <time>2021-05-26T21:35:37Z</time>
      </trkpt>
      <trkpt lat="41.962169" lon="2.532547">
        <ele>585.728</ele>
        <time>2021-05-26T21:35:38Z</time>
      </trkpt>
      <trkpt lat="41.962173" lon="2.532517">
        <ele>586.120</ele>
        <time>2021-05-26T21:35:39Z</time>
      </trkpt>
      <trkpt lat="41.962174" lon="2.532490">
        <ele>586.608</ele>
        <time>2021-05-26T21:35:40Z</time>
      </trkpt>
      <trkpt lat="41.962180" lon="2.532435">
        <ele>587.054</ele>
        <time>2021-05-26T21:35:42Z</time>
      </trkpt>
      <trkpt lat="41.962183" lon="2.532368">
        <ele>587.971</ele>
        <time>2021-05-26T21:35:44Z</time>
      </trkpt>
      <trkpt lat="41.962184" lon="2.532336">
        <ele>588.318</ele>
        <time>2021-05-26T21:35:45Z</time>
      </trkpt>
      <trkpt lat="41.962188" lon="2.532305">
        <ele>588.482</ele>
        <time>2021-05-26T21:35:46Z</time>
      </trkpt>
      <trkpt lat="41.962189" lon="2.532245">
        <ele>589.387</ele>
        <time>2021-05-26T21:35:48Z</time>
      </trkpt>
      <trkpt lat="41.962186" lon="2.532214">
        <ele>590.027</ele>
        <time>2021-05-26T21:35:49Z</time>
      </trkpt>
      <trkpt lat="41.962192" lon="2.532181">
        <ele>590.193</ele>
        <time>2021-05-26T21:35:50Z</time>
      </trkpt>
      <trkpt lat="41.962196" lon="2.532147">
        <ele>590.438</ele>
        <time>2021-05-26T21:35:51Z</time>
      </trkpt>
      <trkpt lat="41.962199" lon="2.532113">
        <ele>590.876</ele>
        <time>2021-05-26T21:35:52Z</time>
      </trkpt>
      <trkpt lat="41.962203" lon="2.532079">
        <ele>591.190</ele>
        <time>2021-05-26T21:35:53Z</time>
      </trkpt>
      <trkpt lat="41.962212" lon="2.532046">
        <ele>591.019</ele>
        <time>2021-05-26T21:35:54Z</time>
      </trkpt>
      <trkpt lat="41.962220" lon="2.532012">
        <ele>591.008</ele>
        <time>2021-05-26T21:35:55Z</time>
      </trkpt>
      <trkpt lat="41.962227" lon="2.531983">
        <ele>591.194</ele>
        <time>2021-05-26T21:35:56Z</time>
      </trkpt>
      <trkpt lat="41.962230" lon="2.531955">
        <ele>591.541</ele>
        <time>2021-05-26T21:35:57Z</time>
      </trkpt>
      <trkpt lat="41.962240" lon="2.531929">
        <ele>591.348</ele>
        <time>2021-05-26T21:35:58Z</time>
      </trkpt>
      <trkpt lat="41.962265" lon="2.531897">
        <ele>590.412</ele>
        <time>2021-05-26T21:36:00Z</time>
      </trkpt>
      <trkpt lat="41.962286" lon="2.531895">
        <ele>589.617</ele>
        <time>2021-05-26T21:36:01Z</time>
      </trkpt>
      <trkpt lat="41.962309" lon="2.531895">
        <ele>588.757</ele>
        <time>2021-05-26T21:36:02Z</time>
      </trkpt>
      <trkpt lat="41.962332" lon="2.531901">
        <ele>587.783</ele>
        <time>2021-05-26T21:36:03Z</time>
      </trkpt>
      <trkpt lat="41.962359" lon="2.531909">
        <ele>586.578</ele>
        <time>2021-05-26T21:36:04Z</time>
      </trkpt>
      <trkpt lat="41.962385" lon="2.531921">
        <ele>585.221</ele>
        <time>2021-05-26T21:36:06Z</time>
      </trkpt>
      <trkpt lat="41.962429" lon="2.531935">
        <ele>583.241</ele>
        <time>2021-05-26T21:36:07Z</time>
      </trkpt>
      <trkpt lat="41.962469" lon="2.531939">
        <ele>581.405</ele>
        <time>2021-05-26T21:36:09Z</time>
      </trkpt>
      <trkpt lat="41.962498" lon="2.531934">
        <ele>580.308</ele>
        <time>2021-05-26T21:36:10Z</time>
      </trkpt>
      <trkpt lat="41.962524" lon="2.531923">
        <ele>579.349</ele>
        <time>2021-05-26T21:36:11Z</time>
      </trkpt>
      <trkpt lat="41.962550" lon="2.531902">
        <ele>578.516</ele>
        <time>2021-05-26T21:36:12Z</time>
      </trkpt>
      <trkpt lat="41.962575" lon="2.531877">
        <ele>577.823</ele>
        <time>2021-05-26T21:36:14Z</time>
      </trkpt>
      <trkpt lat="41.962618" lon="2.531826">
        <ele>577.077</ele>
        <time>2021-05-26T21:36:15Z</time>
      </trkpt>
      <trkpt lat="41.962640" lon="2.531804">
        <ele>576.542</ele>
        <time>2021-05-26T21:36:16Z</time>
      </trkpt>
      <trkpt lat="41.962659" lon="2.531781">
        <ele>576.282</ele>
        <time>2021-05-26T21:36:17Z</time>
      </trkpt>
      <trkpt lat="41.962675" lon="2.531758">
        <ele>576.018</ele>
        <time>2021-05-26T21:36:18Z</time>
      </trkpt>
      <trkpt lat="41.962690" lon="2.531733">
        <ele>576.053</ele>
        <time>2021-05-26T21:36:19Z</time>
      </trkpt>
      <trkpt lat="41.962704" lon="2.531706">
        <ele>576.031</ele>
        <time>2021-05-26T21:36:20Z</time>
      </trkpt>
      <trkpt lat="41.962713" lon="2.531673">
        <ele>576.461</ele>
        <time>2021-05-26T21:36:21Z</time>
      </trkpt>
      <trkpt lat="41.962725" lon="2.531642">
        <ele>576.607</ele>
        <time>2021-05-26T21:36:22Z</time>
      </trkpt>
      <trkpt lat="41.962733" lon="2.531611">
        <ele>577.008</ele>
        <time>2021-05-26T21:36:23Z</time>
      </trkpt>
      <trkpt lat="41.962738" lon="2.531577">
        <ele>577.570</ele>
        <time>2021-05-26T21:36:24Z</time>
      </trkpt>
      <trkpt lat="41.962746" lon="2.531546">
        <ele>577.967</ele>
        <time>2021-05-26T21:36:25Z</time>
      </trkpt>
      <trkpt lat="41.962755" lon="2.531516">
        <ele>578.214</ele>
        <time>2021-05-26T21:36:26Z</time>
      </trkpt>
      <trkpt lat="41.962769" lon="2.531489">
        <ele>578.248</ele>
        <time>2021-05-26T21:36:27Z</time>
      </trkpt>
      <trkpt lat="41.962786" lon="2.531463">
        <ele>577.983</ele>
        <time>2021-05-26T21:36:28Z</time>
      </trkpt>
      <trkpt lat="41.962817" lon="2.531411">
        <ele>577.483</ele>
        <time>2021-05-26T21:36:30Z</time>
      </trkpt>
      <trkpt lat="41.962830" lon="2.531388">
        <ele>577.279</ele>
        <time>2021-05-26T21:36:31Z</time>
      </trkpt>
      <trkpt lat="41.962846" lon="2.531369">
        <ele>576.884</ele>
        <time>2021-05-26T21:36:32Z</time>
      </trkpt>
      <trkpt lat="41.962857" lon="2.531345">
        <ele>576.811</ele>
        <time>2021-05-26T21:36:33Z</time>
      </trkpt>
      <trkpt lat="41.962869" lon="2.531325">
        <ele>576.721</ele>
        <time>2021-05-26T21:36:34Z</time>
      </trkpt>
      <trkpt lat="41.962897" lon="2.531281">
        <ele>576.303</ele>
        <time>2021-05-26T21:36:36Z</time>
      </trkpt>
      <trkpt lat="41.962918" lon="2.531258">
        <ele>575.708</ele>
        <time>2021-05-26T21:36:37Z</time>
      </trkpt>
      <trkpt lat="41.962936" lon="2.531232">
        <ele>575.438</ele>
        <time>2021-05-26T21:36:39Z</time>
      </trkpt>
      <trkpt lat="41.962949" lon="2.531206">
        <ele>575.425</ele>
        <time>2021-05-26T21:36:40Z</time>
      </trkpt>
      <trkpt lat="41.962977" lon="2.531151">
        <ele>575.222</ele>
        <time>2021-05-26T21:36:41Z</time>
      </trkpt>
      <trkpt lat="41.962986" lon="2.531123">
        <ele>575.536</ele>
        <time>2021-05-26T21:36:42Z</time>
      </trkpt>
      <trkpt lat="41.962994" lon="2.531067">
        <ele>575.541</ele>
        <time>2021-05-26T21:36:44Z</time>
      </trkpt>
      <trkpt lat="41.962995" lon="2.531039">
        <ele>575.661</ele>
        <time>2021-05-26T21:36:45Z</time>
      </trkpt>
      <trkpt lat="41.962996" lon="2.531003">
        <ele>575.737</ele>
        <time>2021-05-26T21:36:47Z</time>
      </trkpt>
      <trkpt lat="41.963001" lon="2.530971">
        <ele>575.592</ele>
        <time>2021-05-26T21:36:48Z</time>
      </trkpt>
      <trkpt lat="41.963007" lon="2.530938">
        <ele>575.422</ele>
        <time>2021-05-26T21:36:49Z</time>
      </trkpt>
      <trkpt lat="41.963013" lon="2.530907">
        <ele>575.162</ele>
        <time>2021-05-26T21:36:50Z</time>
      </trkpt>
      <trkpt lat="41.963023" lon="2.530876">
        <ele>574.708</ele>
        <time>2021-05-26T21:36:51Z</time>
      </trkpt>
      <trkpt lat="41.963037" lon="2.530849">
        <ele>574.008</ele>
        <time>2021-05-26T21:36:52Z</time>
      </trkpt>
      <trkpt lat="41.963051" lon="2.530819">
        <ele>573.289</ele>
        <time>2021-05-26T21:36:53Z</time>
      </trkpt>
      <trkpt lat="41.963066" lon="2.530791">
        <ele>572.356</ele>
        <time>2021-05-26T21:36:54Z</time>
      </trkpt>
      <trkpt lat="41.963100" lon="2.530740">
        <ele>570.323</ele>
        <time>2021-05-26T21:36:55Z</time>
      </trkpt>
      <trkpt lat="41.963115" lon="2.530715">
        <ele>569.447</ele>
        <time>2021-05-26T21:36:56Z</time>
      </trkpt>
      <trkpt lat="41.963129" lon="2.530690">
        <ele>568.592</ele>
        <time>2021-05-26T21:36:58Z</time>
      </trkpt>
      <trkpt lat="41.963144" lon="2.530661">
        <ele>567.652</ele>
        <time>2021-05-26T21:36:59Z</time>
      </trkpt>
      <trkpt lat="41.963156" lon="2.530633">
        <ele>566.958</ele>
        <time>2021-05-26T21:37:00Z</time>
      </trkpt>
      <trkpt lat="41.963173" lon="2.530569">
        <ele>565.723</ele>
        <time>2021-05-26T21:37:01Z</time>
      </trkpt>
      <trkpt lat="41.963178" lon="2.530535">
        <ele>565.233</ele>
        <time>2021-05-26T21:37:02Z</time>
      </trkpt>
      <trkpt lat="41.963181" lon="2.530501">
        <ele>564.823</ele>
        <time>2021-05-26T21:37:03Z</time>
      </trkpt>
      <trkpt lat="41.963182" lon="2.530467">
        <ele>564.515</ele>
        <time>2021-05-26T21:37:04Z</time>
      </trkpt>
      <trkpt lat="41.963185" lon="2.530435">
        <ele>564.108</ele>
        <time>2021-05-26T21:37:06Z</time>
      </trkpt>
      <trkpt lat="41.963183" lon="2.530404">
        <ele>564.020</ele>
        <time>2021-05-26T21:37:07Z</time>
      </trkpt>
      <trkpt lat="41.963179" lon="2.530373">
        <ele>563.977</ele>
        <time>2021-05-26T21:37:08Z</time>
      </trkpt>
      <trkpt lat="41.963176" lon="2.530345">
        <ele>563.974</ele>
        <time>2021-05-26T21:37:09Z</time>
      </trkpt>
      <trkpt lat="41.963175" lon="2.530290">
        <ele>563.568</ele>
        <time>2021-05-26T21:37:10Z</time>
      </trkpt>
      <trkpt lat="41.963178" lon="2.530262">
        <ele>563.233</ele>
        <time>2021-05-26T21:37:11Z</time>
      </trkpt>
      <trkpt lat="41.963181" lon="2.530233">
        <ele>562.933</ele>
        <time>2021-05-26T21:37:12Z</time>
      </trkpt>
      <trkpt lat="41.963180" lon="2.530203">
        <ele>562.749</ele>
        <time>2021-05-26T21:37:13Z</time>
      </trkpt>
      <trkpt lat="41.963172" lon="2.530174">
        <ele>562.984</ele>
        <time>2021-05-26T21:37:14Z</time>
      </trkpt>
      <trkpt lat="41.963167" lon="2.530145">
        <ele>562.961</ele>
        <time>2021-05-26T21:37:15Z</time>
      </trkpt>
      <trkpt lat="41.963162" lon="2.530114">
        <ele>562.921</ele>
        <time>2021-05-26T21:37:16Z</time>
      </trkpt>
      <trkpt lat="41.963161" lon="2.530080">
        <ele>562.713</ele>
        <time>2021-05-26T21:37:17Z</time>
      </trkpt>
      <trkpt lat="41.963158" lon="2.530045">
        <ele>562.608</ele>
        <time>2021-05-26T21:37:18Z</time>
      </trkpt>
      <trkpt lat="41.963154" lon="2.530010">
        <ele>562.523</ele>
        <time>2021-05-26T21:37:19Z</time>
      </trkpt>
      <trkpt lat="41.963153" lon="2.529976">
        <ele>562.510</ele>
        <time>2021-05-26T21:37:20Z</time>
      </trkpt>
      <trkpt lat="41.963151" lon="2.529944">
        <ele>562.617</ele>
        <time>2021-05-26T21:37:21Z</time>
      </trkpt>
      <trkpt lat="41.963148" lon="2.529909">
        <ele>562.791</ele>
        <time>2021-05-26T21:37:22Z</time>
      </trkpt>
      <trkpt lat="41.963142" lon="2.529871">
        <ele>562.956</ele>
        <time>2021-05-26T21:37:23Z</time>
      </trkpt>
      <trkpt lat="41.963137" lon="2.529841">
        <ele>563.126</ele>
        <time>2021-05-26T21:37:24Z</time>
      </trkpt>
      <trkpt lat="41.963133" lon="2.529809">
        <ele>563.292</ele>
        <time>2021-05-26T21:37:25Z</time>
      </trkpt>
      <trkpt lat="41.963133" lon="2.529777">
        <ele>563.247</ele>
        <time>2021-05-26T21:37:26Z</time>
      </trkpt>
      <trkpt lat="41.963130" lon="2.529743">
        <ele>563.352</ele>
        <time>2021-05-26T21:37:27Z</time>
      </trkpt>
      <trkpt lat="41.963125" lon="2.529711">
        <ele>563.753</ele>
        <time>2021-05-26T21:37:28Z</time>
      </trkpt>
      <trkpt lat="41.963119" lon="2.529680">
        <ele>564.408</ele>
        <time>2021-05-26T21:37:29Z</time>
      </trkpt>
      <trkpt lat="41.963108" lon="2.529651">
        <ele>565.208</ele>
        <time>2021-05-26T21:37:30Z</time>
      </trkpt>
      <trkpt lat="41.963092" lon="2.529621">
        <ele>566.442</ele>
        <time>2021-05-26T21:37:32Z</time>
      </trkpt>
      <trkpt lat="41.963074" lon="2.529561">
        <ele>568.179</ele>
        <time>2021-05-26T21:37:33Z</time>
      </trkpt>
      <trkpt lat="41.963065" lon="2.529530">
        <ele>569.036</ele>
        <time>2021-05-26T21:37:35Z</time>
      </trkpt>
      <trkpt lat="41.963058" lon="2.529499">
        <ele>569.960</ele>
        <time>2021-05-26T21:37:36Z</time>
      </trkpt>
      <trkpt lat="41.963050" lon="2.529467">
        <ele>571.085</ele>
        <time>2021-05-26T21:37:37Z</time>
      </trkpt>
      <trkpt lat="41.963044" lon="2.529406">
        <ele>573.075</ele>
        <time>2021-05-26T21:37:38Z</time>
      </trkpt>
      <trkpt lat="41.963045" lon="2.529373">
        <ele>573.931</ele>
        <time>2021-05-26T21:37:39Z</time>
      </trkpt>
      <trkpt lat="41.963048" lon="2.529339">
        <ele>574.656</ele>
        <time>2021-05-26T21:37:40Z</time>
      </trkpt>
      <trkpt lat="41.963051" lon="2.529306">
        <ele>575.323</ele>
        <time>2021-05-26T21:37:41Z</time>
      </trkpt>
      <trkpt lat="41.963062" lon="2.529274">
        <ele>575.683</ele>
        <time>2021-05-26T21:37:42Z</time>
      </trkpt>
      <trkpt lat="41.963071" lon="2.529248">
        <ele>575.911</ele>
        <time>2021-05-26T21:37:43Z</time>
      </trkpt>
      <trkpt lat="41.963083" lon="2.529227">
        <ele>575.908</ele>
        <time>2021-05-26T21:37:44Z</time>
      </trkpt>
      <trkpt lat="41.963099" lon="2.529206">
        <ele>575.729</ele>
        <time>2021-05-26T21:37:45Z</time>
      </trkpt>
      <trkpt lat="41.963137" lon="2.529163">
        <ele>575.076</ele>
        <time>2021-05-26T21:37:47Z</time>
      </trkpt>
      <trkpt lat="41.963153" lon="2.529140">
        <ele>575.043</ele>
        <time>2021-05-26T21:37:49Z</time>
      </trkpt>
      <trkpt lat="41.963167" lon="2.529118">
        <ele>575.097</ele>
        <time>2021-05-26T21:37:50Z</time>
      </trkpt>
      <trkpt lat="41.963185" lon="2.529099">
        <ele>574.782</ele>
        <time>2021-05-26T21:37:51Z</time>
      </trkpt>
      <trkpt lat="41.963202" lon="2.529079">
        <ele>574.522</ele>
        <time>2021-05-26T21:37:52Z</time>
      </trkpt>
      <trkpt lat="41.963223" lon="2.529061">
        <ele>574.058</ele>
        <time>2021-05-26T21:37:53Z</time>
      </trkpt>
      <trkpt lat="41.963243" lon="2.529045">
        <ele>573.563</ele>
        <time>2021-05-26T21:37:54Z</time>
      </trkpt>
      <trkpt lat="41.963265" lon="2.529031">
        <ele>572.817</ele>
        <time>2021-05-26T21:37:55Z</time>
      </trkpt>
      <trkpt lat="41.963284" lon="2.529024">
        <ele>572.187</ele>
        <time>2021-05-26T21:37:56Z</time>
      </trkpt>
      <trkpt lat="41.963305" lon="2.529012">
        <ele>571.415</ele>
        <time>2021-05-26T21:37:57Z</time>
      </trkpt>
      <trkpt lat="41.963326" lon="2.529001">
        <ele>570.708</ele>
        <time>2021-05-26T21:37:58Z</time>
      </trkpt>
      <trkpt lat="41.963348" lon="2.528991">
        <ele>570.178</ele>
        <time>2021-05-26T21:37:59Z</time>
      </trkpt>
      <trkpt lat="41.963375" lon="2.528981">
        <ele>569.485</ele>
        <time>2021-05-26T21:38:00Z</time>
      </trkpt>
      <trkpt lat="41.963398" lon="2.528973">
        <ele>568.762</ele>
        <time>2021-05-26T21:38:01Z</time>
      </trkpt>
      <trkpt lat="41.963417" lon="2.528964">
        <ele>568.366</ele>
        <time>2021-05-26T21:38:02Z</time>
      </trkpt>
      <trkpt lat="41.963436" lon="2.528960">
        <ele>567.631</ele>
        <time>2021-05-26T21:38:03Z</time>
      </trkpt>
      <trkpt lat="41.963457" lon="2.528958">
        <ele>566.961</ele>
        <time>2021-05-26T21:38:04Z</time>
      </trkpt>
      <trkpt lat="41.963477" lon="2.528955">
        <ele>566.277</ele>
        <time>2021-05-26T21:38:05Z</time>
      </trkpt>
      <trkpt lat="41.963504" lon="2.528955">
        <ele>565.132</ele>
        <time>2021-05-26T21:38:06Z</time>
      </trkpt>
      <trkpt lat="41.963531" lon="2.528956">
        <ele>564.029</ele>
        <time>2021-05-26T21:38:07Z</time>
      </trkpt>
      <trkpt lat="41.963558" lon="2.528956">
        <ele>562.900</ele>
        <time>2021-05-26T21:38:08Z</time>
      </trkpt>
      <trkpt lat="41.963584" lon="2.528955">
        <ele>561.920</ele>
        <time>2021-05-26T21:38:09Z</time>
      </trkpt>
      <trkpt lat="41.963611" lon="2.528952">
        <ele>561.008</ele>
        <time>2021-05-26T21:38:10Z</time>
      </trkpt>
      <trkpt lat="41.963650" lon="2.528950">
        <ele>560.199</ele>
        <time>2021-05-26T21:38:11Z</time>
      </trkpt>
      <trkpt lat="41.963670" lon="2.528950">
        <ele>559.626</ele>
        <time>2021-05-26T21:38:13Z</time>
      </trkpt>
      <trkpt lat="41.963705" lon="2.528958">
        <ele>558.573</ele>
        <time>2021-05-26T21:38:15Z</time>
      </trkpt>
      <trkpt lat="41.963755" lon="2.528982">
        <ele>556.577</ele>
        <time>2021-05-26T21:38:16Z</time>
      </trkpt>
      <trkpt lat="41.963794" lon="2.529012">
        <ele>554.792</ele>
        <time>2021-05-26T21:38:18Z</time>
      </trkpt>
      <trkpt lat="41.963831" lon="2.529037">
        <ele>553.172</ele>
        <time>2021-05-26T21:38:20Z</time>
      </trkpt>
      <trkpt lat="41.963873" lon="2.529059">
        <ele>551.538</ele>
        <time>2021-05-26T21:38:22Z</time>
      </trkpt>
      <trkpt lat="41.963919" lon="2.529079">
        <ele>549.913</ele>
        <time>2021-05-26T21:38:24Z</time>
      </trkpt>
      <trkpt lat="41.963943" lon="2.529088">
        <ele>549.212</ele>
        <time>2021-05-26T21:38:26Z</time>
      </trkpt>
      <trkpt lat="41.963964" lon="2.529097">
        <ele>548.632</ele>
        <time>2021-05-26T21:38:27Z</time>
      </trkpt>
      <trkpt lat="41.964008" lon="2.529109">
        <ele>547.405</ele>
        <time>2021-05-26T21:38:28Z</time>
      </trkpt>
      <trkpt lat="41.964029" lon="2.529117">
        <ele>546.808</ele>
        <time>2021-05-26T21:38:29Z</time>
      </trkpt>
      <trkpt lat="41.964052" lon="2.529118">
        <ele>546.488</ele>
        <time>2021-05-26T21:38:31Z</time>
      </trkpt>
      <trkpt lat="41.964099" lon="2.529110">
        <ele>545.725</ele>
        <time>2021-05-26T21:38:32Z</time>
      </trkpt>
      <trkpt lat="41.964121" lon="2.529104">
        <ele>545.462</ele>
        <time>2021-05-26T21:38:33Z</time>
      </trkpt>
      <trkpt lat="41.964147" lon="2.529087">
        <ele>545.416</ele>
        <time>2021-05-26T21:38:34Z</time>
      </trkpt>
      <trkpt lat="41.964168" lon="2.529071">
        <ele>545.481</ele>
        <time>2021-05-26T21:38:35Z</time>
      </trkpt>
      <trkpt lat="41.964188" lon="2.529053">
        <ele>545.321</ele>
        <time>2021-05-26T21:38:36Z</time>
      </trkpt>
      <trkpt lat="41.964210" lon="2.529029">
        <ele>545.397</ele>
        <time>2021-05-26T21:38:37Z</time>
      </trkpt>
      <trkpt lat="41.964233" lon="2.529008">
        <ele>545.272</ele>
        <time>2021-05-26T21:38:38Z</time>
      </trkpt>
      <trkpt lat="41.964253" lon="2.528985">
        <ele>545.347</ele>
        <time>2021-05-26T21:38:39Z</time>
      </trkpt>
      <trkpt lat="41.964270" lon="2.528961">
        <ele>545.529</ele>
        <time>2021-05-26T21:38:40Z</time>
      </trkpt>
      <trkpt lat="41.964288" lon="2.528937">
        <ele>545.721</ele>
        <time>2021-05-26T21:38:41Z</time>
      </trkpt>
      <trkpt lat="41.964303" lon="2.528913">
        <ele>545.908</ele>
        <time>2021-05-26T21:38:42Z</time>
      </trkpt>
      <trkpt lat="41.964316" lon="2.528886">
        <ele>546.331</ele>
        <time>2021-05-26T21:38:43Z</time>
      </trkpt>
      <trkpt lat="41.964325" lon="2.528859">
        <ele>546.768</ele>
        <time>2021-05-26T21:38:44Z</time>
      </trkpt>
      <trkpt lat="41.964336" lon="2.528830">
        <ele>547.035</ele>
        <time>2021-05-26T21:38:45Z</time>
      </trkpt>
      <trkpt lat="41.964341" lon="2.528801">
        <ele>547.559</ele>
        <time>2021-05-26T21:38:46Z</time>
      </trkpt>
      <trkpt lat="41.964350" lon="2.528772">
        <ele>547.864</ele>
        <time>2021-05-26T21:38:48Z</time>
      </trkpt>
      <trkpt lat="41.964362" lon="2.528713">
        <ele>548.514</ele>
        <time>2021-05-26T21:38:49Z</time>
      </trkpt>
      <trkpt lat="41.964373" lon="2.528684">
        <ele>548.780</ele>
        <time>2021-05-26T21:38:50Z</time>
      </trkpt>
      <trkpt lat="41.964382" lon="2.528656">
        <ele>548.985</ele>
        <time>2021-05-26T21:38:51Z</time>
      </trkpt>
      <trkpt lat="41.964389" lon="2.528629">
        <ele>549.143</ele>
        <time>2021-05-26T21:38:52Z</time>
      </trkpt>
      <trkpt lat="41.964396" lon="2.528602">
        <ele>549.264</ele>
        <time>2021-05-26T21:38:53Z</time>
      </trkpt>
      <trkpt lat="41.964404" lon="2.528573">
        <ele>549.310</ele>
        <time>2021-05-26T21:38:54Z</time>
      </trkpt>
      <trkpt lat="41.964409" lon="2.528544">
        <ele>549.508</ele>
        <time>2021-05-26T21:38:56Z</time>
      </trkpt>
      <trkpt lat="41.964421" lon="2.528493">
        <ele>549.731</ele>
        <time>2021-05-26T21:38:57Z</time>
      </trkpt>
      <trkpt lat="41.964424" lon="2.528467">
        <ele>549.978</ele>
        <time>2021-05-26T21:38:58Z</time>
      </trkpt>
      <trkpt lat="41.964427" lon="2.528441">
        <ele>550.245</ele>
        <time>2021-05-26T21:38:59Z</time>
      </trkpt>
      <trkpt lat="41.964431" lon="2.528415">
        <ele>550.459</ele>
        <time>2021-05-26T21:39:00Z</time>
      </trkpt>
      <trkpt lat="41.964438" lon="2.528386">
        <ele>550.554</ele>
        <time>2021-05-26T21:39:01Z</time>
      </trkpt>
      <trkpt lat="41.964450" lon="2.528354">
        <ele>550.464</ele>
        <time>2021-05-26T21:39:03Z</time>
      </trkpt>
      <trkpt lat="41.964460" lon="2.528324">
        <ele>550.290</ele>
        <time>2021-05-26T21:39:04Z</time>
      </trkpt>
      <trkpt lat="41.964469" lon="2.528298">
        <ele>549.715</ele>
        <time>2021-05-26T21:39:05Z</time>
      </trkpt>
      <trkpt lat="41.964478" lon="2.528272">
        <ele>549.134</ele>
        <time>2021-05-26T21:39:06Z</time>
      </trkpt>
      <trkpt lat="41.964493" lon="2.528209">
        <ele>548.355</ele>
        <time>2021-05-26T21:39:07Z</time>
      </trkpt>
      <trkpt lat="41.964499" lon="2.528179">
        <ele>547.910</ele>
        <time>2021-05-26T21:39:08Z</time>
      </trkpt>
      <trkpt lat="41.964506" lon="2.528150">
        <ele>547.508</ele>
        <time>2021-05-26T21:39:10Z</time>
      </trkpt>
      <trkpt lat="41.964512" lon="2.528118">
        <ele>547.230</ele>
        <time>2021-05-26T21:39:11Z</time>
      </trkpt>
      <trkpt lat="41.964518" lon="2.528090">
        <ele>546.967</ele>
        <time>2021-05-26T21:39:12Z</time>
      </trkpt>
      <trkpt lat="41.964537" lon="2.528032">
        <ele>545.894</ele>
        <time>2021-05-26T21:39:13Z</time>
      </trkpt>
      <trkpt lat="41.964557" lon="2.527971">
        <ele>544.338</ele>
        <time>2021-05-26T21:39:15Z</time>
      </trkpt>
      <trkpt lat="41.964569" lon="2.527938">
        <ele>543.423</ele>
        <time>2021-05-26T21:39:17Z</time>
      </trkpt>
      <trkpt lat="41.964577" lon="2.527907">
        <ele>542.773</ele>
        <time>2021-05-26T21:39:18Z</time>
      </trkpt>
      <trkpt lat="41.964598" lon="2.527841">
        <ele>541.099</ele>
        <time>2021-05-26T21:39:20Z</time>
      </trkpt>
      <trkpt lat="41.964613" lon="2.527777">
        <ele>539.544</ele>
        <time>2021-05-26T21:39:21Z</time>
      </trkpt>
      <trkpt lat="41.964619" lon="2.527715">
        <ele>538.718</ele>
        <time>2021-05-26T21:39:23Z</time>
      </trkpt>
      <trkpt lat="41.964619" lon="2.527647">
        <ele>538.198</ele>
        <time>2021-05-26T21:39:25Z</time>
      </trkpt>
      <trkpt lat="41.964610" lon="2.527615">
        <ele>538.417</ele>
        <time>2021-05-26T21:39:26Z</time>
      </trkpt>
      <trkpt lat="41.964596" lon="2.527581">
        <ele>538.908</ele>
        <time>2021-05-26T21:39:27Z</time>
      </trkpt>
      <trkpt lat="41.964568" lon="2.527516">
        <ele>540.028</ele>
        <time>2021-05-26T21:39:29Z</time>
      </trkpt>
      <trkpt lat="41.964551" lon="2.527488">
        <ele>540.825</ele>
        <time>2021-05-26T21:39:30Z</time>
      </trkpt>
      <trkpt lat="41.964536" lon="2.527464">
        <ele>541.422</ele>
        <time>2021-05-26T21:39:31Z</time>
      </trkpt>
      <trkpt lat="41.964518" lon="2.527439">
        <ele>542.176</ele>
        <time>2021-05-26T21:39:32Z</time>
      </trkpt>
      <trkpt lat="41.964499" lon="2.527413">
        <ele>542.961</ele>
        <time>2021-05-26T21:39:33Z</time>
      </trkpt>
      <trkpt lat="41.964479" lon="2.527386">
        <ele>543.631</ele>
        <time>2021-05-26T21:39:34Z</time>
      </trkpt>
      <trkpt lat="41.964459" lon="2.527363">
        <ele>544.337</ele>
        <time>2021-05-26T21:39:35Z</time>
      </trkpt>
      <trkpt lat="41.964438" lon="2.527342">
        <ele>545.062</ele>
        <time>2021-05-26T21:39:36Z</time>
      </trkpt>
      <trkpt lat="41.964417" lon="2.527319">
        <ele>545.475</ele>
        <time>2021-05-26T21:39:37Z</time>
      </trkpt>
      <trkpt lat="41.964398" lon="2.527299">
        <ele>545.728</ele>
        <time>2021-05-26T21:39:38Z</time>
      </trkpt>
      <trkpt lat="41.964379" lon="2.527281">
        <ele>546.120</ele>
        <time>2021-05-26T21:39:39Z</time>
      </trkpt>
      <trkpt lat="41.964338" lon="2.527240">
        <ele>546.808</ele>
        <time>2021-05-26T21:39:41Z</time>
      </trkpt>
      <trkpt lat="41.964318" lon="2.527221">
        <ele>547.134</ele>
        <time>2021-05-26T21:39:42Z</time>
      </trkpt>
      <trkpt lat="41.964298" lon="2.527201">
        <ele>547.591</ele>
        <time>2021-05-26T21:39:43Z</time>
      </trkpt>
      <trkpt lat="41.964278" lon="2.527182">
        <ele>547.938</ele>
        <time>2021-05-26T21:39:44Z</time>
      </trkpt>
      <trkpt lat="41.964257" lon="2.527162">
        <ele>548.382</ele>
        <time>2021-05-26T21:39:45Z</time>
      </trkpt>
      <trkpt lat="41.964237" lon="2.527141">
        <ele>548.777</ele>
        <time>2021-05-26T21:39:47Z</time>
      </trkpt>
      <trkpt lat="41.964194" lon="2.527101">
        <ele>549.577</ele>
        <time>2021-05-26T21:39:48Z</time>
      </trkpt>
      <trkpt lat="41.964172" lon="2.527082">
        <ele>549.843</ele>
        <time>2021-05-26T21:39:50Z</time>
      </trkpt>
      <trkpt lat="41.964151" lon="2.527060">
        <ele>550.238</ele>
        <time>2021-05-26T21:39:51Z</time>
      </trkpt>
      <trkpt lat="41.964132" lon="2.527038">
        <ele>550.628</ele>
        <time>2021-05-26T21:39:52Z</time>
      </trkpt>
      <trkpt lat="41.964114" lon="2.527015">
        <ele>550.989</ele>
        <time>2021-05-26T21:39:53Z</time>
      </trkpt>
      <trkpt lat="41.964098" lon="2.526994">
        <ele>551.117</ele>
        <time>2021-05-26T21:39:54Z</time>
      </trkpt>
      <trkpt lat="41.964081" lon="2.526971">
        <ele>551.408</ele>
        <time>2021-05-26T21:39:55Z</time>
      </trkpt>
      <trkpt lat="41.964067" lon="2.526950">
        <ele>551.739</ele>
        <time>2021-05-26T21:39:56Z</time>
      </trkpt>
      <trkpt lat="41.964056" lon="2.526925">
        <ele>552.296</ele>
        <time>2021-05-26T21:39:57Z</time>
      </trkpt>
      <trkpt lat="41.964044" lon="2.526869">
        <ele>553.163</ele>
        <time>2021-05-26T21:39:58Z</time>
      </trkpt>
      <trkpt lat="41.964039" lon="2.526839">
        <ele>553.637</ele>
        <time>2021-05-26T21:40:00Z</time>
      </trkpt>
      <trkpt lat="41.964040" lon="2.526797">
        <ele>553.952</ele>
        <time>2021-05-26T21:40:02Z</time>
      </trkpt>
      <trkpt lat="41.964056" lon="2.526784">
        <ele>553.562</ele>
        <time>2021-05-26T21:40:04Z</time>
      </trkpt>
      <trkpt lat="41.964095" lon="2.526790">
        <ele>552.178</ele>
        <time>2021-05-26T21:40:05Z</time>
      </trkpt>
      <trkpt lat="41.964143" lon="2.526799">
        <ele>550.493</ele>
        <time>2021-05-26T21:40:07Z</time>
      </trkpt>
      <trkpt lat="41.964168" lon="2.526804">
        <ele>549.596</ele>
        <time>2021-05-26T21:40:09Z</time>
      </trkpt>
      <trkpt lat="41.964195" lon="2.526803">
        <ele>548.931</ele>
        <time>2021-05-26T21:40:10Z</time>
      </trkpt>
      <trkpt lat="41.964218" lon="2.526806">
        <ele>548.324</ele>
        <time>2021-05-26T21:40:11Z</time>
      </trkpt>
      <trkpt lat="41.964239" lon="2.526810">
        <ele>547.808</ele>
        <time>2021-05-26T21:40:12Z</time>
      </trkpt>
      <trkpt lat="41.964266" lon="2.526811">
        <ele>547.176</ele>
        <time>2021-05-26T21:40:13Z</time>
      </trkpt>
      <trkpt lat="41.964292" lon="2.526810">
        <ele>546.523</ele>
        <time>2021-05-26T21:40:14Z</time>
      </trkpt>
      <trkpt lat="41.964315" lon="2.526810">
        <ele>546.030</ele>
        <time>2021-05-26T21:40:15Z</time>
      </trkpt>
      <trkpt lat="41.964346" lon="2.526802">
        <ele>545.414</ele>
        <time>2021-05-26T21:40:16Z</time>
      </trkpt>
      <trkpt lat="41.964375" lon="2.526794">
        <ele>544.829</ele>
        <time>2021-05-26T21:40:17Z</time>
      </trkpt>
      <trkpt lat="41.964400" lon="2.526789">
        <ele>544.389</ele>
        <time>2021-05-26T21:40:18Z</time>
      </trkpt>
      <trkpt lat="41.964426" lon="2.526780">
        <ele>543.875</ele>
        <time>2021-05-26T21:40:19Z</time>
      </trkpt>
      <trkpt lat="41.964446" lon="2.526773">
        <ele>543.420</ele>
        <time>2021-05-26T21:40:20Z</time>
      </trkpt>
      <trkpt lat="41.964482" lon="2.526762">
        <ele>542.845</ele>
        <time>2021-05-26T21:40:21Z</time>
      </trkpt>
      <trkpt lat="41.964503" lon="2.526755">
        <ele>542.547</ele>
        <time>2021-05-26T21:40:22Z</time>
      </trkpt>
      <trkpt lat="41.964520" lon="2.526749">
        <ele>542.211</ele>
        <time>2021-05-26T21:40:23Z</time>
      </trkpt>
      <trkpt lat="41.964581" lon="2.526747">
        <ele>541.008</ele>
        <time>2021-05-26T21:40:26Z</time>
      </trkpt>
      <trkpt lat="41.964609" lon="2.526750">
        <ele>540.361</ele>
        <time>2021-05-26T21:40:27Z</time>
      </trkpt>
      <trkpt lat="41.964634" lon="2.526749">
        <ele>539.858</ele>
        <time>2021-05-26T21:40:28Z</time>
      </trkpt>
      <trkpt lat="41.964658" lon="2.526746">
        <ele>539.485</ele>
        <time>2021-05-26T21:40:29Z</time>
      </trkpt>
      <trkpt lat="41.964682" lon="2.526742">
        <ele>538.919</ele>
        <time>2021-05-26T21:40:30Z</time>
      </trkpt>
      <trkpt lat="41.964704" lon="2.526738">
        <ele>538.674</ele>
        <time>2021-05-26T21:40:31Z</time>
      </trkpt>
      <trkpt lat="41.964728" lon="2.526731">
        <ele>538.394</ele>
        <time>2021-05-26T21:40:32Z</time>
      </trkpt>
      <trkpt lat="41.964755" lon="2.526726">
        <ele>537.850</ele>
        <time>2021-05-26T21:40:33Z</time>
      </trkpt>
      <trkpt lat="41.964780" lon="2.526719">
        <ele>537.595</ele>
        <time>2021-05-26T21:40:34Z</time>
      </trkpt>
      <trkpt lat="41.964799" lon="2.526713">
        <ele>537.274</ele>
        <time>2021-05-26T21:40:35Z</time>
      </trkpt>
      <trkpt lat="41.964819" lon="2.526703">
        <ele>537.056</ele>
        <time>2021-05-26T21:40:36Z</time>
      </trkpt>
      <trkpt lat="41.964837" lon="2.526694">
        <ele>536.921</ele>
        <time>2021-05-26T21:40:37Z</time>
      </trkpt>
      <trkpt lat="41.964854" lon="2.526686">
        <ele>536.708</ele>
        <time>2021-05-26T21:40:38Z</time>
      </trkpt>
      <trkpt lat="41.964876" lon="2.526670">
        <ele>536.644</ele>
        <time>2021-05-26T21:40:39Z</time>
      </trkpt>
      <trkpt lat="41.964897" lon="2.526655">
        <ele>536.671</ele>
        <time>2021-05-26T21:40:40Z</time>
      </trkpt>
      <trkpt lat="41.964919" lon="2.526638">
        <ele>536.898</ele>
        <time>2021-05-26T21:40:41Z</time>
      </trkpt>
      <trkpt lat="41.964942" lon="2.526616">
        <ele>537.192</ele>
        <time>2021-05-26T21:40:42Z</time>
      </trkpt>
      <trkpt lat="41.964961" lon="2.526601">
        <ele>537.227</ele>
        <time>2021-05-26T21:40:44Z</time>
      </trkpt>
      <trkpt lat="41.964981" lon="2.526585">
        <ele>537.447</ele>
        <time>2021-05-26T21:40:45Z</time>
      </trkpt>
      <trkpt lat="41.965001" lon="2.526575">
        <ele>537.313</ele>
        <time>2021-05-26T21:40:46Z</time>
      </trkpt>
      <trkpt lat="41.965026" lon="2.526556">
        <ele>537.498</ele>
        <time>2021-05-26T21:40:47Z</time>
      </trkpt>
      <trkpt lat="41.965079" lon="2.526530">
        <ele>537.234</ele>
        <time>2021-05-26T21:40:48Z</time>
      </trkpt>
      <trkpt lat="41.965131" lon="2.526520">
        <ele>536.555</ele>
        <time>2021-05-26T21:40:50Z</time>
      </trkpt>
      <trkpt lat="41.965192" lon="2.526506">
        <ele>535.710</ele>
        <time>2021-05-26T21:40:53Z</time>
      </trkpt>
      <trkpt lat="41.965241" lon="2.526482">
        <ele>535.708</ele>
        <time>2021-05-26T21:40:55Z</time>
      </trkpt>
      <trkpt lat="41.965285" lon="2.526455">
        <ele>535.930</ele>
        <time>2021-05-26T21:40:57Z</time>
      </trkpt>
      <trkpt lat="41.965312" lon="2.526442">
        <ele>535.677</ele>
        <time>2021-05-26T21:40:58Z</time>
      </trkpt>
      <trkpt lat="41.965342" lon="2.526425">
        <ele>535.414</ele>
        <time>2021-05-26T21:40:59Z</time>
      </trkpt>
      <trkpt lat="41.965372" lon="2.526413">
        <ele>534.988</ele>
        <time>2021-05-26T21:41:00Z</time>
      </trkpt>
      <trkpt lat="41.965401" lon="2.526399">
        <ele>534.653</ele>
        <time>2021-05-26T21:41:01Z</time>
      </trkpt>
      <trkpt lat="41.965428" lon="2.526387">
        <ele>534.223</ele>
        <time>2021-05-26T21:41:02Z</time>
      </trkpt>
      <trkpt lat="41.965449" lon="2.526375">
        <ele>533.979</ele>
        <time>2021-05-26T21:41:03Z</time>
      </trkpt>
      <trkpt lat="41.965474" lon="2.526368">
        <ele>533.394</ele>
        <time>2021-05-26T21:41:05Z</time>
      </trkpt>
      <trkpt lat="41.965520" lon="2.526344">
        <ele>532.643</ele>
        <time>2021-05-26T21:41:06Z</time>
      </trkpt>
      <trkpt lat="41.965541" lon="2.526329">
        <ele>532.464</ele>
        <time>2021-05-26T21:41:07Z</time>
      </trkpt>
      <trkpt lat="41.965562" lon="2.526313">
        <ele>532.310</ele>
        <time>2021-05-26T21:41:08Z</time>
      </trkpt>
      <trkpt lat="41.965587" lon="2.526298">
        <ele>532.308</ele>
        <time>2021-05-26T21:41:09Z</time>
      </trkpt>
      <trkpt lat="41.965617" lon="2.526272">
        <ele>532.621</ele>
        <time>2021-05-26T21:41:10Z</time>
      </trkpt>
      <trkpt lat="41.965635" lon="2.526256">
        <ele>532.748</ele>
        <time>2021-05-26T21:41:11Z</time>
      </trkpt>
      <trkpt lat="41.965655" lon="2.526244">
        <ele>532.765</ele>
        <time>2021-05-26T21:41:12Z</time>
      </trkpt>
      <trkpt lat="41.965679" lon="2.526232">
        <ele>532.649</ele>
        <time>2021-05-26T21:41:13Z</time>
      </trkpt>
      <trkpt lat="41.965703" lon="2.526219">
        <ele>532.564</ele>
        <time>2021-05-26T21:41:14Z</time>
      </trkpt>
      <trkpt lat="41.965727" lon="2.526207">
        <ele>532.494</ele>
        <time>2021-05-26T21:41:15Z</time>
      </trkpt>
      <trkpt lat="41.965745" lon="2.526196">
        <ele>532.440</ele>
        <time>2021-05-26T21:41:16Z</time>
      </trkpt>
      <trkpt lat="41.965763" lon="2.526184">
        <ele>532.445</ele>
        <time>2021-05-26T21:41:17Z</time>
      </trkpt>
      <trkpt lat="41.965784" lon="2.526170">
        <ele>532.311</ele>
        <time>2021-05-26T21:41:18Z</time>
      </trkpt>
      <trkpt lat="41.965809" lon="2.526156">
        <ele>532.221</ele>
        <time>2021-05-26T21:41:19Z</time>
      </trkpt>
      <trkpt lat="41.965838" lon="2.526142">
        <ele>532.003</ele>
        <time>2021-05-26T21:41:20Z</time>
      </trkpt>
      <trkpt lat="41.965864" lon="2.526128">
        <ele>531.808</ele>
        <time>2021-05-26T21:41:22Z</time>
      </trkpt>
      <trkpt lat="41.965888" lon="2.526114">
        <ele>531.578</ele>
        <time>2021-05-26T21:41:23Z</time>
      </trkpt>
      <trkpt lat="41.965912" lon="2.526101">
        <ele>531.255</ele>
        <time>2021-05-26T21:41:24Z</time>
      </trkpt>
      <trkpt lat="41.965937" lon="2.526086">
        <ele>530.942</ele>
        <time>2021-05-26T21:41:25Z</time>
      </trkpt>
      <trkpt lat="41.965955" lon="2.526072">
        <ele>530.846</ele>
        <time>2021-05-26T21:41:26Z</time>
      </trkpt>
      <trkpt lat="41.965988" lon="2.526041">
        <ele>530.621</ele>
        <time>2021-05-26T21:41:27Z</time>
      </trkpt>
      <trkpt lat="41.966019" lon="2.526012">
        <ele>530.511</ele>
        <time>2021-05-26T21:41:29Z</time>
      </trkpt>
      <trkpt lat="41.966034" lon="2.525998">
        <ele>530.477</ele>
        <time>2021-05-26T21:41:31Z</time>
      </trkpt>
      <trkpt lat="41.966071" lon="2.525967">
        <ele>530.172</ele>
        <time>2021-05-26T21:41:32Z</time>
      </trkpt>
      <trkpt lat="41.966117" lon="2.525930">
        <ele>529.786</ele>
        <time>2021-05-26T21:41:34Z</time>
      </trkpt>
      <trkpt lat="41.966162" lon="2.525898">
        <ele>528.960</ele>
        <time>2021-05-26T21:41:36Z</time>
      </trkpt>
      <trkpt lat="41.966188" lon="2.525881">
        <ele>528.326</ele>
        <time>2021-05-26T21:41:37Z</time>
      </trkpt>
      <trkpt lat="41.966208" lon="2.525867">
        <ele>527.908</ele>
        <time>2021-05-26T21:41:38Z</time>
      </trkpt>
      <trkpt lat="41.966230" lon="2.525852">
        <ele>527.495</ele>
        <time>2021-05-26T21:41:39Z</time>
      </trkpt>
      <trkpt lat="41.966251" lon="2.525838">
        <ele>526.972</ele>
        <time>2021-05-26T21:41:41Z</time>
      </trkpt>
      <trkpt lat="41.966272" lon="2.525830">
        <ele>526.319</ele>
        <time>2021-05-26T21:41:42Z</time>
      </trkpt>
      <trkpt lat="41.966291" lon="2.525822">
        <ele>525.723</ele>
        <time>2021-05-26T21:41:43Z</time>
      </trkpt>
      <trkpt lat="41.966308" lon="2.525813">
        <ele>525.238</ele>
        <time>2021-05-26T21:41:44Z</time>
      </trkpt>
      <trkpt lat="41.966342" lon="2.525793">
        <ele>524.348</ele>
        <time>2021-05-26T21:41:45Z</time>
      </trkpt>
      <trkpt lat="41.966368" lon="2.525777">
        <ele>523.684</ele>
        <time>2021-05-26T21:41:46Z</time>
      </trkpt>
      <trkpt lat="41.966397" lon="2.525759">
        <ele>522.819</ele>
        <time>2021-05-26T21:41:47Z</time>
      </trkpt>
      <trkpt lat="41.966423" lon="2.525740">
        <ele>522.295</ele>
        <time>2021-05-26T21:41:48Z</time>
      </trkpt>
      <trkpt lat="41.966449" lon="2.525716">
        <ele>521.649</ele>
        <time>2021-05-26T21:41:49Z</time>
      </trkpt>
      <trkpt lat="41.966473" lon="2.525693">
        <ele>521.123</ele>
        <time>2021-05-26T21:41:50Z</time>
      </trkpt>
      <trkpt lat="41.966497" lon="2.525670">
        <ele>520.708</ele>
        <time>2021-05-26T21:41:51Z</time>
      </trkpt>
      <trkpt lat="41.966520" lon="2.525650">
        <ele>520.256</ele>
        <time>2021-05-26T21:41:52Z</time>
      </trkpt>
      <trkpt lat="41.966544" lon="2.525629">
        <ele>519.813</ele>
        <time>2021-05-26T21:41:53Z</time>
      </trkpt>
      <trkpt lat="41.966566" lon="2.525603">
        <ele>519.540</ele>
        <time>2021-05-26T21:41:54Z</time>
      </trkpt>
      <trkpt lat="41.966588" lon="2.525579">
        <ele>519.254</ele>
        <time>2021-05-26T21:41:55Z</time>
      </trkpt>
      <trkpt lat="41.966605" lon="2.525554">
        <ele>519.049</ele>
        <time>2021-05-26T21:41:56Z</time>
      </trkpt>
      <trkpt lat="41.966620" lon="2.525527">
        <ele>518.999</ele>
        <time>2021-05-26T21:41:57Z</time>
      </trkpt>
      <trkpt lat="41.966629" lon="2.525495">
        <ele>519.175</ele>
        <time>2021-05-26T21:41:58Z</time>
      </trkpt>
      <trkpt lat="41.966642" lon="2.525465">
        <ele>519.160</ele>
        <time>2021-05-26T21:42:00Z</time>
      </trkpt>
      <trkpt lat="41.966653" lon="2.525436">
        <ele>519.195</ele>
        <time>2021-05-26T21:42:01Z</time>
      </trkpt>
      <trkpt lat="41.966666" lon="2.525407">
        <ele>519.249</ele>
        <time>2021-05-26T21:42:02Z</time>
      </trkpt>
      <trkpt lat="41.966690" lon="2.525354">
        <ele>519.023</ele>
        <time>2021-05-26T21:42:03Z</time>
      </trkpt>
      <trkpt lat="41.966712" lon="2.525325">
        <ele>518.608</ele>
        <time>2021-05-26T21:42:04Z</time>
      </trkpt>
      <trkpt lat="41.966734" lon="2.525302">
        <ele>518.286</ele>
        <time>2021-05-26T21:42:05Z</time>
      </trkpt>
      <trkpt lat="41.966758" lon="2.525277">
        <ele>517.713</ele>
        <time>2021-05-26T21:42:06Z</time>
      </trkpt>
      <trkpt lat="41.966778" lon="2.525256">
        <ele>517.220</ele>
        <time>2021-05-26T21:42:07Z</time>
      </trkpt>
      <trkpt lat="41.966797" lon="2.525234">
        <ele>516.824</ele>
        <time>2021-05-26T21:42:08Z</time>
      </trkpt>
      <trkpt lat="41.966813" lon="2.525211">
        <ele>516.589</ele>
        <time>2021-05-26T21:42:09Z</time>
      </trkpt>
      <trkpt lat="41.966828" lon="2.525189">
        <ele>516.219</ele>
        <time>2021-05-26T21:42:10Z</time>
      </trkpt>
      <trkpt lat="41.966847" lon="2.525168">
        <ele>515.775</ele>
        <time>2021-05-26T21:42:11Z</time>
      </trkpt>
      <trkpt lat="41.966864" lon="2.525146">
        <ele>515.370</ele>
        <time>2021-05-26T21:42:12Z</time>
      </trkpt>
      <trkpt lat="41.966881" lon="2.525125">
        <ele>514.935</ele>
        <time>2021-05-26T21:42:13Z</time>
      </trkpt>
      <trkpt lat="41.966895" lon="2.525098">
        <ele>514.786</ele>
        <time>2021-05-26T21:42:14Z</time>
      </trkpt>
      <trkpt lat="41.966909" lon="2.525073">
        <ele>514.514</ele>
        <time>2021-05-26T21:42:15Z</time>
      </trkpt>
      <trkpt lat="41.966923" lon="2.525046">
        <ele>514.308</ele>
        <time>2021-05-26T21:42:16Z</time>
      </trkpt>
      <trkpt lat="41.966939" lon="2.525019">
        <ele>514.010</ele>
        <time>2021-05-26T21:42:17Z</time>
      </trkpt>
      <trkpt lat="41.966953" lon="2.524989">
        <ele>513.657</ele>
        <time>2021-05-26T21:42:18Z</time>
      </trkpt>
      <trkpt lat="41.966966" lon="2.524960">
        <ele>513.184</ele>
        <time>2021-05-26T21:42:19Z</time>
      </trkpt>
      <trkpt lat="41.966978" lon="2.524931">
        <ele>512.848</ele>
        <time>2021-05-26T21:42:20Z</time>
      </trkpt>
      <trkpt lat="41.966987" lon="2.524898">
        <ele>512.723</ele>
        <time>2021-05-26T21:42:21Z</time>
      </trkpt>
      <trkpt lat="41.966999" lon="2.524867">
        <ele>512.553</ele>
        <time>2021-05-26T21:42:23Z</time>
      </trkpt>
      <trkpt lat="41.967010" lon="2.524836">
        <ele>512.349</ele>
        <time>2021-05-26T21:42:24Z</time>
      </trkpt>
      <trkpt lat="41.967041" lon="2.524771">
        <ele>511.634</ele>
        <time>2021-05-26T21:42:25Z</time>
      </trkpt>
      <trkpt lat="41.967063" lon="2.524712">
        <ele>511.461</ele>
        <time>2021-05-26T21:42:27Z</time>
      </trkpt>
      <trkpt lat="41.967093" lon="2.524655">
        <ele>511.221</ele>
        <time>2021-05-26T21:42:29Z</time>
      </trkpt>
      <trkpt lat="41.967127" lon="2.524602">
        <ele>510.813</ele>
        <time>2021-05-26T21:42:31Z</time>
      </trkpt>
      <trkpt lat="41.967142" lon="2.524576">
        <ele>510.808</ele>
        <time>2021-05-26T21:42:33Z</time>
      </trkpt>
      <trkpt lat="41.967161" lon="2.524555">
        <ele>510.413</ele>
        <time>2021-05-26T21:42:34Z</time>
      </trkpt>
      <trkpt lat="41.967189" lon="2.524511">
        <ele>510.440</ele>
        <time>2021-05-26T21:42:35Z</time>
      </trkpt>
      <trkpt lat="41.967202" lon="2.524490">
        <ele>510.487</ele>
        <time>2021-05-26T21:42:36Z</time>
      </trkpt>
      <trkpt lat="41.967216" lon="2.524471">
        <ele>510.431</ele>
        <time>2021-05-26T21:42:38Z</time>
      </trkpt>
      <trkpt lat="41.967232" lon="2.524458">
        <ele>509.996</ele>
        <time>2021-05-26T21:42:39Z</time>
      </trkpt>
      <trkpt lat="41.967260" lon="2.524433">
        <ele>508.676</ele>
        <time>2021-05-26T21:42:41Z</time>
      </trkpt>
      <trkpt lat="41.967275" lon="2.524416">
        <ele>508.042</ele>
        <time>2021-05-26T21:42:42Z</time>
      </trkpt>
      <trkpt lat="41.967314" lon="2.524386">
        <ele>506.237</ele>
        <time>2021-05-26T21:42:43Z</time>
      </trkpt>
      <trkpt lat="41.967352" lon="2.524374">
        <ele>504.061</ele>
        <time>2021-05-26T21:42:45Z</time>
      </trkpt>
      <trkpt lat="41.967373" lon="2.524367">
        <ele>502.921</ele>
        <time>2021-05-26T21:42:46Z</time>
      </trkpt>
      <trkpt lat="41.967391" lon="2.524361">
        <ele>501.913</ele>
        <time>2021-05-26T21:42:47Z</time>
      </trkpt>
      <trkpt lat="41.967411" lon="2.524357">
        <ele>500.708</ele>
        <time>2021-05-26T21:42:48Z</time>
      </trkpt>
      <trkpt lat="41.967431" lon="2.524353">
        <ele>499.593</ele>
        <time>2021-05-26T21:42:49Z</time>
      </trkpt>
      <trkpt lat="41.967453" lon="2.524345">
        <ele>498.430</ele>
        <time>2021-05-26T21:42:50Z</time>
      </trkpt>
      <trkpt lat="41.967474" lon="2.524336">
        <ele>497.497</ele>
        <time>2021-05-26T21:42:51Z</time>
      </trkpt>
      <trkpt lat="41.967494" lon="2.524327">
        <ele>496.531</ele>
        <time>2021-05-26T21:42:52Z</time>
      </trkpt>
      <trkpt lat="41.967513" lon="2.524318">
        <ele>495.866</ele>
        <time>2021-05-26T21:42:53Z</time>
      </trkpt>
      <trkpt lat="41.967534" lon="2.524307">
        <ele>495.236</ele>
        <time>2021-05-26T21:42:54Z</time>
      </trkpt>
      <trkpt lat="41.967553" lon="2.524296">
        <ele>494.642</ele>
        <time>2021-05-26T21:42:55Z</time>
      </trkpt>
      <trkpt lat="41.967571" lon="2.524278">
        <ele>494.467</ele>
        <time>2021-05-26T21:42:56Z</time>
      </trkpt>
      <trkpt lat="41.967612" lon="2.524230">
        <ele>494.198</ele>
        <time>2021-05-26T21:42:58Z</time>
      </trkpt>
      <trkpt lat="41.967634" lon="2.524206">
        <ele>493.815</ele>
        <time>2021-05-26T21:42:59Z</time>
      </trkpt>
      <trkpt lat="41.967651" lon="2.524190">
        <ele>493.426</ele>
        <time>2021-05-26T21:43:00Z</time>
      </trkpt>
      <trkpt lat="41.967668" lon="2.524175">
        <ele>493.008</ele>
        <time>2021-05-26T21:43:01Z</time>
      </trkpt>
      <trkpt lat="41.967697" lon="2.524152">
        <ele>492.046</ele>
        <time>2021-05-26T21:43:03Z</time>
      </trkpt>
      <trkpt lat="41.967714" lon="2.524132">
        <ele>491.583</ele>
        <time>2021-05-26T21:43:04Z</time>
      </trkpt>
      <trkpt lat="41.967753" lon="2.524084">
        <ele>490.580</ele>
        <time>2021-05-26T21:43:06Z</time>
      </trkpt>
      <trkpt lat="41.967789" lon="2.524043">
        <ele>489.674</ele>
        <time>2021-05-26T21:43:08Z</time>
      </trkpt>
      <trkpt lat="41.967809" lon="2.524024">
        <ele>489.179</ele>
        <time>2021-05-26T21:43:10Z</time>
      </trkpt>
      <trkpt lat="41.967835" lon="2.524000">
        <ele>488.499</ele>
        <time>2021-05-26T21:43:11Z</time>
      </trkpt>
      <trkpt lat="41.967854" lon="2.523971">
        <ele>488.265</ele>
        <time>2021-05-26T21:43:12Z</time>
      </trkpt>
      <trkpt lat="41.967866" lon="2.523944">
        <ele>488.240</ele>
        <time>2021-05-26T21:43:13Z</time>
      </trkpt>
      <trkpt lat="41.967892" lon="2.523893">
        <ele>488.185</ele>
        <time>2021-05-26T21:43:14Z</time>
      </trkpt>
      <trkpt lat="41.967905" lon="2.523870">
        <ele>487.989</ele>
        <time>2021-05-26T21:43:15Z</time>
      </trkpt>
      <trkpt lat="41.967926" lon="2.523817">
        <ele>487.817</ele>
        <time>2021-05-26T21:43:17Z</time>
      </trkpt>
      <trkpt lat="41.967932" lon="2.523767">
        <ele>488.508</ele>
        <time>2021-05-26T21:43:19Z</time>
      </trkpt>
      <trkpt lat="41.967964" lon="2.523634">
        <ele>489.515</ele>
        <time>2021-05-26T21:43:24Z</time>
      </trkpt>
      <trkpt lat="41.967971" lon="2.523485">
        <ele>489.762</ele>
        <time>2021-05-26T21:43:29Z</time>
      </trkpt>
      <trkpt lat="41.967955" lon="2.523336">
        <ele>490.219</ele>
        <time>2021-05-26T21:43:34Z</time>
      </trkpt>
      <trkpt lat="41.967937" lon="2.523205">
        <ele>488.193</ele>
        <time>2021-05-26T21:43:36Z</time>
      </trkpt>
      <trkpt lat="41.967955" lon="2.523060">
        <ele>484.978</ele>
        <time>2021-05-26T21:43:40Z</time>
      </trkpt>
      <trkpt lat="41.968007" lon="2.523036">
        <ele>483.568</ele>
        <time>2021-05-26T21:43:42Z</time>
      </trkpt>
      <trkpt lat="41.968037" lon="2.523039">
        <ele>483.084</ele>
        <time>2021-05-26T21:43:43Z</time>
      </trkpt>
      <trkpt lat="41.968061" lon="2.523056">
        <ele>482.819</ele>
        <time>2021-05-26T21:43:44Z</time>
      </trkpt>
      <trkpt lat="41.968087" lon="2.523073">
        <ele>482.384</ele>
        <time>2021-05-26T21:43:45Z</time>
      </trkpt>
      <trkpt lat="41.968104" lon="2.523092">
        <ele>482.007</ele>
        <time>2021-05-26T21:43:46Z</time>
      </trkpt>
      <trkpt lat="41.968119" lon="2.523113">
        <ele>481.817</ele>
        <time>2021-05-26T21:43:47Z</time>
      </trkpt>
      <trkpt lat="41.968135" lon="2.523140">
        <ele>481.708</ele>
        <time>2021-05-26T21:43:48Z</time>
      </trkpt>
      <trkpt lat="41.968146" lon="2.523168">
        <ele>481.775</ele>
        <time>2021-05-26T21:43:49Z</time>
      </trkpt>
      <trkpt lat="41.968164" lon="2.523199">
        <ele>481.542</ele>
        <time>2021-05-26T21:43:50Z</time>
      </trkpt>
      <trkpt lat="41.968181" lon="2.523229">
        <ele>481.289</ele>
        <time>2021-05-26T21:43:51Z</time>
      </trkpt>
      <trkpt lat="41.968235" lon="2.523339">
        <ele>480.263</ele>
        <time>2021-05-26T21:43:56Z</time>
      </trkpt>
      <trkpt lat="41.968278" lon="2.523460">
        <ele>477.898</ele>
        <time>2021-05-26T21:43:59Z</time>
      </trkpt>
      <trkpt lat="41.968297" lon="2.523606">
        <ele>476.538</ele>
        <time>2021-05-26T21:44:03Z</time>
      </trkpt>
      <trkpt lat="41.968296" lon="2.523737">
        <ele>474.274</ele>
        <time>2021-05-26T21:44:06Z</time>
      </trkpt>
      <trkpt lat="41.968262" lon="2.523878">
        <ele>472.829</ele>
        <time>2021-05-26T21:44:10Z</time>
      </trkpt>
      <trkpt lat="41.968206" lon="2.523985">
        <ele>472.173</ele>
        <time>2021-05-26T21:44:14Z</time>
      </trkpt>
      <trkpt lat="41.968135" lon="2.524072">
        <ele>472.885</ele>
        <time>2021-05-26T21:44:16Z</time>
      </trkpt>
      <trkpt lat="41.968112" lon="2.524111">
        <ele>472.813</ele>
        <time>2021-05-26T21:44:17Z</time>
      </trkpt>
      <trkpt lat="41.968093" lon="2.524138">
        <ele>473.008</ele>
        <time>2021-05-26T21:44:18Z</time>
      </trkpt>
      <trkpt lat="41.968062" lon="2.524192">
        <ele>473.054</ele>
        <time>2021-05-26T21:44:20Z</time>
      </trkpt>
      <trkpt lat="41.968040" lon="2.524218">
        <ele>473.231</ele>
        <time>2021-05-26T21:44:21Z</time>
      </trkpt>
      <trkpt lat="41.968022" lon="2.524249">
        <ele>473.278</ele>
        <time>2021-05-26T21:44:23Z</time>
      </trkpt>
      <trkpt lat="41.967984" lon="2.524301">
        <ele>473.432</ele>
        <time>2021-05-26T21:44:24Z</time>
      </trkpt>
      <trkpt lat="41.967945" lon="2.524345">
        <ele>473.827</ele>
        <time>2021-05-26T21:44:26Z</time>
      </trkpt>
      <trkpt lat="41.967925" lon="2.524363">
        <ele>474.137</ele>
        <time>2021-05-26T21:44:27Z</time>
      </trkpt>
      <trkpt lat="41.967907" lon="2.524382">
        <ele>474.393</ele>
        <time>2021-05-26T21:44:28Z</time>
      </trkpt>
      <trkpt lat="41.967870" lon="2.524419">
        <ele>474.878</ele>
        <time>2021-05-26T21:44:30Z</time>
      </trkpt>
      <trkpt lat="41.967850" lon="2.524440">
        <ele>475.048</ele>
        <time>2021-05-26T21:44:31Z</time>
      </trkpt>
      <trkpt lat="41.967818" lon="2.524481">
        <ele>475.061</ele>
        <time>2021-05-26T21:44:33Z</time>
      </trkpt>
      <trkpt lat="41.967785" lon="2.524529">
        <ele>474.717</ele>
        <time>2021-05-26T21:44:35Z</time>
      </trkpt>
      <trkpt lat="41.967768" lon="2.524552">
        <ele>474.608</ele>
        <time>2021-05-26T21:44:37Z</time>
      </trkpt>
      <trkpt lat="41.967749" lon="2.524577">
        <ele>474.611</ele>
        <time>2021-05-26T21:44:38Z</time>
      </trkpt>
      <trkpt lat="41.967678" lon="2.524661">
        <ele>474.988</ele>
        <time>2021-05-26T21:44:42Z</time>
      </trkpt>
      <trkpt lat="41.967603" lon="2.524745">
        <ele>475.495</ele>
        <time>2021-05-26T21:44:46Z</time>
      </trkpt>
      <trkpt lat="41.967528" lon="2.524833">
        <ele>475.889</ele>
        <time>2021-05-26T21:44:50Z</time>
      </trkpt>
      <trkpt lat="41.967488" lon="2.524917">
        <ele>475.054</ele>
        <time>2021-05-26T21:44:52Z</time>
      </trkpt>
      <trkpt lat="41.967421" lon="2.525025">
        <ele>477.474</ele>
        <time>2021-05-26T21:44:57Z</time>
      </trkpt>
      <trkpt lat="41.967371" lon="2.525129">
        <ele>479.630</ele>
        <time>2021-05-26T21:45:02Z</time>
      </trkpt>
      <trkpt lat="41.967365" lon="2.525253">
        <ele>477.755</ele>
        <time>2021-05-26T21:45:05Z</time>
      </trkpt>
      <trkpt lat="41.967337" lon="2.525403">
        <ele>478.013</ele>
        <time>2021-05-26T21:45:09Z</time>
      </trkpt>
      <trkpt lat="41.967324" lon="2.525537">
        <ele>477.343</ele>
        <time>2021-05-26T21:45:13Z</time>
      </trkpt>
      <trkpt lat="41.967303" lon="2.525670">
        <ele>477.207</ele>
        <time>2021-05-26T21:45:17Z</time>
      </trkpt>
      <trkpt lat="41.967250" lon="2.525799">
        <ele>479.508</ele>
        <time>2021-05-26T21:45:21Z</time>
      </trkpt>
      <trkpt lat="41.967219" lon="2.525936">
        <ele>478.258</ele>
        <time>2021-05-26T21:45:25Z</time>
      </trkpt>
      <trkpt lat="41.967193" lon="2.526057">
        <ele>476.385</ele>
        <time>2021-05-26T21:45:29Z</time>
      </trkpt>
      <trkpt lat="41.967169" lon="2.526191">
        <ele>473.662</ele>
        <time>2021-05-26T21:45:34Z</time>
      </trkpt>
      <trkpt lat="41.967116" lon="2.526322">
        <ele>472.446</ele>
        <time>2021-05-26T21:45:38Z</time>
      </trkpt>
      <trkpt lat="41.967053" lon="2.526439">
        <ele>471.771</ele>
        <time>2021-05-26T21:45:41Z</time>
      </trkpt>
      <trkpt lat="41.967019" lon="2.526489">
        <ele>471.641</ele>
        <time>2021-05-26T21:45:44Z</time>
      </trkpt>
      <trkpt lat="41.967004" lon="2.526511">
        <ele>471.547</ele>
        <time>2021-05-26T21:45:45Z</time>
      </trkpt>
      <trkpt lat="41.966988" lon="2.526532">
        <ele>471.522</ele>
        <time>2021-05-26T21:45:46Z</time>
      </trkpt>
      <trkpt lat="41.966970" lon="2.526553">
        <ele>471.593</ele>
        <time>2021-05-26T21:45:47Z</time>
      </trkpt>
      <trkpt lat="41.966953" lon="2.526574">
        <ele>471.665</ele>
        <time>2021-05-26T21:45:48Z</time>
      </trkpt>
      <trkpt lat="41.966932" lon="2.526594">
        <ele>471.921</ele>
        <time>2021-05-26T21:45:49Z</time>
      </trkpt>
      <trkpt lat="41.966912" lon="2.526612">
        <ele>472.308</ele>
        <time>2021-05-26T21:45:50Z</time>
      </trkpt>
      <trkpt lat="41.966897" lon="2.526632">
        <ele>472.316</ele>
        <time>2021-05-26T21:45:51Z</time>
      </trkpt>
      <trkpt lat="41.966878" lon="2.526653">
        <ele>472.463</ele>
        <time>2021-05-26T21:45:52Z</time>
      </trkpt>
      <trkpt lat="41.966857" lon="2.526672">
        <ele>472.830</ele>
        <time>2021-05-26T21:45:53Z</time>
      </trkpt>
      <trkpt lat="41.966841" lon="2.526695">
        <ele>472.774</ele>
        <time>2021-05-26T21:45:54Z</time>
      </trkpt>
      <trkpt lat="41.966819" lon="2.526717">
        <ele>472.949</ele>
        <time>2021-05-26T21:45:55Z</time>
      </trkpt>
      <trkpt lat="41.966798" lon="2.526737">
        <ele>473.169</ele>
        <time>2021-05-26T21:45:56Z</time>
      </trkpt>
      <trkpt lat="41.966775" lon="2.526759">
        <ele>473.485</ele>
        <time>2021-05-26T21:45:57Z</time>
      </trkpt>
      <trkpt lat="41.966724" lon="2.526859">
        <ele>471.310</ele>
        <time>2021-05-26T21:46:01Z</time>
      </trkpt>
      <trkpt lat="41.966656" lon="2.526957">
        <ele>470.193</ele>
        <time>2021-05-26T21:46:05Z</time>
      </trkpt>
      <trkpt lat="41.966571" lon="2.527038">
        <ele>471.665</ele>
        <time>2021-05-26T21:46:09Z</time>
      </trkpt>
      <trkpt lat="41.966506" lon="2.527126">
        <ele>471.621</ele>
        <time>2021-05-26T21:46:12Z</time>
      </trkpt>
      <trkpt lat="41.966427" lon="2.527202">
        <ele>473.408</ele>
        <time>2021-05-26T21:46:16Z</time>
      </trkpt>
      <trkpt lat="41.966330" lon="2.527266">
        <ele>475.516</ele>
        <time>2021-05-26T21:46:20Z</time>
      </trkpt>
      <trkpt lat="41.966234" lon="2.527326">
        <ele>477.343</ele>
        <time>2021-05-26T21:46:24Z</time>
      </trkpt>
      <trkpt lat="41.966144" lon="2.527379">
        <ele>479.550</ele>
        <time>2021-05-26T21:46:28Z</time>
      </trkpt>
      <trkpt lat="41.966067" lon="2.527457">
        <ele>479.474</ele>
        <time>2021-05-26T21:46:32Z</time>
      </trkpt>
      <trkpt lat="41.965980" lon="2.527536">
        <ele>479.789</ele>
        <time>2021-05-26T21:46:37Z</time>
      </trkpt>
      <trkpt lat="41.965987" lon="2.527674">
        <ele>475.329</ele>
        <time>2021-05-26T21:46:41Z</time>
      </trkpt>
      <trkpt lat="41.966005" lon="2.527799">
        <ele>470.975</ele>
        <time>2021-05-26T21:46:45Z</time>
      </trkpt>
      <trkpt lat="41.965985" lon="2.527940">
        <ele>468.750</ele>
        <time>2021-05-26T21:46:49Z</time>
      </trkpt>
      <trkpt lat="41.965966" lon="2.528063">
        <ele>467.345</ele>
        <time>2021-05-26T21:46:53Z</time>
      </trkpt>
      <trkpt lat="41.965944" lon="2.528180">
        <ele>467.447</ele>
        <time>2021-05-26T21:46:57Z</time>
      </trkpt>
      <trkpt lat="41.965935" lon="2.528311">
        <ele>466.611</ele>
        <time>2021-05-26T21:47:01Z</time>
      </trkpt>
      <trkpt lat="41.965920" lon="2.528432">
        <ele>466.608</ele>
        <time>2021-05-26T21:47:06Z</time>
      </trkpt>
      <trkpt lat="41.965924" lon="2.528582">
        <ele>465.041</ele>
        <time>2021-05-26T21:47:10Z</time>
      </trkpt>
      <trkpt lat="41.965878" lon="2.528700">
        <ele>467.168</ele>
        <time>2021-05-26T21:47:15Z</time>
      </trkpt>
      <trkpt lat="41.965880" lon="2.528761">
        <ele>466.445</ele>
        <time>2021-05-26T21:47:16Z</time>
      </trkpt>
      <trkpt lat="41.965896" lon="2.528810">
        <ele>464.919</ele>
        <time>2021-05-26T21:47:18Z</time>
      </trkpt>
      <trkpt lat="41.965916" lon="2.528854">
        <ele>463.294</ele>
        <time>2021-05-26T21:47:21Z</time>
      </trkpt>
      <trkpt lat="41.965943" lon="2.528901">
        <ele>461.274</ele>
        <time>2021-05-26T21:47:22Z</time>
      </trkpt>
      <trkpt lat="41.965952" lon="2.528926">
        <ele>460.630</ele>
        <time>2021-05-26T21:47:23Z</time>
      </trkpt>
      <trkpt lat="41.966000" lon="2.529069">
        <ele>457.445</ele>
        <time>2021-05-26T21:47:28Z</time>
      </trkpt>
      <trkpt lat="41.966017" lon="2.529191">
        <ele>456.451</ele>
        <time>2021-05-26T21:47:33Z</time>
      </trkpt>
      <trkpt lat="41.966003" lon="2.529329">
        <ele>457.201</ele>
        <time>2021-05-26T21:47:37Z</time>
      </trkpt>
      <trkpt lat="41.965974" lon="2.529450">
        <ele>458.411</ele>
        <time>2021-05-26T21:47:41Z</time>
      </trkpt>
      <trkpt lat="41.965939" lon="2.529568">
        <ele>460.008</ele>
        <time>2021-05-26T21:47:44Z</time>
      </trkpt>
      <trkpt lat="41.965935" lon="2.529701">
        <ele>460.442</ele>
        <time>2021-05-26T21:47:48Z</time>
      </trkpt>
      <trkpt lat="41.965952" lon="2.529824">
        <ele>461.859</ele>
        <time>2021-05-26T21:47:54Z</time>
      </trkpt>
      <trkpt lat="41.966046" lon="2.529788">
        <ele>459.076</ele>
        <time>2021-05-26T21:47:58Z</time>
      </trkpt>
      <trkpt lat="41.966115" lon="2.529668">
        <ele>455.450</ele>
        <time>2021-05-26T21:48:03Z</time>
      </trkpt>
      <trkpt lat="41.966166" lon="2.529532">
        <ele>453.955</ele>
        <time>2021-05-26T21:48:08Z</time>
      </trkpt>
      <trkpt lat="41.966196" lon="2.529392">
        <ele>452.475</ele>
        <time>2021-05-26T21:48:13Z</time>
      </trkpt>
      <trkpt lat="41.966227" lon="2.529278">
        <ele>451.721</ele>
        <time>2021-05-26T21:48:16Z</time>
      </trkpt>
      <trkpt lat="41.966234" lon="2.529141">
        <ele>450.926</ele>
        <time>2021-05-26T21:48:21Z</time>
      </trkpt>
      <trkpt lat="41.966261" lon="2.529024">
        <ele>449.319</ele>
        <time>2021-05-26T21:48:25Z</time>
      </trkpt>
      <trkpt lat="41.966242" lon="2.528903">
        <ele>448.309</ele>
        <time>2021-05-26T21:48:29Z</time>
      </trkpt>
      <trkpt lat="41.966236" lon="2.528765">
        <ele>447.719</ele>
        <time>2021-05-26T21:48:33Z</time>
      </trkpt>
      <trkpt lat="41.966252" lon="2.528615">
        <ele>446.408</ele>
        <time>2021-05-26T21:48:38Z</time>
      </trkpt>
      <trkpt lat="41.966266" lon="2.528491">
        <ele>445.858</ele>
        <time>2021-05-26T21:48:42Z</time>
      </trkpt>
      <trkpt lat="41.966318" lon="2.528388">
        <ele>443.425</ele>
        <time>2021-05-26T21:48:48Z</time>
      </trkpt>
      <trkpt lat="41.966373" lon="2.528292">
        <ele>441.322</ele>
        <time>2021-05-26T21:48:52Z</time>
      </trkpt>
      <trkpt lat="41.966437" lon="2.528183">
        <ele>441.716</ele>
        <time>2021-05-26T21:48:56Z</time>
      </trkpt>
      <trkpt lat="41.966522" lon="2.528100">
        <ele>441.331</ele>
        <time>2021-05-26T21:49:00Z</time>
      </trkpt>
      <trkpt lat="41.966612" lon="2.528051">
        <ele>440.061</ele>
        <time>2021-05-26T21:49:05Z</time>
      </trkpt>
      <trkpt lat="41.966710" lon="2.527991">
        <ele>438.547</ele>
        <time>2021-05-26T21:49:10Z</time>
      </trkpt>
      <trkpt lat="41.966801" lon="2.527895">
        <ele>436.582</ele>
        <time>2021-05-26T21:49:14Z</time>
      </trkpt>
      <trkpt lat="41.966866" lon="2.527782">
        <ele>434.333</ele>
        <time>2021-05-26T21:49:18Z</time>
      </trkpt>
      <trkpt lat="41.966932" lon="2.527685">
        <ele>433.123</ele>
        <time>2021-05-26T21:49:24Z</time>
      </trkpt>
      <trkpt lat="41.967004" lon="2.527603">
        <ele>432.115</ele>
        <time>2021-05-26T21:49:29Z</time>
      </trkpt>
      <trkpt lat="41.967092" lon="2.527554">
        <ele>430.908</ele>
        <time>2021-05-26T21:49:34Z</time>
      </trkpt>
      <trkpt lat="41.967213" lon="2.527540">
        <ele>428.760</ele>
        <time>2021-05-26T21:49:39Z</time>
      </trkpt>
      <trkpt lat="41.967307" lon="2.527508">
        <ele>427.767</ele>
        <time>2021-05-26T21:49:42Z</time>
      </trkpt>
      <trkpt lat="41.967407" lon="2.527489">
        <ele>426.534</ele>
        <time>2021-05-26T21:49:47Z</time>
      </trkpt>
      <trkpt lat="41.967524" lon="2.527406">
        <ele>425.518</ele>
        <time>2021-05-26T21:49:51Z</time>
      </trkpt>
      <trkpt lat="41.967634" lon="2.527328">
        <ele>423.453</ele>
        <time>2021-05-26T21:49:54Z</time>
      </trkpt>
      <trkpt lat="41.967723" lon="2.527261">
        <ele>420.943</ele>
        <time>2021-05-26T21:49:56Z</time>
      </trkpt>
      <trkpt lat="41.967795" lon="2.527167">
        <ele>418.579</ele>
        <time>2021-05-26T21:50:00Z</time>
      </trkpt>
      <trkpt lat="41.967841" lon="2.527059">
        <ele>416.944</ele>
        <time>2021-05-26T21:50:04Z</time>
      </trkpt>
      <trkpt lat="41.967873" lon="2.526914">
        <ele>415.285</ele>
        <time>2021-05-26T21:50:09Z</time>
      </trkpt>
      <trkpt lat="41.967944" lon="2.526814">
        <ele>413.389</ele>
        <time>2021-05-26T21:50:14Z</time>
      </trkpt>
      <trkpt lat="41.967997" lon="2.526713">
        <ele>411.117</ele>
        <time>2021-05-26T21:50:18Z</time>
      </trkpt>
      <trkpt lat="41.968046" lon="2.526608">
        <ele>408.508</ele>
        <time>2021-05-26T21:50:22Z</time>
      </trkpt>
      <trkpt lat="41.968110" lon="2.526509">
        <ele>406.955</ele>
        <time>2021-05-26T21:50:26Z</time>
      </trkpt>
      <trkpt lat="41.968162" lon="2.526403">
        <ele>405.452</ele>
        <time>2021-05-26T21:50:30Z</time>
      </trkpt>
      <trkpt lat="41.968208" lon="2.526279">
        <ele>404.169</ele>
        <time>2021-05-26T21:50:34Z</time>
      </trkpt>
      <trkpt lat="41.968253" lon="2.526151">
        <ele>402.353</ele>
        <time>2021-05-26T21:50:38Z</time>
      </trkpt>
      <trkpt lat="41.968289" lon="2.526012">
        <ele>401.688</ele>
        <time>2021-05-26T21:50:43Z</time>
      </trkpt>
      <trkpt lat="41.968318" lon="2.525881">
        <ele>401.428</ele>
        <time>2021-05-26T21:50:47Z</time>
      </trkpt>
      <trkpt lat="41.968360" lon="2.525768">
        <ele>401.344</ele>
        <time>2021-05-26T21:50:52Z</time>
      </trkpt>
      <trkpt lat="41.968433" lon="2.525665">
        <ele>400.529</ele>
        <time>2021-05-26T21:50:55Z</time>
      </trkpt>
      <trkpt lat="41.968499" lon="2.525560">
        <ele>399.039</ele>
        <time>2021-05-26T21:51:00Z</time>
      </trkpt>
      <trkpt lat="41.968569" lon="2.525468">
        <ele>398.601</ele>
        <time>2021-05-26T21:51:05Z</time>
      </trkpt>
      <trkpt lat="41.968652" lon="2.525410">
        <ele>397.021</ele>
        <time>2021-05-26T21:51:13Z</time>
      </trkpt>
      <trkpt lat="41.968746" lon="2.525439">
        <ele>394.108</ele>
        <time>2021-05-26T21:51:19Z</time>
      </trkpt>
      <trkpt lat="41.968836" lon="2.525408">
        <ele>392.010</ele>
        <time>2021-05-26T21:51:24Z</time>
      </trkpt>
      <trkpt lat="41.968927" lon="2.525411">
        <ele>389.987</ele>
        <time>2021-05-26T21:51:29Z</time>
      </trkpt>
      <trkpt lat="41.969026" lon="2.525356">
        <ele>388.094</ele>
        <time>2021-05-26T21:51:33Z</time>
      </trkpt>
      <trkpt lat="41.969090" lon="2.525271">
        <ele>386.158</ele>
        <time>2021-05-26T21:51:37Z</time>
      </trkpt>
      <trkpt lat="41.969172" lon="2.525211">
        <ele>385.283</ele>
        <time>2021-05-26T21:51:42Z</time>
      </trkpt>
      <trkpt lat="41.969263" lon="2.525157">
        <ele>385.183</ele>
        <time>2021-05-26T21:51:46Z</time>
      </trkpt>
      <trkpt lat="41.969358" lon="2.525118">
        <ele>384.269</ele>
        <time>2021-05-26T21:51:50Z</time>
      </trkpt>
      <trkpt lat="41.969449" lon="2.525099">
        <ele>382.964</ele>
        <time>2021-05-26T21:51:54Z</time>
      </trkpt>
      <trkpt lat="41.969531" lon="2.525040">
        <ele>381.489</ele>
        <time>2021-05-26T21:51:57Z</time>
      </trkpt>
      <trkpt lat="41.969605" lon="2.524939">
        <ele>380.506</ele>
        <time>2021-05-26T21:52:02Z</time>
      </trkpt>
      <trkpt lat="41.969691" lon="2.524859">
        <ele>379.426</ele>
        <time>2021-05-26T21:52:07Z</time>
      </trkpt>
      <trkpt lat="41.969785" lon="2.524827">
        <ele>377.208</ele>
        <time>2021-05-26T21:52:12Z</time>
      </trkpt>
      <trkpt lat="41.969919" lon="2.524750">
        <ele>373.635</ele>
        <time>2021-05-26T21:52:18Z</time>
      </trkpt>
      <trkpt lat="41.969956" lon="2.524752">
        <ele>372.512</ele>
        <time>2021-05-26T21:52:21Z</time>
      </trkpt>
      <trkpt lat="41.969945" lon="2.524883">
        <ele>372.999</ele>
        <time>2021-05-26T21:52:31Z</time>
      </trkpt>
      <trkpt lat="41.969928" lon="2.524927">
        <ele>373.373</ele>
        <time>2021-05-26T21:52:33Z</time>
      </trkpt>
      <trkpt lat="41.969933" lon="2.524956">
        <ele>373.278</ele>
        <time>2021-05-26T21:52:34Z</time>
      </trkpt>
      <trkpt lat="41.969939" lon="2.524990">
        <ele>373.148</ele>
        <time>2021-05-26T21:52:38Z</time>
      </trkpt>
      <trkpt lat="41.969942" lon="2.525015">
        <ele>373.484</ele>
        <time>2021-05-26T21:52:39Z</time>
      </trkpt>
      <trkpt lat="41.969958" lon="2.525036">
        <ele>373.599</ele>
        <time>2021-05-26T21:52:42Z</time>
      </trkpt>
      <trkpt lat="41.969995" lon="2.525049">
        <ele>373.114</ele>
        <time>2021-05-26T21:52:44Z</time>
      </trkpt>
      <trkpt lat="41.970037" lon="2.525042">
        <ele>373.054</ele>
        <time>2021-05-26T21:52:45Z</time>
      </trkpt>
      <trkpt lat="41.970058" lon="2.525040">
        <ele>373.009</ele>
        <time>2021-05-26T21:52:48Z</time>
      </trkpt>
      <trkpt lat="41.970148" lon="2.525022">
        <ele>372.608</ele>
        <time>2021-05-26T21:52:53Z</time>
      </trkpt>
      <trkpt lat="41.970248" lon="2.525003">
        <ele>372.188</ele>
        <time>2021-05-26T21:53:01Z</time>
      </trkpt>
      <trkpt lat="41.970338" lon="2.524978">
        <ele>372.495</ele>
        <time>2021-05-26T21:53:06Z</time>
      </trkpt>
      <trkpt lat="41.970407" lon="2.524900">
        <ele>371.492</ele>
        <time>2021-05-26T21:53:13Z</time>
      </trkpt>
      <trkpt lat="41.970468" lon="2.524794">
        <ele>369.076</ele>
        <time>2021-05-26T21:53:21Z</time>
      </trkpt>
      <trkpt lat="41.970519" lon="2.524749">
        <ele>367.891</ele>
        <time>2021-05-26T21:53:26Z</time>
      </trkpt>
      <trkpt lat="41.970535" lon="2.524735">
        <ele>367.481</ele>
        <time>2021-05-26T21:53:29Z</time>
      </trkpt>
      <trkpt lat="41.970528" lon="2.524758">
        <ele>368.137</ele>
        <time>2021-05-26T21:53:41Z</time>
      </trkpt>
      <trkpt lat="41.970556" lon="2.524753">
        <ele>368.072</ele>
        <time>2021-05-26T21:53:46Z</time>
      </trkpt>
      <trkpt lat="41.970578" lon="2.524752">
        <ele>368.433</ele>
        <time>2021-05-26T21:53:48Z</time>
      </trkpt>
      <trkpt lat="41.970602" lon="2.524746">
        <ele>368.723</ele>
        <time>2021-05-26T21:53:50Z</time>
      </trkpt>
      <trkpt lat="41.970629" lon="2.524746">
        <ele>369.215</ele>
        <time>2021-05-26T21:53:52Z</time>
      </trkpt>
      <trkpt lat="41.970657" lon="2.524744">
        <ele>369.708</ele>
        <time>2021-05-26T21:53:54Z</time>
      </trkpt>
      <trkpt lat="41.970685" lon="2.524742">
        <ele>370.150</ele>
        <time>2021-05-26T21:53:56Z</time>
      </trkpt>
      <trkpt lat="41.970711" lon="2.524734">
        <ele>370.377</ele>
        <time>2021-05-26T21:53:58Z</time>
      </trkpt>
      <trkpt lat="41.970734" lon="2.524733">
        <ele>370.774</ele>
        <time>2021-05-26T21:53:59Z</time>
      </trkpt>
      <trkpt lat="41.970761" lon="2.524734">
        <ele>371.278</ele>
        <time>2021-05-26T21:54:02Z</time>
      </trkpt>
      <trkpt lat="41.970783" lon="2.524730">
        <ele>371.533</ele>
        <time>2021-05-26T21:54:04Z</time>
      </trkpt>
      <trkpt lat="41.970804" lon="2.524721">
        <ele>371.443</ele>
        <time>2021-05-26T21:54:06Z</time>
      </trkpt>
      <trkpt lat="41.970833" lon="2.524721">
        <ele>371.929</ele>
        <time>2021-05-26T21:54:08Z</time>
      </trkpt>
      <trkpt lat="41.970859" lon="2.524709">
        <ele>372.694</ele>
        <time>2021-05-26T21:54:09Z</time>
      </trkpt>
      <trkpt lat="41.970880" lon="2.524696">
        <ele>373.095</ele>
        <time>2021-05-26T21:54:11Z</time>
      </trkpt>
      <trkpt lat="41.970903" lon="2.524682">
        <ele>373.349</ele>
        <time>2021-05-26T21:54:13Z</time>
      </trkpt>
      <trkpt lat="41.970972" lon="2.524592">
        <ele>371.523</ele>
        <time>2021-05-26T21:54:20Z</time>
      </trkpt>
      <trkpt lat="41.970992" lon="2.524566">
        <ele>370.708</ele>
        <time>2021-05-26T21:54:22Z</time>
      </trkpt>
      <trkpt lat="41.971012" lon="2.524539">
        <ele>369.986</ele>
        <time>2021-05-26T21:54:24Z</time>
      </trkpt>
      <trkpt lat="41.971032" lon="2.524515">
        <ele>369.163</ele>
        <time>2021-05-26T21:54:26Z</time>
      </trkpt>
      <trkpt lat="41.971055" lon="2.524499">
        <ele>368.960</ele>
        <time>2021-05-26T21:54:28Z</time>
      </trkpt>
      <trkpt lat="41.971076" lon="2.524481">
        <ele>368.474</ele>
        <time>2021-05-26T21:54:30Z</time>
      </trkpt>
      <trkpt lat="41.971101" lon="2.524465">
        <ele>368.139</ele>
        <time>2021-05-26T21:54:32Z</time>
      </trkpt>
      <trkpt lat="41.971121" lon="2.524436">
        <ele>366.739</ele>
        <time>2021-05-26T21:54:34Z</time>
      </trkpt>
      <trkpt lat="41.971137" lon="2.524396">
        <ele>364.925</ele>
        <time>2021-05-26T21:54:36Z</time>
      </trkpt>
      <trkpt lat="41.971152" lon="2.524353">
        <ele>362.840</ele>
        <time>2021-05-26T21:54:38Z</time>
      </trkpt>
      <trkpt lat="41.971168" lon="2.524324">
        <ele>361.522</ele>
        <time>2021-05-26T21:54:40Z</time>
      </trkpt>
      <trkpt lat="41.971190" lon="2.524305">
        <ele>360.962</ele>
        <time>2021-05-26T21:54:42Z</time>
      </trkpt>
      <trkpt lat="41.971211" lon="2.524285">
        <ele>360.208</ele>
        <time>2021-05-26T21:54:44Z</time>
      </trkpt>
      <trkpt lat="41.971231" lon="2.524267">
        <ele>359.608</ele>
        <time>2021-05-26T21:54:47Z</time>
      </trkpt>
      <trkpt lat="41.971253" lon="2.524250">
        <ele>359.149</ele>
        <time>2021-05-26T21:54:48Z</time>
      </trkpt>
      <trkpt lat="41.971273" lon="2.524234">
        <ele>358.666</ele>
        <time>2021-05-26T21:54:50Z</time>
      </trkpt>
      <trkpt lat="41.971296" lon="2.524210">
        <ele>357.793</ele>
        <time>2021-05-26T21:54:53Z</time>
      </trkpt>
      <trkpt lat="41.971370" lon="2.524131">
        <ele>355.487</ele>
        <time>2021-05-26T21:54:59Z</time>
      </trkpt>
      <trkpt lat="41.971452" lon="2.524047">
        <ele>356.172</ele>
        <time>2021-05-26T21:55:08Z</time>
      </trkpt>
      <trkpt lat="41.971543" lon="2.524038">
        <ele>360.612</ele>
        <time>2021-05-26T21:55:15Z</time>
      </trkpt>
      <trkpt lat="41.971644" lon="2.524024">
        <ele>365.758</ele>
        <time>2021-05-26T21:55:24Z</time>
      </trkpt>
      <trkpt lat="41.971735" lon="2.523974">
        <ele>369.453</ele>
        <time>2021-05-26T21:55:32Z</time>
      </trkpt>
      <trkpt lat="41.971795" lon="2.523877">
        <ele>369.427</ele>
        <time>2021-05-26T21:55:40Z</time>
      </trkpt>
      <trkpt lat="41.971815" lon="2.523825">
        <ele>368.168</ele>
        <time>2021-05-26T21:55:49Z</time>
      </trkpt>
      <trkpt lat="41.971818" lon="2.523799">
        <ele>367.114</ele>
        <time>2021-05-26T21:55:56Z</time>
      </trkpt>
      <trkpt lat="41.971860" lon="2.523672">
        <ele>363.208</ele>
        <time>2021-05-26T21:56:05Z</time>
      </trkpt>
      <trkpt lat="41.971953" lon="2.523625">
        <ele>365.179</ele>
        <time>2021-05-26T21:56:12Z</time>
      </trkpt>
      <trkpt lat="41.972004" lon="2.523517">
        <ele>362.966</ele>
        <time>2021-05-26T21:56:19Z</time>
      </trkpt>
      <trkpt lat="41.972029" lon="2.523391">
        <ele>358.543</ele>
        <time>2021-05-26T21:56:28Z</time>
      </trkpt>
      <trkpt lat="41.972049" lon="2.523270">
        <ele>354.427</ele>
        <time>2021-05-26T21:56:35Z</time>
      </trkpt>
      <trkpt lat="41.972103" lon="2.523153">
        <ele>352.222</ele>
        <time>2021-05-26T21:56:42Z</time>
      </trkpt>
      <trkpt lat="41.972184" lon="2.523078">
        <ele>352.432</ele>
        <time>2021-05-26T21:56:49Z</time>
      </trkpt>
      <trkpt lat="41.972263" lon="2.523016">
        <ele>353.418</ele>
        <time>2021-05-26T21:56:57Z</time>
      </trkpt>
      <trkpt lat="41.972346" lon="2.522960">
        <ele>354.843</ele>
        <time>2021-05-26T21:57:07Z</time>
      </trkpt>
      <trkpt lat="41.972449" lon="2.522966">
        <ele>359.819</ele>
        <time>2021-05-26T21:57:15Z</time>
      </trkpt>
      <trkpt lat="41.972538" lon="2.522930">
        <ele>361.909</ele>
        <time>2021-05-26T21:57:24Z</time>
      </trkpt>
      <trkpt lat="41.972618" lon="2.522874">
        <ele>362.419</ele>
        <time>2021-05-26T21:57:55Z</time>
      </trkpt>
      <trkpt lat="41.972687" lon="2.522787">
        <ele>360.608</ele>
        <time>2021-05-26T21:58:04Z</time>
      </trkpt>
      <trkpt lat="41.972769" lon="2.522711">
        <ele>359.348</ele>
        <time>2021-05-26T21:58:12Z</time>
      </trkpt>
      <trkpt lat="41.972861" lon="2.522654">
        <ele>358.495</ele>
        <time>2021-05-26T21:58:20Z</time>
      </trkpt>
      <trkpt lat="41.972955" lon="2.522599">
        <ele>357.272</ele>
        <time>2021-05-26T21:58:27Z</time>
      </trkpt>
      <trkpt lat="41.973046" lon="2.522582">
        <ele>358.266</ele>
        <time>2021-05-26T21:58:35Z</time>
      </trkpt>
      <trkpt lat="41.973140" lon="2.522561">
        <ele>359.031</ele>
        <time>2021-05-26T21:58:41Z</time>
      </trkpt>
      <trkpt lat="41.973226" lon="2.522508">
        <ele>357.541</ele>
        <time>2021-05-26T21:58:48Z</time>
      </trkpt>
      <trkpt lat="41.973332" lon="2.522513">
        <ele>360.827</ele>
        <time>2021-05-26T21:58:53Z</time>
      </trkpt>
      <trkpt lat="41.973419" lon="2.522471">
        <ele>358.522</ele>
        <time>2021-05-26T21:59:01Z</time>
      </trkpt>
      <trkpt lat="41.973505" lon="2.522418">
        <ele>355.937</ele>
        <time>2021-05-26T21:59:11Z</time>
      </trkpt>
      <trkpt lat="41.973598" lon="2.522415">
        <ele>356.649</ele>
        <time>2021-05-26T21:59:21Z</time>
      </trkpt>
      <trkpt lat="41.973707" lon="2.522371">
        <ele>355.713</ele>
        <time>2021-05-26T21:59:27Z</time>
      </trkpt>
      <trkpt lat="41.973805" lon="2.522353">
        <ele>356.008</ele>
        <time>2021-05-26T21:59:33Z</time>
      </trkpt>
      <trkpt lat="41.973834" lon="2.522354">
        <ele>356.420</ele>
        <time>2021-05-26T21:59:35Z</time>
      </trkpt>
      <trkpt lat="41.973856" lon="2.522361">
        <ele>357.117</ele>
        <time>2021-05-26T21:59:37Z</time>
      </trkpt>
      <trkpt lat="41.973872" lon="2.522380">
        <ele>358.384</ele>
        <time>2021-05-26T21:59:38Z</time>
      </trkpt>
      <trkpt lat="41.973890" lon="2.522397">
        <ele>359.438</ele>
        <time>2021-05-26T21:59:40Z</time>
      </trkpt>
      <trkpt lat="41.973908" lon="2.522416">
        <ele>360.613</ele>
        <time>2021-05-26T21:59:43Z</time>
      </trkpt>
      <trkpt lat="41.973927" lon="2.522438">
        <ele>361.973</ele>
        <time>2021-05-26T21:59:45Z</time>
      </trkpt>
      <trkpt lat="41.973944" lon="2.522462">
        <ele>363.399</ele>
        <time>2021-05-26T21:59:47Z</time>
      </trkpt>
      <trkpt lat="41.973962" lon="2.522480">
        <ele>364.434</ele>
        <time>2021-05-26T21:59:49Z</time>
      </trkpt>
      <trkpt lat="41.973982" lon="2.522497">
        <ele>365.595</ele>
        <time>2021-05-26T21:59:51Z</time>
      </trkpt>
      <trkpt lat="41.974003" lon="2.522513">
        <ele>366.549</ele>
        <time>2021-05-26T21:59:53Z</time>
      </trkpt>
      <trkpt lat="41.974024" lon="2.522524">
        <ele>367.223</ele>
        <time>2021-05-26T21:59:55Z</time>
      </trkpt>
      <trkpt lat="41.974064" lon="2.522542">
        <ele>368.408</ele>
        <time>2021-05-26T21:59:59Z</time>
      </trkpt>
      <trkpt lat="41.974163" lon="2.522514">
        <ele>367.746</ele>
        <time>2021-05-26T22:00:05Z</time>
      </trkpt>
      <trkpt lat="41.974254" lon="2.522487">
        <ele>367.673</ele>
        <time>2021-05-26T22:00:10Z</time>
      </trkpt>
      <trkpt lat="41.974341" lon="2.522447">
        <ele>366.870</ele>
        <time>2021-05-26T22:00:16Z</time>
      </trkpt>
      <trkpt lat="41.974422" lon="2.522388">
        <ele>365.064</ele>
        <time>2021-05-26T22:00:23Z</time>
      </trkpt>
      <trkpt lat="41.974497" lon="2.522305">
        <ele>363.329</ele>
        <time>2021-05-26T22:00:30Z</time>
      </trkpt>
      <trkpt lat="41.974517" lon="2.522281">
        <ele>362.819</ele>
        <time>2021-05-26T22:00:32Z</time>
      </trkpt>
      <trkpt lat="41.974534" lon="2.522249">
        <ele>361.935</ele>
        <time>2021-05-26T22:00:34Z</time>
      </trkpt>
      <trkpt lat="41.974553" lon="2.522220">
        <ele>361.240</ele>
        <time>2021-05-26T22:00:36Z</time>
      </trkpt>
      <trkpt lat="41.974573" lon="2.522197">
        <ele>360.987</ele>
        <time>2021-05-26T22:00:38Z</time>
      </trkpt>
      <trkpt lat="41.974595" lon="2.522180">
        <ele>361.042</ele>
        <time>2021-05-26T22:00:40Z</time>
      </trkpt>
      <trkpt lat="41.974618" lon="2.522165">
        <ele>361.126</ele>
        <time>2021-05-26T22:00:41Z</time>
      </trkpt>
      <trkpt lat="41.974640" lon="2.522150">
        <ele>361.208</ele>
        <time>2021-05-26T22:00:43Z</time>
      </trkpt>
      <trkpt lat="41.974664" lon="2.522139">
        <ele>361.545</ele>
        <time>2021-05-26T22:00:45Z</time>
      </trkpt>
      <trkpt lat="41.974688" lon="2.522125">
        <ele>361.672</ele>
        <time>2021-05-26T22:00:47Z</time>
      </trkpt>
      <trkpt lat="41.974715" lon="2.522114">
        <ele>361.919</ele>
        <time>2021-05-26T22:00:49Z</time>
      </trkpt>
      <trkpt lat="41.974738" lon="2.522105">
        <ele>362.093</ele>
        <time>2021-05-26T22:00:51Z</time>
      </trkpt>
      <trkpt lat="41.974762" lon="2.522094">
        <ele>361.918</ele>
        <time>2021-05-26T22:00:53Z</time>
      </trkpt>
      <trkpt lat="41.974788" lon="2.522079">
        <ele>361.798</ele>
        <time>2021-05-26T22:00:55Z</time>
      </trkpt>
      <trkpt lat="41.974881" lon="2.522041">
        <ele>361.534</ele>
        <time>2021-05-26T22:01:02Z</time>
      </trkpt>
      <trkpt lat="41.974909" lon="2.522037">
        <ele>361.839</ele>
        <time>2021-05-26T22:01:05Z</time>
      </trkpt>
      <trkpt lat="41.974936" lon="2.522032">
        <ele>362.144</ele>
        <time>2021-05-26T22:01:07Z</time>
      </trkpt>
      <trkpt lat="41.974967" lon="2.522032">
        <ele>362.705</ele>
        <time>2021-05-26T22:01:09Z</time>
      </trkpt>
      <trkpt lat="41.974995" lon="2.522033">
        <ele>363.315</ele>
        <time>2021-05-26T22:01:10Z</time>
      </trkpt>
      <trkpt lat="41.975020" lon="2.522032">
        <ele>363.208</ele>
        <time>2021-05-26T22:01:12Z</time>
      </trkpt>
      <trkpt lat="41.975048" lon="2.522028">
        <ele>362.821</ele>
        <time>2021-05-26T22:01:14Z</time>
      </trkpt>
      <trkpt lat="41.975074" lon="2.522028">
        <ele>362.638</ele>
        <time>2021-05-26T22:01:16Z</time>
      </trkpt>
      <trkpt lat="41.975095" lon="2.522030">
        <ele>362.645</ele>
        <time>2021-05-26T22:01:18Z</time>
      </trkpt>
      <trkpt lat="41.975118" lon="2.522033">
        <ele>362.669</ele>
        <time>2021-05-26T22:01:20Z</time>
      </trkpt>
      <trkpt lat="41.975141" lon="2.522031">
        <ele>362.354</ele>
        <time>2021-05-26T22:01:22Z</time>
      </trkpt>
      <trkpt lat="41.975166" lon="2.522032">
        <ele>362.294</ele>
        <time>2021-05-26T22:01:24Z</time>
      </trkpt>
      <trkpt lat="41.975191" lon="2.522034">
        <ele>362.140</ele>
        <time>2021-05-26T22:01:26Z</time>
      </trkpt>
      <trkpt lat="41.975217" lon="2.522039">
        <ele>362.275</ele>
        <time>2021-05-26T22:01:28Z</time>
      </trkpt>
      <trkpt lat="41.975245" lon="2.522037">
        <ele>361.965</ele>
        <time>2021-05-26T22:01:30Z</time>
      </trkpt>
      <trkpt lat="41.975272" lon="2.522030">
        <ele>361.468</ele>
        <time>2021-05-26T22:01:32Z</time>
      </trkpt>
      <trkpt lat="41.975298" lon="2.522027">
        <ele>361.114</ele>
        <time>2021-05-26T22:01:34Z</time>
      </trkpt>
      <trkpt lat="41.975324" lon="2.522023">
        <ele>360.708</ele>
        <time>2021-05-26T22:01:36Z</time>
      </trkpt>
      <trkpt lat="41.975351" lon="2.522017">
        <ele>360.313</ele>
        <time>2021-05-26T22:01:39Z</time>
      </trkpt>
      <trkpt lat="41.975378" lon="2.522013">
        <ele>360.040</ele>
        <time>2021-05-26T22:01:40Z</time>
      </trkpt>
      <trkpt lat="41.975405" lon="2.522011">
        <ele>359.877</ele>
        <time>2021-05-26T22:01:43Z</time>
      </trkpt>
      <trkpt lat="41.975432" lon="2.522011">
        <ele>359.751</ele>
        <time>2021-05-26T22:01:45Z</time>
      </trkpt>
      <trkpt lat="41.975456" lon="2.522016">
        <ele>359.826</ele>
        <time>2021-05-26T22:01:47Z</time>
      </trkpt>
      <trkpt lat="41.975479" lon="2.522028">
        <ele>360.136</ele>
        <time>2021-05-26T22:01:49Z</time>
      </trkpt>
      <trkpt lat="41.975502" lon="2.522043">
        <ele>360.582</ele>
        <time>2021-05-26T22:01:51Z</time>
      </trkpt>
      <trkpt lat="41.975522" lon="2.522054">
        <ele>360.817</ele>
        <time>2021-05-26T22:01:53Z</time>
      </trkpt>
      <trkpt lat="41.975544" lon="2.522074">
        <ele>361.398</ele>
        <time>2021-05-26T22:01:55Z</time>
      </trkpt>
      <trkpt lat="41.975565" lon="2.522095">
        <ele>361.615</ele>
        <time>2021-05-26T22:01:57Z</time>
      </trkpt>
      <trkpt lat="41.975581" lon="2.522123">
        <ele>362.026</ele>
        <time>2021-05-26T22:01:58Z</time>
      </trkpt>
      <trkpt lat="41.975597" lon="2.522149">
        <ele>362.408</ele>
        <time>2021-05-26T22:02:01Z</time>
      </trkpt>
      <trkpt lat="41.975612" lon="2.522174">
        <ele>362.776</ele>
        <time>2021-05-26T22:02:03Z</time>
      </trkpt>
      <trkpt lat="41.975627" lon="2.522200">
        <ele>363.243</ele>
        <time>2021-05-26T22:02:05Z</time>
      </trkpt>
      <trkpt lat="41.975645" lon="2.522228">
        <ele>363.740</ele>
        <time>2021-05-26T22:02:07Z</time>
      </trkpt>
      <trkpt lat="41.975663" lon="2.522254">
        <ele>364.484</ele>
        <time>2021-05-26T22:02:09Z</time>
      </trkpt>
      <trkpt lat="41.975686" lon="2.522277">
        <ele>365.019</ele>
        <time>2021-05-26T22:02:11Z</time>
      </trkpt>
      <trkpt lat="41.975701" lon="2.522304">
        <ele>366.149</ele>
        <time>2021-05-26T22:02:13Z</time>
      </trkpt>
      <trkpt lat="41.975718" lon="2.522333">
        <ele>367.445</ele>
        <time>2021-05-26T22:02:15Z</time>
      </trkpt>
      <trkpt lat="41.975736" lon="2.522360">
        <ele>368.760</ele>
        <time>2021-05-26T22:02:17Z</time>
      </trkpt>
      <trkpt lat="41.975807" lon="2.522445">
        <ele>373.332</ele>
        <time>2021-05-26T22:02:24Z</time>
      </trkpt>
      <trkpt lat="41.975889" lon="2.522500">
        <ele>374.092</ele>
        <time>2021-05-26T22:02:31Z</time>
      </trkpt>
      <trkpt lat="41.975960" lon="2.522588">
        <ele>376.111</ele>
        <time>2021-05-26T22:02:37Z</time>
      </trkpt>
      <trkpt lat="41.975996" lon="2.522619">
        <ele>376.008</ele>
        <time>2021-05-26T22:02:40Z</time>
      </trkpt>
      <trkpt lat="41.976028" lon="2.522646">
        <ele>375.940</ele>
        <time>2021-05-26T22:02:43Z</time>
      </trkpt>
      <trkpt lat="41.976122" lon="2.522661">
        <ele>371.047</ele>
        <time>2021-05-26T22:02:51Z</time>
      </trkpt>
      <trkpt lat="41.976220" lon="2.522663">
        <ele>363.934</ele>
        <time>2021-05-26T22:02:58Z</time>
      </trkpt>
      <trkpt lat="41.976304" lon="2.522716">
        <ele>359.848</ele>
        <time>2021-05-26T22:03:05Z</time>
      </trkpt>
      <trkpt lat="41.976329" lon="2.522727">
        <ele>358.223</ele>
        <time>2021-05-26T22:03:07Z</time>
      </trkpt>
      <trkpt lat="41.976417" lon="2.522798">
        <ele>355.753</ele>
        <time>2021-05-26T22:03:14Z</time>
      </trkpt>
      <trkpt lat="41.976435" lon="2.522819">
        <ele>356.669</ele>
        <time>2021-05-26T22:03:17Z</time>
      </trkpt>
      <trkpt lat="41.976455" lon="2.522839">
        <ele>357.554</ele>
        <time>2021-05-26T22:03:19Z</time>
      </trkpt>
      <trkpt lat="41.976470" lon="2.522866">
        <ele>358.886</ele>
        <time>2021-05-26T22:03:20Z</time>
      </trkpt>
      <trkpt lat="41.976485" lon="2.522890">
        <ele>359.960</ele>
        <time>2021-05-26T22:03:23Z</time>
      </trkpt>
      <trkpt lat="41.976501" lon="2.522915">
        <ele>361.026</ele>
        <time>2021-05-26T22:03:24Z</time>
      </trkpt>
      <trkpt lat="41.976517" lon="2.522939">
        <ele>362.008</ele>
        <time>2021-05-26T22:03:27Z</time>
      </trkpt>
      <trkpt lat="41.976531" lon="2.522967">
        <ele>363.345</ele>
        <time>2021-05-26T22:03:29Z</time>
      </trkpt>
      <trkpt lat="41.976544" lon="2.522998">
        <ele>364.882</ele>
        <time>2021-05-26T22:03:31Z</time>
      </trkpt>
      <trkpt lat="41.976561" lon="2.523024">
        <ele>365.919</ele>
        <time>2021-05-26T22:03:33Z</time>
      </trkpt>
      <trkpt lat="41.976580" lon="2.523049">
        <ele>366.853</ele>
        <time>2021-05-26T22:03:34Z</time>
      </trkpt>
      <trkpt lat="41.976599" lon="2.523072">
        <ele>368.068</ele>
        <time>2021-05-26T22:03:37Z</time>
      </trkpt>
      <trkpt lat="41.976643" lon="2.523081">
        <ele>367.668</ele>
        <time>2021-05-26T22:03:39Z</time>
      </trkpt>
      <trkpt lat="41.976668" lon="2.523092">
        <ele>367.714</ele>
        <time>2021-05-26T22:03:41Z</time>
      </trkpt>
      <trkpt lat="41.976686" lon="2.523109">
        <ele>368.479</ele>
        <time>2021-05-26T22:03:44Z</time>
      </trkpt>
      <trkpt lat="41.976708" lon="2.523124">
        <ele>368.736</ele>
        <time>2021-05-26T22:03:46Z</time>
      </trkpt>
      <trkpt lat="41.976726" lon="2.523142">
        <ele>369.317</ele>
        <time>2021-05-26T22:03:47Z</time>
      </trkpt>
      <trkpt lat="41.976745" lon="2.523156">
        <ele>369.618</ele>
        <time>2021-05-26T22:03:49Z</time>
      </trkpt>
      <trkpt lat="41.976763" lon="2.523177">
        <ele>370.508</ele>
        <time>2021-05-26T22:03:52Z</time>
      </trkpt>
      <trkpt lat="41.976778" lon="2.523201">
        <ele>371.560</ele>
        <time>2021-05-26T22:03:54Z</time>
      </trkpt>
      <trkpt lat="41.976796" lon="2.523223">
        <ele>372.387</ele>
        <time>2021-05-26T22:03:55Z</time>
      </trkpt>
      <trkpt lat="41.976813" lon="2.523244">
        <ele>373.174</ele>
        <time>2021-05-26T22:03:57Z</time>
      </trkpt>
      <trkpt lat="41.976831" lon="2.523263">
        <ele>373.678</ele>
        <time>2021-05-26T22:03:59Z</time>
      </trkpt>
      <trkpt lat="41.976849" lon="2.523286">
        <ele>374.323</ele>
        <time>2021-05-26T22:04:01Z</time>
      </trkpt>
      <trkpt lat="41.976871" lon="2.523307">
        <ele>374.753</ele>
        <time>2021-05-26T22:04:04Z</time>
      </trkpt>
      <trkpt lat="41.976892" lon="2.523329">
        <ele>375.259</ele>
        <time>2021-05-26T22:04:06Z</time>
      </trkpt>
      <trkpt lat="41.976916" lon="2.523345">
        <ele>374.944</ele>
        <time>2021-05-26T22:04:08Z</time>
      </trkpt>
      <trkpt lat="41.976934" lon="2.523376">
        <ele>375.559</ele>
        <time>2021-05-26T22:04:10Z</time>
      </trkpt>
      <trkpt lat="41.976953" lon="2.523401">
        <ele>375.503</ele>
        <time>2021-05-26T22:04:11Z</time>
      </trkpt>
      <trkpt lat="41.977035" lon="2.523458">
        <ele>371.623</ele>
        <time>2021-05-26T22:04:18Z</time>
      </trkpt>
      <trkpt lat="41.977068" lon="2.523466">
        <ele>369.308</ele>
        <time>2021-05-26T22:04:22Z</time>
      </trkpt>
      <trkpt lat="41.977094" lon="2.523475">
        <ele>367.532</ele>
        <time>2021-05-26T22:04:23Z</time>
      </trkpt>
      <trkpt lat="41.977119" lon="2.523485">
        <ele>365.849</ele>
        <time>2021-05-26T22:04:26Z</time>
      </trkpt>
      <trkpt lat="41.977173" lon="2.523500">
        <ele>361.786</ele>
        <time>2021-05-26T22:04:30Z</time>
      </trkpt>
      <trkpt lat="41.977205" lon="2.523511">
        <ele>359.310</ele>
        <time>2021-05-26T22:04:32Z</time>
      </trkpt>
      <trkpt lat="41.977229" lon="2.523529">
        <ele>357.935</ele>
        <time>2021-05-26T22:04:34Z</time>
      </trkpt>
      <trkpt lat="41.977252" lon="2.523539">
        <ele>357.145</ele>
        <time>2021-05-26T22:04:35Z</time>
      </trkpt>
      <trkpt lat="41.977280" lon="2.523538">
        <ele>355.891</ele>
        <time>2021-05-26T22:04:37Z</time>
      </trkpt>
      <trkpt lat="41.977304" lon="2.523520">
        <ele>354.426</ele>
        <time>2021-05-26T22:04:40Z</time>
      </trkpt>
      <trkpt lat="41.977310" lon="2.523492">
        <ele>353.687</ele>
        <time>2021-05-26T22:04:42Z</time>
      </trkpt>
      <trkpt lat="41.977316" lon="2.523466">
        <ele>352.842</ele>
        <time>2021-05-26T22:04:44Z</time>
      </trkpt>
      <trkpt lat="41.977329" lon="2.523446">
        <ele>351.926</ele>
        <time>2021-05-26T22:04:49Z</time>
      </trkpt>
      <trkpt lat="41.977341" lon="2.523469">
        <ele>351.808</ele>
        <time>2021-05-26T22:04:53Z</time>
      </trkpt>
      <trkpt lat="41.977358" lon="2.523491">
        <ele>351.525</ele>
        <time>2021-05-26T22:04:55Z</time>
      </trkpt>
      <trkpt lat="41.977379" lon="2.523507">
        <ele>350.862</ele>
        <time>2021-05-26T22:04:57Z</time>
      </trkpt>
      <trkpt lat="41.977400" lon="2.523526">
        <ele>350.219</ele>
        <time>2021-05-26T22:04:59Z</time>
      </trkpt>
      <trkpt lat="41.977421" lon="2.523544">
        <ele>349.623</ele>
        <time>2021-05-26T22:05:01Z</time>
      </trkpt>
      <trkpt lat="41.977439" lon="2.523566">
        <ele>349.118</ele>
        <time>2021-05-26T22:05:03Z</time>
      </trkpt>
      <trkpt lat="41.977459" lon="2.523586">
        <ele>348.598</ele>
        <time>2021-05-26T22:05:05Z</time>
      </trkpt>
      <trkpt lat="41.977480" lon="2.523600">
        <ele>347.814</ele>
        <time>2021-05-26T22:05:06Z</time>
      </trkpt>
      <trkpt lat="41.977505" lon="2.523607">
        <ele>346.849</ele>
        <time>2021-05-26T22:05:09Z</time>
      </trkpt>
      <trkpt lat="41.977530" lon="2.523618">
        <ele>346.282</ele>
        <time>2021-05-26T22:05:11Z</time>
      </trkpt>
      <trkpt lat="41.977556" lon="2.523631">
        <ele>345.643</ele>
        <time>2021-05-26T22:05:12Z</time>
      </trkpt>
      <trkpt lat="41.977580" lon="2.523646">
        <ele>345.017</ele>
        <time>2021-05-26T22:05:14Z</time>
      </trkpt>
      <trkpt lat="41.977603" lon="2.523667">
        <ele>344.608</ele>
        <time>2021-05-26T22:05:17Z</time>
      </trkpt>
      <trkpt lat="41.977617" lon="2.523695">
        <ele>344.585</ele>
        <time>2021-05-26T22:05:19Z</time>
      </trkpt>
      <trkpt lat="41.977625" lon="2.523727">
        <ele>344.662</ele>
        <time>2021-05-26T22:05:21Z</time>
      </trkpt>
      <trkpt lat="41.977625" lon="2.523756">
        <ele>344.919</ele>
        <time>2021-05-26T22:05:23Z</time>
      </trkpt>
      <trkpt lat="41.977619" lon="2.523786">
        <ele>345.453</ele>
        <time>2021-05-26T22:05:25Z</time>
      </trkpt>
      <trkpt lat="41.977612" lon="2.523818">
        <ele>345.918</ele>
        <time>2021-05-26T22:05:27Z</time>
      </trkpt>
      <trkpt lat="41.977601" lon="2.523848">
        <ele>346.468</ele>
        <time>2021-05-26T22:05:28Z</time>
      </trkpt>
      <trkpt lat="41.977582" lon="2.523876">
        <ele>347.174</ele>
        <time>2021-05-26T22:05:30Z</time>
      </trkpt>
      <trkpt lat="41.977563" lon="2.523904">
        <ele>347.729</ele>
        <time>2021-05-26T22:05:32Z</time>
      </trkpt>
      <trkpt lat="41.977551" lon="2.523936">
        <ele>348.276</ele>
        <time>2021-05-26T22:05:34Z</time>
      </trkpt>
      <trkpt lat="41.977526" lon="2.523963">
        <ele>348.990</ele>
        <time>2021-05-26T22:05:36Z</time>
      </trkpt>
      <trkpt lat="41.977502" lon="2.523988">
        <ele>349.719</ele>
        <time>2021-05-26T22:05:38Z</time>
      </trkpt>
      <trkpt lat="41.977483" lon="2.524014">
        <ele>351.008</ele>
        <time>2021-05-26T22:05:40Z</time>
      </trkpt>
      <trkpt lat="41.977464" lon="2.524038">
        <ele>352.414</ele>
        <time>2021-05-26T22:05:43Z</time>
      </trkpt>
      <trkpt lat="41.977444" lon="2.524063">
        <ele>353.971</ele>
        <time>2021-05-26T22:05:44Z</time>
      </trkpt>
      <trkpt lat="41.977426" lon="2.524089">
        <ele>355.368</ele>
        <time>2021-05-26T22:05:46Z</time>
      </trkpt>
      <trkpt lat="41.977411" lon="2.524116">
        <ele>356.562</ele>
        <time>2021-05-26T22:05:48Z</time>
      </trkpt>
      <trkpt lat="41.977397" lon="2.524143">
        <ele>357.847</ele>
        <time>2021-05-26T22:05:50Z</time>
      </trkpt>
      <trkpt lat="41.977388" lon="2.524169">
        <ele>358.727</ele>
        <time>2021-05-26T22:05:53Z</time>
      </trkpt>
      <trkpt lat="41.977379" lon="2.524197">
        <ele>359.473</ele>
        <time>2021-05-26T22:05:54Z</time>
      </trkpt>
      <trkpt lat="41.977372" lon="2.524229">
        <ele>360.188</ele>
        <time>2021-05-26T22:05:57Z</time>
      </trkpt>
      <trkpt lat="41.977367" lon="2.524261">
        <ele>360.743</ele>
        <time>2021-05-26T22:05:58Z</time>
      </trkpt>
      <trkpt lat="41.977359" lon="2.524293">
        <ele>361.664</ele>
        <time>2021-05-26T22:06:01Z</time>
      </trkpt>
      <trkpt lat="41.977350" lon="2.524336">
        <ele>362.710</ele>
        <time>2021-05-26T22:06:03Z</time>
      </trkpt>
      <trkpt lat="41.977350" lon="2.524369">
        <ele>362.908</ele>
        <time>2021-05-26T22:06:06Z</time>
      </trkpt>
      <trkpt lat="41.977349" lon="2.524405">
        <ele>363.311</ele>
        <time>2021-05-26T22:06:07Z</time>
      </trkpt>
      <trkpt lat="41.977346" lon="2.524439">
        <ele>363.928</ele>
        <time>2021-05-26T22:06:09Z</time>
      </trkpt>
      <trkpt lat="41.977346" lon="2.524472">
        <ele>364.025</ele>
        <time>2021-05-26T22:06:11Z</time>
      </trkpt>
      <trkpt lat="41.977343" lon="2.524507">
        <ele>364.449</ele>
        <time>2021-05-26T22:06:13Z</time>
      </trkpt>
      <trkpt lat="41.977349" lon="2.524541">
        <ele>363.924</ele>
        <time>2021-05-26T22:06:16Z</time>
      </trkpt>
      <trkpt lat="41.977353" lon="2.524568">
        <ele>363.694</ele>
        <time>2021-05-26T22:06:18Z</time>
      </trkpt>
      <trkpt lat="41.977353" lon="2.524597">
        <ele>363.690</ele>
        <time>2021-05-26T22:06:20Z</time>
      </trkpt>
      <trkpt lat="41.977354" lon="2.524629">
        <ele>363.645</ele>
        <time>2021-05-26T22:06:22Z</time>
      </trkpt>
      <trkpt lat="41.977355" lon="2.524663">
        <ele>363.626</ele>
        <time>2021-05-26T22:06:23Z</time>
      </trkpt>
      <trkpt lat="41.977355" lon="2.524700">
        <ele>363.747</ele>
        <time>2021-05-26T22:06:26Z</time>
      </trkpt>
      <trkpt lat="41.977358" lon="2.524734">
        <ele>363.411</ele>
        <time>2021-05-26T22:06:28Z</time>
      </trkpt>
      <trkpt lat="41.977367" lon="2.524767">
        <ele>362.308</ele>
        <time>2021-05-26T22:06:29Z</time>
      </trkpt>
      <trkpt lat="41.977369" lon="2.524798">
        <ele>362.069</ele>
        <time>2021-05-26T22:06:31Z</time>
      </trkpt>
      <trkpt lat="41.977368" lon="2.524828">
        <ele>362.146</ele>
        <time>2021-05-26T22:06:34Z</time>
      </trkpt>
      <trkpt lat="41.977361" lon="2.524861">
        <ele>363.023</ele>
        <time>2021-05-26T22:06:35Z</time>
      </trkpt>
      <trkpt lat="41.977357" lon="2.524896">
        <ele>363.527</ele>
        <time>2021-05-26T22:06:38Z</time>
      </trkpt>
      <trkpt lat="41.977354" lon="2.524928">
        <ele>364.072</ele>
        <time>2021-05-26T22:06:40Z</time>
      </trkpt>
      <trkpt lat="41.977346" lon="2.524960">
        <ele>365.152</ele>
        <time>2021-05-26T22:06:42Z</time>
      </trkpt>
      <trkpt lat="41.977342" lon="2.524990">
        <ele>365.778</ele>
        <time>2021-05-26T22:06:44Z</time>
      </trkpt>
      <trkpt lat="41.977335" lon="2.525020">
        <ele>366.443</ele>
        <time>2021-05-26T22:06:46Z</time>
      </trkpt>
      <trkpt lat="41.977326" lon="2.525050">
        <ele>367.291</ele>
        <time>2021-05-26T22:06:47Z</time>
      </trkpt>
      <trkpt lat="41.977313" lon="2.525082">
        <ele>368.481</ele>
        <time>2021-05-26T22:06:50Z</time>
      </trkpt>
      <trkpt lat="41.977302" lon="2.525114">
        <ele>369.319</ele>
        <time>2021-05-26T22:06:52Z</time>
      </trkpt>
      <trkpt lat="41.977289" lon="2.525144">
        <ele>370.408</ele>
        <time>2021-05-26T22:06:54Z</time>
      </trkpt>
      <trkpt lat="41.977280" lon="2.525174">
        <ele>370.896</ele>
        <time>2021-05-26T22:06:56Z</time>
      </trkpt>
      <trkpt lat="41.977269" lon="2.525201">
        <ele>371.673</ele>
        <time>2021-05-26T22:06:57Z</time>
      </trkpt>
      <trkpt lat="41.977254" lon="2.525231">
        <ele>372.620</ele>
        <time>2021-05-26T22:07:00Z</time>
      </trkpt>
      <trkpt lat="41.977239" lon="2.525266">
        <ele>373.434</ele>
        <time>2021-05-26T22:07:02Z</time>
      </trkpt>
      <trkpt lat="41.977228" lon="2.525300">
        <ele>374.149</ele>
        <time>2021-05-26T22:07:04Z</time>
      </trkpt>
      <trkpt lat="41.977223" lon="2.525338">
        <ele>374.389</ele>
        <time>2021-05-26T22:07:06Z</time>
      </trkpt>
      <trkpt lat="41.977223" lon="2.525374">
        <ele>373.915</ele>
        <time>2021-05-26T22:07:08Z</time>
      </trkpt>
      <trkpt lat="41.977228" lon="2.525409">
        <ele>373.070</ele>
        <time>2021-05-26T22:07:09Z</time>
      </trkpt>
      <trkpt lat="41.977236" lon="2.525447">
        <ele>371.875</ele>
        <time>2021-05-26T22:07:11Z</time>
      </trkpt>
      <trkpt lat="41.977242" lon="2.525480">
        <ele>371.028</ele>
        <time>2021-05-26T22:07:13Z</time>
      </trkpt>
      <trkpt lat="41.977250" lon="2.525512">
        <ele>370.020</ele>
        <time>2021-05-26T22:07:16Z</time>
      </trkpt>
      <trkpt lat="41.977257" lon="2.525544">
        <ele>369.108</ele>
        <time>2021-05-26T22:07:17Z</time>
      </trkpt>
      <trkpt lat="41.977269" lon="2.525575">
        <ele>367.844</ele>
        <time>2021-05-26T22:07:20Z</time>
      </trkpt>
      <trkpt lat="41.977281" lon="2.525605">
        <ele>366.581</ele>
        <time>2021-05-26T22:07:21Z</time>
      </trkpt>
      <trkpt lat="41.977291" lon="2.525634">
        <ele>365.438</ele>
        <time>2021-05-26T22:07:23Z</time>
      </trkpt>
      <trkpt lat="41.977301" lon="2.525666">
        <ele>364.392</ele>
        <time>2021-05-26T22:07:25Z</time>
      </trkpt>
      <trkpt lat="41.977311" lon="2.525700">
        <ele>363.317</ele>
        <time>2021-05-26T22:07:28Z</time>
      </trkpt>
      <trkpt lat="41.977326" lon="2.525728">
        <ele>361.947</ele>
        <time>2021-05-26T22:07:30Z</time>
      </trkpt>
      <trkpt lat="41.977336" lon="2.525760">
        <ele>360.923</ele>
        <time>2021-05-26T22:07:32Z</time>
      </trkpt>
      <trkpt lat="41.977347" lon="2.525793">
        <ele>359.858</ele>
        <time>2021-05-26T22:07:33Z</time>
      </trkpt>
      <trkpt lat="41.977357" lon="2.525825">
        <ele>358.939</ele>
        <time>2021-05-26T22:07:36Z</time>
      </trkpt>
      <trkpt lat="41.977365" lon="2.525857">
        <ele>358.201</ele>
        <time>2021-05-26T22:07:38Z</time>
      </trkpt>
      <trkpt lat="41.977369" lon="2.525888">
        <ele>357.921</ele>
        <time>2021-05-26T22:07:40Z</time>
      </trkpt>
      <trkpt lat="41.977368" lon="2.525922">
        <ele>358.008</ele>
        <time>2021-05-26T22:07:41Z</time>
      </trkpt>
      <trkpt lat="41.977371" lon="2.525953">
        <ele>357.710</ele>
        <time>2021-05-26T22:07:44Z</time>
      </trkpt>
      <trkpt lat="41.977368" lon="2.525987">
        <ele>358.037</ele>
        <time>2021-05-26T22:07:45Z</time>
      </trkpt>
      <trkpt lat="41.977366" lon="2.526021">
        <ele>358.144</ele>
        <time>2021-05-26T22:07:48Z</time>
      </trkpt>
      <trkpt lat="41.977363" lon="2.526055">
        <ele>358.318</ele>
        <time>2021-05-26T22:07:50Z</time>
      </trkpt>
      <trkpt lat="41.977360" lon="2.526087">
        <ele>358.663</ele>
        <time>2021-05-26T22:07:52Z</time>
      </trkpt>
      <trkpt lat="41.977350" lon="2.526118">
        <ele>359.513</ele>
        <time>2021-05-26T22:07:54Z</time>
      </trkpt>
      <trkpt lat="41.977337" lon="2.526150">
        <ele>361.279</ele>
        <time>2021-05-26T22:07:56Z</time>
      </trkpt>
      <trkpt lat="41.977322" lon="2.526178">
        <ele>363.074</ele>
        <time>2021-05-26T22:07:57Z</time>
      </trkpt>
      <trkpt lat="41.977310" lon="2.526202">
        <ele>364.585</ele>
        <time>2021-05-26T22:08:00Z</time>
      </trkpt>
      <trkpt lat="41.977305" lon="2.526234">
        <ele>365.589</ele>
        <time>2021-05-26T22:08:01Z</time>
      </trkpt>
      <trkpt lat="41.977300" lon="2.526265">
        <ele>366.617</ele>
        <time>2021-05-26T22:08:04Z</time>
      </trkpt>
      <trkpt lat="41.977290" lon="2.526297">
        <ele>368.108</ele>
        <time>2021-05-26T22:08:05Z</time>
      </trkpt>
      <trkpt lat="41.977280" lon="2.526327">
        <ele>369.625</ele>
        <time>2021-05-26T22:08:08Z</time>
      </trkpt>
      <trkpt lat="41.977269" lon="2.526356">
        <ele>371.122</ele>
        <time>2021-05-26T22:08:10Z</time>
      </trkpt>
      <trkpt lat="41.977260" lon="2.526382">
        <ele>372.569</ele>
        <time>2021-05-26T22:08:12Z</time>
      </trkpt>
      <trkpt lat="41.977250" lon="2.526411">
        <ele>373.743</ele>
        <time>2021-05-26T22:08:13Z</time>
      </trkpt>
      <trkpt lat="41.977244" lon="2.526441">
        <ele>374.448</ele>
        <time>2021-05-26T22:08:16Z</time>
      </trkpt>
      <trkpt lat="41.977236" lon="2.526472">
        <ele>375.428</ele>
        <time>2021-05-26T22:08:17Z</time>
      </trkpt>
      <trkpt lat="41.977230" lon="2.526507">
        <ele>376.264</ele>
        <time>2021-05-26T22:08:20Z</time>
      </trkpt>
      <trkpt lat="41.977223" lon="2.526540">
        <ele>377.039</ele>
        <time>2021-05-26T22:08:22Z</time>
      </trkpt>
      <trkpt lat="41.977220" lon="2.526577">
        <ele>377.547</ele>
        <time>2021-05-26T22:08:24Z</time>
      </trkpt>
      <trkpt lat="41.977218" lon="2.526615">
        <ele>378.029</ele>
        <time>2021-05-26T22:08:25Z</time>
      </trkpt>
      <trkpt lat="41.977220" lon="2.526651">
        <ele>378.121</ele>
        <time>2021-05-26T22:08:27Z</time>
      </trkpt>
      <trkpt lat="41.977225" lon="2.526688">
        <ele>377.708</ele>
        <time>2021-05-26T22:08:29Z</time>
      </trkpt>
      <trkpt lat="41.977233" lon="2.526719">
        <ele>376.941</ele>
        <time>2021-05-26T22:08:32Z</time>
      </trkpt>
      <trkpt lat="41.977246" lon="2.526749">
        <ele>375.788</ele>
        <time>2021-05-26T22:08:34Z</time>
      </trkpt>
      <trkpt lat="41.977261" lon="2.526771">
        <ele>374.415</ele>
        <time>2021-05-26T22:08:35Z</time>
      </trkpt>
      <trkpt lat="41.977275" lon="2.526797">
        <ele>373.229</ele>
        <time>2021-05-26T22:08:37Z</time>
      </trkpt>
      <trkpt lat="41.977288" lon="2.526823">
        <ele>372.214</ele>
        <time>2021-05-26T22:08:39Z</time>
      </trkpt>
      <trkpt lat="41.977303" lon="2.526847">
        <ele>370.974</ele>
        <time>2021-05-26T22:08:41Z</time>
      </trkpt>
      <trkpt lat="41.977318" lon="2.526868">
        <ele>369.870</ele>
        <time>2021-05-26T22:08:44Z</time>
      </trkpt>
      <trkpt lat="41.977332" lon="2.526890">
        <ele>368.715</ele>
        <time>2021-05-26T22:08:46Z</time>
      </trkpt>
      <trkpt lat="41.977346" lon="2.526912">
        <ele>367.654</ele>
        <time>2021-05-26T22:08:48Z</time>
      </trkpt>
      <trkpt lat="41.977363" lon="2.526936">
        <ele>366.356</ele>
        <time>2021-05-26T22:08:49Z</time>
      </trkpt>
      <trkpt lat="41.977378" lon="2.526962">
        <ele>365.111</ele>
        <time>2021-05-26T22:08:52Z</time>
      </trkpt>
      <trkpt lat="41.977397" lon="2.526984">
        <ele>363.608</ele>
        <time>2021-05-26T22:08:53Z</time>
      </trkpt>
      <trkpt lat="41.977415" lon="2.527006">
        <ele>362.192</ele>
        <time>2021-05-26T22:08:56Z</time>
      </trkpt>
      <trkpt lat="41.977431" lon="2.527028">
        <ele>360.799</ele>
        <time>2021-05-26T22:08:58Z</time>
      </trkpt>
      <trkpt lat="41.977444" lon="2.527057">
        <ele>359.566</ele>
        <time>2021-05-26T22:09:00Z</time>
      </trkpt>
      <trkpt lat="41.977461" lon="2.527082">
        <ele>358.010</ele>
        <time>2021-05-26T22:09:02Z</time>
      </trkpt>
      <trkpt lat="41.977471" lon="2.527113">
        <ele>357.045</ele>
        <time>2021-05-26T22:09:03Z</time>
      </trkpt>
      <trkpt lat="41.977477" lon="2.527146">
        <ele>356.365</ele>
        <time>2021-05-26T22:09:05Z</time>
      </trkpt>
      <trkpt lat="41.977476" lon="2.527176">
        <ele>356.271</ele>
        <time>2021-05-26T22:09:08Z</time>
      </trkpt>
      <trkpt lat="41.977477" lon="2.527207">
        <ele>355.986</ele>
        <time>2021-05-26T22:09:09Z</time>
      </trkpt>
      <trkpt lat="41.977479" lon="2.527237">
        <ele>355.958</ele>
        <time>2021-05-26T22:09:12Z</time>
      </trkpt>
      <trkpt lat="41.977485" lon="2.527261">
        <ele>355.852</ele>
        <time>2021-05-26T22:09:13Z</time>
      </trkpt>
      <trkpt lat="41.977488" lon="2.527288">
        <ele>355.917</ele>
        <time>2021-05-26T22:09:16Z</time>
      </trkpt>
      <trkpt lat="41.977486" lon="2.527319">
        <ele>356.508</ele>
        <time>2021-05-26T22:09:18Z</time>
      </trkpt>
      <trkpt lat="41.977479" lon="2.527350">
        <ele>357.542</ele>
        <time>2021-05-26T22:09:19Z</time>
      </trkpt>
      <trkpt lat="41.977472" lon="2.527389">
        <ele>358.779</ele>
        <time>2021-05-26T22:09:21Z</time>
      </trkpt>
      <trkpt lat="41.977463" lon="2.527418">
        <ele>359.886</ele>
        <time>2021-05-26T22:09:24Z</time>
      </trkpt>
      <trkpt lat="41.977449" lon="2.527448">
        <ele>361.450</ele>
        <time>2021-05-26T22:09:26Z</time>
      </trkpt>
      <trkpt lat="41.977441" lon="2.527479">
        <ele>362.645</ele>
        <time>2021-05-26T22:09:28Z</time>
      </trkpt>
      <trkpt lat="41.977429" lon="2.527509">
        <ele>364.075</ele>
        <time>2021-05-26T22:09:29Z</time>
      </trkpt>
      <trkpt lat="41.977423" lon="2.527540">
        <ele>364.941</ele>
        <time>2021-05-26T22:09:31Z</time>
      </trkpt>
      <trkpt lat="41.977422" lon="2.527576">
        <ele>365.436</ele>
        <time>2021-05-26T22:09:33Z</time>
      </trkpt>
      <trkpt lat="41.977414" lon="2.527610">
        <ele>366.655</ele>
        <time>2021-05-26T22:09:36Z</time>
      </trkpt>
      <trkpt lat="41.977406" lon="2.527642">
        <ele>367.707</ele>
        <time>2021-05-26T22:09:38Z</time>
      </trkpt>
      <trkpt lat="41.977401" lon="2.527672">
        <ele>368.517</ele>
        <time>2021-05-26T22:09:39Z</time>
      </trkpt>
      <trkpt lat="41.977399" lon="2.527706">
        <ele>369.108</ele>
        <time>2021-05-26T22:09:41Z</time>
      </trkpt>
      <trkpt lat="41.977391" lon="2.527739">
        <ele>370.312</ele>
        <time>2021-05-26T22:09:43Z</time>
      </trkpt>
      <trkpt lat="41.977387" lon="2.527768">
        <ele>371.019</ele>
        <time>2021-05-26T22:09:46Z</time>
      </trkpt>
      <trkpt lat="41.977377" lon="2.527861">
        <ele>372.356</ele>
        <time>2021-05-26T22:09:51Z</time>
      </trkpt>
      <trkpt lat="41.977374" lon="2.527900">
        <ele>372.660</ele>
        <time>2021-05-26T22:09:53Z</time>
      </trkpt>
      <trkpt lat="41.977371" lon="2.527938">
        <ele>373.085</ele>
        <time>2021-05-26T22:09:54Z</time>
      </trkpt>
      <trkpt lat="41.977383" lon="2.528073">
        <ele>372.625</ele>
        <time>2021-05-26T22:10:01Z</time>
      </trkpt>
      <trkpt lat="41.977378" lon="2.528154">
        <ele>374.581</ele>
        <time>2021-05-26T22:10:07Z</time>
      </trkpt>
      <trkpt lat="41.977384" lon="2.528186">
        <ele>374.696</ele>
        <time>2021-05-26T22:10:09Z</time>
      </trkpt>
      <trkpt lat="41.977396" lon="2.528217">
        <ele>374.398</ele>
        <time>2021-05-26T22:10:10Z</time>
      </trkpt>
      <trkpt lat="41.977417" lon="2.528245">
        <ele>373.315</ele>
        <time>2021-05-26T22:10:12Z</time>
      </trkpt>
      <trkpt lat="41.977445" lon="2.528268">
        <ele>371.626</ele>
        <time>2021-05-26T22:10:15Z</time>
      </trkpt>
      <trkpt lat="41.977488" lon="2.528298">
        <ele>369.108</ele>
        <time>2021-05-26T22:10:18Z</time>
      </trkpt>
      <trkpt lat="41.977587" lon="2.528352">
        <ele>367.626</ele>
        <time>2021-05-26T22:10:26Z</time>
      </trkpt>
      <trkpt lat="41.977683" lon="2.528363">
        <ele>365.843</ele>
        <time>2021-05-26T22:10:31Z</time>
      </trkpt>
      <trkpt lat="41.977743" lon="2.528374">
        <ele>365.030</ele>
        <time>2021-05-26T22:10:36Z</time>
      </trkpt>
      <trkpt lat="41.977767" lon="2.528379">
        <ele>364.734</ele>
        <time>2021-05-26T22:10:38Z</time>
      </trkpt>
      <trkpt lat="41.977866" lon="2.528404">
        <ele>362.969</ele>
        <time>2021-05-26T22:10:46Z</time>
      </trkpt>
      <trkpt lat="41.977933" lon="2.528439">
        <ele>362.519</ele>
        <time>2021-05-26T22:10:52Z</time>
      </trkpt>
      <trkpt lat="41.977961" lon="2.528453">
        <ele>362.225</ele>
        <time>2021-05-26T22:10:54Z</time>
      </trkpt>
      <trkpt lat="41.977990" lon="2.528469">
        <ele>362.150</ele>
        <time>2021-05-26T22:10:56Z</time>
      </trkpt>
      <trkpt lat="41.978018" lon="2.528481">
        <ele>361.762</ele>
        <time>2021-05-26T22:10:58Z</time>
      </trkpt>
      <trkpt lat="41.978047" lon="2.528491">
        <ele>361.283</ele>
        <time>2021-05-26T22:11:00Z</time>
      </trkpt>
      <trkpt lat="41.978077" lon="2.528507">
        <ele>360.711</ele>
        <time>2021-05-26T22:11:02Z</time>
      </trkpt>
      <trkpt lat="41.978104" lon="2.528509">
        <ele>359.608</ele>
        <time>2021-05-26T22:11:04Z</time>
      </trkpt>
      <trkpt lat="41.978130" lon="2.528502">
        <ele>358.023</ele>
        <time>2021-05-26T22:11:06Z</time>
      </trkpt>
      <trkpt lat="41.978149" lon="2.528481">
        <ele>355.910</ele>
        <time>2021-05-26T22:11:07Z</time>
      </trkpt>
      <trkpt lat="41.978150" lon="2.528447">
        <ele>354.077</ele>
        <time>2021-05-26T22:11:10Z</time>
      </trkpt>
      <trkpt lat="41.978151" lon="2.528413">
        <ele>352.221</ele>
        <time>2021-05-26T22:11:12Z</time>
      </trkpt>
      <trkpt lat="41.978153" lon="2.528384">
        <ele>350.526</ele>
        <time>2021-05-26T22:11:13Z</time>
      </trkpt>
      <trkpt lat="41.978159" lon="2.528358">
        <ele>348.876</ele>
        <time>2021-05-26T22:11:15Z</time>
      </trkpt>
      <trkpt lat="41.978167" lon="2.528333">
        <ele>347.032</ele>
        <time>2021-05-26T22:11:18Z</time>
      </trkpt>
      <trkpt lat="41.978156" lon="2.528306">
        <ele>346.757</ele>
        <time>2021-05-26T22:11:35Z</time>
      </trkpt>
      <trkpt lat="41.978151" lon="2.528335">
        <ele>347.914</ele>
        <time>2021-05-26T22:12:25Z</time>
      </trkpt>
      <trkpt lat="41.978143" lon="2.528372">
        <ele>350.454</ele>
        <time>2021-05-26T22:12:28Z</time>
      </trkpt>
      <trkpt lat="41.978141" lon="2.528399">
        <ele>351.909</ele>
        <time>2021-05-26T22:12:29Z</time>
      </trkpt>
      <trkpt lat="41.978133" lon="2.528430">
        <ele>354.008</ele>
        <time>2021-05-26T22:12:32Z</time>
      </trkpt>
      <trkpt lat="41.978135" lon="2.528465">
        <ele>355.868</ele>
        <time>2021-05-26T22:12:34Z</time>
      </trkpt>
      <trkpt lat="41.978141" lon="2.528498">
        <ele>357.265</ele>
        <time>2021-05-26T22:12:36Z</time>
      </trkpt>
      <trkpt lat="41.978151" lon="2.528527">
        <ele>358.332</ele>
        <time>2021-05-26T22:12:38Z</time>
      </trkpt>
      <trkpt lat="41.978167" lon="2.528557">
        <ele>359.236</ele>
        <time>2021-05-26T22:12:40Z</time>
      </trkpt>
      <trkpt lat="41.978183" lon="2.528590">
        <ele>360.331</ele>
        <time>2021-05-26T22:12:42Z</time>
      </trkpt>
      <trkpt lat="41.978192" lon="2.528622">
        <ele>361.921</ele>
        <time>2021-05-26T22:12:44Z</time>
      </trkpt>
      <trkpt lat="41.978229" lon="2.528740">
        <ele>369.097</ele>
        <time>2021-05-26T22:12:50Z</time>
      </trkpt>
      <trkpt lat="41.978276" lon="2.528845">
        <ele>375.622</ele>
        <time>2021-05-26T22:12:58Z</time>
      </trkpt>
      <trkpt lat="41.978318" lon="2.528963">
        <ele>380.923</ele>
        <time>2021-05-26T22:13:05Z</time>
      </trkpt>
      <trkpt lat="41.978380" lon="2.529065">
        <ele>381.783</ele>
        <time>2021-05-26T22:13:13Z</time>
      </trkpt>
      <trkpt lat="41.978406" lon="2.529073">
        <ele>380.511</ele>
        <time>2021-05-26T22:13:15Z</time>
      </trkpt>
      <trkpt lat="41.978423" lon="2.529100">
        <ele>380.708</ele>
        <time>2021-05-26T22:13:17Z</time>
      </trkpt>
      <trkpt lat="41.978437" lon="2.529125">
        <ele>381.049</ele>
        <time>2021-05-26T22:13:19Z</time>
      </trkpt>
      <trkpt lat="41.978494" lon="2.529238">
        <ele>382.066</ele>
        <time>2021-05-26T22:13:28Z</time>
      </trkpt>
      <trkpt lat="41.978543" lon="2.529342">
        <ele>382.843</ele>
        <time>2021-05-26T22:13:36Z</time>
      </trkpt>
      <trkpt lat="41.978619" lon="2.529431">
        <ele>382.077</ele>
        <time>2021-05-26T22:13:44Z</time>
      </trkpt>
      <trkpt lat="41.978698" lon="2.529498">
        <ele>378.382</ele>
        <time>2021-05-26T22:13:51Z</time>
      </trkpt>
      <trkpt lat="41.978771" lon="2.529581">
        <ele>376.912</ele>
        <time>2021-05-26T22:13:57Z</time>
      </trkpt>
      <trkpt lat="41.978853" lon="2.529645">
        <ele>375.448</ele>
        <time>2021-05-26T22:14:06Z</time>
      </trkpt>
      <trkpt lat="41.978937" lon="2.529655">
        <ele>373.263</ele>
        <time>2021-05-26T22:14:15Z</time>
      </trkpt>
      <trkpt lat="41.979033" lon="2.529679">
        <ele>372.863</ele>
        <time>2021-05-26T22:14:23Z</time>
      </trkpt>
      <trkpt lat="41.979076" lon="2.529686">
        <ele>372.444</ele>
        <time>2021-05-26T22:14:27Z</time>
      </trkpt>
      <trkpt lat="41.979051" lon="2.529667">
        <ele>371.718</ele>
        <time>2021-05-26T22:14:29Z</time>
      </trkpt>
      <trkpt lat="41.979027" lon="2.529659">
        <ele>371.608</ele>
        <time>2021-05-26T22:14:32Z</time>
      </trkpt>
      <trkpt lat="41.979000" lon="2.529650">
        <ele>371.673</ele>
        <time>2021-05-26T22:14:34Z</time>
      </trkpt>
      <trkpt lat="41.978959" lon="2.529631">
        <ele>371.390</ele>
        <time>2021-05-26T22:14:36Z</time>
      </trkpt>
      <trkpt lat="41.978892" lon="2.529583">
        <ele>369.967</ele>
        <time>2021-05-26T22:14:41Z</time>
      </trkpt>
      <trkpt lat="41.978867" lon="2.529579">
        <ele>371.161</ele>
        <time>2021-05-26T22:14:43Z</time>
      </trkpt>
      <trkpt lat="41.978846" lon="2.529581">
        <ele>372.486</ele>
        <time>2021-05-26T22:14:46Z</time>
      </trkpt>
      <trkpt lat="41.978826" lon="2.529581">
        <ele>373.696</ele>
        <time>2021-05-26T22:14:48Z</time>
      </trkpt>
      <trkpt lat="41.978805" lon="2.529576">
        <ele>374.692</ele>
        <time>2021-05-26T22:14:50Z</time>
      </trkpt>
      <trkpt lat="41.978784" lon="2.529562">
        <ele>375.357</ele>
        <time>2021-05-26T22:14:52Z</time>
      </trkpt>
      <trkpt lat="41.978764" lon="2.529543">
        <ele>375.792</ele>
        <time>2021-05-26T22:14:54Z</time>
      </trkpt>
      <trkpt lat="41.978744" lon="2.529519">
        <ele>376.073</ele>
        <time>2021-05-26T22:14:56Z</time>
      </trkpt>
      <trkpt lat="41.978725" lon="2.529493">
        <ele>376.320</ele>
        <time>2021-05-26T22:14:58Z</time>
      </trkpt>
      <trkpt lat="41.978706" lon="2.529465">
        <ele>376.608</ele>
        <time>2021-05-26T22:15:00Z</time>
      </trkpt>
      <trkpt lat="41.978689" lon="2.529439">
        <ele>376.916</ele>
        <time>2021-05-26T22:15:02Z</time>
      </trkpt>
      <trkpt lat="41.978673" lon="2.529410">
        <ele>377.083</ele>
        <time>2021-05-26T22:15:04Z</time>
      </trkpt>
      <trkpt lat="41.978653" lon="2.529393">
        <ele>377.920</ele>
        <time>2021-05-26T22:15:07Z</time>
      </trkpt>
      <trkpt lat="41.978636" lon="2.529385">
        <ele>379.064</ele>
        <time>2021-05-26T22:15:09Z</time>
      </trkpt>
      <trkpt lat="41.978619" lon="2.529365">
        <ele>379.829</ele>
        <time>2021-05-26T22:15:11Z</time>
      </trkpt>
      <trkpt lat="41.978600" lon="2.529352">
        <ele>380.589</ele>
        <time>2021-05-26T22:15:13Z</time>
      </trkpt>
      <trkpt lat="41.978577" lon="2.529354">
        <ele>381.695</ele>
        <time>2021-05-26T22:15:16Z</time>
      </trkpt>
      <trkpt lat="41.978558" lon="2.529326">
        <ele>381.680</ele>
        <time>2021-05-26T22:15:18Z</time>
      </trkpt>
      <trkpt lat="41.978539" lon="2.529303">
        <ele>381.891</ele>
        <time>2021-05-26T22:15:19Z</time>
      </trkpt>
      <trkpt lat="41.978520" lon="2.529272">
        <ele>381.881</ele>
        <time>2021-05-26T22:15:21Z</time>
      </trkpt>
      <trkpt lat="41.978501" lon="2.529241">
        <ele>381.719</ele>
        <time>2021-05-26T22:15:23Z</time>
      </trkpt>
      <trkpt lat="41.978483" lon="2.529216">
        <ele>381.908</ele>
        <time>2021-05-26T22:15:26Z</time>
      </trkpt>
      <trkpt lat="41.978467" lon="2.529188">
        <ele>381.926</ele>
        <time>2021-05-26T22:15:27Z</time>
      </trkpt>
      <trkpt lat="41.978450" lon="2.529158">
        <ele>381.793</ele>
        <time>2021-05-26T22:15:29Z</time>
      </trkpt>
      <trkpt lat="41.978435" lon="2.529131">
        <ele>381.460</ele>
        <time>2021-05-26T22:15:31Z</time>
      </trkpt>
      <trkpt lat="41.978418" lon="2.529104">
        <ele>381.114</ele>
        <time>2021-05-26T22:15:33Z</time>
      </trkpt>
      <trkpt lat="41.978401" lon="2.529078">
        <ele>381.089</ele>
        <time>2021-05-26T22:15:35Z</time>
      </trkpt>
      <trkpt lat="41.978383" lon="2.529051">
        <ele>381.019</ele>
        <time>2021-05-26T22:15:38Z</time>
      </trkpt>
      <trkpt lat="41.978367" lon="2.529026">
        <ele>380.985</ele>
        <time>2021-05-26T22:15:40Z</time>
      </trkpt>
      <trkpt lat="41.978352" lon="2.529004">
        <ele>381.050</ele>
        <time>2021-05-26T22:15:42Z</time>
      </trkpt>
      <trkpt lat="41.978335" lon="2.528976">
        <ele>381.052</ele>
        <time>2021-05-26T22:15:43Z</time>
      </trkpt>
      <trkpt lat="41.978318" lon="2.528949">
        <ele>380.453</ele>
        <time>2021-05-26T22:15:45Z</time>
      </trkpt>
      <trkpt lat="41.978306" lon="2.528926">
        <ele>379.808</ele>
        <time>2021-05-26T22:15:48Z</time>
      </trkpt>
      <trkpt lat="41.978292" lon="2.528903">
        <ele>379.308</ele>
        <time>2021-05-26T22:15:50Z</time>
      </trkpt>
      <trkpt lat="41.978277" lon="2.528876">
        <ele>378.012</ele>
        <time>2021-05-26T22:15:52Z</time>
      </trkpt>
      <trkpt lat="41.978262" lon="2.528850">
        <ele>376.329</ele>
        <time>2021-05-26T22:15:54Z</time>
      </trkpt>
      <trkpt lat="41.978246" lon="2.528826">
        <ele>374.986</ele>
        <time>2021-05-26T22:15:55Z</time>
      </trkpt>
      <trkpt lat="41.978225" lon="2.528802">
        <ele>373.680</ele>
        <time>2021-05-26T22:15:57Z</time>
      </trkpt>
      <trkpt lat="41.978204" lon="2.528774">
        <ele>372.275</ele>
        <time>2021-05-26T22:15:59Z</time>
      </trkpt>
      <trkpt lat="41.978187" lon="2.528754">
        <ele>371.385</ele>
        <time>2021-05-26T22:16:02Z</time>
      </trkpt>
      <trkpt lat="41.978170" lon="2.528728">
        <ele>370.081</ele>
        <time>2021-05-26T22:16:04Z</time>
      </trkpt>
      <trkpt lat="41.978154" lon="2.528703">
        <ele>368.926</ele>
        <time>2021-05-26T22:16:06Z</time>
      </trkpt>
      <trkpt lat="41.978138" lon="2.528681">
        <ele>368.096</ele>
        <time>2021-05-26T22:16:07Z</time>
      </trkpt>
      <trkpt lat="41.978122" lon="2.528656">
        <ele>367.031</ele>
        <time>2021-05-26T22:16:09Z</time>
      </trkpt>
      <trkpt lat="41.978104" lon="2.528631">
        <ele>366.124</ele>
        <time>2021-05-26T22:16:11Z</time>
      </trkpt>
      <trkpt lat="41.978090" lon="2.528603">
        <ele>365.108</ele>
        <time>2021-05-26T22:16:14Z</time>
      </trkpt>
      <trkpt lat="41.978083" lon="2.528567">
        <ele>363.586</ele>
        <time>2021-05-26T22:16:15Z</time>
      </trkpt>
      <trkpt lat="41.978080" lon="2.528537">
        <ele>362.153</ele>
        <time>2021-05-26T22:16:18Z</time>
      </trkpt>
      <trkpt lat="41.978096" lon="2.528458">
        <ele>357.380</ele>
        <time>2021-05-26T22:16:22Z</time>
      </trkpt>
      <trkpt lat="41.978105" lon="2.528431">
        <ele>355.494</ele>
        <time>2021-05-26T22:16:24Z</time>
      </trkpt>
      <trkpt lat="41.978116" lon="2.528387">
        <ele>352.679</ele>
        <time>2021-05-26T22:16:29Z</time>
      </trkpt>
      <trkpt lat="41.978100" lon="2.528409">
        <ele>354.589</ele>
        <time>2021-05-26T22:16:33Z</time>
      </trkpt>
      <trkpt lat="41.978079" lon="2.528426">
        <ele>356.575</ele>
        <time>2021-05-26T22:16:35Z</time>
      </trkpt>
      <trkpt lat="41.978060" lon="2.528433">
        <ele>357.830</ele>
        <time>2021-05-26T22:16:38Z</time>
      </trkpt>
      <trkpt lat="41.978021" lon="2.528461">
        <ele>360.698</ele>
        <time>2021-05-26T22:16:44Z</time>
      </trkpt>
      <trkpt lat="41.977997" lon="2.528462">
        <ele>361.515</ele>
        <time>2021-05-26T22:16:46Z</time>
      </trkpt>
      <trkpt lat="41.977978" lon="2.528462">
        <ele>362.126</ele>
        <time>2021-05-26T22:16:48Z</time>
      </trkpt>
      <trkpt lat="41.977956" lon="2.528464">
        <ele>363.008</ele>
        <time>2021-05-26T22:16:50Z</time>
      </trkpt>
      <trkpt lat="41.977939" lon="2.528475">
        <ele>364.186</ele>
        <time>2021-05-26T22:16:52Z</time>
      </trkpt>
      <trkpt lat="41.977918" lon="2.528476">
        <ele>364.923</ele>
        <time>2021-05-26T22:16:55Z</time>
      </trkpt>
      <trkpt lat="41.977902" lon="2.528464">
        <ele>364.810</ele>
        <time>2021-05-26T22:16:57Z</time>
      </trkpt>
      <trkpt lat="41.977923" lon="2.528464">
        <ele>364.134</ele>
        <time>2021-05-26T22:17:01Z</time>
      </trkpt>
      <trkpt lat="41.977941" lon="2.528472">
        <ele>363.929</ele>
        <time>2021-05-26T22:17:02Z</time>
      </trkpt>
      <trkpt lat="41.977960" lon="2.528483">
        <ele>363.819</ele>
        <time>2021-05-26T22:17:04Z</time>
      </trkpt>
      <trkpt lat="41.977978" lon="2.528490">
        <ele>363.655</ele>
        <time>2021-05-26T22:17:07Z</time>
      </trkpt>
      <trkpt lat="41.977997" lon="2.528492">
        <ele>363.070</ele>
        <time>2021-05-26T22:17:08Z</time>
      </trkpt>
      <trkpt lat="41.978018" lon="2.528496">
        <ele>362.571</ele>
        <time>2021-05-26T22:17:10Z</time>
      </trkpt>
      <trkpt lat="41.978038" lon="2.528492">
        <ele>361.641</ele>
        <time>2021-05-26T22:17:12Z</time>
      </trkpt>
      <trkpt lat="41.978056" lon="2.528480">
        <ele>360.415</ele>
        <time>2021-05-26T22:17:14Z</time>
      </trkpt>
      <trkpt lat="41.978075" lon="2.528460">
        <ele>358.408</ele>
        <time>2021-05-26T22:17:18Z</time>
      </trkpt>
      <trkpt lat="41.978077" lon="2.528454">
        <ele>358.054</ele>
        <time>2021-05-26T22:17:19Z</time>
      </trkpt>
      <trkpt lat="41.978144" lon="2.528401">
        <ele>351.987</ele>
        <time>2021-05-27T06:21:14Z</time>
      </trkpt>
      <trkpt lat="41.978132" lon="2.528429">
        <ele>354.042</ele>
        <time>2021-05-27T06:21:17Z</time>
      </trkpt>
      <trkpt lat="41.978126" lon="2.528456">
        <ele>355.726</ele>
        <time>2021-05-27T06:21:35Z</time>
      </trkpt>
      <trkpt lat="41.978130" lon="2.528490">
        <ele>357.308</ele>
        <time>2021-05-27T06:21:37Z</time>
      </trkpt>
      <trkpt lat="41.978127" lon="2.528518">
        <ele>359.085</ele>
        <time>2021-05-27T06:21:39Z</time>
      </trkpt>
      <trkpt lat="41.978124" lon="2.528546">
        <ele>360.612</ele>
        <time>2021-05-27T06:21:41Z</time>
      </trkpt>
      <trkpt lat="41.978135" lon="2.528580">
        <ele>361.980</ele>
        <time>2021-05-27T06:21:43Z</time>
      </trkpt>
      <trkpt lat="41.978153" lon="2.528611">
        <ele>362.880</ele>
        <time>2021-05-27T06:21:45Z</time>
      </trkpt>
      <trkpt lat="41.978173" lon="2.528636">
        <ele>363.637</ele>
        <time>2021-05-27T06:21:47Z</time>
      </trkpt>
      <trkpt lat="41.978185" lon="2.528672">
        <ele>365.642</ele>
        <time>2021-05-27T06:21:49Z</time>
      </trkpt>
      <trkpt lat="41.978197" lon="2.528710">
        <ele>367.965</ele>
        <time>2021-05-27T06:21:51Z</time>
      </trkpt>
      <trkpt lat="41.978208" lon="2.528749">
        <ele>370.341</ele>
        <time>2021-05-27T06:21:53Z</time>
      </trkpt>
      <trkpt lat="41.978226" lon="2.528776">
        <ele>371.731</ele>
        <time>2021-05-27T06:21:55Z</time>
      </trkpt>
      <trkpt lat="41.978236" lon="2.528812">
        <ele>374.161</ele>
        <time>2021-05-27T06:21:57Z</time>
      </trkpt>
      <trkpt lat="41.978240" lon="2.528838">
        <ele>375.907</ele>
        <time>2021-05-27T06:21:59Z</time>
      </trkpt>
      <trkpt lat="41.978256" lon="2.528852">
        <ele>376.608</ele>
        <time>2021-05-27T06:22:03Z</time>
      </trkpt>
      <trkpt lat="41.978277" lon="2.528866">
        <ele>377.210</ele>
        <time>2021-05-27T06:22:06Z</time>
      </trkpt>
      <trkpt lat="41.978296" lon="2.528871">
        <ele>377.367</ele>
        <time>2021-05-27T06:22:08Z</time>
      </trkpt>
      <trkpt lat="41.978309" lon="2.528903">
        <ele>378.935</ele>
        <time>2021-05-27T06:22:11Z</time>
      </trkpt>
      <trkpt lat="41.978319" lon="2.528926">
        <ele>379.625</ele>
        <time>2021-05-27T06:22:13Z</time>
      </trkpt>
      <trkpt lat="41.978334" lon="2.528947">
        <ele>380.072</ele>
        <time>2021-05-27T06:22:15Z</time>
      </trkpt>
      <trkpt lat="41.978351" lon="2.528969">
        <ele>379.897</ele>
        <time>2021-05-27T06:22:17Z</time>
      </trkpt>
      <trkpt lat="41.978368" lon="2.528990">
        <ele>379.560</ele>
        <time>2021-05-27T06:22:19Z</time>
      </trkpt>
      <trkpt lat="41.978385" lon="2.529003">
        <ele>379.096</ele>
        <time>2021-05-27T06:22:21Z</time>
      </trkpt>
      <trkpt lat="41.978397" lon="2.529023">
        <ele>379.057</ele>
        <time>2021-05-27T06:22:23Z</time>
      </trkpt>
      <trkpt lat="41.978404" lon="2.529055">
        <ele>379.900</ele>
        <time>2021-05-27T06:22:25Z</time>
      </trkpt>
      <trkpt lat="41.978418" lon="2.529079">
        <ele>380.120</ele>
        <time>2021-05-27T06:22:27Z</time>
      </trkpt>
      <trkpt lat="41.978432" lon="2.529101">
        <ele>380.208</ele>
        <time>2021-05-27T06:22:29Z</time>
      </trkpt>
      <trkpt lat="41.978446" lon="2.529122">
        <ele>380.482</ele>
        <time>2021-05-27T06:22:31Z</time>
      </trkpt>
      <trkpt lat="41.978458" lon="2.529144">
        <ele>380.739</ele>
        <time>2021-05-27T06:22:33Z</time>
      </trkpt>
      <trkpt lat="41.978476" lon="2.529164">
        <ele>380.737</ele>
        <time>2021-05-27T06:22:35Z</time>
      </trkpt>
      <trkpt lat="41.978493" lon="2.529187">
        <ele>380.557</ele>
        <time>2021-05-27T06:22:37Z</time>
      </trkpt>
      <trkpt lat="41.978504" lon="2.529216">
        <ele>380.984</ele>
        <time>2021-05-27T06:22:39Z</time>
      </trkpt>
      <trkpt lat="41.978517" lon="2.529249">
        <ele>381.269</ele>
        <time>2021-05-27T06:22:41Z</time>
      </trkpt>
      <trkpt lat="41.978530" lon="2.529274">
        <ele>381.382</ele>
        <time>2021-05-27T06:22:43Z</time>
      </trkpt>
      <trkpt lat="41.978537" lon="2.529310">
        <ele>382.148</ele>
        <time>2021-05-27T06:22:45Z</time>
      </trkpt>
      <trkpt lat="41.978552" lon="2.529335">
        <ele>382.281</ele>
        <time>2021-05-27T06:22:47Z</time>
      </trkpt>
      <trkpt lat="41.978564" lon="2.529367">
        <ele>382.661</ele>
        <time>2021-05-27T06:22:49Z</time>
      </trkpt>
      <trkpt lat="41.978581" lon="2.529393">
        <ele>382.717</ele>
        <time>2021-05-27T06:22:51Z</time>
      </trkpt>
      <trkpt lat="41.978599" lon="2.529417">
        <ele>382.608</ele>
        <time>2021-05-27T06:22:53Z</time>
      </trkpt>
      <trkpt lat="41.978626" lon="2.529429">
        <ele>381.475</ele>
        <time>2021-05-27T06:22:55Z</time>
      </trkpt>
      <trkpt lat="41.978640" lon="2.529454">
        <ele>381.192</ele>
        <time>2021-05-27T06:22:57Z</time>
      </trkpt>
      <trkpt lat="41.978657" lon="2.529480">
        <ele>380.680</ele>
        <time>2021-05-27T06:22:59Z</time>
      </trkpt>
      <trkpt lat="41.978681" lon="2.529497">
        <ele>379.570</ele>
        <time>2021-05-27T06:23:01Z</time>
      </trkpt>
      <trkpt lat="41.978705" lon="2.529517">
        <ele>378.587</ele>
        <time>2021-05-27T06:23:03Z</time>
      </trkpt>
      <trkpt lat="41.978729" lon="2.529537">
        <ele>377.782</ele>
        <time>2021-05-27T06:23:05Z</time>
      </trkpt>
      <trkpt lat="41.978752" lon="2.529545">
        <ele>376.575</ele>
        <time>2021-05-27T06:23:07Z</time>
      </trkpt>
      <trkpt lat="41.978776" lon="2.529550">
        <ele>375.221</ele>
        <time>2021-05-27T06:23:09Z</time>
      </trkpt>
      <trkpt lat="41.978801" lon="2.529551">
        <ele>373.773</ele>
        <time>2021-05-27T06:23:12Z</time>
      </trkpt>
      <trkpt lat="41.978821" lon="2.529561">
        <ele>372.985</ele>
        <time>2021-05-27T06:23:14Z</time>
      </trkpt>
      <trkpt lat="41.978843" lon="2.529576">
        <ele>372.313</ele>
        <time>2021-05-27T06:23:17Z</time>
      </trkpt>
      <trkpt lat="41.978876" lon="2.529586">
        <ele>370.908</ele>
        <time>2021-05-27T06:23:20Z</time>
      </trkpt>
      <trkpt lat="41.978903" lon="2.529600">
        <ele>370.764</ele>
        <time>2021-05-27T06:23:22Z</time>
      </trkpt>
      <trkpt lat="41.978926" lon="2.529612">
        <ele>370.911</ele>
        <time>2021-05-27T06:23:24Z</time>
      </trkpt>
      <trkpt lat="41.978957" lon="2.529626">
        <ele>371.189</ele>
        <time>2021-05-27T06:23:26Z</time>
      </trkpt>
      <trkpt lat="41.978987" lon="2.529633">
        <ele>370.919</ele>
        <time>2021-05-27T06:23:28Z</time>
      </trkpt>
      <trkpt lat="41.979012" lon="2.529637">
        <ele>370.616</ele>
        <time>2021-05-27T06:23:30Z</time>
      </trkpt>
      <trkpt lat="41.979038" lon="2.529644">
        <ele>370.551</ele>
        <time>2021-05-27T06:23:32Z</time>
      </trkpt>
      <trkpt lat="41.979064" lon="2.529651">
        <ele>370.494</ele>
        <time>2021-05-27T06:23:34Z</time>
      </trkpt>
      <trkpt lat="41.979083" lon="2.529651">
        <ele>370.060</ele>
        <time>2021-05-27T06:23:36Z</time>
      </trkpt>
      <trkpt lat="41.979110" lon="2.529653">
        <ele>369.615</ele>
        <time>2021-05-27T06:23:39Z</time>
      </trkpt>
      <trkpt lat="41.979134" lon="2.529641">
        <ele>368.465</ele>
        <time>2021-05-27T06:23:42Z</time>
      </trkpt>
      <trkpt lat="41.979184" lon="2.529639">
        <ele>367.311</ele>
        <time>2021-05-27T06:23:46Z</time>
      </trkpt>
      <trkpt lat="41.979214" lon="2.529643">
        <ele>367.008</ele>
        <time>2021-05-27T06:23:48Z</time>
      </trkpt>
      <trkpt lat="41.979237" lon="2.529653">
        <ele>367.288</ele>
        <time>2021-05-27T06:23:50Z</time>
      </trkpt>
      <trkpt lat="41.979258" lon="2.529648">
        <ele>366.555</ele>
        <time>2021-05-27T06:23:52Z</time>
      </trkpt>
      <trkpt lat="41.979281" lon="2.529648">
        <ele>366.163</ele>
        <time>2021-05-27T06:23:54Z</time>
      </trkpt>
      <trkpt lat="41.979300" lon="2.529641">
        <ele>365.323</ele>
        <time>2021-05-27T06:23:56Z</time>
      </trkpt>
      <trkpt lat="41.979324" lon="2.529639">
        <ele>364.820</ele>
        <time>2021-05-27T06:23:58Z</time>
      </trkpt>
      <trkpt lat="41.979366" lon="2.529645">
        <ele>364.445</ele>
        <time>2021-05-27T06:24:01Z</time>
      </trkpt>
      <trkpt lat="41.979383" lon="2.529633">
        <ele>363.368</ele>
        <time>2021-05-27T06:24:03Z</time>
      </trkpt>
      <trkpt lat="41.979402" lon="2.529633">
        <ele>363.054</ele>
        <time>2021-05-27T06:24:11Z</time>
      </trkpt>
      <trkpt lat="41.979415" lon="2.529610">
        <ele>361.365</ele>
        <time>2021-05-27T06:24:14Z</time>
      </trkpt>
      <trkpt lat="41.979476" lon="2.529641">
        <ele>362.768</ele>
        <time>2021-05-27T06:24:23Z</time>
      </trkpt>
      <trkpt lat="41.979495" lon="2.529640">
        <ele>362.714</ele>
        <time>2021-05-27T06:24:25Z</time>
      </trkpt>
      <trkpt lat="41.979515" lon="2.529626">
        <ele>361.808</ele>
        <time>2021-05-27T06:24:27Z</time>
      </trkpt>
      <trkpt lat="41.979542" lon="2.529614">
        <ele>361.033</ele>
        <time>2021-05-27T06:24:30Z</time>
      </trkpt>
      <trkpt lat="41.979564" lon="2.529620">
        <ele>361.480</ele>
        <time>2021-05-27T06:24:32Z</time>
      </trkpt>
      <trkpt lat="41.979590" lon="2.529627">
        <ele>361.888</ele>
        <time>2021-05-27T06:24:34Z</time>
      </trkpt>
      <trkpt lat="41.979613" lon="2.529618">
        <ele>361.328</ele>
        <time>2021-05-27T06:24:36Z</time>
      </trkpt>
      <trkpt lat="41.979637" lon="2.529611">
        <ele>360.945</ele>
        <time>2021-05-27T06:24:38Z</time>
      </trkpt>
      <trkpt lat="41.979664" lon="2.529612">
        <ele>361.090</ele>
        <time>2021-05-27T06:24:40Z</time>
      </trkpt>
      <trkpt lat="41.979685" lon="2.529616">
        <ele>361.213</ele>
        <time>2021-05-27T06:24:42Z</time>
      </trkpt>
      <trkpt lat="41.979707" lon="2.529608">
        <ele>360.829</ele>
        <time>2021-05-27T06:24:44Z</time>
      </trkpt>
      <trkpt lat="41.979720" lon="2.529591">
        <ele>359.979</ele>
        <time>2021-05-27T06:24:46Z</time>
      </trkpt>
      <trkpt lat="41.979738" lon="2.529583">
        <ele>359.305</ele>
        <time>2021-05-27T06:24:52Z</time>
      </trkpt>
      <trkpt lat="41.979722" lon="2.529595">
        <ele>360.125</ele>
        <time>2021-05-27T06:26:43Z</time>
      </trkpt>
      <trkpt lat="41.979706" lon="2.529614">
        <ele>361.108</ele>
        <time>2021-05-27T06:26:50Z</time>
      </trkpt>
      <trkpt lat="41.979722" lon="2.529635">
        <ele>362.374</ele>
        <time>2021-05-27T06:27:03Z</time>
      </trkpt>
      <trkpt lat="41.979739" lon="2.529663">
        <ele>363.731</ele>
        <time>2021-05-27T06:27:05Z</time>
      </trkpt>
      <trkpt lat="41.979789" lon="2.529778">
        <ele>369.969</ele>
        <time>2021-05-27T06:27:12Z</time>
      </trkpt>
      <trkpt lat="41.979807" lon="2.529813">
        <ele>371.819</ele>
        <time>2021-05-27T06:27:14Z</time>
      </trkpt>
      <trkpt lat="41.979828" lon="2.529837">
        <ele>373.176</ele>
        <time>2021-05-27T06:27:16Z</time>
      </trkpt>
      <trkpt lat="41.979843" lon="2.529867">
        <ele>374.851</ele>
        <time>2021-05-27T06:27:18Z</time>
      </trkpt>
      <trkpt lat="41.979865" lon="2.529877">
        <ele>375.224</ele>
        <time>2021-05-27T06:27:20Z</time>
      </trkpt>
      <trkpt lat="41.979881" lon="2.529892">
        <ele>375.970</ele>
        <time>2021-05-27T06:27:22Z</time>
      </trkpt>
      <trkpt lat="41.979899" lon="2.529911">
        <ele>376.893</ele>
        <time>2021-05-27T06:27:24Z</time>
      </trkpt>
      <trkpt lat="41.979927" lon="2.529916">
        <ele>376.965</ele>
        <time>2021-05-27T06:27:26Z</time>
      </trkpt>
      <trkpt lat="41.980027" lon="2.529921">
        <ele>376.321</ele>
        <time>2021-05-27T06:27:33Z</time>
      </trkpt>
      <trkpt lat="41.980124" lon="2.529959">
        <ele>377.708</ele>
        <time>2021-05-27T06:27:43Z</time>
      </trkpt>
      <trkpt lat="41.980232" lon="2.529935">
        <ele>375.676</ele>
        <time>2021-05-27T06:27:49Z</time>
      </trkpt>
      <trkpt lat="41.980325" lon="2.529923">
        <ele>374.363</ele>
        <time>2021-05-27T06:27:56Z</time>
      </trkpt>
      <trkpt lat="41.980422" lon="2.529909">
        <ele>372.991</ele>
        <time>2021-05-27T06:28:03Z</time>
      </trkpt>
      <trkpt lat="41.980521" lon="2.529906">
        <ele>372.171</ele>
        <time>2021-05-27T06:28:10Z</time>
      </trkpt>
      <trkpt lat="41.980616" lon="2.529873">
        <ele>370.128</ele>
        <time>2021-05-27T06:28:16Z</time>
      </trkpt>
      <trkpt lat="41.980707" lon="2.529842">
        <ele>368.623</ele>
        <time>2021-05-27T06:28:23Z</time>
      </trkpt>
      <trkpt lat="41.980804" lon="2.529830">
        <ele>368.446</ele>
        <time>2021-05-27T06:28:30Z</time>
      </trkpt>
      <trkpt lat="41.980844" lon="2.529826">
        <ele>368.192</ele>
        <time>2021-05-27T06:28:33Z</time>
      </trkpt>
      <trkpt lat="41.980869" lon="2.529824">
        <ele>367.454</ele>
        <time>2021-05-27T06:28:35Z</time>
      </trkpt>
      <trkpt lat="41.980895" lon="2.529825">
        <ele>366.956</ele>
        <time>2021-05-27T06:28:37Z</time>
      </trkpt>
      <trkpt lat="41.980916" lon="2.529822">
        <ele>366.211</ele>
        <time>2021-05-27T06:28:39Z</time>
      </trkpt>
      <trkpt lat="41.980941" lon="2.529819">
        <ele>365.508</ele>
        <time>2021-05-27T06:28:41Z</time>
      </trkpt>
      <trkpt lat="41.980964" lon="2.529817">
        <ele>364.872</ele>
        <time>2021-05-27T06:28:43Z</time>
      </trkpt>
      <trkpt lat="41.980990" lon="2.529815">
        <ele>364.149</ele>
        <time>2021-05-27T06:28:45Z</time>
      </trkpt>
      <trkpt lat="41.981014" lon="2.529822">
        <ele>364.067</ele>
        <time>2021-05-27T06:28:47Z</time>
      </trkpt>
      <trkpt lat="41.981039" lon="2.529822">
        <ele>363.427</ele>
        <time>2021-05-27T06:28:49Z</time>
      </trkpt>
      <trkpt lat="41.981060" lon="2.529819">
        <ele>362.744</ele>
        <time>2021-05-27T06:28:51Z</time>
      </trkpt>
      <trkpt lat="41.981080" lon="2.529822">
        <ele>362.539</ele>
        <time>2021-05-27T06:28:53Z</time>
      </trkpt>
      <trkpt lat="41.981107" lon="2.529829">
        <ele>362.282</ele>
        <time>2021-05-27T06:28:55Z</time>
      </trkpt>
      <trkpt lat="41.981137" lon="2.529835">
        <ele>361.858</ele>
        <time>2021-05-27T06:28:57Z</time>
      </trkpt>
      <trkpt lat="41.981164" lon="2.529831">
        <ele>360.726</ele>
        <time>2021-05-27T06:28:59Z</time>
      </trkpt>
      <trkpt lat="41.981190" lon="2.529829">
        <ele>359.947</ele>
        <time>2021-05-27T06:29:01Z</time>
      </trkpt>
      <trkpt lat="41.981215" lon="2.529833">
        <ele>359.411</ele>
        <time>2021-05-27T06:29:03Z</time>
      </trkpt>
      <trkpt lat="41.981241" lon="2.529838">
        <ele>358.908</ele>
        <time>2021-05-27T06:29:05Z</time>
      </trkpt>
      <trkpt lat="41.981269" lon="2.529842">
        <ele>358.439</ele>
        <time>2021-05-27T06:29:07Z</time>
      </trkpt>
      <trkpt lat="41.981296" lon="2.529848">
        <ele>357.976</ele>
        <time>2021-05-27T06:29:09Z</time>
      </trkpt>
      <trkpt lat="41.981323" lon="2.529850">
        <ele>357.384</ele>
        <time>2021-05-27T06:29:11Z</time>
      </trkpt>
      <trkpt lat="41.981349" lon="2.529851">
        <ele>356.694</ele>
        <time>2021-05-27T06:29:13Z</time>
      </trkpt>
      <trkpt lat="41.981383" lon="2.529852">
        <ele>355.651</ele>
        <time>2021-05-27T06:29:15Z</time>
      </trkpt>
      <trkpt lat="41.981415" lon="2.529855">
        <ele>355.196</ele>
        <time>2021-05-27T06:29:17Z</time>
      </trkpt>
      <trkpt lat="41.981447" lon="2.529863">
        <ele>354.929</ele>
        <time>2021-05-27T06:29:19Z</time>
      </trkpt>
      <trkpt lat="41.981475" lon="2.529872">
        <ele>354.795</ele>
        <time>2021-05-27T06:29:21Z</time>
      </trkpt>
      <trkpt lat="41.981500" lon="2.529880">
        <ele>354.618</ele>
        <time>2021-05-27T06:29:23Z</time>
      </trkpt>
      <trkpt lat="41.981524" lon="2.529887">
        <ele>354.598</ele>
        <time>2021-05-27T06:29:25Z</time>
      </trkpt>
      <trkpt lat="41.981547" lon="2.529900">
        <ele>354.717</ele>
        <time>2021-05-27T06:29:27Z</time>
      </trkpt>
      <trkpt lat="41.981572" lon="2.529913">
        <ele>354.808</ele>
        <time>2021-05-27T06:29:29Z</time>
      </trkpt>
      <trkpt lat="41.981595" lon="2.529928">
        <ele>355.038</ele>
        <time>2021-05-27T06:29:31Z</time>
      </trkpt>
      <trkpt lat="41.981625" lon="2.529928">
        <ele>354.345</ele>
        <time>2021-05-27T06:29:33Z</time>
      </trkpt>
      <trkpt lat="41.981650" lon="2.529950">
        <ele>354.933</ele>
        <time>2021-05-27T06:29:35Z</time>
      </trkpt>
      <trkpt lat="41.981678" lon="2.529967">
        <ele>354.953</ele>
        <time>2021-05-27T06:29:37Z</time>
      </trkpt>
      <trkpt lat="41.981709" lon="2.529981">
        <ele>354.560</ele>
        <time>2021-05-27T06:29:39Z</time>
      </trkpt>
      <trkpt lat="41.981736" lon="2.529991">
        <ele>354.165</ele>
        <time>2021-05-27T06:29:41Z</time>
      </trkpt>
      <trkpt lat="41.981758" lon="2.530004">
        <ele>353.978</ele>
        <time>2021-05-27T06:29:43Z</time>
      </trkpt>
      <trkpt lat="41.981777" lon="2.530022">
        <ele>354.124</ele>
        <time>2021-05-27T06:29:45Z</time>
      </trkpt>
      <trkpt lat="41.981803" lon="2.530040">
        <ele>354.048</ele>
        <time>2021-05-27T06:29:48Z</time>
      </trkpt>
      <trkpt lat="41.981829" lon="2.530062">
        <ele>354.161</ele>
        <time>2021-05-27T06:29:49Z</time>
      </trkpt>
      <trkpt lat="41.981852" lon="2.530080">
        <ele>354.217</ele>
        <time>2021-05-27T06:29:51Z</time>
      </trkpt>
      <trkpt lat="41.981875" lon="2.530096">
        <ele>354.108</ele>
        <time>2021-05-27T06:29:53Z</time>
      </trkpt>
      <trkpt lat="41.981897" lon="2.530115">
        <ele>354.211</ele>
        <time>2021-05-27T06:29:55Z</time>
      </trkpt>
      <trkpt lat="41.981919" lon="2.530138">
        <ele>354.418</ele>
        <time>2021-05-27T06:29:57Z</time>
      </trkpt>
      <trkpt lat="41.981939" lon="2.530161">
        <ele>354.756</ele>
        <time>2021-05-27T06:29:59Z</time>
      </trkpt>
      <trkpt lat="41.981957" lon="2.530181">
        <ele>354.866</ele>
        <time>2021-05-27T06:30:01Z</time>
      </trkpt>
      <trkpt lat="41.981976" lon="2.530204">
        <ele>354.913</ele>
        <time>2021-05-27T06:30:03Z</time>
      </trkpt>
      <trkpt lat="41.981992" lon="2.530228">
        <ele>355.298</ele>
        <time>2021-05-27T06:30:05Z</time>
      </trkpt>
      <trkpt lat="41.982016" lon="2.530246">
        <ele>354.791</ele>
        <time>2021-05-27T06:30:07Z</time>
      </trkpt>
      <trkpt lat="41.982041" lon="2.530264">
        <ele>354.297</ele>
        <time>2021-05-27T06:30:09Z</time>
      </trkpt>
      <trkpt lat="41.982057" lon="2.530291">
        <ele>354.422</ele>
        <time>2021-05-27T06:30:11Z</time>
      </trkpt>
      <trkpt lat="41.982076" lon="2.530314">
        <ele>354.262</ele>
        <time>2021-05-27T06:30:13Z</time>
      </trkpt>
      <trkpt lat="41.982098" lon="2.530334">
        <ele>353.608</ele>
        <time>2021-05-27T06:30:15Z</time>
      </trkpt>
      <trkpt lat="41.982116" lon="2.530357">
        <ele>353.308</ele>
        <time>2021-05-27T06:30:17Z</time>
      </trkpt>
      <trkpt lat="41.982134" lon="2.530381">
        <ele>352.959</ele>
        <time>2021-05-27T06:30:19Z</time>
      </trkpt>
      <trkpt lat="41.982152" lon="2.530406">
        <ele>352.526</ele>
        <time>2021-05-27T06:30:21Z</time>
      </trkpt>
      <trkpt lat="41.982164" lon="2.530435">
        <ele>352.574</ele>
        <time>2021-05-27T06:30:23Z</time>
      </trkpt>
      <trkpt lat="41.982181" lon="2.530464">
        <ele>352.024</ele>
        <time>2021-05-27T06:30:25Z</time>
      </trkpt>
      <trkpt lat="41.982195" lon="2.530492">
        <ele>351.771</ele>
        <time>2021-05-27T06:30:27Z</time>
      </trkpt>
      <trkpt lat="41.982206" lon="2.530521">
        <ele>351.526</ele>
        <time>2021-05-27T06:30:29Z</time>
      </trkpt>
      <trkpt lat="41.982214" lon="2.530550">
        <ele>351.649</ele>
        <time>2021-05-27T06:30:31Z</time>
      </trkpt>
      <trkpt lat="41.982224" lon="2.530581">
        <ele>351.535</ele>
        <time>2021-05-27T06:30:33Z</time>
      </trkpt>
      <trkpt lat="41.982237" lon="2.530611">
        <ele>351.453</ele>
        <time>2021-05-27T06:30:35Z</time>
      </trkpt>
      <trkpt lat="41.982245" lon="2.530647">
        <ele>351.704</ele>
        <time>2021-05-27T06:30:37Z</time>
      </trkpt>
      <trkpt lat="41.982257" lon="2.530681">
        <ele>351.614</ele>
        <time>2021-05-27T06:30:39Z</time>
      </trkpt>
      <trkpt lat="41.982266" lon="2.530714">
        <ele>351.708</ele>
        <time>2021-05-27T06:30:41Z</time>
      </trkpt>
      <trkpt lat="41.982274" lon="2.530743">
        <ele>351.872</ele>
        <time>2021-05-27T06:30:43Z</time>
      </trkpt>
      <trkpt lat="41.982285" lon="2.530774">
        <ele>351.759</ele>
        <time>2021-05-27T06:30:45Z</time>
      </trkpt>
      <trkpt lat="41.982294" lon="2.530806">
        <ele>351.777</ele>
        <time>2021-05-27T06:30:47Z</time>
      </trkpt>
      <trkpt lat="41.982297" lon="2.530839">
        <ele>352.167</ele>
        <time>2021-05-27T06:30:49Z</time>
      </trkpt>
      <trkpt lat="41.982303" lon="2.530874">
        <ele>352.184</ele>
        <time>2021-05-27T06:30:51Z</time>
      </trkpt>
      <trkpt lat="41.982309" lon="2.530909">
        <ele>352.199</ele>
        <time>2021-05-27T06:30:53Z</time>
      </trkpt>
      <trkpt lat="41.982313" lon="2.530940">
        <ele>352.242</ele>
        <time>2021-05-27T06:30:55Z</time>
      </trkpt>
      <trkpt lat="41.982321" lon="2.530972">
        <ele>352.028</ele>
        <time>2021-05-27T06:30:57Z</time>
      </trkpt>
      <trkpt lat="41.982328" lon="2.531007">
        <ele>352.053</ele>
        <time>2021-05-27T06:30:59Z</time>
      </trkpt>
      <trkpt lat="41.982333" lon="2.531046">
        <ele>352.104</ele>
        <time>2021-05-27T06:31:01Z</time>
      </trkpt>
      <trkpt lat="41.982339" lon="2.531081">
        <ele>352.214</ele>
        <time>2021-05-27T06:31:04Z</time>
      </trkpt>
      <trkpt lat="41.982344" lon="2.531115">
        <ele>352.308</ele>
        <time>2021-05-27T06:31:05Z</time>
      </trkpt>
      <trkpt lat="41.982352" lon="2.531152">
        <ele>352.542</ele>
        <time>2021-05-27T06:31:07Z</time>
      </trkpt>
      <trkpt lat="41.982357" lon="2.531190">
        <ele>352.949</ele>
        <time>2021-05-27T06:31:09Z</time>
      </trkpt>
      <trkpt lat="41.982365" lon="2.531228">
        <ele>353.027</ele>
        <time>2021-05-27T06:31:11Z</time>
      </trkpt>
      <trkpt lat="41.982373" lon="2.531263">
        <ele>353.097</ele>
        <time>2021-05-27T06:31:13Z</time>
      </trkpt>
      <trkpt lat="41.982381" lon="2.531297">
        <ele>353.054</ele>
        <time>2021-05-27T06:31:15Z</time>
      </trkpt>
      <trkpt lat="41.982390" lon="2.531334">
        <ele>352.929</ele>
        <time>2021-05-27T06:31:17Z</time>
      </trkpt>
      <trkpt lat="41.982397" lon="2.531365">
        <ele>352.912</ele>
        <time>2021-05-27T06:31:19Z</time>
      </trkpt>
      <trkpt lat="41.982402" lon="2.531393">
        <ele>352.868</ele>
        <time>2021-05-27T06:31:25Z</time>
      </trkpt>
      <trkpt lat="41.982403" lon="2.531422">
        <ele>352.947</ele>
        <time>2021-05-27T06:31:26Z</time>
      </trkpt>
      <trkpt lat="41.982405" lon="2.531456">
        <ele>352.929</ele>
        <time>2021-05-27T06:31:29Z</time>
      </trkpt>
      <trkpt lat="41.982410" lon="2.531489">
        <ele>352.621</ele>
        <time>2021-05-27T06:31:30Z</time>
      </trkpt>
      <trkpt lat="41.982415" lon="2.531520">
        <ele>352.308</ele>
        <time>2021-05-27T06:31:32Z</time>
      </trkpt>
      <trkpt lat="41.982421" lon="2.531556">
        <ele>351.971</ele>
        <time>2021-05-27T06:31:34Z</time>
      </trkpt>
      <trkpt lat="41.982429" lon="2.531585">
        <ele>351.368</ele>
        <time>2021-05-27T06:31:36Z</time>
      </trkpt>
      <trkpt lat="41.982435" lon="2.531618">
        <ele>350.966</ele>
        <time>2021-05-27T06:31:38Z</time>
      </trkpt>
      <trkpt lat="41.982442" lon="2.531651">
        <ele>350.486</ele>
        <time>2021-05-27T06:31:40Z</time>
      </trkpt>
      <trkpt lat="41.982452" lon="2.531680">
        <ele>349.683</ele>
        <time>2021-05-27T06:31:42Z</time>
      </trkpt>
      <trkpt lat="41.982464" lon="2.531710">
        <ele>348.618</ele>
        <time>2021-05-27T06:31:44Z</time>
      </trkpt>
      <trkpt lat="41.982473" lon="2.531741">
        <ele>347.831</ele>
        <time>2021-05-27T06:31:46Z</time>
      </trkpt>
      <trkpt lat="41.982483" lon="2.531770">
        <ele>347.087</ele>
        <time>2021-05-27T06:31:48Z</time>
      </trkpt>
      <trkpt lat="41.982489" lon="2.531800">
        <ele>346.544</ele>
        <time>2021-05-27T06:31:50Z</time>
      </trkpt>
      <trkpt lat="41.982504" lon="2.531824">
        <ele>345.305</ele>
        <time>2021-05-27T06:31:52Z</time>
      </trkpt>
      <trkpt lat="41.982518" lon="2.531851">
        <ele>344.715</ele>
        <time>2021-05-27T06:31:54Z</time>
      </trkpt>
      <trkpt lat="41.982531" lon="2.531877">
        <ele>344.108</ele>
        <time>2021-05-27T06:31:56Z</time>
      </trkpt>
      <trkpt lat="41.982541" lon="2.531908">
        <ele>343.661</ele>
        <time>2021-05-27T06:31:58Z</time>
      </trkpt>
      <trkpt lat="41.982546" lon="2.531941">
        <ele>343.528</ele>
        <time>2021-05-27T06:32:00Z</time>
      </trkpt>
      <trkpt lat="41.982551" lon="2.531975">
        <ele>344.036</ele>
        <time>2021-05-27T06:32:02Z</time>
      </trkpt>
      <trkpt lat="41.982554" lon="2.532000">
        <ele>344.596</ele>
        <time>2021-05-27T06:32:04Z</time>
      </trkpt>
      <trkpt lat="41.982565" lon="2.532020">
        <ele>344.383</ele>
        <time>2021-05-27T06:32:06Z</time>
      </trkpt>
      <trkpt lat="41.982583" lon="2.532045">
        <ele>343.938</ele>
        <time>2021-05-27T06:32:08Z</time>
      </trkpt>
      <trkpt lat="41.982599" lon="2.532068">
        <ele>343.461</ele>
        <time>2021-05-27T06:32:10Z</time>
      </trkpt>
      <trkpt lat="41.982608" lon="2.532096">
        <ele>343.597</ele>
        <time>2021-05-27T06:32:12Z</time>
      </trkpt>
      <trkpt lat="41.982624" lon="2.532123">
        <ele>343.033</ele>
        <time>2021-05-27T06:32:14Z</time>
      </trkpt>
      <trkpt lat="41.982636" lon="2.532151">
        <ele>342.823</ele>
        <time>2021-05-27T06:32:16Z</time>
      </trkpt>
      <trkpt lat="41.982647" lon="2.532178">
        <ele>342.615</ele>
        <time>2021-05-27T06:32:18Z</time>
      </trkpt>
      <trkpt lat="41.982658" lon="2.532205">
        <ele>342.308</ele>
        <time>2021-05-27T06:32:20Z</time>
      </trkpt>
      <trkpt lat="41.982669" lon="2.532229">
        <ele>342.060</ele>
        <time>2021-05-27T06:32:22Z</time>
      </trkpt>
      <trkpt lat="41.982683" lon="2.532251">
        <ele>341.467</ele>
        <time>2021-05-27T06:32:24Z</time>
      </trkpt>
      <trkpt lat="41.982693" lon="2.532275">
        <ele>341.235</ele>
        <time>2021-05-27T06:32:26Z</time>
      </trkpt>
      <trkpt lat="41.982706" lon="2.532296">
        <ele>340.855</ele>
        <time>2021-05-27T06:32:28Z</time>
      </trkpt>
      <trkpt lat="41.982720" lon="2.532323">
        <ele>340.352</ele>
        <time>2021-05-27T06:32:30Z</time>
      </trkpt>
      <trkpt lat="41.982735" lon="2.532346">
        <ele>339.847</ele>
        <time>2021-05-27T06:32:32Z</time>
      </trkpt>
      <trkpt lat="41.982749" lon="2.532367">
        <ele>339.250</ele>
        <time>2021-05-27T06:32:34Z</time>
      </trkpt>
      <trkpt lat="41.982766" lon="2.532392">
        <ele>338.516</ele>
        <time>2021-05-27T06:32:36Z</time>
      </trkpt>
      <trkpt lat="41.982777" lon="2.532421">
        <ele>338.465</ele>
        <time>2021-05-27T06:32:39Z</time>
      </trkpt>
      <trkpt lat="41.982789" lon="2.532452">
        <ele>338.368</ele>
        <time>2021-05-27T06:32:40Z</time>
      </trkpt>
      <trkpt lat="41.982801" lon="2.532476">
        <ele>338.114</ele>
        <time>2021-05-27T06:32:44Z</time>
      </trkpt>
      <trkpt lat="41.982812" lon="2.532505">
        <ele>337.908</ele>
        <time>2021-05-27T06:32:46Z</time>
      </trkpt>
      <trkpt lat="41.982825" lon="2.532532">
        <ele>337.313</ele>
        <time>2021-05-27T06:32:48Z</time>
      </trkpt>
      <trkpt lat="41.982839" lon="2.532559">
        <ele>336.680</ele>
        <time>2021-05-27T06:32:50Z</time>
      </trkpt>
      <trkpt lat="41.982856" lon="2.532585">
        <ele>335.748</ele>
        <time>2021-05-27T06:32:52Z</time>
      </trkpt>
      <trkpt lat="41.982872" lon="2.532618">
        <ele>334.958</ele>
        <time>2021-05-27T06:32:54Z</time>
      </trkpt>
      <trkpt lat="41.982882" lon="2.532653">
        <ele>334.555</ele>
        <time>2021-05-27T06:32:56Z</time>
      </trkpt>
      <trkpt lat="41.982894" lon="2.532690">
        <ele>334.020</ele>
        <time>2021-05-27T06:32:58Z</time>
      </trkpt>
      <trkpt lat="41.982908" lon="2.532720">
        <ele>333.243</ele>
        <time>2021-05-27T06:33:00Z</time>
      </trkpt>
      <trkpt lat="41.982919" lon="2.532748">
        <ele>332.779</ele>
        <time>2021-05-27T06:33:02Z</time>
      </trkpt>
      <trkpt lat="41.982930" lon="2.532779">
        <ele>332.166</ele>
        <time>2021-05-27T06:33:04Z</time>
      </trkpt>
      <trkpt lat="41.982943" lon="2.532809">
        <ele>331.629</ele>
        <time>2021-05-27T06:33:06Z</time>
      </trkpt>
      <trkpt lat="41.982955" lon="2.532839">
        <ele>331.121</ele>
        <time>2021-05-27T06:33:08Z</time>
      </trkpt>
      <trkpt lat="41.982965" lon="2.532871">
        <ele>330.608</ele>
        <time>2021-05-27T06:33:10Z</time>
      </trkpt>
      <trkpt lat="41.982982" lon="2.532902">
        <ele>329.753</ele>
        <time>2021-05-27T06:33:12Z</time>
      </trkpt>
      <trkpt lat="41.982998" lon="2.532927">
        <ele>328.770</ele>
        <time>2021-05-27T06:33:14Z</time>
      </trkpt>
      <trkpt lat="41.983010" lon="2.532955">
        <ele>328.078</ele>
        <time>2021-05-27T06:33:16Z</time>
      </trkpt>
      <trkpt lat="41.983019" lon="2.532984">
        <ele>327.558</ele>
        <time>2021-05-27T06:33:18Z</time>
      </trkpt>
      <trkpt lat="41.983025" lon="2.533014">
        <ele>327.225</ele>
        <time>2021-05-27T06:33:20Z</time>
      </trkpt>
      <trkpt lat="41.983033" lon="2.533043">
        <ele>326.780</ele>
        <time>2021-05-27T06:33:22Z</time>
      </trkpt>
      <trkpt lat="41.983038" lon="2.533071">
        <ele>326.463</ele>
        <time>2021-05-27T06:33:24Z</time>
      </trkpt>
      <trkpt lat="41.983043" lon="2.533103">
        <ele>326.099</ele>
        <time>2021-05-27T06:33:26Z</time>
      </trkpt>
      <trkpt lat="41.983043" lon="2.533133">
        <ele>326.061</ele>
        <time>2021-05-27T06:33:28Z</time>
      </trkpt>
      <trkpt lat="41.983040" lon="2.533164">
        <ele>326.221</ele>
        <time>2021-05-27T06:33:30Z</time>
      </trkpt>
      <trkpt lat="41.983035" lon="2.533195">
        <ele>326.613</ele>
        <time>2021-05-27T06:33:32Z</time>
      </trkpt>
      <trkpt lat="41.983025" lon="2.533222">
        <ele>327.308</ele>
        <time>2021-05-27T06:33:34Z</time>
      </trkpt>
      <trkpt lat="41.983015" lon="2.533251">
        <ele>328.033</ele>
        <time>2021-05-27T06:33:36Z</time>
      </trkpt>
      <trkpt lat="41.983004" lon="2.533278">
        <ele>328.870</ele>
        <time>2021-05-27T06:33:38Z</time>
      </trkpt>
      <trkpt lat="41.982988" lon="2.533303">
        <ele>329.968</ele>
        <time>2021-05-27T06:33:40Z</time>
      </trkpt>
      <trkpt lat="41.982973" lon="2.533329">
        <ele>331.058</ele>
        <time>2021-05-27T06:33:42Z</time>
      </trkpt>
      <trkpt lat="41.982958" lon="2.533354">
        <ele>331.615</ele>
        <time>2021-05-27T06:33:44Z</time>
      </trkpt>
      <trkpt lat="41.982944" lon="2.533383">
        <ele>332.020</ele>
        <time>2021-05-27T06:33:46Z</time>
      </trkpt>
      <trkpt lat="41.982931" lon="2.533411">
        <ele>332.363</ele>
        <time>2021-05-27T06:33:48Z</time>
      </trkpt>
      <trkpt lat="41.982919" lon="2.533440">
        <ele>332.529</ele>
        <time>2021-05-27T06:33:50Z</time>
      </trkpt>
      <trkpt lat="41.982905" lon="2.533467">
        <ele>332.961</ele>
        <time>2021-05-27T06:33:52Z</time>
      </trkpt>
      <trkpt lat="41.982889" lon="2.533494">
        <ele>333.321</ele>
        <time>2021-05-27T06:33:54Z</time>
      </trkpt>
      <trkpt lat="41.982872" lon="2.533516">
        <ele>333.813</ele>
        <time>2021-05-27T06:33:56Z</time>
      </trkpt>
      <trkpt lat="41.982855" lon="2.533542">
        <ele>334.308</ele>
        <time>2021-05-27T06:33:58Z</time>
      </trkpt>
      <trkpt lat="41.982838" lon="2.533567">
        <ele>334.733</ele>
        <time>2021-05-27T06:34:00Z</time>
      </trkpt>
      <trkpt lat="41.982824" lon="2.533594">
        <ele>334.890</ele>
        <time>2021-05-27T06:34:02Z</time>
      </trkpt>
      <trkpt lat="41.982806" lon="2.533618">
        <ele>335.268</ele>
        <time>2021-05-27T06:34:04Z</time>
      </trkpt>
      <trkpt lat="41.982787" lon="2.533639">
        <ele>335.758</ele>
        <time>2021-05-27T06:34:06Z</time>
      </trkpt>
      <trkpt lat="41.982767" lon="2.533659">
        <ele>336.375</ele>
        <time>2021-05-27T06:34:08Z</time>
      </trkpt>
      <trkpt lat="41.982751" lon="2.533678">
        <ele>336.740</ele>
        <time>2021-05-27T06:34:10Z</time>
      </trkpt>
      <trkpt lat="41.982736" lon="2.533698">
        <ele>337.083</ele>
        <time>2021-05-27T06:34:12Z</time>
      </trkpt>
      <trkpt lat="41.982717" lon="2.533718">
        <ele>337.729</ele>
        <time>2021-05-27T06:34:14Z</time>
      </trkpt>
      <trkpt lat="41.982702" lon="2.533736">
        <ele>338.174</ele>
        <time>2021-05-27T06:34:16Z</time>
      </trkpt>
      <trkpt lat="41.982688" lon="2.533755">
        <ele>338.556</ele>
        <time>2021-05-27T06:34:18Z</time>
      </trkpt>
      <trkpt lat="41.982670" lon="2.533778">
        <ele>339.121</ele>
        <time>2021-05-27T06:34:20Z</time>
      </trkpt>
      <trkpt lat="41.982651" lon="2.533802">
        <ele>339.708</ele>
        <time>2021-05-27T06:34:22Z</time>
      </trkpt>
      <trkpt lat="41.982632" lon="2.533828">
        <ele>340.424</ele>
        <time>2021-05-27T06:34:24Z</time>
      </trkpt>
      <trkpt lat="41.982620" lon="2.533856">
        <ele>340.561</ele>
        <time>2021-05-27T06:34:26Z</time>
      </trkpt>
      <trkpt lat="41.982608" lon="2.533890">
        <ele>340.629</ele>
        <time>2021-05-27T06:34:28Z</time>
      </trkpt>
      <trkpt lat="41.982600" lon="2.533921">
        <ele>341.639</ele>
        <time>2021-05-27T06:34:30Z</time>
      </trkpt>
      <trkpt lat="41.982602" lon="2.533950">
        <ele>341.996</ele>
        <time>2021-05-27T06:34:32Z</time>
      </trkpt>
      <trkpt lat="41.982606" lon="2.533982">
        <ele>342.031</ele>
        <time>2021-05-27T06:34:34Z</time>
      </trkpt>
      <trkpt lat="41.982610" lon="2.534022">
        <ele>342.314</ele>
        <time>2021-05-27T06:34:36Z</time>
      </trkpt>
      <trkpt lat="41.982620" lon="2.534061">
        <ele>342.190</ele>
        <time>2021-05-27T06:34:38Z</time>
      </trkpt>
      <trkpt lat="41.982634" lon="2.534090">
        <ele>341.414</ele>
        <time>2021-05-27T06:34:40Z</time>
      </trkpt>
      <trkpt lat="41.982654" lon="2.534111">
        <ele>340.154</ele>
        <time>2021-05-27T06:34:42Z</time>
      </trkpt>
      <trkpt lat="41.982674" lon="2.534138">
        <ele>338.909</ele>
        <time>2021-05-27T06:34:44Z</time>
      </trkpt>
      <trkpt lat="41.982694" lon="2.534167">
        <ele>337.608</ele>
        <time>2021-05-27T06:34:46Z</time>
      </trkpt>
      <trkpt lat="41.982713" lon="2.534192">
        <ele>336.328</ele>
        <time>2021-05-27T06:34:48Z</time>
      </trkpt>
      <trkpt lat="41.982722" lon="2.534226">
        <ele>335.875</ele>
        <time>2021-05-27T06:34:50Z</time>
      </trkpt>
      <trkpt lat="41.982732" lon="2.534259">
        <ele>335.163</ele>
        <time>2021-05-27T06:34:52Z</time>
      </trkpt>
      <trkpt lat="41.982734" lon="2.534296">
        <ele>335.213</ele>
        <time>2021-05-27T06:34:54Z</time>
      </trkpt>
      <trkpt lat="41.982750" lon="2.534317">
        <ele>333.910</ele>
        <time>2021-05-27T06:34:56Z</time>
      </trkpt>
      <trkpt lat="41.982774" lon="2.534337">
        <ele>331.995</ele>
        <time>2021-05-27T06:34:59Z</time>
      </trkpt>
      <trkpt lat="41.982790" lon="2.534366">
        <ele>331.138</ele>
        <time>2021-05-27T06:35:00Z</time>
      </trkpt>
      <trkpt lat="41.982810" lon="2.534383">
        <ele>330.244</ele>
        <time>2021-05-27T06:35:02Z</time>
      </trkpt>
      <trkpt lat="41.982832" lon="2.534406">
        <ele>329.189</ele>
        <time>2021-05-27T06:35:04Z</time>
      </trkpt>
      <trkpt lat="41.982851" lon="2.534426">
        <ele>328.206</ele>
        <time>2021-05-27T06:35:06Z</time>
      </trkpt>
      <trkpt lat="41.982875" lon="2.534444">
        <ele>327.126</ele>
        <time>2021-05-27T06:35:08Z</time>
      </trkpt>
      <trkpt lat="41.982900" lon="2.534459">
        <ele>325.908</ele>
        <time>2021-05-27T06:35:10Z</time>
      </trkpt>
      <trkpt lat="41.982922" lon="2.534473">
        <ele>324.875</ele>
        <time>2021-05-27T06:35:12Z</time>
      </trkpt>
      <trkpt lat="41.982946" lon="2.534491">
        <ele>323.732</ele>
        <time>2021-05-27T06:35:14Z</time>
      </trkpt>
      <trkpt lat="41.982978" lon="2.534503">
        <ele>322.170</ele>
        <time>2021-05-27T06:35:16Z</time>
      </trkpt>
      <trkpt lat="41.982996" lon="2.534529">
        <ele>321.350</ele>
        <time>2021-05-27T06:35:18Z</time>
      </trkpt>
      <trkpt lat="41.983018" lon="2.534548">
        <ele>320.317</ele>
        <time>2021-05-27T06:35:20Z</time>
      </trkpt>
      <trkpt lat="41.983041" lon="2.534562">
        <ele>319.252</ele>
        <time>2021-05-27T06:35:22Z</time>
      </trkpt>
      <trkpt lat="41.983060" lon="2.534587">
        <ele>318.365</ele>
        <time>2021-05-27T06:35:24Z</time>
      </trkpt>
      <trkpt lat="41.983079" lon="2.534608">
        <ele>317.361</ele>
        <time>2021-05-27T06:35:26Z</time>
      </trkpt>
      <trkpt lat="41.983098" lon="2.534628">
        <ele>316.364</ele>
        <time>2021-05-27T06:35:28Z</time>
      </trkpt>
      <trkpt lat="41.983112" lon="2.534651">
        <ele>315.506</ele>
        <time>2021-05-27T06:35:30Z</time>
      </trkpt>
      <trkpt lat="41.983123" lon="2.534681">
        <ele>315.016</ele>
        <time>2021-05-27T06:35:32Z</time>
      </trkpt>
      <trkpt lat="41.983135" lon="2.534713">
        <ele>314.408</ele>
        <time>2021-05-27T06:35:34Z</time>
      </trkpt>
      <trkpt lat="41.983146" lon="2.534742">
        <ele>313.893</ele>
        <time>2021-05-27T06:35:36Z</time>
      </trkpt>
      <trkpt lat="41.983154" lon="2.534771">
        <ele>313.380</ele>
        <time>2021-05-27T06:35:38Z</time>
      </trkpt>
      <trkpt lat="41.983162" lon="2.534802">
        <ele>312.948</ele>
        <time>2021-05-27T06:35:40Z</time>
      </trkpt>
      <trkpt lat="41.983163" lon="2.534834">
        <ele>312.948</ele>
        <time>2021-05-27T06:35:42Z</time>
      </trkpt>
      <trkpt lat="41.983156" lon="2.534867">
        <ele>313.365</ele>
        <time>2021-05-27T06:35:44Z</time>
      </trkpt>
      <trkpt lat="41.983147" lon="2.534899">
        <ele>313.760</ele>
        <time>2021-05-27T06:35:46Z</time>
      </trkpt>
      <trkpt lat="41.983134" lon="2.534928">
        <ele>314.413</ele>
        <time>2021-05-27T06:35:48Z</time>
      </trkpt>
      <trkpt lat="41.983119" lon="2.534953">
        <ele>315.169</ele>
        <time>2021-05-27T06:35:50Z</time>
      </trkpt>
      <trkpt lat="41.983103" lon="2.534980">
        <ele>315.838</ele>
        <time>2021-05-27T06:35:52Z</time>
      </trkpt>
      <trkpt lat="41.983088" lon="2.535009">
        <ele>316.470</ele>
        <time>2021-05-27T06:35:54Z</time>
      </trkpt>
      <trkpt lat="41.983074" lon="2.535038">
        <ele>316.717</ele>
        <time>2021-05-27T06:35:56Z</time>
      </trkpt>
      <trkpt lat="41.983057" lon="2.535065">
        <ele>317.208</ele>
        <time>2021-05-27T06:35:58Z</time>
      </trkpt>
      <trkpt lat="41.983040" lon="2.535094">
        <ele>317.820</ele>
        <time>2021-05-27T06:36:00Z</time>
      </trkpt>
      <trkpt lat="41.983024" lon="2.535122">
        <ele>318.377</ele>
        <time>2021-05-27T06:36:02Z</time>
      </trkpt>
      <trkpt lat="41.983005" lon="2.535149">
        <ele>318.955</ele>
        <time>2021-05-27T06:36:04Z</time>
      </trkpt>
      <trkpt lat="41.982985" lon="2.535174">
        <ele>319.675</ele>
        <time>2021-05-27T06:36:06Z</time>
      </trkpt>
      <trkpt lat="41.982965" lon="2.535201">
        <ele>320.292</ele>
        <time>2021-05-27T06:36:08Z</time>
      </trkpt>
      <trkpt lat="41.982948" lon="2.535227">
        <ele>320.797</ele>
        <time>2021-05-27T06:36:10Z</time>
      </trkpt>
      <trkpt lat="41.982933" lon="2.535256">
        <ele>321.080</ele>
        <time>2021-05-27T06:36:12Z</time>
      </trkpt>
      <trkpt lat="41.982916" lon="2.535285">
        <ele>321.586</ele>
        <time>2021-05-27T06:36:14Z</time>
      </trkpt>
      <trkpt lat="41.982897" lon="2.535313">
        <ele>322.196</ele>
        <time>2021-05-27T06:36:16Z</time>
      </trkpt>
      <trkpt lat="41.982879" lon="2.535340">
        <ele>322.731</ele>
        <time>2021-05-27T06:36:18Z</time>
      </trkpt>
      <trkpt lat="41.982859" lon="2.535365">
        <ele>323.424</ele>
        <time>2021-05-27T06:36:20Z</time>
      </trkpt>
      <trkpt lat="41.982841" lon="2.535392">
        <ele>324.008</ele>
        <time>2021-05-27T06:36:22Z</time>
      </trkpt>
      <trkpt lat="41.982826" lon="2.535420">
        <ele>324.546</ele>
        <time>2021-05-27T06:36:24Z</time>
      </trkpt>
      <trkpt lat="41.982812" lon="2.535452">
        <ele>325.053</ele>
        <time>2021-05-27T06:36:26Z</time>
      </trkpt>
      <trkpt lat="41.982799" lon="2.535484">
        <ele>325.461</ele>
        <time>2021-05-27T06:36:28Z</time>
      </trkpt>
      <trkpt lat="41.982788" lon="2.535516">
        <ele>325.791</ele>
        <time>2021-05-27T06:36:30Z</time>
      </trkpt>
      <trkpt lat="41.982780" lon="2.535551">
        <ele>325.938</ele>
        <time>2021-05-27T06:36:32Z</time>
      </trkpt>
      <trkpt lat="41.982772" lon="2.535584">
        <ele>325.813</ele>
        <time>2021-05-27T06:36:34Z</time>
      </trkpt>
      <trkpt lat="41.982765" lon="2.535620">
        <ele>325.646</ele>
        <time>2021-05-27T06:36:36Z</time>
      </trkpt>
      <trkpt lat="41.982762" lon="2.535655">
        <ele>325.082</ele>
        <time>2021-05-27T06:36:38Z</time>
      </trkpt>
      <trkpt lat="41.982761" lon="2.535692">
        <ele>324.345</ele>
        <time>2021-05-27T06:36:40Z</time>
      </trkpt>
      <trkpt lat="41.982760" lon="2.535728">
        <ele>323.647</ele>
        <time>2021-05-27T06:36:42Z</time>
      </trkpt>
      <trkpt lat="41.982756" lon="2.535761">
        <ele>323.211</ele>
        <time>2021-05-27T06:36:44Z</time>
      </trkpt>
      <trkpt lat="41.982749" lon="2.535798">
        <ele>322.908</ele>
        <time>2021-05-27T06:36:46Z</time>
      </trkpt>
      <trkpt lat="41.982746" lon="2.535823">
        <ele>322.691</ele>
        <time>2021-05-27T06:36:47Z</time>
      </trkpt>
      <trkpt lat="41.982743" lon="2.535865">
        <ele>322.318</ele>
        <time>2021-05-27T06:36:49Z</time>
      </trkpt>
      <trkpt lat="41.982745" lon="2.535908">
        <ele>321.676</ele>
        <time>2021-05-27T06:36:51Z</time>
      </trkpt>
      <trkpt lat="41.982744" lon="2.535950">
        <ele>321.266</ele>
        <time>2021-05-27T06:36:53Z</time>
      </trkpt>
      <trkpt lat="41.982747" lon="2.535993">
        <ele>320.593</ele>
        <time>2021-05-27T06:36:55Z</time>
      </trkpt>
      <trkpt lat="41.982749" lon="2.536031">
        <ele>320.058</ele>
        <time>2021-05-27T06:36:57Z</time>
      </trkpt>
      <trkpt lat="41.982748" lon="2.536067">
        <ele>319.651</ele>
        <time>2021-05-27T06:36:59Z</time>
      </trkpt>
      <trkpt lat="41.982753" lon="2.536101">
        <ele>318.937</ele>
        <time>2021-05-27T06:37:01Z</time>
      </trkpt>
      <trkpt lat="41.982758" lon="2.536137">
        <ele>317.895</ele>
        <time>2021-05-27T06:37:03Z</time>
      </trkpt>
      <trkpt lat="41.982760" lon="2.536174">
        <ele>316.749</ele>
        <time>2021-05-27T06:37:05Z</time>
      </trkpt>
      <trkpt lat="41.982765" lon="2.536212">
        <ele>315.423</ele>
        <time>2021-05-27T06:37:07Z</time>
      </trkpt>
      <trkpt lat="41.982767" lon="2.536246">
        <ele>314.408</ele>
        <time>2021-05-27T06:37:09Z</time>
      </trkpt>
      <trkpt lat="41.982768" lon="2.536280">
        <ele>313.576</ele>
        <time>2021-05-27T06:37:11Z</time>
      </trkpt>
      <trkpt lat="41.982765" lon="2.536317">
        <ele>312.823</ele>
        <time>2021-05-27T06:37:13Z</time>
      </trkpt>
      <trkpt lat="41.982762" lon="2.536352">
        <ele>312.161</ele>
        <time>2021-05-27T06:37:15Z</time>
      </trkpt>
      <trkpt lat="41.982757" lon="2.536385">
        <ele>311.731</ele>
        <time>2021-05-27T06:37:17Z</time>
      </trkpt>
      <trkpt lat="41.982748" lon="2.536418">
        <ele>311.788</ele>
        <time>2021-05-27T06:37:19Z</time>
      </trkpt>
      <trkpt lat="41.982736" lon="2.536449">
        <ele>312.143</ele>
        <time>2021-05-27T06:37:21Z</time>
      </trkpt>
      <trkpt lat="41.982725" lon="2.536481">
        <ele>312.426</ele>
        <time>2021-05-27T06:37:23Z</time>
      </trkpt>
      <trkpt lat="41.982712" lon="2.536518">
        <ele>312.832</ele>
        <time>2021-05-27T06:37:25Z</time>
      </trkpt>
      <trkpt lat="41.982698" lon="2.536549">
        <ele>313.332</ele>
        <time>2021-05-27T06:37:27Z</time>
      </trkpt>
      <trkpt lat="41.982684" lon="2.536577">
        <ele>313.992</ele>
        <time>2021-05-27T06:37:29Z</time>
      </trkpt>
      <trkpt lat="41.982677" lon="2.536608">
        <ele>314.011</ele>
        <time>2021-05-27T06:37:34Z</time>
      </trkpt>
      <trkpt lat="41.982667" lon="2.536639">
        <ele>314.208</ele>
        <time>2021-05-27T06:37:36Z</time>
      </trkpt>
      <trkpt lat="41.982656" lon="2.536672">
        <ele>314.570</ele>
        <time>2021-05-27T06:37:38Z</time>
      </trkpt>
      <trkpt lat="41.982648" lon="2.536705">
        <ele>314.257</ele>
        <time>2021-05-27T06:37:40Z</time>
      </trkpt>
      <trkpt lat="41.982638" lon="2.536738">
        <ele>314.185</ele>
        <time>2021-05-27T06:37:42Z</time>
      </trkpt>
      <trkpt lat="41.982630" lon="2.536769">
        <ele>314.015</ele>
        <time>2021-05-27T06:37:44Z</time>
      </trkpt>
      <trkpt lat="41.982622" lon="2.536802">
        <ele>313.782</ele>
        <time>2021-05-27T06:37:46Z</time>
      </trkpt>
      <trkpt lat="41.982615" lon="2.536835">
        <ele>313.427</ele>
        <time>2021-05-27T06:37:48Z</time>
      </trkpt>
      <trkpt lat="41.982605" lon="2.536867">
        <ele>313.450</ele>
        <time>2021-05-27T06:37:50Z</time>
      </trkpt>
      <trkpt lat="41.982590" lon="2.536898">
        <ele>313.856</ele>
        <time>2021-05-27T06:37:52Z</time>
      </trkpt>
      <trkpt lat="41.982576" lon="2.536930">
        <ele>314.194</ele>
        <time>2021-05-27T06:37:54Z</time>
      </trkpt>
      <trkpt lat="41.982561" lon="2.536962">
        <ele>314.457</ele>
        <time>2021-05-27T06:37:56Z</time>
      </trkpt>
      <trkpt lat="41.982549" lon="2.536993">
        <ele>314.322</ele>
        <time>2021-05-27T06:37:58Z</time>
      </trkpt>
      <trkpt lat="41.982537" lon="2.537025">
        <ele>314.208</ele>
        <time>2021-05-27T06:38:00Z</time>
      </trkpt>
      <trkpt lat="41.982524" lon="2.537056">
        <ele>314.286</ele>
        <time>2021-05-27T06:38:02Z</time>
      </trkpt>
      <trkpt lat="41.982513" lon="2.537088">
        <ele>313.973</ele>
        <time>2021-05-27T06:38:04Z</time>
      </trkpt>
      <trkpt lat="41.982498" lon="2.537119">
        <ele>313.931</ele>
        <time>2021-05-27T06:38:06Z</time>
      </trkpt>
      <trkpt lat="41.982486" lon="2.537151">
        <ele>313.851</ele>
        <time>2021-05-27T06:38:08Z</time>
      </trkpt>
      <trkpt lat="41.982474" lon="2.537181">
        <ele>313.818</ele>
        <time>2021-05-27T06:38:10Z</time>
      </trkpt>
      <trkpt lat="41.982460" lon="2.537211">
        <ele>314.013</ele>
        <time>2021-05-27T06:38:12Z</time>
      </trkpt>
      <trkpt lat="41.982448" lon="2.537244">
        <ele>313.976</ele>
        <time>2021-05-27T06:38:14Z</time>
      </trkpt>
      <trkpt lat="41.982435" lon="2.537277">
        <ele>314.042</ele>
        <time>2021-05-27T06:38:16Z</time>
      </trkpt>
      <trkpt lat="41.982425" lon="2.537310">
        <ele>313.745</ele>
        <time>2021-05-27T06:38:18Z</time>
      </trkpt>
      <trkpt lat="41.982413" lon="2.537342">
        <ele>313.747</ele>
        <time>2021-05-27T06:38:20Z</time>
      </trkpt>
      <trkpt lat="41.982403" lon="2.537376">
        <ele>313.411</ele>
        <time>2021-05-27T06:38:22Z</time>
      </trkpt>
      <trkpt lat="41.982396" lon="2.537411">
        <ele>312.708</ele>
        <time>2021-05-27T06:38:24Z</time>
      </trkpt>
      <trkpt lat="41.982388" lon="2.537446">
        <ele>312.231</ele>
        <time>2021-05-27T06:38:26Z</time>
      </trkpt>
      <trkpt lat="41.982383" lon="2.537482">
        <ele>311.368</ele>
        <time>2021-05-27T06:38:28Z</time>
      </trkpt>
      <trkpt lat="41.982374" lon="2.537517">
        <ele>310.616</ele>
        <time>2021-05-27T06:38:30Z</time>
      </trkpt>
      <trkpt lat="41.982371" lon="2.537550">
        <ele>309.316</ele>
        <time>2021-05-27T06:38:32Z</time>
      </trkpt>
      <trkpt lat="41.982365" lon="2.537588">
        <ele>307.953</ele>
        <time>2021-05-27T06:38:34Z</time>
      </trkpt>
      <trkpt lat="41.982361" lon="2.537626">
        <ele>306.428</ele>
        <time>2021-05-27T06:38:36Z</time>
      </trkpt>
      <trkpt lat="41.982358" lon="2.537664">
        <ele>304.881</ele>
        <time>2021-05-27T06:38:38Z</time>
      </trkpt>
      <trkpt lat="41.982352" lon="2.537703">
        <ele>303.387</ele>
        <time>2021-05-27T06:38:40Z</time>
      </trkpt>
      <trkpt lat="41.982344" lon="2.537735">
        <ele>302.272</ele>
        <time>2021-05-27T06:38:42Z</time>
      </trkpt>
      <trkpt lat="41.982332" lon="2.537767">
        <ele>301.413</ele>
        <time>2021-05-27T06:38:44Z</time>
      </trkpt>
      <trkpt lat="41.982321" lon="2.537802">
        <ele>300.714</ele>
        <time>2021-05-27T06:38:46Z</time>
      </trkpt>
      <trkpt lat="41.982308" lon="2.537837">
        <ele>300.308</ele>
        <time>2021-05-27T06:38:48Z</time>
      </trkpt>
      <trkpt lat="41.982295" lon="2.537865">
        <ele>300.154</ele>
        <time>2021-05-27T06:38:50Z</time>
      </trkpt>
      <trkpt lat="41.982282" lon="2.537894">
        <ele>299.981</ele>
        <time>2021-05-27T06:38:52Z</time>
      </trkpt>
      <trkpt lat="41.982266" lon="2.537922">
        <ele>300.079</ele>
        <time>2021-05-27T06:38:54Z</time>
      </trkpt>
      <trkpt lat="41.982248" lon="2.537948">
        <ele>300.249</ele>
        <time>2021-05-27T06:38:56Z</time>
      </trkpt>
      <trkpt lat="41.982232" lon="2.537978">
        <ele>300.256</ele>
        <time>2021-05-27T06:38:58Z</time>
      </trkpt>
      <trkpt lat="41.982217" lon="2.538006">
        <ele>300.241</ele>
        <time>2021-05-27T06:39:00Z</time>
      </trkpt>
      <trkpt lat="41.982202" lon="2.538035">
        <ele>300.264</ele>
        <time>2021-05-27T06:39:02Z</time>
      </trkpt>
      <trkpt lat="41.982185" lon="2.538065">
        <ele>300.430</ele>
        <time>2021-05-27T06:39:04Z</time>
      </trkpt>
      <trkpt lat="41.982170" lon="2.538095">
        <ele>300.768</ele>
        <time>2021-05-27T06:39:06Z</time>
      </trkpt>
      <trkpt lat="41.982154" lon="2.538123">
        <ele>301.242</ele>
        <time>2021-05-27T06:39:08Z</time>
      </trkpt>
      <trkpt lat="41.982138" lon="2.538152">
        <ele>301.526</ele>
        <time>2021-05-27T06:39:10Z</time>
      </trkpt>
      <trkpt lat="41.982122" lon="2.538181">
        <ele>301.908</ele>
        <time>2021-05-27T06:39:12Z</time>
      </trkpt>
      <trkpt lat="41.982107" lon="2.538210">
        <ele>302.273</ele>
        <time>2021-05-27T06:39:14Z</time>
      </trkpt>
      <trkpt lat="41.982094" lon="2.538240">
        <ele>302.310</ele>
        <time>2021-05-27T06:39:16Z</time>
      </trkpt>
      <trkpt lat="41.982079" lon="2.538269">
        <ele>302.578</ele>
        <time>2021-05-27T06:39:18Z</time>
      </trkpt>
      <trkpt lat="41.982065" lon="2.538300">
        <ele>302.758</ele>
        <time>2021-05-27T06:39:20Z</time>
      </trkpt>
      <trkpt lat="41.982054" lon="2.538332">
        <ele>302.585</ele>
        <time>2021-05-27T06:39:22Z</time>
      </trkpt>
      <trkpt lat="41.982041" lon="2.538363">
        <ele>302.670</ele>
        <time>2021-05-27T06:39:24Z</time>
      </trkpt>
      <trkpt lat="41.982029" lon="2.538397">
        <ele>302.353</ele>
        <time>2021-05-27T06:39:26Z</time>
      </trkpt>
      <trkpt lat="41.982020" lon="2.538431">
        <ele>301.939</ele>
        <time>2021-05-27T06:39:28Z</time>
      </trkpt>
      <trkpt lat="41.982012" lon="2.538465">
        <ele>301.357</ele>
        <time>2021-05-27T06:39:30Z</time>
      </trkpt>
      <trkpt lat="41.982003" lon="2.538499">
        <ele>300.800</ele>
        <time>2021-05-27T06:39:32Z</time>
      </trkpt>
      <trkpt lat="41.981990" lon="2.538531">
        <ele>300.520</ele>
        <time>2021-05-27T06:39:34Z</time>
      </trkpt>
      <trkpt lat="41.981976" lon="2.538560">
        <ele>300.208</ele>
        <time>2021-05-27T06:39:37Z</time>
      </trkpt>
      <trkpt lat="41.981959" lon="2.538587">
        <ele>300.252</ele>
        <time>2021-05-27T06:39:38Z</time>
      </trkpt>
      <trkpt lat="41.981939" lon="2.538611">
        <ele>300.229</ele>
        <time>2021-05-27T06:39:40Z</time>
      </trkpt>
      <trkpt lat="41.981916" lon="2.538632">
        <ele>300.587</ele>
        <time>2021-05-27T06:39:42Z</time>
      </trkpt>
      <trkpt lat="41.981896" lon="2.538654">
        <ele>300.767</ele>
        <time>2021-05-27T06:39:44Z</time>
      </trkpt>
      <trkpt lat="41.981874" lon="2.538674">
        <ele>301.034</ele>
        <time>2021-05-27T06:39:46Z</time>
      </trkpt>
      <trkpt lat="41.981850" lon="2.538692">
        <ele>301.349</ele>
        <time>2021-05-27T06:39:48Z</time>
      </trkpt>
      <trkpt lat="41.981825" lon="2.538707">
        <ele>301.762</ele>
        <time>2021-05-27T06:39:50Z</time>
      </trkpt>
      <trkpt lat="41.981801" lon="2.538723">
        <ele>302.048</ele>
        <time>2021-05-27T06:39:52Z</time>
      </trkpt>
      <trkpt lat="41.981777" lon="2.538738">
        <ele>302.381</ele>
        <time>2021-05-27T06:39:54Z</time>
      </trkpt>
      <trkpt lat="41.981750" lon="2.538752">
        <ele>302.761</ele>
        <time>2021-05-27T06:39:56Z</time>
      </trkpt>
      <trkpt lat="41.981726" lon="2.538768">
        <ele>302.917</ele>
        <time>2021-05-27T06:39:58Z</time>
      </trkpt>
      <trkpt lat="41.981703" lon="2.538787">
        <ele>303.008</ele>
        <time>2021-05-27T06:40:00Z</time>
      </trkpt>
      <trkpt lat="41.981678" lon="2.538804">
        <ele>303.285</ele>
        <time>2021-05-27T06:40:02Z</time>
      </trkpt>
      <trkpt lat="41.981654" lon="2.538830">
        <ele>303.142</ele>
        <time>2021-05-27T06:40:04Z</time>
      </trkpt>
      <trkpt lat="41.981633" lon="2.538855">
        <ele>303.270</ele>
        <time>2021-05-27T06:40:06Z</time>
      </trkpt>
      <trkpt lat="41.981617" lon="2.538883">
        <ele>302.970</ele>
        <time>2021-05-27T06:40:08Z</time>
      </trkpt>
      <trkpt lat="41.981599" lon="2.538921">
        <ele>303.017</ele>
        <time>2021-05-27T06:40:10Z</time>
      </trkpt>
      <trkpt lat="41.981587" lon="2.538954">
        <ele>303.152</ele>
        <time>2021-05-27T06:40:12Z</time>
      </trkpt>
      <trkpt lat="41.981581" lon="2.538988">
        <ele>302.985</ele>
        <time>2021-05-27T06:40:14Z</time>
      </trkpt>
      <trkpt lat="41.981580" lon="2.539020">
        <ele>302.561</ele>
        <time>2021-05-27T06:40:16Z</time>
      </trkpt>
      <trkpt lat="41.981582" lon="2.539057">
        <ele>302.086</ele>
        <time>2021-05-27T06:40:18Z</time>
      </trkpt>
      <trkpt lat="41.981587" lon="2.539093">
        <ele>301.460</ele>
        <time>2021-05-27T06:40:20Z</time>
      </trkpt>
      <trkpt lat="41.981593" lon="2.539135">
        <ele>300.626</ele>
        <time>2021-05-27T06:40:22Z</time>
      </trkpt>
      <trkpt lat="41.981600" lon="2.539177">
        <ele>299.908</ele>
        <time>2021-05-27T06:40:24Z</time>
      </trkpt>
      <trkpt lat="41.981610" lon="2.539221">
        <ele>299.595</ele>
        <time>2021-05-27T06:40:26Z</time>
      </trkpt>
      <trkpt lat="41.981620" lon="2.539258">
        <ele>299.142</ele>
        <time>2021-05-27T06:40:28Z</time>
      </trkpt>
      <trkpt lat="41.981630" lon="2.539296">
        <ele>298.590</ele>
        <time>2021-05-27T06:40:30Z</time>
      </trkpt>
      <trkpt lat="41.981638" lon="2.539332">
        <ele>298.190</ele>
        <time>2021-05-27T06:40:32Z</time>
      </trkpt>
      <trkpt lat="41.981650" lon="2.539363">
        <ele>297.397</ele>
        <time>2021-05-27T06:40:34Z</time>
      </trkpt>
      <trkpt lat="41.981661" lon="2.539397">
        <ele>296.582</ele>
        <time>2021-05-27T06:40:36Z</time>
      </trkpt>
      <trkpt lat="41.981672" lon="2.539431">
        <ele>295.955</ele>
        <time>2021-05-27T06:40:38Z</time>
      </trkpt>
      <trkpt lat="41.981685" lon="2.539464">
        <ele>295.641</ele>
        <time>2021-05-27T06:40:40Z</time>
      </trkpt>
      <trkpt lat="41.981697" lon="2.539496">
        <ele>295.559</ele>
        <time>2021-05-27T06:40:42Z</time>
      </trkpt>
      <trkpt lat="41.981709" lon="2.539529">
        <ele>295.403</ele>
        <time>2021-05-27T06:40:44Z</time>
      </trkpt>
      <trkpt lat="41.981720" lon="2.539561">
        <ele>295.323</ele>
        <time>2021-05-27T06:40:46Z</time>
      </trkpt>
      <trkpt lat="41.981732" lon="2.539592">
        <ele>295.108</ele>
        <time>2021-05-27T06:40:48Z</time>
      </trkpt>
      <trkpt lat="41.981743" lon="2.539624">
        <ele>294.942</ele>
        <time>2021-05-27T06:40:50Z</time>
      </trkpt>
      <trkpt lat="41.981753" lon="2.539659">
        <ele>294.839</ele>
        <time>2021-05-27T06:40:52Z</time>
      </trkpt>
      <trkpt lat="41.981764" lon="2.539691">
        <ele>294.677</ele>
        <time>2021-05-27T06:40:54Z</time>
      </trkpt>
      <trkpt lat="41.981772" lon="2.539727">
        <ele>294.537</ele>
        <time>2021-05-27T06:40:56Z</time>
      </trkpt>
      <trkpt lat="41.981784" lon="2.539759">
        <ele>294.144</ele>
        <time>2021-05-27T06:40:58Z</time>
      </trkpt>
      <trkpt lat="41.981796" lon="2.539793">
        <ele>293.749</ele>
        <time>2021-05-27T06:41:00Z</time>
      </trkpt>
      <trkpt lat="41.981808" lon="2.539828">
        <ele>293.312</ele>
        <time>2021-05-27T06:41:02Z</time>
      </trkpt>
      <trkpt lat="41.981819" lon="2.539861">
        <ele>292.958</ele>
        <time>2021-05-27T06:41:04Z</time>
      </trkpt>
      <trkpt lat="41.981830" lon="2.539893">
        <ele>292.579</ele>
        <time>2021-05-27T06:41:06Z</time>
      </trkpt>
      <trkpt lat="41.981838" lon="2.539930">
        <ele>292.205</ele>
        <time>2021-05-27T06:41:08Z</time>
      </trkpt>
      <trkpt lat="41.981850" lon="2.539961">
        <ele>291.725</ele>
        <time>2021-05-27T06:41:10Z</time>
      </trkpt>
      <trkpt lat="41.981861" lon="2.539997">
        <ele>291.208</ele>
        <time>2021-05-27T06:41:12Z</time>
      </trkpt>
      <trkpt lat="41.981869" lon="2.540031">
        <ele>290.834</ele>
        <time>2021-05-27T06:41:14Z</time>
      </trkpt>
      <trkpt lat="41.981873" lon="2.540063">
        <ele>290.661</ele>
        <time>2021-05-27T06:41:16Z</time>
      </trkpt>
      <trkpt lat="41.981876" lon="2.540087">
        <ele>290.539</ele>
        <time>2021-05-27T06:41:17Z</time>
      </trkpt>
      <trkpt lat="41.981888" lon="2.540122">
        <ele>289.989</ele>
        <time>2021-05-27T06:41:19Z</time>
      </trkpt>
      <trkpt lat="41.981902" lon="2.540154">
        <ele>289.416</ele>
        <time>2021-05-27T06:41:21Z</time>
      </trkpt>
      <trkpt lat="41.981915" lon="2.540188">
        <ele>288.941</ele>
        <time>2021-05-27T06:41:23Z</time>
      </trkpt>
      <trkpt lat="41.981931" lon="2.540217">
        <ele>288.354</ele>
        <time>2021-05-27T06:41:25Z</time>
      </trkpt>
      <trkpt lat="41.981949" lon="2.540246">
        <ele>287.750</ele>
        <time>2021-05-27T06:41:27Z</time>
      </trkpt>
      <trkpt lat="41.981969" lon="2.540271">
        <ele>287.011</ele>
        <time>2021-05-27T06:41:29Z</time>
      </trkpt>
      <trkpt lat="41.981988" lon="2.540297">
        <ele>286.121</ele>
        <time>2021-05-27T06:41:31Z</time>
      </trkpt>
      <trkpt lat="41.982007" lon="2.540324">
        <ele>285.203</ele>
        <time>2021-05-27T06:41:33Z</time>
      </trkpt>
      <trkpt lat="41.982025" lon="2.540350">
        <ele>284.508</ele>
        <time>2021-05-27T06:41:35Z</time>
      </trkpt>
      <trkpt lat="41.982046" lon="2.540371">
        <ele>283.758</ele>
        <time>2021-05-27T06:41:37Z</time>
      </trkpt>
      <trkpt lat="41.982066" lon="2.540394">
        <ele>283.085</ele>
        <time>2021-05-27T06:41:39Z</time>
      </trkpt>
      <trkpt lat="41.982086" lon="2.540416">
        <ele>282.483</ele>
        <time>2021-05-27T06:41:41Z</time>
      </trkpt>
      <trkpt lat="41.982107" lon="2.540438">
        <ele>281.983</ele>
        <time>2021-05-27T06:41:43Z</time>
      </trkpt>
      <trkpt lat="41.982127" lon="2.540461">
        <ele>281.420</ele>
        <time>2021-05-27T06:41:45Z</time>
      </trkpt>
      <trkpt lat="41.982142" lon="2.540490">
        <ele>281.115</ele>
        <time>2021-05-27T06:41:47Z</time>
      </trkpt>
      <trkpt lat="41.982165" lon="2.540513">
        <ele>280.898</ele>
        <time>2021-05-27T06:41:49Z</time>
      </trkpt>
      <trkpt lat="41.982185" lon="2.540537">
        <ele>280.544</ele>
        <time>2021-05-27T06:41:51Z</time>
      </trkpt>
      <trkpt lat="41.982202" lon="2.540565">
        <ele>280.413</ele>
        <time>2021-05-27T06:41:53Z</time>
      </trkpt>
      <trkpt lat="41.982219" lon="2.540592">
        <ele>280.143</ele>
        <time>2021-05-27T06:41:55Z</time>
      </trkpt>
      <trkpt lat="41.982232" lon="2.540622">
        <ele>279.707</ele>
        <time>2021-05-27T06:41:57Z</time>
      </trkpt>
      <trkpt lat="41.982245" lon="2.540653">
        <ele>279.308</ele>
        <time>2021-05-27T06:41:59Z</time>
      </trkpt>
      <trkpt lat="41.982255" lon="2.540683">
        <ele>279.058</ele>
        <time>2021-05-27T06:42:01Z</time>
      </trkpt>
      <trkpt lat="41.982264" lon="2.540715">
        <ele>278.825</ele>
        <time>2021-05-27T06:42:03Z</time>
      </trkpt>
      <trkpt lat="41.982268" lon="2.540750">
        <ele>278.793</ele>
        <time>2021-05-27T06:42:05Z</time>
      </trkpt>
      <trkpt lat="41.982269" lon="2.540785">
        <ele>278.733</ele>
        <time>2021-05-27T06:42:07Z</time>
      </trkpt>
      <trkpt lat="41.982266" lon="2.540820">
        <ele>278.950</ele>
        <time>2021-05-27T06:42:09Z</time>
      </trkpt>
      <trkpt lat="41.982264" lon="2.540853">
        <ele>278.865</ele>
        <time>2021-05-27T06:42:11Z</time>
      </trkpt>
      <trkpt lat="41.982258" lon="2.540885">
        <ele>278.798</ele>
        <time>2021-05-27T06:42:13Z</time>
      </trkpt>
      <trkpt lat="41.982251" lon="2.540920">
        <ele>278.714</ele>
        <time>2021-05-27T06:42:15Z</time>
      </trkpt>
      <trkpt lat="41.982243" lon="2.540952">
        <ele>278.646</ele>
        <time>2021-05-27T06:42:17Z</time>
      </trkpt>
      <trkpt lat="41.982234" lon="2.540984">
        <ele>278.688</ele>
        <time>2021-05-27T06:42:19Z</time>
      </trkpt>
      <trkpt lat="41.982224" lon="2.541016">
        <ele>278.616</ele>
        <time>2021-05-27T06:42:21Z</time>
      </trkpt>
      <trkpt lat="41.982217" lon="2.541052">
        <ele>278.508</ele>
        <time>2021-05-27T06:42:23Z</time>
      </trkpt>
      <trkpt lat="41.982210" lon="2.541088">
        <ele>278.221</ele>
        <time>2021-05-27T06:42:25Z</time>
      </trkpt>
      <trkpt lat="41.982204" lon="2.541123">
        <ele>277.978</ele>
        <time>2021-05-27T06:42:27Z</time>
      </trkpt>
      <trkpt lat="41.982199" lon="2.541158">
        <ele>277.586</ele>
        <time>2021-05-27T06:42:29Z</time>
      </trkpt>
      <trkpt lat="41.982197" lon="2.541196">
        <ele>277.166</ele>
        <time>2021-05-27T06:42:31Z</time>
      </trkpt>
      <trkpt lat="41.982201" lon="2.541233">
        <ele>276.783</ele>
        <time>2021-05-27T06:42:33Z</time>
      </trkpt>
      <trkpt lat="41.982207" lon="2.541271">
        <ele>276.358</ele>
        <time>2021-05-27T06:42:35Z</time>
      </trkpt>
      <trkpt lat="41.982214" lon="2.541306">
        <ele>275.951</ele>
        <time>2021-05-27T06:42:37Z</time>
      </trkpt>
      <trkpt lat="41.982231" lon="2.541339">
        <ele>275.367</ele>
        <time>2021-05-27T06:42:39Z</time>
      </trkpt>
      <trkpt lat="41.982252" lon="2.541366">
        <ele>274.549</ele>
        <time>2021-05-27T06:42:41Z</time>
      </trkpt>
      <trkpt lat="41.982274" lon="2.541390">
        <ele>273.702</ele>
        <time>2021-05-27T06:42:43Z</time>
      </trkpt>
      <trkpt lat="41.982296" lon="2.541411">
        <ele>272.922</ele>
        <time>2021-05-27T06:42:45Z</time>
      </trkpt>
      <trkpt lat="41.982323" lon="2.541430">
        <ele>272.108</ele>
        <time>2021-05-27T06:42:47Z</time>
      </trkpt>
      <trkpt lat="41.982350" lon="2.541442">
        <ele>271.431</ele>
        <time>2021-05-27T06:42:49Z</time>
      </trkpt>
      <trkpt lat="41.982378" lon="2.541444">
        <ele>270.728</ele>
        <time>2021-05-27T06:42:51Z</time>
      </trkpt>
      <trkpt lat="41.982406" lon="2.541435">
        <ele>270.186</ele>
        <time>2021-05-27T06:42:53Z</time>
      </trkpt>
      <trkpt lat="41.982434" lon="2.541424">
        <ele>269.526</ele>
        <time>2021-05-27T06:42:55Z</time>
      </trkpt>
      <trkpt lat="41.982459" lon="2.541411">
        <ele>268.943</ele>
        <time>2021-05-27T06:42:57Z</time>
      </trkpt>
      <trkpt lat="41.982483" lon="2.541392">
        <ele>268.458</ele>
        <time>2021-05-27T06:42:59Z</time>
      </trkpt>
      <trkpt lat="41.982505" lon="2.541366">
        <ele>268.151</ele>
        <time>2021-05-27T06:43:01Z</time>
      </trkpt>
      <trkpt lat="41.982523" lon="2.541341">
        <ele>267.897</ele>
        <time>2021-05-27T06:43:03Z</time>
      </trkpt>
      <trkpt lat="41.982541" lon="2.541309">
        <ele>267.686</ele>
        <time>2021-05-27T06:43:05Z</time>
      </trkpt>
      <trkpt lat="41.982555" lon="2.541271">
        <ele>267.460</ele>
        <time>2021-05-27T06:43:07Z</time>
      </trkpt>
      <trkpt lat="41.982565" lon="2.541233">
        <ele>267.426</ele>
        <time>2021-05-27T06:43:09Z</time>
      </trkpt>
      <trkpt lat="41.982574" lon="2.541195">
        <ele>267.408</ele>
        <time>2021-05-27T06:43:11Z</time>
      </trkpt>
      <trkpt lat="41.982579" lon="2.541160">
        <ele>267.535</ele>
        <time>2021-05-27T06:43:13Z</time>
      </trkpt>
      <trkpt lat="41.982580" lon="2.541124">
        <ele>267.732</ele>
        <time>2021-05-27T06:43:15Z</time>
      </trkpt>
      <trkpt lat="41.982581" lon="2.541087">
        <ele>267.960</ele>
        <time>2021-05-27T06:43:17Z</time>
      </trkpt>
      <trkpt lat="41.982579" lon="2.541052">
        <ele>268.240</ele>
        <time>2021-05-27T06:43:19Z</time>
      </trkpt>
      <trkpt lat="41.982571" lon="2.541017">
        <ele>268.827</ele>
        <time>2021-05-27T06:43:21Z</time>
      </trkpt>
      <trkpt lat="41.982561" lon="2.540983">
        <ele>269.482</ele>
        <time>2021-05-27T06:43:23Z</time>
      </trkpt>
      <trkpt lat="41.982546" lon="2.540951">
        <ele>270.275</ele>
        <time>2021-05-27T06:43:25Z</time>
      </trkpt>
      <trkpt lat="41.982542" lon="2.540922">
        <ele>270.641</ele>
        <time>2021-05-27T06:43:27Z</time>
      </trkpt>
      <trkpt lat="41.982535" lon="2.540891">
        <ele>271.111</ele>
        <time>2021-05-27T06:43:29Z</time>
      </trkpt>
      <trkpt lat="41.982530" lon="2.540860">
        <ele>271.521</ele>
        <time>2021-05-27T06:43:31Z</time>
      </trkpt>
      <trkpt lat="41.982531" lon="2.540828">
        <ele>271.603</ele>
        <time>2021-05-27T06:43:33Z</time>
      </trkpt>
      <trkpt lat="41.982530" lon="2.540793">
        <ele>271.308</ele>
        <time>2021-05-27T06:43:35Z</time>
      </trkpt>
      <trkpt lat="41.982534" lon="2.540756">
        <ele>270.718</ele>
        <time>2021-05-27T06:43:37Z</time>
      </trkpt>
      <trkpt lat="41.982538" lon="2.540723">
        <ele>270.255</ele>
        <time>2021-05-27T06:43:39Z</time>
      </trkpt>
      <trkpt lat="41.982537" lon="2.540687">
        <ele>269.933</ele>
        <time>2021-05-27T06:43:41Z</time>
      </trkpt>
      <trkpt lat="41.982536" lon="2.540654">
        <ele>269.623</ele>
        <time>2021-05-27T06:43:43Z</time>
      </trkpt>
      <trkpt lat="41.982538" lon="2.540618">
        <ele>269.130</ele>
        <time>2021-05-27T06:43:45Z</time>
      </trkpt>
      <trkpt lat="41.982539" lon="2.540584">
        <ele>268.795</ele>
        <time>2021-05-27T06:43:47Z</time>
      </trkpt>
      <trkpt lat="41.982521" lon="2.540545">
        <ele>269.128</ele>
        <time>2021-05-27T06:43:49Z</time>
      </trkpt>
      <trkpt lat="41.982511" lon="2.540506">
        <ele>269.074</ele>
        <time>2021-05-27T06:43:51Z</time>
      </trkpt>
      <trkpt lat="41.982506" lon="2.540469">
        <ele>268.832</ele>
        <time>2021-05-27T06:43:53Z</time>
      </trkpt>
      <trkpt lat="41.982504" lon="2.540432">
        <ele>268.592</ele>
        <time>2021-05-27T06:43:55Z</time>
      </trkpt>
      <trkpt lat="41.982499" lon="2.540398">
        <ele>268.311</ele>
        <time>2021-05-27T06:43:57Z</time>
      </trkpt>
      <trkpt lat="41.982498" lon="2.540364">
        <ele>268.008</ele>
        <time>2021-05-27T06:43:59Z</time>
      </trkpt>
      <trkpt lat="41.982497" lon="2.540329">
        <ele>267.790</ele>
        <time>2021-05-27T06:44:01Z</time>
      </trkpt>
      <trkpt lat="41.982495" lon="2.540295">
        <ele>267.417</ele>
        <time>2021-05-27T06:44:03Z</time>
      </trkpt>
      <trkpt lat="41.982494" lon="2.540260">
        <ele>267.245</ele>
        <time>2021-05-27T06:44:05Z</time>
      </trkpt>
      <trkpt lat="41.982491" lon="2.540226">
        <ele>267.125</ele>
        <time>2021-05-27T06:44:07Z</time>
      </trkpt>
      <trkpt lat="41.982485" lon="2.540193">
        <ele>267.252</ele>
        <time>2021-05-27T06:44:09Z</time>
      </trkpt>
      <trkpt lat="41.982482" lon="2.540159">
        <ele>267.217</ele>
        <time>2021-05-27T06:44:11Z</time>
      </trkpt>
      <trkpt lat="41.982479" lon="2.540121">
        <ele>267.180</ele>
        <time>2021-05-27T06:44:13Z</time>
      </trkpt>
      <trkpt lat="41.982476" lon="2.540086">
        <ele>267.166</ele>
        <time>2021-05-27T06:44:15Z</time>
      </trkpt>
      <trkpt lat="41.982467" lon="2.540055">
        <ele>267.397</ele>
        <time>2021-05-27T06:44:17Z</time>
      </trkpt>
      <trkpt lat="41.982461" lon="2.540021">
        <ele>267.423</ele>
        <time>2021-05-27T06:44:19Z</time>
      </trkpt>
      <trkpt lat="41.982454" lon="2.539987">
        <ele>267.425</ele>
        <time>2021-05-27T06:44:21Z</time>
      </trkpt>
      <trkpt lat="41.982451" lon="2.539955">
        <ele>267.308</ele>
        <time>2021-05-27T06:44:23Z</time>
      </trkpt>
      <trkpt lat="41.982449" lon="2.539919">
        <ele>267.176</ele>
        <time>2021-05-27T06:44:25Z</time>
      </trkpt>
      <trkpt lat="41.982447" lon="2.539885">
        <ele>267.043</ele>
        <time>2021-05-27T06:44:27Z</time>
      </trkpt>
      <trkpt lat="41.982443" lon="2.539852">
        <ele>266.911</ele>
        <time>2021-05-27T06:44:29Z</time>
      </trkpt>
      <trkpt lat="41.982443" lon="2.539822">
        <ele>266.791</ele>
        <time>2021-05-27T06:44:31Z</time>
      </trkpt>
      <trkpt lat="41.982446" lon="2.539795">
        <ele>266.498</ele>
        <time>2021-05-27T06:44:33Z</time>
      </trkpt>
      <trkpt lat="41.982449" lon="2.539770">
        <ele>266.123</ele>
        <time>2021-05-27T06:44:35Z</time>
      </trkpt>
      <trkpt lat="41.982451" lon="2.539744">
        <ele>265.966</ele>
        <time>2021-05-27T06:44:37Z</time>
      </trkpt>
      <trkpt lat="41.982460" lon="2.539716">
        <ele>265.412</ele>
        <time>2021-05-27T06:44:39Z</time>
      </trkpt>
      <trkpt lat="41.982472" lon="2.539698">
        <ele>265.099</ele>
        <time>2021-05-27T06:44:41Z</time>
      </trkpt>
      <trkpt lat="41.982484" lon="2.539678">
        <ele>264.607</ele>
        <time>2021-05-27T06:44:43Z</time>
      </trkpt>
      <trkpt lat="41.982497" lon="2.539657">
        <ele>264.127</ele>
        <time>2021-05-27T06:44:45Z</time>
      </trkpt>
      <trkpt lat="41.982515" lon="2.539632">
        <ele>263.708</ele>
        <time>2021-05-27T06:44:47Z</time>
      </trkpt>
      <trkpt lat="41.982531" lon="2.539610">
        <ele>263.476</ele>
        <time>2021-05-27T06:44:49Z</time>
      </trkpt>
      <trkpt lat="41.982549" lon="2.539592">
        <ele>263.043</ele>
        <time>2021-05-27T06:44:51Z</time>
      </trkpt>
      <trkpt lat="41.982563" lon="2.539577">
        <ele>262.741</ele>
        <time>2021-05-27T06:44:53Z</time>
      </trkpt>
      <trkpt lat="41.982579" lon="2.539562">
        <ele>262.491</ele>
        <time>2021-05-27T06:44:55Z</time>
      </trkpt>
      <trkpt lat="41.982598" lon="2.539557">
        <ele>262.038</ele>
        <time>2021-05-27T06:44:57Z</time>
      </trkpt>
      <trkpt lat="41.982617" lon="2.539562">
        <ele>261.763</ele>
        <time>2021-05-27T06:45:00Z</time>
      </trkpt>
      <trkpt lat="41.982640" lon="2.539566">
        <ele>261.276</ele>
        <time>2021-05-27T06:45:01Z</time>
      </trkpt>
      <trkpt lat="41.982660" lon="2.539573">
        <ele>260.822</ele>
        <time>2021-05-27T06:45:03Z</time>
      </trkpt>
      <trkpt lat="41.982679" lon="2.539585">
        <ele>260.545</ele>
        <time>2021-05-27T06:45:05Z</time>
      </trkpt>
      <trkpt lat="41.982698" lon="2.539597">
        <ele>260.147</ele>
        <time>2021-05-27T06:45:07Z</time>
      </trkpt>
      <trkpt lat="41.982715" lon="2.539616">
        <ele>259.811</ele>
        <time>2021-05-27T06:45:09Z</time>
      </trkpt>
      <trkpt lat="41.982732" lon="2.539642">
        <ele>259.608</ele>
        <time>2021-05-27T06:45:11Z</time>
      </trkpt>
      <trkpt lat="41.982748" lon="2.539665">
        <ele>259.461</ele>
        <time>2021-05-27T06:45:13Z</time>
      </trkpt>
      <trkpt lat="41.982764" lon="2.539689">
        <ele>259.138</ele>
        <time>2021-05-27T06:45:15Z</time>
      </trkpt>
      <trkpt lat="41.982780" lon="2.539711">
        <ele>258.986</ele>
        <time>2021-05-27T06:45:17Z</time>
      </trkpt>
      <trkpt lat="41.982796" lon="2.539733">
        <ele>258.716</ele>
        <time>2021-05-27T06:45:19Z</time>
      </trkpt>
      <trkpt lat="41.982809" lon="2.539760">
        <ele>258.423</ele>
        <time>2021-05-27T06:45:21Z</time>
      </trkpt>
      <trkpt lat="41.982819" lon="2.539788">
        <ele>258.258</ele>
        <time>2021-05-27T06:45:23Z</time>
      </trkpt>
      <trkpt lat="41.982824" lon="2.539817">
        <ele>258.171</ele>
        <time>2021-05-27T06:45:25Z</time>
      </trkpt>
      <trkpt lat="41.982824" lon="2.539845">
        <ele>258.097</ele>
        <time>2021-05-27T06:45:27Z</time>
      </trkpt>
      <trkpt lat="41.982822" lon="2.539875">
        <ele>258.036</ele>
        <time>2021-05-27T06:45:29Z</time>
      </trkpt>
      <trkpt lat="41.982824" lon="2.539905">
        <ele>257.917</ele>
        <time>2021-05-27T06:45:31Z</time>
      </trkpt>
      <trkpt lat="41.982820" lon="2.539939">
        <ele>258.018</ele>
        <time>2021-05-27T06:45:33Z</time>
      </trkpt>
      <trkpt lat="41.982823" lon="2.539968">
        <ele>257.908</ele>
        <time>2021-05-27T06:45:35Z</time>
      </trkpt>
      <trkpt lat="41.982826" lon="2.539998">
        <ele>257.830</ele>
        <time>2021-05-27T06:45:37Z</time>
      </trkpt>
      <trkpt lat="41.982828" lon="2.540029">
        <ele>257.597</ele>
        <time>2021-05-27T06:45:39Z</time>
      </trkpt>
      <trkpt lat="41.982831" lon="2.540063">
        <ele>257.295</ele>
        <time>2021-05-27T06:45:41Z</time>
      </trkpt>
      <trkpt lat="41.982829" lon="2.540093">
        <ele>257.015</ele>
        <time>2021-05-27T06:45:43Z</time>
      </trkpt>
      <trkpt lat="41.982830" lon="2.540125">
        <ele>256.812</ele>
        <time>2021-05-27T06:45:45Z</time>
      </trkpt>
      <trkpt lat="41.982830" lon="2.540158">
        <ele>256.567</ele>
        <time>2021-05-27T06:45:47Z</time>
      </trkpt>
      <trkpt lat="41.982833" lon="2.540191">
        <ele>256.230</ele>
        <time>2021-05-27T06:45:49Z</time>
      </trkpt>
      <trkpt lat="41.982837" lon="2.540225">
        <ele>255.956</ele>
        <time>2021-05-27T06:45:51Z</time>
      </trkpt>
      <trkpt lat="41.982837" lon="2.540257">
        <ele>255.769</ele>
        <time>2021-05-27T06:45:53Z</time>
      </trkpt>
      <trkpt lat="41.982841" lon="2.540287">
        <ele>255.404</ele>
        <time>2021-05-27T06:45:55Z</time>
      </trkpt>
      <trkpt lat="41.982839" lon="2.540320">
        <ele>255.624</ele>
        <time>2021-05-27T06:45:57Z</time>
      </trkpt>
      <trkpt lat="41.982840" lon="2.540352">
        <ele>255.708</ele>
        <time>2021-05-27T06:45:59Z</time>
      </trkpt>
      <trkpt lat="41.982844" lon="2.540382">
        <ele>255.623</ele>
        <time>2021-05-27T06:46:01Z</time>
      </trkpt>
      <trkpt lat="41.982849" lon="2.540413">
        <ele>255.690</ele>
        <time>2021-05-27T06:46:03Z</time>
      </trkpt>
      <trkpt lat="41.982857" lon="2.540445">
        <ele>255.338</ele>
        <time>2021-05-27T06:46:05Z</time>
      </trkpt>
      <trkpt lat="41.982856" lon="2.540477">
        <ele>255.518</ele>
        <time>2021-05-27T06:46:07Z</time>
      </trkpt>
      <trkpt lat="41.982849" lon="2.540515">
        <ele>255.845</ele>
        <time>2021-05-27T06:46:09Z</time>
      </trkpt>
      <trkpt lat="41.982851" lon="2.540555">
        <ele>255.810</ele>
        <time>2021-05-27T06:46:11Z</time>
      </trkpt>
      <trkpt lat="41.982852" lon="2.540588">
        <ele>256.023</ele>
        <time>2021-05-27T06:46:13Z</time>
      </trkpt>
      <trkpt lat="41.982853" lon="2.540618">
        <ele>256.189</ele>
        <time>2021-05-27T06:46:15Z</time>
      </trkpt>
      <trkpt lat="41.982852" lon="2.540653">
        <ele>256.375</ele>
        <time>2021-05-27T06:46:17Z</time>
      </trkpt>
      <trkpt lat="41.982853" lon="2.540687">
        <ele>256.428</ele>
        <time>2021-05-27T06:46:19Z</time>
      </trkpt>
      <trkpt lat="41.982854" lon="2.540724">
        <ele>256.620</ele>
        <time>2021-05-27T06:46:21Z</time>
      </trkpt>
      <trkpt lat="41.982860" lon="2.540756">
        <ele>256.508</ele>
        <time>2021-05-27T06:46:23Z</time>
      </trkpt>
      <trkpt lat="41.982868" lon="2.540783">
        <ele>256.234</ele>
        <time>2021-05-27T06:46:25Z</time>
      </trkpt>
      <trkpt lat="41.982871" lon="2.540820">
        <ele>256.271</ele>
        <time>2021-05-27T06:46:27Z</time>
      </trkpt>
      <trkpt lat="41.982879" lon="2.540858">
        <ele>255.919</ele>
        <time>2021-05-27T06:46:29Z</time>
      </trkpt>
      <trkpt lat="41.982884" lon="2.540896">
        <ele>255.829</ele>
        <time>2021-05-27T06:46:31Z</time>
      </trkpt>
      <trkpt lat="41.982891" lon="2.540929">
        <ele>255.576</ele>
        <time>2021-05-27T06:46:33Z</time>
      </trkpt>
      <trkpt lat="41.982896" lon="2.540966">
        <ele>255.421</ele>
        <time>2021-05-27T06:46:35Z</time>
      </trkpt>
      <trkpt lat="41.982900" lon="2.541001">
        <ele>255.384</ele>
        <time>2021-05-27T06:46:37Z</time>
      </trkpt>
      <trkpt lat="41.982898" lon="2.541040">
        <ele>255.550</ele>
        <time>2021-05-27T06:46:39Z</time>
      </trkpt>
      <trkpt lat="41.982895" lon="2.541070">
        <ele>255.719</ele>
        <time>2021-05-27T06:46:41Z</time>
      </trkpt>
      <trkpt lat="41.982891" lon="2.541100">
        <ele>255.909</ele>
        <time>2021-05-27T06:46:43Z</time>
      </trkpt>
      <trkpt lat="41.982886" lon="2.541135">
        <ele>256.219</ele>
        <time>2021-05-27T06:46:45Z</time>
      </trkpt>
      <trkpt lat="41.982886" lon="2.541168">
        <ele>256.308</ele>
        <time>2021-05-27T06:46:47Z</time>
      </trkpt>
      <trkpt lat="41.982886" lon="2.541204">
        <ele>256.478</ele>
        <time>2021-05-27T06:46:49Z</time>
      </trkpt>
      <trkpt lat="41.982890" lon="2.541239">
        <ele>256.325</ele>
        <time>2021-05-27T06:46:51Z</time>
      </trkpt>
      <trkpt lat="41.982892" lon="2.541277">
        <ele>256.413</ele>
        <time>2021-05-27T06:46:53Z</time>
      </trkpt>
      <trkpt lat="41.982899" lon="2.541312">
        <ele>256.313</ele>
        <time>2021-05-27T06:46:55Z</time>
      </trkpt>
      <trkpt lat="41.982904" lon="2.541347">
        <ele>256.230</ele>
        <time>2021-05-27T06:46:57Z</time>
      </trkpt>
      <trkpt lat="41.982911" lon="2.541377">
        <ele>256.185</ele>
        <time>2021-05-27T06:46:59Z</time>
      </trkpt>
      <trkpt lat="41.982918" lon="2.541407">
        <ele>256.068</ele>
        <time>2021-05-27T06:47:01Z</time>
      </trkpt>
      <trkpt lat="41.982933" lon="2.541432">
        <ele>255.614</ele>
        <time>2021-05-27T06:47:03Z</time>
      </trkpt>
      <trkpt lat="41.982944" lon="2.541457">
        <ele>255.434</ele>
        <time>2021-05-27T06:47:05Z</time>
      </trkpt>
      <trkpt lat="41.982945" lon="2.541488">
        <ele>255.455</ele>
        <time>2021-05-27T06:47:07Z</time>
      </trkpt>
      <trkpt lat="41.982937" lon="2.541517">
        <ele>255.710</ele>
        <time>2021-05-27T06:47:09Z</time>
      </trkpt>
      <trkpt lat="41.982941" lon="2.541554">
        <ele>255.608</ele>
        <time>2021-05-27T06:47:11Z</time>
      </trkpt>
      <trkpt lat="41.982949" lon="2.541593">
        <ele>255.560</ele>
        <time>2021-05-27T06:47:13Z</time>
      </trkpt>
      <trkpt lat="41.982950" lon="2.541633">
        <ele>255.697</ele>
        <time>2021-05-27T06:47:15Z</time>
      </trkpt>
      <trkpt lat="41.982947" lon="2.541668">
        <ele>255.725</ele>
        <time>2021-05-27T06:47:17Z</time>
      </trkpt>
      <trkpt lat="41.982958" lon="2.541703">
        <ele>255.735</ele>
        <time>2021-05-27T06:47:19Z</time>
      </trkpt>
      <trkpt lat="41.982975" lon="2.541727">
        <ele>255.452</ele>
        <time>2021-05-27T06:47:21Z</time>
      </trkpt>
      <trkpt lat="41.982986" lon="2.541757">
        <ele>255.387</ele>
        <time>2021-05-27T06:47:23Z</time>
      </trkpt>
      <trkpt lat="41.983001" lon="2.541785">
        <ele>255.120</ele>
        <time>2021-05-27T06:47:25Z</time>
      </trkpt>
      <trkpt lat="41.983022" lon="2.541812">
        <ele>254.886</ele>
        <time>2021-05-27T06:47:27Z</time>
      </trkpt>
      <trkpt lat="41.983051" lon="2.541856">
        <ele>254.554</ele>
        <time>2021-05-27T06:47:30Z</time>
      </trkpt>
      <trkpt lat="41.983067" lon="2.541874">
        <ele>254.056</ele>
        <time>2021-05-27T06:47:31Z</time>
      </trkpt>
      <trkpt lat="41.983085" lon="2.541906">
        <ele>253.311</ele>
        <time>2021-05-27T06:47:33Z</time>
      </trkpt>
      <trkpt lat="41.983102" lon="2.541939">
        <ele>252.808</ele>
        <time>2021-05-27T06:47:35Z</time>
      </trkpt>
      <trkpt lat="41.983171" lon="2.542029">
        <ele>251.152</ele>
        <time>2021-05-27T06:47:41Z</time>
      </trkpt>
      <trkpt lat="41.983198" lon="2.542044">
        <ele>250.199</ele>
        <time>2021-05-27T06:47:43Z</time>
      </trkpt>
      <trkpt lat="41.983251" lon="2.542047">
        <ele>247.887</ele>
        <time>2021-05-27T06:47:47Z</time>
      </trkpt>
      <trkpt lat="41.983278" lon="2.542043">
        <ele>246.697</ele>
        <time>2021-05-27T06:47:49Z</time>
      </trkpt>
      <trkpt lat="41.983308" lon="2.542030">
        <ele>245.054</ele>
        <time>2021-05-27T06:47:51Z</time>
      </trkpt>
      <trkpt lat="41.983327" lon="2.542010">
        <ele>243.729</ele>
        <time>2021-05-27T06:47:52Z</time>
      </trkpt>
      <trkpt lat="41.983349" lon="2.541989">
        <ele>242.512</ele>
        <time>2021-05-27T06:47:54Z</time>
      </trkpt>
      <trkpt lat="41.983371" lon="2.541976">
        <ele>241.728</ele>
        <time>2021-05-27T06:47:56Z</time>
      </trkpt>
      <trkpt lat="41.983401" lon="2.541960">
        <ele>240.686</ele>
        <time>2021-05-27T06:47:58Z</time>
      </trkpt>
      <trkpt lat="41.983420" lon="2.541950">
        <ele>239.960</ele>
        <time>2021-05-27T06:47:59Z</time>
      </trkpt>
      <trkpt lat="41.983450" lon="2.541930">
        <ele>239.026</ele>
        <time>2021-05-27T06:48:01Z</time>
      </trkpt>
      <trkpt lat="41.983473" lon="2.541904">
        <ele>238.208</ele>
        <time>2021-05-27T06:48:03Z</time>
      </trkpt>
      <trkpt lat="41.983488" lon="2.541889">
        <ele>237.785</ele>
        <time>2021-05-27T06:48:04Z</time>
      </trkpt>
      <trkpt lat="41.983511" lon="2.541871">
        <ele>237.052</ele>
        <time>2021-05-27T06:48:06Z</time>
      </trkpt>
      <trkpt lat="41.983536" lon="2.541855">
        <ele>236.290</ele>
        <time>2021-05-27T06:48:08Z</time>
      </trkpt>
      <trkpt lat="41.983562" lon="2.541837">
        <ele>235.530</ele>
        <time>2021-05-27T06:48:10Z</time>
      </trkpt>
      <trkpt lat="41.983582" lon="2.541821">
        <ele>234.817</ele>
        <time>2021-05-27T06:48:12Z</time>
      </trkpt>
      <trkpt lat="41.983598" lon="2.541809">
        <ele>234.452</ele>
        <time>2021-05-27T06:48:15Z</time>
      </trkpt>
      <trkpt lat="41.983593" lon="2.541779">
        <ele>234.325</ele>
        <time>2021-05-27T06:48:26Z</time>
      </trkpt>
      <trkpt lat="41.983619" lon="2.541771">
        <ele>233.791</ele>
        <time>2021-05-27T06:48:34Z</time>
      </trkpt>
      <trkpt lat="41.983640" lon="2.541769">
        <ele>233.628</ele>
        <time>2021-05-27T06:48:36Z</time>
      </trkpt>
      <trkpt lat="41.983661" lon="2.541766">
        <ele>233.489</ele>
        <time>2021-05-27T06:48:38Z</time>
      </trkpt>
      <trkpt lat="41.983682" lon="2.541764">
        <ele>233.317</ele>
        <time>2021-05-27T06:48:40Z</time>
      </trkpt>
      <trkpt lat="41.983702" lon="2.541754">
        <ele>233.108</ele>
        <time>2021-05-27T06:48:42Z</time>
      </trkpt>
      <trkpt lat="41.983722" lon="2.541737">
        <ele>232.989</ele>
        <time>2021-05-27T06:48:45Z</time>
      </trkpt>
      <trkpt lat="41.983739" lon="2.541716">
        <ele>232.736</ele>
        <time>2021-05-27T06:48:46Z</time>
      </trkpt>
      <trkpt lat="41.983756" lon="2.541698">
        <ele>232.694</ele>
        <time>2021-05-27T06:48:48Z</time>
      </trkpt>
      <trkpt lat="41.983774" lon="2.541681">
        <ele>232.524</ele>
        <time>2021-05-27T06:48:50Z</time>
      </trkpt>
      <trkpt lat="41.983788" lon="2.541665">
        <ele>232.421</ele>
        <time>2021-05-27T06:48:57Z</time>
      </trkpt>
      <trkpt lat="41.983783" lon="2.541636">
        <ele>232.496</ele>
        <time>2021-05-27T06:49:00Z</time>
      </trkpt>
      <trkpt lat="41.983806" lon="2.541622">
        <ele>232.349</ele>
        <time>2021-05-27T06:49:06Z</time>
      </trkpt>
      <trkpt lat="41.983828" lon="2.541610">
        <ele>232.385</ele>
        <time>2021-05-27T06:49:09Z</time>
      </trkpt>
      <trkpt lat="41.983847" lon="2.541595">
        <ele>232.339</ele>
        <time>2021-05-27T06:49:10Z</time>
      </trkpt>
      <trkpt lat="41.983866" lon="2.541582">
        <ele>232.301</ele>
        <time>2021-05-27T06:49:12Z</time>
      </trkpt>
      <trkpt lat="41.983886" lon="2.541569">
        <ele>232.421</ele>
        <time>2021-05-27T06:49:14Z</time>
      </trkpt>
      <trkpt lat="41.983904" lon="2.541556">
        <ele>232.708</ele>
        <time>2021-05-27T06:49:16Z</time>
      </trkpt>
      <trkpt lat="41.983924" lon="2.541542">
        <ele>233.280</ele>
        <time>2021-05-27T06:49:18Z</time>
      </trkpt>
      <trkpt lat="41.983944" lon="2.541528">
        <ele>233.747</ele>
        <time>2021-05-27T06:49:20Z</time>
      </trkpt>
      <trkpt lat="41.983962" lon="2.541514">
        <ele>234.135</ele>
        <time>2021-05-27T06:49:22Z</time>
      </trkpt>
      <trkpt lat="41.983982" lon="2.541501">
        <ele>234.685</ele>
        <time>2021-05-27T06:49:24Z</time>
      </trkpt>
      <trkpt lat="41.984002" lon="2.541489">
        <ele>235.122</ele>
        <time>2021-05-27T06:49:26Z</time>
      </trkpt>
      <trkpt lat="41.984020" lon="2.541480">
        <ele>235.587</ele>
        <time>2021-05-27T06:49:28Z</time>
      </trkpt>
      <trkpt lat="41.984037" lon="2.541470">
        <ele>235.940</ele>
        <time>2021-05-27T06:49:30Z</time>
      </trkpt>
      <trkpt lat="41.984058" lon="2.541457">
        <ele>236.416</ele>
        <time>2021-05-27T06:49:33Z</time>
      </trkpt>
      <trkpt lat="41.984077" lon="2.541442">
        <ele>236.973</ele>
        <time>2021-05-27T06:49:35Z</time>
      </trkpt>
      <trkpt lat="41.984099" lon="2.541427">
        <ele>237.485</ele>
        <time>2021-05-27T06:49:37Z</time>
      </trkpt>
      <trkpt lat="41.984119" lon="2.541414">
        <ele>237.913</ele>
        <time>2021-05-27T06:49:39Z</time>
      </trkpt>
      <trkpt lat="41.984140" lon="2.541400">
        <ele>238.408</ele>
        <time>2021-05-27T06:49:41Z</time>
      </trkpt>
      <trkpt lat="41.984158" lon="2.541384">
        <ele>238.834</ele>
        <time>2021-05-27T06:49:43Z</time>
      </trkpt>
      <trkpt lat="41.984175" lon="2.541364">
        <ele>239.511</ele>
        <time>2021-05-27T06:49:45Z</time>
      </trkpt>
      <trkpt lat="41.984190" lon="2.541340">
        <ele>240.339</ele>
        <time>2021-05-27T06:49:47Z</time>
      </trkpt>
      <trkpt lat="41.984196" lon="2.541312">
        <ele>240.719</ele>
        <time>2021-05-27T06:49:49Z</time>
      </trkpt>
      <trkpt lat="41.984201" lon="2.541284">
        <ele>241.226</ele>
        <time>2021-05-27T06:49:51Z</time>
      </trkpt>
      <trkpt lat="41.984208" lon="2.541258">
        <ele>241.671</ele>
        <time>2021-05-27T06:49:53Z</time>
      </trkpt>
      <trkpt lat="41.984201" lon="2.541228">
        <ele>241.644</ele>
        <time>2021-05-27T06:49:55Z</time>
      </trkpt>
      <trkpt lat="41.984200" lon="2.541204">
        <ele>241.710</ele>
        <time>2021-05-27T06:49:57Z</time>
      </trkpt>
      <trkpt lat="41.984200" lon="2.541177">
        <ele>241.917</ele>
        <time>2021-05-27T06:49:59Z</time>
      </trkpt>
      <trkpt lat="41.984203" lon="2.541147">
        <ele>242.387</ele>
        <time>2021-05-27T06:50:01Z</time>
      </trkpt>
      <trkpt lat="41.984204" lon="2.541116">
        <ele>242.615</ele>
        <time>2021-05-27T06:50:03Z</time>
      </trkpt>
      <trkpt lat="41.984199" lon="2.541087">
        <ele>242.608</ele>
        <time>2021-05-27T06:50:05Z</time>
      </trkpt>
      <trkpt lat="41.984197" lon="2.541057">
        <ele>242.798</ele>
        <time>2021-05-27T06:50:07Z</time>
      </trkpt>
      <trkpt lat="41.984199" lon="2.541027">
        <ele>243.055</ele>
        <time>2021-05-27T06:50:09Z</time>
      </trkpt>
      <trkpt lat="41.984204" lon="2.540997">
        <ele>243.453</ele>
        <time>2021-05-27T06:50:11Z</time>
      </trkpt>
      <trkpt lat="41.984198" lon="2.540965">
        <ele>243.413</ele>
        <time>2021-05-27T06:50:13Z</time>
      </trkpt>
      <trkpt lat="41.984195" lon="2.540936">
        <ele>243.520</ele>
        <time>2021-05-27T06:50:15Z</time>
      </trkpt>
      <trkpt lat="41.984190" lon="2.540909">
        <ele>243.595</ele>
        <time>2021-05-27T06:50:17Z</time>
      </trkpt>
      <trkpt lat="41.984184" lon="2.540879">
        <ele>243.448</ele>
        <time>2021-05-27T06:50:19Z</time>
      </trkpt>
      <trkpt lat="41.984181" lon="2.540848">
        <ele>243.514</ele>
        <time>2021-05-27T06:50:21Z</time>
      </trkpt>
      <trkpt lat="41.984179" lon="2.540818">
        <ele>243.552</ele>
        <time>2021-05-27T06:50:23Z</time>
      </trkpt>
      <trkpt lat="41.984179" lon="2.540789">
        <ele>243.553</ele>
        <time>2021-05-27T06:50:25Z</time>
      </trkpt>
      <trkpt lat="41.984183" lon="2.540752">
        <ele>243.708</ele>
        <time>2021-05-27T06:50:27Z</time>
      </trkpt>
      <trkpt lat="41.984188" lon="2.540715">
        <ele>243.908</ele>
        <time>2021-05-27T06:50:29Z</time>
      </trkpt>
      <trkpt lat="41.984184" lon="2.540686">
        <ele>243.742</ele>
        <time>2021-05-27T06:50:31Z</time>
      </trkpt>
      <trkpt lat="41.984181" lon="2.540658">
        <ele>243.669</ele>
        <time>2021-05-27T06:50:33Z</time>
      </trkpt>
      <trkpt lat="41.984179" lon="2.540625">
        <ele>243.537</ele>
        <time>2021-05-27T06:50:35Z</time>
      </trkpt>
      <trkpt lat="41.984178" lon="2.540590">
        <ele>243.527</ele>
        <time>2021-05-27T06:50:37Z</time>
      </trkpt>
      <trkpt lat="41.984178" lon="2.540558">
        <ele>243.574</ele>
        <time>2021-05-27T06:50:39Z</time>
      </trkpt>
      <trkpt lat="41.984181" lon="2.540522">
        <ele>243.649</ele>
        <time>2021-05-27T06:50:41Z</time>
      </trkpt>
      <trkpt lat="41.984183" lon="2.540488">
        <ele>243.722</ele>
        <time>2021-05-27T06:50:43Z</time>
      </trkpt>
      <trkpt lat="41.984183" lon="2.540455">
        <ele>243.788</ele>
        <time>2021-05-27T06:50:45Z</time>
      </trkpt>
      <trkpt lat="41.984186" lon="2.540421">
        <ele>243.851</ele>
        <time>2021-05-27T06:50:47Z</time>
      </trkpt>
      <trkpt lat="41.984187" lon="2.540388">
        <ele>243.801</ele>
        <time>2021-05-27T06:50:49Z</time>
      </trkpt>
      <trkpt lat="41.984190" lon="2.540357">
        <ele>243.911</ele>
        <time>2021-05-27T06:50:51Z</time>
      </trkpt>
      <trkpt lat="41.984194" lon="2.540325">
        <ele>244.008</ele>
        <time>2021-05-27T06:50:53Z</time>
      </trkpt>
      <trkpt lat="41.984200" lon="2.540292">
        <ele>244.212</ele>
        <time>2021-05-27T06:50:55Z</time>
      </trkpt>
      <trkpt lat="41.984205" lon="2.540260">
        <ele>244.269</ele>
        <time>2021-05-27T06:50:57Z</time>
      </trkpt>
      <trkpt lat="41.984209" lon="2.540228">
        <ele>244.137</ele>
        <time>2021-05-27T06:50:59Z</time>
      </trkpt>
      <trkpt lat="41.984218" lon="2.540196">
        <ele>244.247</ele>
        <time>2021-05-27T06:51:01Z</time>
      </trkpt>
      <trkpt lat="41.984230" lon="2.540165">
        <ele>244.454</ele>
        <time>2021-05-27T06:51:03Z</time>
      </trkpt>
      <trkpt lat="41.984240" lon="2.540136">
        <ele>244.589</ele>
        <time>2021-05-27T06:51:05Z</time>
      </trkpt>
      <trkpt lat="41.984253" lon="2.540108">
        <ele>244.742</ele>
        <time>2021-05-27T06:51:07Z</time>
      </trkpt>
      <trkpt lat="41.984265" lon="2.540076">
        <ele>244.888</ele>
        <time>2021-05-27T06:51:09Z</time>
      </trkpt>
      <trkpt lat="41.984271" lon="2.540046">
        <ele>244.824</ele>
        <time>2021-05-27T06:51:11Z</time>
      </trkpt>
      <trkpt lat="41.984278" lon="2.540018">
        <ele>244.804</ele>
        <time>2021-05-27T06:51:13Z</time>
      </trkpt>
      <trkpt lat="41.984284" lon="2.539985">
        <ele>244.614</ele>
        <time>2021-05-27T06:51:15Z</time>
      </trkpt>
      <trkpt lat="41.984291" lon="2.539955">
        <ele>244.508</ele>
        <time>2021-05-27T06:51:17Z</time>
      </trkpt>
      <trkpt lat="41.984298" lon="2.539925">
        <ele>244.399</ele>
        <time>2021-05-27T06:51:19Z</time>
      </trkpt>
      <trkpt lat="41.984308" lon="2.539894">
        <ele>244.266</ele>
        <time>2021-05-27T06:51:21Z</time>
      </trkpt>
      <trkpt lat="41.984319" lon="2.539864">
        <ele>244.224</ele>
        <time>2021-05-27T06:51:23Z</time>
      </trkpt>
      <trkpt lat="41.984329" lon="2.539833">
        <ele>244.164</ele>
        <time>2021-05-27T06:51:25Z</time>
      </trkpt>
      <trkpt lat="41.984340" lon="2.539802">
        <ele>244.031</ele>
        <time>2021-05-27T06:51:27Z</time>
      </trkpt>
      <trkpt lat="41.984348" lon="2.539772">
        <ele>243.956</ele>
        <time>2021-05-27T06:51:29Z</time>
      </trkpt>
      <trkpt lat="41.984360" lon="2.539745">
        <ele>243.939</ele>
        <time>2021-05-27T06:51:31Z</time>
      </trkpt>
      <trkpt lat="41.984368" lon="2.539715">
        <ele>243.785</ele>
        <time>2021-05-27T06:51:33Z</time>
      </trkpt>
      <trkpt lat="41.984379" lon="2.539684">
        <ele>243.651</ele>
        <time>2021-05-27T06:51:35Z</time>
      </trkpt>
      <trkpt lat="41.984385" lon="2.539654">
        <ele>243.401</ele>
        <time>2021-05-27T06:51:37Z</time>
      </trkpt>
      <trkpt lat="41.984394" lon="2.539624">
        <ele>243.311</ele>
        <time>2021-05-27T06:51:39Z</time>
      </trkpt>
      <trkpt lat="41.984404" lon="2.539595">
        <ele>243.108</ele>
        <time>2021-05-27T06:51:41Z</time>
      </trkpt>
      <trkpt lat="41.984417" lon="2.539565">
        <ele>243.172</ele>
        <time>2021-05-27T06:51:43Z</time>
      </trkpt>
      <trkpt lat="41.984426" lon="2.539532">
        <ele>242.889</ele>
        <time>2021-05-27T06:51:45Z</time>
      </trkpt>
      <trkpt lat="41.984431" lon="2.539497">
        <ele>242.427</ele>
        <time>2021-05-27T06:51:47Z</time>
      </trkpt>
      <trkpt lat="41.984431" lon="2.539462">
        <ele>242.097</ele>
        <time>2021-05-27T06:51:49Z</time>
      </trkpt>
      <trkpt lat="41.984435" lon="2.539430">
        <ele>241.614</ele>
        <time>2021-05-27T06:51:51Z</time>
      </trkpt>
      <trkpt lat="41.984440" lon="2.539398">
        <ele>241.229</ele>
        <time>2021-05-27T06:51:53Z</time>
      </trkpt>
      <trkpt lat="41.984446" lon="2.539368">
        <ele>241.062</ele>
        <time>2021-05-27T06:51:55Z</time>
      </trkpt>
      <trkpt lat="41.984457" lon="2.539337">
        <ele>241.098</ele>
        <time>2021-05-27T06:51:57Z</time>
      </trkpt>
      <trkpt lat="41.984469" lon="2.539307">
        <ele>241.198</ele>
        <time>2021-05-27T06:51:59Z</time>
      </trkpt>
      <trkpt lat="41.984480" lon="2.539277">
        <ele>241.115</ele>
        <time>2021-05-27T06:52:01Z</time>
      </trkpt>
      <trkpt lat="41.984491" lon="2.539248">
        <ele>241.226</ele>
        <time>2021-05-27T06:52:03Z</time>
      </trkpt>
      <trkpt lat="41.984503" lon="2.539220">
        <ele>241.208</ele>
        <time>2021-05-27T06:52:05Z</time>
      </trkpt>
      <trkpt lat="41.984513" lon="2.539191">
        <ele>241.166</ele>
        <time>2021-05-27T06:52:07Z</time>
      </trkpt>
      <trkpt lat="41.984491" lon="2.539198">
        <ele>240.483</ele>
        <time>2021-05-27T06:52:10Z</time>
      </trkpt>
      <trkpt lat="41.984506" lon="2.539169">
        <ele>240.561</ele>
        <time>2021-05-27T06:52:22Z</time>
      </trkpt>
      <trkpt lat="41.984517" lon="2.539138">
        <ele>240.571</ele>
        <time>2021-05-27T06:52:25Z</time>
      </trkpt>
      <trkpt lat="41.984530" lon="2.539108">
        <ele>240.778</ele>
        <time>2021-05-27T06:52:26Z</time>
      </trkpt>
      <trkpt lat="41.984539" lon="2.539078">
        <ele>240.713</ele>
        <time>2021-05-27T06:52:28Z</time>
      </trkpt>
      <trkpt lat="41.984551" lon="2.539055">
        <ele>240.996</ele>
        <time>2021-05-27T06:52:30Z</time>
      </trkpt>
      <trkpt lat="41.984562" lon="2.539026">
        <ele>240.952</ele>
        <time>2021-05-27T06:52:32Z</time>
      </trkpt>
      <trkpt lat="41.984572" lon="2.538998">
        <ele>241.026</ele>
        <time>2021-05-27T06:52:34Z</time>
      </trkpt>
      <trkpt lat="41.984584" lon="2.538967">
        <ele>241.047</ele>
        <time>2021-05-27T06:52:36Z</time>
      </trkpt>
      <trkpt lat="41.984593" lon="2.538935">
        <ele>240.911</ele>
        <time>2021-05-27T06:52:38Z</time>
      </trkpt>
      <trkpt lat="41.984602" lon="2.538901">
        <ele>240.808</ele>
        <time>2021-05-27T06:52:40Z</time>
      </trkpt>
      <trkpt lat="41.984615" lon="2.538867">
        <ele>241.069</ele>
        <time>2021-05-27T06:52:42Z</time>
      </trkpt>
      <trkpt lat="41.984627" lon="2.538833">
        <ele>241.236</ele>
        <time>2021-05-27T06:52:44Z</time>
      </trkpt>
      <trkpt lat="41.984638" lon="2.538800">
        <ele>241.384</ele>
        <time>2021-05-27T06:52:46Z</time>
      </trkpt>
      <trkpt lat="41.984648" lon="2.538765">
        <ele>241.424</ele>
        <time>2021-05-27T06:52:48Z</time>
      </trkpt>
      <trkpt lat="41.984657" lon="2.538732">
        <ele>241.511</ele>
        <time>2021-05-27T06:52:50Z</time>
      </trkpt>
      <trkpt lat="41.984666" lon="2.538699">
        <ele>241.686</ele>
        <time>2021-05-27T06:52:52Z</time>
      </trkpt>
      <trkpt lat="41.984676" lon="2.538666">
        <ele>241.789</ele>
        <time>2021-05-27T06:52:54Z</time>
      </trkpt>
      <trkpt lat="41.984686" lon="2.538633">
        <ele>241.945</ele>
        <time>2021-05-27T06:52:56Z</time>
      </trkpt>
      <trkpt lat="41.984693" lon="2.538600">
        <ele>241.872</ele>
        <time>2021-05-27T06:52:58Z</time>
      </trkpt>
      <trkpt lat="41.984701" lon="2.538570">
        <ele>241.813</ele>
        <time>2021-05-27T06:53:00Z</time>
      </trkpt>
      <trkpt lat="41.984712" lon="2.538539">
        <ele>241.914</ele>
        <time>2021-05-27T06:53:02Z</time>
      </trkpt>
      <trkpt lat="41.984719" lon="2.538504">
        <ele>241.708</ele>
        <time>2021-05-27T06:53:04Z</time>
      </trkpt>
      <trkpt lat="41.984730" lon="2.538466">
        <ele>241.844</ele>
        <time>2021-05-27T06:53:06Z</time>
      </trkpt>
      <trkpt lat="41.984742" lon="2.538433">
        <ele>242.151</ele>
        <time>2021-05-27T06:53:08Z</time>
      </trkpt>
      <trkpt lat="41.984753" lon="2.538401">
        <ele>242.329</ele>
        <time>2021-05-27T06:53:10Z</time>
      </trkpt>
      <trkpt lat="41.984766" lon="2.538366">
        <ele>242.639</ele>
        <time>2021-05-27T06:53:12Z</time>
      </trkpt>
      <trkpt lat="41.984774" lon="2.538332">
        <ele>242.636</ele>
        <time>2021-05-27T06:53:14Z</time>
      </trkpt>
      <trkpt lat="41.984780" lon="2.538298">
        <ele>242.731</ele>
        <time>2021-05-27T06:53:16Z</time>
      </trkpt>
      <trkpt lat="41.984789" lon="2.538266">
        <ele>242.934</ele>
        <time>2021-05-27T06:53:18Z</time>
      </trkpt>
      <trkpt lat="41.984801" lon="2.538235">
        <ele>243.370</ele>
        <time>2021-05-27T06:53:20Z</time>
      </trkpt>
      <trkpt lat="41.984815" lon="2.538202">
        <ele>243.736</ele>
        <time>2021-05-27T06:53:22Z</time>
      </trkpt>
      <trkpt lat="41.984826" lon="2.538173">
        <ele>244.017</ele>
        <time>2021-05-27T06:53:24Z</time>
      </trkpt>
      <trkpt lat="41.984840" lon="2.538143">
        <ele>244.418</ele>
        <time>2021-05-27T06:53:26Z</time>
      </trkpt>
      <trkpt lat="41.984851" lon="2.538114">
        <ele>244.608</ele>
        <time>2021-05-27T06:53:28Z</time>
      </trkpt>
      <trkpt lat="41.984859" lon="2.538087">
        <ele>244.740</ele>
        <time>2021-05-27T06:53:30Z</time>
      </trkpt>
      <trkpt lat="41.984868" lon="2.538059">
        <ele>244.817</ele>
        <time>2021-05-27T06:53:32Z</time>
      </trkpt>
      <trkpt lat="41.984880" lon="2.538030">
        <ele>245.285</ele>
        <time>2021-05-27T06:53:34Z</time>
      </trkpt>
      <trkpt lat="41.984893" lon="2.537995">
        <ele>245.755</ele>
        <time>2021-05-27T06:53:36Z</time>
      </trkpt>
      <trkpt lat="41.984906" lon="2.537960">
        <ele>246.262</ele>
        <time>2021-05-27T06:53:38Z</time>
      </trkpt>
      <trkpt lat="41.984918" lon="2.537926">
        <ele>246.677</ele>
        <time>2021-05-27T06:53:40Z</time>
      </trkpt>
      <trkpt lat="41.984928" lon="2.537891">
        <ele>246.910</ele>
        <time>2021-05-27T06:53:42Z</time>
      </trkpt>
      <trkpt lat="41.984941" lon="2.537859">
        <ele>247.316</ele>
        <time>2021-05-27T06:53:44Z</time>
      </trkpt>
      <trkpt lat="41.984957" lon="2.537828">
        <ele>247.785</ele>
        <time>2021-05-27T06:53:46Z</time>
      </trkpt>
      <trkpt lat="41.984971" lon="2.537797">
        <ele>248.189</ele>
        <time>2021-05-27T06:53:48Z</time>
      </trkpt>
      <trkpt lat="41.984986" lon="2.537767">
        <ele>248.517</ele>
        <time>2021-05-27T06:53:50Z</time>
      </trkpt>
      <trkpt lat="41.985002" lon="2.537735">
        <ele>248.808</ele>
        <time>2021-05-27T06:53:52Z</time>
      </trkpt>
      <trkpt lat="41.985015" lon="2.537703">
        <ele>249.085</ele>
        <time>2021-05-27T06:53:54Z</time>
      </trkpt>
      <trkpt lat="41.985027" lon="2.537672">
        <ele>249.332</ele>
        <time>2021-05-27T06:53:56Z</time>
      </trkpt>
      <trkpt lat="41.985040" lon="2.537640">
        <ele>249.510</ele>
        <time>2021-05-27T06:53:58Z</time>
      </trkpt>
      <trkpt lat="41.985053" lon="2.537608">
        <ele>249.870</ele>
        <time>2021-05-27T06:54:00Z</time>
      </trkpt>
      <trkpt lat="41.985067" lon="2.537576">
        <ele>250.097</ele>
        <time>2021-05-27T06:54:02Z</time>
      </trkpt>
      <trkpt lat="41.985080" lon="2.537544">
        <ele>250.282</ele>
        <time>2021-05-27T06:54:04Z</time>
      </trkpt>
      <trkpt lat="41.985092" lon="2.537512">
        <ele>250.485</ele>
        <time>2021-05-27T06:54:06Z</time>
      </trkpt>
      <trkpt lat="41.985106" lon="2.537481">
        <ele>250.421</ele>
        <time>2021-05-27T06:54:08Z</time>
      </trkpt>
      <trkpt lat="41.985119" lon="2.537448">
        <ele>250.358</ele>
        <time>2021-05-27T06:54:10Z</time>
      </trkpt>
      <trkpt lat="41.985128" lon="2.537413">
        <ele>249.952</ele>
        <time>2021-05-27T06:54:12Z</time>
      </trkpt>
      <trkpt lat="41.985136" lon="2.537377">
        <ele>249.517</ele>
        <time>2021-05-27T06:54:14Z</time>
      </trkpt>
      <trkpt lat="41.985148" lon="2.537345">
        <ele>249.208</ele>
        <time>2021-05-27T06:54:16Z</time>
      </trkpt>
      <trkpt lat="41.985154" lon="2.537312">
        <ele>248.832</ele>
        <time>2021-05-27T06:54:18Z</time>
      </trkpt>
      <trkpt lat="41.985161" lon="2.537277">
        <ele>248.369</ele>
        <time>2021-05-27T06:54:20Z</time>
      </trkpt>
      <trkpt lat="41.985173" lon="2.537239">
        <ele>247.937</ele>
        <time>2021-05-27T06:54:22Z</time>
      </trkpt>
      <trkpt lat="41.985180" lon="2.537202">
        <ele>247.897</ele>
        <time>2021-05-27T06:54:24Z</time>
      </trkpt>
      <trkpt lat="41.985187" lon="2.537165">
        <ele>247.914</ele>
        <time>2021-05-27T06:54:26Z</time>
      </trkpt>
      <trkpt lat="41.985193" lon="2.537128">
        <ele>247.979</ele>
        <time>2021-05-27T06:54:28Z</time>
      </trkpt>
      <trkpt lat="41.985200" lon="2.537089">
        <ele>248.092</ele>
        <time>2021-05-27T06:54:30Z</time>
      </trkpt>
      <trkpt lat="41.985205" lon="2.537052">
        <ele>248.028</ele>
        <time>2021-05-27T06:54:32Z</time>
      </trkpt>
      <trkpt lat="41.985208" lon="2.537016">
        <ele>248.048</ele>
        <time>2021-05-27T06:54:34Z</time>
      </trkpt>
      <trkpt lat="41.985208" lon="2.536976">
        <ele>247.961</ele>
        <time>2021-05-27T06:54:36Z</time>
      </trkpt>
      <trkpt lat="41.985213" lon="2.536935">
        <ele>247.917</ele>
        <time>2021-05-27T06:54:38Z</time>
      </trkpt>
      <trkpt lat="41.985222" lon="2.536897">
        <ele>248.308</ele>
        <time>2021-05-27T06:54:40Z</time>
      </trkpt>
      <trkpt lat="41.985233" lon="2.536858">
        <ele>248.821</ele>
        <time>2021-05-27T06:54:42Z</time>
      </trkpt>
      <trkpt lat="41.985240" lon="2.536819">
        <ele>249.138</ele>
        <time>2021-05-27T06:54:44Z</time>
      </trkpt>
      <trkpt lat="41.985254" lon="2.536761">
        <ele>249.886</ele>
        <time>2021-05-27T06:54:47Z</time>
      </trkpt>
      <trkpt lat="41.985253" lon="2.536720">
        <ele>249.916</ele>
        <time>2021-05-27T06:54:49Z</time>
      </trkpt>
      <trkpt lat="41.985253" lon="2.536686">
        <ele>250.063</ele>
        <time>2021-05-27T06:54:51Z</time>
      </trkpt>
      <trkpt lat="41.985251" lon="2.536653">
        <ele>250.038</ele>
        <time>2021-05-27T06:54:53Z</time>
      </trkpt>
      <trkpt lat="41.985247" lon="2.536616">
        <ele>250.111</ele>
        <time>2021-05-27T06:54:55Z</time>
      </trkpt>
      <trkpt lat="41.985251" lon="2.536581">
        <ele>250.547</ele>
        <time>2021-05-27T06:54:57Z</time>
      </trkpt>
      <trkpt lat="41.985256" lon="2.536543">
        <ele>251.058</ele>
        <time>2021-05-27T06:54:59Z</time>
      </trkpt>
      <trkpt lat="41.985262" lon="2.536506">
        <ele>251.552</ele>
        <time>2021-05-27T06:55:01Z</time>
      </trkpt>
      <trkpt lat="41.985268" lon="2.536470">
        <ele>252.017</ele>
        <time>2021-05-27T06:55:03Z</time>
      </trkpt>
      <trkpt lat="41.985272" lon="2.536438">
        <ele>252.408</ele>
        <time>2021-05-27T06:55:05Z</time>
      </trkpt>
      <trkpt lat="41.985275" lon="2.536402">
        <ele>252.862</ele>
        <time>2021-05-27T06:55:07Z</time>
      </trkpt>
      <trkpt lat="41.985275" lon="2.536368">
        <ele>253.039</ele>
        <time>2021-05-27T06:55:09Z</time>
      </trkpt>
      <trkpt lat="41.985280" lon="2.536335">
        <ele>253.377</ele>
        <time>2021-05-27T06:55:11Z</time>
      </trkpt>
      <trkpt lat="41.985283" lon="2.536302">
        <ele>253.667</ele>
        <time>2021-05-27T06:55:13Z</time>
      </trkpt>
      <trkpt lat="41.985285" lon="2.536270">
        <ele>253.864</ele>
        <time>2021-05-27T06:55:15Z</time>
      </trkpt>
      <trkpt lat="41.985287" lon="2.536237">
        <ele>254.059</ele>
        <time>2021-05-27T06:55:17Z</time>
      </trkpt>
      <trkpt lat="41.985292" lon="2.536203">
        <ele>254.392</ele>
        <time>2021-05-27T06:55:19Z</time>
      </trkpt>
      <trkpt lat="41.985296" lon="2.536170">
        <ele>254.628</ele>
        <time>2021-05-27T06:55:21Z</time>
      </trkpt>
      <trkpt lat="41.985303" lon="2.536138">
        <ele>255.146</ele>
        <time>2021-05-27T06:55:23Z</time>
      </trkpt>
      <trkpt lat="41.985306" lon="2.536105">
        <ele>255.388</ele>
        <time>2021-05-27T06:55:25Z</time>
      </trkpt>
      <trkpt lat="41.985313" lon="2.536071">
        <ele>255.416</ele>
        <time>2021-05-27T06:55:27Z</time>
      </trkpt>
      <trkpt lat="41.985318" lon="2.536037">
        <ele>255.408</ele>
        <time>2021-05-27T06:55:29Z</time>
      </trkpt>
      <trkpt lat="41.985321" lon="2.536002">
        <ele>255.371</ele>
        <time>2021-05-27T06:55:31Z</time>
      </trkpt>
      <trkpt lat="41.985326" lon="2.535972">
        <ele>255.338</ele>
        <time>2021-05-27T06:55:33Z</time>
      </trkpt>
      <trkpt lat="41.985338" lon="2.535942">
        <ele>255.786</ele>
        <time>2021-05-27T06:55:35Z</time>
      </trkpt>
      <trkpt lat="41.985347" lon="2.535909">
        <ele>256.096</ele>
        <time>2021-05-27T06:55:37Z</time>
      </trkpt>
      <trkpt lat="41.985358" lon="2.535874">
        <ele>256.393</ele>
        <time>2021-05-27T06:55:39Z</time>
      </trkpt>
      <trkpt lat="41.985369" lon="2.535840">
        <ele>256.688</ele>
        <time>2021-05-27T06:55:41Z</time>
      </trkpt>
      <trkpt lat="41.985378" lon="2.535808">
        <ele>257.031</ele>
        <time>2021-05-27T06:55:43Z</time>
      </trkpt>
      <trkpt lat="41.985387" lon="2.535775">
        <ele>257.487</ele>
        <time>2021-05-27T06:55:45Z</time>
      </trkpt>
      <trkpt lat="41.985395" lon="2.535738">
        <ele>257.718</ele>
        <time>2021-05-27T06:55:47Z</time>
      </trkpt>
      <trkpt lat="41.985406" lon="2.535699">
        <ele>258.298</ele>
        <time>2021-05-27T06:55:49Z</time>
      </trkpt>
      <trkpt lat="41.985408" lon="2.535662">
        <ele>258.217</ele>
        <time>2021-05-27T06:55:51Z</time>
      </trkpt>
      <trkpt lat="41.985411" lon="2.535628">
        <ele>258.308</ele>
        <time>2021-05-27T06:55:53Z</time>
      </trkpt>
      <trkpt lat="41.985418" lon="2.535592">
        <ele>258.618</ele>
        <time>2021-05-27T06:55:55Z</time>
      </trkpt>
      <trkpt lat="41.985427" lon="2.535555">
        <ele>259.155</ele>
        <time>2021-05-27T06:55:57Z</time>
      </trkpt>
      <trkpt lat="41.985433" lon="2.535518">
        <ele>259.813</ele>
        <time>2021-05-27T06:55:59Z</time>
      </trkpt>
      <trkpt lat="41.985437" lon="2.535484">
        <ele>260.563</ele>
        <time>2021-05-27T06:56:01Z</time>
      </trkpt>
      <trkpt lat="41.985440" lon="2.535448">
        <ele>261.130</ele>
        <time>2021-05-27T06:56:03Z</time>
      </trkpt>
      <trkpt lat="41.985440" lon="2.535415">
        <ele>261.575</ele>
        <time>2021-05-27T06:56:05Z</time>
      </trkpt>
      <trkpt lat="41.985440" lon="2.535377">
        <ele>262.088</ele>
        <time>2021-05-27T06:56:07Z</time>
      </trkpt>
      <trkpt lat="41.985437" lon="2.535343">
        <ele>262.244</ele>
        <time>2021-05-27T06:56:09Z</time>
      </trkpt>
      <trkpt lat="41.985431" lon="2.535307">
        <ele>262.413</ele>
        <time>2021-05-27T06:56:11Z</time>
      </trkpt>
      <trkpt lat="41.985428" lon="2.535271">
        <ele>262.743</ele>
        <time>2021-05-27T06:56:13Z</time>
      </trkpt>
      <trkpt lat="41.985428" lon="2.535235">
        <ele>263.107</ele>
        <time>2021-05-27T06:56:15Z</time>
      </trkpt>
      <trkpt lat="41.985427" lon="2.535198">
        <ele>263.508</ele>
        <time>2021-05-27T06:56:17Z</time>
      </trkpt>
      <trkpt lat="41.985425" lon="2.535160">
        <ele>263.978</ele>
        <time>2021-05-27T06:56:19Z</time>
      </trkpt>
      <trkpt lat="41.985422" lon="2.535122">
        <ele>264.275</ele>
        <time>2021-05-27T06:56:21Z</time>
      </trkpt>
      <trkpt lat="41.985420" lon="2.535086">
        <ele>264.653</ele>
        <time>2021-05-27T06:56:23Z</time>
      </trkpt>
      <trkpt lat="41.985418" lon="2.535051">
        <ele>264.963</ele>
        <time>2021-05-27T06:56:25Z</time>
      </trkpt>
      <trkpt lat="41.985417" lon="2.535011">
        <ele>265.480</ele>
        <time>2021-05-27T06:56:27Z</time>
      </trkpt>
      <trkpt lat="41.985416" lon="2.534973">
        <ele>265.935</ele>
        <time>2021-05-27T06:56:29Z</time>
      </trkpt>
      <trkpt lat="41.985415" lon="2.534937">
        <ele>266.498</ele>
        <time>2021-05-27T06:56:31Z</time>
      </trkpt>
      <trkpt lat="41.985416" lon="2.534897">
        <ele>267.194</ele>
        <time>2021-05-27T06:56:33Z</time>
      </trkpt>
      <trkpt lat="41.985417" lon="2.534859">
        <ele>267.814</ele>
        <time>2021-05-27T06:56:35Z</time>
      </trkpt>
      <trkpt lat="41.985415" lon="2.534826">
        <ele>268.254</ele>
        <time>2021-05-27T06:56:37Z</time>
      </trkpt>
      <trkpt lat="41.985412" lon="2.534793">
        <ele>268.609</ele>
        <time>2021-05-27T06:56:39Z</time>
      </trkpt>
      <trkpt lat="41.985409" lon="2.534757">
        <ele>269.008</ele>
        <time>2021-05-27T06:56:41Z</time>
      </trkpt>
      <trkpt lat="41.985404" lon="2.534722">
        <ele>269.418</ele>
        <time>2021-05-27T06:56:43Z</time>
      </trkpt>
      <trkpt lat="41.985404" lon="2.534684">
        <ele>269.855</ele>
        <time>2021-05-27T06:56:45Z</time>
      </trkpt>
      <trkpt lat="41.985399" lon="2.534647">
        <ele>269.963</ele>
        <time>2021-05-27T06:56:47Z</time>
      </trkpt>
      <trkpt lat="41.985398" lon="2.534610">
        <ele>270.373</ele>
        <time>2021-05-27T06:56:49Z</time>
      </trkpt>
      <trkpt lat="41.985392" lon="2.534573">
        <ele>270.490</ele>
        <time>2021-05-27T06:56:51Z</time>
      </trkpt>
      <trkpt lat="41.985388" lon="2.534534">
        <ele>270.635</ele>
        <time>2021-05-27T06:56:53Z</time>
      </trkpt>
      <trkpt lat="41.985382" lon="2.534498">
        <ele>270.758</ele>
        <time>2021-05-27T06:56:55Z</time>
      </trkpt>
      <trkpt lat="41.985377" lon="2.534465">
        <ele>270.854</ele>
        <time>2021-05-27T06:56:57Z</time>
      </trkpt>
      <trkpt lat="41.985374" lon="2.534432">
        <ele>270.966</ele>
        <time>2021-05-27T06:56:59Z</time>
      </trkpt>
      <trkpt lat="41.985366" lon="2.534401">
        <ele>270.829</ele>
        <time>2021-05-27T06:57:02Z</time>
      </trkpt>
      <trkpt lat="41.985361" lon="2.534367">
        <ele>270.821</ele>
        <time>2021-05-27T06:57:03Z</time>
      </trkpt>
      <trkpt lat="41.985355" lon="2.534329">
        <ele>270.708</ele>
        <time>2021-05-27T06:57:05Z</time>
      </trkpt>
      <trkpt lat="41.985352" lon="2.534293">
        <ele>270.843</ele>
        <time>2021-05-27T06:57:07Z</time>
      </trkpt>
      <trkpt lat="41.985351" lon="2.534254">
        <ele>271.190</ele>
        <time>2021-05-27T06:57:09Z</time>
      </trkpt>
      <trkpt lat="41.985350" lon="2.534217">
        <ele>271.368</ele>
        <time>2021-05-27T06:57:11Z</time>
      </trkpt>
      <trkpt lat="41.985354" lon="2.534181">
        <ele>271.728</ele>
        <time>2021-05-27T06:57:13Z</time>
      </trkpt>
      <trkpt lat="41.985365" lon="2.534146">
        <ele>272.525</ele>
        <time>2021-05-27T06:57:15Z</time>
      </trkpt>
      <trkpt lat="41.985371" lon="2.534115">
        <ele>272.950</ele>
        <time>2021-05-27T06:57:17Z</time>
      </trkpt>
      <trkpt lat="41.985380" lon="2.534083">
        <ele>273.563</ele>
        <time>2021-05-27T06:57:19Z</time>
      </trkpt>
      <trkpt lat="41.985388" lon="2.534052">
        <ele>274.049</ele>
        <time>2021-05-27T06:57:21Z</time>
      </trkpt>
      <trkpt lat="41.985394" lon="2.534018">
        <ele>274.526</ele>
        <time>2021-05-27T06:57:23Z</time>
      </trkpt>
      <trkpt lat="41.985406" lon="2.533986">
        <ele>275.447</ele>
        <time>2021-05-27T06:57:25Z</time>
      </trkpt>
      <trkpt lat="41.985417" lon="2.533955">
        <ele>276.211</ele>
        <time>2021-05-27T06:57:27Z</time>
      </trkpt>
      <trkpt lat="41.985423" lon="2.533919">
        <ele>276.708</ele>
        <time>2021-05-27T06:57:29Z</time>
      </trkpt>
      <trkpt lat="41.985432" lon="2.533886">
        <ele>277.419</ele>
        <time>2021-05-27T06:57:31Z</time>
      </trkpt>
      <trkpt lat="41.985437" lon="2.533851">
        <ele>277.656</ele>
        <time>2021-05-27T06:57:33Z</time>
      </trkpt>
      <trkpt lat="41.985442" lon="2.533820">
        <ele>277.964</ele>
        <time>2021-05-27T06:57:35Z</time>
      </trkpt>
      <trkpt lat="41.985447" lon="2.533787">
        <ele>278.124</ele>
        <time>2021-05-27T06:57:37Z</time>
      </trkpt>
      <trkpt lat="41.985450" lon="2.533755">
        <ele>278.331</ele>
        <time>2021-05-27T06:57:40Z</time>
      </trkpt>
      <trkpt lat="41.985451" lon="2.533721">
        <ele>278.336</ele>
        <time>2021-05-27T06:57:41Z</time>
      </trkpt>
      <trkpt lat="41.985452" lon="2.533686">
        <ele>278.319</ele>
        <time>2021-05-27T06:57:43Z</time>
      </trkpt>
      <trkpt lat="41.985452" lon="2.533651">
        <ele>278.285</ele>
        <time>2021-05-27T06:57:45Z</time>
      </trkpt>
      <trkpt lat="41.985458" lon="2.533615">
        <ele>278.629</ele>
        <time>2021-05-27T06:57:47Z</time>
      </trkpt>
      <trkpt lat="41.985463" lon="2.533581">
        <ele>278.800</ele>
        <time>2021-05-27T06:57:49Z</time>
      </trkpt>
      <trkpt lat="41.985466" lon="2.533548">
        <ele>278.820</ele>
        <time>2021-05-27T06:57:51Z</time>
      </trkpt>
      <trkpt lat="41.985472" lon="2.533512">
        <ele>279.108</ele>
        <time>2021-05-27T06:57:53Z</time>
      </trkpt>
      <trkpt lat="41.985480" lon="2.533476">
        <ele>279.429</ele>
        <time>2021-05-27T06:57:55Z</time>
      </trkpt>
      <trkpt lat="41.985488" lon="2.533446">
        <ele>279.826</ele>
        <time>2021-05-27T06:57:57Z</time>
      </trkpt>
      <trkpt lat="41.985493" lon="2.533414">
        <ele>280.044</ele>
        <time>2021-05-27T06:57:59Z</time>
      </trkpt>
      <trkpt lat="41.985501" lon="2.533383">
        <ele>280.444</ele>
        <time>2021-05-27T06:58:01Z</time>
      </trkpt>
      <trkpt lat="41.985510" lon="2.533352">
        <ele>280.871</ele>
        <time>2021-05-27T06:58:03Z</time>
      </trkpt>
      <trkpt lat="41.985521" lon="2.533326">
        <ele>281.486</ele>
        <time>2021-05-27T06:58:05Z</time>
      </trkpt>
      <trkpt lat="41.985534" lon="2.533296">
        <ele>282.119</ele>
        <time>2021-05-27T06:58:07Z</time>
      </trkpt>
      <trkpt lat="41.985545" lon="2.533265">
        <ele>282.565</ele>
        <time>2021-05-27T06:58:09Z</time>
      </trkpt>
      <trkpt lat="41.985559" lon="2.533237">
        <ele>283.288</ele>
        <time>2021-05-27T06:58:11Z</time>
      </trkpt>
      <trkpt lat="41.985573" lon="2.533208">
        <ele>283.824</ele>
        <time>2021-05-27T06:58:13Z</time>
      </trkpt>
      <trkpt lat="41.985585" lon="2.533176">
        <ele>284.326</ele>
        <time>2021-05-27T06:58:15Z</time>
      </trkpt>
      <trkpt lat="41.985595" lon="2.533142">
        <ele>284.608</ele>
        <time>2021-05-27T06:58:17Z</time>
      </trkpt>
      <trkpt lat="41.985605" lon="2.533110">
        <ele>285.055</ele>
        <time>2021-05-27T06:58:19Z</time>
      </trkpt>
      <trkpt lat="41.985619" lon="2.533070">
        <ele>285.772</ele>
        <time>2021-05-27T06:58:21Z</time>
      </trkpt>
      <trkpt lat="41.985629" lon="2.533037">
        <ele>286.450</ele>
        <time>2021-05-27T06:58:23Z</time>
      </trkpt>
      <trkpt lat="41.985639" lon="2.533000">
        <ele>287.310</ele>
        <time>2021-05-27T06:58:25Z</time>
      </trkpt>
      <trkpt lat="41.985653" lon="2.532963">
        <ele>288.657</ele>
        <time>2021-05-27T06:58:27Z</time>
      </trkpt>
      <trkpt lat="41.985663" lon="2.532930">
        <ele>289.572</ele>
        <time>2021-05-27T06:58:29Z</time>
      </trkpt>
      <trkpt lat="41.985667" lon="2.532898">
        <ele>289.975</ele>
        <time>2021-05-27T06:58:31Z</time>
      </trkpt>
      <trkpt lat="41.985673" lon="2.532862">
        <ele>290.651</ele>
        <time>2021-05-27T06:58:33Z</time>
      </trkpt>
      <trkpt lat="41.985674" lon="2.532826">
        <ele>290.892</ele>
        <time>2021-05-27T06:58:35Z</time>
      </trkpt>
      <trkpt lat="41.985671" lon="2.532792">
        <ele>290.873</ele>
        <time>2021-05-27T06:58:37Z</time>
      </trkpt>
      <trkpt lat="41.985669" lon="2.532759">
        <ele>290.920</ele>
        <time>2021-05-27T06:58:39Z</time>
      </trkpt>
      <trkpt lat="41.985666" lon="2.532729">
        <ele>291.008</ele>
        <time>2021-05-27T06:58:41Z</time>
      </trkpt>
      <trkpt lat="41.985662" lon="2.532697">
        <ele>291.026</ele>
        <time>2021-05-27T06:58:43Z</time>
      </trkpt>
      <trkpt lat="41.985655" lon="2.532667">
        <ele>290.763</ele>
        <time>2021-05-27T06:58:45Z</time>
      </trkpt>
      <trkpt lat="41.985646" lon="2.532634">
        <ele>290.411</ele>
        <time>2021-05-27T06:58:47Z</time>
      </trkpt>
      <trkpt lat="41.985633" lon="2.532602">
        <ele>289.721</ele>
        <time>2021-05-27T06:58:49Z</time>
      </trkpt>
      <trkpt lat="41.985625" lon="2.532571">
        <ele>289.498</ele>
        <time>2021-05-27T06:58:51Z</time>
      </trkpt>
      <trkpt lat="41.985620" lon="2.532539">
        <ele>289.383</ele>
        <time>2021-05-27T06:58:53Z</time>
      </trkpt>
      <trkpt lat="41.985617" lon="2.532504">
        <ele>289.486</ele>
        <time>2021-05-27T06:58:55Z</time>
      </trkpt>
      <trkpt lat="41.985615" lon="2.532467">
        <ele>289.562</ele>
        <time>2021-05-27T06:58:57Z</time>
      </trkpt>
      <trkpt lat="41.985616" lon="2.532431">
        <ele>289.891</ele>
        <time>2021-05-27T06:58:59Z</time>
      </trkpt>
      <trkpt lat="41.985615" lon="2.532398">
        <ele>290.081</ele>
        <time>2021-05-27T06:59:01Z</time>
      </trkpt>
      <trkpt lat="41.985621" lon="2.532364">
        <ele>290.719</ele>
        <time>2021-05-27T06:59:03Z</time>
      </trkpt>
      <trkpt lat="41.985622" lon="2.532328">
        <ele>291.008</ele>
        <time>2021-05-27T06:59:05Z</time>
      </trkpt>
      <trkpt lat="41.985618" lon="2.532294">
        <ele>291.086</ele>
        <time>2021-05-27T06:59:07Z</time>
      </trkpt>
      <trkpt lat="41.985613" lon="2.532262">
        <ele>290.933</ele>
        <time>2021-05-27T06:59:09Z</time>
      </trkpt>
      <trkpt lat="41.985605" lon="2.532235">
        <ele>290.551</ele>
        <time>2021-05-27T06:59:11Z</time>
      </trkpt>
      <trkpt lat="41.985608" lon="2.532203">
        <ele>291.011</ele>
        <time>2021-05-27T06:59:13Z</time>
      </trkpt>
      <trkpt lat="41.985607" lon="2.532172">
        <ele>291.328</ele>
        <time>2021-05-27T06:59:15Z</time>
      </trkpt>
      <trkpt lat="41.985608" lon="2.532135">
        <ele>291.863</ele>
        <time>2021-05-27T06:59:17Z</time>
      </trkpt>
      <trkpt lat="41.985607" lon="2.532102">
        <ele>292.246</ele>
        <time>2021-05-27T06:59:19Z</time>
      </trkpt>
      <trkpt lat="41.985607" lon="2.532070">
        <ele>292.642</ele>
        <time>2021-05-27T06:59:21Z</time>
      </trkpt>
      <trkpt lat="41.985607" lon="2.532035">
        <ele>293.036</ele>
        <time>2021-05-27T06:59:23Z</time>
      </trkpt>
      <trkpt lat="41.985604" lon="2.532001">
        <ele>293.217</ele>
        <time>2021-05-27T06:59:25Z</time>
      </trkpt>
      <trkpt lat="41.985592" lon="2.531960">
        <ele>292.718</ele>
        <time>2021-05-27T06:59:27Z</time>
      </trkpt>
      <trkpt lat="41.985586" lon="2.531919">
        <ele>292.808</ele>
        <time>2021-05-27T06:59:29Z</time>
      </trkpt>
      <trkpt lat="41.985581" lon="2.531882">
        <ele>292.980</ele>
        <time>2021-05-27T06:59:31Z</time>
      </trkpt>
      <trkpt lat="41.985581" lon="2.531846">
        <ele>293.517</ele>
        <time>2021-05-27T06:59:33Z</time>
      </trkpt>
      <trkpt lat="41.985579" lon="2.531812">
        <ele>293.835</ele>
        <time>2021-05-27T06:59:35Z</time>
      </trkpt>
      <trkpt lat="41.985571" lon="2.531778">
        <ele>293.745</ele>
        <time>2021-05-27T06:59:37Z</time>
      </trkpt>
      <trkpt lat="41.985564" lon="2.531745">
        <ele>293.652</ele>
        <time>2021-05-27T06:59:39Z</time>
      </trkpt>
      <trkpt lat="41.985562" lon="2.531709">
        <ele>293.927</ele>
        <time>2021-05-27T06:59:42Z</time>
      </trkpt>
      <trkpt lat="41.985561" lon="2.531673">
        <ele>294.430</ele>
        <time>2021-05-27T06:59:43Z</time>
      </trkpt>
      <trkpt lat="41.985561" lon="2.531637">
        <ele>294.866</ele>
        <time>2021-05-27T06:59:45Z</time>
      </trkpt>
      <trkpt lat="41.985561" lon="2.531604">
        <ele>295.138</ele>
        <time>2021-05-27T06:59:47Z</time>
      </trkpt>
      <trkpt lat="41.985564" lon="2.531572">
        <ele>295.770</ele>
        <time>2021-05-27T06:59:49Z</time>
      </trkpt>
      <trkpt lat="41.985566" lon="2.531537">
        <ele>296.317</ele>
        <time>2021-05-27T06:59:51Z</time>
      </trkpt>
      <trkpt lat="41.985566" lon="2.531502">
        <ele>296.708</ele>
        <time>2021-05-27T06:59:53Z</time>
      </trkpt>
      <trkpt lat="41.985568" lon="2.531465">
        <ele>297.360</ele>
        <time>2021-05-27T06:59:55Z</time>
      </trkpt>
      <trkpt lat="41.985568" lon="2.531432">
        <ele>297.677</ele>
        <time>2021-05-27T06:59:57Z</time>
      </trkpt>
      <trkpt lat="41.985568" lon="2.531399">
        <ele>298.095</ele>
        <time>2021-05-27T07:00:00Z</time>
      </trkpt>
      <trkpt lat="41.985567" lon="2.531368">
        <ele>298.195</ele>
        <time>2021-05-27T07:00:01Z</time>
      </trkpt>
      <trkpt lat="41.985569" lon="2.531335">
        <ele>298.442</ele>
        <time>2021-05-27T07:00:03Z</time>
      </trkpt>
      <trkpt lat="41.985572" lon="2.531300">
        <ele>298.867</ele>
        <time>2021-05-27T07:00:05Z</time>
      </trkpt>
      <trkpt lat="41.985569" lon="2.531268">
        <ele>298.630</ele>
        <time>2021-05-27T07:00:07Z</time>
      </trkpt>
      <trkpt lat="41.985566" lon="2.531236">
        <ele>298.516</ele>
        <time>2021-05-27T07:00:09Z</time>
      </trkpt>
      <trkpt lat="41.985566" lon="2.531205">
        <ele>298.641</ele>
        <time>2021-05-27T07:00:11Z</time>
      </trkpt>
      <trkpt lat="41.985564" lon="2.531176">
        <ele>298.581</ele>
        <time>2021-05-27T07:00:13Z</time>
      </trkpt>
      <trkpt lat="41.985562" lon="2.531142">
        <ele>298.509</ele>
        <time>2021-05-27T07:00:15Z</time>
      </trkpt>
      <trkpt lat="41.985557" lon="2.531108">
        <ele>298.108</ele>
        <time>2021-05-27T07:00:17Z</time>
      </trkpt>
      <trkpt lat="41.985555" lon="2.531074">
        <ele>298.191</ele>
        <time>2021-05-27T07:00:19Z</time>
      </trkpt>
      <trkpt lat="41.985551" lon="2.531044">
        <ele>297.968</ele>
        <time>2021-05-27T07:00:21Z</time>
      </trkpt>
      <trkpt lat="41.985555" lon="2.531013">
        <ele>298.336</ele>
        <time>2021-05-27T07:00:23Z</time>
      </trkpt>
      <trkpt lat="41.985558" lon="2.530980">
        <ele>298.746</ele>
        <time>2021-05-27T07:00:25Z</time>
      </trkpt>
      <trkpt lat="41.985565" lon="2.530948">
        <ele>299.593</ele>
        <time>2021-05-27T07:00:27Z</time>
      </trkpt>
      <trkpt lat="41.985575" lon="2.530915">
        <ele>300.538</ele>
        <time>2021-05-27T07:00:29Z</time>
      </trkpt>
      <trkpt lat="41.985581" lon="2.530884">
        <ele>301.291</ele>
        <time>2021-05-27T07:00:31Z</time>
      </trkpt>
      <trkpt lat="41.985589" lon="2.530855">
        <ele>302.047</ele>
        <time>2021-05-27T07:00:33Z</time>
      </trkpt>
      <trkpt lat="41.985601" lon="2.530824">
        <ele>303.424</ele>
        <time>2021-05-27T07:00:35Z</time>
      </trkpt>
      <trkpt lat="41.985612" lon="2.530792">
        <ele>304.804</ele>
        <time>2021-05-27T07:00:37Z</time>
      </trkpt>
      <trkpt lat="41.985621" lon="2.530761">
        <ele>306.014</ele>
        <time>2021-05-27T07:00:39Z</time>
      </trkpt>
      <trkpt lat="41.985632" lon="2.530732">
        <ele>307.308</ele>
        <time>2021-05-27T07:00:41Z</time>
      </trkpt>
      <trkpt lat="41.985638" lon="2.530701">
        <ele>308.299</ele>
        <time>2021-05-27T07:00:43Z</time>
      </trkpt>
      <trkpt lat="41.985642" lon="2.530667">
        <ele>308.916</ele>
        <time>2021-05-27T07:00:45Z</time>
      </trkpt>
      <trkpt lat="41.985637" lon="2.530633">
        <ele>308.974</ele>
        <time>2021-05-27T07:00:47Z</time>
      </trkpt>
      <trkpt lat="41.985632" lon="2.530599">
        <ele>308.844</ele>
        <time>2021-05-27T07:00:49Z</time>
      </trkpt>
      <trkpt lat="41.985627" lon="2.530571">
        <ele>308.771</ele>
        <time>2021-05-27T07:00:51Z</time>
      </trkpt>
      <trkpt lat="41.985621" lon="2.530541">
        <ele>308.716</ele>
        <time>2021-05-27T07:00:53Z</time>
      </trkpt>
      <trkpt lat="41.985612" lon="2.530506">
        <ele>308.769</ele>
        <time>2021-05-27T07:00:55Z</time>
      </trkpt>
      <trkpt lat="41.985603" lon="2.530476">
        <ele>308.595</ele>
        <time>2021-05-27T07:00:57Z</time>
      </trkpt>
      <trkpt lat="41.985590" lon="2.530443">
        <ele>308.288</ele>
        <time>2021-05-27T07:00:59Z</time>
      </trkpt>
      <trkpt lat="41.985577" lon="2.530415">
        <ele>307.724</ele>
        <time>2021-05-27T07:01:01Z</time>
      </trkpt>
      <trkpt lat="41.985559" lon="2.530385">
        <ele>307.026</ele>
        <time>2021-05-27T07:01:03Z</time>
      </trkpt>
      <trkpt lat="41.985549" lon="2.530347">
        <ele>307.008</ele>
        <time>2021-05-27T07:01:05Z</time>
      </trkpt>
      <trkpt lat="41.985543" lon="2.530310">
        <ele>307.415</ele>
        <time>2021-05-27T07:01:07Z</time>
      </trkpt>
      <trkpt lat="41.985541" lon="2.530272">
        <ele>308.112</ele>
        <time>2021-05-27T07:01:09Z</time>
      </trkpt>
      <trkpt lat="41.985540" lon="2.530237">
        <ele>309.070</ele>
        <time>2021-05-27T07:01:11Z</time>
      </trkpt>
      <trkpt lat="41.985540" lon="2.530204">
        <ele>309.940</ele>
        <time>2021-05-27T07:01:13Z</time>
      </trkpt>
      <trkpt lat="41.985539" lon="2.530174">
        <ele>310.797</ele>
        <time>2021-05-27T07:01:15Z</time>
      </trkpt>
      <trkpt lat="41.985538" lon="2.530142">
        <ele>311.652</ele>
        <time>2021-05-27T07:01:17Z</time>
      </trkpt>
      <trkpt lat="41.985538" lon="2.530109">
        <ele>312.555</ele>
        <time>2021-05-27T07:01:19Z</time>
      </trkpt>
      <trkpt lat="41.985536" lon="2.530081">
        <ele>313.141</ele>
        <time>2021-05-27T07:01:21Z</time>
      </trkpt>
      <trkpt lat="41.985533" lon="2.530052">
        <ele>313.794</ele>
        <time>2021-05-27T07:01:23Z</time>
      </trkpt>
      <trkpt lat="41.985537" lon="2.530018">
        <ele>315.057</ele>
        <time>2021-05-27T07:01:25Z</time>
      </trkpt>
      <trkpt lat="41.985543" lon="2.529983">
        <ele>316.422</ele>
        <time>2021-05-27T07:01:27Z</time>
      </trkpt>
      <trkpt lat="41.985551" lon="2.529950">
        <ele>317.908</ele>
        <time>2021-05-27T07:01:29Z</time>
      </trkpt>
      <trkpt lat="41.985561" lon="2.529919">
        <ele>319.486</ele>
        <time>2021-05-27T07:01:31Z</time>
      </trkpt>
      <trkpt lat="41.985565" lon="2.529885">
        <ele>320.533</ele>
        <time>2021-05-27T07:01:33Z</time>
      </trkpt>
      <trkpt lat="41.985567" lon="2.529857">
        <ele>321.481</ele>
        <time>2021-05-27T07:01:35Z</time>
      </trkpt>
      <trkpt lat="41.985564" lon="2.529831">
        <ele>321.831</ele>
        <time>2021-05-27T07:01:37Z</time>
      </trkpt>
      <trkpt lat="41.985560" lon="2.529803">
        <ele>322.388</ele>
        <time>2021-05-27T07:01:39Z</time>
      </trkpt>
      <trkpt lat="41.985555" lon="2.529774">
        <ele>322.673</ele>
        <time>2021-05-27T07:01:41Z</time>
      </trkpt>
      <trkpt lat="41.985545" lon="2.529747">
        <ele>322.516</ele>
        <time>2021-05-27T07:01:43Z</time>
      </trkpt>
      <trkpt lat="41.985534" lon="2.529718">
        <ele>322.222</ele>
        <time>2021-05-27T07:01:45Z</time>
      </trkpt>
      <trkpt lat="41.985518" lon="2.529691">
        <ele>321.355</ele>
        <time>2021-05-27T07:01:47Z</time>
      </trkpt>
      <trkpt lat="41.985502" lon="2.529661">
        <ele>320.607</ele>
        <time>2021-05-27T07:01:49Z</time>
      </trkpt>
      <trkpt lat="41.985488" lon="2.529633">
        <ele>319.917</ele>
        <time>2021-05-27T07:01:51Z</time>
      </trkpt>
      <trkpt lat="41.985469" lon="2.529598">
        <ele>319.008</ele>
        <time>2021-05-27T07:01:53Z</time>
      </trkpt>
      <trkpt lat="41.985451" lon="2.529561">
        <ele>318.352</ele>
        <time>2021-05-27T07:01:55Z</time>
      </trkpt>
      <trkpt lat="41.985436" lon="2.529529">
        <ele>317.789</ele>
        <time>2021-05-27T07:01:57Z</time>
      </trkpt>
      <trkpt lat="41.985424" lon="2.529496">
        <ele>317.537</ele>
        <time>2021-05-27T07:01:59Z</time>
      </trkpt>
      <trkpt lat="41.985413" lon="2.529462">
        <ele>317.377</ele>
        <time>2021-05-27T07:02:01Z</time>
      </trkpt>
      <trkpt lat="41.985403" lon="2.529429">
        <ele>317.354</ele>
        <time>2021-05-27T07:02:03Z</time>
      </trkpt>
      <trkpt lat="41.985394" lon="2.529391">
        <ele>317.449</ele>
        <time>2021-05-27T07:02:05Z</time>
      </trkpt>
      <trkpt lat="41.985386" lon="2.529352">
        <ele>317.622</ele>
        <time>2021-05-27T07:02:07Z</time>
      </trkpt>
      <trkpt lat="41.985376" lon="2.529316">
        <ele>317.758</ele>
        <time>2021-05-27T07:02:09Z</time>
      </trkpt>
      <trkpt lat="41.985366" lon="2.529281">
        <ele>317.723</ele>
        <time>2021-05-27T07:02:11Z</time>
      </trkpt>
      <trkpt lat="41.985355" lon="2.529253">
        <ele>317.683</ele>
        <time>2021-05-27T07:02:13Z</time>
      </trkpt>
      <trkpt lat="41.985344" lon="2.529223">
        <ele>317.411</ele>
        <time>2021-05-27T07:02:15Z</time>
      </trkpt>
      <trkpt lat="41.985331" lon="2.529193">
        <ele>317.208</ele>
        <time>2021-05-27T07:02:17Z</time>
      </trkpt>
      <trkpt lat="41.985318" lon="2.529166">
        <ele>316.979</ele>
        <time>2021-05-27T07:02:19Z</time>
      </trkpt>
      <trkpt lat="41.985309" lon="2.529135">
        <ele>317.226</ele>
        <time>2021-05-27T07:02:21Z</time>
      </trkpt>
      <trkpt lat="41.985301" lon="2.529107">
        <ele>317.484</ele>
        <time>2021-05-27T07:02:23Z</time>
      </trkpt>
      <trkpt lat="41.985291" lon="2.529079">
        <ele>317.594</ele>
        <time>2021-05-27T07:02:25Z</time>
      </trkpt>
      <trkpt lat="41.985279" lon="2.529052">
        <ele>317.471</ele>
        <time>2021-05-27T07:02:27Z</time>
      </trkpt>
      <trkpt lat="41.985269" lon="2.529024">
        <ele>317.546</ele>
        <time>2021-05-27T07:02:29Z</time>
      </trkpt>
      <trkpt lat="41.985261" lon="2.528987">
        <ele>318.199</ele>
        <time>2021-05-27T07:02:31Z</time>
      </trkpt>
      <trkpt lat="41.985255" lon="2.528955">
        <ele>318.635</ele>
        <time>2021-05-27T07:02:33Z</time>
      </trkpt>
      <trkpt lat="41.985250" lon="2.528924">
        <ele>319.216</ele>
        <time>2021-05-27T07:02:35Z</time>
      </trkpt>
      <trkpt lat="41.985248" lon="2.528895">
        <ele>319.976</ele>
        <time>2021-05-27T07:02:37Z</time>
      </trkpt>
      <trkpt lat="41.985245" lon="2.528861">
        <ele>320.813</ele>
        <time>2021-05-27T07:02:39Z</time>
      </trkpt>
      <trkpt lat="41.985245" lon="2.528827">
        <ele>321.908</ele>
        <time>2021-05-27T07:02:41Z</time>
      </trkpt>
      <trkpt lat="41.985247" lon="2.528791">
        <ele>323.268</ele>
        <time>2021-05-27T07:02:43Z</time>
      </trkpt>
      <trkpt lat="41.985253" lon="2.528756">
        <ele>324.725</ele>
        <time>2021-05-27T07:02:45Z</time>
      </trkpt>
      <trkpt lat="41.985254" lon="2.528724">
        <ele>325.893</ele>
        <time>2021-05-27T07:02:47Z</time>
      </trkpt>
      <trkpt lat="41.985255" lon="2.528697">
        <ele>326.763</ele>
        <time>2021-05-27T07:02:49Z</time>
      </trkpt>
      <trkpt lat="41.985262" lon="2.528667">
        <ele>328.260</ele>
        <time>2021-05-27T07:02:51Z</time>
      </trkpt>
      <trkpt lat="41.985265" lon="2.528636">
        <ele>329.435</ele>
        <time>2021-05-27T07:02:53Z</time>
      </trkpt>
      <trkpt lat="41.985262" lon="2.528593">
        <ele>330.718</ele>
        <time>2021-05-27T07:02:55Z</time>
      </trkpt>
      <trkpt lat="41.985261" lon="2.528554">
        <ele>332.294</ele>
        <time>2021-05-27T07:02:57Z</time>
      </trkpt>
      <trkpt lat="41.985257" lon="2.528520">
        <ele>333.312</ele>
        <time>2021-05-27T07:02:59Z</time>
      </trkpt>
      <trkpt lat="41.985253" lon="2.528486">
        <ele>334.332</ele>
        <time>2021-05-27T07:03:01Z</time>
      </trkpt>
      <trkpt lat="41.985246" lon="2.528452">
        <ele>335.205</ele>
        <time>2021-05-27T07:03:03Z</time>
      </trkpt>
      <trkpt lat="41.985235" lon="2.528393">
        <ele>336.908</ele>
        <time>2021-05-27T07:03:06Z</time>
      </trkpt>
      <trkpt lat="41.985157" lon="2.528306">
        <ele>335.148</ele>
        <time>2021-05-27T07:03:13Z</time>
      </trkpt>
      <trkpt lat="41.985078" lon="2.528233">
        <ele>332.845</ele>
        <time>2021-05-27T07:03:19Z</time>
      </trkpt>
      <trkpt lat="41.985046" lon="2.528182">
        <ele>332.853</ele>
        <time>2021-05-27T07:03:23Z</time>
      </trkpt>
      <trkpt lat="41.985016" lon="2.528154">
        <ele>332.143</ele>
        <time>2021-05-27T07:03:26Z</time>
      </trkpt>
      <trkpt lat="41.984998" lon="2.528129">
        <ele>332.070</ele>
        <time>2021-05-27T07:03:28Z</time>
      </trkpt>
      <trkpt lat="41.984982" lon="2.528100">
        <ele>332.265</ele>
        <time>2021-05-27T07:03:30Z</time>
      </trkpt>
      <trkpt lat="41.984967" lon="2.528069">
        <ele>332.768</ele>
        <time>2021-05-27T07:03:32Z</time>
      </trkpt>
      <trkpt lat="41.984928" lon="2.528005">
        <ele>333.574</ele>
        <time>2021-05-27T07:03:37Z</time>
      </trkpt>
      <trkpt lat="41.984915" lon="2.527974">
        <ele>334.468</ele>
        <time>2021-05-27T07:03:39Z</time>
      </trkpt>
      <trkpt lat="41.984901" lon="2.527945">
        <ele>335.142</ele>
        <time>2021-05-27T07:03:41Z</time>
      </trkpt>
      <trkpt lat="41.984884" lon="2.527901">
        <ele>336.626</ele>
        <time>2021-05-27T07:03:44Z</time>
      </trkpt>
      <trkpt lat="41.984871" lon="2.527874">
        <ele>337.408</ele>
        <time>2021-05-27T07:03:46Z</time>
      </trkpt>
      <trkpt lat="41.984855" lon="2.527850">
        <ele>338.023</ele>
        <time>2021-05-27T07:03:48Z</time>
      </trkpt>
      <trkpt lat="41.984841" lon="2.527821">
        <ele>339.080</ele>
        <time>2021-05-27T07:03:50Z</time>
      </trkpt>
      <trkpt lat="41.984831" lon="2.527789">
        <ele>340.358</ele>
        <time>2021-05-27T07:03:52Z</time>
      </trkpt>
      <trkpt lat="41.984825" lon="2.527760">
        <ele>341.418</ele>
        <time>2021-05-27T07:03:54Z</time>
      </trkpt>
      <trkpt lat="41.984817" lon="2.527735">
        <ele>342.075</ele>
        <time>2021-05-27T07:03:56Z</time>
      </trkpt>
      <trkpt lat="41.984812" lon="2.527702">
        <ele>343.050</ele>
        <time>2021-05-27T07:03:58Z</time>
      </trkpt>
      <trkpt lat="41.984802" lon="2.527673">
        <ele>343.873</ele>
        <time>2021-05-27T07:04:00Z</time>
      </trkpt>
      <trkpt lat="41.984792" lon="2.527644">
        <ele>344.439</ele>
        <time>2021-05-27T07:04:02Z</time>
      </trkpt>
      <trkpt lat="41.984780" lon="2.527619">
        <ele>344.991</ele>
        <time>2021-05-27T07:04:04Z</time>
      </trkpt>
      <trkpt lat="41.984767" lon="2.527593">
        <ele>345.481</ele>
        <time>2021-05-27T07:04:06Z</time>
      </trkpt>
      <trkpt lat="41.984755" lon="2.527565">
        <ele>345.919</ele>
        <time>2021-05-27T07:04:08Z</time>
      </trkpt>
      <trkpt lat="41.984738" lon="2.527539">
        <ele>346.208</ele>
        <time>2021-05-27T07:04:10Z</time>
      </trkpt>
      <trkpt lat="41.984727" lon="2.527511">
        <ele>346.866</ele>
        <time>2021-05-27T07:04:12Z</time>
      </trkpt>
      <trkpt lat="41.984710" lon="2.527482">
        <ele>347.093</ele>
        <time>2021-05-27T07:04:14Z</time>
      </trkpt>
      <trkpt lat="41.984689" lon="2.527459">
        <ele>346.631</ele>
        <time>2021-05-27T07:04:16Z</time>
      </trkpt>
      <trkpt lat="41.984661" lon="2.527444">
        <ele>345.621</ele>
        <time>2021-05-27T07:04:19Z</time>
      </trkpt>
      <trkpt lat="41.984638" lon="2.527433">
        <ele>344.618</ele>
        <time>2021-05-27T07:04:20Z</time>
      </trkpt>
      <trkpt lat="41.984611" lon="2.527418">
        <ele>343.633</ele>
        <time>2021-05-27T07:04:22Z</time>
      </trkpt>
      <trkpt lat="41.984586" lon="2.527405">
        <ele>342.616</ele>
        <time>2021-05-27T07:04:24Z</time>
      </trkpt>
      <trkpt lat="41.984559" lon="2.527390">
        <ele>341.422</ele>
        <time>2021-05-27T07:04:26Z</time>
      </trkpt>
      <trkpt lat="41.984535" lon="2.527381">
        <ele>340.324</ele>
        <time>2021-05-27T07:04:28Z</time>
      </trkpt>
      <trkpt lat="41.984510" lon="2.527371">
        <ele>339.104</ele>
        <time>2021-05-27T07:04:30Z</time>
      </trkpt>
      <trkpt lat="41.984479" lon="2.527361">
        <ele>337.614</ele>
        <time>2021-05-27T07:04:32Z</time>
      </trkpt>
      <trkpt lat="41.984451" lon="2.527350">
        <ele>336.208</ele>
        <time>2021-05-27T07:04:34Z</time>
      </trkpt>
      <trkpt lat="41.984426" lon="2.527334">
        <ele>335.379</ele>
        <time>2021-05-27T07:04:36Z</time>
      </trkpt>
      <trkpt lat="41.984402" lon="2.527319">
        <ele>334.686</ele>
        <time>2021-05-27T07:04:38Z</time>
      </trkpt>
      <trkpt lat="41.984377" lon="2.527302">
        <ele>334.034</ele>
        <time>2021-05-27T07:04:40Z</time>
      </trkpt>
      <trkpt lat="41.984358" lon="2.527283">
        <ele>333.724</ele>
        <time>2021-05-27T07:04:42Z</time>
      </trkpt>
      <trkpt lat="41.984343" lon="2.527256">
        <ele>333.941</ele>
        <time>2021-05-27T07:04:44Z</time>
      </trkpt>
      <trkpt lat="41.984327" lon="2.527229">
        <ele>334.176</ele>
        <time>2021-05-27T07:04:46Z</time>
      </trkpt>
      <trkpt lat="41.984309" lon="2.527202">
        <ele>334.289</ele>
        <time>2021-05-27T07:04:48Z</time>
      </trkpt>
      <trkpt lat="41.984293" lon="2.527173">
        <ele>334.415</ele>
        <time>2021-05-27T07:04:50Z</time>
      </trkpt>
      <trkpt lat="41.984281" lon="2.527142">
        <ele>334.872</ele>
        <time>2021-05-27T07:04:53Z</time>
      </trkpt>
      <trkpt lat="41.984274" lon="2.527106">
        <ele>335.513</ele>
        <time>2021-05-27T07:04:54Z</time>
      </trkpt>
      <trkpt lat="41.984268" lon="2.527069">
        <ele>336.314</ele>
        <time>2021-05-27T07:04:56Z</time>
      </trkpt>
      <trkpt lat="41.984260" lon="2.527035">
        <ele>336.908</ele>
        <time>2021-05-27T07:04:58Z</time>
      </trkpt>
      <trkpt lat="41.984247" lon="2.527005">
        <ele>337.194</ele>
        <time>2021-05-27T07:05:00Z</time>
      </trkpt>
      <trkpt lat="41.984232" lon="2.526976">
        <ele>337.241</ele>
        <time>2021-05-27T07:05:02Z</time>
      </trkpt>
      <trkpt lat="41.984214" lon="2.526952">
        <ele>337.059</ele>
        <time>2021-05-27T07:05:04Z</time>
      </trkpt>
      <trkpt lat="41.984200" lon="2.526922">
        <ele>337.849</ele>
        <time>2021-05-27T07:05:06Z</time>
      </trkpt>
      <trkpt lat="41.984186" lon="2.526895">
        <ele>338.676</ele>
        <time>2021-05-27T07:05:08Z</time>
      </trkpt>
      <trkpt lat="41.984174" lon="2.526867">
        <ele>339.531</ele>
        <time>2021-05-27T07:05:10Z</time>
      </trkpt>
      <trkpt lat="41.984162" lon="2.526839">
        <ele>340.544</ele>
        <time>2021-05-27T07:05:12Z</time>
      </trkpt>
      <trkpt lat="41.984152" lon="2.526806">
        <ele>341.740</ele>
        <time>2021-05-27T07:05:14Z</time>
      </trkpt>
      <trkpt lat="41.984140" lon="2.526776">
        <ele>342.728</ele>
        <time>2021-05-27T07:05:16Z</time>
      </trkpt>
      <trkpt lat="41.984123" lon="2.526752">
        <ele>343.089</ele>
        <time>2021-05-27T07:05:18Z</time>
      </trkpt>
      <trkpt lat="41.984107" lon="2.526729">
        <ele>343.317</ele>
        <time>2021-05-27T07:05:20Z</time>
      </trkpt>
      <trkpt lat="41.984088" lon="2.526707">
        <ele>343.308</ele>
        <time>2021-05-27T07:05:22Z</time>
      </trkpt>
      <trkpt lat="41.984066" lon="2.526686">
        <ele>342.979</ele>
        <time>2021-05-27T07:05:24Z</time>
      </trkpt>
      <trkpt lat="41.984049" lon="2.526662">
        <ele>343.146</ele>
        <time>2021-05-27T07:05:26Z</time>
      </trkpt>
      <trkpt lat="41.984029" lon="2.526642">
        <ele>343.194</ele>
        <time>2021-05-27T07:05:28Z</time>
      </trkpt>
      <trkpt lat="41.984009" lon="2.526623">
        <ele>343.044</ele>
        <time>2021-05-27T07:05:30Z</time>
      </trkpt>
      <trkpt lat="41.983986" lon="2.526605">
        <ele>342.621</ele>
        <time>2021-05-27T07:05:32Z</time>
      </trkpt>
      <trkpt lat="41.983966" lon="2.526588">
        <ele>342.416</ele>
        <time>2021-05-27T07:05:34Z</time>
      </trkpt>
      <trkpt lat="41.983943" lon="2.526575">
        <ele>341.759</ele>
        <time>2021-05-27T07:05:36Z</time>
      </trkpt>
      <trkpt lat="41.983918" lon="2.526566">
        <ele>340.725</ele>
        <time>2021-05-27T07:05:38Z</time>
      </trkpt>
      <trkpt lat="41.983894" lon="2.526560">
        <ele>339.538</ele>
        <time>2021-05-27T07:05:40Z</time>
      </trkpt>
      <trkpt lat="41.983868" lon="2.526545">
        <ele>339.070</ele>
        <time>2021-05-27T07:05:42Z</time>
      </trkpt>
      <trkpt lat="41.983844" lon="2.526530">
        <ele>338.717</ele>
        <time>2021-05-27T07:05:44Z</time>
      </trkpt>
      <trkpt lat="41.983821" lon="2.526514">
        <ele>338.508</ele>
        <time>2021-05-27T07:05:46Z</time>
      </trkpt>
      <trkpt lat="41.983797" lon="2.526495">
        <ele>338.340</ele>
        <time>2021-05-27T07:05:48Z</time>
      </trkpt>
      <trkpt lat="41.983775" lon="2.526478">
        <ele>338.117</ele>
        <time>2021-05-27T07:05:51Z</time>
      </trkpt>
      <trkpt lat="41.983753" lon="2.526457">
        <ele>338.185</ele>
        <time>2021-05-27T07:05:52Z</time>
      </trkpt>
      <trkpt lat="41.983731" lon="2.526434">
        <ele>338.235</ele>
        <time>2021-05-27T07:05:54Z</time>
      </trkpt>
      <trkpt lat="41.983713" lon="2.526408">
        <ele>338.562</ele>
        <time>2021-05-27T07:05:56Z</time>
      </trkpt>
      <trkpt lat="41.983693" lon="2.526383">
        <ele>338.937</ele>
        <time>2021-05-27T07:05:58Z</time>
      </trkpt>
      <trkpt lat="41.983677" lon="2.526359">
        <ele>339.830</ele>
        <time>2021-05-27T07:06:00Z</time>
      </trkpt>
      <trkpt lat="41.983663" lon="2.526331">
        <ele>341.336</ele>
        <time>2021-05-27T07:06:02Z</time>
      </trkpt>
      <trkpt lat="41.983655" lon="2.526296">
        <ele>343.619</ele>
        <time>2021-05-27T07:06:04Z</time>
      </trkpt>
      <trkpt lat="41.983651" lon="2.526257">
        <ele>346.409</ele>
        <time>2021-05-27T07:06:06Z</time>
      </trkpt>
      <trkpt lat="41.983643" lon="2.526222">
        <ele>348.719</ele>
        <time>2021-05-27T07:06:08Z</time>
      </trkpt>
      <trkpt lat="41.983630" lon="2.526189">
        <ele>350.708</ele>
        <time>2021-05-27T07:06:10Z</time>
      </trkpt>
      <trkpt lat="41.983616" lon="2.526159">
        <ele>352.428</ele>
        <time>2021-05-27T07:06:12Z</time>
      </trkpt>
      <trkpt lat="41.983597" lon="2.526131">
        <ele>353.655</ele>
        <time>2021-05-27T07:06:14Z</time>
      </trkpt>
      <trkpt lat="41.983575" lon="2.526109">
        <ele>354.113</ele>
        <time>2021-05-27T07:06:16Z</time>
      </trkpt>
      <trkpt lat="41.983553" lon="2.526086">
        <ele>354.613</ele>
        <time>2021-05-27T07:06:18Z</time>
      </trkpt>
      <trkpt lat="41.983529" lon="2.526069">
        <ele>354.570</ele>
        <time>2021-05-27T07:06:20Z</time>
      </trkpt>
      <trkpt lat="41.983509" lon="2.526059">
        <ele>354.155</ele>
        <time>2021-05-27T07:06:22Z</time>
      </trkpt>
      <trkpt lat="41.983481" lon="2.526054">
        <ele>352.838</ele>
        <time>2021-05-27T07:06:24Z</time>
      </trkpt>
      <trkpt lat="41.983454" lon="2.526051">
        <ele>351.564</ele>
        <time>2021-05-27T07:06:26Z</time>
      </trkpt>
      <trkpt lat="41.983429" lon="2.526047">
        <ele>350.463</ele>
        <time>2021-05-27T07:06:28Z</time>
      </trkpt>
      <trkpt lat="41.983404" lon="2.526047">
        <ele>348.944</ele>
        <time>2021-05-27T07:06:30Z</time>
      </trkpt>
      <trkpt lat="41.983379" lon="2.526042">
        <ele>347.918</ele>
        <time>2021-05-27T07:06:32Z</time>
      </trkpt>
      <trkpt lat="41.983351" lon="2.526039">
        <ele>346.508</ele>
        <time>2021-05-27T07:06:34Z</time>
      </trkpt>
      <trkpt lat="41.983325" lon="2.526035">
        <ele>345.593</ele>
        <time>2021-05-27T07:06:36Z</time>
      </trkpt>
      <trkpt lat="41.983296" lon="2.526019">
        <ele>345.940</ele>
        <time>2021-05-27T07:06:38Z</time>
      </trkpt>
      <trkpt lat="41.983270" lon="2.526015">
        <ele>345.598</ele>
        <time>2021-05-27T07:06:40Z</time>
      </trkpt>
      <trkpt lat="41.983246" lon="2.526001">
        <ele>345.938</ele>
        <time>2021-05-27T07:06:42Z</time>
      </trkpt>
      <trkpt lat="41.983223" lon="2.525995">
        <ele>345.715</ele>
        <time>2021-05-27T07:06:44Z</time>
      </trkpt>
      <trkpt lat="41.983202" lon="2.525984">
        <ele>345.940</ele>
        <time>2021-05-27T07:06:46Z</time>
      </trkpt>
      <trkpt lat="41.983176" lon="2.525966">
        <ele>346.413</ele>
        <time>2021-05-27T07:06:48Z</time>
      </trkpt>
      <trkpt lat="41.983090" lon="2.525894">
        <ele>348.929</ele>
        <time>2021-05-27T07:06:54Z</time>
      </trkpt>
      <trkpt lat="41.983071" lon="2.525860">
        <ele>350.766</ele>
        <time>2021-05-27T07:06:58Z</time>
      </trkpt>
      <trkpt lat="41.982996" lon="2.525786">
        <ele>353.929</ele>
        <time>2021-05-27T07:07:05Z</time>
      </trkpt>
      <trkpt lat="41.982977" lon="2.525765">
        <ele>354.921</ele>
        <time>2021-05-27T07:07:07Z</time>
      </trkpt>
      <trkpt lat="41.982950" lon="2.525750">
        <ele>355.308</ele>
        <time>2021-05-27T07:07:09Z</time>
      </trkpt>
      <trkpt lat="41.982925" lon="2.525735">
        <ele>355.743</ele>
        <time>2021-05-27T07:07:11Z</time>
      </trkpt>
      <trkpt lat="41.982897" lon="2.525730">
        <ele>355.250</ele>
        <time>2021-05-27T07:07:13Z</time>
      </trkpt>
      <trkpt lat="41.982868" lon="2.525727">
        <ele>354.658</ele>
        <time>2021-05-27T07:07:15Z</time>
      </trkpt>
      <trkpt lat="41.982839" lon="2.525724">
        <ele>354.048</ele>
        <time>2021-05-27T07:07:17Z</time>
      </trkpt>
      <trkpt lat="41.982806" lon="2.525721">
        <ele>353.385</ele>
        <time>2021-05-27T07:07:19Z</time>
      </trkpt>
      <trkpt lat="41.982775" lon="2.525719">
        <ele>352.630</ele>
        <time>2021-05-27T07:07:21Z</time>
      </trkpt>
      <trkpt lat="41.982749" lon="2.525718">
        <ele>352.023</ele>
        <time>2021-05-27T07:07:23Z</time>
      </trkpt>
      <trkpt lat="41.982721" lon="2.525716">
        <ele>351.419</ele>
        <time>2021-05-27T07:07:25Z</time>
      </trkpt>
      <trkpt lat="41.982696" lon="2.525716">
        <ele>350.719</ele>
        <time>2021-05-27T07:07:27Z</time>
      </trkpt>
      <trkpt lat="41.982677" lon="2.525717">
        <ele>350.109</ele>
        <time>2021-05-27T07:07:29Z</time>
      </trkpt>
      <trkpt lat="41.982653" lon="2.525715">
        <ele>349.619</ele>
        <time>2021-05-27T07:07:31Z</time>
      </trkpt>
      <trkpt lat="41.982629" lon="2.525716">
        <ele>348.908</ele>
        <time>2021-05-27T07:07:33Z</time>
      </trkpt>
      <trkpt lat="41.982604" lon="2.525714">
        <ele>348.428</ele>
        <time>2021-05-27T07:07:35Z</time>
      </trkpt>
      <trkpt lat="41.982576" lon="2.525706">
        <ele>348.275</ele>
        <time>2021-05-27T07:07:37Z</time>
      </trkpt>
      <trkpt lat="41.982549" lon="2.525698">
        <ele>348.153</ele>
        <time>2021-05-27T07:07:39Z</time>
      </trkpt>
      <trkpt lat="41.982520" lon="2.525689">
        <ele>347.983</ele>
        <time>2021-05-27T07:07:41Z</time>
      </trkpt>
      <trkpt lat="41.982493" lon="2.525674">
        <ele>348.450</ele>
        <time>2021-05-27T07:07:43Z</time>
      </trkpt>
      <trkpt lat="41.982466" lon="2.525656">
        <ele>349.415</ele>
        <time>2021-05-27T07:07:45Z</time>
      </trkpt>
      <trkpt lat="41.982442" lon="2.525635">
        <ele>350.738</ele>
        <time>2021-05-27T07:07:48Z</time>
      </trkpt>
      <trkpt lat="41.982420" lon="2.525615">
        <ele>351.964</ele>
        <time>2021-05-27T07:07:49Z</time>
      </trkpt>
      <trkpt lat="41.982394" lon="2.525597">
        <ele>352.929</ele>
        <time>2021-05-27T07:07:51Z</time>
      </trkpt>
      <trkpt lat="41.982373" lon="2.525581">
        <ele>353.800</ele>
        <time>2021-05-27T07:07:53Z</time>
      </trkpt>
      <trkpt lat="41.982349" lon="2.525564">
        <ele>354.820</ele>
        <time>2021-05-27T07:07:55Z</time>
      </trkpt>
      <trkpt lat="41.982323" lon="2.525551">
        <ele>355.408</ele>
        <time>2021-05-27T07:07:57Z</time>
      </trkpt>
      <trkpt lat="41.982296" lon="2.525537">
        <ele>356.399</ele>
        <time>2021-05-27T07:07:59Z</time>
      </trkpt>
      <trkpt lat="41.982274" lon="2.525526">
        <ele>356.926</ele>
        <time>2021-05-27T07:08:01Z</time>
      </trkpt>
      <trkpt lat="41.982248" lon="2.525515">
        <ele>357.574</ele>
        <time>2021-05-27T07:08:03Z</time>
      </trkpt>
      <trkpt lat="41.982220" lon="2.525506">
        <ele>357.924</ele>
        <time>2021-05-27T07:08:05Z</time>
      </trkpt>
      <trkpt lat="41.982195" lon="2.525499">
        <ele>358.011</ele>
        <time>2021-05-27T07:08:07Z</time>
      </trkpt>
      <trkpt lat="41.982170" lon="2.525496">
        <ele>357.716</ele>
        <time>2021-05-27T07:08:09Z</time>
      </trkpt>
      <trkpt lat="41.982139" lon="2.525491">
        <ele>357.599</ele>
        <time>2021-05-27T07:08:11Z</time>
      </trkpt>
      <trkpt lat="41.982121" lon="2.525487">
        <ele>357.595</ele>
        <time>2021-05-27T07:08:12Z</time>
      </trkpt>
      <trkpt lat="41.982088" lon="2.525482">
        <ele>357.376</ele>
        <time>2021-05-27T07:08:14Z</time>
      </trkpt>
      <trkpt lat="41.982054" lon="2.525478">
        <ele>356.990</ele>
        <time>2021-05-27T07:08:16Z</time>
      </trkpt>
      <trkpt lat="41.982022" lon="2.525479">
        <ele>356.319</ele>
        <time>2021-05-27T07:08:18Z</time>
      </trkpt>
      <trkpt lat="41.982000" lon="2.525476">
        <ele>356.108</ele>
        <time>2021-05-27T07:08:19Z</time>
      </trkpt>
      <trkpt lat="41.981972" lon="2.525476">
        <ele>355.574</ele>
        <time>2021-05-27T07:08:21Z</time>
      </trkpt>
      <trkpt lat="41.981944" lon="2.525481">
        <ele>354.621</ele>
        <time>2021-05-27T07:08:23Z</time>
      </trkpt>
      <trkpt lat="41.981916" lon="2.525482">
        <ele>354.669</ele>
        <time>2021-05-27T07:08:26Z</time>
      </trkpt>
      <trkpt lat="41.981889" lon="2.525486">
        <ele>354.539</ele>
        <time>2021-05-27T07:08:27Z</time>
      </trkpt>
      <trkpt lat="41.981862" lon="2.525491">
        <ele>354.216</ele>
        <time>2021-05-27T07:08:29Z</time>
      </trkpt>
      <trkpt lat="41.981841" lon="2.525500">
        <ele>353.851</ele>
        <time>2021-05-27T07:08:32Z</time>
      </trkpt>
      <trkpt lat="41.981817" lon="2.525504">
        <ele>353.774</ele>
        <time>2021-05-27T07:08:33Z</time>
      </trkpt>
      <trkpt lat="41.981793" lon="2.525498">
        <ele>354.230</ele>
        <time>2021-05-27T07:08:35Z</time>
      </trkpt>
      <trkpt lat="41.981773" lon="2.525491">
        <ele>354.672</ele>
        <time>2021-05-27T07:08:37Z</time>
      </trkpt>
      <trkpt lat="41.981748" lon="2.525491">
        <ele>354.713</ele>
        <time>2021-05-27T07:08:39Z</time>
      </trkpt>
      <trkpt lat="41.981726" lon="2.525489">
        <ele>354.914</ele>
        <time>2021-05-27T07:08:41Z</time>
      </trkpt>
      <trkpt lat="41.981701" lon="2.525481">
        <ele>355.308</ele>
        <time>2021-05-27T07:08:43Z</time>
      </trkpt>
      <trkpt lat="41.981680" lon="2.525471">
        <ele>355.724</ele>
        <time>2021-05-27T07:08:45Z</time>
      </trkpt>
      <trkpt lat="41.981661" lon="2.525462">
        <ele>356.051</ele>
        <time>2021-05-27T07:08:47Z</time>
      </trkpt>
      <trkpt lat="41.981636" lon="2.525452">
        <ele>356.149</ele>
        <time>2021-05-27T07:08:49Z</time>
      </trkpt>
      <trkpt lat="41.981616" lon="2.525447">
        <ele>356.299</ele>
        <time>2021-05-27T07:08:51Z</time>
      </trkpt>
      <trkpt lat="41.981592" lon="2.525444">
        <ele>356.126</ele>
        <time>2021-05-27T07:08:53Z</time>
      </trkpt>
      <trkpt lat="41.981566" lon="2.525447">
        <ele>355.891</ele>
        <time>2021-05-27T07:08:55Z</time>
      </trkpt>
      <trkpt lat="41.981539" lon="2.525441">
        <ele>355.814</ele>
        <time>2021-05-27T07:08:57Z</time>
      </trkpt>
      <trkpt lat="41.981513" lon="2.525445">
        <ele>355.510</ele>
        <time>2021-05-27T07:08:59Z</time>
      </trkpt>
      <trkpt lat="41.981483" lon="2.525447">
        <ele>355.288</ele>
        <time>2021-05-27T07:09:01Z</time>
      </trkpt>
      <trkpt lat="41.981455" lon="2.525436">
        <ele>355.224</ele>
        <time>2021-05-27T07:09:03Z</time>
      </trkpt>
      <trkpt lat="41.981431" lon="2.525431">
        <ele>355.126</ele>
        <time>2021-05-27T07:09:05Z</time>
      </trkpt>
      <trkpt lat="41.981407" lon="2.525430">
        <ele>355.008</ele>
        <time>2021-05-27T07:09:07Z</time>
      </trkpt>
      <trkpt lat="41.981381" lon="2.525424">
        <ele>354.715</ele>
        <time>2021-05-27T07:09:09Z</time>
      </trkpt>
      <trkpt lat="41.981360" lon="2.525411">
        <ele>354.542</ele>
        <time>2021-05-27T07:09:11Z</time>
      </trkpt>
      <trkpt lat="41.981339" lon="2.525402">
        <ele>354.140</ele>
        <time>2021-05-27T07:09:13Z</time>
      </trkpt>
      <trkpt lat="41.981323" lon="2.525386">
        <ele>354.080</ele>
        <time>2021-05-27T07:09:15Z</time>
      </trkpt>
      <trkpt lat="41.981303" lon="2.525367">
        <ele>353.757</ele>
        <time>2021-05-27T07:09:17Z</time>
      </trkpt>
      <trkpt lat="41.981284" lon="2.525350">
        <ele>353.512</ele>
        <time>2021-05-27T07:09:19Z</time>
      </trkpt>
      <trkpt lat="41.981265" lon="2.525338">
        <ele>353.275</ele>
        <time>2021-05-27T07:09:21Z</time>
      </trkpt>
      <trkpt lat="41.981249" lon="2.525322">
        <ele>353.011</ele>
        <time>2021-05-27T07:09:23Z</time>
      </trkpt>
      <trkpt lat="41.981233" lon="2.525304">
        <ele>352.821</ele>
        <time>2021-05-27T07:09:25Z</time>
      </trkpt>
      <trkpt lat="41.981217" lon="2.525280">
        <ele>352.641</ele>
        <time>2021-05-27T07:09:27Z</time>
      </trkpt>
      <trkpt lat="41.981206" lon="2.525255">
        <ele>352.505</ele>
        <time>2021-05-27T07:09:29Z</time>
      </trkpt>
      <trkpt lat="41.981193" lon="2.525230">
        <ele>352.208</ele>
        <time>2021-05-27T07:09:31Z</time>
      </trkpt>
      <trkpt lat="41.981180" lon="2.525201">
        <ele>351.949</ele>
        <time>2021-05-27T07:09:33Z</time>
      </trkpt>
      <trkpt lat="41.981168" lon="2.525173">
        <ele>351.746</ele>
        <time>2021-05-27T07:09:35Z</time>
      </trkpt>
      <trkpt lat="41.981161" lon="2.525139">
        <ele>351.584</ele>
        <time>2021-05-27T07:09:37Z</time>
      </trkpt>
      <trkpt lat="41.981154" lon="2.525105">
        <ele>351.434</ele>
        <time>2021-05-27T07:09:39Z</time>
      </trkpt>
      <trkpt lat="41.981151" lon="2.525071">
        <ele>351.381</ele>
        <time>2021-05-27T07:09:41Z</time>
      </trkpt>
      <trkpt lat="41.981149" lon="2.525039">
        <ele>351.336</ele>
        <time>2021-05-27T07:09:43Z</time>
      </trkpt>
      <trkpt lat="41.981148" lon="2.525007">
        <ele>351.319</ele>
        <time>2021-05-27T07:09:45Z</time>
      </trkpt>
      <trkpt lat="41.981153" lon="2.524974">
        <ele>351.455</ele>
        <time>2021-05-27T07:09:47Z</time>
      </trkpt>
      <trkpt lat="41.981161" lon="2.524942">
        <ele>351.551</ele>
        <time>2021-05-27T07:09:49Z</time>
      </trkpt>
      <trkpt lat="41.981174" lon="2.524910">
        <ele>351.801</ele>
        <time>2021-05-27T07:09:51Z</time>
      </trkpt>
      <trkpt lat="41.981186" lon="2.524880">
        <ele>352.211</ele>
        <time>2021-05-27T07:09:53Z</time>
      </trkpt>
      <trkpt lat="41.981200" lon="2.524854">
        <ele>352.708</ele>
        <time>2021-05-27T07:09:55Z</time>
      </trkpt>
      <trkpt lat="41.981216" lon="2.524828">
        <ele>353.222</ele>
        <time>2021-05-27T07:09:57Z</time>
      </trkpt>
      <trkpt lat="41.981232" lon="2.524807">
        <ele>353.999</ele>
        <time>2021-05-27T07:09:59Z</time>
      </trkpt>
      <trkpt lat="41.981253" lon="2.524786">
        <ele>354.747</ele>
        <time>2021-05-27T07:10:01Z</time>
      </trkpt>
      <trkpt lat="41.981267" lon="2.524761">
        <ele>355.367</ele>
        <time>2021-05-27T07:10:03Z</time>
      </trkpt>
      <trkpt lat="41.981284" lon="2.524740">
        <ele>356.124</ele>
        <time>2021-05-27T07:10:05Z</time>
      </trkpt>
      <trkpt lat="41.981300" lon="2.524718">
        <ele>356.839</ele>
        <time>2021-05-27T07:10:07Z</time>
      </trkpt>
      <trkpt lat="41.981315" lon="2.524696">
        <ele>357.332</ele>
        <time>2021-05-27T07:10:09Z</time>
      </trkpt>
      <trkpt lat="41.981336" lon="2.524680">
        <ele>358.118</ele>
        <time>2021-05-27T07:10:11Z</time>
      </trkpt>
      <trkpt lat="41.981353" lon="2.524656">
        <ele>358.656</ele>
        <time>2021-05-27T07:10:13Z</time>
      </trkpt>
      <trkpt lat="41.981373" lon="2.524631">
        <ele>359.359</ele>
        <time>2021-05-27T07:10:15Z</time>
      </trkpt>
      <trkpt lat="41.981392" lon="2.524605">
        <ele>359.914</ele>
        <time>2021-05-27T07:10:17Z</time>
      </trkpt>
      <trkpt lat="41.981409" lon="2.524581">
        <ele>360.608</ele>
        <time>2021-05-27T07:10:19Z</time>
      </trkpt>
      <trkpt lat="41.981425" lon="2.524561">
        <ele>361.412</ele>
        <time>2021-05-27T07:10:21Z</time>
      </trkpt>
      <trkpt lat="41.981439" lon="2.524538">
        <ele>362.049</ele>
        <time>2021-05-27T07:10:23Z</time>
      </trkpt>
      <trkpt lat="41.981454" lon="2.524514">
        <ele>362.757</ele>
        <time>2021-05-27T07:10:25Z</time>
      </trkpt>
      <trkpt lat="41.981471" lon="2.524490">
        <ele>363.687</ele>
        <time>2021-05-27T07:10:27Z</time>
      </trkpt>
      <trkpt lat="41.981487" lon="2.524464">
        <ele>364.584</ele>
        <time>2021-05-27T07:10:29Z</time>
      </trkpt>
      <trkpt lat="41.981502" lon="2.524440">
        <ele>365.349</ele>
        <time>2021-05-27T07:10:31Z</time>
      </trkpt>
      <trkpt lat="41.981513" lon="2.524416">
        <ele>365.712</ele>
        <time>2021-05-27T07:10:33Z</time>
      </trkpt>
      <trkpt lat="41.981522" lon="2.524387">
        <ele>366.018</ele>
        <time>2021-05-27T07:10:35Z</time>
      </trkpt>
      <trkpt lat="41.981527" lon="2.524356">
        <ele>366.025</ele>
        <time>2021-05-27T07:10:37Z</time>
      </trkpt>
      <trkpt lat="41.981531" lon="2.524320">
        <ele>365.926</ele>
        <time>2021-05-27T07:10:39Z</time>
      </trkpt>
      <trkpt lat="41.981533" lon="2.524289">
        <ele>365.708</ele>
        <time>2021-05-27T07:10:41Z</time>
      </trkpt>
      <trkpt lat="41.981537" lon="2.524258">
        <ele>365.708</ele>
        <time>2021-05-27T07:10:43Z</time>
      </trkpt>
      <trkpt lat="41.981537" lon="2.524221">
        <ele>365.319</ele>
        <time>2021-05-27T07:10:45Z</time>
      </trkpt>
      <trkpt lat="41.981540" lon="2.524186">
        <ele>365.286</ele>
        <time>2021-05-27T07:10:47Z</time>
      </trkpt>
      <trkpt lat="41.981543" lon="2.524151">
        <ele>365.294</ele>
        <time>2021-05-27T07:10:49Z</time>
      </trkpt>
      <trkpt lat="41.981547" lon="2.524118">
        <ele>365.514</ele>
        <time>2021-05-27T07:10:51Z</time>
      </trkpt>
      <trkpt lat="41.981555" lon="2.524084">
        <ele>366.271</ele>
        <time>2021-05-27T07:10:53Z</time>
      </trkpt>
      <trkpt lat="41.981556" lon="2.524049">
        <ele>366.236</ele>
        <time>2021-05-27T07:10:55Z</time>
      </trkpt>
      <trkpt lat="41.981562" lon="2.524016">
        <ele>366.659</ele>
        <time>2021-05-27T07:10:57Z</time>
      </trkpt>
      <trkpt lat="41.981568" lon="2.523985">
        <ele>367.015</ele>
        <time>2021-05-27T07:10:59Z</time>
      </trkpt>
      <trkpt lat="41.981571" lon="2.523952">
        <ele>367.222</ele>
        <time>2021-05-27T07:11:01Z</time>
      </trkpt>
      <trkpt lat="41.981578" lon="2.523917">
        <ele>367.662</ele>
        <time>2021-05-27T07:11:03Z</time>
      </trkpt>
      <trkpt lat="41.981588" lon="2.523884">
        <ele>368.108</ele>
        <time>2021-05-27T07:11:05Z</time>
      </trkpt>
      <trkpt lat="41.981603" lon="2.523859">
        <ele>368.708</ele>
        <time>2021-05-27T07:11:07Z</time>
      </trkpt>
      <trkpt lat="41.981617" lon="2.523838">
        <ele>369.319</ele>
        <time>2021-05-27T07:11:09Z</time>
      </trkpt>
      <trkpt lat="41.981643" lon="2.523843">
        <ele>370.986</ele>
        <time>2021-05-27T07:11:12Z</time>
      </trkpt>
      <trkpt lat="41.981647" lon="2.523882">
        <ele>371.714</ele>
        <time>2021-05-27T07:11:15Z</time>
      </trkpt>
      <trkpt lat="41.981638" lon="2.523915">
        <ele>371.444</ele>
        <time>2021-05-27T07:11:17Z</time>
      </trkpt>
      <trkpt lat="41.981626" lon="2.523949">
        <ele>370.821</ele>
        <time>2021-05-27T07:11:19Z</time>
      </trkpt>
      <trkpt lat="41.981615" lon="2.523981">
        <ele>370.236</ele>
        <time>2021-05-27T07:11:21Z</time>
      </trkpt>
      <trkpt lat="41.981606" lon="2.524015">
        <ele>369.799</ele>
        <time>2021-05-27T07:11:24Z</time>
      </trkpt>
      <trkpt lat="41.981597" lon="2.524050">
        <ele>369.285</ele>
        <time>2021-05-27T07:11:25Z</time>
      </trkpt>
      <trkpt lat="41.981593" lon="2.524084">
        <ele>369.034</ele>
        <time>2021-05-27T07:11:27Z</time>
      </trkpt>
      <trkpt lat="41.981589" lon="2.524115">
        <ele>368.755</ele>
        <time>2021-05-27T07:11:29Z</time>
      </trkpt>
      <trkpt lat="41.981586" lon="2.524145">
        <ele>368.610</ele>
        <time>2021-05-27T07:11:31Z</time>
      </trkpt>
      <trkpt lat="41.981583" lon="2.524179">
        <ele>368.508</ele>
        <time>2021-05-27T07:11:33Z</time>
      </trkpt>
      <trkpt lat="41.981580" lon="2.524212">
        <ele>368.590</ele>
        <time>2021-05-27T07:11:35Z</time>
      </trkpt>
      <trkpt lat="41.981580" lon="2.524245">
        <ele>368.827</ele>
        <time>2021-05-27T07:11:37Z</time>
      </trkpt>
      <trkpt lat="41.981578" lon="2.524276">
        <ele>368.965</ele>
        <time>2021-05-27T07:11:39Z</time>
      </trkpt>
      <trkpt lat="41.981573" lon="2.524310">
        <ele>368.825</ele>
        <time>2021-05-27T07:11:41Z</time>
      </trkpt>
      <trkpt lat="41.981572" lon="2.524345">
        <ele>369.032</ele>
        <time>2021-05-27T07:11:43Z</time>
      </trkpt>
      <trkpt lat="41.981569" lon="2.524378">
        <ele>369.187</ele>
        <time>2021-05-27T07:11:45Z</time>
      </trkpt>
      <trkpt lat="41.981567" lon="2.524409">
        <ele>369.280</ele>
        <time>2021-05-27T07:11:47Z</time>
      </trkpt>
      <trkpt lat="41.981565" lon="2.524441">
        <ele>369.466</ele>
        <time>2021-05-27T07:11:49Z</time>
      </trkpt>
      <trkpt lat="41.981563" lon="2.524475">
        <ele>369.385</ele>
        <time>2021-05-27T07:11:51Z</time>
      </trkpt>
      <trkpt lat="41.981554" lon="2.524508">
        <ele>368.889</ele>
        <time>2021-05-27T07:11:53Z</time>
      </trkpt>
      <trkpt lat="41.981548" lon="2.524538">
        <ele>368.517</ele>
        <time>2021-05-27T07:11:55Z</time>
      </trkpt>
      <trkpt lat="41.981541" lon="2.524567">
        <ele>368.208</ele>
        <time>2021-05-27T07:11:57Z</time>
      </trkpt>
      <trkpt lat="41.981537" lon="2.524600">
        <ele>368.145</ele>
        <time>2021-05-27T07:11:59Z</time>
      </trkpt>
      <trkpt lat="41.981529" lon="2.524632">
        <ele>367.792</ele>
        <time>2021-05-27T07:12:01Z</time>
      </trkpt>
      <trkpt lat="41.981519" lon="2.524663">
        <ele>367.370</ele>
        <time>2021-05-27T07:12:03Z</time>
      </trkpt>
      <trkpt lat="41.981510" lon="2.524693">
        <ele>367.020</ele>
        <time>2021-05-27T07:12:05Z</time>
      </trkpt>
      <trkpt lat="41.981501" lon="2.524722">
        <ele>366.617</ele>
        <time>2021-05-27T07:12:07Z</time>
      </trkpt>
      <trkpt lat="41.981488" lon="2.524750">
        <ele>365.842</ele>
        <time>2021-05-27T07:12:09Z</time>
      </trkpt>
      <trkpt lat="41.981476" lon="2.524780">
        <ele>365.165</ele>
        <time>2021-05-27T07:12:11Z</time>
      </trkpt>
      <trkpt lat="41.981463" lon="2.524808">
        <ele>364.341</ele>
        <time>2021-05-27T07:12:13Z</time>
      </trkpt>
      <trkpt lat="41.981455" lon="2.524836">
        <ele>363.782</ele>
        <time>2021-05-27T07:12:15Z</time>
      </trkpt>
      <trkpt lat="41.981446" lon="2.524866">
        <ele>363.143</ele>
        <time>2021-05-27T07:12:17Z</time>
      </trkpt>
      <trkpt lat="41.981435" lon="2.524898">
        <ele>362.517</ele>
        <time>2021-05-27T07:12:19Z</time>
      </trkpt>
      <trkpt lat="41.981425" lon="2.524930">
        <ele>361.908</ele>
        <time>2021-05-27T07:12:21Z</time>
      </trkpt>
      <trkpt lat="41.981423" lon="2.524962">
        <ele>361.665</ele>
        <time>2021-05-27T07:12:23Z</time>
      </trkpt>
      <trkpt lat="41.981431" lon="2.524989">
        <ele>361.992</ele>
        <time>2021-05-27T07:12:25Z</time>
      </trkpt>
      <trkpt lat="41.981450" lon="2.525011">
        <ele>362.550</ele>
        <time>2021-05-27T07:12:27Z</time>
      </trkpt>
      <trkpt lat="41.981474" lon="2.525015">
        <ele>363.470</ele>
        <time>2021-05-27T07:12:29Z</time>
      </trkpt>
      <trkpt lat="41.981493" lon="2.524990">
        <ele>364.627</ele>
        <time>2021-05-27T07:12:31Z</time>
      </trkpt>
      <trkpt lat="41.981511" lon="2.524954">
        <ele>365.652</ele>
        <time>2021-05-27T07:12:33Z</time>
      </trkpt>
      <trkpt lat="41.981527" lon="2.524922">
        <ele>366.565</ele>
        <time>2021-05-27T07:12:35Z</time>
      </trkpt>
      <trkpt lat="41.981540" lon="2.524890">
        <ele>367.471</ele>
        <time>2021-05-27T07:12:37Z</time>
      </trkpt>
      <trkpt lat="41.981555" lon="2.524857">
        <ele>368.332</ele>
        <time>2021-05-27T07:12:39Z</time>
      </trkpt>
      <trkpt lat="41.981567" lon="2.524834">
        <ele>369.192</ele>
        <time>2021-05-27T07:12:41Z</time>
      </trkpt>
      <trkpt lat="41.981587" lon="2.524808">
        <ele>370.211</ele>
        <time>2021-05-27T07:12:43Z</time>
      </trkpt>
      <trkpt lat="41.981588" lon="2.524777">
        <ele>370.608</ele>
        <time>2021-05-27T07:12:45Z</time>
      </trkpt>
      <trkpt lat="41.981595" lon="2.524750">
        <ele>371.160</ele>
        <time>2021-05-27T07:12:47Z</time>
      </trkpt>
      <trkpt lat="41.981603" lon="2.524718">
        <ele>371.837</ele>
        <time>2021-05-27T07:12:49Z</time>
      </trkpt>
      <trkpt lat="41.981614" lon="2.524685">
        <ele>372.425</ele>
        <time>2021-05-27T07:12:51Z</time>
      </trkpt>
      <trkpt lat="41.981627" lon="2.524656">
        <ele>373.135</ele>
        <time>2021-05-27T07:12:53Z</time>
      </trkpt>
      <trkpt lat="41.981636" lon="2.524625">
        <ele>373.692</ele>
        <time>2021-05-27T07:12:55Z</time>
      </trkpt>
      <trkpt lat="41.981643" lon="2.524593">
        <ele>374.157</ele>
        <time>2021-05-27T07:12:57Z</time>
      </trkpt>
      <trkpt lat="41.981648" lon="2.524559">
        <ele>374.580</ele>
        <time>2021-05-27T07:12:59Z</time>
      </trkpt>
      <trkpt lat="41.981654" lon="2.524526">
        <ele>374.986</ele>
        <time>2021-05-27T07:13:01Z</time>
      </trkpt>
      <trkpt lat="41.981663" lon="2.524494">
        <ele>375.689</ele>
        <time>2021-05-27T07:13:03Z</time>
      </trkpt>
      <trkpt lat="41.981672" lon="2.524461">
        <ele>376.406</ele>
        <time>2021-05-27T07:13:05Z</time>
      </trkpt>
      <trkpt lat="41.981678" lon="2.524430">
        <ele>376.926</ele>
        <time>2021-05-27T07:13:07Z</time>
      </trkpt>
      <trkpt lat="41.981685" lon="2.524398">
        <ele>377.308</ele>
        <time>2021-05-27T07:13:09Z</time>
      </trkpt>
      <trkpt lat="41.981691" lon="2.524363">
        <ele>377.745</ele>
        <time>2021-05-27T07:13:11Z</time>
      </trkpt>
      <trkpt lat="41.981701" lon="2.524328">
        <ele>378.362</ele>
        <time>2021-05-27T07:13:13Z</time>
      </trkpt>
      <trkpt lat="41.981706" lon="2.524293">
        <ele>378.690</ele>
        <time>2021-05-27T07:13:15Z</time>
      </trkpt>
      <trkpt lat="41.981713" lon="2.524264">
        <ele>379.080</ele>
        <time>2021-05-27T07:13:17Z</time>
      </trkpt>
      <trkpt lat="41.981715" lon="2.524234">
        <ele>379.027</ele>
        <time>2021-05-27T07:13:19Z</time>
      </trkpt>
      <trkpt lat="41.981724" lon="2.524200">
        <ele>379.542</ele>
        <time>2021-05-27T07:13:21Z</time>
      </trkpt>
      <trkpt lat="41.981733" lon="2.524166">
        <ele>380.085</ele>
        <time>2021-05-27T07:13:23Z</time>
      </trkpt>
      <trkpt lat="41.981737" lon="2.524135">
        <ele>380.111</ele>
        <time>2021-05-27T07:13:25Z</time>
      </trkpt>
      <trkpt lat="41.981743" lon="2.524102">
        <ele>380.464</ele>
        <time>2021-05-27T07:13:27Z</time>
      </trkpt>
      <trkpt lat="41.981752" lon="2.524069">
        <ele>381.006</ele>
        <time>2021-05-27T07:13:30Z</time>
      </trkpt>
      <trkpt lat="41.981761" lon="2.524039">
        <ele>381.516</ele>
        <time>2021-05-27T07:13:31Z</time>
      </trkpt>
      <trkpt lat="41.981769" lon="2.524008">
        <ele>382.008</ele>
        <time>2021-05-27T07:13:33Z</time>
      </trkpt>
      <trkpt lat="41.981774" lon="2.523975">
        <ele>382.393</ele>
        <time>2021-05-27T07:13:35Z</time>
      </trkpt>
      <trkpt lat="41.981777" lon="2.523945">
        <ele>382.470</ele>
        <time>2021-05-27T07:13:37Z</time>
      </trkpt>
      <trkpt lat="41.981783" lon="2.523917">
        <ele>382.828</ele>
        <time>2021-05-27T07:13:39Z</time>
      </trkpt>
      <trkpt lat="41.981784" lon="2.523888">
        <ele>382.728</ele>
        <time>2021-05-27T07:13:41Z</time>
      </trkpt>
      <trkpt lat="41.981788" lon="2.523853">
        <ele>382.445</ele>
        <time>2021-05-27T07:13:43Z</time>
      </trkpt>
      <trkpt lat="41.981790" lon="2.523821">
        <ele>381.990</ele>
        <time>2021-05-27T07:13:45Z</time>
      </trkpt>
      <trkpt lat="41.981793" lon="2.523793">
        <ele>381.663</ele>
        <time>2021-05-27T07:13:47Z</time>
      </trkpt>
      <trkpt lat="41.981774" lon="2.523798">
        <ele>380.249</ele>
        <time>2021-05-27T07:13:53Z</time>
      </trkpt>
      <trkpt lat="41.981756" lon="2.523803">
        <ele>378.947</ele>
        <time>2021-05-27T07:17:06Z</time>
      </trkpt>
      <trkpt lat="41.981772" lon="2.523789">
        <ele>379.929</ele>
        <time>2021-05-27T07:17:39Z</time>
      </trkpt>
      <trkpt lat="41.981781" lon="2.523768">
        <ele>380.221</ele>
        <time>2021-05-27T07:17:43Z</time>
      </trkpt>
      <trkpt lat="41.981758" lon="2.523771">
        <ele>378.408</ele>
        <time>2021-05-27T07:20:02Z</time>
      </trkpt>
      <trkpt lat="41.981750" lon="2.523793">
        <ele>378.281</ele>
        <time>2021-05-27T07:21:57Z</time>
      </trkpt>
      <trkpt lat="41.981768" lon="2.523788">
        <ele>379.568</ele>
        <time>2021-05-27T07:25:06Z</time>
      </trkpt>
      <trkpt lat="41.981781" lon="2.523769">
        <ele>380.226</ele>
        <time>2021-05-27T07:25:12Z</time>
      </trkpt>
      <trkpt lat="41.981780" lon="2.523744">
        <ele>379.726</ele>
        <time>2021-05-27T07:25:14Z</time>
      </trkpt>
      <trkpt lat="41.981782" lon="2.523712">
        <ele>379.293</ele>
        <time>2021-05-27T07:25:17Z</time>
      </trkpt>
      <trkpt lat="41.981788" lon="2.523683">
        <ele>379.138</ele>
        <time>2021-05-27T07:25:18Z</time>
      </trkpt>
      <trkpt lat="41.981792" lon="2.523654">
        <ele>378.991</ele>
        <time>2021-05-27T07:25:20Z</time>
      </trkpt>
      <trkpt lat="41.981802" lon="2.523626">
        <ele>379.097</ele>
        <time>2021-05-27T07:25:22Z</time>
      </trkpt>
      <trkpt lat="41.981812" lon="2.523598">
        <ele>379.255</ele>
        <time>2021-05-27T07:25:24Z</time>
      </trkpt>
      <trkpt lat="41.981819" lon="2.523569">
        <ele>379.007</ele>
        <time>2021-05-27T07:25:26Z</time>
      </trkpt>
      <trkpt lat="41.981826" lon="2.523541">
        <ele>378.817</ele>
        <time>2021-05-27T07:25:28Z</time>
      </trkpt>
      <trkpt lat="41.981834" lon="2.523513">
        <ele>378.608</ele>
        <time>2021-05-27T07:25:30Z</time>
      </trkpt>
      <trkpt lat="41.981841" lon="2.523485">
        <ele>378.472</ele>
        <time>2021-05-27T07:25:32Z</time>
      </trkpt>
      <trkpt lat="41.981851" lon="2.523462">
        <ele>378.569</ele>
        <time>2021-05-27T07:25:34Z</time>
      </trkpt>
      <trkpt lat="41.981859" lon="2.523436">
        <ele>378.487</ele>
        <time>2021-05-27T07:25:36Z</time>
      </trkpt>
      <trkpt lat="41.981871" lon="2.523409">
        <ele>378.597</ele>
        <time>2021-05-27T07:25:38Z</time>
      </trkpt>
      <trkpt lat="41.981885" lon="2.523384">
        <ele>378.774</ele>
        <time>2021-05-27T07:25:40Z</time>
      </trkpt>
      <trkpt lat="41.981897" lon="2.523358">
        <ele>378.849</ele>
        <time>2021-05-27T07:25:42Z</time>
      </trkpt>
      <trkpt lat="41.981909" lon="2.523332">
        <ele>378.842</ele>
        <time>2021-05-27T07:25:44Z</time>
      </trkpt>
      <trkpt lat="41.981926" lon="2.523307">
        <ele>379.218</ele>
        <time>2021-05-27T07:25:46Z</time>
      </trkpt>
      <trkpt lat="41.981943" lon="2.523282">
        <ele>379.668</ele>
        <time>2021-05-27T07:25:48Z</time>
      </trkpt>
      <trkpt lat="41.981959" lon="2.523257">
        <ele>379.842</ele>
        <time>2021-05-27T07:25:50Z</time>
      </trkpt>
      <trkpt lat="41.981977" lon="2.523233">
        <ele>380.126</ele>
        <time>2021-05-27T07:25:52Z</time>
      </trkpt>
      <trkpt lat="41.981996" lon="2.523210">
        <ele>380.508</ele>
        <time>2021-05-27T07:25:54Z</time>
      </trkpt>
      <trkpt lat="41.982017" lon="2.523195">
        <ele>381.213</ele>
        <time>2021-05-27T07:25:56Z</time>
      </trkpt>
      <trkpt lat="41.982039" lon="2.523185">
        <ele>382.090</ele>
        <time>2021-05-27T07:25:58Z</time>
      </trkpt>
      <trkpt lat="41.982060" lon="2.523178">
        <ele>382.968</ele>
        <time>2021-05-27T07:26:00Z</time>
      </trkpt>
      <trkpt lat="41.982084" lon="2.523171">
        <ele>383.948</ele>
        <time>2021-05-27T07:26:02Z</time>
      </trkpt>
      <trkpt lat="41.982105" lon="2.523162">
        <ele>384.625</ele>
        <time>2021-05-27T07:26:04Z</time>
      </trkpt>
      <trkpt lat="41.982128" lon="2.523149">
        <ele>385.440</ele>
        <time>2021-05-27T07:26:06Z</time>
      </trkpt>
      <trkpt lat="41.982152" lon="2.523140">
        <ele>386.323</ele>
        <time>2021-05-27T07:26:08Z</time>
      </trkpt>
      <trkpt lat="41.982177" lon="2.523134">
        <ele>387.379</ele>
        <time>2021-05-27T07:26:10Z</time>
      </trkpt>
      <trkpt lat="41.982200" lon="2.523124">
        <ele>388.134</ele>
        <time>2021-05-27T07:26:12Z</time>
      </trkpt>
      <trkpt lat="41.982222" lon="2.523118">
        <ele>389.055</ele>
        <time>2021-05-27T07:26:14Z</time>
      </trkpt>
      <trkpt lat="41.982244" lon="2.523118">
        <ele>389.810</ele>
        <time>2021-05-27T07:26:16Z</time>
      </trkpt>
      <trkpt lat="41.982267" lon="2.523116">
        <ele>390.508</ele>
        <time>2021-05-27T07:26:18Z</time>
      </trkpt>
      <trkpt lat="41.982287" lon="2.523116">
        <ele>391.290</ele>
        <time>2021-05-27T07:26:20Z</time>
      </trkpt>
      <trkpt lat="41.982309" lon="2.523117">
        <ele>392.017</ele>
        <time>2021-05-27T07:26:22Z</time>
      </trkpt>
      <trkpt lat="41.982329" lon="2.523119">
        <ele>392.895</ele>
        <time>2021-05-27T07:26:24Z</time>
      </trkpt>
      <trkpt lat="41.982351" lon="2.523117">
        <ele>393.525</ele>
        <time>2021-05-27T07:26:26Z</time>
      </trkpt>
      <trkpt lat="41.982377" lon="2.523104">
        <ele>393.982</ele>
        <time>2021-05-27T07:26:28Z</time>
      </trkpt>
      <trkpt lat="41.982398" lon="2.523096">
        <ele>394.347</ele>
        <time>2021-05-27T07:26:30Z</time>
      </trkpt>
      <trkpt lat="41.982421" lon="2.523083">
        <ele>394.540</ele>
        <time>2021-05-27T07:26:32Z</time>
      </trkpt>
      <trkpt lat="41.982442" lon="2.523080">
        <ele>395.126</ele>
        <time>2021-05-27T07:26:34Z</time>
      </trkpt>
      <trkpt lat="41.982462" lon="2.523079">
        <ele>395.776</ele>
        <time>2021-05-27T07:26:36Z</time>
      </trkpt>
      <trkpt lat="41.982485" lon="2.523067">
        <ele>396.090</ele>
        <time>2021-05-27T07:26:38Z</time>
      </trkpt>
      <trkpt lat="41.982509" lon="2.523055">
        <ele>396.219</ele>
        <time>2021-05-27T07:26:40Z</time>
      </trkpt>
      <trkpt lat="41.982537" lon="2.523037">
        <ele>395.908</ele>
        <time>2021-05-27T07:26:42Z</time>
      </trkpt>
      <trkpt lat="41.982561" lon="2.523025">
        <ele>395.864</ele>
        <time>2021-05-27T07:26:44Z</time>
      </trkpt>
      <trkpt lat="41.982585" lon="2.523014">
        <ele>395.861</ele>
        <time>2021-05-27T07:26:46Z</time>
      </trkpt>
      <trkpt lat="41.982612" lon="2.523000">
        <ele>395.859</ele>
        <time>2021-05-27T07:26:48Z</time>
      </trkpt>
      <trkpt lat="41.982636" lon="2.522987">
        <ele>395.769</ele>
        <time>2021-05-27T07:26:50Z</time>
      </trkpt>
      <trkpt lat="41.982660" lon="2.522967">
        <ele>395.426</ele>
        <time>2021-05-27T07:26:52Z</time>
      </trkpt>
      <trkpt lat="41.982687" lon="2.522942">
        <ele>394.991</ele>
        <time>2021-05-27T07:26:54Z</time>
      </trkpt>
      <trkpt lat="41.982711" lon="2.522923">
        <ele>394.674</ele>
        <time>2021-05-27T07:26:56Z</time>
      </trkpt>
      <trkpt lat="41.982736" lon="2.522909">
        <ele>394.650</ele>
        <time>2021-05-27T07:26:58Z</time>
      </trkpt>
      <trkpt lat="41.982762" lon="2.522891">
        <ele>394.554</ele>
        <time>2021-05-27T07:27:00Z</time>
      </trkpt>
      <trkpt lat="41.982789" lon="2.522877">
        <ele>394.656</ele>
        <time>2021-05-27T07:27:02Z</time>
      </trkpt>
      <trkpt lat="41.982811" lon="2.522864">
        <ele>394.611</ele>
        <time>2021-05-27T07:27:04Z</time>
      </trkpt>
      <trkpt lat="41.982834" lon="2.522857">
        <ele>394.808</ele>
        <time>2021-05-27T07:27:06Z</time>
      </trkpt>
      <trkpt lat="41.982858" lon="2.522848">
        <ele>395.112</ele>
        <time>2021-05-27T07:27:08Z</time>
      </trkpt>
      <trkpt lat="41.982882" lon="2.522837">
        <ele>395.249</ele>
        <time>2021-05-27T07:27:10Z</time>
      </trkpt>
      <trkpt lat="41.982906" lon="2.522822">
        <ele>395.137</ele>
        <time>2021-05-27T07:27:12Z</time>
      </trkpt>
      <trkpt lat="41.982929" lon="2.522812">
        <ele>395.377</ele>
        <time>2021-05-27T07:27:14Z</time>
      </trkpt>
      <trkpt lat="41.982952" lon="2.522805">
        <ele>395.634</ele>
        <time>2021-05-27T07:27:16Z</time>
      </trkpt>
      <trkpt lat="41.982978" lon="2.522797">
        <ele>395.939</ele>
        <time>2021-05-27T07:27:18Z</time>
      </trkpt>
      <trkpt lat="41.983003" lon="2.522795">
        <ele>396.422</ele>
        <time>2021-05-27T07:27:20Z</time>
      </trkpt>
      <trkpt lat="41.983023" lon="2.522788">
        <ele>396.698</ele>
        <time>2021-05-27T07:27:22Z</time>
      </trkpt>
      <trkpt lat="41.983046" lon="2.522777">
        <ele>396.759</ele>
        <time>2021-05-27T07:27:24Z</time>
      </trkpt>
      <trkpt lat="41.983068" lon="2.522753">
        <ele>396.703</ele>
        <time>2021-05-27T07:27:26Z</time>
      </trkpt>
      <trkpt lat="41.983093" lon="2.522740">
        <ele>397.323</ele>
        <time>2021-05-27T07:27:28Z</time>
      </trkpt>
      <trkpt lat="41.983117" lon="2.522730">
        <ele>398.008</ele>
        <time>2021-05-27T07:27:30Z</time>
      </trkpt>
      <trkpt lat="41.983139" lon="2.522719">
        <ele>398.622</ele>
        <time>2021-05-27T07:27:32Z</time>
      </trkpt>
      <trkpt lat="41.983163" lon="2.522707">
        <ele>399.389</ele>
        <time>2021-05-27T07:27:34Z</time>
      </trkpt>
      <trkpt lat="41.983185" lon="2.522691">
        <ele>399.897</ele>
        <time>2021-05-27T07:27:36Z</time>
      </trkpt>
      <trkpt lat="41.983205" lon="2.522681">
        <ele>400.327</ele>
        <time>2021-05-27T07:27:38Z</time>
      </trkpt>
      <trkpt lat="41.983227" lon="2.522674">
        <ele>401.124</ele>
        <time>2021-05-27T07:27:40Z</time>
      </trkpt>
      <trkpt lat="41.983250" lon="2.522658">
        <ele>401.759</ele>
        <time>2021-05-27T07:27:42Z</time>
      </trkpt>
      <trkpt lat="41.983270" lon="2.522642">
        <ele>402.152</ele>
        <time>2021-05-27T07:27:44Z</time>
      </trkpt>
      <trkpt lat="41.983291" lon="2.522619">
        <ele>402.498</ele>
        <time>2021-05-27T07:27:46Z</time>
      </trkpt>
      <trkpt lat="41.983309" lon="2.522607">
        <ele>402.913</ele>
        <time>2021-05-27T07:27:48Z</time>
      </trkpt>
      <trkpt lat="41.983326" lon="2.522585">
        <ele>403.143</ele>
        <time>2021-05-27T07:27:50Z</time>
      </trkpt>
      <trkpt lat="41.983344" lon="2.522563">
        <ele>403.307</ele>
        <time>2021-05-27T07:27:52Z</time>
      </trkpt>
      <trkpt lat="41.983363" lon="2.522542">
        <ele>403.508</ele>
        <time>2021-05-27T07:27:54Z</time>
      </trkpt>
      <trkpt lat="41.983383" lon="2.522529">
        <ele>404.068</ele>
        <time>2021-05-27T07:27:56Z</time>
      </trkpt>
      <trkpt lat="41.983406" lon="2.522517">
        <ele>404.675</ele>
        <time>2021-05-27T07:27:58Z</time>
      </trkpt>
      <trkpt lat="41.983427" lon="2.522500">
        <ele>405.093</ele>
        <time>2021-05-27T07:28:00Z</time>
      </trkpt>
      <trkpt lat="41.983446" lon="2.522481">
        <ele>405.333</ele>
        <time>2021-05-27T07:28:02Z</time>
      </trkpt>
      <trkpt lat="41.983464" lon="2.522464">
        <ele>405.540</ele>
        <time>2021-05-27T07:28:04Z</time>
      </trkpt>
      <trkpt lat="41.983483" lon="2.522443">
        <ele>405.655</ele>
        <time>2021-05-27T07:28:06Z</time>
      </trkpt>
      <trkpt lat="41.983502" lon="2.522423">
        <ele>405.828</ele>
        <time>2021-05-27T07:28:08Z</time>
      </trkpt>
      <trkpt lat="41.983524" lon="2.522410">
        <ele>406.354</ele>
        <time>2021-05-27T07:28:10Z</time>
      </trkpt>
      <trkpt lat="41.983544" lon="2.522391">
        <ele>406.631</ele>
        <time>2021-05-27T07:28:12Z</time>
      </trkpt>
      <trkpt lat="41.983559" lon="2.522367">
        <ele>406.461</ele>
        <time>2021-05-27T07:28:14Z</time>
      </trkpt>
      <trkpt lat="41.983577" lon="2.522339">
        <ele>406.307</ele>
        <time>2021-05-27T07:28:16Z</time>
      </trkpt>
      <trkpt lat="41.983588" lon="2.522309">
        <ele>405.808</ele>
        <time>2021-05-27T07:28:18Z</time>
      </trkpt>
      <trkpt lat="41.983604" lon="2.522290">
        <ele>405.970</ele>
        <time>2021-05-27T07:28:20Z</time>
      </trkpt>
      <trkpt lat="41.983624" lon="2.522274">
        <ele>406.097</ele>
        <time>2021-05-27T07:28:22Z</time>
      </trkpt>
      <trkpt lat="41.983646" lon="2.522258">
        <ele>406.055</ele>
        <time>2021-05-27T07:28:24Z</time>
      </trkpt>
      <trkpt lat="41.983664" lon="2.522237">
        <ele>405.885</ele>
        <time>2021-05-27T07:28:26Z</time>
      </trkpt>
      <trkpt lat="41.983683" lon="2.522217">
        <ele>405.652</ele>
        <time>2021-05-27T07:28:28Z</time>
      </trkpt>
      <trkpt lat="41.983701" lon="2.522193">
        <ele>405.337</ele>
        <time>2021-05-27T07:28:30Z</time>
      </trkpt>
      <trkpt lat="41.983722" lon="2.522170">
        <ele>405.110</ele>
        <time>2021-05-27T07:28:32Z</time>
      </trkpt>
      <trkpt lat="41.983742" lon="2.522151">
        <ele>405.116</ele>
        <time>2021-05-27T07:28:34Z</time>
      </trkpt>
      <trkpt lat="41.983760" lon="2.522131">
        <ele>405.077</ele>
        <time>2021-05-27T07:28:36Z</time>
      </trkpt>
      <trkpt lat="41.983776" lon="2.522105">
        <ele>404.761</ele>
        <time>2021-05-27T07:28:38Z</time>
      </trkpt>
      <trkpt lat="41.983794" lon="2.522078">
        <ele>404.427</ele>
        <time>2021-05-27T07:28:40Z</time>
      </trkpt>
      <trkpt lat="41.983810" lon="2.522053">
        <ele>404.208</ele>
        <time>2021-05-27T07:28:42Z</time>
      </trkpt>
      <trkpt lat="41.983823" lon="2.522027">
        <ele>403.924</ele>
        <time>2021-05-27T07:28:44Z</time>
      </trkpt>
      <trkpt lat="41.983838" lon="2.522003">
        <ele>403.861</ele>
        <time>2021-05-27T07:28:46Z</time>
      </trkpt>
      <trkpt lat="41.983857" lon="2.521984">
        <ele>403.979</ele>
        <time>2021-05-27T07:28:48Z</time>
      </trkpt>
      <trkpt lat="41.983875" lon="2.521966">
        <ele>404.149</ele>
        <time>2021-05-27T07:28:50Z</time>
      </trkpt>
      <trkpt lat="41.983896" lon="2.521957">
        <ele>404.336</ele>
        <time>2021-05-27T07:28:52Z</time>
      </trkpt>
      <trkpt lat="41.983914" lon="2.521941">
        <ele>403.821</ele>
        <time>2021-05-27T07:28:54Z</time>
      </trkpt>
      <trkpt lat="41.983935" lon="2.521928">
        <ele>403.384</ele>
        <time>2021-05-27T07:28:56Z</time>
      </trkpt>
      <trkpt lat="41.983956" lon="2.521915">
        <ele>402.880</ele>
        <time>2021-05-27T07:28:58Z</time>
      </trkpt>
      <trkpt lat="41.983975" lon="2.521901">
        <ele>402.368</ele>
        <time>2021-05-27T07:29:00Z</time>
      </trkpt>
      <trkpt lat="41.983997" lon="2.521884">
        <ele>401.742</ele>
        <time>2021-05-27T07:29:02Z</time>
      </trkpt>
      <trkpt lat="41.984014" lon="2.521862">
        <ele>401.026</ele>
        <time>2021-05-27T07:29:04Z</time>
      </trkpt>
      <trkpt lat="41.984026" lon="2.521844">
        <ele>400.408</ele>
        <time>2021-05-27T07:29:06Z</time>
      </trkpt>
      <trkpt lat="41.984046" lon="2.521846">
        <ele>400.433</ele>
        <time>2021-05-27T07:29:08Z</time>
      </trkpt>
      <trkpt lat="41.984064" lon="2.521861">
        <ele>400.950</ele>
        <time>2021-05-27T07:29:10Z</time>
      </trkpt>
      <trkpt lat="41.984081" lon="2.521873">
        <ele>401.238</ele>
        <time>2021-05-27T07:29:12Z</time>
      </trkpt>
      <trkpt lat="41.984094" lon="2.521893">
        <ele>401.748</ele>
        <time>2021-05-27T07:29:14Z</time>
      </trkpt>
      <trkpt lat="41.984109" lon="2.521913">
        <ele>402.325</ele>
        <time>2021-05-27T07:29:16Z</time>
      </trkpt>
      <trkpt lat="41.984121" lon="2.521937">
        <ele>402.990</ele>
        <time>2021-05-27T07:29:18Z</time>
      </trkpt>
      <trkpt lat="41.984133" lon="2.521960">
        <ele>403.783</ele>
        <time>2021-05-27T07:29:20Z</time>
      </trkpt>
      <trkpt lat="41.984142" lon="2.521988">
        <ele>404.679</ele>
        <time>2021-05-27T07:29:22Z</time>
      </trkpt>
      <trkpt lat="41.984154" lon="2.522010">
        <ele>405.453</ele>
        <time>2021-05-27T07:29:24Z</time>
      </trkpt>
      <trkpt lat="41.984160" lon="2.522034">
        <ele>406.204</ele>
        <time>2021-05-27T07:29:26Z</time>
      </trkpt>
      <trkpt lat="41.984172" lon="2.522055">
        <ele>406.814</ele>
        <time>2021-05-27T07:29:28Z</time>
      </trkpt>
      <trkpt lat="41.984184" lon="2.522078">
        <ele>407.308</ele>
        <time>2021-05-27T07:29:30Z</time>
      </trkpt>
      <trkpt lat="41.984193" lon="2.522100">
        <ele>407.862</ele>
        <time>2021-05-27T07:29:32Z</time>
      </trkpt>
      <trkpt lat="41.984202" lon="2.522124">
        <ele>408.479</ele>
        <time>2021-05-27T07:29:34Z</time>
      </trkpt>
      <trkpt lat="41.984209" lon="2.522148">
        <ele>409.197</ele>
        <time>2021-05-27T07:29:36Z</time>
      </trkpt>
      <trkpt lat="41.984220" lon="2.522170">
        <ele>409.527</ele>
        <time>2021-05-27T07:29:38Z</time>
      </trkpt>
      <trkpt lat="41.984230" lon="2.522191">
        <ele>410.054</ele>
        <time>2021-05-27T07:29:40Z</time>
      </trkpt>
      <trkpt lat="41.984241" lon="2.522213">
        <ele>410.599</ele>
        <time>2021-05-27T07:29:42Z</time>
      </trkpt>
      <trkpt lat="41.984251" lon="2.522234">
        <ele>410.972</ele>
        <time>2021-05-27T07:29:44Z</time>
      </trkpt>
      <trkpt lat="41.984268" lon="2.522262">
        <ele>411.198</ele>
        <time>2021-05-27T07:29:47Z</time>
      </trkpt>
      <trkpt lat="41.984282" lon="2.522281">
        <ele>411.264</ele>
        <time>2021-05-27T07:29:49Z</time>
      </trkpt>
      <trkpt lat="41.984298" lon="2.522301">
        <ele>411.306</ele>
        <time>2021-05-27T07:29:51Z</time>
      </trkpt>
      <trkpt lat="41.984317" lon="2.522330">
        <ele>411.616</ele>
        <time>2021-05-27T07:29:54Z</time>
      </trkpt>
      <trkpt lat="41.984331" lon="2.522346">
        <ele>411.608</ele>
        <time>2021-05-27T07:29:56Z</time>
      </trkpt>
      <trkpt lat="41.984342" lon="2.522368">
        <ele>412.043</ele>
        <time>2021-05-27T07:29:58Z</time>
      </trkpt>
      <trkpt lat="41.984355" lon="2.522391">
        <ele>412.290</ele>
        <time>2021-05-27T07:30:00Z</time>
      </trkpt>
      <trkpt lat="41.984370" lon="2.522411">
        <ele>412.458</ele>
        <time>2021-05-27T07:30:02Z</time>
      </trkpt>
      <trkpt lat="41.984385" lon="2.522437">
        <ele>412.778</ele>
        <time>2021-05-27T07:30:04Z</time>
      </trkpt>
      <trkpt lat="41.984401" lon="2.522456">
        <ele>412.975</ele>
        <time>2021-05-27T07:30:06Z</time>
      </trkpt>
      <trkpt lat="41.984417" lon="2.522473">
        <ele>412.930</ele>
        <time>2021-05-27T07:30:08Z</time>
      </trkpt>
      <trkpt lat="41.984432" lon="2.522496">
        <ele>413.253</ele>
        <time>2021-05-27T07:30:10Z</time>
      </trkpt>
      <trkpt lat="41.984445" lon="2.522520">
        <ele>413.449</ele>
        <time>2021-05-27T07:30:12Z</time>
      </trkpt>
      <trkpt lat="41.984461" lon="2.522541">
        <ele>413.764</ele>
        <time>2021-05-27T07:30:14Z</time>
      </trkpt>
      <trkpt lat="41.984476" lon="2.522562">
        <ele>413.906</ele>
        <time>2021-05-27T07:30:16Z</time>
      </trkpt>
      <trkpt lat="41.984487" lon="2.522586">
        <ele>414.316</ele>
        <time>2021-05-27T07:30:18Z</time>
      </trkpt>
      <trkpt lat="41.984502" lon="2.522609">
        <ele>414.708</ele>
        <time>2021-05-27T07:30:20Z</time>
      </trkpt>
      <trkpt lat="41.984515" lon="2.522636">
        <ele>415.243</ele>
        <time>2021-05-27T07:30:22Z</time>
      </trkpt>
      <trkpt lat="41.984519" lon="2.522664">
        <ele>415.850</ele>
        <time>2021-05-27T07:30:24Z</time>
      </trkpt>
      <trkpt lat="41.984519" lon="2.522695">
        <ele>416.568</ele>
        <time>2021-05-27T07:30:27Z</time>
      </trkpt>
      <trkpt lat="41.984507" lon="2.522714">
        <ele>417.198</ele>
        <time>2021-05-27T07:30:29Z</time>
      </trkpt>
      <trkpt lat="41.984481" lon="2.522725">
        <ele>417.515</ele>
        <time>2021-05-27T07:30:32Z</time>
      </trkpt>
      <trkpt lat="41.984457" lon="2.522721">
        <ele>417.770</ele>
        <time>2021-05-27T07:30:34Z</time>
      </trkpt>
      <trkpt lat="41.984432" lon="2.522715">
        <ele>417.963</ele>
        <time>2021-05-27T07:30:36Z</time>
      </trkpt>
      <trkpt lat="41.984411" lon="2.522712">
        <ele>418.269</ele>
        <time>2021-05-27T07:30:38Z</time>
      </trkpt>
      <trkpt lat="41.984388" lon="2.522704">
        <ele>418.515</ele>
        <time>2021-05-27T07:30:40Z</time>
      </trkpt>
      <trkpt lat="41.984366" lon="2.522689">
        <ele>418.765</ele>
        <time>2021-05-27T07:30:42Z</time>
      </trkpt>
      <trkpt lat="41.984345" lon="2.522669">
        <ele>418.711</ele>
        <time>2021-05-27T07:30:44Z</time>
      </trkpt>
      <trkpt lat="41.984325" lon="2.522653">
        <ele>418.808</ele>
        <time>2021-05-27T07:30:46Z</time>
      </trkpt>
      <trkpt lat="41.984308" lon="2.522634">
        <ele>418.998</ele>
        <time>2021-05-27T07:30:48Z</time>
      </trkpt>
      <trkpt lat="41.984288" lon="2.522613">
        <ele>418.945</ele>
        <time>2021-05-27T07:30:50Z</time>
      </trkpt>
      <trkpt lat="41.984270" lon="2.522591">
        <ele>418.963</ele>
        <time>2021-05-27T07:30:52Z</time>
      </trkpt>
      <trkpt lat="41.984256" lon="2.522566">
        <ele>418.943</ele>
        <time>2021-05-27T07:30:54Z</time>
      </trkpt>
      <trkpt lat="41.984239" lon="2.522544">
        <ele>418.950</ele>
        <time>2021-05-27T07:30:56Z</time>
      </trkpt>
      <trkpt lat="41.984225" lon="2.522521">
        <ele>418.975</ele>
        <time>2021-05-27T07:30:58Z</time>
      </trkpt>
      <trkpt lat="41.984210" lon="2.522497">
        <ele>418.828</ele>
        <time>2021-05-27T07:31:00Z</time>
      </trkpt>
      <trkpt lat="41.984197" lon="2.522474">
        <ele>418.694</ele>
        <time>2021-05-27T07:31:02Z</time>
      </trkpt>
      <trkpt lat="41.984183" lon="2.522450">
        <ele>418.374</ele>
        <time>2021-05-27T07:31:04Z</time>
      </trkpt>
      <trkpt lat="41.984169" lon="2.522427">
        <ele>418.156</ele>
        <time>2021-05-27T07:31:06Z</time>
      </trkpt>
      <trkpt lat="41.984155" lon="2.522404">
        <ele>417.621</ele>
        <time>2021-05-27T07:31:08Z</time>
      </trkpt>
      <trkpt lat="41.984141" lon="2.522385">
        <ele>417.008</ele>
        <time>2021-05-27T07:31:10Z</time>
      </trkpt>
      <trkpt lat="41.984125" lon="2.522365">
        <ele>416.564</ele>
        <time>2021-05-27T07:31:12Z</time>
      </trkpt>
      <trkpt lat="41.984108" lon="2.522346">
        <ele>415.931</ele>
        <time>2021-05-27T07:31:14Z</time>
      </trkpt>
      <trkpt lat="41.984094" lon="2.522327">
        <ele>415.329</ele>
        <time>2021-05-27T07:31:16Z</time>
      </trkpt>
      <trkpt lat="41.984076" lon="2.522309">
        <ele>414.759</ele>
        <time>2021-05-27T07:31:18Z</time>
      </trkpt>
      <trkpt lat="41.984057" lon="2.522293">
        <ele>414.266</ele>
        <time>2021-05-27T07:31:20Z</time>
      </trkpt>
      <trkpt lat="41.984039" lon="2.522276">
        <ele>413.621</ele>
        <time>2021-05-27T07:31:22Z</time>
      </trkpt>
      <trkpt lat="41.984019" lon="2.522263">
        <ele>413.194</ele>
        <time>2021-05-27T07:31:24Z</time>
      </trkpt>
      <trkpt lat="41.983997" lon="2.522261">
        <ele>412.990</ele>
        <time>2021-05-27T07:31:26Z</time>
      </trkpt>
      <trkpt lat="41.983975" lon="2.522264">
        <ele>412.922</ele>
        <time>2021-05-27T07:31:28Z</time>
      </trkpt>
      <trkpt lat="41.983952" lon="2.522264">
        <ele>412.762</ele>
        <time>2021-05-27T07:31:30Z</time>
      </trkpt>
      <trkpt lat="41.983929" lon="2.522266">
        <ele>412.708</ele>
        <time>2021-05-27T07:31:32Z</time>
      </trkpt>
      <trkpt lat="41.983910" lon="2.522276">
        <ele>412.908</ele>
        <time>2021-05-27T07:31:34Z</time>
      </trkpt>
      <trkpt lat="41.983891" lon="2.522285">
        <ele>413.099</ele>
        <time>2021-05-27T07:31:36Z</time>
      </trkpt>
      <trkpt lat="41.983871" lon="2.522297">
        <ele>413.056</ele>
        <time>2021-05-27T07:31:38Z</time>
      </trkpt>
      <trkpt lat="41.983854" lon="2.522312">
        <ele>413.034</ele>
        <time>2021-05-27T07:31:40Z</time>
      </trkpt>
      <trkpt lat="41.983840" lon="2.522334">
        <ele>413.424</ele>
        <time>2021-05-27T07:31:42Z</time>
      </trkpt>
      <trkpt lat="41.983827" lon="2.522355">
        <ele>413.731</ele>
        <time>2021-05-27T07:31:44Z</time>
      </trkpt>
      <trkpt lat="41.983813" lon="2.522378">
        <ele>414.196</ele>
        <time>2021-05-27T07:31:46Z</time>
      </trkpt>
      <trkpt lat="41.983798" lon="2.522406">
        <ele>414.739</ele>
        <time>2021-05-27T07:31:48Z</time>
      </trkpt>
      <trkpt lat="41.983789" lon="2.522437">
        <ele>415.455</ele>
        <time>2021-05-27T07:31:50Z</time>
      </trkpt>
      <trkpt lat="41.983775" lon="2.522470">
        <ele>416.226</ele>
        <time>2021-05-27T07:31:52Z</time>
      </trkpt>
      <trkpt lat="41.983766" lon="2.522504">
        <ele>417.047</ele>
        <time>2021-05-27T07:31:54Z</time>
      </trkpt>
      <trkpt lat="41.983759" lon="2.522542">
        <ele>417.911</ele>
        <time>2021-05-27T07:31:56Z</time>
      </trkpt>
      <trkpt lat="41.983752" lon="2.522580">
        <ele>418.908</ele>
        <time>2021-05-27T07:31:58Z</time>
      </trkpt>
      <trkpt lat="41.983743" lon="2.522616">
        <ele>419.799</ele>
        <time>2021-05-27T07:32:00Z</time>
      </trkpt>
      <trkpt lat="41.983731" lon="2.522654">
        <ele>420.516</ele>
        <time>2021-05-27T07:32:02Z</time>
      </trkpt>
      <trkpt lat="41.983718" lon="2.522695">
        <ele>421.374</ele>
        <time>2021-05-27T07:32:04Z</time>
      </trkpt>
      <trkpt lat="41.983701" lon="2.522737">
        <ele>422.174</ele>
        <time>2021-05-27T07:32:06Z</time>
      </trkpt>
      <trkpt lat="41.983682" lon="2.522777">
        <ele>422.871</ele>
        <time>2021-05-27T07:32:08Z</time>
      </trkpt>
      <trkpt lat="41.983672" lon="2.522799">
        <ele>423.056</ele>
        <time>2021-05-27T07:32:09Z</time>
      </trkpt>
      <trkpt lat="41.983660" lon="2.522821">
        <ele>423.249</ele>
        <time>2021-05-27T07:32:10Z</time>
      </trkpt>
      <trkpt lat="41.983650" lon="2.522843">
        <ele>423.595</ele>
        <time>2021-05-27T07:32:11Z</time>
      </trkpt>
      <trkpt lat="41.983639" lon="2.522865">
        <ele>423.835</ele>
        <time>2021-05-27T07:32:12Z</time>
      </trkpt>
      <trkpt lat="41.983626" lon="2.522884">
        <ele>424.086</ele>
        <time>2021-05-27T07:32:13Z</time>
      </trkpt>
      <trkpt lat="41.983614" lon="2.522902">
        <ele>424.214</ele>
        <time>2021-05-27T07:32:14Z</time>
      </trkpt>
      <trkpt lat="41.983602" lon="2.522923">
        <ele>424.308</ele>
        <time>2021-05-27T07:32:15Z</time>
      </trkpt>
      <trkpt lat="41.983589" lon="2.522944">
        <ele>424.480</ele>
        <time>2021-05-27T07:32:16Z</time>
      </trkpt>
      <trkpt lat="41.983575" lon="2.522964">
        <ele>424.447</ele>
        <time>2021-05-27T07:32:17Z</time>
      </trkpt>
      <trkpt lat="41.983560" lon="2.522982">
        <ele>424.375</ele>
        <time>2021-05-27T07:32:18Z</time>
      </trkpt>
      <trkpt lat="41.983544" lon="2.522999">
        <ele>424.395</ele>
        <time>2021-05-27T07:32:19Z</time>
      </trkpt>
      <trkpt lat="41.983528" lon="2.523017">
        <ele>424.252</ele>
        <time>2021-05-27T07:32:20Z</time>
      </trkpt>
      <trkpt lat="41.983516" lon="2.523035">
        <ele>424.387</ele>
        <time>2021-05-27T07:32:21Z</time>
      </trkpt>
      <trkpt lat="41.983502" lon="2.523052">
        <ele>424.480</ele>
        <time>2021-05-27T07:32:22Z</time>
      </trkpt>
      <trkpt lat="41.983485" lon="2.523068">
        <ele>424.386</ele>
        <time>2021-05-27T07:32:23Z</time>
      </trkpt>
      <trkpt lat="41.983470" lon="2.523084">
        <ele>424.261</ele>
        <time>2021-05-27T07:32:24Z</time>
      </trkpt>
      <trkpt lat="41.983455" lon="2.523100">
        <ele>424.321</ele>
        <time>2021-05-27T07:32:25Z</time>
      </trkpt>
      <trkpt lat="41.983440" lon="2.523117">
        <ele>424.313</ele>
        <time>2021-05-27T07:32:26Z</time>
      </trkpt>
      <trkpt lat="41.983426" lon="2.523133">
        <ele>424.408</ele>
        <time>2021-05-27T07:32:27Z</time>
      </trkpt>
      <trkpt lat="41.983410" lon="2.523149">
        <ele>424.543</ele>
        <time>2021-05-27T07:32:28Z</time>
      </trkpt>
      <trkpt lat="41.983396" lon="2.523166">
        <ele>424.660</ele>
        <time>2021-05-27T07:32:29Z</time>
      </trkpt>
      <trkpt lat="41.983381" lon="2.523181">
        <ele>424.898</ele>
        <time>2021-05-27T07:32:30Z</time>
      </trkpt>
      <trkpt lat="41.983364" lon="2.523197">
        <ele>424.928</ele>
        <time>2021-05-27T07:32:31Z</time>
      </trkpt>
      <trkpt lat="41.983349" lon="2.523214">
        <ele>425.125</ele>
        <time>2021-05-27T07:32:32Z</time>
      </trkpt>
      <trkpt lat="41.983334" lon="2.523230">
        <ele>425.360</ele>
        <time>2021-05-27T07:32:33Z</time>
      </trkpt>
      <trkpt lat="41.983316" lon="2.523246">
        <ele>425.433</ele>
        <time>2021-05-27T07:32:34Z</time>
      </trkpt>
      <trkpt lat="41.983298" lon="2.523261">
        <ele>425.419</ele>
        <time>2021-05-27T07:32:35Z</time>
      </trkpt>
      <trkpt lat="41.983283" lon="2.523278">
        <ele>425.646</ele>
        <time>2021-05-27T07:32:36Z</time>
      </trkpt>
      <trkpt lat="41.983268" lon="2.523296">
        <ele>425.988</ele>
        <time>2021-05-27T07:32:37Z</time>
      </trkpt>
      <trkpt lat="41.983252" lon="2.523311">
        <ele>426.116</ele>
        <time>2021-05-27T07:32:38Z</time>
      </trkpt>
      <trkpt lat="41.983237" lon="2.523328">
        <ele>426.408</ele>
        <time>2021-05-27T07:32:39Z</time>
      </trkpt>
      <trkpt lat="41.983222" lon="2.523345">
        <ele>426.671</ele>
        <time>2021-05-27T07:32:40Z</time>
      </trkpt>
      <trkpt lat="41.983205" lon="2.523361">
        <ele>426.968</ele>
        <time>2021-05-27T07:32:41Z</time>
      </trkpt>
      <trkpt lat="41.983187" lon="2.523376">
        <ele>427.026</ele>
        <time>2021-05-27T07:32:42Z</time>
      </trkpt>
      <trkpt lat="41.983171" lon="2.523390">
        <ele>427.226</ele>
        <time>2021-05-27T07:32:43Z</time>
      </trkpt>
      <trkpt lat="41.983153" lon="2.523403">
        <ele>427.363</ele>
        <time>2021-05-27T07:32:44Z</time>
      </trkpt>
      <trkpt lat="41.983123" lon="2.523430">
        <ele>427.718</ele>
        <time>2021-05-27T07:32:46Z</time>
      </trkpt>
      <trkpt lat="41.983109" lon="2.523444">
        <ele>428.071</ele>
        <time>2021-05-27T07:32:47Z</time>
      </trkpt>
      <trkpt lat="41.983093" lon="2.523457">
        <ele>428.217</ele>
        <time>2021-05-27T07:32:48Z</time>
      </trkpt>
      <trkpt lat="41.983077" lon="2.523470">
        <ele>428.473</ele>
        <time>2021-05-27T07:32:49Z</time>
      </trkpt>
      <trkpt lat="41.983061" lon="2.523484">
        <ele>428.685</ele>
        <time>2021-05-27T07:32:50Z</time>
      </trkpt>
      <trkpt lat="41.983043" lon="2.523495">
        <ele>428.713</ele>
        <time>2021-05-27T07:32:51Z</time>
      </trkpt>
      <trkpt lat="41.983027" lon="2.523509">
        <ele>428.908</ele>
        <time>2021-05-27T07:32:52Z</time>
      </trkpt>
      <trkpt lat="41.983010" lon="2.523520">
        <ele>428.974</ele>
        <time>2021-05-27T07:32:53Z</time>
      </trkpt>
      <trkpt lat="41.982992" lon="2.523531">
        <ele>428.981</ele>
        <time>2021-05-27T07:32:54Z</time>
      </trkpt>
      <trkpt lat="41.982960" lon="2.523554">
        <ele>429.149</ele>
        <time>2021-05-27T07:32:56Z</time>
      </trkpt>
      <trkpt lat="41.982941" lon="2.523566">
        <ele>429.279</ele>
        <time>2021-05-27T07:32:57Z</time>
      </trkpt>
      <trkpt lat="41.982923" lon="2.523575">
        <ele>429.156</ele>
        <time>2021-05-27T07:32:58Z</time>
      </trkpt>
      <trkpt lat="41.982905" lon="2.523582">
        <ele>428.941</ele>
        <time>2021-05-27T07:32:59Z</time>
      </trkpt>
      <trkpt lat="41.982873" lon="2.523596">
        <ele>428.734</ele>
        <time>2021-05-27T07:33:01Z</time>
      </trkpt>
      <trkpt lat="41.982846" lon="2.523616">
        <ele>428.970</ele>
        <time>2021-05-27T07:33:03Z</time>
      </trkpt>
      <trkpt lat="41.982825" lon="2.523646">
        <ele>429.639</ele>
        <time>2021-05-27T07:33:05Z</time>
      </trkpt>
      <trkpt lat="41.982825" lon="2.523677">
        <ele>430.801</ele>
        <time>2021-05-27T07:33:07Z</time>
      </trkpt>
      <trkpt lat="41.982845" lon="2.523691">
        <ele>431.921</ele>
        <time>2021-05-27T07:33:09Z</time>
      </trkpt>
      <trkpt lat="41.982873" lon="2.523690">
        <ele>432.508</ele>
        <time>2021-05-27T07:33:11Z</time>
      </trkpt>
      <trkpt lat="41.982900" lon="2.523689">
        <ele>433.210</ele>
        <time>2021-05-27T07:33:13Z</time>
      </trkpt>
      <trkpt lat="41.982927" lon="2.523683">
        <ele>433.637</ele>
        <time>2021-05-27T07:33:15Z</time>
      </trkpt>
      <trkpt lat="41.982954" lon="2.523675">
        <ele>434.015</ele>
        <time>2021-05-27T07:33:17Z</time>
      </trkpt>
      <trkpt lat="41.982980" lon="2.523671">
        <ele>434.595</ele>
        <time>2021-05-27T07:33:19Z</time>
      </trkpt>
      <trkpt lat="41.983009" lon="2.523667">
        <ele>435.022</ele>
        <time>2021-05-27T07:33:21Z</time>
      </trkpt>
      <trkpt lat="41.983031" lon="2.523662">
        <ele>435.457</ele>
        <time>2021-05-27T07:33:22Z</time>
      </trkpt>
      <trkpt lat="41.983049" lon="2.523655">
        <ele>435.680</ele>
        <time>2021-05-27T07:33:23Z</time>
      </trkpt>
      <trkpt lat="41.983080" lon="2.523638">
        <ele>435.496</ele>
        <time>2021-05-27T07:33:25Z</time>
      </trkpt>
      <trkpt lat="41.983098" lon="2.523628">
        <ele>435.442</ele>
        <time>2021-05-27T07:33:26Z</time>
      </trkpt>
      <trkpt lat="41.983133" lon="2.523618">
        <ele>435.622</ele>
        <time>2021-05-27T07:33:28Z</time>
      </trkpt>
      <trkpt lat="41.983149" lon="2.523605">
        <ele>435.414</ele>
        <time>2021-05-27T07:33:29Z</time>
      </trkpt>
      <trkpt lat="41.983165" lon="2.523592">
        <ele>435.208</ele>
        <time>2021-05-27T07:33:30Z</time>
      </trkpt>
      <trkpt lat="41.983185" lon="2.523577">
        <ele>435.091</ele>
        <time>2021-05-27T07:33:31Z</time>
      </trkpt>
      <trkpt lat="41.983204" lon="2.523561">
        <ele>434.738</ele>
        <time>2021-05-27T07:33:32Z</time>
      </trkpt>
      <trkpt lat="41.983220" lon="2.523546">
        <ele>434.416</ele>
        <time>2021-05-27T07:33:33Z</time>
      </trkpt>
      <trkpt lat="41.983251" lon="2.523523">
        <ele>434.216</ele>
        <time>2021-05-27T07:33:35Z</time>
      </trkpt>
      <trkpt lat="41.983270" lon="2.523511">
        <ele>434.173</ele>
        <time>2021-05-27T07:33:36Z</time>
      </trkpt>
      <trkpt lat="41.983286" lon="2.523496">
        <ele>433.928</ele>
        <time>2021-05-27T07:33:37Z</time>
      </trkpt>
      <trkpt lat="41.983306" lon="2.523487">
        <ele>434.081</ele>
        <time>2021-05-27T07:33:38Z</time>
      </trkpt>
      <trkpt lat="41.983320" lon="2.523471">
        <ele>433.747</ele>
        <time>2021-05-27T07:33:39Z</time>
      </trkpt>
      <trkpt lat="41.983336" lon="2.523456">
        <ele>433.494</ele>
        <time>2021-05-27T07:33:40Z</time>
      </trkpt>
      <trkpt lat="41.983352" lon="2.523440">
        <ele>433.157</ele>
        <time>2021-05-27T07:33:41Z</time>
      </trkpt>
      <trkpt lat="41.983368" lon="2.523421">
        <ele>432.622</ele>
        <time>2021-05-27T07:33:42Z</time>
      </trkpt>
      <trkpt lat="41.983384" lon="2.523403">
        <ele>432.208</ele>
        <time>2021-05-27T07:33:43Z</time>
      </trkpt>
      <trkpt lat="41.983403" lon="2.523386">
        <ele>432.056</ele>
        <time>2021-05-27T07:33:44Z</time>
      </trkpt>
      <trkpt lat="41.983420" lon="2.523370">
        <ele>431.753</ele>
        <time>2021-05-27T07:33:45Z</time>
      </trkpt>
      <trkpt lat="41.983437" lon="2.523354">
        <ele>431.571</ele>
        <time>2021-05-27T07:33:46Z</time>
      </trkpt>
      <trkpt lat="41.983453" lon="2.523341">
        <ele>431.431</ele>
        <time>2021-05-27T07:33:47Z</time>
      </trkpt>
      <trkpt lat="41.983468" lon="2.523328">
        <ele>431.348</ele>
        <time>2021-05-27T07:33:48Z</time>
      </trkpt>
      <trkpt lat="41.983484" lon="2.523311">
        <ele>431.193</ele>
        <time>2021-05-27T07:33:49Z</time>
      </trkpt>
      <trkpt lat="41.983499" lon="2.523297">
        <ele>431.086</ele>
        <time>2021-05-27T07:33:50Z</time>
      </trkpt>
      <trkpt lat="41.983527" lon="2.523267">
        <ele>430.842</ele>
        <time>2021-05-27T07:33:52Z</time>
      </trkpt>
      <trkpt lat="41.983554" lon="2.523238">
        <ele>430.616</ele>
        <time>2021-05-27T07:33:54Z</time>
      </trkpt>
      <trkpt lat="41.983569" lon="2.523221">
        <ele>430.676</ele>
        <time>2021-05-27T07:33:55Z</time>
      </trkpt>
      <trkpt lat="41.983585" lon="2.523203">
        <ele>430.513</ele>
        <time>2021-05-27T07:33:56Z</time>
      </trkpt>
      <trkpt lat="41.983601" lon="2.523183">
        <ele>430.508</ele>
        <time>2021-05-27T07:33:57Z</time>
      </trkpt>
      <trkpt lat="41.983619" lon="2.523162">
        <ele>430.398</ele>
        <time>2021-05-27T07:33:58Z</time>
      </trkpt>
      <trkpt lat="41.983633" lon="2.523140">
        <ele>429.935</ele>
        <time>2021-05-27T07:33:59Z</time>
      </trkpt>
      <trkpt lat="41.983647" lon="2.523119">
        <ele>429.683</ele>
        <time>2021-05-27T07:34:00Z</time>
      </trkpt>
      <trkpt lat="41.983659" lon="2.523095">
        <ele>429.273</ele>
        <time>2021-05-27T07:34:01Z</time>
      </trkpt>
      <trkpt lat="41.983670" lon="2.523073">
        <ele>428.960</ele>
        <time>2021-05-27T07:34:02Z</time>
      </trkpt>
      <trkpt lat="41.983683" lon="2.523050">
        <ele>428.785</ele>
        <time>2021-05-27T07:34:03Z</time>
      </trkpt>
      <trkpt lat="41.983697" lon="2.523028">
        <ele>428.498</ele>
        <time>2021-05-27T07:34:04Z</time>
      </trkpt>
      <trkpt lat="41.983710" lon="2.523007">
        <ele>428.114</ele>
        <time>2021-05-27T07:34:05Z</time>
      </trkpt>
      <trkpt lat="41.983726" lon="2.522986">
        <ele>427.975</ele>
        <time>2021-05-27T07:34:06Z</time>
      </trkpt>
      <trkpt lat="41.983755" lon="2.522943">
        <ele>427.628</ele>
        <time>2021-05-27T07:34:08Z</time>
      </trkpt>
      <trkpt lat="41.983771" lon="2.522922">
        <ele>427.520</ele>
        <time>2021-05-27T07:34:09Z</time>
      </trkpt>
      <trkpt lat="41.983787" lon="2.522902">
        <ele>427.408</ele>
        <time>2021-05-27T07:34:10Z</time>
      </trkpt>
      <trkpt lat="41.983803" lon="2.522885">
        <ele>427.554</ele>
        <time>2021-05-27T07:34:11Z</time>
      </trkpt>
      <trkpt lat="41.983820" lon="2.522870">
        <ele>427.651</ele>
        <time>2021-05-27T07:34:12Z</time>
      </trkpt>
      <trkpt lat="41.983838" lon="2.522859">
        <ele>427.819</ele>
        <time>2021-05-27T07:34:13Z</time>
      </trkpt>
      <trkpt lat="41.983870" lon="2.522843">
        <ele>428.319</ele>
        <time>2021-05-27T07:34:15Z</time>
      </trkpt>
      <trkpt lat="41.983903" lon="2.522839">
        <ele>428.526</ele>
        <time>2021-05-27T07:34:17Z</time>
      </trkpt>
      <trkpt lat="41.983934" lon="2.522846">
        <ele>428.131</ele>
        <time>2021-05-27T07:34:19Z</time>
      </trkpt>
      <trkpt lat="41.983955" lon="2.522844">
        <ele>427.894</ele>
        <time>2021-05-27T07:34:21Z</time>
      </trkpt>
      <trkpt lat="41.983979" lon="2.522895">
        <ele>428.040</ele>
        <time>2021-05-27T07:34:27Z</time>
      </trkpt>
      <trkpt lat="41.983997" lon="2.522927">
        <ele>428.115</ele>
        <time>2021-05-27T07:34:29Z</time>
      </trkpt>
      <trkpt lat="41.984008" lon="2.522947">
        <ele>428.165</ele>
        <time>2021-05-27T07:34:30Z</time>
      </trkpt>
      <trkpt lat="41.984015" lon="2.522969">
        <ele>428.211</ele>
        <time>2021-05-27T07:34:31Z</time>
      </trkpt>
      <trkpt lat="41.984023" lon="2.522993">
        <ele>428.408</ele>
        <time>2021-05-27T07:34:32Z</time>
      </trkpt>
      <trkpt lat="41.984033" lon="2.523042">
        <ele>428.838</ele>
        <time>2021-05-27T07:34:34Z</time>
      </trkpt>
      <trkpt lat="41.984034" lon="2.523069">
        <ele>429.015</ele>
        <time>2021-05-27T07:34:35Z</time>
      </trkpt>
      <trkpt lat="41.984033" lon="2.523097">
        <ele>429.133</ele>
        <time>2021-05-27T07:34:36Z</time>
      </trkpt>
      <trkpt lat="41.984030" lon="2.523124">
        <ele>429.233</ele>
        <time>2021-05-27T07:34:37Z</time>
      </trkpt>
      <trkpt lat="41.984024" lon="2.523153">
        <ele>429.440</ele>
        <time>2021-05-27T07:34:38Z</time>
      </trkpt>
      <trkpt lat="41.984018" lon="2.523183">
        <ele>429.625</ele>
        <time>2021-05-27T07:34:39Z</time>
      </trkpt>
      <trkpt lat="41.984012" lon="2.523209">
        <ele>429.888</ele>
        <time>2021-05-27T07:34:40Z</time>
      </trkpt>
      <trkpt lat="41.984006" lon="2.523237">
        <ele>430.054</ele>
        <time>2021-05-27T07:34:41Z</time>
      </trkpt>
      <trkpt lat="41.984001" lon="2.523265">
        <ele>430.161</ele>
        <time>2021-05-27T07:34:42Z</time>
      </trkpt>
      <trkpt lat="41.983997" lon="2.523292">
        <ele>430.321</ele>
        <time>2021-05-27T07:34:43Z</time>
      </trkpt>
      <trkpt lat="41.983991" lon="2.523321">
        <ele>430.513</ele>
        <time>2021-05-27T07:34:44Z</time>
      </trkpt>
      <trkpt lat="41.983985" lon="2.523349">
        <ele>430.808</ele>
        <time>2021-05-27T07:34:45Z</time>
      </trkpt>
      <trkpt lat="41.983979" lon="2.523379">
        <ele>431.323</ele>
        <time>2021-05-27T07:34:46Z</time>
      </trkpt>
      <trkpt lat="41.983973" lon="2.523407">
        <ele>431.720</ele>
        <time>2021-05-27T07:34:47Z</time>
      </trkpt>
      <trkpt lat="41.983964" lon="2.523434">
        <ele>432.288</ele>
        <time>2021-05-27T07:34:48Z</time>
      </trkpt>
      <trkpt lat="41.983956" lon="2.523459">
        <ele>432.658</ele>
        <time>2021-05-27T07:34:49Z</time>
      </trkpt>
      <trkpt lat="41.983949" lon="2.523483">
        <ele>433.165</ele>
        <time>2021-05-27T07:34:50Z</time>
      </trkpt>
      <trkpt lat="41.983940" lon="2.523510">
        <ele>433.610</ele>
        <time>2021-05-27T07:34:51Z</time>
      </trkpt>
      <trkpt lat="41.983930" lon="2.523536">
        <ele>434.183</ele>
        <time>2021-05-27T07:34:52Z</time>
      </trkpt>
      <trkpt lat="41.983919" lon="2.523561">
        <ele>434.779</ele>
        <time>2021-05-27T07:34:53Z</time>
      </trkpt>
      <trkpt lat="41.983909" lon="2.523587">
        <ele>435.213</ele>
        <time>2021-05-27T07:34:54Z</time>
      </trkpt>
      <trkpt lat="41.983899" lon="2.523611">
        <ele>435.843</ele>
        <time>2021-05-27T07:34:55Z</time>
      </trkpt>
      <trkpt lat="41.983889" lon="2.523636">
        <ele>436.207</ele>
        <time>2021-05-27T07:34:56Z</time>
      </trkpt>
      <trkpt lat="41.983879" lon="2.523660">
        <ele>436.508</ele>
        <time>2021-05-27T07:34:57Z</time>
      </trkpt>
      <trkpt lat="41.983868" lon="2.523686">
        <ele>436.838</ele>
        <time>2021-05-27T07:34:58Z</time>
      </trkpt>
      <trkpt lat="41.983857" lon="2.523711">
        <ele>437.115</ele>
        <time>2021-05-27T07:34:59Z</time>
      </trkpt>
      <trkpt lat="41.983849" lon="2.523737">
        <ele>437.443</ele>
        <time>2021-05-27T07:35:00Z</time>
      </trkpt>
      <trkpt lat="41.983844" lon="2.523766">
        <ele>437.793</ele>
        <time>2021-05-27T07:35:01Z</time>
      </trkpt>
      <trkpt lat="41.983841" lon="2.523794">
        <ele>437.930</ele>
        <time>2021-05-27T07:35:02Z</time>
      </trkpt>
      <trkpt lat="41.983843" lon="2.523823">
        <ele>438.125</ele>
        <time>2021-05-27T07:35:03Z</time>
      </trkpt>
      <trkpt lat="41.983848" lon="2.523851">
        <ele>438.228</ele>
        <time>2021-05-27T07:35:04Z</time>
      </trkpt>
      <trkpt lat="41.983856" lon="2.523877">
        <ele>438.384</ele>
        <time>2021-05-27T07:35:05Z</time>
      </trkpt>
      <trkpt lat="41.983865" lon="2.523904">
        <ele>438.415</ele>
        <time>2021-05-27T07:35:06Z</time>
      </trkpt>
      <trkpt lat="41.983877" lon="2.523930">
        <ele>438.465</ele>
        <time>2021-05-27T07:35:07Z</time>
      </trkpt>
      <trkpt lat="41.983890" lon="2.523958">
        <ele>438.511</ele>
        <time>2021-05-27T07:35:08Z</time>
      </trkpt>
      <trkpt lat="41.983945" lon="2.524078">
        <ele>439.508</ele>
        <time>2021-05-27T07:35:12Z</time>
      </trkpt>
      <trkpt lat="41.984003" lon="2.524139">
        <ele>440.738</ele>
        <time>2021-05-27T07:35:15Z</time>
      </trkpt>
      <trkpt lat="41.984022" lon="2.524153">
        <ele>441.295</ele>
        <time>2021-05-27T07:35:16Z</time>
      </trkpt>
      <trkpt lat="41.984071" lon="2.524176">
        <ele>442.123</ele>
        <time>2021-05-27T07:35:18Z</time>
      </trkpt>
      <trkpt lat="41.984094" lon="2.524190">
        <ele>442.793</ele>
        <time>2021-05-27T07:35:19Z</time>
      </trkpt>
      <trkpt lat="41.984115" lon="2.524203">
        <ele>443.250</ele>
        <time>2021-05-27T07:35:20Z</time>
      </trkpt>
      <trkpt lat="41.984137" lon="2.524214">
        <ele>443.635</ele>
        <time>2021-05-27T07:35:21Z</time>
      </trkpt>
      <trkpt lat="41.984160" lon="2.524225">
        <ele>444.248</ele>
        <time>2021-05-27T07:35:22Z</time>
      </trkpt>
      <trkpt lat="41.984182" lon="2.524235">
        <ele>444.834</ele>
        <time>2021-05-27T07:35:23Z</time>
      </trkpt>
      <trkpt lat="41.984207" lon="2.524239">
        <ele>445.337</ele>
        <time>2021-05-27T07:35:24Z</time>
      </trkpt>
      <trkpt lat="41.984231" lon="2.524243">
        <ele>445.849</ele>
        <time>2021-05-27T07:35:25Z</time>
      </trkpt>
      <trkpt lat="41.984250" lon="2.524249">
        <ele>446.313</ele>
        <time>2021-05-27T07:35:26Z</time>
      </trkpt>
      <trkpt lat="41.984272" lon="2.524253">
        <ele>446.908</ele>
        <time>2021-05-27T07:35:27Z</time>
      </trkpt>
      <trkpt lat="41.984294" lon="2.524256">
        <ele>447.450</ele>
        <time>2021-05-27T07:35:28Z</time>
      </trkpt>
      <trkpt lat="41.984315" lon="2.524253">
        <ele>447.767</ele>
        <time>2021-05-27T07:35:29Z</time>
      </trkpt>
      <trkpt lat="41.984336" lon="2.524244">
        <ele>447.845</ele>
        <time>2021-05-27T07:35:30Z</time>
      </trkpt>
      <trkpt lat="41.984357" lon="2.524232">
        <ele>447.845</ele>
        <time>2021-05-27T07:35:31Z</time>
      </trkpt>
      <trkpt lat="41.984378" lon="2.524216">
        <ele>447.652</ele>
        <time>2021-05-27T07:35:32Z</time>
      </trkpt>
      <trkpt lat="41.984403" lon="2.524201">
        <ele>447.647</ele>
        <time>2021-05-27T07:35:33Z</time>
      </trkpt>
      <trkpt lat="41.984425" lon="2.524180">
        <ele>447.230</ele>
        <time>2021-05-27T07:35:34Z</time>
      </trkpt>
      <trkpt lat="41.984442" lon="2.524155">
        <ele>446.616</ele>
        <time>2021-05-27T07:35:35Z</time>
      </trkpt>
      <trkpt lat="41.984458" lon="2.524129">
        <ele>446.015</ele>
        <time>2021-05-27T07:35:36Z</time>
      </trkpt>
      <trkpt lat="41.984472" lon="2.524104">
        <ele>445.565</ele>
        <time>2021-05-27T07:35:37Z</time>
      </trkpt>
      <trkpt lat="41.984484" lon="2.524074">
        <ele>444.711</ele>
        <time>2021-05-27T07:35:38Z</time>
      </trkpt>
      <trkpt lat="41.984492" lon="2.524046">
        <ele>443.908</ele>
        <time>2021-05-27T07:35:39Z</time>
      </trkpt>
      <trkpt lat="41.984502" lon="2.524019">
        <ele>443.368</ele>
        <time>2021-05-27T07:35:40Z</time>
      </trkpt>
      <trkpt lat="41.984517" lon="2.523993">
        <ele>442.725</ele>
        <time>2021-05-27T07:35:41Z</time>
      </trkpt>
      <trkpt lat="41.984529" lon="2.523968">
        <ele>442.123</ele>
        <time>2021-05-27T07:35:42Z</time>
      </trkpt>
      <trkpt lat="41.984538" lon="2.523941">
        <ele>441.493</ele>
        <time>2021-05-27T07:35:43Z</time>
      </trkpt>
      <trkpt lat="41.984550" lon="2.523913">
        <ele>440.760</ele>
        <time>2021-05-27T07:35:44Z</time>
      </trkpt>
      <trkpt lat="41.984561" lon="2.523885">
        <ele>440.065</ele>
        <time>2021-05-27T07:35:45Z</time>
      </trkpt>
      <trkpt lat="41.984572" lon="2.523857">
        <ele>439.698</ele>
        <time>2021-05-27T07:35:46Z</time>
      </trkpt>
      <trkpt lat="41.984581" lon="2.523830">
        <ele>439.214</ele>
        <time>2021-05-27T07:35:47Z</time>
      </trkpt>
      <trkpt lat="41.984590" lon="2.523804">
        <ele>438.896</ele>
        <time>2021-05-27T07:35:48Z</time>
      </trkpt>
      <trkpt lat="41.984600" lon="2.523776">
        <ele>438.431</ele>
        <time>2021-05-27T07:35:49Z</time>
      </trkpt>
      <trkpt lat="41.984611" lon="2.523749">
        <ele>438.024</ele>
        <time>2021-05-27T07:35:50Z</time>
      </trkpt>
      <trkpt lat="41.984621" lon="2.523724">
        <ele>437.608</ele>
        <time>2021-05-27T07:35:51Z</time>
      </trkpt>
      <trkpt lat="41.984632" lon="2.523702">
        <ele>437.366</ele>
        <time>2021-05-27T07:35:52Z</time>
      </trkpt>
      <trkpt lat="41.984642" lon="2.523679">
        <ele>437.023</ele>
        <time>2021-05-27T07:35:53Z</time>
      </trkpt>
      <trkpt lat="41.984654" lon="2.523654">
        <ele>436.761</ele>
        <time>2021-05-27T07:35:54Z</time>
      </trkpt>
      <trkpt lat="41.984664" lon="2.523633">
        <ele>436.491</ele>
        <time>2021-05-27T07:35:55Z</time>
      </trkpt>
      <trkpt lat="41.984674" lon="2.523610">
        <ele>436.188</ele>
        <time>2021-05-27T07:35:56Z</time>
      </trkpt>
      <trkpt lat="41.984685" lon="2.523589">
        <ele>435.833</ele>
        <time>2021-05-27T07:35:57Z</time>
      </trkpt>
      <trkpt lat="41.984699" lon="2.523567">
        <ele>435.596</ele>
        <time>2021-05-27T07:35:58Z</time>
      </trkpt>
      <trkpt lat="41.984714" lon="2.523545">
        <ele>435.292</ele>
        <time>2021-05-27T07:35:59Z</time>
      </trkpt>
      <trkpt lat="41.984730" lon="2.523527">
        <ele>435.096</ele>
        <time>2021-05-27T07:36:00Z</time>
      </trkpt>
      <trkpt lat="41.984746" lon="2.523508">
        <ele>434.931</ele>
        <time>2021-05-27T07:36:01Z</time>
      </trkpt>
      <trkpt lat="41.984762" lon="2.523493">
        <ele>434.824</ele>
        <time>2021-05-27T07:36:02Z</time>
      </trkpt>
      <trkpt lat="41.984780" lon="2.523482">
        <ele>434.908</ele>
        <time>2021-05-27T07:36:03Z</time>
      </trkpt>
      <trkpt lat="41.984799" lon="2.523475">
        <ele>435.176</ele>
        <time>2021-05-27T07:36:04Z</time>
      </trkpt>
      <trkpt lat="41.984818" lon="2.523469">
        <ele>435.333</ele>
        <time>2021-05-27T07:36:05Z</time>
      </trkpt>
      <trkpt lat="41.984836" lon="2.523465">
        <ele>435.621</ele>
        <time>2021-05-27T07:36:06Z</time>
      </trkpt>
      <trkpt lat="41.984869" lon="2.523462">
        <ele>436.141</ele>
        <time>2021-05-27T07:36:08Z</time>
      </trkpt>
      <trkpt lat="41.984896" lon="2.523471">
        <ele>436.978</ele>
        <time>2021-05-27T07:36:10Z</time>
      </trkpt>
      <trkpt lat="41.984921" lon="2.523485">
        <ele>437.853</ele>
        <time>2021-05-27T07:36:12Z</time>
      </trkpt>
      <trkpt lat="41.984944" lon="2.523503">
        <ele>438.846</ele>
        <time>2021-05-27T07:36:14Z</time>
      </trkpt>
      <trkpt lat="41.984966" lon="2.523522">
        <ele>439.712</ele>
        <time>2021-05-27T07:36:16Z</time>
      </trkpt>
      <trkpt lat="41.984988" lon="2.523539">
        <ele>440.719</ele>
        <time>2021-05-27T07:36:18Z</time>
      </trkpt>
      <trkpt lat="41.985003" lon="2.523554">
        <ele>441.409</ele>
        <time>2021-05-27T07:36:20Z</time>
      </trkpt>
      <trkpt lat="41.985020" lon="2.523579">
        <ele>442.119</ele>
        <time>2021-05-27T07:36:22Z</time>
      </trkpt>
      <trkpt lat="41.985035" lon="2.523603">
        <ele>442.908</ele>
        <time>2021-05-27T07:36:24Z</time>
      </trkpt>
      <trkpt lat="41.985051" lon="2.523625">
        <ele>443.528</ele>
        <time>2021-05-27T07:36:26Z</time>
      </trkpt>
      <trkpt lat="41.985066" lon="2.523644">
        <ele>444.075</ele>
        <time>2021-05-27T07:36:28Z</time>
      </trkpt>
      <trkpt lat="41.985087" lon="2.523661">
        <ele>444.573</ele>
        <time>2021-05-27T07:36:30Z</time>
      </trkpt>
      <trkpt lat="41.985104" lon="2.523675">
        <ele>444.923</ele>
        <time>2021-05-27T07:36:32Z</time>
      </trkpt>
      <trkpt lat="41.985124" lon="2.523685">
        <ele>445.330</ele>
        <time>2021-05-27T07:36:34Z</time>
      </trkpt>
      <trkpt lat="41.985143" lon="2.523704">
        <ele>445.915</ele>
        <time>2021-05-27T07:36:36Z</time>
      </trkpt>
      <trkpt lat="41.985158" lon="2.523727">
        <ele>446.528</ele>
        <time>2021-05-27T07:36:38Z</time>
      </trkpt>
      <trkpt lat="41.985179" lon="2.523737">
        <ele>446.944</ele>
        <time>2021-05-27T07:36:40Z</time>
      </trkpt>
      <trkpt lat="41.985201" lon="2.523750">
        <ele>447.457</ele>
        <time>2021-05-27T07:36:42Z</time>
      </trkpt>
      <trkpt lat="41.985218" lon="2.523759">
        <ele>447.800</ele>
        <time>2021-05-27T07:36:44Z</time>
      </trkpt>
      <trkpt lat="41.985243" lon="2.523769">
        <ele>448.320</ele>
        <time>2021-05-27T07:36:48Z</time>
      </trkpt>
      <trkpt lat="41.985264" lon="2.523772">
        <ele>448.508</ele>
        <time>2021-05-27T07:36:50Z</time>
      </trkpt>
      <trkpt lat="41.985287" lon="2.523776">
        <ele>448.752</ele>
        <time>2021-05-27T07:36:52Z</time>
      </trkpt>
      <trkpt lat="41.985315" lon="2.523772">
        <ele>448.579</ele>
        <time>2021-05-27T07:36:54Z</time>
      </trkpt>
      <trkpt lat="41.985341" lon="2.523773">
        <ele>448.557</ele>
        <time>2021-05-27T07:36:56Z</time>
      </trkpt>
      <trkpt lat="41.985365" lon="2.523779">
        <ele>448.617</ele>
        <time>2021-05-27T07:36:58Z</time>
      </trkpt>
      <trkpt lat="41.985388" lon="2.523781">
        <ele>448.664</ele>
        <time>2021-05-27T07:37:00Z</time>
      </trkpt>
      <trkpt lat="41.985414" lon="2.523791">
        <ele>448.839</ele>
        <time>2021-05-27T07:37:03Z</time>
      </trkpt>
      <trkpt lat="41.985437" lon="2.523797">
        <ele>449.072</ele>
        <time>2021-05-27T07:37:05Z</time>
      </trkpt>
      <trkpt lat="41.985456" lon="2.523804">
        <ele>449.258</ele>
        <time>2021-05-27T07:37:07Z</time>
      </trkpt>
      <trkpt lat="41.985477" lon="2.523809">
        <ele>449.353</ele>
        <time>2021-05-27T07:37:09Z</time>
      </trkpt>
      <trkpt lat="41.985499" lon="2.523815">
        <ele>449.404</ele>
        <time>2021-05-27T07:37:11Z</time>
      </trkpt>
      <trkpt lat="41.985526" lon="2.523824">
        <ele>449.714</ele>
        <time>2021-05-27T07:37:14Z</time>
      </trkpt>
      <trkpt lat="41.985547" lon="2.523830">
        <ele>449.908</ele>
        <time>2021-05-27T07:37:16Z</time>
      </trkpt>
      <trkpt lat="41.985566" lon="2.523836">
        <ele>450.282</ele>
        <time>2021-05-27T07:37:18Z</time>
      </trkpt>
      <trkpt lat="41.985585" lon="2.523841">
        <ele>450.589</ele>
        <time>2021-05-27T07:37:20Z</time>
      </trkpt>
      <trkpt lat="41.985607" lon="2.523845">
        <ele>450.867</ele>
        <time>2021-05-27T07:37:22Z</time>
      </trkpt>
      <trkpt lat="41.985626" lon="2.523848">
        <ele>451.057</ele>
        <time>2021-05-27T07:37:24Z</time>
      </trkpt>
      <trkpt lat="41.985648" lon="2.523842">
        <ele>450.984</ele>
        <time>2021-05-27T07:37:26Z</time>
      </trkpt>
      <trkpt lat="41.985674" lon="2.523844">
        <ele>451.259</ele>
        <time>2021-05-27T07:37:28Z</time>
      </trkpt>
      <trkpt lat="41.985695" lon="2.523839">
        <ele>451.112</ele>
        <time>2021-05-27T07:37:30Z</time>
      </trkpt>
      <trkpt lat="41.985716" lon="2.523833">
        <ele>451.028</ele>
        <time>2021-05-27T07:37:32Z</time>
      </trkpt>
      <trkpt lat="41.985741" lon="2.523830">
        <ele>451.192</ele>
        <time>2021-05-27T07:37:35Z</time>
      </trkpt>
      <trkpt lat="41.985761" lon="2.523834">
        <ele>451.473</ele>
        <time>2021-05-27T07:37:37Z</time>
      </trkpt>
      <trkpt lat="41.985783" lon="2.523843">
        <ele>451.920</ele>
        <time>2021-05-27T07:37:39Z</time>
      </trkpt>
      <trkpt lat="41.985800" lon="2.523852">
        <ele>452.308</ele>
        <time>2021-05-27T07:37:41Z</time>
      </trkpt>
      <trkpt lat="41.985821" lon="2.523857">
        <ele>452.766</ele>
        <time>2021-05-27T07:37:43Z</time>
      </trkpt>
      <trkpt lat="41.985844" lon="2.523866">
        <ele>453.273</ele>
        <time>2021-05-27T07:37:45Z</time>
      </trkpt>
      <trkpt lat="41.985865" lon="2.523867">
        <ele>453.451</ele>
        <time>2021-05-27T07:37:47Z</time>
      </trkpt>
      <trkpt lat="41.985883" lon="2.523879">
        <ele>454.131</ele>
        <time>2021-05-27T07:37:49Z</time>
      </trkpt>
      <trkpt lat="41.985903" lon="2.523896">
        <ele>455.038</ele>
        <time>2021-05-27T07:37:51Z</time>
      </trkpt>
      <trkpt lat="41.985920" lon="2.523915">
        <ele>455.783</ele>
        <time>2021-05-27T07:37:53Z</time>
      </trkpt>
      <trkpt lat="41.985937" lon="2.523935">
        <ele>456.686</ele>
        <time>2021-05-27T07:37:55Z</time>
      </trkpt>
      <trkpt lat="41.985947" lon="2.523962">
        <ele>457.562</ele>
        <time>2021-05-27T07:37:57Z</time>
      </trkpt>
      <trkpt lat="41.985953" lon="2.523992">
        <ele>458.666</ele>
        <time>2021-05-27T07:37:59Z</time>
      </trkpt>
      <trkpt lat="41.985954" lon="2.524019">
        <ele>459.529</ele>
        <time>2021-05-27T07:38:01Z</time>
      </trkpt>
      <trkpt lat="41.985950" lon="2.524049">
        <ele>460.421</ele>
        <time>2021-05-27T07:38:03Z</time>
      </trkpt>
      <trkpt lat="41.985940" lon="2.524077">
        <ele>461.108</ele>
        <time>2021-05-27T07:38:05Z</time>
      </trkpt>
      <trkpt lat="41.985924" lon="2.524102">
        <ele>461.683</ele>
        <time>2021-05-27T07:38:07Z</time>
      </trkpt>
      <trkpt lat="41.985905" lon="2.524123">
        <ele>462.010</ele>
        <time>2021-05-27T07:38:09Z</time>
      </trkpt>
      <trkpt lat="41.985883" lon="2.524145">
        <ele>462.248</ele>
        <time>2021-05-27T07:38:11Z</time>
      </trkpt>
      <trkpt lat="41.985861" lon="2.524167">
        <ele>462.518</ele>
        <time>2021-05-27T07:38:13Z</time>
      </trkpt>
      <trkpt lat="41.985836" lon="2.524184">
        <ele>462.715</ele>
        <time>2021-05-27T07:38:15Z</time>
      </trkpt>
      <trkpt lat="41.985813" lon="2.524202">
        <ele>463.260</ele>
        <time>2021-05-27T07:38:17Z</time>
      </trkpt>
      <trkpt lat="41.985792" lon="2.524219">
        <ele>463.783</ele>
        <time>2021-05-27T07:38:19Z</time>
      </trkpt>
      <trkpt lat="41.985774" lon="2.524241">
        <ele>464.389</ele>
        <time>2021-05-27T07:38:21Z</time>
      </trkpt>
      <trkpt lat="41.985753" lon="2.524261">
        <ele>464.976</ele>
        <time>2021-05-27T07:38:23Z</time>
      </trkpt>
      <trkpt lat="41.985732" lon="2.524277">
        <ele>465.290</ele>
        <time>2021-05-27T07:38:25Z</time>
      </trkpt>
      <trkpt lat="41.985707" lon="2.524291">
        <ele>465.419</ele>
        <time>2021-05-27T07:38:27Z</time>
      </trkpt>
      <trkpt lat="41.985684" lon="2.524309">
        <ele>465.708</ele>
        <time>2021-05-27T07:38:29Z</time>
      </trkpt>
      <trkpt lat="41.985666" lon="2.524323">
        <ele>466.054</ele>
        <time>2021-05-27T07:38:31Z</time>
      </trkpt>
      <trkpt lat="41.985644" lon="2.524342">
        <ele>466.311</ele>
        <time>2021-05-27T07:38:33Z</time>
      </trkpt>
      <trkpt lat="41.985621" lon="2.524355">
        <ele>466.429</ele>
        <time>2021-05-27T07:38:35Z</time>
      </trkpt>
      <trkpt lat="41.985599" lon="2.524363">
        <ele>466.389</ele>
        <time>2021-05-27T07:38:37Z</time>
      </trkpt>
      <trkpt lat="41.985575" lon="2.524374">
        <ele>466.316</ele>
        <time>2021-05-27T07:38:39Z</time>
      </trkpt>
      <trkpt lat="41.985551" lon="2.524385">
        <ele>466.321</ele>
        <time>2021-05-27T07:38:41Z</time>
      </trkpt>
      <trkpt lat="41.985527" lon="2.524396">
        <ele>466.634</ele>
        <time>2021-05-27T07:38:43Z</time>
      </trkpt>
      <trkpt lat="41.985507" lon="2.524414">
        <ele>467.110</ele>
        <time>2021-05-27T07:38:45Z</time>
      </trkpt>
      <trkpt lat="41.985493" lon="2.524436">
        <ele>467.898</ele>
        <time>2021-05-27T07:38:47Z</time>
      </trkpt>
      <trkpt lat="41.985488" lon="2.524461">
        <ele>468.715</ele>
        <time>2021-05-27T07:38:49Z</time>
      </trkpt>
      <trkpt lat="41.985495" lon="2.524491">
        <ele>470.026</ele>
        <time>2021-05-27T07:38:51Z</time>
      </trkpt>
      <trkpt lat="41.985507" lon="2.524514">
        <ele>471.008</ele>
        <time>2021-05-27T07:38:53Z</time>
      </trkpt>
      <trkpt lat="41.985605" lon="2.524512">
        <ele>471.826</ele>
        <time>2021-05-27T07:39:02Z</time>
      </trkpt>
      <trkpt lat="41.985649" lon="2.524501">
        <ele>472.113</ele>
        <time>2021-05-27T07:39:05Z</time>
      </trkpt>
      <trkpt lat="41.985671" lon="2.524493">
        <ele>472.151</ele>
        <time>2021-05-27T07:39:07Z</time>
      </trkpt>
      <trkpt lat="41.985764" lon="2.524501">
        <ele>474.081</ele>
        <time>2021-05-27T07:39:16Z</time>
      </trkpt>
      <trkpt lat="41.985867" lon="2.524495">
        <ele>475.798</ele>
        <time>2021-05-27T07:39:25Z</time>
      </trkpt>
      <trkpt lat="41.985938" lon="2.524489">
        <ele>477.013</ele>
        <time>2021-05-27T07:39:30Z</time>
      </trkpt>
      <trkpt lat="41.985965" lon="2.524484">
        <ele>477.346</ele>
        <time>2021-05-27T07:39:32Z</time>
      </trkpt>
      <trkpt lat="41.985991" lon="2.524482">
        <ele>477.882</ele>
        <time>2021-05-27T07:39:34Z</time>
      </trkpt>
      <trkpt lat="41.986018" lon="2.524484">
        <ele>478.588</ele>
        <time>2021-05-27T07:39:36Z</time>
      </trkpt>
      <trkpt lat="41.986044" lon="2.524488">
        <ele>479.224</ele>
        <time>2021-05-27T07:39:38Z</time>
      </trkpt>
      <trkpt lat="41.986076" lon="2.524488">
        <ele>479.826</ele>
        <time>2021-05-27T07:39:40Z</time>
      </trkpt>
      <trkpt lat="41.986101" lon="2.524481">
        <ele>480.108</ele>
        <time>2021-05-27T07:39:42Z</time>
      </trkpt>
      <trkpt lat="41.986122" lon="2.524478">
        <ele>480.315</ele>
        <time>2021-05-27T07:39:44Z</time>
      </trkpt>
      <trkpt lat="41.986149" lon="2.524474">
        <ele>480.242</ele>
        <time>2021-05-27T07:39:47Z</time>
      </trkpt>
      <trkpt lat="41.986172" lon="2.524468">
        <ele>480.130</ele>
        <time>2021-05-27T07:39:49Z</time>
      </trkpt>
      <trkpt lat="41.986195" lon="2.524471">
        <ele>480.370</ele>
        <time>2021-05-27T07:39:51Z</time>
      </trkpt>
      <trkpt lat="41.986213" lon="2.524467">
        <ele>480.377</ele>
        <time>2021-05-27T07:39:53Z</time>
      </trkpt>
      <trkpt lat="41.986281" lon="2.524481">
        <ele>481.252</ele>
        <time>2021-05-27T07:40:00Z</time>
      </trkpt>
      <trkpt lat="41.986374" lon="2.524523">
        <ele>483.635</ele>
        <time>2021-05-27T07:40:10Z</time>
      </trkpt>
      <trkpt lat="41.986470" lon="2.524555">
        <ele>484.971</ele>
        <time>2021-05-27T07:40:19Z</time>
      </trkpt>
      <trkpt lat="41.986555" lon="2.524602">
        <ele>487.315</ele>
        <time>2021-05-27T07:40:27Z</time>
      </trkpt>
      <trkpt lat="41.986644" lon="2.524636">
        <ele>489.465</ele>
        <time>2021-05-27T07:40:36Z</time>
      </trkpt>
      <trkpt lat="41.986732" lon="2.524666">
        <ele>491.711</ele>
        <time>2021-05-27T07:40:44Z</time>
      </trkpt>
      <trkpt lat="41.986828" lon="2.524697">
        <ele>494.408</ele>
        <time>2021-05-27T07:40:54Z</time>
      </trkpt>
      <trkpt lat="41.986919" lon="2.524720">
        <ele>496.738</ele>
        <time>2021-05-27T07:41:03Z</time>
      </trkpt>
      <trkpt lat="41.987014" lon="2.524727">
        <ele>496.675</ele>
        <time>2021-05-27T07:41:09Z</time>
      </trkpt>
      <trkpt lat="41.987109" lon="2.524712">
        <ele>494.623</ele>
        <time>2021-05-27T07:41:14Z</time>
      </trkpt>
      <trkpt lat="41.987202" lon="2.524726">
        <ele>494.553</ele>
        <time>2021-05-27T07:41:20Z</time>
      </trkpt>
      <trkpt lat="41.987224" lon="2.524734">
        <ele>494.840</ele>
        <time>2021-05-27T07:41:22Z</time>
      </trkpt>
      <trkpt lat="41.987251" lon="2.524739">
        <ele>495.095</ele>
        <time>2021-05-27T07:41:24Z</time>
      </trkpt>
      <trkpt lat="41.987281" lon="2.524743">
        <ele>495.178</ele>
        <time>2021-05-27T07:41:26Z</time>
      </trkpt>
      <trkpt lat="41.987309" lon="2.524745">
        <ele>495.194</ele>
        <time>2021-05-27T07:41:28Z</time>
      </trkpt>
      <trkpt lat="41.987338" lon="2.524748">
        <ele>495.196</ele>
        <time>2021-05-27T07:41:30Z</time>
      </trkpt>
      <trkpt lat="41.987362" lon="2.524753">
        <ele>495.331</ele>
        <time>2021-05-27T07:41:32Z</time>
      </trkpt>
      <trkpt lat="41.987383" lon="2.524762">
        <ele>495.924</ele>
        <time>2021-05-27T07:41:34Z</time>
      </trkpt>
      <trkpt lat="41.987433" lon="2.524780">
        <ele>497.008</ele>
        <time>2021-05-27T07:41:38Z</time>
      </trkpt>
      <trkpt lat="41.987463" lon="2.524784">
        <ele>497.166</ele>
        <time>2021-05-27T07:41:40Z</time>
      </trkpt>
      <trkpt lat="41.987484" lon="2.524782">
        <ele>496.853</ele>
        <time>2021-05-27T07:41:45Z</time>
      </trkpt>
      <trkpt lat="41.987519" lon="2.524795">
        <ele>498.031</ele>
        <time>2021-05-27T07:41:47Z</time>
      </trkpt>
      <trkpt lat="41.987540" lon="2.524803">
        <ele>498.811</ele>
        <time>2021-05-27T07:41:49Z</time>
      </trkpt>
      <trkpt lat="41.987563" lon="2.524818">
        <ele>500.228</ele>
        <time>2021-05-27T07:41:51Z</time>
      </trkpt>
      <trkpt lat="41.987583" lon="2.524830">
        <ele>501.343</ele>
        <time>2021-05-27T07:41:53Z</time>
      </trkpt>
      <trkpt lat="41.987614" lon="2.524842">
        <ele>502.546</ele>
        <time>2021-05-27T07:41:55Z</time>
      </trkpt>
      <trkpt lat="41.987648" lon="2.524857">
        <ele>504.092</ele>
        <time>2021-05-27T07:41:57Z</time>
      </trkpt>
      <trkpt lat="41.987678" lon="2.524873">
        <ele>505.551</ele>
        <time>2021-05-27T07:41:59Z</time>
      </trkpt>
      <trkpt lat="41.987709" lon="2.524882">
        <ele>506.501</ele>
        <time>2021-05-27T07:42:01Z</time>
      </trkpt>
      <trkpt lat="41.987741" lon="2.524894">
        <ele>507.711</ele>
        <time>2021-05-27T07:42:03Z</time>
      </trkpt>
      <trkpt lat="41.987769" lon="2.524893">
        <ele>507.808</ele>
        <time>2021-05-27T07:42:05Z</time>
      </trkpt>
      <trkpt lat="41.987794" lon="2.524897">
        <ele>508.392</ele>
        <time>2021-05-27T07:42:07Z</time>
      </trkpt>
      <trkpt lat="41.987823" lon="2.524891">
        <ele>507.929</ele>
        <time>2021-05-27T07:42:09Z</time>
      </trkpt>
      <trkpt lat="41.987849" lon="2.524888">
        <ele>507.737</ele>
        <time>2021-05-27T07:42:11Z</time>
      </trkpt>
      <trkpt lat="41.987877" lon="2.524879">
        <ele>507.297</ele>
        <time>2021-05-27T07:42:13Z</time>
      </trkpt>
      <trkpt lat="41.987907" lon="2.524873">
        <ele>506.844</ele>
        <time>2021-05-27T07:42:15Z</time>
      </trkpt>
      <trkpt lat="41.987991" lon="2.524824">
        <ele>503.769</ele>
        <time>2021-05-27T07:42:23Z</time>
      </trkpt>
      <trkpt lat="41.988082" lon="2.524791">
        <ele>501.912</ele>
        <time>2021-05-27T07:42:30Z</time>
      </trkpt>
      <trkpt lat="41.988179" lon="2.524749">
        <ele>500.018</ele>
        <time>2021-05-27T07:42:38Z</time>
      </trkpt>
      <trkpt lat="41.988219" lon="2.524743">
        <ele>500.044</ele>
        <time>2021-05-27T07:42:41Z</time>
      </trkpt>
      <trkpt lat="41.988244" lon="2.524726">
        <ele>499.305</ele>
        <time>2021-05-27T07:42:43Z</time>
      </trkpt>
      <trkpt lat="41.988261" lon="2.524712">
        <ele>498.815</ele>
        <time>2021-05-27T07:42:45Z</time>
      </trkpt>
      <trkpt lat="41.988288" lon="2.524702">
        <ele>498.608</ele>
        <time>2021-05-27T07:42:48Z</time>
      </trkpt>
      <trkpt lat="41.988312" lon="2.524689">
        <ele>498.341</ele>
        <time>2021-05-27T07:42:50Z</time>
      </trkpt>
      <trkpt lat="41.988336" lon="2.524680">
        <ele>498.268</ele>
        <time>2021-05-27T07:42:52Z</time>
      </trkpt>
      <trkpt lat="41.988361" lon="2.524685">
        <ele>498.236</ele>
        <time>2021-05-27T07:42:54Z</time>
      </trkpt>
      <trkpt lat="41.988387" lon="2.524694">
        <ele>498.496</ele>
        <time>2021-05-27T07:42:56Z</time>
      </trkpt>
      <trkpt lat="41.988411" lon="2.524711">
        <ele>499.093</ele>
        <time>2021-05-27T07:42:58Z</time>
      </trkpt>
      <trkpt lat="41.988431" lon="2.524711">
        <ele>498.838</ele>
        <time>2021-05-27T07:43:00Z</time>
      </trkpt>
      <trkpt lat="41.988450" lon="2.524719">
        <ele>499.081</ele>
        <time>2021-05-27T07:43:02Z</time>
      </trkpt>
      <trkpt lat="41.988469" lon="2.524731">
        <ele>499.417</ele>
        <time>2021-05-27T07:43:04Z</time>
      </trkpt>
      <trkpt lat="41.988484" lon="2.524745">
        <ele>499.996</ele>
        <time>2021-05-27T07:43:06Z</time>
      </trkpt>
      <trkpt lat="41.988506" lon="2.524772">
        <ele>500.831</ele>
        <time>2021-05-27T07:43:09Z</time>
      </trkpt>
      <trkpt lat="41.988520" lon="2.524794">
        <ele>501.524</ele>
        <time>2021-05-27T07:43:11Z</time>
      </trkpt>
      <trkpt lat="41.988536" lon="2.524821">
        <ele>502.308</ele>
        <time>2021-05-27T07:43:13Z</time>
      </trkpt>
      <trkpt lat="41.988551" lon="2.524847">
        <ele>503.166</ele>
        <time>2021-05-27T07:43:15Z</time>
      </trkpt>
      <trkpt lat="41.988568" lon="2.524872">
        <ele>503.733</ele>
        <time>2021-05-27T07:43:17Z</time>
      </trkpt>
      <trkpt lat="41.988584" lon="2.524921">
        <ele>505.161</ele>
        <time>2021-05-27T07:43:20Z</time>
      </trkpt>
      <trkpt lat="41.988600" lon="2.524953">
        <ele>505.821</ele>
        <time>2021-05-27T07:43:22Z</time>
      </trkpt>
      <trkpt lat="41.988611" lon="2.524983">
        <ele>506.578</ele>
        <time>2021-05-27T07:43:24Z</time>
      </trkpt>
      <trkpt lat="41.988632" lon="2.525023">
        <ele>507.153</ele>
        <time>2021-05-27T07:43:27Z</time>
      </trkpt>
      <trkpt lat="41.988647" lon="2.525089">
        <ele>509.216</ele>
        <time>2021-05-27T07:43:31Z</time>
      </trkpt>
      <trkpt lat="41.988651" lon="2.525125">
        <ele>510.412</ele>
        <time>2021-05-27T07:43:33Z</time>
      </trkpt>
      <trkpt lat="41.988655" lon="2.525160">
        <ele>511.624</ele>
        <time>2021-05-27T07:43:35Z</time>
      </trkpt>
      <trkpt lat="41.988670" lon="2.525295">
        <ele>515.804</ele>
        <time>2021-05-27T07:43:43Z</time>
      </trkpt>
      <trkpt lat="41.988680" lon="2.525425">
        <ele>518.614</ele>
        <time>2021-05-27T07:43:50Z</time>
      </trkpt>
      <trkpt lat="41.988736" lon="2.525538">
        <ele>518.308</ele>
        <time>2021-05-27T07:43:58Z</time>
      </trkpt>
      <trkpt lat="41.988796" lon="2.525649">
        <ele>517.929</ele>
        <time>2021-05-27T07:44:07Z</time>
      </trkpt>
      <trkpt lat="41.988848" lon="2.525764">
        <ele>518.296</ele>
        <time>2021-05-27T07:44:16Z</time>
      </trkpt>
      <trkpt lat="41.988914" lon="2.525852">
        <ele>517.614</ele>
        <time>2021-05-27T07:44:23Z</time>
      </trkpt>
      <trkpt lat="41.988938" lon="2.525894">
        <ele>518.244</ele>
        <time>2021-05-27T07:44:26Z</time>
      </trkpt>
      <trkpt lat="41.988951" lon="2.525920">
        <ele>518.671</ele>
        <time>2021-05-27T07:44:28Z</time>
      </trkpt>
      <trkpt lat="41.988961" lon="2.525950">
        <ele>519.386</ele>
        <time>2021-05-27T07:44:30Z</time>
      </trkpt>
      <trkpt lat="41.988971" lon="2.525983">
        <ele>520.139</ele>
        <time>2021-05-27T07:44:32Z</time>
      </trkpt>
      <trkpt lat="41.989012" lon="2.526037">
        <ele>520.155</ele>
        <time>2021-05-27T07:44:36Z</time>
      </trkpt>
      <trkpt lat="41.989025" lon="2.526064">
        <ele>520.492</ele>
        <time>2021-05-27T07:44:38Z</time>
      </trkpt>
      <trkpt lat="41.989035" lon="2.526093">
        <ele>521.073</ele>
        <time>2021-05-27T07:44:40Z</time>
      </trkpt>
      <trkpt lat="41.989086" lon="2.526206">
        <ele>522.820</ele>
        <time>2021-05-27T07:44:49Z</time>
      </trkpt>
      <trkpt lat="41.989089" lon="2.526343">
        <ele>528.108</ele>
        <time>2021-05-27T07:44:58Z</time>
      </trkpt>
      <trkpt lat="41.989116" lon="2.526462">
        <ele>531.926</ele>
        <time>2021-05-27T07:45:04Z</time>
      </trkpt>
      <trkpt lat="41.989159" lon="2.526575">
        <ele>534.323</ele>
        <time>2021-05-27T07:45:12Z</time>
      </trkpt>
      <trkpt lat="41.989199" lon="2.526693">
        <ele>536.491</ele>
        <time>2021-05-27T07:45:20Z</time>
      </trkpt>
      <trkpt lat="41.989229" lon="2.526814">
        <ele>540.061</ele>
        <time>2021-05-27T07:45:29Z</time>
      </trkpt>
      <trkpt lat="41.989308" lon="2.526899">
        <ele>539.458</ele>
        <time>2021-05-27T07:45:38Z</time>
      </trkpt>
      <trkpt lat="41.989364" lon="2.527000">
        <ele>540.063</ele>
        <time>2021-05-27T07:45:45Z</time>
      </trkpt>
      <trkpt lat="41.989422" lon="2.527100">
        <ele>539.736</ele>
        <time>2021-05-27T07:45:54Z</time>
      </trkpt>
      <trkpt lat="41.989479" lon="2.527217">
        <ele>541.252</ele>
        <time>2021-05-27T07:46:01Z</time>
      </trkpt>
      <trkpt lat="41.989535" lon="2.527322">
        <ele>545.067</ele>
        <time>2021-05-27T07:46:10Z</time>
      </trkpt>
      <trkpt lat="41.989565" lon="2.527443">
        <ele>549.981</ele>
        <time>2021-05-27T07:46:20Z</time>
      </trkpt>
      <trkpt lat="41.989623" lon="2.527554">
        <ele>553.819</ele>
        <time>2021-05-27T07:46:28Z</time>
      </trkpt>
      <trkpt lat="41.989714" lon="2.527630">
        <ele>555.708</ele>
        <time>2021-05-27T07:46:36Z</time>
      </trkpt>
      <trkpt lat="41.989794" lon="2.527693">
        <ele>555.893</ele>
        <time>2021-05-27T07:46:44Z</time>
      </trkpt>
      <trkpt lat="41.989884" lon="2.527742">
        <ele>554.120</ele>
        <time>2021-05-27T07:46:53Z</time>
      </trkpt>
      <trkpt lat="41.989968" lon="2.527814">
        <ele>553.158</ele>
        <time>2021-05-27T07:47:00Z</time>
      </trkpt>
      <trkpt lat="41.990062" lon="2.527860">
        <ele>550.288</ele>
        <time>2021-05-27T07:47:06Z</time>
      </trkpt>
      <trkpt lat="41.990132" lon="2.527946">
        <ele>550.525</ele>
        <time>2021-05-27T07:47:12Z</time>
      </trkpt>
      <trkpt lat="41.990210" lon="2.528046">
        <ele>551.790</ele>
        <time>2021-05-27T07:47:16Z</time>
      </trkpt>
      <trkpt lat="41.990283" lon="2.528139">
        <ele>552.163</ele>
        <time>2021-05-27T07:47:21Z</time>
      </trkpt>
      <trkpt lat="41.990352" lon="2.528229">
        <ele>553.169</ele>
        <time>2021-05-27T07:47:29Z</time>
      </trkpt>
      <trkpt lat="41.990410" lon="2.528335">
        <ele>555.362</ele>
        <time>2021-05-27T07:47:37Z</time>
      </trkpt>
      <trkpt lat="41.990474" lon="2.528432">
        <ele>556.583</ele>
        <time>2021-05-27T07:47:48Z</time>
      </trkpt>
      <trkpt lat="41.990558" lon="2.528479">
        <ele>555.211</ele>
        <time>2021-05-27T07:47:56Z</time>
      </trkpt>
      <trkpt lat="41.990650" lon="2.528522">
        <ele>556.608</ele>
        <time>2021-05-27T07:48:04Z</time>
      </trkpt>
      <trkpt lat="41.990734" lon="2.528578">
        <ele>558.763</ele>
        <time>2021-05-27T07:48:12Z</time>
      </trkpt>
      <trkpt lat="41.990752" lon="2.528589">
        <ele>559.170</ele>
        <time>2021-05-27T07:48:14Z</time>
      </trkpt>
      <trkpt lat="41.990770" lon="2.528601">
        <ele>559.618</ele>
        <time>2021-05-27T07:48:17Z</time>
      </trkpt>
      <trkpt lat="41.990797" lon="2.528613">
        <ele>560.158</ele>
        <time>2021-05-27T07:48:19Z</time>
      </trkpt>
      <trkpt lat="41.990849" lon="2.528649">
        <ele>561.645</ele>
        <time>2021-05-27T07:48:26Z</time>
      </trkpt>
      <trkpt lat="41.990869" lon="2.528663">
        <ele>562.540</ele>
        <time>2021-05-27T07:48:28Z</time>
      </trkpt>
      <trkpt lat="41.990906" lon="2.528669">
        <ele>563.323</ele>
        <time>2021-05-27T07:48:30Z</time>
      </trkpt>
      <trkpt lat="41.990933" lon="2.528675">
        <ele>564.089</ele>
        <time>2021-05-27T07:48:32Z</time>
      </trkpt>
      <trkpt lat="41.990958" lon="2.528681">
        <ele>564.639</ele>
        <time>2021-05-27T07:48:35Z</time>
      </trkpt>
      <trkpt lat="41.990986" lon="2.528684">
        <ele>565.301</ele>
        <time>2021-05-27T07:48:36Z</time>
      </trkpt>
      <trkpt lat="41.991006" lon="2.528682">
        <ele>565.521</ele>
        <time>2021-05-27T07:48:37Z</time>
      </trkpt>
      <trkpt lat="41.991038" lon="2.528685">
        <ele>566.208</ele>
        <time>2021-05-27T07:48:39Z</time>
      </trkpt>
      <trkpt lat="41.991065" lon="2.528680">
        <ele>566.470</ele>
        <time>2021-05-27T07:48:41Z</time>
      </trkpt>
      <trkpt lat="41.991091" lon="2.528678">
        <ele>566.897</ele>
        <time>2021-05-27T07:48:43Z</time>
      </trkpt>
      <trkpt lat="41.991111" lon="2.528668">
        <ele>566.765</ele>
        <time>2021-05-27T07:48:45Z</time>
      </trkpt>
      <trkpt lat="41.991130" lon="2.528651">
        <ele>566.115</ele>
        <time>2021-05-27T07:48:47Z</time>
      </trkpt>
      <trkpt lat="41.991153" lon="2.528632">
        <ele>565.482</ele>
        <time>2021-05-27T07:48:49Z</time>
      </trkpt>
      <trkpt lat="41.991173" lon="2.528618">
        <ele>565.087</ele>
        <time>2021-05-27T07:48:51Z</time>
      </trkpt>
      <trkpt lat="41.991192" lon="2.528608">
        <ele>564.770</ele>
        <time>2021-05-27T07:48:53Z</time>
      </trkpt>
      <trkpt lat="41.991209" lon="2.528598">
        <ele>564.516</ele>
        <time>2021-05-27T07:48:55Z</time>
      </trkpt>
      <trkpt lat="41.991229" lon="2.528592">
        <ele>564.429</ele>
        <time>2021-05-27T07:48:57Z</time>
      </trkpt>
      <trkpt lat="41.991257" lon="2.528593">
        <ele>564.800</ele>
        <time>2021-05-27T07:49:00Z</time>
      </trkpt>
      <trkpt lat="41.991277" lon="2.528593">
        <ele>565.020</ele>
        <time>2021-05-27T07:49:02Z</time>
      </trkpt>
      <trkpt lat="41.991299" lon="2.528594">
        <ele>565.208</ele>
        <time>2021-05-27T07:49:04Z</time>
      </trkpt>
      <trkpt lat="41.991318" lon="2.528597">
        <ele>565.679</ele>
        <time>2021-05-27T07:49:06Z</time>
      </trkpt>
      <trkpt lat="41.991337" lon="2.528603">
        <ele>566.186</ele>
        <time>2021-05-27T07:49:08Z</time>
      </trkpt>
      <trkpt lat="41.991363" lon="2.528609">
        <ele>566.634</ele>
        <time>2021-05-27T07:49:10Z</time>
      </trkpt>
      <trkpt lat="41.991390" lon="2.528622">
        <ele>567.524</ele>
        <time>2021-05-27T07:49:12Z</time>
      </trkpt>
      <trkpt lat="41.991418" lon="2.528639">
        <ele>568.661</ele>
        <time>2021-05-27T07:49:14Z</time>
      </trkpt>
      <trkpt lat="41.991446" lon="2.528649">
        <ele>569.446</ele>
        <time>2021-05-27T07:49:16Z</time>
      </trkpt>
      <trkpt lat="41.991471" lon="2.528657">
        <ele>570.139</ele>
        <time>2021-05-27T07:49:18Z</time>
      </trkpt>
      <trkpt lat="41.991493" lon="2.528662">
        <ele>570.625</ele>
        <time>2021-05-27T07:49:20Z</time>
      </trkpt>
      <trkpt lat="41.991516" lon="2.528667">
        <ele>571.295</ele>
        <time>2021-05-27T07:49:22Z</time>
      </trkpt>
      <trkpt lat="41.991543" lon="2.528671">
        <ele>571.749</ele>
        <time>2021-05-27T07:49:24Z</time>
      </trkpt>
      <trkpt lat="41.991568" lon="2.528670">
        <ele>572.023</ele>
        <time>2021-05-27T07:49:26Z</time>
      </trkpt>
      <trkpt lat="41.991591" lon="2.528662">
        <ele>571.808</ele>
        <time>2021-05-27T07:49:28Z</time>
      </trkpt>
      <trkpt lat="41.991614" lon="2.528662">
        <ele>572.156</ele>
        <time>2021-05-27T07:49:30Z</time>
      </trkpt>
      <trkpt lat="41.991633" lon="2.528654">
        <ele>571.943</ele>
        <time>2021-05-27T07:49:32Z</time>
      </trkpt>
      <trkpt lat="41.991651" lon="2.528648">
        <ele>571.811</ele>
        <time>2021-05-27T07:49:34Z</time>
      </trkpt>
      <trkpt lat="41.991673" lon="2.528645">
        <ele>572.051</ele>
        <time>2021-05-27T07:49:36Z</time>
      </trkpt>
      <trkpt lat="41.991697" lon="2.528643">
        <ele>572.658</ele>
        <time>2021-05-27T07:49:38Z</time>
      </trkpt>
      <trkpt lat="41.991720" lon="2.528638">
        <ele>573.053</ele>
        <time>2021-05-27T07:49:40Z</time>
      </trkpt>
      <trkpt lat="41.991744" lon="2.528639">
        <ele>573.716</ele>
        <time>2021-05-27T07:49:42Z</time>
      </trkpt>
      <trkpt lat="41.991768" lon="2.528645">
        <ele>574.772</ele>
        <time>2021-05-27T07:49:44Z</time>
      </trkpt>
      <trkpt lat="41.991793" lon="2.528644">
        <ele>575.325</ele>
        <time>2021-05-27T07:49:46Z</time>
      </trkpt>
      <trkpt lat="41.991821" lon="2.528652">
        <ele>576.526</ele>
        <time>2021-05-27T07:49:48Z</time>
      </trkpt>
      <trkpt lat="41.991849" lon="2.528652">
        <ele>577.308</ele>
        <time>2021-05-27T07:49:50Z</time>
      </trkpt>
      <trkpt lat="41.991875" lon="2.528646">
        <ele>577.708</ele>
        <time>2021-05-27T07:49:52Z</time>
      </trkpt>
      <trkpt lat="41.991903" lon="2.528642">
        <ele>578.399</ele>
        <time>2021-05-27T07:49:54Z</time>
      </trkpt>
      <trkpt lat="41.991931" lon="2.528637">
        <ele>578.866</ele>
        <time>2021-05-27T07:49:56Z</time>
      </trkpt>
      <trkpt lat="41.991959" lon="2.528639">
        <ele>579.734</ele>
        <time>2021-05-27T07:49:58Z</time>
      </trkpt>
      <trkpt lat="41.991986" lon="2.528650">
        <ele>580.814</ele>
        <time>2021-05-27T07:50:00Z</time>
      </trkpt>
      <trkpt lat="41.992012" lon="2.528648">
        <ele>581.461</ele>
        <time>2021-05-27T07:50:02Z</time>
      </trkpt>
      <trkpt lat="41.992034" lon="2.528647">
        <ele>581.976</ele>
        <time>2021-05-27T07:50:04Z</time>
      </trkpt>
      <trkpt lat="41.992057" lon="2.528642">
        <ele>582.299</ele>
        <time>2021-05-27T07:50:06Z</time>
      </trkpt>
      <trkpt lat="41.992084" lon="2.528637">
        <ele>582.785</ele>
        <time>2021-05-27T07:50:08Z</time>
      </trkpt>
      <trkpt lat="41.992111" lon="2.528633">
        <ele>583.233</ele>
        <time>2021-05-27T07:50:10Z</time>
      </trkpt>
      <trkpt lat="41.992147" lon="2.528629">
        <ele>583.923</ele>
        <time>2021-05-27T07:50:14Z</time>
      </trkpt>
      <trkpt lat="41.992241" lon="2.528598">
        <ele>585.315</ele>
        <time>2021-05-27T07:50:22Z</time>
      </trkpt>
      <trkpt lat="41.992332" lon="2.528545">
        <ele>587.408</ele>
        <time>2021-05-27T07:50:30Z</time>
      </trkpt>
      <trkpt lat="41.992384" lon="2.528437">
        <ele>586.590</ele>
        <time>2021-05-27T07:50:38Z</time>
      </trkpt>
      <trkpt lat="41.992434" lon="2.528335">
        <ele>586.087</ele>
        <time>2021-05-27T07:50:44Z</time>
      </trkpt>
      <trkpt lat="41.992442" lon="2.528208">
        <ele>586.845</ele>
        <time>2021-05-27T07:50:50Z</time>
      </trkpt>
      <trkpt lat="41.992407" lon="2.528091">
        <ele>585.245</ele>
        <time>2021-05-27T07:50:56Z</time>
      </trkpt>
      <trkpt lat="41.992390" lon="2.528052">
        <ele>584.432</ele>
        <time>2021-05-27T07:50:58Z</time>
      </trkpt>
      <trkpt lat="41.992364" lon="2.528008">
        <ele>583.897</ele>
        <time>2021-05-27T07:51:01Z</time>
      </trkpt>
      <trkpt lat="41.992350" lon="2.527972">
        <ele>583.890</ele>
        <time>2021-05-27T07:51:03Z</time>
      </trkpt>
      <trkpt lat="41.992338" lon="2.527943">
        <ele>583.866</ele>
        <time>2021-05-27T07:51:05Z</time>
      </trkpt>
      <trkpt lat="41.992328" lon="2.527914">
        <ele>583.877</ele>
        <time>2021-05-27T07:51:07Z</time>
      </trkpt>
      <trkpt lat="41.992316" lon="2.527884">
        <ele>583.961</ele>
        <time>2021-05-27T07:51:09Z</time>
      </trkpt>
      <trkpt lat="41.992306" lon="2.527855">
        <ele>584.027</ele>
        <time>2021-05-27T07:51:11Z</time>
      </trkpt>
      <trkpt lat="41.992301" lon="2.527823">
        <ele>584.408</ele>
        <time>2021-05-27T07:51:13Z</time>
      </trkpt>
      <trkpt lat="41.992290" lon="2.527792">
        <ele>584.614</ele>
        <time>2021-05-27T07:51:15Z</time>
      </trkpt>
      <trkpt lat="41.992282" lon="2.527761">
        <ele>584.571</ele>
        <time>2021-05-27T07:51:17Z</time>
      </trkpt>
      <trkpt lat="41.992276" lon="2.527732">
        <ele>584.389</ele>
        <time>2021-05-27T07:51:19Z</time>
      </trkpt>
      <trkpt lat="41.992272" lon="2.527704">
        <ele>584.169</ele>
        <time>2021-05-27T07:51:21Z</time>
      </trkpt>
      <trkpt lat="41.992272" lon="2.527675">
        <ele>584.216</ele>
        <time>2021-05-27T07:51:23Z</time>
      </trkpt>
      <trkpt lat="41.992270" lon="2.527646">
        <ele>584.221</ele>
        <time>2021-05-27T07:51:25Z</time>
      </trkpt>
      <trkpt lat="41.992266" lon="2.527619">
        <ele>584.174</ele>
        <time>2021-05-27T07:51:27Z</time>
      </trkpt>
      <trkpt lat="41.992261" lon="2.527591">
        <ele>583.930</ele>
        <time>2021-05-27T07:51:29Z</time>
      </trkpt>
      <trkpt lat="41.992255" lon="2.527566">
        <ele>583.683</ele>
        <time>2021-05-27T07:51:31Z</time>
      </trkpt>
      <trkpt lat="41.992248" lon="2.527536">
        <ele>583.425</ele>
        <time>2021-05-27T07:51:33Z</time>
      </trkpt>
      <trkpt lat="41.992242" lon="2.527502">
        <ele>583.117</ele>
        <time>2021-05-27T07:51:35Z</time>
      </trkpt>
      <trkpt lat="41.992241" lon="2.527470">
        <ele>583.208</ele>
        <time>2021-05-27T07:51:37Z</time>
      </trkpt>
      <trkpt lat="41.992240" lon="2.527439">
        <ele>583.285</ele>
        <time>2021-05-27T07:51:39Z</time>
      </trkpt>
      <trkpt lat="41.992240" lon="2.527408">
        <ele>583.392</ele>
        <time>2021-05-27T07:51:41Z</time>
      </trkpt>
      <trkpt lat="41.992236" lon="2.527379">
        <ele>583.270</ele>
        <time>2021-05-27T07:51:43Z</time>
      </trkpt>
      <trkpt lat="41.992234" lon="2.527349">
        <ele>583.260</ele>
        <time>2021-05-27T07:51:45Z</time>
      </trkpt>
      <trkpt lat="41.992232" lon="2.527318">
        <ele>583.197</ele>
        <time>2021-05-27T07:51:47Z</time>
      </trkpt>
      <trkpt lat="41.992226" lon="2.527288">
        <ele>583.052</ele>
        <time>2021-05-27T07:51:49Z</time>
      </trkpt>
      <trkpt lat="41.992222" lon="2.527256">
        <ele>582.935</ele>
        <time>2021-05-27T07:51:51Z</time>
      </trkpt>
      <trkpt lat="41.992219" lon="2.527224">
        <ele>582.831</ele>
        <time>2021-05-27T07:51:53Z</time>
      </trkpt>
      <trkpt lat="41.992220" lon="2.527196">
        <ele>582.016</ele>
        <time>2021-05-27T07:51:56Z</time>
      </trkpt>
      <trkpt lat="41.992223" lon="2.527165">
        <ele>581.276</ele>
        <time>2021-05-27T07:51:57Z</time>
      </trkpt>
      <trkpt lat="41.992227" lon="2.527134">
        <ele>580.413</ele>
        <time>2021-05-27T07:51:59Z</time>
      </trkpt>
      <trkpt lat="41.992234" lon="2.527102">
        <ele>579.608</ele>
        <time>2021-05-27T07:52:01Z</time>
      </trkpt>
      <trkpt lat="41.992242" lon="2.527068">
        <ele>578.978</ele>
        <time>2021-05-27T07:52:03Z</time>
      </trkpt>
      <trkpt lat="41.992249" lon="2.527036">
        <ele>578.245</ele>
        <time>2021-05-27T07:52:05Z</time>
      </trkpt>
      <trkpt lat="41.992254" lon="2.527007">
        <ele>577.473</ele>
        <time>2021-05-27T07:52:07Z</time>
      </trkpt>
      <trkpt lat="41.992260" lon="2.526979">
        <ele>576.893</ele>
        <time>2021-05-27T07:52:09Z</time>
      </trkpt>
      <trkpt lat="41.992269" lon="2.526950">
        <ele>576.260</ele>
        <time>2021-05-27T07:52:11Z</time>
      </trkpt>
      <trkpt lat="41.992268" lon="2.526925">
        <ele>575.565</ele>
        <time>2021-05-27T07:52:27Z</time>
      </trkpt>
      <trkpt lat="41.992267" lon="2.526900">
        <ele>574.888</ele>
        <time>2021-05-27T07:53:17Z</time>
      </trkpt>
      <trkpt lat="41.992274" lon="2.526869">
        <ele>574.384</ele>
        <time>2021-05-27T07:53:20Z</time>
      </trkpt>
      <trkpt lat="41.992277" lon="2.526842">
        <ele>573.642</ele>
        <time>2021-05-27T07:53:24Z</time>
      </trkpt>
      <trkpt lat="41.992285" lon="2.526864">
        <ele>574.522</ele>
        <time>2021-05-27T07:53:32Z</time>
      </trkpt>
      <trkpt lat="41.992286" lon="2.526889">
        <ele>575.214</ele>
        <time>2021-05-27T07:53:34Z</time>
      </trkpt>
      <trkpt lat="41.992295" lon="2.526926">
        <ele>576.608</ele>
        <time>2021-05-27T07:53:36Z</time>
      </trkpt>
      <trkpt lat="41.992302" lon="2.526952">
        <ele>577.721</ele>
        <time>2021-05-27T07:53:39Z</time>
      </trkpt>
      <trkpt lat="41.992309" lon="2.526976">
        <ele>578.898</ele>
        <time>2021-05-27T07:53:40Z</time>
      </trkpt>
      <trkpt lat="41.992317" lon="2.527004">
        <ele>580.186</ele>
        <time>2021-05-27T07:53:42Z</time>
      </trkpt>
      <trkpt lat="41.992320" lon="2.527036">
        <ele>581.326</ele>
        <time>2021-05-27T07:53:44Z</time>
      </trkpt>
      <trkpt lat="41.992320" lon="2.527065">
        <ele>582.323</ele>
        <time>2021-05-27T07:53:46Z</time>
      </trkpt>
      <trkpt lat="41.992316" lon="2.527097">
        <ele>583.228</ele>
        <time>2021-05-27T07:53:48Z</time>
      </trkpt>
      <trkpt lat="41.992310" lon="2.527131">
        <ele>584.021</ele>
        <time>2021-05-27T07:53:50Z</time>
      </trkpt>
      <trkpt lat="41.992309" lon="2.527165">
        <ele>585.147</ele>
        <time>2021-05-27T07:53:52Z</time>
      </trkpt>
      <trkpt lat="41.992305" lon="2.527197">
        <ele>586.023</ele>
        <time>2021-05-27T07:53:54Z</time>
      </trkpt>
      <trkpt lat="41.992304" lon="2.527224">
        <ele>586.883</ele>
        <time>2021-05-27T07:53:56Z</time>
      </trkpt>
      <trkpt lat="41.992306" lon="2.527253">
        <ele>586.911</ele>
        <time>2021-05-27T07:53:58Z</time>
      </trkpt>
      <trkpt lat="41.992311" lon="2.527278">
        <ele>587.108</ele>
        <time>2021-05-27T07:54:00Z</time>
      </trkpt>
      <trkpt lat="41.992314" lon="2.527310">
        <ele>587.369</ele>
        <time>2021-05-27T07:54:02Z</time>
      </trkpt>
      <trkpt lat="41.992322" lon="2.527341">
        <ele>587.756</ele>
        <time>2021-05-27T07:54:04Z</time>
      </trkpt>
      <trkpt lat="41.992330" lon="2.527368">
        <ele>588.184</ele>
        <time>2021-05-27T07:54:06Z</time>
      </trkpt>
      <trkpt lat="41.992338" lon="2.527403">
        <ele>588.674</ele>
        <time>2021-05-27T07:54:08Z</time>
      </trkpt>
      <trkpt lat="41.992349" lon="2.527432">
        <ele>589.271</ele>
        <time>2021-05-27T07:54:10Z</time>
      </trkpt>
      <trkpt lat="41.992362" lon="2.527461">
        <ele>590.056</ele>
        <time>2021-05-27T07:54:12Z</time>
      </trkpt>
      <trkpt lat="41.992374" lon="2.527489">
        <ele>590.779</ele>
        <time>2021-05-27T07:54:14Z</time>
      </trkpt>
      <trkpt lat="41.992386" lon="2.527517">
        <ele>591.485</ele>
        <time>2021-05-27T07:54:16Z</time>
      </trkpt>
      <trkpt lat="41.992397" lon="2.527547">
        <ele>591.937</ele>
        <time>2021-05-27T07:54:18Z</time>
      </trkpt>
      <trkpt lat="41.992411" lon="2.527576">
        <ele>592.649</ele>
        <time>2021-05-27T07:54:20Z</time>
      </trkpt>
      <trkpt lat="41.992420" lon="2.527606">
        <ele>593.013</ele>
        <time>2021-05-27T07:54:22Z</time>
      </trkpt>
      <trkpt lat="41.992431" lon="2.527633">
        <ele>593.508</ele>
        <time>2021-05-27T07:54:24Z</time>
      </trkpt>
      <trkpt lat="41.992447" lon="2.527659">
        <ele>594.410</ele>
        <time>2021-05-27T07:54:26Z</time>
      </trkpt>
      <trkpt lat="41.992463" lon="2.527685">
        <ele>595.257</ele>
        <time>2021-05-27T07:54:28Z</time>
      </trkpt>
      <trkpt lat="41.992475" lon="2.527711">
        <ele>595.865</ele>
        <time>2021-05-27T07:54:30Z</time>
      </trkpt>
      <trkpt lat="41.992487" lon="2.527736">
        <ele>596.465</ele>
        <time>2021-05-27T07:54:32Z</time>
      </trkpt>
      <trkpt lat="41.992505" lon="2.527763">
        <ele>597.272</ele>
        <time>2021-05-27T07:54:34Z</time>
      </trkpt>
      <trkpt lat="41.992521" lon="2.527792">
        <ele>597.577</ele>
        <time>2021-05-27T07:54:36Z</time>
      </trkpt>
      <trkpt lat="41.992538" lon="2.527817">
        <ele>597.850</ele>
        <time>2021-05-27T07:54:38Z</time>
      </trkpt>
      <trkpt lat="41.992552" lon="2.527841">
        <ele>597.966</ele>
        <time>2021-05-27T07:54:40Z</time>
      </trkpt>
      <trkpt lat="41.992570" lon="2.527865">
        <ele>598.486</ele>
        <time>2021-05-27T07:54:42Z</time>
      </trkpt>
      <trkpt lat="41.992589" lon="2.527893">
        <ele>598.860</ele>
        <time>2021-05-27T07:54:44Z</time>
      </trkpt>
      <trkpt lat="41.992606" lon="2.527913">
        <ele>599.426</ele>
        <time>2021-05-27T07:54:46Z</time>
      </trkpt>
      <trkpt lat="41.992625" lon="2.527930">
        <ele>600.108</ele>
        <time>2021-05-27T07:54:48Z</time>
      </trkpt>
      <trkpt lat="41.992641" lon="2.527950">
        <ele>600.865</ele>
        <time>2021-05-27T07:54:50Z</time>
      </trkpt>
      <trkpt lat="41.992659" lon="2.527972">
        <ele>601.592</ele>
        <time>2021-05-27T07:54:52Z</time>
      </trkpt>
      <trkpt lat="41.992678" lon="2.527992">
        <ele>602.420</ele>
        <time>2021-05-27T07:54:54Z</time>
      </trkpt>
      <trkpt lat="41.992697" lon="2.528008">
        <ele>603.440</ele>
        <time>2021-05-27T07:54:56Z</time>
      </trkpt>
      <trkpt lat="41.992716" lon="2.528032">
        <ele>604.357</ele>
        <time>2021-05-27T07:54:58Z</time>
      </trkpt>
      <trkpt lat="41.992735" lon="2.528057">
        <ele>605.422</ele>
        <time>2021-05-27T07:55:00Z</time>
      </trkpt>
      <trkpt lat="41.992753" lon="2.528076">
        <ele>606.355</ele>
        <time>2021-05-27T07:55:02Z</time>
      </trkpt>
      <trkpt lat="41.992771" lon="2.528097">
        <ele>607.331</ele>
        <time>2021-05-27T07:55:04Z</time>
      </trkpt>
      <trkpt lat="41.992789" lon="2.528121">
        <ele>608.118</ele>
        <time>2021-05-27T07:55:06Z</time>
      </trkpt>
      <trkpt lat="41.992805" lon="2.528147">
        <ele>608.798</ele>
        <time>2021-05-27T07:55:08Z</time>
      </trkpt>
      <trkpt lat="41.992824" lon="2.528177">
        <ele>609.417</ele>
        <time>2021-05-27T07:55:10Z</time>
      </trkpt>
      <trkpt lat="41.992839" lon="2.528206">
        <ele>610.008</ele>
        <time>2021-05-27T07:55:12Z</time>
      </trkpt>
      <trkpt lat="41.992846" lon="2.528237">
        <ele>610.288</ele>
        <time>2021-05-27T07:55:14Z</time>
      </trkpt>
      <trkpt lat="41.992842" lon="2.528265">
        <ele>609.815</ele>
        <time>2021-05-27T07:55:16Z</time>
      </trkpt>
      <trkpt lat="41.992848" lon="2.528302">
        <ele>610.053</ele>
        <time>2021-05-27T07:55:19Z</time>
      </trkpt>
      <trkpt lat="41.992854" lon="2.528334">
        <ele>610.173</ele>
        <time>2021-05-27T07:55:20Z</time>
      </trkpt>
      <trkpt lat="41.992848" lon="2.528370">
        <ele>610.420</ele>
        <time>2021-05-27T07:55:22Z</time>
      </trkpt>
      <trkpt lat="41.992844" lon="2.528406">
        <ele>610.855</ele>
        <time>2021-05-27T07:55:24Z</time>
      </trkpt>
      <trkpt lat="41.992837" lon="2.528441">
        <ele>611.128</ele>
        <time>2021-05-27T07:55:26Z</time>
      </trkpt>
      <trkpt lat="41.992829" lon="2.528474">
        <ele>611.244</ele>
        <time>2021-05-27T07:55:28Z</time>
      </trkpt>
      <trkpt lat="41.992815" lon="2.528505">
        <ele>611.027</ele>
        <time>2021-05-27T07:55:30Z</time>
      </trkpt>
      <trkpt lat="41.992800" lon="2.528537">
        <ele>610.868</ele>
        <time>2021-05-27T07:55:32Z</time>
      </trkpt>
      <trkpt lat="41.992784" lon="2.528562">
        <ele>610.414</ele>
        <time>2021-05-27T07:55:34Z</time>
      </trkpt>
      <trkpt lat="41.992765" lon="2.528587">
        <ele>609.908</ele>
        <time>2021-05-27T07:55:36Z</time>
      </trkpt>
      <trkpt lat="41.992746" lon="2.528614">
        <ele>609.489</ele>
        <time>2021-05-27T07:55:38Z</time>
      </trkpt>
      <trkpt lat="41.992727" lon="2.528640">
        <ele>609.176</ele>
        <time>2021-05-27T07:55:40Z</time>
      </trkpt>
      <trkpt lat="41.992708" lon="2.528665">
        <ele>608.954</ele>
        <time>2021-05-27T07:55:42Z</time>
      </trkpt>
      <trkpt lat="41.992689" lon="2.528692">
        <ele>608.834</ele>
        <time>2021-05-27T07:55:44Z</time>
      </trkpt>
      <trkpt lat="41.992675" lon="2.528719">
        <ele>609.021</ele>
        <time>2021-05-27T07:55:46Z</time>
      </trkpt>
      <trkpt lat="41.992660" lon="2.528745">
        <ele>609.166</ele>
        <time>2021-05-27T07:55:48Z</time>
      </trkpt>
      <trkpt lat="41.992643" lon="2.528768">
        <ele>609.159</ele>
        <time>2021-05-27T07:55:50Z</time>
      </trkpt>
      <trkpt lat="41.992628" lon="2.528793">
        <ele>609.295</ele>
        <time>2021-05-27T07:55:52Z</time>
      </trkpt>
      <trkpt lat="41.992611" lon="2.528818">
        <ele>609.357</ele>
        <time>2021-05-27T07:55:54Z</time>
      </trkpt>
      <trkpt lat="41.992592" lon="2.528844">
        <ele>609.400</ele>
        <time>2021-05-27T07:55:56Z</time>
      </trkpt>
      <trkpt lat="41.992573" lon="2.528869">
        <ele>609.420</ele>
        <time>2021-05-27T07:55:58Z</time>
      </trkpt>
      <trkpt lat="41.992554" lon="2.528896">
        <ele>609.608</ele>
        <time>2021-05-27T07:56:00Z</time>
      </trkpt>
      <trkpt lat="41.992536" lon="2.528921">
        <ele>609.712</ele>
        <time>2021-05-27T07:56:02Z</time>
      </trkpt>
      <trkpt lat="41.992518" lon="2.528947">
        <ele>609.959</ele>
        <time>2021-05-27T07:56:04Z</time>
      </trkpt>
      <trkpt lat="41.992500" lon="2.528974">
        <ele>610.167</ele>
        <time>2021-05-27T07:56:06Z</time>
      </trkpt>
      <trkpt lat="41.992481" lon="2.528998">
        <ele>610.287</ele>
        <time>2021-05-27T07:56:08Z</time>
      </trkpt>
      <trkpt lat="41.992464" lon="2.529024">
        <ele>610.684</ele>
        <time>2021-05-27T07:56:10Z</time>
      </trkpt>
      <trkpt lat="41.992448" lon="2.529051">
        <ele>611.059</ele>
        <time>2021-05-27T07:56:12Z</time>
      </trkpt>
      <trkpt lat="41.992431" lon="2.529075">
        <ele>611.212</ele>
        <time>2021-05-27T07:56:14Z</time>
      </trkpt>
      <trkpt lat="41.992412" lon="2.529094">
        <ele>611.268</ele>
        <time>2021-05-27T07:56:16Z</time>
      </trkpt>
      <trkpt lat="41.992391" lon="2.529116">
        <ele>611.398</ele>
        <time>2021-05-27T07:56:18Z</time>
      </trkpt>
      <trkpt lat="41.992371" lon="2.529137">
        <ele>611.315</ele>
        <time>2021-05-27T07:56:20Z</time>
      </trkpt>
      <trkpt lat="41.992348" lon="2.529157">
        <ele>611.226</ele>
        <time>2021-05-27T07:56:22Z</time>
      </trkpt>
      <trkpt lat="41.992325" lon="2.529171">
        <ele>610.908</ele>
        <time>2021-05-27T07:56:24Z</time>
      </trkpt>
      <trkpt lat="41.992302" lon="2.529185">
        <ele>610.616</ele>
        <time>2021-05-27T07:56:26Z</time>
      </trkpt>
      <trkpt lat="41.992279" lon="2.529201">
        <ele>610.413</ele>
        <time>2021-05-27T07:56:28Z</time>
      </trkpt>
      <trkpt lat="41.992257" lon="2.529217">
        <ele>610.221</ele>
        <time>2021-05-27T07:56:30Z</time>
      </trkpt>
      <trkpt lat="41.992234" lon="2.529233">
        <ele>610.161</ele>
        <time>2021-05-27T07:56:32Z</time>
      </trkpt>
      <trkpt lat="41.992209" lon="2.529246">
        <ele>609.938</ele>
        <time>2021-05-27T07:56:34Z</time>
      </trkpt>
      <trkpt lat="41.992183" lon="2.529255">
        <ele>609.753</ele>
        <time>2021-05-27T07:56:36Z</time>
      </trkpt>
      <trkpt lat="41.992159" lon="2.529267">
        <ele>609.626</ele>
        <time>2021-05-27T07:56:38Z</time>
      </trkpt>
      <trkpt lat="41.992135" lon="2.529278">
        <ele>609.562</ele>
        <time>2021-05-27T07:56:40Z</time>
      </trkpt>
      <trkpt lat="41.992109" lon="2.529283">
        <ele>609.154</ele>
        <time>2021-05-27T07:56:42Z</time>
      </trkpt>
      <trkpt lat="41.992083" lon="2.529290">
        <ele>608.756</ele>
        <time>2021-05-27T07:56:44Z</time>
      </trkpt>
      <trkpt lat="41.992057" lon="2.529296">
        <ele>608.311</ele>
        <time>2021-05-27T07:56:46Z</time>
      </trkpt>
      <trkpt lat="41.992030" lon="2.529295">
        <ele>607.708</ele>
        <time>2021-05-27T07:56:48Z</time>
      </trkpt>
      <trkpt lat="41.992003" lon="2.529298">
        <ele>607.152</ele>
        <time>2021-05-27T07:56:50Z</time>
      </trkpt>
      <trkpt lat="41.991975" lon="2.529298">
        <ele>606.579</ele>
        <time>2021-05-27T07:56:52Z</time>
      </trkpt>
      <trkpt lat="41.991949" lon="2.529300">
        <ele>605.917</ele>
        <time>2021-05-27T07:56:54Z</time>
      </trkpt>
      <trkpt lat="41.991922" lon="2.529299">
        <ele>605.337</ele>
        <time>2021-05-27T07:56:56Z</time>
      </trkpt>
      <trkpt lat="41.991895" lon="2.529297">
        <ele>604.644</ele>
        <time>2021-05-27T07:56:58Z</time>
      </trkpt>
      <trkpt lat="41.991869" lon="2.529301">
        <ele>604.119</ele>
        <time>2021-05-27T07:57:00Z</time>
      </trkpt>
      <trkpt lat="41.991846" lon="2.529313">
        <ele>603.912</ele>
        <time>2021-05-27T07:57:02Z</time>
      </trkpt>
      <trkpt lat="41.991826" lon="2.529328">
        <ele>603.898</ele>
        <time>2021-05-27T07:57:04Z</time>
      </trkpt>
      <trkpt lat="41.991807" lon="2.529345">
        <ele>603.983</ele>
        <time>2021-05-27T07:57:06Z</time>
      </trkpt>
      <trkpt lat="41.991788" lon="2.529368">
        <ele>604.025</ele>
        <time>2021-05-27T07:57:08Z</time>
      </trkpt>
      <trkpt lat="41.991774" lon="2.529395">
        <ele>604.417</ele>
        <time>2021-05-27T07:57:10Z</time>
      </trkpt>
      <trkpt lat="41.991772" lon="2.529429">
        <ele>605.208</ele>
        <time>2021-05-27T07:57:12Z</time>
      </trkpt>
      <trkpt lat="41.991777" lon="2.529461">
        <ele>606.275</ele>
        <time>2021-05-27T07:57:14Z</time>
      </trkpt>
      <trkpt lat="41.991777" lon="2.529486">
        <ele>606.952</ele>
        <time>2021-05-27T07:57:16Z</time>
      </trkpt>
      <trkpt lat="41.991780" lon="2.529520">
        <ele>607.920</ele>
        <time>2021-05-27T07:57:18Z</time>
      </trkpt>
      <trkpt lat="41.991785" lon="2.529552">
        <ele>608.990</ele>
        <time>2021-05-27T07:57:20Z</time>
      </trkpt>
      <trkpt lat="41.991791" lon="2.529582">
        <ele>609.887</ele>
        <time>2021-05-27T07:57:22Z</time>
      </trkpt>
      <trkpt lat="41.991796" lon="2.529611">
        <ele>610.752</ele>
        <time>2021-05-27T07:57:24Z</time>
      </trkpt>
      <trkpt lat="41.991806" lon="2.529644">
        <ele>611.995</ele>
        <time>2021-05-27T07:57:26Z</time>
      </trkpt>
      <trkpt lat="41.991815" lon="2.529677">
        <ele>613.071</ele>
        <time>2021-05-27T07:57:28Z</time>
      </trkpt>
      <trkpt lat="41.991817" lon="2.529710">
        <ele>614.041</ele>
        <time>2021-05-27T07:57:30Z</time>
      </trkpt>
      <trkpt lat="41.991822" lon="2.529745">
        <ele>614.681</ele>
        <time>2021-05-27T07:57:32Z</time>
      </trkpt>
      <trkpt lat="41.991820" lon="2.529773">
        <ele>614.709</ele>
        <time>2021-05-27T07:57:37Z</time>
      </trkpt>
      <trkpt lat="41.991820" lon="2.529808">
        <ele>614.908</ele>
        <time>2021-05-27T07:57:38Z</time>
      </trkpt>
      <trkpt lat="41.991816" lon="2.529843">
        <ele>614.971</ele>
        <time>2021-05-27T07:57:40Z</time>
      </trkpt>
      <trkpt lat="41.991813" lon="2.529880">
        <ele>614.928</ele>
        <time>2021-05-27T07:57:43Z</time>
      </trkpt>
      <trkpt lat="41.991816" lon="2.529917">
        <ele>615.286</ele>
        <time>2021-05-27T07:57:44Z</time>
      </trkpt>
      <trkpt lat="41.991824" lon="2.529958">
        <ele>615.876</ele>
        <time>2021-05-27T07:57:46Z</time>
      </trkpt>
      <trkpt lat="41.991833" lon="2.529995">
        <ele>616.573</ele>
        <time>2021-05-27T07:57:48Z</time>
      </trkpt>
      <trkpt lat="41.991845" lon="2.530033">
        <ele>617.498</ele>
        <time>2021-05-27T07:57:50Z</time>
      </trkpt>
      <trkpt lat="41.991857" lon="2.530069">
        <ele>618.331</ele>
        <time>2021-05-27T07:57:52Z</time>
      </trkpt>
      <trkpt lat="41.991872" lon="2.530099">
        <ele>619.377</ele>
        <time>2021-05-27T07:57:54Z</time>
      </trkpt>
      <trkpt lat="41.991888" lon="2.530130">
        <ele>620.317</ele>
        <time>2021-05-27T07:57:56Z</time>
      </trkpt>
      <trkpt lat="41.991902" lon="2.530160">
        <ele>621.287</ele>
        <time>2021-05-27T07:57:58Z</time>
      </trkpt>
      <trkpt lat="41.991918" lon="2.530198">
        <ele>622.315</ele>
        <time>2021-05-27T07:58:00Z</time>
      </trkpt>
      <trkpt lat="41.991934" lon="2.530232">
        <ele>623.308</ele>
        <time>2021-05-27T07:58:02Z</time>
      </trkpt>
      <trkpt lat="41.991951" lon="2.530263">
        <ele>624.398</ele>
        <time>2021-05-27T07:58:04Z</time>
      </trkpt>
      <trkpt lat="41.991967" lon="2.530295">
        <ele>625.145</ele>
        <time>2021-05-27T07:58:06Z</time>
      </trkpt>
      <trkpt lat="41.991982" lon="2.530329">
        <ele>625.983</ele>
        <time>2021-05-27T07:58:08Z</time>
      </trkpt>
      <trkpt lat="41.991997" lon="2.530362">
        <ele>626.613</ele>
        <time>2021-05-27T07:58:10Z</time>
      </trkpt>
      <trkpt lat="41.992011" lon="2.530395">
        <ele>627.460</ele>
        <time>2021-05-27T07:58:12Z</time>
      </trkpt>
      <trkpt lat="41.992020" lon="2.530430">
        <ele>627.835</ele>
        <time>2021-05-27T07:58:14Z</time>
      </trkpt>
      <trkpt lat="41.992028" lon="2.530464">
        <ele>628.288</ele>
        <time>2021-05-27T07:58:17Z</time>
      </trkpt>
      <trkpt lat="41.992036" lon="2.530501">
        <ele>628.624</ele>
        <time>2021-05-27T07:58:18Z</time>
      </trkpt>
      <trkpt lat="41.992041" lon="2.530535">
        <ele>628.926</ele>
        <time>2021-05-27T07:58:20Z</time>
      </trkpt>
      <trkpt lat="41.992045" lon="2.530566">
        <ele>628.947</ele>
        <time>2021-05-27T07:58:22Z</time>
      </trkpt>
      <trkpt lat="41.992048" lon="2.530601">
        <ele>628.411</ele>
        <time>2021-05-27T07:58:24Z</time>
      </trkpt>
      <trkpt lat="41.992048" lon="2.530636">
        <ele>627.808</ele>
        <time>2021-05-27T07:58:26Z</time>
      </trkpt>
      <trkpt lat="41.992048" lon="2.530670">
        <ele>627.399</ele>
        <time>2021-05-27T07:58:28Z</time>
      </trkpt>
      <trkpt lat="41.992046" lon="2.530705">
        <ele>626.576</ele>
        <time>2021-05-27T07:58:30Z</time>
      </trkpt>
      <trkpt lat="41.992042" lon="2.530737">
        <ele>625.784</ele>
        <time>2021-05-27T07:58:32Z</time>
      </trkpt>
      <trkpt lat="41.992045" lon="2.530771">
        <ele>625.364</ele>
        <time>2021-05-27T07:58:34Z</time>
      </trkpt>
      <trkpt lat="41.992045" lon="2.530805">
        <ele>624.711</ele>
        <time>2021-05-27T07:58:36Z</time>
      </trkpt>
      <trkpt lat="41.992044" lon="2.530838">
        <ele>624.166</ele>
        <time>2021-05-27T07:58:38Z</time>
      </trkpt>
      <trkpt lat="41.992043" lon="2.530872">
        <ele>623.549</ele>
        <time>2021-05-27T07:58:40Z</time>
      </trkpt>
      <trkpt lat="41.992041" lon="2.530907">
        <ele>622.935</ele>
        <time>2021-05-27T07:58:42Z</time>
      </trkpt>
      <trkpt lat="41.992042" lon="2.530941">
        <ele>622.528</ele>
        <time>2021-05-27T07:58:44Z</time>
      </trkpt>
      <trkpt lat="41.992040" lon="2.530975">
        <ele>621.889</ele>
        <time>2021-05-27T07:58:46Z</time>
      </trkpt>
      <trkpt lat="41.992041" lon="2.531009">
        <ele>621.417</ele>
        <time>2021-05-27T07:58:48Z</time>
      </trkpt>
      <trkpt lat="41.992041" lon="2.531043">
        <ele>620.908</ele>
        <time>2021-05-27T07:58:50Z</time>
      </trkpt>
      <trkpt lat="41.992045" lon="2.531080">
        <ele>620.789</ele>
        <time>2021-05-27T07:58:52Z</time>
      </trkpt>
      <trkpt lat="41.992050" lon="2.531112">
        <ele>620.696</ele>
        <time>2021-05-27T07:58:54Z</time>
      </trkpt>
      <trkpt lat="41.992057" lon="2.531145">
        <ele>620.984</ele>
        <time>2021-05-27T07:58:56Z</time>
      </trkpt>
      <trkpt lat="41.992067" lon="2.531181">
        <ele>621.584</ele>
        <time>2021-05-27T07:58:58Z</time>
      </trkpt>
      <trkpt lat="41.992078" lon="2.531216">
        <ele>622.181</ele>
        <time>2021-05-27T07:59:00Z</time>
      </trkpt>
      <trkpt lat="41.992085" lon="2.531249">
        <ele>622.476</ele>
        <time>2021-05-27T07:59:02Z</time>
      </trkpt>
      <trkpt lat="41.992095" lon="2.531283">
        <ele>622.979</ele>
        <time>2021-05-27T07:59:04Z</time>
      </trkpt>
      <trkpt lat="41.992111" lon="2.531315">
        <ele>623.865</ele>
        <time>2021-05-27T07:59:06Z</time>
      </trkpt>
      <trkpt lat="41.992124" lon="2.531348">
        <ele>624.599</ele>
        <time>2021-05-27T07:59:08Z</time>
      </trkpt>
      <trkpt lat="41.992139" lon="2.531382">
        <ele>625.407</ele>
        <time>2021-05-27T07:59:11Z</time>
      </trkpt>
      <trkpt lat="41.992149" lon="2.531416">
        <ele>626.027</ele>
        <time>2021-05-27T07:59:12Z</time>
      </trkpt>
      <trkpt lat="41.992162" lon="2.531448">
        <ele>626.808</ele>
        <time>2021-05-27T07:59:14Z</time>
      </trkpt>
      <trkpt lat="41.992174" lon="2.531479">
        <ele>627.546</ele>
        <time>2021-05-27T07:59:16Z</time>
      </trkpt>
      <trkpt lat="41.992188" lon="2.531507">
        <ele>628.423</ele>
        <time>2021-05-27T07:59:18Z</time>
      </trkpt>
      <trkpt lat="41.992206" lon="2.531534">
        <ele>629.591</ele>
        <time>2021-05-27T07:59:20Z</time>
      </trkpt>
      <trkpt lat="41.992225" lon="2.531559">
        <ele>630.621</ele>
        <time>2021-05-27T07:59:22Z</time>
      </trkpt>
      <trkpt lat="41.992240" lon="2.531583">
        <ele>631.798</ele>
        <time>2021-05-27T07:59:24Z</time>
      </trkpt>
      <trkpt lat="41.992253" lon="2.531614">
        <ele>632.683</ele>
        <time>2021-05-27T07:59:26Z</time>
      </trkpt>
      <trkpt lat="41.992268" lon="2.531645">
        <ele>633.626</ele>
        <time>2021-05-27T07:59:28Z</time>
      </trkpt>
      <trkpt lat="41.992278" lon="2.531672">
        <ele>634.342</ele>
        <time>2021-05-27T07:59:30Z</time>
      </trkpt>
      <trkpt lat="41.992284" lon="2.531705">
        <ele>635.044</ele>
        <time>2021-05-27T07:59:32Z</time>
      </trkpt>
      <trkpt lat="41.992285" lon="2.531741">
        <ele>635.305</ele>
        <time>2021-05-27T07:59:34Z</time>
      </trkpt>
      <trkpt lat="41.992279" lon="2.531776">
        <ele>635.215</ele>
        <time>2021-05-27T07:59:36Z</time>
      </trkpt>
      <trkpt lat="41.992273" lon="2.531810">
        <ele>635.008</ele>
        <time>2021-05-27T07:59:38Z</time>
      </trkpt>
      <trkpt lat="41.992264" lon="2.531841">
        <ele>634.731</ele>
        <time>2021-05-27T07:59:40Z</time>
      </trkpt>
      <trkpt lat="41.992256" lon="2.531872">
        <ele>634.418</ele>
        <time>2021-05-27T07:59:42Z</time>
      </trkpt>
      <trkpt lat="41.992246" lon="2.531901">
        <ele>634.026</ele>
        <time>2021-05-27T07:59:44Z</time>
      </trkpt>
      <trkpt lat="41.992236" lon="2.531932">
        <ele>633.746</ele>
        <time>2021-05-27T07:59:46Z</time>
      </trkpt>
      <trkpt lat="41.992226" lon="2.531967">
        <ele>633.783</ele>
        <time>2021-05-27T07:59:48Z</time>
      </trkpt>
      <trkpt lat="41.992221" lon="2.531998">
        <ele>634.118</ele>
        <time>2021-05-27T07:59:50Z</time>
      </trkpt>
      <trkpt lat="41.992215" lon="2.532027">
        <ele>634.481</ele>
        <time>2021-05-27T07:59:52Z</time>
      </trkpt>
      <trkpt lat="41.992213" lon="2.532059">
        <ele>635.067</ele>
        <time>2021-05-27T07:59:54Z</time>
      </trkpt>
      <trkpt lat="41.992211" lon="2.532091">
        <ele>635.677</ele>
        <time>2021-05-27T07:59:56Z</time>
      </trkpt>
      <trkpt lat="41.992207" lon="2.532123">
        <ele>636.161</ele>
        <time>2021-05-27T07:59:58Z</time>
      </trkpt>
      <trkpt lat="41.992206" lon="2.532152">
        <ele>636.727</ele>
        <time>2021-05-27T08:00:00Z</time>
      </trkpt>
      <trkpt lat="41.992203" lon="2.532180">
        <ele>637.108</ele>
        <time>2021-05-27T08:00:02Z</time>
      </trkpt>
      <trkpt lat="41.992201" lon="2.532209">
        <ele>637.654</ele>
        <time>2021-05-27T08:00:04Z</time>
      </trkpt>
      <trkpt lat="41.992197" lon="2.532238">
        <ele>638.071</ele>
        <time>2021-05-27T08:00:06Z</time>
      </trkpt>
      <trkpt lat="41.992195" lon="2.532272">
        <ele>638.599</ele>
        <time>2021-05-27T08:00:08Z</time>
      </trkpt>
      <trkpt lat="41.992191" lon="2.532306">
        <ele>638.959</ele>
        <time>2021-05-27T08:00:10Z</time>
      </trkpt>
      <trkpt lat="41.992190" lon="2.532342">
        <ele>639.516</ele>
        <time>2021-05-27T08:00:12Z</time>
      </trkpt>
      <trkpt lat="41.992179" lon="2.532374">
        <ele>639.651</ele>
        <time>2021-05-27T08:00:14Z</time>
      </trkpt>
      <trkpt lat="41.992166" lon="2.532402">
        <ele>639.434</ele>
        <time>2021-05-27T08:00:16Z</time>
      </trkpt>
      <trkpt lat="41.992155" lon="2.532433">
        <ele>639.470</ele>
        <time>2021-05-27T08:00:18Z</time>
      </trkpt>
      <trkpt lat="41.992146" lon="2.532462">
        <ele>639.565</ele>
        <time>2021-05-27T08:00:20Z</time>
      </trkpt>
      <trkpt lat="41.992137" lon="2.532494">
        <ele>639.668</ele>
        <time>2021-05-27T08:00:22Z</time>
      </trkpt>
      <trkpt lat="41.992130" lon="2.532527">
        <ele>639.614</ele>
        <time>2021-05-27T08:00:24Z</time>
      </trkpt>
      <trkpt lat="41.992121" lon="2.532558">
        <ele>639.508</ele>
        <time>2021-05-27T08:00:26Z</time>
      </trkpt>
      <trkpt lat="41.992111" lon="2.532589">
        <ele>639.413</ele>
        <time>2021-05-27T08:00:28Z</time>
      </trkpt>
      <trkpt lat="41.992104" lon="2.532619">
        <ele>639.330</ele>
        <time>2021-05-27T08:00:30Z</time>
      </trkpt>
      <trkpt lat="41.992096" lon="2.532645">
        <ele>639.268</ele>
        <time>2021-05-27T08:00:32Z</time>
      </trkpt>
      <trkpt lat="41.992085" lon="2.532668">
        <ele>638.938</ele>
        <time>2021-05-27T08:00:34Z</time>
      </trkpt>
      <trkpt lat="41.992075" lon="2.532696">
        <ele>638.795</ele>
        <time>2021-05-27T08:00:36Z</time>
      </trkpt>
      <trkpt lat="41.992066" lon="2.532725">
        <ele>638.690</ele>
        <time>2021-05-27T08:00:38Z</time>
      </trkpt>
      <trkpt lat="41.992062" lon="2.532755">
        <ele>638.713</ele>
        <time>2021-05-27T08:00:40Z</time>
      </trkpt>
      <trkpt lat="41.992062" lon="2.532787">
        <ele>639.029</ele>
        <time>2021-05-27T08:00:42Z</time>
      </trkpt>
      <trkpt lat="41.992056" lon="2.532820">
        <ele>638.837</ele>
        <time>2021-05-27T08:00:44Z</time>
      </trkpt>
      <trkpt lat="41.992053" lon="2.532854">
        <ele>638.949</ele>
        <time>2021-05-27T08:00:46Z</time>
      </trkpt>
      <trkpt lat="41.992056" lon="2.532889">
        <ele>639.213</ele>
        <time>2021-05-27T08:00:48Z</time>
      </trkpt>
      <trkpt lat="41.992059" lon="2.532923">
        <ele>639.508</ele>
        <time>2021-05-27T08:00:50Z</time>
      </trkpt>
      <trkpt lat="41.992066" lon="2.532957">
        <ele>640.110</ele>
        <time>2021-05-27T08:00:52Z</time>
      </trkpt>
      <trkpt lat="41.992076" lon="2.532988">
        <ele>640.757</ele>
        <time>2021-05-27T08:00:54Z</time>
      </trkpt>
      <trkpt lat="41.992092" lon="2.533017">
        <ele>641.885</ele>
        <time>2021-05-27T08:00:56Z</time>
      </trkpt>
      <trkpt lat="41.992106" lon="2.533047">
        <ele>642.795</ele>
        <time>2021-05-27T08:00:58Z</time>
      </trkpt>
      <trkpt lat="41.992114" lon="2.533078">
        <ele>642.862</ele>
        <time>2021-05-27T08:01:00Z</time>
      </trkpt>
      <trkpt lat="41.992123" lon="2.533110">
        <ele>642.877</ele>
        <time>2021-05-27T08:01:02Z</time>
      </trkpt>
      <trkpt lat="41.992131" lon="2.533143">
        <ele>642.790</ele>
        <time>2021-05-27T08:01:04Z</time>
      </trkpt>
      <trkpt lat="41.992140" lon="2.533176">
        <ele>642.656</ele>
        <time>2021-05-27T08:01:06Z</time>
      </trkpt>
      <trkpt lat="41.992148" lon="2.533210">
        <ele>642.514</ele>
        <time>2021-05-27T08:01:08Z</time>
      </trkpt>
      <trkpt lat="41.992159" lon="2.533241">
        <ele>642.654</ele>
        <time>2021-05-27T08:01:10Z</time>
      </trkpt>
      <trkpt lat="41.992171" lon="2.533270">
        <ele>642.709</ele>
        <time>2021-05-27T08:01:12Z</time>
      </trkpt>
      <trkpt lat="41.992185" lon="2.533298">
        <ele>642.908</ele>
        <time>2021-05-27T08:01:14Z</time>
      </trkpt>
      <trkpt lat="41.992198" lon="2.533328">
        <ele>643.068</ele>
        <time>2021-05-27T08:01:16Z</time>
      </trkpt>
      <trkpt lat="41.992212" lon="2.533357">
        <ele>642.915</ele>
        <time>2021-05-27T08:01:18Z</time>
      </trkpt>
      <trkpt lat="41.992225" lon="2.533386">
        <ele>642.863</ele>
        <time>2021-05-27T08:01:20Z</time>
      </trkpt>
      <trkpt lat="41.992236" lon="2.533415">
        <ele>642.863</ele>
        <time>2021-05-27T08:01:22Z</time>
      </trkpt>
      <trkpt lat="41.992250" lon="2.533445">
        <ele>642.890</ele>
        <time>2021-05-27T08:01:24Z</time>
      </trkpt>
      <trkpt lat="41.992269" lon="2.533471">
        <ele>643.325</ele>
        <time>2021-05-27T08:01:26Z</time>
      </trkpt>
      <trkpt lat="41.992288" lon="2.533493">
        <ele>643.958</ele>
        <time>2021-05-27T08:01:28Z</time>
      </trkpt>
      <trkpt lat="41.992306" lon="2.533515">
        <ele>644.434</ele>
        <time>2021-05-27T08:01:30Z</time>
      </trkpt>
      <trkpt lat="41.992325" lon="2.533534">
        <ele>645.173</ele>
        <time>2021-05-27T08:01:32Z</time>
      </trkpt>
      <trkpt lat="41.992345" lon="2.533555">
        <ele>645.885</ele>
        <time>2021-05-27T08:01:34Z</time>
      </trkpt>
      <trkpt lat="41.992367" lon="2.533572">
        <ele>646.813</ele>
        <time>2021-05-27T08:01:36Z</time>
      </trkpt>
      <trkpt lat="41.992391" lon="2.533590">
        <ele>647.808</ele>
        <time>2021-05-27T08:01:38Z</time>
      </trkpt>
      <trkpt lat="41.992416" lon="2.533607">
        <ele>649.084</ele>
        <time>2021-05-27T08:01:40Z</time>
      </trkpt>
      <trkpt lat="41.992443" lon="2.533617">
        <ele>650.451</ele>
        <time>2021-05-27T08:01:42Z</time>
      </trkpt>
      <trkpt lat="41.992468" lon="2.533628">
        <ele>651.629</ele>
        <time>2021-05-27T08:01:44Z</time>
      </trkpt>
      <trkpt lat="41.992492" lon="2.533640">
        <ele>652.719</ele>
        <time>2021-05-27T08:01:46Z</time>
      </trkpt>
      <trkpt lat="41.992515" lon="2.533656">
        <ele>653.486</ele>
        <time>2021-05-27T08:01:48Z</time>
      </trkpt>
      <trkpt lat="41.992539" lon="2.533675">
        <ele>653.861</ele>
        <time>2021-05-27T08:01:50Z</time>
      </trkpt>
      <trkpt lat="41.992562" lon="2.533694">
        <ele>654.374</ele>
        <time>2021-05-27T08:01:52Z</time>
      </trkpt>
      <trkpt lat="41.992585" lon="2.533716">
        <ele>654.710</ele>
        <time>2021-05-27T08:01:54Z</time>
      </trkpt>
      <trkpt lat="41.992607" lon="2.533738">
        <ele>655.046</ele>
        <time>2021-05-27T08:01:56Z</time>
      </trkpt>
      <trkpt lat="41.992626" lon="2.533759">
        <ele>655.288</ele>
        <time>2021-05-27T08:01:58Z</time>
      </trkpt>
      <trkpt lat="41.992648" lon="2.533778">
        <ele>655.616</ele>
        <time>2021-05-27T08:02:00Z</time>
      </trkpt>
      <trkpt lat="41.992671" lon="2.533794">
        <ele>656.108</ele>
        <time>2021-05-27T08:02:02Z</time>
      </trkpt>
      <trkpt lat="41.992695" lon="2.533809">
        <ele>656.791</ele>
        <time>2021-05-27T08:02:04Z</time>
      </trkpt>
      <trkpt lat="41.992717" lon="2.533829">
        <ele>657.158</ele>
        <time>2021-05-27T08:02:06Z</time>
      </trkpt>
      <trkpt lat="41.992740" lon="2.533846">
        <ele>657.646</ele>
        <time>2021-05-27T08:02:08Z</time>
      </trkpt>
      <trkpt lat="41.992762" lon="2.533864">
        <ele>658.026</ele>
        <time>2021-05-27T08:02:10Z</time>
      </trkpt>
      <trkpt lat="41.992785" lon="2.533883">
        <ele>658.443</ele>
        <time>2021-05-27T08:02:12Z</time>
      </trkpt>
      <trkpt lat="41.992808" lon="2.533903">
        <ele>658.558</ele>
        <time>2021-05-27T08:02:14Z</time>
      </trkpt>
      <trkpt lat="41.992832" lon="2.533920">
        <ele>658.741</ele>
        <time>2021-05-27T08:02:16Z</time>
      </trkpt>
      <trkpt lat="41.992856" lon="2.533936">
        <ele>659.017</ele>
        <time>2021-05-27T08:02:18Z</time>
      </trkpt>
      <trkpt lat="41.992879" lon="2.533952">
        <ele>659.295</ele>
        <time>2021-05-27T08:02:20Z</time>
      </trkpt>
      <trkpt lat="41.992902" lon="2.533965">
        <ele>659.449</ele>
        <time>2021-05-27T08:02:22Z</time>
      </trkpt>
      <trkpt lat="41.992927" lon="2.533978">
        <ele>659.823</ele>
        <time>2021-05-27T08:02:24Z</time>
      </trkpt>
      <trkpt lat="41.992952" lon="2.533993">
        <ele>660.008</ele>
        <time>2021-05-27T08:02:26Z</time>
      </trkpt>
      <trkpt lat="41.992979" lon="2.534006">
        <ele>660.436</ele>
        <time>2021-05-27T08:02:28Z</time>
      </trkpt>
      <trkpt lat="41.993005" lon="2.534021">
        <ele>660.793</ele>
        <time>2021-05-27T08:02:30Z</time>
      </trkpt>
      <trkpt lat="41.993028" lon="2.534035">
        <ele>660.941</ele>
        <time>2021-05-27T08:02:32Z</time>
      </trkpt>
      <trkpt lat="41.993049" lon="2.534049">
        <ele>661.051</ele>
        <time>2021-05-27T08:02:34Z</time>
      </trkpt>
      <trkpt lat="41.993075" lon="2.534057">
        <ele>661.888</ele>
        <time>2021-05-27T08:02:36Z</time>
      </trkpt>
      <trkpt lat="41.993098" lon="2.534067">
        <ele>662.573</ele>
        <time>2021-05-27T08:02:38Z</time>
      </trkpt>
      <trkpt lat="41.993120" lon="2.534080">
        <ele>663.056</ele>
        <time>2021-05-27T08:02:40Z</time>
      </trkpt>
      <trkpt lat="41.993141" lon="2.534091">
        <ele>663.612</ele>
        <time>2021-05-27T08:02:42Z</time>
      </trkpt>
      <trkpt lat="41.993163" lon="2.534103">
        <ele>664.169</ele>
        <time>2021-05-27T08:02:44Z</time>
      </trkpt>
      <trkpt lat="41.993187" lon="2.534111">
        <ele>664.904</ele>
        <time>2021-05-27T08:02:46Z</time>
      </trkpt>
      <trkpt lat="41.993209" lon="2.534125">
        <ele>665.324</ele>
        <time>2021-05-27T08:02:48Z</time>
      </trkpt>
      <trkpt lat="41.993231" lon="2.534139">
        <ele>665.708</ele>
        <time>2021-05-27T08:02:50Z</time>
      </trkpt>
      <trkpt lat="41.993253" lon="2.534156">
        <ele>666.063</ele>
        <time>2021-05-27T08:02:52Z</time>
      </trkpt>
      <trkpt lat="41.993272" lon="2.534180">
        <ele>665.950</ele>
        <time>2021-05-27T08:02:54Z</time>
      </trkpt>
      <trkpt lat="41.993291" lon="2.534204">
        <ele>665.888</ele>
        <time>2021-05-27T08:02:56Z</time>
      </trkpt>
      <trkpt lat="41.993310" lon="2.534232">
        <ele>665.788</ele>
        <time>2021-05-27T08:02:58Z</time>
      </trkpt>
      <trkpt lat="41.993330" lon="2.534256">
        <ele>665.615</ele>
        <time>2021-05-27T08:03:00Z</time>
      </trkpt>
      <trkpt lat="41.993349" lon="2.534284">
        <ele>665.610</ele>
        <time>2021-05-27T08:03:02Z</time>
      </trkpt>
      <trkpt lat="41.993362" lon="2.534315">
        <ele>665.263</ele>
        <time>2021-05-27T08:03:04Z</time>
      </trkpt>
      <trkpt lat="41.993375" lon="2.534343">
        <ele>664.879</ele>
        <time>2021-05-27T08:03:06Z</time>
      </trkpt>
      <trkpt lat="41.993384" lon="2.534370">
        <ele>664.359</ele>
        <time>2021-05-27T08:03:08Z</time>
      </trkpt>
      <trkpt lat="41.993394" lon="2.534403">
        <ele>663.603</ele>
        <time>2021-05-27T08:03:10Z</time>
      </trkpt>
      <trkpt lat="41.993405" lon="2.534435">
        <ele>663.023</ele>
        <time>2021-05-27T08:03:12Z</time>
      </trkpt>
      <trkpt lat="41.993417" lon="2.534461">
        <ele>662.808</ele>
        <time>2021-05-27T08:03:14Z</time>
      </trkpt>
      <trkpt lat="41.993427" lon="2.534493">
        <ele>662.492</ele>
        <time>2021-05-27T08:03:16Z</time>
      </trkpt>
      <trkpt lat="41.993437" lon="2.534528">
        <ele>661.999</ele>
        <time>2021-05-27T08:03:18Z</time>
      </trkpt>
      <trkpt lat="41.993449" lon="2.534561">
        <ele>661.547</ele>
        <time>2021-05-27T08:03:20Z</time>
      </trkpt>
      <trkpt lat="41.993462" lon="2.534593">
        <ele>661.237</ele>
        <time>2021-05-27T08:03:22Z</time>
      </trkpt>
      <trkpt lat="41.993474" lon="2.534622">
        <ele>661.064</ele>
        <time>2021-05-27T08:03:24Z</time>
      </trkpt>
      <trkpt lat="41.993486" lon="2.534649">
        <ele>660.729</ele>
        <time>2021-05-27T08:03:26Z</time>
      </trkpt>
      <trkpt lat="41.993500" lon="2.534679">
        <ele>660.552</ele>
        <time>2021-05-27T08:03:28Z</time>
      </trkpt>
      <trkpt lat="41.993512" lon="2.534711">
        <ele>660.148</ele>
        <time>2021-05-27T08:03:30Z</time>
      </trkpt>
      <trkpt lat="41.993527" lon="2.534740">
        <ele>660.267</ele>
        <time>2021-05-27T08:03:32Z</time>
      </trkpt>
      <trkpt lat="41.993540" lon="2.534770">
        <ele>660.581</ele>
        <time>2021-05-27T08:03:34Z</time>
      </trkpt>
      <trkpt lat="41.993551" lon="2.534802">
        <ele>660.719</ele>
        <time>2021-05-27T08:03:36Z</time>
      </trkpt>
      <trkpt lat="41.993566" lon="2.534830">
        <ele>661.108</ele>
        <time>2021-05-27T08:03:38Z</time>
      </trkpt>
      <trkpt lat="41.993581" lon="2.534859">
        <ele>661.673</ele>
        <time>2021-05-27T08:03:40Z</time>
      </trkpt>
      <trkpt lat="41.993597" lon="2.534887">
        <ele>662.160</ele>
        <time>2021-05-27T08:03:42Z</time>
      </trkpt>
      <trkpt lat="41.993612" lon="2.534918">
        <ele>662.688</ele>
        <time>2021-05-27T08:03:44Z</time>
      </trkpt>
      <trkpt lat="41.993628" lon="2.534946">
        <ele>663.358</ele>
        <time>2021-05-27T08:03:46Z</time>
      </trkpt>
      <trkpt lat="41.993643" lon="2.534976">
        <ele>663.845</ele>
        <time>2021-05-27T08:03:48Z</time>
      </trkpt>
      <trkpt lat="41.993660" lon="2.535007">
        <ele>664.480</ele>
        <time>2021-05-27T08:03:51Z</time>
      </trkpt>
      <trkpt lat="41.993676" lon="2.535037">
        <ele>665.023</ele>
        <time>2021-05-27T08:03:52Z</time>
      </trkpt>
      <trkpt lat="41.993692" lon="2.535068">
        <ele>665.619</ele>
        <time>2021-05-27T08:03:54Z</time>
      </trkpt>
      <trkpt lat="41.993707" lon="2.535101">
        <ele>666.185</ele>
        <time>2021-05-27T08:03:56Z</time>
      </trkpt>
      <trkpt lat="41.993720" lon="2.535134">
        <ele>666.589</ele>
        <time>2021-05-27T08:03:58Z</time>
      </trkpt>
      <trkpt lat="41.993733" lon="2.535166">
        <ele>666.917</ele>
        <time>2021-05-27T08:04:00Z</time>
      </trkpt>
      <trkpt lat="41.993742" lon="2.535198">
        <ele>667.208</ele>
        <time>2021-05-27T08:04:02Z</time>
      </trkpt>
      <trkpt lat="41.993751" lon="2.535230">
        <ele>667.465</ele>
        <time>2021-05-27T08:04:04Z</time>
      </trkpt>
      <trkpt lat="41.993752" lon="2.535256">
        <ele>667.352</ele>
        <time>2021-05-27T08:04:06Z</time>
      </trkpt>
      <trkpt lat="41.993749" lon="2.535281">
        <ele>667.030</ele>
        <time>2021-05-27T08:04:08Z</time>
      </trkpt>
      <trkpt lat="41.993746" lon="2.535312">
        <ele>667.090</ele>
        <time>2021-05-27T08:04:10Z</time>
      </trkpt>
      <trkpt lat="41.993736" lon="2.535346">
        <ele>666.747</ele>
        <time>2021-05-27T08:04:12Z</time>
      </trkpt>
      <trkpt lat="41.993728" lon="2.535381">
        <ele>666.542</ele>
        <time>2021-05-27T08:04:14Z</time>
      </trkpt>
      <trkpt lat="41.993717" lon="2.535420">
        <ele>666.265</ele>
        <time>2021-05-27T08:04:16Z</time>
      </trkpt>
      <trkpt lat="41.993701" lon="2.535447">
        <ele>665.621</ele>
        <time>2021-05-27T08:04:18Z</time>
      </trkpt>
      <trkpt lat="41.993682" lon="2.535476">
        <ele>664.842</ele>
        <time>2021-05-27T08:04:20Z</time>
      </trkpt>
      <trkpt lat="41.993664" lon="2.535502">
        <ele>664.122</ele>
        <time>2021-05-27T08:04:22Z</time>
      </trkpt>
      <trkpt lat="41.993655" lon="2.535523">
        <ele>663.814</ele>
        <time>2021-05-27T08:04:24Z</time>
      </trkpt>
      <trkpt lat="41.993633" lon="2.535546">
        <ele>663.008</ele>
        <time>2021-05-27T08:04:26Z</time>
      </trkpt>
      <trkpt lat="41.993612" lon="2.535567">
        <ele>662.261</ele>
        <time>2021-05-27T08:04:28Z</time>
      </trkpt>
      <trkpt lat="41.993593" lon="2.535585">
        <ele>661.628</ele>
        <time>2021-05-27T08:04:30Z</time>
      </trkpt>
      <trkpt lat="41.993576" lon="2.535602">
        <ele>661.046</ele>
        <time>2021-05-27T08:04:32Z</time>
      </trkpt>
      <trkpt lat="41.993563" lon="2.535627">
        <ele>660.896</ele>
        <time>2021-05-27T08:04:34Z</time>
      </trkpt>
      <trkpt lat="41.993543" lon="2.535648">
        <ele>660.153</ele>
        <time>2021-05-27T08:04:36Z</time>
      </trkpt>
      <trkpt lat="41.993521" lon="2.535663">
        <ele>659.338</ele>
        <time>2021-05-27T08:04:38Z</time>
      </trkpt>
      <trkpt lat="41.993501" lon="2.535678">
        <ele>658.641</ele>
        <time>2021-05-27T08:04:40Z</time>
      </trkpt>
      <trkpt lat="41.993482" lon="2.535700">
        <ele>658.037</ele>
        <time>2021-05-27T08:04:42Z</time>
      </trkpt>
      <trkpt lat="41.993464" lon="2.535724">
        <ele>657.561</ele>
        <time>2021-05-27T08:04:44Z</time>
      </trkpt>
      <trkpt lat="41.993451" lon="2.535755">
        <ele>657.421</ele>
        <time>2021-05-27T08:04:46Z</time>
      </trkpt>
      <trkpt lat="41.993443" lon="2.535783">
        <ele>657.413</ele>
        <time>2021-05-27T08:04:48Z</time>
      </trkpt>
      <trkpt lat="41.993437" lon="2.535818">
        <ele>657.608</ele>
        <time>2021-05-27T08:04:50Z</time>
      </trkpt>
      <trkpt lat="41.993457" lon="2.535842">
        <ele>658.883</ele>
        <time>2021-05-27T08:04:52Z</time>
      </trkpt>
      <trkpt lat="41.993486" lon="2.535844">
        <ele>660.280</ele>
        <time>2021-05-27T08:04:54Z</time>
      </trkpt>
      <trkpt lat="41.993509" lon="2.535841">
        <ele>661.338</ele>
        <time>2021-05-27T08:04:56Z</time>
      </trkpt>
      <trkpt lat="41.993533" lon="2.535837">
        <ele>662.498</ele>
        <time>2021-05-27T08:04:58Z</time>
      </trkpt>
      <trkpt lat="41.993555" lon="2.535820">
        <ele>663.295</ele>
        <time>2021-05-27T08:05:00Z</time>
      </trkpt>
      <trkpt lat="41.993571" lon="2.535806">
        <ele>663.780</ele>
        <time>2021-05-27T08:05:02Z</time>
      </trkpt>
      <trkpt lat="41.993592" lon="2.535792">
        <ele>664.563</ele>
        <time>2021-05-27T08:05:04Z</time>
      </trkpt>
      <trkpt lat="41.993614" lon="2.535780">
        <ele>665.449</ele>
        <time>2021-05-27T08:05:06Z</time>
      </trkpt>
      <trkpt lat="41.993633" lon="2.535765">
        <ele>666.219</ele>
        <time>2021-05-27T08:05:08Z</time>
      </trkpt>
      <trkpt lat="41.993649" lon="2.535754">
        <ele>666.909</ele>
        <time>2021-05-27T08:05:10Z</time>
      </trkpt>
      <trkpt lat="41.993672" lon="2.535750">
        <ele>668.119</ele>
        <time>2021-05-27T08:05:12Z</time>
      </trkpt>
      <trkpt lat="41.993696" lon="2.535743">
        <ele>669.308</ele>
        <time>2021-05-27T08:05:14Z</time>
      </trkpt>
      <trkpt lat="41.993719" lon="2.535738">
        <ele>670.448</ele>
        <time>2021-05-27T08:05:16Z</time>
      </trkpt>
      <trkpt lat="41.993742" lon="2.535727">
        <ele>671.585</ele>
        <time>2021-05-27T08:05:18Z</time>
      </trkpt>
      <trkpt lat="41.993765" lon="2.535717">
        <ele>672.593</ele>
        <time>2021-05-27T08:05:20Z</time>
      </trkpt>
      <trkpt lat="41.993787" lon="2.535711">
        <ele>673.523</ele>
        <time>2021-05-27T08:05:22Z</time>
      </trkpt>
      <trkpt lat="41.993809" lon="2.535699">
        <ele>674.420</ele>
        <time>2021-05-27T08:05:24Z</time>
      </trkpt>
      <trkpt lat="41.993831" lon="2.535678">
        <ele>675.175</ele>
        <time>2021-05-27T08:05:26Z</time>
      </trkpt>
      <trkpt lat="41.993855" lon="2.535652">
        <ele>675.798</ele>
        <time>2021-05-27T08:05:28Z</time>
      </trkpt>
      <trkpt lat="41.993874" lon="2.535629">
        <ele>676.164</ele>
        <time>2021-05-27T08:05:30Z</time>
      </trkpt>
      <trkpt lat="41.993889" lon="2.535606">
        <ele>676.332</ele>
        <time>2021-05-27T08:05:32Z</time>
      </trkpt>
      <trkpt lat="41.993903" lon="2.535580">
        <ele>676.392</ele>
        <time>2021-05-27T08:05:35Z</time>
      </trkpt>
      <trkpt lat="41.993911" lon="2.535555">
        <ele>676.111</ele>
        <time>2021-05-27T08:05:37Z</time>
      </trkpt>
      <trkpt lat="41.993921" lon="2.535527">
        <ele>676.508</ele>
        <time>2021-05-27T08:05:39Z</time>
      </trkpt>
      <trkpt lat="41.993930" lon="2.535488">
        <ele>676.810</ele>
        <time>2021-05-27T08:05:41Z</time>
      </trkpt>
      <trkpt lat="41.993943" lon="2.535447">
        <ele>677.397</ele>
        <time>2021-05-27T08:05:43Z</time>
      </trkpt>
      <trkpt lat="41.993954" lon="2.535408">
        <ele>677.825</ele>
        <time>2021-05-27T08:05:45Z</time>
      </trkpt>
      <trkpt lat="41.993966" lon="2.535374">
        <ele>678.295</ele>
        <time>2021-05-27T08:05:47Z</time>
      </trkpt>
      <trkpt lat="41.993976" lon="2.535340">
        <ele>678.612</ele>
        <time>2021-05-27T08:05:49Z</time>
      </trkpt>
      <trkpt lat="41.994011" lon="2.535210">
        <ele>681.077</ele>
        <time>2021-05-27T08:05:56Z</time>
      </trkpt>
      <trkpt lat="41.994010" lon="2.535088">
        <ele>682.410</ele>
        <time>2021-05-27T08:06:03Z</time>
      </trkpt>
      <trkpt lat="41.993951" lon="2.534979">
        <ele>680.296</ele>
        <time>2021-05-27T08:06:10Z</time>
      </trkpt>
      <trkpt lat="41.993937" lon="2.534955">
        <ele>679.865</ele>
        <time>2021-05-27T08:06:12Z</time>
      </trkpt>
      <trkpt lat="41.993925" lon="2.534926">
        <ele>679.668</ele>
        <time>2021-05-27T08:06:14Z</time>
      </trkpt>
      <trkpt lat="41.993911" lon="2.534902">
        <ele>679.114</ele>
        <time>2021-05-27T08:06:16Z</time>
      </trkpt>
      <trkpt lat="41.993904" lon="2.534875">
        <ele>679.208</ele>
        <time>2021-05-27T08:06:18Z</time>
      </trkpt>
      <trkpt lat="41.993895" lon="2.534842">
        <ele>679.263</ele>
        <time>2021-05-27T08:06:20Z</time>
      </trkpt>
      <trkpt lat="41.993885" lon="2.534808">
        <ele>679.230</ele>
        <time>2021-05-27T08:06:22Z</time>
      </trkpt>
      <trkpt lat="41.993879" lon="2.534771">
        <ele>679.548</ele>
        <time>2021-05-27T08:06:24Z</time>
      </trkpt>
      <trkpt lat="41.993872" lon="2.534740">
        <ele>679.758</ele>
        <time>2021-05-27T08:06:26Z</time>
      </trkpt>
      <trkpt lat="41.993863" lon="2.534710">
        <ele>679.795</ele>
        <time>2021-05-27T08:06:28Z</time>
      </trkpt>
      <trkpt lat="41.993851" lon="2.534676">
        <ele>679.790</ele>
        <time>2021-05-27T08:06:30Z</time>
      </trkpt>
      <trkpt lat="41.993841" lon="2.534648">
        <ele>679.853</ele>
        <time>2021-05-27T08:06:32Z</time>
      </trkpt>
      <trkpt lat="41.993836" lon="2.534620">
        <ele>680.269</ele>
        <time>2021-05-27T08:06:34Z</time>
      </trkpt>
      <trkpt lat="41.993831" lon="2.534586">
        <ele>680.716</ele>
        <time>2021-05-27T08:06:36Z</time>
      </trkpt>
      <trkpt lat="41.993825" lon="2.534555">
        <ele>681.176</ele>
        <time>2021-05-27T08:06:38Z</time>
      </trkpt>
      <trkpt lat="41.993821" lon="2.534521">
        <ele>681.713</ele>
        <time>2021-05-27T08:06:40Z</time>
      </trkpt>
      <trkpt lat="41.993815" lon="2.534495">
        <ele>682.008</ele>
        <time>2021-05-27T08:06:42Z</time>
      </trkpt>
      <trkpt lat="41.993811" lon="2.534463">
        <ele>682.618</ele>
        <time>2021-05-27T08:06:44Z</time>
      </trkpt>
      <trkpt lat="41.993805" lon="2.534431">
        <ele>683.295</ele>
        <time>2021-05-27T08:06:46Z</time>
      </trkpt>
      <trkpt lat="41.993802" lon="2.534407">
        <ele>683.953</ele>
        <time>2021-05-27T08:06:48Z</time>
      </trkpt>
      <trkpt lat="41.993800" lon="2.534379">
        <ele>684.893</ele>
        <time>2021-05-27T08:06:50Z</time>
      </trkpt>
      <trkpt lat="41.993794" lon="2.534347">
        <ele>685.680</ele>
        <time>2021-05-27T08:06:52Z</time>
      </trkpt>
      <trkpt lat="41.993792" lon="2.534321">
        <ele>686.435</ele>
        <time>2021-05-27T08:06:54Z</time>
      </trkpt>
      <trkpt lat="41.993789" lon="2.534291">
        <ele>687.378</ele>
        <time>2021-05-27T08:06:57Z</time>
      </trkpt>
      <trkpt lat="41.993781" lon="2.534261">
        <ele>688.014</ele>
        <time>2021-05-27T08:06:58Z</time>
      </trkpt>
      <trkpt lat="41.993777" lon="2.534232">
        <ele>688.933</ele>
        <time>2021-05-27T08:07:00Z</time>
      </trkpt>
      <trkpt lat="41.993776" lon="2.534199">
        <ele>690.023</ele>
        <time>2021-05-27T08:07:02Z</time>
      </trkpt>
      <trkpt lat="41.993774" lon="2.534166">
        <ele>691.115</ele>
        <time>2021-05-27T08:07:04Z</time>
      </trkpt>
      <trkpt lat="41.993771" lon="2.534135">
        <ele>691.808</ele>
        <time>2021-05-27T08:07:06Z</time>
      </trkpt>
      <trkpt lat="41.993767" lon="2.534109">
        <ele>692.470</ele>
        <time>2021-05-27T08:07:08Z</time>
      </trkpt>
      <trkpt lat="41.993765" lon="2.534079">
        <ele>693.297</ele>
        <time>2021-05-27T08:07:10Z</time>
      </trkpt>
      <trkpt lat="41.993763" lon="2.534051">
        <ele>693.955</ele>
        <time>2021-05-27T08:07:12Z</time>
      </trkpt>
      <trkpt lat="41.993762" lon="2.534023">
        <ele>694.795</ele>
        <time>2021-05-27T08:07:14Z</time>
      </trkpt>
      <trkpt lat="41.993759" lon="2.533995">
        <ele>695.372</ele>
        <time>2021-05-27T08:07:16Z</time>
      </trkpt>
      <trkpt lat="41.993749" lon="2.533958">
        <ele>696.017</ele>
        <time>2021-05-27T08:07:19Z</time>
      </trkpt>
      <trkpt lat="41.993745" lon="2.533928">
        <ele>696.770</ele>
        <time>2021-05-27T08:07:21Z</time>
      </trkpt>
      <trkpt lat="41.993745" lon="2.533895">
        <ele>697.636</ele>
        <time>2021-05-27T08:07:23Z</time>
      </trkpt>
      <trkpt lat="41.993748" lon="2.533863">
        <ele>698.422</ele>
        <time>2021-05-27T08:07:25Z</time>
      </trkpt>
      <trkpt lat="41.993748" lon="2.533834">
        <ele>698.962</ele>
        <time>2021-05-27T08:07:27Z</time>
      </trkpt>
      <trkpt lat="41.993741" lon="2.533806">
        <ele>699.108</ele>
        <time>2021-05-27T08:07:29Z</time>
      </trkpt>
      <trkpt lat="41.993736" lon="2.533776">
        <ele>699.408</ele>
        <time>2021-05-27T08:07:31Z</time>
      </trkpt>
      <trkpt lat="41.993729" lon="2.533747">
        <ele>699.629</ele>
        <time>2021-05-27T08:07:33Z</time>
      </trkpt>
      <trkpt lat="41.993720" lon="2.533719">
        <ele>699.846</ele>
        <time>2021-05-27T08:07:35Z</time>
      </trkpt>
      <trkpt lat="41.993703" lon="2.533694">
        <ele>699.534</ele>
        <time>2021-05-27T08:07:37Z</time>
      </trkpt>
      <trkpt lat="41.993686" lon="2.533665">
        <ele>699.334</ele>
        <time>2021-05-27T08:07:39Z</time>
      </trkpt>
      <trkpt lat="41.993672" lon="2.533635">
        <ele>699.291</ele>
        <time>2021-05-27T08:07:41Z</time>
      </trkpt>
      <trkpt lat="41.993660" lon="2.533608">
        <ele>699.156</ele>
        <time>2021-05-27T08:07:43Z</time>
      </trkpt>
      <trkpt lat="41.993643" lon="2.533580">
        <ele>698.559</ele>
        <time>2021-05-27T08:07:45Z</time>
      </trkpt>
      <trkpt lat="41.993629" lon="2.533554">
        <ele>698.095</ele>
        <time>2021-05-27T08:07:47Z</time>
      </trkpt>
      <trkpt lat="41.993612" lon="2.533525">
        <ele>697.489</ele>
        <time>2021-05-27T08:07:49Z</time>
      </trkpt>
      <trkpt lat="41.993599" lon="2.533493">
        <ele>697.006</ele>
        <time>2021-05-27T08:07:51Z</time>
      </trkpt>
      <trkpt lat="41.993587" lon="2.533458">
        <ele>696.726</ele>
        <time>2021-05-27T08:07:53Z</time>
      </trkpt>
      <trkpt lat="41.993575" lon="2.533423">
        <ele>696.408</ele>
        <time>2021-05-27T08:07:55Z</time>
      </trkpt>
      <trkpt lat="41.993566" lon="2.533389">
        <ele>696.395</ele>
        <time>2021-05-27T08:07:57Z</time>
      </trkpt>
      <trkpt lat="41.993560" lon="2.533352">
        <ele>696.352</ele>
        <time>2021-05-27T08:07:59Z</time>
      </trkpt>
      <trkpt lat="41.993554" lon="2.533311">
        <ele>696.460</ele>
        <time>2021-05-27T08:08:01Z</time>
      </trkpt>
      <trkpt lat="41.993549" lon="2.533272">
        <ele>696.690</ele>
        <time>2021-05-27T08:08:03Z</time>
      </trkpt>
      <trkpt lat="41.993545" lon="2.533240">
        <ele>696.767</ele>
        <time>2021-05-27T08:08:05Z</time>
      </trkpt>
      <trkpt lat="41.993547" lon="2.533210">
        <ele>697.092</ele>
        <time>2021-05-27T08:08:07Z</time>
      </trkpt>
      <trkpt lat="41.993549" lon="2.533178">
        <ele>697.435</ele>
        <time>2021-05-27T08:08:09Z</time>
      </trkpt>
      <trkpt lat="41.993551" lon="2.533144">
        <ele>697.831</ele>
        <time>2021-05-27T08:08:11Z</time>
      </trkpt>
      <trkpt lat="41.993553" lon="2.533107">
        <ele>698.263</ele>
        <time>2021-05-27T08:08:13Z</time>
      </trkpt>
      <trkpt lat="41.993558" lon="2.533075">
        <ele>698.744</ele>
        <time>2021-05-27T08:08:15Z</time>
      </trkpt>
      <trkpt lat="41.993560" lon="2.533042">
        <ele>699.118</ele>
        <time>2021-05-27T08:08:17Z</time>
      </trkpt>
      <trkpt lat="41.993567" lon="2.533011">
        <ele>699.708</ele>
        <time>2021-05-27T08:08:19Z</time>
      </trkpt>
      <trkpt lat="41.993573" lon="2.532977">
        <ele>700.343</ele>
        <time>2021-05-27T08:08:21Z</time>
      </trkpt>
      <trkpt lat="41.993578" lon="2.532947">
        <ele>700.930</ele>
        <time>2021-05-27T08:08:23Z</time>
      </trkpt>
      <trkpt lat="41.993582" lon="2.532916">
        <ele>701.488</ele>
        <time>2021-05-27T08:08:25Z</time>
      </trkpt>
      <trkpt lat="41.993587" lon="2.532882">
        <ele>701.938</ele>
        <time>2021-05-27T08:08:27Z</time>
      </trkpt>
      <trkpt lat="41.993589" lon="2.532848">
        <ele>702.435</ele>
        <time>2021-05-27T08:08:29Z</time>
      </trkpt>
      <trkpt lat="41.993593" lon="2.532814">
        <ele>702.940</ele>
        <time>2021-05-27T08:08:31Z</time>
      </trkpt>
      <trkpt lat="41.993597" lon="2.532778">
        <ele>703.443</ele>
        <time>2021-05-27T08:08:33Z</time>
      </trkpt>
      <trkpt lat="41.993599" lon="2.532744">
        <ele>704.099</ele>
        <time>2021-05-27T08:08:35Z</time>
      </trkpt>
      <trkpt lat="41.993599" lon="2.532713">
        <ele>704.485</ele>
        <time>2021-05-27T08:08:37Z</time>
      </trkpt>
      <trkpt lat="41.993601" lon="2.532680">
        <ele>705.089</ele>
        <time>2021-05-27T08:08:39Z</time>
      </trkpt>
      <trkpt lat="41.993604" lon="2.532649">
        <ele>705.517</ele>
        <time>2021-05-27T08:08:41Z</time>
      </trkpt>
      <trkpt lat="41.993608" lon="2.532619">
        <ele>706.108</ele>
        <time>2021-05-27T08:08:43Z</time>
      </trkpt>
      <trkpt lat="41.993612" lon="2.532588">
        <ele>706.845</ele>
        <time>2021-05-27T08:08:45Z</time>
      </trkpt>
      <trkpt lat="41.993612" lon="2.532557">
        <ele>707.282</ele>
        <time>2021-05-27T08:08:48Z</time>
      </trkpt>
      <trkpt lat="41.993610" lon="2.532522">
        <ele>707.610</ele>
        <time>2021-05-27T08:08:49Z</time>
      </trkpt>
      <trkpt lat="41.993610" lon="2.532488">
        <ele>708.060</ele>
        <time>2021-05-27T08:08:51Z</time>
      </trkpt>
      <trkpt lat="41.993609" lon="2.532456">
        <ele>708.227</ele>
        <time>2021-05-27T08:08:53Z</time>
      </trkpt>
      <trkpt lat="41.993612" lon="2.532419">
        <ele>708.652</ele>
        <time>2021-05-27T08:08:55Z</time>
      </trkpt>
      <trkpt lat="41.993613" lon="2.532382">
        <ele>708.935</ele>
        <time>2021-05-27T08:08:57Z</time>
      </trkpt>
      <trkpt lat="41.993612" lon="2.532348">
        <ele>709.191</ele>
        <time>2021-05-27T08:08:59Z</time>
      </trkpt>
      <trkpt lat="41.993610" lon="2.532316">
        <ele>709.385</ele>
        <time>2021-05-27T08:09:01Z</time>
      </trkpt>
      <trkpt lat="41.993608" lon="2.532277">
        <ele>709.489</ele>
        <time>2021-05-27T08:09:03Z</time>
      </trkpt>
      <trkpt lat="41.993610" lon="2.532241">
        <ele>709.817</ele>
        <time>2021-05-27T08:09:05Z</time>
      </trkpt>
      <trkpt lat="41.993608" lon="2.532205">
        <ele>709.808</ele>
        <time>2021-05-27T08:09:07Z</time>
      </trkpt>
      <trkpt lat="41.993607" lon="2.532170">
        <ele>709.855</ele>
        <time>2021-05-27T08:09:09Z</time>
      </trkpt>
      <trkpt lat="41.993609" lon="2.532138">
        <ele>709.942</ele>
        <time>2021-05-27T08:09:11Z</time>
      </trkpt>
      <trkpt lat="41.993610" lon="2.532106">
        <ele>709.920</ele>
        <time>2021-05-27T08:09:13Z</time>
      </trkpt>
      <trkpt lat="41.993612" lon="2.532070">
        <ele>710.060</ele>
        <time>2021-05-27T08:09:15Z</time>
      </trkpt>
      <trkpt lat="41.993609" lon="2.532031">
        <ele>709.997</ele>
        <time>2021-05-27T08:09:17Z</time>
      </trkpt>
      <trkpt lat="41.993605" lon="2.531996">
        <ele>709.772</ele>
        <time>2021-05-27T08:09:19Z</time>
      </trkpt>
      <trkpt lat="41.993604" lon="2.531962">
        <ele>709.665</ele>
        <time>2021-05-27T08:09:21Z</time>
      </trkpt>
      <trkpt lat="41.993605" lon="2.531930">
        <ele>709.761</ele>
        <time>2021-05-27T08:09:23Z</time>
      </trkpt>
      <trkpt lat="41.993608" lon="2.531896">
        <ele>709.893</ele>
        <time>2021-05-27T08:09:25Z</time>
      </trkpt>
      <trkpt lat="41.993607" lon="2.531860">
        <ele>709.865</ele>
        <time>2021-05-27T08:09:27Z</time>
      </trkpt>
      <trkpt lat="41.993607" lon="2.531827">
        <ele>709.821</ele>
        <time>2021-05-27T08:09:29Z</time>
      </trkpt>
      <trkpt lat="41.993602" lon="2.531798">
        <ele>709.608</ele>
        <time>2021-05-27T08:09:31Z</time>
      </trkpt>
      <trkpt lat="41.993606" lon="2.531759">
        <ele>709.816</ele>
        <time>2021-05-27T08:09:33Z</time>
      </trkpt>
      <trkpt lat="41.993620" lon="2.531733">
        <ele>710.423</ele>
        <time>2021-05-27T08:09:35Z</time>
      </trkpt>
      <trkpt lat="41.993638" lon="2.531721">
        <ele>711.111</ele>
        <time>2021-05-27T08:09:37Z</time>
      </trkpt>
      <trkpt lat="41.993661" lon="2.531719">
        <ele>712.171</ele>
        <time>2021-05-27T08:09:40Z</time>
      </trkpt>
      <trkpt lat="41.993681" lon="2.531732">
        <ele>712.958</ele>
        <time>2021-05-27T08:09:43Z</time>
      </trkpt>
      <trkpt lat="41.993690" lon="2.531755">
        <ele>713.463</ele>
        <time>2021-05-27T08:09:45Z</time>
      </trkpt>
      <trkpt lat="41.993694" lon="2.531783">
        <ele>713.776</ele>
        <time>2021-05-27T08:09:48Z</time>
      </trkpt>
      <trkpt lat="41.993700" lon="2.531815">
        <ele>714.032</ele>
        <time>2021-05-27T08:09:49Z</time>
      </trkpt>
      <trkpt lat="41.993710" lon="2.531841">
        <ele>714.611</ele>
        <time>2021-05-27T08:09:51Z</time>
      </trkpt>
      <trkpt lat="41.993714" lon="2.531870">
        <ele>714.921</ele>
        <time>2021-05-27T08:09:53Z</time>
      </trkpt>
      <trkpt lat="41.993712" lon="2.531901">
        <ele>714.903</ele>
        <time>2021-05-27T08:09:55Z</time>
      </trkpt>
      <trkpt lat="41.993718" lon="2.531930">
        <ele>715.308</ele>
        <time>2021-05-27T08:09:57Z</time>
      </trkpt>
      <trkpt lat="41.993723" lon="2.531958">
        <ele>715.618</ele>
        <time>2021-05-27T08:09:59Z</time>
      </trkpt>
      <trkpt lat="41.993723" lon="2.531986">
        <ele>715.665</ele>
        <time>2021-05-27T08:10:01Z</time>
      </trkpt>
      <trkpt lat="41.993732" lon="2.532019">
        <ele>716.123</ele>
        <time>2021-05-27T08:10:04Z</time>
      </trkpt>
      <trkpt lat="41.993739" lon="2.532047">
        <ele>716.413</ele>
        <time>2021-05-27T08:10:06Z</time>
      </trkpt>
      <trkpt lat="41.993747" lon="2.532073">
        <ele>716.840</ele>
        <time>2021-05-27T08:10:08Z</time>
      </trkpt>
      <trkpt lat="41.993750" lon="2.532099">
        <ele>717.075</ele>
        <time>2021-05-27T08:10:10Z</time>
      </trkpt>
      <trkpt lat="41.993755" lon="2.532131">
        <ele>717.368</ele>
        <time>2021-05-27T08:10:12Z</time>
      </trkpt>
      <trkpt lat="41.993754" lon="2.532166">
        <ele>717.254</ele>
        <time>2021-05-27T08:10:14Z</time>
      </trkpt>
      <trkpt lat="41.993759" lon="2.532199">
        <ele>717.587</ele>
        <time>2021-05-27T08:10:16Z</time>
      </trkpt>
      <trkpt lat="41.993757" lon="2.532230">
        <ele>717.342</ele>
        <time>2021-05-27T08:10:18Z</time>
      </trkpt>
      <trkpt lat="41.993754" lon="2.532260">
        <ele>717.026</ele>
        <time>2021-05-27T08:10:20Z</time>
      </trkpt>
      <trkpt lat="41.993752" lon="2.532287">
        <ele>716.808</ele>
        <time>2021-05-27T08:10:22Z</time>
      </trkpt>
      <trkpt lat="41.993754" lon="2.532316">
        <ele>716.745</ele>
        <time>2021-05-27T08:10:24Z</time>
      </trkpt>
      <trkpt lat="41.993756" lon="2.532343">
        <ele>716.792</ele>
        <time>2021-05-27T08:10:26Z</time>
      </trkpt>
      <trkpt lat="41.993762" lon="2.532371">
        <ele>716.830</ele>
        <time>2021-05-27T08:10:28Z</time>
      </trkpt>
      <trkpt lat="41.993768" lon="2.532402">
        <ele>717.010</ele>
        <time>2021-05-27T08:10:30Z</time>
      </trkpt>
      <trkpt lat="41.993772" lon="2.532428">
        <ele>717.167</ele>
        <time>2021-05-27T08:10:32Z</time>
      </trkpt>
      <trkpt lat="41.993776" lon="2.532459">
        <ele>717.142</ele>
        <time>2021-05-27T08:10:34Z</time>
      </trkpt>
      <trkpt lat="41.993776" lon="2.532487">
        <ele>717.065</ele>
        <time>2021-05-27T08:10:36Z</time>
      </trkpt>
      <trkpt lat="41.993781" lon="2.532514">
        <ele>717.081</ele>
        <time>2021-05-27T08:10:38Z</time>
      </trkpt>
      <trkpt lat="41.993788" lon="2.532546">
        <ele>717.192</ele>
        <time>2021-05-27T08:10:40Z</time>
      </trkpt>
      <trkpt lat="41.993795" lon="2.532575">
        <ele>717.273</ele>
        <time>2021-05-27T08:10:42Z</time>
      </trkpt>
      <trkpt lat="41.993800" lon="2.532605">
        <ele>717.220</ele>
        <time>2021-05-27T08:10:44Z</time>
      </trkpt>
      <trkpt lat="41.993807" lon="2.532638">
        <ele>717.308</ele>
        <time>2021-05-27T08:10:46Z</time>
      </trkpt>
      <trkpt lat="41.993817" lon="2.532663">
        <ele>717.636</ele>
        <time>2021-05-27T08:10:49Z</time>
      </trkpt>
      <trkpt lat="41.993827" lon="2.532687">
        <ele>718.023</ele>
        <time>2021-05-27T08:10:50Z</time>
      </trkpt>
      <trkpt lat="41.993839" lon="2.532712">
        <ele>718.541</ele>
        <time>2021-05-27T08:10:52Z</time>
      </trkpt>
      <trkpt lat="41.993848" lon="2.532741">
        <ele>718.831</ele>
        <time>2021-05-27T08:10:54Z</time>
      </trkpt>
      <trkpt lat="41.993860" lon="2.532768">
        <ele>719.358</ele>
        <time>2021-05-27T08:10:56Z</time>
      </trkpt>
      <trkpt lat="41.993882" lon="2.532791">
        <ele>720.463</ele>
        <time>2021-05-27T08:10:58Z</time>
      </trkpt>
      <trkpt lat="41.993899" lon="2.532813">
        <ele>721.176</ele>
        <time>2021-05-27T08:11:00Z</time>
      </trkpt>
      <trkpt lat="41.993912" lon="2.532835">
        <ele>721.682</ele>
        <time>2021-05-27T08:11:05Z</time>
      </trkpt>
      <trkpt lat="41.993922" lon="2.532865">
        <ele>721.843</ele>
        <time>2021-05-27T08:11:06Z</time>
      </trkpt>
      <trkpt lat="41.993933" lon="2.532890">
        <ele>722.164</ele>
        <time>2021-05-27T08:11:08Z</time>
      </trkpt>
      <trkpt lat="41.993945" lon="2.532917">
        <ele>722.510</ele>
        <time>2021-05-27T08:11:10Z</time>
      </trkpt>
      <trkpt lat="41.993962" lon="2.532941">
        <ele>723.308</ele>
        <time>2021-05-27T08:11:13Z</time>
      </trkpt>
      <trkpt lat="41.993977" lon="2.532960">
        <ele>724.081</ele>
        <time>2021-05-27T08:11:14Z</time>
      </trkpt>
      <trkpt lat="41.993990" lon="2.532983">
        <ele>724.528</ele>
        <time>2021-05-27T08:11:16Z</time>
      </trkpt>
      <trkpt lat="41.994002" lon="2.533014">
        <ele>724.966</ele>
        <time>2021-05-27T08:11:19Z</time>
      </trkpt>
      <trkpt lat="41.994013" lon="2.533043">
        <ele>725.256</ele>
        <time>2021-05-27T08:11:20Z</time>
      </trkpt>
      <trkpt lat="41.994023" lon="2.533075">
        <ele>725.453</ele>
        <time>2021-05-27T08:11:22Z</time>
      </trkpt>
      <trkpt lat="41.994032" lon="2.533107">
        <ele>725.568</ele>
        <time>2021-05-27T08:11:24Z</time>
      </trkpt>
      <trkpt lat="41.994037" lon="2.533138">
        <ele>725.491</ele>
        <time>2021-05-27T08:11:26Z</time>
      </trkpt>
      <trkpt lat="41.994048" lon="2.533161">
        <ele>725.787</ele>
        <time>2021-05-27T08:11:28Z</time>
      </trkpt>
      <trkpt lat="41.994058" lon="2.533187">
        <ele>726.099</ele>
        <time>2021-05-27T08:11:30Z</time>
      </trkpt>
      <trkpt lat="41.994069" lon="2.533215">
        <ele>726.207</ele>
        <time>2021-05-27T08:11:32Z</time>
      </trkpt>
      <trkpt lat="41.994077" lon="2.533245">
        <ele>726.227</ele>
        <time>2021-05-27T08:11:34Z</time>
      </trkpt>
      <trkpt lat="41.994083" lon="2.533269">
        <ele>726.208</ele>
        <time>2021-05-27T08:11:36Z</time>
      </trkpt>
      <trkpt lat="41.994093" lon="2.533301">
        <ele>726.396</ele>
        <time>2021-05-27T08:11:38Z</time>
      </trkpt>
      <trkpt lat="41.994097" lon="2.533329">
        <ele>726.123</ele>
        <time>2021-05-27T08:11:40Z</time>
      </trkpt>
      <trkpt lat="41.994100" lon="2.533356">
        <ele>725.881</ele>
        <time>2021-05-27T08:11:42Z</time>
      </trkpt>
      <trkpt lat="41.994108" lon="2.533387">
        <ele>725.841</ele>
        <time>2021-05-27T08:11:44Z</time>
      </trkpt>
      <trkpt lat="41.994114" lon="2.533415">
        <ele>725.748</ele>
        <time>2021-05-27T08:11:46Z</time>
      </trkpt>
      <trkpt lat="41.994122" lon="2.533445">
        <ele>725.843</ele>
        <time>2021-05-27T08:11:48Z</time>
      </trkpt>
      <trkpt lat="41.994128" lon="2.533474">
        <ele>725.766</ele>
        <time>2021-05-27T08:11:50Z</time>
      </trkpt>
      <trkpt lat="41.994129" lon="2.533503">
        <ele>725.372</ele>
        <time>2021-05-27T08:11:52Z</time>
      </trkpt>
      <trkpt lat="41.994129" lon="2.533534">
        <ele>724.847</ele>
        <time>2021-05-27T08:11:54Z</time>
      </trkpt>
      <trkpt lat="41.994135" lon="2.533567">
        <ele>724.729</ele>
        <time>2021-05-27T08:11:57Z</time>
      </trkpt>
      <trkpt lat="41.994146" lon="2.533596">
        <ele>725.021</ele>
        <time>2021-05-27T08:11:58Z</time>
      </trkpt>
      <trkpt lat="41.994158" lon="2.533619">
        <ele>725.308</ele>
        <time>2021-05-27T08:12:00Z</time>
      </trkpt>
      <trkpt lat="41.994170" lon="2.533649">
        <ele>725.571</ele>
        <time>2021-05-27T08:12:02Z</time>
      </trkpt>
      <trkpt lat="41.994183" lon="2.533678">
        <ele>725.738</ele>
        <time>2021-05-27T08:12:04Z</time>
      </trkpt>
      <trkpt lat="41.994196" lon="2.533705">
        <ele>725.956</ele>
        <time>2021-05-27T08:12:07Z</time>
      </trkpt>
      <trkpt lat="41.994206" lon="2.533733">
        <ele>726.016</ele>
        <time>2021-05-27T08:12:08Z</time>
      </trkpt>
      <trkpt lat="41.994221" lon="2.533759">
        <ele>726.453</ele>
        <time>2021-05-27T08:12:10Z</time>
      </trkpt>
      <trkpt lat="41.994238" lon="2.533786">
        <ele>726.918</ele>
        <time>2021-05-27T08:12:12Z</time>
      </trkpt>
      <trkpt lat="41.994253" lon="2.533815">
        <ele>727.271</ele>
        <time>2021-05-27T08:12:14Z</time>
      </trkpt>
      <trkpt lat="41.994266" lon="2.533844">
        <ele>727.567</ele>
        <time>2021-05-27T08:12:16Z</time>
      </trkpt>
      <trkpt lat="41.994280" lon="2.533873">
        <ele>727.886</ele>
        <time>2021-05-27T08:12:18Z</time>
      </trkpt>
      <trkpt lat="41.994295" lon="2.533902">
        <ele>728.160</ele>
        <time>2021-05-27T08:12:20Z</time>
      </trkpt>
      <trkpt lat="41.994310" lon="2.533931">
        <ele>728.226</ele>
        <time>2021-05-27T08:12:22Z</time>
      </trkpt>
      <trkpt lat="41.994327" lon="2.533958">
        <ele>728.508</ele>
        <time>2021-05-27T08:12:24Z</time>
      </trkpt>
      <trkpt lat="41.994344" lon="2.533983">
        <ele>728.975</ele>
        <time>2021-05-27T08:12:26Z</time>
      </trkpt>
      <trkpt lat="41.994361" lon="2.534008">
        <ele>729.472</ele>
        <time>2021-05-27T08:12:28Z</time>
      </trkpt>
      <trkpt lat="41.994381" lon="2.534031">
        <ele>730.060</ele>
        <time>2021-05-27T08:12:30Z</time>
      </trkpt>
      <trkpt lat="41.994400" lon="2.534057">
        <ele>730.610</ele>
        <time>2021-05-27T08:12:32Z</time>
      </trkpt>
      <trkpt lat="41.994418" lon="2.534080">
        <ele>731.257</ele>
        <time>2021-05-27T08:12:34Z</time>
      </trkpt>
      <trkpt lat="41.994436" lon="2.534104">
        <ele>731.862</ele>
        <time>2021-05-27T08:12:36Z</time>
      </trkpt>
      <trkpt lat="41.994455" lon="2.534128">
        <ele>732.455</ele>
        <time>2021-05-27T08:12:38Z</time>
      </trkpt>
      <trkpt lat="41.994475" lon="2.534151">
        <ele>733.051</ele>
        <time>2021-05-27T08:12:40Z</time>
      </trkpt>
      <trkpt lat="41.994496" lon="2.534173">
        <ele>733.611</ele>
        <time>2021-05-27T08:12:42Z</time>
      </trkpt>
      <trkpt lat="41.994515" lon="2.534196">
        <ele>734.021</ele>
        <time>2021-05-27T08:12:44Z</time>
      </trkpt>
      <trkpt lat="41.994533" lon="2.534215">
        <ele>734.503</ele>
        <time>2021-05-27T08:12:46Z</time>
      </trkpt>
      <trkpt lat="41.994552" lon="2.534232">
        <ele>735.108</ele>
        <time>2021-05-27T08:12:50Z</time>
      </trkpt>
      <trkpt lat="41.994574" lon="2.534253">
        <ele>735.768</ele>
        <time>2021-05-27T08:12:52Z</time>
      </trkpt>
      <trkpt lat="41.994590" lon="2.534281">
        <ele>735.845</ele>
        <time>2021-05-27T08:12:54Z</time>
      </trkpt>
      <trkpt lat="41.994608" lon="2.534310">
        <ele>735.943</ele>
        <time>2021-05-27T08:12:56Z</time>
      </trkpt>
      <trkpt lat="41.994627" lon="2.534335">
        <ele>736.283</ele>
        <time>2021-05-27T08:12:58Z</time>
      </trkpt>
      <trkpt lat="41.994645" lon="2.534355">
        <ele>736.670</ele>
        <time>2021-05-27T08:13:00Z</time>
      </trkpt>
      <trkpt lat="41.994668" lon="2.534371">
        <ele>737.345</ele>
        <time>2021-05-27T08:13:02Z</time>
      </trkpt>
      <trkpt lat="41.994686" lon="2.534389">
        <ele>737.758</ele>
        <time>2021-05-27T08:13:04Z</time>
      </trkpt>
      <trkpt lat="41.994704" lon="2.534415">
        <ele>737.944</ele>
        <time>2021-05-27T08:13:06Z</time>
      </trkpt>
      <trkpt lat="41.994723" lon="2.534438">
        <ele>738.246</ele>
        <time>2021-05-27T08:13:08Z</time>
      </trkpt>
      <trkpt lat="41.994738" lon="2.534461">
        <ele>738.588</ele>
        <time>2021-05-27T08:13:10Z</time>
      </trkpt>
      <trkpt lat="41.994758" lon="2.534482">
        <ele>739.116</ele>
        <time>2021-05-27T08:13:15Z</time>
      </trkpt>
      <trkpt lat="41.994775" lon="2.534505">
        <ele>739.608</ele>
        <time>2021-05-27T08:13:17Z</time>
      </trkpt>
      <trkpt lat="41.994794" lon="2.534533">
        <ele>740.041</ele>
        <time>2021-05-27T08:13:19Z</time>
      </trkpt>
      <trkpt lat="41.994813" lon="2.534562">
        <ele>740.418</ele>
        <time>2021-05-27T08:13:21Z</time>
      </trkpt>
      <trkpt lat="41.994831" lon="2.534586">
        <ele>740.996</ele>
        <time>2021-05-27T08:13:23Z</time>
      </trkpt>
      <trkpt lat="41.994849" lon="2.534608">
        <ele>741.546</ele>
        <time>2021-05-27T08:13:25Z</time>
      </trkpt>
      <trkpt lat="41.994868" lon="2.534635">
        <ele>742.023</ele>
        <time>2021-05-27T08:13:27Z</time>
      </trkpt>
      <trkpt lat="41.994886" lon="2.534661">
        <ele>742.428</ele>
        <time>2021-05-27T08:13:29Z</time>
      </trkpt>
      <trkpt lat="41.994901" lon="2.534681">
        <ele>742.961</ele>
        <time>2021-05-27T08:13:31Z</time>
      </trkpt>
      <trkpt lat="41.994916" lon="2.534706">
        <ele>743.227</ele>
        <time>2021-05-27T08:13:33Z</time>
      </trkpt>
      <trkpt lat="41.994929" lon="2.534729">
        <ele>743.572</ele>
        <time>2021-05-27T08:13:35Z</time>
      </trkpt>
      <trkpt lat="41.994940" lon="2.534755">
        <ele>743.613</ele>
        <time>2021-05-27T08:13:37Z</time>
      </trkpt>
      <trkpt lat="41.994952" lon="2.534782">
        <ele>743.714</ele>
        <time>2021-05-27T08:13:39Z</time>
      </trkpt>
      <trkpt lat="41.994960" lon="2.534822">
        <ele>743.308</ele>
        <time>2021-05-27T08:13:41Z</time>
      </trkpt>
      <trkpt lat="41.994965" lon="2.534856">
        <ele>742.944</ele>
        <time>2021-05-27T08:13:43Z</time>
      </trkpt>
      <trkpt lat="41.994974" lon="2.534891">
        <ele>742.771</ele>
        <time>2021-05-27T08:13:45Z</time>
      </trkpt>
      <trkpt lat="41.994983" lon="2.534921">
        <ele>742.629</ele>
        <time>2021-05-27T08:13:47Z</time>
      </trkpt>
      <trkpt lat="41.994990" lon="2.534947">
        <ele>742.579</ele>
        <time>2021-05-27T08:13:49Z</time>
      </trkpt>
      <trkpt lat="41.994999" lon="2.534976">
        <ele>742.526</ele>
        <time>2021-05-27T08:13:51Z</time>
      </trkpt>
      <trkpt lat="41.995006" lon="2.535002">
        <ele>742.431</ele>
        <time>2021-05-27T08:13:54Z</time>
      </trkpt>
      <trkpt lat="41.995014" lon="2.535028">
        <ele>742.934</ele>
        <time>2021-05-27T08:13:55Z</time>
      </trkpt>
      <trkpt lat="41.995022" lon="2.535054">
        <ele>743.380</ele>
        <time>2021-05-27T08:13:57Z</time>
      </trkpt>
      <trkpt lat="41.995027" lon="2.535080">
        <ele>743.575</ele>
        <time>2021-05-27T08:13:59Z</time>
      </trkpt>
      <trkpt lat="41.995034" lon="2.535108">
        <ele>743.928</ele>
        <time>2021-05-27T08:14:01Z</time>
      </trkpt>
      <trkpt lat="41.995040" lon="2.535137">
        <ele>744.220</ele>
        <time>2021-05-27T08:14:03Z</time>
      </trkpt>
      <trkpt lat="41.995043" lon="2.535164">
        <ele>744.308</ele>
        <time>2021-05-27T08:14:05Z</time>
      </trkpt>
      <trkpt lat="41.995044" lon="2.535193">
        <ele>744.294</ele>
        <time>2021-05-27T08:14:07Z</time>
      </trkpt>
      <trkpt lat="41.995047" lon="2.535220">
        <ele>744.321</ele>
        <time>2021-05-27T08:14:09Z</time>
      </trkpt>
      <trkpt lat="41.995047" lon="2.535248">
        <ele>744.239</ele>
        <time>2021-05-27T08:14:11Z</time>
      </trkpt>
      <trkpt lat="41.995048" lon="2.535279">
        <ele>744.169</ele>
        <time>2021-05-27T08:14:13Z</time>
      </trkpt>
      <trkpt lat="41.995047" lon="2.535311">
        <ele>744.066</ele>
        <time>2021-05-27T08:14:15Z</time>
      </trkpt>
      <trkpt lat="41.995050" lon="2.535339">
        <ele>744.281</ele>
        <time>2021-05-27T08:14:17Z</time>
      </trkpt>
      <trkpt lat="41.995047" lon="2.535371">
        <ele>744.074</ele>
        <time>2021-05-27T08:14:19Z</time>
      </trkpt>
      <trkpt lat="41.995041" lon="2.535401">
        <ele>743.690</ele>
        <time>2021-05-27T08:14:21Z</time>
      </trkpt>
      <trkpt lat="41.995040" lon="2.535433">
        <ele>743.551</ele>
        <time>2021-05-27T08:14:23Z</time>
      </trkpt>
      <trkpt lat="41.995037" lon="2.535465">
        <ele>743.301</ele>
        <time>2021-05-27T08:14:25Z</time>
      </trkpt>
      <trkpt lat="41.995032" lon="2.535496">
        <ele>743.011</ele>
        <time>2021-05-27T08:14:27Z</time>
      </trkpt>
      <trkpt lat="41.995025" lon="2.535523">
        <ele>742.508</ele>
        <time>2021-05-27T08:14:29Z</time>
      </trkpt>
      <trkpt lat="41.995019" lon="2.535554">
        <ele>742.252</ele>
        <time>2021-05-27T08:14:31Z</time>
      </trkpt>
      <trkpt lat="41.995018" lon="2.535590">
        <ele>742.289</ele>
        <time>2021-05-27T08:14:33Z</time>
      </trkpt>
      <trkpt lat="41.995019" lon="2.535618">
        <ele>742.447</ele>
        <time>2021-05-27T08:14:35Z</time>
      </trkpt>
      <trkpt lat="41.995016" lon="2.535646">
        <ele>742.367</ele>
        <time>2021-05-27T08:14:37Z</time>
      </trkpt>
      <trkpt lat="41.995017" lon="2.535684">
        <ele>742.524</ele>
        <time>2021-05-27T08:14:39Z</time>
      </trkpt>
      <trkpt lat="41.995019" lon="2.535711">
        <ele>742.789</ele>
        <time>2021-05-27T08:14:41Z</time>
      </trkpt>
      <trkpt lat="41.995020" lon="2.535735">
        <ele>742.862</ele>
        <time>2021-05-27T08:14:43Z</time>
      </trkpt>
      <trkpt lat="41.995021" lon="2.535774">
        <ele>743.028</ele>
        <time>2021-05-27T08:14:46Z</time>
      </trkpt>
      <trkpt lat="41.995020" lon="2.535811">
        <ele>743.128</ele>
        <time>2021-05-27T08:14:48Z</time>
      </trkpt>
      <trkpt lat="41.995019" lon="2.535848">
        <ele>743.089</ele>
        <time>2021-05-27T08:14:50Z</time>
      </trkpt>
      <trkpt lat="41.995019" lon="2.535880">
        <ele>742.917</ele>
        <time>2021-05-27T08:14:52Z</time>
      </trkpt>
      <trkpt lat="41.995019" lon="2.535912">
        <ele>742.908</ele>
        <time>2021-05-27T08:14:54Z</time>
      </trkpt>
      <trkpt lat="41.995019" lon="2.535948">
        <ele>742.769</ele>
        <time>2021-05-27T08:14:56Z</time>
      </trkpt>
      <trkpt lat="41.995020" lon="2.535981">
        <ele>742.736</ele>
        <time>2021-05-27T08:14:58Z</time>
      </trkpt>
      <trkpt lat="41.995021" lon="2.536014">
        <ele>742.714</ele>
        <time>2021-05-27T08:15:00Z</time>
      </trkpt>
      <trkpt lat="41.995028" lon="2.536044">
        <ele>743.014</ele>
        <time>2021-05-27T08:15:02Z</time>
      </trkpt>
      <trkpt lat="41.995040" lon="2.536075">
        <ele>743.751</ele>
        <time>2021-05-27T08:15:04Z</time>
      </trkpt>
      <trkpt lat="41.995052" lon="2.536109">
        <ele>744.426</ele>
        <time>2021-05-27T08:15:06Z</time>
      </trkpt>
      <trkpt lat="41.995065" lon="2.536140">
        <ele>745.229</ele>
        <time>2021-05-27T08:15:08Z</time>
      </trkpt>
      <trkpt lat="41.995081" lon="2.536164">
        <ele>746.195</ele>
        <time>2021-05-27T08:15:10Z</time>
      </trkpt>
      <trkpt lat="41.995100" lon="2.536188">
        <ele>747.339</ele>
        <time>2021-05-27T08:15:12Z</time>
      </trkpt>
      <trkpt lat="41.995119" lon="2.536212">
        <ele>748.401</ele>
        <time>2021-05-27T08:15:14Z</time>
      </trkpt>
      <trkpt lat="41.995139" lon="2.536230">
        <ele>749.621</ele>
        <time>2021-05-27T08:15:16Z</time>
      </trkpt>
      <trkpt lat="41.995160" lon="2.536248">
        <ele>750.808</ele>
        <time>2021-05-27T08:15:18Z</time>
      </trkpt>
      <trkpt lat="41.995179" lon="2.536263">
        <ele>751.910</ele>
        <time>2021-05-27T08:15:20Z</time>
      </trkpt>
      <trkpt lat="41.995201" lon="2.536280">
        <ele>753.137</ele>
        <time>2021-05-27T08:15:22Z</time>
      </trkpt>
      <trkpt lat="41.995219" lon="2.536297">
        <ele>754.115</ele>
        <time>2021-05-27T08:15:24Z</time>
      </trkpt>
      <trkpt lat="41.995237" lon="2.536316">
        <ele>755.155</ele>
        <time>2021-05-27T08:15:26Z</time>
      </trkpt>
      <trkpt lat="41.995253" lon="2.536337">
        <ele>755.932</ele>
        <time>2021-05-27T08:15:28Z</time>
      </trkpt>
      <trkpt lat="41.995268" lon="2.536360">
        <ele>756.657</ele>
        <time>2021-05-27T08:15:30Z</time>
      </trkpt>
      <trkpt lat="41.995283" lon="2.536379">
        <ele>757.310</ele>
        <time>2021-05-27T08:15:32Z</time>
      </trkpt>
      <trkpt lat="41.995300" lon="2.536399">
        <ele>758.126</ele>
        <time>2021-05-27T08:15:34Z</time>
      </trkpt>
      <trkpt lat="41.995317" lon="2.536409">
        <ele>758.968</ele>
        <time>2021-05-27T08:15:36Z</time>
      </trkpt>
      <trkpt lat="41.995332" lon="2.536431">
        <ele>759.542</ele>
        <time>2021-05-27T08:15:38Z</time>
      </trkpt>
      <trkpt lat="41.995349" lon="2.536449">
        <ele>760.326</ele>
        <time>2021-05-27T08:15:40Z</time>
      </trkpt>
      <trkpt lat="41.995362" lon="2.536469">
        <ele>760.808</ele>
        <time>2021-05-27T08:15:42Z</time>
      </trkpt>
      <trkpt lat="41.995376" lon="2.536493">
        <ele>761.353</ele>
        <time>2021-05-27T08:15:44Z</time>
      </trkpt>
      <trkpt lat="41.995389" lon="2.536519">
        <ele>761.860</ele>
        <time>2021-05-27T08:15:46Z</time>
      </trkpt>
      <trkpt lat="41.995400" lon="2.536545">
        <ele>762.188</ele>
        <time>2021-05-27T08:15:48Z</time>
      </trkpt>
      <trkpt lat="41.995409" lon="2.536575">
        <ele>762.348</ele>
        <time>2021-05-27T08:15:50Z</time>
      </trkpt>
      <trkpt lat="41.995419" lon="2.536603">
        <ele>762.675</ele>
        <time>2021-05-27T08:15:52Z</time>
      </trkpt>
      <trkpt lat="41.995429" lon="2.536625">
        <ele>762.810</ele>
        <time>2021-05-27T08:15:55Z</time>
      </trkpt>
      <trkpt lat="41.995435" lon="2.536653">
        <ele>762.943</ele>
        <time>2021-05-27T08:15:56Z</time>
      </trkpt>
      <trkpt lat="41.995444" lon="2.536688">
        <ele>763.179</ele>
        <time>2021-05-27T08:15:59Z</time>
      </trkpt>
      <trkpt lat="41.995447" lon="2.536723">
        <ele>763.119</ele>
        <time>2021-05-27T08:16:01Z</time>
      </trkpt>
      <trkpt lat="41.995449" lon="2.536753">
        <ele>763.109</ele>
        <time>2021-05-27T08:16:03Z</time>
      </trkpt>
      <trkpt lat="41.995448" lon="2.536789">
        <ele>762.919</ele>
        <time>2021-05-27T08:16:06Z</time>
      </trkpt>
      <trkpt lat="41.995449" lon="2.536829">
        <ele>762.808</ele>
        <time>2021-05-27T08:16:09Z</time>
      </trkpt>
      <trkpt lat="41.995450" lon="2.536854">
        <ele>762.878</ele>
        <time>2021-05-27T08:16:11Z</time>
      </trkpt>
      <trkpt lat="41.995453" lon="2.536878">
        <ele>762.865</ele>
        <time>2021-05-27T08:16:13Z</time>
      </trkpt>
      <trkpt lat="41.995453" lon="2.536906">
        <ele>762.783</ele>
        <time>2021-05-27T08:16:15Z</time>
      </trkpt>
      <trkpt lat="41.995454" lon="2.536931">
        <ele>762.713</ele>
        <time>2021-05-27T08:16:17Z</time>
      </trkpt>
      <trkpt lat="41.995450" lon="2.536956">
        <ele>762.550</ele>
        <time>2021-05-27T08:16:20Z</time>
      </trkpt>
      <trkpt lat="41.995447" lon="2.536989">
        <ele>762.485</ele>
        <time>2021-05-27T08:16:22Z</time>
      </trkpt>
      <trkpt lat="41.995446" lon="2.537022">
        <ele>762.478</ele>
        <time>2021-05-27T08:16:25Z</time>
      </trkpt>
      <trkpt lat="41.995444" lon="2.537056">
        <ele>762.484</ele>
        <time>2021-05-27T08:16:28Z</time>
      </trkpt>
      <trkpt lat="41.995445" lon="2.537093">
        <ele>762.547</ele>
        <time>2021-05-27T08:16:31Z</time>
      </trkpt>
      <trkpt lat="41.995439" lon="2.537120">
        <ele>762.329</ele>
        <time>2021-05-27T08:16:34Z</time>
      </trkpt>
      <trkpt lat="41.995440" lon="2.537145">
        <ele>762.421</ele>
        <time>2021-05-27T08:16:35Z</time>
      </trkpt>
      <trkpt lat="41.995440" lon="2.537179">
        <ele>762.508</ele>
        <time>2021-05-27T08:16:38Z</time>
      </trkpt>
      <trkpt lat="41.995440" lon="2.537207">
        <ele>762.621</ele>
        <time>2021-05-27T08:16:40Z</time>
      </trkpt>
      <trkpt lat="41.995440" lon="2.537239">
        <ele>762.768</ele>
        <time>2021-05-27T08:16:44Z</time>
      </trkpt>
      <trkpt lat="41.995444" lon="2.537269">
        <ele>763.086</ele>
        <time>2021-05-27T08:16:46Z</time>
      </trkpt>
      <trkpt lat="41.995434" lon="2.537399">
        <ele>763.226</ele>
        <time>2021-05-27T08:16:54Z</time>
      </trkpt>
      <trkpt lat="41.995505" lon="2.537501">
        <ele>766.833</ele>
        <time>2021-05-27T08:17:00Z</time>
      </trkpt>
      <trkpt lat="41.995502" lon="2.537628">
        <ele>765.828</ele>
        <time>2021-05-27T08:17:10Z</time>
      </trkpt>
      <trkpt lat="41.995515" lon="2.537665">
        <ele>766.181</ele>
        <time>2021-05-27T08:17:13Z</time>
      </trkpt>
      <trkpt lat="41.995525" lon="2.537698">
        <ele>766.377</ele>
        <time>2021-05-27T08:17:16Z</time>
      </trkpt>
      <trkpt lat="41.995537" lon="2.537726">
        <ele>766.616</ele>
        <time>2021-05-27T08:17:21Z</time>
      </trkpt>
      <trkpt lat="41.995550" lon="2.537754">
        <ele>766.976</ele>
        <time>2021-05-27T08:17:23Z</time>
      </trkpt>
      <trkpt lat="41.995569" lon="2.537775">
        <ele>767.613</ele>
        <time>2021-05-27T08:17:24Z</time>
      </trkpt>
      <trkpt lat="41.995589" lon="2.537808">
        <ele>768.108</ele>
        <time>2021-05-27T08:17:26Z</time>
      </trkpt>
      <trkpt lat="41.995591" lon="2.537834">
        <ele>768.018</ele>
        <time>2021-05-27T08:17:29Z</time>
      </trkpt>
      <trkpt lat="41.995605" lon="2.537865">
        <ele>768.435</ele>
        <time>2021-05-27T08:17:31Z</time>
      </trkpt>
      <trkpt lat="41.995623" lon="2.537889">
        <ele>769.033</ele>
        <time>2021-05-27T08:17:33Z</time>
      </trkpt>
      <trkpt lat="41.995634" lon="2.537915">
        <ele>769.363</ele>
        <time>2021-05-27T08:17:35Z</time>
      </trkpt>
      <trkpt lat="41.995653" lon="2.537952">
        <ele>769.860</ele>
        <time>2021-05-27T08:17:38Z</time>
      </trkpt>
      <trkpt lat="41.995672" lon="2.537984">
        <ele>770.485</ele>
        <time>2021-05-27T08:17:40Z</time>
      </trkpt>
      <trkpt lat="41.995676" lon="2.538008">
        <ele>770.558</ele>
        <time>2021-05-27T08:17:42Z</time>
      </trkpt>
      <trkpt lat="41.995702" lon="2.538034">
        <ele>771.494</ele>
        <time>2021-05-27T08:17:45Z</time>
      </trkpt>
      <trkpt lat="41.995725" lon="2.538055">
        <ele>772.392</ele>
        <time>2021-05-27T08:17:47Z</time>
      </trkpt>
      <trkpt lat="41.995741" lon="2.538070">
        <ele>773.073</ele>
        <time>2021-05-27T08:17:49Z</time>
      </trkpt>
      <trkpt lat="41.995761" lon="2.538075">
        <ele>773.920</ele>
        <time>2021-05-27T08:17:50Z</time>
      </trkpt>
      <trkpt lat="41.995779" lon="2.538068">
        <ele>774.708</ele>
        <time>2021-05-27T08:17:52Z</time>
      </trkpt>
      <trkpt lat="41.995794" lon="2.538044">
        <ele>775.346</ele>
        <time>2021-05-27T08:17:54Z</time>
      </trkpt>
      <trkpt lat="41.995801" lon="2.538012">
        <ele>775.883</ele>
        <time>2021-05-27T08:17:56Z</time>
      </trkpt>
      <trkpt lat="41.995808" lon="2.537983">
        <ele>776.261</ele>
        <time>2021-05-27T08:17:58Z</time>
      </trkpt>
      <trkpt lat="41.995813" lon="2.537948">
        <ele>776.581</ele>
        <time>2021-05-27T08:18:00Z</time>
      </trkpt>
      <trkpt lat="41.995814" lon="2.537916">
        <ele>776.778</ele>
        <time>2021-05-27T08:18:02Z</time>
      </trkpt>
      <trkpt lat="41.995811" lon="2.537883">
        <ele>776.773</ele>
        <time>2021-05-27T08:18:04Z</time>
      </trkpt>
      <trkpt lat="41.995805" lon="2.537842">
        <ele>776.666</ele>
        <time>2021-05-27T08:18:06Z</time>
      </trkpt>
      <trkpt lat="41.995800" lon="2.537806">
        <ele>776.682</ele>
        <time>2021-05-27T08:18:08Z</time>
      </trkpt>
      <trkpt lat="41.995799" lon="2.537770">
        <ele>776.798</ele>
        <time>2021-05-27T08:18:10Z</time>
      </trkpt>
      <trkpt lat="41.995794" lon="2.537736">
        <ele>776.715</ele>
        <time>2021-05-27T08:18:12Z</time>
      </trkpt>
      <trkpt lat="41.995797" lon="2.537697">
        <ele>777.126</ele>
        <time>2021-05-27T08:18:14Z</time>
      </trkpt>
      <trkpt lat="41.995799" lon="2.537663">
        <ele>777.508</ele>
        <time>2021-05-27T08:18:16Z</time>
      </trkpt>
      <trkpt lat="41.995807" lon="2.537625">
        <ele>778.126</ele>
        <time>2021-05-27T08:18:18Z</time>
      </trkpt>
      <trkpt lat="41.995816" lon="2.537588">
        <ele>778.793</ele>
        <time>2021-05-27T08:18:20Z</time>
      </trkpt>
      <trkpt lat="41.995820" lon="2.537554">
        <ele>779.111</ele>
        <time>2021-05-27T08:18:22Z</time>
      </trkpt>
      <trkpt lat="41.995824" lon="2.537521">
        <ele>779.571</ele>
        <time>2021-05-27T08:18:25Z</time>
      </trkpt>
      <trkpt lat="41.995833" lon="2.537484">
        <ele>779.958</ele>
        <time>2021-05-27T08:18:26Z</time>
      </trkpt>
      <trkpt lat="41.995848" lon="2.537453">
        <ele>780.313</ele>
        <time>2021-05-27T08:18:28Z</time>
      </trkpt>
      <trkpt lat="41.995861" lon="2.537423">
        <ele>780.666</ele>
        <time>2021-05-27T08:18:30Z</time>
      </trkpt>
      <trkpt lat="41.995876" lon="2.537396">
        <ele>781.012</ele>
        <time>2021-05-27T08:18:32Z</time>
      </trkpt>
      <trkpt lat="41.995892" lon="2.537368">
        <ele>781.446</ele>
        <time>2021-05-27T08:18:34Z</time>
      </trkpt>
      <trkpt lat="41.995906" lon="2.537342">
        <ele>781.888</ele>
        <time>2021-05-27T08:18:36Z</time>
      </trkpt>
      <trkpt lat="41.995921" lon="2.537322">
        <ele>782.316</ele>
        <time>2021-05-27T08:18:38Z</time>
      </trkpt>
      <trkpt lat="41.995939" lon="2.537303">
        <ele>782.908</ele>
        <time>2021-05-27T08:18:40Z</time>
      </trkpt>
      <trkpt lat="41.995960" lon="2.537284">
        <ele>783.621</ele>
        <time>2021-05-27T08:18:42Z</time>
      </trkpt>
      <trkpt lat="41.995981" lon="2.537265">
        <ele>784.338</ele>
        <time>2021-05-27T08:18:44Z</time>
      </trkpt>
      <trkpt lat="41.995993" lon="2.537238">
        <ele>784.786</ele>
        <time>2021-05-27T08:18:46Z</time>
      </trkpt>
      <trkpt lat="41.996006" lon="2.537216">
        <ele>785.236</ele>
        <time>2021-05-27T08:18:54Z</time>
      </trkpt>
      <trkpt lat="41.996006" lon="2.537189">
        <ele>785.073</ele>
        <time>2021-05-27T08:18:55Z</time>
      </trkpt>
      <trkpt lat="41.996009" lon="2.537163">
        <ele>785.058</ele>
        <time>2021-05-27T08:18:58Z</time>
      </trkpt>
      <trkpt lat="41.996003" lon="2.537121">
        <ele>784.551</ele>
        <time>2021-05-27T08:18:59Z</time>
      </trkpt>
      <trkpt lat="41.996007" lon="2.537086">
        <ele>784.537</ele>
        <time>2021-05-27T08:19:01Z</time>
      </trkpt>
      <trkpt lat="41.996012" lon="2.537057">
        <ele>784.551</ele>
        <time>2021-05-27T08:19:03Z</time>
      </trkpt>
      <trkpt lat="41.996022" lon="2.537029">
        <ele>784.601</ele>
        <time>2021-05-27T08:19:06Z</time>
      </trkpt>
      <trkpt lat="41.996033" lon="2.537005">
        <ele>784.811</ele>
        <time>2021-05-27T08:19:07Z</time>
      </trkpt>
      <trkpt lat="41.996045" lon="2.536968">
        <ele>785.008</ele>
        <time>2021-05-27T08:19:09Z</time>
      </trkpt>
      <trkpt lat="41.996057" lon="2.536933">
        <ele>785.222</ele>
        <time>2021-05-27T08:19:11Z</time>
      </trkpt>
      <trkpt lat="41.996069" lon="2.536902">
        <ele>785.599</ele>
        <time>2021-05-27T08:19:14Z</time>
      </trkpt>
      <trkpt lat="41.996082" lon="2.536873">
        <ele>785.897</ele>
        <time>2021-05-27T08:19:16Z</time>
      </trkpt>
      <trkpt lat="41.996093" lon="2.536844">
        <ele>786.197</ele>
        <time>2021-05-27T08:19:17Z</time>
      </trkpt>
      <trkpt lat="41.996102" lon="2.536811">
        <ele>786.214</ele>
        <time>2021-05-27T08:19:20Z</time>
      </trkpt>
      <trkpt lat="41.996116" lon="2.536783">
        <ele>786.629</ele>
        <time>2021-05-27T08:19:22Z</time>
      </trkpt>
      <trkpt lat="41.996130" lon="2.536757">
        <ele>786.952</ele>
        <time>2021-05-27T08:19:24Z</time>
      </trkpt>
      <trkpt lat="41.996143" lon="2.536729">
        <ele>787.358</ele>
        <time>2021-05-27T08:19:25Z</time>
      </trkpt>
      <trkpt lat="41.996154" lon="2.536702">
        <ele>787.593</ele>
        <time>2021-05-27T08:19:28Z</time>
      </trkpt>
      <trkpt lat="41.996166" lon="2.536673">
        <ele>787.865</ele>
        <time>2021-05-27T08:19:30Z</time>
      </trkpt>
      <trkpt lat="41.996177" lon="2.536647">
        <ele>788.221</ele>
        <time>2021-05-27T08:19:31Z</time>
      </trkpt>
      <trkpt lat="41.996190" lon="2.536620">
        <ele>788.708</ele>
        <time>2021-05-27T08:19:33Z</time>
      </trkpt>
      <trkpt lat="41.996208" lon="2.536592">
        <ele>789.446</ele>
        <time>2021-05-27T08:19:35Z</time>
      </trkpt>
      <trkpt lat="41.996218" lon="2.536570">
        <ele>789.813</ele>
        <time>2021-05-27T08:19:37Z</time>
      </trkpt>
      <trkpt lat="41.996230" lon="2.536542">
        <ele>790.251</ele>
        <time>2021-05-27T08:19:39Z</time>
      </trkpt>
      <trkpt lat="41.996238" lon="2.536512">
        <ele>790.531</ele>
        <time>2021-05-27T08:19:42Z</time>
      </trkpt>
      <trkpt lat="41.996253" lon="2.536486">
        <ele>790.978</ele>
        <time>2021-05-27T08:19:44Z</time>
      </trkpt>
      <trkpt lat="41.996269" lon="2.536464">
        <ele>791.313</ele>
        <time>2021-05-27T08:19:46Z</time>
      </trkpt>
      <trkpt lat="41.996277" lon="2.536437">
        <ele>791.546</ele>
        <time>2021-05-27T08:19:48Z</time>
      </trkpt>
      <trkpt lat="41.996287" lon="2.536412">
        <ele>791.872</ele>
        <time>2021-05-27T08:19:50Z</time>
      </trkpt>
      <trkpt lat="41.996296" lon="2.536390">
        <ele>792.031</ele>
        <time>2021-05-27T08:19:52Z</time>
      </trkpt>
      <trkpt lat="41.996307" lon="2.536365">
        <ele>792.261</ele>
        <time>2021-05-27T08:19:54Z</time>
      </trkpt>
      <trkpt lat="41.996316" lon="2.536340">
        <ele>792.407</ele>
        <time>2021-05-27T08:19:56Z</time>
      </trkpt>
      <trkpt lat="41.996322" lon="2.536311">
        <ele>792.508</ele>
        <time>2021-05-27T08:19:58Z</time>
      </trkpt>
      <trkpt lat="41.996332" lon="2.536283">
        <ele>792.680</ele>
        <time>2021-05-27T08:20:00Z</time>
      </trkpt>
      <trkpt lat="41.996348" lon="2.536263">
        <ele>792.987</ele>
        <time>2021-05-27T08:20:01Z</time>
      </trkpt>
      <trkpt lat="41.996363" lon="2.536244">
        <ele>793.185</ele>
        <time>2021-05-27T08:20:03Z</time>
      </trkpt>
      <trkpt lat="41.996379" lon="2.536227">
        <ele>793.315</ele>
        <time>2021-05-27T08:20:05Z</time>
      </trkpt>
      <trkpt lat="41.996394" lon="2.536210">
        <ele>793.432</ele>
        <time>2021-05-27T08:20:08Z</time>
      </trkpt>
      <trkpt lat="41.996412" lon="2.536198">
        <ele>793.457</ele>
        <time>2021-05-27T08:20:09Z</time>
      </trkpt>
      <trkpt lat="41.996436" lon="2.536195">
        <ele>793.540</ele>
        <time>2021-05-27T08:20:12Z</time>
      </trkpt>
      <trkpt lat="41.996454" lon="2.536203">
        <ele>793.696</ele>
        <time>2021-05-27T08:20:13Z</time>
      </trkpt>
      <trkpt lat="41.996444" lon="2.536235">
        <ele>793.879</ele>
        <time>2021-05-27T08:20:25Z</time>
      </trkpt>
      <trkpt lat="41.996443" lon="2.536264">
        <ele>794.005</ele>
        <time>2021-05-27T08:20:26Z</time>
      </trkpt>
      <trkpt lat="41.996435" lon="2.536293">
        <ele>794.125</ele>
        <time>2021-05-27T08:20:29Z</time>
      </trkpt>
      <trkpt lat="41.996432" lon="2.536265">
        <ele>793.908</ele>
        <time>2021-05-27T08:20:34Z</time>
      </trkpt>
      <trkpt lat="41.996427" lon="2.536227">
        <ele>793.644</ele>
        <time>2021-05-27T08:20:35Z</time>
      </trkpt>
      <trkpt lat="41.996417" lon="2.536185">
        <ele>793.451</ele>
        <time>2021-05-27T08:20:38Z</time>
      </trkpt>
      <trkpt lat="41.996411" lon="2.536148">
        <ele>793.229</ele>
        <time>2021-05-27T08:20:40Z</time>
      </trkpt>
      <trkpt lat="41.996407" lon="2.536109">
        <ele>793.059</ele>
        <time>2021-05-27T08:20:42Z</time>
      </trkpt>
      <trkpt lat="41.996399" lon="2.536071">
        <ele>792.656</ele>
        <time>2021-05-27T08:20:43Z</time>
      </trkpt>
      <trkpt lat="41.996390" lon="2.536032">
        <ele>792.151</ele>
        <time>2021-05-27T08:20:45Z</time>
      </trkpt>
      <trkpt lat="41.996380" lon="2.535992">
        <ele>791.764</ele>
        <time>2021-05-27T08:20:48Z</time>
      </trkpt>
      <trkpt lat="41.996370" lon="2.535958">
        <ele>791.310</ele>
        <time>2021-05-27T08:20:49Z</time>
      </trkpt>
      <trkpt lat="41.996357" lon="2.535928">
        <ele>791.084</ele>
        <time>2021-05-27T08:20:51Z</time>
      </trkpt>
      <trkpt lat="41.996341" lon="2.535899">
        <ele>790.707</ele>
        <time>2021-05-27T08:20:53Z</time>
      </trkpt>
      <trkpt lat="41.996328" lon="2.535871">
        <ele>790.517</ele>
        <time>2021-05-27T08:20:55Z</time>
      </trkpt>
      <trkpt lat="41.996315" lon="2.535837">
        <ele>790.308</ele>
        <time>2021-05-27T08:20:58Z</time>
      </trkpt>
      <trkpt lat="41.996301" lon="2.535797">
        <ele>790.015</ele>
        <time>2021-05-27T08:21:00Z</time>
      </trkpt>
      <trkpt lat="41.996289" lon="2.535759">
        <ele>789.742</ele>
        <time>2021-05-27T08:21:02Z</time>
      </trkpt>
      <trkpt lat="41.996276" lon="2.535725">
        <ele>789.670</ele>
        <time>2021-05-27T08:21:04Z</time>
      </trkpt>
      <trkpt lat="41.996257" lon="2.535695">
        <ele>789.520</ele>
        <time>2021-05-27T08:21:06Z</time>
      </trkpt>
      <trkpt lat="41.996240" lon="2.535671">
        <ele>789.447</ele>
        <time>2021-05-27T08:21:07Z</time>
      </trkpt>
      <trkpt lat="41.996221" lon="2.535646">
        <ele>789.482</ele>
        <time>2021-05-27T08:21:09Z</time>
      </trkpt>
      <trkpt lat="41.996210" lon="2.535617">
        <ele>789.365</ele>
        <time>2021-05-27T08:21:11Z</time>
      </trkpt>
      <trkpt lat="41.996205" lon="2.535581">
        <ele>789.141</ele>
        <time>2021-05-27T08:21:13Z</time>
      </trkpt>
      <trkpt lat="41.996192" lon="2.535546">
        <ele>789.132</ele>
        <time>2021-05-27T08:21:15Z</time>
      </trkpt>
      <trkpt lat="41.996180" lon="2.535513">
        <ele>789.192</ele>
        <time>2021-05-27T08:21:18Z</time>
      </trkpt>
      <trkpt lat="41.996171" lon="2.535483">
        <ele>789.111</ele>
        <time>2021-05-27T08:21:19Z</time>
      </trkpt>
      <trkpt lat="41.996155" lon="2.535454">
        <ele>789.208</ele>
        <time>2021-05-27T08:21:21Z</time>
      </trkpt>
      <trkpt lat="41.996137" lon="2.535431">
        <ele>789.350</ele>
        <time>2021-05-27T08:21:23Z</time>
      </trkpt>
      <trkpt lat="41.996128" lon="2.535402">
        <ele>789.377</ele>
        <time>2021-05-27T08:21:25Z</time>
      </trkpt>
      <trkpt lat="41.996132" lon="2.535371">
        <ele>789.135</ele>
        <time>2021-05-27T08:21:28Z</time>
      </trkpt>
      <trkpt lat="41.996145" lon="2.535354">
        <ele>788.935</ele>
        <time>2021-05-27T08:21:30Z</time>
      </trkpt>
      <trkpt lat="41.996154" lon="2.535327">
        <ele>788.742</ele>
        <time>2021-05-27T08:21:32Z</time>
      </trkpt>
      <trkpt lat="41.996142" lon="2.535306">
        <ele>788.887</ele>
        <time>2021-05-27T08:21:39Z</time>
      </trkpt>
      <trkpt lat="41.996123" lon="2.535305">
        <ele>789.030</ele>
        <time>2021-05-27T08:21:40Z</time>
      </trkpt>
      <trkpt lat="41.996112" lon="2.535285">
        <ele>789.096</ele>
        <time>2021-05-27T08:23:01Z</time>
      </trkpt>
      <trkpt lat="41.996086" lon="2.535274">
        <ele>788.563</ele>
        <time>2021-05-27T08:23:04Z</time>
      </trkpt>
      <trkpt lat="41.996067" lon="2.535266">
        <ele>788.244</ele>
        <time>2021-05-27T08:23:05Z</time>
      </trkpt>
      <trkpt lat="41.996052" lon="2.535283">
        <ele>788.018</ele>
        <time>2021-05-27T08:23:12Z</time>
      </trkpt>
      <trkpt lat="41.996053" lon="2.535316">
        <ele>788.108</ele>
        <time>2021-05-27T08:23:15Z</time>
      </trkpt>
      <trkpt lat="41.996049" lon="2.535342">
        <ele>788.163</ele>
        <time>2021-05-27T08:23:17Z</time>
      </trkpt>
      <trkpt lat="41.996067" lon="2.535344">
        <ele>788.470</ele>
        <time>2021-05-27T08:23:22Z</time>
      </trkpt>
      <trkpt lat="41.996087" lon="2.535332">
        <ele>788.868</ele>
        <time>2021-05-27T08:23:25Z</time>
      </trkpt>
      <trkpt lat="41.996104" lon="2.535326">
        <ele>789.038</ele>
        <time>2021-05-27T08:23:27Z</time>
      </trkpt>
      <trkpt lat="41.996123" lon="2.535314">
        <ele>789.085</ele>
        <time>2021-05-27T08:23:29Z</time>
      </trkpt>
      <trkpt lat="41.996134" lon="2.535294">
        <ele>788.880</ele>
        <time>2021-05-27T08:23:31Z</time>
      </trkpt>
      <trkpt lat="41.996142" lon="2.535272">
        <ele>788.743</ele>
        <time>2021-05-27T08:24:05Z</time>
      </trkpt>
      <trkpt lat="41.996127" lon="2.535290">
        <ele>788.969</ele>
        <time>2021-05-27T08:25:33Z</time>
      </trkpt>
      <trkpt lat="41.996109" lon="2.535300">
        <ele>789.064</ele>
        <time>2021-05-27T08:26:00Z</time>
      </trkpt>
      <trkpt lat="41.996109" lon="2.535325">
        <ele>789.106</ele>
        <time>2021-05-27T08:26:54Z</time>
      </trkpt>
      <trkpt lat="41.996138" lon="2.535367">
        <ele>789.016</ele>
        <time>2021-05-27T08:26:57Z</time>
      </trkpt>
      <trkpt lat="41.996153" lon="2.535386">
        <ele>788.908</ele>
        <time>2021-05-27T08:27:00Z</time>
      </trkpt>
      <trkpt lat="41.996168" lon="2.535414">
        <ele>788.993</ele>
        <time>2021-05-27T08:27:01Z</time>
      </trkpt>
      <trkpt lat="41.996175" lon="2.535439">
        <ele>788.970</ele>
        <time>2021-05-27T08:27:03Z</time>
      </trkpt>
      <trkpt lat="41.996175" lon="2.535465">
        <ele>789.068</ele>
        <time>2021-05-27T08:27:05Z</time>
      </trkpt>
      <trkpt lat="41.996178" lon="2.535493">
        <ele>789.118</ele>
        <time>2021-05-27T08:27:07Z</time>
      </trkpt>
      <trkpt lat="41.996182" lon="2.535524">
        <ele>789.195</ele>
        <time>2021-05-27T08:27:09Z</time>
      </trkpt>
      <trkpt lat="41.996187" lon="2.535560">
        <ele>789.230</ele>
        <time>2021-05-27T08:27:11Z</time>
      </trkpt>
      <trkpt lat="41.996189" lon="2.535588">
        <ele>789.313</ele>
        <time>2021-05-27T08:27:14Z</time>
      </trkpt>
      <trkpt lat="41.996192" lon="2.535620">
        <ele>789.589</ele>
        <time>2021-05-27T08:27:15Z</time>
      </trkpt>
      <trkpt lat="41.996199" lon="2.535654">
        <ele>789.683</ele>
        <time>2021-05-27T08:27:17Z</time>
      </trkpt>
      <trkpt lat="41.996213" lon="2.535684">
        <ele>789.725</ele>
        <time>2021-05-27T08:27:19Z</time>
      </trkpt>
      <trkpt lat="41.996220" lon="2.535715">
        <ele>789.817</ele>
        <time>2021-05-27T08:27:21Z</time>
      </trkpt>
      <trkpt lat="41.996223" lon="2.535751">
        <ele>790.108</ele>
        <time>2021-05-27T08:27:23Z</time>
      </trkpt>
      <trkpt lat="41.996231" lon="2.535785">
        <ele>790.215</ele>
        <time>2021-05-27T08:27:25Z</time>
      </trkpt>
      <trkpt lat="41.996245" lon="2.535816">
        <ele>790.452</ele>
        <time>2021-05-27T08:27:27Z</time>
      </trkpt>
      <trkpt lat="41.996261" lon="2.535845">
        <ele>790.570</ele>
        <time>2021-05-27T08:27:30Z</time>
      </trkpt>
      <trkpt lat="41.996280" lon="2.535870">
        <ele>790.650</ele>
        <time>2021-05-27T08:27:32Z</time>
      </trkpt>
      <trkpt lat="41.996298" lon="2.535898">
        <ele>790.717</ele>
        <time>2021-05-27T08:27:33Z</time>
      </trkpt>
      <trkpt lat="41.996319" lon="2.535927">
        <ele>790.952</ele>
        <time>2021-05-27T08:27:35Z</time>
      </trkpt>
      <trkpt lat="41.996338" lon="2.535956">
        <ele>791.275</ele>
        <time>2021-05-27T08:27:38Z</time>
      </trkpt>
      <trkpt lat="41.996356" lon="2.535987">
        <ele>791.551</ele>
        <time>2021-05-27T08:27:39Z</time>
      </trkpt>
      <trkpt lat="41.996375" lon="2.536021">
        <ele>791.932</ele>
        <time>2021-05-27T08:27:41Z</time>
      </trkpt>
      <trkpt lat="41.996388" lon="2.536054">
        <ele>792.492</ele>
        <time>2021-05-27T08:27:43Z</time>
      </trkpt>
      <trkpt lat="41.996396" lon="2.536096">
        <ele>792.811</ele>
        <time>2021-05-27T08:27:46Z</time>
      </trkpt>
      <trkpt lat="41.996400" lon="2.536135">
        <ele>793.108</ele>
        <time>2021-05-27T08:27:48Z</time>
      </trkpt>
      <trkpt lat="41.996406" lon="2.536174">
        <ele>793.310</ele>
        <time>2021-05-27T08:27:49Z</time>
      </trkpt>
      <trkpt lat="41.996413" lon="2.536209">
        <ele>793.587</ele>
        <time>2021-05-27T08:27:51Z</time>
      </trkpt>
      <trkpt lat="41.996419" lon="2.536244">
        <ele>793.785</ele>
        <time>2021-05-27T08:27:53Z</time>
      </trkpt>
      <trkpt lat="41.996424" lon="2.536284">
        <ele>793.975</ele>
        <time>2021-05-27T08:27:55Z</time>
      </trkpt>
      <trkpt lat="41.996430" lon="2.536321">
        <ele>794.212</ele>
        <time>2021-05-27T08:27:58Z</time>
      </trkpt>
      <trkpt lat="41.996436" lon="2.536356">
        <ele>794.527</ele>
        <time>2021-05-27T08:27:59Z</time>
      </trkpt>
      <trkpt lat="41.996442" lon="2.536382">
        <ele>794.730</ele>
        <time>2021-05-27T08:28:01Z</time>
      </trkpt>
      <trkpt lat="41.996447" lon="2.536416">
        <ele>795.026</ele>
        <time>2021-05-27T08:28:03Z</time>
      </trkpt>
      <trkpt lat="41.996453" lon="2.536450">
        <ele>795.225</ele>
        <time>2021-05-27T08:28:05Z</time>
      </trkpt>
      <trkpt lat="41.996460" lon="2.536479">
        <ele>795.426</ele>
        <time>2021-05-27T08:28:07Z</time>
      </trkpt>
      <trkpt lat="41.996462" lon="2.536518">
        <ele>795.608</ele>
        <time>2021-05-27T08:28:09Z</time>
      </trkpt>
      <trkpt lat="41.996465" lon="2.536552">
        <ele>795.808</ele>
        <time>2021-05-27T08:28:11Z</time>
      </trkpt>
      <trkpt lat="41.996469" lon="2.536595">
        <ele>796.119</ele>
        <time>2021-05-27T08:28:13Z</time>
      </trkpt>
      <trkpt lat="41.996474" lon="2.536631">
        <ele>796.476</ele>
        <time>2021-05-27T08:28:15Z</time>
      </trkpt>
      <trkpt lat="41.996480" lon="2.536667">
        <ele>796.664</ele>
        <time>2021-05-27T08:28:17Z</time>
      </trkpt>
      <trkpt lat="41.996483" lon="2.536703">
        <ele>796.964</ele>
        <time>2021-05-27T08:28:20Z</time>
      </trkpt>
      <trkpt lat="41.996486" lon="2.536734">
        <ele>797.191</ele>
        <time>2021-05-27T08:28:22Z</time>
      </trkpt>
      <trkpt lat="41.996491" lon="2.536768">
        <ele>797.346</ele>
        <time>2021-05-27T08:28:23Z</time>
      </trkpt>
      <trkpt lat="41.996496" lon="2.536803">
        <ele>797.669</ele>
        <time>2021-05-27T08:28:26Z</time>
      </trkpt>
      <trkpt lat="41.996505" lon="2.536835">
        <ele>797.965</ele>
        <time>2021-05-27T08:28:28Z</time>
      </trkpt>
      <trkpt lat="41.996511" lon="2.536871">
        <ele>798.365</ele>
        <time>2021-05-27T08:28:30Z</time>
      </trkpt>
      <trkpt lat="41.996517" lon="2.536907">
        <ele>798.668</ele>
        <time>2021-05-27T08:28:31Z</time>
      </trkpt>
      <trkpt lat="41.996524" lon="2.536944">
        <ele>798.914</ele>
        <time>2021-05-27T08:28:34Z</time>
      </trkpt>
      <trkpt lat="41.996531" lon="2.536978">
        <ele>799.108</ele>
        <time>2021-05-27T08:28:35Z</time>
      </trkpt>
      <trkpt lat="41.996540" lon="2.537017">
        <ele>799.453</ele>
        <time>2021-05-27T08:28:37Z</time>
      </trkpt>
      <trkpt lat="41.996541" lon="2.537053">
        <ele>799.530</ele>
        <time>2021-05-27T08:28:39Z</time>
      </trkpt>
      <trkpt lat="41.996538" lon="2.537085">
        <ele>799.518</ele>
        <time>2021-05-27T08:28:41Z</time>
      </trkpt>
      <trkpt lat="41.996539" lon="2.537120">
        <ele>799.548</ele>
        <time>2021-05-27T08:28:44Z</time>
      </trkpt>
      <trkpt lat="41.996543" lon="2.537154">
        <ele>799.745</ele>
        <time>2021-05-27T08:28:46Z</time>
      </trkpt>
      <trkpt lat="41.996549" lon="2.537192">
        <ele>799.870</ele>
        <time>2021-05-27T08:28:47Z</time>
      </trkpt>
      <trkpt lat="41.996556" lon="2.537229">
        <ele>800.093</ele>
        <time>2021-05-27T08:28:49Z</time>
      </trkpt>
      <trkpt lat="41.996564" lon="2.537264">
        <ele>800.259</ele>
        <time>2021-05-27T08:28:51Z</time>
      </trkpt>
      <trkpt lat="41.996574" lon="2.537298">
        <ele>800.412</ele>
        <time>2021-05-27T08:28:54Z</time>
      </trkpt>
      <trkpt lat="41.996583" lon="2.537328">
        <ele>800.632</ele>
        <time>2021-05-27T08:28:56Z</time>
      </trkpt>
      <trkpt lat="41.996592" lon="2.537356">
        <ele>800.805</ele>
        <time>2021-05-27T08:28:58Z</time>
      </trkpt>
      <trkpt lat="41.996600" lon="2.537387">
        <ele>800.908</ele>
        <time>2021-05-27T08:28:59Z</time>
      </trkpt>
      <trkpt lat="41.996612" lon="2.537419">
        <ele>801.298</ele>
        <time>2021-05-27T08:29:01Z</time>
      </trkpt>
      <trkpt lat="41.996622" lon="2.537456">
        <ele>801.375</ele>
        <time>2021-05-27T08:29:03Z</time>
      </trkpt>
      <trkpt lat="41.996634" lon="2.537493">
        <ele>801.523</ele>
        <time>2021-05-27T08:29:05Z</time>
      </trkpt>
      <trkpt lat="41.996644" lon="2.537529">
        <ele>801.913</ele>
        <time>2021-05-27T08:29:07Z</time>
      </trkpt>
      <trkpt lat="41.996654" lon="2.537565">
        <ele>802.380</ele>
        <time>2021-05-27T08:29:09Z</time>
      </trkpt>
      <trkpt lat="41.996666" lon="2.537603">
        <ele>802.725</ele>
        <time>2021-05-27T08:29:11Z</time>
      </trkpt>
      <trkpt lat="41.996678" lon="2.537641">
        <ele>803.398</ele>
        <time>2021-05-27T08:29:13Z</time>
      </trkpt>
      <trkpt lat="41.996688" lon="2.537677">
        <ele>803.884</ele>
        <time>2021-05-27T08:29:15Z</time>
      </trkpt>
      <trkpt lat="41.996703" lon="2.537711">
        <ele>804.336</ele>
        <time>2021-05-27T08:29:17Z</time>
      </trkpt>
      <trkpt lat="41.996715" lon="2.537742">
        <ele>804.817</ele>
        <time>2021-05-27T08:29:19Z</time>
      </trkpt>
      <trkpt lat="41.996726" lon="2.537773">
        <ele>805.318</ele>
        <time>2021-05-27T08:29:21Z</time>
      </trkpt>
      <trkpt lat="41.996739" lon="2.537802">
        <ele>805.608</ele>
        <time>2021-05-27T08:29:23Z</time>
      </trkpt>
      <trkpt lat="41.996754" lon="2.537831">
        <ele>806.070</ele>
        <time>2021-05-27T08:29:25Z</time>
      </trkpt>
      <trkpt lat="41.996765" lon="2.537861">
        <ele>806.317</ele>
        <time>2021-05-27T08:29:27Z</time>
      </trkpt>
      <trkpt lat="41.996773" lon="2.537898">
        <ele>806.675</ele>
        <time>2021-05-27T08:29:29Z</time>
      </trkpt>
      <trkpt lat="41.996784" lon="2.537933">
        <ele>806.965</ele>
        <time>2021-05-27T08:29:31Z</time>
      </trkpt>
      <trkpt lat="41.996799" lon="2.537961">
        <ele>807.252</ele>
        <time>2021-05-27T08:29:33Z</time>
      </trkpt>
      <trkpt lat="41.996811" lon="2.537990">
        <ele>807.587</ele>
        <time>2021-05-27T08:29:35Z</time>
      </trkpt>
      <trkpt lat="41.996824" lon="2.538020">
        <ele>807.860</ele>
        <time>2021-05-27T08:29:37Z</time>
      </trkpt>
      <trkpt lat="41.996835" lon="2.538051">
        <ele>808.056</ele>
        <time>2021-05-27T08:29:39Z</time>
      </trkpt>
      <trkpt lat="41.996841" lon="2.538079">
        <ele>808.032</ele>
        <time>2021-05-27T08:29:41Z</time>
      </trkpt>
      <trkpt lat="41.996856" lon="2.538110">
        <ele>808.192</ele>
        <time>2021-05-27T08:29:43Z</time>
      </trkpt>
      <trkpt lat="41.996879" lon="2.538136">
        <ele>808.311</ele>
        <time>2021-05-27T08:29:45Z</time>
      </trkpt>
      <trkpt lat="41.996901" lon="2.538163">
        <ele>808.508</ele>
        <time>2021-05-27T08:29:47Z</time>
      </trkpt>
      <trkpt lat="41.996925" lon="2.538191">
        <ele>808.710</ele>
        <time>2021-05-27T08:29:49Z</time>
      </trkpt>
      <trkpt lat="41.996947" lon="2.538209">
        <ele>808.957</ele>
        <time>2021-05-27T08:29:51Z</time>
      </trkpt>
      <trkpt lat="41.996973" lon="2.538220">
        <ele>809.485</ele>
        <time>2021-05-27T08:29:53Z</time>
      </trkpt>
      <trkpt lat="41.996999" lon="2.538218">
        <ele>809.925</ele>
        <time>2021-05-27T08:29:55Z</time>
      </trkpt>
      <trkpt lat="41.997022" lon="2.538210">
        <ele>810.482</ele>
        <time>2021-05-27T08:29:57Z</time>
      </trkpt>
      <trkpt lat="41.997045" lon="2.538188">
        <ele>811.057</ele>
        <time>2021-05-27T08:29:59Z</time>
      </trkpt>
      <trkpt lat="41.997066" lon="2.538169">
        <ele>811.520</ele>
        <time>2021-05-27T08:30:01Z</time>
      </trkpt>
      <trkpt lat="41.997081" lon="2.538149">
        <ele>812.046</ele>
        <time>2021-05-27T08:30:03Z</time>
      </trkpt>
      <trkpt lat="41.997093" lon="2.538119">
        <ele>812.382</ele>
        <time>2021-05-27T08:30:05Z</time>
      </trkpt>
      <trkpt lat="41.997100" lon="2.538090">
        <ele>812.643</ele>
        <time>2021-05-27T08:30:08Z</time>
      </trkpt>
      <trkpt lat="41.997111" lon="2.538062">
        <ele>813.017</ele>
        <time>2021-05-27T08:30:10Z</time>
      </trkpt>
      <trkpt lat="41.997126" lon="2.538029">
        <ele>813.208</ele>
        <time>2021-05-27T08:30:12Z</time>
      </trkpt>
      <trkpt lat="41.997136" lon="2.537994">
        <ele>813.395</ele>
        <time>2021-05-27T08:30:14Z</time>
      </trkpt>
      <trkpt lat="41.997153" lon="2.537961">
        <ele>813.592</ele>
        <time>2021-05-27T08:30:15Z</time>
      </trkpt>
      <trkpt lat="41.997169" lon="2.537931">
        <ele>813.710</ele>
        <time>2021-05-27T08:30:17Z</time>
      </trkpt>
      <trkpt lat="41.997182" lon="2.537905">
        <ele>813.820</ele>
        <time>2021-05-27T08:30:19Z</time>
      </trkpt>
      <trkpt lat="41.997195" lon="2.537880">
        <ele>813.917</ele>
        <time>2021-05-27T08:30:21Z</time>
      </trkpt>
      <trkpt lat="41.997213" lon="2.537851">
        <ele>814.172</ele>
        <time>2021-05-27T08:30:23Z</time>
      </trkpt>
      <trkpt lat="41.997229" lon="2.537820">
        <ele>814.265</ele>
        <time>2021-05-27T08:30:25Z</time>
      </trkpt>
      <trkpt lat="41.997245" lon="2.537790">
        <ele>814.141</ele>
        <time>2021-05-27T08:30:28Z</time>
      </trkpt>
      <trkpt lat="41.997265" lon="2.537767">
        <ele>814.185</ele>
        <time>2021-05-27T08:30:30Z</time>
      </trkpt>
      <trkpt lat="41.997284" lon="2.537742">
        <ele>813.989</ele>
        <time>2021-05-27T08:30:32Z</time>
      </trkpt>
      <trkpt lat="41.997304" lon="2.537720">
        <ele>813.717</ele>
        <time>2021-05-27T08:30:34Z</time>
      </trkpt>
      <trkpt lat="41.997329" lon="2.537705">
        <ele>813.608</ele>
        <time>2021-05-27T08:30:36Z</time>
      </trkpt>
      <trkpt lat="41.997353" lon="2.537695">
        <ele>813.545</ele>
        <time>2021-05-27T08:30:38Z</time>
      </trkpt>
      <trkpt lat="41.997379" lon="2.537688">
        <ele>813.482</ele>
        <time>2021-05-27T08:30:40Z</time>
      </trkpt>
      <trkpt lat="41.997406" lon="2.537684">
        <ele>813.320</ele>
        <time>2021-05-27T08:30:41Z</time>
      </trkpt>
      <trkpt lat="41.997432" lon="2.537685">
        <ele>813.310</ele>
        <time>2021-05-27T08:30:43Z</time>
      </trkpt>
      <trkpt lat="41.997460" lon="2.537689">
        <ele>813.497</ele>
        <time>2021-05-27T08:30:46Z</time>
      </trkpt>
      <trkpt lat="41.997485" lon="2.537700">
        <ele>813.662</ele>
        <time>2021-05-27T08:30:48Z</time>
      </trkpt>
      <trkpt lat="41.997510" lon="2.537720">
        <ele>813.885</ele>
        <time>2021-05-27T08:30:50Z</time>
      </trkpt>
      <trkpt lat="41.997532" lon="2.537740">
        <ele>813.831</ele>
        <time>2021-05-27T08:30:51Z</time>
      </trkpt>
      <trkpt lat="41.997552" lon="2.537758">
        <ele>813.958</ele>
        <time>2021-05-27T08:30:53Z</time>
      </trkpt>
      <trkpt lat="41.997571" lon="2.537777">
        <ele>814.052</ele>
        <time>2021-05-27T08:30:55Z</time>
      </trkpt>
      <trkpt lat="41.997589" lon="2.537799">
        <ele>814.017</ele>
        <time>2021-05-27T08:30:57Z</time>
      </trkpt>
      <trkpt lat="41.997609" lon="2.537823">
        <ele>814.108</ele>
        <time>2021-05-27T08:30:59Z</time>
      </trkpt>
      <trkpt lat="41.997629" lon="2.537847">
        <ele>814.342</ele>
        <time>2021-05-27T08:31:01Z</time>
      </trkpt>
      <trkpt lat="41.997647" lon="2.537871">
        <ele>814.489</ele>
        <time>2021-05-27T08:31:03Z</time>
      </trkpt>
      <trkpt lat="41.997667" lon="2.537899">
        <ele>814.657</ele>
        <time>2021-05-27T08:31:05Z</time>
      </trkpt>
      <trkpt lat="41.997688" lon="2.537929">
        <ele>814.827</ele>
        <time>2021-05-27T08:31:07Z</time>
      </trkpt>
      <trkpt lat="41.997706" lon="2.537953">
        <ele>815.044</ele>
        <time>2021-05-27T08:31:10Z</time>
      </trkpt>
      <trkpt lat="41.997723" lon="2.537978">
        <ele>815.359</ele>
        <time>2021-05-27T08:31:12Z</time>
      </trkpt>
      <trkpt lat="41.997740" lon="2.538002">
        <ele>815.512</ele>
        <time>2021-05-27T08:31:13Z</time>
      </trkpt>
      <trkpt lat="41.997759" lon="2.538031">
        <ele>815.878</ele>
        <time>2021-05-27T08:31:15Z</time>
      </trkpt>
      <trkpt lat="41.997776" lon="2.538062">
        <ele>816.135</ele>
        <time>2021-05-27T08:31:17Z</time>
      </trkpt>
      <trkpt lat="41.997795" lon="2.538087">
        <ele>816.386</ele>
        <time>2021-05-27T08:31:19Z</time>
      </trkpt>
      <trkpt lat="41.997816" lon="2.538113">
        <ele>816.414</ele>
        <time>2021-05-27T08:31:21Z</time>
      </trkpt>
      <trkpt lat="41.997836" lon="2.538136">
        <ele>816.508</ele>
        <time>2021-05-27T08:31:24Z</time>
      </trkpt>
      <trkpt lat="41.997856" lon="2.538160">
        <ele>816.750</ele>
        <time>2021-05-27T08:31:26Z</time>
      </trkpt>
      <trkpt lat="41.997878" lon="2.538183">
        <ele>816.847</ele>
        <time>2021-05-27T08:31:28Z</time>
      </trkpt>
      <trkpt lat="41.997898" lon="2.538203">
        <ele>816.835</ele>
        <time>2021-05-27T08:31:29Z</time>
      </trkpt>
      <trkpt lat="41.997921" lon="2.538223">
        <ele>816.925</ele>
        <time>2021-05-27T08:31:32Z</time>
      </trkpt>
      <trkpt lat="41.997944" lon="2.538240">
        <ele>816.972</ele>
        <time>2021-05-27T08:31:33Z</time>
      </trkpt>
      <trkpt lat="41.997967" lon="2.538257">
        <ele>816.967</ele>
        <time>2021-05-27T08:31:35Z</time>
      </trkpt>
      <trkpt lat="41.997991" lon="2.538270">
        <ele>816.820</ele>
        <time>2021-05-27T08:31:38Z</time>
      </trkpt>
      <trkpt lat="41.998016" lon="2.538279">
        <ele>816.696</ele>
        <time>2021-05-27T08:31:39Z</time>
      </trkpt>
      <trkpt lat="41.998040" lon="2.538286">
        <ele>816.582</ele>
        <time>2021-05-27T08:31:42Z</time>
      </trkpt>
      <trkpt lat="41.998061" lon="2.538288">
        <ele>816.343</ele>
        <time>2021-05-27T08:31:43Z</time>
      </trkpt>
      <trkpt lat="41.998082" lon="2.538286">
        <ele>816.317</ele>
        <time>2021-05-27T08:31:45Z</time>
      </trkpt>
      <trkpt lat="41.998105" lon="2.538285">
        <ele>816.308</ele>
        <time>2021-05-27T08:31:48Z</time>
      </trkpt>
      <trkpt lat="41.998128" lon="2.538281">
        <ele>816.255</ele>
        <time>2021-05-27T08:31:49Z</time>
      </trkpt>
      <trkpt lat="41.998152" lon="2.538276">
        <ele>816.272</ele>
        <time>2021-05-27T08:31:51Z</time>
      </trkpt>
      <trkpt lat="41.998180" lon="2.538266">
        <ele>816.080</ele>
        <time>2021-05-27T08:31:54Z</time>
      </trkpt>
      <trkpt lat="41.998207" lon="2.538261">
        <ele>816.070</ele>
        <time>2021-05-27T08:31:56Z</time>
      </trkpt>
      <trkpt lat="41.998236" lon="2.538260">
        <ele>815.947</ele>
        <time>2021-05-27T08:31:58Z</time>
      </trkpt>
      <trkpt lat="41.998256" lon="2.538257">
        <ele>815.992</ele>
        <time>2021-05-27T08:32:00Z</time>
      </trkpt>
      <trkpt lat="41.998279" lon="2.538252">
        <ele>815.825</ele>
        <time>2021-05-27T08:32:02Z</time>
      </trkpt>
      <trkpt lat="41.998313" lon="2.538247">
        <ele>815.881</ele>
        <time>2021-05-27T08:32:05Z</time>
      </trkpt>
      <trkpt lat="41.998348" lon="2.538250">
        <ele>815.895</ele>
        <time>2021-05-27T08:32:06Z</time>
      </trkpt>
      <trkpt lat="41.998366" lon="2.538255">
        <ele>815.849</ele>
        <time>2021-05-27T08:32:07Z</time>
      </trkpt>
      <trkpt lat="41.998397" lon="2.538258">
        <ele>815.723</ele>
        <time>2021-05-27T08:32:09Z</time>
      </trkpt>
      <trkpt lat="41.998422" lon="2.538257">
        <ele>815.708</ele>
        <time>2021-05-27T08:32:11Z</time>
      </trkpt>
      <trkpt lat="41.998444" lon="2.538256">
        <ele>815.666</ele>
        <time>2021-05-27T08:32:13Z</time>
      </trkpt>
      <trkpt lat="41.998470" lon="2.538259">
        <ele>815.643</ele>
        <time>2021-05-27T08:32:15Z</time>
      </trkpt>
      <trkpt lat="41.998498" lon="2.538263">
        <ele>815.521</ele>
        <time>2021-05-27T08:32:17Z</time>
      </trkpt>
      <trkpt lat="41.998519" lon="2.538264">
        <ele>815.581</ele>
        <time>2021-05-27T08:32:19Z</time>
      </trkpt>
      <trkpt lat="41.998541" lon="2.538272">
        <ele>815.538</ele>
        <time>2021-05-27T08:32:21Z</time>
      </trkpt>
      <trkpt lat="41.998565" lon="2.538283">
        <ele>815.683</ele>
        <time>2021-05-27T08:32:24Z</time>
      </trkpt>
      <trkpt lat="41.998583" lon="2.538291">
        <ele>815.666</ele>
        <time>2021-05-27T08:32:26Z</time>
      </trkpt>
      <trkpt lat="41.998602" lon="2.538309">
        <ele>815.842</ele>
        <time>2021-05-27T08:32:29Z</time>
      </trkpt>
      <trkpt lat="41.998626" lon="2.538319">
        <ele>815.832</ele>
        <time>2021-05-27T08:32:31Z</time>
      </trkpt>
      <trkpt lat="41.998667" lon="2.538344">
        <ele>816.292</ele>
        <time>2021-05-27T08:32:32Z</time>
      </trkpt>
      <trkpt lat="41.998696" lon="2.538373">
        <ele>816.811</ele>
        <time>2021-05-27T08:32:34Z</time>
      </trkpt>
      <trkpt lat="41.998727" lon="2.538400">
        <ele>817.208</ele>
        <time>2021-05-27T08:32:36Z</time>
      </trkpt>
      <trkpt lat="41.998756" lon="2.538425">
        <ele>817.650</ele>
        <time>2021-05-27T08:32:38Z</time>
      </trkpt>
      <trkpt lat="41.998783" lon="2.538455">
        <ele>818.187</ele>
        <time>2021-05-27T08:32:40Z</time>
      </trkpt>
      <trkpt lat="41.998809" lon="2.538479">
        <ele>818.415</ele>
        <time>2021-05-27T08:32:42Z</time>
      </trkpt>
      <trkpt lat="41.998830" lon="2.538504">
        <ele>818.785</ele>
        <time>2021-05-27T08:32:45Z</time>
      </trkpt>
      <trkpt lat="41.998852" lon="2.538529">
        <ele>819.092</ele>
        <time>2021-05-27T08:32:47Z</time>
      </trkpt>
      <trkpt lat="41.998868" lon="2.538556">
        <ele>819.367</ele>
        <time>2021-05-27T08:32:49Z</time>
      </trkpt>
      <trkpt lat="41.998887" lon="2.538585">
        <ele>819.640</ele>
        <time>2021-05-27T08:32:51Z</time>
      </trkpt>
      <trkpt lat="41.998901" lon="2.538619">
        <ele>819.976</ele>
        <time>2021-05-27T08:32:53Z</time>
      </trkpt>
      <trkpt lat="41.998911" lon="2.538660">
        <ele>820.115</ele>
        <time>2021-05-27T08:32:54Z</time>
      </trkpt>
      <trkpt lat="41.998924" lon="2.538692">
        <ele>820.165</ele>
        <time>2021-05-27T08:32:56Z</time>
      </trkpt>
      <trkpt lat="41.998939" lon="2.538723">
        <ele>820.011</ele>
        <time>2021-05-27T08:32:58Z</time>
      </trkpt>
      <trkpt lat="41.998954" lon="2.538752">
        <ele>820.008</ele>
        <time>2021-05-27T08:33:00Z</time>
      </trkpt>
      <trkpt lat="41.998971" lon="2.538778">
        <ele>819.898</ele>
        <time>2021-05-27T08:33:02Z</time>
      </trkpt>
      <trkpt lat="41.998988" lon="2.538805">
        <ele>819.685</ele>
        <time>2021-05-27T08:33:04Z</time>
      </trkpt>
      <trkpt lat="41.999009" lon="2.538826">
        <ele>819.283</ele>
        <time>2021-05-27T08:33:06Z</time>
      </trkpt>
      <trkpt lat="41.999031" lon="2.538852">
        <ele>818.993</ele>
        <time>2021-05-27T08:33:08Z</time>
      </trkpt>
      <trkpt lat="41.999052" lon="2.538875">
        <ele>818.560</ele>
        <time>2021-05-27T08:33:10Z</time>
      </trkpt>
      <trkpt lat="41.999070" lon="2.538905">
        <ele>818.245</ele>
        <time>2021-05-27T08:33:12Z</time>
      </trkpt>
      <trkpt lat="41.999084" lon="2.538933">
        <ele>818.158</ele>
        <time>2021-05-27T08:33:14Z</time>
      </trkpt>
      <trkpt lat="41.999098" lon="2.538959">
        <ele>817.974</ele>
        <time>2021-05-27T08:33:16Z</time>
      </trkpt>
      <trkpt lat="41.999115" lon="2.538986">
        <ele>817.854</ele>
        <time>2021-05-27T08:33:19Z</time>
      </trkpt>
      <trkpt lat="41.999136" lon="2.539008">
        <ele>817.556</ele>
        <time>2021-05-27T08:33:20Z</time>
      </trkpt>
      <trkpt lat="41.999155" lon="2.539030">
        <ele>817.211</ele>
        <time>2021-05-27T08:33:22Z</time>
      </trkpt>
      <trkpt lat="41.999173" lon="2.539056">
        <ele>817.208</ele>
        <time>2021-05-27T08:33:24Z</time>
      </trkpt>
      <trkpt lat="41.999190" lon="2.539085">
        <ele>817.582</ele>
        <time>2021-05-27T08:33:26Z</time>
      </trkpt>
      <trkpt lat="41.999209" lon="2.539110">
        <ele>817.769</ele>
        <time>2021-05-27T08:33:28Z</time>
      </trkpt>
      <trkpt lat="41.999230" lon="2.539134">
        <ele>817.897</ele>
        <time>2021-05-27T08:33:30Z</time>
      </trkpt>
      <trkpt lat="41.999253" lon="2.539153">
        <ele>817.987</ele>
        <time>2021-05-27T08:33:32Z</time>
      </trkpt>
      <trkpt lat="41.999276" lon="2.539172">
        <ele>818.064</ele>
        <time>2021-05-27T08:33:34Z</time>
      </trkpt>
      <trkpt lat="41.999300" lon="2.539192">
        <ele>818.039</ele>
        <time>2021-05-27T08:33:37Z</time>
      </trkpt>
      <trkpt lat="41.999324" lon="2.539209">
        <ele>817.952</ele>
        <time>2021-05-27T08:33:38Z</time>
      </trkpt>
      <trkpt lat="41.999347" lon="2.539227">
        <ele>817.918</ele>
        <time>2021-05-27T08:33:41Z</time>
      </trkpt>
      <trkpt lat="41.999369" lon="2.539245">
        <ele>817.852</ele>
        <time>2021-05-27T08:33:43Z</time>
      </trkpt>
      <trkpt lat="41.999397" lon="2.539263">
        <ele>817.753</ele>
        <time>2021-05-27T08:33:45Z</time>
      </trkpt>
      <trkpt lat="41.999425" lon="2.539278">
        <ele>817.608</ele>
        <time>2021-05-27T08:33:47Z</time>
      </trkpt>
      <trkpt lat="41.999453" lon="2.539290">
        <ele>817.508</ele>
        <time>2021-05-27T08:33:48Z</time>
      </trkpt>
      <trkpt lat="41.999479" lon="2.539297">
        <ele>817.492</ele>
        <time>2021-05-27T08:33:50Z</time>
      </trkpt>
      <trkpt lat="41.999505" lon="2.539297">
        <ele>817.279</ele>
        <time>2021-05-27T08:33:52Z</time>
      </trkpt>
      <trkpt lat="41.999529" lon="2.539288">
        <ele>817.277</ele>
        <time>2021-05-27T08:33:54Z</time>
      </trkpt>
      <trkpt lat="41.999553" lon="2.539267">
        <ele>817.227</ele>
        <time>2021-05-27T08:33:56Z</time>
      </trkpt>
      <trkpt lat="41.999573" lon="2.539240">
        <ele>817.494</ele>
        <time>2021-05-27T08:33:58Z</time>
      </trkpt>
      <trkpt lat="41.999589" lon="2.539210">
        <ele>817.619</ele>
        <time>2021-05-27T08:34:00Z</time>
      </trkpt>
      <trkpt lat="41.999602" lon="2.539175">
        <ele>817.992</ele>
        <time>2021-05-27T08:34:02Z</time>
      </trkpt>
      <trkpt lat="41.999613" lon="2.539137">
        <ele>818.118</ele>
        <time>2021-05-27T08:34:04Z</time>
      </trkpt>
      <trkpt lat="41.999625" lon="2.539100">
        <ele>818.237</ele>
        <time>2021-05-27T08:34:06Z</time>
      </trkpt>
      <trkpt lat="41.999630" lon="2.539058">
        <ele>818.349</ele>
        <time>2021-05-27T08:34:08Z</time>
      </trkpt>
      <trkpt lat="41.999635" lon="2.539020">
        <ele>818.413</ele>
        <time>2021-05-27T08:34:10Z</time>
      </trkpt>
      <trkpt lat="41.999644" lon="2.538981">
        <ele>818.508</ele>
        <time>2021-05-27T08:34:12Z</time>
      </trkpt>
      <trkpt lat="41.999647" lon="2.538943">
        <ele>818.620</ele>
        <time>2021-05-27T08:34:15Z</time>
      </trkpt>
      <trkpt lat="41.999649" lon="2.538904">
        <ele>818.717</ele>
        <time>2021-05-27T08:34:17Z</time>
      </trkpt>
      <trkpt lat="41.999655" lon="2.538867">
        <ele>818.815</ele>
        <time>2021-05-27T08:34:19Z</time>
      </trkpt>
      <trkpt lat="41.999663" lon="2.538825">
        <ele>818.825</ele>
        <time>2021-05-27T08:34:21Z</time>
      </trkpt>
      <trkpt lat="41.999669" lon="2.538785">
        <ele>818.992</ele>
        <time>2021-05-27T08:34:23Z</time>
      </trkpt>
      <trkpt lat="41.999674" lon="2.538742">
        <ele>818.987</ele>
        <time>2021-05-27T08:34:25Z</time>
      </trkpt>
      <trkpt lat="41.999678" lon="2.538704">
        <ele>818.980</ele>
        <time>2021-05-27T08:34:27Z</time>
      </trkpt>
      <trkpt lat="41.999678" lon="2.538665">
        <ele>819.036</ele>
        <time>2021-05-27T08:34:29Z</time>
      </trkpt>
      <trkpt lat="41.999676" lon="2.538628">
        <ele>819.061</ele>
        <time>2021-05-27T08:34:31Z</time>
      </trkpt>
      <trkpt lat="41.999673" lon="2.538592">
        <ele>819.021</ele>
        <time>2021-05-27T08:34:32Z</time>
      </trkpt>
      <trkpt lat="41.999674" lon="2.538556">
        <ele>819.013</ele>
        <time>2021-05-27T08:34:35Z</time>
      </trkpt>
      <trkpt lat="41.999671" lon="2.538518">
        <ele>819.008</ele>
        <time>2021-05-27T08:34:36Z</time>
      </trkpt>
      <trkpt lat="41.999674" lon="2.538480">
        <ele>819.083</ele>
        <time>2021-05-27T08:34:38Z</time>
      </trkpt>
      <trkpt lat="41.999686" lon="2.538442">
        <ele>819.030</ele>
        <time>2021-05-27T08:34:40Z</time>
      </trkpt>
      <trkpt lat="41.999705" lon="2.538413">
        <ele>819.038</ele>
        <time>2021-05-27T08:34:42Z</time>
      </trkpt>
      <trkpt lat="41.999728" lon="2.538391">
        <ele>819.098</ele>
        <time>2021-05-27T08:34:44Z</time>
      </trkpt>
      <trkpt lat="41.999755" lon="2.538376">
        <ele>819.095</ele>
        <time>2021-05-27T08:34:46Z</time>
      </trkpt>
      <trkpt lat="41.999786" lon="2.538368">
        <ele>819.070</ele>
        <time>2021-05-27T08:34:48Z</time>
      </trkpt>
      <trkpt lat="41.999804" lon="2.538368">
        <ele>819.043</ele>
        <time>2021-05-27T08:34:49Z</time>
      </trkpt>
      <trkpt lat="41.999824" lon="2.538371">
        <ele>819.089</ele>
        <time>2021-05-27T08:34:50Z</time>
      </trkpt>
      <trkpt lat="41.999845" lon="2.538372">
        <ele>819.057</ele>
        <time>2021-05-27T08:34:51Z</time>
      </trkpt>
      <trkpt lat="41.999885" lon="2.538377">
        <ele>819.000</ele>
        <time>2021-05-27T08:34:53Z</time>
      </trkpt>
      <trkpt lat="41.999933" lon="2.538394">
        <ele>819.020</ele>
        <time>2021-05-27T08:34:55Z</time>
      </trkpt>
      <trkpt lat="41.999958" lon="2.538402">
        <ele>819.008</ele>
        <time>2021-05-27T08:34:56Z</time>
      </trkpt>
      <trkpt lat="41.999982" lon="2.538411">
        <ele>819.022</ele>
        <time>2021-05-27T08:34:57Z</time>
      </trkpt>
      <trkpt lat="42.000004" lon="2.538422">
        <ele>816.349</ele>
        <time>2021-05-27T08:34:58Z</time>
      </trkpt>
      <trkpt lat="42.000025" lon="2.538433">
        <ele>816.277</ele>
        <time>2021-05-27T08:34:59Z</time>
      </trkpt>
      <trkpt lat="42.000070" lon="2.538451">
        <ele>816.057</ele>
        <time>2021-05-27T08:35:01Z</time>
      </trkpt>
      <trkpt lat="42.000096" lon="2.538458">
        <ele>815.814</ele>
        <time>2021-05-27T08:35:03Z</time>
      </trkpt>
      <trkpt lat="42.000119" lon="2.538466">
        <ele>815.649</ele>
        <time>2021-05-27T08:35:04Z</time>
      </trkpt>
      <trkpt lat="42.000165" lon="2.538490">
        <ele>815.372</ele>
        <time>2021-05-27T08:35:05Z</time>
      </trkpt>
      <trkpt lat="42.000185" lon="2.538499">
        <ele>815.128</ele>
        <time>2021-05-27T08:35:06Z</time>
      </trkpt>
      <trkpt lat="42.000207" lon="2.538505">
        <ele>815.012</ele>
        <time>2021-05-27T08:35:07Z</time>
      </trkpt>
      <trkpt lat="42.000227" lon="2.538515">
        <ele>814.832</ele>
        <time>2021-05-27T08:35:08Z</time>
      </trkpt>
      <trkpt lat="42.000248" lon="2.538527">
        <ele>814.605</ele>
        <time>2021-05-27T08:35:09Z</time>
      </trkpt>
      <trkpt lat="42.000271" lon="2.538536">
        <ele>814.308</ele>
        <time>2021-05-27T08:35:10Z</time>
      </trkpt>
      <trkpt lat="42.000321" lon="2.538553">
        <ele>813.938</ele>
        <time>2021-05-27T08:35:12Z</time>
      </trkpt>
      <trkpt lat="42.000343" lon="2.538560">
        <ele>813.725</ele>
        <time>2021-05-27T08:35:14Z</time>
      </trkpt>
      <trkpt lat="42.000364" lon="2.538567">
        <ele>813.593</ele>
        <time>2021-05-27T08:35:15Z</time>
      </trkpt>
      <trkpt lat="42.000408" lon="2.538584">
        <ele>813.173</ele>
        <time>2021-05-27T08:35:16Z</time>
      </trkpt>
      <trkpt lat="42.000453" lon="2.538597">
        <ele>812.860</ele>
        <time>2021-05-27T08:35:18Z</time>
      </trkpt>
      <trkpt lat="42.000474" lon="2.538602">
        <ele>812.695</ele>
        <time>2021-05-27T08:35:19Z</time>
      </trkpt>
      <trkpt lat="42.000496" lon="2.538610">
        <ele>812.458</ele>
        <time>2021-05-27T08:35:20Z</time>
      </trkpt>
      <trkpt lat="42.000518" lon="2.538619">
        <ele>812.214</ele>
        <time>2021-05-27T08:35:21Z</time>
      </trkpt>
      <trkpt lat="42.000541" lon="2.538629">
        <ele>812.084</ele>
        <time>2021-05-27T08:35:22Z</time>
      </trkpt>
      <trkpt lat="42.000566" lon="2.538637">
        <ele>811.807</ele>
        <time>2021-05-27T08:35:23Z</time>
      </trkpt>
      <trkpt lat="42.000589" lon="2.538642">
        <ele>811.717</ele>
        <time>2021-05-27T08:35:24Z</time>
      </trkpt>
      <trkpt lat="42.000612" lon="2.538648">
        <ele>811.508</ele>
        <time>2021-05-27T08:35:25Z</time>
      </trkpt>
      <trkpt lat="42.000634" lon="2.538653">
        <ele>811.415</ele>
        <time>2021-05-27T08:35:26Z</time>
      </trkpt>
      <trkpt lat="42.000657" lon="2.538658">
        <ele>811.212</ele>
        <time>2021-05-27T08:35:27Z</time>
      </trkpt>
      <trkpt lat="42.000680" lon="2.538661">
        <ele>811.160</ele>
        <time>2021-05-27T08:35:28Z</time>
      </trkpt>
      <trkpt lat="42.000704" lon="2.538666">
        <ele>810.950</ele>
        <time>2021-05-27T08:35:29Z</time>
      </trkpt>
      <trkpt lat="42.000750" lon="2.538680">
        <ele>810.747</ele>
        <time>2021-05-27T08:35:31Z</time>
      </trkpt>
      <trkpt lat="42.000772" lon="2.538686">
        <ele>810.642</ele>
        <time>2021-05-27T08:35:32Z</time>
      </trkpt>
      <trkpt lat="42.000794" lon="2.538689">
        <ele>810.595</ele>
        <time>2021-05-27T08:35:33Z</time>
      </trkpt>
      <trkpt lat="42.000817" lon="2.538695">
        <ele>810.471</ele>
        <time>2021-05-27T08:35:34Z</time>
      </trkpt>
      <trkpt lat="42.000839" lon="2.538699">
        <ele>810.312</ele>
        <time>2021-05-27T08:35:35Z</time>
      </trkpt>
      <trkpt lat="42.000861" lon="2.538704">
        <ele>810.332</ele>
        <time>2021-05-27T08:35:36Z</time>
      </trkpt>
      <trkpt lat="42.000884" lon="2.538710">
        <ele>810.305</ele>
        <time>2021-05-27T08:35:37Z</time>
      </trkpt>
      <trkpt lat="42.000905" lon="2.538714">
        <ele>810.308</ele>
        <time>2021-05-27T08:35:38Z</time>
      </trkpt>
      <trkpt lat="42.000928" lon="2.538718">
        <ele>810.348</ele>
        <time>2021-05-27T08:35:39Z</time>
      </trkpt>
      <trkpt lat="42.000950" lon="2.538721">
        <ele>810.325</ele>
        <time>2021-05-27T08:35:40Z</time>
      </trkpt>
      <trkpt lat="42.000972" lon="2.538725">
        <ele>810.383</ele>
        <time>2021-05-27T08:35:41Z</time>
      </trkpt>
      <trkpt lat="42.000994" lon="2.538730">
        <ele>810.353</ele>
        <time>2021-05-27T08:35:42Z</time>
      </trkpt>
      <trkpt lat="42.001016" lon="2.538736">
        <ele>810.480</ele>
        <time>2021-05-27T08:35:43Z</time>
      </trkpt>
      <trkpt lat="42.001040" lon="2.538741">
        <ele>810.455</ele>
        <time>2021-05-27T08:35:44Z</time>
      </trkpt>
      <trkpt lat="42.001063" lon="2.538745">
        <ele>810.598</ele>
        <time>2021-05-27T08:35:46Z</time>
      </trkpt>
      <trkpt lat="42.001086" lon="2.538748">
        <ele>810.554</ele>
        <time>2021-05-27T08:35:47Z</time>
      </trkpt>
      <trkpt lat="42.001107" lon="2.538752">
        <ele>810.533</ele>
        <time>2021-05-27T08:35:48Z</time>
      </trkpt>
      <trkpt lat="42.001128" lon="2.538755">
        <ele>810.423</ele>
        <time>2021-05-27T08:35:49Z</time>
      </trkpt>
      <trkpt lat="42.001173" lon="2.538763">
        <ele>810.115</ele>
        <time>2021-05-27T08:35:50Z</time>
      </trkpt>
      <trkpt lat="42.001218" lon="2.538775">
        <ele>809.808</ele>
        <time>2021-05-27T08:35:52Z</time>
      </trkpt>
      <trkpt lat="42.001242" lon="2.538782">
        <ele>809.670</ele>
        <time>2021-05-27T08:35:53Z</time>
      </trkpt>
      <trkpt lat="42.001261" lon="2.538789">
        <ele>809.587</ele>
        <time>2021-05-27T08:35:54Z</time>
      </trkpt>
      <trkpt lat="42.001281" lon="2.538799">
        <ele>809.445</ele>
        <time>2021-05-27T08:35:55Z</time>
      </trkpt>
      <trkpt lat="42.001301" lon="2.538809">
        <ele>809.375</ele>
        <time>2021-05-27T08:35:56Z</time>
      </trkpt>
      <trkpt lat="42.001320" lon="2.538817">
        <ele>809.292</ele>
        <time>2021-05-27T08:35:57Z</time>
      </trkpt>
      <trkpt lat="42.001338" lon="2.538827">
        <ele>809.177</ele>
        <time>2021-05-27T08:35:58Z</time>
      </trkpt>
      <trkpt lat="42.001358" lon="2.538839">
        <ele>809.020</ele>
        <time>2021-05-27T08:35:59Z</time>
      </trkpt>
      <trkpt lat="42.001382" lon="2.538851">
        <ele>808.826</ele>
        <time>2021-05-27T08:36:01Z</time>
      </trkpt>
      <trkpt lat="42.001405" lon="2.538865">
        <ele>808.726</ele>
        <time>2021-05-27T08:36:02Z</time>
      </trkpt>
      <trkpt lat="42.001428" lon="2.538878">
        <ele>808.647</ele>
        <time>2021-05-27T08:36:03Z</time>
      </trkpt>
      <trkpt lat="42.001450" lon="2.538894">
        <ele>808.611</ele>
        <time>2021-05-27T08:36:04Z</time>
      </trkpt>
      <trkpt lat="42.001492" lon="2.538933">
        <ele>808.408</ele>
        <time>2021-05-27T08:36:05Z</time>
      </trkpt>
      <trkpt lat="42.001512" lon="2.538951">
        <ele>808.299</ele>
        <time>2021-05-27T08:36:06Z</time>
      </trkpt>
      <trkpt lat="42.001530" lon="2.538971">
        <ele>808.136</ele>
        <time>2021-05-27T08:36:07Z</time>
      </trkpt>
      <trkpt lat="42.001570" lon="2.539006">
        <ele>807.894</ele>
        <time>2021-05-27T08:36:09Z</time>
      </trkpt>
      <trkpt lat="42.001592" lon="2.539023">
        <ele>807.764</ele>
        <time>2021-05-27T08:36:10Z</time>
      </trkpt>
      <trkpt lat="42.001615" lon="2.539038">
        <ele>807.561</ele>
        <time>2021-05-27T08:36:11Z</time>
      </trkpt>
      <trkpt lat="42.001635" lon="2.539052">
        <ele>807.396</ele>
        <time>2021-05-27T08:36:12Z</time>
      </trkpt>
      <trkpt lat="42.001654" lon="2.539070">
        <ele>807.139</ele>
        <time>2021-05-27T08:36:13Z</time>
      </trkpt>
      <trkpt lat="42.001674" lon="2.539084">
        <ele>807.115</ele>
        <time>2021-05-27T08:36:15Z</time>
      </trkpt>
      <trkpt lat="42.001695" lon="2.539097">
        <ele>807.291</ele>
        <time>2021-05-27T08:36:16Z</time>
      </trkpt>
      <trkpt lat="42.001732" lon="2.539124">
        <ele>807.581</ele>
        <time>2021-05-27T08:36:17Z</time>
      </trkpt>
      <trkpt lat="42.001752" lon="2.539134">
        <ele>807.619</ele>
        <time>2021-05-27T08:36:18Z</time>
      </trkpt>
      <trkpt lat="42.001776" lon="2.539147">
        <ele>807.808</ele>
        <time>2021-05-27T08:36:19Z</time>
      </trkpt>
      <trkpt lat="42.001798" lon="2.539161">
        <ele>807.956</ele>
        <time>2021-05-27T08:36:20Z</time>
      </trkpt>
      <trkpt lat="42.001820" lon="2.539173">
        <ele>807.983</ele>
        <time>2021-05-27T08:36:21Z</time>
      </trkpt>
      <trkpt lat="42.001838" lon="2.539187">
        <ele>807.791</ele>
        <time>2021-05-27T08:36:23Z</time>
      </trkpt>
      <trkpt lat="42.001862" lon="2.539204">
        <ele>807.411</ele>
        <time>2021-05-27T08:36:24Z</time>
      </trkpt>
      <trkpt lat="42.001887" lon="2.539216">
        <ele>807.378</ele>
        <time>2021-05-27T08:36:25Z</time>
      </trkpt>
      <trkpt lat="42.001911" lon="2.539226">
        <ele>807.223</ele>
        <time>2021-05-27T08:36:26Z</time>
      </trkpt>
      <trkpt lat="42.001953" lon="2.539249">
        <ele>807.046</ele>
        <time>2021-05-27T08:36:27Z</time>
      </trkpt>
      <trkpt lat="42.001997" lon="2.539268">
        <ele>806.892</ele>
        <time>2021-05-27T08:36:29Z</time>
      </trkpt>
      <trkpt lat="42.002017" lon="2.539277">
        <ele>806.825</ele>
        <time>2021-05-27T08:36:30Z</time>
      </trkpt>
      <trkpt lat="42.002038" lon="2.539288">
        <ele>806.726</ele>
        <time>2021-05-27T08:36:31Z</time>
      </trkpt>
      <trkpt lat="42.002060" lon="2.539301">
        <ele>806.608</ele>
        <time>2021-05-27T08:36:32Z</time>
      </trkpt>
      <trkpt lat="42.002079" lon="2.539311">
        <ele>806.608</ele>
        <time>2021-05-27T08:36:33Z</time>
      </trkpt>
      <trkpt lat="42.002099" lon="2.539321">
        <ele>806.619</ele>
        <time>2021-05-27T08:36:34Z</time>
      </trkpt>
      <trkpt lat="42.002120" lon="2.539331">
        <ele>806.626</ele>
        <time>2021-05-27T08:36:35Z</time>
      </trkpt>
      <trkpt lat="42.002143" lon="2.539338">
        <ele>806.754</ele>
        <time>2021-05-27T08:36:36Z</time>
      </trkpt>
      <trkpt lat="42.002167" lon="2.539346">
        <ele>806.894</ele>
        <time>2021-05-27T08:36:37Z</time>
      </trkpt>
      <trkpt lat="42.002188" lon="2.539354">
        <ele>806.931</ele>
        <time>2021-05-27T08:36:38Z</time>
      </trkpt>
      <trkpt lat="42.002211" lon="2.539360">
        <ele>807.156</ele>
        <time>2021-05-27T08:36:39Z</time>
      </trkpt>
      <trkpt lat="42.002235" lon="2.539364">
        <ele>807.219</ele>
        <time>2021-05-27T08:36:40Z</time>
      </trkpt>
      <trkpt lat="42.002261" lon="2.539363">
        <ele>807.295</ele>
        <time>2021-05-27T08:36:41Z</time>
      </trkpt>
      <trkpt lat="42.002283" lon="2.539362">
        <ele>807.243</ele>
        <time>2021-05-27T08:36:42Z</time>
      </trkpt>
      <trkpt lat="42.002304" lon="2.539361">
        <ele>807.264</ele>
        <time>2021-05-27T08:36:43Z</time>
      </trkpt>
      <trkpt lat="42.002323" lon="2.539358">
        <ele>807.210</ele>
        <time>2021-05-27T08:36:44Z</time>
      </trkpt>
      <trkpt lat="42.002343" lon="2.539359">
        <ele>807.208</ele>
        <time>2021-05-27T08:36:45Z</time>
      </trkpt>
      <trkpt lat="42.002390" lon="2.539358">
        <ele>807.251</ele>
        <time>2021-05-27T08:36:47Z</time>
      </trkpt>
      <trkpt lat="42.002414" lon="2.539355">
        <ele>807.348</ele>
        <time>2021-05-27T08:36:48Z</time>
      </trkpt>
      <trkpt lat="42.002462" lon="2.539349">
        <ele>807.496</ele>
        <time>2021-05-27T08:36:50Z</time>
      </trkpt>
      <trkpt lat="42.002510" lon="2.539345">
        <ele>807.466</ele>
        <time>2021-05-27T08:36:52Z</time>
      </trkpt>
      <trkpt lat="42.002535" lon="2.539342">
        <ele>807.223</ele>
        <time>2021-05-27T08:36:53Z</time>
      </trkpt>
      <trkpt lat="42.002560" lon="2.539340">
        <ele>807.128</ele>
        <time>2021-05-27T08:36:54Z</time>
      </trkpt>
      <trkpt lat="42.002605" lon="2.539332">
        <ele>806.981</ele>
        <time>2021-05-27T08:36:56Z</time>
      </trkpt>
      <trkpt lat="42.002629" lon="2.539327">
        <ele>806.837</ele>
        <time>2021-05-27T08:36:58Z</time>
      </trkpt>
      <trkpt lat="42.002653" lon="2.539321">
        <ele>806.763</ele>
        <time>2021-05-27T08:36:59Z</time>
      </trkpt>
      <trkpt lat="42.002675" lon="2.539320">
        <ele>806.544</ele>
        <time>2021-05-27T08:37:00Z</time>
      </trkpt>
      <trkpt lat="42.002724" lon="2.539317">
        <ele>806.218</ele>
        <time>2021-05-27T08:37:01Z</time>
      </trkpt>
      <trkpt lat="42.002751" lon="2.539316">
        <ele>806.008</ele>
        <time>2021-05-27T08:37:02Z</time>
      </trkpt>
      <trkpt lat="42.002774" lon="2.539315">
        <ele>805.943</ele>
        <time>2021-05-27T08:37:04Z</time>
      </trkpt>
      <trkpt lat="42.002794" lon="2.539315">
        <ele>805.930</ele>
        <time>2021-05-27T08:37:05Z</time>
      </trkpt>
      <trkpt lat="42.002814" lon="2.539314">
        <ele>805.918</ele>
        <time>2021-05-27T08:37:06Z</time>
      </trkpt>
      <trkpt lat="42.002864" lon="2.539322">
        <ele>805.948</ele>
        <time>2021-05-27T08:37:07Z</time>
      </trkpt>
      <trkpt lat="42.002889" lon="2.539326">
        <ele>805.995</ele>
        <time>2021-05-27T08:37:09Z</time>
      </trkpt>
      <trkpt lat="42.002939" lon="2.539337">
        <ele>805.960</ele>
        <time>2021-05-27T08:37:10Z</time>
      </trkpt>
      <trkpt lat="42.002962" lon="2.539345">
        <ele>805.933</ele>
        <time>2021-05-27T08:37:11Z</time>
      </trkpt>
      <trkpt lat="42.002984" lon="2.539350">
        <ele>805.959</ele>
        <time>2021-05-27T08:37:12Z</time>
      </trkpt>
      <trkpt lat="42.003006" lon="2.539361">
        <ele>805.814</ele>
        <time>2021-05-27T08:37:13Z</time>
      </trkpt>
      <trkpt lat="42.003028" lon="2.539374">
        <ele>805.754</ele>
        <time>2021-05-27T08:37:15Z</time>
      </trkpt>
      <trkpt lat="42.003049" lon="2.539388">
        <ele>805.609</ele>
        <time>2021-05-27T08:37:16Z</time>
      </trkpt>
      <trkpt lat="42.003069" lon="2.539402">
        <ele>805.408</ele>
        <time>2021-05-27T08:37:17Z</time>
      </trkpt>
      <trkpt lat="42.003089" lon="2.539412">
        <ele>805.348</ele>
        <time>2021-05-27T08:37:18Z</time>
      </trkpt>
      <trkpt lat="42.003112" lon="2.539422">
        <ele>805.225</ele>
        <time>2021-05-27T08:37:19Z</time>
      </trkpt>
      <trkpt lat="42.003135" lon="2.539431">
        <ele>805.173</ele>
        <time>2021-05-27T08:37:20Z</time>
      </trkpt>
      <trkpt lat="42.003156" lon="2.539445">
        <ele>805.023</ele>
        <time>2021-05-27T08:37:21Z</time>
      </trkpt>
      <trkpt lat="42.003196" lon="2.539469">
        <ele>804.590</ele>
        <time>2021-05-27T08:37:22Z</time>
      </trkpt>
      <trkpt lat="42.003252" lon="2.539502">
        <ele>804.165</ele>
        <time>2021-05-27T08:37:25Z</time>
      </trkpt>
      <trkpt lat="42.003273" lon="2.539510">
        <ele>804.078</ele>
        <time>2021-05-27T08:37:26Z</time>
      </trkpt>
      <trkpt lat="42.003294" lon="2.539519">
        <ele>804.084</ele>
        <time>2021-05-27T08:37:27Z</time>
      </trkpt>
      <trkpt lat="42.003315" lon="2.539527">
        <ele>804.069</ele>
        <time>2021-05-27T08:37:28Z</time>
      </trkpt>
      <trkpt lat="42.003336" lon="2.539540">
        <ele>804.004</ele>
        <time>2021-05-27T08:37:29Z</time>
      </trkpt>
      <trkpt lat="42.003357" lon="2.539552">
        <ele>803.824</ele>
        <time>2021-05-27T08:37:31Z</time>
      </trkpt>
      <trkpt lat="42.003399" lon="2.539577">
        <ele>803.608</ele>
        <time>2021-05-27T08:37:32Z</time>
      </trkpt>
      <trkpt lat="42.003419" lon="2.539591">
        <ele>803.463</ele>
        <time>2021-05-27T08:37:33Z</time>
      </trkpt>
      <trkpt lat="42.003439" lon="2.539605">
        <ele>803.370</ele>
        <time>2021-05-27T08:37:34Z</time>
      </trkpt>
      <trkpt lat="42.003459" lon="2.539619">
        <ele>803.288</ele>
        <time>2021-05-27T08:37:35Z</time>
      </trkpt>
      <trkpt lat="42.003480" lon="2.539633">
        <ele>803.238</ele>
        <time>2021-05-27T08:37:36Z</time>
      </trkpt>
      <trkpt lat="42.003500" lon="2.539644">
        <ele>803.165</ele>
        <time>2021-05-27T08:37:37Z</time>
      </trkpt>
      <trkpt lat="42.003542" lon="2.539669">
        <ele>803.060</ele>
        <time>2021-05-27T08:37:39Z</time>
      </trkpt>
      <trkpt lat="42.003564" lon="2.539680">
        <ele>803.053</ele>
        <time>2021-05-27T08:37:40Z</time>
      </trkpt>
      <trkpt lat="42.003585" lon="2.539693">
        <ele>803.039</ele>
        <time>2021-05-27T08:37:42Z</time>
      </trkpt>
      <trkpt lat="42.003603" lon="2.539705">
        <ele>803.041</ele>
        <time>2021-05-27T08:37:43Z</time>
      </trkpt>
      <trkpt lat="42.003644" lon="2.539737">
        <ele>802.781</ele>
        <time>2021-05-27T08:37:44Z</time>
      </trkpt>
      <trkpt lat="42.003665" lon="2.539753">
        <ele>802.509</ele>
        <time>2021-05-27T08:37:45Z</time>
      </trkpt>
      <trkpt lat="42.003685" lon="2.539770">
        <ele>802.308</ele>
        <time>2021-05-27T08:37:46Z</time>
      </trkpt>
      <trkpt lat="42.003704" lon="2.539786">
        <ele>802.111</ele>
        <time>2021-05-27T08:37:47Z</time>
      </trkpt>
      <trkpt lat="42.003723" lon="2.539804">
        <ele>802.028</ele>
        <time>2021-05-27T08:37:48Z</time>
      </trkpt>
      <trkpt lat="42.003743" lon="2.539823">
        <ele>801.996</ele>
        <time>2021-05-27T08:37:49Z</time>
      </trkpt>
      <trkpt lat="42.003763" lon="2.539841">
        <ele>801.986</ele>
        <time>2021-05-27T08:37:50Z</time>
      </trkpt>
      <trkpt lat="42.003783" lon="2.539861">
        <ele>801.943</ele>
        <time>2021-05-27T08:37:51Z</time>
      </trkpt>
      <trkpt lat="42.003802" lon="2.539876">
        <ele>802.088</ele>
        <time>2021-05-27T08:37:52Z</time>
      </trkpt>
      <trkpt lat="42.003823" lon="2.539891">
        <ele>802.141</ele>
        <time>2021-05-27T08:37:53Z</time>
      </trkpt>
      <trkpt lat="42.003843" lon="2.539903">
        <ele>802.327</ele>
        <time>2021-05-27T08:37:54Z</time>
      </trkpt>
      <trkpt lat="42.003862" lon="2.539919">
        <ele>802.584</ele>
        <time>2021-05-27T08:37:55Z</time>
      </trkpt>
      <trkpt lat="42.003880" lon="2.539935">
        <ele>802.707</ele>
        <time>2021-05-27T08:37:56Z</time>
      </trkpt>
      <trkpt lat="42.003900" lon="2.539951">
        <ele>802.817</ele>
        <time>2021-05-27T08:37:57Z</time>
      </trkpt>
      <trkpt lat="42.003919" lon="2.539969">
        <ele>802.908</ele>
        <time>2021-05-27T08:37:58Z</time>
      </trkpt>
      <trkpt lat="42.003939" lon="2.539985">
        <ele>802.975</ele>
        <time>2021-05-27T08:38:00Z</time>
      </trkpt>
      <trkpt lat="42.003981" lon="2.540011">
        <ele>803.052</ele>
        <time>2021-05-27T08:38:01Z</time>
      </trkpt>
      <trkpt lat="42.004023" lon="2.540034">
        <ele>803.130</ele>
        <time>2021-05-27T08:38:03Z</time>
      </trkpt>
      <trkpt lat="42.004042" lon="2.540044">
        <ele>803.210</ele>
        <time>2021-05-27T08:38:04Z</time>
      </trkpt>
      <trkpt lat="42.004060" lon="2.540052">
        <ele>803.397</ele>
        <time>2021-05-27T08:38:05Z</time>
      </trkpt>
      <trkpt lat="42.004088" lon="2.540076">
        <ele>803.542</ele>
        <time>2021-05-27T08:38:07Z</time>
      </trkpt>
      <trkpt lat="42.004114" lon="2.540094">
        <ele>803.825</ele>
        <time>2021-05-27T08:38:09Z</time>
      </trkpt>
      <trkpt lat="42.004140" lon="2.540109">
        <ele>804.021</ele>
        <time>2021-05-27T08:38:11Z</time>
      </trkpt>
      <trkpt lat="42.004165" lon="2.540126">
        <ele>804.455</ele>
        <time>2021-05-27T08:38:14Z</time>
      </trkpt>
      <trkpt lat="42.004189" lon="2.540143">
        <ele>804.607</ele>
        <time>2021-05-27T08:38:16Z</time>
      </trkpt>
      <trkpt lat="42.004213" lon="2.540158">
        <ele>804.917</ele>
        <time>2021-05-27T08:38:17Z</time>
      </trkpt>
      <trkpt lat="42.004240" lon="2.540172">
        <ele>805.108</ele>
        <time>2021-05-27T08:38:19Z</time>
      </trkpt>
      <trkpt lat="42.004264" lon="2.540189">
        <ele>805.482</ele>
        <time>2021-05-27T08:38:21Z</time>
      </trkpt>
      <trkpt lat="42.004288" lon="2.540209">
        <ele>805.749</ele>
        <time>2021-05-27T08:38:23Z</time>
      </trkpt>
      <trkpt lat="42.004313" lon="2.540224">
        <ele>805.927</ele>
        <time>2021-05-27T08:38:26Z</time>
      </trkpt>
      <trkpt lat="42.004337" lon="2.540242">
        <ele>806.257</ele>
        <time>2021-05-27T08:38:28Z</time>
      </trkpt>
      <trkpt lat="42.004359" lon="2.540266">
        <ele>806.624</ele>
        <time>2021-05-27T08:38:30Z</time>
      </trkpt>
      <trkpt lat="42.004383" lon="2.540291">
        <ele>806.849</ele>
        <time>2021-05-27T08:38:31Z</time>
      </trkpt>
      <trkpt lat="42.004407" lon="2.540321">
        <ele>806.972</ele>
        <time>2021-05-27T08:38:34Z</time>
      </trkpt>
      <trkpt lat="42.004430" lon="2.540348">
        <ele>806.958</ele>
        <time>2021-05-27T08:38:36Z</time>
      </trkpt>
      <trkpt lat="42.004451" lon="2.540375">
        <ele>807.034</ele>
        <time>2021-05-27T08:38:38Z</time>
      </trkpt>
      <trkpt lat="42.004470" lon="2.540406">
        <ele>806.955</ele>
        <time>2021-05-27T08:38:39Z</time>
      </trkpt>
      <trkpt lat="42.004487" lon="2.540438">
        <ele>806.910</ele>
        <time>2021-05-27T08:38:41Z</time>
      </trkpt>
      <trkpt lat="42.004505" lon="2.540471">
        <ele>806.908</ele>
        <time>2021-05-27T08:38:43Z</time>
      </trkpt>
      <trkpt lat="42.004524" lon="2.540501">
        <ele>806.920</ele>
        <time>2021-05-27T08:38:45Z</time>
      </trkpt>
      <trkpt lat="42.004543" lon="2.540532">
        <ele>806.977</ele>
        <time>2021-05-27T08:38:47Z</time>
      </trkpt>
      <trkpt lat="42.004562" lon="2.540566">
        <ele>807.015</ele>
        <time>2021-05-27T08:38:49Z</time>
      </trkpt>
      <trkpt lat="42.004581" lon="2.540597">
        <ele>807.165</ele>
        <time>2021-05-27T08:38:51Z</time>
      </trkpt>
      <trkpt lat="42.004602" lon="2.540625">
        <ele>807.122</ele>
        <time>2021-05-27T08:38:53Z</time>
      </trkpt>
      <trkpt lat="42.004623" lon="2.540656">
        <ele>807.297</ele>
        <time>2021-05-27T08:38:55Z</time>
      </trkpt>
      <trkpt lat="42.004643" lon="2.540685">
        <ele>807.380</ele>
        <time>2021-05-27T08:38:57Z</time>
      </trkpt>
      <trkpt lat="42.004659" lon="2.540718">
        <ele>807.596</ele>
        <time>2021-05-27T08:38:59Z</time>
      </trkpt>
      <trkpt lat="42.004674" lon="2.540751">
        <ele>807.625</ele>
        <time>2021-05-27T08:39:01Z</time>
      </trkpt>
      <trkpt lat="42.004691" lon="2.540784">
        <ele>807.726</ele>
        <time>2021-05-27T08:39:03Z</time>
      </trkpt>
      <trkpt lat="42.004709" lon="2.540819">
        <ele>807.908</ele>
        <time>2021-05-27T08:39:05Z</time>
      </trkpt>
      <trkpt lat="42.004728" lon="2.540847">
        <ele>808.108</ele>
        <time>2021-05-27T08:39:07Z</time>
      </trkpt>
      <trkpt lat="42.004748" lon="2.540877">
        <ele>808.279</ele>
        <time>2021-05-27T08:39:09Z</time>
      </trkpt>
      <trkpt lat="42.004769" lon="2.540907">
        <ele>808.436</ele>
        <time>2021-05-27T08:39:11Z</time>
      </trkpt>
      <trkpt lat="42.004789" lon="2.540937">
        <ele>808.654</ele>
        <time>2021-05-27T08:39:13Z</time>
      </trkpt>
      <trkpt lat="42.004809" lon="2.540962">
        <ele>808.844</ele>
        <time>2021-05-27T08:39:15Z</time>
      </trkpt>
      <trkpt lat="42.004830" lon="2.540994">
        <ele>809.041</ele>
        <time>2021-05-27T08:39:17Z</time>
      </trkpt>
      <trkpt lat="42.004856" lon="2.541018">
        <ele>809.296</ele>
        <time>2021-05-27T08:39:19Z</time>
      </trkpt>
      <trkpt lat="42.004880" lon="2.541040">
        <ele>809.369</ele>
        <time>2021-05-27T08:39:22Z</time>
      </trkpt>
      <trkpt lat="42.004901" lon="2.541067">
        <ele>809.675</ele>
        <time>2021-05-27T08:39:23Z</time>
      </trkpt>
      <trkpt lat="42.004920" lon="2.541090">
        <ele>809.894</ele>
        <time>2021-05-27T08:39:25Z</time>
      </trkpt>
      <trkpt lat="42.004942" lon="2.541115">
        <ele>810.057</ele>
        <time>2021-05-27T08:39:27Z</time>
      </trkpt>
      <trkpt lat="42.004964" lon="2.541140">
        <ele>810.322</ele>
        <time>2021-05-27T08:39:29Z</time>
      </trkpt>
      <trkpt lat="42.004992" lon="2.541160">
        <ele>810.508</ele>
        <time>2021-05-27T08:39:31Z</time>
      </trkpt>
      <trkpt lat="42.005017" lon="2.541184">
        <ele>810.826</ele>
        <time>2021-05-27T08:39:33Z</time>
      </trkpt>
      <trkpt lat="42.005038" lon="2.541207">
        <ele>811.073</ele>
        <time>2021-05-27T08:39:35Z</time>
      </trkpt>
      <trkpt lat="42.005061" lon="2.541230">
        <ele>811.331</ele>
        <time>2021-05-27T08:39:38Z</time>
      </trkpt>
      <trkpt lat="42.005086" lon="2.541254">
        <ele>811.591</ele>
        <time>2021-05-27T08:39:39Z</time>
      </trkpt>
      <trkpt lat="42.005107" lon="2.541282">
        <ele>811.878</ele>
        <time>2021-05-27T08:39:41Z</time>
      </trkpt>
      <trkpt lat="42.005129" lon="2.541307">
        <ele>812.163</ele>
        <time>2021-05-27T08:39:43Z</time>
      </trkpt>
      <trkpt lat="42.005153" lon="2.541328">
        <ele>812.326</ele>
        <time>2021-05-27T08:39:45Z</time>
      </trkpt>
      <trkpt lat="42.005172" lon="2.541357">
        <ele>812.752</ele>
        <time>2021-05-27T08:39:47Z</time>
      </trkpt>
      <trkpt lat="42.005195" lon="2.541384">
        <ele>812.918</ele>
        <time>2021-05-27T08:39:49Z</time>
      </trkpt>
      <trkpt lat="42.005219" lon="2.541410">
        <ele>813.298</ele>
        <time>2021-05-27T08:39:51Z</time>
      </trkpt>
      <trkpt lat="42.005243" lon="2.541431">
        <ele>813.317</ele>
        <time>2021-05-27T08:39:53Z</time>
      </trkpt>
      <trkpt lat="42.005264" lon="2.541453">
        <ele>813.508</ele>
        <time>2021-05-27T08:39:55Z</time>
      </trkpt>
      <trkpt lat="42.005286" lon="2.541481">
        <ele>813.668</ele>
        <time>2021-05-27T08:39:57Z</time>
      </trkpt>
      <trkpt lat="42.005303" lon="2.541512">
        <ele>813.815</ele>
        <time>2021-05-27T08:40:00Z</time>
      </trkpt>
      <trkpt lat="42.005323" lon="2.541545">
        <ele>814.013</ele>
        <time>2021-05-27T08:40:02Z</time>
      </trkpt>
      <trkpt lat="42.005344" lon="2.541576">
        <ele>814.173</ele>
        <time>2021-05-27T08:40:03Z</time>
      </trkpt>
      <trkpt lat="42.005363" lon="2.541608">
        <ele>814.350</ele>
        <time>2021-05-27T08:40:05Z</time>
      </trkpt>
      <trkpt lat="42.005378" lon="2.541644">
        <ele>814.545</ele>
        <time>2021-05-27T08:40:07Z</time>
      </trkpt>
      <trkpt lat="42.005396" lon="2.541673">
        <ele>814.668</ele>
        <time>2021-05-27T08:40:09Z</time>
      </trkpt>
      <trkpt lat="42.005416" lon="2.541707">
        <ele>814.634</ele>
        <time>2021-05-27T08:40:11Z</time>
      </trkpt>
      <trkpt lat="42.005427" lon="2.541726">
        <ele>814.662</ele>
        <time>2021-05-27T08:40:12Z</time>
      </trkpt>
      <trkpt lat="42.005447" lon="2.541763">
        <ele>814.683</ele>
        <time>2021-05-27T08:40:14Z</time>
      </trkpt>
      <trkpt lat="42.005466" lon="2.541797">
        <ele>814.611</ele>
        <time>2021-05-27T08:40:16Z</time>
      </trkpt>
      <trkpt lat="42.005478" lon="2.541815">
        <ele>814.708</ele>
        <time>2021-05-27T08:40:18Z</time>
      </trkpt>
      <trkpt lat="42.005498" lon="2.541850">
        <ele>814.713</ele>
        <time>2021-05-27T08:40:20Z</time>
      </trkpt>
      <trkpt lat="42.005511" lon="2.541883">
        <ele>814.880</ele>
        <time>2021-05-27T08:40:21Z</time>
      </trkpt>
      <trkpt lat="42.005530" lon="2.541913">
        <ele>814.978</ele>
        <time>2021-05-27T08:40:23Z</time>
      </trkpt>
      <trkpt lat="42.005546" lon="2.541948">
        <ele>815.068</ele>
        <time>2021-05-27T08:40:26Z</time>
      </trkpt>
      <trkpt lat="42.005562" lon="2.541982">
        <ele>814.845</ele>
        <time>2021-05-27T08:40:28Z</time>
      </trkpt>
      <trkpt lat="42.005583" lon="2.542008">
        <ele>814.650</ele>
        <time>2021-05-27T08:40:30Z</time>
      </trkpt>
      <trkpt lat="42.005606" lon="2.542034">
        <ele>814.513</ele>
        <time>2021-05-27T08:40:32Z</time>
      </trkpt>
      <trkpt lat="42.005629" lon="2.542063">
        <ele>814.439</ele>
        <time>2021-05-27T08:40:34Z</time>
      </trkpt>
      <trkpt lat="42.005650" lon="2.542094">
        <ele>814.332</ele>
        <time>2021-05-27T08:40:35Z</time>
      </trkpt>
      <trkpt lat="42.005672" lon="2.542118">
        <ele>814.392</ele>
        <time>2021-05-27T08:40:37Z</time>
      </trkpt>
      <trkpt lat="42.005694" lon="2.542141">
        <ele>814.411</ele>
        <time>2021-05-27T08:40:39Z</time>
      </trkpt>
      <trkpt lat="42.005718" lon="2.542161">
        <ele>814.408</ele>
        <time>2021-05-27T08:40:41Z</time>
      </trkpt>
      <trkpt lat="42.005740" lon="2.542190">
        <ele>814.540</ele>
        <time>2021-05-27T08:40:43Z</time>
      </trkpt>
      <trkpt lat="42.005762" lon="2.542226">
        <ele>814.857</ele>
        <time>2021-05-27T08:40:45Z</time>
      </trkpt>
      <trkpt lat="42.005783" lon="2.542259">
        <ele>815.075</ele>
        <time>2021-05-27T08:40:47Z</time>
      </trkpt>
      <trkpt lat="42.005806" lon="2.542287">
        <ele>815.165</ele>
        <time>2021-05-27T08:40:49Z</time>
      </trkpt>
      <trkpt lat="42.005826" lon="2.542321">
        <ele>815.332</ele>
        <time>2021-05-27T08:40:51Z</time>
      </trkpt>
      <trkpt lat="42.005849" lon="2.542348">
        <ele>815.447</ele>
        <time>2021-05-27T08:40:54Z</time>
      </trkpt>
      <trkpt lat="42.005868" lon="2.542384">
        <ele>815.590</ele>
        <time>2021-05-27T08:40:56Z</time>
      </trkpt>
      <trkpt lat="42.005888" lon="2.542419">
        <ele>815.736</ele>
        <time>2021-05-27T08:40:57Z</time>
      </trkpt>
      <trkpt lat="42.005907" lon="2.542452">
        <ele>815.855</ele>
        <time>2021-05-27T08:40:59Z</time>
      </trkpt>
      <trkpt lat="42.005924" lon="2.542485">
        <ele>815.907</ele>
        <time>2021-05-27T08:41:01Z</time>
      </trkpt>
      <trkpt lat="42.005945" lon="2.542514">
        <ele>816.117</ele>
        <time>2021-05-27T08:41:03Z</time>
      </trkpt>
      <trkpt lat="42.005966" lon="2.542539">
        <ele>816.308</ele>
        <time>2021-05-27T08:41:05Z</time>
      </trkpt>
      <trkpt lat="42.005992" lon="2.542568">
        <ele>816.532</ele>
        <time>2021-05-27T08:41:08Z</time>
      </trkpt>
      <trkpt lat="42.006011" lon="2.542599">
        <ele>816.659</ele>
        <time>2021-05-27T08:41:10Z</time>
      </trkpt>
      <trkpt lat="42.006041" lon="2.542655">
        <ele>816.857</ele>
        <time>2021-05-27T08:41:12Z</time>
      </trkpt>
      <trkpt lat="42.006067" lon="2.542687">
        <ele>816.997</ele>
        <time>2021-05-27T08:41:15Z</time>
      </trkpt>
      <trkpt lat="42.006090" lon="2.542716">
        <ele>816.934</ele>
        <time>2021-05-27T08:41:17Z</time>
      </trkpt>
      <trkpt lat="42.006111" lon="2.542742">
        <ele>816.929</ele>
        <time>2021-05-27T08:41:19Z</time>
      </trkpt>
      <trkpt lat="42.006133" lon="2.542773">
        <ele>816.882</ele>
        <time>2021-05-27T08:41:21Z</time>
      </trkpt>
      <trkpt lat="42.006153" lon="2.542802">
        <ele>816.968</ele>
        <time>2021-05-27T08:41:23Z</time>
      </trkpt>
      <trkpt lat="42.006171" lon="2.542831">
        <ele>817.012</ele>
        <time>2021-05-27T08:41:25Z</time>
      </trkpt>
      <trkpt lat="42.006188" lon="2.542858">
        <ele>817.032</ele>
        <time>2021-05-27T08:41:27Z</time>
      </trkpt>
      <trkpt lat="42.006206" lon="2.542890">
        <ele>817.105</ele>
        <time>2021-05-27T08:41:29Z</time>
      </trkpt>
      <trkpt lat="42.006225" lon="2.542922">
        <ele>817.208</ele>
        <time>2021-05-27T08:41:31Z</time>
      </trkpt>
      <trkpt lat="42.006245" lon="2.542952">
        <ele>817.378</ele>
        <time>2021-05-27T08:41:32Z</time>
      </trkpt>
      <trkpt lat="42.006261" lon="2.542988">
        <ele>817.415</ele>
        <time>2021-05-27T08:41:34Z</time>
      </trkpt>
      <trkpt lat="42.006277" lon="2.543024">
        <ele>817.643</ele>
        <time>2021-05-27T08:41:36Z</time>
      </trkpt>
      <trkpt lat="42.006296" lon="2.543059">
        <ele>817.713</ele>
        <time>2021-05-27T08:41:38Z</time>
      </trkpt>
      <trkpt lat="42.006314" lon="2.543093">
        <ele>817.810</ele>
        <time>2021-05-27T08:41:41Z</time>
      </trkpt>
      <trkpt lat="42.006333" lon="2.543125">
        <ele>817.975</ele>
        <time>2021-05-27T08:41:43Z</time>
      </trkpt>
      <trkpt lat="42.006352" lon="2.543158">
        <ele>818.088</ele>
        <time>2021-05-27T08:41:45Z</time>
      </trkpt>
      <trkpt lat="42.006373" lon="2.543190">
        <ele>818.134</ele>
        <time>2021-05-27T08:41:47Z</time>
      </trkpt>
      <trkpt lat="42.006392" lon="2.543226">
        <ele>818.246</ele>
        <time>2021-05-27T08:41:48Z</time>
      </trkpt>
      <trkpt lat="42.006413" lon="2.543263">
        <ele>818.388</ele>
        <time>2021-05-27T08:41:51Z</time>
      </trkpt>
      <trkpt lat="42.006437" lon="2.543296">
        <ele>818.416</ele>
        <time>2021-05-27T08:41:52Z</time>
      </trkpt>
      <trkpt lat="42.006464" lon="2.543332">
        <ele>818.408</ele>
        <time>2021-05-27T08:41:54Z</time>
      </trkpt>
      <trkpt lat="42.006479" lon="2.543350">
        <ele>818.481</ele>
        <time>2021-05-27T08:41:55Z</time>
      </trkpt>
      <trkpt lat="42.006494" lon="2.543374">
        <ele>818.488</ele>
        <time>2021-05-27T08:41:56Z</time>
      </trkpt>
      <trkpt lat="42.006511" lon="2.543396">
        <ele>818.496</ele>
        <time>2021-05-27T08:41:57Z</time>
      </trkpt>
      <trkpt lat="42.006527" lon="2.543417">
        <ele>818.536</ele>
        <time>2021-05-27T08:41:58Z</time>
      </trkpt>
      <trkpt lat="42.006544" lon="2.543436">
        <ele>818.593</ele>
        <time>2021-05-27T08:41:59Z</time>
      </trkpt>
      <trkpt lat="42.006563" lon="2.543461">
        <ele>818.578</ele>
        <time>2021-05-27T08:42:00Z</time>
      </trkpt>
      <trkpt lat="42.006584" lon="2.543485">
        <ele>818.561</ele>
        <time>2021-05-27T08:42:01Z</time>
      </trkpt>
      <trkpt lat="42.006606" lon="2.543505">
        <ele>818.527</ele>
        <time>2021-05-27T08:42:02Z</time>
      </trkpt>
      <trkpt lat="42.006624" lon="2.543525">
        <ele>818.612</ele>
        <time>2021-05-27T08:42:03Z</time>
      </trkpt>
      <trkpt lat="42.006645" lon="2.543542">
        <ele>818.632</ele>
        <time>2021-05-27T08:42:04Z</time>
      </trkpt>
      <trkpt lat="42.006665" lon="2.543565">
        <ele>818.705</ele>
        <time>2021-05-27T08:42:05Z</time>
      </trkpt>
      <trkpt lat="42.006685" lon="2.543587">
        <ele>818.708</ele>
        <time>2021-05-27T08:42:06Z</time>
      </trkpt>
      <trkpt lat="42.006705" lon="2.543606">
        <ele>818.768</ele>
        <time>2021-05-27T08:42:07Z</time>
      </trkpt>
      <trkpt lat="42.006722" lon="2.543626">
        <ele>818.825</ele>
        <time>2021-05-27T08:42:08Z</time>
      </trkpt>
      <trkpt lat="42.006756" lon="2.543661">
        <ele>818.893</ele>
        <time>2021-05-27T08:42:10Z</time>
      </trkpt>
      <trkpt lat="42.006774" lon="2.543680">
        <ele>818.933</ele>
        <time>2021-05-27T08:42:12Z</time>
      </trkpt>
      <trkpt lat="42.006794" lon="2.543697">
        <ele>818.910</ele>
        <time>2021-05-27T08:42:13Z</time>
      </trkpt>
      <trkpt lat="42.006812" lon="2.543713">
        <ele>818.975</ele>
        <time>2021-05-27T08:42:14Z</time>
      </trkpt>
      <trkpt lat="42.006828" lon="2.543736">
        <ele>818.948</ele>
        <time>2021-05-27T08:42:15Z</time>
      </trkpt>
      <trkpt lat="42.006844" lon="2.543756">
        <ele>819.094</ele>
        <time>2021-05-27T08:42:16Z</time>
      </trkpt>
      <trkpt lat="42.006860" lon="2.543779">
        <ele>819.022</ele>
        <time>2021-05-27T08:42:17Z</time>
      </trkpt>
      <trkpt lat="42.006879" lon="2.543799">
        <ele>819.062</ele>
        <time>2021-05-27T08:42:18Z</time>
      </trkpt>
      <trkpt lat="42.006895" lon="2.543820">
        <ele>819.008</ele>
        <time>2021-05-27T08:42:19Z</time>
      </trkpt>
      <trkpt lat="42.006915" lon="2.543842">
        <ele>819.008</ele>
        <time>2021-05-27T08:42:20Z</time>
      </trkpt>
      <trkpt lat="42.006936" lon="2.543861">
        <ele>818.939</ele>
        <time>2021-05-27T08:42:21Z</time>
      </trkpt>
      <trkpt lat="42.006954" lon="2.543880">
        <ele>818.966</ele>
        <time>2021-05-27T08:42:22Z</time>
      </trkpt>
      <trkpt lat="42.006970" lon="2.543898">
        <ele>819.054</ele>
        <time>2021-05-27T08:42:23Z</time>
      </trkpt>
      <trkpt lat="42.006985" lon="2.543922">
        <ele>819.234</ele>
        <time>2021-05-27T08:42:24Z</time>
      </trkpt>
      <trkpt lat="42.007002" lon="2.543950">
        <ele>819.491</ele>
        <time>2021-05-27T08:42:25Z</time>
      </trkpt>
      <trkpt lat="42.007018" lon="2.543975">
        <ele>819.686</ele>
        <time>2021-05-27T08:42:26Z</time>
      </trkpt>
      <trkpt lat="42.007056" lon="2.544016">
        <ele>819.829</ele>
        <time>2021-05-27T08:42:27Z</time>
      </trkpt>
      <trkpt lat="42.007074" lon="2.544037">
        <ele>819.965</ele>
        <time>2021-05-27T08:42:29Z</time>
      </trkpt>
      <trkpt lat="42.007091" lon="2.544061">
        <ele>820.037</ele>
        <time>2021-05-27T08:42:30Z</time>
      </trkpt>
      <trkpt lat="42.007109" lon="2.544082">
        <ele>820.149</ele>
        <time>2021-05-27T08:42:31Z</time>
      </trkpt>
      <trkpt lat="42.007129" lon="2.544097">
        <ele>820.113</ele>
        <time>2021-05-27T08:42:32Z</time>
      </trkpt>
      <trkpt lat="42.007148" lon="2.544112">
        <ele>820.108</ele>
        <time>2021-05-27T08:42:33Z</time>
      </trkpt>
      <trkpt lat="42.007168" lon="2.544129">
        <ele>820.190</ele>
        <time>2021-05-27T08:42:34Z</time>
      </trkpt>
      <trkpt lat="42.007187" lon="2.544146">
        <ele>820.127</ele>
        <time>2021-05-27T08:42:35Z</time>
      </trkpt>
      <trkpt lat="42.007207" lon="2.544165">
        <ele>820.165</ele>
        <time>2021-05-27T08:42:36Z</time>
      </trkpt>
      <trkpt lat="42.007225" lon="2.544187">
        <ele>820.115</ele>
        <time>2021-05-27T08:42:37Z</time>
      </trkpt>
      <trkpt lat="42.007243" lon="2.544209">
        <ele>820.222</ele>
        <time>2021-05-27T08:42:38Z</time>
      </trkpt>
      <trkpt lat="42.007260" lon="2.544230">
        <ele>820.267</ele>
        <time>2021-05-27T08:42:39Z</time>
      </trkpt>
      <trkpt lat="42.007277" lon="2.544252">
        <ele>820.250</ele>
        <time>2021-05-27T08:42:40Z</time>
      </trkpt>
      <trkpt lat="42.007297" lon="2.544273">
        <ele>820.256</ele>
        <time>2021-05-27T08:42:41Z</time>
      </trkpt>
      <trkpt lat="42.007317" lon="2.544295">
        <ele>820.284</ele>
        <time>2021-05-27T08:42:42Z</time>
      </trkpt>
      <trkpt lat="42.007334" lon="2.544318">
        <ele>820.307</ele>
        <time>2021-05-27T08:42:43Z</time>
      </trkpt>
      <trkpt lat="42.007349" lon="2.544343">
        <ele>820.417</ele>
        <time>2021-05-27T08:42:44Z</time>
      </trkpt>
      <trkpt lat="42.007363" lon="2.544365">
        <ele>820.408</ele>
        <time>2021-05-27T08:42:45Z</time>
      </trkpt>
      <trkpt lat="42.007382" lon="2.544383">
        <ele>820.415</ele>
        <time>2021-05-27T08:42:46Z</time>
      </trkpt>
      <trkpt lat="42.007425" lon="2.544428">
        <ele>820.492</ele>
        <time>2021-05-27T08:42:47Z</time>
      </trkpt>
      <trkpt lat="42.007462" lon="2.544472">
        <ele>820.510</ele>
        <time>2021-05-27T08:42:49Z</time>
      </trkpt>
      <trkpt lat="42.007482" lon="2.544492">
        <ele>820.590</ele>
        <time>2021-05-27T08:42:51Z</time>
      </trkpt>
      <trkpt lat="42.007503" lon="2.544512">
        <ele>820.527</ele>
        <time>2021-05-27T08:42:52Z</time>
      </trkpt>
      <trkpt lat="42.007525" lon="2.544532">
        <ele>820.542</ele>
        <time>2021-05-27T08:42:53Z</time>
      </trkpt>
      <trkpt lat="42.007546" lon="2.544553">
        <ele>820.625</ele>
        <time>2021-05-27T08:42:54Z</time>
      </trkpt>
      <trkpt lat="42.007568" lon="2.544577">
        <ele>820.611</ele>
        <time>2021-05-27T08:42:55Z</time>
      </trkpt>
      <trkpt lat="42.007588" lon="2.544600">
        <ele>820.634</ele>
        <time>2021-05-27T08:42:56Z</time>
      </trkpt>
      <trkpt lat="42.007610" lon="2.544621">
        <ele>820.655</ele>
        <time>2021-05-27T08:42:57Z</time>
      </trkpt>
      <trkpt lat="42.007628" lon="2.544641">
        <ele>820.610</ele>
        <time>2021-05-27T08:42:58Z</time>
      </trkpt>
      <trkpt lat="42.007649" lon="2.544661">
        <ele>820.608</ele>
        <time>2021-05-27T08:42:59Z</time>
      </trkpt>
      <trkpt lat="42.007665" lon="2.544682">
        <ele>820.620</ele>
        <time>2021-05-27T08:43:00Z</time>
      </trkpt>
      <trkpt lat="42.007684" lon="2.544704">
        <ele>820.677</ele>
        <time>2021-05-27T08:43:01Z</time>
      </trkpt>
      <trkpt lat="42.007702" lon="2.544725">
        <ele>820.655</ele>
        <time>2021-05-27T08:43:02Z</time>
      </trkpt>
      <trkpt lat="42.007721" lon="2.544748">
        <ele>820.615</ele>
        <time>2021-05-27T08:43:03Z</time>
      </trkpt>
      <trkpt lat="42.007758" lon="2.544787">
        <ele>820.612</ele>
        <time>2021-05-27T08:43:04Z</time>
      </trkpt>
      <trkpt lat="42.007775" lon="2.544801">
        <ele>820.617</ele>
        <time>2021-05-27T08:43:05Z</time>
      </trkpt>
      <trkpt lat="42.007806" lon="2.544833">
        <ele>820.730</ele>
        <time>2021-05-27T08:43:07Z</time>
      </trkpt>
      <trkpt lat="42.007823" lon="2.544854">
        <ele>820.816</ele>
        <time>2021-05-27T08:43:08Z</time>
      </trkpt>
      <trkpt lat="42.007859" lon="2.544900">
        <ele>821.083</ele>
        <time>2021-05-27T08:43:10Z</time>
      </trkpt>
      <trkpt lat="42.007874" lon="2.544925">
        <ele>821.125</ele>
        <time>2021-05-27T08:43:11Z</time>
      </trkpt>
      <trkpt lat="42.007889" lon="2.544948">
        <ele>821.217</ele>
        <time>2021-05-27T08:43:12Z</time>
      </trkpt>
      <trkpt lat="42.007908" lon="2.544969">
        <ele>821.308</ele>
        <time>2021-05-27T08:43:13Z</time>
      </trkpt>
      <trkpt lat="42.007923" lon="2.544990">
        <ele>821.475</ele>
        <time>2021-05-27T08:43:14Z</time>
      </trkpt>
      <trkpt lat="42.007944" lon="2.545010">
        <ele>821.492</ele>
        <time>2021-05-27T08:43:15Z</time>
      </trkpt>
      <trkpt lat="42.007962" lon="2.545029">
        <ele>821.420</ele>
        <time>2021-05-27T08:43:16Z</time>
      </trkpt>
      <trkpt lat="42.007980" lon="2.545054">
        <ele>821.550</ele>
        <time>2021-05-27T08:43:17Z</time>
      </trkpt>
      <trkpt lat="42.007999" lon="2.545076">
        <ele>821.597</ele>
        <time>2021-05-27T08:43:18Z</time>
      </trkpt>
      <trkpt lat="42.008017" lon="2.545099">
        <ele>821.522</ele>
        <time>2021-05-27T08:43:19Z</time>
      </trkpt>
      <trkpt lat="42.008037" lon="2.545120">
        <ele>821.555</ele>
        <time>2021-05-27T08:43:20Z</time>
      </trkpt>
      <trkpt lat="42.008057" lon="2.545143">
        <ele>821.581</ele>
        <time>2021-05-27T08:43:21Z</time>
      </trkpt>
      <trkpt lat="42.008076" lon="2.545164">
        <ele>821.489</ele>
        <time>2021-05-27T08:43:22Z</time>
      </trkpt>
      <trkpt lat="42.008096" lon="2.545185">
        <ele>821.406</ele>
        <time>2021-05-27T08:43:23Z</time>
      </trkpt>
      <trkpt lat="42.008118" lon="2.545205">
        <ele>821.326</ele>
        <time>2021-05-27T08:43:24Z</time>
      </trkpt>
      <trkpt lat="42.008156" lon="2.545245">
        <ele>821.208</ele>
        <time>2021-05-27T08:43:26Z</time>
      </trkpt>
      <trkpt lat="42.008174" lon="2.545260">
        <ele>821.125</ele>
        <time>2021-05-27T08:43:27Z</time>
      </trkpt>
      <trkpt lat="42.008191" lon="2.545278">
        <ele>821.062</ele>
        <time>2021-05-27T08:43:29Z</time>
      </trkpt>
      <trkpt lat="42.008209" lon="2.545298">
        <ele>821.020</ele>
        <time>2021-05-27T08:43:30Z</time>
      </trkpt>
      <trkpt lat="42.008225" lon="2.545320">
        <ele>820.920</ele>
        <time>2021-05-27T08:43:31Z</time>
      </trkpt>
      <trkpt lat="42.008242" lon="2.545341">
        <ele>820.927</ele>
        <time>2021-05-27T08:43:32Z</time>
      </trkpt>
      <trkpt lat="42.008260" lon="2.545367">
        <ele>820.832</ele>
        <time>2021-05-27T08:43:33Z</time>
      </trkpt>
      <trkpt lat="42.008276" lon="2.545393">
        <ele>820.855</ele>
        <time>2021-05-27T08:43:34Z</time>
      </trkpt>
      <trkpt lat="42.008294" lon="2.545415">
        <ele>820.821</ele>
        <time>2021-05-27T08:43:35Z</time>
      </trkpt>
      <trkpt lat="42.008314" lon="2.545433">
        <ele>820.722</ele>
        <time>2021-05-27T08:43:36Z</time>
      </trkpt>
      <trkpt lat="42.008333" lon="2.545453">
        <ele>820.662</ele>
        <time>2021-05-27T08:43:37Z</time>
      </trkpt>
      <trkpt lat="42.008349" lon="2.545474">
        <ele>820.608</ele>
        <time>2021-05-27T08:43:38Z</time>
      </trkpt>
      <trkpt lat="42.008365" lon="2.545496">
        <ele>820.508</ele>
        <time>2021-05-27T08:43:39Z</time>
      </trkpt>
      <trkpt lat="42.008379" lon="2.545518">
        <ele>820.519</ele>
        <time>2021-05-27T08:43:40Z</time>
      </trkpt>
      <trkpt lat="42.008394" lon="2.545542">
        <ele>820.546</ele>
        <time>2021-05-27T08:43:41Z</time>
      </trkpt>
      <trkpt lat="42.008412" lon="2.545566">
        <ele>820.564</ele>
        <time>2021-05-27T08:43:42Z</time>
      </trkpt>
      <trkpt lat="42.008431" lon="2.545587">
        <ele>820.694</ele>
        <time>2021-05-27T08:43:43Z</time>
      </trkpt>
      <trkpt lat="42.008477" lon="2.545620">
        <ele>820.561</ele>
        <time>2021-05-27T08:43:44Z</time>
      </trkpt>
      <trkpt lat="42.008500" lon="2.545636">
        <ele>820.666</ele>
        <time>2021-05-27T08:43:46Z</time>
      </trkpt>
      <trkpt lat="42.008523" lon="2.545653">
        <ele>820.629</ele>
        <time>2021-05-27T08:43:47Z</time>
      </trkpt>
      <trkpt lat="42.008543" lon="2.545669">
        <ele>820.625</ele>
        <time>2021-05-27T08:43:48Z</time>
      </trkpt>
      <trkpt lat="42.008584" lon="2.545698">
        <ele>820.722</ele>
        <time>2021-05-27T08:43:49Z</time>
      </trkpt>
      <trkpt lat="42.008604" lon="2.545709">
        <ele>820.762</ele>
        <time>2021-05-27T08:43:50Z</time>
      </trkpt>
      <trkpt lat="42.008622" lon="2.545720">
        <ele>820.808</ele>
        <time>2021-05-27T08:43:52Z</time>
      </trkpt>
      <trkpt lat="42.008642" lon="2.545731">
        <ele>820.808</ele>
        <time>2021-05-27T08:43:53Z</time>
      </trkpt>
      <trkpt lat="42.008664" lon="2.545743">
        <ele>820.929</ele>
        <time>2021-05-27T08:43:54Z</time>
      </trkpt>
      <trkpt lat="42.008713" lon="2.545767">
        <ele>821.056</ele>
        <time>2021-05-27T08:43:55Z</time>
      </trkpt>
      <trkpt lat="42.008737" lon="2.545776">
        <ele>821.064</ele>
        <time>2021-05-27T08:43:57Z</time>
      </trkpt>
      <trkpt lat="42.008760" lon="2.545791">
        <ele>821.124</ele>
        <time>2021-05-27T08:43:58Z</time>
      </trkpt>
      <trkpt lat="42.008785" lon="2.545800">
        <ele>821.121</ele>
        <time>2021-05-27T08:43:59Z</time>
      </trkpt>
      <trkpt lat="42.008809" lon="2.545809">
        <ele>821.136</ele>
        <time>2021-05-27T08:44:00Z</time>
      </trkpt>
      <trkpt lat="42.008858" lon="2.545837">
        <ele>821.229</ele>
        <time>2021-05-27T08:44:01Z</time>
      </trkpt>
      <trkpt lat="42.008877" lon="2.545847">
        <ele>821.275</ele>
        <time>2021-05-27T08:44:02Z</time>
      </trkpt>
      <trkpt lat="42.008922" lon="2.545861">
        <ele>821.356</ele>
        <time>2021-05-27T08:44:04Z</time>
      </trkpt>
      <trkpt lat="42.008975" lon="2.545874">
        <ele>821.459</ele>
        <time>2021-05-27T08:44:06Z</time>
      </trkpt>
      <trkpt lat="42.009001" lon="2.545886">
        <ele>821.514</ele>
        <time>2021-05-27T08:44:07Z</time>
      </trkpt>
      <trkpt lat="42.009028" lon="2.545897">
        <ele>821.608</ele>
        <time>2021-05-27T08:44:08Z</time>
      </trkpt>
      <trkpt lat="42.009055" lon="2.545909">
        <ele>821.752</ele>
        <time>2021-05-27T08:44:09Z</time>
      </trkpt>
      <trkpt lat="42.009082" lon="2.545922">
        <ele>821.799</ele>
        <time>2021-05-27T08:44:11Z</time>
      </trkpt>
      <trkpt lat="42.009102" lon="2.545935">
        <ele>821.897</ele>
        <time>2021-05-27T08:44:12Z</time>
      </trkpt>
      <trkpt lat="42.009124" lon="2.545944">
        <ele>821.997</ele>
        <time>2021-05-27T08:44:13Z</time>
      </trkpt>
      <trkpt lat="42.009145" lon="2.545954">
        <ele>821.914</ele>
        <time>2021-05-27T08:44:14Z</time>
      </trkpt>
      <trkpt lat="42.009168" lon="2.545964">
        <ele>821.969</ele>
        <time>2021-05-27T08:44:15Z</time>
      </trkpt>
      <trkpt lat="42.009193" lon="2.545979">
        <ele>821.932</ele>
        <time>2021-05-27T08:44:16Z</time>
      </trkpt>
      <trkpt lat="42.009216" lon="2.545995">
        <ele>821.848</ele>
        <time>2021-05-27T08:44:17Z</time>
      </trkpt>
      <trkpt lat="42.009235" lon="2.546015">
        <ele>821.899</ele>
        <time>2021-05-27T08:44:18Z</time>
      </trkpt>
      <trkpt lat="42.009255" lon="2.546031">
        <ele>821.807</ele>
        <time>2021-05-27T08:44:19Z</time>
      </trkpt>
      <trkpt lat="42.009276" lon="2.546042">
        <ele>821.727</ele>
        <time>2021-05-27T08:44:20Z</time>
      </trkpt>
      <trkpt lat="42.009294" lon="2.546062">
        <ele>821.708</ele>
        <time>2021-05-27T08:44:21Z</time>
      </trkpt>
      <trkpt lat="42.009315" lon="2.546078">
        <ele>821.776</ele>
        <time>2021-05-27T08:44:22Z</time>
      </trkpt>
      <trkpt lat="42.009358" lon="2.546113">
        <ele>821.673</ele>
        <time>2021-05-27T08:44:23Z</time>
      </trkpt>
      <trkpt lat="42.009394" lon="2.546161">
        <ele>821.911</ele>
        <time>2021-05-27T08:44:25Z</time>
      </trkpt>
      <trkpt lat="42.009413" lon="2.546179">
        <ele>822.051</ele>
        <time>2021-05-27T08:44:26Z</time>
      </trkpt>
      <trkpt lat="42.009433" lon="2.546194">
        <ele>822.098</ele>
        <time>2021-05-27T08:44:27Z</time>
      </trkpt>
      <trkpt lat="42.009455" lon="2.546201">
        <ele>821.923</ele>
        <time>2021-05-27T08:44:28Z</time>
      </trkpt>
      <trkpt lat="42.009474" lon="2.546214">
        <ele>822.056</ele>
        <time>2021-05-27T08:44:29Z</time>
      </trkpt>
      <trkpt lat="42.009491" lon="2.546230">
        <ele>822.162</ele>
        <time>2021-05-27T08:44:31Z</time>
      </trkpt>
      <trkpt lat="42.009527" lon="2.546258">
        <ele>822.327</ele>
        <time>2021-05-27T08:44:32Z</time>
      </trkpt>
      <trkpt lat="42.009545" lon="2.546272">
        <ele>822.468</ele>
        <time>2021-05-27T08:44:33Z</time>
      </trkpt>
      <trkpt lat="42.009565" lon="2.546291">
        <ele>822.514</ele>
        <time>2021-05-27T08:44:34Z</time>
      </trkpt>
      <trkpt lat="42.009586" lon="2.546306">
        <ele>822.608</ele>
        <time>2021-05-27T08:44:35Z</time>
      </trkpt>
      <trkpt lat="42.009608" lon="2.546320">
        <ele>822.779</ele>
        <time>2021-05-27T08:44:36Z</time>
      </trkpt>
      <trkpt lat="42.009628" lon="2.546338">
        <ele>822.876</ele>
        <time>2021-05-27T08:44:37Z</time>
      </trkpt>
      <trkpt lat="42.009649" lon="2.546356">
        <ele>822.954</ele>
        <time>2021-05-27T08:44:38Z</time>
      </trkpt>
      <trkpt lat="42.009673" lon="2.546371">
        <ele>823.094</ele>
        <time>2021-05-27T08:44:39Z</time>
      </trkpt>
      <trkpt lat="42.009694" lon="2.546388">
        <ele>823.121</ele>
        <time>2021-05-27T08:44:40Z</time>
      </trkpt>
      <trkpt lat="42.009725" lon="2.546431">
        <ele>823.296</ele>
        <time>2021-05-27T08:44:42Z</time>
      </trkpt>
      <trkpt lat="42.009741" lon="2.546453">
        <ele>823.179</ele>
        <time>2021-05-27T08:44:44Z</time>
      </trkpt>
      <trkpt lat="42.009774" lon="2.546499">
        <ele>822.735</ele>
        <time>2021-05-27T08:44:45Z</time>
      </trkpt>
      <trkpt lat="42.009791" lon="2.546521">
        <ele>822.533</ele>
        <time>2021-05-27T08:44:46Z</time>
      </trkpt>
      <trkpt lat="42.009807" lon="2.546543">
        <ele>822.323</ele>
        <time>2021-05-27T08:44:47Z</time>
      </trkpt>
      <trkpt lat="42.009825" lon="2.546564">
        <ele>822.015</ele>
        <time>2021-05-27T08:44:48Z</time>
      </trkpt>
      <trkpt lat="42.009843" lon="2.546580">
        <ele>821.808</ele>
        <time>2021-05-27T08:44:49Z</time>
      </trkpt>
      <trkpt lat="42.009861" lon="2.546598">
        <ele>821.590</ele>
        <time>2021-05-27T08:44:50Z</time>
      </trkpt>
      <trkpt lat="42.009874" lon="2.546622">
        <ele>821.447</ele>
        <time>2021-05-27T08:44:52Z</time>
      </trkpt>
      <trkpt lat="42.009887" lon="2.546646">
        <ele>821.385</ele>
        <time>2021-05-27T08:44:53Z</time>
      </trkpt>
      <trkpt lat="42.009903" lon="2.546666">
        <ele>821.175</ele>
        <time>2021-05-27T08:44:54Z</time>
      </trkpt>
      <trkpt lat="42.009924" lon="2.546715">
        <ele>820.912</ele>
        <time>2021-05-27T08:44:55Z</time>
      </trkpt>
      <trkpt lat="42.009935" lon="2.546754">
        <ele>821.097</ele>
        <time>2021-05-27T08:44:57Z</time>
      </trkpt>
      <trkpt lat="42.009952" lon="2.546806">
        <ele>821.030</ele>
        <time>2021-05-27T08:44:59Z</time>
      </trkpt>
      <trkpt lat="42.009971" lon="2.546866">
        <ele>821.036</ele>
        <time>2021-05-27T08:45:01Z</time>
      </trkpt>
      <trkpt lat="42.009979" lon="2.546902">
        <ele>821.146</ele>
        <time>2021-05-27T08:45:02Z</time>
      </trkpt>
      <trkpt lat="42.009984" lon="2.546933">
        <ele>821.288</ele>
        <time>2021-05-27T08:45:03Z</time>
      </trkpt>
      <trkpt lat="42.009988" lon="2.546965">
        <ele>821.216</ele>
        <time>2021-05-27T08:45:04Z</time>
      </trkpt>
      <trkpt lat="42.009992" lon="2.546997">
        <ele>821.108</ele>
        <time>2021-05-27T08:45:05Z</time>
      </trkpt>
      <trkpt lat="42.009996" lon="2.547031">
        <ele>821.171</ele>
        <time>2021-05-27T08:45:06Z</time>
      </trkpt>
      <trkpt lat="42.010003" lon="2.547067">
        <ele>820.998</ele>
        <time>2021-05-27T08:45:07Z</time>
      </trkpt>
      <trkpt lat="42.010014" lon="2.547098">
        <ele>820.426</ele>
        <time>2021-05-27T08:45:08Z</time>
      </trkpt>
      <trkpt lat="42.010023" lon="2.547129">
        <ele>820.016</ele>
        <time>2021-05-27T08:45:09Z</time>
      </trkpt>
      <trkpt lat="42.010031" lon="2.547160">
        <ele>819.723</ele>
        <time>2021-05-27T08:45:10Z</time>
      </trkpt>
      <trkpt lat="42.010041" lon="2.547192">
        <ele>819.398</ele>
        <time>2021-05-27T08:45:11Z</time>
      </trkpt>
      <trkpt lat="42.010051" lon="2.547224">
        <ele>819.011</ele>
        <time>2021-05-27T08:45:13Z</time>
      </trkpt>
      <trkpt lat="42.010056" lon="2.547284">
        <ele>819.537</ele>
        <time>2021-05-27T08:45:14Z</time>
      </trkpt>
      <trkpt lat="42.010059" lon="2.547313">
        <ele>819.637</ele>
        <time>2021-05-27T08:45:15Z</time>
      </trkpt>
      <trkpt lat="42.010071" lon="2.547368">
        <ele>819.849</ele>
        <time>2021-05-27T08:45:17Z</time>
      </trkpt>
      <trkpt lat="42.010081" lon="2.547400">
        <ele>819.713</ele>
        <time>2021-05-27T08:45:18Z</time>
      </trkpt>
      <trkpt lat="42.010090" lon="2.547434">
        <ele>819.708</ele>
        <time>2021-05-27T08:45:19Z</time>
      </trkpt>
      <trkpt lat="42.010100" lon="2.547466">
        <ele>819.760</ele>
        <time>2021-05-27T08:45:21Z</time>
      </trkpt>
      <trkpt lat="42.010113" lon="2.547597">
        <ele>820.037</ele>
        <time>2021-05-27T08:45:24Z</time>
      </trkpt>
      <trkpt lat="42.010137" lon="2.547728">
        <ele>819.855</ele>
        <time>2021-05-27T08:45:29Z</time>
      </trkpt>
      <trkpt lat="42.010197" lon="2.547839">
        <ele>819.095</ele>
        <time>2021-05-27T08:45:35Z</time>
      </trkpt>
      <trkpt lat="42.010283" lon="2.547777">
        <ele>816.112</ele>
        <time>2021-05-27T08:45:40Z</time>
      </trkpt>
      <trkpt lat="42.010369" lon="2.547721">
        <ele>817.477</ele>
        <time>2021-05-27T08:45:44Z</time>
      </trkpt>
      <trkpt lat="42.010463" lon="2.547644">
        <ele>818.670</ele>
        <time>2021-05-27T08:45:50Z</time>
      </trkpt>
      <trkpt lat="42.010493" lon="2.547622">
        <ele>819.046</ele>
        <time>2021-05-27T08:45:52Z</time>
      </trkpt>
      <trkpt lat="42.010510" lon="2.547610">
        <ele>819.299</ele>
        <time>2021-05-27T08:45:53Z</time>
      </trkpt>
      <trkpt lat="42.010535" lon="2.547580">
        <ele>819.407</ele>
        <time>2021-05-27T08:45:55Z</time>
      </trkpt>
      <trkpt lat="42.010555" lon="2.547552">
        <ele>819.527</ele>
        <time>2021-05-27T08:45:58Z</time>
      </trkpt>
      <trkpt lat="42.010578" lon="2.547528">
        <ele>819.608</ele>
        <time>2021-05-27T08:45:59Z</time>
      </trkpt>
      <trkpt lat="42.010601" lon="2.547498">
        <ele>819.666</ele>
        <time>2021-05-27T08:46:01Z</time>
      </trkpt>
      <trkpt lat="42.010626" lon="2.547471">
        <ele>819.523</ele>
        <time>2021-05-27T08:46:03Z</time>
      </trkpt>
      <trkpt lat="42.010649" lon="2.547450">
        <ele>819.581</ele>
        <time>2021-05-27T08:46:06Z</time>
      </trkpt>
      <trkpt lat="42.010668" lon="2.547427">
        <ele>819.441</ele>
        <time>2021-05-27T08:46:07Z</time>
      </trkpt>
      <trkpt lat="42.010688" lon="2.547401">
        <ele>819.368</ele>
        <time>2021-05-27T08:46:09Z</time>
      </trkpt>
      <trkpt lat="42.010711" lon="2.547379">
        <ele>819.343</ele>
        <time>2021-05-27T08:46:11Z</time>
      </trkpt>
      <trkpt lat="42.010739" lon="2.547362">
        <ele>819.586</ele>
        <time>2021-05-27T08:46:13Z</time>
      </trkpt>
      <trkpt lat="42.010766" lon="2.547346">
        <ele>819.742</ele>
        <time>2021-05-27T08:46:15Z</time>
      </trkpt>
      <trkpt lat="42.010791" lon="2.547322">
        <ele>819.767</ele>
        <time>2021-05-27T08:46:17Z</time>
      </trkpt>
      <trkpt lat="42.010816" lon="2.547306">
        <ele>819.981</ele>
        <time>2021-05-27T08:46:19Z</time>
      </trkpt>
      <trkpt lat="42.010838" lon="2.547281">
        <ele>819.919</ele>
        <time>2021-05-27T08:46:21Z</time>
      </trkpt>
      <trkpt lat="42.010868" lon="2.547266">
        <ele>820.008</ele>
        <time>2021-05-27T08:46:23Z</time>
      </trkpt>
      <trkpt lat="42.010893" lon="2.547244">
        <ele>819.923</ele>
        <time>2021-05-27T08:46:25Z</time>
      </trkpt>
      <trkpt lat="42.010915" lon="2.547221">
        <ele>819.950</ele>
        <time>2021-05-27T08:46:27Z</time>
      </trkpt>
      <trkpt lat="42.010933" lon="2.547199">
        <ele>819.928</ele>
        <time>2021-05-27T08:46:29Z</time>
      </trkpt>
      <trkpt lat="42.010959" lon="2.547179">
        <ele>820.098</ele>
        <time>2021-05-27T08:46:31Z</time>
      </trkpt>
      <trkpt lat="42.010979" lon="2.547160">
        <ele>820.015</ele>
        <time>2021-05-27T08:46:33Z</time>
      </trkpt>
      <trkpt lat="42.011005" lon="2.547139">
        <ele>820.130</ele>
        <time>2021-05-27T08:46:36Z</time>
      </trkpt>
      <trkpt lat="42.011030" lon="2.547113">
        <ele>820.243</ele>
        <time>2021-05-27T08:46:37Z</time>
      </trkpt>
      <trkpt lat="42.011062" lon="2.547101">
        <ele>820.539</ele>
        <time>2021-05-27T08:46:39Z</time>
      </trkpt>
      <trkpt lat="42.011089" lon="2.547089">
        <ele>820.888</ele>
        <time>2021-05-27T08:46:41Z</time>
      </trkpt>
      <trkpt lat="42.011106" lon="2.547077">
        <ele>820.924</ele>
        <time>2021-05-27T08:46:42Z</time>
      </trkpt>
      <trkpt lat="42.011123" lon="2.547067">
        <ele>820.826</ele>
        <time>2021-05-27T08:46:43Z</time>
      </trkpt>
      <trkpt lat="42.011142" lon="2.547069">
        <ele>820.808</ele>
        <time>2021-05-27T08:46:44Z</time>
      </trkpt>
      <trkpt lat="42.011163" lon="2.547069">
        <ele>820.795</ele>
        <time>2021-05-27T08:46:45Z</time>
      </trkpt>
      <trkpt lat="42.011182" lon="2.547061">
        <ele>820.582</ele>
        <time>2021-05-27T08:46:46Z</time>
      </trkpt>
      <trkpt lat="42.011207" lon="2.547057">
        <ele>820.440</ele>
        <time>2021-05-27T08:46:47Z</time>
      </trkpt>
      <trkpt lat="42.011231" lon="2.547057">
        <ele>820.340</ele>
        <time>2021-05-27T08:46:48Z</time>
      </trkpt>
      <trkpt lat="42.011260" lon="2.547061">
        <ele>820.227</ele>
        <time>2021-05-27T08:46:49Z</time>
      </trkpt>
      <trkpt lat="42.011286" lon="2.547067">
        <ele>820.282</ele>
        <time>2021-05-27T08:46:50Z</time>
      </trkpt>
      <trkpt lat="42.011310" lon="2.547074">
        <ele>820.275</ele>
        <time>2021-05-27T08:46:51Z</time>
      </trkpt>
      <trkpt lat="42.011334" lon="2.547077">
        <ele>820.161</ele>
        <time>2021-05-27T08:46:52Z</time>
      </trkpt>
      <trkpt lat="42.011359" lon="2.547080">
        <ele>820.141</ele>
        <time>2021-05-27T08:46:53Z</time>
      </trkpt>
      <trkpt lat="42.011408" lon="2.547095">
        <ele>819.981</ele>
        <time>2021-05-27T08:46:55Z</time>
      </trkpt>
      <trkpt lat="42.011455" lon="2.547108">
        <ele>819.409</ele>
        <time>2021-05-27T08:46:57Z</time>
      </trkpt>
      <trkpt lat="42.011479" lon="2.547117">
        <ele>819.208</ele>
        <time>2021-05-27T08:46:58Z</time>
      </trkpt>
      <trkpt lat="42.011500" lon="2.547127">
        <ele>819.021</ele>
        <time>2021-05-27T08:46:59Z</time>
      </trkpt>
      <trkpt lat="42.011525" lon="2.547140">
        <ele>818.928</ele>
        <time>2021-05-27T08:47:00Z</time>
      </trkpt>
      <trkpt lat="42.011546" lon="2.547150">
        <ele>818.726</ele>
        <time>2021-05-27T08:47:02Z</time>
      </trkpt>
      <trkpt lat="42.011569" lon="2.547162">
        <ele>818.586</ele>
        <time>2021-05-27T08:47:03Z</time>
      </trkpt>
      <trkpt lat="42.011618" lon="2.547184">
        <ele>818.123</ele>
        <time>2021-05-27T08:47:04Z</time>
      </trkpt>
      <trkpt lat="42.011640" lon="2.547198">
        <ele>818.088</ele>
        <time>2021-05-27T08:47:05Z</time>
      </trkpt>
      <trkpt lat="42.011664" lon="2.547213">
        <ele>817.971</ele>
        <time>2021-05-27T08:47:06Z</time>
      </trkpt>
      <trkpt lat="42.011689" lon="2.547228">
        <ele>817.787</ele>
        <time>2021-05-27T08:47:07Z</time>
      </trkpt>
      <trkpt lat="42.011712" lon="2.547243">
        <ele>817.488</ele>
        <time>2021-05-27T08:47:08Z</time>
      </trkpt>
      <trkpt lat="42.011736" lon="2.547263">
        <ele>817.224</ele>
        <time>2021-05-27T08:47:09Z</time>
      </trkpt>
      <trkpt lat="42.011761" lon="2.547286">
        <ele>817.026</ele>
        <time>2021-05-27T08:47:10Z</time>
      </trkpt>
      <trkpt lat="42.011787" lon="2.547294">
        <ele>816.608</ele>
        <time>2021-05-27T08:47:11Z</time>
      </trkpt>
      <trkpt lat="42.011808" lon="2.547304">
        <ele>816.325</ele>
        <time>2021-05-27T08:47:12Z</time>
      </trkpt>
      <trkpt lat="42.011829" lon="2.547316">
        <ele>816.142</ele>
        <time>2021-05-27T08:47:14Z</time>
      </trkpt>
      <trkpt lat="42.011878" lon="2.547350">
        <ele>815.690</ele>
        <time>2021-05-27T08:47:15Z</time>
      </trkpt>
      <trkpt lat="42.011904" lon="2.547369">
        <ele>815.380</ele>
        <time>2021-05-27T08:47:16Z</time>
      </trkpt>
      <trkpt lat="42.011929" lon="2.547389">
        <ele>815.197</ele>
        <time>2021-05-27T08:47:17Z</time>
      </trkpt>
      <trkpt lat="42.011951" lon="2.547414">
        <ele>814.922</ele>
        <time>2021-05-27T08:47:18Z</time>
      </trkpt>
      <trkpt lat="42.011972" lon="2.547438">
        <ele>814.815</ele>
        <time>2021-05-27T08:47:19Z</time>
      </trkpt>
      <trkpt lat="42.011993" lon="2.547462">
        <ele>814.751</ele>
        <time>2021-05-27T08:47:20Z</time>
      </trkpt>
      <trkpt lat="42.012011" lon="2.547487">
        <ele>814.668</ele>
        <time>2021-05-27T08:47:21Z</time>
      </trkpt>
      <trkpt lat="42.012037" lon="2.547504">
        <ele>814.342</ele>
        <time>2021-05-27T08:47:22Z</time>
      </trkpt>
      <trkpt lat="42.012060" lon="2.547523">
        <ele>814.026</ele>
        <time>2021-05-27T08:47:23Z</time>
      </trkpt>
      <trkpt lat="42.012080" lon="2.547548">
        <ele>813.708</ele>
        <time>2021-05-27T08:47:24Z</time>
      </trkpt>
      <trkpt lat="42.012108" lon="2.547573">
        <ele>813.383</ele>
        <time>2021-05-27T08:47:25Z</time>
      </trkpt>
      <trkpt lat="42.012156" lon="2.547607">
        <ele>812.660</ele>
        <time>2021-05-27T08:47:27Z</time>
      </trkpt>
      <trkpt lat="42.012179" lon="2.547632">
        <ele>812.378</ele>
        <time>2021-05-27T08:47:29Z</time>
      </trkpt>
      <trkpt lat="42.012200" lon="2.547655">
        <ele>812.048</ele>
        <time>2021-05-27T08:47:30Z</time>
      </trkpt>
      <trkpt lat="42.012217" lon="2.547674">
        <ele>811.775</ele>
        <time>2021-05-27T08:47:31Z</time>
      </trkpt>
      <trkpt lat="42.012236" lon="2.547692">
        <ele>811.560</ele>
        <time>2021-05-27T08:47:32Z</time>
      </trkpt>
      <trkpt lat="42.012277" lon="2.547725">
        <ele>811.093</ele>
        <time>2021-05-27T08:47:33Z</time>
      </trkpt>
      <trkpt lat="42.012298" lon="2.547740">
        <ele>810.769</ele>
        <time>2021-05-27T08:47:34Z</time>
      </trkpt>
      <trkpt lat="42.012320" lon="2.547754">
        <ele>810.523</ele>
        <time>2021-05-27T08:47:35Z</time>
      </trkpt>
      <trkpt lat="42.012345" lon="2.547772">
        <ele>810.283</ele>
        <time>2021-05-27T08:47:37Z</time>
      </trkpt>
      <trkpt lat="42.012390" lon="2.547801">
        <ele>809.811</ele>
        <time>2021-05-27T08:47:38Z</time>
      </trkpt>
      <trkpt lat="42.012420" lon="2.547830">
        <ele>809.708</ele>
        <time>2021-05-27T08:47:41Z</time>
      </trkpt>
      <trkpt lat="42.012459" lon="2.547845">
        <ele>809.349</ele>
        <time>2021-05-27T08:47:42Z</time>
      </trkpt>
      <trkpt lat="42.012483" lon="2.547852">
        <ele>809.056</ele>
        <time>2021-05-27T08:47:43Z</time>
      </trkpt>
      <trkpt lat="42.012504" lon="2.547861">
        <ele>808.974</ele>
        <time>2021-05-27T08:47:44Z</time>
      </trkpt>
      <trkpt lat="42.012567" lon="2.547873">
        <ele>808.694</ele>
        <time>2021-05-27T08:47:47Z</time>
      </trkpt>
      <trkpt lat="42.012623" lon="2.547875">
        <ele>808.361</ele>
        <time>2021-05-27T08:47:49Z</time>
      </trkpt>
      <trkpt lat="42.012651" lon="2.547879">
        <ele>808.296</ele>
        <time>2021-05-27T08:47:50Z</time>
      </trkpt>
      <trkpt lat="42.012708" lon="2.547882">
        <ele>807.819</ele>
        <time>2021-05-27T08:47:52Z</time>
      </trkpt>
      <trkpt lat="42.012734" lon="2.547878">
        <ele>807.675</ele>
        <time>2021-05-27T08:47:53Z</time>
      </trkpt>
      <trkpt lat="42.012760" lon="2.547870">
        <ele>807.419</ele>
        <time>2021-05-27T08:47:54Z</time>
      </trkpt>
      <trkpt lat="42.012785" lon="2.547868">
        <ele>807.309</ele>
        <time>2021-05-27T08:47:55Z</time>
      </trkpt>
      <trkpt lat="42.012812" lon="2.547859">
        <ele>807.419</ele>
        <time>2021-05-27T08:47:56Z</time>
      </trkpt>
      <trkpt lat="42.012836" lon="2.547850">
        <ele>807.408</ele>
        <time>2021-05-27T08:47:57Z</time>
      </trkpt>
      <trkpt lat="42.012856" lon="2.547842">
        <ele>807.478</ele>
        <time>2021-05-27T08:47:58Z</time>
      </trkpt>
      <trkpt lat="42.012877" lon="2.547835">
        <ele>807.555</ele>
        <time>2021-05-27T08:47:59Z</time>
      </trkpt>
      <trkpt lat="42.012895" lon="2.547826">
        <ele>807.553</ele>
        <time>2021-05-27T08:48:00Z</time>
      </trkpt>
      <trkpt lat="42.012912" lon="2.547817">
        <ele>807.643</ele>
        <time>2021-05-27T08:48:02Z</time>
      </trkpt>
      <trkpt lat="42.012945" lon="2.547800">
        <ele>807.680</ele>
        <time>2021-05-27T08:48:03Z</time>
      </trkpt>
      <trkpt lat="42.012972" lon="2.547780">
        <ele>807.755</ele>
        <time>2021-05-27T08:48:05Z</time>
      </trkpt>
      <trkpt lat="42.012999" lon="2.547761">
        <ele>807.828</ele>
        <time>2021-05-27T08:48:07Z</time>
      </trkpt>
      <trkpt lat="42.013026" lon="2.547746">
        <ele>807.994</ele>
        <time>2021-05-27T08:48:09Z</time>
      </trkpt>
      <trkpt lat="42.013050" lon="2.547729">
        <ele>808.086</ele>
        <time>2021-05-27T08:48:11Z</time>
      </trkpt>
      <trkpt lat="42.013073" lon="2.547714">
        <ele>808.160</ele>
        <time>2021-05-27T08:48:14Z</time>
      </trkpt>
      <trkpt lat="42.013097" lon="2.547694">
        <ele>808.226</ele>
        <time>2021-05-27T08:48:15Z</time>
      </trkpt>
      <trkpt lat="42.013119" lon="2.547679">
        <ele>808.308</ele>
        <time>2021-05-27T08:48:17Z</time>
      </trkpt>
      <trkpt lat="42.013145" lon="2.547667">
        <ele>808.555</ele>
        <time>2021-05-27T08:48:19Z</time>
      </trkpt>
      <trkpt lat="42.013166" lon="2.547654">
        <ele>808.642</ele>
        <time>2021-05-27T08:48:21Z</time>
      </trkpt>
      <trkpt lat="42.013185" lon="2.547637">
        <ele>808.760</ele>
        <time>2021-05-27T08:48:23Z</time>
      </trkpt>
      <trkpt lat="42.013203" lon="2.547624">
        <ele>808.820</ele>
        <time>2021-05-27T08:48:25Z</time>
      </trkpt>
      <trkpt lat="42.013225" lon="2.547609">
        <ele>809.067</ele>
        <time>2021-05-27T08:48:27Z</time>
      </trkpt>
      <trkpt lat="42.013247" lon="2.547593">
        <ele>809.152</ele>
        <time>2021-05-27T08:48:30Z</time>
      </trkpt>
      <trkpt lat="42.013271" lon="2.547577">
        <ele>809.315</ele>
        <time>2021-05-27T08:48:31Z</time>
      </trkpt>
      <trkpt lat="42.013294" lon="2.547562">
        <ele>809.521</ele>
        <time>2021-05-27T08:48:33Z</time>
      </trkpt>
      <trkpt lat="42.013314" lon="2.547547">
        <ele>809.759</ele>
        <time>2021-05-27T08:48:35Z</time>
      </trkpt>
      <trkpt lat="42.013334" lon="2.547531">
        <ele>809.903</ele>
        <time>2021-05-27T08:48:38Z</time>
      </trkpt>
      <trkpt lat="42.013357" lon="2.547514">
        <ele>810.123</ele>
        <time>2021-05-27T08:48:40Z</time>
      </trkpt>
      <trkpt lat="42.013378" lon="2.547497">
        <ele>810.308</ele>
        <time>2021-05-27T08:48:42Z</time>
      </trkpt>
      <trkpt lat="42.013400" lon="2.547478">
        <ele>810.552</ele>
        <time>2021-05-27T08:48:44Z</time>
      </trkpt>
      <trkpt lat="42.013425" lon="2.547463">
        <ele>810.639</ele>
        <time>2021-05-27T08:48:45Z</time>
      </trkpt>
      <trkpt lat="42.013451" lon="2.547449">
        <ele>810.837</ele>
        <time>2021-05-27T08:48:47Z</time>
      </trkpt>
      <trkpt lat="42.013476" lon="2.547434">
        <ele>810.977</ele>
        <time>2021-05-27T08:48:49Z</time>
      </trkpt>
      <trkpt lat="42.013500" lon="2.547420">
        <ele>811.084</ele>
        <time>2021-05-27T08:48:51Z</time>
      </trkpt>
      <trkpt lat="42.013524" lon="2.547405">
        <ele>811.119</ele>
        <time>2021-05-27T08:48:53Z</time>
      </trkpt>
      <trkpt lat="42.013547" lon="2.547389">
        <ele>811.242</ele>
        <time>2021-05-27T08:48:56Z</time>
      </trkpt>
      <trkpt lat="42.013571" lon="2.547377">
        <ele>811.388</ele>
        <time>2021-05-27T08:48:57Z</time>
      </trkpt>
      <trkpt lat="42.013597" lon="2.547366">
        <ele>811.474</ele>
        <time>2021-05-27T08:48:59Z</time>
      </trkpt>
      <trkpt lat="42.013622" lon="2.547355">
        <ele>811.656</ele>
        <time>2021-05-27T08:49:01Z</time>
      </trkpt>
      <trkpt lat="42.013646" lon="2.547344">
        <ele>811.721</ele>
        <time>2021-05-27T08:49:03Z</time>
      </trkpt>
      <trkpt lat="42.013671" lon="2.547334">
        <ele>811.908</ele>
        <time>2021-05-27T08:49:06Z</time>
      </trkpt>
      <trkpt lat="42.013696" lon="2.547323">
        <ele>812.144</ele>
        <time>2021-05-27T08:49:08Z</time>
      </trkpt>
      <trkpt lat="42.013723" lon="2.547312">
        <ele>812.391</ele>
        <time>2021-05-27T08:49:09Z</time>
      </trkpt>
      <trkpt lat="42.013747" lon="2.547303">
        <ele>812.519</ele>
        <time>2021-05-27T08:49:12Z</time>
      </trkpt>
      <trkpt lat="42.013770" lon="2.547295">
        <ele>812.739</ele>
        <time>2021-05-27T08:49:14Z</time>
      </trkpt>
      <trkpt lat="42.013792" lon="2.547287">
        <ele>812.916</ele>
        <time>2021-05-27T08:49:15Z</time>
      </trkpt>
      <trkpt lat="42.013814" lon="2.547281">
        <ele>813.121</ele>
        <time>2021-05-27T08:49:17Z</time>
      </trkpt>
      <trkpt lat="42.013834" lon="2.547277">
        <ele>813.324</ele>
        <time>2021-05-27T08:49:19Z</time>
      </trkpt>
      <trkpt lat="42.013854" lon="2.547269">
        <ele>813.560</ele>
        <time>2021-05-27T08:49:28Z</time>
      </trkpt>
      <trkpt lat="42.013875" lon="2.547265">
        <ele>813.727</ele>
        <time>2021-05-27T08:49:30Z</time>
      </trkpt>
      <trkpt lat="42.013899" lon="2.547268">
        <ele>813.968</ele>
        <time>2021-05-27T08:49:32Z</time>
      </trkpt>
      <trkpt lat="42.013921" lon="2.547276">
        <ele>813.914</ele>
        <time>2021-05-27T08:49:34Z</time>
      </trkpt>
      <trkpt lat="42.013938" lon="2.547293">
        <ele>813.908</ele>
        <time>2021-05-27T08:49:35Z</time>
      </trkpt>
      <trkpt lat="42.013957" lon="2.547309">
        <ele>813.969</ele>
        <time>2021-05-27T08:49:38Z</time>
      </trkpt>
      <trkpt lat="42.013976" lon="2.547297">
        <ele>814.036</ele>
        <time>2021-05-27T08:49:51Z</time>
      </trkpt>
      <trkpt lat="42.013994" lon="2.547299">
        <ele>814.174</ele>
        <time>2021-05-27T08:49:57Z</time>
      </trkpt>
      <trkpt lat="42.014020" lon="2.547298">
        <ele>814.244</ele>
        <time>2021-05-27T08:50:00Z</time>
      </trkpt>
      <trkpt lat="42.014046" lon="2.547300">
        <ele>814.361</ele>
        <time>2021-05-27T08:50:04Z</time>
      </trkpt>
      <trkpt lat="42.014064" lon="2.547303">
        <ele>814.376</ele>
        <time>2021-05-27T08:50:06Z</time>
      </trkpt>
      <trkpt lat="42.014086" lon="2.547307">
        <ele>814.489</ele>
        <time>2021-05-27T08:50:12Z</time>
      </trkpt>
      <trkpt lat="42.014114" lon="2.547305">
        <ele>814.545</ele>
        <time>2021-05-27T08:50:15Z</time>
      </trkpt>
      <trkpt lat="42.014133" lon="2.547294">
        <ele>814.686</ele>
        <time>2021-05-27T08:50:17Z</time>
      </trkpt>
      <trkpt lat="42.014108" lon="2.547290">
        <ele>814.560</ele>
        <time>2021-05-27T08:50:21Z</time>
      </trkpt>
      <trkpt lat="42.014081" lon="2.547295">
        <ele>814.426</ele>
        <time>2021-05-27T08:50:23Z</time>
      </trkpt>
      <trkpt lat="42.014056" lon="2.547292">
        <ele>814.408</ele>
        <time>2021-05-27T08:50:25Z</time>
      </trkpt>
      <trkpt lat="42.014033" lon="2.547283">
        <ele>814.395</ele>
        <time>2021-05-27T08:50:26Z</time>
      </trkpt>
      <trkpt lat="42.014015" lon="2.547272">
        <ele>814.332</ele>
        <time>2021-05-27T08:50:28Z</time>
      </trkpt>
      <trkpt lat="42.013992" lon="2.547266">
        <ele>814.280</ele>
        <time>2021-05-27T08:50:30Z</time>
      </trkpt>
      <trkpt lat="42.013970" lon="2.547257">
        <ele>814.240</ele>
        <time>2021-05-27T08:50:32Z</time>
      </trkpt>
      <trkpt lat="42.013950" lon="2.547256">
        <ele>814.177</ele>
        <time>2021-05-27T08:50:34Z</time>
      </trkpt>
      <trkpt lat="42.013940" lon="2.547280">
        <ele>814.012</ele>
        <time>2021-05-27T08:50:37Z</time>
      </trkpt>
      <trkpt lat="42.013949" lon="2.547302">
        <ele>813.935</ele>
        <time>2021-05-27T08:50:39Z</time>
      </trkpt>
      <trkpt lat="42.013967" lon="2.547315">
        <ele>813.951</ele>
        <time>2021-05-27T08:50:41Z</time>
      </trkpt>
      <trkpt lat="42.013988" lon="2.547326">
        <ele>814.034</ele>
        <time>2021-05-27T08:50:44Z</time>
      </trkpt>
      <trkpt lat="42.014014" lon="2.547329">
        <ele>814.155</ele>
        <time>2021-05-27T08:50:46Z</time>
      </trkpt>
      <trkpt lat="42.014039" lon="2.547325">
        <ele>814.210</ele>
        <time>2021-05-27T08:50:48Z</time>
      </trkpt>
      <trkpt lat="42.014064" lon="2.547327">
        <ele>814.308</ele>
        <time>2021-05-27T08:50:49Z</time>
      </trkpt>
      <trkpt lat="42.014088" lon="2.547336">
        <ele>814.340</ele>
        <time>2021-05-27T08:50:52Z</time>
      </trkpt>
      <trkpt lat="42.014109" lon="2.547355">
        <ele>814.377</ele>
        <time>2021-05-27T08:50:54Z</time>
      </trkpt>
      <trkpt lat="42.014129" lon="2.547380">
        <ele>814.365</ele>
        <time>2021-05-27T08:50:56Z</time>
      </trkpt>
      <trkpt lat="42.014151" lon="2.547402">
        <ele>814.355</ele>
        <time>2021-05-27T08:50:58Z</time>
      </trkpt>
      <trkpt lat="42.014173" lon="2.547425">
        <ele>814.252</ele>
        <time>2021-05-27T08:51:00Z</time>
      </trkpt>
      <trkpt lat="42.014194" lon="2.547446">
        <ele>814.137</ele>
        <time>2021-05-27T08:51:01Z</time>
      </trkpt>
      <trkpt lat="42.014218" lon="2.547466">
        <ele>813.870</ele>
        <time>2021-05-27T08:51:04Z</time>
      </trkpt>
      <trkpt lat="42.014243" lon="2.547488">
        <ele>813.596</ele>
        <time>2021-05-27T08:51:05Z</time>
      </trkpt>
      <trkpt lat="42.014269" lon="2.547506">
        <ele>813.266</ele>
        <time>2021-05-27T08:51:07Z</time>
      </trkpt>
      <trkpt lat="42.014299" lon="2.547515">
        <ele>812.829</ele>
        <time>2021-05-27T08:51:09Z</time>
      </trkpt>
      <trkpt lat="42.014327" lon="2.547524">
        <ele>812.521</ele>
        <time>2021-05-27T08:51:12Z</time>
      </trkpt>
      <trkpt lat="42.014356" lon="2.547530">
        <ele>812.208</ele>
        <time>2021-05-27T08:51:14Z</time>
      </trkpt>
      <trkpt lat="42.014386" lon="2.547533">
        <ele>811.993</ele>
        <time>2021-05-27T08:51:16Z</time>
      </trkpt>
      <trkpt lat="42.014416" lon="2.547530">
        <ele>811.730</ele>
        <time>2021-05-27T08:51:18Z</time>
      </trkpt>
      <trkpt lat="42.014463" lon="2.547527">
        <ele>811.348</ele>
        <time>2021-05-27T08:51:20Z</time>
      </trkpt>
      <trkpt lat="42.014495" lon="2.547521">
        <ele>810.938</ele>
        <time>2021-05-27T08:51:22Z</time>
      </trkpt>
      <trkpt lat="42.014525" lon="2.547516">
        <ele>810.625</ele>
        <time>2021-05-27T08:51:25Z</time>
      </trkpt>
      <trkpt lat="42.014553" lon="2.547511">
        <ele>810.370</ele>
        <time>2021-05-27T08:51:27Z</time>
      </trkpt>
      <trkpt lat="42.014582" lon="2.547509">
        <ele>809.913</ele>
        <time>2021-05-27T08:51:29Z</time>
      </trkpt>
      <trkpt lat="42.014610" lon="2.547507">
        <ele>809.549</ele>
        <time>2021-05-27T08:51:30Z</time>
      </trkpt>
      <trkpt lat="42.014638" lon="2.547501">
        <ele>809.263</ele>
        <time>2021-05-27T08:51:33Z</time>
      </trkpt>
      <trkpt lat="42.014666" lon="2.547505">
        <ele>808.744</ele>
        <time>2021-05-27T08:51:34Z</time>
      </trkpt>
      <trkpt lat="42.014697" lon="2.547510">
        <ele>808.218</ele>
        <time>2021-05-27T08:51:36Z</time>
      </trkpt>
      <trkpt lat="42.014726" lon="2.547499">
        <ele>808.008</ele>
        <time>2021-05-27T08:51:38Z</time>
      </trkpt>
      <trkpt lat="42.014756" lon="2.547484">
        <ele>807.873</ele>
        <time>2021-05-27T08:51:40Z</time>
      </trkpt>
      <trkpt lat="42.014786" lon="2.547467">
        <ele>807.650</ele>
        <time>2021-05-27T08:51:43Z</time>
      </trkpt>
      <trkpt lat="42.014813" lon="2.547449">
        <ele>807.458</ele>
        <time>2021-05-27T08:51:44Z</time>
      </trkpt>
      <trkpt lat="42.014842" lon="2.547434">
        <ele>807.248</ele>
        <time>2021-05-27T08:51:46Z</time>
      </trkpt>
      <trkpt lat="42.014865" lon="2.547414">
        <ele>807.075</ele>
        <time>2021-05-27T08:51:48Z</time>
      </trkpt>
      <trkpt lat="42.014888" lon="2.547396">
        <ele>806.880</ele>
        <time>2021-05-27T08:51:50Z</time>
      </trkpt>
      <trkpt lat="42.014912" lon="2.547379">
        <ele>806.683</ele>
        <time>2021-05-27T08:51:52Z</time>
      </trkpt>
      <trkpt lat="42.014938" lon="2.547354">
        <ele>806.359</ele>
        <time>2021-05-27T08:51:54Z</time>
      </trkpt>
      <trkpt lat="42.014964" lon="2.547329">
        <ele>806.097</ele>
        <time>2021-05-27T08:51:56Z</time>
      </trkpt>
      <trkpt lat="42.014982" lon="2.547299">
        <ele>805.823</ele>
        <time>2021-05-27T08:51:59Z</time>
      </trkpt>
      <trkpt lat="42.014996" lon="2.547272">
        <ele>805.725</ele>
        <time>2021-05-27T08:52:00Z</time>
      </trkpt>
      <trkpt lat="42.015008" lon="2.547251">
        <ele>805.608</ele>
        <time>2021-05-27T08:52:06Z</time>
      </trkpt>
      <trkpt lat="42.015013" lon="2.547222">
        <ele>805.726</ele>
        <time>2021-05-27T08:52:12Z</time>
      </trkpt>
      <trkpt lat="42.015025" lon="2.547190">
        <ele>805.613</ele>
        <time>2021-05-27T08:52:13Z</time>
      </trkpt>
      <trkpt lat="42.015041" lon="2.547156">
        <ele>805.411</ele>
        <time>2021-05-27T08:52:15Z</time>
      </trkpt>
      <trkpt lat="42.015060" lon="2.547124">
        <ele>805.251</ele>
        <time>2021-05-27T08:52:18Z</time>
      </trkpt>
      <trkpt lat="42.015074" lon="2.547087">
        <ele>805.188</ele>
        <time>2021-05-27T08:52:19Z</time>
      </trkpt>
      <trkpt lat="42.015088" lon="2.547051">
        <ele>805.073</ele>
        <time>2021-05-27T08:52:21Z</time>
      </trkpt>
      <trkpt lat="42.015102" lon="2.547015">
        <ele>804.926</ele>
        <time>2021-05-27T08:52:23Z</time>
      </trkpt>
      <trkpt lat="42.015122" lon="2.546980">
        <ele>804.732</ele>
        <time>2021-05-27T08:52:25Z</time>
      </trkpt>
      <trkpt lat="42.015136" lon="2.546944">
        <ele>804.621</ele>
        <time>2021-05-27T08:52:27Z</time>
      </trkpt>
      <trkpt lat="42.015150" lon="2.546908">
        <ele>804.741</ele>
        <time>2021-05-27T08:52:29Z</time>
      </trkpt>
      <trkpt lat="42.015164" lon="2.546870">
        <ele>804.705</ele>
        <time>2021-05-27T08:52:31Z</time>
      </trkpt>
      <trkpt lat="42.015179" lon="2.546834">
        <ele>804.708</ele>
        <time>2021-05-27T08:52:33Z</time>
      </trkpt>
      <trkpt lat="42.015197" lon="2.546801">
        <ele>804.529</ele>
        <time>2021-05-27T08:52:35Z</time>
      </trkpt>
      <trkpt lat="42.015215" lon="2.546770">
        <ele>804.336</ele>
        <time>2021-05-27T08:52:38Z</time>
      </trkpt>
      <trkpt lat="42.015227" lon="2.546737">
        <ele>804.294</ele>
        <time>2021-05-27T08:52:40Z</time>
      </trkpt>
      <trkpt lat="42.015242" lon="2.546702">
        <ele>804.024</ele>
        <time>2021-05-27T08:52:41Z</time>
      </trkpt>
      <trkpt lat="42.015255" lon="2.546668">
        <ele>803.861</ele>
        <time>2021-05-27T08:52:43Z</time>
      </trkpt>
      <trkpt lat="42.015269" lon="2.546633">
        <ele>803.626</ele>
        <time>2021-05-27T08:52:45Z</time>
      </trkpt>
      <trkpt lat="42.015283" lon="2.546595">
        <ele>803.469</ele>
        <time>2021-05-27T08:52:47Z</time>
      </trkpt>
      <trkpt lat="42.015291" lon="2.546560">
        <ele>803.385</ele>
        <time>2021-05-27T08:52:49Z</time>
      </trkpt>
      <trkpt lat="42.015301" lon="2.546526">
        <ele>803.235</ele>
        <time>2021-05-27T08:52:51Z</time>
      </trkpt>
      <trkpt lat="42.015310" lon="2.546489">
        <ele>803.186</ele>
        <time>2021-05-27T08:52:53Z</time>
      </trkpt>
      <trkpt lat="42.015319" lon="2.546451">
        <ele>803.014</ele>
        <time>2021-05-27T08:52:56Z</time>
      </trkpt>
      <trkpt lat="42.015327" lon="2.546415">
        <ele>802.908</ele>
        <time>2021-05-27T08:52:57Z</time>
      </trkpt>
      <trkpt lat="42.015331" lon="2.546378">
        <ele>802.920</ele>
        <time>2021-05-27T08:52:59Z</time>
      </trkpt>
      <trkpt lat="42.015335" lon="2.546341">
        <ele>802.927</ele>
        <time>2021-05-27T08:53:01Z</time>
      </trkpt>
      <trkpt lat="42.015339" lon="2.546304">
        <ele>802.925</ele>
        <time>2021-05-27T08:53:03Z</time>
      </trkpt>
      <trkpt lat="42.015344" lon="2.546266">
        <ele>802.875</ele>
        <time>2021-05-27T08:53:05Z</time>
      </trkpt>
      <trkpt lat="42.015347" lon="2.546228">
        <ele>802.882</ele>
        <time>2021-05-27T08:53:07Z</time>
      </trkpt>
      <trkpt lat="42.015346" lon="2.546192">
        <ele>803.077</ele>
        <time>2021-05-27T08:53:09Z</time>
      </trkpt>
      <trkpt lat="42.015353" lon="2.546153">
        <ele>802.960</ele>
        <time>2021-05-27T08:53:11Z</time>
      </trkpt>
      <trkpt lat="42.015357" lon="2.546114">
        <ele>802.946</ele>
        <time>2021-05-27T08:53:13Z</time>
      </trkpt>
      <trkpt lat="42.015362" lon="2.546073">
        <ele>802.841</ele>
        <time>2021-05-27T08:53:15Z</time>
      </trkpt>
      <trkpt lat="42.015365" lon="2.546031">
        <ele>802.781</ele>
        <time>2021-05-27T08:53:17Z</time>
      </trkpt>
      <trkpt lat="42.015367" lon="2.545996">
        <ele>802.709</ele>
        <time>2021-05-27T08:53:19Z</time>
      </trkpt>
      <trkpt lat="42.015368" lon="2.545956">
        <ele>802.808</ele>
        <time>2021-05-27T08:53:21Z</time>
      </trkpt>
      <trkpt lat="42.015371" lon="2.545918">
        <ele>802.861</ele>
        <time>2021-05-27T08:53:23Z</time>
      </trkpt>
      <trkpt lat="42.015376" lon="2.545879">
        <ele>802.728</ele>
        <time>2021-05-27T08:53:25Z</time>
      </trkpt>
      <trkpt lat="42.015381" lon="2.545840">
        <ele>802.566</ele>
        <time>2021-05-27T08:53:27Z</time>
      </trkpt>
      <trkpt lat="42.015385" lon="2.545798">
        <ele>802.526</ele>
        <time>2021-05-27T08:53:29Z</time>
      </trkpt>
      <trkpt lat="42.015390" lon="2.545757">
        <ele>802.533</ele>
        <time>2021-05-27T08:53:31Z</time>
      </trkpt>
      <trkpt lat="42.015398" lon="2.545718">
        <ele>802.488</ele>
        <time>2021-05-27T08:53:34Z</time>
      </trkpt>
      <trkpt lat="42.015406" lon="2.545677">
        <ele>802.361</ele>
        <time>2021-05-27T08:53:35Z</time>
      </trkpt>
      <trkpt lat="42.015410" lon="2.545639">
        <ele>802.387</ele>
        <time>2021-05-27T08:53:37Z</time>
      </trkpt>
      <trkpt lat="42.015421" lon="2.545602">
        <ele>802.145</ele>
        <time>2021-05-27T08:53:39Z</time>
      </trkpt>
      <trkpt lat="42.015425" lon="2.545564">
        <ele>802.147</ele>
        <time>2021-05-27T08:53:41Z</time>
      </trkpt>
      <trkpt lat="42.015423" lon="2.545530">
        <ele>802.211</ele>
        <time>2021-05-27T08:53:43Z</time>
      </trkpt>
      <trkpt lat="42.015425" lon="2.545494">
        <ele>802.208</ele>
        <time>2021-05-27T08:53:45Z</time>
      </trkpt>
      <trkpt lat="42.015426" lon="2.545457">
        <ele>802.161</ele>
        <time>2021-05-27T08:53:47Z</time>
      </trkpt>
      <trkpt lat="42.015431" lon="2.545420">
        <ele>801.928</ele>
        <time>2021-05-27T08:53:49Z</time>
      </trkpt>
      <trkpt lat="42.015438" lon="2.545378">
        <ele>801.736</ele>
        <time>2021-05-27T08:53:51Z</time>
      </trkpt>
      <trkpt lat="42.015449" lon="2.545335">
        <ele>801.216</ele>
        <time>2021-05-27T08:53:54Z</time>
      </trkpt>
      <trkpt lat="42.015463" lon="2.545293">
        <ele>800.793</ele>
        <time>2021-05-27T08:53:55Z</time>
      </trkpt>
      <trkpt lat="42.015468" lon="2.545250">
        <ele>800.878</ele>
        <time>2021-05-27T08:53:57Z</time>
      </trkpt>
      <trkpt lat="42.015474" lon="2.545212">
        <ele>801.021</ele>
        <time>2021-05-27T08:54:00Z</time>
      </trkpt>
      <trkpt lat="42.015482" lon="2.545177">
        <ele>801.297</ele>
        <time>2021-05-27T08:54:02Z</time>
      </trkpt>
      <trkpt lat="42.015496" lon="2.545139">
        <ele>801.145</ele>
        <time>2021-05-27T08:54:04Z</time>
      </trkpt>
      <trkpt lat="42.015510" lon="2.545105">
        <ele>801.147</ele>
        <time>2021-05-27T08:54:06Z</time>
      </trkpt>
      <trkpt lat="42.015525" lon="2.545071">
        <ele>801.011</ele>
        <time>2021-05-27T08:54:08Z</time>
      </trkpt>
      <trkpt lat="42.015540" lon="2.545034">
        <ele>801.008</ele>
        <time>2021-05-27T08:54:09Z</time>
      </trkpt>
      <trkpt lat="42.015558" lon="2.545005">
        <ele>800.941</ele>
        <time>2021-05-27T08:54:12Z</time>
      </trkpt>
      <trkpt lat="42.015572" lon="2.544972">
        <ele>801.058</ele>
        <time>2021-05-27T08:54:14Z</time>
      </trkpt>
      <trkpt lat="42.015585" lon="2.544940">
        <ele>801.216</ele>
        <time>2021-05-27T08:54:16Z</time>
      </trkpt>
      <trkpt lat="42.015605" lon="2.544904">
        <ele>801.386</ele>
        <time>2021-05-27T08:54:18Z</time>
      </trkpt>
      <trkpt lat="42.015624" lon="2.544877">
        <ele>801.413</ele>
        <time>2021-05-27T08:54:19Z</time>
      </trkpt>
      <trkpt lat="42.015646" lon="2.544852">
        <ele>801.468</ele>
        <time>2021-05-27T08:54:21Z</time>
      </trkpt>
      <trkpt lat="42.015669" lon="2.544831">
        <ele>801.321</ele>
        <time>2021-05-27T08:54:23Z</time>
      </trkpt>
      <trkpt lat="42.015696" lon="2.544812">
        <ele>801.237</ele>
        <time>2021-05-27T08:54:25Z</time>
      </trkpt>
      <trkpt lat="42.015723" lon="2.544796">
        <ele>801.051</ele>
        <time>2021-05-27T08:54:27Z</time>
      </trkpt>
      <trkpt lat="42.015749" lon="2.544779">
        <ele>801.001</ele>
        <time>2021-05-27T08:54:29Z</time>
      </trkpt>
      <trkpt lat="42.015780" lon="2.544766">
        <ele>800.811</ele>
        <time>2021-05-27T08:54:31Z</time>
      </trkpt>
      <trkpt lat="42.015809" lon="2.544757">
        <ele>800.508</ele>
        <time>2021-05-27T08:54:33Z</time>
      </trkpt>
      <trkpt lat="42.015836" lon="2.544744">
        <ele>800.412</ele>
        <time>2021-05-27T08:54:35Z</time>
      </trkpt>
      <trkpt lat="42.015860" lon="2.544733">
        <ele>800.429</ele>
        <time>2021-05-27T08:54:37Z</time>
      </trkpt>
      <trkpt lat="42.015887" lon="2.544722">
        <ele>800.417</ele>
        <time>2021-05-27T08:54:39Z</time>
      </trkpt>
      <trkpt lat="42.015912" lon="2.544713">
        <ele>800.387</ele>
        <time>2021-05-27T08:54:41Z</time>
      </trkpt>
      <trkpt lat="42.015937" lon="2.544702">
        <ele>800.224</ele>
        <time>2021-05-27T08:54:43Z</time>
      </trkpt>
      <trkpt lat="42.015962" lon="2.544686">
        <ele>800.259</ele>
        <time>2021-05-27T08:54:45Z</time>
      </trkpt>
      <trkpt lat="42.015989" lon="2.544671">
        <ele>800.172</ele>
        <time>2021-05-27T08:54:47Z</time>
      </trkpt>
      <trkpt lat="42.016016" lon="2.544648">
        <ele>800.258</ele>
        <time>2021-05-27T08:54:49Z</time>
      </trkpt>
      <trkpt lat="42.016040" lon="2.544625">
        <ele>800.328</ele>
        <time>2021-05-27T08:54:52Z</time>
      </trkpt>
      <trkpt lat="42.016066" lon="2.544606">
        <ele>800.289</ele>
        <time>2021-05-27T08:54:54Z</time>
      </trkpt>
      <trkpt lat="42.016092" lon="2.544588">
        <ele>800.217</ele>
        <time>2021-05-27T08:54:55Z</time>
      </trkpt>
      <trkpt lat="42.016118" lon="2.544570">
        <ele>800.108</ele>
        <time>2021-05-27T08:54:57Z</time>
      </trkpt>
      <trkpt lat="42.016144" lon="2.544554">
        <ele>800.099</ele>
        <time>2021-05-27T08:54:59Z</time>
      </trkpt>
      <trkpt lat="42.016171" lon="2.544537">
        <ele>799.936</ele>
        <time>2021-05-27T08:55:01Z</time>
      </trkpt>
      <trkpt lat="42.016197" lon="2.544516">
        <ele>800.054</ele>
        <time>2021-05-27T08:55:03Z</time>
      </trkpt>
      <trkpt lat="42.016223" lon="2.544496">
        <ele>800.044</ele>
        <time>2021-05-27T08:55:06Z</time>
      </trkpt>
      <trkpt lat="42.016250" lon="2.544477">
        <ele>800.071</ele>
        <time>2021-05-27T08:55:07Z</time>
      </trkpt>
      <trkpt lat="42.016275" lon="2.544455">
        <ele>800.116</ele>
        <time>2021-05-27T08:55:10Z</time>
      </trkpt>
      <trkpt lat="42.016300" lon="2.544433">
        <ele>800.019</ele>
        <time>2021-05-27T08:55:11Z</time>
      </trkpt>
      <trkpt lat="42.016324" lon="2.544412">
        <ele>799.985</ele>
        <time>2021-05-27T08:55:13Z</time>
      </trkpt>
      <trkpt lat="42.016352" lon="2.544390">
        <ele>799.838</ele>
        <time>2021-05-27T08:55:15Z</time>
      </trkpt>
      <trkpt lat="42.016379" lon="2.544367">
        <ele>799.770</ele>
        <time>2021-05-27T08:55:18Z</time>
      </trkpt>
      <trkpt lat="42.016401" lon="2.544345">
        <ele>799.617</ele>
        <time>2021-05-27T08:55:19Z</time>
      </trkpt>
      <trkpt lat="42.016418" lon="2.544325">
        <ele>799.608</ele>
        <time>2021-05-27T08:55:21Z</time>
      </trkpt>
      <trkpt lat="42.016440" lon="2.544307">
        <ele>799.630</ele>
        <time>2021-05-27T08:55:23Z</time>
      </trkpt>
      <trkpt lat="42.016464" lon="2.544289">
        <ele>799.687</ele>
        <time>2021-05-27T08:55:25Z</time>
      </trkpt>
      <trkpt lat="42.016490" lon="2.544272">
        <ele>799.565</ele>
        <time>2021-05-27T08:55:28Z</time>
      </trkpt>
      <trkpt lat="42.016519" lon="2.544254">
        <ele>799.445</ele>
        <time>2021-05-27T08:55:29Z</time>
      </trkpt>
      <trkpt lat="42.016551" lon="2.544239">
        <ele>799.362</ele>
        <time>2021-05-27T08:55:32Z</time>
      </trkpt>
      <trkpt lat="42.016580" lon="2.544220">
        <ele>799.257</ele>
        <time>2021-05-27T08:55:34Z</time>
      </trkpt>
      <trkpt lat="42.016608" lon="2.544202">
        <ele>799.270</ele>
        <time>2021-05-27T08:55:35Z</time>
      </trkpt>
      <trkpt lat="42.016635" lon="2.544192">
        <ele>799.036</ele>
        <time>2021-05-27T08:55:37Z</time>
      </trkpt>
      <trkpt lat="42.016661" lon="2.544186">
        <ele>798.976</ele>
        <time>2021-05-27T08:55:40Z</time>
      </trkpt>
      <trkpt lat="42.016690" lon="2.544187">
        <ele>798.990</ele>
        <time>2021-05-27T08:55:42Z</time>
      </trkpt>
      <trkpt lat="42.016721" lon="2.544184">
        <ele>798.919</ele>
        <time>2021-05-27T08:55:44Z</time>
      </trkpt>
      <trkpt lat="42.016745" lon="2.544179">
        <ele>798.908</ele>
        <time>2021-05-27T08:55:45Z</time>
      </trkpt>
      <trkpt lat="42.016776" lon="2.544174">
        <ele>798.964</ele>
        <time>2021-05-27T08:55:48Z</time>
      </trkpt>
      <trkpt lat="42.016803" lon="2.544166">
        <ele>799.081</ele>
        <time>2021-05-27T08:55:50Z</time>
      </trkpt>
      <trkpt lat="42.016828" lon="2.544157">
        <ele>799.069</ele>
        <time>2021-05-27T08:55:51Z</time>
      </trkpt>
      <trkpt lat="42.016853" lon="2.544157">
        <ele>799.079</ele>
        <time>2021-05-27T08:55:53Z</time>
      </trkpt>
      <trkpt lat="42.016881" lon="2.544153">
        <ele>799.026</ele>
        <time>2021-05-27T08:55:55Z</time>
      </trkpt>
      <trkpt lat="42.016912" lon="2.544146">
        <ele>798.931</ele>
        <time>2021-05-27T08:55:58Z</time>
      </trkpt>
      <trkpt lat="42.016947" lon="2.544148">
        <ele>798.964</ele>
        <time>2021-05-27T08:55:59Z</time>
      </trkpt>
      <trkpt lat="42.016978" lon="2.544145">
        <ele>799.020</ele>
        <time>2021-05-27T08:56:01Z</time>
      </trkpt>
      <trkpt lat="42.017010" lon="2.544137">
        <ele>799.199</ele>
        <time>2021-05-27T08:56:03Z</time>
      </trkpt>
      <trkpt lat="42.017039" lon="2.544134">
        <ele>799.207</ele>
        <time>2021-05-27T08:56:06Z</time>
      </trkpt>
      <trkpt lat="42.017069" lon="2.544133">
        <ele>799.327</ele>
        <time>2021-05-27T08:56:07Z</time>
      </trkpt>
      <trkpt lat="42.017100" lon="2.544137">
        <ele>799.508</ele>
        <time>2021-05-27T08:56:09Z</time>
      </trkpt>
      <trkpt lat="42.017130" lon="2.544140">
        <ele>799.616</ele>
        <time>2021-05-27T08:56:11Z</time>
      </trkpt>
      <trkpt lat="42.017161" lon="2.544152">
        <ele>799.753</ele>
        <time>2021-05-27T08:56:14Z</time>
      </trkpt>
      <trkpt lat="42.017188" lon="2.544162">
        <ele>799.981</ele>
        <time>2021-05-27T08:56:15Z</time>
      </trkpt>
      <trkpt lat="42.017217" lon="2.544176">
        <ele>800.051</ele>
        <time>2021-05-27T08:56:17Z</time>
      </trkpt>
      <trkpt lat="42.017240" lon="2.544193">
        <ele>800.128</ele>
        <time>2021-05-27T08:56:20Z</time>
      </trkpt>
      <trkpt lat="42.017264" lon="2.544211">
        <ele>800.373</ele>
        <time>2021-05-27T08:56:22Z</time>
      </trkpt>
      <trkpt lat="42.017287" lon="2.544226">
        <ele>800.546</ele>
        <time>2021-05-27T08:56:24Z</time>
      </trkpt>
      <trkpt lat="42.017314" lon="2.544252">
        <ele>800.792</ele>
        <time>2021-05-27T08:56:26Z</time>
      </trkpt>
      <trkpt lat="42.017339" lon="2.544278">
        <ele>800.893</ele>
        <time>2021-05-27T08:56:28Z</time>
      </trkpt>
      <trkpt lat="42.017361" lon="2.544304">
        <ele>801.065</ele>
        <time>2021-05-27T08:56:30Z</time>
      </trkpt>
      <trkpt lat="42.017383" lon="2.544331">
        <ele>801.221</ele>
        <time>2021-05-27T08:56:32Z</time>
      </trkpt>
      <trkpt lat="42.017407" lon="2.544355">
        <ele>801.308</ele>
        <time>2021-05-27T08:56:34Z</time>
      </trkpt>
      <trkpt lat="42.017427" lon="2.544383">
        <ele>801.556</ele>
        <time>2021-05-27T08:56:36Z</time>
      </trkpt>
      <trkpt lat="42.017450" lon="2.544407">
        <ele>801.653</ele>
        <time>2021-05-27T08:56:38Z</time>
      </trkpt>
      <trkpt lat="42.017473" lon="2.544428">
        <ele>801.881</ele>
        <time>2021-05-27T08:56:40Z</time>
      </trkpt>
      <trkpt lat="42.017495" lon="2.544453">
        <ele>801.981</ele>
        <time>2021-05-27T08:56:42Z</time>
      </trkpt>
      <trkpt lat="42.017514" lon="2.544479">
        <ele>801.998</ele>
        <time>2021-05-27T08:56:44Z</time>
      </trkpt>
      <trkpt lat="42.017536" lon="2.544507">
        <ele>801.833</ele>
        <time>2021-05-27T08:56:46Z</time>
      </trkpt>
      <trkpt lat="42.017558" lon="2.544536">
        <ele>801.786</ele>
        <time>2021-05-27T08:56:48Z</time>
      </trkpt>
      <trkpt lat="42.017581" lon="2.544563">
        <ele>801.792</ele>
        <time>2021-05-27T08:56:50Z</time>
      </trkpt>
      <trkpt lat="42.017605" lon="2.544593">
        <ele>801.768</ele>
        <time>2021-05-27T08:56:52Z</time>
      </trkpt>
      <trkpt lat="42.017620" lon="2.544606">
        <ele>801.742</ele>
        <time>2021-05-27T08:56:53Z</time>
      </trkpt>
      <trkpt lat="42.017645" lon="2.544631">
        <ele>801.726</ele>
        <time>2021-05-27T08:56:55Z</time>
      </trkpt>
      <trkpt lat="42.017672" lon="2.544654">
        <ele>801.708</ele>
        <time>2021-05-27T08:56:57Z</time>
      </trkpt>
      <trkpt lat="42.017703" lon="2.544677">
        <ele>801.893</ele>
        <time>2021-05-27T08:56:58Z</time>
      </trkpt>
      <trkpt lat="42.017720" lon="2.544689">
        <ele>801.870</ele>
        <time>2021-05-27T08:57:00Z</time>
      </trkpt>
      <trkpt lat="42.017750" lon="2.544714">
        <ele>801.988</ele>
        <time>2021-05-27T08:57:02Z</time>
      </trkpt>
      <trkpt lat="42.017777" lon="2.544732">
        <ele>802.098</ele>
        <time>2021-05-27T08:57:03Z</time>
      </trkpt>
      <trkpt lat="42.017808" lon="2.544744">
        <ele>801.535</ele>
        <time>2021-05-27T08:57:05Z</time>
      </trkpt>
      <trkpt lat="42.017840" lon="2.544752">
        <ele>800.930</ele>
        <time>2021-05-27T08:57:07Z</time>
      </trkpt>
      <trkpt lat="42.017873" lon="2.544758">
        <ele>800.373</ele>
        <time>2021-05-27T08:57:09Z</time>
      </trkpt>
      <trkpt lat="42.017899" lon="2.544758">
        <ele>799.999</ele>
        <time>2021-05-27T08:57:11Z</time>
      </trkpt>
      <trkpt lat="42.017928" lon="2.544753">
        <ele>799.566</ele>
        <time>2021-05-27T08:57:13Z</time>
      </trkpt>
      <trkpt lat="42.017954" lon="2.544744">
        <ele>799.229</ele>
        <time>2021-05-27T08:57:16Z</time>
      </trkpt>
      <trkpt lat="42.017980" lon="2.544729">
        <ele>799.021</ele>
        <time>2021-05-27T08:57:17Z</time>
      </trkpt>
      <trkpt lat="42.018008" lon="2.544713">
        <ele>798.708</ele>
        <time>2021-05-27T08:57:19Z</time>
      </trkpt>
      <trkpt lat="42.018035" lon="2.544692">
        <ele>798.593</ele>
        <time>2021-05-27T08:57:21Z</time>
      </trkpt>
      <trkpt lat="42.018063" lon="2.544672">
        <ele>798.140</ele>
        <time>2021-05-27T08:57:23Z</time>
      </trkpt>
      <trkpt lat="42.018091" lon="2.544649">
        <ele>797.528</ele>
        <time>2021-05-27T08:57:25Z</time>
      </trkpt>
      <trkpt lat="42.018124" lon="2.544641">
        <ele>796.768</ele>
        <time>2021-05-27T08:57:27Z</time>
      </trkpt>
      <trkpt lat="42.018154" lon="2.544629">
        <ele>796.155</ele>
        <time>2021-05-27T08:57:29Z</time>
      </trkpt>
      <trkpt lat="42.018189" lon="2.544613">
        <ele>795.440</ele>
        <time>2021-05-27T08:57:31Z</time>
      </trkpt>
      <trkpt lat="42.018218" lon="2.544600">
        <ele>794.953</ele>
        <time>2021-05-27T08:57:33Z</time>
      </trkpt>
      <trkpt lat="42.018247" lon="2.544585">
        <ele>794.579</ele>
        <time>2021-05-27T08:57:35Z</time>
      </trkpt>
      <trkpt lat="42.018276" lon="2.544570">
        <ele>794.121</ele>
        <time>2021-05-27T08:57:38Z</time>
      </trkpt>
      <trkpt lat="42.018307" lon="2.544552">
        <ele>793.941</ele>
        <time>2021-05-27T08:57:39Z</time>
      </trkpt>
      <trkpt lat="42.018337" lon="2.544534">
        <ele>793.705</ele>
        <time>2021-05-27T08:57:42Z</time>
      </trkpt>
      <trkpt lat="42.018369" lon="2.544517">
        <ele>793.408</ele>
        <time>2021-05-27T08:57:44Z</time>
      </trkpt>
      <trkpt lat="42.018399" lon="2.544501">
        <ele>793.299</ele>
        <time>2021-05-27T08:57:45Z</time>
      </trkpt>
      <trkpt lat="42.018428" lon="2.544484">
        <ele>793.036</ele>
        <time>2021-05-27T08:57:47Z</time>
      </trkpt>
      <trkpt lat="42.018457" lon="2.544474">
        <ele>792.644</ele>
        <time>2021-05-27T08:57:50Z</time>
      </trkpt>
      <trkpt lat="42.018485" lon="2.544458">
        <ele>792.414</ele>
        <time>2021-05-27T08:57:52Z</time>
      </trkpt>
      <trkpt lat="42.018516" lon="2.544445">
        <ele>792.071</ele>
        <time>2021-05-27T08:57:54Z</time>
      </trkpt>
      <trkpt lat="42.018544" lon="2.544422">
        <ele>791.966</ele>
        <time>2021-05-27T08:57:56Z</time>
      </trkpt>
      <trkpt lat="42.018575" lon="2.544399">
        <ele>791.849</ele>
        <time>2021-05-27T08:57:58Z</time>
      </trkpt>
      <trkpt lat="42.018605" lon="2.544383">
        <ele>791.595</ele>
        <time>2021-05-27T08:57:59Z</time>
      </trkpt>
      <trkpt lat="42.018637" lon="2.544372">
        <ele>790.854</ele>
        <time>2021-05-27T08:58:01Z</time>
      </trkpt>
      <trkpt lat="42.018664" lon="2.544360">
        <ele>790.256</ele>
        <time>2021-05-27T08:58:03Z</time>
      </trkpt>
      <trkpt lat="42.018693" lon="2.544331">
        <ele>789.911</ele>
        <time>2021-05-27T08:58:05Z</time>
      </trkpt>
      <trkpt lat="42.018724" lon="2.544312">
        <ele>789.408</ele>
        <time>2021-05-27T08:58:07Z</time>
      </trkpt>
      <trkpt lat="42.018743" lon="2.544303">
        <ele>789.082</ele>
        <time>2021-05-27T08:58:08Z</time>
      </trkpt>
      <trkpt lat="42.018767" lon="2.544274">
        <ele>789.089</ele>
        <time>2021-05-27T08:58:10Z</time>
      </trkpt>
      <trkpt lat="42.018792" lon="2.544250">
        <ele>788.857</ele>
        <time>2021-05-27T08:58:12Z</time>
      </trkpt>
      <trkpt lat="42.018819" lon="2.544230">
        <ele>788.587</ele>
        <time>2021-05-27T08:58:14Z</time>
      </trkpt>
      <trkpt lat="42.018845" lon="2.544205">
        <ele>788.314</ele>
        <time>2021-05-27T08:58:16Z</time>
      </trkpt>
      <trkpt lat="42.018869" lon="2.544183">
        <ele>788.269</ele>
        <time>2021-05-27T08:58:18Z</time>
      </trkpt>
      <trkpt lat="42.018888" lon="2.544159">
        <ele>788.292</ele>
        <time>2021-05-27T08:58:20Z</time>
      </trkpt>
      <trkpt lat="42.018906" lon="2.544131">
        <ele>788.118</ele>
        <time>2021-05-27T08:58:23Z</time>
      </trkpt>
      <trkpt lat="42.018925" lon="2.544101">
        <ele>788.061</ele>
        <time>2021-05-27T08:58:25Z</time>
      </trkpt>
      <trkpt lat="42.018944" lon="2.544072">
        <ele>787.921</ele>
        <time>2021-05-27T08:58:27Z</time>
      </trkpt>
      <trkpt lat="42.018968" lon="2.544044">
        <ele>787.513</ele>
        <time>2021-05-27T08:58:29Z</time>
      </trkpt>
      <trkpt lat="42.018990" lon="2.544019">
        <ele>787.208</ele>
        <time>2021-05-27T08:58:31Z</time>
      </trkpt>
      <trkpt lat="42.019008" lon="2.543988">
        <ele>787.183</ele>
        <time>2021-05-27T08:58:33Z</time>
      </trkpt>
      <trkpt lat="42.019030" lon="2.543953">
        <ele>786.940</ele>
        <time>2021-05-27T08:58:34Z</time>
      </trkpt>
      <trkpt lat="42.019056" lon="2.543928">
        <ele>786.468</ele>
        <time>2021-05-27T08:58:36Z</time>
      </trkpt>
      <trkpt lat="42.019077" lon="2.543907">
        <ele>785.928</ele>
        <time>2021-05-27T08:58:39Z</time>
      </trkpt>
      <trkpt lat="42.019100" lon="2.543884">
        <ele>785.585</ele>
        <time>2021-05-27T08:58:40Z</time>
      </trkpt>
      <trkpt lat="42.019123" lon="2.543857">
        <ele>785.390</ele>
        <time>2021-05-27T08:58:42Z</time>
      </trkpt>
      <trkpt lat="42.019147" lon="2.543833">
        <ele>785.113</ele>
        <time>2021-05-27T08:58:44Z</time>
      </trkpt>
      <trkpt lat="42.019170" lon="2.543809">
        <ele>784.929</ele>
        <time>2021-05-27T08:58:46Z</time>
      </trkpt>
      <trkpt lat="42.019193" lon="2.543788">
        <ele>785.026</ele>
        <time>2021-05-27T08:58:48Z</time>
      </trkpt>
      <trkpt lat="42.019217" lon="2.543765">
        <ele>785.147</ele>
        <time>2021-05-27T08:58:50Z</time>
      </trkpt>
      <trkpt lat="42.019244" lon="2.543737">
        <ele>785.111</ele>
        <time>2021-05-27T08:58:52Z</time>
      </trkpt>
      <trkpt lat="42.019271" lon="2.543707">
        <ele>785.208</ele>
        <time>2021-05-27T08:58:54Z</time>
      </trkpt>
      <trkpt lat="42.019291" lon="2.543677">
        <ele>785.429</ele>
        <time>2021-05-27T08:58:56Z</time>
      </trkpt>
      <trkpt lat="42.019313" lon="2.543648">
        <ele>785.556</ele>
        <time>2021-05-27T08:58:58Z</time>
      </trkpt>
      <trkpt lat="42.019337" lon="2.543626">
        <ele>785.484</ele>
        <time>2021-05-27T08:59:00Z</time>
      </trkpt>
      <trkpt lat="42.019358" lon="2.543599">
        <ele>785.524</ele>
        <time>2021-05-27T08:59:02Z</time>
      </trkpt>
      <trkpt lat="42.019382" lon="2.543573">
        <ele>785.591</ele>
        <time>2021-05-27T08:59:04Z</time>
      </trkpt>
      <trkpt lat="42.019404" lon="2.543548">
        <ele>785.546</ele>
        <time>2021-05-27T08:59:06Z</time>
      </trkpt>
      <trkpt lat="42.019424" lon="2.543525">
        <ele>785.669</ele>
        <time>2021-05-27T08:59:08Z</time>
      </trkpt>
      <trkpt lat="42.019441" lon="2.543503">
        <ele>785.815</ele>
        <time>2021-05-27T08:59:10Z</time>
      </trkpt>
      <trkpt lat="42.019463" lon="2.543481">
        <ele>786.151</ele>
        <time>2021-05-27T08:59:12Z</time>
      </trkpt>
      <trkpt lat="42.019489" lon="2.543462">
        <ele>786.401</ele>
        <time>2021-05-27T08:59:14Z</time>
      </trkpt>
      <trkpt lat="42.019514" lon="2.543449">
        <ele>786.511</ele>
        <time>2021-05-27T08:59:17Z</time>
      </trkpt>
      <trkpt lat="42.019540" lon="2.543447">
        <ele>786.308</ele>
        <time>2021-05-27T08:59:19Z</time>
      </trkpt>
      <trkpt lat="42.019570" lon="2.543458">
        <ele>785.852</ele>
        <time>2021-05-27T08:59:21Z</time>
      </trkpt>
      <trkpt lat="42.019622" lon="2.543463">
        <ele>785.269</ele>
        <time>2021-05-27T08:59:23Z</time>
      </trkpt>
      <trkpt lat="42.019644" lon="2.543457">
        <ele>785.167</ele>
        <time>2021-05-27T08:59:25Z</time>
      </trkpt>
      <trkpt lat="42.019678" lon="2.543450">
        <ele>785.067</ele>
        <time>2021-05-27T08:59:26Z</time>
      </trkpt>
      <trkpt lat="42.019721" lon="2.543447">
        <ele>784.764</ele>
        <time>2021-05-27T08:59:29Z</time>
      </trkpt>
      <trkpt lat="42.019790" lon="2.543435">
        <ele>785.649</ele>
        <time>2021-05-27T08:59:31Z</time>
      </trkpt>
      <trkpt lat="42.019817" lon="2.543432">
        <ele>785.832</ele>
        <time>2021-05-27T08:59:32Z</time>
      </trkpt>
      <trkpt lat="42.019851" lon="2.543431">
        <ele>786.198</ele>
        <time>2021-05-27T08:59:33Z</time>
      </trkpt>
      <trkpt lat="42.019881" lon="2.543439">
        <ele>786.138</ele>
        <time>2021-05-27T08:59:34Z</time>
      </trkpt>
      <trkpt lat="42.019913" lon="2.543455">
        <ele>785.970</ele>
        <time>2021-05-27T08:59:36Z</time>
      </trkpt>
      <trkpt lat="42.019935" lon="2.543476">
        <ele>785.417</ele>
        <time>2021-05-27T08:59:37Z</time>
      </trkpt>
      <trkpt lat="42.019977" lon="2.543507">
        <ele>784.808</ele>
        <time>2021-05-27T08:59:38Z</time>
      </trkpt>
      <trkpt lat="42.019996" lon="2.543521">
        <ele>784.680</ele>
        <time>2021-05-27T08:59:39Z</time>
      </trkpt>
      <trkpt lat="42.020013" lon="2.543539">
        <ele>784.357</ele>
        <time>2021-05-27T08:59:40Z</time>
      </trkpt>
      <trkpt lat="42.020032" lon="2.543556">
        <ele>784.285</ele>
        <time>2021-05-27T08:59:41Z</time>
      </trkpt>
      <trkpt lat="42.020051" lon="2.543574">
        <ele>784.135</ele>
        <time>2021-05-27T08:59:42Z</time>
      </trkpt>
      <trkpt lat="42.020085" lon="2.543599">
        <ele>783.922</ele>
        <time>2021-05-27T08:59:44Z</time>
      </trkpt>
      <trkpt lat="42.020103" lon="2.543615">
        <ele>783.757</ele>
        <time>2021-05-27T08:59:46Z</time>
      </trkpt>
      <trkpt lat="42.020122" lon="2.543628">
        <ele>783.760</ele>
        <time>2021-05-27T08:59:47Z</time>
      </trkpt>
      <trkpt lat="42.020162" lon="2.543653">
        <ele>783.676</ele>
        <time>2021-05-27T08:59:48Z</time>
      </trkpt>
      <trkpt lat="42.020187" lon="2.543661">
        <ele>783.828</ele>
        <time>2021-05-27T08:59:49Z</time>
      </trkpt>
      <trkpt lat="42.020207" lon="2.543669">
        <ele>783.989</ele>
        <time>2021-05-27T08:59:50Z</time>
      </trkpt>
      <trkpt lat="42.020231" lon="2.543679">
        <ele>784.017</ele>
        <time>2021-05-27T08:59:51Z</time>
      </trkpt>
      <trkpt lat="42.020256" lon="2.543689">
        <ele>784.108</ele>
        <time>2021-05-27T08:59:52Z</time>
      </trkpt>
      <trkpt lat="42.020311" lon="2.543713">
        <ele>784.129</ele>
        <time>2021-05-27T08:59:54Z</time>
      </trkpt>
      <trkpt lat="42.020333" lon="2.543722">
        <ele>784.196</ele>
        <time>2021-05-27T08:59:55Z</time>
      </trkpt>
      <trkpt lat="42.020357" lon="2.543732">
        <ele>784.134</ele>
        <time>2021-05-27T08:59:56Z</time>
      </trkpt>
      <trkpt lat="42.020384" lon="2.543744">
        <ele>784.044</ele>
        <time>2021-05-27T08:59:57Z</time>
      </trkpt>
      <trkpt lat="42.020410" lon="2.543757">
        <ele>783.981</ele>
        <time>2021-05-27T08:59:59Z</time>
      </trkpt>
      <trkpt lat="42.020441" lon="2.543773">
        <ele>783.856</ele>
        <time>2021-05-27T09:00:00Z</time>
      </trkpt>
      <trkpt lat="42.020495" lon="2.543805">
        <ele>783.329</ele>
        <time>2021-05-27T09:00:01Z</time>
      </trkpt>
      <trkpt lat="42.020520" lon="2.543814">
        <ele>783.345</ele>
        <time>2021-05-27T09:00:02Z</time>
      </trkpt>
      <trkpt lat="42.020543" lon="2.543826">
        <ele>783.145</ele>
        <time>2021-05-27T09:00:04Z</time>
      </trkpt>
      <trkpt lat="42.020566" lon="2.543838">
        <ele>783.047</ele>
        <time>2021-05-27T09:00:05Z</time>
      </trkpt>
      <trkpt lat="42.020585" lon="2.543847">
        <ele>783.011</ele>
        <time>2021-05-27T09:00:06Z</time>
      </trkpt>
      <trkpt lat="42.020606" lon="2.543856">
        <ele>783.008</ele>
        <time>2021-05-27T09:00:07Z</time>
      </trkpt>
      <trkpt lat="42.020628" lon="2.543863">
        <ele>783.071</ele>
        <time>2021-05-27T09:00:08Z</time>
      </trkpt>
      <trkpt lat="42.020651" lon="2.543872">
        <ele>783.058</ele>
        <time>2021-05-27T09:00:09Z</time>
      </trkpt>
      <trkpt lat="42.020677" lon="2.543881">
        <ele>783.166</ele>
        <time>2021-05-27T09:00:10Z</time>
      </trkpt>
      <trkpt lat="42.020708" lon="2.543896">
        <ele>782.996</ele>
        <time>2021-05-27T09:00:11Z</time>
      </trkpt>
      <trkpt lat="42.020736" lon="2.543908">
        <ele>782.723</ele>
        <time>2021-05-27T09:00:12Z</time>
      </trkpt>
      <trkpt lat="42.020785" lon="2.543927">
        <ele>782.698</ele>
        <time>2021-05-27T09:00:13Z</time>
      </trkpt>
      <trkpt lat="42.020809" lon="2.543941">
        <ele>782.431</ele>
        <time>2021-05-27T09:00:15Z</time>
      </trkpt>
      <trkpt lat="42.020862" lon="2.543972">
        <ele>781.877</ele>
        <time>2021-05-27T09:00:16Z</time>
      </trkpt>
      <trkpt lat="42.020889" lon="2.543982">
        <ele>781.788</ele>
        <time>2021-05-27T09:00:17Z</time>
      </trkpt>
      <trkpt lat="42.020910" lon="2.543990">
        <ele>781.724</ele>
        <time>2021-05-27T09:00:18Z</time>
      </trkpt>
      <trkpt lat="42.020937" lon="2.544001">
        <ele>781.626</ele>
        <time>2021-05-27T09:00:19Z</time>
      </trkpt>
      <trkpt lat="42.020965" lon="2.544009">
        <ele>781.608</ele>
        <time>2021-05-27T09:00:20Z</time>
      </trkpt>
      <trkpt lat="42.020996" lon="2.544019">
        <ele>781.795</ele>
        <time>2021-05-27T09:00:21Z</time>
      </trkpt>
      <trkpt lat="42.021023" lon="2.544027">
        <ele>781.862</ele>
        <time>2021-05-27T09:00:22Z</time>
      </trkpt>
      <trkpt lat="42.021049" lon="2.544033">
        <ele>781.940</ele>
        <time>2021-05-27T09:00:23Z</time>
      </trkpt>
      <trkpt lat="42.021070" lon="2.544041">
        <ele>781.960</ele>
        <time>2021-05-27T09:00:24Z</time>
      </trkpt>
      <trkpt lat="42.021090" lon="2.544047">
        <ele>782.087</ele>
        <time>2021-05-27T09:00:25Z</time>
      </trkpt>
      <trkpt lat="42.021113" lon="2.544054">
        <ele>782.192</ele>
        <time>2021-05-27T09:00:26Z</time>
      </trkpt>
      <trkpt lat="42.021136" lon="2.544060">
        <ele>782.145</ele>
        <time>2021-05-27T09:00:27Z</time>
      </trkpt>
      <trkpt lat="42.021158" lon="2.544059">
        <ele>782.361</ele>
        <time>2021-05-27T09:00:28Z</time>
      </trkpt>
      <trkpt lat="42.021185" lon="2.544063">
        <ele>782.473</ele>
        <time>2021-05-27T09:00:29Z</time>
      </trkpt>
      <trkpt lat="42.021211" lon="2.544068">
        <ele>782.485</ele>
        <time>2021-05-27T09:00:30Z</time>
      </trkpt>
      <trkpt lat="42.021237" lon="2.544076">
        <ele>782.313</ele>
        <time>2021-05-27T09:00:31Z</time>
      </trkpt>
      <trkpt lat="42.021269" lon="2.544083">
        <ele>782.308</ele>
        <time>2021-05-27T09:00:32Z</time>
      </trkpt>
      <trkpt lat="42.021327" lon="2.544098">
        <ele>782.264</ele>
        <time>2021-05-27T09:00:34Z</time>
      </trkpt>
      <trkpt lat="42.021349" lon="2.544107">
        <ele>782.061</ele>
        <time>2021-05-27T09:00:35Z</time>
      </trkpt>
      <trkpt lat="42.021373" lon="2.544114">
        <ele>782.069</ele>
        <time>2021-05-27T09:00:36Z</time>
      </trkpt>
      <trkpt lat="42.021397" lon="2.544126">
        <ele>781.769</ele>
        <time>2021-05-27T09:00:37Z</time>
      </trkpt>
      <trkpt lat="42.021419" lon="2.544140">
        <ele>781.596</ele>
        <time>2021-05-27T09:00:38Z</time>
      </trkpt>
      <trkpt lat="42.021444" lon="2.544154">
        <ele>781.331</ele>
        <time>2021-05-27T09:00:39Z</time>
      </trkpt>
      <trkpt lat="42.021467" lon="2.544168">
        <ele>781.124</ele>
        <time>2021-05-27T09:00:40Z</time>
      </trkpt>
      <trkpt lat="42.021490" lon="2.544177">
        <ele>781.080</ele>
        <time>2021-05-27T09:00:41Z</time>
      </trkpt>
      <trkpt lat="42.021517" lon="2.544185">
        <ele>781.122</ele>
        <time>2021-05-27T09:00:42Z</time>
      </trkpt>
      <trkpt lat="42.021541" lon="2.544197">
        <ele>781.062</ele>
        <time>2021-05-27T09:00:43Z</time>
      </trkpt>
      <trkpt lat="42.021561" lon="2.544208">
        <ele>780.908</ele>
        <time>2021-05-27T09:00:44Z</time>
      </trkpt>
      <trkpt lat="42.021584" lon="2.544216">
        <ele>781.008</ele>
        <time>2021-05-27T09:00:45Z</time>
      </trkpt>
      <trkpt lat="42.021606" lon="2.544227">
        <ele>781.069</ele>
        <time>2021-05-27T09:00:46Z</time>
      </trkpt>
      <trkpt lat="42.021628" lon="2.544240">
        <ele>780.936</ele>
        <time>2021-05-27T09:00:47Z</time>
      </trkpt>
      <trkpt lat="42.021650" lon="2.544252">
        <ele>780.934</ele>
        <time>2021-05-27T09:00:48Z</time>
      </trkpt>
      <trkpt lat="42.021674" lon="2.544261">
        <ele>781.174</ele>
        <time>2021-05-27T09:00:49Z</time>
      </trkpt>
      <trkpt lat="42.021694" lon="2.544272">
        <ele>781.061</ele>
        <time>2021-05-27T09:00:50Z</time>
      </trkpt>
      <trkpt lat="42.021715" lon="2.544284">
        <ele>781.036</ele>
        <time>2021-05-27T09:00:51Z</time>
      </trkpt>
      <trkpt lat="42.021760" lon="2.544316">
        <ele>780.759</ele>
        <time>2021-05-27T09:00:53Z</time>
      </trkpt>
      <trkpt lat="42.021782" lon="2.544334">
        <ele>780.565</ele>
        <time>2021-05-27T09:00:54Z</time>
      </trkpt>
      <trkpt lat="42.021805" lon="2.544355">
        <ele>780.213</ele>
        <time>2021-05-27T09:00:55Z</time>
      </trkpt>
      <trkpt lat="42.021828" lon="2.544375">
        <ele>780.043</ele>
        <time>2021-05-27T09:00:56Z</time>
      </trkpt>
      <trkpt lat="42.021851" lon="2.544396">
        <ele>779.807</ele>
        <time>2021-05-27T09:00:57Z</time>
      </trkpt>
      <trkpt lat="42.021897" lon="2.544435">
        <ele>779.408</ele>
        <time>2021-05-27T09:00:59Z</time>
      </trkpt>
      <trkpt lat="42.021920" lon="2.544451">
        <ele>779.418</ele>
        <time>2021-05-27T09:01:01Z</time>
      </trkpt>
      <trkpt lat="42.021961" lon="2.544489">
        <ele>779.055</ele>
        <time>2021-05-27T09:01:02Z</time>
      </trkpt>
      <trkpt lat="42.021983" lon="2.544508">
        <ele>778.793</ele>
        <time>2021-05-27T09:01:04Z</time>
      </trkpt>
      <trkpt lat="42.022005" lon="2.544524">
        <ele>778.543</ele>
        <time>2021-05-27T09:01:05Z</time>
      </trkpt>
      <trkpt lat="42.022028" lon="2.544543">
        <ele>778.220</ele>
        <time>2021-05-27T09:01:06Z</time>
      </trkpt>
      <trkpt lat="42.022051" lon="2.544564">
        <ele>778.055</ele>
        <time>2021-05-27T09:01:07Z</time>
      </trkpt>
      <trkpt lat="42.022099" lon="2.544598">
        <ele>777.948</ele>
        <time>2021-05-27T09:01:08Z</time>
      </trkpt>
      <trkpt lat="42.022123" lon="2.544611">
        <ele>778.024</ele>
        <time>2021-05-27T09:01:09Z</time>
      </trkpt>
      <trkpt lat="42.022146" lon="2.544622">
        <ele>778.148</ele>
        <time>2021-05-27T09:01:10Z</time>
      </trkpt>
      <trkpt lat="42.022169" lon="2.544634">
        <ele>778.261</ele>
        <time>2021-05-27T09:01:11Z</time>
      </trkpt>
      <trkpt lat="42.022218" lon="2.544645">
        <ele>778.817</ele>
        <time>2021-05-27T09:01:13Z</time>
      </trkpt>
      <trkpt lat="42.022240" lon="2.544641">
        <ele>778.408</ele>
        <time>2021-05-27T09:01:14Z</time>
      </trkpt>
      <trkpt lat="42.022260" lon="2.544633">
        <ele>778.021</ele>
        <time>2021-05-27T09:01:15Z</time>
      </trkpt>
      <trkpt lat="42.022285" lon="2.544630">
        <ele>777.388</ele>
        <time>2021-05-27T09:01:17Z</time>
      </trkpt>
      <trkpt lat="42.022310" lon="2.544630">
        <ele>776.776</ele>
        <time>2021-05-27T09:01:18Z</time>
      </trkpt>
      <trkpt lat="42.022352" lon="2.544619">
        <ele>775.746</ele>
        <time>2021-05-27T09:01:19Z</time>
      </trkpt>
      <trkpt lat="42.022371" lon="2.544610">
        <ele>775.413</ele>
        <time>2021-05-27T09:01:21Z</time>
      </trkpt>
      <trkpt lat="42.022404" lon="2.544588">
        <ele>774.898</ele>
        <time>2021-05-27T09:01:22Z</time>
      </trkpt>
      <trkpt lat="42.022422" lon="2.544567">
        <ele>774.771</ele>
        <time>2021-05-27T09:01:23Z</time>
      </trkpt>
      <trkpt lat="42.022441" lon="2.544543">
        <ele>774.777</ele>
        <time>2021-05-27T09:01:24Z</time>
      </trkpt>
      <trkpt lat="42.022455" lon="2.544520">
        <ele>774.763</ele>
        <time>2021-05-27T09:01:25Z</time>
      </trkpt>
      <trkpt lat="42.022470" lon="2.544496">
        <ele>774.844</ele>
        <time>2021-05-27T09:01:27Z</time>
      </trkpt>
      <trkpt lat="42.022486" lon="2.544464">
        <ele>775.018</ele>
        <time>2021-05-27T09:01:28Z</time>
      </trkpt>
      <trkpt lat="42.022517" lon="2.544401">
        <ele>774.808</ele>
        <time>2021-05-27T09:01:29Z</time>
      </trkpt>
      <trkpt lat="42.022529" lon="2.544368">
        <ele>774.763</ele>
        <time>2021-05-27T09:01:30Z</time>
      </trkpt>
      <trkpt lat="42.022542" lon="2.544336">
        <ele>774.510</ele>
        <time>2021-05-27T09:01:31Z</time>
      </trkpt>
      <trkpt lat="42.022553" lon="2.544309">
        <ele>774.448</ele>
        <time>2021-05-27T09:01:32Z</time>
      </trkpt>
      <trkpt lat="42.022564" lon="2.544283">
        <ele>774.268</ele>
        <time>2021-05-27T09:01:33Z</time>
      </trkpt>
      <trkpt lat="42.022586" lon="2.544220">
        <ele>774.085</ele>
        <time>2021-05-27T09:01:35Z</time>
      </trkpt>
      <trkpt lat="42.022595" lon="2.544191">
        <ele>774.070</ele>
        <time>2021-05-27T09:01:36Z</time>
      </trkpt>
      <trkpt lat="42.022604" lon="2.544164">
        <ele>773.993</ele>
        <time>2021-05-27T09:01:37Z</time>
      </trkpt>
      <trkpt lat="42.022614" lon="2.544137">
        <ele>774.049</ele>
        <time>2021-05-27T09:01:38Z</time>
      </trkpt>
      <trkpt lat="42.022620" lon="2.544111">
        <ele>774.229</ele>
        <time>2021-05-27T09:01:39Z</time>
      </trkpt>
      <trkpt lat="42.022623" lon="2.544080">
        <ele>774.600</ele>
        <time>2021-05-27T09:01:40Z</time>
      </trkpt>
      <trkpt lat="42.022630" lon="2.544052">
        <ele>774.720</ele>
        <time>2021-05-27T09:01:42Z</time>
      </trkpt>
      <trkpt lat="42.022641" lon="2.544025">
        <ele>774.708</ele>
        <time>2021-05-27T09:01:43Z</time>
      </trkpt>
      <trkpt lat="42.022699" lon="2.543901">
        <ele>774.219</ele>
        <time>2021-05-27T09:01:46Z</time>
      </trkpt>
      <trkpt lat="42.022760" lon="2.543796">
        <ele>773.856</ele>
        <time>2021-05-27T09:01:50Z</time>
      </trkpt>
      <trkpt lat="42.022822" lon="2.543705">
        <ele>773.534</ele>
        <time>2021-05-27T09:01:54Z</time>
      </trkpt>
      <trkpt lat="42.022910" lon="2.543617">
        <ele>772.644</ele>
        <time>2021-05-27T09:01:59Z</time>
      </trkpt>
      <trkpt lat="42.022993" lon="2.543514">
        <ele>771.771</ele>
        <time>2021-05-27T09:02:04Z</time>
      </trkpt>
      <trkpt lat="42.023044" lon="2.543395">
        <ele>771.686</ele>
        <time>2021-05-27T09:02:07Z</time>
      </trkpt>
      <trkpt lat="42.023122" lon="2.543314">
        <ele>769.669</ele>
        <time>2021-05-27T09:02:12Z</time>
      </trkpt>
      <trkpt lat="42.023169" lon="2.543290">
        <ele>768.415</ele>
        <time>2021-05-27T09:02:14Z</time>
      </trkpt>
      <trkpt lat="42.023211" lon="2.543261">
        <ele>767.624</ele>
        <time>2021-05-27T09:02:15Z</time>
      </trkpt>
      <trkpt lat="42.023233" lon="2.543248">
        <ele>767.204</ele>
        <time>2021-05-27T09:02:16Z</time>
      </trkpt>
      <trkpt lat="42.023254" lon="2.543237">
        <ele>766.714</ele>
        <time>2021-05-27T09:02:17Z</time>
      </trkpt>
      <trkpt lat="42.023272" lon="2.543226">
        <ele>766.508</ele>
        <time>2021-05-27T09:02:18Z</time>
      </trkpt>
      <trkpt lat="42.023354" lon="2.543170">
        <ele>766.189</ele>
        <time>2021-05-27T09:02:22Z</time>
      </trkpt>
      <trkpt lat="42.023438" lon="2.543122">
        <ele>766.616</ele>
        <time>2021-05-27T09:02:26Z</time>
      </trkpt>
      <trkpt lat="42.023534" lon="2.543086">
        <ele>766.394</ele>
        <time>2021-05-27T09:02:30Z</time>
      </trkpt>
      <trkpt lat="42.023632" lon="2.543053">
        <ele>765.844</ele>
        <time>2021-05-27T09:02:34Z</time>
      </trkpt>
      <trkpt lat="42.023745" lon="2.543030">
        <ele>764.711</ele>
        <time>2021-05-27T09:02:38Z</time>
      </trkpt>
      <trkpt lat="42.023847" lon="2.543003">
        <ele>763.916</ele>
        <time>2021-05-27T09:02:42Z</time>
      </trkpt>
      <trkpt lat="42.023897" lon="2.542999">
        <ele>763.439</ele>
        <time>2021-05-27T09:02:44Z</time>
      </trkpt>
      <trkpt lat="42.023923" lon="2.542999">
        <ele>763.275</ele>
        <time>2021-05-27T09:02:46Z</time>
      </trkpt>
      <trkpt lat="42.023976" lon="2.542998">
        <ele>762.962</ele>
        <time>2021-05-27T09:02:47Z</time>
      </trkpt>
      <trkpt lat="42.024005" lon="2.542996">
        <ele>762.883</ele>
        <time>2021-05-27T09:02:48Z</time>
      </trkpt>
      <trkpt lat="42.024030" lon="2.542993">
        <ele>762.711</ele>
        <time>2021-05-27T09:02:49Z</time>
      </trkpt>
      <trkpt lat="42.024055" lon="2.542991">
        <ele>762.608</ele>
        <time>2021-05-27T09:02:50Z</time>
      </trkpt>
      <trkpt lat="42.024079" lon="2.542986">
        <ele>762.653</ele>
        <time>2021-05-27T09:02:52Z</time>
      </trkpt>
      <trkpt lat="42.024104" lon="2.542983">
        <ele>762.540</ele>
        <time>2021-05-27T09:02:53Z</time>
      </trkpt>
      <trkpt lat="42.024151" lon="2.542981">
        <ele>762.238</ele>
        <time>2021-05-27T09:02:55Z</time>
      </trkpt>
      <trkpt lat="42.024195" lon="2.542975">
        <ele>762.188</ele>
        <time>2021-05-27T09:02:56Z</time>
      </trkpt>
      <trkpt lat="42.024220" lon="2.542970">
        <ele>762.085</ele>
        <time>2021-05-27T09:02:57Z</time>
      </trkpt>
      <trkpt lat="42.024268" lon="2.542959">
        <ele>761.910</ele>
        <time>2021-05-27T09:02:59Z</time>
      </trkpt>
      <trkpt lat="42.024318" lon="2.542946">
        <ele>761.963</ele>
        <time>2021-05-27T09:03:01Z</time>
      </trkpt>
      <trkpt lat="42.024369" lon="2.542932">
        <ele>761.839</ele>
        <time>2021-05-27T09:03:04Z</time>
      </trkpt>
      <trkpt lat="42.024416" lon="2.542912">
        <ele>761.951</ele>
        <time>2021-05-27T09:03:05Z</time>
      </trkpt>
      <trkpt lat="42.024439" lon="2.542899">
        <ele>762.001</ele>
        <time>2021-05-27T09:03:06Z</time>
      </trkpt>
      <trkpt lat="42.024462" lon="2.542887">
        <ele>761.911</ele>
        <time>2021-05-27T09:03:07Z</time>
      </trkpt>
      <trkpt lat="42.024486" lon="2.542879">
        <ele>761.508</ele>
        <time>2021-05-27T09:03:08Z</time>
      </trkpt>
      <trkpt lat="42.024509" lon="2.542871">
        <ele>761.372</ele>
        <time>2021-05-27T09:03:09Z</time>
      </trkpt>
      <trkpt lat="42.024532" lon="2.542860">
        <ele>761.139</ele>
        <time>2021-05-27T09:03:10Z</time>
      </trkpt>
      <trkpt lat="42.024570" lon="2.542834">
        <ele>761.087</ele>
        <time>2021-05-27T09:03:12Z</time>
      </trkpt>
      <trkpt lat="42.024591" lon="2.542823">
        <ele>761.017</ele>
        <time>2021-05-27T09:03:13Z</time>
      </trkpt>
      <trkpt lat="42.024612" lon="2.542813">
        <ele>760.914</ele>
        <time>2021-05-27T09:03:14Z</time>
      </trkpt>
      <trkpt lat="42.024628" lon="2.542801">
        <ele>760.979</ele>
        <time>2021-05-27T09:03:15Z</time>
      </trkpt>
      <trkpt lat="42.024672" lon="2.542772">
        <ele>761.142</ele>
        <time>2021-05-27T09:03:18Z</time>
      </trkpt>
      <trkpt lat="42.024692" lon="2.542762">
        <ele>761.058</ele>
        <time>2021-05-27T09:03:19Z</time>
      </trkpt>
      <trkpt lat="42.024717" lon="2.542749">
        <ele>760.965</ele>
        <time>2021-05-27T09:03:20Z</time>
      </trkpt>
      <trkpt lat="42.024742" lon="2.542742">
        <ele>761.068</ele>
        <time>2021-05-27T09:03:21Z</time>
      </trkpt>
      <trkpt lat="42.024768" lon="2.542738">
        <ele>761.114</ele>
        <time>2021-05-27T09:03:22Z</time>
      </trkpt>
      <trkpt lat="42.024792" lon="2.542731">
        <ele>761.308</ele>
        <time>2021-05-27T09:03:23Z</time>
      </trkpt>
      <trkpt lat="42.024815" lon="2.542728">
        <ele>761.473</ele>
        <time>2021-05-27T09:03:24Z</time>
      </trkpt>
      <trkpt lat="42.024840" lon="2.542722">
        <ele>761.630</ele>
        <time>2021-05-27T09:03:25Z</time>
      </trkpt>
      <trkpt lat="42.024865" lon="2.542716">
        <ele>761.848</ele>
        <time>2021-05-27T09:03:26Z</time>
      </trkpt>
      <trkpt lat="42.024886" lon="2.542714">
        <ele>761.858</ele>
        <time>2021-05-27T09:03:27Z</time>
      </trkpt>
      <trkpt lat="42.024907" lon="2.542709">
        <ele>762.015</ele>
        <time>2021-05-27T09:03:28Z</time>
      </trkpt>
      <trkpt lat="42.024933" lon="2.542710">
        <ele>762.010</ele>
        <time>2021-05-27T09:03:29Z</time>
      </trkpt>
      <trkpt lat="42.024962" lon="2.542709">
        <ele>762.013</ele>
        <time>2021-05-27T09:03:30Z</time>
      </trkpt>
      <trkpt lat="42.024994" lon="2.542711">
        <ele>761.929</ele>
        <time>2021-05-27T09:03:31Z</time>
      </trkpt>
      <trkpt lat="42.025021" lon="2.542719">
        <ele>761.824</ele>
        <time>2021-05-27T09:03:32Z</time>
      </trkpt>
      <trkpt lat="42.025048" lon="2.542726">
        <ele>761.804</ele>
        <time>2021-05-27T09:03:33Z</time>
      </trkpt>
      <trkpt lat="42.025072" lon="2.542737">
        <ele>761.714</ele>
        <time>2021-05-27T09:03:34Z</time>
      </trkpt>
      <trkpt lat="42.025096" lon="2.542750">
        <ele>761.508</ele>
        <time>2021-05-27T09:03:35Z</time>
      </trkpt>
      <trkpt lat="42.025142" lon="2.542776">
        <ele>761.179</ele>
        <time>2021-05-27T09:03:37Z</time>
      </trkpt>
      <trkpt lat="42.025164" lon="2.542777">
        <ele>761.226</ele>
        <time>2021-05-27T09:03:39Z</time>
      </trkpt>
      <trkpt lat="42.025187" lon="2.542783">
        <ele>761.234</ele>
        <time>2021-05-27T09:03:40Z</time>
      </trkpt>
      <trkpt lat="42.025209" lon="2.542785">
        <ele>761.394</ele>
        <time>2021-05-27T09:03:41Z</time>
      </trkpt>
      <trkpt lat="42.025259" lon="2.542790">
        <ele>761.521</ele>
        <time>2021-05-27T09:03:42Z</time>
      </trkpt>
      <trkpt lat="42.025284" lon="2.542790">
        <ele>761.656</ele>
        <time>2021-05-27T09:03:44Z</time>
      </trkpt>
      <trkpt lat="42.025334" lon="2.542793">
        <ele>761.349</ele>
        <time>2021-05-27T09:03:45Z</time>
      </trkpt>
      <trkpt lat="42.025357" lon="2.542792">
        <ele>761.335</ele>
        <time>2021-05-27T09:03:46Z</time>
      </trkpt>
      <trkpt lat="42.025379" lon="2.542790">
        <ele>761.316</ele>
        <time>2021-05-27T09:03:47Z</time>
      </trkpt>
      <trkpt lat="42.025402" lon="2.542789">
        <ele>761.276</ele>
        <time>2021-05-27T09:03:48Z</time>
      </trkpt>
      <trkpt lat="42.025449" lon="2.542777">
        <ele>761.413</ele>
        <time>2021-05-27T09:03:50Z</time>
      </trkpt>
      <trkpt lat="42.025475" lon="2.542774">
        <ele>761.408</ele>
        <time>2021-05-27T09:03:51Z</time>
      </trkpt>
      <trkpt lat="42.025501" lon="2.542770">
        <ele>761.418</ele>
        <time>2021-05-27T09:03:52Z</time>
      </trkpt>
      <trkpt lat="42.025527" lon="2.542771">
        <ele>761.335</ele>
        <time>2021-05-27T09:03:53Z</time>
      </trkpt>
      <trkpt lat="42.025578" lon="2.542775">
        <ele>761.153</ele>
        <time>2021-05-27T09:03:55Z</time>
      </trkpt>
      <trkpt lat="42.025603" lon="2.542780">
        <ele>760.983</ele>
        <time>2021-05-27T09:03:56Z</time>
      </trkpt>
      <trkpt lat="42.025627" lon="2.542783">
        <ele>760.830</ele>
        <time>2021-05-27T09:03:57Z</time>
      </trkpt>
      <trkpt lat="42.025651" lon="2.542782">
        <ele>760.975</ele>
        <time>2021-05-27T09:03:58Z</time>
      </trkpt>
      <trkpt lat="42.025675" lon="2.542779">
        <ele>761.078</ele>
        <time>2021-05-27T09:03:59Z</time>
      </trkpt>
      <trkpt lat="42.025695" lon="2.542771">
        <ele>761.224</ele>
        <time>2021-05-27T09:04:00Z</time>
      </trkpt>
      <trkpt lat="42.025715" lon="2.542763">
        <ele>761.438</ele>
        <time>2021-05-27T09:04:01Z</time>
      </trkpt>
      <trkpt lat="42.025736" lon="2.542755">
        <ele>761.670</ele>
        <time>2021-05-27T09:04:02Z</time>
      </trkpt>
      <trkpt lat="42.025757" lon="2.542751">
        <ele>761.717</ele>
        <time>2021-05-27T09:04:03Z</time>
      </trkpt>
      <trkpt lat="42.025779" lon="2.542750">
        <ele>761.708</ele>
        <time>2021-05-27T09:04:04Z</time>
      </trkpt>
      <trkpt lat="42.025805" lon="2.542758">
        <ele>761.580</ele>
        <time>2021-05-27T09:04:05Z</time>
      </trkpt>
      <trkpt lat="42.025844" lon="2.542780">
        <ele>761.397</ele>
        <time>2021-05-27T09:04:07Z</time>
      </trkpt>
      <trkpt lat="42.025858" lon="2.542798">
        <ele>761.495</ele>
        <time>2021-05-27T09:04:08Z</time>
      </trkpt>
      <trkpt lat="42.025876" lon="2.542813">
        <ele>761.645</ele>
        <time>2021-05-27T09:04:09Z</time>
      </trkpt>
      <trkpt lat="42.025892" lon="2.542831">
        <ele>761.742</ele>
        <time>2021-05-27T09:04:10Z</time>
      </trkpt>
      <trkpt lat="42.025908" lon="2.542850">
        <ele>761.847</ele>
        <time>2021-05-27T09:04:11Z</time>
      </trkpt>
      <trkpt lat="42.025933" lon="2.542888">
        <ele>761.780</ele>
        <time>2021-05-27T09:04:14Z</time>
      </trkpt>
      <trkpt lat="42.025948" lon="2.542912">
        <ele>761.696</ele>
        <time>2021-05-27T09:04:15Z</time>
      </trkpt>
      <trkpt lat="42.025977" lon="2.542956">
        <ele>761.524</ele>
        <time>2021-05-27T09:04:16Z</time>
      </trkpt>
      <trkpt lat="42.025993" lon="2.542981">
        <ele>761.404</ele>
        <time>2021-05-27T09:04:17Z</time>
      </trkpt>
      <trkpt lat="42.026009" lon="2.543005">
        <ele>761.314</ele>
        <time>2021-05-27T09:04:18Z</time>
      </trkpt>
      <trkpt lat="42.026024" lon="2.543034">
        <ele>761.008</ele>
        <time>2021-05-27T09:04:19Z</time>
      </trkpt>
      <trkpt lat="42.026039" lon="2.543062">
        <ele>760.819</ele>
        <time>2021-05-27T09:04:20Z</time>
      </trkpt>
      <trkpt lat="42.026054" lon="2.543088">
        <ele>760.856</ele>
        <time>2021-05-27T09:04:21Z</time>
      </trkpt>
      <trkpt lat="42.026070" lon="2.543111">
        <ele>760.984</ele>
        <time>2021-05-27T09:04:22Z</time>
      </trkpt>
      <trkpt lat="42.026088" lon="2.543135">
        <ele>761.034</ele>
        <time>2021-05-27T09:04:23Z</time>
      </trkpt>
      <trkpt lat="42.026104" lon="2.543158">
        <ele>761.051</ele>
        <time>2021-05-27T09:04:24Z</time>
      </trkpt>
      <trkpt lat="42.026119" lon="2.543183">
        <ele>761.186</ele>
        <time>2021-05-27T09:04:25Z</time>
      </trkpt>
      <trkpt lat="42.026152" lon="2.543228">
        <ele>761.879</ele>
        <time>2021-05-27T09:04:27Z</time>
      </trkpt>
      <trkpt lat="42.026166" lon="2.543256">
        <ele>762.055</ele>
        <time>2021-05-27T09:04:28Z</time>
      </trkpt>
      <trkpt lat="42.026180" lon="2.543281">
        <ele>762.228</ele>
        <time>2021-05-27T09:04:29Z</time>
      </trkpt>
      <trkpt lat="42.026192" lon="2.543308">
        <ele>762.289</ele>
        <time>2021-05-27T09:04:30Z</time>
      </trkpt>
      <trkpt lat="42.026202" lon="2.543338">
        <ele>762.217</ele>
        <time>2021-05-27T09:04:31Z</time>
      </trkpt>
      <trkpt lat="42.026210" lon="2.543370">
        <ele>762.008</ele>
        <time>2021-05-27T09:04:32Z</time>
      </trkpt>
      <trkpt lat="42.026216" lon="2.543401">
        <ele>761.859</ele>
        <time>2021-05-27T09:04:33Z</time>
      </trkpt>
      <trkpt lat="42.026222" lon="2.543430">
        <ele>761.666</ele>
        <time>2021-05-27T09:04:34Z</time>
      </trkpt>
      <trkpt lat="42.026226" lon="2.543462">
        <ele>761.254</ele>
        <time>2021-05-27T09:04:35Z</time>
      </trkpt>
      <trkpt lat="42.026243" lon="2.543524">
        <ele>760.824</ele>
        <time>2021-05-27T09:04:37Z</time>
      </trkpt>
      <trkpt lat="42.026254" lon="2.543553">
        <ele>760.771</ele>
        <time>2021-05-27T09:04:39Z</time>
      </trkpt>
      <trkpt lat="42.026278" lon="2.543610">
        <ele>760.486</ele>
        <time>2021-05-27T09:04:40Z</time>
      </trkpt>
      <trkpt lat="42.026303" lon="2.543667">
        <ele>759.959</ele>
        <time>2021-05-27T09:04:42Z</time>
      </trkpt>
      <trkpt lat="42.026318" lon="2.543698">
        <ele>759.635</ele>
        <time>2021-05-27T09:04:44Z</time>
      </trkpt>
      <trkpt lat="42.026333" lon="2.543726">
        <ele>759.452</ele>
        <time>2021-05-27T09:04:45Z</time>
      </trkpt>
      <trkpt lat="42.026352" lon="2.543751">
        <ele>759.353</ele>
        <time>2021-05-27T09:04:46Z</time>
      </trkpt>
      <trkpt lat="42.026368" lon="2.543777">
        <ele>759.208</ele>
        <time>2021-05-27T09:04:47Z</time>
      </trkpt>
      <trkpt lat="42.026383" lon="2.543800">
        <ele>759.108</ele>
        <time>2021-05-27T09:04:48Z</time>
      </trkpt>
      <trkpt lat="42.026401" lon="2.543824">
        <ele>759.192</ele>
        <time>2021-05-27T09:04:49Z</time>
      </trkpt>
      <trkpt lat="42.026419" lon="2.543848">
        <ele>759.139</ele>
        <time>2021-05-27T09:04:50Z</time>
      </trkpt>
      <trkpt lat="42.026437" lon="2.543873">
        <ele>759.027</ele>
        <time>2021-05-27T09:04:51Z</time>
      </trkpt>
      <trkpt lat="42.026452" lon="2.543899">
        <ele>758.947</ele>
        <time>2021-05-27T09:04:52Z</time>
      </trkpt>
      <trkpt lat="42.026471" lon="2.543922">
        <ele>759.014</ele>
        <time>2021-05-27T09:04:53Z</time>
      </trkpt>
      <trkpt lat="42.026488" lon="2.543942">
        <ele>759.249</ele>
        <time>2021-05-27T09:04:54Z</time>
      </trkpt>
      <trkpt lat="42.026508" lon="2.543962">
        <ele>759.412</ele>
        <time>2021-05-27T09:04:55Z</time>
      </trkpt>
      <trkpt lat="42.026526" lon="2.543986">
        <ele>759.438</ele>
        <time>2021-05-27T09:04:56Z</time>
      </trkpt>
      <trkpt lat="42.026544" lon="2.544012">
        <ele>759.367</ele>
        <time>2021-05-27T09:04:57Z</time>
      </trkpt>
      <trkpt lat="42.026573" lon="2.544068">
        <ele>758.781</ele>
        <time>2021-05-27T09:04:58Z</time>
      </trkpt>
      <trkpt lat="42.026604" lon="2.544127">
        <ele>757.919</ele>
        <time>2021-05-27T09:05:00Z</time>
      </trkpt>
      <trkpt lat="42.026622" lon="2.544156">
        <ele>757.508</ele>
        <time>2021-05-27T09:05:01Z</time>
      </trkpt>
      <trkpt lat="42.026637" lon="2.544184">
        <ele>757.163</ele>
        <time>2021-05-27T09:05:03Z</time>
      </trkpt>
      <trkpt lat="42.026653" lon="2.544211">
        <ele>756.990</ele>
        <time>2021-05-27T09:05:04Z</time>
      </trkpt>
      <trkpt lat="42.026670" lon="2.544235">
        <ele>756.968</ele>
        <time>2021-05-27T09:05:05Z</time>
      </trkpt>
      <trkpt lat="42.026689" lon="2.544254">
        <ele>757.178</ele>
        <time>2021-05-27T09:05:06Z</time>
      </trkpt>
      <trkpt lat="42.026708" lon="2.544275">
        <ele>757.225</ele>
        <time>2021-05-27T09:05:07Z</time>
      </trkpt>
      <trkpt lat="42.026728" lon="2.544298">
        <ele>757.350</ele>
        <time>2021-05-27T09:05:08Z</time>
      </trkpt>
      <trkpt lat="42.026747" lon="2.544316">
        <ele>757.483</ele>
        <time>2021-05-27T09:05:09Z</time>
      </trkpt>
      <trkpt lat="42.026764" lon="2.544339">
        <ele>757.479</ele>
        <time>2021-05-27T09:05:10Z</time>
      </trkpt>
      <trkpt lat="42.026780" lon="2.544366">
        <ele>757.256</ele>
        <time>2021-05-27T09:05:11Z</time>
      </trkpt>
      <trkpt lat="42.026799" lon="2.544389">
        <ele>757.159</ele>
        <time>2021-05-27T09:05:12Z</time>
      </trkpt>
      <trkpt lat="42.026818" lon="2.544411">
        <ele>757.114</ele>
        <time>2021-05-27T09:05:13Z</time>
      </trkpt>
      <trkpt lat="42.026834" lon="2.544437">
        <ele>756.808</ele>
        <time>2021-05-27T09:05:14Z</time>
      </trkpt>
      <trkpt lat="42.026854" lon="2.544460">
        <ele>756.772</ele>
        <time>2021-05-27T09:05:15Z</time>
      </trkpt>
      <trkpt lat="42.026873" lon="2.544482">
        <ele>756.669</ele>
        <time>2021-05-27T09:05:16Z</time>
      </trkpt>
      <trkpt lat="42.026908" lon="2.544524">
        <ele>756.577</ele>
        <time>2021-05-27T09:05:17Z</time>
      </trkpt>
      <trkpt lat="42.026924" lon="2.544548">
        <ele>756.327</ele>
        <time>2021-05-27T09:05:18Z</time>
      </trkpt>
      <trkpt lat="42.026935" lon="2.544575">
        <ele>756.054</ele>
        <time>2021-05-27T09:05:20Z</time>
      </trkpt>
      <trkpt lat="42.026949" lon="2.544601">
        <ele>755.879</ele>
        <time>2021-05-27T09:05:21Z</time>
      </trkpt>
      <trkpt lat="42.026963" lon="2.544626">
        <ele>755.712</ele>
        <time>2021-05-27T09:05:22Z</time>
      </trkpt>
      <trkpt lat="42.026976" lon="2.544652">
        <ele>755.548</ele>
        <time>2021-05-27T09:05:23Z</time>
      </trkpt>
      <trkpt lat="42.026993" lon="2.544678">
        <ele>755.556</ele>
        <time>2021-05-27T09:05:24Z</time>
      </trkpt>
      <trkpt lat="42.027010" lon="2.544705">
        <ele>755.359</ele>
        <time>2021-05-27T09:05:25Z</time>
      </trkpt>
      <trkpt lat="42.027028" lon="2.544732">
        <ele>755.214</ele>
        <time>2021-05-27T09:05:26Z</time>
      </trkpt>
      <trkpt lat="42.027048" lon="2.544754">
        <ele>755.308</ele>
        <time>2021-05-27T09:05:27Z</time>
      </trkpt>
      <trkpt lat="42.027061" lon="2.544778">
        <ele>755.112</ele>
        <time>2021-05-27T09:05:28Z</time>
      </trkpt>
      <trkpt lat="42.027073" lon="2.544802">
        <ele>754.979</ele>
        <time>2021-05-27T09:05:29Z</time>
      </trkpt>
      <trkpt lat="42.027085" lon="2.544830">
        <ele>754.527</ele>
        <time>2021-05-27T09:05:30Z</time>
      </trkpt>
      <trkpt lat="42.027096" lon="2.544858">
        <ele>754.167</ele>
        <time>2021-05-27T09:05:31Z</time>
      </trkpt>
      <trkpt lat="42.027110" lon="2.544885">
        <ele>753.714</ele>
        <time>2021-05-27T09:05:32Z</time>
      </trkpt>
      <trkpt lat="42.027138" lon="2.544947">
        <ele>752.579</ele>
        <time>2021-05-27T09:05:33Z</time>
      </trkpt>
      <trkpt lat="42.027151" lon="2.544976">
        <ele>751.972</ele>
        <time>2021-05-27T09:05:35Z</time>
      </trkpt>
      <trkpt lat="42.027174" lon="2.545025">
        <ele>751.218</ele>
        <time>2021-05-27T09:05:36Z</time>
      </trkpt>
      <trkpt lat="42.027184" lon="2.545053">
        <ele>751.048</ele>
        <time>2021-05-27T09:05:38Z</time>
      </trkpt>
      <trkpt lat="42.027189" lon="2.545083">
        <ele>750.761</ele>
        <time>2021-05-27T09:05:39Z</time>
      </trkpt>
      <trkpt lat="42.027192" lon="2.545115">
        <ele>750.417</ele>
        <time>2021-05-27T09:05:40Z</time>
      </trkpt>
      <trkpt lat="42.027186" lon="2.545149">
        <ele>749.908</ele>
        <time>2021-05-27T09:05:41Z</time>
      </trkpt>
      <trkpt lat="42.027166" lon="2.545184">
        <ele>749.311</ele>
        <time>2021-05-27T09:05:42Z</time>
      </trkpt>
      <trkpt lat="42.027153" lon="2.545211">
        <ele>748.848</ele>
        <time>2021-05-27T09:05:43Z</time>
      </trkpt>
      <trkpt lat="42.027138" lon="2.545232">
        <ele>748.326</ele>
        <time>2021-05-27T09:05:44Z</time>
      </trkpt>
      <trkpt lat="42.027121" lon="2.545251">
        <ele>747.986</ele>
        <time>2021-05-27T09:05:45Z</time>
      </trkpt>
      <trkpt lat="42.027108" lon="2.545269">
        <ele>747.533</ele>
        <time>2021-05-27T09:05:46Z</time>
      </trkpt>
      <trkpt lat="42.027083" lon="2.545305">
        <ele>746.788</ele>
        <time>2021-05-27T09:05:48Z</time>
      </trkpt>
      <trkpt lat="42.027071" lon="2.545327">
        <ele>746.381</ele>
        <time>2021-05-27T09:05:49Z</time>
      </trkpt>
      <trkpt lat="42.027063" lon="2.545352">
        <ele>745.997</ele>
        <time>2021-05-27T09:05:50Z</time>
      </trkpt>
      <trkpt lat="42.027056" lon="2.545379">
        <ele>745.542</ele>
        <time>2021-05-27T09:05:51Z</time>
      </trkpt>
      <trkpt lat="42.027051" lon="2.545408">
        <ele>745.122</ele>
        <time>2021-05-27T09:05:52Z</time>
      </trkpt>
      <trkpt lat="42.027049" lon="2.545469">
        <ele>744.414</ele>
        <time>2021-05-27T09:05:53Z</time>
      </trkpt>
      <trkpt lat="42.027049" lon="2.545533">
        <ele>743.708</ele>
        <time>2021-05-27T09:05:55Z</time>
      </trkpt>
      <trkpt lat="42.027052" lon="2.545565">
        <ele>743.541</ele>
        <time>2021-05-27T09:05:56Z</time>
      </trkpt>
      <trkpt lat="42.027056" lon="2.545596">
        <ele>743.338</ele>
        <time>2021-05-27T09:05:58Z</time>
      </trkpt>
      <trkpt lat="42.027058" lon="2.545630">
        <ele>743.176</ele>
        <time>2021-05-27T09:05:59Z</time>
      </trkpt>
      <trkpt lat="42.027061" lon="2.545656">
        <ele>743.086</ele>
        <time>2021-05-27T09:06:00Z</time>
      </trkpt>
      <trkpt lat="42.027071" lon="2.545696">
        <ele>742.963</ele>
        <time>2021-05-27T09:06:01Z</time>
      </trkpt>
      <trkpt lat="42.027072" lon="2.545723">
        <ele>742.738</ele>
        <time>2021-05-27T09:06:03Z</time>
      </trkpt>
      <trkpt lat="42.027078" lon="2.545748">
        <ele>742.611</ele>
        <time>2021-05-27T09:06:05Z</time>
      </trkpt>
      <trkpt lat="42.027091" lon="2.545791">
        <ele>742.487</ele>
        <time>2021-05-27T09:06:07Z</time>
      </trkpt>
      <trkpt lat="42.027104" lon="2.545811">
        <ele>742.343</ele>
        <time>2021-05-27T09:06:08Z</time>
      </trkpt>
      <trkpt lat="42.027125" lon="2.545830">
        <ele>742.364</ele>
        <time>2021-05-27T09:06:10Z</time>
      </trkpt>
      <trkpt lat="42.027177" lon="2.545856">
        <ele>742.410</ele>
        <time>2021-05-27T09:06:11Z</time>
      </trkpt>
      <trkpt lat="42.027206" lon="2.545864">
        <ele>742.508</ele>
        <time>2021-05-27T09:06:12Z</time>
      </trkpt>
      <trkpt lat="42.027233" lon="2.545869">
        <ele>742.111</ele>
        <time>2021-05-27T09:06:13Z</time>
      </trkpt>
      <trkpt lat="42.027259" lon="2.545861">
        <ele>741.348</ele>
        <time>2021-05-27T09:06:15Z</time>
      </trkpt>
      <trkpt lat="42.027310" lon="2.545833">
        <ele>739.876</ele>
        <time>2021-05-27T09:06:16Z</time>
      </trkpt>
      <trkpt lat="42.027357" lon="2.545803">
        <ele>738.616</ele>
        <time>2021-05-27T09:06:18Z</time>
      </trkpt>
      <trkpt lat="42.027380" lon="2.545782">
        <ele>738.273</ele>
        <time>2021-05-27T09:06:19Z</time>
      </trkpt>
      <trkpt lat="42.027400" lon="2.545761">
        <ele>737.928</ele>
        <time>2021-05-27T09:06:20Z</time>
      </trkpt>
      <trkpt lat="42.027421" lon="2.545736">
        <ele>737.651</ele>
        <time>2021-05-27T09:06:21Z</time>
      </trkpt>
      <trkpt lat="42.027457" lon="2.545691">
        <ele>737.487</ele>
        <time>2021-05-27T09:06:23Z</time>
      </trkpt>
      <trkpt lat="42.027486" lon="2.545650">
        <ele>737.458</ele>
        <time>2021-05-27T09:06:25Z</time>
      </trkpt>
      <trkpt lat="42.027501" lon="2.545627">
        <ele>737.452</ele>
        <time>2021-05-27T09:06:26Z</time>
      </trkpt>
      <trkpt lat="42.027519" lon="2.545605">
        <ele>737.417</ele>
        <time>2021-05-27T09:06:27Z</time>
      </trkpt>
      <trkpt lat="42.027535" lon="2.545586">
        <ele>737.308</ele>
        <time>2021-05-27T09:06:28Z</time>
      </trkpt>
      <trkpt lat="42.027558" lon="2.545563">
        <ele>737.212</ele>
        <time>2021-05-27T09:06:29Z</time>
      </trkpt>
      <trkpt lat="42.027578" lon="2.545540">
        <ele>737.159</ele>
        <time>2021-05-27T09:06:31Z</time>
      </trkpt>
      <trkpt lat="42.027599" lon="2.545519">
        <ele>737.067</ele>
        <time>2021-05-27T09:06:32Z</time>
      </trkpt>
      <trkpt lat="42.027619" lon="2.545499">
        <ele>737.027</ele>
        <time>2021-05-27T09:06:33Z</time>
      </trkpt>
      <trkpt lat="42.027638" lon="2.545481">
        <ele>736.934</ele>
        <time>2021-05-27T09:06:34Z</time>
      </trkpt>
      <trkpt lat="42.027658" lon="2.545463">
        <ele>736.889</ele>
        <time>2021-05-27T09:06:35Z</time>
      </trkpt>
      <trkpt lat="42.027676" lon="2.545446">
        <ele>736.892</ele>
        <time>2021-05-27T09:06:36Z</time>
      </trkpt>
      <trkpt lat="42.027696" lon="2.545430">
        <ele>736.778</ele>
        <time>2021-05-27T09:06:37Z</time>
      </trkpt>
      <trkpt lat="42.027717" lon="2.545419">
        <ele>736.546</ele>
        <time>2021-05-27T09:06:38Z</time>
      </trkpt>
      <trkpt lat="42.027741" lon="2.545417">
        <ele>735.988</ele>
        <time>2021-05-27T09:06:39Z</time>
      </trkpt>
      <trkpt lat="42.027792" lon="2.545426">
        <ele>734.516</ele>
        <time>2021-05-27T09:06:40Z</time>
      </trkpt>
      <trkpt lat="42.027817" lon="2.545436">
        <ele>733.908</ele>
        <time>2021-05-27T09:06:41Z</time>
      </trkpt>
      <trkpt lat="42.027837" lon="2.545444">
        <ele>733.391</ele>
        <time>2021-05-27T09:06:42Z</time>
      </trkpt>
      <trkpt lat="42.027862" lon="2.545454">
        <ele>732.668</ele>
        <time>2021-05-27T09:06:43Z</time>
      </trkpt>
      <trkpt lat="42.027885" lon="2.545461">
        <ele>732.196</ele>
        <time>2021-05-27T09:06:44Z</time>
      </trkpt>
      <trkpt lat="42.027908" lon="2.545465">
        <ele>731.696</ele>
        <time>2021-05-27T09:06:46Z</time>
      </trkpt>
      <trkpt lat="42.027932" lon="2.545467">
        <ele>731.133</ele>
        <time>2021-05-27T09:06:47Z</time>
      </trkpt>
      <trkpt lat="42.027989" lon="2.545466">
        <ele>730.318</ele>
        <time>2021-05-27T09:06:48Z</time>
      </trkpt>
      <trkpt lat="42.028017" lon="2.545463">
        <ele>729.961</ele>
        <time>2021-05-27T09:06:49Z</time>
      </trkpt>
      <trkpt lat="42.028044" lon="2.545456">
        <ele>729.877</ele>
        <time>2021-05-27T09:06:50Z</time>
      </trkpt>
      <trkpt lat="42.028071" lon="2.545451">
        <ele>729.667</ele>
        <time>2021-05-27T09:06:51Z</time>
      </trkpt>
      <trkpt lat="42.028099" lon="2.545447">
        <ele>729.481</ele>
        <time>2021-05-27T09:06:52Z</time>
      </trkpt>
      <trkpt lat="42.028125" lon="2.545439">
        <ele>729.319</ele>
        <time>2021-05-27T09:06:53Z</time>
      </trkpt>
      <trkpt lat="42.028152" lon="2.545431">
        <ele>729.308</ele>
        <time>2021-05-27T09:06:54Z</time>
      </trkpt>
      <trkpt lat="42.028181" lon="2.545429">
        <ele>729.093</ele>
        <time>2021-05-27T09:06:55Z</time>
      </trkpt>
      <trkpt lat="42.028209" lon="2.545431">
        <ele>728.620</ele>
        <time>2021-05-27T09:06:56Z</time>
      </trkpt>
      <trkpt lat="42.028236" lon="2.545432">
        <ele>728.288</ele>
        <time>2021-05-27T09:06:57Z</time>
      </trkpt>
      <trkpt lat="42.028261" lon="2.545431">
        <ele>727.968</ele>
        <time>2021-05-27T09:06:58Z</time>
      </trkpt>
      <trkpt lat="42.028288" lon="2.545432">
        <ele>727.625</ele>
        <time>2021-05-27T09:06:59Z</time>
      </trkpt>
      <trkpt lat="42.028315" lon="2.545432">
        <ele>727.210</ele>
        <time>2021-05-27T09:07:00Z</time>
      </trkpt>
      <trkpt lat="42.028371" lon="2.545438">
        <ele>726.743</ele>
        <time>2021-05-27T09:07:02Z</time>
      </trkpt>
      <trkpt lat="42.028398" lon="2.545442">
        <ele>726.529</ele>
        <time>2021-05-27T09:07:03Z</time>
      </trkpt>
      <trkpt lat="42.028451" lon="2.545457">
        <ele>725.974</ele>
        <time>2021-05-27T09:07:05Z</time>
      </trkpt>
      <trkpt lat="42.028478" lon="2.545469">
        <ele>725.456</ele>
        <time>2021-05-27T09:07:06Z</time>
      </trkpt>
      <trkpt lat="42.028529" lon="2.545495">
        <ele>724.421</ele>
        <time>2021-05-27T09:07:08Z</time>
      </trkpt>
      <trkpt lat="42.028555" lon="2.545504">
        <ele>724.008</ele>
        <time>2021-05-27T09:07:10Z</time>
      </trkpt>
      <trkpt lat="42.028608" lon="2.545523">
        <ele>723.264</ele>
        <time>2021-05-27T09:07:11Z</time>
      </trkpt>
      <trkpt lat="42.028633" lon="2.545534">
        <ele>722.721</ele>
        <time>2021-05-27T09:07:12Z</time>
      </trkpt>
      <trkpt lat="42.028658" lon="2.545543">
        <ele>722.319</ele>
        <time>2021-05-27T09:07:13Z</time>
      </trkpt>
      <trkpt lat="42.028682" lon="2.545554">
        <ele>721.819</ele>
        <time>2021-05-27T09:07:14Z</time>
      </trkpt>
      <trkpt lat="42.028705" lon="2.545565">
        <ele>721.416</ele>
        <time>2021-05-27T09:07:15Z</time>
      </trkpt>
      <trkpt lat="42.028728" lon="2.545573">
        <ele>721.171</ele>
        <time>2021-05-27T09:07:16Z</time>
      </trkpt>
      <trkpt lat="42.028752" lon="2.545585">
        <ele>720.724</ele>
        <time>2021-05-27T09:07:17Z</time>
      </trkpt>
      <trkpt lat="42.028777" lon="2.545598">
        <ele>720.260</ele>
        <time>2021-05-27T09:07:18Z</time>
      </trkpt>
      <trkpt lat="42.028801" lon="2.545612">
        <ele>719.897</ele>
        <time>2021-05-27T09:07:20Z</time>
      </trkpt>
      <trkpt lat="42.028825" lon="2.545625">
        <ele>719.323</ele>
        <time>2021-05-27T09:07:21Z</time>
      </trkpt>
      <trkpt lat="42.028849" lon="2.545642">
        <ele>718.725</ele>
        <time>2021-05-27T09:07:22Z</time>
      </trkpt>
      <trkpt lat="42.028873" lon="2.545654">
        <ele>718.208</ele>
        <time>2021-05-27T09:07:23Z</time>
      </trkpt>
      <trkpt lat="42.028896" lon="2.545664">
        <ele>717.836</ele>
        <time>2021-05-27T09:07:24Z</time>
      </trkpt>
      <trkpt lat="42.028942" lon="2.545683">
        <ele>717.113</ele>
        <time>2021-05-27T09:07:25Z</time>
      </trkpt>
      <trkpt lat="42.028965" lon="2.545695">
        <ele>716.681</ele>
        <time>2021-05-27T09:07:27Z</time>
      </trkpt>
      <trkpt lat="42.028987" lon="2.545704">
        <ele>716.271</ele>
        <time>2021-05-27T09:07:28Z</time>
      </trkpt>
      <trkpt lat="42.029008" lon="2.545711">
        <ele>715.888</ele>
        <time>2021-05-27T09:07:29Z</time>
      </trkpt>
      <trkpt lat="42.029045" lon="2.545717">
        <ele>715.483</ele>
        <time>2021-05-27T09:07:30Z</time>
      </trkpt>
      <trkpt lat="42.029066" lon="2.545721">
        <ele>715.136</ele>
        <time>2021-05-27T09:07:31Z</time>
      </trkpt>
      <trkpt lat="42.029088" lon="2.545726">
        <ele>714.892</ele>
        <time>2021-05-27T09:07:32Z</time>
      </trkpt>
      <trkpt lat="42.029108" lon="2.545727">
        <ele>714.639</ele>
        <time>2021-05-27T09:07:33Z</time>
      </trkpt>
      <trkpt lat="42.029133" lon="2.545727">
        <ele>714.401</ele>
        <time>2021-05-27T09:07:34Z</time>
      </trkpt>
      <trkpt lat="42.029158" lon="2.545729">
        <ele>714.221</ele>
        <time>2021-05-27T09:07:35Z</time>
      </trkpt>
      <trkpt lat="42.029183" lon="2.545729">
        <ele>714.008</ele>
        <time>2021-05-27T09:07:36Z</time>
      </trkpt>
      <trkpt lat="42.029208" lon="2.545728">
        <ele>713.960</ele>
        <time>2021-05-27T09:07:37Z</time>
      </trkpt>
      <trkpt lat="42.029233" lon="2.545727">
        <ele>713.767</ele>
        <time>2021-05-27T09:07:38Z</time>
      </trkpt>
      <trkpt lat="42.029259" lon="2.545728">
        <ele>713.595</ele>
        <time>2021-05-27T09:07:39Z</time>
      </trkpt>
      <trkpt lat="42.029309" lon="2.545726">
        <ele>713.295</ele>
        <time>2021-05-27T09:07:41Z</time>
      </trkpt>
      <trkpt lat="42.029333" lon="2.545727">
        <ele>713.072</ele>
        <time>2021-05-27T09:07:42Z</time>
      </trkpt>
      <trkpt lat="42.029384" lon="2.545728">
        <ele>712.697</ele>
        <time>2021-05-27T09:07:44Z</time>
      </trkpt>
      <trkpt lat="42.029409" lon="2.545728">
        <ele>712.470</ele>
        <time>2021-05-27T09:07:45Z</time>
      </trkpt>
      <trkpt lat="42.029457" lon="2.545733">
        <ele>711.986</ele>
        <time>2021-05-27T09:07:47Z</time>
      </trkpt>
      <trkpt lat="42.029481" lon="2.545735">
        <ele>711.751</ele>
        <time>2021-05-27T09:07:48Z</time>
      </trkpt>
      <trkpt lat="42.029531" lon="2.545744">
        <ele>711.001</ele>
        <time>2021-05-27T09:07:50Z</time>
      </trkpt>
      <trkpt lat="42.029556" lon="2.545748">
        <ele>710.711</ele>
        <time>2021-05-27T09:07:51Z</time>
      </trkpt>
      <trkpt lat="42.029606" lon="2.545758">
        <ele>710.008</ele>
        <time>2021-05-27T09:07:53Z</time>
      </trkpt>
      <trkpt lat="42.029629" lon="2.545766">
        <ele>709.582</ele>
        <time>2021-05-27T09:07:54Z</time>
      </trkpt>
      <trkpt lat="42.029651" lon="2.545775">
        <ele>709.039</ele>
        <time>2021-05-27T09:07:55Z</time>
      </trkpt>
      <trkpt lat="42.029675" lon="2.545787">
        <ele>708.367</ele>
        <time>2021-05-27T09:07:56Z</time>
      </trkpt>
      <trkpt lat="42.029697" lon="2.545799">
        <ele>707.767</ele>
        <time>2021-05-27T09:07:57Z</time>
      </trkpt>
      <trkpt lat="42.029717" lon="2.545806">
        <ele>707.234</ele>
        <time>2021-05-27T09:07:58Z</time>
      </trkpt>
      <trkpt lat="42.029738" lon="2.545812">
        <ele>707.179</ele>
        <time>2021-05-27T09:07:59Z</time>
      </trkpt>
      <trkpt lat="42.029758" lon="2.545822">
        <ele>706.932</ele>
        <time>2021-05-27T09:08:00Z</time>
      </trkpt>
      <trkpt lat="42.029779" lon="2.545828">
        <ele>706.848</ele>
        <time>2021-05-27T09:08:01Z</time>
      </trkpt>
      <trkpt lat="42.029800" lon="2.545837">
        <ele>706.823</ele>
        <time>2021-05-27T09:08:02Z</time>
      </trkpt>
      <trkpt lat="42.029825" lon="2.545852">
        <ele>706.683</ele>
        <time>2021-05-27T09:08:03Z</time>
      </trkpt>
      <trkpt lat="42.029849" lon="2.545866">
        <ele>706.511</ele>
        <time>2021-05-27T09:08:04Z</time>
      </trkpt>
      <trkpt lat="42.029870" lon="2.545880">
        <ele>706.308</ele>
        <time>2021-05-27T09:08:05Z</time>
      </trkpt>
      <trkpt lat="42.029893" lon="2.545896">
        <ele>706.129</ele>
        <time>2021-05-27T09:08:06Z</time>
      </trkpt>
      <trkpt lat="42.029914" lon="2.545912">
        <ele>705.886</ele>
        <time>2021-05-27T09:08:07Z</time>
      </trkpt>
      <trkpt lat="42.029937" lon="2.545931">
        <ele>705.474</ele>
        <time>2021-05-27T09:08:08Z</time>
      </trkpt>
      <trkpt lat="42.029959" lon="2.545947">
        <ele>705.174</ele>
        <time>2021-05-27T09:08:09Z</time>
      </trkpt>
      <trkpt lat="42.029981" lon="2.545965">
        <ele>704.611</ele>
        <time>2021-05-27T09:08:10Z</time>
      </trkpt>
      <trkpt lat="42.030000" lon="2.545981">
        <ele>704.226</ele>
        <time>2021-05-27T09:08:11Z</time>
      </trkpt>
      <trkpt lat="42.030018" lon="2.545996">
        <ele>703.899</ele>
        <time>2021-05-27T09:08:12Z</time>
      </trkpt>
      <trkpt lat="42.030036" lon="2.546020">
        <ele>703.075</ele>
        <time>2021-05-27T09:08:13Z</time>
      </trkpt>
      <trkpt lat="42.030055" lon="2.546043">
        <ele>702.457</ele>
        <time>2021-05-27T09:08:14Z</time>
      </trkpt>
      <trkpt lat="42.030076" lon="2.546065">
        <ele>701.700</ele>
        <time>2021-05-27T09:08:15Z</time>
      </trkpt>
      <trkpt lat="42.030095" lon="2.546084">
        <ele>701.220</ele>
        <time>2021-05-27T09:08:16Z</time>
      </trkpt>
      <trkpt lat="42.030115" lon="2.546105">
        <ele>700.608</ele>
        <time>2021-05-27T09:08:17Z</time>
      </trkpt>
      <trkpt lat="42.030156" lon="2.546142">
        <ele>700.242</ele>
        <time>2021-05-27T09:08:19Z</time>
      </trkpt>
      <trkpt lat="42.030178" lon="2.546162">
        <ele>700.099</ele>
        <time>2021-05-27T09:08:20Z</time>
      </trkpt>
      <trkpt lat="42.030198" lon="2.546180">
        <ele>699.827</ele>
        <time>2021-05-27T09:08:21Z</time>
      </trkpt>
      <trkpt lat="42.030221" lon="2.546196">
        <ele>699.697</ele>
        <time>2021-05-27T09:08:22Z</time>
      </trkpt>
      <trkpt lat="42.030246" lon="2.546216">
        <ele>699.444</ele>
        <time>2021-05-27T09:08:24Z</time>
      </trkpt>
      <trkpt lat="42.030292" lon="2.546245">
        <ele>698.939</ele>
        <time>2021-05-27T09:08:25Z</time>
      </trkpt>
      <trkpt lat="42.030314" lon="2.546262">
        <ele>698.352</ele>
        <time>2021-05-27T09:08:26Z</time>
      </trkpt>
      <trkpt lat="42.030335" lon="2.546281">
        <ele>697.838</ele>
        <time>2021-05-27T09:08:28Z</time>
      </trkpt>
      <trkpt lat="42.030377" lon="2.546317">
        <ele>697.092</ele>
        <time>2021-05-27T09:08:29Z</time>
      </trkpt>
      <trkpt lat="42.030416" lon="2.546354">
        <ele>696.373</ele>
        <time>2021-05-27T09:08:31Z</time>
      </trkpt>
      <trkpt lat="42.030434" lon="2.546373">
        <ele>696.020</ele>
        <time>2021-05-27T09:08:32Z</time>
      </trkpt>
      <trkpt lat="42.030476" lon="2.546416">
        <ele>695.408</ele>
        <time>2021-05-27T09:08:34Z</time>
      </trkpt>
      <trkpt lat="42.030499" lon="2.546438">
        <ele>695.026</ele>
        <time>2021-05-27T09:08:35Z</time>
      </trkpt>
      <trkpt lat="42.030520" lon="2.546456">
        <ele>694.743</ele>
        <time>2021-05-27T09:08:37Z</time>
      </trkpt>
      <trkpt lat="42.030540" lon="2.546475">
        <ele>694.521</ele>
        <time>2021-05-27T09:08:38Z</time>
      </trkpt>
      <trkpt lat="42.030560" lon="2.546494">
        <ele>694.281</ele>
        <time>2021-05-27T09:08:39Z</time>
      </trkpt>
      <trkpt lat="42.030603" lon="2.546535">
        <ele>693.638</ele>
        <time>2021-05-27T09:08:40Z</time>
      </trkpt>
      <trkpt lat="42.030624" lon="2.546555">
        <ele>693.453</ele>
        <time>2021-05-27T09:08:41Z</time>
      </trkpt>
      <trkpt lat="42.030667" lon="2.546591">
        <ele>692.946</ele>
        <time>2021-05-27T09:08:43Z</time>
      </trkpt>
      <trkpt lat="42.030689" lon="2.546611">
        <ele>692.732</ele>
        <time>2021-05-27T09:08:44Z</time>
      </trkpt>
      <trkpt lat="42.030710" lon="2.546632">
        <ele>692.635</ele>
        <time>2021-05-27T09:08:46Z</time>
      </trkpt>
      <trkpt lat="42.030730" lon="2.546651">
        <ele>692.486</ele>
        <time>2021-05-27T09:08:47Z</time>
      </trkpt>
      <trkpt lat="42.030750" lon="2.546671">
        <ele>692.314</ele>
        <time>2021-05-27T09:08:48Z</time>
      </trkpt>
      <trkpt lat="42.030769" lon="2.546691">
        <ele>692.108</ele>
        <time>2021-05-27T09:08:49Z</time>
      </trkpt>
      <trkpt lat="42.030787" lon="2.546714">
        <ele>692.020</ele>
        <time>2021-05-27T09:08:50Z</time>
      </trkpt>
      <trkpt lat="42.030805" lon="2.546737">
        <ele>691.817</ele>
        <time>2021-05-27T09:08:51Z</time>
      </trkpt>
      <trkpt lat="42.030822" lon="2.546758">
        <ele>691.765</ele>
        <time>2021-05-27T09:08:52Z</time>
      </trkpt>
      <trkpt lat="42.030838" lon="2.546781">
        <ele>691.625</ele>
        <time>2021-05-27T09:08:53Z</time>
      </trkpt>
      <trkpt lat="42.030854" lon="2.546801">
        <ele>691.412</ele>
        <time>2021-05-27T09:08:54Z</time>
      </trkpt>
      <trkpt lat="42.030871" lon="2.546827">
        <ele>691.367</ele>
        <time>2021-05-27T09:08:55Z</time>
      </trkpt>
      <trkpt lat="42.030888" lon="2.546850">
        <ele>691.230</ele>
        <time>2021-05-27T09:08:56Z</time>
      </trkpt>
      <trkpt lat="42.030902" lon="2.546875">
        <ele>691.136</ele>
        <time>2021-05-27T09:08:57Z</time>
      </trkpt>
      <trkpt lat="42.030915" lon="2.546900">
        <ele>691.176</ele>
        <time>2021-05-27T09:08:58Z</time>
      </trkpt>
      <trkpt lat="42.030929" lon="2.546926">
        <ele>691.090</ele>
        <time>2021-05-27T09:08:59Z</time>
      </trkpt>
      <trkpt lat="42.030953" lon="2.546982">
        <ele>690.819</ele>
        <time>2021-05-27T09:09:00Z</time>
      </trkpt>
      <trkpt lat="42.030965" lon="2.547012">
        <ele>690.608</ele>
        <time>2021-05-27T09:09:01Z</time>
      </trkpt>
      <trkpt lat="42.030988" lon="2.547069">
        <ele>690.444</ele>
        <time>2021-05-27T09:09:03Z</time>
      </trkpt>
      <trkpt lat="42.030998" lon="2.547099">
        <ele>690.251</ele>
        <time>2021-05-27T09:09:04Z</time>
      </trkpt>
      <trkpt lat="42.031019" lon="2.547161">
        <ele>690.049</ele>
        <time>2021-05-27T09:09:06Z</time>
      </trkpt>
      <trkpt lat="42.031029" lon="2.547191">
        <ele>689.939</ele>
        <time>2021-05-27T09:09:07Z</time>
      </trkpt>
      <trkpt lat="42.031038" lon="2.547221">
        <ele>689.776</ele>
        <time>2021-05-27T09:09:08Z</time>
      </trkpt>
      <trkpt lat="42.031046" lon="2.547252">
        <ele>689.581</ele>
        <time>2021-05-27T09:09:09Z</time>
      </trkpt>
      <trkpt lat="42.031051" lon="2.547285">
        <ele>689.284</ele>
        <time>2021-05-27T09:09:10Z</time>
      </trkpt>
      <trkpt lat="42.031053" lon="2.547319">
        <ele>688.880</ele>
        <time>2021-05-27T09:09:11Z</time>
      </trkpt>
      <trkpt lat="42.031056" lon="2.547352">
        <ele>688.565</ele>
        <time>2021-05-27T09:09:12Z</time>
      </trkpt>
      <trkpt lat="42.031057" lon="2.547383">
        <ele>688.268</ele>
        <time>2021-05-27T09:09:13Z</time>
      </trkpt>
      <trkpt lat="42.031057" lon="2.547413">
        <ele>687.914</ele>
        <time>2021-05-27T09:09:14Z</time>
      </trkpt>
      <trkpt lat="42.031058" lon="2.547442">
        <ele>687.608</ele>
        <time>2021-05-27T09:09:15Z</time>
      </trkpt>
      <trkpt lat="42.031057" lon="2.547467">
        <ele>687.353</ele>
        <time>2021-05-27T09:09:17Z</time>
      </trkpt>
      <trkpt lat="42.031057" lon="2.547492">
        <ele>687.120</ele>
        <time>2021-05-27T09:09:18Z</time>
      </trkpt>
      <trkpt lat="42.031056" lon="2.547529">
        <ele>686.438</ele>
        <time>2021-05-27T09:09:19Z</time>
      </trkpt>
      <trkpt lat="42.031062" lon="2.547556">
        <ele>685.868</ele>
        <time>2021-05-27T09:09:21Z</time>
      </trkpt>
      <trkpt lat="42.031083" lon="2.547583">
        <ele>685.275</ele>
        <time>2021-05-27T09:09:37Z</time>
      </trkpt>
      <trkpt lat="42.031105" lon="2.547592">
        <ele>685.030</ele>
        <time>2021-05-27T09:09:38Z</time>
      </trkpt>
      <trkpt lat="42.031147" lon="2.547596">
        <ele>684.863</ele>
        <time>2021-05-27T09:09:39Z</time>
      </trkpt>
      <trkpt lat="42.031171" lon="2.547598">
        <ele>684.679</ele>
        <time>2021-05-27T09:09:41Z</time>
      </trkpt>
      <trkpt lat="42.031193" lon="2.547597">
        <ele>684.588</ele>
        <time>2021-05-27T09:09:42Z</time>
      </trkpt>
      <trkpt lat="42.031246" lon="2.547599">
        <ele>684.224</ele>
        <time>2021-05-27T09:09:44Z</time>
      </trkpt>
      <trkpt lat="42.031272" lon="2.547596">
        <ele>684.126</ele>
        <time>2021-05-27T09:09:45Z</time>
      </trkpt>
      <trkpt lat="42.031293" lon="2.547594">
        <ele>684.108</ele>
        <time>2021-05-27T09:09:46Z</time>
      </trkpt>
      <trkpt lat="42.031313" lon="2.547590">
        <ele>684.155</ele>
        <time>2021-05-27T09:09:47Z</time>
      </trkpt>
      <trkpt lat="42.031334" lon="2.547587">
        <ele>684.162</ele>
        <time>2021-05-27T09:09:49Z</time>
      </trkpt>
      <trkpt lat="42.031353" lon="2.547586">
        <ele>684.030</ele>
        <time>2021-05-27T09:09:50Z</time>
      </trkpt>
      <trkpt lat="42.031407" lon="2.547573">
        <ele>684.040</ele>
        <time>2021-05-27T09:09:51Z</time>
      </trkpt>
      <trkpt lat="42.031431" lon="2.547567">
        <ele>683.927</ele>
        <time>2021-05-27T09:09:52Z</time>
      </trkpt>
      <trkpt lat="42.031455" lon="2.547561">
        <ele>683.952</ele>
        <time>2021-05-27T09:09:53Z</time>
      </trkpt>
      <trkpt lat="42.031477" lon="2.547557">
        <ele>683.775</ele>
        <time>2021-05-27T09:09:54Z</time>
      </trkpt>
      <trkpt lat="42.031501" lon="2.547552">
        <ele>683.671</ele>
        <time>2021-05-27T09:09:56Z</time>
      </trkpt>
      <trkpt lat="42.031526" lon="2.547544">
        <ele>683.681</ele>
        <time>2021-05-27T09:09:57Z</time>
      </trkpt>
      <trkpt lat="42.031552" lon="2.547531">
        <ele>683.661</ele>
        <time>2021-05-27T09:09:58Z</time>
      </trkpt>
      <trkpt lat="42.031597" lon="2.547500">
        <ele>683.817</ele>
        <time>2021-05-27T09:09:59Z</time>
      </trkpt>
      <trkpt lat="42.031617" lon="2.547484">
        <ele>683.708</ele>
        <time>2021-05-27T09:10:00Z</time>
      </trkpt>
      <trkpt lat="42.031641" lon="2.547466">
        <ele>683.555</ele>
        <time>2021-05-27T09:10:01Z</time>
      </trkpt>
      <trkpt lat="42.031665" lon="2.547446">
        <ele>683.422</ele>
        <time>2021-05-27T09:10:03Z</time>
      </trkpt>
      <trkpt lat="42.031685" lon="2.547425">
        <ele>683.120</ele>
        <time>2021-05-27T09:10:04Z</time>
      </trkpt>
      <trkpt lat="42.031719" lon="2.547381">
        <ele>682.560</ele>
        <time>2021-05-27T09:10:05Z</time>
      </trkpt>
      <trkpt lat="42.031738" lon="2.547362">
        <ele>682.257</ele>
        <time>2021-05-27T09:10:06Z</time>
      </trkpt>
      <trkpt lat="42.031755" lon="2.547341">
        <ele>681.922</ele>
        <time>2021-05-27T09:10:07Z</time>
      </trkpt>
      <trkpt lat="42.031768" lon="2.547318">
        <ele>681.885</ele>
        <time>2021-05-27T09:10:08Z</time>
      </trkpt>
      <trkpt lat="42.031784" lon="2.547294">
        <ele>681.571</ele>
        <time>2021-05-27T09:10:09Z</time>
      </trkpt>
      <trkpt lat="42.031795" lon="2.547269">
        <ele>681.499</ele>
        <time>2021-05-27T09:10:10Z</time>
      </trkpt>
      <trkpt lat="42.031803" lon="2.547242">
        <ele>681.407</ele>
        <time>2021-05-27T09:10:11Z</time>
      </trkpt>
      <trkpt lat="42.031814" lon="2.547212">
        <ele>681.327</ele>
        <time>2021-05-27T09:10:12Z</time>
      </trkpt>
      <trkpt lat="42.031823" lon="2.547179">
        <ele>681.208</ele>
        <time>2021-05-27T09:10:14Z</time>
      </trkpt>
      <trkpt lat="42.031831" lon="2.547151">
        <ele>681.146</ele>
        <time>2021-05-27T09:10:15Z</time>
      </trkpt>
      <trkpt lat="42.031853" lon="2.547097">
        <ele>680.883</ele>
        <time>2021-05-27T09:10:16Z</time>
      </trkpt>
      <trkpt lat="42.031859" lon="2.547069">
        <ele>680.711</ele>
        <time>2021-05-27T09:10:17Z</time>
      </trkpt>
      <trkpt lat="42.031861" lon="2.547038">
        <ele>680.881</ele>
        <time>2021-05-27T09:10:18Z</time>
      </trkpt>
      <trkpt lat="42.031862" lon="2.547004">
        <ele>680.978</ele>
        <time>2021-05-27T09:10:19Z</time>
      </trkpt>
      <trkpt lat="42.031853" lon="2.546947">
        <ele>681.383</ele>
        <time>2021-05-27T09:10:21Z</time>
      </trkpt>
      <trkpt lat="42.031844" lon="2.546920">
        <ele>681.356</ele>
        <time>2021-05-27T09:10:22Z</time>
      </trkpt>
      <trkpt lat="42.031828" lon="2.546861">
        <ele>681.292</ele>
        <time>2021-05-27T09:10:24Z</time>
      </trkpt>
      <trkpt lat="42.031818" lon="2.546828">
        <ele>681.164</ele>
        <time>2021-05-27T09:10:25Z</time>
      </trkpt>
      <trkpt lat="42.031807" lon="2.546796">
        <ele>681.106</ele>
        <time>2021-05-27T09:10:26Z</time>
      </trkpt>
      <trkpt lat="42.031796" lon="2.546766">
        <ele>681.216</ele>
        <time>2021-05-27T09:10:27Z</time>
      </trkpt>
      <trkpt lat="42.031785" lon="2.546725">
        <ele>681.108</ele>
        <time>2021-05-27T09:10:28Z</time>
      </trkpt>
      <trkpt lat="42.031775" lon="2.546686">
        <ele>681.073</ele>
        <time>2021-05-27T09:10:29Z</time>
      </trkpt>
      <trkpt lat="42.031762" lon="2.546651">
        <ele>681.090</ele>
        <time>2021-05-27T09:10:30Z</time>
      </trkpt>
      <trkpt lat="42.031744" lon="2.546618">
        <ele>680.998</ele>
        <time>2021-05-27T09:10:31Z</time>
      </trkpt>
      <trkpt lat="42.031729" lon="2.546584">
        <ele>680.838</ele>
        <time>2021-05-27T09:10:32Z</time>
      </trkpt>
      <trkpt lat="42.031713" lon="2.546550">
        <ele>680.865</ele>
        <time>2021-05-27T09:10:33Z</time>
      </trkpt>
      <trkpt lat="42.031686" lon="2.546491">
        <ele>680.890</ele>
        <time>2021-05-27T09:10:35Z</time>
      </trkpt>
      <trkpt lat="42.031672" lon="2.546461">
        <ele>680.823</ele>
        <time>2021-05-27T09:10:36Z</time>
      </trkpt>
      <trkpt lat="42.031661" lon="2.546435">
        <ele>680.899</ele>
        <time>2021-05-27T09:10:38Z</time>
      </trkpt>
      <trkpt lat="42.031646" lon="2.546395">
        <ele>680.517</ele>
        <time>2021-05-27T09:10:39Z</time>
      </trkpt>
      <trkpt lat="42.031632" lon="2.546358">
        <ele>680.287</ele>
        <time>2021-05-27T09:10:41Z</time>
      </trkpt>
      <trkpt lat="42.031618" lon="2.546338">
        <ele>680.215</ele>
        <time>2021-05-27T09:10:42Z</time>
      </trkpt>
      <trkpt lat="42.031603" lon="2.546321">
        <ele>680.208</ele>
        <time>2021-05-27T09:10:43Z</time>
      </trkpt>
      <trkpt lat="42.031592" lon="2.546300">
        <ele>680.198</ele>
        <time>2021-05-27T09:10:44Z</time>
      </trkpt>
      <trkpt lat="42.031579" lon="2.546278">
        <ele>680.125</ele>
        <time>2021-05-27T09:10:45Z</time>
      </trkpt>
      <trkpt lat="42.031563" lon="2.546256">
        <ele>680.123</ele>
        <time>2021-05-27T09:10:46Z</time>
      </trkpt>
      <trkpt lat="42.031545" lon="2.546235">
        <ele>680.273</ele>
        <time>2021-05-27T09:10:48Z</time>
      </trkpt>
      <trkpt lat="42.031497" lon="2.546193">
        <ele>680.750</ele>
        <time>2021-05-27T09:10:49Z</time>
      </trkpt>
      <trkpt lat="42.031474" lon="2.546175">
        <ele>680.975</ele>
        <time>2021-05-27T09:10:50Z</time>
      </trkpt>
      <trkpt lat="42.031452" lon="2.546161">
        <ele>681.258</ele>
        <time>2021-05-27T09:10:51Z</time>
      </trkpt>
      <trkpt lat="42.031413" lon="2.546134">
        <ele>681.724</ele>
        <time>2021-05-27T09:10:53Z</time>
      </trkpt>
      <trkpt lat="42.031395" lon="2.546116">
        <ele>681.921</ele>
        <time>2021-05-27T09:10:54Z</time>
      </trkpt>
      <trkpt lat="42.031371" lon="2.546066">
        <ele>681.541</ele>
        <time>2021-05-27T09:10:56Z</time>
      </trkpt>
      <trkpt lat="42.031358" lon="2.546034">
        <ele>681.205</ele>
        <time>2021-05-27T09:10:58Z</time>
      </trkpt>
      <trkpt lat="42.031339" lon="2.545968">
        <ele>680.608</ele>
        <time>2021-05-27T09:10:59Z</time>
      </trkpt>
      <trkpt lat="42.031330" lon="2.545933">
        <ele>680.319</ele>
        <time>2021-05-27T09:11:00Z</time>
      </trkpt>
      <trkpt lat="42.031318" lon="2.545863">
        <ele>679.756</ele>
        <time>2021-05-27T09:11:02Z</time>
      </trkpt>
      <trkpt lat="42.031312" lon="2.545830">
        <ele>679.494</ele>
        <time>2021-05-27T09:11:03Z</time>
      </trkpt>
      <trkpt lat="42.031309" lon="2.545795">
        <ele>679.124</ele>
        <time>2021-05-27T09:11:05Z</time>
      </trkpt>
      <trkpt lat="42.031313" lon="2.545722">
        <ele>677.981</ele>
        <time>2021-05-27T09:11:06Z</time>
      </trkpt>
      <trkpt lat="42.031309" lon="2.545573">
        <ele>676.076</ele>
        <time>2021-05-27T09:11:11Z</time>
      </trkpt>
      <trkpt lat="42.031334" lon="2.545434">
        <ele>674.589</ele>
        <time>2021-05-27T09:11:16Z</time>
      </trkpt>
      <trkpt lat="42.031402" lon="2.545324">
        <ele>671.235</ele>
        <time>2021-05-27T09:11:23Z</time>
      </trkpt>
      <trkpt lat="42.031478" lon="2.545237">
        <ele>666.719</ele>
        <time>2021-05-27T09:11:27Z</time>
      </trkpt>
      <trkpt lat="42.031510" lon="2.545102">
        <ele>665.409</ele>
        <time>2021-05-27T09:11:34Z</time>
      </trkpt>
      <trkpt lat="42.031509" lon="2.544956">
        <ele>666.619</ele>
        <time>2021-05-27T09:11:41Z</time>
      </trkpt>
      <trkpt lat="42.031555" lon="2.544921">
        <ele>665.308</ele>
        <time>2021-05-27T09:11:49Z</time>
      </trkpt>
      <trkpt lat="42.031577" lon="2.544927">
        <ele>664.368</ele>
        <time>2021-05-27T09:11:51Z</time>
      </trkpt>
      <trkpt lat="42.031609" lon="2.544939">
        <ele>662.695</ele>
        <time>2021-05-27T09:11:53Z</time>
      </trkpt>
      <trkpt lat="42.031632" lon="2.544945">
        <ele>661.543</ele>
        <time>2021-05-27T09:11:55Z</time>
      </trkpt>
      <trkpt lat="42.031656" lon="2.544950">
        <ele>660.353</ele>
        <time>2021-05-27T09:11:58Z</time>
      </trkpt>
      <trkpt lat="42.031677" lon="2.544950">
        <ele>659.650</ele>
        <time>2021-05-27T09:11:59Z</time>
      </trkpt>
      <trkpt lat="42.031697" lon="2.544963">
        <ele>658.815</ele>
        <time>2021-05-27T09:12:02Z</time>
      </trkpt>
      <trkpt lat="42.031718" lon="2.544975">
        <ele>658.048</ele>
        <time>2021-05-27T09:12:04Z</time>
      </trkpt>
      <trkpt lat="42.031742" lon="2.544982">
        <ele>657.334</ele>
        <time>2021-05-27T09:12:06Z</time>
      </trkpt>
      <trkpt lat="42.031769" lon="2.544979">
        <ele>656.988</ele>
        <time>2021-05-27T09:12:08Z</time>
      </trkpt>
      <trkpt lat="42.031787" lon="2.544982">
        <ele>656.524</ele>
        <time>2021-05-27T09:12:09Z</time>
      </trkpt>
      <trkpt lat="42.031817" lon="2.544987">
        <ele>655.826</ele>
        <time>2021-05-27T09:12:10Z</time>
      </trkpt>
      <trkpt lat="42.031843" lon="2.544981">
        <ele>655.508</ele>
        <time>2021-05-27T09:12:13Z</time>
      </trkpt>
      <trkpt lat="42.031865" lon="2.544969">
        <ele>655.575</ele>
        <time>2021-05-27T09:12:15Z</time>
      </trkpt>
      <trkpt lat="42.031898" lon="2.544954">
        <ele>655.522</ele>
        <time>2021-05-27T09:12:16Z</time>
      </trkpt>
      <trkpt lat="42.031916" lon="2.544943">
        <ele>655.630</ele>
        <time>2021-05-27T09:12:17Z</time>
      </trkpt>
      <trkpt lat="42.031933" lon="2.544931">
        <ele>655.730</ele>
        <time>2021-05-27T09:12:18Z</time>
      </trkpt>
      <trkpt lat="42.031952" lon="2.544920">
        <ele>655.817</ele>
        <time>2021-05-27T09:12:19Z</time>
      </trkpt>
      <trkpt lat="42.031981" lon="2.544910">
        <ele>655.772</ele>
        <time>2021-05-27T09:12:21Z</time>
      </trkpt>
      <trkpt lat="42.032009" lon="2.544902">
        <ele>655.625</ele>
        <time>2021-05-27T09:12:23Z</time>
      </trkpt>
      <trkpt lat="42.032040" lon="2.544901">
        <ele>655.291</ele>
        <time>2021-05-27T09:12:25Z</time>
      </trkpt>
      <trkpt lat="42.032065" lon="2.544896">
        <ele>655.111</ele>
        <time>2021-05-27T09:12:27Z</time>
      </trkpt>
      <trkpt lat="42.032090" lon="2.544895">
        <ele>654.821</ele>
        <time>2021-05-27T09:12:30Z</time>
      </trkpt>
      <trkpt lat="42.032111" lon="2.544898">
        <ele>654.303</ele>
        <time>2021-05-27T09:12:32Z</time>
      </trkpt>
      <trkpt lat="42.032130" lon="2.544907">
        <ele>653.708</ele>
        <time>2021-05-27T09:12:34Z</time>
      </trkpt>
      <trkpt lat="42.032151" lon="2.544913">
        <ele>653.198</ele>
        <time>2021-05-27T09:12:35Z</time>
      </trkpt>
      <trkpt lat="42.032179" lon="2.544923">
        <ele>652.385</ele>
        <time>2021-05-27T09:12:38Z</time>
      </trkpt>
      <trkpt lat="42.032214" lon="2.544937">
        <ele>651.173</ele>
        <time>2021-05-27T09:12:40Z</time>
      </trkpt>
      <trkpt lat="42.032238" lon="2.544944">
        <ele>650.263</ele>
        <time>2021-05-27T09:12:42Z</time>
      </trkpt>
      <trkpt lat="42.032256" lon="2.544958">
        <ele>649.180</ele>
        <time>2021-05-27T09:12:44Z</time>
      </trkpt>
      <trkpt lat="42.032270" lon="2.544975">
        <ele>648.065</ele>
        <time>2021-05-27T09:12:46Z</time>
      </trkpt>
      <trkpt lat="42.032291" lon="2.544977">
        <ele>647.318</ele>
        <time>2021-05-27T09:12:47Z</time>
      </trkpt>
      <trkpt lat="42.032317" lon="2.544987">
        <ele>646.214</ele>
        <time>2021-05-27T09:12:49Z</time>
      </trkpt>
      <trkpt lat="42.032337" lon="2.544986">
        <ele>645.843</ele>
        <time>2021-05-27T09:12:51Z</time>
      </trkpt>
      <trkpt lat="42.032365" lon="2.544981">
        <ele>645.364</ele>
        <time>2021-05-27T09:12:53Z</time>
      </trkpt>
      <trkpt lat="42.032393" lon="2.544967">
        <ele>645.210</ele>
        <time>2021-05-27T09:12:55Z</time>
      </trkpt>
      <trkpt lat="42.032411" lon="2.544961">
        <ele>645.108</ele>
        <time>2021-05-27T09:12:56Z</time>
      </trkpt>
      <trkpt lat="42.032429" lon="2.544951">
        <ele>645.161</ele>
        <time>2021-05-27T09:12:57Z</time>
      </trkpt>
      <trkpt lat="42.032459" lon="2.544939">
        <ele>644.998</ele>
        <time>2021-05-27T09:12:59Z</time>
      </trkpt>
      <trkpt lat="42.032475" lon="2.544923">
        <ele>645.266</ele>
        <time>2021-05-27T09:13:02Z</time>
      </trkpt>
      <trkpt lat="42.032499" lon="2.544909">
        <ele>645.316</ele>
        <time>2021-05-27T09:13:04Z</time>
      </trkpt>
      <trkpt lat="42.032526" lon="2.544893">
        <ele>645.543</ele>
        <time>2021-05-27T09:13:06Z</time>
      </trkpt>
      <trkpt lat="42.032557" lon="2.544887">
        <ele>645.258</ele>
        <time>2021-05-27T09:13:07Z</time>
      </trkpt>
      <trkpt lat="42.032582" lon="2.544883">
        <ele>644.991</ele>
        <time>2021-05-27T09:13:09Z</time>
      </trkpt>
      <trkpt lat="42.032609" lon="2.544885">
        <ele>644.317</ele>
        <time>2021-05-27T09:13:12Z</time>
      </trkpt>
      <trkpt lat="42.032635" lon="2.544886">
        <ele>643.742</ele>
        <time>2021-05-27T09:13:14Z</time>
      </trkpt>
      <trkpt lat="42.032660" lon="2.544886">
        <ele>643.222</ele>
        <time>2021-05-27T09:13:16Z</time>
      </trkpt>
      <trkpt lat="42.032685" lon="2.544894">
        <ele>642.414</ele>
        <time>2021-05-27T09:13:17Z</time>
      </trkpt>
      <trkpt lat="42.032712" lon="2.544902">
        <ele>641.508</ele>
        <time>2021-05-27T09:13:19Z</time>
      </trkpt>
      <trkpt lat="42.032731" lon="2.544909">
        <ele>640.861</ele>
        <time>2021-05-27T09:13:21Z</time>
      </trkpt>
      <trkpt lat="42.032748" lon="2.544916">
        <ele>640.238</ele>
        <time>2021-05-27T09:13:22Z</time>
      </trkpt>
      <trkpt lat="42.032767" lon="2.544919">
        <ele>639.746</ele>
        <time>2021-05-27T09:13:23Z</time>
      </trkpt>
      <trkpt lat="42.032800" lon="2.544925">
        <ele>638.746</ele>
        <time>2021-05-27T09:13:24Z</time>
      </trkpt>
      <trkpt lat="42.032832" lon="2.544925">
        <ele>638.023</ele>
        <time>2021-05-27T09:13:26Z</time>
      </trkpt>
      <trkpt lat="42.032863" lon="2.544915">
        <ele>637.798</ele>
        <time>2021-05-27T09:13:29Z</time>
      </trkpt>
      <trkpt lat="42.032889" lon="2.544904">
        <ele>637.641</ele>
        <time>2021-05-27T09:13:31Z</time>
      </trkpt>
      <trkpt lat="42.032979" lon="2.544860">
        <ele>637.347</ele>
        <time>2021-05-27T09:13:36Z</time>
      </trkpt>
      <trkpt lat="42.033025" lon="2.544851">
        <ele>636.663</ele>
        <time>2021-05-27T09:13:39Z</time>
      </trkpt>
      <trkpt lat="42.033051" lon="2.544858">
        <ele>635.744</ele>
        <time>2021-05-27T09:13:41Z</time>
      </trkpt>
      <trkpt lat="42.033076" lon="2.544872">
        <ele>635.018</ele>
        <time>2021-05-27T09:13:43Z</time>
      </trkpt>
      <trkpt lat="42.033103" lon="2.544869">
        <ele>635.008</ele>
        <time>2021-05-27T09:13:45Z</time>
      </trkpt>
      <trkpt lat="42.033137" lon="2.544872">
        <ele>634.883</ele>
        <time>2021-05-27T09:13:49Z</time>
      </trkpt>
      <trkpt lat="42.033161" lon="2.544888">
        <ele>634.140</ele>
        <time>2021-05-27T09:13:50Z</time>
      </trkpt>
      <trkpt lat="42.033185" lon="2.544904">
        <ele>633.588</ele>
        <time>2021-05-27T09:13:53Z</time>
      </trkpt>
      <trkpt lat="42.033218" lon="2.544910">
        <ele>633.288</ele>
        <time>2021-05-27T09:13:54Z</time>
      </trkpt>
      <trkpt lat="42.033241" lon="2.544897">
        <ele>633.665</ele>
        <time>2021-05-27T09:13:59Z</time>
      </trkpt>
      <trkpt lat="42.033269" lon="2.544884">
        <ele>634.060</ele>
        <time>2021-05-27T09:14:00Z</time>
      </trkpt>
      <trkpt lat="42.033295" lon="2.544878">
        <ele>634.193</ele>
        <time>2021-05-27T09:14:02Z</time>
      </trkpt>
      <trkpt lat="42.033321" lon="2.544871">
        <ele>634.239</ele>
        <time>2021-05-27T09:14:04Z</time>
      </trkpt>
      <trkpt lat="42.033346" lon="2.544866">
        <ele>634.225</ele>
        <time>2021-05-27T09:14:06Z</time>
      </trkpt>
      <trkpt lat="42.033371" lon="2.544866">
        <ele>633.926</ele>
        <time>2021-05-27T09:14:08Z</time>
      </trkpt>
      <trkpt lat="42.033404" lon="2.544875">
        <ele>633.308</ele>
        <time>2021-05-27T09:14:11Z</time>
      </trkpt>
      <trkpt lat="42.033432" lon="2.544892">
        <ele>632.408</ele>
        <time>2021-05-27T09:14:12Z</time>
      </trkpt>
      <trkpt lat="42.033453" lon="2.544911">
        <ele>631.439</ele>
        <time>2021-05-27T09:14:14Z</time>
      </trkpt>
      <trkpt lat="42.033473" lon="2.544927">
        <ele>630.676</ele>
        <time>2021-05-27T09:14:16Z</time>
      </trkpt>
      <trkpt lat="42.033492" lon="2.544948">
        <ele>629.694</ele>
        <time>2021-05-27T09:14:18Z</time>
      </trkpt>
      <trkpt lat="42.033508" lon="2.544960">
        <ele>629.094</ele>
        <time>2021-05-27T09:14:20Z</time>
      </trkpt>
      <trkpt lat="42.033524" lon="2.544973">
        <ele>628.391</ele>
        <time>2021-05-27T09:14:23Z</time>
      </trkpt>
      <trkpt lat="42.033543" lon="2.544977">
        <ele>627.946</ele>
        <time>2021-05-27T09:14:24Z</time>
      </trkpt>
      <trkpt lat="42.033564" lon="2.544988">
        <ele>627.169</ele>
        <time>2021-05-27T09:14:26Z</time>
      </trkpt>
      <trkpt lat="42.033596" lon="2.544988">
        <ele>626.795</ele>
        <time>2021-05-27T09:14:29Z</time>
      </trkpt>
      <trkpt lat="42.033623" lon="2.544978">
        <ele>626.788</ele>
        <time>2021-05-27T09:14:31Z</time>
      </trkpt>
      <trkpt lat="42.033649" lon="2.544972">
        <ele>626.424</ele>
        <time>2021-05-27T09:14:33Z</time>
      </trkpt>
      <trkpt lat="42.033678" lon="2.544972">
        <ele>625.926</ele>
        <time>2021-05-27T09:14:34Z</time>
      </trkpt>
      <trkpt lat="42.033704" lon="2.544968">
        <ele>625.608</ele>
        <time>2021-05-27T09:14:36Z</time>
      </trkpt>
      <trkpt lat="42.033722" lon="2.544968">
        <ele>625.345</ele>
        <time>2021-05-27T09:14:37Z</time>
      </trkpt>
      <trkpt lat="42.033758" lon="2.544969">
        <ele>624.692</ele>
        <time>2021-05-27T09:14:39Z</time>
      </trkpt>
      <trkpt lat="42.033777" lon="2.544970">
        <ele>624.260</ele>
        <time>2021-05-27T09:14:41Z</time>
      </trkpt>
      <trkpt lat="42.033806" lon="2.544963">
        <ele>624.030</ele>
        <time>2021-05-27T09:14:42Z</time>
      </trkpt>
      <trkpt lat="42.033833" lon="2.544962">
        <ele>623.517</ele>
        <time>2021-05-27T09:14:44Z</time>
      </trkpt>
      <trkpt lat="42.033853" lon="2.544962">
        <ele>623.242</ele>
        <time>2021-05-27T09:14:46Z</time>
      </trkpt>
      <trkpt lat="42.033871" lon="2.544967">
        <ele>622.655</ele>
        <time>2021-05-27T09:14:47Z</time>
      </trkpt>
      <trkpt lat="42.033897" lon="2.544971">
        <ele>621.931</ele>
        <time>2021-05-27T09:14:48Z</time>
      </trkpt>
      <trkpt lat="42.033930" lon="2.544969">
        <ele>621.258</ele>
        <time>2021-05-27T09:14:50Z</time>
      </trkpt>
      <trkpt lat="42.033988" lon="2.544955">
        <ele>620.252</ele>
        <time>2021-05-27T09:14:55Z</time>
      </trkpt>
      <trkpt lat="42.034014" lon="2.544946">
        <ele>619.917</ele>
        <time>2021-05-27T09:14:56Z</time>
      </trkpt>
      <trkpt lat="42.034034" lon="2.544927">
        <ele>620.108</ele>
        <time>2021-05-27T09:14:58Z</time>
      </trkpt>
      <trkpt lat="42.034091" lon="2.544914">
        <ele>619.112</ele>
        <time>2021-05-27T09:15:01Z</time>
      </trkpt>
      <trkpt lat="42.034111" lon="2.544910">
        <ele>618.779</ele>
        <time>2021-05-27T09:15:02Z</time>
      </trkpt>
      <trkpt lat="42.034138" lon="2.544900">
        <ele>618.457</ele>
        <time>2021-05-27T09:15:04Z</time>
      </trkpt>
      <trkpt lat="42.034169" lon="2.544897">
        <ele>617.697</ele>
        <time>2021-05-27T09:15:06Z</time>
      </trkpt>
      <trkpt lat="42.034202" lon="2.544896">
        <ele>616.134</ele>
        <time>2021-05-27T09:15:08Z</time>
      </trkpt>
      <trkpt lat="42.034233" lon="2.544889">
        <ele>614.969</ele>
        <time>2021-05-27T09:15:10Z</time>
      </trkpt>
      <trkpt lat="42.034255" lon="2.544872">
        <ele>614.562</ele>
        <time>2021-05-27T09:15:13Z</time>
      </trkpt>
      <trkpt lat="42.034279" lon="2.544862">
        <ele>613.758</ele>
        <time>2021-05-27T09:15:15Z</time>
      </trkpt>
      <trkpt lat="42.034296" lon="2.544846">
        <ele>613.442</ele>
        <time>2021-05-27T09:15:16Z</time>
      </trkpt>
      <trkpt lat="42.034307" lon="2.544810">
        <ele>614.122</ele>
        <time>2021-05-27T09:15:19Z</time>
      </trkpt>
      <trkpt lat="42.034326" lon="2.544779">
        <ele>614.214</ele>
        <time>2021-05-27T09:15:23Z</time>
      </trkpt>
      <trkpt lat="42.034355" lon="2.544762">
        <ele>613.308</ele>
        <time>2021-05-27T09:15:25Z</time>
      </trkpt>
      <trkpt lat="42.034378" lon="2.544746">
        <ele>612.691</ele>
        <time>2021-05-27T09:15:26Z</time>
      </trkpt>
      <trkpt lat="42.034404" lon="2.544732">
        <ele>611.758</ele>
        <time>2021-05-27T09:15:28Z</time>
      </trkpt>
      <trkpt lat="42.034434" lon="2.544717">
        <ele>610.776</ele>
        <time>2021-05-27T09:15:30Z</time>
      </trkpt>
      <trkpt lat="42.034451" lon="2.544709">
        <ele>610.076</ele>
        <time>2021-05-27T09:15:31Z</time>
      </trkpt>
      <trkpt lat="42.034533" lon="2.544639">
        <ele>607.513</ele>
        <time>2021-05-27T09:15:38Z</time>
      </trkpt>
      <trkpt lat="42.034597" lon="2.544536">
        <ele>606.628</ele>
        <time>2021-05-27T09:15:45Z</time>
      </trkpt>
      <trkpt lat="42.034619" lon="2.544488">
        <ele>606.651</ele>
        <time>2021-05-27T09:15:47Z</time>
      </trkpt>
      <trkpt lat="42.034633" lon="2.544467">
        <ele>606.397</ele>
        <time>2021-05-27T09:15:48Z</time>
      </trkpt>
      <trkpt lat="42.034649" lon="2.544443">
        <ele>606.054</ele>
        <time>2021-05-27T09:15:49Z</time>
      </trkpt>
      <trkpt lat="42.034681" lon="2.544398">
        <ele>605.056</ele>
        <time>2021-05-27T09:15:52Z</time>
      </trkpt>
      <trkpt lat="42.034703" lon="2.544358">
        <ele>604.311</ele>
        <time>2021-05-27T09:15:55Z</time>
      </trkpt>
      <trkpt lat="42.034711" lon="2.544328">
        <ele>604.308</ele>
        <time>2021-05-27T09:15:58Z</time>
      </trkpt>
      <trkpt lat="42.034715" lon="2.544293">
        <ele>604.672</ele>
        <time>2021-05-27T09:16:00Z</time>
      </trkpt>
      <trkpt lat="42.034709" lon="2.544152">
        <ele>606.939</ele>
        <time>2021-05-27T09:16:06Z</time>
      </trkpt>
      <trkpt lat="42.034724" lon="2.544018">
        <ele>606.587</ele>
        <time>2021-05-27T09:16:12Z</time>
      </trkpt>
      <trkpt lat="42.034792" lon="2.543900">
        <ele>604.947</ele>
        <time>2021-05-27T09:16:18Z</time>
      </trkpt>
      <trkpt lat="42.034853" lon="2.543794">
        <ele>604.144</ele>
        <time>2021-05-27T09:16:21Z</time>
      </trkpt>
      <trkpt lat="42.034862" lon="2.543650">
        <ele>605.169</ele>
        <time>2021-05-27T09:16:25Z</time>
      </trkpt>
      <trkpt lat="42.034889" lon="2.543518">
        <ele>606.322</ele>
        <time>2021-05-27T09:16:30Z</time>
      </trkpt>
      <trkpt lat="42.034943" lon="2.543415">
        <ele>606.458</ele>
        <time>2021-05-27T09:16:36Z</time>
      </trkpt>
      <trkpt lat="42.035034" lon="2.543401">
        <ele>604.122</ele>
        <time>2021-05-27T09:16:40Z</time>
      </trkpt>
      <trkpt lat="42.035139" lon="2.543396">
        <ele>601.962</ele>
        <time>2021-05-27T09:16:45Z</time>
      </trkpt>
      <trkpt lat="42.035236" lon="2.543432">
        <ele>598.808</ele>
        <time>2021-05-27T09:16:50Z</time>
      </trkpt>
      <trkpt lat="42.035335" lon="2.543417">
        <ele>596.908</ele>
        <time>2021-05-27T09:16:55Z</time>
      </trkpt>
      <trkpt lat="42.035362" lon="2.543419">
        <ele>596.219</ele>
        <time>2021-05-27T09:16:58Z</time>
      </trkpt>
      <trkpt lat="42.035382" lon="2.543424">
        <ele>595.666</ele>
        <time>2021-05-27T09:17:00Z</time>
      </trkpt>
      <trkpt lat="42.035405" lon="2.543416">
        <ele>595.374</ele>
        <time>2021-05-27T09:17:01Z</time>
      </trkpt>
      <trkpt lat="42.035426" lon="2.543406">
        <ele>595.084</ele>
        <time>2021-05-27T09:17:03Z</time>
      </trkpt>
      <trkpt lat="42.035445" lon="2.543404">
        <ele>594.681</ele>
        <time>2021-05-27T09:17:05Z</time>
      </trkpt>
      <trkpt lat="42.035465" lon="2.543403">
        <ele>594.256</ele>
        <time>2021-05-27T09:17:09Z</time>
      </trkpt>
      <trkpt lat="42.035488" lon="2.543413">
        <ele>593.379</ele>
        <time>2021-05-27T09:17:10Z</time>
      </trkpt>
      <trkpt lat="42.035512" lon="2.543418">
        <ele>592.645</ele>
        <time>2021-05-27T09:17:13Z</time>
      </trkpt>
      <trkpt lat="42.035532" lon="2.543415">
        <ele>592.299</ele>
        <time>2021-05-27T09:17:15Z</time>
      </trkpt>
      <trkpt lat="42.035556" lon="2.543417">
        <ele>591.607</ele>
        <time>2021-05-27T09:17:17Z</time>
      </trkpt>
      <trkpt lat="42.035586" lon="2.543433">
        <ele>591.227</ele>
        <time>2021-05-27T09:17:19Z</time>
      </trkpt>
      <trkpt lat="42.035609" lon="2.543446">
        <ele>590.908</ele>
        <time>2021-05-27T09:17:22Z</time>
      </trkpt>
      <trkpt lat="42.035629" lon="2.543462">
        <ele>590.596</ele>
        <time>2021-05-27T09:17:28Z</time>
      </trkpt>
      <trkpt lat="42.035632" lon="2.543490">
        <ele>589.693</ele>
        <time>2021-05-27T09:17:30Z</time>
      </trkpt>
      <trkpt lat="42.035629" lon="2.543519">
        <ele>588.721</ele>
        <time>2021-05-27T09:17:32Z</time>
      </trkpt>
      <trkpt lat="42.035610" lon="2.543541">
        <ele>588.021</ele>
        <time>2021-05-27T09:17:35Z</time>
      </trkpt>
      <trkpt lat="42.035590" lon="2.543562">
        <ele>587.448</ele>
        <time>2021-05-27T09:17:38Z</time>
      </trkpt>
      <trkpt lat="42.035574" lon="2.543577">
        <ele>586.973</ele>
        <time>2021-05-27T09:17:39Z</time>
      </trkpt>
      <trkpt lat="42.035557" lon="2.543616">
        <ele>585.926</ele>
        <time>2021-05-27T09:17:44Z</time>
      </trkpt>
      <trkpt lat="42.035563" lon="2.543651">
        <ele>585.092</ele>
        <time>2021-05-27T09:17:46Z</time>
      </trkpt>
      <trkpt lat="42.035569" lon="2.543675">
        <ele>584.378</ele>
        <time>2021-05-27T09:17:48Z</time>
      </trkpt>
      <trkpt lat="42.035641" lon="2.543753">
        <ele>582.033</ele>
        <time>2021-05-27T09:17:53Z</time>
      </trkpt>
      <trkpt lat="42.035724" lon="2.543814">
        <ele>579.826</ele>
        <time>2021-05-27T09:17:56Z</time>
      </trkpt>
      <trkpt lat="42.035813" lon="2.543881">
        <ele>577.408</ele>
        <time>2021-05-27T09:18:02Z</time>
      </trkpt>
      <trkpt lat="42.035893" lon="2.543975">
        <ele>574.614</ele>
        <time>2021-05-27T09:18:10Z</time>
      </trkpt>
      <trkpt lat="42.035917" lon="2.543994">
        <ele>573.991</ele>
        <time>2021-05-27T09:18:11Z</time>
      </trkpt>
      <trkpt lat="42.035930" lon="2.544012">
        <ele>573.339</ele>
        <time>2021-05-27T09:18:12Z</time>
      </trkpt>
      <trkpt lat="42.035955" lon="2.544039">
        <ele>572.449</ele>
        <time>2021-05-27T09:18:14Z</time>
      </trkpt>
      <trkpt lat="42.035986" lon="2.544059">
        <ele>571.636</ele>
        <time>2021-05-27T09:18:16Z</time>
      </trkpt>
      <trkpt lat="42.036031" lon="2.544066">
        <ele>570.891</ele>
        <time>2021-05-27T09:18:18Z</time>
      </trkpt>
      <trkpt lat="42.036050" lon="2.544066">
        <ele>570.694</ele>
        <time>2021-05-27T09:18:19Z</time>
      </trkpt>
      <trkpt lat="42.036094" lon="2.544059">
        <ele>570.330</ele>
        <time>2021-05-27T09:18:21Z</time>
      </trkpt>
      <trkpt lat="42.036135" lon="2.544058">
        <ele>570.029</ele>
        <time>2021-05-27T09:18:23Z</time>
      </trkpt>
      <trkpt lat="42.036154" lon="2.544054">
        <ele>570.100</ele>
        <time>2021-05-27T09:18:24Z</time>
      </trkpt>
      <trkpt lat="42.036173" lon="2.544051">
        <ele>570.120</ele>
        <time>2021-05-27T09:18:25Z</time>
      </trkpt>
      <trkpt lat="42.036197" lon="2.544052">
        <ele>569.908</ele>
        <time>2021-05-27T09:18:27Z</time>
      </trkpt>
      <trkpt lat="42.036223" lon="2.544058">
        <ele>569.749</ele>
        <time>2021-05-27T09:18:28Z</time>
      </trkpt>
      <trkpt lat="42.036245" lon="2.544067">
        <ele>569.446</ele>
        <time>2021-05-27T09:18:29Z</time>
      </trkpt>
      <trkpt lat="42.036275" lon="2.544084">
        <ele>568.994</ele>
        <time>2021-05-27T09:18:31Z</time>
      </trkpt>
      <trkpt lat="42.036301" lon="2.544101">
        <ele>568.424</ele>
        <time>2021-05-27T09:18:33Z</time>
      </trkpt>
      <trkpt lat="42.036331" lon="2.544118">
        <ele>568.011</ele>
        <time>2021-05-27T09:18:35Z</time>
      </trkpt>
      <trkpt lat="42.036358" lon="2.544142">
        <ele>567.556</ele>
        <time>2021-05-27T09:18:37Z</time>
      </trkpt>
      <trkpt lat="42.036420" lon="2.544186">
        <ele>566.299</ele>
        <time>2021-05-27T09:18:40Z</time>
      </trkpt>
      <trkpt lat="42.036434" lon="2.544213">
        <ele>565.775</ele>
        <time>2021-05-27T09:18:42Z</time>
      </trkpt>
      <trkpt lat="42.036442" lon="2.544237">
        <ele>565.258</ele>
        <time>2021-05-27T09:18:43Z</time>
      </trkpt>
      <trkpt lat="42.036450" lon="2.544263">
        <ele>564.852</ele>
        <time>2021-05-27T09:18:44Z</time>
      </trkpt>
      <trkpt lat="42.036457" lon="2.544285">
        <ele>564.417</ele>
        <time>2021-05-27T09:18:45Z</time>
      </trkpt>
      <trkpt lat="42.036468" lon="2.544314">
        <ele>564.008</ele>
        <time>2021-05-27T09:18:46Z</time>
      </trkpt>
      <trkpt lat="42.036505" lon="2.544372">
        <ele>563.242</ele>
        <time>2021-05-27T09:18:48Z</time>
      </trkpt>
      <trkpt lat="42.036527" lon="2.544396">
        <ele>562.989</ele>
        <time>2021-05-27T09:18:49Z</time>
      </trkpt>
      <trkpt lat="42.036551" lon="2.544413">
        <ele>562.837</ele>
        <time>2021-05-27T09:18:50Z</time>
      </trkpt>
      <trkpt lat="42.036572" lon="2.544420">
        <ele>562.867</ele>
        <time>2021-05-27T09:18:51Z</time>
      </trkpt>
      <trkpt lat="42.036591" lon="2.544413">
        <ele>562.964</ele>
        <time>2021-05-27T09:18:52Z</time>
      </trkpt>
      <trkpt lat="42.036608" lon="2.544395">
        <ele>563.019</ele>
        <time>2021-05-27T09:18:53Z</time>
      </trkpt>
      <trkpt lat="42.036623" lon="2.544371">
        <ele>563.182</ele>
        <time>2021-05-27T09:18:54Z</time>
      </trkpt>
      <trkpt lat="42.036632" lon="2.544345">
        <ele>563.198</ele>
        <time>2021-05-27T09:18:55Z</time>
      </trkpt>
      <trkpt lat="42.036634" lon="2.544319">
        <ele>563.189</ele>
        <time>2021-05-27T09:18:56Z</time>
      </trkpt>
      <trkpt lat="42.036628" lon="2.544287">
        <ele>563.306</ele>
        <time>2021-05-27T09:18:57Z</time>
      </trkpt>
      <trkpt lat="42.036626" lon="2.544258">
        <ele>563.326</ele>
        <time>2021-05-27T09:18:58Z</time>
      </trkpt>
      <trkpt lat="42.036624" lon="2.544231">
        <ele>563.408</ele>
        <time>2021-05-27T09:18:59Z</time>
      </trkpt>
      <trkpt lat="42.036609" lon="2.544102">
        <ele>563.555</ele>
        <time>2021-05-27T09:19:05Z</time>
      </trkpt>
      <trkpt lat="42.036614" lon="2.543968">
        <ele>562.722</ele>
        <time>2021-05-27T09:19:09Z</time>
      </trkpt>
      <trkpt lat="42.036619" lon="2.543834">
        <ele>562.440</ele>
        <time>2021-05-27T09:19:15Z</time>
      </trkpt>
      <trkpt lat="42.036691" lon="2.543728">
        <ele>559.850</ele>
        <time>2021-05-27T09:19:21Z</time>
      </trkpt>
      <trkpt lat="42.036765" lon="2.543641">
        <ele>557.947</ele>
        <time>2021-05-27T09:19:26Z</time>
      </trkpt>
      <trkpt lat="42.036832" lon="2.543532">
        <ele>557.862</ele>
        <time>2021-05-27T09:19:32Z</time>
      </trkpt>
      <trkpt lat="42.036928" lon="2.543466">
        <ele>556.655</ele>
        <time>2021-05-27T09:19:37Z</time>
      </trkpt>
      <trkpt lat="42.036995" lon="2.543454">
        <ele>555.241</ele>
        <time>2021-05-27T09:19:39Z</time>
      </trkpt>
      <trkpt lat="42.037039" lon="2.543430">
        <ele>554.955</ele>
        <time>2021-05-27T09:19:41Z</time>
      </trkpt>
      <trkpt lat="42.037128" lon="2.543371">
        <ele>554.607</ele>
        <time>2021-05-27T09:19:47Z</time>
      </trkpt>
      <trkpt lat="42.037216" lon="2.543316">
        <ele>554.517</ele>
        <time>2021-05-27T09:19:53Z</time>
      </trkpt>
      <trkpt lat="42.037304" lon="2.543276">
        <ele>553.108</ele>
        <time>2021-05-27T09:19:56Z</time>
      </trkpt>
      <trkpt lat="42.037351" lon="2.543276">
        <ele>551.942</ele>
        <time>2021-05-27T09:19:58Z</time>
      </trkpt>
      <trkpt lat="42.037370" lon="2.543273">
        <ele>551.549</ele>
        <time>2021-05-27T09:19:59Z</time>
      </trkpt>
      <trkpt lat="42.037387" lon="2.543263">
        <ele>551.227</ele>
        <time>2021-05-27T09:20:00Z</time>
      </trkpt>
      <trkpt lat="42.037475" lon="2.543180">
        <ele>550.447</ele>
        <time>2021-05-27T09:20:06Z</time>
      </trkpt>
      <trkpt lat="42.037540" lon="2.543083">
        <ele>550.724</ele>
        <time>2021-05-27T09:20:10Z</time>
      </trkpt>
      <trkpt lat="42.037631" lon="2.543033">
        <ele>549.399</ele>
        <time>2021-05-27T09:20:13Z</time>
      </trkpt>
      <trkpt lat="42.037728" lon="2.543022">
        <ele>547.382</ele>
        <time>2021-05-27T09:20:18Z</time>
      </trkpt>
      <trkpt lat="42.037802" lon="2.543046">
        <ele>545.668</ele>
        <time>2021-05-27T09:20:23Z</time>
      </trkpt>
      <trkpt lat="42.037827" lon="2.543060">
        <ele>545.185</ele>
        <time>2021-05-27T09:20:24Z</time>
      </trkpt>
      <trkpt lat="42.037845" lon="2.543074">
        <ele>544.789</ele>
        <time>2021-05-27T09:20:25Z</time>
      </trkpt>
      <trkpt lat="42.037858" lon="2.543093">
        <ele>544.417</ele>
        <time>2021-05-27T09:20:26Z</time>
      </trkpt>
      <trkpt lat="42.037867" lon="2.543125">
        <ele>544.108</ele>
        <time>2021-05-27T09:20:28Z</time>
      </trkpt>
      <trkpt lat="42.037873" lon="2.543198">
        <ele>543.685</ele>
        <time>2021-05-27T09:20:30Z</time>
      </trkpt>
      <trkpt lat="42.037874" lon="2.543243">
        <ele>543.472</ele>
        <time>2021-05-27T09:20:32Z</time>
      </trkpt>
      <trkpt lat="42.037891" lon="2.543283">
        <ele>543.010</ele>
        <time>2021-05-27T09:20:34Z</time>
      </trkpt>
      <trkpt lat="42.037899" lon="2.543308">
        <ele>542.890</ele>
        <time>2021-05-27T09:20:35Z</time>
      </trkpt>
      <trkpt lat="42.037915" lon="2.543331">
        <ele>542.597</ele>
        <time>2021-05-27T09:20:36Z</time>
      </trkpt>
      <trkpt lat="42.037929" lon="2.543354">
        <ele>542.192</ele>
        <time>2021-05-27T09:20:37Z</time>
      </trkpt>
      <trkpt lat="42.037944" lon="2.543378">
        <ele>541.775</ele>
        <time>2021-05-27T09:20:38Z</time>
      </trkpt>
      <trkpt lat="42.038009" lon="2.543481">
        <ele>540.271</ele>
        <time>2021-05-27T09:20:43Z</time>
      </trkpt>
      <trkpt lat="42.038076" lon="2.543476">
        <ele>539.764</ele>
        <time>2021-05-27T09:20:48Z</time>
      </trkpt>
      <trkpt lat="42.038106" lon="2.543475">
        <ele>539.306</ele>
        <time>2021-05-27T09:20:49Z</time>
      </trkpt>
      <trkpt lat="42.038144" lon="2.543465">
        <ele>538.816</ele>
        <time>2021-05-27T09:20:51Z</time>
      </trkpt>
      <trkpt lat="42.038173" lon="2.543453">
        <ele>538.408</ele>
        <time>2021-05-27T09:20:53Z</time>
      </trkpt>
      <trkpt lat="42.038269" lon="2.543427">
        <ele>537.343</ele>
        <time>2021-05-27T09:20:59Z</time>
      </trkpt>
      <trkpt lat="42.038361" lon="2.543492">
        <ele>535.250</ele>
        <time>2021-05-27T09:21:04Z</time>
      </trkpt>
      <trkpt lat="42.038386" lon="2.543564">
        <ele>534.278</ele>
        <time>2021-05-27T09:21:09Z</time>
      </trkpt>
      <trkpt lat="42.038357" lon="2.543680">
        <ele>532.568</ele>
        <time>2021-05-27T09:21:16Z</time>
      </trkpt>
      <trkpt lat="42.038350" lon="2.543709">
        <ele>531.875</ele>
        <time>2021-05-27T09:21:18Z</time>
      </trkpt>
      <trkpt lat="42.038339" lon="2.543750">
        <ele>530.990</ele>
        <time>2021-05-27T09:21:21Z</time>
      </trkpt>
      <trkpt lat="42.038325" lon="2.543784">
        <ele>530.113</ele>
        <time>2021-05-27T09:21:23Z</time>
      </trkpt>
      <trkpt lat="42.038308" lon="2.543815">
        <ele>529.439</ele>
        <time>2021-05-27T09:21:25Z</time>
      </trkpt>
      <trkpt lat="42.038285" lon="2.543836">
        <ele>529.167</ele>
        <time>2021-05-27T09:21:26Z</time>
      </trkpt>
      <trkpt lat="42.038191" lon="2.543907">
        <ele>527.981</ele>
        <time>2021-05-27T09:21:32Z</time>
      </trkpt>
      <trkpt lat="42.038112" lon="2.543982">
        <ele>526.019</ele>
        <time>2021-05-27T09:21:37Z</time>
      </trkpt>
      <trkpt lat="42.038021" lon="2.544031">
        <ele>524.608</ele>
        <time>2021-05-27T09:21:43Z</time>
      </trkpt>
      <trkpt lat="42.037929" lon="2.544069">
        <ele>522.343</ele>
        <time>2021-05-27T09:21:48Z</time>
      </trkpt>
      <trkpt lat="42.037832" lon="2.544132">
        <ele>518.960</ele>
        <time>2021-05-27T09:21:54Z</time>
      </trkpt>
      <trkpt lat="42.037722" lon="2.544172">
        <ele>517.468</ele>
        <time>2021-05-27T09:21:59Z</time>
      </trkpt>
      <trkpt lat="42.037638" lon="2.544253">
        <ele>516.218</ele>
        <time>2021-05-27T09:22:03Z</time>
      </trkpt>
      <trkpt lat="42.037555" lon="2.544342">
        <ele>515.655</ele>
        <time>2021-05-27T09:22:08Z</time>
      </trkpt>
      <trkpt lat="42.037567" lon="2.544464">
        <ele>513.010</ele>
        <time>2021-05-27T09:22:13Z</time>
      </trkpt>
      <trkpt lat="42.037661" lon="2.544465">
        <ele>510.153</ele>
        <time>2021-05-27T09:22:19Z</time>
      </trkpt>
      <trkpt lat="42.037751" lon="2.544489">
        <ele>506.859</ele>
        <time>2021-05-27T09:22:24Z</time>
      </trkpt>
      <trkpt lat="42.037782" lon="2.544506">
        <ele>505.572</ele>
        <time>2021-05-27T09:22:27Z</time>
      </trkpt>
      <trkpt lat="42.037805" lon="2.544521">
        <ele>505.313</ele>
        <time>2021-05-27T09:22:29Z</time>
      </trkpt>
      <trkpt lat="42.037824" lon="2.544538">
        <ele>505.014</ele>
        <time>2021-05-27T09:22:31Z</time>
      </trkpt>
      <trkpt lat="42.037843" lon="2.544548">
        <ele>504.808</ele>
        <time>2021-05-27T09:22:32Z</time>
      </trkpt>
      <trkpt lat="42.037861" lon="2.544564">
        <ele>504.534</ele>
        <time>2021-05-27T09:22:34Z</time>
      </trkpt>
      <trkpt lat="42.037880" lon="2.544577">
        <ele>504.221</ele>
        <time>2021-05-27T09:22:35Z</time>
      </trkpt>
      <trkpt lat="42.037900" lon="2.544586">
        <ele>504.199</ele>
        <time>2021-05-27T09:22:36Z</time>
      </trkpt>
      <trkpt lat="42.037919" lon="2.544600">
        <ele>503.839</ele>
        <time>2021-05-27T09:22:37Z</time>
      </trkpt>
      <trkpt lat="42.037935" lon="2.544615">
        <ele>503.466</ele>
        <time>2021-05-27T09:22:38Z</time>
      </trkpt>
      <trkpt lat="42.037957" lon="2.544636">
        <ele>502.861</ele>
        <time>2021-05-27T09:22:40Z</time>
      </trkpt>
      <trkpt lat="42.037973" lon="2.544649">
        <ele>502.454</ele>
        <time>2021-05-27T09:22:41Z</time>
      </trkpt>
      <trkpt lat="42.037988" lon="2.544664">
        <ele>501.930</ele>
        <time>2021-05-27T09:22:42Z</time>
      </trkpt>
      <trkpt lat="42.038010" lon="2.544684">
        <ele>501.339</ele>
        <time>2021-05-27T09:22:44Z</time>
      </trkpt>
      <trkpt lat="42.038032" lon="2.544715">
        <ele>500.301</ele>
        <time>2021-05-27T09:22:46Z</time>
      </trkpt>
      <trkpt lat="42.038049" lon="2.544732">
        <ele>499.721</ele>
        <time>2021-05-27T09:22:47Z</time>
      </trkpt>
      <trkpt lat="42.038072" lon="2.544765">
        <ele>498.708</ele>
        <time>2021-05-27T09:22:49Z</time>
      </trkpt>
      <trkpt lat="42.038084" lon="2.544786">
        <ele>498.180</ele>
        <time>2021-05-27T09:22:50Z</time>
      </trkpt>
      <trkpt lat="42.038108" lon="2.544815">
        <ele>497.277</ele>
        <time>2021-05-27T09:22:51Z</time>
      </trkpt>
      <trkpt lat="42.038137" lon="2.544837">
        <ele>496.725</ele>
        <time>2021-05-27T09:22:54Z</time>
      </trkpt>
      <trkpt lat="42.038151" lon="2.544857">
        <ele>496.185</ele>
        <time>2021-05-27T09:22:55Z</time>
      </trkpt>
      <trkpt lat="42.038175" lon="2.544912">
        <ele>494.622</ele>
        <time>2021-05-27T09:22:56Z</time>
      </trkpt>
      <trkpt lat="42.038194" lon="2.544926">
        <ele>494.317</ele>
        <time>2021-05-27T09:22:57Z</time>
      </trkpt>
      <trkpt lat="42.038231" lon="2.544961">
        <ele>493.410</ele>
        <time>2021-05-27T09:23:00Z</time>
      </trkpt>
      <trkpt lat="42.038271" lon="2.544981">
        <ele>493.196</ele>
        <time>2021-05-27T09:23:01Z</time>
      </trkpt>
      <trkpt lat="42.038292" lon="2.544984">
        <ele>493.221</ele>
        <time>2021-05-27T09:23:02Z</time>
      </trkpt>
      <trkpt lat="42.038314" lon="2.544986">
        <ele>493.341</ele>
        <time>2021-05-27T09:23:03Z</time>
      </trkpt>
      <trkpt lat="42.038343" lon="2.544989">
        <ele>493.105</ele>
        <time>2021-05-27T09:23:04Z</time>
      </trkpt>
      <trkpt lat="42.038366" lon="2.544989">
        <ele>492.508</ele>
        <time>2021-05-27T09:23:05Z</time>
      </trkpt>
      <trkpt lat="42.038387" lon="2.544988">
        <ele>492.029</ele>
        <time>2021-05-27T09:23:06Z</time>
      </trkpt>
      <trkpt lat="42.038405" lon="2.544982">
        <ele>491.756</ele>
        <time>2021-05-27T09:23:07Z</time>
      </trkpt>
      <trkpt lat="42.038420" lon="2.544968">
        <ele>491.734</ele>
        <time>2021-05-27T09:23:08Z</time>
      </trkpt>
      <trkpt lat="42.038468" lon="2.544919">
        <ele>491.774</ele>
        <time>2021-05-27T09:23:11Z</time>
      </trkpt>
      <trkpt lat="42.038483" lon="2.544896">
        <ele>491.851</ele>
        <time>2021-05-27T09:23:13Z</time>
      </trkpt>
      <trkpt lat="42.038501" lon="2.544871">
        <ele>491.956</ele>
        <time>2021-05-27T09:23:14Z</time>
      </trkpt>
      <trkpt lat="42.038580" lon="2.544780">
        <ele>491.719</ele>
        <time>2021-05-27T09:23:18Z</time>
      </trkpt>
      <trkpt lat="42.038605" lon="2.544772">
        <ele>491.155</ele>
        <time>2021-05-27T09:23:19Z</time>
      </trkpt>
      <trkpt lat="42.038652" lon="2.544748">
        <ele>490.923</ele>
        <time>2021-05-27T09:23:20Z</time>
      </trkpt>
      <trkpt lat="42.038678" lon="2.544739">
        <ele>490.983</ele>
        <time>2021-05-27T09:23:21Z</time>
      </trkpt>
      <trkpt lat="42.038703" lon="2.544738">
        <ele>490.611</ele>
        <time>2021-05-27T09:23:22Z</time>
      </trkpt>
      <trkpt lat="42.038727" lon="2.544740">
        <ele>490.308</ele>
        <time>2021-05-27T09:23:23Z</time>
      </trkpt>
      <trkpt lat="42.038751" lon="2.544741">
        <ele>489.979</ele>
        <time>2021-05-27T09:23:24Z</time>
      </trkpt>
      <trkpt lat="42.038775" lon="2.544739">
        <ele>489.786</ele>
        <time>2021-05-27T09:23:25Z</time>
      </trkpt>
      <trkpt lat="42.038810" lon="2.544730">
        <ele>489.644</ele>
        <time>2021-05-27T09:23:27Z</time>
      </trkpt>
      <trkpt lat="42.038833" lon="2.544730">
        <ele>489.344</ele>
        <time>2021-05-27T09:23:28Z</time>
      </trkpt>
      <trkpt lat="42.038853" lon="2.544730">
        <ele>489.121</ele>
        <time>2021-05-27T09:23:29Z</time>
      </trkpt>
      <trkpt lat="42.038873" lon="2.544734">
        <ele>488.826</ele>
        <time>2021-05-27T09:23:30Z</time>
      </trkpt>
      <trkpt lat="42.038893" lon="2.544739">
        <ele>488.469</ele>
        <time>2021-05-27T09:23:31Z</time>
      </trkpt>
      <trkpt lat="42.038917" lon="2.544744">
        <ele>488.285</ele>
        <time>2021-05-27T09:23:32Z</time>
      </trkpt>
      <trkpt lat="42.038938" lon="2.544749">
        <ele>488.193</ele>
        <time>2021-05-27T09:23:33Z</time>
      </trkpt>
      <trkpt lat="42.038961" lon="2.544756">
        <ele>487.865</ele>
        <time>2021-05-27T09:23:34Z</time>
      </trkpt>
      <trkpt lat="42.038982" lon="2.544766">
        <ele>487.521</ele>
        <time>2021-05-27T09:23:35Z</time>
      </trkpt>
      <trkpt lat="42.039036" lon="2.544781">
        <ele>487.008</ele>
        <time>2021-05-27T09:23:37Z</time>
      </trkpt>
      <trkpt lat="42.039079" lon="2.544784">
        <ele>486.956</ele>
        <time>2021-05-27T09:23:39Z</time>
      </trkpt>
      <trkpt lat="42.039126" lon="2.544792">
        <ele>486.723</ele>
        <time>2021-05-27T09:23:41Z</time>
      </trkpt>
      <trkpt lat="42.039172" lon="2.544797">
        <ele>486.411</ele>
        <time>2021-05-27T09:23:43Z</time>
      </trkpt>
      <trkpt lat="42.039192" lon="2.544797">
        <ele>485.961</ele>
        <time>2021-05-27T09:23:45Z</time>
      </trkpt>
      <trkpt lat="42.039246" lon="2.544798">
        <ele>484.698</ele>
        <time>2021-05-27T09:23:47Z</time>
      </trkpt>
      <trkpt lat="42.039267" lon="2.544800">
        <ele>484.043</ele>
        <time>2021-05-27T09:23:48Z</time>
      </trkpt>
      <trkpt lat="42.039286" lon="2.544802">
        <ele>483.576</ele>
        <time>2021-05-27T09:23:50Z</time>
      </trkpt>
      <trkpt lat="42.039322" lon="2.544805">
        <ele>482.522</ele>
        <time>2021-05-27T09:23:51Z</time>
      </trkpt>
      <trkpt lat="42.039343" lon="2.544804">
        <ele>482.048</ele>
        <time>2021-05-27T09:23:53Z</time>
      </trkpt>
      <trkpt lat="42.039375" lon="2.544805">
        <ele>481.261</ele>
        <time>2021-05-27T09:23:55Z</time>
      </trkpt>
      <trkpt lat="42.039407" lon="2.544798">
        <ele>480.617</ele>
        <time>2021-05-27T09:23:57Z</time>
      </trkpt>
      <trkpt lat="42.039436" lon="2.544788">
        <ele>480.008</ele>
        <time>2021-05-27T09:23:59Z</time>
      </trkpt>
      <trkpt lat="42.039465" lon="2.544777">
        <ele>479.111</ele>
        <time>2021-05-27T09:24:00Z</time>
      </trkpt>
      <trkpt lat="42.039516" lon="2.544753">
        <ele>477.368</ele>
        <time>2021-05-27T09:24:03Z</time>
      </trkpt>
      <trkpt lat="42.039533" lon="2.544742">
        <ele>476.876</ele>
        <time>2021-05-27T09:24:05Z</time>
      </trkpt>
      <trkpt lat="42.039553" lon="2.544709">
        <ele>476.596</ele>
        <time>2021-05-27T09:24:06Z</time>
      </trkpt>
      <trkpt lat="42.039559" lon="2.544686">
        <ele>476.683</ele>
        <time>2021-05-27T09:24:08Z</time>
      </trkpt>
      <trkpt lat="42.039581" lon="2.544546">
        <ele>477.938</ele>
        <time>2021-05-27T09:24:12Z</time>
      </trkpt>
      <trkpt lat="42.039614" lon="2.544428">
        <ele>478.991</ele>
        <time>2021-05-27T09:24:15Z</time>
      </trkpt>
      <trkpt lat="42.039660" lon="2.544365">
        <ele>478.817</ele>
        <time>2021-05-27T09:24:22Z</time>
      </trkpt>
      <trkpt lat="42.039687" lon="2.544352">
        <ele>478.371</ele>
        <time>2021-05-27T09:24:25Z</time>
      </trkpt>
      <trkpt lat="42.039705" lon="2.544359">
        <ele>477.741</ele>
        <time>2021-05-27T09:24:26Z</time>
      </trkpt>
      <trkpt lat="42.039722" lon="2.544369">
        <ele>476.915</ele>
        <time>2021-05-27T09:24:27Z</time>
      </trkpt>
      <trkpt lat="42.039757" lon="2.544389">
        <ele>476.408</ele>
        <time>2021-05-27T09:24:28Z</time>
      </trkpt>
      <trkpt lat="42.039808" lon="2.544415">
        <ele>475.774</ele>
        <time>2021-05-27T09:24:30Z</time>
      </trkpt>
      <trkpt lat="42.039833" lon="2.544429">
        <ele>475.441</ele>
        <time>2021-05-27T09:24:31Z</time>
      </trkpt>
      <trkpt lat="42.039861" lon="2.544444">
        <ele>475.089</ele>
        <time>2021-05-27T09:24:32Z</time>
      </trkpt>
      <trkpt lat="42.039885" lon="2.544460">
        <ele>474.689</ele>
        <time>2021-05-27T09:24:33Z</time>
      </trkpt>
      <trkpt lat="42.039908" lon="2.544473">
        <ele>474.266</ele>
        <time>2021-05-27T09:24:34Z</time>
      </trkpt>
      <trkpt lat="42.039933" lon="2.544482">
        <ele>473.971</ele>
        <time>2021-05-27T09:24:35Z</time>
      </trkpt>
      <trkpt lat="42.039977" lon="2.544505">
        <ele>473.164</ele>
        <time>2021-05-27T09:24:37Z</time>
      </trkpt>
      <trkpt lat="42.039997" lon="2.544527">
        <ele>472.380</ele>
        <time>2021-05-27T09:24:38Z</time>
      </trkpt>
      <trkpt lat="42.040037" lon="2.544565">
        <ele>471.482</ele>
        <time>2021-05-27T09:24:40Z</time>
      </trkpt>
      <trkpt lat="42.040052" lon="2.544581">
        <ele>471.043</ele>
        <time>2021-05-27T09:24:41Z</time>
      </trkpt>
      <trkpt lat="42.040071" lon="2.544599">
        <ele>470.617</ele>
        <time>2021-05-27T09:24:42Z</time>
      </trkpt>
      <trkpt lat="42.040132" lon="2.544647">
        <ele>469.708</ele>
        <time>2021-05-27T09:24:46Z</time>
      </trkpt>
      <trkpt lat="42.040157" lon="2.544663">
        <ele>469.565</ele>
        <time>2021-05-27T09:24:47Z</time>
      </trkpt>
      <trkpt lat="42.040204" lon="2.544690">
        <ele>469.282</ele>
        <time>2021-05-27T09:24:48Z</time>
      </trkpt>
      <trkpt lat="42.040230" lon="2.544702">
        <ele>469.160</ele>
        <time>2021-05-27T09:24:49Z</time>
      </trkpt>
      <trkpt lat="42.040260" lon="2.544714">
        <ele>469.090</ele>
        <time>2021-05-27T09:24:50Z</time>
      </trkpt>
      <trkpt lat="42.040313" lon="2.544735">
        <ele>468.687</ele>
        <time>2021-05-27T09:24:52Z</time>
      </trkpt>
      <trkpt lat="42.040339" lon="2.544742">
        <ele>468.432</ele>
        <time>2021-05-27T09:24:54Z</time>
      </trkpt>
      <trkpt lat="42.040388" lon="2.544748">
        <ele>468.395</ele>
        <time>2021-05-27T09:24:55Z</time>
      </trkpt>
      <trkpt lat="42.040409" lon="2.544751">
        <ele>468.221</ele>
        <time>2021-05-27T09:24:56Z</time>
      </trkpt>
      <trkpt lat="42.040509" lon="2.544778">
        <ele>467.414</ele>
        <time>2021-05-27T09:25:00Z</time>
      </trkpt>
      <trkpt lat="42.040563" lon="2.544786">
        <ele>467.154</ele>
        <time>2021-05-27T09:25:02Z</time>
      </trkpt>
      <trkpt lat="42.040622" lon="2.544784">
        <ele>467.009</ele>
        <time>2021-05-27T09:25:04Z</time>
      </trkpt>
      <trkpt lat="42.040680" lon="2.544783">
        <ele>466.808</ele>
        <time>2021-05-27T09:25:06Z</time>
      </trkpt>
      <trkpt lat="42.040706" lon="2.544782">
        <ele>466.768</ele>
        <time>2021-05-27T09:25:08Z</time>
      </trkpt>
      <trkpt lat="42.040750" lon="2.544788">
        <ele>466.435</ele>
        <time>2021-05-27T09:25:09Z</time>
      </trkpt>
      <trkpt lat="42.040773" lon="2.544798">
        <ele>466.093</ele>
        <time>2021-05-27T09:25:11Z</time>
      </trkpt>
      <trkpt lat="42.040816" lon="2.544826">
        <ele>465.153</ele>
        <time>2021-05-27T09:25:12Z</time>
      </trkpt>
      <trkpt lat="42.040836" lon="2.544839">
        <ele>464.670</ele>
        <time>2021-05-27T09:25:13Z</time>
      </trkpt>
      <trkpt lat="42.040853" lon="2.544854">
        <ele>464.115</ele>
        <time>2021-05-27T09:25:14Z</time>
      </trkpt>
      <trkpt lat="42.040873" lon="2.544870">
        <ele>463.618</ele>
        <time>2021-05-27T09:25:15Z</time>
      </trkpt>
      <trkpt lat="42.040892" lon="2.544886">
        <ele>463.184</ele>
        <time>2021-05-27T09:25:17Z</time>
      </trkpt>
      <trkpt lat="42.040913" lon="2.544901">
        <ele>462.769</ele>
        <time>2021-05-27T09:25:18Z</time>
      </trkpt>
      <trkpt lat="42.040951" lon="2.544943">
        <ele>461.704</ele>
        <time>2021-05-27T09:25:19Z</time>
      </trkpt>
      <trkpt lat="42.040993" lon="2.544988">
        <ele>460.824</ele>
        <time>2021-05-27T09:25:21Z</time>
      </trkpt>
      <trkpt lat="42.041026" lon="2.545028">
        <ele>460.008</ele>
        <time>2021-05-27T09:25:23Z</time>
      </trkpt>
      <trkpt lat="42.041044" lon="2.545047">
        <ele>459.583</ele>
        <time>2021-05-27T09:25:25Z</time>
      </trkpt>
      <trkpt lat="42.041058" lon="2.545063">
        <ele>459.230</ele>
        <time>2021-05-27T09:25:26Z</time>
      </trkpt>
      <trkpt lat="42.041094" lon="2.545117">
        <ele>458.068</ele>
        <time>2021-05-27T09:25:28Z</time>
      </trkpt>
      <trkpt lat="42.041108" lon="2.545139">
        <ele>457.548</ele>
        <time>2021-05-27T09:25:29Z</time>
      </trkpt>
      <trkpt lat="42.041125" lon="2.545158">
        <ele>457.095</ele>
        <time>2021-05-27T09:25:31Z</time>
      </trkpt>
      <trkpt lat="42.041151" lon="2.545190">
        <ele>456.150</ele>
        <time>2021-05-27T09:25:32Z</time>
      </trkpt>
      <trkpt lat="42.041252" lon="2.545257">
        <ele>454.843</ele>
        <time>2021-05-27T09:25:37Z</time>
      </trkpt>
      <trkpt lat="42.041269" lon="2.545268">
        <ele>454.769</ele>
        <time>2021-05-27T09:25:38Z</time>
      </trkpt>
      <trkpt lat="42.041308" lon="2.545303">
        <ele>454.056</ele>
        <time>2021-05-27T09:25:40Z</time>
      </trkpt>
      <trkpt lat="42.041350" lon="2.545340">
        <ele>453.259</ele>
        <time>2021-05-27T09:25:42Z</time>
      </trkpt>
      <trkpt lat="42.041372" lon="2.545355">
        <ele>452.914</ele>
        <time>2021-05-27T09:25:43Z</time>
      </trkpt>
      <trkpt lat="42.041393" lon="2.545367">
        <ele>452.808</ele>
        <time>2021-05-27T09:25:45Z</time>
      </trkpt>
      <trkpt lat="42.041437" lon="2.545398">
        <ele>452.382</ele>
        <time>2021-05-27T09:25:46Z</time>
      </trkpt>
      <trkpt lat="42.041485" lon="2.545422">
        <ele>452.189</ele>
        <time>2021-05-27T09:25:48Z</time>
      </trkpt>
      <trkpt lat="42.041526" lon="2.545450">
        <ele>451.927</ele>
        <time>2021-05-27T09:25:50Z</time>
      </trkpt>
      <trkpt lat="42.041550" lon="2.545467">
        <ele>451.887</ele>
        <time>2021-05-27T09:25:51Z</time>
      </trkpt>
      <trkpt lat="42.041591" lon="2.545492">
        <ele>451.874</ele>
        <time>2021-05-27T09:25:53Z</time>
      </trkpt>
      <trkpt lat="42.041608" lon="2.545505">
        <ele>451.949</ele>
        <time>2021-05-27T09:25:55Z</time>
      </trkpt>
      <trkpt lat="42.041628" lon="2.545519">
        <ele>451.932</ele>
        <time>2021-05-27T09:25:56Z</time>
      </trkpt>
      <trkpt lat="42.041666" lon="2.545546">
        <ele>452.138</ele>
        <time>2021-05-27T09:25:57Z</time>
      </trkpt>
      <trkpt lat="42.041714" lon="2.545581">
        <ele>451.757</ele>
        <time>2021-05-27T09:25:59Z</time>
      </trkpt>
      <trkpt lat="42.041735" lon="2.545598">
        <ele>451.500</ele>
        <time>2021-05-27T09:26:00Z</time>
      </trkpt>
      <trkpt lat="42.041753" lon="2.545615">
        <ele>451.220</ele>
        <time>2021-05-27T09:26:01Z</time>
      </trkpt>
      <trkpt lat="42.041774" lon="2.545630">
        <ele>451.008</ele>
        <time>2021-05-27T09:26:02Z</time>
      </trkpt>
      <trkpt lat="42.041798" lon="2.545642">
        <ele>450.922</ele>
        <time>2021-05-27T09:26:03Z</time>
      </trkpt>
      <trkpt lat="42.041822" lon="2.545655">
        <ele>450.869</ele>
        <time>2021-05-27T09:26:05Z</time>
      </trkpt>
      <trkpt lat="42.041861" lon="2.545677">
        <ele>450.667</ele>
        <time>2021-05-27T09:26:06Z</time>
      </trkpt>
      <trkpt lat="42.041914" lon="2.545706">
        <ele>450.547</ele>
        <time>2021-05-27T09:26:08Z</time>
      </trkpt>
      <trkpt lat="42.041935" lon="2.545718">
        <ele>450.454</ele>
        <time>2021-05-27T09:26:10Z</time>
      </trkpt>
      <trkpt lat="42.041954" lon="2.545729">
        <ele>450.299</ele>
        <time>2021-05-27T09:26:11Z</time>
      </trkpt>
      <trkpt lat="42.041991" lon="2.545750">
        <ele>449.612</ele>
        <time>2021-05-27T09:26:12Z</time>
      </trkpt>
      <trkpt lat="42.042022" lon="2.545774">
        <ele>449.038</ele>
        <time>2021-05-27T09:26:15Z</time>
      </trkpt>
      <trkpt lat="42.042068" lon="2.545793">
        <ele>448.614</ele>
        <time>2021-05-27T09:26:16Z</time>
      </trkpt>
      <trkpt lat="42.042182" lon="2.545813">
        <ele>448.254</ele>
        <time>2021-05-27T09:26:21Z</time>
      </trkpt>
      <trkpt lat="42.042202" lon="2.545819">
        <ele>448.109</ele>
        <time>2021-05-27T09:26:22Z</time>
      </trkpt>
      <trkpt lat="42.042224" lon="2.545827">
        <ele>448.008</ele>
        <time>2021-05-27T09:26:23Z</time>
      </trkpt>
      <trkpt lat="42.042255" lon="2.545835">
        <ele>447.228</ele>
        <time>2021-05-27T09:26:25Z</time>
      </trkpt>
      <trkpt lat="42.042292" lon="2.545837">
        <ele>446.425</ele>
        <time>2021-05-27T09:26:27Z</time>
      </trkpt>
      <trkpt lat="42.042329" lon="2.545831">
        <ele>445.773</ele>
        <time>2021-05-27T09:26:29Z</time>
      </trkpt>
      <trkpt lat="42.042369" lon="2.545828">
        <ele>444.843</ele>
        <time>2021-05-27T09:26:31Z</time>
      </trkpt>
      <trkpt lat="42.042389" lon="2.545833">
        <ele>444.420</ele>
        <time>2021-05-27T09:26:32Z</time>
      </trkpt>
      <trkpt lat="42.042427" lon="2.545851">
        <ele>443.375</ele>
        <time>2021-05-27T09:26:34Z</time>
      </trkpt>
      <trkpt lat="42.042449" lon="2.545860">
        <ele>442.768</ele>
        <time>2021-05-27T09:26:35Z</time>
      </trkpt>
      <trkpt lat="42.042469" lon="2.545871">
        <ele>442.244</ele>
        <time>2021-05-27T09:26:36Z</time>
      </trkpt>
      <trkpt lat="42.042489" lon="2.545881">
        <ele>441.729</ele>
        <time>2021-05-27T09:26:37Z</time>
      </trkpt>
      <trkpt lat="42.042511" lon="2.545898">
        <ele>440.900</ele>
        <time>2021-05-27T09:26:38Z</time>
      </trkpt>
      <trkpt lat="42.042529" lon="2.545913">
        <ele>440.020</ele>
        <time>2021-05-27T09:26:39Z</time>
      </trkpt>
      <trkpt lat="42.042546" lon="2.545926">
        <ele>439.208</ele>
        <time>2021-05-27T09:26:40Z</time>
      </trkpt>
      <trkpt lat="42.042588" lon="2.545960">
        <ele>437.499</ele>
        <time>2021-05-27T09:26:42Z</time>
      </trkpt>
      <trkpt lat="42.042608" lon="2.545978">
        <ele>436.646</ele>
        <time>2021-05-27T09:26:43Z</time>
      </trkpt>
      <trkpt lat="42.042625" lon="2.546002">
        <ele>435.974</ele>
        <time>2021-05-27T09:26:45Z</time>
      </trkpt>
      <trkpt lat="42.042640" lon="2.546024">
        <ele>435.394</ele>
        <time>2021-05-27T09:26:46Z</time>
      </trkpt>
      <trkpt lat="42.042656" lon="2.546046">
        <ele>434.711</ele>
        <time>2021-05-27T09:26:47Z</time>
      </trkpt>
      <trkpt lat="42.042670" lon="2.546064">
        <ele>434.266</ele>
        <time>2021-05-27T09:26:48Z</time>
      </trkpt>
      <trkpt lat="42.042688" lon="2.546103">
        <ele>433.659</ele>
        <time>2021-05-27T09:26:49Z</time>
      </trkpt>
      <trkpt lat="42.042698" lon="2.546124">
        <ele>433.145</ele>
        <time>2021-05-27T09:26:50Z</time>
      </trkpt>
      <trkpt lat="42.042707" lon="2.546145">
        <ele>432.645</ele>
        <time>2021-05-27T09:26:51Z</time>
      </trkpt>
      <trkpt lat="42.042730" lon="2.546185">
        <ele>431.647</ele>
        <time>2021-05-27T09:26:53Z</time>
      </trkpt>
      <trkpt lat="42.042744" lon="2.546206">
        <ele>431.011</ele>
        <time>2021-05-27T09:26:54Z</time>
      </trkpt>
      <trkpt lat="42.042762" lon="2.546227">
        <ele>430.508</ele>
        <time>2021-05-27T09:26:55Z</time>
      </trkpt>
      <trkpt lat="42.042780" lon="2.546247">
        <ele>429.981</ele>
        <time>2021-05-27T09:26:56Z</time>
      </trkpt>
      <trkpt lat="42.042794" lon="2.546264">
        <ele>429.178</ele>
        <time>2021-05-27T09:26:57Z</time>
      </trkpt>
      <trkpt lat="42.042805" lon="2.546286">
        <ele>428.416</ele>
        <time>2021-05-27T09:26:58Z</time>
      </trkpt>
      <trkpt lat="42.042830" lon="2.546337">
        <ele>426.796</ele>
        <time>2021-05-27T09:27:00Z</time>
      </trkpt>
      <trkpt lat="42.042850" lon="2.546396">
        <ele>425.223</ele>
        <time>2021-05-27T09:27:02Z</time>
      </trkpt>
      <trkpt lat="42.042858" lon="2.546425">
        <ele>424.448</ele>
        <time>2021-05-27T09:27:03Z</time>
      </trkpt>
      <trkpt lat="42.042860" lon="2.546454">
        <ele>423.981</ele>
        <time>2021-05-27T09:27:04Z</time>
      </trkpt>
      <trkpt lat="42.042861" lon="2.546483">
        <ele>423.457</ele>
        <time>2021-05-27T09:27:05Z</time>
      </trkpt>
      <trkpt lat="42.042856" lon="2.546511">
        <ele>423.271</ele>
        <time>2021-05-27T09:27:06Z</time>
      </trkpt>
      <trkpt lat="42.042844" lon="2.546539">
        <ele>423.241</ele>
        <time>2021-05-27T09:27:07Z</time>
      </trkpt>
      <trkpt lat="42.042826" lon="2.546561">
        <ele>423.515</ele>
        <time>2021-05-27T09:27:09Z</time>
      </trkpt>
      <trkpt lat="42.042808" lon="2.546577">
        <ele>423.908</ele>
        <time>2021-05-27T09:27:10Z</time>
      </trkpt>
      <trkpt lat="42.042784" lon="2.546585">
        <ele>424.524</ele>
        <time>2021-05-27T09:27:11Z</time>
      </trkpt>
      <trkpt lat="42.042757" lon="2.546587">
        <ele>424.791</ele>
        <time>2021-05-27T09:27:12Z</time>
      </trkpt>
      <trkpt lat="42.042733" lon="2.546585">
        <ele>424.789</ele>
        <time>2021-05-27T09:27:13Z</time>
      </trkpt>
      <trkpt lat="42.042715" lon="2.546584">
        <ele>424.889</ele>
        <time>2021-05-27T09:27:14Z</time>
      </trkpt>
      <trkpt lat="42.042693" lon="2.546583">
        <ele>424.866</ele>
        <time>2021-05-27T09:27:15Z</time>
      </trkpt>
      <trkpt lat="42.042671" lon="2.546578">
        <ele>424.951</ele>
        <time>2021-05-27T09:27:16Z</time>
      </trkpt>
      <trkpt lat="42.042642" lon="2.546579">
        <ele>424.914</ele>
        <time>2021-05-27T09:27:17Z</time>
      </trkpt>
      <trkpt lat="42.042618" lon="2.546580">
        <ele>424.830</ele>
        <time>2021-05-27T09:27:18Z</time>
      </trkpt>
      <trkpt lat="42.042594" lon="2.546582">
        <ele>424.839</ele>
        <time>2021-05-27T09:27:19Z</time>
      </trkpt>
      <trkpt lat="42.042569" lon="2.546584">
        <ele>424.701</ele>
        <time>2021-05-27T09:27:20Z</time>
      </trkpt>
      <trkpt lat="42.042543" lon="2.546587">
        <ele>424.621</ele>
        <time>2021-05-27T09:27:21Z</time>
      </trkpt>
      <trkpt lat="42.042515" lon="2.546583">
        <ele>424.708</ele>
        <time>2021-05-27T09:27:22Z</time>
      </trkpt>
      <trkpt lat="42.042489" lon="2.546573">
        <ele>424.930</ele>
        <time>2021-05-27T09:27:23Z</time>
      </trkpt>
      <trkpt lat="42.042463" lon="2.546564">
        <ele>425.097</ele>
        <time>2021-05-27T09:27:24Z</time>
      </trkpt>
      <trkpt lat="42.042412" lon="2.546550">
        <ele>425.195</ele>
        <time>2021-05-27T09:27:25Z</time>
      </trkpt>
      <trkpt lat="42.042384" lon="2.546551">
        <ele>424.875</ele>
        <time>2021-05-27T09:27:26Z</time>
      </trkpt>
      <trkpt lat="42.042357" lon="2.546548">
        <ele>424.752</ele>
        <time>2021-05-27T09:27:28Z</time>
      </trkpt>
      <trkpt lat="42.042253" lon="2.546522">
        <ele>424.917</ele>
        <time>2021-05-27T09:27:32Z</time>
      </trkpt>
      <trkpt lat="42.042227" lon="2.546514">
        <ele>425.190</ele>
        <time>2021-05-27T09:27:33Z</time>
      </trkpt>
      <trkpt lat="42.042204" lon="2.546508">
        <ele>425.166</ele>
        <time>2021-05-27T09:27:34Z</time>
      </trkpt>
      <trkpt lat="42.042179" lon="2.546502">
        <ele>425.056</ele>
        <time>2021-05-27T09:27:35Z</time>
      </trkpt>
      <trkpt lat="42.042155" lon="2.546498">
        <ele>424.959</ele>
        <time>2021-05-27T09:27:36Z</time>
      </trkpt>
      <trkpt lat="42.042127" lon="2.546492">
        <ele>424.814</ele>
        <time>2021-05-27T09:27:37Z</time>
      </trkpt>
      <trkpt lat="42.042103" lon="2.546475">
        <ele>425.208</ele>
        <time>2021-05-27T09:27:38Z</time>
      </trkpt>
      <trkpt lat="42.042006" lon="2.546425">
        <ele>426.142</ele>
        <time>2021-05-27T09:27:42Z</time>
      </trkpt>
      <trkpt lat="42.041936" lon="2.546399">
        <ele>426.579</ele>
        <time>2021-05-27T09:27:44Z</time>
      </trkpt>
      <trkpt lat="42.041916" lon="2.546390">
        <ele>426.687</ele>
        <time>2021-05-27T09:27:45Z</time>
      </trkpt>
      <trkpt lat="42.041895" lon="2.546380">
        <ele>426.987</ele>
        <time>2021-05-27T09:27:46Z</time>
      </trkpt>
      <trkpt lat="42.041872" lon="2.546372">
        <ele>426.954</ele>
        <time>2021-05-27T09:27:47Z</time>
      </trkpt>
      <trkpt lat="42.041831" lon="2.546361">
        <ele>427.029</ele>
        <time>2021-05-27T09:27:49Z</time>
      </trkpt>
      <trkpt lat="42.041810" lon="2.546361">
        <ele>426.852</ele>
        <time>2021-05-27T09:27:50Z</time>
      </trkpt>
      <trkpt lat="42.041793" lon="2.546352">
        <ele>427.098</ele>
        <time>2021-05-27T09:27:52Z</time>
      </trkpt>
      <trkpt lat="42.041759" lon="2.546335">
        <ele>427.386</ele>
        <time>2021-05-27T09:27:54Z</time>
      </trkpt>
      <trkpt lat="42.041729" lon="2.546316">
        <ele>427.860</ele>
        <time>2021-05-27T09:27:55Z</time>
      </trkpt>
      <trkpt lat="42.041635" lon="2.546285">
        <ele>427.926</ele>
        <time>2021-05-27T09:28:00Z</time>
      </trkpt>
      <trkpt lat="42.041539" lon="2.546251">
        <ele>427.708</ele>
        <time>2021-05-27T09:28:04Z</time>
      </trkpt>
      <trkpt lat="42.041472" lon="2.546245">
        <ele>426.755</ele>
        <time>2021-05-27T09:28:06Z</time>
      </trkpt>
      <trkpt lat="42.041451" lon="2.546242">
        <ele>426.492</ele>
        <time>2021-05-27T09:28:07Z</time>
      </trkpt>
      <trkpt lat="42.041413" lon="2.546240">
        <ele>425.890</ele>
        <time>2021-05-27T09:28:09Z</time>
      </trkpt>
      <trkpt lat="42.041370" lon="2.546241">
        <ele>425.190</ele>
        <time>2021-05-27T09:28:11Z</time>
      </trkpt>
      <trkpt lat="42.041350" lon="2.546242">
        <ele>424.947</ele>
        <time>2021-05-27T09:28:12Z</time>
      </trkpt>
      <trkpt lat="42.041307" lon="2.546244">
        <ele>424.362</ele>
        <time>2021-05-27T09:28:14Z</time>
      </trkpt>
      <trkpt lat="42.041286" lon="2.546236">
        <ele>424.455</ele>
        <time>2021-05-27T09:28:15Z</time>
      </trkpt>
      <trkpt lat="42.041251" lon="2.546215">
        <ele>424.831</ele>
        <time>2021-05-27T09:28:17Z</time>
      </trkpt>
      <trkpt lat="42.041233" lon="2.546207">
        <ele>424.973</ele>
        <time>2021-05-27T09:28:18Z</time>
      </trkpt>
      <trkpt lat="42.041209" lon="2.546196">
        <ele>425.085</ele>
        <time>2021-05-27T09:28:19Z</time>
      </trkpt>
      <trkpt lat="42.041172" lon="2.546196">
        <ele>424.613</ele>
        <time>2021-05-27T09:28:21Z</time>
      </trkpt>
      <trkpt lat="42.041153" lon="2.546199">
        <ele>424.308</ele>
        <time>2021-05-27T09:28:23Z</time>
      </trkpt>
      <trkpt lat="42.041114" lon="2.546234">
        <ele>422.674</ele>
        <time>2021-05-27T09:28:24Z</time>
      </trkpt>
      <trkpt lat="42.041087" lon="2.546271">
        <ele>421.341</ele>
        <time>2021-05-27T09:28:26Z</time>
      </trkpt>
      <trkpt lat="42.041056" lon="2.546313">
        <ele>419.919</ele>
        <time>2021-05-27T09:28:28Z</time>
      </trkpt>
      <trkpt lat="42.041041" lon="2.546332">
        <ele>419.319</ele>
        <time>2021-05-27T09:28:30Z</time>
      </trkpt>
      <trkpt lat="42.041013" lon="2.546361">
        <ele>418.436</ele>
        <time>2021-05-27T09:28:31Z</time>
      </trkpt>
      <trkpt lat="42.040972" lon="2.546386">
        <ele>417.621</ele>
        <time>2021-05-27T09:28:33Z</time>
      </trkpt>
      <trkpt lat="42.040952" lon="2.546397">
        <ele>417.354</ele>
        <time>2021-05-27T09:28:34Z</time>
      </trkpt>
      <trkpt lat="42.040934" lon="2.546404">
        <ele>417.140</ele>
        <time>2021-05-27T09:28:36Z</time>
      </trkpt>
      <trkpt lat="42.040903" lon="2.546415">
        <ele>416.822</ele>
        <time>2021-05-27T09:28:38Z</time>
      </trkpt>
      <trkpt lat="42.040853" lon="2.546420">
        <ele>416.862</ele>
        <time>2021-05-27T09:28:39Z</time>
      </trkpt>
      <trkpt lat="42.040810" lon="2.546417">
        <ele>416.708</ele>
        <time>2021-05-27T09:28:41Z</time>
      </trkpt>
      <trkpt lat="42.040767" lon="2.546413">
        <ele>416.308</ele>
        <time>2021-05-27T09:28:43Z</time>
      </trkpt>
      <trkpt lat="42.040722" lon="2.546398">
        <ele>416.159</ele>
        <time>2021-05-27T09:28:45Z</time>
      </trkpt>
      <trkpt lat="42.040702" lon="2.546392">
        <ele>416.096</ele>
        <time>2021-05-27T09:28:47Z</time>
      </trkpt>
      <trkpt lat="42.040681" lon="2.546386">
        <ele>415.924</ele>
        <time>2021-05-27T09:28:48Z</time>
      </trkpt>
      <trkpt lat="42.040659" lon="2.546383">
        <ele>415.754</ele>
        <time>2021-05-27T09:28:49Z</time>
      </trkpt>
      <trkpt lat="42.040635" lon="2.546379">
        <ele>415.581</ele>
        <time>2021-05-27T09:28:50Z</time>
      </trkpt>
      <trkpt lat="42.040611" lon="2.546382">
        <ele>415.096</ele>
        <time>2021-05-27T09:28:51Z</time>
      </trkpt>
      <trkpt lat="42.040586" lon="2.546387">
        <ele>414.559</ele>
        <time>2021-05-27T09:28:52Z</time>
      </trkpt>
      <trkpt lat="42.040564" lon="2.546397">
        <ele>414.075</ele>
        <time>2021-05-27T09:28:53Z</time>
      </trkpt>
      <trkpt lat="42.040540" lon="2.546407">
        <ele>414.086</ele>
        <time>2021-05-27T09:28:54Z</time>
      </trkpt>
      <trkpt lat="42.040506" lon="2.546441">
        <ele>414.160</ele>
        <time>2021-05-27T09:28:55Z</time>
      </trkpt>
      <trkpt lat="42.040517" lon="2.546489">
        <ele>413.326</ele>
        <time>2021-05-27T09:28:57Z</time>
      </trkpt>
      <trkpt lat="42.040536" lon="2.546504">
        <ele>412.708</ele>
        <time>2021-05-27T09:28:59Z</time>
      </trkpt>
      <trkpt lat="42.040557" lon="2.546512">
        <ele>412.225</ele>
        <time>2021-05-27T09:29:00Z</time>
      </trkpt>
      <trkpt lat="42.040578" lon="2.546516">
        <ele>412.372</ele>
        <time>2021-05-27T09:29:01Z</time>
      </trkpt>
      <trkpt lat="42.040624" lon="2.546520">
        <ele>412.430</ele>
        <time>2021-05-27T09:29:02Z</time>
      </trkpt>
      <trkpt lat="42.040646" lon="2.546526">
        <ele>412.410</ele>
        <time>2021-05-27T09:29:03Z</time>
      </trkpt>
      <trkpt lat="42.040668" lon="2.546538">
        <ele>412.247</ele>
        <time>2021-05-27T09:29:04Z</time>
      </trkpt>
      <trkpt lat="42.040691" lon="2.546554">
        <ele>411.862</ele>
        <time>2021-05-27T09:29:05Z</time>
      </trkpt>
      <trkpt lat="42.040712" lon="2.546573">
        <ele>411.475</ele>
        <time>2021-05-27T09:29:06Z</time>
      </trkpt>
      <trkpt lat="42.040730" lon="2.546590">
        <ele>410.921</ele>
        <time>2021-05-27T09:29:07Z</time>
      </trkpt>
      <trkpt lat="42.040770" lon="2.546627">
        <ele>409.781</ele>
        <time>2021-05-27T09:29:09Z</time>
      </trkpt>
      <trkpt lat="42.040791" lon="2.546643">
        <ele>409.161</ele>
        <time>2021-05-27T09:29:11Z</time>
      </trkpt>
      <trkpt lat="42.040812" lon="2.546659">
        <ele>408.417</ele>
        <time>2021-05-27T09:29:12Z</time>
      </trkpt>
      <trkpt lat="42.040854" lon="2.546693">
        <ele>407.308</ele>
        <time>2021-05-27T09:29:13Z</time>
      </trkpt>
      <trkpt lat="42.040873" lon="2.546705">
        <ele>407.035</ele>
        <time>2021-05-27T09:29:14Z</time>
      </trkpt>
      <trkpt lat="42.040913" lon="2.546730">
        <ele>406.252</ele>
        <time>2021-05-27T09:29:16Z</time>
      </trkpt>
      <trkpt lat="42.040936" lon="2.546739">
        <ele>405.920</ele>
        <time>2021-05-27T09:29:17Z</time>
      </trkpt>
      <trkpt lat="42.040956" lon="2.546751">
        <ele>405.530</ele>
        <time>2021-05-27T09:29:18Z</time>
      </trkpt>
      <trkpt lat="42.040976" lon="2.546760">
        <ele>405.127</ele>
        <time>2021-05-27T09:29:19Z</time>
      </trkpt>
      <trkpt lat="42.040996" lon="2.546764">
        <ele>404.952</ele>
        <time>2021-05-27T09:29:20Z</time>
      </trkpt>
      <trkpt lat="42.041016" lon="2.546767">
        <ele>404.785</ele>
        <time>2021-05-27T09:29:21Z</time>
      </trkpt>
      <trkpt lat="42.041060" lon="2.546778">
        <ele>404.121</ele>
        <time>2021-05-27T09:29:23Z</time>
      </trkpt>
      <trkpt lat="42.041080" lon="2.546778">
        <ele>404.086</ele>
        <time>2021-05-27T09:29:24Z</time>
      </trkpt>
      <trkpt lat="42.041179" lon="2.546793">
        <ele>403.560</ele>
        <time>2021-05-27T09:29:30Z</time>
      </trkpt>
      <trkpt lat="42.041201" lon="2.546799">
        <ele>403.426</ele>
        <time>2021-05-27T09:29:31Z</time>
      </trkpt>
      <trkpt lat="42.041224" lon="2.546808">
        <ele>403.108</ele>
        <time>2021-05-27T09:29:32Z</time>
      </trkpt>
      <trkpt lat="42.041323" lon="2.546854">
        <ele>401.635</ele>
        <time>2021-05-27T09:29:35Z</time>
      </trkpt>
      <trkpt lat="42.041367" lon="2.546881">
        <ele>400.572</ele>
        <time>2021-05-27T09:29:37Z</time>
      </trkpt>
      <trkpt lat="42.041386" lon="2.546897">
        <ele>399.990</ele>
        <time>2021-05-27T09:29:38Z</time>
      </trkpt>
      <trkpt lat="42.041410" lon="2.546907">
        <ele>399.840</ele>
        <time>2021-05-27T09:29:39Z</time>
      </trkpt>
      <trkpt lat="42.041430" lon="2.546918">
        <ele>399.647</ele>
        <time>2021-05-27T09:29:40Z</time>
      </trkpt>
      <trkpt lat="42.041468" lon="2.546948">
        <ele>399.032</ele>
        <time>2021-05-27T09:29:42Z</time>
      </trkpt>
      <trkpt lat="42.041515" lon="2.546969">
        <ele>398.975</ele>
        <time>2021-05-27T09:29:44Z</time>
      </trkpt>
      <trkpt lat="42.041563" lon="2.546998">
        <ele>398.571</ele>
        <time>2021-05-27T09:29:46Z</time>
      </trkpt>
      <trkpt lat="42.041584" lon="2.547011">
        <ele>398.267</ele>
        <time>2021-05-27T09:29:47Z</time>
      </trkpt>
      <trkpt lat="42.041622" lon="2.547033">
        <ele>397.981</ele>
        <time>2021-05-27T09:29:49Z</time>
      </trkpt>
      <trkpt lat="42.041670" lon="2.547048">
        <ele>397.919</ele>
        <time>2021-05-27T09:29:51Z</time>
      </trkpt>
      <trkpt lat="42.041691" lon="2.547060">
        <ele>397.708</ele>
        <time>2021-05-27T09:29:53Z</time>
      </trkpt>
      <trkpt lat="42.041715" lon="2.547074">
        <ele>397.453</ele>
        <time>2021-05-27T09:29:54Z</time>
      </trkpt>
      <trkpt lat="42.041763" lon="2.547109">
        <ele>396.690</ele>
        <time>2021-05-27T09:29:55Z</time>
      </trkpt>
      <trkpt lat="42.041784" lon="2.547121">
        <ele>396.468</ele>
        <time>2021-05-27T09:29:56Z</time>
      </trkpt>
      <trkpt lat="42.041809" lon="2.547130">
        <ele>396.428</ele>
        <time>2021-05-27T09:29:57Z</time>
      </trkpt>
      <trkpt lat="42.041835" lon="2.547138">
        <ele>396.425</ele>
        <time>2021-05-27T09:29:59Z</time>
      </trkpt>
      <trkpt lat="42.041883" lon="2.547154">
        <ele>396.430</ele>
        <time>2021-05-27T09:30:00Z</time>
      </trkpt>
      <trkpt lat="42.041904" lon="2.547162">
        <ele>396.453</ele>
        <time>2021-05-27T09:30:01Z</time>
      </trkpt>
      <trkpt lat="42.041947" lon="2.547182">
        <ele>396.379</ele>
        <time>2021-05-27T09:30:03Z</time>
      </trkpt>
      <trkpt lat="42.041986" lon="2.547200">
        <ele>396.253</ele>
        <time>2021-05-27T09:30:05Z</time>
      </trkpt>
      <trkpt lat="42.042025" lon="2.547218">
        <ele>396.004</ele>
        <time>2021-05-27T09:30:07Z</time>
      </trkpt>
      <trkpt lat="42.042045" lon="2.547227">
        <ele>395.914</ele>
        <time>2021-05-27T09:30:08Z</time>
      </trkpt>
      <trkpt lat="42.042091" lon="2.547242">
        <ele>395.808</ele>
        <time>2021-05-27T09:30:10Z</time>
      </trkpt>
      <trkpt lat="42.042142" lon="2.547269">
        <ele>395.282</ele>
        <time>2021-05-27T09:30:12Z</time>
      </trkpt>
      <trkpt lat="42.042185" lon="2.547289">
        <ele>394.919</ele>
        <time>2021-05-27T09:30:14Z</time>
      </trkpt>
      <trkpt lat="42.042226" lon="2.547301">
        <ele>394.917</ele>
        <time>2021-05-27T09:30:16Z</time>
      </trkpt>
      <trkpt lat="42.042310" lon="2.547323">
        <ele>395.397</ele>
        <time>2021-05-27T09:30:20Z</time>
      </trkpt>
      <trkpt lat="42.042330" lon="2.547324">
        <ele>395.564</ele>
        <time>2021-05-27T09:30:21Z</time>
      </trkpt>
      <trkpt lat="42.042368" lon="2.547327">
        <ele>395.969</ele>
        <time>2021-05-27T09:30:23Z</time>
      </trkpt>
      <trkpt lat="42.042403" lon="2.547337">
        <ele>396.192</ele>
        <time>2021-05-27T09:30:25Z</time>
      </trkpt>
      <trkpt lat="42.042427" lon="2.547339">
        <ele>396.388</ele>
        <time>2021-05-27T09:30:26Z</time>
      </trkpt>
      <trkpt lat="42.042520" lon="2.547354">
        <ele>397.128</ele>
        <time>2021-05-27T09:30:30Z</time>
      </trkpt>
      <trkpt lat="42.042563" lon="2.547361">
        <ele>397.589</ele>
        <time>2021-05-27T09:30:32Z</time>
      </trkpt>
      <trkpt lat="42.042584" lon="2.547369">
        <ele>397.617</ele>
        <time>2021-05-27T09:30:33Z</time>
      </trkpt>
      <trkpt lat="42.042602" lon="2.547378">
        <ele>397.608</ele>
        <time>2021-05-27T09:30:35Z</time>
      </trkpt>
      <trkpt lat="42.042623" lon="2.547392">
        <ele>397.429</ele>
        <time>2021-05-27T09:30:36Z</time>
      </trkpt>
      <trkpt lat="42.042670" lon="2.547413">
        <ele>397.596</ele>
        <time>2021-05-27T09:30:37Z</time>
      </trkpt>
      <trkpt lat="42.042692" lon="2.547427">
        <ele>397.514</ele>
        <time>2021-05-27T09:30:38Z</time>
      </trkpt>
      <trkpt lat="42.042741" lon="2.547438">
        <ele>398.184</ele>
        <time>2021-05-27T09:30:40Z</time>
      </trkpt>
      <trkpt lat="42.042781" lon="2.547457">
        <ele>398.391</ele>
        <time>2021-05-27T09:30:42Z</time>
      </trkpt>
      <trkpt lat="42.042807" lon="2.547461">
        <ele>398.536</ele>
        <time>2021-05-27T09:30:44Z</time>
      </trkpt>
      <trkpt lat="42.042852" lon="2.547480">
        <ele>398.679</ele>
        <time>2021-05-27T09:30:45Z</time>
      </trkpt>
      <trkpt lat="42.042899" lon="2.547502">
        <ele>398.745</ele>
        <time>2021-05-27T09:30:47Z</time>
      </trkpt>
      <trkpt lat="42.042919" lon="2.547514">
        <ele>398.537</ele>
        <time>2021-05-27T09:30:48Z</time>
      </trkpt>
      <trkpt lat="42.042963" lon="2.547537">
        <ele>398.449</ele>
        <time>2021-05-27T09:30:50Z</time>
      </trkpt>
      <trkpt lat="42.043007" lon="2.547555">
        <ele>398.413</ele>
        <time>2021-05-27T09:30:52Z</time>
      </trkpt>
      <trkpt lat="42.043031" lon="2.547567">
        <ele>398.408</ele>
        <time>2021-05-27T09:30:54Z</time>
      </trkpt>
      <trkpt lat="42.043050" lon="2.547578">
        <ele>398.490</ele>
        <time>2021-05-27T09:30:55Z</time>
      </trkpt>
      <trkpt lat="42.043069" lon="2.547591">
        <ele>398.087</ele>
        <time>2021-05-27T09:30:56Z</time>
      </trkpt>
      <trkpt lat="42.043089" lon="2.547603">
        <ele>397.645</ele>
        <time>2021-05-27T09:30:57Z</time>
      </trkpt>
      <trkpt lat="42.043126" lon="2.547631">
        <ele>396.745</ele>
        <time>2021-05-27T09:30:58Z</time>
      </trkpt>
      <trkpt lat="42.043165" lon="2.547657">
        <ele>396.132</ele>
        <time>2021-05-27T09:31:00Z</time>
      </trkpt>
      <trkpt lat="42.043186" lon="2.547672">
        <ele>395.897</ele>
        <time>2021-05-27T09:31:02Z</time>
      </trkpt>
      <trkpt lat="42.043233" lon="2.547697">
        <ele>395.450</ele>
        <time>2021-05-27T09:31:03Z</time>
      </trkpt>
      <trkpt lat="42.043255" lon="2.547710">
        <ele>395.336</ele>
        <time>2021-05-27T09:31:05Z</time>
      </trkpt>
      <trkpt lat="42.043275" lon="2.547725">
        <ele>395.245</ele>
        <time>2021-05-27T09:31:06Z</time>
      </trkpt>
      <trkpt lat="42.043303" lon="2.547750">
        <ele>395.047</ele>
        <time>2021-05-27T09:31:07Z</time>
      </trkpt>
      <trkpt lat="42.043323" lon="2.547764">
        <ele>395.011</ele>
        <time>2021-05-27T09:31:08Z</time>
      </trkpt>
      <trkpt lat="42.043365" lon="2.547786">
        <ele>394.008</ele>
        <time>2021-05-27T09:31:10Z</time>
      </trkpt>
      <trkpt lat="42.043403" lon="2.547811">
        <ele>392.691</ele>
        <time>2021-05-27T09:31:12Z</time>
      </trkpt>
      <trkpt lat="42.043426" lon="2.547822">
        <ele>392.098</ele>
        <time>2021-05-27T09:31:14Z</time>
      </trkpt>
      <trkpt lat="42.043446" lon="2.547836">
        <ele>391.466</ele>
        <time>2021-05-27T09:31:15Z</time>
      </trkpt>
      <trkpt lat="42.043471" lon="2.547848">
        <ele>390.816</ele>
        <time>2021-05-27T09:31:16Z</time>
      </trkpt>
      <trkpt lat="42.043515" lon="2.547868">
        <ele>389.863</ele>
        <time>2021-05-27T09:31:17Z</time>
      </trkpt>
      <trkpt lat="42.043533" lon="2.547887">
        <ele>389.598</ele>
        <time>2021-05-27T09:31:18Z</time>
      </trkpt>
      <trkpt lat="42.043546" lon="2.547909">
        <ele>389.211</ele>
        <time>2021-05-27T09:31:19Z</time>
      </trkpt>
      <trkpt lat="42.043567" lon="2.547963">
        <ele>388.977</ele>
        <time>2021-05-27T09:31:21Z</time>
      </trkpt>
      <trkpt lat="42.043580" lon="2.548014">
        <ele>388.994</ele>
        <time>2021-05-27T09:31:23Z</time>
      </trkpt>
      <trkpt lat="42.043590" lon="2.548070">
        <ele>388.757</ele>
        <time>2021-05-27T09:31:25Z</time>
      </trkpt>
      <trkpt lat="42.043603" lon="2.548123">
        <ele>388.022</ele>
        <time>2021-05-27T09:31:27Z</time>
      </trkpt>
      <trkpt lat="42.043614" lon="2.548150">
        <ele>387.608</ele>
        <time>2021-05-27T09:31:28Z</time>
      </trkpt>
      <trkpt lat="42.043628" lon="2.548177">
        <ele>387.016</ele>
        <time>2021-05-27T09:31:30Z</time>
      </trkpt>
      <trkpt lat="42.043642" lon="2.548202">
        <ele>386.493</ele>
        <time>2021-05-27T09:31:31Z</time>
      </trkpt>
      <trkpt lat="42.043655" lon="2.548228">
        <ele>385.991</ele>
        <time>2021-05-27T09:31:32Z</time>
      </trkpt>
      <trkpt lat="42.043666" lon="2.548254">
        <ele>385.641</ele>
        <time>2021-05-27T09:31:33Z</time>
      </trkpt>
      <trkpt lat="42.043691" lon="2.548304">
        <ele>384.948</ele>
        <time>2021-05-27T09:31:34Z</time>
      </trkpt>
      <trkpt lat="42.043709" lon="2.548325">
        <ele>384.713</ele>
        <time>2021-05-27T09:31:35Z</time>
      </trkpt>
      <trkpt lat="42.043749" lon="2.548363">
        <ele>383.916</ele>
        <time>2021-05-27T09:31:37Z</time>
      </trkpt>
      <trkpt lat="42.043768" lon="2.548385">
        <ele>383.452</ele>
        <time>2021-05-27T09:31:38Z</time>
      </trkpt>
      <trkpt lat="42.043785" lon="2.548409">
        <ele>382.949</ele>
        <time>2021-05-27T09:31:39Z</time>
      </trkpt>
      <trkpt lat="42.043801" lon="2.548428">
        <ele>382.502</ele>
        <time>2021-05-27T09:31:40Z</time>
      </trkpt>
      <trkpt lat="42.043818" lon="2.548445">
        <ele>382.222</ele>
        <time>2021-05-27T09:31:41Z</time>
      </trkpt>
      <trkpt lat="42.043833" lon="2.548462">
        <ele>382.008</ele>
        <time>2021-05-27T09:31:42Z</time>
      </trkpt>
      <trkpt lat="42.043851" lon="2.548475">
        <ele>381.851</ele>
        <time>2021-05-27T09:31:43Z</time>
      </trkpt>
      <trkpt lat="42.043870" lon="2.548487">
        <ele>381.778</ele>
        <time>2021-05-27T09:31:44Z</time>
      </trkpt>
      <trkpt lat="42.043889" lon="2.548498">
        <ele>381.616</ele>
        <time>2021-05-27T09:31:45Z</time>
      </trkpt>
      <trkpt lat="42.043910" lon="2.548509">
        <ele>380.916</ele>
        <time>2021-05-27T09:31:46Z</time>
      </trkpt>
      <trkpt lat="42.043930" lon="2.548511">
        <ele>380.253</ele>
        <time>2021-05-27T09:31:47Z</time>
      </trkpt>
      <trkpt lat="42.043951" lon="2.548507">
        <ele>379.728</ele>
        <time>2021-05-27T09:31:48Z</time>
      </trkpt>
      <trkpt lat="42.043970" lon="2.548496">
        <ele>379.311</ele>
        <time>2021-05-27T09:31:49Z</time>
      </trkpt>
      <trkpt lat="42.043989" lon="2.548477">
        <ele>378.957</ele>
        <time>2021-05-27T09:31:50Z</time>
      </trkpt>
      <trkpt lat="42.044003" lon="2.548451">
        <ele>378.791</ele>
        <time>2021-05-27T09:31:51Z</time>
      </trkpt>
      <trkpt lat="42.044016" lon="2.548424">
        <ele>378.681</ele>
        <time>2021-05-27T09:31:52Z</time>
      </trkpt>
      <trkpt lat="42.044023" lon="2.548396">
        <ele>378.619</ele>
        <time>2021-05-27T09:31:53Z</time>
      </trkpt>
      <trkpt lat="42.044023" lon="2.548367">
        <ele>378.908</ele>
        <time>2021-05-27T09:31:54Z</time>
      </trkpt>
      <trkpt lat="42.044017" lon="2.548335">
        <ele>379.496</ele>
        <time>2021-05-27T09:31:55Z</time>
      </trkpt>
      <trkpt lat="42.044007" lon="2.548305">
        <ele>379.393</ele>
        <time>2021-05-27T09:31:56Z</time>
      </trkpt>
      <trkpt lat="42.044000" lon="2.548275">
        <ele>379.081</ele>
        <time>2021-05-27T09:31:57Z</time>
      </trkpt>
      <trkpt lat="42.043992" lon="2.548244">
        <ele>378.821</ele>
        <time>2021-05-27T09:31:58Z</time>
      </trkpt>
      <trkpt lat="42.043979" lon="2.548220">
        <ele>379.048</ele>
        <time>2021-05-27T09:31:59Z</time>
      </trkpt>
      <trkpt lat="42.043967" lon="2.548196">
        <ele>379.153</ele>
        <time>2021-05-27T09:32:01Z</time>
      </trkpt>
      <trkpt lat="42.043953" lon="2.548175">
        <ele>379.576</ele>
        <time>2021-05-27T09:32:02Z</time>
      </trkpt>
      <trkpt lat="42.043938" lon="2.548151">
        <ele>379.852</ele>
        <time>2021-05-27T09:32:03Z</time>
      </trkpt>
      <trkpt lat="42.043924" lon="2.548128">
        <ele>380.186</ele>
        <time>2021-05-27T09:32:04Z</time>
      </trkpt>
      <trkpt lat="42.043896" lon="2.548060">
        <ele>380.760</ele>
        <time>2021-05-27T09:32:06Z</time>
      </trkpt>
      <trkpt lat="42.043884" lon="2.548037">
        <ele>380.526</ele>
        <time>2021-05-27T09:32:07Z</time>
      </trkpt>
      <trkpt lat="42.043873" lon="2.548008">
        <ele>380.008</ele>
        <time>2021-05-27T09:32:08Z</time>
      </trkpt>
      <trkpt lat="42.043861" lon="2.547982">
        <ele>379.635</ele>
        <time>2021-05-27T09:32:09Z</time>
      </trkpt>
      <trkpt lat="42.043852" lon="2.547952">
        <ele>379.182</ele>
        <time>2021-05-27T09:32:10Z</time>
      </trkpt>
      <trkpt lat="42.043845" lon="2.547926">
        <ele>378.730</ele>
        <time>2021-05-27T09:32:11Z</time>
      </trkpt>
      <trkpt lat="42.043837" lon="2.547896">
        <ele>378.290</ele>
        <time>2021-05-27T09:32:12Z</time>
      </trkpt>
      <trkpt lat="42.043832" lon="2.547866">
        <ele>377.697</ele>
        <time>2021-05-27T09:32:13Z</time>
      </trkpt>
      <trkpt lat="42.043825" lon="2.547836">
        <ele>377.232</ele>
        <time>2021-05-27T09:32:14Z</time>
      </trkpt>
      <trkpt lat="42.043817" lon="2.547807">
        <ele>376.915</ele>
        <time>2021-05-27T09:32:15Z</time>
      </trkpt>
      <trkpt lat="42.043811" lon="2.547781">
        <ele>376.631</ele>
        <time>2021-05-27T09:32:16Z</time>
      </trkpt>
      <trkpt lat="42.043804" lon="2.547752">
        <ele>376.191</ele>
        <time>2021-05-27T09:32:17Z</time>
      </trkpt>
      <trkpt lat="42.043794" lon="2.547723">
        <ele>375.981</ele>
        <time>2021-05-27T09:32:18Z</time>
      </trkpt>
      <trkpt lat="42.043783" lon="2.547694">
        <ele>375.719</ele>
        <time>2021-05-27T09:32:19Z</time>
      </trkpt>
      <trkpt lat="42.043774" lon="2.547667">
        <ele>375.408</ele>
        <time>2021-05-27T09:32:20Z</time>
      </trkpt>
      <trkpt lat="42.043758" lon="2.547641">
        <ele>375.656</ele>
        <time>2021-05-27T09:32:21Z</time>
      </trkpt>
      <trkpt lat="42.043749" lon="2.547620">
        <ele>375.533</ele>
        <time>2021-05-27T09:32:22Z</time>
      </trkpt>
      <trkpt lat="42.043740" lon="2.547595">
        <ele>375.381</ele>
        <time>2021-05-27T09:32:23Z</time>
      </trkpt>
      <trkpt lat="42.043724" lon="2.547543">
        <ele>374.781</ele>
        <time>2021-05-27T09:32:25Z</time>
      </trkpt>
      <trkpt lat="42.043716" lon="2.547486">
        <ele>373.898</ele>
        <time>2021-05-27T09:32:27Z</time>
      </trkpt>
      <trkpt lat="42.043708" lon="2.547431">
        <ele>373.573</ele>
        <time>2021-05-27T09:32:29Z</time>
      </trkpt>
      <trkpt lat="42.043701" lon="2.547376">
        <ele>373.256</ele>
        <time>2021-05-27T09:32:31Z</time>
      </trkpt>
      <trkpt lat="42.043696" lon="2.547318">
        <ele>372.782</ele>
        <time>2021-05-27T09:32:33Z</time>
      </trkpt>
      <trkpt lat="42.043699" lon="2.547289">
        <ele>372.212</ele>
        <time>2021-05-27T09:32:35Z</time>
      </trkpt>
      <trkpt lat="42.043706" lon="2.547241">
        <ele>371.132</ele>
        <time>2021-05-27T09:32:36Z</time>
      </trkpt>
      <trkpt lat="42.043704" lon="2.547195">
        <ele>370.905</ele>
        <time>2021-05-27T09:32:38Z</time>
      </trkpt>
      <trkpt lat="42.043707" lon="2.547047">
        <ele>370.608</ele>
        <time>2021-05-27T09:32:45Z</time>
      </trkpt>
      <trkpt lat="42.043715" lon="2.546921">
        <ele>369.738</ele>
        <time>2021-05-27T09:32:49Z</time>
      </trkpt>
      <trkpt lat="42.043715" lon="2.546799">
        <ele>369.045</ele>
        <time>2021-05-27T09:32:54Z</time>
      </trkpt>
      <trkpt lat="42.043753" lon="2.546654">
        <ele>365.253</ele>
        <time>2021-05-27T09:32:59Z</time>
      </trkpt>
      <trkpt lat="42.043797" lon="2.546539">
        <ele>361.283</ele>
        <time>2021-05-27T09:33:04Z</time>
      </trkpt>
      <trkpt lat="42.043841" lon="2.546421">
        <ele>357.030</ele>
        <time>2021-05-27T09:33:07Z</time>
      </trkpt>
      <trkpt lat="42.043852" lon="2.546292">
        <ele>356.475</ele>
        <time>2021-05-27T09:33:12Z</time>
      </trkpt>
      <trkpt lat="42.043866" lon="2.546140">
        <ele>356.378</ele>
        <time>2021-05-27T09:33:17Z</time>
      </trkpt>
      <trkpt lat="42.043930" lon="2.546028">
        <ele>356.594</ele>
        <time>2021-05-27T09:33:22Z</time>
      </trkpt>
      <trkpt lat="42.044022" lon="2.546027">
        <ele>358.448</ele>
        <time>2021-05-27T09:33:33Z</time>
      </trkpt>
      <trkpt lat="42.044041" lon="2.546057">
        <ele>358.261</ele>
        <time>2021-05-27T09:33:35Z</time>
      </trkpt>
      <trkpt lat="42.044060" lon="2.546083">
        <ele>358.017</ele>
        <time>2021-05-27T09:33:37Z</time>
      </trkpt>
      <trkpt lat="42.044073" lon="2.546106">
        <ele>357.808</ele>
        <time>2021-05-27T09:33:39Z</time>
      </trkpt>
      <trkpt lat="42.044084" lon="2.546127">
        <ele>357.511</ele>
        <time>2021-05-27T09:33:41Z</time>
      </trkpt>
      <trkpt lat="42.044107" lon="2.546146">
        <ele>357.318</ele>
        <time>2021-05-27T09:33:43Z</time>
      </trkpt>
      <trkpt lat="42.044132" lon="2.546163">
        <ele>357.186</ele>
        <time>2021-05-27T09:33:46Z</time>
      </trkpt>
      <trkpt lat="42.044151" lon="2.546177">
        <ele>357.036</ele>
        <time>2021-05-27T09:33:48Z</time>
      </trkpt>
      <trkpt lat="42.044172" lon="2.546193">
        <ele>356.953</ele>
        <time>2021-05-27T09:33:50Z</time>
      </trkpt>
      <trkpt lat="42.044192" lon="2.546213">
        <ele>357.118</ele>
        <time>2021-05-27T09:33:51Z</time>
      </trkpt>
      <trkpt lat="42.044214" lon="2.546229">
        <ele>357.561</ele>
        <time>2021-05-27T09:33:54Z</time>
      </trkpt>
      <trkpt lat="42.044230" lon="2.546241">
        <ele>357.897</ele>
        <time>2021-05-27T09:33:56Z</time>
      </trkpt>
      <trkpt lat="42.044250" lon="2.546256">
        <ele>358.117</ele>
        <time>2021-05-27T09:33:58Z</time>
      </trkpt>
      <trkpt lat="42.044270" lon="2.546269">
        <ele>358.587</ele>
        <time>2021-05-27T09:33:59Z</time>
      </trkpt>
      <trkpt lat="42.044286" lon="2.546286">
        <ele>358.615</ele>
        <time>2021-05-27T09:34:02Z</time>
      </trkpt>
      <trkpt lat="42.044306" lon="2.546310">
        <ele>358.608</ele>
        <time>2021-05-27T09:34:04Z</time>
      </trkpt>
      <trkpt lat="42.044326" lon="2.546332">
        <ele>358.688</ele>
        <time>2021-05-27T09:34:06Z</time>
      </trkpt>
      <trkpt lat="42.044350" lon="2.546355">
        <ele>358.755</ele>
        <time>2021-05-27T09:34:08Z</time>
      </trkpt>
      <trkpt lat="42.044370" lon="2.546375">
        <ele>358.843</ele>
        <time>2021-05-27T09:34:09Z</time>
      </trkpt>
      <trkpt lat="42.044391" lon="2.546398">
        <ele>358.963</ele>
        <time>2021-05-27T09:34:11Z</time>
      </trkpt>
      <trkpt lat="42.044412" lon="2.546417">
        <ele>359.270</ele>
        <time>2021-05-27T09:34:13Z</time>
      </trkpt>
      <trkpt lat="42.044432" lon="2.546437">
        <ele>359.515</ele>
        <time>2021-05-27T09:34:15Z</time>
      </trkpt>
      <trkpt lat="42.044454" lon="2.546459">
        <ele>359.818</ele>
        <time>2021-05-27T09:34:17Z</time>
      </trkpt>
      <trkpt lat="42.044476" lon="2.546476">
        <ele>360.174</ele>
        <time>2021-05-27T09:34:19Z</time>
      </trkpt>
      <trkpt lat="42.044504" lon="2.546491">
        <ele>360.685</ele>
        <time>2021-05-27T09:34:21Z</time>
      </trkpt>
      <trkpt lat="42.044535" lon="2.546506">
        <ele>361.389</ele>
        <time>2021-05-27T09:34:23Z</time>
      </trkpt>
      <trkpt lat="42.044562" lon="2.546522">
        <ele>361.717</ele>
        <time>2021-05-27T09:34:25Z</time>
      </trkpt>
      <trkpt lat="42.044586" lon="2.546540">
        <ele>362.008</ele>
        <time>2021-05-27T09:34:27Z</time>
      </trkpt>
      <trkpt lat="42.044610" lon="2.546558">
        <ele>362.365</ele>
        <time>2021-05-27T09:34:30Z</time>
      </trkpt>
      <trkpt lat="42.044635" lon="2.546585">
        <ele>362.532</ele>
        <time>2021-05-27T09:34:31Z</time>
      </trkpt>
      <trkpt lat="42.044661" lon="2.546611">
        <ele>362.670</ele>
        <time>2021-05-27T09:34:33Z</time>
      </trkpt>
      <trkpt lat="42.044685" lon="2.546635">
        <ele>362.710</ele>
        <time>2021-05-27T09:34:35Z</time>
      </trkpt>
      <trkpt lat="42.044708" lon="2.546661">
        <ele>362.757</ele>
        <time>2021-05-27T09:34:37Z</time>
      </trkpt>
      <trkpt lat="42.044735" lon="2.546682">
        <ele>362.762</ele>
        <time>2021-05-27T09:34:39Z</time>
      </trkpt>
      <trkpt lat="42.044765" lon="2.546703">
        <ele>362.435</ele>
        <time>2021-05-27T09:34:41Z</time>
      </trkpt>
      <trkpt lat="42.044791" lon="2.546726">
        <ele>362.031</ele>
        <time>2021-05-27T09:34:44Z</time>
      </trkpt>
      <trkpt lat="42.044820" lon="2.546741">
        <ele>361.891</ele>
        <time>2021-05-27T09:34:46Z</time>
      </trkpt>
      <trkpt lat="42.044849" lon="2.546753">
        <ele>361.781</ele>
        <time>2021-05-27T09:34:47Z</time>
      </trkpt>
      <trkpt lat="42.044876" lon="2.546761">
        <ele>361.819</ele>
        <time>2021-05-27T09:34:49Z</time>
      </trkpt>
      <trkpt lat="42.044903" lon="2.546770">
        <ele>361.708</ele>
        <time>2021-05-27T09:34:51Z</time>
      </trkpt>
      <trkpt lat="42.044930" lon="2.546781">
        <ele>361.656</ele>
        <time>2021-05-27T09:34:53Z</time>
      </trkpt>
      <trkpt lat="42.044955" lon="2.546788">
        <ele>361.763</ele>
        <time>2021-05-27T09:34:55Z</time>
      </trkpt>
      <trkpt lat="42.044983" lon="2.546796">
        <ele>361.751</ele>
        <time>2021-05-27T09:34:57Z</time>
      </trkpt>
      <trkpt lat="42.045019" lon="2.546809">
        <ele>361.331</ele>
        <time>2021-05-27T09:34:59Z</time>
      </trkpt>
      <trkpt lat="42.045044" lon="2.546813">
        <ele>361.158</ele>
        <time>2021-05-27T09:35:00Z</time>
      </trkpt>
      <trkpt lat="42.045070" lon="2.546808">
        <ele>361.113</ele>
        <time>2021-05-27T09:35:01Z</time>
      </trkpt>
      <trkpt lat="42.045108" lon="2.546771">
        <ele>361.686</ele>
        <time>2021-05-27T09:35:03Z</time>
      </trkpt>
      <trkpt lat="42.045119" lon="2.546746">
        <ele>362.062</ele>
        <time>2021-05-27T09:35:04Z</time>
      </trkpt>
      <trkpt lat="42.045128" lon="2.546723">
        <ele>362.336</ele>
        <time>2021-05-27T09:35:05Z</time>
      </trkpt>
      <trkpt lat="42.045149" lon="2.546700">
        <ele>362.317</ele>
        <time>2021-05-27T09:35:06Z</time>
      </trkpt>
      <trkpt lat="42.045160" lon="2.546675">
        <ele>362.418</ele>
        <time>2021-05-27T09:35:07Z</time>
      </trkpt>
      <trkpt lat="42.045173" lon="2.546646">
        <ele>362.308</ele>
        <time>2021-05-27T09:35:08Z</time>
      </trkpt>
      <trkpt lat="42.045186" lon="2.546622">
        <ele>361.990</ele>
        <time>2021-05-27T09:35:09Z</time>
      </trkpt>
      <trkpt lat="42.045196" lon="2.546597">
        <ele>361.697</ele>
        <time>2021-05-27T09:35:10Z</time>
      </trkpt>
      <trkpt lat="42.045207" lon="2.546574">
        <ele>361.315</ele>
        <time>2021-05-27T09:35:12Z</time>
      </trkpt>
      <trkpt lat="42.045217" lon="2.546550">
        <ele>360.955</ele>
        <time>2021-05-27T09:35:13Z</time>
      </trkpt>
      <trkpt lat="42.045225" lon="2.546524">
        <ele>360.642</ele>
        <time>2021-05-27T09:35:14Z</time>
      </trkpt>
      <trkpt lat="42.045257" lon="2.546483">
        <ele>359.457</ele>
        <time>2021-05-27T09:35:15Z</time>
      </trkpt>
      <trkpt lat="42.045272" lon="2.546466">
        <ele>358.840</ele>
        <time>2021-05-27T09:35:16Z</time>
      </trkpt>
      <trkpt lat="42.045285" lon="2.546419">
        <ele>358.186</ele>
        <time>2021-05-27T09:35:18Z</time>
      </trkpt>
      <trkpt lat="42.045285" lon="2.546391">
        <ele>357.924</ele>
        <time>2021-05-27T09:35:20Z</time>
      </trkpt>
      <trkpt lat="42.045284" lon="2.546361">
        <ele>357.804</ele>
        <time>2021-05-27T09:35:21Z</time>
      </trkpt>
      <trkpt lat="42.045294" lon="2.546224">
        <ele>357.514</ele>
        <time>2021-05-27T09:35:25Z</time>
      </trkpt>
      <trkpt lat="42.045379" lon="2.546153">
        <ele>358.208</ele>
        <time>2021-05-27T09:35:29Z</time>
      </trkpt>
      <trkpt lat="42.045471" lon="2.546189">
        <ele>358.789</ele>
        <time>2021-05-27T09:35:33Z</time>
      </trkpt>
      <trkpt lat="42.045509" lon="2.546221">
        <ele>358.446</ele>
        <time>2021-05-27T09:35:35Z</time>
      </trkpt>
      <trkpt lat="42.045525" lon="2.546242">
        <ele>358.164</ele>
        <time>2021-05-27T09:35:36Z</time>
      </trkpt>
      <trkpt lat="42.045537" lon="2.546266">
        <ele>357.694</ele>
        <time>2021-05-27T09:35:37Z</time>
      </trkpt>
      <trkpt lat="42.045546" lon="2.546294">
        <ele>357.121</ele>
        <time>2021-05-27T09:35:38Z</time>
      </trkpt>
      <trkpt lat="42.045557" lon="2.546321">
        <ele>356.516</ele>
        <time>2021-05-27T09:35:39Z</time>
      </trkpt>
      <trkpt lat="42.045576" lon="2.546376">
        <ele>355.819</ele>
        <time>2021-05-27T09:35:41Z</time>
      </trkpt>
      <trkpt lat="42.045588" lon="2.546405">
        <ele>355.595</ele>
        <time>2021-05-27T09:35:42Z</time>
      </trkpt>
      <trkpt lat="42.045598" lon="2.546440">
        <ele>354.944</ele>
        <time>2021-05-27T09:35:43Z</time>
      </trkpt>
      <trkpt lat="42.045608" lon="2.546468">
        <ele>354.505</ele>
        <time>2021-05-27T09:35:44Z</time>
      </trkpt>
      <trkpt lat="42.045620" lon="2.546491">
        <ele>354.215</ele>
        <time>2021-05-27T09:35:45Z</time>
      </trkpt>
      <trkpt lat="42.045633" lon="2.546517">
        <ele>353.908</ele>
        <time>2021-05-27T09:35:47Z</time>
      </trkpt>
      <trkpt lat="42.045647" lon="2.546536">
        <ele>353.831</ele>
        <time>2021-05-27T09:35:48Z</time>
      </trkpt>
      <trkpt lat="42.045682" lon="2.546576">
        <ele>353.548</ele>
        <time>2021-05-27T09:35:49Z</time>
      </trkpt>
      <trkpt lat="42.045704" lon="2.546594">
        <ele>353.536</ele>
        <time>2021-05-27T09:35:50Z</time>
      </trkpt>
      <trkpt lat="42.045726" lon="2.546612">
        <ele>353.556</ele>
        <time>2021-05-27T09:35:51Z</time>
      </trkpt>
      <trkpt lat="42.045748" lon="2.546628">
        <ele>353.583</ele>
        <time>2021-05-27T09:35:52Z</time>
      </trkpt>
      <trkpt lat="42.045770" lon="2.546637">
        <ele>353.788</ele>
        <time>2021-05-27T09:35:53Z</time>
      </trkpt>
      <trkpt lat="42.045793" lon="2.546643">
        <ele>353.981</ele>
        <time>2021-05-27T09:35:54Z</time>
      </trkpt>
      <trkpt lat="42.045819" lon="2.546654">
        <ele>354.197</ele>
        <time>2021-05-27T09:35:55Z</time>
      </trkpt>
      <trkpt lat="42.045843" lon="2.546667">
        <ele>354.152</ele>
        <time>2021-05-27T09:35:56Z</time>
      </trkpt>
      <trkpt lat="42.045870" lon="2.546676">
        <ele>354.153</ele>
        <time>2021-05-27T09:35:57Z</time>
      </trkpt>
      <trkpt lat="42.045895" lon="2.546679">
        <ele>354.408</ele>
        <time>2021-05-27T09:35:58Z</time>
      </trkpt>
      <trkpt lat="42.045946" lon="2.546685">
        <ele>354.808</ele>
        <time>2021-05-27T09:36:00Z</time>
      </trkpt>
      <trkpt lat="42.045991" lon="2.546695">
        <ele>355.142</ele>
        <time>2021-05-27T09:36:02Z</time>
      </trkpt>
      <trkpt lat="42.046014" lon="2.546702">
        <ele>355.359</ele>
        <time>2021-05-27T09:36:03Z</time>
      </trkpt>
      <trkpt lat="42.046039" lon="2.546710">
        <ele>355.417</ele>
        <time>2021-05-27T09:36:04Z</time>
      </trkpt>
      <trkpt lat="42.046062" lon="2.546719">
        <ele>355.647</ele>
        <time>2021-05-27T09:36:05Z</time>
      </trkpt>
      <trkpt lat="42.046085" lon="2.546727">
        <ele>355.844</ele>
        <time>2021-05-27T09:36:06Z</time>
      </trkpt>
      <trkpt lat="42.046105" lon="2.546733">
        <ele>356.029</ele>
        <time>2021-05-27T09:36:07Z</time>
      </trkpt>
      <trkpt lat="42.046126" lon="2.546739">
        <ele>356.022</ele>
        <time>2021-05-27T09:36:08Z</time>
      </trkpt>
      <trkpt lat="42.046146" lon="2.546746">
        <ele>355.938</ele>
        <time>2021-05-27T09:36:09Z</time>
      </trkpt>
      <trkpt lat="42.046166" lon="2.546749">
        <ele>355.977</ele>
        <time>2021-05-27T09:36:10Z</time>
      </trkpt>
      <trkpt lat="42.046184" lon="2.546754">
        <ele>355.961</ele>
        <time>2021-05-27T09:36:11Z</time>
      </trkpt>
      <trkpt lat="42.046205" lon="2.546757">
        <ele>355.927</ele>
        <time>2021-05-27T09:36:12Z</time>
      </trkpt>
      <trkpt lat="42.046227" lon="2.546760">
        <ele>355.908</ele>
        <time>2021-05-27T09:36:13Z</time>
      </trkpt>
      <trkpt lat="42.046258" lon="2.546759">
        <ele>356.044</ele>
        <time>2021-05-27T09:36:15Z</time>
      </trkpt>
      <trkpt lat="42.046279" lon="2.546761">
        <ele>356.111</ele>
        <time>2021-05-27T09:36:17Z</time>
      </trkpt>
      <trkpt lat="42.046300" lon="2.546764">
        <ele>356.119</ele>
        <time>2021-05-27T09:36:18Z</time>
      </trkpt>
      <trkpt lat="42.046342" lon="2.546764">
        <ele>356.239</ele>
        <time>2021-05-27T09:36:19Z</time>
      </trkpt>
      <trkpt lat="42.046361" lon="2.546760">
        <ele>356.356</ele>
        <time>2021-05-27T09:36:20Z</time>
      </trkpt>
      <trkpt lat="42.046380" lon="2.546755">
        <ele>356.371</ele>
        <time>2021-05-27T09:36:22Z</time>
      </trkpt>
      <trkpt lat="42.046431" lon="2.546745">
        <ele>355.774</ele>
        <time>2021-05-27T09:36:24Z</time>
      </trkpt>
      <trkpt lat="42.046450" lon="2.546732">
        <ele>355.570</ele>
        <time>2021-05-27T09:36:25Z</time>
      </trkpt>
      <trkpt lat="42.046467" lon="2.546713">
        <ele>355.373</ele>
        <time>2021-05-27T09:36:26Z</time>
      </trkpt>
      <trkpt lat="42.046484" lon="2.546696">
        <ele>355.185</ele>
        <time>2021-05-27T09:36:27Z</time>
      </trkpt>
      <trkpt lat="42.046499" lon="2.546681">
        <ele>354.913</ele>
        <time>2021-05-27T09:36:28Z</time>
      </trkpt>
      <trkpt lat="42.046514" lon="2.546666">
        <ele>354.808</ele>
        <time>2021-05-27T09:36:29Z</time>
      </trkpt>
      <trkpt lat="42.046527" lon="2.546649">
        <ele>354.634</ele>
        <time>2021-05-27T09:36:30Z</time>
      </trkpt>
      <trkpt lat="42.046542" lon="2.546631">
        <ele>354.541</ele>
        <time>2021-05-27T09:36:31Z</time>
      </trkpt>
      <trkpt lat="42.046558" lon="2.546616">
        <ele>354.489</ele>
        <time>2021-05-27T09:36:32Z</time>
      </trkpt>
      <trkpt lat="42.046589" lon="2.546590">
        <ele>354.169</ele>
        <time>2021-05-27T09:36:34Z</time>
      </trkpt>
      <trkpt lat="42.046619" lon="2.546574">
        <ele>353.766</ele>
        <time>2021-05-27T09:36:36Z</time>
      </trkpt>
      <trkpt lat="42.046738" lon="2.546593">
        <ele>353.081</ele>
        <time>2021-05-27T09:36:42Z</time>
      </trkpt>
      <trkpt lat="42.046846" lon="2.546648">
        <ele>351.954</ele>
        <time>2021-05-27T09:36:46Z</time>
      </trkpt>
      <trkpt lat="42.046898" lon="2.546676">
        <ele>351.040</ele>
        <time>2021-05-27T09:36:48Z</time>
      </trkpt>
      <trkpt lat="42.046923" lon="2.546687">
        <ele>350.793</ele>
        <time>2021-05-27T09:36:49Z</time>
      </trkpt>
      <trkpt lat="42.046947" lon="2.546696">
        <ele>350.565</ele>
        <time>2021-05-27T09:36:50Z</time>
      </trkpt>
      <trkpt lat="42.046975" lon="2.546707">
        <ele>350.421</ele>
        <time>2021-05-27T09:36:51Z</time>
      </trkpt>
      <trkpt lat="42.046996" lon="2.546716">
        <ele>350.408</ele>
        <time>2021-05-27T09:36:52Z</time>
      </trkpt>
      <trkpt lat="42.047033" lon="2.546730">
        <ele>350.296</ele>
        <time>2021-05-27T09:36:53Z</time>
      </trkpt>
      <trkpt lat="42.047077" lon="2.546742">
        <ele>350.193</ele>
        <time>2021-05-27T09:36:55Z</time>
      </trkpt>
      <trkpt lat="42.047102" lon="2.546748">
        <ele>350.041</ele>
        <time>2021-05-27T09:36:56Z</time>
      </trkpt>
      <trkpt lat="42.047151" lon="2.546763">
        <ele>349.751</ele>
        <time>2021-05-27T09:36:58Z</time>
      </trkpt>
      <trkpt lat="42.047177" lon="2.546765">
        <ele>349.768</ele>
        <time>2021-05-27T09:37:00Z</time>
      </trkpt>
      <trkpt lat="42.047197" lon="2.546766">
        <ele>349.733</ele>
        <time>2021-05-27T09:37:01Z</time>
      </trkpt>
      <trkpt lat="42.047236" lon="2.546760">
        <ele>349.996</ele>
        <time>2021-05-27T09:37:03Z</time>
      </trkpt>
      <trkpt lat="42.047334" lon="2.546729">
        <ele>350.162</ele>
        <time>2021-05-27T09:37:07Z</time>
      </trkpt>
      <trkpt lat="42.047355" lon="2.546722">
        <ele>350.257</ele>
        <time>2021-05-27T09:37:08Z</time>
      </trkpt>
      <trkpt lat="42.047460" lon="2.546686">
        <ele>350.600</ele>
        <time>2021-05-27T09:37:13Z</time>
      </trkpt>
      <trkpt lat="42.047554" lon="2.546679">
        <ele>350.420</ele>
        <time>2021-05-27T09:37:16Z</time>
      </trkpt>
      <trkpt lat="42.047653" lon="2.546674">
        <ele>350.208</ele>
        <time>2021-05-27T09:37:20Z</time>
      </trkpt>
      <trkpt lat="42.047748" lon="2.546668">
        <ele>350.142</ele>
        <time>2021-05-27T09:37:25Z</time>
      </trkpt>
      <trkpt lat="42.047848" lon="2.546691">
        <ele>348.969</ele>
        <time>2021-05-27T09:37:28Z</time>
      </trkpt>
      <trkpt lat="42.047910" lon="2.546695">
        <ele>348.497</ele>
        <time>2021-05-27T09:37:30Z</time>
      </trkpt>
      <trkpt lat="42.047941" lon="2.546692">
        <ele>348.457</ele>
        <time>2021-05-27T09:37:31Z</time>
      </trkpt>
      <trkpt lat="42.047968" lon="2.546692">
        <ele>348.264</ele>
        <time>2021-05-27T09:37:32Z</time>
      </trkpt>
      <trkpt lat="42.047997" lon="2.546689">
        <ele>348.279</ele>
        <time>2021-05-27T09:37:33Z</time>
      </trkpt>
      <trkpt lat="42.048050" lon="2.546671">
        <ele>348.852</ele>
        <time>2021-05-27T09:37:35Z</time>
      </trkpt>
      <trkpt lat="42.048093" lon="2.546641">
        <ele>348.228</ele>
        <time>2021-05-27T09:37:37Z</time>
      </trkpt>
      <trkpt lat="42.048109" lon="2.546619">
        <ele>348.089</ele>
        <time>2021-05-27T09:37:38Z</time>
      </trkpt>
      <trkpt lat="42.048120" lon="2.546595">
        <ele>347.906</ele>
        <time>2021-05-27T09:37:39Z</time>
      </trkpt>
      <trkpt lat="42.048129" lon="2.546569">
        <ele>347.826</ele>
        <time>2021-05-27T09:37:40Z</time>
      </trkpt>
      <trkpt lat="42.048134" lon="2.546541">
        <ele>347.908</ele>
        <time>2021-05-27T09:37:41Z</time>
      </trkpt>
      <trkpt lat="42.048129" lon="2.546511">
        <ele>348.485</ele>
        <time>2021-05-27T09:37:42Z</time>
      </trkpt>
      <trkpt lat="42.048123" lon="2.546482">
        <ele>348.912</ele>
        <time>2021-05-27T09:37:43Z</time>
      </trkpt>
      <trkpt lat="42.048115" lon="2.546456">
        <ele>349.570</ele>
        <time>2021-05-27T09:37:44Z</time>
      </trkpt>
      <trkpt lat="42.048107" lon="2.546427">
        <ele>350.290</ele>
        <time>2021-05-27T09:37:45Z</time>
      </trkpt>
      <trkpt lat="42.048099" lon="2.546396">
        <ele>350.997</ele>
        <time>2021-05-27T09:37:46Z</time>
      </trkpt>
      <trkpt lat="42.048088" lon="2.546370">
        <ele>351.242</ele>
        <time>2021-05-27T09:37:47Z</time>
      </trkpt>
      <trkpt lat="42.048081" lon="2.546346">
        <ele>351.285</ele>
        <time>2021-05-27T09:37:48Z</time>
      </trkpt>
      <trkpt lat="42.048073" lon="2.546325">
        <ele>351.331</ele>
        <time>2021-05-27T09:37:49Z</time>
      </trkpt>
      <trkpt lat="42.048066" lon="2.546298">
        <ele>351.299</ele>
        <time>2021-05-27T09:37:50Z</time>
      </trkpt>
      <trkpt lat="42.048054" lon="2.546272">
        <ele>351.407</ele>
        <time>2021-05-27T09:37:51Z</time>
      </trkpt>
      <trkpt lat="42.048045" lon="2.546249">
        <ele>351.427</ele>
        <time>2021-05-27T09:37:52Z</time>
      </trkpt>
      <trkpt lat="42.048026" lon="2.546204">
        <ele>351.508</ele>
        <time>2021-05-27T09:37:54Z</time>
      </trkpt>
      <trkpt lat="42.047985" lon="2.546091">
        <ele>352.336</ele>
        <time>2021-05-27T09:37:58Z</time>
      </trkpt>
      <trkpt lat="42.047950" lon="2.545942">
        <ele>352.193</ele>
        <time>2021-05-27T09:38:02Z</time>
      </trkpt>
      <trkpt lat="42.047908" lon="2.545829">
        <ele>352.991</ele>
        <time>2021-05-27T09:38:06Z</time>
      </trkpt>
      <trkpt lat="42.047872" lon="2.545723">
        <ele>352.871</ele>
        <time>2021-05-27T09:38:10Z</time>
      </trkpt>
      <trkpt lat="42.047858" lon="2.545643">
        <ele>352.028</ele>
        <time>2021-05-27T09:38:13Z</time>
      </trkpt>
      <trkpt lat="42.047850" lon="2.545616">
        <ele>351.873</ele>
        <time>2021-05-27T09:38:14Z</time>
      </trkpt>
      <trkpt lat="42.047842" lon="2.545588">
        <ele>351.696</ele>
        <time>2021-05-27T09:38:15Z</time>
      </trkpt>
      <trkpt lat="42.047832" lon="2.545561">
        <ele>351.622</ele>
        <time>2021-05-27T09:38:16Z</time>
      </trkpt>
      <trkpt lat="42.047779" lon="2.545434">
        <ele>352.215</ele>
        <time>2021-05-27T09:38:22Z</time>
      </trkpt>
      <trkpt lat="42.047741" lon="2.545304">
        <ele>351.965</ele>
        <time>2021-05-27T09:38:24Z</time>
      </trkpt>
      <trkpt lat="42.047744" lon="2.545181">
        <ele>352.311</ele>
        <time>2021-05-27T09:38:28Z</time>
      </trkpt>
      <trkpt lat="42.047791" lon="2.545057">
        <ele>352.208</ele>
        <time>2021-05-27T09:38:35Z</time>
      </trkpt>
      <trkpt lat="42.047875" lon="2.544976">
        <ele>352.558</ele>
        <time>2021-05-27T09:38:39Z</time>
      </trkpt>
      <trkpt lat="42.047988" lon="2.544962">
        <ele>351.435</ele>
        <time>2021-05-27T09:38:44Z</time>
      </trkpt>
      <trkpt lat="42.048093" lon="2.544957">
        <ele>350.423</ele>
        <time>2021-05-27T09:38:48Z</time>
      </trkpt>
      <trkpt lat="42.048190" lon="2.544942">
        <ele>350.623</ele>
        <time>2021-05-27T09:38:53Z</time>
      </trkpt>
      <trkpt lat="42.048288" lon="2.544953">
        <ele>349.930</ele>
        <time>2021-05-27T09:38:57Z</time>
      </trkpt>
      <trkpt lat="42.048387" lon="2.544972">
        <ele>348.435</ele>
        <time>2021-05-27T09:39:03Z</time>
      </trkpt>
      <trkpt lat="42.048480" lon="2.544930">
        <ele>348.468</ele>
        <time>2021-05-27T09:39:06Z</time>
      </trkpt>
      <trkpt lat="42.048496" lon="2.544908">
        <ele>348.854</ele>
        <time>2021-05-27T09:39:07Z</time>
      </trkpt>
      <trkpt lat="42.048514" lon="2.544889">
        <ele>349.061</ele>
        <time>2021-05-27T09:39:08Z</time>
      </trkpt>
      <trkpt lat="42.048525" lon="2.544866">
        <ele>349.421</ele>
        <time>2021-05-27T09:39:10Z</time>
      </trkpt>
      <trkpt lat="42.048540" lon="2.544824">
        <ele>350.213</ele>
        <time>2021-05-27T09:39:12Z</time>
      </trkpt>
      <trkpt lat="42.048549" lon="2.544776">
        <ele>351.208</ele>
        <time>2021-05-27T09:39:13Z</time>
      </trkpt>
      <trkpt lat="42.048558" lon="2.544733">
        <ele>352.183</ele>
        <time>2021-05-27T09:39:15Z</time>
      </trkpt>
      <trkpt lat="42.048564" lon="2.544706">
        <ele>352.360</ele>
        <time>2021-05-27T09:39:16Z</time>
      </trkpt>
      <trkpt lat="42.048578" lon="2.544642">
        <ele>352.228</ele>
        <time>2021-05-27T09:39:18Z</time>
      </trkpt>
      <trkpt lat="42.048588" lon="2.544610">
        <ele>352.158</ele>
        <time>2021-05-27T09:39:19Z</time>
      </trkpt>
      <trkpt lat="42.048591" lon="2.544579">
        <ele>352.135</ele>
        <time>2021-05-27T09:39:20Z</time>
      </trkpt>
      <trkpt lat="42.048582" lon="2.544441">
        <ele>353.110</ele>
        <time>2021-05-27T09:39:25Z</time>
      </trkpt>
      <trkpt lat="42.048660" lon="2.544362">
        <ele>352.073</ele>
        <time>2021-05-27T09:39:31Z</time>
      </trkpt>
      <trkpt lat="42.048755" lon="2.544382">
        <ele>350.679</ele>
        <time>2021-05-27T09:39:34Z</time>
      </trkpt>
      <trkpt lat="42.048825" lon="2.544419">
        <ele>348.874</ele>
        <time>2021-05-27T09:39:37Z</time>
      </trkpt>
      <trkpt lat="42.048842" lon="2.544433">
        <ele>348.156</ele>
        <time>2021-05-27T09:39:38Z</time>
      </trkpt>
      <trkpt lat="42.048859" lon="2.544444">
        <ele>347.621</ele>
        <time>2021-05-27T09:39:39Z</time>
      </trkpt>
      <trkpt lat="42.048878" lon="2.544454">
        <ele>347.008</ele>
        <time>2021-05-27T09:39:40Z</time>
      </trkpt>
      <trkpt lat="42.048896" lon="2.544469">
        <ele>346.584</ele>
        <time>2021-05-27T09:39:41Z</time>
      </trkpt>
      <trkpt lat="42.048913" lon="2.544484">
        <ele>346.391</ele>
        <time>2021-05-27T09:39:42Z</time>
      </trkpt>
      <trkpt lat="42.048934" lon="2.544506">
        <ele>345.989</ele>
        <time>2021-05-27T09:39:43Z</time>
      </trkpt>
      <trkpt lat="42.048959" lon="2.544522">
        <ele>345.759</ele>
        <time>2021-05-27T09:39:44Z</time>
      </trkpt>
      <trkpt lat="42.048978" lon="2.544537">
        <ele>345.556</ele>
        <time>2021-05-27T09:39:45Z</time>
      </trkpt>
      <trkpt lat="42.049000" lon="2.544547">
        <ele>345.591</ele>
        <time>2021-05-27T09:39:46Z</time>
      </trkpt>
      <trkpt lat="42.049020" lon="2.544555">
        <ele>345.534</ele>
        <time>2021-05-27T09:39:48Z</time>
      </trkpt>
      <trkpt lat="42.049060" lon="2.544561">
        <ele>345.610</ele>
        <time>2021-05-27T09:39:49Z</time>
      </trkpt>
      <trkpt lat="42.049079" lon="2.544554">
        <ele>345.949</ele>
        <time>2021-05-27T09:39:50Z</time>
      </trkpt>
      <trkpt lat="42.049097" lon="2.544550">
        <ele>346.002</ele>
        <time>2021-05-27T09:39:51Z</time>
      </trkpt>
      <trkpt lat="42.049122" lon="2.544546">
        <ele>346.322</ele>
        <time>2021-05-27T09:39:52Z</time>
      </trkpt>
      <trkpt lat="42.049146" lon="2.544537">
        <ele>346.508</ele>
        <time>2021-05-27T09:39:53Z</time>
      </trkpt>
      <trkpt lat="42.049166" lon="2.544526">
        <ele>346.861</ele>
        <time>2021-05-27T09:39:55Z</time>
      </trkpt>
      <trkpt lat="42.049190" lon="2.544497">
        <ele>346.648</ele>
        <time>2021-05-27T09:39:57Z</time>
      </trkpt>
      <trkpt lat="42.049203" lon="2.544475">
        <ele>346.436</ele>
        <time>2021-05-27T09:39:58Z</time>
      </trkpt>
      <trkpt lat="42.049214" lon="2.544420">
        <ele>346.716</ele>
        <time>2021-05-27T09:40:00Z</time>
      </trkpt>
      <trkpt lat="42.049217" lon="2.544389">
        <ele>346.893</ele>
        <time>2021-05-27T09:40:01Z</time>
      </trkpt>
      <trkpt lat="42.049228" lon="2.544332">
        <ele>346.868</ele>
        <time>2021-05-27T09:40:02Z</time>
      </trkpt>
      <trkpt lat="42.049231" lon="2.544307">
        <ele>346.851</ele>
        <time>2021-05-27T09:40:04Z</time>
      </trkpt>
      <trkpt lat="42.049223" lon="2.544264">
        <ele>347.547</ele>
        <time>2021-05-27T09:40:05Z</time>
      </trkpt>
      <trkpt lat="42.049222" lon="2.544203">
        <ele>347.929</ele>
        <time>2021-05-27T09:40:08Z</time>
      </trkpt>
      <trkpt lat="42.049212" lon="2.544151">
        <ele>348.700</ele>
        <time>2021-05-27T09:40:09Z</time>
      </trkpt>
      <trkpt lat="42.049218" lon="2.544020">
        <ele>348.020</ele>
        <time>2021-05-27T09:40:13Z</time>
      </trkpt>
      <trkpt lat="42.049228" lon="2.543888">
        <ele>347.108</ele>
        <time>2021-05-27T09:40:16Z</time>
      </trkpt>
      <trkpt lat="42.049265" lon="2.543739">
        <ele>345.429</ele>
        <time>2021-05-27T09:40:20Z</time>
      </trkpt>
      <trkpt lat="42.049274" lon="2.543614">
        <ele>345.126</ele>
        <time>2021-05-27T09:40:24Z</time>
      </trkpt>
      <trkpt lat="42.049259" lon="2.543490">
        <ele>345.584</ele>
        <time>2021-05-27T09:40:28Z</time>
      </trkpt>
      <trkpt lat="42.049288" lon="2.543355">
        <ele>344.854</ele>
        <time>2021-05-27T09:40:33Z</time>
      </trkpt>
      <trkpt lat="42.049392" lon="2.543392">
        <ele>342.581</ele>
        <time>2021-05-27T09:40:38Z</time>
      </trkpt>
      <trkpt lat="42.049446" lon="2.543455">
        <ele>340.786</ele>
        <time>2021-05-27T09:40:42Z</time>
      </trkpt>
      <trkpt lat="42.049543" lon="2.543499">
        <ele>342.419</ele>
        <time>2021-05-27T09:40:49Z</time>
      </trkpt>
      <trkpt lat="42.049599" lon="2.543543">
        <ele>342.965</ele>
        <time>2021-05-27T09:40:53Z</time>
      </trkpt>
      <trkpt lat="42.049628" lon="2.543559">
        <ele>343.213</ele>
        <time>2021-05-27T09:40:56Z</time>
      </trkpt>
      <trkpt lat="42.049654" lon="2.543584">
        <ele>343.343</ele>
        <time>2021-05-27T09:40:57Z</time>
      </trkpt>
      <trkpt lat="42.049673" lon="2.543607">
        <ele>343.207</ele>
        <time>2021-05-27T09:40:59Z</time>
      </trkpt>
      <trkpt lat="42.049695" lon="2.543623">
        <ele>343.308</ele>
        <time>2021-05-27T09:41:02Z</time>
      </trkpt>
      <trkpt lat="42.049721" lon="2.543644">
        <ele>343.518</ele>
        <time>2021-05-27T09:41:04Z</time>
      </trkpt>
      <trkpt lat="42.049743" lon="2.543677">
        <ele>343.415</ele>
        <time>2021-05-27T09:41:05Z</time>
      </trkpt>
      <trkpt lat="42.049766" lon="2.543704">
        <ele>343.413</ele>
        <time>2021-05-27T09:41:07Z</time>
      </trkpt>
      <trkpt lat="42.049785" lon="2.543730">
        <ele>343.363</ele>
        <time>2021-05-27T09:41:09Z</time>
      </trkpt>
      <trkpt lat="42.049804" lon="2.543763">
        <ele>342.950</ele>
        <time>2021-05-27T09:41:11Z</time>
      </trkpt>
      <trkpt lat="42.049823" lon="2.543794">
        <ele>342.675</ele>
        <time>2021-05-27T09:41:13Z</time>
      </trkpt>
      <trkpt lat="42.049849" lon="2.543830">
        <ele>342.188</ele>
        <time>2021-05-27T09:41:15Z</time>
      </trkpt>
      <trkpt lat="42.049862" lon="2.543848">
        <ele>341.964</ele>
        <time>2021-05-27T09:41:16Z</time>
      </trkpt>
      <trkpt lat="42.049887" lon="2.543879">
        <ele>341.418</ele>
        <time>2021-05-27T09:41:18Z</time>
      </trkpt>
      <trkpt lat="42.049920" lon="2.543905">
        <ele>341.298</ele>
        <time>2021-05-27T09:41:20Z</time>
      </trkpt>
      <trkpt lat="42.049938" lon="2.543916">
        <ele>341.217</ele>
        <time>2021-05-27T09:41:21Z</time>
      </trkpt>
      <trkpt lat="42.049955" lon="2.543929">
        <ele>341.108</ele>
        <time>2021-05-27T09:41:22Z</time>
      </trkpt>
      <trkpt lat="42.049974" lon="2.543943">
        <ele>341.198</ele>
        <time>2021-05-27T09:41:24Z</time>
      </trkpt>
      <trkpt lat="42.050063" lon="2.544017">
        <ele>340.595</ele>
        <time>2021-05-27T09:41:27Z</time>
      </trkpt>
      <trkpt lat="42.050154" lon="2.544055">
        <ele>340.463</ele>
        <time>2021-05-27T09:41:32Z</time>
      </trkpt>
      <trkpt lat="42.050241" lon="2.544117">
        <ele>339.753</ele>
        <time>2021-05-27T09:41:36Z</time>
      </trkpt>
      <trkpt lat="42.050329" lon="2.544174">
        <ele>339.650</ele>
        <time>2021-05-27T09:41:40Z</time>
      </trkpt>
      <trkpt lat="42.050402" lon="2.544246">
        <ele>339.765</ele>
        <time>2021-05-27T09:41:43Z</time>
      </trkpt>
      <trkpt lat="42.050424" lon="2.544265">
        <ele>339.798</ele>
        <time>2021-05-27T09:41:44Z</time>
      </trkpt>
      <trkpt lat="42.050441" lon="2.544282">
        <ele>339.664</ele>
        <time>2021-05-27T09:41:45Z</time>
      </trkpt>
      <trkpt lat="42.050458" lon="2.544300">
        <ele>339.586</ele>
        <time>2021-05-27T09:41:46Z</time>
      </trkpt>
      <trkpt lat="42.050476" lon="2.544320">
        <ele>339.460</ele>
        <time>2021-05-27T09:41:47Z</time>
      </trkpt>
      <trkpt lat="42.050531" lon="2.544382">
        <ele>338.926</ele>
        <time>2021-05-27T09:41:50Z</time>
      </trkpt>
      <trkpt lat="42.050546" lon="2.544410">
        <ele>338.508</ele>
        <time>2021-05-27T09:41:52Z</time>
      </trkpt>
      <trkpt lat="42.050559" lon="2.544433">
        <ele>338.225</ele>
        <time>2021-05-27T09:41:53Z</time>
      </trkpt>
      <trkpt lat="42.050565" lon="2.544458">
        <ele>338.092</ele>
        <time>2021-05-27T09:41:55Z</time>
      </trkpt>
      <trkpt lat="42.050567" lon="2.544489">
        <ele>337.640</ele>
        <time>2021-05-27T09:41:59Z</time>
      </trkpt>
      <trkpt lat="42.050589" lon="2.544531">
        <ele>337.430</ele>
        <time>2021-05-27T09:42:01Z</time>
      </trkpt>
      <trkpt lat="42.050622" lon="2.544569">
        <ele>337.257</ele>
        <time>2021-05-27T09:42:02Z</time>
      </trkpt>
      <trkpt lat="42.050637" lon="2.544588">
        <ele>337.062</ele>
        <time>2021-05-27T09:42:03Z</time>
      </trkpt>
      <trkpt lat="42.050653" lon="2.544607">
        <ele>336.935</ele>
        <time>2021-05-27T09:42:04Z</time>
      </trkpt>
      <trkpt lat="42.050681" lon="2.544645">
        <ele>336.571</ele>
        <time>2021-05-27T09:42:06Z</time>
      </trkpt>
      <trkpt lat="42.050697" lon="2.544664">
        <ele>336.451</ele>
        <time>2021-05-27T09:42:08Z</time>
      </trkpt>
      <trkpt lat="42.050772" lon="2.544766">
        <ele>335.501</ele>
        <time>2021-05-27T09:42:11Z</time>
      </trkpt>
      <trkpt lat="42.050836" lon="2.544811">
        <ele>335.411</ele>
        <time>2021-05-27T09:42:16Z</time>
      </trkpt>
      <trkpt lat="42.050849" lon="2.544784">
        <ele>335.708</ele>
        <time>2021-05-27T09:42:19Z</time>
      </trkpt>
      <trkpt lat="42.050851" lon="2.544756">
        <ele>335.982</ele>
        <time>2021-05-27T09:42:25Z</time>
      </trkpt>
      <trkpt lat="42.050838" lon="2.544728">
        <ele>336.059</ele>
        <time>2021-05-27T09:42:27Z</time>
      </trkpt>
      <trkpt lat="42.050820" lon="2.544691">
        <ele>336.577</ele>
        <time>2021-05-27T09:42:29Z</time>
      </trkpt>
      <trkpt lat="42.050822" lon="2.544661">
        <ele>337.057</ele>
        <time>2021-05-27T09:42:31Z</time>
      </trkpt>
      <trkpt lat="42.050838" lon="2.544640">
        <ele>337.544</ele>
        <time>2021-05-27T09:42:33Z</time>
      </trkpt>
      <trkpt lat="42.050855" lon="2.544613">
        <ele>337.949</ele>
        <time>2021-05-27T09:42:34Z</time>
      </trkpt>
      <trkpt lat="42.050877" lon="2.544592">
        <ele>338.212</ele>
        <time>2021-05-27T09:42:36Z</time>
      </trkpt>
      <trkpt lat="42.050902" lon="2.544573">
        <ele>338.418</ele>
        <time>2021-05-27T09:42:39Z</time>
      </trkpt>
      <trkpt lat="42.050922" lon="2.544551">
        <ele>338.593</ele>
        <time>2021-05-27T09:42:40Z</time>
      </trkpt>
      <trkpt lat="42.050951" lon="2.544524">
        <ele>338.665</ele>
        <time>2021-05-27T09:42:42Z</time>
      </trkpt>
      <trkpt lat="42.050967" lon="2.544510">
        <ele>338.621</ele>
        <time>2021-05-27T09:42:43Z</time>
      </trkpt>
      <trkpt lat="42.050994" lon="2.544485">
        <ele>338.508</ele>
        <time>2021-05-27T09:42:45Z</time>
      </trkpt>
      <trkpt lat="42.051024" lon="2.544459">
        <ele>338.216</ele>
        <time>2021-05-27T09:42:48Z</time>
      </trkpt>
      <trkpt lat="42.051059" lon="2.544427">
        <ele>338.073</ele>
        <time>2021-05-27T09:42:49Z</time>
      </trkpt>
      <trkpt lat="42.051075" lon="2.544410">
        <ele>338.031</ele>
        <time>2021-05-27T09:42:50Z</time>
      </trkpt>
      <trkpt lat="42.051094" lon="2.544389">
        <ele>338.151</ele>
        <time>2021-05-27T09:42:51Z</time>
      </trkpt>
      <trkpt lat="42.051108" lon="2.544373">
        <ele>338.178</ele>
        <time>2021-05-27T09:42:52Z</time>
      </trkpt>
      <trkpt lat="42.051139" lon="2.544346">
        <ele>338.413</ele>
        <time>2021-05-27T09:42:55Z</time>
      </trkpt>
      <trkpt lat="42.051157" lon="2.544327">
        <ele>338.636</ele>
        <time>2021-05-27T09:42:56Z</time>
      </trkpt>
      <trkpt lat="42.051173" lon="2.544310">
        <ele>338.852</ele>
        <time>2021-05-27T09:42:57Z</time>
      </trkpt>
      <trkpt lat="42.051208" lon="2.544273">
        <ele>339.239</ele>
        <time>2021-05-27T09:42:58Z</time>
      </trkpt>
      <trkpt lat="42.051224" lon="2.544258">
        <ele>339.301</ele>
        <time>2021-05-27T09:42:59Z</time>
      </trkpt>
      <trkpt lat="42.051239" lon="2.544241">
        <ele>339.421</ele>
        <time>2021-05-27T09:43:00Z</time>
      </trkpt>
      <trkpt lat="42.051253" lon="2.544222">
        <ele>339.508</ele>
        <time>2021-05-27T09:43:01Z</time>
      </trkpt>
      <trkpt lat="42.051278" lon="2.544190">
        <ele>339.660</ele>
        <time>2021-05-27T09:43:03Z</time>
      </trkpt>
      <trkpt lat="42.051303" lon="2.544161">
        <ele>339.777</ele>
        <time>2021-05-27T09:43:05Z</time>
      </trkpt>
      <trkpt lat="42.051390" lon="2.544079">
        <ele>339.915</ele>
        <time>2021-05-27T09:43:10Z</time>
      </trkpt>
      <trkpt lat="42.051408" lon="2.544061">
        <ele>340.185</ele>
        <time>2021-05-27T09:43:11Z</time>
      </trkpt>
      <trkpt lat="42.051426" lon="2.544043">
        <ele>340.222</ele>
        <time>2021-05-27T09:43:12Z</time>
      </trkpt>
      <trkpt lat="42.051487" lon="2.543986">
        <ele>340.557</ele>
        <time>2021-05-27T09:43:15Z</time>
      </trkpt>
      <trkpt lat="42.051505" lon="2.543965">
        <ele>340.610</ele>
        <time>2021-05-27T09:43:16Z</time>
      </trkpt>
      <trkpt lat="42.051519" lon="2.543946">
        <ele>340.616</ele>
        <time>2021-05-27T09:43:17Z</time>
      </trkpt>
      <trkpt lat="42.051535" lon="2.543929">
        <ele>340.735</ele>
        <time>2021-05-27T09:43:18Z</time>
      </trkpt>
      <trkpt lat="42.051562" lon="2.543894">
        <ele>340.786</ele>
        <time>2021-05-27T09:43:20Z</time>
      </trkpt>
      <trkpt lat="42.051577" lon="2.543876">
        <ele>340.814</ele>
        <time>2021-05-27T09:43:21Z</time>
      </trkpt>
      <trkpt lat="42.051597" lon="2.543859">
        <ele>340.808</ele>
        <time>2021-05-27T09:43:22Z</time>
      </trkpt>
      <trkpt lat="42.051613" lon="2.543841">
        <ele>340.820</ele>
        <time>2021-05-27T09:43:23Z</time>
      </trkpt>
      <trkpt lat="42.051634" lon="2.543824">
        <ele>340.867</ele>
        <time>2021-05-27T09:43:24Z</time>
      </trkpt>
      <trkpt lat="42.051651" lon="2.543807">
        <ele>340.785</ele>
        <time>2021-05-27T09:43:26Z</time>
      </trkpt>
      <trkpt lat="42.051740" lon="2.543736">
        <ele>340.885</ele>
        <time>2021-05-27T09:43:30Z</time>
      </trkpt>
      <trkpt lat="42.051818" lon="2.543664">
        <ele>340.772</ele>
        <time>2021-05-27T09:43:34Z</time>
      </trkpt>
      <trkpt lat="42.051853" lon="2.543626">
        <ele>340.627</ele>
        <time>2021-05-27T09:43:36Z</time>
      </trkpt>
      <trkpt lat="42.051888" lon="2.543588">
        <ele>340.640</ele>
        <time>2021-05-27T09:43:37Z</time>
      </trkpt>
      <trkpt lat="42.051920" lon="2.543555">
        <ele>340.666</ele>
        <time>2021-05-27T09:43:39Z</time>
      </trkpt>
      <trkpt lat="42.051937" lon="2.543540">
        <ele>340.635</ele>
        <time>2021-05-27T09:43:40Z</time>
      </trkpt>
      <trkpt lat="42.051962" lon="2.543506">
        <ele>340.886</ele>
        <time>2021-05-27T09:43:42Z</time>
      </trkpt>
      <trkpt lat="42.051989" lon="2.543476">
        <ele>341.014</ele>
        <time>2021-05-27T09:43:44Z</time>
      </trkpt>
      <trkpt lat="42.052003" lon="2.543460">
        <ele>341.108</ele>
        <time>2021-05-27T09:43:45Z</time>
      </trkpt>
      <trkpt lat="42.052018" lon="2.543442">
        <ele>341.210</ele>
        <time>2021-05-27T09:43:46Z</time>
      </trkpt>
      <trkpt lat="42.052036" lon="2.543424">
        <ele>341.267</ele>
        <time>2021-05-27T09:43:47Z</time>
      </trkpt>
      <trkpt lat="42.052095" lon="2.543372">
        <ele>341.385</ele>
        <time>2021-05-27T09:43:50Z</time>
      </trkpt>
      <trkpt lat="42.052117" lon="2.543352">
        <ele>341.385</ele>
        <time>2021-05-27T09:43:51Z</time>
      </trkpt>
      <trkpt lat="42.052158" lon="2.543311">
        <ele>341.432</ele>
        <time>2021-05-27T09:43:53Z</time>
      </trkpt>
      <trkpt lat="42.052179" lon="2.543293">
        <ele>341.437</ele>
        <time>2021-05-27T09:43:54Z</time>
      </trkpt>
      <trkpt lat="42.052195" lon="2.543274">
        <ele>341.590</ele>
        <time>2021-05-27T09:43:55Z</time>
      </trkpt>
      <trkpt lat="42.052211" lon="2.543257">
        <ele>341.676</ele>
        <time>2021-05-27T09:43:56Z</time>
      </trkpt>
      <trkpt lat="42.052227" lon="2.543239">
        <ele>341.764</ele>
        <time>2021-05-27T09:43:57Z</time>
      </trkpt>
      <trkpt lat="42.052244" lon="2.543223">
        <ele>341.806</ele>
        <time>2021-05-27T09:43:58Z</time>
      </trkpt>
      <trkpt lat="42.052260" lon="2.543205">
        <ele>341.916</ele>
        <time>2021-05-27T09:43:59Z</time>
      </trkpt>
      <trkpt lat="42.052274" lon="2.543189">
        <ele>342.008</ele>
        <time>2021-05-27T09:44:00Z</time>
      </trkpt>
      <trkpt lat="42.052290" lon="2.543173">
        <ele>342.133</ele>
        <time>2021-05-27T09:44:01Z</time>
      </trkpt>
      <trkpt lat="42.052305" lon="2.543154">
        <ele>342.210</ele>
        <time>2021-05-27T09:44:02Z</time>
      </trkpt>
      <trkpt lat="42.052325" lon="2.543135">
        <ele>342.378</ele>
        <time>2021-05-27T09:44:03Z</time>
      </trkpt>
      <trkpt lat="42.052348" lon="2.543117">
        <ele>342.368</ele>
        <time>2021-05-27T09:44:04Z</time>
      </trkpt>
      <trkpt lat="42.052370" lon="2.543099">
        <ele>342.365</ele>
        <time>2021-05-27T09:44:05Z</time>
      </trkpt>
      <trkpt lat="42.052390" lon="2.543081">
        <ele>342.330</ele>
        <time>2021-05-27T09:44:06Z</time>
      </trkpt>
      <trkpt lat="42.052408" lon="2.543064">
        <ele>342.363</ele>
        <time>2021-05-27T09:44:07Z</time>
      </trkpt>
      <trkpt lat="42.052429" lon="2.543047">
        <ele>342.339</ele>
        <time>2021-05-27T09:44:08Z</time>
      </trkpt>
      <trkpt lat="42.052450" lon="2.543030">
        <ele>342.467</ele>
        <time>2021-05-27T09:44:09Z</time>
      </trkpt>
      <trkpt lat="42.052470" lon="2.543011">
        <ele>342.681</ele>
        <time>2021-05-27T09:44:10Z</time>
      </trkpt>
      <trkpt lat="42.052489" lon="2.542998">
        <ele>342.719</ele>
        <time>2021-05-27T09:44:11Z</time>
      </trkpt>
      <trkpt lat="42.052505" lon="2.542986">
        <ele>342.808</ele>
        <time>2021-05-27T09:44:12Z</time>
      </trkpt>
      <trkpt lat="42.052538" lon="2.542957">
        <ele>343.183</ele>
        <time>2021-05-27T09:44:14Z</time>
      </trkpt>
      <trkpt lat="42.052553" lon="2.542942">
        <ele>343.230</ele>
        <time>2021-05-27T09:44:15Z</time>
      </trkpt>
      <trkpt lat="42.052590" lon="2.542913">
        <ele>343.428</ele>
        <time>2021-05-27T09:44:17Z</time>
      </trkpt>
      <trkpt lat="42.052610" lon="2.542900">
        <ele>343.438</ele>
        <time>2021-05-27T09:44:18Z</time>
      </trkpt>
      <trkpt lat="42.052632" lon="2.542888">
        <ele>343.435</ele>
        <time>2021-05-27T09:44:19Z</time>
      </trkpt>
      <trkpt lat="42.052653" lon="2.542875">
        <ele>343.450</ele>
        <time>2021-05-27T09:44:20Z</time>
      </trkpt>
      <trkpt lat="42.052673" lon="2.542864">
        <ele>343.423</ele>
        <time>2021-05-27T09:44:22Z</time>
      </trkpt>
      <trkpt lat="42.052714" lon="2.542843">
        <ele>343.329</ele>
        <time>2021-05-27T09:44:23Z</time>
      </trkpt>
      <trkpt lat="42.052737" lon="2.542833">
        <ele>343.293</ele>
        <time>2021-05-27T09:44:24Z</time>
      </trkpt>
      <trkpt lat="42.052762" lon="2.542822">
        <ele>343.165</ele>
        <time>2021-05-27T09:44:25Z</time>
      </trkpt>
      <trkpt lat="42.052787" lon="2.542814">
        <ele>343.021</ele>
        <time>2021-05-27T09:44:26Z</time>
      </trkpt>
      <trkpt lat="42.052807" lon="2.542804">
        <ele>343.008</ele>
        <time>2021-05-27T09:44:27Z</time>
      </trkpt>
      <trkpt lat="42.052829" lon="2.542796">
        <ele>343.056</ele>
        <time>2021-05-27T09:44:28Z</time>
      </trkpt>
      <trkpt lat="42.052851" lon="2.542791">
        <ele>343.053</ele>
        <time>2021-05-27T09:44:30Z</time>
      </trkpt>
      <trkpt lat="42.052872" lon="2.542783">
        <ele>343.031</ele>
        <time>2021-05-27T09:44:31Z</time>
      </trkpt>
      <trkpt lat="42.052893" lon="2.542775">
        <ele>343.091</ele>
        <time>2021-05-27T09:44:32Z</time>
      </trkpt>
      <trkpt lat="42.052936" lon="2.542764">
        <ele>343.178</ele>
        <time>2021-05-27T09:44:33Z</time>
      </trkpt>
      <trkpt lat="42.052957" lon="2.542757">
        <ele>343.183</ele>
        <time>2021-05-27T09:44:34Z</time>
      </trkpt>
      <trkpt lat="42.052975" lon="2.542752">
        <ele>343.296</ele>
        <time>2021-05-27T09:44:36Z</time>
      </trkpt>
      <trkpt lat="42.053000" lon="2.542750">
        <ele>343.272</ele>
        <time>2021-05-27T09:44:37Z</time>
      </trkpt>
      <trkpt lat="42.053055" lon="2.542746">
        <ele>343.223</ele>
        <time>2021-05-27T09:44:38Z</time>
      </trkpt>
      <trkpt lat="42.053079" lon="2.542742">
        <ele>343.283</ele>
        <time>2021-05-27T09:44:39Z</time>
      </trkpt>
      <trkpt lat="42.053100" lon="2.542740">
        <ele>343.211</ele>
        <time>2021-05-27T09:44:40Z</time>
      </trkpt>
      <trkpt lat="42.053120" lon="2.542737">
        <ele>343.308</ele>
        <time>2021-05-27T09:44:41Z</time>
      </trkpt>
      <trkpt lat="42.053142" lon="2.542736">
        <ele>343.369</ele>
        <time>2021-05-27T09:44:42Z</time>
      </trkpt>
      <trkpt lat="42.053170" lon="2.542737">
        <ele>343.286</ele>
        <time>2021-05-27T09:44:44Z</time>
      </trkpt>
      <trkpt lat="42.053219" lon="2.542740">
        <ele>343.254</ele>
        <time>2021-05-27T09:44:45Z</time>
      </trkpt>
      <trkpt lat="42.053244" lon="2.542742">
        <ele>343.234</ele>
        <time>2021-05-27T09:44:46Z</time>
      </trkpt>
      <trkpt lat="42.053267" lon="2.542743">
        <ele>343.211</ele>
        <time>2021-05-27T09:44:47Z</time>
      </trkpt>
      <trkpt lat="42.053289" lon="2.542744">
        <ele>343.186</ele>
        <time>2021-05-27T09:44:48Z</time>
      </trkpt>
      <trkpt lat="42.053311" lon="2.542746">
        <ele>343.139</ele>
        <time>2021-05-27T09:44:49Z</time>
      </trkpt>
      <trkpt lat="42.053334" lon="2.542748">
        <ele>343.125</ele>
        <time>2021-05-27T09:44:50Z</time>
      </trkpt>
      <trkpt lat="42.053354" lon="2.542752">
        <ele>343.248</ele>
        <time>2021-05-27T09:44:51Z</time>
      </trkpt>
      <trkpt lat="42.053398" lon="2.542760">
        <ele>343.361</ele>
        <time>2021-05-27T09:44:53Z</time>
      </trkpt>
      <trkpt lat="42.053421" lon="2.542763">
        <ele>343.417</ele>
        <time>2021-05-27T09:44:54Z</time>
      </trkpt>
      <trkpt lat="42.053444" lon="2.542764">
        <ele>343.408</ele>
        <time>2021-05-27T09:44:55Z</time>
      </trkpt>
      <trkpt lat="42.053466" lon="2.542768">
        <ele>343.531</ele>
        <time>2021-05-27T09:44:56Z</time>
      </trkpt>
      <trkpt lat="42.053509" lon="2.542777">
        <ele>343.688</ele>
        <time>2021-05-27T09:44:58Z</time>
      </trkpt>
      <trkpt lat="42.053531" lon="2.542782">
        <ele>343.766</ele>
        <time>2021-05-27T09:44:59Z</time>
      </trkpt>
      <trkpt lat="42.053552" lon="2.542790">
        <ele>343.886</ele>
        <time>2021-05-27T09:45:01Z</time>
      </trkpt>
      <trkpt lat="42.053596" lon="2.542799">
        <ele>343.933</ele>
        <time>2021-05-27T09:45:02Z</time>
      </trkpt>
      <trkpt lat="42.053618" lon="2.542806">
        <ele>343.928</ele>
        <time>2021-05-27T09:45:03Z</time>
      </trkpt>
      <trkpt lat="42.053641" lon="2.542811">
        <ele>344.071</ele>
        <time>2021-05-27T09:45:04Z</time>
      </trkpt>
      <trkpt lat="42.053663" lon="2.542814">
        <ele>344.167</ele>
        <time>2021-05-27T09:45:06Z</time>
      </trkpt>
      <trkpt lat="42.053682" lon="2.542819">
        <ele>344.148</ele>
        <time>2021-05-27T09:45:07Z</time>
      </trkpt>
      <trkpt lat="42.053700" lon="2.542825">
        <ele>344.161</ele>
        <time>2021-05-27T09:45:08Z</time>
      </trkpt>
      <trkpt lat="42.053718" lon="2.542832">
        <ele>344.217</ele>
        <time>2021-05-27T09:45:09Z</time>
      </trkpt>
      <trkpt lat="42.053751" lon="2.542842">
        <ele>344.308</ele>
        <time>2021-05-27T09:45:10Z</time>
      </trkpt>
      <trkpt lat="42.053780" lon="2.542852">
        <ele>344.321</ele>
        <time>2021-05-27T09:45:13Z</time>
      </trkpt>
      <trkpt lat="42.053801" lon="2.542861">
        <ele>344.488</ele>
        <time>2021-05-27T09:45:14Z</time>
      </trkpt>
      <trkpt lat="42.053820" lon="2.542879">
        <ele>344.416</ele>
        <time>2021-05-27T09:45:16Z</time>
      </trkpt>
      <trkpt lat="42.053840" lon="2.542900">
        <ele>344.466</ele>
        <time>2021-05-27T09:45:19Z</time>
      </trkpt>
      <trkpt lat="42.053856" lon="2.542913">
        <ele>344.433</ele>
        <time>2021-05-27T09:45:20Z</time>
      </trkpt>
      <trkpt lat="42.053883" lon="2.542926">
        <ele>344.438</ele>
        <time>2021-05-27T09:45:21Z</time>
      </trkpt>
      <trkpt lat="42.053906" lon="2.542944">
        <ele>344.561</ele>
        <time>2021-05-27T09:45:23Z</time>
      </trkpt>
      <trkpt lat="42.053931" lon="2.542963">
        <ele>344.527</ele>
        <time>2021-05-27T09:45:26Z</time>
      </trkpt>
      <trkpt lat="42.053916" lon="2.542948">
        <ele>344.573</ele>
        <time>2021-05-27T09:45:30Z</time>
      </trkpt>
      <trkpt lat="42.053892" lon="2.542928">
        <ele>344.585</ele>
        <time>2021-05-27T09:45:32Z</time>
      </trkpt>
      <trkpt lat="42.053867" lon="2.542910">
        <ele>344.413</ele>
        <time>2021-05-27T09:45:33Z</time>
      </trkpt>
      <trkpt lat="42.053842" lon="2.542892">
        <ele>344.408</ele>
        <time>2021-05-27T09:45:35Z</time>
      </trkpt>
      <trkpt lat="42.053821" lon="2.542869">
        <ele>344.444</ele>
        <time>2021-05-27T09:45:37Z</time>
      </trkpt>
      <trkpt lat="42.053804" lon="2.542845">
        <ele>344.521</ele>
        <time>2021-05-27T09:45:40Z</time>
      </trkpt>
      <trkpt lat="42.053799" lon="2.542819">
        <ele>344.549</ele>
        <time>2021-05-27T09:45:41Z</time>
      </trkpt>
      <trkpt lat="42.053801" lon="2.542784">
        <ele>344.719</ele>
        <time>2021-05-27T09:45:44Z</time>
      </trkpt>
      <trkpt lat="42.053803" lon="2.542745">
        <ele>344.776</ele>
        <time>2021-05-27T09:45:46Z</time>
      </trkpt>
      <trkpt lat="42.053808" lon="2.542717">
        <ele>344.881</ele>
        <time>2021-05-27T09:45:47Z</time>
      </trkpt>
      <trkpt lat="42.053820" lon="2.542694">
        <ele>344.844</ele>
        <time>2021-05-27T09:45:50Z</time>
      </trkpt>
      <trkpt lat="42.053844" lon="2.542668">
        <ele>344.920</ele>
        <time>2021-05-27T09:45:51Z</time>
      </trkpt>
      <trkpt lat="42.053868" lon="2.542640">
        <ele>345.021</ele>
        <time>2021-05-27T09:45:53Z</time>
      </trkpt>
      <trkpt lat="42.053893" lon="2.542612">
        <ele>345.041</ele>
        <time>2021-05-27T09:45:55Z</time>
      </trkpt>
      <trkpt lat="42.053916" lon="2.542588">
        <ele>345.105</ele>
        <time>2021-05-27T09:45:58Z</time>
      </trkpt>
      <trkpt lat="42.053939" lon="2.542564">
        <ele>345.208</ele>
        <time>2021-05-27T09:46:00Z</time>
      </trkpt>
      <trkpt lat="42.053963" lon="2.542540">
        <ele>345.339</ele>
        <time>2021-05-27T09:46:01Z</time>
      </trkpt>
      <trkpt lat="42.053985" lon="2.542511">
        <ele>345.326</ele>
        <time>2021-05-27T09:46:04Z</time>
      </trkpt>
      <trkpt lat="42.054007" lon="2.542489">
        <ele>345.534</ele>
        <time>2021-05-27T09:46:05Z</time>
      </trkpt>
      <trkpt lat="42.054028" lon="2.542469">
        <ele>345.754</ele>
        <time>2021-05-27T09:46:07Z</time>
      </trkpt>
      <trkpt lat="42.054050" lon="2.542440">
        <ele>345.931</ele>
        <time>2021-05-27T09:46:09Z</time>
      </trkpt>
      <trkpt lat="42.054066" lon="2.542412">
        <ele>346.166</ele>
        <time>2021-05-27T09:46:11Z</time>
      </trkpt>
      <trkpt lat="42.054083" lon="2.542382">
        <ele>346.329</ele>
        <time>2021-05-27T09:46:14Z</time>
      </trkpt>
      <trkpt lat="42.054101" lon="2.542351">
        <ele>346.475</ele>
        <time>2021-05-27T09:46:15Z</time>
      </trkpt>
      <trkpt lat="42.054119" lon="2.542316">
        <ele>346.655</ele>
        <time>2021-05-27T09:46:17Z</time>
      </trkpt>
      <trkpt lat="42.054135" lon="2.542284">
        <ele>346.807</ele>
        <time>2021-05-27T09:46:19Z</time>
      </trkpt>
      <trkpt lat="42.054151" lon="2.542257">
        <ele>346.917</ele>
        <time>2021-05-27T09:46:21Z</time>
      </trkpt>
      <trkpt lat="42.054166" lon="2.542233">
        <ele>347.008</ele>
        <time>2021-05-27T09:46:24Z</time>
      </trkpt>
      <trkpt lat="42.054183" lon="2.542208">
        <ele>347.172</ele>
        <time>2021-05-27T09:46:26Z</time>
      </trkpt>
      <trkpt lat="42.054203" lon="2.542187">
        <ele>347.149</ele>
        <time>2021-05-27T09:46:27Z</time>
      </trkpt>
      <trkpt lat="42.054225" lon="2.542162">
        <ele>347.257</ele>
        <time>2021-05-27T09:46:29Z</time>
      </trkpt>
      <trkpt lat="42.054246" lon="2.542132">
        <ele>347.387</ele>
        <time>2021-05-27T09:46:31Z</time>
      </trkpt>
      <trkpt lat="42.054262" lon="2.542102">
        <ele>347.384</ele>
        <time>2021-05-27T09:46:33Z</time>
      </trkpt>
      <trkpt lat="42.054281" lon="2.542078">
        <ele>347.499</ele>
        <time>2021-05-27T09:46:35Z</time>
      </trkpt>
      <trkpt lat="42.054302" lon="2.542054">
        <ele>347.562</ele>
        <time>2021-05-27T09:46:37Z</time>
      </trkpt>
      <trkpt lat="42.054322" lon="2.542037">
        <ele>347.688</ele>
        <time>2021-05-27T09:46:39Z</time>
      </trkpt>
      <trkpt lat="42.054346" lon="2.542015">
        <ele>347.663</ele>
        <time>2021-05-27T09:46:41Z</time>
      </trkpt>
      <trkpt lat="42.054370" lon="2.541993">
        <ele>347.744</ele>
        <time>2021-05-27T09:46:43Z</time>
      </trkpt>
      <trkpt lat="42.054396" lon="2.541974">
        <ele>347.818</ele>
        <time>2021-05-27T09:46:46Z</time>
      </trkpt>
      <trkpt lat="42.054419" lon="2.541952">
        <ele>347.908</ele>
        <time>2021-05-27T09:46:48Z</time>
      </trkpt>
      <trkpt lat="42.054442" lon="2.541934">
        <ele>348.073</ele>
        <time>2021-05-27T09:46:50Z</time>
      </trkpt>
      <trkpt lat="42.054466" lon="2.541917">
        <ele>348.220</ele>
        <time>2021-05-27T09:46:52Z</time>
      </trkpt>
      <trkpt lat="42.054482" lon="2.541891">
        <ele>348.348</ele>
        <time>2021-05-27T09:46:54Z</time>
      </trkpt>
      <trkpt lat="42.054492" lon="2.541860">
        <ele>348.548</ele>
        <time>2021-05-27T09:46:56Z</time>
      </trkpt>
      <trkpt lat="42.054499" lon="2.541827">
        <ele>348.665</ele>
        <time>2021-05-27T09:46:58Z</time>
      </trkpt>
      <trkpt lat="42.054503" lon="2.541793">
        <ele>348.860</ele>
        <time>2021-05-27T09:46:59Z</time>
      </trkpt>
      <trkpt lat="42.054509" lon="2.541757">
        <ele>348.973</ele>
        <time>2021-05-27T09:47:02Z</time>
      </trkpt>
      <trkpt lat="42.054511" lon="2.541720">
        <ele>349.089</ele>
        <time>2021-05-27T09:47:04Z</time>
      </trkpt>
      <trkpt lat="42.054510" lon="2.541686">
        <ele>349.254</ele>
        <time>2021-05-27T09:47:05Z</time>
      </trkpt>
      <trkpt lat="42.054510" lon="2.541652">
        <ele>349.356</ele>
        <time>2021-05-27T09:47:08Z</time>
      </trkpt>
      <trkpt lat="42.054508" lon="2.541617">
        <ele>349.411</ele>
        <time>2021-05-27T09:47:09Z</time>
      </trkpt>
      <trkpt lat="42.054505" lon="2.541583">
        <ele>349.508</ele>
        <time>2021-05-27T09:47:11Z</time>
      </trkpt>
      <trkpt lat="42.054504" lon="2.541550">
        <ele>349.692</ele>
        <time>2021-05-27T09:47:13Z</time>
      </trkpt>
      <trkpt lat="42.054511" lon="2.541520">
        <ele>349.819</ele>
        <time>2021-05-27T09:47:15Z</time>
      </trkpt>
      <trkpt lat="42.054525" lon="2.541492">
        <ele>349.977</ele>
        <time>2021-05-27T09:47:17Z</time>
      </trkpt>
      <trkpt lat="42.054544" lon="2.541479">
        <ele>350.057</ele>
        <time>2021-05-27T09:47:19Z</time>
      </trkpt>
      <trkpt lat="42.054559" lon="2.541463">
        <ele>350.164</ele>
        <time>2021-05-27T09:47:23Z</time>
      </trkpt>
      <trkpt lat="42.054543" lon="2.541450">
        <ele>350.179</ele>
        <time>2021-05-27T09:47:24Z</time>
      </trkpt>
      <trkpt lat="42.054531" lon="2.541425">
        <ele>350.282</ele>
        <time>2021-05-27T09:47:26Z</time>
      </trkpt>
      <trkpt lat="42.054530" lon="2.541394">
        <ele>350.348</ele>
        <time>2021-05-27T09:47:28Z</time>
      </trkpt>
      <trkpt lat="42.054532" lon="2.541361">
        <ele>350.324</ele>
        <time>2021-05-27T09:47:30Z</time>
      </trkpt>
      <trkpt lat="42.054537" lon="2.541329">
        <ele>350.304</ele>
        <time>2021-05-27T09:47:32Z</time>
      </trkpt>
      <trkpt lat="42.054544" lon="2.541298">
        <ele>350.414</ele>
        <time>2021-05-27T09:47:34Z</time>
      </trkpt>
      <trkpt lat="42.054551" lon="2.541266">
        <ele>350.408</ele>
        <time>2021-05-27T09:47:36Z</time>
      </trkpt>
      <trkpt lat="42.054560" lon="2.541233">
        <ele>350.439</ele>
        <time>2021-05-27T09:47:38Z</time>
      </trkpt>
      <trkpt lat="42.054567" lon="2.541200">
        <ele>350.436</ele>
        <time>2021-05-27T09:47:40Z</time>
      </trkpt>
      <trkpt lat="42.054574" lon="2.541166">
        <ele>350.524</ele>
        <time>2021-05-27T09:47:43Z</time>
      </trkpt>
      <trkpt lat="42.054581" lon="2.541133">
        <ele>350.514</ele>
        <time>2021-05-27T09:47:45Z</time>
      </trkpt>
      <trkpt lat="42.054586" lon="2.541099">
        <ele>350.691</ele>
        <time>2021-05-27T09:47:46Z</time>
      </trkpt>
      <trkpt lat="42.054592" lon="2.541066">
        <ele>350.736</ele>
        <time>2021-05-27T09:47:48Z</time>
      </trkpt>
      <trkpt lat="42.054602" lon="2.541032">
        <ele>350.939</ele>
        <time>2021-05-27T09:47:50Z</time>
      </trkpt>
      <trkpt lat="42.054609" lon="2.540997">
        <ele>351.085</ele>
        <time>2021-05-27T09:47:52Z</time>
      </trkpt>
      <trkpt lat="42.054616" lon="2.540964">
        <ele>351.163</ele>
        <time>2021-05-27T09:47:55Z</time>
      </trkpt>
      <trkpt lat="42.054622" lon="2.540929">
        <ele>351.344</ele>
        <time>2021-05-27T09:47:56Z</time>
      </trkpt>
      <trkpt lat="42.054623" lon="2.540894">
        <ele>351.418</ele>
        <time>2021-05-27T09:47:58Z</time>
      </trkpt>
      <trkpt lat="42.054622" lon="2.540859">
        <ele>351.508</ele>
        <time>2021-05-27T09:48:00Z</time>
      </trkpt>
      <trkpt lat="42.054621" lon="2.540824">
        <ele>351.653</ele>
        <time>2021-05-27T09:48:02Z</time>
      </trkpt>
      <trkpt lat="42.054622" lon="2.540789">
        <ele>351.790</ele>
        <time>2021-05-27T09:48:04Z</time>
      </trkpt>
      <trkpt lat="42.054623" lon="2.540755">
        <ele>351.758</ele>
        <time>2021-05-27T09:48:06Z</time>
      </trkpt>
      <trkpt lat="42.054625" lon="2.540721">
        <ele>351.858</ele>
        <time>2021-05-27T09:48:08Z</time>
      </trkpt>
      <trkpt lat="42.054625" lon="2.540687">
        <ele>351.845</ele>
        <time>2021-05-27T09:48:11Z</time>
      </trkpt>
      <trkpt lat="42.054621" lon="2.540655">
        <ele>351.970</ele>
        <time>2021-05-27T09:48:13Z</time>
      </trkpt>
      <trkpt lat="42.054619" lon="2.540622">
        <ele>351.993</ele>
        <time>2021-05-27T09:48:15Z</time>
      </trkpt>
      <trkpt lat="42.054619" lon="2.540589">
        <ele>352.069</ele>
        <time>2021-05-27T09:48:17Z</time>
      </trkpt>
      <trkpt lat="42.054621" lon="2.540558">
        <ele>352.092</ele>
        <time>2021-05-27T09:48:19Z</time>
      </trkpt>
      <trkpt lat="42.054626" lon="2.540527">
        <ele>352.173</ele>
        <time>2021-05-27T09:48:21Z</time>
      </trkpt>
      <trkpt lat="42.054633" lon="2.540497">
        <ele>352.220</ele>
        <time>2021-05-27T09:48:22Z</time>
      </trkpt>
      <trkpt lat="42.054640" lon="2.540468">
        <ele>352.308</ele>
        <time>2021-05-27T09:48:25Z</time>
      </trkpt>
      <trkpt lat="42.054645" lon="2.540437">
        <ele>352.486</ele>
        <time>2021-05-27T09:48:26Z</time>
      </trkpt>
      <trkpt lat="42.054653" lon="2.540407">
        <ele>352.523</ele>
        <time>2021-05-27T09:48:29Z</time>
      </trkpt>
      <trkpt lat="42.054665" lon="2.540379">
        <ele>352.651</ele>
        <time>2021-05-27T09:48:30Z</time>
      </trkpt>
      <trkpt lat="42.054674" lon="2.540351">
        <ele>352.791</ele>
        <time>2021-05-27T09:48:32Z</time>
      </trkpt>
      <trkpt lat="42.054683" lon="2.540322">
        <ele>352.838</ele>
        <time>2021-05-27T09:48:34Z</time>
      </trkpt>
      <trkpt lat="42.054690" lon="2.540295">
        <ele>352.953</ele>
        <time>2021-05-27T09:48:36Z</time>
      </trkpt>
      <trkpt lat="42.054700" lon="2.540271">
        <ele>353.096</ele>
        <time>2021-05-27T09:48:38Z</time>
      </trkpt>
      <trkpt lat="42.054708" lon="2.540245">
        <ele>353.262</ele>
        <time>2021-05-27T09:48:40Z</time>
      </trkpt>
      <trkpt lat="42.054714" lon="2.540216">
        <ele>353.413</ele>
        <time>2021-05-27T09:48:43Z</time>
      </trkpt>
      <trkpt lat="42.054721" lon="2.540184">
        <ele>353.743</ele>
        <time>2021-05-27T09:48:45Z</time>
      </trkpt>
      <trkpt lat="42.054729" lon="2.540151">
        <ele>353.907</ele>
        <time>2021-05-27T09:48:46Z</time>
      </trkpt>
      <trkpt lat="42.054735" lon="2.540115">
        <ele>354.208</ele>
        <time>2021-05-27T09:48:49Z</time>
      </trkpt>
      <trkpt lat="42.054739" lon="2.540081">
        <ele>354.488</ele>
        <time>2021-05-27T09:48:50Z</time>
      </trkpt>
      <trkpt lat="42.054744" lon="2.540048">
        <ele>354.745</ele>
        <time>2021-05-27T09:48:53Z</time>
      </trkpt>
      <trkpt lat="42.054748" lon="2.540016">
        <ele>354.953</ele>
        <time>2021-05-27T09:48:54Z</time>
      </trkpt>
      <trkpt lat="42.054754" lon="2.539982">
        <ele>355.063</ele>
        <time>2021-05-27T09:48:56Z</time>
      </trkpt>
      <trkpt lat="42.054758" lon="2.539949">
        <ele>355.030</ele>
        <time>2021-05-27T09:48:59Z</time>
      </trkpt>
      <trkpt lat="42.054761" lon="2.539919">
        <ele>355.085</ele>
        <time>2021-05-27T09:49:00Z</time>
      </trkpt>
      <trkpt lat="42.054764" lon="2.539889">
        <ele>355.138</ele>
        <time>2021-05-27T09:49:02Z</time>
      </trkpt>
      <trkpt lat="42.054768" lon="2.539860">
        <ele>355.194</ele>
        <time>2021-05-27T09:49:04Z</time>
      </trkpt>
      <trkpt lat="42.054769" lon="2.539831">
        <ele>355.142</ele>
        <time>2021-05-27T09:49:06Z</time>
      </trkpt>
      <trkpt lat="42.054774" lon="2.539804">
        <ele>355.122</ele>
        <time>2021-05-27T09:49:08Z</time>
      </trkpt>
      <trkpt lat="42.054773" lon="2.539776">
        <ele>355.114</ele>
        <time>2021-05-27T09:49:10Z</time>
      </trkpt>
      <trkpt lat="42.054774" lon="2.539750">
        <ele>355.208</ele>
        <time>2021-05-27T09:49:12Z</time>
      </trkpt>
      <trkpt lat="42.054779" lon="2.539721">
        <ele>355.251</ele>
        <time>2021-05-27T09:49:14Z</time>
      </trkpt>
      <trkpt lat="42.054778" lon="2.539696">
        <ele>355.328</ele>
        <time>2021-05-27T09:49:16Z</time>
      </trkpt>
      <trkpt lat="42.054775" lon="2.539659">
        <ele>355.496</ele>
        <time>2021-05-27T09:49:20Z</time>
      </trkpt>
      <trkpt lat="42.054779" lon="2.539626">
        <ele>355.636</ele>
        <time>2021-05-27T09:49:22Z</time>
      </trkpt>
      <trkpt lat="42.054792" lon="2.539593">
        <ele>355.793</ele>
        <time>2021-05-27T09:49:24Z</time>
      </trkpt>
      <trkpt lat="42.054801" lon="2.539561">
        <ele>355.998</ele>
        <time>2021-05-27T09:49:26Z</time>
      </trkpt>
      <trkpt lat="42.054809" lon="2.539529">
        <ele>356.051</ele>
        <time>2021-05-27T09:49:27Z</time>
      </trkpt>
      <trkpt lat="42.054816" lon="2.539499">
        <ele>356.187</ele>
        <time>2021-05-27T09:49:30Z</time>
      </trkpt>
      <trkpt lat="42.054824" lon="2.539469">
        <ele>356.382</ele>
        <time>2021-05-27T09:49:31Z</time>
      </trkpt>
      <trkpt lat="42.054827" lon="2.539437">
        <ele>356.443</ele>
        <time>2021-05-27T09:49:33Z</time>
      </trkpt>
      <trkpt lat="42.054832" lon="2.539404">
        <ele>356.617</ele>
        <time>2021-05-27T09:49:35Z</time>
      </trkpt>
      <trkpt lat="42.054836" lon="2.539369">
        <ele>356.808</ele>
        <time>2021-05-27T09:49:37Z</time>
      </trkpt>
      <trkpt lat="42.054840" lon="2.539336">
        <ele>357.065</ele>
        <time>2021-05-27T09:49:40Z</time>
      </trkpt>
      <trkpt lat="42.054843" lon="2.539302">
        <ele>357.282</ele>
        <time>2021-05-27T09:49:42Z</time>
      </trkpt>
      <trkpt lat="42.054845" lon="2.539270">
        <ele>357.420</ele>
        <time>2021-05-27T09:49:44Z</time>
      </trkpt>
      <trkpt lat="42.054842" lon="2.539241">
        <ele>357.640</ele>
        <time>2021-05-27T09:49:46Z</time>
      </trkpt>
      <trkpt lat="42.054846" lon="2.539215">
        <ele>357.757</ele>
        <time>2021-05-27T09:49:48Z</time>
      </trkpt>
      <trkpt lat="42.054860" lon="2.539198">
        <ele>357.812</ele>
        <time>2021-05-27T09:49:50Z</time>
      </trkpt>
      <trkpt lat="42.054879" lon="2.539185">
        <ele>357.935</ele>
        <time>2021-05-27T09:49:52Z</time>
      </trkpt>
      <trkpt lat="42.054899" lon="2.539175">
        <ele>358.051</ele>
        <time>2021-05-27T09:49:54Z</time>
      </trkpt>
      <trkpt lat="42.054923" lon="2.539167">
        <ele>358.067</ele>
        <time>2021-05-27T09:49:56Z</time>
      </trkpt>
      <trkpt lat="42.054946" lon="2.539154">
        <ele>358.181</ele>
        <time>2021-05-27T09:49:57Z</time>
      </trkpt>
      <trkpt lat="42.054968" lon="2.539140">
        <ele>358.219</ele>
        <time>2021-05-27T09:49:59Z</time>
      </trkpt>
      <trkpt lat="42.054993" lon="2.539127">
        <ele>358.308</ele>
        <time>2021-05-27T09:50:01Z</time>
      </trkpt>
      <trkpt lat="42.055018" lon="2.539118">
        <ele>358.473</ele>
        <time>2021-05-27T09:50:03Z</time>
      </trkpt>
      <trkpt lat="42.055040" lon="2.539102">
        <ele>358.650</ele>
        <time>2021-05-27T09:50:05Z</time>
      </trkpt>
      <trkpt lat="42.055063" lon="2.539091">
        <ele>358.718</ele>
        <time>2021-05-27T09:50:07Z</time>
      </trkpt>
      <trkpt lat="42.055088" lon="2.539077">
        <ele>358.968</ele>
        <time>2021-05-27T09:50:09Z</time>
      </trkpt>
      <trkpt lat="42.055110" lon="2.539067">
        <ele>359.085</ele>
        <time>2021-05-27T09:50:12Z</time>
      </trkpt>
      <trkpt lat="42.055133" lon="2.539056">
        <ele>359.130</ele>
        <time>2021-05-27T09:50:14Z</time>
      </trkpt>
      <trkpt lat="42.055160" lon="2.539037">
        <ele>359.283</ele>
        <time>2021-05-27T09:50:15Z</time>
      </trkpt>
      <trkpt lat="42.055182" lon="2.539019">
        <ele>359.459</ele>
        <time>2021-05-27T09:50:17Z</time>
      </trkpt>
      <trkpt lat="42.055199" lon="2.538999">
        <ele>359.566</ele>
        <time>2021-05-27T09:50:19Z</time>
      </trkpt>
      <trkpt lat="42.055215" lon="2.538980">
        <ele>359.629</ele>
        <time>2021-05-27T09:50:21Z</time>
      </trkpt>
      <trkpt lat="42.055234" lon="2.538960">
        <ele>359.721</ele>
        <time>2021-05-27T09:50:23Z</time>
      </trkpt>
      <trkpt lat="42.055256" lon="2.538942">
        <ele>359.808</ele>
        <time>2021-05-27T09:50:25Z</time>
      </trkpt>
      <trkpt lat="42.055278" lon="2.538922">
        <ele>359.963</ele>
        <time>2021-05-27T09:50:27Z</time>
      </trkpt>
      <trkpt lat="42.055303" lon="2.538897">
        <ele>360.050</ele>
        <time>2021-05-27T09:50:29Z</time>
      </trkpt>
      <trkpt lat="42.055329" lon="2.538876">
        <ele>360.198</ele>
        <time>2021-05-27T09:50:31Z</time>
      </trkpt>
      <trkpt lat="42.055357" lon="2.538865">
        <ele>360.268</ele>
        <time>2021-05-27T09:50:34Z</time>
      </trkpt>
      <trkpt lat="42.055384" lon="2.538849">
        <ele>360.385</ele>
        <time>2021-05-27T09:50:35Z</time>
      </trkpt>
      <trkpt lat="42.055417" lon="2.538837">
        <ele>360.310</ele>
        <time>2021-05-27T09:50:37Z</time>
      </trkpt>
      <trkpt lat="42.055432" lon="2.538821">
        <ele>360.333</ele>
        <time>2021-05-27T09:50:38Z</time>
      </trkpt>
      <trkpt lat="42.055451" lon="2.538788">
        <ele>360.439</ele>
        <time>2021-05-27T09:50:40Z</time>
      </trkpt>
      <trkpt lat="42.055467" lon="2.538754">
        <ele>360.584</ele>
        <time>2021-05-27T09:50:42Z</time>
      </trkpt>
      <trkpt lat="42.055478" lon="2.538721">
        <ele>360.507</ele>
        <time>2021-05-27T09:50:44Z</time>
      </trkpt>
      <trkpt lat="42.055493" lon="2.538686">
        <ele>360.517</ele>
        <time>2021-05-27T09:50:47Z</time>
      </trkpt>
      <trkpt lat="42.055506" lon="2.538654">
        <ele>360.508</ele>
        <time>2021-05-27T09:50:49Z</time>
      </trkpt>
      <trkpt lat="42.055520" lon="2.538626">
        <ele>360.435</ele>
        <time>2021-05-27T09:50:51Z</time>
      </trkpt>
      <trkpt lat="42.055538" lon="2.538601">
        <ele>360.392</ele>
        <time>2021-05-27T09:50:53Z</time>
      </trkpt>
      <trkpt lat="42.055551" lon="2.538581">
        <ele>360.450</ele>
        <time>2021-05-27T09:50:55Z</time>
      </trkpt>
      <trkpt lat="42.055562" lon="2.538552">
        <ele>360.630</ele>
        <time>2021-05-27T09:50:57Z</time>
      </trkpt>
      <trkpt lat="42.055580" lon="2.538521">
        <ele>360.997</ele>
        <time>2021-05-27T09:50:58Z</time>
      </trkpt>
      <trkpt lat="42.055593" lon="2.538501">
        <ele>361.032</ele>
        <time>2021-05-27T09:51:00Z</time>
      </trkpt>
      <trkpt lat="42.055605" lon="2.538481">
        <ele>361.255</ele>
        <time>2021-05-27T09:51:01Z</time>
      </trkpt>
      <trkpt lat="42.055621" lon="2.538449">
        <ele>361.361</ele>
        <time>2021-05-27T09:51:03Z</time>
      </trkpt>
      <trkpt lat="42.055632" lon="2.538416">
        <ele>361.516</ele>
        <time>2021-05-27T09:51:05Z</time>
      </trkpt>
      <trkpt lat="42.055648" lon="2.538386">
        <ele>361.676</ele>
        <time>2021-05-27T09:51:07Z</time>
      </trkpt>
      <trkpt lat="42.055665" lon="2.538361">
        <ele>361.613</ele>
        <time>2021-05-27T09:51:09Z</time>
      </trkpt>
      <trkpt lat="42.055681" lon="2.538350">
        <ele>361.508</ele>
        <time>2021-05-27T09:51:11Z</time>
      </trkpt>
      <trkpt lat="42.055689" lon="2.538317">
        <ele>361.628</ele>
        <time>2021-05-27T09:51:14Z</time>
      </trkpt>
      <trkpt lat="42.055699" lon="2.538292">
        <ele>361.795</ele>
        <time>2021-05-27T09:51:16Z</time>
      </trkpt>
      <trkpt lat="42.055705" lon="2.538265">
        <ele>361.873</ele>
        <time>2021-05-27T09:51:18Z</time>
      </trkpt>
      <trkpt lat="42.055714" lon="2.538238">
        <ele>361.833</ele>
        <time>2021-05-27T09:51:20Z</time>
      </trkpt>
      <trkpt lat="42.055722" lon="2.538201">
        <ele>362.050</ele>
        <time>2021-05-27T09:51:21Z</time>
      </trkpt>
      <trkpt lat="42.055734" lon="2.538164">
        <ele>362.135</ele>
        <time>2021-05-27T09:51:24Z</time>
      </trkpt>
      <trkpt lat="42.055750" lon="2.538128">
        <ele>362.268</ele>
        <time>2021-05-27T09:51:26Z</time>
      </trkpt>
      <trkpt lat="42.055764" lon="2.538088">
        <ele>362.354</ele>
        <time>2021-05-27T09:51:28Z</time>
      </trkpt>
      <trkpt lat="42.055782" lon="2.538048">
        <ele>362.477</ele>
        <time>2021-05-27T09:51:29Z</time>
      </trkpt>
      <trkpt lat="42.055789" lon="2.538025">
        <ele>362.561</ele>
        <time>2021-05-27T09:51:31Z</time>
      </trkpt>
      <trkpt lat="42.055801" lon="2.538002">
        <ele>362.627</ele>
        <time>2021-05-27T09:51:32Z</time>
      </trkpt>
      <trkpt lat="42.055830" lon="2.537962">
        <ele>362.708</ele>
        <time>2021-05-27T09:51:33Z</time>
      </trkpt>
      <trkpt lat="42.055844" lon="2.537943">
        <ele>362.834</ele>
        <time>2021-05-27T09:51:34Z</time>
      </trkpt>
      <trkpt lat="42.055857" lon="2.537900">
        <ele>363.291</ele>
        <time>2021-05-27T09:51:36Z</time>
      </trkpt>
      <trkpt lat="42.055868" lon="2.537880">
        <ele>363.359</ele>
        <time>2021-05-27T09:51:41Z</time>
      </trkpt>
      <trkpt lat="42.055879" lon="2.537856">
        <ele>363.589</ele>
        <time>2021-05-27T09:51:43Z</time>
      </trkpt>
      <trkpt lat="42.055902" lon="2.537813">
        <ele>363.816</ele>
        <time>2021-05-27T09:51:45Z</time>
      </trkpt>
      <trkpt lat="42.055922" lon="2.537797">
        <ele>363.931</ele>
        <time>2021-05-27T09:51:48Z</time>
      </trkpt>
      <trkpt lat="42.055939" lon="2.537778">
        <ele>364.074</ele>
        <time>2021-05-27T09:51:50Z</time>
      </trkpt>
      <trkpt lat="42.055960" lon="2.537763">
        <ele>364.110</ele>
        <time>2021-05-27T09:51:55Z</time>
      </trkpt>
      <trkpt lat="42.055985" lon="2.537776">
        <ele>364.082</ele>
        <time>2021-05-27T09:51:59Z</time>
      </trkpt>
      <trkpt lat="42.056007" lon="2.537796">
        <ele>363.943</ele>
        <time>2021-05-27T09:52:01Z</time>
      </trkpt>
      <trkpt lat="42.056035" lon="2.537815">
        <ele>363.817</ele>
        <time>2021-05-27T09:52:03Z</time>
      </trkpt>
      <trkpt lat="42.056062" lon="2.537831">
        <ele>363.808</ele>
        <time>2021-05-27T09:52:04Z</time>
      </trkpt>
      <trkpt lat="42.056088" lon="2.537853">
        <ele>363.795</ele>
        <time>2021-05-27T09:52:07Z</time>
      </trkpt>
      <trkpt lat="42.056095" lon="2.537877">
        <ele>363.682</ele>
        <time>2021-05-27T09:52:09Z</time>
      </trkpt>
      <trkpt lat="42.056115" lon="2.537882">
        <ele>363.610</ele>
        <time>2021-05-27T09:53:31Z</time>
      </trkpt>
      <trkpt lat="42.056132" lon="2.537902">
        <ele>363.480</ele>
        <time>2021-05-27T09:53:33Z</time>
      </trkpt>
      <trkpt lat="42.056151" lon="2.537930">
        <ele>363.297</ele>
        <time>2021-05-27T09:53:34Z</time>
      </trkpt>
      <trkpt lat="42.056171" lon="2.537956">
        <ele>363.032</ele>
        <time>2021-05-27T09:53:37Z</time>
      </trkpt>
      <trkpt lat="42.056190" lon="2.537984">
        <ele>362.895</ele>
        <time>2021-05-27T09:53:39Z</time>
      </trkpt>
      <trkpt lat="42.056208" lon="2.538013">
        <ele>362.571</ele>
        <time>2021-05-27T09:53:41Z</time>
      </trkpt>
      <trkpt lat="42.056226" lon="2.538037">
        <ele>362.391</ele>
        <time>2021-05-27T09:53:43Z</time>
      </trkpt>
      <trkpt lat="42.056244" lon="2.538060">
        <ele>362.081</ele>
        <time>2021-05-27T09:53:45Z</time>
      </trkpt>
      <trkpt lat="42.056263" lon="2.538082">
        <ele>361.819</ele>
        <time>2021-05-27T09:53:47Z</time>
      </trkpt>
      <trkpt lat="42.056289" lon="2.538109">
        <ele>361.508</ele>
        <time>2021-05-27T09:53:49Z</time>
      </trkpt>
      <trkpt lat="42.056315" lon="2.538128">
        <ele>361.256</ele>
        <time>2021-05-27T09:53:50Z</time>
      </trkpt>
      <trkpt lat="42.056342" lon="2.538144">
        <ele>361.063</ele>
        <time>2021-05-27T09:53:53Z</time>
      </trkpt>
      <trkpt lat="42.056368" lon="2.538159">
        <ele>360.881</ele>
        <time>2021-05-27T09:53:55Z</time>
      </trkpt>
      <trkpt lat="42.056394" lon="2.538176">
        <ele>360.671</ele>
        <time>2021-05-27T09:53:57Z</time>
      </trkpt>
      <trkpt lat="42.056418" lon="2.538202">
        <ele>360.518</ele>
        <time>2021-05-27T09:53:59Z</time>
      </trkpt>
      <trkpt lat="42.056443" lon="2.538227">
        <ele>360.493</ele>
        <time>2021-05-27T09:54:01Z</time>
      </trkpt>
      <trkpt lat="42.056470" lon="2.538246">
        <ele>360.356</ele>
        <time>2021-05-27T09:54:03Z</time>
      </trkpt>
      <trkpt lat="42.056495" lon="2.538265">
        <ele>360.292</ele>
        <time>2021-05-27T09:54:05Z</time>
      </trkpt>
      <trkpt lat="42.056522" lon="2.538279">
        <ele>360.287</ele>
        <time>2021-05-27T09:54:07Z</time>
      </trkpt>
      <trkpt lat="42.056549" lon="2.538279">
        <ele>360.242</ele>
        <time>2021-05-27T09:54:09Z</time>
      </trkpt>
      <trkpt lat="42.056572" lon="2.538272">
        <ele>360.226</ele>
        <time>2021-05-27T09:54:11Z</time>
      </trkpt>
      <trkpt lat="42.056597" lon="2.538263">
        <ele>360.308</ele>
        <time>2021-05-27T09:54:13Z</time>
      </trkpt>
      <trkpt lat="42.056621" lon="2.538264">
        <ele>360.255</ele>
        <time>2021-05-27T09:54:15Z</time>
      </trkpt>
      <trkpt lat="42.056640" lon="2.538275">
        <ele>360.232</ele>
        <time>2021-05-27T09:54:17Z</time>
      </trkpt>
      <trkpt lat="42.056649" lon="2.538301">
        <ele>360.170</ele>
        <time>2021-05-27T09:54:19Z</time>
      </trkpt>
      <trkpt lat="42.056657" lon="2.538332">
        <ele>360.030</ele>
        <time>2021-05-27T09:54:21Z</time>
      </trkpt>
      <trkpt lat="42.056672" lon="2.538360">
        <ele>360.067</ele>
        <time>2021-05-27T09:54:23Z</time>
      </trkpt>
      <trkpt lat="42.056687" lon="2.538389">
        <ele>360.062</ele>
        <time>2021-05-27T09:54:25Z</time>
      </trkpt>
      <trkpt lat="42.056699" lon="2.538422">
        <ele>360.025</ele>
        <time>2021-05-27T09:54:27Z</time>
      </trkpt>
      <trkpt lat="42.056708" lon="2.538444">
        <ele>360.071</ele>
        <time>2021-05-27T09:54:28Z</time>
      </trkpt>
      <trkpt lat="42.056722" lon="2.538482">
        <ele>360.084</ele>
        <time>2021-05-27T09:54:30Z</time>
      </trkpt>
      <trkpt lat="42.056737" lon="2.538511">
        <ele>360.007</ele>
        <time>2021-05-27T09:54:32Z</time>
      </trkpt>
      <trkpt lat="42.056751" lon="2.538532">
        <ele>360.017</ele>
        <time>2021-05-27T09:54:34Z</time>
      </trkpt>
      <trkpt lat="42.056779" lon="2.538554">
        <ele>360.008</ele>
        <time>2021-05-27T09:54:37Z</time>
      </trkpt>
      <trkpt lat="42.056802" lon="2.538553">
        <ele>360.075</ele>
        <time>2021-05-27T09:54:39Z</time>
      </trkpt>
      <trkpt lat="42.056826" lon="2.538555">
        <ele>360.042</ele>
        <time>2021-05-27T09:54:41Z</time>
      </trkpt>
      <trkpt lat="42.056858" lon="2.538556">
        <ele>360.030</ele>
        <time>2021-05-27T09:54:43Z</time>
      </trkpt>
      <trkpt lat="42.056888" lon="2.538560">
        <ele>360.020</ele>
        <time>2021-05-27T09:54:45Z</time>
      </trkpt>
      <trkpt lat="42.056913" lon="2.538568">
        <ele>360.047</ele>
        <time>2021-05-27T09:54:47Z</time>
      </trkpt>
      <trkpt lat="42.056932" lon="2.538582">
        <ele>360.042</ele>
        <time>2021-05-27T09:54:49Z</time>
      </trkpt>
      <trkpt lat="42.056959" lon="2.538593">
        <ele>360.025</ele>
        <time>2021-05-27T09:54:51Z</time>
      </trkpt>
      <trkpt lat="42.056980" lon="2.538595">
        <ele>360.011</ele>
        <time>2021-05-27T09:54:52Z</time>
      </trkpt>
      <trkpt lat="42.057016" lon="2.538600">
        <ele>360.052</ele>
        <time>2021-05-27T09:54:54Z</time>
      </trkpt>
      <trkpt lat="42.057048" lon="2.538609">
        <ele>360.053</ele>
        <time>2021-05-27T09:54:56Z</time>
      </trkpt>
      <trkpt lat="42.057078" lon="2.538612">
        <ele>360.008</ele>
        <time>2021-05-27T09:54:58Z</time>
      </trkpt>
      <trkpt lat="42.057114" lon="2.538615">
        <ele>360.008</ele>
        <time>2021-05-27T09:55:00Z</time>
      </trkpt>
      <trkpt lat="42.057146" lon="2.538617">
        <ele>360.082</ele>
        <time>2021-05-27T09:55:02Z</time>
      </trkpt>
      <trkpt lat="42.057175" lon="2.538632">
        <ele>359.949</ele>
        <time>2021-05-27T09:55:04Z</time>
      </trkpt>
      <trkpt lat="42.057200" lon="2.538658">
        <ele>359.837</ele>
        <time>2021-05-27T09:55:06Z</time>
      </trkpt>
      <trkpt lat="42.057220" lon="2.538693">
        <ele>359.717</ele>
        <time>2021-05-27T09:55:08Z</time>
      </trkpt>
      <trkpt lat="42.057241" lon="2.538732">
        <ele>359.664</ele>
        <time>2021-05-27T09:55:10Z</time>
      </trkpt>
      <trkpt lat="42.057267" lon="2.538759">
        <ele>359.539</ele>
        <time>2021-05-27T09:55:12Z</time>
      </trkpt>
      <trkpt lat="42.057292" lon="2.538788">
        <ele>359.462</ele>
        <time>2021-05-27T09:55:14Z</time>
      </trkpt>
      <trkpt lat="42.057312" lon="2.538818">
        <ele>359.358</ele>
        <time>2021-05-27T09:55:15Z</time>
      </trkpt>
      <trkpt lat="42.057335" lon="2.538847">
        <ele>359.293</ele>
        <time>2021-05-27T09:55:17Z</time>
      </trkpt>
      <trkpt lat="42.057355" lon="2.538874">
        <ele>359.165</ele>
        <time>2021-05-27T09:55:19Z</time>
      </trkpt>
      <trkpt lat="42.057376" lon="2.538900">
        <ele>359.021</ele>
        <time>2021-05-27T09:55:22Z</time>
      </trkpt>
      <trkpt lat="42.057393" lon="2.538924">
        <ele>358.908</ele>
        <time>2021-05-27T09:55:24Z</time>
      </trkpt>
      <trkpt lat="42.057416" lon="2.538948">
        <ele>358.826</ele>
        <time>2021-05-27T09:55:26Z</time>
      </trkpt>
      <trkpt lat="42.057434" lon="2.538979">
        <ele>358.723</ele>
        <time>2021-05-27T09:55:28Z</time>
      </trkpt>
      <trkpt lat="42.057457" lon="2.539009">
        <ele>358.661</ele>
        <time>2021-05-27T09:55:30Z</time>
      </trkpt>
      <trkpt lat="42.057477" lon="2.539044">
        <ele>358.471</ele>
        <time>2021-05-27T09:55:32Z</time>
      </trkpt>
      <trkpt lat="42.057485" lon="2.539064">
        <ele>358.438</ele>
        <time>2021-05-27T09:55:33Z</time>
      </trkpt>
      <trkpt lat="42.057502" lon="2.539101">
        <ele>358.273</ele>
        <time>2021-05-27T09:55:35Z</time>
      </trkpt>
      <trkpt lat="42.057522" lon="2.539123">
        <ele>358.266</ele>
        <time>2021-05-27T09:55:37Z</time>
      </trkpt>
      <trkpt lat="42.057551" lon="2.539124">
        <ele>358.282</ele>
        <time>2021-05-27T09:55:39Z</time>
      </trkpt>
      <trkpt lat="42.057565" lon="2.539109">
        <ele>358.299</ele>
        <time>2021-05-27T09:55:40Z</time>
      </trkpt>
      <trkpt lat="42.057587" lon="2.539076">
        <ele>358.307</ele>
        <time>2021-05-27T09:55:42Z</time>
      </trkpt>
      <trkpt lat="42.057609" lon="2.539041">
        <ele>358.527</ele>
        <time>2021-05-27T09:55:44Z</time>
      </trkpt>
      <trkpt lat="42.057622" lon="2.539022">
        <ele>358.508</ele>
        <time>2021-05-27T09:55:45Z</time>
      </trkpt>
      <trkpt lat="42.057646" lon="2.538988">
        <ele>358.666</ele>
        <time>2021-05-27T09:55:47Z</time>
      </trkpt>
      <trkpt lat="42.057664" lon="2.538956">
        <ele>358.813</ele>
        <time>2021-05-27T09:55:49Z</time>
      </trkpt>
      <trkpt lat="42.057685" lon="2.538935">
        <ele>358.891</ele>
        <time>2021-05-27T09:55:51Z</time>
      </trkpt>
      <trkpt lat="42.057711" lon="2.538908">
        <ele>358.931</ele>
        <time>2021-05-27T09:55:53Z</time>
      </trkpt>
      <trkpt lat="42.057733" lon="2.538879">
        <ele>359.078</ele>
        <time>2021-05-27T09:55:55Z</time>
      </trkpt>
      <trkpt lat="42.057750" lon="2.538853">
        <ele>359.193</ele>
        <time>2021-05-27T09:55:57Z</time>
      </trkpt>
      <trkpt lat="42.057775" lon="2.538834">
        <ele>359.266</ele>
        <time>2021-05-27T09:55:59Z</time>
      </trkpt>
      <trkpt lat="42.057800" lon="2.538818">
        <ele>359.342</ele>
        <time>2021-05-27T09:56:01Z</time>
      </trkpt>
      <trkpt lat="42.057822" lon="2.538797">
        <ele>359.378</ele>
        <time>2021-05-27T09:56:03Z</time>
      </trkpt>
      <trkpt lat="42.057847" lon="2.538776">
        <ele>359.433</ele>
        <time>2021-05-27T09:56:05Z</time>
      </trkpt>
      <trkpt lat="42.057869" lon="2.538748">
        <ele>359.526</ele>
        <time>2021-05-27T09:56:07Z</time>
      </trkpt>
      <trkpt lat="42.057888" lon="2.538721">
        <ele>359.608</ele>
        <time>2021-05-27T09:56:09Z</time>
      </trkpt>
      <trkpt lat="42.057907" lon="2.538694">
        <ele>359.714</ele>
        <time>2021-05-27T09:56:11Z</time>
      </trkpt>
      <trkpt lat="42.057924" lon="2.538670">
        <ele>359.831</ele>
        <time>2021-05-27T09:56:13Z</time>
      </trkpt>
      <trkpt lat="42.057945" lon="2.538647">
        <ele>359.929</ele>
        <time>2021-05-27T09:56:15Z</time>
      </trkpt>
      <trkpt lat="42.057964" lon="2.538620">
        <ele>360.039</ele>
        <time>2021-05-27T09:56:16Z</time>
      </trkpt>
      <trkpt lat="42.057981" lon="2.538592">
        <ele>360.046</ele>
        <time>2021-05-27T09:56:18Z</time>
      </trkpt>
      <trkpt lat="42.057994" lon="2.538560">
        <ele>360.011</ele>
        <time>2021-05-27T09:56:20Z</time>
      </trkpt>
      <trkpt lat="42.058010" lon="2.538534">
        <ele>360.094</ele>
        <time>2021-05-27T09:56:22Z</time>
      </trkpt>
      <trkpt lat="42.058025" lon="2.538506">
        <ele>360.050</ele>
        <time>2021-05-27T09:56:24Z</time>
      </trkpt>
      <trkpt lat="42.058030" lon="2.538473">
        <ele>360.038</ele>
        <time>2021-05-27T09:56:26Z</time>
      </trkpt>
      <trkpt lat="42.058055" lon="2.538462">
        <ele>360.070</ele>
        <time>2021-05-27T09:56:30Z</time>
      </trkpt>
      <trkpt lat="42.058088" lon="2.538420">
        <ele>360.017</ele>
        <time>2021-05-27T09:56:32Z</time>
      </trkpt>
      <trkpt lat="42.058105" lon="2.538393">
        <ele>360.008</ele>
        <time>2021-05-27T09:56:35Z</time>
      </trkpt>
      <trkpt lat="42.058123" lon="2.538367">
        <ele>360.090</ele>
        <time>2021-05-27T09:56:37Z</time>
      </trkpt>
      <trkpt lat="42.058143" lon="2.538341">
        <ele>360.097</ele>
        <time>2021-05-27T09:56:39Z</time>
      </trkpt>
      <trkpt lat="42.058167" lon="2.538317">
        <ele>360.025</ele>
        <time>2021-05-27T09:56:41Z</time>
      </trkpt>
      <trkpt lat="42.058193" lon="2.538292">
        <ele>360.195</ele>
        <time>2021-05-27T09:56:43Z</time>
      </trkpt>
      <trkpt lat="42.058212" lon="2.538267">
        <ele>360.132</ele>
        <time>2021-05-27T09:56:45Z</time>
      </trkpt>
      <trkpt lat="42.058228" lon="2.538239">
        <ele>360.197</ele>
        <time>2021-05-27T09:56:47Z</time>
      </trkpt>
      <trkpt lat="42.058246" lon="2.538212">
        <ele>360.180</ele>
        <time>2021-05-27T09:56:49Z</time>
      </trkpt>
      <trkpt lat="42.058263" lon="2.538185">
        <ele>360.196</ele>
        <time>2021-05-27T09:56:51Z</time>
      </trkpt>
      <trkpt lat="42.058284" lon="2.538159">
        <ele>360.188</ele>
        <time>2021-05-27T09:56:53Z</time>
      </trkpt>
      <trkpt lat="42.058301" lon="2.538132">
        <ele>360.124</ele>
        <time>2021-05-27T09:56:55Z</time>
      </trkpt>
      <trkpt lat="42.058322" lon="2.538102">
        <ele>360.026</ele>
        <time>2021-05-27T09:56:57Z</time>
      </trkpt>
      <trkpt lat="42.058342" lon="2.538076">
        <ele>360.008</ele>
        <time>2021-05-27T09:56:59Z</time>
      </trkpt>
      <trkpt lat="42.058365" lon="2.538050">
        <ele>360.165</ele>
        <time>2021-05-27T09:57:01Z</time>
      </trkpt>
      <trkpt lat="42.058379" lon="2.538021">
        <ele>360.412</ele>
        <time>2021-05-27T09:57:03Z</time>
      </trkpt>
      <trkpt lat="42.058402" lon="2.537995">
        <ele>360.560</ele>
        <time>2021-05-27T09:57:05Z</time>
      </trkpt>
      <trkpt lat="42.058424" lon="2.537968">
        <ele>360.690</ele>
        <time>2021-05-27T09:57:07Z</time>
      </trkpt>
      <trkpt lat="42.058446" lon="2.537944">
        <ele>360.747</ele>
        <time>2021-05-27T09:57:09Z</time>
      </trkpt>
      <trkpt lat="42.058466" lon="2.537919">
        <ele>360.832</ele>
        <time>2021-05-27T09:57:11Z</time>
      </trkpt>
      <trkpt lat="42.058487" lon="2.537897">
        <ele>360.765</ele>
        <time>2021-05-27T09:57:13Z</time>
      </trkpt>
      <trkpt lat="42.058509" lon="2.537874">
        <ele>360.771</ele>
        <time>2021-05-27T09:57:15Z</time>
      </trkpt>
      <trkpt lat="42.058526" lon="2.537847">
        <ele>360.617</ele>
        <time>2021-05-27T09:57:17Z</time>
      </trkpt>
      <trkpt lat="42.058544" lon="2.537821">
        <ele>360.587</ele>
        <time>2021-05-27T09:57:19Z</time>
      </trkpt>
      <trkpt lat="42.058565" lon="2.537792">
        <ele>360.415</ele>
        <time>2021-05-27T09:57:21Z</time>
      </trkpt>
      <trkpt lat="42.058586" lon="2.537764">
        <ele>360.208</ele>
        <time>2021-05-27T09:57:23Z</time>
      </trkpt>
      <trkpt lat="42.058608" lon="2.537731">
        <ele>360.218</ele>
        <time>2021-05-27T09:57:25Z</time>
      </trkpt>
      <trkpt lat="42.058627" lon="2.537705">
        <ele>360.355</ele>
        <time>2021-05-27T09:57:27Z</time>
      </trkpt>
      <trkpt lat="42.058644" lon="2.537674">
        <ele>360.473</ele>
        <time>2021-05-27T09:57:29Z</time>
      </trkpt>
      <trkpt lat="42.058663" lon="2.537647">
        <ele>360.673</ele>
        <time>2021-05-27T09:57:31Z</time>
      </trkpt>
      <trkpt lat="42.058684" lon="2.537628">
        <ele>360.750</ele>
        <time>2021-05-27T09:57:33Z</time>
      </trkpt>
      <trkpt lat="42.058705" lon="2.537604">
        <ele>360.815</ele>
        <time>2021-05-27T09:57:35Z</time>
      </trkpt>
      <trkpt lat="42.058727" lon="2.537576">
        <ele>360.848</ele>
        <time>2021-05-27T09:57:37Z</time>
      </trkpt>
      <trkpt lat="42.058749" lon="2.537551">
        <ele>360.994</ele>
        <time>2021-05-27T09:57:39Z</time>
      </trkpt>
      <trkpt lat="42.058770" lon="2.537524">
        <ele>361.024</ele>
        <time>2021-05-27T09:57:41Z</time>
      </trkpt>
      <trkpt lat="42.058793" lon="2.537497">
        <ele>361.004</ele>
        <time>2021-05-27T09:57:43Z</time>
      </trkpt>
      <trkpt lat="42.058813" lon="2.537466">
        <ele>361.114</ele>
        <time>2021-05-27T09:57:45Z</time>
      </trkpt>
      <trkpt lat="42.058828" lon="2.537436">
        <ele>361.108</ele>
        <time>2021-05-27T09:57:47Z</time>
      </trkpt>
      <trkpt lat="42.058844" lon="2.537405">
        <ele>361.119</ele>
        <time>2021-05-27T09:57:49Z</time>
      </trkpt>
      <trkpt lat="42.058863" lon="2.537375">
        <ele>361.196</ele>
        <time>2021-05-27T09:57:51Z</time>
      </trkpt>
      <trkpt lat="42.058887" lon="2.537344">
        <ele>361.094</ele>
        <time>2021-05-27T09:57:53Z</time>
      </trkpt>
      <trkpt lat="42.058905" lon="2.537318">
        <ele>361.054</ele>
        <time>2021-05-27T09:57:55Z</time>
      </trkpt>
      <trkpt lat="42.058924" lon="2.537292">
        <ele>361.081</ele>
        <time>2021-05-27T09:57:57Z</time>
      </trkpt>
      <trkpt lat="42.058940" lon="2.537267">
        <ele>361.076</ele>
        <time>2021-05-27T09:57:59Z</time>
      </trkpt>
      <trkpt lat="42.058957" lon="2.537240">
        <ele>361.099</ele>
        <time>2021-05-27T09:58:01Z</time>
      </trkpt>
      <trkpt lat="42.058976" lon="2.537214">
        <ele>361.045</ele>
        <time>2021-05-27T09:58:03Z</time>
      </trkpt>
      <trkpt lat="42.058992" lon="2.537188">
        <ele>361.129</ele>
        <time>2021-05-27T09:58:05Z</time>
      </trkpt>
      <trkpt lat="42.059002" lon="2.537160">
        <ele>361.200</ele>
        <time>2021-05-27T09:58:07Z</time>
      </trkpt>
      <trkpt lat="42.059026" lon="2.537136">
        <ele>361.220</ele>
        <time>2021-05-27T09:58:09Z</time>
      </trkpt>
      <trkpt lat="42.059043" lon="2.537111">
        <ele>361.108</ele>
        <time>2021-05-27T09:58:11Z</time>
      </trkpt>
      <trkpt lat="42.059065" lon="2.537086">
        <ele>361.079</ele>
        <time>2021-05-27T09:58:13Z</time>
      </trkpt>
      <trkpt lat="42.059085" lon="2.537061">
        <ele>360.986</ele>
        <time>2021-05-27T09:58:15Z</time>
      </trkpt>
      <trkpt lat="42.059111" lon="2.537036">
        <ele>360.764</ele>
        <time>2021-05-27T09:58:17Z</time>
      </trkpt>
      <trkpt lat="42.059131" lon="2.537010">
        <ele>360.524</ele>
        <time>2021-05-27T09:58:19Z</time>
      </trkpt>
      <trkpt lat="42.059158" lon="2.536988">
        <ele>360.221</ele>
        <time>2021-05-27T09:58:21Z</time>
      </trkpt>
      <trkpt lat="42.059185" lon="2.536981">
        <ele>359.886</ele>
        <time>2021-05-27T09:58:23Z</time>
      </trkpt>
      <trkpt lat="42.059213" lon="2.536985">
        <ele>359.419</ele>
        <time>2021-05-27T09:58:25Z</time>
      </trkpt>
      <trkpt lat="42.059242" lon="2.536978">
        <ele>358.925</ele>
        <time>2021-05-27T09:58:27Z</time>
      </trkpt>
      <trkpt lat="42.059271" lon="2.536970">
        <ele>358.371</ele>
        <time>2021-05-27T09:58:29Z</time>
      </trkpt>
      <trkpt lat="42.059299" lon="2.536951">
        <ele>357.741</ele>
        <time>2021-05-27T09:58:31Z</time>
      </trkpt>
      <trkpt lat="42.059317" lon="2.536930">
        <ele>357.215</ele>
        <time>2021-05-27T09:58:33Z</time>
      </trkpt>
      <trkpt lat="42.059340" lon="2.536907">
        <ele>356.608</ele>
        <time>2021-05-27T09:58:35Z</time>
      </trkpt>
      <trkpt lat="42.059358" lon="2.536886">
        <ele>356.154</ele>
        <time>2021-05-27T09:58:37Z</time>
      </trkpt>
      <trkpt lat="42.059380" lon="2.536867">
        <ele>355.571</ele>
        <time>2021-05-27T09:58:39Z</time>
      </trkpt>
      <trkpt lat="42.059400" lon="2.536847">
        <ele>354.979</ele>
        <time>2021-05-27T09:58:41Z</time>
      </trkpt>
      <trkpt lat="42.059420" lon="2.536828">
        <ele>354.359</ele>
        <time>2021-05-27T09:58:43Z</time>
      </trkpt>
      <trkpt lat="42.059444" lon="2.536808">
        <ele>353.566</ele>
        <time>2021-05-27T09:58:45Z</time>
      </trkpt>
      <trkpt lat="42.059468" lon="2.536791">
        <ele>353.541</ele>
        <time>2021-05-27T09:58:47Z</time>
      </trkpt>
      <trkpt lat="42.059489" lon="2.536774">
        <ele>353.574</ele>
        <time>2021-05-27T09:58:49Z</time>
      </trkpt>
      <trkpt lat="42.059511" lon="2.536755">
        <ele>353.580</ele>
        <time>2021-05-27T09:58:51Z</time>
      </trkpt>
      <trkpt lat="42.059530" lon="2.536743">
        <ele>353.764</ele>
        <time>2021-05-27T09:58:52Z</time>
      </trkpt>
      <trkpt lat="42.059554" lon="2.536721">
        <ele>353.906</ele>
        <time>2021-05-27T09:58:54Z</time>
      </trkpt>
      <trkpt lat="42.059573" lon="2.536691">
        <ele>354.316</ele>
        <time>2021-05-27T09:58:56Z</time>
      </trkpt>
      <trkpt lat="42.059596" lon="2.536670">
        <ele>354.708</ele>
        <time>2021-05-27T09:58:58Z</time>
      </trkpt>
      <trkpt lat="42.059621" lon="2.536646">
        <ele>355.383</ele>
        <time>2021-05-27T09:59:00Z</time>
      </trkpt>
      <trkpt lat="42.059644" lon="2.536628">
        <ele>355.910</ele>
        <time>2021-05-27T09:59:02Z</time>
      </trkpt>
      <trkpt lat="42.059666" lon="2.536610">
        <ele>356.488</ele>
        <time>2021-05-27T09:59:04Z</time>
      </trkpt>
      <trkpt lat="42.059690" lon="2.536590">
        <ele>357.028</ele>
        <time>2021-05-27T09:59:07Z</time>
      </trkpt>
      <trkpt lat="42.059713" lon="2.536573">
        <ele>357.595</ele>
        <time>2021-05-27T09:59:09Z</time>
      </trkpt>
      <trkpt lat="42.059735" lon="2.536556">
        <ele>357.970</ele>
        <time>2021-05-27T09:59:11Z</time>
      </trkpt>
      <trkpt lat="42.059755" lon="2.536536">
        <ele>358.133</ele>
        <time>2021-05-27T09:59:13Z</time>
      </trkpt>
      <trkpt lat="42.059778" lon="2.536514">
        <ele>358.389</ele>
        <time>2021-05-27T09:59:15Z</time>
      </trkpt>
      <trkpt lat="42.059801" lon="2.536494">
        <ele>358.583</ele>
        <time>2021-05-27T09:59:17Z</time>
      </trkpt>
      <trkpt lat="42.059823" lon="2.536473">
        <ele>358.625</ele>
        <time>2021-05-27T09:59:19Z</time>
      </trkpt>
      <trkpt lat="42.059848" lon="2.536454">
        <ele>358.717</ele>
        <time>2021-05-27T09:59:21Z</time>
      </trkpt>
      <trkpt lat="42.059873" lon="2.536435">
        <ele>358.808</ele>
        <time>2021-05-27T09:59:23Z</time>
      </trkpt>
      <trkpt lat="42.059907" lon="2.536402">
        <ele>359.035</ele>
        <time>2021-05-27T09:59:26Z</time>
      </trkpt>
      <trkpt lat="42.059929" lon="2.536378">
        <ele>359.052</ele>
        <time>2021-05-27T09:59:28Z</time>
      </trkpt>
      <trkpt lat="42.059953" lon="2.536355">
        <ele>359.170</ele>
        <time>2021-05-27T09:59:30Z</time>
      </trkpt>
      <trkpt lat="42.059977" lon="2.536334">
        <ele>359.220</ele>
        <time>2021-05-27T09:59:32Z</time>
      </trkpt>
      <trkpt lat="42.060001" lon="2.536314">
        <ele>359.327</ele>
        <time>2021-05-27T09:59:34Z</time>
      </trkpt>
      <trkpt lat="42.060025" lon="2.536294">
        <ele>359.342</ele>
        <time>2021-05-27T09:59:36Z</time>
      </trkpt>
      <trkpt lat="42.060048" lon="2.536275">
        <ele>359.475</ele>
        <time>2021-05-27T09:59:38Z</time>
      </trkpt>
      <trkpt lat="42.060073" lon="2.536252">
        <ele>359.561</ele>
        <time>2021-05-27T09:59:40Z</time>
      </trkpt>
      <trkpt lat="42.060102" lon="2.536232">
        <ele>359.648</ele>
        <time>2021-05-27T09:59:42Z</time>
      </trkpt>
      <trkpt lat="42.060127" lon="2.536210">
        <ele>359.661</ele>
        <time>2021-05-27T09:59:44Z</time>
      </trkpt>
      <trkpt lat="42.060152" lon="2.536187">
        <ele>359.717</ele>
        <time>2021-05-27T09:59:46Z</time>
      </trkpt>
      <trkpt lat="42.060176" lon="2.536163">
        <ele>359.808</ele>
        <time>2021-05-27T09:59:48Z</time>
      </trkpt>
      <trkpt lat="42.060200" lon="2.536142">
        <ele>359.971</ele>
        <time>2021-05-27T09:59:50Z</time>
      </trkpt>
      <trkpt lat="42.060220" lon="2.536119">
        <ele>360.078</ele>
        <time>2021-05-27T09:59:52Z</time>
      </trkpt>
      <trkpt lat="42.060245" lon="2.536099">
        <ele>360.016</ele>
        <time>2021-05-27T09:59:54Z</time>
      </trkpt>
      <trkpt lat="42.060269" lon="2.536077">
        <ele>360.086</ele>
        <time>2021-05-27T09:59:56Z</time>
      </trkpt>
      <trkpt lat="42.060294" lon="2.536054">
        <ele>360.093</ele>
        <time>2021-05-27T09:59:58Z</time>
      </trkpt>
      <trkpt lat="42.060318" lon="2.536033">
        <ele>360.088</ele>
        <time>2021-05-27T10:00:00Z</time>
      </trkpt>
      <trkpt lat="42.060341" lon="2.536011">
        <ele>360.191</ele>
        <time>2021-05-27T10:00:02Z</time>
      </trkpt>
      <trkpt lat="42.060363" lon="2.535990">
        <ele>360.147</ele>
        <time>2021-05-27T10:00:04Z</time>
      </trkpt>
      <trkpt lat="42.060385" lon="2.535969">
        <ele>360.231</ele>
        <time>2021-05-27T10:00:05Z</time>
      </trkpt>
      <trkpt lat="42.060407" lon="2.535947">
        <ele>360.361</ele>
        <time>2021-05-27T10:00:08Z</time>
      </trkpt>
      <trkpt lat="42.060430" lon="2.535929">
        <ele>360.407</ele>
        <time>2021-05-27T10:00:10Z</time>
      </trkpt>
      <trkpt lat="42.060452" lon="2.535910">
        <ele>360.508</ele>
        <time>2021-05-27T10:00:12Z</time>
      </trkpt>
      <trkpt lat="42.060475" lon="2.535887">
        <ele>360.610</ele>
        <time>2021-05-27T10:00:14Z</time>
      </trkpt>
      <trkpt lat="42.060497" lon="2.535867">
        <ele>360.787</ele>
        <time>2021-05-27T10:00:16Z</time>
      </trkpt>
      <trkpt lat="42.060520" lon="2.535850">
        <ele>360.815</ele>
        <time>2021-05-27T10:00:18Z</time>
      </trkpt>
      <trkpt lat="42.060543" lon="2.535830">
        <ele>361.025</ele>
        <time>2021-05-27T10:00:20Z</time>
      </trkpt>
      <trkpt lat="42.060567" lon="2.535811">
        <ele>361.082</ele>
        <time>2021-05-27T10:00:22Z</time>
      </trkpt>
      <trkpt lat="42.060594" lon="2.535791">
        <ele>361.157</ele>
        <time>2021-05-27T10:00:24Z</time>
      </trkpt>
      <trkpt lat="42.060620" lon="2.535771">
        <ele>361.280</ele>
        <time>2021-05-27T10:00:26Z</time>
      </trkpt>
      <trkpt lat="42.060647" lon="2.535755">
        <ele>361.326</ele>
        <time>2021-05-27T10:00:28Z</time>
      </trkpt>
      <trkpt lat="42.060671" lon="2.535754">
        <ele>361.483</ele>
        <time>2021-05-27T10:00:30Z</time>
      </trkpt>
      <trkpt lat="42.060690" lon="2.535775">
        <ele>361.525</ele>
        <time>2021-05-27T10:00:32Z</time>
      </trkpt>
      <trkpt lat="42.060708" lon="2.535804">
        <ele>361.517</ele>
        <time>2021-05-27T10:00:34Z</time>
      </trkpt>
      <trkpt lat="42.060728" lon="2.535832">
        <ele>361.608</ele>
        <time>2021-05-27T10:00:36Z</time>
      </trkpt>
      <trkpt lat="42.060745" lon="2.535860">
        <ele>361.655</ele>
        <time>2021-05-27T10:00:38Z</time>
      </trkpt>
      <trkpt lat="42.060758" lon="2.535891">
        <ele>361.592</ele>
        <time>2021-05-27T10:00:40Z</time>
      </trkpt>
      <trkpt lat="42.060768" lon="2.535930">
        <ele>361.460</ele>
        <time>2021-05-27T10:00:42Z</time>
      </trkpt>
      <trkpt lat="42.060783" lon="2.535970">
        <ele>361.340</ele>
        <time>2021-05-27T10:00:43Z</time>
      </trkpt>
      <trkpt lat="42.060798" lon="2.536016">
        <ele>361.267</ele>
        <time>2021-05-27T10:00:46Z</time>
      </trkpt>
      <trkpt lat="42.060805" lon="2.536044">
        <ele>361.162</ele>
        <time>2021-05-27T10:00:47Z</time>
      </trkpt>
      <trkpt lat="42.060811" lon="2.536074">
        <ele>361.165</ele>
        <time>2021-05-27T10:00:48Z</time>
      </trkpt>
      <trkpt lat="42.060818" lon="2.536102">
        <ele>361.041</ele>
        <time>2021-05-27T10:00:49Z</time>
      </trkpt>
      <trkpt lat="42.060825" lon="2.536132">
        <ele>360.921</ele>
        <time>2021-05-27T10:00:50Z</time>
      </trkpt>
      <trkpt lat="42.060832" lon="2.536166">
        <ele>360.841</ele>
        <time>2021-05-27T10:00:51Z</time>
      </trkpt>
      <trkpt lat="42.060838" lon="2.536198">
        <ele>360.705</ele>
        <time>2021-05-27T10:00:52Z</time>
      </trkpt>
      <trkpt lat="42.060845" lon="2.536230">
        <ele>360.608</ele>
        <time>2021-05-27T10:00:53Z</time>
      </trkpt>
      <trkpt lat="42.060851" lon="2.536264">
        <ele>360.569</ele>
        <time>2021-05-27T10:00:54Z</time>
      </trkpt>
      <trkpt lat="42.060857" lon="2.536297">
        <ele>360.566</ele>
        <time>2021-05-27T10:00:55Z</time>
      </trkpt>
      <trkpt lat="42.060864" lon="2.536329">
        <ele>360.424</ele>
        <time>2021-05-27T10:00:56Z</time>
      </trkpt>
      <trkpt lat="42.060868" lon="2.536360">
        <ele>360.384</ele>
        <time>2021-05-27T10:00:57Z</time>
      </trkpt>
      <trkpt lat="42.060874" lon="2.536393">
        <ele>360.311</ele>
        <time>2021-05-27T10:00:58Z</time>
      </trkpt>
      <trkpt lat="42.060882" lon="2.536424">
        <ele>360.356</ele>
        <time>2021-05-27T10:00:59Z</time>
      </trkpt>
      <trkpt lat="42.060895" lon="2.536487">
        <ele>360.499</ele>
        <time>2021-05-27T10:01:01Z</time>
      </trkpt>
      <trkpt lat="42.060901" lon="2.536520">
        <ele>360.445</ele>
        <time>2021-05-27T10:01:02Z</time>
      </trkpt>
      <trkpt lat="42.060907" lon="2.536552">
        <ele>360.458</ele>
        <time>2021-05-27T10:01:03Z</time>
      </trkpt>
      <trkpt lat="42.060915" lon="2.536585">
        <ele>360.452</ele>
        <time>2021-05-27T10:01:04Z</time>
      </trkpt>
      <trkpt lat="42.060929" lon="2.536654">
        <ele>360.417</ele>
        <time>2021-05-27T10:01:05Z</time>
      </trkpt>
      <trkpt lat="42.060936" lon="2.536685">
        <ele>360.408</ele>
        <time>2021-05-27T10:01:07Z</time>
      </trkpt>
      <trkpt lat="42.060941" lon="2.536723">
        <ele>360.472</ele>
        <time>2021-05-27T10:01:08Z</time>
      </trkpt>
      <trkpt lat="42.060948" lon="2.536756">
        <ele>360.449</ele>
        <time>2021-05-27T10:01:09Z</time>
      </trkpt>
      <trkpt lat="42.060955" lon="2.536790">
        <ele>360.427</ele>
        <time>2021-05-27T10:01:10Z</time>
      </trkpt>
      <trkpt lat="42.060962" lon="2.536821">
        <ele>360.577</ele>
        <time>2021-05-27T10:01:11Z</time>
      </trkpt>
      <trkpt lat="42.060968" lon="2.536851">
        <ele>360.564</ele>
        <time>2021-05-27T10:01:12Z</time>
      </trkpt>
      <trkpt lat="42.060976" lon="2.536879">
        <ele>360.519</ele>
        <time>2021-05-27T10:01:13Z</time>
      </trkpt>
      <trkpt lat="42.060985" lon="2.536909">
        <ele>360.522</ele>
        <time>2021-05-27T10:01:14Z</time>
      </trkpt>
      <trkpt lat="42.060990" lon="2.536943">
        <ele>360.628</ele>
        <time>2021-05-27T10:01:15Z</time>
      </trkpt>
      <trkpt lat="42.060995" lon="2.536976">
        <ele>360.688</ele>
        <time>2021-05-27T10:01:16Z</time>
      </trkpt>
      <trkpt lat="42.061002" lon="2.537009">
        <ele>360.624</ele>
        <time>2021-05-27T10:01:17Z</time>
      </trkpt>
      <trkpt lat="42.061009" lon="2.537042">
        <ele>360.626</ele>
        <time>2021-05-27T10:01:18Z</time>
      </trkpt>
      <trkpt lat="42.061017" lon="2.537072">
        <ele>360.708</ele>
        <time>2021-05-27T10:01:19Z</time>
      </trkpt>
      <trkpt lat="42.061033" lon="2.537138">
        <ele>360.765</ele>
        <time>2021-05-27T10:01:20Z</time>
      </trkpt>
      <trkpt lat="42.061041" lon="2.537171">
        <ele>360.792</ele>
        <time>2021-05-27T10:01:22Z</time>
      </trkpt>
      <trkpt lat="42.061048" lon="2.537204">
        <ele>360.870</ele>
        <time>2021-05-27T10:01:23Z</time>
      </trkpt>
      <trkpt lat="42.061056" lon="2.537233">
        <ele>360.830</ele>
        <time>2021-05-27T10:01:24Z</time>
      </trkpt>
      <trkpt lat="42.061064" lon="2.537262">
        <ele>360.847</ele>
        <time>2021-05-27T10:01:25Z</time>
      </trkpt>
      <trkpt lat="42.061072" lon="2.537291">
        <ele>360.942</ele>
        <time>2021-05-27T10:01:26Z</time>
      </trkpt>
      <trkpt lat="42.061083" lon="2.537319">
        <ele>360.985</ele>
        <time>2021-05-27T10:01:27Z</time>
      </trkpt>
      <trkpt lat="42.061092" lon="2.537347">
        <ele>360.961</ele>
        <time>2021-05-27T10:01:28Z</time>
      </trkpt>
      <trkpt lat="42.061102" lon="2.537376">
        <ele>361.068</ele>
        <time>2021-05-27T10:01:29Z</time>
      </trkpt>
      <trkpt lat="42.061111" lon="2.537406">
        <ele>361.042</ele>
        <time>2021-05-27T10:01:30Z</time>
      </trkpt>
      <trkpt lat="42.061119" lon="2.537435">
        <ele>361.026</ele>
        <time>2021-05-27T10:01:31Z</time>
      </trkpt>
      <trkpt lat="42.061128" lon="2.537459">
        <ele>361.108</ele>
        <time>2021-05-27T10:01:32Z</time>
      </trkpt>
      <trkpt lat="42.061139" lon="2.537484">
        <ele>361.143</ele>
        <time>2021-05-27T10:01:33Z</time>
      </trkpt>
      <trkpt lat="42.061150" lon="2.537511">
        <ele>361.110</ele>
        <time>2021-05-27T10:01:34Z</time>
      </trkpt>
      <trkpt lat="42.061162" lon="2.537536">
        <ele>361.188</ele>
        <time>2021-05-27T10:01:35Z</time>
      </trkpt>
      <trkpt lat="42.061174" lon="2.537567">
        <ele>361.068</ele>
        <time>2021-05-27T10:01:36Z</time>
      </trkpt>
      <trkpt lat="42.061185" lon="2.537597">
        <ele>361.035</ele>
        <time>2021-05-27T10:01:37Z</time>
      </trkpt>
      <trkpt lat="42.061199" lon="2.537620">
        <ele>361.070</ele>
        <time>2021-05-27T10:01:38Z</time>
      </trkpt>
      <trkpt lat="42.061212" lon="2.537648">
        <ele>361.053</ele>
        <time>2021-05-27T10:01:39Z</time>
      </trkpt>
      <trkpt lat="42.061225" lon="2.537675">
        <ele>361.079</ele>
        <time>2021-05-27T10:01:40Z</time>
      </trkpt>
      <trkpt lat="42.061237" lon="2.537702">
        <ele>361.196</ele>
        <time>2021-05-27T10:01:41Z</time>
      </trkpt>
      <trkpt lat="42.061250" lon="2.537727">
        <ele>361.131</ele>
        <time>2021-05-27T10:01:42Z</time>
      </trkpt>
      <trkpt lat="42.061264" lon="2.537750">
        <ele>361.124</ele>
        <time>2021-05-27T10:01:43Z</time>
      </trkpt>
      <trkpt lat="42.061279" lon="2.537773">
        <ele>361.208</ele>
        <time>2021-05-27T10:01:44Z</time>
      </trkpt>
      <trkpt lat="42.061295" lon="2.537797">
        <ele>361.396</ele>
        <time>2021-05-27T10:01:45Z</time>
      </trkpt>
      <trkpt lat="42.061310" lon="2.537819">
        <ele>361.353</ele>
        <time>2021-05-27T10:01:46Z</time>
      </trkpt>
      <trkpt lat="42.061324" lon="2.537841">
        <ele>361.461</ele>
        <time>2021-05-27T10:01:47Z</time>
      </trkpt>
      <trkpt lat="42.061338" lon="2.537864">
        <ele>361.421</ele>
        <time>2021-05-27T10:01:48Z</time>
      </trkpt>
      <trkpt lat="42.061353" lon="2.537886">
        <ele>361.488</ele>
        <time>2021-05-27T10:01:49Z</time>
      </trkpt>
      <trkpt lat="42.061369" lon="2.537909">
        <ele>361.453</ele>
        <time>2021-05-27T10:01:50Z</time>
      </trkpt>
      <trkpt lat="42.061384" lon="2.537934">
        <ele>361.476</ele>
        <time>2021-05-27T10:01:51Z</time>
      </trkpt>
      <trkpt lat="42.061400" lon="2.537958">
        <ele>361.472</ele>
        <time>2021-05-27T10:01:52Z</time>
      </trkpt>
      <trkpt lat="42.061415" lon="2.537984">
        <ele>361.413</ele>
        <time>2021-05-27T10:01:53Z</time>
      </trkpt>
      <trkpt lat="42.061431" lon="2.538008">
        <ele>361.343</ele>
        <time>2021-05-27T10:01:54Z</time>
      </trkpt>
      <trkpt lat="42.061447" lon="2.538033">
        <ele>361.307</ele>
        <time>2021-05-27T10:01:55Z</time>
      </trkpt>
      <trkpt lat="42.061464" lon="2.538057">
        <ele>361.308</ele>
        <time>2021-05-27T10:01:56Z</time>
      </trkpt>
      <trkpt lat="42.061479" lon="2.538082">
        <ele>361.358</ele>
        <time>2021-05-27T10:01:57Z</time>
      </trkpt>
      <trkpt lat="42.061495" lon="2.538105">
        <ele>361.335</ele>
        <time>2021-05-27T10:01:58Z</time>
      </trkpt>
      <trkpt lat="42.061511" lon="2.538124">
        <ele>361.333</ele>
        <time>2021-05-27T10:01:59Z</time>
      </trkpt>
      <trkpt lat="42.061527" lon="2.538143">
        <ele>361.383</ele>
        <time>2021-05-27T10:02:00Z</time>
      </trkpt>
      <trkpt lat="42.061541" lon="2.538161">
        <ele>361.420</ele>
        <time>2021-05-27T10:02:01Z</time>
      </trkpt>
      <trkpt lat="42.061556" lon="2.538177">
        <ele>361.445</ele>
        <time>2021-05-27T10:02:02Z</time>
      </trkpt>
      <trkpt lat="42.061570" lon="2.538197">
        <ele>361.578</ele>
        <time>2021-05-27T10:02:03Z</time>
      </trkpt>
      <trkpt lat="42.061595" lon="2.538240">
        <ele>361.684</ele>
        <time>2021-05-27T10:02:04Z</time>
      </trkpt>
      <trkpt lat="42.061608" lon="2.538261">
        <ele>361.647</ele>
        <time>2021-05-27T10:02:06Z</time>
      </trkpt>
      <trkpt lat="42.061623" lon="2.538282">
        <ele>361.729</ele>
        <time>2021-05-27T10:02:07Z</time>
      </trkpt>
      <trkpt lat="42.061637" lon="2.538301">
        <ele>361.821</ele>
        <time>2021-05-27T10:02:08Z</time>
      </trkpt>
      <trkpt lat="42.061652" lon="2.538321">
        <ele>361.908</ele>
        <time>2021-05-27T10:02:09Z</time>
      </trkpt>
      <trkpt lat="42.061667" lon="2.538341">
        <ele>362.021</ele>
        <time>2021-05-27T10:02:10Z</time>
      </trkpt>
      <trkpt lat="42.061681" lon="2.538358">
        <ele>362.088</ele>
        <time>2021-05-27T10:02:11Z</time>
      </trkpt>
      <trkpt lat="42.061696" lon="2.538375">
        <ele>362.196</ele>
        <time>2021-05-27T10:02:12Z</time>
      </trkpt>
      <trkpt lat="42.061711" lon="2.538396">
        <ele>362.166</ele>
        <time>2021-05-27T10:02:13Z</time>
      </trkpt>
      <trkpt lat="42.061727" lon="2.538415">
        <ele>362.263</ele>
        <time>2021-05-27T10:02:14Z</time>
      </trkpt>
      <trkpt lat="42.061741" lon="2.538433">
        <ele>362.338</ele>
        <time>2021-05-27T10:02:15Z</time>
      </trkpt>
      <trkpt lat="42.061758" lon="2.538451">
        <ele>362.491</ele>
        <time>2021-05-27T10:02:16Z</time>
      </trkpt>
      <trkpt lat="42.061790" lon="2.538489">
        <ele>362.637</ele>
        <time>2021-05-27T10:02:17Z</time>
      </trkpt>
      <trkpt lat="42.061805" lon="2.538508">
        <ele>362.766</ele>
        <time>2021-05-27T10:02:19Z</time>
      </trkpt>
      <trkpt lat="42.061821" lon="2.538527">
        <ele>362.829</ele>
        <time>2021-05-27T10:02:20Z</time>
      </trkpt>
      <trkpt lat="42.061836" lon="2.538545">
        <ele>362.921</ele>
        <time>2021-05-27T10:02:21Z</time>
      </trkpt>
      <trkpt lat="42.061853" lon="2.538561">
        <ele>363.108</ele>
        <time>2021-05-27T10:02:22Z</time>
      </trkpt>
      <trkpt lat="42.061869" lon="2.538579">
        <ele>363.223</ele>
        <time>2021-05-27T10:02:23Z</time>
      </trkpt>
      <trkpt lat="42.061886" lon="2.538595">
        <ele>363.470</ele>
        <time>2021-05-27T10:02:24Z</time>
      </trkpt>
      <trkpt lat="42.061903" lon="2.538609">
        <ele>363.618</ele>
        <time>2021-05-27T10:02:25Z</time>
      </trkpt>
      <trkpt lat="42.061930" lon="2.538631">
        <ele>363.898</ele>
        <time>2021-05-27T10:02:27Z</time>
      </trkpt>
      <trkpt lat="42.061954" lon="2.538649">
        <ele>364.125</ele>
        <time>2021-05-27T10:02:29Z</time>
      </trkpt>
      <trkpt lat="42.061971" lon="2.538662">
        <ele>364.360</ele>
        <time>2021-05-27T10:02:31Z</time>
      </trkpt>
      <trkpt lat="42.061990" lon="2.538678">
        <ele>364.653</ele>
        <time>2021-05-27T10:02:35Z</time>
      </trkpt>
      <trkpt lat="42.062020" lon="2.538691">
        <ele>365.189</ele>
        <time>2021-05-27T10:02:37Z</time>
      </trkpt>
      <trkpt lat="42.062047" lon="2.538703">
        <ele>365.577</ele>
        <time>2021-05-27T10:02:39Z</time>
      </trkpt>
      <trkpt lat="42.062076" lon="2.538709">
        <ele>365.961</ele>
        <time>2021-05-27T10:02:41Z</time>
      </trkpt>
      <trkpt lat="42.062102" lon="2.538718">
        <ele>366.427</ele>
        <time>2021-05-27T10:02:42Z</time>
      </trkpt>
      <trkpt lat="42.062128" lon="2.538729">
        <ele>366.808</ele>
        <time>2021-05-27T10:02:44Z</time>
      </trkpt>
      <trkpt lat="42.062150" lon="2.538736">
        <ele>367.294</ele>
        <time>2021-05-27T10:02:47Z</time>
      </trkpt>
      <trkpt lat="42.062174" lon="2.538747">
        <ele>367.761</ele>
        <time>2021-05-27T10:02:49Z</time>
      </trkpt>
      <trkpt lat="42.062198" lon="2.538748">
        <ele>368.199</ele>
        <time>2021-05-27T10:02:50Z</time>
      </trkpt>
      <trkpt lat="42.062298" lon="2.538750">
        <ele>369.769</ele>
        <time>2021-05-27T10:02:57Z</time>
      </trkpt>
      <trkpt lat="42.062336" lon="2.538750">
        <ele>370.376</ele>
        <time>2021-05-27T10:03:01Z</time>
      </trkpt>
      <trkpt lat="42.062356" lon="2.538756">
        <ele>370.761</ele>
        <time>2021-05-27T10:03:05Z</time>
      </trkpt>
      <trkpt lat="42.062381" lon="2.538753">
        <ele>371.184</ele>
        <time>2021-05-27T10:03:07Z</time>
      </trkpt>
      <trkpt lat="42.062403" lon="2.538753">
        <ele>371.570</ele>
        <time>2021-05-27T10:03:09Z</time>
      </trkpt>
      <trkpt lat="42.062427" lon="2.538756">
        <ele>371.926</ele>
        <time>2021-05-27T10:03:11Z</time>
      </trkpt>
      <trkpt lat="42.062451" lon="2.538759">
        <ele>372.347</ele>
        <time>2021-05-27T10:03:12Z</time>
      </trkpt>
      <trkpt lat="42.062471" lon="2.538762">
        <ele>372.711</ele>
        <time>2021-05-27T10:03:15Z</time>
      </trkpt>
      <trkpt lat="42.062497" lon="2.538768">
        <ele>373.208</ele>
        <time>2021-05-27T10:03:17Z</time>
      </trkpt>
      <trkpt lat="42.062520" lon="2.538771">
        <ele>373.589</ele>
        <time>2021-05-27T10:03:18Z</time>
      </trkpt>
      <trkpt lat="42.062544" lon="2.538777">
        <ele>373.936</ele>
        <time>2021-05-27T10:03:21Z</time>
      </trkpt>
      <trkpt lat="42.062591" lon="2.538788">
        <ele>374.694</ele>
        <time>2021-05-27T10:03:25Z</time>
      </trkpt>
      <trkpt lat="42.062639" lon="2.538813">
        <ele>375.524</ele>
        <time>2021-05-27T10:03:29Z</time>
      </trkpt>
      <trkpt lat="42.062708" lon="2.538840">
        <ele>376.771</ele>
        <time>2021-05-27T10:03:35Z</time>
      </trkpt>
      <trkpt lat="42.062730" lon="2.538854">
        <ele>377.126</ele>
        <time>2021-05-27T10:03:37Z</time>
      </trkpt>
      <trkpt lat="42.062752" lon="2.538875">
        <ele>377.619</ele>
        <time>2021-05-27T10:03:39Z</time>
      </trkpt>
      <trkpt lat="42.062785" lon="2.538904">
        <ele>378.125</ele>
        <time>2021-05-27T10:03:42Z</time>
      </trkpt>
      <trkpt lat="42.062816" lon="2.538919">
        <ele>378.329</ele>
        <time>2021-05-27T10:03:44Z</time>
      </trkpt>
      <trkpt lat="42.062858" lon="2.538955">
        <ele>378.500</ele>
        <time>2021-05-27T10:03:48Z</time>
      </trkpt>
      <trkpt lat="42.062881" lon="2.538979">
        <ele>378.620</ele>
        <time>2021-05-27T10:03:52Z</time>
      </trkpt>
      <trkpt lat="42.062902" lon="2.538997">
        <ele>378.708</ele>
        <time>2021-05-27T10:03:53Z</time>
      </trkpt>
      <trkpt lat="42.062926" lon="2.539012">
        <ele>378.869</ele>
        <time>2021-05-27T10:03:56Z</time>
      </trkpt>
      <trkpt lat="42.062957" lon="2.539028">
        <ele>379.066</ele>
        <time>2021-05-27T10:03:58Z</time>
      </trkpt>
      <trkpt lat="42.062986" lon="2.539046">
        <ele>379.154</ele>
        <time>2021-05-27T10:04:00Z</time>
      </trkpt>
      <trkpt lat="42.063010" lon="2.539058">
        <ele>379.264</ele>
        <time>2021-05-27T10:04:02Z</time>
      </trkpt>
      <trkpt lat="42.063028" lon="2.539069">
        <ele>379.271</ele>
        <time>2021-05-27T10:04:04Z</time>
      </trkpt>
      <trkpt lat="42.063052" lon="2.539080">
        <ele>379.386</ele>
        <time>2021-05-27T10:04:07Z</time>
      </trkpt>
      <trkpt lat="42.063069" lon="2.539090">
        <ele>379.359</ele>
        <time>2021-05-27T10:04:09Z</time>
      </trkpt>
      <trkpt lat="42.063089" lon="2.539101">
        <ele>379.495</ele>
        <time>2021-05-27T10:04:11Z</time>
      </trkpt>
      <trkpt lat="42.063116" lon="2.539113">
        <ele>379.488</ele>
        <time>2021-05-27T10:04:12Z</time>
      </trkpt>
      <trkpt lat="42.063144" lon="2.539129">
        <ele>379.524</ele>
        <time>2021-05-27T10:04:14Z</time>
      </trkpt>
      <trkpt lat="42.063179" lon="2.539138">
        <ele>379.526</ele>
        <time>2021-05-27T10:04:16Z</time>
      </trkpt>
      <trkpt lat="42.063212" lon="2.539145">
        <ele>379.608</ele>
        <time>2021-05-27T10:04:18Z</time>
      </trkpt>
      <trkpt lat="42.063241" lon="2.539155">
        <ele>379.795</ele>
        <time>2021-05-27T10:04:20Z</time>
      </trkpt>
      <trkpt lat="42.063267" lon="2.539165">
        <ele>379.822</ele>
        <time>2021-05-27T10:04:22Z</time>
      </trkpt>
      <trkpt lat="42.063297" lon="2.539174">
        <ele>379.890</ele>
        <time>2021-05-27T10:04:24Z</time>
      </trkpt>
      <trkpt lat="42.063328" lon="2.539184">
        <ele>379.920</ele>
        <time>2021-05-27T10:04:26Z</time>
      </trkpt>
      <trkpt lat="42.063354" lon="2.539192">
        <ele>380.167</ele>
        <time>2021-05-27T10:04:29Z</time>
      </trkpt>
      <trkpt lat="42.063384" lon="2.539205">
        <ele>380.482</ele>
        <time>2021-05-27T10:04:30Z</time>
      </trkpt>
      <trkpt lat="42.063412" lon="2.539219">
        <ele>380.675</ele>
        <time>2021-05-27T10:04:33Z</time>
      </trkpt>
      <trkpt lat="42.063442" lon="2.539238">
        <ele>380.791</ele>
        <time>2021-05-27T10:04:35Z</time>
      </trkpt>
      <trkpt lat="42.063471" lon="2.539256">
        <ele>380.822</ele>
        <time>2021-05-27T10:04:37Z</time>
      </trkpt>
      <trkpt lat="42.063487" lon="2.539265">
        <ele>380.962</ele>
        <time>2021-05-27T10:04:38Z</time>
      </trkpt>
      <trkpt lat="42.063517" lon="2.539283">
        <ele>381.008</ele>
        <time>2021-05-27T10:04:40Z</time>
      </trkpt>
      <trkpt lat="42.063543" lon="2.539303">
        <ele>381.008</ele>
        <time>2021-05-27T10:04:41Z</time>
      </trkpt>
      <trkpt lat="42.063566" lon="2.539324">
        <ele>381.049</ele>
        <time>2021-05-27T10:04:44Z</time>
      </trkpt>
      <trkpt lat="42.063597" lon="2.539342">
        <ele>381.016</ele>
        <time>2021-05-27T10:04:46Z</time>
      </trkpt>
      <trkpt lat="42.063622" lon="2.539362">
        <ele>380.954</ele>
        <time>2021-05-27T10:04:48Z</time>
      </trkpt>
      <trkpt lat="42.063641" lon="2.539386">
        <ele>380.864</ele>
        <time>2021-05-27T10:04:49Z</time>
      </trkpt>
      <trkpt lat="42.063660" lon="2.539409">
        <ele>380.761</ele>
        <time>2021-05-27T10:04:51Z</time>
      </trkpt>
      <trkpt lat="42.063680" lon="2.539432">
        <ele>380.616</ele>
        <time>2021-05-27T10:04:53Z</time>
      </trkpt>
      <trkpt lat="42.063699" lon="2.539456">
        <ele>380.639</ele>
        <time>2021-05-27T10:04:55Z</time>
      </trkpt>
      <trkpt lat="42.063718" lon="2.539482">
        <ele>380.785</ele>
        <time>2021-05-27T10:04:57Z</time>
      </trkpt>
      <trkpt lat="42.063738" lon="2.539509">
        <ele>380.818</ele>
        <time>2021-05-27T10:04:59Z</time>
      </trkpt>
      <trkpt lat="42.063757" lon="2.539535">
        <ele>380.998</ele>
        <time>2021-05-27T10:05:01Z</time>
      </trkpt>
      <trkpt lat="42.063774" lon="2.539560">
        <ele>381.017</ele>
        <time>2021-05-27T10:05:04Z</time>
      </trkpt>
      <trkpt lat="42.063794" lon="2.539582">
        <ele>381.108</ele>
        <time>2021-05-27T10:05:05Z</time>
      </trkpt>
      <trkpt lat="42.063810" lon="2.539609">
        <ele>381.318</ele>
        <time>2021-05-27T10:05:07Z</time>
      </trkpt>
      <trkpt lat="42.063829" lon="2.539633">
        <ele>381.475</ele>
        <time>2021-05-27T10:05:09Z</time>
      </trkpt>
      <trkpt lat="42.063844" lon="2.539658">
        <ele>381.683</ele>
        <time>2021-05-27T10:05:11Z</time>
      </trkpt>
      <trkpt lat="42.063858" lon="2.539683">
        <ele>381.713</ele>
        <time>2021-05-27T10:05:13Z</time>
      </trkpt>
      <trkpt lat="42.063874" lon="2.539711">
        <ele>381.880</ele>
        <time>2021-05-27T10:05:15Z</time>
      </trkpt>
      <trkpt lat="42.063888" lon="2.539739">
        <ele>381.925</ele>
        <time>2021-05-27T10:05:18Z</time>
      </trkpt>
      <trkpt lat="42.063903" lon="2.539767">
        <ele>381.798</ele>
        <time>2021-05-27T10:05:20Z</time>
      </trkpt>
      <trkpt lat="42.063921" lon="2.539793">
        <ele>381.674</ele>
        <time>2021-05-27T10:05:21Z</time>
      </trkpt>
      <trkpt lat="42.063941" lon="2.539817">
        <ele>381.489</ele>
        <time>2021-05-27T10:05:23Z</time>
      </trkpt>
      <trkpt lat="42.063962" lon="2.539839">
        <ele>381.306</ele>
        <time>2021-05-27T10:05:26Z</time>
      </trkpt>
      <trkpt lat="42.063985" lon="2.539859">
        <ele>381.226</ele>
        <time>2021-05-27T10:05:28Z</time>
      </trkpt>
      <trkpt lat="42.064010" lon="2.539875">
        <ele>381.108</ele>
        <time>2021-05-27T10:05:30Z</time>
      </trkpt>
      <trkpt lat="42.064037" lon="2.539881">
        <ele>381.155</ele>
        <time>2021-05-27T10:05:32Z</time>
      </trkpt>
      <trkpt lat="42.064068" lon="2.539877">
        <ele>381.252</ele>
        <time>2021-05-27T10:05:34Z</time>
      </trkpt>
      <trkpt lat="42.064093" lon="2.539860">
        <ele>381.420</ele>
        <time>2021-05-27T10:05:36Z</time>
      </trkpt>
      <trkpt lat="42.064122" lon="2.539838">
        <ele>381.740</ele>
        <time>2021-05-27T10:05:37Z</time>
      </trkpt>
      <trkpt lat="42.064151" lon="2.539819">
        <ele>381.987</ele>
        <time>2021-05-27T10:05:40Z</time>
      </trkpt>
      <trkpt lat="42.064183" lon="2.539808">
        <ele>382.342</ele>
        <time>2021-05-27T10:05:41Z</time>
      </trkpt>
      <trkpt lat="42.064214" lon="2.539796">
        <ele>382.875</ele>
        <time>2021-05-27T10:05:44Z</time>
      </trkpt>
      <trkpt lat="42.064242" lon="2.539784">
        <ele>383.351</ele>
        <time>2021-05-27T10:05:45Z</time>
      </trkpt>
      <trkpt lat="42.064270" lon="2.539777">
        <ele>383.844</ele>
        <time>2021-05-27T10:05:48Z</time>
      </trkpt>
      <trkpt lat="42.064297" lon="2.539774">
        <ele>384.105</ele>
        <time>2021-05-27T10:05:50Z</time>
      </trkpt>
      <trkpt lat="42.064324" lon="2.539770">
        <ele>384.615</ele>
        <time>2021-05-27T10:05:51Z</time>
      </trkpt>
      <trkpt lat="42.064350" lon="2.539768">
        <ele>384.908</ele>
        <time>2021-05-27T10:05:54Z</time>
      </trkpt>
      <trkpt lat="42.064376" lon="2.539768">
        <ele>385.341</ele>
        <time>2021-05-27T10:05:56Z</time>
      </trkpt>
      <trkpt lat="42.064404" lon="2.539771">
        <ele>385.628</ele>
        <time>2021-05-27T10:05:58Z</time>
      </trkpt>
      <trkpt lat="42.064430" lon="2.539775">
        <ele>385.956</ele>
        <time>2021-05-27T10:05:59Z</time>
      </trkpt>
      <trkpt lat="42.064457" lon="2.539782">
        <ele>386.116</ele>
        <time>2021-05-27T10:06:02Z</time>
      </trkpt>
      <trkpt lat="42.064483" lon="2.539790">
        <ele>386.273</ele>
        <time>2021-05-27T10:06:04Z</time>
      </trkpt>
      <trkpt lat="42.064509" lon="2.539799">
        <ele>386.378</ele>
        <time>2021-05-27T10:06:06Z</time>
      </trkpt>
      <trkpt lat="42.064536" lon="2.539811">
        <ele>386.391</ele>
        <time>2021-05-27T10:06:07Z</time>
      </trkpt>
      <trkpt lat="42.064565" lon="2.539826">
        <ele>386.367</ele>
        <time>2021-05-27T10:06:10Z</time>
      </trkpt>
      <trkpt lat="42.064592" lon="2.539841">
        <ele>386.273</ele>
        <time>2021-05-27T10:06:12Z</time>
      </trkpt>
      <trkpt lat="42.064620" lon="2.539857">
        <ele>386.285</ele>
        <time>2021-05-27T10:06:14Z</time>
      </trkpt>
      <trkpt lat="42.064648" lon="2.539869">
        <ele>386.213</ele>
        <time>2021-05-27T10:06:15Z</time>
      </trkpt>
      <trkpt lat="42.064676" lon="2.539878">
        <ele>386.208</ele>
        <time>2021-05-27T10:06:17Z</time>
      </trkpt>
      <trkpt lat="42.064704" lon="2.539887">
        <ele>386.354</ele>
        <time>2021-05-27T10:06:20Z</time>
      </trkpt>
      <trkpt lat="42.064731" lon="2.539895">
        <ele>386.461</ele>
        <time>2021-05-27T10:06:22Z</time>
      </trkpt>
      <trkpt lat="42.064758" lon="2.539904">
        <ele>386.519</ele>
        <time>2021-05-27T10:06:24Z</time>
      </trkpt>
      <trkpt lat="42.064785" lon="2.539910">
        <ele>386.719</ele>
        <time>2021-05-27T10:06:26Z</time>
      </trkpt>
      <trkpt lat="42.064812" lon="2.539911">
        <ele>387.026</ele>
        <time>2021-05-27T10:06:28Z</time>
      </trkpt>
      <trkpt lat="42.064839" lon="2.539912">
        <ele>387.391</ele>
        <time>2021-05-27T10:06:30Z</time>
      </trkpt>
      <trkpt lat="42.064868" lon="2.539914">
        <ele>387.694</ele>
        <time>2021-05-27T10:06:32Z</time>
      </trkpt>
      <trkpt lat="42.064898" lon="2.539917">
        <ele>387.960</ele>
        <time>2021-05-27T10:06:34Z</time>
      </trkpt>
      <trkpt lat="42.064928" lon="2.539921">
        <ele>388.293</ele>
        <time>2021-05-27T10:06:36Z</time>
      </trkpt>
      <trkpt lat="42.064959" lon="2.539925">
        <ele>388.665</ele>
        <time>2021-05-27T10:06:38Z</time>
      </trkpt>
      <trkpt lat="42.064991" lon="2.539927">
        <ele>388.921</ele>
        <time>2021-05-27T10:06:40Z</time>
      </trkpt>
      <trkpt lat="42.065025" lon="2.539919">
        <ele>389.208</ele>
        <time>2021-05-27T10:06:42Z</time>
      </trkpt>
      <trkpt lat="42.065055" lon="2.539916">
        <ele>389.436</ele>
        <time>2021-05-27T10:06:44Z</time>
      </trkpt>
      <trkpt lat="42.065086" lon="2.539918">
        <ele>389.543</ele>
        <time>2021-05-27T10:06:46Z</time>
      </trkpt>
      <trkpt lat="42.065116" lon="2.539920">
        <ele>389.531</ele>
        <time>2021-05-27T10:06:48Z</time>
      </trkpt>
      <trkpt lat="42.065146" lon="2.539922">
        <ele>389.681</ele>
        <time>2021-05-27T10:06:50Z</time>
      </trkpt>
      <trkpt lat="42.065172" lon="2.539926">
        <ele>389.618</ele>
        <time>2021-05-27T10:06:52Z</time>
      </trkpt>
      <trkpt lat="42.065196" lon="2.539930">
        <ele>389.553</ele>
        <time>2021-05-27T10:06:54Z</time>
      </trkpt>
      <trkpt lat="42.065220" lon="2.539936">
        <ele>389.526</ele>
        <time>2021-05-27T10:06:56Z</time>
      </trkpt>
      <trkpt lat="42.065247" lon="2.539942">
        <ele>389.422</ele>
        <time>2021-05-27T10:06:58Z</time>
      </trkpt>
      <trkpt lat="42.065269" lon="2.539947">
        <ele>389.321</ele>
        <time>2021-05-27T10:07:00Z</time>
      </trkpt>
      <trkpt lat="42.065295" lon="2.539956">
        <ele>389.441</ele>
        <time>2021-05-27T10:07:02Z</time>
      </trkpt>
      <trkpt lat="42.065321" lon="2.539960">
        <ele>389.705</ele>
        <time>2021-05-27T10:07:04Z</time>
      </trkpt>
      <trkpt lat="42.065346" lon="2.539968">
        <ele>389.908</ele>
        <time>2021-05-27T10:07:06Z</time>
      </trkpt>
      <trkpt lat="42.065372" lon="2.539981">
        <ele>390.119</ele>
        <time>2021-05-27T10:07:08Z</time>
      </trkpt>
      <trkpt lat="42.065398" lon="2.539992">
        <ele>390.386</ele>
        <time>2021-05-27T10:07:10Z</time>
      </trkpt>
      <trkpt lat="42.065423" lon="2.540002">
        <ele>390.694</ele>
        <time>2021-05-27T10:07:12Z</time>
      </trkpt>
      <trkpt lat="42.065449" lon="2.540012">
        <ele>390.984</ele>
        <time>2021-05-27T10:07:14Z</time>
      </trkpt>
      <trkpt lat="42.065476" lon="2.540023">
        <ele>391.241</ele>
        <time>2021-05-27T10:07:16Z</time>
      </trkpt>
      <trkpt lat="42.065500" lon="2.540036">
        <ele>391.456</ele>
        <time>2021-05-27T10:07:18Z</time>
      </trkpt>
      <trkpt lat="42.065527" lon="2.540052">
        <ele>391.699</ele>
        <time>2021-05-27T10:07:20Z</time>
      </trkpt>
      <trkpt lat="42.065551" lon="2.540070">
        <ele>391.775</ele>
        <time>2021-05-27T10:07:22Z</time>
      </trkpt>
      <trkpt lat="42.065576" lon="2.540079">
        <ele>392.035</ele>
        <time>2021-05-27T10:07:23Z</time>
      </trkpt>
      <trkpt lat="42.065602" lon="2.540085">
        <ele>392.586</ele>
        <time>2021-05-27T10:07:26Z</time>
      </trkpt>
      <trkpt lat="42.065626" lon="2.540095">
        <ele>392.914</ele>
        <time>2021-05-27T10:07:27Z</time>
      </trkpt>
      <trkpt lat="42.065650" lon="2.540109">
        <ele>393.308</ele>
        <time>2021-05-27T10:07:29Z</time>
      </trkpt>
      <trkpt lat="42.065674" lon="2.540121">
        <ele>393.730</ele>
        <time>2021-05-27T10:07:31Z</time>
      </trkpt>
      <trkpt lat="42.065697" lon="2.540131">
        <ele>394.127</ele>
        <time>2021-05-27T10:07:34Z</time>
      </trkpt>
      <trkpt lat="42.065719" lon="2.540148">
        <ele>394.525</ele>
        <time>2021-05-27T10:07:36Z</time>
      </trkpt>
      <trkpt lat="42.065741" lon="2.540164">
        <ele>395.075</ele>
        <time>2021-05-27T10:07:37Z</time>
      </trkpt>
      <trkpt lat="42.065763" lon="2.540177">
        <ele>395.542</ele>
        <time>2021-05-27T10:07:39Z</time>
      </trkpt>
      <trkpt lat="42.065782" lon="2.540193">
        <ele>395.927</ele>
        <time>2021-05-27T10:07:41Z</time>
      </trkpt>
      <trkpt lat="42.065799" lon="2.540211">
        <ele>396.240</ele>
        <time>2021-05-27T10:07:44Z</time>
      </trkpt>
      <trkpt lat="42.065814" lon="2.540234">
        <ele>396.626</ele>
        <time>2021-05-27T10:07:46Z</time>
      </trkpt>
      <trkpt lat="42.065830" lon="2.540259">
        <ele>397.053</ele>
        <time>2021-05-27T10:07:48Z</time>
      </trkpt>
      <trkpt lat="42.065845" lon="2.540285">
        <ele>397.304</ele>
        <time>2021-05-27T10:07:49Z</time>
      </trkpt>
      <trkpt lat="42.065860" lon="2.540308">
        <ele>397.614</ele>
        <time>2021-05-27T10:07:52Z</time>
      </trkpt>
      <trkpt lat="42.065874" lon="2.540332">
        <ele>397.808</ele>
        <time>2021-05-27T10:07:54Z</time>
      </trkpt>
      <trkpt lat="42.065888" lon="2.540359">
        <ele>398.092</ele>
        <time>2021-05-27T10:07:56Z</time>
      </trkpt>
      <trkpt lat="42.065903" lon="2.540386">
        <ele>398.339</ele>
        <time>2021-05-27T10:07:58Z</time>
      </trkpt>
      <trkpt lat="42.065918" lon="2.540412">
        <ele>398.587</ele>
        <time>2021-05-27T10:07:59Z</time>
      </trkpt>
      <trkpt lat="42.065932" lon="2.540443">
        <ele>398.727</ele>
        <time>2021-05-27T10:08:01Z</time>
      </trkpt>
      <trkpt lat="42.065945" lon="2.540475">
        <ele>398.874</ele>
        <time>2021-05-27T10:08:03Z</time>
      </trkpt>
      <trkpt lat="42.065958" lon="2.540505">
        <ele>399.079</ele>
        <time>2021-05-27T10:08:05Z</time>
      </trkpt>
      <trkpt lat="42.065973" lon="2.540533">
        <ele>399.142</ele>
        <time>2021-05-27T10:08:08Z</time>
      </trkpt>
      <trkpt lat="42.065986" lon="2.540563">
        <ele>399.348</ele>
        <time>2021-05-27T10:08:10Z</time>
      </trkpt>
      <trkpt lat="42.065999" lon="2.540593">
        <ele>399.659</ele>
        <time>2021-05-27T10:08:12Z</time>
      </trkpt>
      <trkpt lat="42.066014" lon="2.540619">
        <ele>399.903</ele>
        <time>2021-05-27T10:08:14Z</time>
      </trkpt>
      <trkpt lat="42.066029" lon="2.540647">
        <ele>400.223</ele>
        <time>2021-05-27T10:08:16Z</time>
      </trkpt>
      <trkpt lat="42.066042" lon="2.540678">
        <ele>400.508</ele>
        <time>2021-05-27T10:08:18Z</time>
      </trkpt>
      <trkpt lat="42.066056" lon="2.540707">
        <ele>400.842</ele>
        <time>2021-05-27T10:08:20Z</time>
      </trkpt>
      <trkpt lat="42.066070" lon="2.540736">
        <ele>401.169</ele>
        <time>2021-05-27T10:08:22Z</time>
      </trkpt>
      <trkpt lat="42.066083" lon="2.540765">
        <ele>401.467</ele>
        <time>2021-05-27T10:08:24Z</time>
      </trkpt>
      <trkpt lat="42.066095" lon="2.540792">
        <ele>401.737</ele>
        <time>2021-05-27T10:08:25Z</time>
      </trkpt>
      <trkpt lat="42.066108" lon="2.540822">
        <ele>401.974</ele>
        <time>2021-05-27T10:08:28Z</time>
      </trkpt>
      <trkpt lat="42.066121" lon="2.540852">
        <ele>402.119</ele>
        <time>2021-05-27T10:08:30Z</time>
      </trkpt>
      <trkpt lat="42.066138" lon="2.540878">
        <ele>402.452</ele>
        <time>2021-05-27T10:08:32Z</time>
      </trkpt>
      <trkpt lat="42.066153" lon="2.540902">
        <ele>402.658</ele>
        <time>2021-05-27T10:08:33Z</time>
      </trkpt>
      <trkpt lat="42.066165" lon="2.540930">
        <ele>402.882</ele>
        <time>2021-05-27T10:08:35Z</time>
      </trkpt>
      <trkpt lat="42.066179" lon="2.540958">
        <ele>403.043</ele>
        <time>2021-05-27T10:08:38Z</time>
      </trkpt>
      <trkpt lat="42.066192" lon="2.540983">
        <ele>403.217</ele>
        <time>2021-05-27T10:08:40Z</time>
      </trkpt>
      <trkpt lat="42.066207" lon="2.541006">
        <ele>403.408</ele>
        <time>2021-05-27T10:08:42Z</time>
      </trkpt>
      <trkpt lat="42.066221" lon="2.541033">
        <ele>403.645</ele>
        <time>2021-05-27T10:08:44Z</time>
      </trkpt>
      <trkpt lat="42.066234" lon="2.541059">
        <ele>403.882</ele>
        <time>2021-05-27T10:08:45Z</time>
      </trkpt>
      <trkpt lat="42.066246" lon="2.541089">
        <ele>403.930</ele>
        <time>2021-05-27T10:08:48Z</time>
      </trkpt>
      <trkpt lat="42.066258" lon="2.541119">
        <ele>404.110</ele>
        <time>2021-05-27T10:08:49Z</time>
      </trkpt>
      <trkpt lat="42.066273" lon="2.541152">
        <ele>404.377</ele>
        <time>2021-05-27T10:08:51Z</time>
      </trkpt>
      <trkpt lat="42.066288" lon="2.541189">
        <ele>404.582</ele>
        <time>2021-05-27T10:08:54Z</time>
      </trkpt>
      <trkpt lat="42.066299" lon="2.541224">
        <ele>404.765</ele>
        <time>2021-05-27T10:08:56Z</time>
      </trkpt>
      <trkpt lat="42.066312" lon="2.541259">
        <ele>404.921</ele>
        <time>2021-05-27T10:08:58Z</time>
      </trkpt>
      <trkpt lat="42.066325" lon="2.541298">
        <ele>405.136</ele>
        <time>2021-05-27T10:08:59Z</time>
      </trkpt>
      <trkpt lat="42.066337" lon="2.541334">
        <ele>405.317</ele>
        <time>2021-05-27T10:09:02Z</time>
      </trkpt>
      <trkpt lat="42.066346" lon="2.541372">
        <ele>405.418</ele>
        <time>2021-05-27T10:09:04Z</time>
      </trkpt>
      <trkpt lat="42.066355" lon="2.541410">
        <ele>405.408</ele>
        <time>2021-05-27T10:09:06Z</time>
      </trkpt>
      <trkpt lat="42.066360" lon="2.541451">
        <ele>405.480</ele>
        <time>2021-05-27T10:09:07Z</time>
      </trkpt>
      <trkpt lat="42.066364" lon="2.541488">
        <ele>405.397</ele>
        <time>2021-05-27T10:09:10Z</time>
      </trkpt>
      <trkpt lat="42.066372" lon="2.541523">
        <ele>405.385</ele>
        <time>2021-05-27T10:09:12Z</time>
      </trkpt>
      <trkpt lat="42.066386" lon="2.541561">
        <ele>405.325</ele>
        <time>2021-05-27T10:09:14Z</time>
      </trkpt>
      <trkpt lat="42.066394" lon="2.541596">
        <ele>405.262</ele>
        <time>2021-05-27T10:09:15Z</time>
      </trkpt>
      <trkpt lat="42.066414" lon="2.541630">
        <ele>405.067</ele>
        <time>2021-05-27T10:09:17Z</time>
      </trkpt>
      <trkpt lat="42.066441" lon="2.541654">
        <ele>404.970</ele>
        <time>2021-05-27T10:09:20Z</time>
      </trkpt>
      <trkpt lat="42.066471" lon="2.541673">
        <ele>404.746</ele>
        <time>2021-05-27T10:09:22Z</time>
      </trkpt>
      <trkpt lat="42.066500" lon="2.541676">
        <ele>404.653</ele>
        <time>2021-05-27T10:09:23Z</time>
      </trkpt>
      <trkpt lat="42.066523" lon="2.541675">
        <ele>404.504</ele>
        <time>2021-05-27T10:09:26Z</time>
      </trkpt>
      <trkpt lat="42.066550" lon="2.541663">
        <ele>404.414</ele>
        <time>2021-05-27T10:09:27Z</time>
      </trkpt>
      <trkpt lat="42.066576" lon="2.541646">
        <ele>404.408</ele>
        <time>2021-05-27T10:09:29Z</time>
      </trkpt>
      <trkpt lat="42.066601" lon="2.541623">
        <ele>404.492</ele>
        <time>2021-05-27T10:09:31Z</time>
      </trkpt>
      <trkpt lat="42.066622" lon="2.541596">
        <ele>404.459</ele>
        <time>2021-05-27T10:09:34Z</time>
      </trkpt>
      <trkpt lat="42.066642" lon="2.541567">
        <ele>404.427</ele>
        <time>2021-05-27T10:09:36Z</time>
      </trkpt>
      <trkpt lat="42.066661" lon="2.541539">
        <ele>404.597</ele>
        <time>2021-05-27T10:09:37Z</time>
      </trkpt>
      <trkpt lat="42.066677" lon="2.541507">
        <ele>404.274</ele>
        <time>2021-05-27T10:09:40Z</time>
      </trkpt>
      <trkpt lat="42.066692" lon="2.541472">
        <ele>403.869</ele>
        <time>2021-05-27T10:09:42Z</time>
      </trkpt>
      <trkpt lat="42.066707" lon="2.541429">
        <ele>403.432</ele>
        <time>2021-05-27T10:09:44Z</time>
      </trkpt>
      <trkpt lat="42.066716" lon="2.541402">
        <ele>403.238</ele>
        <time>2021-05-27T10:09:45Z</time>
      </trkpt>
      <trkpt lat="42.066726" lon="2.541375">
        <ele>402.998</ele>
        <time>2021-05-27T10:09:46Z</time>
      </trkpt>
      <trkpt lat="42.066748" lon="2.541323">
        <ele>402.515</ele>
        <time>2021-05-27T10:09:47Z</time>
      </trkpt>
      <trkpt lat="42.066761" lon="2.541296">
        <ele>402.326</ele>
        <time>2021-05-27T10:09:48Z</time>
      </trkpt>
      <trkpt lat="42.066776" lon="2.541269">
        <ele>402.008</ele>
        <time>2021-05-27T10:09:50Z</time>
      </trkpt>
      <trkpt lat="42.066790" lon="2.541243">
        <ele>401.826</ele>
        <time>2021-05-27T10:09:51Z</time>
      </trkpt>
      <trkpt lat="42.066816" lon="2.541191">
        <ele>401.583</ele>
        <time>2021-05-27T10:09:52Z</time>
      </trkpt>
      <trkpt lat="42.066829" lon="2.541165">
        <ele>401.421</ele>
        <time>2021-05-27T10:09:54Z</time>
      </trkpt>
      <trkpt lat="42.066841" lon="2.541142">
        <ele>401.391</ele>
        <time>2021-05-27T10:09:55Z</time>
      </trkpt>
      <trkpt lat="42.066855" lon="2.541120">
        <ele>401.288</ele>
        <time>2021-05-27T10:09:56Z</time>
      </trkpt>
      <trkpt lat="42.066874" lon="2.541100">
        <ele>400.953</ele>
        <time>2021-05-27T10:09:57Z</time>
      </trkpt>
      <trkpt lat="42.066889" lon="2.541085">
        <ele>400.776</ele>
        <time>2021-05-27T10:09:58Z</time>
      </trkpt>
      <trkpt lat="42.066909" lon="2.541069">
        <ele>400.582</ele>
        <time>2021-05-27T10:09:59Z</time>
      </trkpt>
      <trkpt lat="42.066927" lon="2.541051">
        <ele>400.381</ele>
        <time>2021-05-27T10:10:00Z</time>
      </trkpt>
      <trkpt lat="42.066948" lon="2.541031">
        <ele>400.061</ele>
        <time>2021-05-27T10:10:01Z</time>
      </trkpt>
      <trkpt lat="42.066970" lon="2.541010">
        <ele>399.617</ele>
        <time>2021-05-27T10:10:02Z</time>
      </trkpt>
      <trkpt lat="42.067013" lon="2.540969">
        <ele>398.708</ele>
        <time>2021-05-27T10:10:03Z</time>
      </trkpt>
      <trkpt lat="42.067033" lon="2.540947">
        <ele>398.315</ele>
        <time>2021-05-27T10:10:04Z</time>
      </trkpt>
      <trkpt lat="42.067050" lon="2.540926">
        <ele>398.022</ele>
        <time>2021-05-27T10:10:06Z</time>
      </trkpt>
      <trkpt lat="42.067067" lon="2.540903">
        <ele>397.750</ele>
        <time>2021-05-27T10:10:07Z</time>
      </trkpt>
      <trkpt lat="42.067081" lon="2.540880">
        <ele>397.580</ele>
        <time>2021-05-27T10:10:08Z</time>
      </trkpt>
      <trkpt lat="42.067093" lon="2.540854">
        <ele>397.477</ele>
        <time>2021-05-27T10:10:09Z</time>
      </trkpt>
      <trkpt lat="42.067107" lon="2.540827">
        <ele>397.252</ele>
        <time>2021-05-27T10:10:10Z</time>
      </trkpt>
      <trkpt lat="42.067120" lon="2.540798">
        <ele>397.055</ele>
        <time>2021-05-27T10:10:11Z</time>
      </trkpt>
      <trkpt lat="42.067133" lon="2.540768">
        <ele>396.891</ele>
        <time>2021-05-27T10:10:12Z</time>
      </trkpt>
      <trkpt lat="42.067146" lon="2.540739">
        <ele>396.531</ele>
        <time>2021-05-27T10:10:13Z</time>
      </trkpt>
      <trkpt lat="42.067166" lon="2.540679">
        <ele>396.261</ele>
        <time>2021-05-27T10:10:14Z</time>
      </trkpt>
      <trkpt lat="42.067173" lon="2.540648">
        <ele>396.207</ele>
        <time>2021-05-27T10:10:16Z</time>
      </trkpt>
      <trkpt lat="42.067188" lon="2.540582">
        <ele>396.208</ele>
        <time>2021-05-27T10:10:17Z</time>
      </trkpt>
      <trkpt lat="42.067199" lon="2.540518">
        <ele>395.990</ele>
        <time>2021-05-27T10:10:19Z</time>
      </trkpt>
      <trkpt lat="42.067204" lon="2.540485">
        <ele>395.797</ele>
        <time>2021-05-27T10:10:21Z</time>
      </trkpt>
      <trkpt lat="42.067204" lon="2.540419">
        <ele>395.745</ele>
        <time>2021-05-27T10:10:22Z</time>
      </trkpt>
      <trkpt lat="42.067201" lon="2.540385">
        <ele>395.875</ele>
        <time>2021-05-27T10:10:24Z</time>
      </trkpt>
      <trkpt lat="42.067197" lon="2.540320">
        <ele>396.052</ele>
        <time>2021-05-27T10:10:25Z</time>
      </trkpt>
      <trkpt lat="42.067196" lon="2.540287">
        <ele>396.037</ele>
        <time>2021-05-27T10:10:27Z</time>
      </trkpt>
      <trkpt lat="42.067198" lon="2.540254">
        <ele>395.960</ele>
        <time>2021-05-27T10:10:28Z</time>
      </trkpt>
      <trkpt lat="42.067202" lon="2.540222">
        <ele>395.686</ele>
        <time>2021-05-27T10:10:29Z</time>
      </trkpt>
      <trkpt lat="42.067204" lon="2.540189">
        <ele>395.318</ele>
        <time>2021-05-27T10:10:30Z</time>
      </trkpt>
      <trkpt lat="42.067208" lon="2.540155">
        <ele>395.198</ele>
        <time>2021-05-27T10:10:31Z</time>
      </trkpt>
      <trkpt lat="42.067215" lon="2.540123">
        <ele>394.717</ele>
        <time>2021-05-27T10:10:32Z</time>
      </trkpt>
      <trkpt lat="42.067235" lon="2.540068">
        <ele>394.008</ele>
        <time>2021-05-27T10:10:34Z</time>
      </trkpt>
      <trkpt lat="42.067246" lon="2.540043">
        <ele>393.758</ele>
        <time>2021-05-27T10:10:35Z</time>
      </trkpt>
      <trkpt lat="42.067260" lon="2.540019">
        <ele>393.425</ele>
        <time>2021-05-27T10:10:36Z</time>
      </trkpt>
      <trkpt lat="42.067277" lon="2.539996">
        <ele>393.173</ele>
        <time>2021-05-27T10:10:37Z</time>
      </trkpt>
      <trkpt lat="42.067295" lon="2.539974">
        <ele>393.243</ele>
        <time>2021-05-27T10:10:38Z</time>
      </trkpt>
      <trkpt lat="42.067318" lon="2.539952">
        <ele>393.130</ele>
        <time>2021-05-27T10:10:39Z</time>
      </trkpt>
      <trkpt lat="42.067362" lon="2.539913">
        <ele>392.745</ele>
        <time>2021-05-27T10:10:40Z</time>
      </trkpt>
      <trkpt lat="42.067385" lon="2.539894">
        <ele>392.538</ele>
        <time>2021-05-27T10:10:42Z</time>
      </trkpt>
      <trkpt lat="42.067431" lon="2.539860">
        <ele>391.844</ele>
        <time>2021-05-27T10:10:43Z</time>
      </trkpt>
      <trkpt lat="42.067454" lon="2.539842">
        <ele>391.392</ele>
        <time>2021-05-27T10:10:45Z</time>
      </trkpt>
      <trkpt lat="42.067474" lon="2.539823">
        <ele>391.073</ele>
        <time>2021-05-27T10:10:46Z</time>
      </trkpt>
      <trkpt lat="42.067495" lon="2.539805">
        <ele>390.520</ele>
        <time>2021-05-27T10:10:47Z</time>
      </trkpt>
      <trkpt lat="42.067515" lon="2.539785">
        <ele>390.408</ele>
        <time>2021-05-27T10:10:48Z</time>
      </trkpt>
      <trkpt lat="42.067535" lon="2.539767">
        <ele>390.316</ele>
        <time>2021-05-27T10:10:49Z</time>
      </trkpt>
      <trkpt lat="42.067555" lon="2.539749">
        <ele>390.293</ele>
        <time>2021-05-27T10:10:50Z</time>
      </trkpt>
      <trkpt lat="42.067595" lon="2.539715">
        <ele>390.181</ele>
        <time>2021-05-27T10:10:51Z</time>
      </trkpt>
      <trkpt lat="42.067612" lon="2.539698">
        <ele>390.161</ele>
        <time>2021-05-27T10:10:53Z</time>
      </trkpt>
      <trkpt lat="42.067648" lon="2.539667">
        <ele>390.288</ele>
        <time>2021-05-27T10:10:54Z</time>
      </trkpt>
      <trkpt lat="42.067669" lon="2.539653">
        <ele>390.233</ele>
        <time>2021-05-27T10:10:55Z</time>
      </trkpt>
      <trkpt lat="42.067691" lon="2.539639">
        <ele>390.186</ele>
        <time>2021-05-27T10:10:57Z</time>
      </trkpt>
      <trkpt lat="42.067712" lon="2.539627">
        <ele>390.112</ele>
        <time>2021-05-27T10:10:58Z</time>
      </trkpt>
      <trkpt lat="42.067733" lon="2.539618">
        <ele>390.054</ele>
        <time>2021-05-27T10:10:59Z</time>
      </trkpt>
      <trkpt lat="42.067756" lon="2.539613">
        <ele>389.856</ele>
        <time>2021-05-27T10:11:00Z</time>
      </trkpt>
      <trkpt lat="42.067800" lon="2.539609">
        <ele>389.811</ele>
        <time>2021-05-27T10:11:01Z</time>
      </trkpt>
      <trkpt lat="42.067822" lon="2.539610">
        <ele>390.008</ele>
        <time>2021-05-27T10:11:02Z</time>
      </trkpt>
      <trkpt lat="42.067844" lon="2.539612">
        <ele>390.162</ele>
        <time>2021-05-27T10:11:03Z</time>
      </trkpt>
      <trkpt lat="42.067862" lon="2.539620">
        <ele>390.219</ele>
        <time>2021-05-27T10:11:05Z</time>
      </trkpt>
      <trkpt lat="42.067880" lon="2.539630">
        <ele>390.277</ele>
        <time>2021-05-27T10:11:06Z</time>
      </trkpt>
      <trkpt lat="42.067900" lon="2.539643">
        <ele>390.277</ele>
        <time>2021-05-27T10:11:07Z</time>
      </trkpt>
      <trkpt lat="42.067920" lon="2.539657">
        <ele>390.264</ele>
        <time>2021-05-27T10:11:08Z</time>
      </trkpt>
      <trkpt lat="42.067960" lon="2.539686">
        <ele>390.379</ele>
        <time>2021-05-27T10:11:09Z</time>
      </trkpt>
      <trkpt lat="42.067977" lon="2.539703">
        <ele>390.312</ele>
        <time>2021-05-27T10:11:10Z</time>
      </trkpt>
      <trkpt lat="42.067992" lon="2.539728">
        <ele>390.388</ele>
        <time>2021-05-27T10:11:11Z</time>
      </trkpt>
      <trkpt lat="42.068008" lon="2.539752">
        <ele>390.339</ele>
        <time>2021-05-27T10:11:13Z</time>
      </trkpt>
      <trkpt lat="42.068023" lon="2.539775">
        <ele>390.301</ele>
        <time>2021-05-27T10:11:14Z</time>
      </trkpt>
      <trkpt lat="42.068036" lon="2.539801">
        <ele>390.221</ele>
        <time>2021-05-27T10:11:15Z</time>
      </trkpt>
      <trkpt lat="42.068049" lon="2.539830">
        <ele>390.208</ele>
        <time>2021-05-27T10:11:16Z</time>
      </trkpt>
      <trkpt lat="42.068060" lon="2.539855">
        <ele>390.180</ele>
        <time>2021-05-27T10:11:17Z</time>
      </trkpt>
      <trkpt lat="42.068071" lon="2.539882">
        <ele>390.027</ele>
        <time>2021-05-27T10:11:18Z</time>
      </trkpt>
      <trkpt lat="42.068082" lon="2.539908">
        <ele>390.055</ele>
        <time>2021-05-27T10:11:19Z</time>
      </trkpt>
      <trkpt lat="42.068094" lon="2.539934">
        <ele>390.015</ele>
        <time>2021-05-27T10:11:20Z</time>
      </trkpt>
      <trkpt lat="42.068110" lon="2.539954">
        <ele>390.162</ele>
        <time>2021-05-27T10:11:21Z</time>
      </trkpt>
      <trkpt lat="42.068122" lon="2.539976">
        <ele>390.177</ele>
        <time>2021-05-27T10:11:22Z</time>
      </trkpt>
      <trkpt lat="42.068135" lon="2.540000">
        <ele>390.190</ele>
        <time>2021-05-27T10:11:23Z</time>
      </trkpt>
      <trkpt lat="42.068149" lon="2.540025">
        <ele>390.246</ele>
        <time>2021-05-27T10:11:24Z</time>
      </trkpt>
      <trkpt lat="42.068180" lon="2.540076">
        <ele>390.255</ele>
        <time>2021-05-27T10:11:25Z</time>
      </trkpt>
      <trkpt lat="42.068198" lon="2.540099">
        <ele>390.307</ele>
        <time>2021-05-27T10:11:26Z</time>
      </trkpt>
      <trkpt lat="42.068216" lon="2.540123">
        <ele>390.417</ele>
        <time>2021-05-27T10:11:27Z</time>
      </trkpt>
      <trkpt lat="42.068231" lon="2.540147">
        <ele>390.508</ele>
        <time>2021-05-27T10:11:29Z</time>
      </trkpt>
      <trkpt lat="42.068245" lon="2.540174">
        <ele>390.592</ele>
        <time>2021-05-27T10:11:30Z</time>
      </trkpt>
      <trkpt lat="42.068263" lon="2.540199">
        <ele>390.639</ele>
        <time>2021-05-27T10:11:31Z</time>
      </trkpt>
      <trkpt lat="42.068282" lon="2.540223">
        <ele>390.737</ele>
        <time>2021-05-27T10:11:32Z</time>
      </trkpt>
      <trkpt lat="42.068302" lon="2.540248">
        <ele>390.837</ele>
        <time>2021-05-27T10:11:33Z</time>
      </trkpt>
      <trkpt lat="42.068323" lon="2.540271">
        <ele>390.994</ele>
        <time>2021-05-27T10:11:34Z</time>
      </trkpt>
      <trkpt lat="42.068345" lon="2.540293">
        <ele>391.199</ele>
        <time>2021-05-27T10:11:35Z</time>
      </trkpt>
      <trkpt lat="42.068365" lon="2.540316">
        <ele>391.272</ele>
        <time>2021-05-27T10:11:36Z</time>
      </trkpt>
      <trkpt lat="42.068384" lon="2.540337">
        <ele>391.368</ele>
        <time>2021-05-27T10:11:37Z</time>
      </trkpt>
      <trkpt lat="42.068402" lon="2.540359">
        <ele>391.334</ele>
        <time>2021-05-27T10:11:38Z</time>
      </trkpt>
      <trkpt lat="42.068437" lon="2.540404">
        <ele>391.355</ele>
        <time>2021-05-27T10:11:39Z</time>
      </trkpt>
      <trkpt lat="42.068455" lon="2.540423">
        <ele>391.310</ele>
        <time>2021-05-27T10:11:40Z</time>
      </trkpt>
      <trkpt lat="42.068472" lon="2.540442">
        <ele>391.308</ele>
        <time>2021-05-27T10:11:41Z</time>
      </trkpt>
      <trkpt lat="42.068510" lon="2.540473">
        <ele>391.310</ele>
        <time>2021-05-27T10:11:43Z</time>
      </trkpt>
      <trkpt lat="42.068527" lon="2.540492">
        <ele>391.237</ele>
        <time>2021-05-27T10:11:45Z</time>
      </trkpt>
      <trkpt lat="42.068542" lon="2.540512">
        <ele>391.175</ele>
        <time>2021-05-27T10:11:46Z</time>
      </trkpt>
      <trkpt lat="42.068559" lon="2.540533">
        <ele>391.065</ele>
        <time>2021-05-27T10:11:47Z</time>
      </trkpt>
      <trkpt lat="42.068576" lon="2.540551">
        <ele>390.962</ele>
        <time>2021-05-27T10:11:48Z</time>
      </trkpt>
      <trkpt lat="42.068595" lon="2.540567">
        <ele>390.957</ele>
        <time>2021-05-27T10:11:49Z</time>
      </trkpt>
      <trkpt lat="42.068611" lon="2.540589">
        <ele>390.820</ele>
        <time>2021-05-27T10:11:50Z</time>
      </trkpt>
      <trkpt lat="42.068629" lon="2.540605">
        <ele>390.716</ele>
        <time>2021-05-27T10:11:51Z</time>
      </trkpt>
      <trkpt lat="42.068648" lon="2.540618">
        <ele>390.592</ele>
        <time>2021-05-27T10:11:52Z</time>
      </trkpt>
      <trkpt lat="42.068666" lon="2.540630">
        <ele>390.473</ele>
        <time>2021-05-27T10:11:53Z</time>
      </trkpt>
      <trkpt lat="42.068684" lon="2.540640">
        <ele>390.320</ele>
        <time>2021-05-27T10:11:54Z</time>
      </trkpt>
      <trkpt lat="42.068726" lon="2.540656">
        <ele>389.908</ele>
        <time>2021-05-27T10:11:55Z</time>
      </trkpt>
      <trkpt lat="42.068747" lon="2.540659">
        <ele>389.886</ele>
        <time>2021-05-27T10:11:56Z</time>
      </trkpt>
      <trkpt lat="42.068768" lon="2.540659">
        <ele>389.813</ele>
        <time>2021-05-27T10:11:58Z</time>
      </trkpt>
      <trkpt lat="42.068807" lon="2.540656">
        <ele>389.771</ele>
        <time>2021-05-27T10:11:59Z</time>
      </trkpt>
      <trkpt lat="42.068825" lon="2.540648">
        <ele>389.851</ele>
        <time>2021-05-27T10:12:01Z</time>
      </trkpt>
      <trkpt lat="42.068845" lon="2.540634">
        <ele>390.188</ele>
        <time>2021-05-27T10:12:02Z</time>
      </trkpt>
      <trkpt lat="42.068888" lon="2.540610">
        <ele>390.673</ele>
        <time>2021-05-27T10:12:03Z</time>
      </trkpt>
      <trkpt lat="42.068907" lon="2.540602">
        <ele>390.536</ele>
        <time>2021-05-27T10:12:04Z</time>
      </trkpt>
      <trkpt lat="42.068928" lon="2.540592">
        <ele>390.362</ele>
        <time>2021-05-27T10:12:05Z</time>
      </trkpt>
      <trkpt lat="42.068950" lon="2.540582">
        <ele>390.289</ele>
        <time>2021-05-27T10:12:07Z</time>
      </trkpt>
      <trkpt lat="42.068970" lon="2.540571">
        <ele>390.106</ele>
        <time>2021-05-27T10:12:08Z</time>
      </trkpt>
      <trkpt lat="42.068987" lon="2.540558">
        <ele>390.226</ele>
        <time>2021-05-27T10:12:09Z</time>
      </trkpt>
      <trkpt lat="42.069006" lon="2.540545">
        <ele>390.108</ele>
        <time>2021-05-27T10:12:10Z</time>
      </trkpt>
      <trkpt lat="42.069027" lon="2.540529">
        <ele>390.165</ele>
        <time>2021-05-27T10:12:11Z</time>
      </trkpt>
      <trkpt lat="42.069046" lon="2.540515">
        <ele>390.132</ele>
        <time>2021-05-27T10:12:12Z</time>
      </trkpt>
      <trkpt lat="42.069068" lon="2.540499">
        <ele>390.190</ele>
        <time>2021-05-27T10:12:13Z</time>
      </trkpt>
      <trkpt lat="42.069084" lon="2.540485">
        <ele>390.190</ele>
        <time>2021-05-27T10:12:14Z</time>
      </trkpt>
      <trkpt lat="42.069104" lon="2.540468">
        <ele>390.247</ele>
        <time>2021-05-27T10:12:15Z</time>
      </trkpt>
      <trkpt lat="42.069122" lon="2.540447">
        <ele>390.462</ele>
        <time>2021-05-27T10:12:16Z</time>
      </trkpt>
      <trkpt lat="42.069139" lon="2.540428">
        <ele>390.695</ele>
        <time>2021-05-27T10:12:17Z</time>
      </trkpt>
      <trkpt lat="42.069158" lon="2.540412">
        <ele>390.731</ele>
        <time>2021-05-27T10:12:18Z</time>
      </trkpt>
      <trkpt lat="42.069174" lon="2.540395">
        <ele>390.966</ele>
        <time>2021-05-27T10:12:19Z</time>
      </trkpt>
      <trkpt lat="42.069193" lon="2.540380">
        <ele>390.929</ele>
        <time>2021-05-27T10:12:20Z</time>
      </trkpt>
      <trkpt lat="42.069210" lon="2.540364">
        <ele>390.921</ele>
        <time>2021-05-27T10:12:21Z</time>
      </trkpt>
      <trkpt lat="42.069229" lon="2.540346">
        <ele>390.908</ele>
        <time>2021-05-27T10:12:22Z</time>
      </trkpt>
      <trkpt lat="42.069247" lon="2.540328">
        <ele>391.043</ele>
        <time>2021-05-27T10:12:23Z</time>
      </trkpt>
      <trkpt lat="42.069266" lon="2.540311">
        <ele>391.050</ele>
        <time>2021-05-27T10:12:24Z</time>
      </trkpt>
      <trkpt lat="42.069285" lon="2.540296">
        <ele>391.018</ele>
        <time>2021-05-27T10:12:25Z</time>
      </trkpt>
      <trkpt lat="42.069303" lon="2.540282">
        <ele>390.958</ele>
        <time>2021-05-27T10:12:26Z</time>
      </trkpt>
      <trkpt lat="42.069342" lon="2.540249">
        <ele>391.145</ele>
        <time>2021-05-27T10:12:27Z</time>
      </trkpt>
      <trkpt lat="42.069362" lon="2.540234">
        <ele>391.160</ele>
        <time>2021-05-27T10:12:28Z</time>
      </trkpt>
      <trkpt lat="42.069383" lon="2.540220">
        <ele>391.183</ele>
        <time>2021-05-27T10:12:29Z</time>
      </trkpt>
      <trkpt lat="42.069401" lon="2.540207">
        <ele>391.259</ele>
        <time>2021-05-27T10:12:30Z</time>
      </trkpt>
      <trkpt lat="42.069418" lon="2.540193">
        <ele>391.364</ele>
        <time>2021-05-27T10:12:31Z</time>
      </trkpt>
      <trkpt lat="42.069437" lon="2.540179">
        <ele>391.306</ele>
        <time>2021-05-27T10:12:32Z</time>
      </trkpt>
      <trkpt lat="42.069455" lon="2.540167">
        <ele>391.516</ele>
        <time>2021-05-27T10:12:33Z</time>
      </trkpt>
      <trkpt lat="42.069472" lon="2.540154">
        <ele>391.708</ele>
        <time>2021-05-27T10:12:34Z</time>
      </trkpt>
      <trkpt lat="42.069489" lon="2.540139">
        <ele>391.943</ele>
        <time>2021-05-27T10:12:35Z</time>
      </trkpt>
      <trkpt lat="42.069506" lon="2.540126">
        <ele>392.170</ele>
        <time>2021-05-27T10:12:36Z</time>
      </trkpt>
      <trkpt lat="42.069524" lon="2.540113">
        <ele>392.358</ele>
        <time>2021-05-27T10:12:37Z</time>
      </trkpt>
      <trkpt lat="42.069545" lon="2.540100">
        <ele>392.448</ele>
        <time>2021-05-27T10:12:38Z</time>
      </trkpt>
      <trkpt lat="42.069563" lon="2.540089">
        <ele>392.595</ele>
        <time>2021-05-27T10:12:39Z</time>
      </trkpt>
      <trkpt lat="42.069581" lon="2.540079">
        <ele>392.680</ele>
        <time>2021-05-27T10:12:40Z</time>
      </trkpt>
      <trkpt lat="42.069603" lon="2.540068">
        <ele>392.793</ele>
        <time>2021-05-27T10:12:41Z</time>
      </trkpt>
      <trkpt lat="42.069621" lon="2.540056">
        <ele>392.829</ele>
        <time>2021-05-27T10:12:42Z</time>
      </trkpt>
      <trkpt lat="42.069639" lon="2.540042">
        <ele>392.968</ele>
        <time>2021-05-27T10:12:43Z</time>
      </trkpt>
      <trkpt lat="42.069657" lon="2.540028">
        <ele>393.142</ele>
        <time>2021-05-27T10:12:45Z</time>
      </trkpt>
      <trkpt lat="42.069675" lon="2.540015">
        <ele>393.226</ele>
        <time>2021-05-27T10:12:46Z</time>
      </trkpt>
      <trkpt lat="42.069693" lon="2.540001">
        <ele>393.408</ele>
        <time>2021-05-27T10:12:47Z</time>
      </trkpt>
      <trkpt lat="42.069711" lon="2.539988">
        <ele>393.573</ele>
        <time>2021-05-27T10:12:48Z</time>
      </trkpt>
      <trkpt lat="42.069733" lon="2.539976">
        <ele>393.540</ele>
        <time>2021-05-27T10:12:49Z</time>
      </trkpt>
      <trkpt lat="42.069753" lon="2.539966">
        <ele>393.438</ele>
        <time>2021-05-27T10:12:50Z</time>
      </trkpt>
      <trkpt lat="42.069771" lon="2.539956">
        <ele>393.328</ele>
        <time>2021-05-27T10:12:51Z</time>
      </trkpt>
      <trkpt lat="42.069791" lon="2.539944">
        <ele>393.325</ele>
        <time>2021-05-27T10:12:52Z</time>
      </trkpt>
      <trkpt lat="42.069808" lon="2.539929">
        <ele>393.380</ele>
        <time>2021-05-27T10:12:53Z</time>
      </trkpt>
      <trkpt lat="42.069822" lon="2.539914">
        <ele>393.553</ele>
        <time>2021-05-27T10:12:54Z</time>
      </trkpt>
      <trkpt lat="42.069840" lon="2.539899">
        <ele>393.539</ele>
        <time>2021-05-27T10:12:55Z</time>
      </trkpt>
      <trkpt lat="42.069859" lon="2.539886">
        <ele>393.414</ele>
        <time>2021-05-27T10:12:56Z</time>
      </trkpt>
      <trkpt lat="42.069892" lon="2.539861">
        <ele>393.354</ele>
        <time>2021-05-27T10:12:58Z</time>
      </trkpt>
      <trkpt lat="42.069911" lon="2.539850">
        <ele>393.209</ele>
        <time>2021-05-27T10:12:59Z</time>
      </trkpt>
      <trkpt lat="42.069928" lon="2.539839">
        <ele>393.108</ele>
        <time>2021-05-27T10:13:00Z</time>
      </trkpt>
      <trkpt lat="42.069948" lon="2.539826">
        <ele>392.998</ele>
        <time>2021-05-27T10:13:01Z</time>
      </trkpt>
      <trkpt lat="42.069967" lon="2.539810">
        <ele>392.965</ele>
        <time>2021-05-27T10:13:02Z</time>
      </trkpt>
      <trkpt lat="42.069982" lon="2.539793">
        <ele>392.953</ele>
        <time>2021-05-27T10:13:03Z</time>
      </trkpt>
      <trkpt lat="42.070010" lon="2.539767">
        <ele>392.983</ele>
        <time>2021-05-27T10:13:05Z</time>
      </trkpt>
      <trkpt lat="42.070025" lon="2.539753">
        <ele>392.980</ele>
        <time>2021-05-27T10:13:06Z</time>
      </trkpt>
      <trkpt lat="42.070039" lon="2.539737">
        <ele>393.075</ele>
        <time>2021-05-27T10:13:07Z</time>
      </trkpt>
      <trkpt lat="42.070054" lon="2.539718">
        <ele>393.118</ele>
        <time>2021-05-27T10:13:08Z</time>
      </trkpt>
      <trkpt lat="42.070068" lon="2.539700">
        <ele>393.244</ele>
        <time>2021-05-27T10:13:09Z</time>
      </trkpt>
      <trkpt lat="42.070084" lon="2.539684">
        <ele>393.174</ele>
        <time>2021-05-27T10:13:10Z</time>
      </trkpt>
      <trkpt lat="42.070101" lon="2.539672">
        <ele>393.056</ele>
        <time>2021-05-27T10:13:11Z</time>
      </trkpt>
      <trkpt lat="42.070133" lon="2.539652">
        <ele>392.721</ele>
        <time>2021-05-27T10:13:13Z</time>
      </trkpt>
      <trkpt lat="42.070187" lon="2.539618">
        <ele>392.308</ele>
        <time>2021-05-27T10:13:15Z</time>
      </trkpt>
      <trkpt lat="42.070209" lon="2.539606">
        <ele>392.014</ele>
        <time>2021-05-27T10:13:17Z</time>
      </trkpt>
      <trkpt lat="42.070233" lon="2.539595">
        <ele>391.741</ele>
        <time>2021-05-27T10:13:18Z</time>
      </trkpt>
      <trkpt lat="42.070256" lon="2.539581">
        <ele>391.539</ele>
        <time>2021-05-27T10:13:19Z</time>
      </trkpt>
      <trkpt lat="42.070277" lon="2.539572">
        <ele>391.279</ele>
        <time>2021-05-27T10:13:20Z</time>
      </trkpt>
      <trkpt lat="42.070300" lon="2.539569">
        <ele>391.316</ele>
        <time>2021-05-27T10:13:21Z</time>
      </trkpt>
      <trkpt lat="42.070318" lon="2.539564">
        <ele>391.521</ele>
        <time>2021-05-27T10:13:22Z</time>
      </trkpt>
      <trkpt lat="42.070339" lon="2.539562">
        <ele>391.654</ele>
        <time>2021-05-27T10:13:23Z</time>
      </trkpt>
      <trkpt lat="42.070385" lon="2.539560">
        <ele>391.810</ele>
        <time>2021-05-27T10:13:24Z</time>
      </trkpt>
      <trkpt lat="42.070406" lon="2.539564">
        <ele>391.941</ele>
        <time>2021-05-27T10:13:25Z</time>
      </trkpt>
      <trkpt lat="42.070434" lon="2.539569">
        <ele>392.081</ele>
        <time>2021-05-27T10:13:27Z</time>
      </trkpt>
      <trkpt lat="42.070463" lon="2.539574">
        <ele>392.109</ele>
        <time>2021-05-27T10:13:28Z</time>
      </trkpt>
      <trkpt lat="42.070488" lon="2.539582">
        <ele>392.108</ele>
        <time>2021-05-27T10:13:29Z</time>
      </trkpt>
      <trkpt lat="42.070511" lon="2.539590">
        <ele>392.281</ele>
        <time>2021-05-27T10:13:30Z</time>
      </trkpt>
      <trkpt lat="42.070529" lon="2.539597">
        <ele>392.338</ele>
        <time>2021-05-27T10:13:31Z</time>
      </trkpt>
      <trkpt lat="42.070550" lon="2.539610">
        <ele>392.486</ele>
        <time>2021-05-27T10:13:32Z</time>
      </trkpt>
      <trkpt lat="42.070569" lon="2.539623">
        <ele>392.446</ele>
        <time>2021-05-27T10:13:33Z</time>
      </trkpt>
      <trkpt lat="42.070602" lon="2.539651">
        <ele>392.343</ele>
        <time>2021-05-27T10:13:34Z</time>
      </trkpt>
      <trkpt lat="42.070618" lon="2.539669">
        <ele>392.368</ele>
        <time>2021-05-27T10:13:36Z</time>
      </trkpt>
      <trkpt lat="42.070638" lon="2.539686">
        <ele>392.251</ele>
        <time>2021-05-27T10:13:37Z</time>
      </trkpt>
      <trkpt lat="42.070664" lon="2.539704">
        <ele>392.127</ele>
        <time>2021-05-27T10:13:38Z</time>
      </trkpt>
      <trkpt lat="42.070685" lon="2.539720">
        <ele>392.069</ele>
        <time>2021-05-27T10:13:39Z</time>
      </trkpt>
      <trkpt lat="42.070706" lon="2.539737">
        <ele>391.904</ele>
        <time>2021-05-27T10:13:40Z</time>
      </trkpt>
      <trkpt lat="42.070725" lon="2.539750">
        <ele>391.924</ele>
        <time>2021-05-27T10:13:41Z</time>
      </trkpt>
      <trkpt lat="42.070765" lon="2.539771">
        <ele>391.808</ele>
        <time>2021-05-27T10:13:42Z</time>
      </trkpt>
      <trkpt lat="42.070784" lon="2.539777">
        <ele>391.833</ele>
        <time>2021-05-27T10:13:44Z</time>
      </trkpt>
      <trkpt lat="42.070802" lon="2.539786">
        <ele>391.730</ele>
        <time>2021-05-27T10:13:45Z</time>
      </trkpt>
      <trkpt lat="42.070820" lon="2.539795">
        <ele>391.748</ele>
        <time>2021-05-27T10:13:46Z</time>
      </trkpt>
      <trkpt lat="42.070860" lon="2.539807">
        <ele>391.628</ele>
        <time>2021-05-27T10:13:47Z</time>
      </trkpt>
      <trkpt lat="42.070916" lon="2.539832">
        <ele>391.435</ele>
        <time>2021-05-27T10:13:50Z</time>
      </trkpt>
      <trkpt lat="42.070933" lon="2.539842">
        <ele>391.310</ele>
        <time>2021-05-27T10:13:51Z</time>
      </trkpt>
      <trkpt lat="42.070951" lon="2.539855">
        <ele>391.123</ele>
        <time>2021-05-27T10:13:53Z</time>
      </trkpt>
      <trkpt lat="42.070969" lon="2.539871">
        <ele>390.949</ele>
        <time>2021-05-27T10:13:54Z</time>
      </trkpt>
      <trkpt lat="42.070989" lon="2.539886">
        <ele>390.887</ele>
        <time>2021-05-27T10:13:55Z</time>
      </trkpt>
      <trkpt lat="42.071034" lon="2.539909">
        <ele>390.442</ele>
        <time>2021-05-27T10:13:56Z</time>
      </trkpt>
      <trkpt lat="42.071056" lon="2.539918">
        <ele>390.226</ele>
        <time>2021-05-27T10:13:58Z</time>
      </trkpt>
      <trkpt lat="42.071075" lon="2.539926">
        <ele>390.008</ele>
        <time>2021-05-27T10:13:59Z</time>
      </trkpt>
      <trkpt lat="42.071102" lon="2.539929">
        <ele>389.875</ele>
        <time>2021-05-27T10:14:00Z</time>
      </trkpt>
      <trkpt lat="42.071150" lon="2.539938">
        <ele>389.552</ele>
        <time>2021-05-27T10:14:01Z</time>
      </trkpt>
      <trkpt lat="42.071170" lon="2.539942">
        <ele>389.320</ele>
        <time>2021-05-27T10:14:02Z</time>
      </trkpt>
      <trkpt lat="42.071190" lon="2.539942">
        <ele>389.280</ele>
        <time>2021-05-27T10:14:03Z</time>
      </trkpt>
      <trkpt lat="42.071227" lon="2.539942">
        <ele>389.097</ele>
        <time>2021-05-27T10:14:05Z</time>
      </trkpt>
      <trkpt lat="42.071250" lon="2.539942">
        <ele>388.892</ele>
        <time>2021-05-27T10:14:06Z</time>
      </trkpt>
      <trkpt lat="42.071271" lon="2.539951">
        <ele>388.695</ele>
        <time>2021-05-27T10:14:07Z</time>
      </trkpt>
      <trkpt lat="42.071292" lon="2.539961">
        <ele>388.361</ele>
        <time>2021-05-27T10:14:08Z</time>
      </trkpt>
      <trkpt lat="42.071312" lon="2.539972">
        <ele>388.089</ele>
        <time>2021-05-27T10:14:09Z</time>
      </trkpt>
      <trkpt lat="42.071347" lon="2.539991">
        <ele>387.506</ele>
        <time>2021-05-27T10:14:11Z</time>
      </trkpt>
      <trkpt lat="42.071376" lon="2.540012">
        <ele>386.926</ele>
        <time>2021-05-27T10:14:13Z</time>
      </trkpt>
      <trkpt lat="42.071400" lon="2.540030">
        <ele>386.708</ele>
        <time>2021-05-27T10:14:15Z</time>
      </trkpt>
      <trkpt lat="42.071424" lon="2.540040">
        <ele>386.935</ele>
        <time>2021-05-27T10:14:17Z</time>
      </trkpt>
      <trkpt lat="42.071446" lon="2.540062">
        <ele>386.942</ele>
        <time>2021-05-27T10:14:20Z</time>
      </trkpt>
      <trkpt lat="42.071471" lon="2.540077">
        <ele>387.160</ele>
        <time>2021-05-27T10:14:22Z</time>
      </trkpt>
      <trkpt lat="42.071496" lon="2.540085">
        <ele>387.430</ele>
        <time>2021-05-27T10:14:24Z</time>
      </trkpt>
      <trkpt lat="42.071520" lon="2.540091">
        <ele>387.737</ele>
        <time>2021-05-27T10:14:26Z</time>
      </trkpt>
      <trkpt lat="42.071544" lon="2.540100">
        <ele>388.092</ele>
        <time>2021-05-27T10:14:28Z</time>
      </trkpt>
      <trkpt lat="42.071572" lon="2.540115">
        <ele>388.275</ele>
        <time>2021-05-27T10:14:31Z</time>
      </trkpt>
      <trkpt lat="42.071598" lon="2.540123">
        <ele>388.661</ele>
        <time>2021-05-27T10:14:33Z</time>
      </trkpt>
      <trkpt lat="42.071696" lon="2.540163">
        <ele>389.593</ele>
        <time>2021-05-27T10:14:39Z</time>
      </trkpt>
      <trkpt lat="42.071732" lon="2.540173">
        <ele>389.865</ele>
        <time>2021-05-27T10:14:41Z</time>
      </trkpt>
      <trkpt lat="42.071761" lon="2.540177">
        <ele>390.221</ele>
        <time>2021-05-27T10:14:43Z</time>
      </trkpt>
      <trkpt lat="42.071791" lon="2.540177">
        <ele>390.608</ele>
        <time>2021-05-27T10:14:45Z</time>
      </trkpt>
      <trkpt lat="42.071818" lon="2.540182">
        <ele>390.936</ele>
        <time>2021-05-27T10:14:47Z</time>
      </trkpt>
      <trkpt lat="42.071849" lon="2.540194">
        <ele>391.183</ele>
        <time>2021-05-27T10:14:50Z</time>
      </trkpt>
      <trkpt lat="42.071896" lon="2.540204">
        <ele>391.681</ele>
        <time>2021-05-27T10:14:54Z</time>
      </trkpt>
      <trkpt lat="42.071955" lon="2.540212">
        <ele>392.491</ele>
        <time>2021-05-27T10:14:59Z</time>
      </trkpt>
      <trkpt lat="42.071986" lon="2.540215">
        <ele>392.948</ele>
        <time>2021-05-27T10:15:00Z</time>
      </trkpt>
      <trkpt lat="42.072010" lon="2.540220">
        <ele>393.283</ele>
        <time>2021-05-27T10:15:02Z</time>
      </trkpt>
      <trkpt lat="42.072046" lon="2.540232">
        <ele>393.726</ele>
        <time>2021-05-27T10:15:04Z</time>
      </trkpt>
      <trkpt lat="42.072088" lon="2.540237">
        <ele>394.322</ele>
        <time>2021-05-27T10:15:07Z</time>
      </trkpt>
      <trkpt lat="42.072111" lon="2.540239">
        <ele>394.794</ele>
        <time>2021-05-27T10:15:09Z</time>
      </trkpt>
      <trkpt lat="42.072208" lon="2.540293">
        <ele>395.457</ele>
        <time>2021-05-27T10:15:17Z</time>
      </trkpt>
      <trkpt lat="42.072232" lon="2.540314">
        <ele>395.322</ele>
        <time>2021-05-27T10:15:20Z</time>
      </trkpt>
      <trkpt lat="42.072251" lon="2.540332">
        <ele>395.308</ele>
        <time>2021-05-27T10:15:22Z</time>
      </trkpt>
      <trkpt lat="42.072273" lon="2.540348">
        <ele>395.486</ele>
        <time>2021-05-27T10:15:24Z</time>
      </trkpt>
      <trkpt lat="42.072297" lon="2.540360">
        <ele>395.643</ele>
        <time>2021-05-27T10:15:26Z</time>
      </trkpt>
      <trkpt lat="42.072316" lon="2.540376">
        <ele>395.731</ele>
        <time>2021-05-27T10:15:28Z</time>
      </trkpt>
      <trkpt lat="42.072334" lon="2.540402">
        <ele>395.581</ele>
        <time>2021-05-27T10:15:30Z</time>
      </trkpt>
      <trkpt lat="42.072354" lon="2.540420">
        <ele>395.518</ele>
        <time>2021-05-27T10:15:32Z</time>
      </trkpt>
      <trkpt lat="42.072410" lon="2.540453">
        <ele>396.163</ele>
        <time>2021-05-27T10:15:37Z</time>
      </trkpt>
      <trkpt lat="42.072429" lon="2.540467">
        <ele>396.256</ele>
        <time>2021-05-27T10:15:39Z</time>
      </trkpt>
      <trkpt lat="42.072450" lon="2.540484">
        <ele>396.382</ele>
        <time>2021-05-27T10:15:41Z</time>
      </trkpt>
      <trkpt lat="42.072469" lon="2.540501">
        <ele>396.423</ele>
        <time>2021-05-27T10:15:43Z</time>
      </trkpt>
      <trkpt lat="42.072496" lon="2.540516">
        <ele>396.883</ele>
        <time>2021-05-27T10:15:45Z</time>
      </trkpt>
      <trkpt lat="42.072529" lon="2.540523">
        <ele>397.211</ele>
        <time>2021-05-27T10:15:47Z</time>
      </trkpt>
      <trkpt lat="42.072561" lon="2.540530">
        <ele>397.608</ele>
        <time>2021-05-27T10:15:49Z</time>
      </trkpt>
      <trkpt lat="42.072585" lon="2.540539">
        <ele>397.939</ele>
        <time>2021-05-27T10:15:50Z</time>
      </trkpt>
      <trkpt lat="42.072604" lon="2.540545">
        <ele>398.176</ele>
        <time>2021-05-27T10:15:53Z</time>
      </trkpt>
      <trkpt lat="42.072627" lon="2.540556">
        <ele>398.394</ele>
        <time>2021-05-27T10:15:55Z</time>
      </trkpt>
      <trkpt lat="42.072650" lon="2.540560">
        <ele>398.674</ele>
        <time>2021-05-27T10:15:56Z</time>
      </trkpt>
      <trkpt lat="42.072678" lon="2.540561">
        <ele>399.131</ele>
        <time>2021-05-27T10:15:59Z</time>
      </trkpt>
      <trkpt lat="42.072709" lon="2.540567">
        <ele>399.666</ele>
        <time>2021-05-27T10:16:01Z</time>
      </trkpt>
      <trkpt lat="42.072736" lon="2.540574">
        <ele>400.029</ele>
        <time>2021-05-27T10:16:02Z</time>
      </trkpt>
      <trkpt lat="42.072757" lon="2.540579">
        <ele>400.395</ele>
        <time>2021-05-27T10:16:04Z</time>
      </trkpt>
      <trkpt lat="42.072778" lon="2.540581">
        <ele>400.613</ele>
        <time>2021-05-27T10:16:07Z</time>
      </trkpt>
      <trkpt lat="42.072802" lon="2.540580">
        <ele>400.843</ele>
        <time>2021-05-27T10:16:09Z</time>
      </trkpt>
      <trkpt lat="42.072824" lon="2.540582">
        <ele>400.907</ele>
        <time>2021-05-27T10:16:10Z</time>
      </trkpt>
      <trkpt lat="42.072853" lon="2.540578">
        <ele>401.108</ele>
        <time>2021-05-27T10:16:12Z</time>
      </trkpt>
      <trkpt lat="42.072886" lon="2.540564">
        <ele>401.448</ele>
        <time>2021-05-27T10:16:15Z</time>
      </trkpt>
      <trkpt lat="42.072915" lon="2.540557">
        <ele>401.595</ele>
        <time>2021-05-27T10:16:16Z</time>
      </trkpt>
      <trkpt lat="42.072936" lon="2.540547">
        <ele>401.773</ele>
        <time>2021-05-27T10:16:19Z</time>
      </trkpt>
      <trkpt lat="42.072960" lon="2.540535">
        <ele>402.173</ele>
        <time>2021-05-27T10:16:22Z</time>
      </trkpt>
      <trkpt lat="42.072983" lon="2.540515">
        <ele>402.550</ele>
        <time>2021-05-27T10:16:24Z</time>
      </trkpt>
      <trkpt lat="42.073000" lon="2.540505">
        <ele>402.735</ele>
        <time>2021-05-27T10:16:25Z</time>
      </trkpt>
      <trkpt lat="42.073016" lon="2.540495">
        <ele>403.018</ele>
        <time>2021-05-27T10:16:26Z</time>
      </trkpt>
      <trkpt lat="42.073043" lon="2.540476">
        <ele>403.454</ele>
        <time>2021-05-27T10:16:27Z</time>
      </trkpt>
      <trkpt lat="42.073070" lon="2.540458">
        <ele>403.848</ele>
        <time>2021-05-27T10:16:30Z</time>
      </trkpt>
      <trkpt lat="42.073092" lon="2.540437">
        <ele>404.161</ele>
        <time>2021-05-27T10:16:32Z</time>
      </trkpt>
      <trkpt lat="42.073116" lon="2.540416">
        <ele>404.317</ele>
        <time>2021-05-27T10:16:34Z</time>
      </trkpt>
      <trkpt lat="42.073141" lon="2.540394">
        <ele>404.408</ele>
        <time>2021-05-27T10:16:35Z</time>
      </trkpt>
      <trkpt lat="42.073165" lon="2.540377">
        <ele>404.581</ele>
        <time>2021-05-27T10:16:37Z</time>
      </trkpt>
      <trkpt lat="42.073182" lon="2.540360">
        <ele>404.588</ele>
        <time>2021-05-27T10:16:40Z</time>
      </trkpt>
      <trkpt lat="42.073203" lon="2.540346">
        <ele>404.436</ele>
        <time>2021-05-27T10:16:42Z</time>
      </trkpt>
      <trkpt lat="42.073223" lon="2.540331">
        <ele>404.376</ele>
        <time>2021-05-27T10:16:43Z</time>
      </trkpt>
      <trkpt lat="42.073248" lon="2.540322">
        <ele>404.123</ele>
        <time>2021-05-27T10:16:45Z</time>
      </trkpt>
      <trkpt lat="42.073274" lon="2.540322">
        <ele>403.818</ele>
        <time>2021-05-27T10:16:48Z</time>
      </trkpt>
      <trkpt lat="42.073300" lon="2.540324">
        <ele>403.581</ele>
        <time>2021-05-27T10:16:50Z</time>
      </trkpt>
      <trkpt lat="42.073326" lon="2.540327">
        <ele>403.317</ele>
        <time>2021-05-27T10:16:51Z</time>
      </trkpt>
      <trkpt lat="42.073353" lon="2.540337">
        <ele>403.579</ele>
        <time>2021-05-27T10:16:53Z</time>
      </trkpt>
      <trkpt lat="42.073382" lon="2.540349">
        <ele>403.805</ele>
        <time>2021-05-27T10:16:55Z</time>
      </trkpt>
      <trkpt lat="42.073412" lon="2.540357">
        <ele>404.225</ele>
        <time>2021-05-27T10:16:58Z</time>
      </trkpt>
      <trkpt lat="42.073436" lon="2.540372">
        <ele>404.408</ele>
        <time>2021-05-27T10:17:00Z</time>
      </trkpt>
      <trkpt lat="42.073461" lon="2.540394">
        <ele>404.774</ele>
        <time>2021-05-27T10:17:02Z</time>
      </trkpt>
      <trkpt lat="42.073489" lon="2.540408">
        <ele>404.951</ele>
        <time>2021-05-27T10:17:03Z</time>
      </trkpt>
      <trkpt lat="42.073510" lon="2.540431">
        <ele>405.019</ele>
        <time>2021-05-27T10:17:06Z</time>
      </trkpt>
      <trkpt lat="42.073522" lon="2.540456">
        <ele>405.169</ele>
        <time>2021-05-27T10:17:08Z</time>
      </trkpt>
      <trkpt lat="42.073537" lon="2.540475">
        <ele>405.146</ele>
        <time>2021-05-27T10:17:10Z</time>
      </trkpt>
      <trkpt lat="42.073557" lon="2.540508">
        <ele>405.011</ele>
        <time>2021-05-27T10:17:13Z</time>
      </trkpt>
      <trkpt lat="42.073583" lon="2.540532">
        <ele>405.034</ele>
        <time>2021-05-27T10:17:14Z</time>
      </trkpt>
      <trkpt lat="42.073606" lon="2.540553">
        <ele>405.080</ele>
        <time>2021-05-27T10:17:16Z</time>
      </trkpt>
      <trkpt lat="42.073623" lon="2.540574">
        <ele>405.395</ele>
        <time>2021-05-27T10:17:19Z</time>
      </trkpt>
      <trkpt lat="42.073648" lon="2.540597">
        <ele>405.949</ele>
        <time>2021-05-27T10:17:21Z</time>
      </trkpt>
      <trkpt lat="42.073669" lon="2.540627">
        <ele>406.423</ele>
        <time>2021-05-27T10:17:22Z</time>
      </trkpt>
      <trkpt lat="42.073685" lon="2.540656">
        <ele>406.808</ele>
        <time>2021-05-27T10:17:24Z</time>
      </trkpt>
      <trkpt lat="42.073703" lon="2.540687">
        <ele>407.136</ele>
        <time>2021-05-27T10:17:26Z</time>
      </trkpt>
      <trkpt lat="42.073722" lon="2.540717">
        <ele>407.593</ele>
        <time>2021-05-27T10:17:29Z</time>
      </trkpt>
      <trkpt lat="42.073738" lon="2.540752">
        <ele>407.771</ele>
        <time>2021-05-27T10:17:31Z</time>
      </trkpt>
      <trkpt lat="42.073753" lon="2.540790">
        <ele>407.971</ele>
        <time>2021-05-27T10:17:33Z</time>
      </trkpt>
      <trkpt lat="42.073771" lon="2.540824">
        <ele>408.198</ele>
        <time>2021-05-27T10:17:34Z</time>
      </trkpt>
      <trkpt lat="42.073792" lon="2.540856">
        <ele>408.363</ele>
        <time>2021-05-27T10:17:36Z</time>
      </trkpt>
      <trkpt lat="42.073812" lon="2.540891">
        <ele>408.416</ele>
        <time>2021-05-27T10:17:39Z</time>
      </trkpt>
      <trkpt lat="42.073833" lon="2.540923">
        <ele>408.442</ele>
        <time>2021-05-27T10:17:41Z</time>
      </trkpt>
      <trkpt lat="42.073853" lon="2.540954">
        <ele>408.466</ele>
        <time>2021-05-27T10:17:43Z</time>
      </trkpt>
      <trkpt lat="42.073871" lon="2.540987">
        <ele>408.429</ele>
        <time>2021-05-27T10:17:44Z</time>
      </trkpt>
      <trkpt lat="42.073894" lon="2.541020">
        <ele>408.421</ele>
        <time>2021-05-27T10:17:46Z</time>
      </trkpt>
      <trkpt lat="42.073914" lon="2.541046">
        <ele>408.708</ele>
        <time>2021-05-27T10:17:49Z</time>
      </trkpt>
      <trkpt lat="42.073933" lon="2.541072">
        <ele>408.963</ele>
        <time>2021-05-27T10:17:50Z</time>
      </trkpt>
      <trkpt lat="42.073951" lon="2.541098">
        <ele>409.260</ele>
        <time>2021-05-27T10:17:53Z</time>
      </trkpt>
      <trkpt lat="42.073971" lon="2.541122">
        <ele>409.658</ele>
        <time>2021-05-27T10:17:55Z</time>
      </trkpt>
      <trkpt lat="42.073992" lon="2.541150">
        <ele>410.238</ele>
        <time>2021-05-27T10:17:57Z</time>
      </trkpt>
      <trkpt lat="42.074011" lon="2.541172">
        <ele>410.735</ele>
        <time>2021-05-27T10:17:59Z</time>
      </trkpt>
      <trkpt lat="42.074030" lon="2.541197">
        <ele>411.170</ele>
        <time>2021-05-27T10:18:01Z</time>
      </trkpt>
      <trkpt lat="42.074056" lon="2.541216">
        <ele>411.673</ele>
        <time>2021-05-27T10:18:03Z</time>
      </trkpt>
      <trkpt lat="42.074081" lon="2.541232">
        <ele>412.019</ele>
        <time>2021-05-27T10:18:04Z</time>
      </trkpt>
      <trkpt lat="42.074106" lon="2.541244">
        <ele>412.382</ele>
        <time>2021-05-27T10:18:07Z</time>
      </trkpt>
      <trkpt lat="42.074131" lon="2.541258">
        <ele>412.643</ele>
        <time>2021-05-27T10:18:08Z</time>
      </trkpt>
      <trkpt lat="42.074155" lon="2.541274">
        <ele>412.917</ele>
        <time>2021-05-27T10:18:10Z</time>
      </trkpt>
      <trkpt lat="42.074177" lon="2.541291">
        <ele>413.008</ele>
        <time>2021-05-27T10:18:12Z</time>
      </trkpt>
      <trkpt lat="42.074199" lon="2.541304">
        <ele>413.175</ele>
        <time>2021-05-27T10:18:14Z</time>
      </trkpt>
      <trkpt lat="42.074221" lon="2.541318">
        <ele>413.262</ele>
        <time>2021-05-27T10:18:16Z</time>
      </trkpt>
      <trkpt lat="42.074243" lon="2.541334">
        <ele>413.320</ele>
        <time>2021-05-27T10:18:18Z</time>
      </trkpt>
      <trkpt lat="42.074267" lon="2.541349">
        <ele>413.470</ele>
        <time>2021-05-27T10:18:20Z</time>
      </trkpt>
      <trkpt lat="42.074296" lon="2.541364">
        <ele>413.537</ele>
        <time>2021-05-27T10:18:22Z</time>
      </trkpt>
      <trkpt lat="42.074325" lon="2.541374">
        <ele>413.692</ele>
        <time>2021-05-27T10:18:24Z</time>
      </trkpt>
      <trkpt lat="42.074350" lon="2.541384">
        <ele>413.795</ele>
        <time>2021-05-27T10:18:27Z</time>
      </trkpt>
      <trkpt lat="42.074376" lon="2.541398">
        <ele>413.791</ele>
        <time>2021-05-27T10:18:28Z</time>
      </trkpt>
      <trkpt lat="42.074398" lon="2.541418">
        <ele>413.677</ele>
        <time>2021-05-27T10:18:30Z</time>
      </trkpt>
      <trkpt lat="42.074421" lon="2.541434">
        <ele>413.561</ele>
        <time>2021-05-27T10:18:32Z</time>
      </trkpt>
      <trkpt lat="42.074448" lon="2.541447">
        <ele>413.427</ele>
        <time>2021-05-27T10:18:34Z</time>
      </trkpt>
      <trkpt lat="42.074474" lon="2.541456">
        <ele>413.408</ele>
        <time>2021-05-27T10:18:36Z</time>
      </trkpt>
      <trkpt lat="42.074500" lon="2.541467">
        <ele>413.374</ele>
        <time>2021-05-27T10:18:38Z</time>
      </trkpt>
      <trkpt lat="42.074522" lon="2.541485">
        <ele>413.041</ele>
        <time>2021-05-27T10:18:40Z</time>
      </trkpt>
      <trkpt lat="42.074547" lon="2.541495">
        <ele>412.919</ele>
        <time>2021-05-27T10:18:43Z</time>
      </trkpt>
      <trkpt lat="42.074574" lon="2.541504">
        <ele>412.769</ele>
        <time>2021-05-27T10:18:44Z</time>
      </trkpt>
      <trkpt lat="42.074597" lon="2.541516">
        <ele>412.596</ele>
        <time>2021-05-27T10:18:47Z</time>
      </trkpt>
      <trkpt lat="42.074622" lon="2.541530">
        <ele>412.121</ele>
        <time>2021-05-27T10:18:49Z</time>
      </trkpt>
      <trkpt lat="42.074647" lon="2.541543">
        <ele>411.824</ele>
        <time>2021-05-27T10:18:51Z</time>
      </trkpt>
      <trkpt lat="42.074670" lon="2.541553">
        <ele>411.510</ele>
        <time>2021-05-27T10:18:53Z</time>
      </trkpt>
      <trkpt lat="42.074694" lon="2.541565">
        <ele>411.024</ele>
        <time>2021-05-27T10:18:55Z</time>
      </trkpt>
      <trkpt lat="42.074720" lon="2.541574">
        <ele>410.704</ele>
        <time>2021-05-27T10:18:57Z</time>
      </trkpt>
      <trkpt lat="42.074741" lon="2.541579">
        <ele>410.914</ele>
        <time>2021-05-27T10:18:59Z</time>
      </trkpt>
      <trkpt lat="42.074765" lon="2.541589">
        <ele>411.208</ele>
        <time>2021-05-27T10:19:01Z</time>
      </trkpt>
      <trkpt lat="42.074794" lon="2.541601">
        <ele>411.589</ele>
        <time>2021-05-27T10:19:03Z</time>
      </trkpt>
      <trkpt lat="42.074824" lon="2.541616">
        <ele>411.986</ele>
        <time>2021-05-27T10:19:04Z</time>
      </trkpt>
      <trkpt lat="42.074851" lon="2.541630">
        <ele>412.354</ele>
        <time>2021-05-27T10:19:06Z</time>
      </trkpt>
      <trkpt lat="42.074880" lon="2.541649">
        <ele>412.814</ele>
        <time>2021-05-27T10:19:08Z</time>
      </trkpt>
      <trkpt lat="42.074904" lon="2.541673">
        <ele>413.061</ele>
        <time>2021-05-27T10:19:10Z</time>
      </trkpt>
      <trkpt lat="42.074924" lon="2.541699">
        <ele>412.876</ele>
        <time>2021-05-27T10:19:12Z</time>
      </trkpt>
      <trkpt lat="42.074943" lon="2.541725">
        <ele>412.669</ele>
        <time>2021-05-27T10:19:14Z</time>
      </trkpt>
      <trkpt lat="42.074963" lon="2.541751">
        <ele>412.545</ele>
        <time>2021-05-27T10:19:16Z</time>
      </trkpt>
      <trkpt lat="42.074981" lon="2.541775">
        <ele>412.315</ele>
        <time>2021-05-27T10:19:19Z</time>
      </trkpt>
      <trkpt lat="42.075000" lon="2.541800">
        <ele>412.265</ele>
        <time>2021-05-27T10:19:20Z</time>
      </trkpt>
      <trkpt lat="42.075020" lon="2.541824">
        <ele>412.011</ele>
        <time>2021-05-27T10:19:23Z</time>
      </trkpt>
      <trkpt lat="42.075049" lon="2.541850">
        <ele>412.208</ele>
        <time>2021-05-27T10:19:24Z</time>
      </trkpt>
      <trkpt lat="42.075074" lon="2.541878">
        <ele>412.338</ele>
        <time>2021-05-27T10:19:27Z</time>
      </trkpt>
      <trkpt lat="42.075093" lon="2.541907">
        <ele>412.415</ele>
        <time>2021-05-27T10:19:29Z</time>
      </trkpt>
      <trkpt lat="42.075115" lon="2.541938">
        <ele>412.773</ele>
        <time>2021-05-27T10:19:30Z</time>
      </trkpt>
      <trkpt lat="42.075140" lon="2.541966">
        <ele>413.143</ele>
        <time>2021-05-27T10:19:32Z</time>
      </trkpt>
      <trkpt lat="42.075165" lon="2.541994">
        <ele>413.660</ele>
        <time>2021-05-27T10:19:34Z</time>
      </trkpt>
      <trkpt lat="42.075188" lon="2.542024">
        <ele>414.015</ele>
        <time>2021-05-27T10:19:37Z</time>
      </trkpt>
      <trkpt lat="42.075211" lon="2.542052">
        <ele>414.598</ele>
        <time>2021-05-27T10:19:39Z</time>
      </trkpt>
      <trkpt lat="42.075235" lon="2.542077">
        <ele>415.264</ele>
        <time>2021-05-27T10:19:40Z</time>
      </trkpt>
      <trkpt lat="42.075257" lon="2.542102">
        <ele>415.861</ele>
        <time>2021-05-27T10:19:43Z</time>
      </trkpt>
      <trkpt lat="42.075282" lon="2.542125">
        <ele>416.421</ele>
        <time>2021-05-27T10:19:45Z</time>
      </trkpt>
      <trkpt lat="42.075305" lon="2.542144">
        <ele>416.413</ele>
        <time>2021-05-27T10:19:47Z</time>
      </trkpt>
      <trkpt lat="42.075331" lon="2.542158">
        <ele>416.608</ele>
        <time>2021-05-27T10:19:49Z</time>
      </trkpt>
      <trkpt lat="42.075359" lon="2.542166">
        <ele>416.833</ele>
        <time>2021-05-27T10:19:50Z</time>
      </trkpt>
      <trkpt lat="42.075384" lon="2.542163">
        <ele>417.190</ele>
        <time>2021-05-27T10:19:53Z</time>
      </trkpt>
      <trkpt lat="42.075409" lon="2.542150">
        <ele>417.668</ele>
        <time>2021-05-27T10:19:55Z</time>
      </trkpt>
      <trkpt lat="42.075434" lon="2.542136">
        <ele>418.098</ele>
        <time>2021-05-27T10:19:57Z</time>
      </trkpt>
      <trkpt lat="42.075462" lon="2.542118">
        <ele>418.495</ele>
        <time>2021-05-27T10:19:59Z</time>
      </trkpt>
      <trkpt lat="42.075488" lon="2.542095">
        <ele>418.810</ele>
        <time>2021-05-27T10:20:01Z</time>
      </trkpt>
      <trkpt lat="42.075510" lon="2.542072">
        <ele>419.223</ele>
        <time>2021-05-27T10:20:03Z</time>
      </trkpt>
      <trkpt lat="42.075534" lon="2.542047">
        <ele>419.599</ele>
        <time>2021-05-27T10:20:05Z</time>
      </trkpt>
      <trkpt lat="42.075556" lon="2.542023">
        <ele>419.784</ele>
        <time>2021-05-27T10:20:07Z</time>
      </trkpt>
      <trkpt lat="42.075580" lon="2.541999">
        <ele>419.807</ele>
        <time>2021-05-27T10:20:08Z</time>
      </trkpt>
      <trkpt lat="42.075606" lon="2.541980">
        <ele>419.917</ele>
        <time>2021-05-27T10:20:10Z</time>
      </trkpt>
      <trkpt lat="42.075635" lon="2.541958">
        <ele>420.008</ele>
        <time>2021-05-27T10:20:12Z</time>
      </trkpt>
      <trkpt lat="42.075659" lon="2.541938">
        <ele>420.035</ele>
        <time>2021-05-27T10:20:15Z</time>
      </trkpt>
      <trkpt lat="42.075683" lon="2.541919">
        <ele>420.172</ele>
        <time>2021-05-27T10:20:17Z</time>
      </trkpt>
      <trkpt lat="42.075708" lon="2.541903">
        <ele>420.250</ele>
        <time>2021-05-27T10:20:19Z</time>
      </trkpt>
      <trkpt lat="42.075735" lon="2.541887">
        <ele>420.490</ele>
        <time>2021-05-27T10:20:21Z</time>
      </trkpt>
      <trkpt lat="42.075761" lon="2.541872">
        <ele>420.687</ele>
        <time>2021-05-27T10:20:23Z</time>
      </trkpt>
      <trkpt lat="42.075789" lon="2.541859">
        <ele>420.882</ele>
        <time>2021-05-27T10:20:25Z</time>
      </trkpt>
      <trkpt lat="42.075820" lon="2.541848">
        <ele>421.085</ele>
        <time>2021-05-27T10:20:27Z</time>
      </trkpt>
      <trkpt lat="42.075849" lon="2.541838">
        <ele>421.311</ele>
        <time>2021-05-27T10:20:28Z</time>
      </trkpt>
      <trkpt lat="42.075877" lon="2.541832">
        <ele>421.621</ele>
        <time>2021-05-27T10:20:31Z</time>
      </trkpt>
      <trkpt lat="42.075905" lon="2.541831">
        <ele>421.841</ele>
        <time>2021-05-27T10:20:33Z</time>
      </trkpt>
      <trkpt lat="42.075934" lon="2.541834">
        <ele>422.005</ele>
        <time>2021-05-27T10:20:35Z</time>
      </trkpt>
      <trkpt lat="42.075967" lon="2.541837">
        <ele>422.208</ele>
        <time>2021-05-27T10:20:37Z</time>
      </trkpt>
      <trkpt lat="42.075997" lon="2.541838">
        <ele>422.429</ele>
        <time>2021-05-27T10:20:39Z</time>
      </trkpt>
      <trkpt lat="42.076034" lon="2.541838">
        <ele>422.746</ele>
        <time>2021-05-27T10:20:40Z</time>
      </trkpt>
      <trkpt lat="42.076063" lon="2.541840">
        <ele>422.934</ele>
        <time>2021-05-27T10:20:43Z</time>
      </trkpt>
      <trkpt lat="42.076090" lon="2.541846">
        <ele>423.074</ele>
        <time>2021-05-27T10:20:45Z</time>
      </trkpt>
      <trkpt lat="42.076118" lon="2.541851">
        <ele>423.091</ele>
        <time>2021-05-27T10:20:47Z</time>
      </trkpt>
      <trkpt lat="42.076147" lon="2.541857">
        <ele>422.836</ele>
        <time>2021-05-27T10:20:49Z</time>
      </trkpt>
      <trkpt lat="42.076180" lon="2.541860">
        <ele>422.679</ele>
        <time>2021-05-27T10:20:51Z</time>
      </trkpt>
      <trkpt lat="42.076211" lon="2.541857">
        <ele>422.535</ele>
        <time>2021-05-27T10:20:53Z</time>
      </trkpt>
      <trkpt lat="42.076238" lon="2.541846">
        <ele>422.686</ele>
        <time>2021-05-27T10:20:55Z</time>
      </trkpt>
      <trkpt lat="42.076262" lon="2.541837">
        <ele>422.760</ele>
        <time>2021-05-27T10:20:57Z</time>
      </trkpt>
      <trkpt lat="42.076284" lon="2.541824">
        <ele>422.826</ele>
        <time>2021-05-27T10:20:59Z</time>
      </trkpt>
      <trkpt lat="42.076307" lon="2.541803">
        <ele>423.008</ele>
        <time>2021-05-27T10:21:00Z</time>
      </trkpt>
      <trkpt lat="42.076331" lon="2.541778">
        <ele>423.225</ele>
        <time>2021-05-27T10:21:03Z</time>
      </trkpt>
      <trkpt lat="42.076355" lon="2.541755">
        <ele>423.392</ele>
        <time>2021-05-27T10:21:05Z</time>
      </trkpt>
      <trkpt lat="42.076380" lon="2.541732">
        <ele>423.470</ele>
        <time>2021-05-27T10:21:07Z</time>
      </trkpt>
      <trkpt lat="42.076405" lon="2.541710">
        <ele>423.450</ele>
        <time>2021-05-27T10:21:09Z</time>
      </trkpt>
      <trkpt lat="42.076429" lon="2.541685">
        <ele>423.527</ele>
        <time>2021-05-27T10:21:11Z</time>
      </trkpt>
      <trkpt lat="42.076454" lon="2.541665">
        <ele>423.662</ele>
        <time>2021-05-27T10:21:13Z</time>
      </trkpt>
      <trkpt lat="42.076480" lon="2.541649">
        <ele>423.925</ele>
        <time>2021-05-27T10:21:15Z</time>
      </trkpt>
      <trkpt lat="42.076507" lon="2.541634">
        <ele>424.121</ele>
        <time>2021-05-27T10:21:17Z</time>
      </trkpt>
      <trkpt lat="42.076534" lon="2.541624">
        <ele>424.243</ele>
        <time>2021-05-27T10:21:18Z</time>
      </trkpt>
      <trkpt lat="42.076562" lon="2.541614">
        <ele>424.264</ele>
        <time>2021-05-27T10:21:21Z</time>
      </trkpt>
      <trkpt lat="42.076589" lon="2.541606">
        <ele>424.210</ele>
        <time>2021-05-27T10:21:23Z</time>
      </trkpt>
      <trkpt lat="42.076617" lon="2.541597">
        <ele>424.208</ele>
        <time>2021-05-27T10:21:25Z</time>
      </trkpt>
      <trkpt lat="42.076645" lon="2.541587">
        <ele>424.261</ele>
        <time>2021-05-27T10:21:27Z</time>
      </trkpt>
      <trkpt lat="42.076674" lon="2.541578">
        <ele>424.218</ele>
        <time>2021-05-27T10:21:29Z</time>
      </trkpt>
      <trkpt lat="42.076702" lon="2.541569">
        <ele>424.356</ele>
        <time>2021-05-27T10:21:31Z</time>
      </trkpt>
      <trkpt lat="42.076730" lon="2.541560">
        <ele>424.386</ele>
        <time>2021-05-27T10:21:33Z</time>
      </trkpt>
      <trkpt lat="42.076757" lon="2.541552">
        <ele>424.453</ele>
        <time>2021-05-27T10:21:35Z</time>
      </trkpt>
      <trkpt lat="42.076785" lon="2.541545">
        <ele>424.358</ele>
        <time>2021-05-27T10:21:37Z</time>
      </trkpt>
      <trkpt lat="42.076808" lon="2.541539">
        <ele>424.331</ele>
        <time>2021-05-27T10:21:39Z</time>
      </trkpt>
      <trkpt lat="42.076833" lon="2.541527">
        <ele>424.327</ele>
        <time>2021-05-27T10:21:41Z</time>
      </trkpt>
      <trkpt lat="42.076857" lon="2.541519">
        <ele>424.343</ele>
        <time>2021-05-27T10:21:43Z</time>
      </trkpt>
      <trkpt lat="42.076883" lon="2.541511">
        <ele>424.264</ele>
        <time>2021-05-27T10:21:45Z</time>
      </trkpt>
      <trkpt lat="42.076911" lon="2.541501">
        <ele>424.110</ele>
        <time>2021-05-27T10:21:47Z</time>
      </trkpt>
      <trkpt lat="42.076935" lon="2.541487">
        <ele>424.008</ele>
        <time>2021-05-27T10:21:49Z</time>
      </trkpt>
      <trkpt lat="42.076959" lon="2.541470">
        <ele>424.221</ele>
        <time>2021-05-27T10:21:51Z</time>
      </trkpt>
      <trkpt lat="42.076988" lon="2.541458">
        <ele>424.358</ele>
        <time>2021-05-27T10:21:53Z</time>
      </trkpt>
      <trkpt lat="42.077030" lon="2.541445">
        <ele>424.576</ele>
        <time>2021-05-27T10:21:56Z</time>
      </trkpt>
      <trkpt lat="42.077057" lon="2.541435">
        <ele>424.616</ele>
        <time>2021-05-27T10:21:58Z</time>
      </trkpt>
      <trkpt lat="42.077083" lon="2.541430">
        <ele>424.783</ele>
        <time>2021-05-27T10:22:00Z</time>
      </trkpt>
      <trkpt lat="42.077111" lon="2.541420">
        <ele>424.868</ele>
        <time>2021-05-27T10:22:01Z</time>
      </trkpt>
      <trkpt lat="42.077133" lon="2.541409">
        <ele>424.911</ele>
        <time>2021-05-27T10:22:03Z</time>
      </trkpt>
      <trkpt lat="42.077160" lon="2.541400">
        <ele>424.917</ele>
        <time>2021-05-27T10:22:06Z</time>
      </trkpt>
      <trkpt lat="42.077183" lon="2.541395">
        <ele>425.075</ele>
        <time>2021-05-27T10:22:08Z</time>
      </trkpt>
      <trkpt lat="42.077204" lon="2.541394">
        <ele>425.028</ele>
        <time>2021-05-27T10:22:10Z</time>
      </trkpt>
      <trkpt lat="42.077236" lon="2.541395">
        <ele>425.120</ele>
        <time>2021-05-27T10:22:12Z</time>
      </trkpt>
      <trkpt lat="42.077267" lon="2.541392">
        <ele>425.508</ele>
        <time>2021-05-27T10:22:14Z</time>
      </trkpt>
      <trkpt lat="42.077295" lon="2.541386">
        <ele>425.824</ele>
        <time>2021-05-27T10:22:15Z</time>
      </trkpt>
      <trkpt lat="42.077321" lon="2.541384">
        <ele>426.151</ele>
        <time>2021-05-27T10:22:18Z</time>
      </trkpt>
      <trkpt lat="42.077341" lon="2.541381">
        <ele>426.479</ele>
        <time>2021-05-27T10:22:20Z</time>
      </trkpt>
      <trkpt lat="42.077364" lon="2.541380">
        <ele>426.689</ele>
        <time>2021-05-27T10:22:22Z</time>
      </trkpt>
      <trkpt lat="42.077386" lon="2.541378">
        <ele>426.956</ele>
        <time>2021-05-27T10:22:23Z</time>
      </trkpt>
      <trkpt lat="42.077412" lon="2.541380">
        <ele>427.271</ele>
        <time>2021-05-27T10:22:26Z</time>
      </trkpt>
      <trkpt lat="42.077437" lon="2.541386">
        <ele>427.454</ele>
        <time>2021-05-27T10:22:28Z</time>
      </trkpt>
      <trkpt lat="42.077465" lon="2.541395">
        <ele>427.610</ele>
        <time>2021-05-27T10:22:30Z</time>
      </trkpt>
      <trkpt lat="42.077493" lon="2.541405">
        <ele>427.855</ele>
        <time>2021-05-27T10:22:31Z</time>
      </trkpt>
      <trkpt lat="42.077519" lon="2.541416">
        <ele>428.207</ele>
        <time>2021-05-27T10:22:34Z</time>
      </trkpt>
      <trkpt lat="42.077552" lon="2.541430">
        <ele>428.817</ele>
        <time>2021-05-27T10:22:36Z</time>
      </trkpt>
      <trkpt lat="42.077581" lon="2.541445">
        <ele>429.208</ele>
        <time>2021-05-27T10:22:37Z</time>
      </trkpt>
      <trkpt lat="42.077603" lon="2.541466">
        <ele>429.572</ele>
        <time>2021-05-27T10:22:40Z</time>
      </trkpt>
      <trkpt lat="42.077622" lon="2.541488">
        <ele>429.639</ele>
        <time>2021-05-27T10:22:42Z</time>
      </trkpt>
      <trkpt lat="42.077642" lon="2.541510">
        <ele>429.777</ele>
        <time>2021-05-27T10:22:44Z</time>
      </trkpt>
      <trkpt lat="42.077663" lon="2.541530">
        <ele>429.947</ele>
        <time>2021-05-27T10:22:45Z</time>
      </trkpt>
      <trkpt lat="42.077683" lon="2.541554">
        <ele>430.054</ele>
        <time>2021-05-27T10:22:48Z</time>
      </trkpt>
      <trkpt lat="42.077701" lon="2.541578">
        <ele>430.069</ele>
        <time>2021-05-27T10:22:49Z</time>
      </trkpt>
      <trkpt lat="42.077719" lon="2.541597">
        <ele>430.122</ele>
        <time>2021-05-27T10:22:51Z</time>
      </trkpt>
      <trkpt lat="42.077737" lon="2.541617">
        <ele>430.198</ele>
        <time>2021-05-27T10:22:53Z</time>
      </trkpt>
      <trkpt lat="42.077757" lon="2.541635">
        <ele>430.132</ele>
        <time>2021-05-27T10:22:56Z</time>
      </trkpt>
      <trkpt lat="42.077776" lon="2.541653">
        <ele>430.292</ele>
        <time>2021-05-27T10:22:58Z</time>
      </trkpt>
      <trkpt lat="42.077795" lon="2.541669">
        <ele>430.011</ele>
        <time>2021-05-27T10:23:00Z</time>
      </trkpt>
      <trkpt lat="42.077814" lon="2.541686">
        <ele>429.908</ele>
        <time>2021-05-27T10:23:02Z</time>
      </trkpt>
      <trkpt lat="42.077833" lon="2.541705">
        <ele>429.730</ele>
        <time>2021-05-27T10:23:04Z</time>
      </trkpt>
      <trkpt lat="42.077856" lon="2.541723">
        <ele>429.587</ele>
        <time>2021-05-27T10:23:06Z</time>
      </trkpt>
      <trkpt lat="42.077885" lon="2.541739">
        <ele>429.485</ele>
        <time>2021-05-27T10:23:08Z</time>
      </trkpt>
      <trkpt lat="42.077916" lon="2.541748">
        <ele>429.385</ele>
        <time>2021-05-27T10:23:10Z</time>
      </trkpt>
      <trkpt lat="42.077943" lon="2.541750">
        <ele>429.282</ele>
        <time>2021-05-27T10:23:12Z</time>
      </trkpt>
      <trkpt lat="42.077973" lon="2.541740">
        <ele>429.317</ele>
        <time>2021-05-27T10:23:14Z</time>
      </trkpt>
      <trkpt lat="42.077998" lon="2.541726">
        <ele>429.430</ele>
        <time>2021-05-27T10:23:16Z</time>
      </trkpt>
      <trkpt lat="42.078022" lon="2.541707">
        <ele>429.616</ele>
        <time>2021-05-27T10:23:18Z</time>
      </trkpt>
      <trkpt lat="42.078045" lon="2.541682">
        <ele>429.893</ele>
        <time>2021-05-27T10:23:20Z</time>
      </trkpt>
      <trkpt lat="42.078064" lon="2.541653">
        <ele>430.065</ele>
        <time>2021-05-27T10:23:21Z</time>
      </trkpt>
      <trkpt lat="42.078080" lon="2.541640">
        <ele>429.821</ele>
        <time>2021-05-27T10:23:22Z</time>
      </trkpt>
      <trkpt lat="42.078103" lon="2.541611">
        <ele>429.608</ele>
        <time>2021-05-27T10:23:25Z</time>
      </trkpt>
      <trkpt lat="42.078123" lon="2.541587">
        <ele>429.476</ele>
        <time>2021-05-27T10:23:26Z</time>
      </trkpt>
      <trkpt lat="42.078139" lon="2.541561">
        <ele>429.343</ele>
        <time>2021-05-27T10:23:29Z</time>
      </trkpt>
      <trkpt lat="42.078153" lon="2.541530">
        <ele>429.331</ele>
        <time>2021-05-27T10:23:31Z</time>
      </trkpt>
      <trkpt lat="42.078167" lon="2.541504">
        <ele>429.281</ele>
        <time>2021-05-27T10:23:33Z</time>
      </trkpt>
      <trkpt lat="42.078185" lon="2.541479">
        <ele>429.018</ele>
        <time>2021-05-27T10:23:34Z</time>
      </trkpt>
      <trkpt lat="42.078198" lon="2.541454">
        <ele>428.923</ele>
        <time>2021-05-27T10:23:37Z</time>
      </trkpt>
      <trkpt lat="42.078214" lon="2.541425">
        <ele>428.876</ele>
        <time>2021-05-27T10:23:39Z</time>
      </trkpt>
      <trkpt lat="42.078232" lon="2.541393">
        <ele>428.642</ele>
        <time>2021-05-27T10:23:41Z</time>
      </trkpt>
      <trkpt lat="42.078252" lon="2.541362">
        <ele>428.479</ele>
        <time>2021-05-27T10:23:42Z</time>
      </trkpt>
      <trkpt lat="42.078263" lon="2.541329">
        <ele>428.605</ele>
        <time>2021-05-27T10:23:45Z</time>
      </trkpt>
      <trkpt lat="42.078278" lon="2.541299">
        <ele>428.625</ele>
        <time>2021-05-27T10:23:47Z</time>
      </trkpt>
      <trkpt lat="42.078293" lon="2.541264">
        <ele>428.708</ele>
        <time>2021-05-27T10:23:49Z</time>
      </trkpt>
      <trkpt lat="42.078305" lon="2.541231">
        <ele>428.964</ele>
        <time>2021-05-27T10:23:51Z</time>
      </trkpt>
      <trkpt lat="42.078320" lon="2.541200">
        <ele>428.981</ele>
        <time>2021-05-27T10:23:52Z</time>
      </trkpt>
      <trkpt lat="42.078329" lon="2.541173">
        <ele>429.059</ele>
        <time>2021-05-27T10:23:54Z</time>
      </trkpt>
      <trkpt lat="42.078340" lon="2.541144">
        <ele>429.359</ele>
        <time>2021-05-27T10:23:57Z</time>
      </trkpt>
      <trkpt lat="42.078355" lon="2.541116">
        <ele>429.626</ele>
        <time>2021-05-27T10:23:59Z</time>
      </trkpt>
      <trkpt lat="42.078368" lon="2.541087">
        <ele>429.931</ele>
        <time>2021-05-27T10:24:01Z</time>
      </trkpt>
      <trkpt lat="42.078378" lon="2.541059">
        <ele>430.164</ele>
        <time>2021-05-27T10:24:02Z</time>
      </trkpt>
      <trkpt lat="42.078395" lon="2.541032">
        <ele>430.350</ele>
        <time>2021-05-27T10:24:06Z</time>
      </trkpt>
      <trkpt lat="42.078417" lon="2.541001">
        <ele>430.578</ele>
        <time>2021-05-27T10:24:08Z</time>
      </trkpt>
      <trkpt lat="42.078434" lon="2.540975">
        <ele>430.733</ele>
        <time>2021-05-27T10:24:14Z</time>
      </trkpt>
      <trkpt lat="42.078447" lon="2.540955">
        <ele>430.826</ele>
        <time>2021-05-27T10:24:16Z</time>
      </trkpt>
      <trkpt lat="42.078460" lon="2.540929">
        <ele>431.108</ele>
        <time>2021-05-27T10:24:18Z</time>
      </trkpt>
      <trkpt lat="42.078490" lon="2.540891">
        <ele>431.424</ele>
        <time>2021-05-27T10:24:19Z</time>
      </trkpt>
      <trkpt lat="42.078502" lon="2.540873">
        <ele>431.521</ele>
        <time>2021-05-27T10:24:21Z</time>
      </trkpt>
      <trkpt lat="42.078514" lon="2.540852">
        <ele>431.739</ele>
        <time>2021-05-27T10:24:22Z</time>
      </trkpt>
      <trkpt lat="42.078532" lon="2.540816">
        <ele>432.079</ele>
        <time>2021-05-27T10:24:24Z</time>
      </trkpt>
      <trkpt lat="42.078554" lon="2.540782">
        <ele>432.126</ele>
        <time>2021-05-27T10:24:25Z</time>
      </trkpt>
      <trkpt lat="42.078572" lon="2.540745">
        <ele>432.261</ele>
        <time>2021-05-27T10:24:28Z</time>
      </trkpt>
      <trkpt lat="42.078588" lon="2.540713">
        <ele>432.294</ele>
        <time>2021-05-27T10:24:30Z</time>
      </trkpt>
      <trkpt lat="42.078601" lon="2.540679">
        <ele>432.360</ele>
        <time>2021-05-27T10:24:31Z</time>
      </trkpt>
      <trkpt lat="42.078616" lon="2.540652">
        <ele>432.368</ele>
        <time>2021-05-27T10:24:34Z</time>
      </trkpt>
      <trkpt lat="42.078635" lon="2.540630">
        <ele>432.442</ele>
        <time>2021-05-27T10:24:36Z</time>
      </trkpt>
      <trkpt lat="42.078648" lon="2.540604">
        <ele>432.526</ele>
        <time>2021-05-27T10:24:38Z</time>
      </trkpt>
      <trkpt lat="42.078664" lon="2.540572">
        <ele>432.708</ele>
        <time>2021-05-27T10:24:39Z</time>
      </trkpt>
      <trkpt lat="42.078686" lon="2.540546">
        <ele>432.893</ele>
        <time>2021-05-27T10:24:42Z</time>
      </trkpt>
      <trkpt lat="42.078703" lon="2.540520">
        <ele>433.120</ele>
        <time>2021-05-27T10:24:44Z</time>
      </trkpt>
      <trkpt lat="42.078722" lon="2.540496">
        <ele>433.298</ele>
        <time>2021-05-27T10:24:46Z</time>
      </trkpt>
      <trkpt lat="42.078740" lon="2.540475">
        <ele>433.428</ele>
        <time>2021-05-27T10:24:47Z</time>
      </trkpt>
      <trkpt lat="42.078761" lon="2.540455">
        <ele>433.515</ele>
        <time>2021-05-27T10:24:49Z</time>
      </trkpt>
      <trkpt lat="42.078781" lon="2.540437">
        <ele>433.710</ele>
        <time>2021-05-27T10:24:52Z</time>
      </trkpt>
      <trkpt lat="42.078800" lon="2.540420">
        <ele>433.823</ele>
        <time>2021-05-27T10:24:54Z</time>
      </trkpt>
      <trkpt lat="42.078825" lon="2.540405">
        <ele>433.969</ele>
        <time>2021-05-27T10:24:56Z</time>
      </trkpt>
      <trkpt lat="42.078849" lon="2.540393">
        <ele>433.949</ele>
        <time>2021-05-27T10:24:57Z</time>
      </trkpt>
      <trkpt lat="42.078870" lon="2.540380">
        <ele>434.002</ele>
        <time>2021-05-27T10:25:00Z</time>
      </trkpt>
      <trkpt lat="42.078898" lon="2.540377">
        <ele>434.122</ele>
        <time>2021-05-27T10:25:02Z</time>
      </trkpt>
      <trkpt lat="42.078925" lon="2.540382">
        <ele>434.608</ele>
        <time>2021-05-27T10:25:03Z</time>
      </trkpt>
      <trkpt lat="42.078950" lon="2.540392">
        <ele>435.011</ele>
        <time>2021-05-27T10:25:06Z</time>
      </trkpt>
      <trkpt lat="42.078968" lon="2.540414">
        <ele>435.228</ele>
        <time>2021-05-27T10:25:08Z</time>
      </trkpt>
      <trkpt lat="42.078991" lon="2.540439">
        <ele>435.686</ele>
        <time>2021-05-27T10:25:10Z</time>
      </trkpt>
      <trkpt lat="42.079003" lon="2.540465">
        <ele>435.796</ele>
        <time>2021-05-27T10:25:12Z</time>
      </trkpt>
      <trkpt lat="42.079018" lon="2.540514">
        <ele>435.933</ele>
        <time>2021-05-27T10:25:15Z</time>
      </trkpt>
      <trkpt lat="42.079023" lon="2.540545">
        <ele>435.968</ele>
        <time>2021-05-27T10:25:16Z</time>
      </trkpt>
      <trkpt lat="42.079033" lon="2.540588">
        <ele>435.941</ele>
        <time>2021-05-27T10:25:20Z</time>
      </trkpt>
      <trkpt lat="42.079044" lon="2.540638">
        <ele>435.987</ele>
        <time>2021-05-27T10:25:23Z</time>
      </trkpt>
      <trkpt lat="42.079052" lon="2.540670">
        <ele>435.957</ele>
        <time>2021-05-27T10:25:25Z</time>
      </trkpt>
      <trkpt lat="42.079059" lon="2.540702">
        <ele>435.800</ele>
        <time>2021-05-27T10:25:26Z</time>
      </trkpt>
      <trkpt lat="42.079068" lon="2.540730">
        <ele>435.920</ele>
        <time>2021-05-27T10:25:29Z</time>
      </trkpt>
      <trkpt lat="42.079079" lon="2.540758">
        <ele>436.008</ele>
        <time>2021-05-27T10:25:31Z</time>
      </trkpt>
      <trkpt lat="42.079088" lon="2.540788">
        <ele>436.162</ele>
        <time>2021-05-27T10:25:33Z</time>
      </trkpt>
      <trkpt lat="42.079097" lon="2.540821">
        <ele>436.129</ele>
        <time>2021-05-27T10:25:35Z</time>
      </trkpt>
      <trkpt lat="42.079104" lon="2.540852">
        <ele>436.287</ele>
        <time>2021-05-27T10:25:36Z</time>
      </trkpt>
      <trkpt lat="42.079109" lon="2.540885">
        <ele>436.277</ele>
        <time>2021-05-27T10:25:39Z</time>
      </trkpt>
      <trkpt lat="42.079116" lon="2.540916">
        <ele>436.464</ele>
        <time>2021-05-27T10:25:40Z</time>
      </trkpt>
      <trkpt lat="42.079127" lon="2.540945">
        <ele>436.699</ele>
        <time>2021-05-27T10:25:43Z</time>
      </trkpt>
      <trkpt lat="42.079141" lon="2.540973">
        <ele>436.952</ele>
        <time>2021-05-27T10:25:44Z</time>
      </trkpt>
      <trkpt lat="42.079153" lon="2.541001">
        <ele>437.118</ele>
        <time>2021-05-27T10:25:47Z</time>
      </trkpt>
      <trkpt lat="42.079162" lon="2.541027">
        <ele>437.218</ele>
        <time>2021-05-27T10:25:48Z</time>
      </trkpt>
      <trkpt lat="42.079174" lon="2.541051">
        <ele>437.498</ele>
        <time>2021-05-27T10:25:51Z</time>
      </trkpt>
      <trkpt lat="42.079185" lon="2.541076">
        <ele>437.517</ele>
        <time>2021-05-27T10:25:53Z</time>
      </trkpt>
      <trkpt lat="42.079196" lon="2.541103">
        <ele>437.608</ele>
        <time>2021-05-27T10:25:55Z</time>
      </trkpt>
      <trkpt lat="42.079205" lon="2.541127">
        <ele>437.668</ele>
        <time>2021-05-27T10:25:57Z</time>
      </trkpt>
      <trkpt lat="42.079214" lon="2.541155">
        <ele>437.685</ele>
        <time>2021-05-27T10:25:59Z</time>
      </trkpt>
      <trkpt lat="42.079227" lon="2.541177">
        <ele>437.793</ele>
        <time>2021-05-27T10:26:01Z</time>
      </trkpt>
      <trkpt lat="42.079239" lon="2.541204">
        <ele>437.813</ele>
        <time>2021-05-27T10:26:03Z</time>
      </trkpt>
      <trkpt lat="42.079257" lon="2.541229">
        <ele>437.940</ele>
        <time>2021-05-27T10:26:05Z</time>
      </trkpt>
      <trkpt lat="42.079276" lon="2.541251">
        <ele>438.185</ele>
        <time>2021-05-27T10:26:07Z</time>
      </trkpt>
      <trkpt lat="42.079298" lon="2.541266">
        <ele>438.378</ele>
        <time>2021-05-27T10:26:08Z</time>
      </trkpt>
      <trkpt lat="42.079320" lon="2.541275">
        <ele>438.514</ele>
        <time>2021-05-27T10:26:10Z</time>
      </trkpt>
      <trkpt lat="42.079342" lon="2.541278">
        <ele>438.831</ele>
        <time>2021-05-27T10:26:12Z</time>
      </trkpt>
      <trkpt lat="42.079365" lon="2.541274">
        <ele>439.161</ele>
        <time>2021-05-27T10:26:15Z</time>
      </trkpt>
      <trkpt lat="42.079388" lon="2.541264">
        <ele>439.607</ele>
        <time>2021-05-27T10:26:17Z</time>
      </trkpt>
      <trkpt lat="42.079416" lon="2.541253">
        <ele>440.108</ele>
        <time>2021-05-27T10:26:19Z</time>
      </trkpt>
      <trkpt lat="42.079437" lon="2.541233">
        <ele>440.690</ele>
        <time>2021-05-27T10:26:20Z</time>
      </trkpt>
      <trkpt lat="42.079450" lon="2.541207">
        <ele>440.947</ele>
        <time>2021-05-27T10:26:22Z</time>
      </trkpt>
      <trkpt lat="42.079460" lon="2.541178">
        <ele>441.245</ele>
        <time>2021-05-27T10:26:25Z</time>
      </trkpt>
      <trkpt lat="42.079468" lon="2.541146">
        <ele>441.585</ele>
        <time>2021-05-27T10:26:27Z</time>
      </trkpt>
      <trkpt lat="42.079479" lon="2.541117">
        <ele>441.732</ele>
        <time>2021-05-27T10:26:29Z</time>
      </trkpt>
      <trkpt lat="42.079490" lon="2.541091">
        <ele>441.817</ele>
        <time>2021-05-27T10:26:30Z</time>
      </trkpt>
      <trkpt lat="42.079501" lon="2.541064">
        <ele>442.010</ele>
        <time>2021-05-27T10:26:33Z</time>
      </trkpt>
      <trkpt lat="42.079511" lon="2.541038">
        <ele>442.196</ele>
        <time>2021-05-27T10:26:35Z</time>
      </trkpt>
      <trkpt lat="42.079523" lon="2.541008">
        <ele>442.377</ele>
        <time>2021-05-27T10:26:37Z</time>
      </trkpt>
      <trkpt lat="42.079534" lon="2.540980">
        <ele>442.561</ele>
        <time>2021-05-27T10:26:38Z</time>
      </trkpt>
      <trkpt lat="42.079547" lon="2.540954">
        <ele>442.627</ele>
        <time>2021-05-27T10:26:41Z</time>
      </trkpt>
      <trkpt lat="42.079558" lon="2.540931">
        <ele>442.708</ele>
        <time>2021-05-27T10:26:43Z</time>
      </trkpt>
      <trkpt lat="42.079570" lon="2.540903">
        <ele>442.954</ele>
        <time>2021-05-27T10:26:44Z</time>
      </trkpt>
      <trkpt lat="42.079584" lon="2.540877">
        <ele>443.141</ele>
        <time>2021-05-27T10:26:47Z</time>
      </trkpt>
      <trkpt lat="42.079602" lon="2.540853">
        <ele>443.339</ele>
        <time>2021-05-27T10:26:48Z</time>
      </trkpt>
      <trkpt lat="42.079623" lon="2.540826">
        <ele>443.489</ele>
        <time>2021-05-27T10:26:50Z</time>
      </trkpt>
      <trkpt lat="42.079646" lon="2.540799">
        <ele>443.516</ele>
        <time>2021-05-27T10:26:52Z</time>
      </trkpt>
      <trkpt lat="42.079668" lon="2.540772">
        <ele>443.741</ele>
        <time>2021-05-27T10:26:55Z</time>
      </trkpt>
      <trkpt lat="42.079686" lon="2.540748">
        <ele>443.944</ele>
        <time>2021-05-27T10:26:57Z</time>
      </trkpt>
      <trkpt lat="42.079704" lon="2.540722">
        <ele>444.230</ele>
        <time>2021-05-27T10:26:58Z</time>
      </trkpt>
      <trkpt lat="42.079724" lon="2.540700">
        <ele>444.475</ele>
        <time>2021-05-27T10:27:01Z</time>
      </trkpt>
      <trkpt lat="42.079744" lon="2.540679">
        <ele>444.328</ele>
        <time>2021-05-27T10:27:03Z</time>
      </trkpt>
      <trkpt lat="42.079763" lon="2.540658">
        <ele>444.220</ele>
        <time>2021-05-27T10:27:05Z</time>
      </trkpt>
      <trkpt lat="42.079777" lon="2.540635">
        <ele>444.208</ele>
        <time>2021-05-27T10:27:07Z</time>
      </trkpt>
      <trkpt lat="42.079790" lon="2.540609">
        <ele>444.244</ele>
        <time>2021-05-27T10:27:08Z</time>
      </trkpt>
      <trkpt lat="42.079805" lon="2.540580">
        <ele>444.311</ele>
        <time>2021-05-27T10:27:11Z</time>
      </trkpt>
      <trkpt lat="42.079822" lon="2.540554">
        <ele>444.279</ele>
        <time>2021-05-27T10:27:13Z</time>
      </trkpt>
      <trkpt lat="42.079837" lon="2.540529">
        <ele>444.319</ele>
        <time>2021-05-27T10:27:14Z</time>
      </trkpt>
      <trkpt lat="42.079852" lon="2.540503">
        <ele>444.436</ele>
        <time>2021-05-27T10:27:17Z</time>
      </trkpt>
      <trkpt lat="42.079870" lon="2.540476">
        <ele>444.551</ele>
        <time>2021-05-27T10:27:19Z</time>
      </trkpt>
      <trkpt lat="42.079886" lon="2.540452">
        <ele>444.514</ele>
        <time>2021-05-27T10:27:21Z</time>
      </trkpt>
      <trkpt lat="42.079903" lon="2.540429">
        <ele>444.620</ele>
        <time>2021-05-27T10:27:23Z</time>
      </trkpt>
      <trkpt lat="42.079922" lon="2.540404">
        <ele>444.682</ele>
        <time>2021-05-27T10:27:25Z</time>
      </trkpt>
      <trkpt lat="42.079944" lon="2.540382">
        <ele>444.543</ele>
        <time>2021-05-27T10:27:27Z</time>
      </trkpt>
      <trkpt lat="42.079965" lon="2.540360">
        <ele>444.417</ele>
        <time>2021-05-27T10:27:28Z</time>
      </trkpt>
      <trkpt lat="42.079988" lon="2.540341">
        <ele>444.308</ele>
        <time>2021-05-27T10:27:30Z</time>
      </trkpt>
      <trkpt lat="42.080011" lon="2.540320">
        <ele>444.435</ele>
        <time>2021-05-27T10:27:33Z</time>
      </trkpt>
      <trkpt lat="42.080032" lon="2.540301">
        <ele>444.662</ele>
        <time>2021-05-27T10:27:35Z</time>
      </trkpt>
      <trkpt lat="42.080055" lon="2.540284">
        <ele>444.750</ele>
        <time>2021-05-27T10:27:36Z</time>
      </trkpt>
      <trkpt lat="42.080076" lon="2.540273">
        <ele>444.840</ele>
        <time>2021-05-27T10:27:39Z</time>
      </trkpt>
      <trkpt lat="42.080104" lon="2.540265">
        <ele>444.867</ele>
        <time>2021-05-27T10:27:41Z</time>
      </trkpt>
      <trkpt lat="42.080132" lon="2.540258">
        <ele>444.872</ele>
        <time>2021-05-27T10:27:43Z</time>
      </trkpt>
      <trkpt lat="42.080160" lon="2.540250">
        <ele>444.855</ele>
        <time>2021-05-27T10:27:45Z</time>
      </trkpt>
      <trkpt lat="42.080185" lon="2.540242">
        <ele>444.891</ele>
        <time>2021-05-27T10:27:47Z</time>
      </trkpt>
      <trkpt lat="42.080209" lon="2.540239">
        <ele>444.735</ele>
        <time>2021-05-27T10:27:49Z</time>
      </trkpt>
      <trkpt lat="42.080234" lon="2.540239">
        <ele>444.686</ele>
        <time>2021-05-27T10:27:51Z</time>
      </trkpt>
      <trkpt lat="42.080260" lon="2.540239">
        <ele>444.514</ele>
        <time>2021-05-27T10:27:53Z</time>
      </trkpt>
      <trkpt lat="42.080287" lon="2.540239">
        <ele>444.508</ele>
        <time>2021-05-27T10:27:55Z</time>
      </trkpt>
      <trkpt lat="42.080311" lon="2.540243">
        <ele>444.740</ele>
        <time>2021-05-27T10:27:56Z</time>
      </trkpt>
      <trkpt lat="42.080337" lon="2.540249">
        <ele>444.977</ele>
        <time>2021-05-27T10:27:58Z</time>
      </trkpt>
      <trkpt lat="42.080365" lon="2.540255">
        <ele>445.295</ele>
        <time>2021-05-27T10:28:00Z</time>
      </trkpt>
      <trkpt lat="42.080393" lon="2.540257">
        <ele>445.415</ele>
        <time>2021-05-27T10:28:02Z</time>
      </trkpt>
      <trkpt lat="42.080423" lon="2.540258">
        <ele>445.782</ele>
        <time>2021-05-27T10:28:04Z</time>
      </trkpt>
      <trkpt lat="42.080449" lon="2.540258">
        <ele>446.097</ele>
        <time>2021-05-27T10:28:07Z</time>
      </trkpt>
      <trkpt lat="42.080474" lon="2.540256">
        <ele>446.390</ele>
        <time>2021-05-27T10:28:09Z</time>
      </trkpt>
      <trkpt lat="42.080501" lon="2.540254">
        <ele>446.616</ele>
        <time>2021-05-27T10:28:11Z</time>
      </trkpt>
      <trkpt lat="42.080523" lon="2.540254">
        <ele>446.872</ele>
        <time>2021-05-27T10:28:13Z</time>
      </trkpt>
      <trkpt lat="42.080551" lon="2.540251">
        <ele>447.113</ele>
        <time>2021-05-27T10:28:15Z</time>
      </trkpt>
      <trkpt lat="42.080574" lon="2.540249">
        <ele>447.414</ele>
        <time>2021-05-27T10:28:18Z</time>
      </trkpt>
      <trkpt lat="42.080598" lon="2.540255">
        <ele>447.608</ele>
        <time>2021-05-27T10:28:19Z</time>
      </trkpt>
      <trkpt lat="42.080618" lon="2.540258">
        <ele>447.824</ele>
        <time>2021-05-27T10:28:22Z</time>
      </trkpt>
      <trkpt lat="42.080644" lon="2.540261">
        <ele>448.191</ele>
        <time>2021-05-27T10:28:24Z</time>
      </trkpt>
      <trkpt lat="42.080671" lon="2.540264">
        <ele>448.479</ele>
        <time>2021-05-27T10:28:25Z</time>
      </trkpt>
      <trkpt lat="42.080698" lon="2.540268">
        <ele>448.659</ele>
        <time>2021-05-27T10:28:27Z</time>
      </trkpt>
      <trkpt lat="42.080725" lon="2.540271">
        <ele>448.966</ele>
        <time>2021-05-27T10:28:30Z</time>
      </trkpt>
      <trkpt lat="42.080748" lon="2.540276">
        <ele>449.161</ele>
        <time>2021-05-27T10:28:32Z</time>
      </trkpt>
      <trkpt lat="42.080769" lon="2.540283">
        <ele>449.314</ele>
        <time>2021-05-27T10:28:33Z</time>
      </trkpt>
      <trkpt lat="42.080790" lon="2.540294">
        <ele>449.570</ele>
        <time>2021-05-27T10:28:35Z</time>
      </trkpt>
      <trkpt lat="42.080809" lon="2.540308">
        <ele>449.678</ele>
        <time>2021-05-27T10:28:38Z</time>
      </trkpt>
      <trkpt lat="42.080828" lon="2.540324">
        <ele>449.833</ele>
        <time>2021-05-27T10:28:40Z</time>
      </trkpt>
      <trkpt lat="42.080846" lon="2.540341">
        <ele>449.926</ele>
        <time>2021-05-27T10:28:42Z</time>
      </trkpt>
      <trkpt lat="42.080860" lon="2.540363">
        <ele>450.008</ele>
        <time>2021-05-27T10:28:44Z</time>
      </trkpt>
      <trkpt lat="42.080875" lon="2.540387">
        <ele>450.194</ele>
        <time>2021-05-27T10:28:46Z</time>
      </trkpt>
      <trkpt lat="42.080889" lon="2.540407">
        <ele>450.261</ele>
        <time>2021-05-27T10:28:47Z</time>
      </trkpt>
      <trkpt lat="42.080906" lon="2.540430">
        <ele>450.449</ele>
        <time>2021-05-27T10:28:50Z</time>
      </trkpt>
      <trkpt lat="42.080922" lon="2.540451">
        <ele>450.589</ele>
        <time>2021-05-27T10:28:52Z</time>
      </trkpt>
      <trkpt lat="42.080941" lon="2.540473">
        <ele>450.686</ele>
        <time>2021-05-27T10:28:54Z</time>
      </trkpt>
      <trkpt lat="42.080961" lon="2.540493">
        <ele>450.751</ele>
        <time>2021-05-27T10:28:56Z</time>
      </trkpt>
      <trkpt lat="42.080981" lon="2.540515">
        <ele>450.834</ele>
        <time>2021-05-27T10:28:57Z</time>
      </trkpt>
      <trkpt lat="42.081002" lon="2.540534">
        <ele>450.920</ele>
        <time>2021-05-27T10:28:59Z</time>
      </trkpt>
      <trkpt lat="42.081024" lon="2.540555">
        <ele>451.195</ele>
        <time>2021-05-27T10:29:01Z</time>
      </trkpt>
      <trkpt lat="42.081044" lon="2.540578">
        <ele>451.149</ele>
        <time>2021-05-27T10:29:04Z</time>
      </trkpt>
      <trkpt lat="42.081066" lon="2.540598">
        <ele>451.223</ele>
        <time>2021-05-27T10:29:06Z</time>
      </trkpt>
      <trkpt lat="42.081087" lon="2.540618">
        <ele>451.308</ele>
        <time>2021-05-27T10:29:08Z</time>
      </trkpt>
      <trkpt lat="42.081108" lon="2.540641">
        <ele>451.426</ele>
        <time>2021-05-27T10:29:09Z</time>
      </trkpt>
      <trkpt lat="42.081130" lon="2.540658">
        <ele>451.423</ele>
        <time>2021-05-27T10:29:12Z</time>
      </trkpt>
      <trkpt lat="42.081152" lon="2.540679">
        <ele>451.581</ele>
        <time>2021-05-27T10:29:14Z</time>
      </trkpt>
      <trkpt lat="42.081173" lon="2.540702">
        <ele>451.511</ele>
        <time>2021-05-27T10:29:15Z</time>
      </trkpt>
      <trkpt lat="42.081195" lon="2.540721">
        <ele>451.558</ele>
        <time>2021-05-27T10:29:17Z</time>
      </trkpt>
      <trkpt lat="42.081218" lon="2.540741">
        <ele>451.623</ele>
        <time>2021-05-27T10:29:20Z</time>
      </trkpt>
      <trkpt lat="42.081242" lon="2.540760">
        <ele>451.696</ele>
        <time>2021-05-27T10:29:22Z</time>
      </trkpt>
      <trkpt lat="42.081267" lon="2.540776">
        <ele>451.792</ele>
        <time>2021-05-27T10:29:23Z</time>
      </trkpt>
      <trkpt lat="42.081290" lon="2.540792">
        <ele>451.786</ele>
        <time>2021-05-27T10:29:26Z</time>
      </trkpt>
      <trkpt lat="42.081312" lon="2.540810">
        <ele>451.760</ele>
        <time>2021-05-27T10:29:27Z</time>
      </trkpt>
      <trkpt lat="42.081333" lon="2.540827">
        <ele>451.726</ele>
        <time>2021-05-27T10:29:29Z</time>
      </trkpt>
      <trkpt lat="42.081354" lon="2.540838">
        <ele>451.708</ele>
        <time>2021-05-27T10:29:32Z</time>
      </trkpt>
      <trkpt lat="42.081377" lon="2.540851">
        <ele>451.895</ele>
        <time>2021-05-27T10:29:34Z</time>
      </trkpt>
      <trkpt lat="42.081401" lon="2.540862">
        <ele>451.882</ele>
        <time>2021-05-27T10:29:36Z</time>
      </trkpt>
      <trkpt lat="42.081429" lon="2.540869">
        <ele>451.980</ele>
        <time>2021-05-27T10:29:38Z</time>
      </trkpt>
      <trkpt lat="42.081457" lon="2.540874">
        <ele>451.950</ele>
        <time>2021-05-27T10:29:40Z</time>
      </trkpt>
      <trkpt lat="42.081482" lon="2.540876">
        <ele>452.057</ele>
        <time>2021-05-27T10:29:42Z</time>
      </trkpt>
      <trkpt lat="42.081508" lon="2.540875">
        <ele>452.132</ele>
        <time>2021-05-27T10:29:44Z</time>
      </trkpt>
      <trkpt lat="42.081533" lon="2.540877">
        <ele>452.175</ele>
        <time>2021-05-27T10:29:46Z</time>
      </trkpt>
      <trkpt lat="42.081562" lon="2.540879">
        <ele>452.271</ele>
        <time>2021-05-27T10:29:48Z</time>
      </trkpt>
      <trkpt lat="42.081590" lon="2.540879">
        <ele>452.379</ele>
        <time>2021-05-27T10:29:50Z</time>
      </trkpt>
      <trkpt lat="42.081619" lon="2.540880">
        <ele>452.405</ele>
        <time>2021-05-27T10:29:51Z</time>
      </trkpt>
      <trkpt lat="42.081647" lon="2.540884">
        <ele>452.425</ele>
        <time>2021-05-27T10:29:53Z</time>
      </trkpt>
      <trkpt lat="42.081673" lon="2.540887">
        <ele>452.408</ele>
        <time>2021-05-27T10:29:55Z</time>
      </trkpt>
      <trkpt lat="42.081702" lon="2.540890">
        <ele>452.524</ele>
        <time>2021-05-27T10:29:57Z</time>
      </trkpt>
      <trkpt lat="42.081729" lon="2.540894">
        <ele>452.671</ele>
        <time>2021-05-27T10:30:00Z</time>
      </trkpt>
      <trkpt lat="42.081755" lon="2.540900">
        <ele>452.619</ele>
        <time>2021-05-27T10:30:02Z</time>
      </trkpt>
      <trkpt lat="42.081783" lon="2.540907">
        <ele>452.649</ele>
        <time>2021-05-27T10:30:04Z</time>
      </trkpt>
      <trkpt lat="42.081810" lon="2.540914">
        <ele>452.676</ele>
        <time>2021-05-27T10:30:06Z</time>
      </trkpt>
      <trkpt lat="42.081837" lon="2.540918">
        <ele>452.771</ele>
        <time>2021-05-27T10:30:08Z</time>
      </trkpt>
      <trkpt lat="42.081866" lon="2.540924">
        <ele>452.794</ele>
        <time>2021-05-27T10:30:09Z</time>
      </trkpt>
      <trkpt lat="42.081892" lon="2.540928">
        <ele>452.810</ele>
        <time>2021-05-27T10:30:11Z</time>
      </trkpt>
      <trkpt lat="42.081918" lon="2.540931">
        <ele>452.924</ele>
        <time>2021-05-27T10:30:13Z</time>
      </trkpt>
      <trkpt lat="42.081945" lon="2.540929">
        <ele>453.004</ele>
        <time>2021-05-27T10:30:15Z</time>
      </trkpt>
      <trkpt lat="42.081973" lon="2.540925">
        <ele>453.014</ele>
        <time>2021-05-27T10:30:17Z</time>
      </trkpt>
      <trkpt lat="42.082004" lon="2.540917">
        <ele>453.208</ele>
        <time>2021-05-27T10:30:19Z</time>
      </trkpt>
      <trkpt lat="42.082032" lon="2.540915">
        <ele>453.249</ele>
        <time>2021-05-27T10:30:22Z</time>
      </trkpt>
      <trkpt lat="42.082061" lon="2.540909">
        <ele>453.376</ele>
        <time>2021-05-27T10:30:24Z</time>
      </trkpt>
      <trkpt lat="42.082093" lon="2.540900">
        <ele>453.424</ele>
        <time>2021-05-27T10:30:26Z</time>
      </trkpt>
      <trkpt lat="42.082114" lon="2.540887">
        <ele>453.534</ele>
        <time>2021-05-27T10:30:28Z</time>
      </trkpt>
      <trkpt lat="42.082140" lon="2.540878">
        <ele>453.691</ele>
        <time>2021-05-27T10:30:30Z</time>
      </trkpt>
      <trkpt lat="42.082168" lon="2.540873">
        <ele>453.776</ele>
        <time>2021-05-27T10:30:32Z</time>
      </trkpt>
      <trkpt lat="42.082198" lon="2.540864">
        <ele>453.859</ele>
        <time>2021-05-27T10:30:34Z</time>
      </trkpt>
      <trkpt lat="42.082227" lon="2.540857">
        <ele>453.845</ele>
        <time>2021-05-27T10:30:36Z</time>
      </trkpt>
      <trkpt lat="42.082253" lon="2.540849">
        <ele>454.037</ele>
        <time>2021-05-27T10:30:38Z</time>
      </trkpt>
      <trkpt lat="42.082282" lon="2.540848">
        <ele>454.149</ele>
        <time>2021-05-27T10:30:40Z</time>
      </trkpt>
      <trkpt lat="42.082304" lon="2.540843">
        <ele>454.213</ele>
        <time>2021-05-27T10:30:42Z</time>
      </trkpt>
      <trkpt lat="42.082326" lon="2.540838">
        <ele>454.308</ele>
        <time>2021-05-27T10:30:44Z</time>
      </trkpt>
      <trkpt lat="42.082350" lon="2.540835">
        <ele>454.420</ele>
        <time>2021-05-27T10:30:46Z</time>
      </trkpt>
      <trkpt lat="42.082375" lon="2.540832">
        <ele>454.677</ele>
        <time>2021-05-27T10:30:48Z</time>
      </trkpt>
      <trkpt lat="42.082404" lon="2.540831">
        <ele>454.785</ele>
        <time>2021-05-27T10:30:50Z</time>
      </trkpt>
      <trkpt lat="42.082428" lon="2.540828">
        <ele>454.845</ele>
        <time>2021-05-27T10:30:51Z</time>
      </trkpt>
      <trkpt lat="42.082452" lon="2.540827">
        <ele>454.912</ele>
        <time>2021-05-27T10:30:53Z</time>
      </trkpt>
      <trkpt lat="42.082476" lon="2.540829">
        <ele>455.047</ele>
        <time>2021-05-27T10:30:55Z</time>
      </trkpt>
      <trkpt lat="42.082504" lon="2.540835">
        <ele>455.070</ele>
        <time>2021-05-27T10:30:57Z</time>
      </trkpt>
      <trkpt lat="42.082528" lon="2.540845">
        <ele>455.256</ele>
        <time>2021-05-27T10:30:59Z</time>
      </trkpt>
      <trkpt lat="42.082549" lon="2.540857">
        <ele>455.332</ele>
        <time>2021-05-27T10:31:01Z</time>
      </trkpt>
      <trkpt lat="42.082565" lon="2.540867">
        <ele>455.492</ele>
        <time>2021-05-27T10:31:03Z</time>
      </trkpt>
      <trkpt lat="42.082582" lon="2.540878">
        <ele>455.511</ele>
        <time>2021-05-27T10:31:06Z</time>
      </trkpt>
      <trkpt lat="42.082599" lon="2.540890">
        <ele>455.608</ele>
        <time>2021-05-27T10:31:08Z</time>
      </trkpt>
      <trkpt lat="42.082622" lon="2.540904">
        <ele>455.780</ele>
        <time>2021-05-27T10:31:10Z</time>
      </trkpt>
      <trkpt lat="42.082640" lon="2.540912">
        <ele>455.837</ele>
        <time>2021-05-27T10:31:12Z</time>
      </trkpt>
      <trkpt lat="42.082671" lon="2.540914">
        <ele>456.145</ele>
        <time>2021-05-27T10:31:14Z</time>
      </trkpt>
      <trkpt lat="42.082703" lon="2.540915">
        <ele>456.455</ele>
        <time>2021-05-27T10:31:16Z</time>
      </trkpt>
      <trkpt lat="42.082732" lon="2.540917">
        <ele>456.732</ele>
        <time>2021-05-27T10:31:18Z</time>
      </trkpt>
      <trkpt lat="42.082759" lon="2.540919">
        <ele>456.967</ele>
        <time>2021-05-27T10:31:20Z</time>
      </trkpt>
      <trkpt lat="42.082791" lon="2.540923">
        <ele>457.170</ele>
        <time>2021-05-27T10:31:22Z</time>
      </trkpt>
      <trkpt lat="42.082816" lon="2.540929">
        <ele>457.386</ele>
        <time>2021-05-27T10:31:24Z</time>
      </trkpt>
      <trkpt lat="42.082841" lon="2.540932">
        <ele>457.529</ele>
        <time>2021-05-27T10:31:26Z</time>
      </trkpt>
      <trkpt lat="42.082862" lon="2.540933">
        <ele>457.600</ele>
        <time>2021-05-27T10:31:28Z</time>
      </trkpt>
      <trkpt lat="42.082880" lon="2.540933">
        <ele>457.820</ele>
        <time>2021-05-27T10:31:30Z</time>
      </trkpt>
      <trkpt lat="42.082909" lon="2.540933">
        <ele>458.008</ele>
        <time>2021-05-27T10:31:35Z</time>
      </trkpt>
      <trkpt lat="42.082932" lon="2.540943">
        <ele>458.139</ele>
        <time>2021-05-27T10:31:37Z</time>
      </trkpt>
      <trkpt lat="42.082956" lon="2.540949">
        <ele>458.336</ele>
        <time>2021-05-27T10:31:39Z</time>
      </trkpt>
      <trkpt lat="42.082987" lon="2.540950">
        <ele>458.694</ele>
        <time>2021-05-27T10:31:40Z</time>
      </trkpt>
      <trkpt lat="42.083060" lon="2.540958">
        <ele>459.194</ele>
        <time>2021-05-27T10:31:45Z</time>
      </trkpt>
      <trkpt lat="42.083092" lon="2.540955">
        <ele>459.391</ele>
        <time>2021-05-27T10:31:47Z</time>
      </trkpt>
      <trkpt lat="42.083124" lon="2.540950">
        <ele>459.446</ele>
        <time>2021-05-27T10:31:49Z</time>
      </trkpt>
      <trkpt lat="42.083147" lon="2.540946">
        <ele>459.579</ele>
        <time>2021-05-27T10:31:51Z</time>
      </trkpt>
      <trkpt lat="42.083169" lon="2.540942">
        <ele>459.625</ele>
        <time>2021-05-27T10:31:53Z</time>
      </trkpt>
      <trkpt lat="42.083199" lon="2.540939">
        <ele>459.822</ele>
        <time>2021-05-27T10:31:55Z</time>
      </trkpt>
      <trkpt lat="42.083229" lon="2.540939">
        <ele>459.962</ele>
        <time>2021-05-27T10:31:57Z</time>
      </trkpt>
      <trkpt lat="42.083253" lon="2.540938">
        <ele>460.008</ele>
        <time>2021-05-27T10:31:59Z</time>
      </trkpt>
      <trkpt lat="42.083276" lon="2.540938">
        <ele>460.008</ele>
        <time>2021-05-27T10:32:01Z</time>
      </trkpt>
      <trkpt lat="42.083318" lon="2.540942">
        <ele>460.299</ele>
        <time>2021-05-27T10:32:03Z</time>
      </trkpt>
      <trkpt lat="42.083344" lon="2.540944">
        <ele>460.326</ele>
        <time>2021-05-27T10:32:05Z</time>
      </trkpt>
      <trkpt lat="42.083372" lon="2.540948">
        <ele>460.464</ele>
        <time>2021-05-27T10:32:07Z</time>
      </trkpt>
      <trkpt lat="42.083401" lon="2.540951">
        <ele>460.574</ele>
        <time>2021-05-27T10:32:09Z</time>
      </trkpt>
      <trkpt lat="42.083428" lon="2.540955">
        <ele>460.661</ele>
        <time>2021-05-27T10:32:11Z</time>
      </trkpt>
      <trkpt lat="42.083450" lon="2.540958">
        <ele>460.786</ele>
        <time>2021-05-27T10:32:13Z</time>
      </trkpt>
      <trkpt lat="42.083475" lon="2.540961">
        <ele>460.819</ele>
        <time>2021-05-27T10:32:15Z</time>
      </trkpt>
      <trkpt lat="42.083507" lon="2.540968">
        <ele>461.035</ele>
        <time>2021-05-27T10:32:17Z</time>
      </trkpt>
      <trkpt lat="42.083537" lon="2.540971">
        <ele>461.177</ele>
        <time>2021-05-27T10:32:19Z</time>
      </trkpt>
      <trkpt lat="42.083572" lon="2.540974">
        <ele>461.361</ele>
        <time>2021-05-27T10:32:21Z</time>
      </trkpt>
      <trkpt lat="42.083606" lon="2.540981">
        <ele>461.427</ele>
        <time>2021-05-27T10:32:23Z</time>
      </trkpt>
      <trkpt lat="42.083630" lon="2.540988">
        <ele>461.508</ele>
        <time>2021-05-27T10:32:24Z</time>
      </trkpt>
      <trkpt lat="42.083650" lon="2.540990">
        <ele>461.684</ele>
        <time>2021-05-27T10:32:26Z</time>
      </trkpt>
      <trkpt lat="42.083677" lon="2.540992">
        <ele>461.831</ele>
        <time>2021-05-27T10:32:28Z</time>
      </trkpt>
      <trkpt lat="42.083700" lon="2.540996">
        <ele>461.939</ele>
        <time>2021-05-27T10:32:30Z</time>
      </trkpt>
      <trkpt lat="42.083726" lon="2.541000">
        <ele>462.029</ele>
        <time>2021-05-27T10:32:32Z</time>
      </trkpt>
      <trkpt lat="42.083752" lon="2.541005">
        <ele>462.116</ele>
        <time>2021-05-27T10:32:34Z</time>
      </trkpt>
      <trkpt lat="42.083775" lon="2.541009">
        <ele>462.241</ele>
        <time>2021-05-27T10:32:37Z</time>
      </trkpt>
      <trkpt lat="42.083797" lon="2.541010">
        <ele>462.314</ele>
        <time>2021-05-27T10:32:39Z</time>
      </trkpt>
      <trkpt lat="42.083819" lon="2.541015">
        <ele>462.460</ele>
        <time>2021-05-27T10:32:41Z</time>
      </trkpt>
      <trkpt lat="42.083840" lon="2.541018">
        <ele>462.499</ele>
        <time>2021-05-27T10:32:43Z</time>
      </trkpt>
      <trkpt lat="42.083870" lon="2.541020">
        <ele>462.607</ele>
        <time>2021-05-27T10:32:45Z</time>
      </trkpt>
      <trkpt lat="42.083901" lon="2.541024">
        <ele>462.727</ele>
        <time>2021-05-27T10:32:46Z</time>
      </trkpt>
      <trkpt lat="42.083931" lon="2.541025">
        <ele>462.808</ele>
        <time>2021-05-27T10:32:49Z</time>
      </trkpt>
      <trkpt lat="42.083959" lon="2.541029">
        <ele>462.916</ele>
        <time>2021-05-27T10:32:50Z</time>
      </trkpt>
      <trkpt lat="42.083988" lon="2.541029">
        <ele>463.153</ele>
        <time>2021-05-27T10:32:53Z</time>
      </trkpt>
      <trkpt lat="42.084017" lon="2.541030">
        <ele>463.271</ele>
        <time>2021-05-27T10:32:55Z</time>
      </trkpt>
      <trkpt lat="42.084047" lon="2.541034">
        <ele>463.381</ele>
        <time>2021-05-27T10:32:57Z</time>
      </trkpt>
      <trkpt lat="42.084073" lon="2.541042">
        <ele>463.328</ele>
        <time>2021-05-27T10:32:59Z</time>
      </trkpt>
      <trkpt lat="42.084101" lon="2.541053">
        <ele>463.343</ele>
        <time>2021-05-27T10:33:01Z</time>
      </trkpt>
      <trkpt lat="42.084131" lon="2.541066">
        <ele>463.346</ele>
        <time>2021-05-27T10:33:03Z</time>
      </trkpt>
      <trkpt lat="42.084165" lon="2.541076">
        <ele>463.472</ele>
        <time>2021-05-27T10:33:05Z</time>
      </trkpt>
      <trkpt lat="42.084192" lon="2.541088">
        <ele>463.475</ele>
        <time>2021-05-27T10:33:07Z</time>
      </trkpt>
      <trkpt lat="42.084219" lon="2.541103">
        <ele>463.528</ele>
        <time>2021-05-27T10:33:09Z</time>
      </trkpt>
      <trkpt lat="42.084247" lon="2.541122">
        <ele>463.620</ele>
        <time>2021-05-27T10:33:11Z</time>
      </trkpt>
      <trkpt lat="42.084271" lon="2.541141">
        <ele>463.708</ele>
        <time>2021-05-27T10:33:13Z</time>
      </trkpt>
      <trkpt lat="42.084297" lon="2.541155">
        <ele>463.874</ele>
        <time>2021-05-27T10:33:15Z</time>
      </trkpt>
      <trkpt lat="42.084324" lon="2.541172">
        <ele>463.991</ele>
        <time>2021-05-27T10:33:17Z</time>
      </trkpt>
      <trkpt lat="42.084349" lon="2.541191">
        <ele>463.929</ele>
        <time>2021-05-27T10:33:19Z</time>
      </trkpt>
      <trkpt lat="42.084373" lon="2.541208">
        <ele>464.059</ele>
        <time>2021-05-27T10:33:21Z</time>
      </trkpt>
      <trkpt lat="42.084395" lon="2.541224">
        <ele>464.016</ele>
        <time>2021-05-27T10:33:23Z</time>
      </trkpt>
      <trkpt lat="42.084417" lon="2.541239">
        <ele>464.081</ele>
        <time>2021-05-27T10:33:25Z</time>
      </trkpt>
      <trkpt lat="42.084438" lon="2.541259">
        <ele>463.944</ele>
        <time>2021-05-27T10:33:27Z</time>
      </trkpt>
      <trkpt lat="42.084460" lon="2.541278">
        <ele>463.980</ele>
        <time>2021-05-27T10:33:28Z</time>
      </trkpt>
      <trkpt lat="42.084482" lon="2.541291">
        <ele>463.987</ele>
        <time>2021-05-27T10:33:30Z</time>
      </trkpt>
      <trkpt lat="42.084508" lon="2.541302">
        <ele>463.942</ele>
        <time>2021-05-27T10:33:33Z</time>
      </trkpt>
      <trkpt lat="42.084532" lon="2.541312">
        <ele>464.026</ele>
        <time>2021-05-27T10:33:35Z</time>
      </trkpt>
      <trkpt lat="42.084554" lon="2.541325">
        <ele>464.108</ele>
        <time>2021-05-27T10:33:37Z</time>
      </trkpt>
      <trkpt lat="42.084575" lon="2.541344">
        <ele>464.125</ele>
        <time>2021-05-27T10:33:38Z</time>
      </trkpt>
      <trkpt lat="42.084596" lon="2.541368">
        <ele>464.282</ele>
        <time>2021-05-27T10:33:41Z</time>
      </trkpt>
      <trkpt lat="42.084622" lon="2.541385">
        <ele>464.360</ele>
        <time>2021-05-27T10:33:42Z</time>
      </trkpt>
      <trkpt lat="42.084647" lon="2.541401">
        <ele>464.460</ele>
        <time>2021-05-27T10:33:45Z</time>
      </trkpt>
      <trkpt lat="42.084670" lon="2.541420">
        <ele>464.437</ele>
        <time>2021-05-27T10:33:47Z</time>
      </trkpt>
      <trkpt lat="42.084690" lon="2.541436">
        <ele>464.592</ele>
        <time>2021-05-27T10:33:49Z</time>
      </trkpt>
      <trkpt lat="42.084713" lon="2.541453">
        <ele>464.595</ele>
        <time>2021-05-27T10:33:51Z</time>
      </trkpt>
      <trkpt lat="42.084737" lon="2.541470">
        <ele>464.451</ele>
        <time>2021-05-27T10:33:53Z</time>
      </trkpt>
      <trkpt lat="42.084761" lon="2.541488">
        <ele>464.334</ele>
        <time>2021-05-27T10:33:55Z</time>
      </trkpt>
      <trkpt lat="42.084787" lon="2.541505">
        <ele>464.355</ele>
        <time>2021-05-27T10:33:57Z</time>
      </trkpt>
      <trkpt lat="42.084813" lon="2.541523">
        <ele>464.210</ele>
        <time>2021-05-27T10:33:59Z</time>
      </trkpt>
      <trkpt lat="42.084843" lon="2.541537">
        <ele>464.208</ele>
        <time>2021-05-27T10:34:01Z</time>
      </trkpt>
      <trkpt lat="42.084868" lon="2.541553">
        <ele>464.170</ele>
        <time>2021-05-27T10:34:03Z</time>
      </trkpt>
      <trkpt lat="42.084895" lon="2.541571">
        <ele>464.147</ele>
        <time>2021-05-27T10:34:05Z</time>
      </trkpt>
      <trkpt lat="42.084920" lon="2.541592">
        <ele>464.125</ele>
        <time>2021-05-27T10:34:07Z</time>
      </trkpt>
      <trkpt lat="42.084944" lon="2.541613">
        <ele>464.045</ele>
        <time>2021-05-27T10:34:09Z</time>
      </trkpt>
      <trkpt lat="42.084969" lon="2.541636">
        <ele>464.082</ele>
        <time>2021-05-27T10:34:11Z</time>
      </trkpt>
      <trkpt lat="42.084995" lon="2.541656">
        <ele>464.027</ele>
        <time>2021-05-27T10:34:13Z</time>
      </trkpt>
      <trkpt lat="42.085020" lon="2.541674">
        <ele>464.090</ele>
        <time>2021-05-27T10:34:15Z</time>
      </trkpt>
      <trkpt lat="42.085044" lon="2.541693">
        <ele>464.156</ele>
        <time>2021-05-27T10:34:17Z</time>
      </trkpt>
      <trkpt lat="42.085070" lon="2.541713">
        <ele>464.184</ele>
        <time>2021-05-27T10:34:19Z</time>
      </trkpt>
      <trkpt lat="42.085092" lon="2.541734">
        <ele>464.107</ele>
        <time>2021-05-27T10:34:21Z</time>
      </trkpt>
      <trkpt lat="42.085115" lon="2.541752">
        <ele>464.117</ele>
        <time>2021-05-27T10:34:23Z</time>
      </trkpt>
      <trkpt lat="42.085141" lon="2.541772">
        <ele>464.108</ele>
        <time>2021-05-27T10:34:25Z</time>
      </trkpt>
      <trkpt lat="42.085167" lon="2.541793">
        <ele>464.185</ele>
        <time>2021-05-27T10:34:27Z</time>
      </trkpt>
      <trkpt lat="42.085196" lon="2.541806">
        <ele>464.232</ele>
        <time>2021-05-27T10:34:29Z</time>
      </trkpt>
      <trkpt lat="42.085222" lon="2.541816">
        <ele>464.390</ele>
        <time>2021-05-27T10:34:31Z</time>
      </trkpt>
      <trkpt lat="42.085253" lon="2.541819">
        <ele>464.420</ele>
        <time>2021-05-27T10:34:33Z</time>
      </trkpt>
      <trkpt lat="42.085284" lon="2.541812">
        <ele>464.487</ele>
        <time>2021-05-27T10:34:35Z</time>
      </trkpt>
      <trkpt lat="42.085309" lon="2.541804">
        <ele>464.312</ele>
        <time>2021-05-27T10:34:37Z</time>
      </trkpt>
      <trkpt lat="42.085333" lon="2.541792">
        <ele>464.375</ele>
        <time>2021-05-27T10:34:39Z</time>
      </trkpt>
      <trkpt lat="42.085366" lon="2.541788">
        <ele>464.161</ele>
        <time>2021-05-27T10:34:41Z</time>
      </trkpt>
      <trkpt lat="42.085394" lon="2.541773">
        <ele>464.075</ele>
        <time>2021-05-27T10:34:43Z</time>
      </trkpt>
      <trkpt lat="42.085416" lon="2.541767">
        <ele>464.028</ele>
        <time>2021-05-27T10:34:45Z</time>
      </trkpt>
      <trkpt lat="42.085442" lon="2.541767">
        <ele>463.820</ele>
        <time>2021-05-27T10:34:48Z</time>
      </trkpt>
      <trkpt lat="42.085464" lon="2.541770">
        <ele>463.708</ele>
        <time>2021-05-27T10:34:50Z</time>
      </trkpt>
      <trkpt lat="42.085496" lon="2.541780">
        <ele>463.514</ele>
        <time>2021-05-27T10:34:52Z</time>
      </trkpt>
      <trkpt lat="42.085529" lon="2.541783">
        <ele>463.331</ele>
        <time>2021-05-27T10:34:54Z</time>
      </trkpt>
      <trkpt lat="42.085564" lon="2.541793">
        <ele>463.039</ele>
        <time>2021-05-27T10:34:55Z</time>
      </trkpt>
      <trkpt lat="42.085586" lon="2.541794">
        <ele>462.949</ele>
        <time>2021-05-27T10:34:57Z</time>
      </trkpt>
      <trkpt lat="42.085637" lon="2.541795">
        <ele>462.696</ele>
        <time>2021-05-27T10:34:59Z</time>
      </trkpt>
      <trkpt lat="42.085670" lon="2.541800">
        <ele>462.421</ele>
        <time>2021-05-27T10:35:01Z</time>
      </trkpt>
      <trkpt lat="42.085701" lon="2.541806">
        <ele>462.234</ele>
        <time>2021-05-27T10:35:03Z</time>
      </trkpt>
      <trkpt lat="42.085729" lon="2.541810">
        <ele>462.050</ele>
        <time>2021-05-27T10:35:05Z</time>
      </trkpt>
      <trkpt lat="42.085756" lon="2.541821">
        <ele>461.847</ele>
        <time>2021-05-27T10:35:07Z</time>
      </trkpt>
      <trkpt lat="42.085782" lon="2.541834">
        <ele>461.529</ele>
        <time>2021-05-27T10:35:09Z</time>
      </trkpt>
      <trkpt lat="42.085812" lon="2.541846">
        <ele>461.221</ele>
        <time>2021-05-27T10:35:11Z</time>
      </trkpt>
      <trkpt lat="42.085835" lon="2.541860">
        <ele>460.908</ele>
        <time>2021-05-27T10:35:14Z</time>
      </trkpt>
      <trkpt lat="42.085864" lon="2.541874">
        <ele>460.611</ele>
        <time>2021-05-27T10:35:16Z</time>
      </trkpt>
      <trkpt lat="42.085894" lon="2.541885">
        <ele>460.438</ele>
        <time>2021-05-27T10:35:18Z</time>
      </trkpt>
      <trkpt lat="42.085922" lon="2.541897">
        <ele>460.196</ele>
        <time>2021-05-27T10:35:20Z</time>
      </trkpt>
      <trkpt lat="42.085949" lon="2.541908">
        <ele>459.926</ele>
        <time>2021-05-27T10:35:22Z</time>
      </trkpt>
      <trkpt lat="42.085977" lon="2.541923">
        <ele>459.783</ele>
        <time>2021-05-27T10:35:24Z</time>
      </trkpt>
      <trkpt lat="42.086006" lon="2.541937">
        <ele>459.488</ele>
        <time>2021-05-27T10:35:26Z</time>
      </trkpt>
      <trkpt lat="42.086035" lon="2.541949">
        <ele>459.331</ele>
        <time>2021-05-27T10:35:28Z</time>
      </trkpt>
      <trkpt lat="42.086062" lon="2.541964">
        <ele>459.167</ele>
        <time>2021-05-27T10:35:30Z</time>
      </trkpt>
      <trkpt lat="42.086088" lon="2.541980">
        <ele>459.096</ele>
        <time>2021-05-27T10:35:32Z</time>
      </trkpt>
      <trkpt lat="42.086113" lon="2.541995">
        <ele>458.831</ele>
        <time>2021-05-27T10:35:33Z</time>
      </trkpt>
      <trkpt lat="42.086138" lon="2.542010">
        <ele>458.724</ele>
        <time>2021-05-27T10:35:35Z</time>
      </trkpt>
      <trkpt lat="42.086165" lon="2.542023">
        <ele>458.508</ele>
        <time>2021-05-27T10:35:37Z</time>
      </trkpt>
      <trkpt lat="42.086193" lon="2.542034">
        <ele>458.416</ele>
        <time>2021-05-27T10:35:39Z</time>
      </trkpt>
      <trkpt lat="42.086219" lon="2.542041">
        <ele>458.363</ele>
        <time>2021-05-27T10:35:41Z</time>
      </trkpt>
      <trkpt lat="42.086245" lon="2.542051">
        <ele>458.161</ele>
        <time>2021-05-27T10:35:43Z</time>
      </trkpt>
      <trkpt lat="42.086269" lon="2.542064">
        <ele>458.051</ele>
        <time>2021-05-27T10:35:45Z</time>
      </trkpt>
      <trkpt lat="42.086293" lon="2.542082">
        <ele>457.968</ele>
        <time>2021-05-27T10:35:47Z</time>
      </trkpt>
      <trkpt lat="42.086317" lon="2.542098">
        <ele>457.783</ele>
        <time>2021-05-27T10:35:49Z</time>
      </trkpt>
      <trkpt lat="42.086340" lon="2.542117">
        <ele>457.666</ele>
        <time>2021-05-27T10:35:52Z</time>
      </trkpt>
      <trkpt lat="42.086361" lon="2.542139">
        <ele>457.422</ele>
        <time>2021-05-27T10:35:54Z</time>
      </trkpt>
      <trkpt lat="42.086383" lon="2.542169">
        <ele>457.289</ele>
        <time>2021-05-27T10:35:56Z</time>
      </trkpt>
      <trkpt lat="42.086404" lon="2.542196">
        <ele>457.006</ele>
        <time>2021-05-27T10:35:58Z</time>
      </trkpt>
      <trkpt lat="42.086430" lon="2.542225">
        <ele>456.826</ele>
        <time>2021-05-27T10:36:00Z</time>
      </trkpt>
      <trkpt lat="42.086454" lon="2.542253">
        <ele>456.608</ele>
        <time>2021-05-27T10:36:02Z</time>
      </trkpt>
      <trkpt lat="42.086474" lon="2.542284">
        <ele>456.355</ele>
        <time>2021-05-27T10:36:04Z</time>
      </trkpt>
      <trkpt lat="42.086492" lon="2.542311">
        <ele>456.132</ele>
        <time>2021-05-27T10:36:06Z</time>
      </trkpt>
      <trkpt lat="42.086511" lon="2.542333">
        <ele>455.890</ele>
        <time>2021-05-27T10:36:08Z</time>
      </trkpt>
      <trkpt lat="42.086532" lon="2.542354">
        <ele>455.590</ele>
        <time>2021-05-27T10:36:10Z</time>
      </trkpt>
      <trkpt lat="42.086553" lon="2.542372">
        <ele>455.287</ele>
        <time>2021-05-27T10:36:11Z</time>
      </trkpt>
      <trkpt lat="42.086575" lon="2.542389">
        <ele>454.932</ele>
        <time>2021-05-27T10:36:13Z</time>
      </trkpt>
      <trkpt lat="42.086596" lon="2.542412">
        <ele>454.665</ele>
        <time>2021-05-27T10:36:15Z</time>
      </trkpt>
      <trkpt lat="42.086611" lon="2.542437">
        <ele>454.291</ele>
        <time>2021-05-27T10:36:17Z</time>
      </trkpt>
      <trkpt lat="42.086627" lon="2.542468">
        <ele>453.727</ele>
        <time>2021-05-27T10:36:19Z</time>
      </trkpt>
      <trkpt lat="42.086642" lon="2.542497">
        <ele>453.368</ele>
        <time>2021-05-27T10:36:21Z</time>
      </trkpt>
      <trkpt lat="42.086660" lon="2.542520">
        <ele>452.914</ele>
        <time>2021-05-27T10:36:23Z</time>
      </trkpt>
      <trkpt lat="42.086687" lon="2.542534">
        <ele>452.508</ele>
        <time>2021-05-27T10:36:25Z</time>
      </trkpt>
      <trkpt lat="42.086717" lon="2.542549">
        <ele>452.089</ele>
        <time>2021-05-27T10:36:27Z</time>
      </trkpt>
      <trkpt lat="42.086746" lon="2.542558">
        <ele>451.696</ele>
        <time>2021-05-27T10:36:30Z</time>
      </trkpt>
      <trkpt lat="42.086778" lon="2.542560">
        <ele>451.184</ele>
        <time>2021-05-27T10:36:31Z</time>
      </trkpt>
      <trkpt lat="42.086806" lon="2.542561">
        <ele>450.854</ele>
        <time>2021-05-27T10:36:34Z</time>
      </trkpt>
      <trkpt lat="42.086836" lon="2.542554">
        <ele>450.481</ele>
        <time>2021-05-27T10:36:36Z</time>
      </trkpt>
      <trkpt lat="42.086865" lon="2.542544">
        <ele>450.176</ele>
        <time>2021-05-27T10:36:38Z</time>
      </trkpt>
      <trkpt lat="42.086896" lon="2.542531">
        <ele>449.789</ele>
        <time>2021-05-27T10:36:40Z</time>
      </trkpt>
      <trkpt lat="42.086925" lon="2.542519">
        <ele>449.335</ele>
        <time>2021-05-27T10:36:42Z</time>
      </trkpt>
      <trkpt lat="42.086953" lon="2.542507">
        <ele>449.034</ele>
        <time>2021-05-27T10:36:44Z</time>
      </trkpt>
      <trkpt lat="42.086981" lon="2.542491">
        <ele>449.055</ele>
        <time>2021-05-27T10:36:46Z</time>
      </trkpt>
      <trkpt lat="42.087007" lon="2.542476">
        <ele>449.210</ele>
        <time>2021-05-27T10:36:48Z</time>
      </trkpt>
      <trkpt lat="42.087032" lon="2.542468">
        <ele>449.208</ele>
        <time>2021-05-27T10:36:50Z</time>
      </trkpt>
      <trkpt lat="42.087058" lon="2.542463">
        <ele>449.240</ele>
        <time>2021-05-27T10:36:52Z</time>
      </trkpt>
      <trkpt lat="42.087086" lon="2.542457">
        <ele>449.267</ele>
        <time>2021-05-27T10:36:54Z</time>
      </trkpt>
      <trkpt lat="42.087105" lon="2.542456">
        <ele>449.195</ele>
        <time>2021-05-27T10:36:56Z</time>
      </trkpt>
      <trkpt lat="42.087133" lon="2.542455">
        <ele>449.015</ele>
        <time>2021-05-27T10:36:58Z</time>
      </trkpt>
      <trkpt lat="42.087162" lon="2.542462">
        <ele>448.812</ele>
        <time>2021-05-27T10:37:00Z</time>
      </trkpt>
      <trkpt lat="42.087189" lon="2.542465">
        <ele>448.647</ele>
        <time>2021-05-27T10:37:02Z</time>
      </trkpt>
      <trkpt lat="42.087233" lon="2.542480">
        <ele>448.390</ele>
        <time>2021-05-27T10:37:04Z</time>
      </trkpt>
      <trkpt lat="42.087262" lon="2.542489">
        <ele>448.176</ele>
        <time>2021-05-27T10:37:07Z</time>
      </trkpt>
      <trkpt lat="42.087288" lon="2.542497">
        <ele>448.041</ele>
        <time>2021-05-27T10:37:09Z</time>
      </trkpt>
      <trkpt lat="42.087312" lon="2.542505">
        <ele>448.181</ele>
        <time>2021-05-27T10:37:11Z</time>
      </trkpt>
      <trkpt lat="42.087333" lon="2.542510">
        <ele>448.109</ele>
        <time>2021-05-27T10:37:12Z</time>
      </trkpt>
      <trkpt lat="42.087358" lon="2.542515">
        <ele>448.208</ele>
        <time>2021-05-27T10:37:15Z</time>
      </trkpt>
      <trkpt lat="42.087387" lon="2.542510">
        <ele>448.181</ele>
        <time>2021-05-27T10:37:17Z</time>
      </trkpt>
      <trkpt lat="42.087417" lon="2.542509">
        <ele>448.198</ele>
        <time>2021-05-27T10:37:19Z</time>
      </trkpt>
      <trkpt lat="42.087445" lon="2.542510">
        <ele>448.126</ele>
        <time>2021-05-27T10:37:21Z</time>
      </trkpt>
      <trkpt lat="42.087477" lon="2.542501">
        <ele>448.096</ele>
        <time>2021-05-27T10:37:23Z</time>
      </trkpt>
      <trkpt lat="42.087495" lon="2.542491">
        <ele>448.053</ele>
        <time>2021-05-27T10:37:24Z</time>
      </trkpt>
      <trkpt lat="42.087526" lon="2.542476">
        <ele>448.258</ele>
        <time>2021-05-27T10:37:26Z</time>
      </trkpt>
      <trkpt lat="42.087551" lon="2.542462">
        <ele>448.321</ele>
        <time>2021-05-27T10:37:28Z</time>
      </trkpt>
      <trkpt lat="42.087577" lon="2.542447">
        <ele>448.457</ele>
        <time>2021-05-27T10:37:30Z</time>
      </trkpt>
      <trkpt lat="42.087602" lon="2.542433">
        <ele>448.431</ele>
        <time>2021-05-27T10:37:32Z</time>
      </trkpt>
      <trkpt lat="42.087628" lon="2.542420">
        <ele>448.561</ele>
        <time>2021-05-27T10:37:34Z</time>
      </trkpt>
      <trkpt lat="42.087652" lon="2.542409">
        <ele>448.507</ele>
        <time>2021-05-27T10:37:36Z</time>
      </trkpt>
      <trkpt lat="42.087677" lon="2.542391">
        <ele>448.508</ele>
        <time>2021-05-27T10:37:38Z</time>
      </trkpt>
      <trkpt lat="42.087702" lon="2.542365">
        <ele>448.520</ele>
        <time>2021-05-27T10:37:40Z</time>
      </trkpt>
      <trkpt lat="42.087727" lon="2.542341">
        <ele>448.547</ele>
        <time>2021-05-27T10:37:41Z</time>
      </trkpt>
      <trkpt lat="42.087749" lon="2.542324">
        <ele>448.425</ele>
        <time>2021-05-27T10:37:43Z</time>
      </trkpt>
      <trkpt lat="42.087774" lon="2.542305">
        <ele>448.385</ele>
        <time>2021-05-27T10:37:46Z</time>
      </trkpt>
      <trkpt lat="42.087795" lon="2.542283">
        <ele>448.372</ele>
        <time>2021-05-27T10:37:48Z</time>
      </trkpt>
      <trkpt lat="42.087812" lon="2.542256">
        <ele>448.357</ele>
        <time>2021-05-27T10:37:49Z</time>
      </trkpt>
      <trkpt lat="42.087836" lon="2.542237">
        <ele>448.310</ele>
        <time>2021-05-27T10:37:51Z</time>
      </trkpt>
      <trkpt lat="42.087860" lon="2.542222">
        <ele>448.366</ele>
        <time>2021-05-27T10:37:54Z</time>
      </trkpt>
      <trkpt lat="42.087882" lon="2.542210">
        <ele>448.629</ele>
        <time>2021-05-27T10:37:56Z</time>
      </trkpt>
      <trkpt lat="42.087907" lon="2.542200">
        <ele>448.800</ele>
        <time>2021-05-27T10:37:58Z</time>
      </trkpt>
      <trkpt lat="42.087938" lon="2.542192">
        <ele>449.020</ele>
        <time>2021-05-27T10:38:00Z</time>
      </trkpt>
      <trkpt lat="42.087966" lon="2.542182">
        <ele>449.208</ele>
        <time>2021-05-27T10:38:02Z</time>
      </trkpt>
      <trkpt lat="42.087989" lon="2.542172">
        <ele>449.489</ele>
        <time>2021-05-27T10:38:04Z</time>
      </trkpt>
      <trkpt lat="42.088015" lon="2.542170">
        <ele>449.596</ele>
        <time>2021-05-27T10:38:06Z</time>
      </trkpt>
      <trkpt lat="42.088043" lon="2.542166">
        <ele>449.674</ele>
        <time>2021-05-27T10:38:07Z</time>
      </trkpt>
      <trkpt lat="42.088070" lon="2.542169">
        <ele>449.624</ele>
        <time>2021-05-27T10:38:10Z</time>
      </trkpt>
      <trkpt lat="42.088099" lon="2.542164">
        <ele>449.981</ele>
        <time>2021-05-27T10:38:12Z</time>
      </trkpt>
      <trkpt lat="42.088126" lon="2.542155">
        <ele>450.186</ele>
        <time>2021-05-27T10:38:14Z</time>
      </trkpt>
      <trkpt lat="42.088150" lon="2.542147">
        <ele>450.339</ele>
        <time>2021-05-27T10:38:16Z</time>
      </trkpt>
      <trkpt lat="42.088178" lon="2.542137">
        <ele>450.625</ele>
        <time>2021-05-27T10:38:18Z</time>
      </trkpt>
      <trkpt lat="42.088201" lon="2.542130">
        <ele>450.927</ele>
        <time>2021-05-27T10:38:20Z</time>
      </trkpt>
      <trkpt lat="42.088222" lon="2.542124">
        <ele>451.168</ele>
        <time>2021-05-27T10:38:22Z</time>
      </trkpt>
      <trkpt lat="42.088248" lon="2.542118">
        <ele>451.314</ele>
        <time>2021-05-27T10:38:24Z</time>
      </trkpt>
      <trkpt lat="42.088341" lon="2.542117">
        <ele>452.008</ele>
        <time>2021-05-27T10:38:30Z</time>
      </trkpt>
      <trkpt lat="42.088366" lon="2.542117">
        <ele>452.369</ele>
        <time>2021-05-27T10:38:32Z</time>
      </trkpt>
      <trkpt lat="42.088387" lon="2.542121">
        <ele>452.586</ele>
        <time>2021-05-27T10:38:34Z</time>
      </trkpt>
      <trkpt lat="42.088408" lon="2.542126">
        <ele>452.624</ele>
        <time>2021-05-27T10:38:37Z</time>
      </trkpt>
      <trkpt lat="42.088434" lon="2.542124">
        <ele>453.084</ele>
        <time>2021-05-27T10:38:40Z</time>
      </trkpt>
      <trkpt lat="42.088458" lon="2.542116">
        <ele>453.451</ele>
        <time>2021-05-27T10:38:42Z</time>
      </trkpt>
      <trkpt lat="42.088480" lon="2.542111">
        <ele>453.826</ele>
        <time>2021-05-27T10:38:44Z</time>
      </trkpt>
      <trkpt lat="42.088500" lon="2.542107">
        <ele>454.159</ele>
        <time>2021-05-27T10:38:46Z</time>
      </trkpt>
      <trkpt lat="42.088532" lon="2.542098">
        <ele>454.725</ele>
        <time>2021-05-27T10:38:49Z</time>
      </trkpt>
      <trkpt lat="42.088560" lon="2.542084">
        <ele>455.318</ele>
        <time>2021-05-27T10:38:51Z</time>
      </trkpt>
      <trkpt lat="42.088627" lon="2.542059">
        <ele>456.698</ele>
        <time>2021-05-27T10:38:58Z</time>
      </trkpt>
      <trkpt lat="42.088647" lon="2.542051">
        <ele>457.017</ele>
        <time>2021-05-27T10:38:59Z</time>
      </trkpt>
      <trkpt lat="42.088673" lon="2.542038">
        <ele>457.408</ele>
        <time>2021-05-27T10:39:02Z</time>
      </trkpt>
      <trkpt lat="42.088699" lon="2.542023">
        <ele>457.928</ele>
        <time>2021-05-27T10:39:04Z</time>
      </trkpt>
      <trkpt lat="42.088719" lon="2.542017">
        <ele>458.215</ele>
        <time>2021-05-27T10:39:06Z</time>
      </trkpt>
      <trkpt lat="42.088738" lon="2.542008">
        <ele>458.563</ele>
        <time>2021-05-27T10:39:08Z</time>
      </trkpt>
      <trkpt lat="42.088760" lon="2.542000">
        <ele>458.943</ele>
        <time>2021-05-27T10:39:10Z</time>
      </trkpt>
      <trkpt lat="42.088780" lon="2.541994">
        <ele>459.150</ele>
        <time>2021-05-27T10:39:12Z</time>
      </trkpt>
      <trkpt lat="42.088805" lon="2.541985">
        <ele>459.525</ele>
        <time>2021-05-27T10:39:15Z</time>
      </trkpt>
      <trkpt lat="42.088823" lon="2.541981">
        <ele>459.758</ele>
        <time>2021-05-27T10:39:17Z</time>
      </trkpt>
      <trkpt lat="42.088804" lon="2.541980">
        <ele>459.614</ele>
        <time>2021-05-27T10:39:21Z</time>
      </trkpt>
      <trkpt lat="42.088780" lon="2.541978">
        <ele>459.529</ele>
        <time>2021-05-27T10:39:23Z</time>
      </trkpt>
      <trkpt lat="42.088756" lon="2.541977">
        <ele>459.300</ele>
        <time>2021-05-27T10:39:25Z</time>
      </trkpt>
      <trkpt lat="42.088735" lon="2.541977">
        <ele>459.220</ele>
        <time>2021-05-27T10:39:27Z</time>
      </trkpt>
      <trkpt lat="42.088714" lon="2.541983">
        <ele>458.908</ele>
        <time>2021-05-27T10:39:29Z</time>
      </trkpt>
      <trkpt lat="42.088694" lon="2.541996">
        <ele>458.579</ele>
        <time>2021-05-27T10:39:31Z</time>
      </trkpt>
      <trkpt lat="42.088671" lon="2.542007">
        <ele>458.166</ele>
        <time>2021-05-27T10:39:33Z</time>
      </trkpt>
      <trkpt lat="42.088659" lon="2.542046">
        <ele>457.234</ele>
        <time>2021-05-27T10:39:35Z</time>
      </trkpt>
      <trkpt lat="42.088664" lon="2.542082">
        <ele>456.474</ele>
        <time>2021-05-27T10:39:37Z</time>
      </trkpt>
      <trkpt lat="42.088687" lon="2.542109">
        <ele>456.091</ele>
        <time>2021-05-27T10:39:39Z</time>
      </trkpt>
      <trkpt lat="42.088711" lon="2.542139">
        <ele>455.566</ele>
        <time>2021-05-27T10:39:41Z</time>
      </trkpt>
      <trkpt lat="42.088741" lon="2.542162">
        <ele>455.279</ele>
        <time>2021-05-27T10:39:42Z</time>
      </trkpt>
      <trkpt lat="42.088770" lon="2.542176">
        <ele>455.125</ele>
        <time>2021-05-27T10:39:44Z</time>
      </trkpt>
      <trkpt lat="42.088796" lon="2.542193">
        <ele>455.059</ele>
        <time>2021-05-27T10:39:46Z</time>
      </trkpt>
      <trkpt lat="42.088825" lon="2.542202">
        <ele>455.003</ele>
        <time>2021-05-27T10:39:49Z</time>
      </trkpt>
      <trkpt lat="42.088856" lon="2.542211">
        <ele>455.023</ele>
        <time>2021-05-27T10:39:50Z</time>
      </trkpt>
      <trkpt lat="42.088885" lon="2.542223">
        <ele>455.008</ele>
        <time>2021-05-27T10:39:52Z</time>
      </trkpt>
      <trkpt lat="42.088913" lon="2.542229">
        <ele>455.112</ele>
        <time>2021-05-27T10:39:55Z</time>
      </trkpt>
      <trkpt lat="42.088946" lon="2.542230">
        <ele>455.299</ele>
        <time>2021-05-27T10:39:57Z</time>
      </trkpt>
      <trkpt lat="42.088964" lon="2.542227">
        <ele>455.337</ele>
        <time>2021-05-27T10:39:58Z</time>
      </trkpt>
      <trkpt lat="42.088994" lon="2.542226">
        <ele>455.437</ele>
        <time>2021-05-27T10:40:00Z</time>
      </trkpt>
      <trkpt lat="42.089025" lon="2.542218">
        <ele>455.674</ele>
        <time>2021-05-27T10:40:02Z</time>
      </trkpt>
      <trkpt lat="42.089054" lon="2.542216">
        <ele>455.789</ele>
        <time>2021-05-27T10:40:04Z</time>
      </trkpt>
      <trkpt lat="42.089085" lon="2.542221">
        <ele>455.782</ele>
        <time>2021-05-27T10:40:06Z</time>
      </trkpt>
      <trkpt lat="42.089116" lon="2.542216">
        <ele>456.078</ele>
        <time>2021-05-27T10:40:08Z</time>
      </trkpt>
      <trkpt lat="42.089144" lon="2.542221">
        <ele>455.992</ele>
        <time>2021-05-27T10:40:10Z</time>
      </trkpt>
      <trkpt lat="42.089172" lon="2.542230">
        <ele>456.073</ele>
        <time>2021-05-27T10:40:12Z</time>
      </trkpt>
      <trkpt lat="42.089201" lon="2.542242">
        <ele>456.020</ele>
        <time>2021-05-27T10:40:14Z</time>
      </trkpt>
      <trkpt lat="42.089229" lon="2.542253">
        <ele>456.108</ele>
        <time>2021-05-27T10:40:16Z</time>
      </trkpt>
      <trkpt lat="42.089259" lon="2.542256">
        <ele>456.276</ele>
        <time>2021-05-27T10:40:18Z</time>
      </trkpt>
      <trkpt lat="42.089289" lon="2.542254">
        <ele>456.383</ele>
        <time>2021-05-27T10:40:20Z</time>
      </trkpt>
      <trkpt lat="42.089315" lon="2.542254">
        <ele>456.431</ele>
        <time>2021-05-27T10:40:22Z</time>
      </trkpt>
      <trkpt lat="42.089338" lon="2.542257">
        <ele>456.411</ele>
        <time>2021-05-27T10:40:24Z</time>
      </trkpt>
      <trkpt lat="42.089362" lon="2.542267">
        <ele>456.428</ele>
        <time>2021-05-27T10:40:26Z</time>
      </trkpt>
      <trkpt lat="42.089388" lon="2.542267">
        <ele>456.533</ele>
        <time>2021-05-27T10:40:28Z</time>
      </trkpt>
      <trkpt lat="42.089413" lon="2.542265">
        <ele>456.636</ele>
        <time>2021-05-27T10:40:30Z</time>
      </trkpt>
      <trkpt lat="42.089438" lon="2.542264">
        <ele>456.722</ele>
        <time>2021-05-27T10:40:32Z</time>
      </trkpt>
      <trkpt lat="42.089459" lon="2.542259">
        <ele>456.738</ele>
        <time>2021-05-27T10:40:34Z</time>
      </trkpt>
      <trkpt lat="42.089482" lon="2.542256">
        <ele>456.870</ele>
        <time>2021-05-27T10:40:36Z</time>
      </trkpt>
      <trkpt lat="42.089461" lon="2.542256">
        <ele>456.817</ele>
        <time>2021-05-27T10:40:42Z</time>
      </trkpt>
      <trkpt lat="42.089439" lon="2.542256">
        <ele>456.708</ele>
        <time>2021-05-27T10:40:44Z</time>
      </trkpt>
      <trkpt lat="42.089414" lon="2.542256">
        <ele>456.730</ele>
        <time>2021-05-27T10:40:46Z</time>
      </trkpt>
      <trkpt lat="42.089378" lon="2.542250">
        <ele>456.637</ele>
        <time>2021-05-27T10:40:48Z</time>
      </trkpt>
      <trkpt lat="42.089355" lon="2.542245">
        <ele>456.565</ele>
        <time>2021-05-27T10:40:49Z</time>
      </trkpt>
      <trkpt lat="42.089311" lon="2.542236">
        <ele>456.425</ele>
        <time>2021-05-27T10:40:50Z</time>
      </trkpt>
      <trkpt lat="42.089284" lon="2.542225">
        <ele>456.412</ele>
        <time>2021-05-27T10:40:51Z</time>
      </trkpt>
      <trkpt lat="42.089257" lon="2.542216">
        <ele>456.547</ele>
        <time>2021-05-27T10:40:53Z</time>
      </trkpt>
      <trkpt lat="42.089231" lon="2.542207">
        <ele>456.620</ele>
        <time>2021-05-27T10:40:54Z</time>
      </trkpt>
      <trkpt lat="42.089211" lon="2.542201">
        <ele>456.776</ele>
        <time>2021-05-27T10:40:55Z</time>
      </trkpt>
      <trkpt lat="42.089189" lon="2.542198">
        <ele>456.712</ele>
        <time>2021-05-27T10:40:56Z</time>
      </trkpt>
      <trkpt lat="42.089167" lon="2.542194">
        <ele>456.732</ele>
        <time>2021-05-27T10:40:57Z</time>
      </trkpt>
      <trkpt lat="42.089145" lon="2.542189">
        <ele>456.805</ele>
        <time>2021-05-27T10:40:58Z</time>
      </trkpt>
      <trkpt lat="42.089126" lon="2.542186">
        <ele>456.708</ele>
        <time>2021-05-27T10:40:59Z</time>
      </trkpt>
      <trkpt lat="42.089103" lon="2.542180">
        <ele>456.858</ele>
        <time>2021-05-27T10:41:00Z</time>
      </trkpt>
      <trkpt lat="42.089079" lon="2.542177">
        <ele>456.865</ele>
        <time>2021-05-27T10:41:01Z</time>
      </trkpt>
      <trkpt lat="42.089059" lon="2.542180">
        <ele>456.673</ele>
        <time>2021-05-27T10:41:02Z</time>
      </trkpt>
      <trkpt lat="42.089036" lon="2.542188">
        <ele>456.373</ele>
        <time>2021-05-27T10:41:03Z</time>
      </trkpt>
      <trkpt lat="42.089013" lon="2.542192">
        <ele>456.170</ele>
        <time>2021-05-27T10:41:04Z</time>
      </trkpt>
      <trkpt lat="42.088907" lon="2.542189">
        <ele>455.855</ele>
        <time>2021-05-27T10:41:07Z</time>
      </trkpt>
      <trkpt lat="42.088807" lon="2.542142">
        <ele>456.148</ele>
        <time>2021-05-27T10:41:12Z</time>
      </trkpt>
      <trkpt lat="42.088725" lon="2.542079">
        <ele>456.974</ele>
        <time>2021-05-27T10:41:18Z</time>
      </trkpt>
      <trkpt lat="42.088707" lon="2.542077">
        <ele>456.858</ele>
        <time>2021-05-27T10:41:19Z</time>
      </trkpt>
      <trkpt lat="42.088688" lon="2.542066">
        <ele>456.952</ele>
        <time>2021-05-27T10:41:21Z</time>
      </trkpt>
      <trkpt lat="42.088672" lon="2.542051">
        <ele>457.117</ele>
        <time>2021-05-27T10:41:23Z</time>
      </trkpt>
      <trkpt lat="42.088676" lon="2.542019">
        <ele>457.908</ele>
        <time>2021-05-27T10:41:26Z</time>
      </trkpt>
      <trkpt lat="42.088693" lon="2.542005">
        <ele>458.382</ele>
        <time>2021-05-27T10:41:28Z</time>
      </trkpt>
      <trkpt lat="42.088713" lon="2.542001">
        <ele>458.549</ele>
        <time>2021-05-27T10:41:30Z</time>
      </trkpt>
      <trkpt lat="42.088787" lon="2.541968">
        <ele>459.827</ele>
        <time>2021-05-27T10:41:36Z</time>
      </trkpt>
      <trkpt lat="42.088832" lon="2.541960">
        <ele>460.357</ele>
        <time>2021-05-27T10:41:40Z</time>
      </trkpt>
      <trkpt lat="42.088859" lon="2.541963">
        <ele>460.444</ele>
        <time>2021-05-27T10:41:42Z</time>
      </trkpt>
      <trkpt lat="42.088883" lon="2.541956">
        <ele>460.729</ele>
        <time>2021-05-27T10:41:44Z</time>
      </trkpt>
      <trkpt lat="42.088912" lon="2.541953">
        <ele>461.092</ele>
        <time>2021-05-27T10:41:46Z</time>
      </trkpt>
      <trkpt lat="42.088937" lon="2.541953">
        <ele>461.288</ele>
        <time>2021-05-27T10:41:48Z</time>
      </trkpt>
      <trkpt lat="42.088955" lon="2.541950">
        <ele>461.439</ele>
        <time>2021-05-27T10:41:49Z</time>
      </trkpt>
      <trkpt lat="42.088987" lon="2.541950">
        <ele>461.601</ele>
        <time>2021-05-27T10:41:50Z</time>
      </trkpt>
      <trkpt lat="42.089008" lon="2.541955">
        <ele>461.621</ele>
        <time>2021-05-27T10:41:52Z</time>
      </trkpt>
      <trkpt lat="42.089028" lon="2.541957">
        <ele>461.708</ele>
        <time>2021-05-27T10:41:55Z</time>
      </trkpt>
      <trkpt lat="42.089048" lon="2.541955">
        <ele>461.930</ele>
        <time>2021-05-27T10:41:57Z</time>
      </trkpt>
      <trkpt lat="42.089071" lon="2.541959">
        <ele>462.097</ele>
        <time>2021-05-27T10:41:59Z</time>
      </trkpt>
      <trkpt lat="42.089097" lon="2.541961">
        <ele>462.135</ele>
        <time>2021-05-27T10:42:01Z</time>
      </trkpt>
      <trkpt lat="42.089168" lon="2.541932">
        <ele>463.455</ele>
        <time>2021-05-27T10:42:06Z</time>
      </trkpt>
      <trkpt lat="42.089141" lon="2.541810">
        <ele>467.112</ele>
        <time>2021-05-27T10:42:15Z</time>
      </trkpt>
      <trkpt lat="42.089108" lon="2.541791">
        <ele>467.367</ele>
        <time>2021-05-27T10:42:18Z</time>
      </trkpt>
      <trkpt lat="42.089017" lon="2.541770">
        <ele>466.960</ele>
        <time>2021-05-27T10:42:23Z</time>
      </trkpt>
      <trkpt lat="42.088986" lon="2.541763">
        <ele>466.766</ele>
        <time>2021-05-27T10:42:26Z</time>
      </trkpt>
      <trkpt lat="42.088959" lon="2.541755">
        <ele>466.624</ele>
        <time>2021-05-27T10:42:28Z</time>
      </trkpt>
      <trkpt lat="42.088933" lon="2.541747">
        <ele>466.504</ele>
        <time>2021-05-27T10:42:29Z</time>
      </trkpt>
      <trkpt lat="42.088906" lon="2.541738">
        <ele>466.414</ele>
        <time>2021-05-27T10:42:32Z</time>
      </trkpt>
      <trkpt lat="42.088878" lon="2.541728">
        <ele>466.308</ele>
        <time>2021-05-27T10:42:33Z</time>
      </trkpt>
      <trkpt lat="42.088852" lon="2.541716">
        <ele>466.279</ele>
        <time>2021-05-27T10:42:36Z</time>
      </trkpt>
      <trkpt lat="42.088832" lon="2.541692">
        <ele>466.446</ele>
        <time>2021-05-27T10:42:38Z</time>
      </trkpt>
      <trkpt lat="42.088843" lon="2.541671">
        <ele>467.124</ele>
        <time>2021-05-27T10:42:42Z</time>
      </trkpt>
      <trkpt lat="42.088867" lon="2.541676">
        <ele>467.454</ele>
        <time>2021-05-27T10:42:44Z</time>
      </trkpt>
      <trkpt lat="42.088895" lon="2.541675">
        <ele>467.931</ele>
        <time>2021-05-27T10:42:47Z</time>
      </trkpt>
      <trkpt lat="42.088913" lon="2.541672">
        <ele>468.226</ele>
        <time>2021-05-27T10:42:49Z</time>
      </trkpt>
      <trkpt lat="42.088933" lon="2.541666">
        <ele>468.669</ele>
        <time>2021-05-27T10:42:50Z</time>
      </trkpt>
      <trkpt lat="42.088954" lon="2.541659">
        <ele>469.055</ele>
        <time>2021-05-27T10:42:54Z</time>
      </trkpt>
      <trkpt lat="42.088978" lon="2.541657">
        <ele>469.458</ele>
        <time>2021-05-27T10:42:55Z</time>
      </trkpt>
      <trkpt lat="42.089003" lon="2.541655">
        <ele>469.752</ele>
        <time>2021-05-27T10:42:59Z</time>
      </trkpt>
      <trkpt lat="42.089024" lon="2.541649">
        <ele>470.117</ele>
        <time>2021-05-27T10:43:01Z</time>
      </trkpt>
      <trkpt lat="42.089042" lon="2.541637">
        <ele>470.508</ele>
        <time>2021-05-27T10:43:03Z</time>
      </trkpt>
      <trkpt lat="42.089063" lon="2.541625">
        <ele>470.922</ele>
        <time>2021-05-27T10:43:05Z</time>
      </trkpt>
      <trkpt lat="42.089087" lon="2.541619">
        <ele>471.389</ele>
        <time>2021-05-27T10:43:07Z</time>
      </trkpt>
      <trkpt lat="42.089109" lon="2.541609">
        <ele>471.797</ele>
        <time>2021-05-27T10:43:08Z</time>
      </trkpt>
      <trkpt lat="42.089123" lon="2.541590">
        <ele>472.227</ele>
        <time>2021-05-27T10:43:11Z</time>
      </trkpt>
      <trkpt lat="42.089140" lon="2.541565">
        <ele>472.784</ele>
        <time>2021-05-27T10:43:13Z</time>
      </trkpt>
      <trkpt lat="42.089151" lon="2.541533">
        <ele>473.219</ele>
        <time>2021-05-27T10:43:15Z</time>
      </trkpt>
      <trkpt lat="42.089165" lon="2.541507">
        <ele>473.782</ele>
        <time>2021-05-27T10:43:17Z</time>
      </trkpt>
      <trkpt lat="42.089180" lon="2.541485">
        <ele>474.288</ele>
        <time>2021-05-27T10:43:19Z</time>
      </trkpt>
      <trkpt lat="42.089202" lon="2.541487">
        <ele>474.515</ele>
        <time>2021-05-27T10:43:20Z</time>
      </trkpt>
      <trkpt lat="42.089223" lon="2.541490">
        <ele>474.865</ele>
        <time>2021-05-27T10:43:22Z</time>
      </trkpt>
      <trkpt lat="42.089242" lon="2.541489">
        <ele>475.111</ele>
        <time>2021-05-27T10:43:25Z</time>
      </trkpt>
      <trkpt lat="42.089262" lon="2.541487">
        <ele>475.408</ele>
        <time>2021-05-27T10:43:26Z</time>
      </trkpt>
      <trkpt lat="42.089286" lon="2.541475">
        <ele>476.078</ele>
        <time>2021-05-27T10:43:30Z</time>
      </trkpt>
      <trkpt lat="42.089311" lon="2.541480">
        <ele>476.375</ele>
        <time>2021-05-27T10:43:33Z</time>
      </trkpt>
      <trkpt lat="42.089332" lon="2.541467">
        <ele>476.813</ele>
        <time>2021-05-27T10:43:36Z</time>
      </trkpt>
      <trkpt lat="42.089350" lon="2.541463">
        <ele>477.133</ele>
        <time>2021-05-27T10:43:38Z</time>
      </trkpt>
      <trkpt lat="42.089377" lon="2.541458">
        <ele>477.750</ele>
        <time>2021-05-27T10:43:41Z</time>
      </trkpt>
      <trkpt lat="42.089402" lon="2.541459">
        <ele>478.185</ele>
        <time>2021-05-27T10:43:44Z</time>
      </trkpt>
      <trkpt lat="42.089425" lon="2.541459">
        <ele>478.418</ele>
        <time>2021-05-27T10:43:47Z</time>
      </trkpt>
      <trkpt lat="42.089444" lon="2.541455">
        <ele>478.854</ele>
        <time>2021-05-27T10:43:48Z</time>
      </trkpt>
      <trkpt lat="42.089463" lon="2.541443">
        <ele>479.263</ele>
        <time>2021-05-27T10:43:51Z</time>
      </trkpt>
      <trkpt lat="42.089488" lon="2.541430">
        <ele>479.844</ele>
        <time>2021-05-27T10:43:54Z</time>
      </trkpt>
      <trkpt lat="42.089506" lon="2.541422">
        <ele>480.218</ele>
        <time>2021-05-27T10:43:56Z</time>
      </trkpt>
      <trkpt lat="42.089527" lon="2.541416">
        <ele>480.608</ele>
        <time>2021-05-27T10:43:57Z</time>
      </trkpt>
      <trkpt lat="42.089546" lon="2.541410">
        <ele>481.093</ele>
        <time>2021-05-27T10:44:00Z</time>
      </trkpt>
      <trkpt lat="42.089568" lon="2.541404">
        <ele>481.480</ele>
        <time>2021-05-27T10:44:02Z</time>
      </trkpt>
      <trkpt lat="42.089587" lon="2.541395">
        <ele>481.968</ele>
        <time>2021-05-27T10:44:04Z</time>
      </trkpt>
      <trkpt lat="42.089606" lon="2.541381">
        <ele>482.338</ele>
        <time>2021-05-27T10:44:05Z</time>
      </trkpt>
      <trkpt lat="42.089629" lon="2.541361">
        <ele>482.665</ele>
        <time>2021-05-27T10:44:08Z</time>
      </trkpt>
      <trkpt lat="42.089648" lon="2.541343">
        <ele>482.910</ele>
        <time>2021-05-27T10:44:10Z</time>
      </trkpt>
      <trkpt lat="42.089663" lon="2.541320">
        <ele>483.173</ele>
        <time>2021-05-27T10:44:12Z</time>
      </trkpt>
      <trkpt lat="42.089670" lon="2.541291">
        <ele>483.299</ele>
        <time>2021-05-27T10:44:14Z</time>
      </trkpt>
      <trkpt lat="42.089677" lon="2.541265">
        <ele>483.333</ele>
        <time>2021-05-27T10:44:16Z</time>
      </trkpt>
      <trkpt lat="42.089688" lon="2.541237">
        <ele>483.423</ele>
        <time>2021-05-27T10:44:18Z</time>
      </trkpt>
      <trkpt lat="42.089712" lon="2.541181">
        <ele>483.815</ele>
        <time>2021-05-27T10:44:21Z</time>
      </trkpt>
      <trkpt lat="42.089726" lon="2.541146">
        <ele>484.108</ele>
        <time>2021-05-27T10:44:23Z</time>
      </trkpt>
      <trkpt lat="42.089742" lon="2.541121">
        <ele>484.350</ele>
        <time>2021-05-27T10:44:27Z</time>
      </trkpt>
      <trkpt lat="42.089760" lon="2.541105">
        <ele>484.637</ele>
        <time>2021-05-27T10:44:29Z</time>
      </trkpt>
      <trkpt lat="42.089784" lon="2.541099">
        <ele>485.065</ele>
        <time>2021-05-27T10:44:31Z</time>
      </trkpt>
      <trkpt lat="42.089811" lon="2.541094">
        <ele>485.495</ele>
        <time>2021-05-27T10:44:33Z</time>
      </trkpt>
      <trkpt lat="42.089832" lon="2.541087">
        <ele>485.782</ele>
        <time>2021-05-27T10:44:35Z</time>
      </trkpt>
      <trkpt lat="42.089849" lon="2.541072">
        <ele>485.837</ele>
        <time>2021-05-27T10:44:37Z</time>
      </trkpt>
      <trkpt lat="42.089866" lon="2.541059">
        <ele>486.060</ele>
        <time>2021-05-27T10:44:38Z</time>
      </trkpt>
      <trkpt lat="42.089884" lon="2.541047">
        <ele>486.346</ele>
        <time>2021-05-27T10:44:41Z</time>
      </trkpt>
      <trkpt lat="42.089907" lon="2.541036">
        <ele>486.646</ele>
        <time>2021-05-27T10:44:43Z</time>
      </trkpt>
      <trkpt lat="42.089934" lon="2.541018">
        <ele>487.088</ele>
        <time>2021-05-27T10:44:45Z</time>
      </trkpt>
      <trkpt lat="42.089951" lon="2.540992">
        <ele>487.116</ele>
        <time>2021-05-27T10:44:48Z</time>
      </trkpt>
      <trkpt lat="42.089967" lon="2.540970">
        <ele>487.308</ele>
        <time>2021-05-27T10:44:50Z</time>
      </trkpt>
      <trkpt lat="42.089987" lon="2.540953">
        <ele>487.661</ele>
        <time>2021-05-27T10:44:52Z</time>
      </trkpt>
      <trkpt lat="42.090011" lon="2.540940">
        <ele>488.078</ele>
        <time>2021-05-27T10:44:53Z</time>
      </trkpt>
      <trkpt lat="42.090034" lon="2.540924">
        <ele>488.256</ele>
        <time>2021-05-27T10:44:56Z</time>
      </trkpt>
      <trkpt lat="42.090054" lon="2.540903">
        <ele>488.416</ele>
        <time>2021-05-27T10:44:58Z</time>
      </trkpt>
      <trkpt lat="42.090074" lon="2.540882">
        <ele>488.683</ele>
        <time>2021-05-27T10:44:59Z</time>
      </trkpt>
      <trkpt lat="42.090101" lon="2.540869">
        <ele>489.068</ele>
        <time>2021-05-27T10:45:03Z</time>
      </trkpt>
      <trkpt lat="42.090125" lon="2.540857">
        <ele>489.411</ele>
        <time>2021-05-27T10:45:05Z</time>
      </trkpt>
      <trkpt lat="42.090140" lon="2.540845">
        <ele>489.617</ele>
        <time>2021-05-27T10:45:07Z</time>
      </trkpt>
      <trkpt lat="42.090158" lon="2.540838">
        <ele>489.999</ele>
        <time>2021-05-27T10:45:09Z</time>
      </trkpt>
      <trkpt lat="42.090179" lon="2.540832">
        <ele>490.207</ele>
        <time>2021-05-27T10:45:12Z</time>
      </trkpt>
      <trkpt lat="42.090196" lon="2.540821">
        <ele>490.427</ele>
        <time>2021-05-27T10:45:14Z</time>
      </trkpt>
      <trkpt lat="42.090222" lon="2.540804">
        <ele>490.708</ele>
        <time>2021-05-27T10:45:17Z</time>
      </trkpt>
      <trkpt lat="42.090244" lon="2.540789">
        <ele>491.076</ele>
        <time>2021-05-27T10:45:19Z</time>
      </trkpt>
      <trkpt lat="42.090269" lon="2.540785">
        <ele>491.513</ele>
        <time>2021-05-27T10:45:21Z</time>
      </trkpt>
      <trkpt lat="42.090290" lon="2.540782">
        <ele>491.981</ele>
        <time>2021-05-27T10:45:23Z</time>
      </trkpt>
      <trkpt lat="42.090306" lon="2.540768">
        <ele>492.221</ele>
        <time>2021-05-27T10:45:24Z</time>
      </trkpt>
      <trkpt lat="42.090323" lon="2.540755">
        <ele>492.528</ele>
        <time>2021-05-27T10:45:26Z</time>
      </trkpt>
      <trkpt lat="42.090339" lon="2.540744">
        <ele>492.883</ele>
        <time>2021-05-27T10:45:29Z</time>
      </trkpt>
      <trkpt lat="42.090360" lon="2.540725">
        <ele>493.296</ele>
        <time>2021-05-27T10:45:31Z</time>
      </trkpt>
      <trkpt lat="42.090381" lon="2.540708">
        <ele>493.792</ele>
        <time>2021-05-27T10:45:33Z</time>
      </trkpt>
      <trkpt lat="42.090399" lon="2.540693">
        <ele>494.089</ele>
        <time>2021-05-27T10:45:34Z</time>
      </trkpt>
      <trkpt lat="42.090430" lon="2.540674">
        <ele>494.806</ele>
        <time>2021-05-27T10:45:39Z</time>
      </trkpt>
      <trkpt lat="42.090448" lon="2.540644">
        <ele>495.126</ele>
        <time>2021-05-27T10:45:43Z</time>
      </trkpt>
      <trkpt lat="42.090463" lon="2.540620">
        <ele>495.508</ele>
        <time>2021-05-27T10:45:46Z</time>
      </trkpt>
      <trkpt lat="42.090480" lon="2.540597">
        <ele>495.965</ele>
        <time>2021-05-27T10:45:49Z</time>
      </trkpt>
      <trkpt lat="42.090487" lon="2.540570">
        <ele>496.162</ele>
        <time>2021-05-27T10:45:51Z</time>
      </trkpt>
      <trkpt lat="42.090489" lon="2.540544">
        <ele>496.020</ele>
        <time>2021-05-27T10:45:53Z</time>
      </trkpt>
      <trkpt lat="42.090500" lon="2.540510">
        <ele>496.120</ele>
        <time>2021-05-27T10:45:56Z</time>
      </trkpt>
      <trkpt lat="42.090519" lon="2.540487">
        <ele>496.537</ele>
        <time>2021-05-27T10:45:58Z</time>
      </trkpt>
      <trkpt lat="42.090536" lon="2.540466">
        <ele>496.852</ele>
        <time>2021-05-27T10:45:59Z</time>
      </trkpt>
      <trkpt lat="42.090556" lon="2.540452">
        <ele>497.315</ele>
        <time>2021-05-27T10:46:02Z</time>
      </trkpt>
      <trkpt lat="42.090583" lon="2.540444">
        <ele>497.751</ele>
        <time>2021-05-27T10:46:05Z</time>
      </trkpt>
      <trkpt lat="42.090604" lon="2.540445">
        <ele>498.143</ele>
        <time>2021-05-27T10:46:07Z</time>
      </trkpt>
      <trkpt lat="42.090628" lon="2.540440">
        <ele>498.564</ele>
        <time>2021-05-27T10:46:08Z</time>
      </trkpt>
      <trkpt lat="42.090650" lon="2.540442">
        <ele>498.910</ele>
        <time>2021-05-27T10:46:11Z</time>
      </trkpt>
      <trkpt lat="42.090669" lon="2.540448">
        <ele>499.308</ele>
        <time>2021-05-27T10:46:13Z</time>
      </trkpt>
      <trkpt lat="42.090692" lon="2.540458">
        <ele>499.881</ele>
        <time>2021-05-27T10:46:14Z</time>
      </trkpt>
      <trkpt lat="42.090718" lon="2.540467">
        <ele>500.348</ele>
        <time>2021-05-27T10:46:17Z</time>
      </trkpt>
      <trkpt lat="42.090738" lon="2.540485">
        <ele>500.866</ele>
        <time>2021-05-27T10:46:19Z</time>
      </trkpt>
      <trkpt lat="42.090757" lon="2.540501">
        <ele>501.266</ele>
        <time>2021-05-27T10:46:23Z</time>
      </trkpt>
      <trkpt lat="42.090780" lon="2.540506">
        <ele>501.763</ele>
        <time>2021-05-27T10:46:26Z</time>
      </trkpt>
      <trkpt lat="42.090804" lon="2.540503">
        <ele>502.118</ele>
        <time>2021-05-27T10:46:29Z</time>
      </trkpt>
      <trkpt lat="42.090828" lon="2.540500">
        <ele>502.551</ele>
        <time>2021-05-27T10:46:32Z</time>
      </trkpt>
      <trkpt lat="42.090848" lon="2.540497">
        <ele>502.987</ele>
        <time>2021-05-27T10:46:34Z</time>
      </trkpt>
      <trkpt lat="42.090871" lon="2.540503">
        <ele>503.443</ele>
        <time>2021-05-27T10:46:37Z</time>
      </trkpt>
      <trkpt lat="42.090893" lon="2.540501">
        <ele>503.964</ele>
        <time>2021-05-27T10:46:40Z</time>
      </trkpt>
      <trkpt lat="42.090911" lon="2.540495">
        <ele>504.210</ele>
        <time>2021-05-27T10:46:42Z</time>
      </trkpt>
      <trkpt lat="42.090934" lon="2.540492">
        <ele>504.708</ele>
        <time>2021-05-27T10:46:44Z</time>
      </trkpt>
      <trkpt lat="42.090955" lon="2.540488">
        <ele>505.121</ele>
        <time>2021-05-27T10:46:46Z</time>
      </trkpt>
      <trkpt lat="42.090973" lon="2.540474">
        <ele>505.458</ele>
        <time>2021-05-27T10:46:49Z</time>
      </trkpt>
      <trkpt lat="42.090990" lon="2.540458">
        <ele>505.736</ele>
        <time>2021-05-27T10:46:51Z</time>
      </trkpt>
      <trkpt lat="42.090999" lon="2.540433">
        <ele>505.736</ele>
        <time>2021-05-27T10:46:55Z</time>
      </trkpt>
      <trkpt lat="42.091019" lon="2.540429">
        <ele>506.113</ele>
        <time>2021-05-27T10:46:58Z</time>
      </trkpt>
      <trkpt lat="42.091042" lon="2.540438">
        <ele>506.778</ele>
        <time>2021-05-27T10:47:01Z</time>
      </trkpt>
      <trkpt lat="42.091063" lon="2.540449">
        <ele>507.281</ele>
        <time>2021-05-27T10:47:04Z</time>
      </trkpt>
      <trkpt lat="42.091083" lon="2.540460">
        <ele>507.737</ele>
        <time>2021-05-27T10:47:06Z</time>
      </trkpt>
      <trkpt lat="42.091102" lon="2.540469">
        <ele>508.298</ele>
        <time>2021-05-27T10:47:09Z</time>
      </trkpt>
      <trkpt lat="42.091121" lon="2.540472">
        <ele>508.615</ele>
        <time>2021-05-27T10:47:11Z</time>
      </trkpt>
      <trkpt lat="42.091142" lon="2.540473">
        <ele>509.026</ele>
        <time>2021-05-27T10:47:12Z</time>
      </trkpt>
      <trkpt lat="42.091161" lon="2.540471">
        <ele>509.308</ele>
        <time>2021-05-27T10:47:15Z</time>
      </trkpt>
      <trkpt lat="42.091183" lon="2.540466">
        <ele>509.696</ele>
        <time>2021-05-27T10:47:17Z</time>
      </trkpt>
      <trkpt lat="42.091204" lon="2.540452">
        <ele>509.933</ele>
        <time>2021-05-27T10:47:21Z</time>
      </trkpt>
      <trkpt lat="42.091228" lon="2.540443">
        <ele>510.391</ele>
        <time>2021-05-27T10:47:24Z</time>
      </trkpt>
      <trkpt lat="42.091249" lon="2.540443">
        <ele>510.791</ele>
        <time>2021-05-27T10:47:25Z</time>
      </trkpt>
      <trkpt lat="42.091272" lon="2.540442">
        <ele>511.158</ele>
        <time>2021-05-27T10:47:28Z</time>
      </trkpt>
      <trkpt lat="42.091290" lon="2.540441">
        <ele>511.463</ele>
        <time>2021-05-27T10:47:30Z</time>
      </trkpt>
      <trkpt lat="42.091312" lon="2.540442">
        <ele>511.826</ele>
        <time>2021-05-27T10:47:32Z</time>
      </trkpt>
      <trkpt lat="42.091334" lon="2.540445">
        <ele>512.282</ele>
        <time>2021-05-27T10:47:34Z</time>
      </trkpt>
      <trkpt lat="42.091352" lon="2.540444">
        <ele>512.534</ele>
        <time>2021-05-27T10:47:36Z</time>
      </trkpt>
      <trkpt lat="42.091377" lon="2.540441">
        <ele>513.055</ele>
        <time>2021-05-27T10:47:39Z</time>
      </trkpt>
      <trkpt lat="42.091397" lon="2.540439">
        <ele>513.310</ele>
        <time>2021-05-27T10:47:41Z</time>
      </trkpt>
      <trkpt lat="42.091421" lon="2.540436">
        <ele>513.708</ele>
        <time>2021-05-27T10:47:44Z</time>
      </trkpt>
      <trkpt lat="42.091442" lon="2.540434">
        <ele>514.110</ele>
        <time>2021-05-27T10:47:49Z</time>
      </trkpt>
      <trkpt lat="42.091465" lon="2.540436">
        <ele>514.587</ele>
        <time>2021-05-27T10:47:51Z</time>
      </trkpt>
      <trkpt lat="42.091488" lon="2.540441">
        <ele>514.965</ele>
        <time>2021-05-27T10:47:53Z</time>
      </trkpt>
      <trkpt lat="42.091508" lon="2.540448">
        <ele>515.345</ele>
        <time>2021-05-27T10:47:55Z</time>
      </trkpt>
      <trkpt lat="42.091530" lon="2.540455">
        <ele>515.772</ele>
        <time>2021-05-27T10:47:57Z</time>
      </trkpt>
      <trkpt lat="42.091548" lon="2.540463">
        <ele>516.037</ele>
        <time>2021-05-27T10:47:59Z</time>
      </trkpt>
      <trkpt lat="42.091567" lon="2.540482">
        <ele>516.420</ele>
        <time>2021-05-27T10:48:01Z</time>
      </trkpt>
      <trkpt lat="42.091586" lon="2.540497">
        <ele>516.726</ele>
        <time>2021-05-27T10:48:03Z</time>
      </trkpt>
      <trkpt lat="42.091611" lon="2.540515">
        <ele>517.199</ele>
        <time>2021-05-27T10:48:05Z</time>
      </trkpt>
      <trkpt lat="42.091634" lon="2.540517">
        <ele>517.507</ele>
        <time>2021-05-27T10:48:07Z</time>
      </trkpt>
      <trkpt lat="42.091653" lon="2.540503">
        <ele>517.827</ele>
        <time>2021-05-27T10:48:09Z</time>
      </trkpt>
      <trkpt lat="42.091671" lon="2.540477">
        <ele>518.008</ele>
        <time>2021-05-27T10:48:11Z</time>
      </trkpt>
      <trkpt lat="42.091682" lon="2.540446">
        <ele>518.256</ele>
        <time>2021-05-27T10:48:13Z</time>
      </trkpt>
      <trkpt lat="42.091693" lon="2.540421">
        <ele>518.353</ele>
        <time>2021-05-27T10:48:16Z</time>
      </trkpt>
      <trkpt lat="42.091702" lon="2.540391">
        <ele>518.571</ele>
        <time>2021-05-27T10:48:18Z</time>
      </trkpt>
      <trkpt lat="42.091716" lon="2.540368">
        <ele>518.791</ele>
        <time>2021-05-27T10:48:22Z</time>
      </trkpt>
      <trkpt lat="42.091741" lon="2.540357">
        <ele>519.198</ele>
        <time>2021-05-27T10:48:25Z</time>
      </trkpt>
      <trkpt lat="42.091764" lon="2.540355">
        <ele>519.533</ele>
        <time>2021-05-27T10:48:27Z</time>
      </trkpt>
      <trkpt lat="42.091788" lon="2.540353">
        <ele>519.856</ele>
        <time>2021-05-27T10:48:28Z</time>
      </trkpt>
      <trkpt lat="42.091807" lon="2.540347">
        <ele>520.132</ele>
        <time>2021-05-27T10:48:31Z</time>
      </trkpt>
      <trkpt lat="42.091831" lon="2.540343">
        <ele>520.527</ele>
        <time>2021-05-27T10:48:32Z</time>
      </trkpt>
      <trkpt lat="42.091854" lon="2.540343">
        <ele>520.968</ele>
        <time>2021-05-27T10:48:34Z</time>
      </trkpt>
      <trkpt lat="42.091882" lon="2.540347">
        <ele>521.314</ele>
        <time>2021-05-27T10:48:38Z</time>
      </trkpt>
      <trkpt lat="42.091902" lon="2.540348">
        <ele>521.608</ele>
        <time>2021-05-27T10:48:39Z</time>
      </trkpt>
      <trkpt lat="42.091921" lon="2.540356">
        <ele>521.859</ele>
        <time>2021-05-27T10:48:41Z</time>
      </trkpt>
      <trkpt lat="42.091942" lon="2.540362">
        <ele>522.176</ele>
        <time>2021-05-27T10:48:44Z</time>
      </trkpt>
      <trkpt lat="42.091970" lon="2.540364">
        <ele>522.214</ele>
        <time>2021-05-27T10:48:47Z</time>
      </trkpt>
      <trkpt lat="42.091991" lon="2.540358">
        <ele>522.474</ele>
        <time>2021-05-27T10:48:49Z</time>
      </trkpt>
      <trkpt lat="42.092013" lon="2.540354">
        <ele>522.681</ele>
        <time>2021-05-27T10:48:51Z</time>
      </trkpt>
      <trkpt lat="42.092036" lon="2.540353">
        <ele>522.786</ele>
        <time>2021-05-27T10:48:53Z</time>
      </trkpt>
      <trkpt lat="42.092057" lon="2.540356">
        <ele>522.829</ele>
        <time>2021-05-27T10:48:55Z</time>
      </trkpt>
      <trkpt lat="42.092079" lon="2.540359">
        <ele>522.955</ele>
        <time>2021-05-27T10:48:57Z</time>
      </trkpt>
      <trkpt lat="42.092101" lon="2.540358">
        <ele>523.021</ele>
        <time>2021-05-27T10:48:59Z</time>
      </trkpt>
      <trkpt lat="42.092124" lon="2.540350">
        <ele>523.341</ele>
        <time>2021-05-27T10:49:01Z</time>
      </trkpt>
      <trkpt lat="42.092148" lon="2.540341">
        <ele>523.705</ele>
        <time>2021-05-27T10:49:03Z</time>
      </trkpt>
      <trkpt lat="42.092169" lon="2.540341">
        <ele>523.808</ele>
        <time>2021-05-27T10:49:05Z</time>
      </trkpt>
      <trkpt lat="42.092189" lon="2.540333">
        <ele>524.289</ele>
        <time>2021-05-27T10:49:07Z</time>
      </trkpt>
      <trkpt lat="42.092210" lon="2.540324">
        <ele>524.666</ele>
        <time>2021-05-27T10:49:08Z</time>
      </trkpt>
      <trkpt lat="42.092236" lon="2.540317">
        <ele>524.824</ele>
        <time>2021-05-27T10:49:10Z</time>
      </trkpt>
      <trkpt lat="42.092260" lon="2.540302">
        <ele>525.174</ele>
        <time>2021-05-27T10:49:13Z</time>
      </trkpt>
      <trkpt lat="42.092279" lon="2.540297">
        <ele>525.271</ele>
        <time>2021-05-27T10:49:15Z</time>
      </trkpt>
      <trkpt lat="42.092291" lon="2.540275">
        <ele>525.876</ele>
        <time>2021-05-27T10:49:18Z</time>
      </trkpt>
      <trkpt lat="42.092307" lon="2.540259">
        <ele>525.899</ele>
        <time>2021-05-27T10:49:19Z</time>
      </trkpt>
      <trkpt lat="42.092324" lon="2.540241">
        <ele>525.885</ele>
        <time>2021-05-27T10:49:22Z</time>
      </trkpt>
      <trkpt lat="42.092337" lon="2.540222">
        <ele>525.912</ele>
        <time>2021-05-27T10:49:24Z</time>
      </trkpt>
      <trkpt lat="42.092357" lon="2.540202">
        <ele>526.032</ele>
        <time>2021-05-27T10:49:26Z</time>
      </trkpt>
      <trkpt lat="42.092374" lon="2.540176">
        <ele>526.305</ele>
        <time>2021-05-27T10:49:28Z</time>
      </trkpt>
      <trkpt lat="42.092390" lon="2.540149">
        <ele>526.508</ele>
        <time>2021-05-27T10:49:30Z</time>
      </trkpt>
      <trkpt lat="42.092404" lon="2.540127">
        <ele>526.828</ele>
        <time>2021-05-27T10:49:32Z</time>
      </trkpt>
      <trkpt lat="42.092426" lon="2.540102">
        <ele>527.155</ele>
        <time>2021-05-27T10:49:35Z</time>
      </trkpt>
      <trkpt lat="42.092444" lon="2.540084">
        <ele>527.453</ele>
        <time>2021-05-27T10:49:37Z</time>
      </trkpt>
      <trkpt lat="42.092464" lon="2.540072">
        <ele>527.723</ele>
        <time>2021-05-27T10:49:39Z</time>
      </trkpt>
      <trkpt lat="42.092481" lon="2.540060">
        <ele>528.070</ele>
        <time>2021-05-27T10:49:41Z</time>
      </trkpt>
      <trkpt lat="42.092506" lon="2.540036">
        <ele>528.525</ele>
        <time>2021-05-27T10:49:43Z</time>
      </trkpt>
      <trkpt lat="42.092524" lon="2.540010">
        <ele>528.828</ele>
        <time>2021-05-27T10:49:45Z</time>
      </trkpt>
      <trkpt lat="42.092541" lon="2.539990">
        <ele>528.994</ele>
        <time>2021-05-27T10:49:46Z</time>
      </trkpt>
      <trkpt lat="42.092561" lon="2.539976">
        <ele>528.881</ele>
        <time>2021-05-27T10:49:49Z</time>
      </trkpt>
      <trkpt lat="42.092581" lon="2.539956">
        <ele>528.661</ele>
        <time>2021-05-27T10:49:51Z</time>
      </trkpt>
      <trkpt lat="42.092605" lon="2.539930">
        <ele>528.417</ele>
        <time>2021-05-27T10:49:52Z</time>
      </trkpt>
      <trkpt lat="42.092628" lon="2.539909">
        <ele>528.308</ele>
        <time>2021-05-27T10:49:55Z</time>
      </trkpt>
      <trkpt lat="42.092651" lon="2.539891">
        <ele>528.245</ele>
        <time>2021-05-27T10:49:57Z</time>
      </trkpt>
      <trkpt lat="42.092674" lon="2.539871">
        <ele>528.212</ele>
        <time>2021-05-27T10:49:58Z</time>
      </trkpt>
      <trkpt lat="42.092698" lon="2.539851">
        <ele>528.280</ele>
        <time>2021-05-27T10:50:01Z</time>
      </trkpt>
      <trkpt lat="42.092735" lon="2.539837">
        <ele>528.270</ele>
        <time>2021-05-27T10:50:03Z</time>
      </trkpt>
      <trkpt lat="42.092753" lon="2.539829">
        <ele>528.327</ele>
        <time>2021-05-27T10:50:04Z</time>
      </trkpt>
      <trkpt lat="42.092774" lon="2.539824">
        <ele>528.322</ele>
        <time>2021-05-27T10:50:05Z</time>
      </trkpt>
      <trkpt lat="42.092794" lon="2.539820">
        <ele>528.315</ele>
        <time>2021-05-27T10:50:06Z</time>
      </trkpt>
      <trkpt lat="42.092813" lon="2.539816">
        <ele>528.261</ele>
        <time>2021-05-27T10:50:07Z</time>
      </trkpt>
      <trkpt lat="42.092840" lon="2.539817">
        <ele>528.282</ele>
        <time>2021-05-27T10:50:08Z</time>
      </trkpt>
      <trkpt lat="42.092871" lon="2.539816">
        <ele>528.143</ele>
        <time>2021-05-27T10:50:10Z</time>
      </trkpt>
      <trkpt lat="42.092900" lon="2.539807">
        <ele>528.117</ele>
        <time>2021-05-27T10:50:12Z</time>
      </trkpt>
      <trkpt lat="42.092957" lon="2.539791">
        <ele>528.308</ele>
        <time>2021-05-27T10:50:15Z</time>
      </trkpt>
      <trkpt lat="42.092980" lon="2.539782">
        <ele>528.445</ele>
        <time>2021-05-27T10:50:17Z</time>
      </trkpt>
      <trkpt lat="42.093001" lon="2.539775">
        <ele>528.652</ele>
        <time>2021-05-27T10:50:18Z</time>
      </trkpt>
      <trkpt lat="42.093023" lon="2.539768">
        <ele>528.870</ele>
        <time>2021-05-27T10:50:19Z</time>
      </trkpt>
      <trkpt lat="42.093046" lon="2.539760">
        <ele>529.090</ele>
        <time>2021-05-27T10:50:20Z</time>
      </trkpt>
      <trkpt lat="42.093064" lon="2.539749">
        <ele>529.267</ele>
        <time>2021-05-27T10:50:21Z</time>
      </trkpt>
      <trkpt lat="42.093113" lon="2.539733">
        <ele>529.352</ele>
        <time>2021-05-27T10:50:23Z</time>
      </trkpt>
      <trkpt lat="42.093131" lon="2.539726">
        <ele>529.375</ele>
        <time>2021-05-27T10:50:25Z</time>
      </trkpt>
      <trkpt lat="42.093152" lon="2.539714">
        <ele>529.271</ele>
        <time>2021-05-27T10:50:26Z</time>
      </trkpt>
      <trkpt lat="42.093173" lon="2.539706">
        <ele>529.062</ele>
        <time>2021-05-27T10:50:27Z</time>
      </trkpt>
      <trkpt lat="42.093194" lon="2.539699">
        <ele>528.883</ele>
        <time>2021-05-27T10:50:28Z</time>
      </trkpt>
      <trkpt lat="42.093231" lon="2.539676">
        <ele>528.511</ele>
        <time>2021-05-27T10:50:30Z</time>
      </trkpt>
      <trkpt lat="42.093250" lon="2.539664">
        <ele>528.308</ele>
        <time>2021-05-27T10:50:31Z</time>
      </trkpt>
      <trkpt lat="42.093275" lon="2.539651">
        <ele>528.273</ele>
        <time>2021-05-27T10:50:32Z</time>
      </trkpt>
      <trkpt lat="42.093296" lon="2.539638">
        <ele>528.180</ele>
        <time>2021-05-27T10:50:33Z</time>
      </trkpt>
      <trkpt lat="42.093333" lon="2.539602">
        <ele>528.028</ele>
        <time>2021-05-27T10:50:35Z</time>
      </trkpt>
      <trkpt lat="42.093347" lon="2.539584">
        <ele>527.928</ele>
        <time>2021-05-27T10:50:37Z</time>
      </trkpt>
      <trkpt lat="42.093362" lon="2.539570">
        <ele>527.845</ele>
        <time>2021-05-27T10:50:38Z</time>
      </trkpt>
      <trkpt lat="42.093393" lon="2.539544">
        <ele>527.880</ele>
        <time>2021-05-27T10:50:39Z</time>
      </trkpt>
      <trkpt lat="42.093409" lon="2.539530">
        <ele>527.963</ele>
        <time>2021-05-27T10:50:41Z</time>
      </trkpt>
      <trkpt lat="42.093425" lon="2.539516">
        <ele>528.089</ele>
        <time>2021-05-27T10:50:42Z</time>
      </trkpt>
      <trkpt lat="42.093442" lon="2.539499">
        <ele>528.271</ele>
        <time>2021-05-27T10:50:43Z</time>
      </trkpt>
      <trkpt lat="42.093476" lon="2.539467">
        <ele>528.741</ele>
        <time>2021-05-27T10:50:44Z</time>
      </trkpt>
      <trkpt lat="42.093509" lon="2.539436">
        <ele>529.215</ele>
        <time>2021-05-27T10:50:46Z</time>
      </trkpt>
      <trkpt lat="42.093528" lon="2.539420">
        <ele>529.208</ele>
        <time>2021-05-27T10:50:47Z</time>
      </trkpt>
      <trkpt lat="42.093548" lon="2.539402">
        <ele>529.254</ele>
        <time>2021-05-27T10:50:48Z</time>
      </trkpt>
      <trkpt lat="42.093566" lon="2.539388">
        <ele>529.261</ele>
        <time>2021-05-27T10:50:49Z</time>
      </trkpt>
      <trkpt lat="42.093582" lon="2.539373">
        <ele>529.219</ele>
        <time>2021-05-27T10:50:51Z</time>
      </trkpt>
      <trkpt lat="42.093599" lon="2.539355">
        <ele>529.239</ele>
        <time>2021-05-27T10:50:52Z</time>
      </trkpt>
      <trkpt lat="42.093627" lon="2.539329">
        <ele>529.366</ele>
        <time>2021-05-27T10:50:53Z</time>
      </trkpt>
      <trkpt lat="42.093646" lon="2.539318">
        <ele>529.361</ele>
        <time>2021-05-27T10:50:55Z</time>
      </trkpt>
      <trkpt lat="42.093675" lon="2.539309">
        <ele>529.524</ele>
        <time>2021-05-27T10:50:57Z</time>
      </trkpt>
      <trkpt lat="42.093700" lon="2.539315">
        <ele>529.760</ele>
        <time>2021-05-27T10:50:59Z</time>
      </trkpt>
      <trkpt lat="42.093725" lon="2.539315">
        <ele>529.995</ele>
        <time>2021-05-27T10:51:01Z</time>
      </trkpt>
      <trkpt lat="42.093747" lon="2.539315">
        <ele>530.049</ele>
        <time>2021-05-27T10:51:02Z</time>
      </trkpt>
      <trkpt lat="42.093765" lon="2.539308">
        <ele>530.123</ele>
        <time>2021-05-27T10:51:05Z</time>
      </trkpt>
      <trkpt lat="42.093790" lon="2.539303">
        <ele>530.308</ele>
        <time>2021-05-27T10:51:06Z</time>
      </trkpt>
      <trkpt lat="42.093815" lon="2.539302">
        <ele>530.576</ele>
        <time>2021-05-27T10:51:09Z</time>
      </trkpt>
      <trkpt lat="42.093851" lon="2.539304">
        <ele>530.733</ele>
        <time>2021-05-27T10:51:11Z</time>
      </trkpt>
      <trkpt lat="42.093870" lon="2.539329">
        <ele>530.991</ele>
        <time>2021-05-27T10:51:13Z</time>
      </trkpt>
      <trkpt lat="42.093900" lon="2.539347">
        <ele>531.231</ele>
        <time>2021-05-27T10:51:16Z</time>
      </trkpt>
      <trkpt lat="42.093928" lon="2.539346">
        <ele>531.648</ele>
        <time>2021-05-27T10:51:18Z</time>
      </trkpt>
      <trkpt lat="42.093949" lon="2.539345">
        <ele>531.943</ele>
        <time>2021-05-27T10:51:20Z</time>
      </trkpt>
      <trkpt lat="42.093974" lon="2.539346">
        <ele>532.366</ele>
        <time>2021-05-27T10:51:22Z</time>
      </trkpt>
      <trkpt lat="42.093998" lon="2.539358">
        <ele>532.732</ele>
        <time>2021-05-27T10:51:24Z</time>
      </trkpt>
      <trkpt lat="42.094020" lon="2.539372">
        <ele>533.052</ele>
        <time>2021-05-27T10:51:26Z</time>
      </trkpt>
      <trkpt lat="42.094040" lon="2.539371">
        <ele>533.353</ele>
        <time>2021-05-27T10:51:27Z</time>
      </trkpt>
      <trkpt lat="42.094064" lon="2.539374">
        <ele>533.708</ele>
        <time>2021-05-27T10:51:31Z</time>
      </trkpt>
      <trkpt lat="42.094086" lon="2.539386">
        <ele>534.008</ele>
        <time>2021-05-27T10:51:33Z</time>
      </trkpt>
      <trkpt lat="42.094108" lon="2.539395">
        <ele>534.322</ele>
        <time>2021-05-27T10:51:35Z</time>
      </trkpt>
      <trkpt lat="42.094130" lon="2.539404">
        <ele>534.669</ele>
        <time>2021-05-27T10:51:37Z</time>
      </trkpt>
      <trkpt lat="42.094155" lon="2.539393">
        <ele>535.097</ele>
        <time>2021-05-27T10:51:40Z</time>
      </trkpt>
      <trkpt lat="42.094179" lon="2.539393">
        <ele>535.447</ele>
        <time>2021-05-27T10:51:42Z</time>
      </trkpt>
      <trkpt lat="42.094203" lon="2.539391">
        <ele>535.864</ele>
        <time>2021-05-27T10:51:44Z</time>
      </trkpt>
      <trkpt lat="42.094224" lon="2.539397">
        <ele>536.139</ele>
        <time>2021-05-27T10:51:46Z</time>
      </trkpt>
      <trkpt lat="42.094251" lon="2.539395">
        <ele>536.542</ele>
        <time>2021-05-27T10:51:48Z</time>
      </trkpt>
      <trkpt lat="42.094271" lon="2.539405">
        <ele>536.858</ele>
        <time>2021-05-27T10:51:52Z</time>
      </trkpt>
      <trkpt lat="42.094290" lon="2.539408">
        <ele>537.047</ele>
        <time>2021-05-27T10:51:53Z</time>
      </trkpt>
      <trkpt lat="42.094312" lon="2.539407">
        <ele>537.429</ele>
        <time>2021-05-27T10:51:55Z</time>
      </trkpt>
      <trkpt lat="42.094341" lon="2.539404">
        <ele>537.821</ele>
        <time>2021-05-27T10:51:59Z</time>
      </trkpt>
      <trkpt lat="42.094364" lon="2.539398">
        <ele>538.208</ele>
        <time>2021-05-27T10:52:00Z</time>
      </trkpt>
      <trkpt lat="42.094388" lon="2.539403">
        <ele>538.691</ele>
        <time>2021-05-27T10:52:02Z</time>
      </trkpt>
      <trkpt lat="42.094413" lon="2.539407">
        <ele>538.958</ele>
        <time>2021-05-27T10:52:04Z</time>
      </trkpt>
      <trkpt lat="42.094436" lon="2.539418">
        <ele>539.216</ele>
        <time>2021-05-27T10:52:07Z</time>
      </trkpt>
      <trkpt lat="42.094462" lon="2.539423">
        <ele>539.676</ele>
        <time>2021-05-27T10:52:09Z</time>
      </trkpt>
      <trkpt lat="42.094484" lon="2.539432">
        <ele>539.933</ele>
        <time>2021-05-27T10:52:11Z</time>
      </trkpt>
      <trkpt lat="42.094507" lon="2.539439">
        <ele>540.228</ele>
        <time>2021-05-27T10:52:13Z</time>
      </trkpt>
      <trkpt lat="42.094530" lon="2.539440">
        <ele>540.631</ele>
        <time>2021-05-27T10:52:14Z</time>
      </trkpt>
      <trkpt lat="42.094557" lon="2.539448">
        <ele>540.977</ele>
        <time>2021-05-27T10:52:18Z</time>
      </trkpt>
      <trkpt lat="42.094580" lon="2.539451">
        <ele>541.273</ele>
        <time>2021-05-27T10:52:19Z</time>
      </trkpt>
      <trkpt lat="42.094601" lon="2.539460">
        <ele>541.385</ele>
        <time>2021-05-27T10:52:21Z</time>
      </trkpt>
      <trkpt lat="42.094619" lon="2.539468">
        <ele>541.413</ele>
        <time>2021-05-27T10:52:24Z</time>
      </trkpt>
      <trkpt lat="42.094639" lon="2.539474">
        <ele>541.608</ele>
        <time>2021-05-27T10:52:26Z</time>
      </trkpt>
      <trkpt lat="42.094658" lon="2.539476">
        <ele>541.984</ele>
        <time>2021-05-27T10:52:28Z</time>
      </trkpt>
      <trkpt lat="42.094683" lon="2.539483">
        <ele>542.171</ele>
        <time>2021-05-27T10:52:30Z</time>
      </trkpt>
      <trkpt lat="42.094704" lon="2.539487">
        <ele>542.499</ele>
        <time>2021-05-27T10:52:33Z</time>
      </trkpt>
      <trkpt lat="42.094731" lon="2.539497">
        <ele>542.689</ele>
        <time>2021-05-27T10:52:35Z</time>
      </trkpt>
      <trkpt lat="42.094750" lon="2.539504">
        <ele>542.746</ele>
        <time>2021-05-27T10:52:38Z</time>
      </trkpt>
      <trkpt lat="42.094768" lon="2.539509">
        <ele>542.871</ele>
        <time>2021-05-27T10:52:39Z</time>
      </trkpt>
      <trkpt lat="42.094788" lon="2.539510">
        <ele>543.034</ele>
        <time>2021-05-27T10:52:42Z</time>
      </trkpt>
      <trkpt lat="42.094815" lon="2.539518">
        <ele>543.160</ele>
        <time>2021-05-27T10:52:45Z</time>
      </trkpt>
      <trkpt lat="42.094840" lon="2.539520">
        <ele>543.427</ele>
        <time>2021-05-27T10:52:47Z</time>
      </trkpt>
      <trkpt lat="42.094862" lon="2.539522">
        <ele>543.668</ele>
        <time>2021-05-27T10:52:49Z</time>
      </trkpt>
      <trkpt lat="42.094894" lon="2.539526">
        <ele>543.914</ele>
        <time>2021-05-27T10:52:51Z</time>
      </trkpt>
      <trkpt lat="42.094917" lon="2.539521">
        <ele>544.408</ele>
        <time>2021-05-27T10:52:52Z</time>
      </trkpt>
      <trkpt lat="42.094908" lon="2.539496">
        <ele>545.139</ele>
        <time>2021-05-27T10:52:56Z</time>
      </trkpt>
      <trkpt lat="42.094889" lon="2.539476">
        <ele>545.466</ele>
        <time>2021-05-27T10:52:59Z</time>
      </trkpt>
      <trkpt lat="42.094872" lon="2.539462">
        <ele>545.654</ele>
        <time>2021-05-27T10:53:00Z</time>
      </trkpt>
      <trkpt lat="42.094850" lon="2.539442">
        <ele>545.974</ele>
        <time>2021-05-27T10:53:03Z</time>
      </trkpt>
      <trkpt lat="42.094781" lon="2.539362">
        <ele>546.521</ele>
        <time>2021-05-27T10:53:12Z</time>
      </trkpt>
      <trkpt lat="42.094763" lon="2.539328">
        <ele>546.966</ele>
        <time>2021-05-27T10:53:14Z</time>
      </trkpt>
      <trkpt lat="42.094751" lon="2.539302">
        <ele>547.119</ele>
        <time>2021-05-27T10:53:15Z</time>
      </trkpt>
      <trkpt lat="42.094738" lon="2.539280">
        <ele>547.355</ele>
        <time>2021-05-27T10:53:17Z</time>
      </trkpt>
      <trkpt lat="42.094734" lon="2.539246">
        <ele>547.897</ele>
        <time>2021-05-27T10:53:21Z</time>
      </trkpt>
      <trkpt lat="42.094747" lon="2.539222">
        <ele>548.623</ele>
        <time>2021-05-27T10:53:24Z</time>
      </trkpt>
      <trkpt lat="42.094761" lon="2.539198">
        <ele>549.425</ele>
        <time>2021-05-27T10:53:27Z</time>
      </trkpt>
      <trkpt lat="42.094781" lon="2.539207">
        <ele>549.708</ele>
        <time>2021-05-27T10:53:32Z</time>
      </trkpt>
      <trkpt lat="42.094799" lon="2.539218">
        <ele>549.926</ele>
        <time>2021-05-27T10:53:35Z</time>
      </trkpt>
      <trkpt lat="42.094817" lon="2.539225">
        <ele>550.133</ele>
        <time>2021-05-27T10:53:37Z</time>
      </trkpt>
      <trkpt lat="42.094839" lon="2.539237">
        <ele>550.441</ele>
        <time>2021-05-27T10:53:40Z</time>
      </trkpt>
      <trkpt lat="42.094860" lon="2.539251">
        <ele>550.591</ele>
        <time>2021-05-27T10:53:43Z</time>
      </trkpt>
      <trkpt lat="42.094889" lon="2.539259">
        <ele>550.938</ele>
        <time>2021-05-27T10:53:46Z</time>
      </trkpt>
      <trkpt lat="42.094917" lon="2.539259">
        <ele>551.563</ele>
        <time>2021-05-27T10:53:48Z</time>
      </trkpt>
      <trkpt lat="42.094936" lon="2.539257">
        <ele>552.056</ele>
        <time>2021-05-27T10:53:50Z</time>
      </trkpt>
      <trkpt lat="42.094957" lon="2.539257">
        <ele>552.572</ele>
        <time>2021-05-27T10:53:51Z</time>
      </trkpt>
      <trkpt lat="42.094976" lon="2.539256">
        <ele>552.922</ele>
        <time>2021-05-27T10:53:54Z</time>
      </trkpt>
      <trkpt lat="42.094996" lon="2.539256">
        <ele>553.362</ele>
        <time>2021-05-27T10:53:56Z</time>
      </trkpt>
      <trkpt lat="42.095020" lon="2.539253">
        <ele>553.208</ele>
        <time>2021-05-27T10:53:58Z</time>
      </trkpt>
      <trkpt lat="42.095053" lon="2.539247">
        <ele>552.808</ele>
        <time>2021-05-27T10:54:00Z</time>
      </trkpt>
      <trkpt lat="42.095077" lon="2.539239">
        <ele>552.669</ele>
        <time>2021-05-27T10:54:02Z</time>
      </trkpt>
      <trkpt lat="42.095102" lon="2.539225">
        <ele>552.666</ele>
        <time>2021-05-27T10:54:03Z</time>
      </trkpt>
      <trkpt lat="42.095127" lon="2.539209">
        <ele>552.794</ele>
        <time>2021-05-27T10:54:05Z</time>
      </trkpt>
      <trkpt lat="42.095151" lon="2.539189">
        <ele>553.114</ele>
        <time>2021-05-27T10:54:08Z</time>
      </trkpt>
      <trkpt lat="42.095172" lon="2.539164">
        <ele>553.521</ele>
        <time>2021-05-27T10:54:10Z</time>
      </trkpt>
      <trkpt lat="42.095197" lon="2.539139">
        <ele>553.446</ele>
        <time>2021-05-27T10:54:12Z</time>
      </trkpt>
      <trkpt lat="42.095220" lon="2.539114">
        <ele>553.429</ele>
        <time>2021-05-27T10:54:14Z</time>
      </trkpt>
      <trkpt lat="42.095239" lon="2.539083">
        <ele>553.535</ele>
        <time>2021-05-27T10:54:15Z</time>
      </trkpt>
      <trkpt lat="42.095258" lon="2.539060">
        <ele>553.746</ele>
        <time>2021-05-27T10:54:18Z</time>
      </trkpt>
      <trkpt lat="42.095282" lon="2.539045">
        <ele>553.788</ele>
        <time>2021-05-27T10:54:20Z</time>
      </trkpt>
      <trkpt lat="42.095308" lon="2.539028">
        <ele>553.816</ele>
        <time>2021-05-27T10:54:22Z</time>
      </trkpt>
      <trkpt lat="42.095331" lon="2.539016">
        <ele>553.808</ele>
        <time>2021-05-27T10:54:24Z</time>
      </trkpt>
      <trkpt lat="42.095357" lon="2.539006">
        <ele>553.941</ele>
        <time>2021-05-27T10:54:26Z</time>
      </trkpt>
      <trkpt lat="42.095380" lon="2.538996">
        <ele>554.058</ele>
        <time>2021-05-27T10:54:28Z</time>
      </trkpt>
      <trkpt lat="42.095400" lon="2.538983">
        <ele>554.246</ele>
        <time>2021-05-27T10:54:30Z</time>
      </trkpt>
      <trkpt lat="42.095420" lon="2.538969">
        <ele>554.536</ele>
        <time>2021-05-27T10:54:32Z</time>
      </trkpt>
      <trkpt lat="42.095442" lon="2.538953">
        <ele>554.893</ele>
        <time>2021-05-27T10:54:34Z</time>
      </trkpt>
      <trkpt lat="42.095464" lon="2.538931">
        <ele>555.598</ele>
        <time>2021-05-27T10:54:36Z</time>
      </trkpt>
      <trkpt lat="42.095484" lon="2.538913">
        <ele>556.051</ele>
        <time>2021-05-27T10:54:38Z</time>
      </trkpt>
      <trkpt lat="42.095503" lon="2.538900">
        <ele>556.557</ele>
        <time>2021-05-27T10:54:39Z</time>
      </trkpt>
      <trkpt lat="42.095522" lon="2.538887">
        <ele>556.938</ele>
        <time>2021-05-27T10:54:41Z</time>
      </trkpt>
      <trkpt lat="42.095542" lon="2.538875">
        <ele>556.870</ele>
        <time>2021-05-27T10:54:44Z</time>
      </trkpt>
      <trkpt lat="42.095563" lon="2.538869">
        <ele>556.817</ele>
        <time>2021-05-27T10:54:46Z</time>
      </trkpt>
      <trkpt lat="42.095588" lon="2.538867">
        <ele>556.908</ele>
        <time>2021-05-27T10:54:48Z</time>
      </trkpt>
      <trkpt lat="42.095609" lon="2.538866">
        <ele>557.060</ele>
        <time>2021-05-27T10:54:50Z</time>
      </trkpt>
      <trkpt lat="42.095634" lon="2.538860">
        <ele>557.137</ele>
        <time>2021-05-27T10:54:51Z</time>
      </trkpt>
      <trkpt lat="42.095661" lon="2.538854">
        <ele>557.135</ele>
        <time>2021-05-27T10:54:53Z</time>
      </trkpt>
      <trkpt lat="42.095683" lon="2.538846">
        <ele>557.225</ele>
        <time>2021-05-27T10:54:56Z</time>
      </trkpt>
      <trkpt lat="42.095704" lon="2.538837">
        <ele>557.382</ele>
        <time>2021-05-27T10:54:58Z</time>
      </trkpt>
      <trkpt lat="42.095738" lon="2.538821">
        <ele>557.457</ele>
        <time>2021-05-27T10:55:00Z</time>
      </trkpt>
      <trkpt lat="42.095767" lon="2.538809">
        <ele>557.680</ele>
        <time>2021-05-27T10:55:03Z</time>
      </trkpt>
      <trkpt lat="42.095796" lon="2.538795">
        <ele>557.726</ele>
        <time>2021-05-27T10:55:04Z</time>
      </trkpt>
      <trkpt lat="42.095811" lon="2.538782">
        <ele>557.815</ele>
        <time>2021-05-27T10:55:06Z</time>
      </trkpt>
      <trkpt lat="42.095912" lon="2.538784">
        <ele>558.365</ele>
        <time>2021-05-27T10:55:15Z</time>
      </trkpt>
      <trkpt lat="42.096010" lon="2.538785">
        <ele>558.611</ele>
        <time>2021-05-27T10:55:23Z</time>
      </trkpt>
      <trkpt lat="42.096030" lon="2.538784">
        <ele>558.608</ele>
        <time>2021-05-27T10:55:25Z</time>
      </trkpt>
      <trkpt lat="42.096055" lon="2.538771">
        <ele>558.938</ele>
        <time>2021-05-27T10:55:28Z</time>
      </trkpt>
      <trkpt lat="42.096074" lon="2.538761">
        <ele>559.155</ele>
        <time>2021-05-27T10:55:30Z</time>
      </trkpt>
      <trkpt lat="42.096093" lon="2.538750">
        <ele>559.483</ele>
        <time>2021-05-27T10:55:32Z</time>
      </trkpt>
      <trkpt lat="42.096116" lon="2.538737">
        <ele>559.723</ele>
        <time>2021-05-27T10:55:34Z</time>
      </trkpt>
      <trkpt lat="42.096134" lon="2.538735">
        <ele>559.760</ele>
        <time>2021-05-27T10:55:36Z</time>
      </trkpt>
      <trkpt lat="42.096151" lon="2.538725">
        <ele>559.925</ele>
        <time>2021-05-27T10:55:42Z</time>
      </trkpt>
      <trkpt lat="42.096132" lon="2.538727">
        <ele>559.948</ele>
        <time>2021-05-27T10:55:48Z</time>
      </trkpt>
      <trkpt lat="42.096127" lon="2.538696">
        <ele>560.524</ele>
        <time>2021-05-27T10:56:07Z</time>
      </trkpt>
      <trkpt lat="42.096144" lon="2.538681">
        <ele>560.814</ele>
        <time>2021-05-27T10:56:12Z</time>
      </trkpt>
      <trkpt lat="42.096156" lon="2.538661">
        <ele>561.354</ele>
        <time>2021-05-27T10:56:16Z</time>
      </trkpt>
      <trkpt lat="42.096171" lon="2.538644">
        <ele>561.709</ele>
        <time>2021-05-27T10:56:19Z</time>
      </trkpt>
      <trkpt lat="42.096190" lon="2.538633">
        <ele>562.008</ele>
        <time>2021-05-27T10:56:21Z</time>
      </trkpt>
      <trkpt lat="42.096210" lon="2.538628">
        <ele>562.398</ele>
        <time>2021-05-27T10:56:23Z</time>
      </trkpt>
      <trkpt lat="42.096236" lon="2.538618">
        <ele>562.715</ele>
        <time>2021-05-27T10:56:26Z</time>
      </trkpt>
      <trkpt lat="42.096258" lon="2.538608">
        <ele>563.083</ele>
        <time>2021-05-27T10:56:28Z</time>
      </trkpt>
      <trkpt lat="42.096286" lon="2.538599">
        <ele>563.163</ele>
        <time>2021-05-27T10:56:29Z</time>
      </trkpt>
      <trkpt lat="42.096310" lon="2.538595">
        <ele>563.360</ele>
        <time>2021-05-27T10:56:32Z</time>
      </trkpt>
      <trkpt lat="42.096330" lon="2.538588">
        <ele>563.495</ele>
        <time>2021-05-27T10:56:34Z</time>
      </trkpt>
      <trkpt lat="42.096351" lon="2.538584">
        <ele>563.518</ele>
        <time>2021-05-27T10:56:36Z</time>
      </trkpt>
      <trkpt lat="42.096371" lon="2.538576">
        <ele>563.634</ele>
        <time>2021-05-27T10:56:38Z</time>
      </trkpt>
      <trkpt lat="42.096392" lon="2.538563">
        <ele>563.742</ele>
        <time>2021-05-27T10:56:40Z</time>
      </trkpt>
      <trkpt lat="42.096412" lon="2.538554">
        <ele>563.722</ele>
        <time>2021-05-27T10:56:41Z</time>
      </trkpt>
      <trkpt lat="42.096432" lon="2.538552">
        <ele>563.914</ele>
        <time>2021-05-27T10:56:43Z</time>
      </trkpt>
      <trkpt lat="42.096456" lon="2.538547">
        <ele>564.008</ele>
        <time>2021-05-27T10:56:45Z</time>
      </trkpt>
      <trkpt lat="42.096473" lon="2.538528">
        <ele>564.191</ele>
        <time>2021-05-27T10:56:47Z</time>
      </trkpt>
      <trkpt lat="42.096498" lon="2.538506">
        <ele>564.228</ele>
        <time>2021-05-27T10:56:49Z</time>
      </trkpt>
      <trkpt lat="42.096518" lon="2.538486">
        <ele>564.456</ele>
        <time>2021-05-27T10:56:50Z</time>
      </trkpt>
      <trkpt lat="42.096538" lon="2.538478">
        <ele>564.666</ele>
        <time>2021-05-27T10:56:53Z</time>
      </trkpt>
      <trkpt lat="42.096562" lon="2.538478">
        <ele>564.993</ele>
        <time>2021-05-27T10:56:55Z</time>
      </trkpt>
      <trkpt lat="42.096589" lon="2.538475">
        <ele>565.288</ele>
        <time>2021-05-27T10:56:57Z</time>
      </trkpt>
      <trkpt lat="42.096611" lon="2.538474">
        <ele>565.471</ele>
        <time>2021-05-27T10:56:59Z</time>
      </trkpt>
      <trkpt lat="42.096634" lon="2.538482">
        <ele>565.697</ele>
        <time>2021-05-27T10:57:02Z</time>
      </trkpt>
      <trkpt lat="42.096657" lon="2.538487">
        <ele>565.814</ele>
        <time>2021-05-27T10:57:04Z</time>
      </trkpt>
      <trkpt lat="42.096679" lon="2.538491">
        <ele>566.054</ele>
        <time>2021-05-27T10:57:06Z</time>
      </trkpt>
      <trkpt lat="42.096701" lon="2.538493">
        <ele>566.309</ele>
        <time>2021-05-27T10:57:08Z</time>
      </trkpt>
      <trkpt lat="42.096726" lon="2.538480">
        <ele>566.808</ele>
        <time>2021-05-27T10:57:11Z</time>
      </trkpt>
      <trkpt lat="42.096755" lon="2.538481">
        <ele>567.238</ele>
        <time>2021-05-27T10:57:13Z</time>
      </trkpt>
      <trkpt lat="42.096786" lon="2.538476">
        <ele>567.775</ele>
        <time>2021-05-27T10:57:15Z</time>
      </trkpt>
      <trkpt lat="42.096810" lon="2.538465">
        <ele>568.183</ele>
        <time>2021-05-27T10:57:17Z</time>
      </trkpt>
      <trkpt lat="42.096837" lon="2.538450">
        <ele>568.643</ele>
        <time>2021-05-27T10:57:19Z</time>
      </trkpt>
      <trkpt lat="42.096860" lon="2.538436">
        <ele>569.040</ele>
        <time>2021-05-27T10:57:22Z</time>
      </trkpt>
      <trkpt lat="42.096879" lon="2.538429">
        <ele>569.465</ele>
        <time>2021-05-27T10:57:24Z</time>
      </trkpt>
      <trkpt lat="42.096899" lon="2.538427">
        <ele>569.738</ele>
        <time>2021-05-27T10:57:26Z</time>
      </trkpt>
      <trkpt lat="42.096923" lon="2.538421">
        <ele>570.154</ele>
        <time>2021-05-27T10:57:28Z</time>
      </trkpt>
      <trkpt lat="42.096943" lon="2.538421">
        <ele>570.351</ele>
        <time>2021-05-27T10:57:30Z</time>
      </trkpt>
      <trkpt lat="42.096966" lon="2.538426">
        <ele>570.901</ele>
        <time>2021-05-27T10:57:32Z</time>
      </trkpt>
      <trkpt lat="42.096988" lon="2.538422">
        <ele>571.411</ele>
        <time>2021-05-27T10:57:35Z</time>
      </trkpt>
      <trkpt lat="42.097009" lon="2.538412">
        <ele>572.008</ele>
        <time>2021-05-27T10:57:37Z</time>
      </trkpt>
      <trkpt lat="42.097028" lon="2.538406">
        <ele>572.412</ele>
        <time>2021-05-27T10:57:39Z</time>
      </trkpt>
      <trkpt lat="42.097044" lon="2.538392">
        <ele>572.919</ele>
        <time>2021-05-27T10:57:41Z</time>
      </trkpt>
      <trkpt lat="42.097069" lon="2.538381">
        <ele>573.527</ele>
        <time>2021-05-27T10:57:43Z</time>
      </trkpt>
      <trkpt lat="42.097095" lon="2.538376">
        <ele>574.187</ele>
        <time>2021-05-27T10:57:45Z</time>
      </trkpt>
      <trkpt lat="42.097117" lon="2.538374">
        <ele>574.664</ele>
        <time>2021-05-27T10:57:47Z</time>
      </trkpt>
      <trkpt lat="42.097138" lon="2.538376">
        <ele>575.159</ele>
        <time>2021-05-27T10:57:49Z</time>
      </trkpt>
      <trkpt lat="42.097162" lon="2.538371">
        <ele>575.662</ele>
        <time>2021-05-27T10:57:51Z</time>
      </trkpt>
      <trkpt lat="42.097182" lon="2.538363">
        <ele>576.198</ele>
        <time>2021-05-27T10:57:53Z</time>
      </trkpt>
      <trkpt lat="42.097197" lon="2.538346">
        <ele>576.457</ele>
        <time>2021-05-27T10:57:55Z</time>
      </trkpt>
      <trkpt lat="42.097216" lon="2.538345">
        <ele>576.900</ele>
        <time>2021-05-27T10:57:58Z</time>
      </trkpt>
      <trkpt lat="42.097237" lon="2.538354">
        <ele>577.320</ele>
        <time>2021-05-27T10:58:00Z</time>
      </trkpt>
      <trkpt lat="42.097261" lon="2.538359">
        <ele>577.808</ele>
        <time>2021-05-27T10:58:02Z</time>
      </trkpt>
      <trkpt lat="42.097279" lon="2.538357">
        <ele>578.262</ele>
        <time>2021-05-27T10:58:03Z</time>
      </trkpt>
      <trkpt lat="42.097286" lon="2.538329">
        <ele>578.499</ele>
        <time>2021-05-27T10:58:07Z</time>
      </trkpt>
      <trkpt lat="42.097294" lon="2.538306">
        <ele>578.587</ele>
        <time>2021-05-27T10:58:09Z</time>
      </trkpt>
      <trkpt lat="42.097305" lon="2.538279">
        <ele>578.737</ele>
        <time>2021-05-27T10:58:10Z</time>
      </trkpt>
      <trkpt lat="42.097309" lon="2.538247">
        <ele>578.784</ele>
        <time>2021-05-27T10:58:13Z</time>
      </trkpt>
      <trkpt lat="42.097307" lon="2.538217">
        <ele>578.549</ele>
        <time>2021-05-27T10:58:15Z</time>
      </trkpt>
      <trkpt lat="42.097312" lon="2.538189">
        <ele>578.612</ele>
        <time>2021-05-27T10:58:17Z</time>
      </trkpt>
      <trkpt lat="42.097318" lon="2.538161">
        <ele>578.788</ele>
        <time>2021-05-27T10:58:19Z</time>
      </trkpt>
      <trkpt lat="42.097326" lon="2.538136">
        <ele>578.816</ele>
        <time>2021-05-27T10:58:21Z</time>
      </trkpt>
      <trkpt lat="42.097332" lon="2.538109">
        <ele>578.976</ele>
        <time>2021-05-27T10:58:23Z</time>
      </trkpt>
      <trkpt lat="42.097340" lon="2.538085">
        <ele>579.013</ele>
        <time>2021-05-27T10:58:25Z</time>
      </trkpt>
      <trkpt lat="42.097349" lon="2.538057">
        <ele>579.208</ele>
        <time>2021-05-27T10:58:27Z</time>
      </trkpt>
      <trkpt lat="42.097354" lon="2.538031">
        <ele>579.398</ele>
        <time>2021-05-27T10:58:29Z</time>
      </trkpt>
      <trkpt lat="42.097366" lon="2.538007">
        <ele>579.695</ele>
        <time>2021-05-27T10:58:31Z</time>
      </trkpt>
      <trkpt lat="42.097380" lon="2.537979">
        <ele>580.013</ele>
        <time>2021-05-27T10:58:33Z</time>
      </trkpt>
      <trkpt lat="42.097393" lon="2.537954">
        <ele>580.413</ele>
        <time>2021-05-27T10:58:35Z</time>
      </trkpt>
      <trkpt lat="42.097405" lon="2.537921">
        <ele>580.870</ele>
        <time>2021-05-27T10:58:37Z</time>
      </trkpt>
      <trkpt lat="42.097413" lon="2.537885">
        <ele>581.075</ele>
        <time>2021-05-27T10:58:39Z</time>
      </trkpt>
      <trkpt lat="42.097422" lon="2.537855">
        <ele>581.468</ele>
        <time>2021-05-27T10:58:40Z</time>
      </trkpt>
      <trkpt lat="42.097433" lon="2.537825">
        <ele>581.724</ele>
        <time>2021-05-27T10:58:43Z</time>
      </trkpt>
      <trkpt lat="42.097442" lon="2.537798">
        <ele>582.193</ele>
        <time>2021-05-27T10:58:45Z</time>
      </trkpt>
      <trkpt lat="42.097455" lon="2.537768">
        <ele>582.565</ele>
        <time>2021-05-27T10:58:47Z</time>
      </trkpt>
      <trkpt lat="42.097465" lon="2.537741">
        <ele>582.821</ele>
        <time>2021-05-27T10:58:49Z</time>
      </trkpt>
      <trkpt lat="42.097473" lon="2.537711">
        <ele>582.908</ele>
        <time>2021-05-27T10:58:51Z</time>
      </trkpt>
      <trkpt lat="42.097482" lon="2.537680">
        <ele>583.176</ele>
        <time>2021-05-27T10:58:53Z</time>
      </trkpt>
      <trkpt lat="42.097496" lon="2.537651">
        <ele>583.433</ele>
        <time>2021-05-27T10:58:55Z</time>
      </trkpt>
      <trkpt lat="42.097504" lon="2.537621">
        <ele>583.691</ele>
        <time>2021-05-27T10:58:57Z</time>
      </trkpt>
      <trkpt lat="42.097513" lon="2.537594">
        <ele>584.031</ele>
        <time>2021-05-27T10:58:59Z</time>
      </trkpt>
      <trkpt lat="42.097527" lon="2.537564">
        <ele>584.698</ele>
        <time>2021-05-27T10:59:01Z</time>
      </trkpt>
      <trkpt lat="42.097538" lon="2.537530">
        <ele>585.013</ele>
        <time>2021-05-27T10:59:03Z</time>
      </trkpt>
      <trkpt lat="42.097542" lon="2.537501">
        <ele>585.166</ele>
        <time>2021-05-27T10:59:05Z</time>
      </trkpt>
      <trkpt lat="42.097548" lon="2.537476">
        <ele>585.562</ele>
        <time>2021-05-27T10:59:07Z</time>
      </trkpt>
      <trkpt lat="42.097551" lon="2.537449">
        <ele>585.753</ele>
        <time>2021-05-27T10:59:09Z</time>
      </trkpt>
      <trkpt lat="42.097554" lon="2.537424">
        <ele>585.904</ele>
        <time>2021-05-27T10:59:11Z</time>
      </trkpt>
      <trkpt lat="42.097557" lon="2.537398">
        <ele>586.114</ele>
        <time>2021-05-27T10:59:13Z</time>
      </trkpt>
      <trkpt lat="42.097566" lon="2.537373">
        <ele>586.608</ele>
        <time>2021-05-27T10:59:15Z</time>
      </trkpt>
      <trkpt lat="42.097579" lon="2.537344">
        <ele>587.252</ele>
        <time>2021-05-27T10:59:17Z</time>
      </trkpt>
      <trkpt lat="42.097587" lon="2.537318">
        <ele>587.659</ele>
        <time>2021-05-27T10:59:19Z</time>
      </trkpt>
      <trkpt lat="42.097599" lon="2.537298">
        <ele>588.287</ele>
        <time>2021-05-27T10:59:21Z</time>
      </trkpt>
      <trkpt lat="42.097608" lon="2.537270">
        <ele>588.657</ele>
        <time>2021-05-27T10:59:23Z</time>
      </trkpt>
      <trkpt lat="42.097619" lon="2.537248">
        <ele>589.164</ele>
        <time>2021-05-27T10:59:26Z</time>
      </trkpt>
      <trkpt lat="42.097655" lon="2.537132">
        <ele>590.459</ele>
        <time>2021-05-27T10:59:36Z</time>
      </trkpt>
      <trkpt lat="42.097662" lon="2.537096">
        <ele>590.552</ele>
        <time>2021-05-27T10:59:39Z</time>
      </trkpt>
      <trkpt lat="42.097677" lon="2.537038">
        <ele>591.098</ele>
        <time>2021-05-27T10:59:44Z</time>
      </trkpt>
      <trkpt lat="42.097679" lon="2.537012">
        <ele>591.014</ele>
        <time>2021-05-27T10:59:46Z</time>
      </trkpt>
      <trkpt lat="42.097690" lon="2.536989">
        <ele>591.454</ele>
        <time>2021-05-27T10:59:48Z</time>
      </trkpt>
      <trkpt lat="42.097693" lon="2.536959">
        <ele>591.409</ele>
        <time>2021-05-27T10:59:50Z</time>
      </trkpt>
      <trkpt lat="42.097714" lon="2.536943">
        <ele>592.208</ele>
        <time>2021-05-27T11:00:00Z</time>
      </trkpt>
      <trkpt lat="42.097732" lon="2.536955">
        <ele>593.188</ele>
        <time>2021-05-27T11:00:03Z</time>
      </trkpt>
      <trkpt lat="42.097743" lon="2.536976">
        <ele>593.655</ele>
        <time>2021-05-27T11:00:04Z</time>
      </trkpt>
      <trkpt lat="42.097757" lon="2.536993">
        <ele>594.363</ele>
        <time>2021-05-27T11:00:07Z</time>
      </trkpt>
      <trkpt lat="42.097780" lon="2.537010">
        <ele>595.483</ele>
        <time>2021-05-27T11:00:10Z</time>
      </trkpt>
      <trkpt lat="42.097804" lon="2.537007">
        <ele>596.790</ele>
        <time>2021-05-27T11:00:13Z</time>
      </trkpt>
      <trkpt lat="42.097817" lon="2.536982">
        <ele>597.385</ele>
        <time>2021-05-27T11:00:16Z</time>
      </trkpt>
      <trkpt lat="42.097829" lon="2.536962">
        <ele>597.838</ele>
        <time>2021-05-27T11:00:18Z</time>
      </trkpt>
      <trkpt lat="42.097850" lon="2.536936">
        <ele>598.894</ele>
        <time>2021-05-27T11:00:21Z</time>
      </trkpt>
      <trkpt lat="42.097863" lon="2.536920">
        <ele>599.448</ele>
        <time>2021-05-27T11:00:23Z</time>
      </trkpt>
      <trkpt lat="42.097871" lon="2.536893">
        <ele>599.661</ele>
        <time>2021-05-27T11:00:25Z</time>
      </trkpt>
      <trkpt lat="42.097881" lon="2.536870">
        <ele>599.917</ele>
        <time>2021-05-27T11:00:27Z</time>
      </trkpt>
      <trkpt lat="42.097870" lon="2.536828">
        <ele>599.008</ele>
        <time>2021-05-27T11:00:29Z</time>
      </trkpt>
      <trkpt lat="42.097896" lon="2.536781">
        <ele>600.021</ele>
        <time>2021-05-27T11:00:33Z</time>
      </trkpt>
      <trkpt lat="42.097914" lon="2.536752">
        <ele>600.658</ele>
        <time>2021-05-27T11:00:36Z</time>
      </trkpt>
      <trkpt lat="42.097924" lon="2.536727">
        <ele>600.956</ele>
        <time>2021-05-27T11:00:38Z</time>
      </trkpt>
      <trkpt lat="42.097931" lon="2.536699">
        <ele>601.096</ele>
        <time>2021-05-27T11:00:40Z</time>
      </trkpt>
      <trkpt lat="42.097941" lon="2.536678">
        <ele>601.333</ele>
        <time>2021-05-27T11:00:42Z</time>
      </trkpt>
      <trkpt lat="42.097956" lon="2.536659">
        <ele>601.988</ele>
        <time>2021-05-27T11:00:45Z</time>
      </trkpt>
      <trkpt lat="42.097968" lon="2.536632">
        <ele>602.231</ele>
        <time>2021-05-27T11:00:47Z</time>
      </trkpt>
      <trkpt lat="42.097979" lon="2.536610">
        <ele>602.577</ele>
        <time>2021-05-27T11:00:49Z</time>
      </trkpt>
      <trkpt lat="42.097988" lon="2.536580">
        <ele>602.783</ele>
        <time>2021-05-27T11:00:51Z</time>
      </trkpt>
      <trkpt lat="42.098005" lon="2.536549">
        <ele>603.125</ele>
        <time>2021-05-27T11:00:53Z</time>
      </trkpt>
      <trkpt lat="42.098072" lon="2.536453">
        <ele>604.517</ele>
        <time>2021-05-27T11:01:02Z</time>
      </trkpt>
      <trkpt lat="42.098144" lon="2.536359">
        <ele>605.908</ele>
        <time>2021-05-27T11:01:09Z</time>
      </trkpt>
      <trkpt lat="42.098227" lon="2.536298">
        <ele>607.915</ele>
        <time>2021-05-27T11:01:20Z</time>
      </trkpt>
      <trkpt lat="42.098319" lon="2.536256">
        <ele>610.222</ele>
        <time>2021-05-27T11:01:29Z</time>
      </trkpt>
      <trkpt lat="42.098344" lon="2.536231">
        <ele>610.440</ele>
        <time>2021-05-27T11:01:31Z</time>
      </trkpt>
      <trkpt lat="42.098357" lon="2.536203">
        <ele>610.260</ele>
        <time>2021-05-27T11:01:33Z</time>
      </trkpt>
      <trkpt lat="42.098374" lon="2.536184">
        <ele>610.237</ele>
        <time>2021-05-27T11:01:34Z</time>
      </trkpt>
      <trkpt lat="42.098391" lon="2.536171">
        <ele>610.352</ele>
        <time>2021-05-27T11:01:37Z</time>
      </trkpt>
      <trkpt lat="42.098406" lon="2.536149">
        <ele>610.345</ele>
        <time>2021-05-27T11:01:39Z</time>
      </trkpt>
      <trkpt lat="42.098422" lon="2.536123">
        <ele>610.131</ele>
        <time>2021-05-27T11:01:41Z</time>
      </trkpt>
      <trkpt lat="42.098438" lon="2.536106">
        <ele>610.362</ele>
        <time>2021-05-27T11:01:43Z</time>
      </trkpt>
      <trkpt lat="42.098506" lon="2.536005">
        <ele>611.583</ele>
        <time>2021-05-27T11:01:50Z</time>
      </trkpt>
      <trkpt lat="42.098527" lon="2.535949">
        <ele>611.811</ele>
        <time>2021-05-27T11:01:54Z</time>
      </trkpt>
      <trkpt lat="42.098546" lon="2.535941">
        <ele>612.108</ele>
        <time>2021-05-27T11:01:57Z</time>
      </trkpt>
      <trkpt lat="42.098566" lon="2.535921">
        <ele>612.523</ele>
        <time>2021-05-27T11:02:00Z</time>
      </trkpt>
      <trkpt lat="42.098573" lon="2.535897">
        <ele>612.520</ele>
        <time>2021-05-27T11:02:02Z</time>
      </trkpt>
      <trkpt lat="42.098593" lon="2.535874">
        <ele>612.878</ele>
        <time>2021-05-27T11:02:04Z</time>
      </trkpt>
      <trkpt lat="42.098612" lon="2.535849">
        <ele>613.018</ele>
        <time>2021-05-27T11:02:06Z</time>
      </trkpt>
      <trkpt lat="42.098629" lon="2.535838">
        <ele>612.755</ele>
        <time>2021-05-27T11:02:09Z</time>
      </trkpt>
      <trkpt lat="42.098651" lon="2.535807">
        <ele>612.510</ele>
        <time>2021-05-27T11:02:13Z</time>
      </trkpt>
      <trkpt lat="42.098689" lon="2.535763">
        <ele>612.253</ele>
        <time>2021-05-27T11:02:16Z</time>
      </trkpt>
      <trkpt lat="42.098708" lon="2.535738">
        <ele>612.079</ele>
        <time>2021-05-27T11:02:18Z</time>
      </trkpt>
      <trkpt lat="42.098777" lon="2.535657">
        <ele>611.266</ele>
        <time>2021-05-27T11:02:25Z</time>
      </trkpt>
      <trkpt lat="42.098809" lon="2.535610">
        <ele>610.729</ele>
        <time>2021-05-27T11:02:29Z</time>
      </trkpt>
      <trkpt lat="42.098840" lon="2.535580">
        <ele>610.121</ele>
        <time>2021-05-27T11:02:33Z</time>
      </trkpt>
      <trkpt lat="42.098903" lon="2.535491">
        <ele>610.108</ele>
        <time>2021-05-27T11:02:38Z</time>
      </trkpt>
      <trkpt lat="42.098957" lon="2.535432">
        <ele>610.443</ele>
        <time>2021-05-27T11:02:42Z</time>
      </trkpt>
      <trkpt lat="42.098971" lon="2.535417">
        <ele>610.530</ele>
        <time>2021-05-27T11:02:43Z</time>
      </trkpt>
      <trkpt lat="42.098986" lon="2.535401">
        <ele>610.558</ele>
        <time>2021-05-27T11:02:44Z</time>
      </trkpt>
      <trkpt lat="42.099003" lon="2.535385">
        <ele>610.448</ele>
        <time>2021-05-27T11:02:45Z</time>
      </trkpt>
      <trkpt lat="42.099017" lon="2.535365">
        <ele>610.495</ele>
        <time>2021-05-27T11:02:46Z</time>
      </trkpt>
      <trkpt lat="42.099042" lon="2.535333">
        <ele>610.260</ele>
        <time>2021-05-27T11:02:48Z</time>
      </trkpt>
      <trkpt lat="42.099057" lon="2.535301">
        <ele>610.233</ele>
        <time>2021-05-27T11:02:50Z</time>
      </trkpt>
      <trkpt lat="42.099068" lon="2.535281">
        <ele>610.139</ele>
        <time>2021-05-27T11:02:51Z</time>
      </trkpt>
      <trkpt lat="42.099079" lon="2.535258">
        <ele>610.244</ele>
        <time>2021-05-27T11:02:52Z</time>
      </trkpt>
      <trkpt lat="42.099094" lon="2.535235">
        <ele>610.205</ele>
        <time>2021-05-27T11:02:53Z</time>
      </trkpt>
      <trkpt lat="42.099111" lon="2.535212">
        <ele>610.115</ele>
        <time>2021-05-27T11:02:54Z</time>
      </trkpt>
      <trkpt lat="42.099127" lon="2.535192">
        <ele>610.008</ele>
        <time>2021-05-27T11:02:55Z</time>
      </trkpt>
      <trkpt lat="42.099142" lon="2.535170">
        <ele>609.991</ele>
        <time>2021-05-27T11:02:56Z</time>
      </trkpt>
      <trkpt lat="42.099216" lon="2.535067">
        <ele>609.748</ele>
        <time>2021-05-27T11:03:01Z</time>
      </trkpt>
      <trkpt lat="42.099279" lon="2.534969">
        <ele>610.256</ele>
        <time>2021-05-27T11:03:05Z</time>
      </trkpt>
      <trkpt lat="42.099348" lon="2.534884">
        <ele>610.896</ele>
        <time>2021-05-27T11:03:09Z</time>
      </trkpt>
      <trkpt lat="42.099441" lon="2.534808">
        <ele>609.273</ele>
        <time>2021-05-27T11:03:12Z</time>
      </trkpt>
      <trkpt lat="42.099529" lon="2.534744">
        <ele>608.928</ele>
        <time>2021-05-27T11:03:17Z</time>
      </trkpt>
      <trkpt lat="42.099568" lon="2.534610">
        <ele>610.461</ele>
        <time>2021-05-27T11:03:22Z</time>
      </trkpt>
      <trkpt lat="42.099627" lon="2.534487">
        <ele>610.637</ele>
        <time>2021-05-27T11:03:26Z</time>
      </trkpt>
      <trkpt lat="42.099687" lon="2.534358">
        <ele>610.063</ele>
        <time>2021-05-27T11:03:31Z</time>
      </trkpt>
      <trkpt lat="42.099743" lon="2.534253">
        <ele>609.244</ele>
        <time>2021-05-27T11:03:35Z</time>
      </trkpt>
      <trkpt lat="42.099810" lon="2.534149">
        <ele>609.418</ele>
        <time>2021-05-27T11:03:40Z</time>
      </trkpt>
      <trkpt lat="42.099901" lon="2.534089">
        <ele>608.908</ele>
        <time>2021-05-27T11:03:44Z</time>
      </trkpt>
      <trkpt lat="42.100011" lon="2.534040">
        <ele>607.473</ele>
        <time>2021-05-27T11:03:49Z</time>
      </trkpt>
      <trkpt lat="42.100101" lon="2.534039">
        <ele>606.850</ele>
        <time>2021-05-27T11:03:53Z</time>
      </trkpt>
      <trkpt lat="42.100201" lon="2.534056">
        <ele>606.168</ele>
        <time>2021-05-27T11:03:57Z</time>
      </trkpt>
      <trkpt lat="42.100300" lon="2.534093">
        <ele>605.688</ele>
        <time>2021-05-27T11:04:01Z</time>
      </trkpt>
      <trkpt lat="42.100385" lon="2.534148">
        <ele>605.565</ele>
        <time>2021-05-27T11:04:05Z</time>
      </trkpt>
      <trkpt lat="42.100406" lon="2.534167">
        <ele>605.590</ele>
        <time>2021-05-27T11:04:06Z</time>
      </trkpt>
      <trkpt lat="42.100435" lon="2.534203">
        <ele>605.593</ele>
        <time>2021-05-27T11:04:08Z</time>
      </trkpt>
      <trkpt lat="42.100477" lon="2.534267">
        <ele>605.539</ele>
        <time>2021-05-27T11:04:11Z</time>
      </trkpt>
      <trkpt lat="42.100547" lon="2.534352">
        <ele>605.776</ele>
        <time>2021-05-27T11:04:15Z</time>
      </trkpt>
      <trkpt lat="42.100599" lon="2.534456">
        <ele>606.090</ele>
        <time>2021-05-27T11:04:20Z</time>
      </trkpt>
      <trkpt lat="42.100608" lon="2.534478">
        <ele>606.019</ele>
        <time>2021-05-27T11:04:21Z</time>
      </trkpt>
      <trkpt lat="42.100619" lon="2.534503">
        <ele>606.008</ele>
        <time>2021-05-27T11:04:22Z</time>
      </trkpt>
      <trkpt lat="42.100625" lon="2.534529">
        <ele>606.034</ele>
        <time>2021-05-27T11:04:23Z</time>
      </trkpt>
      <trkpt lat="42.100647" lon="2.534569">
        <ele>606.041</ele>
        <time>2021-05-27T11:04:25Z</time>
      </trkpt>
      <trkpt lat="42.100670" lon="2.534613">
        <ele>606.049</ele>
        <time>2021-05-27T11:04:26Z</time>
      </trkpt>
      <trkpt lat="42.100693" lon="2.534646">
        <ele>606.049</ele>
        <time>2021-05-27T11:04:29Z</time>
      </trkpt>
      <trkpt lat="42.100715" lon="2.534670">
        <ele>606.066</ele>
        <time>2021-05-27T11:04:31Z</time>
      </trkpt>
      <trkpt lat="42.100742" lon="2.534669">
        <ele>606.081</ele>
        <time>2021-05-27T11:04:33Z</time>
      </trkpt>
      <trkpt lat="42.100772" lon="2.534661">
        <ele>606.014</ele>
        <time>2021-05-27T11:04:35Z</time>
      </trkpt>
      <trkpt lat="42.100801" lon="2.534647">
        <ele>606.060</ele>
        <time>2021-05-27T11:04:37Z</time>
      </trkpt>
      <trkpt lat="42.100834" lon="2.534629">
        <ele>606.017</ele>
        <time>2021-05-27T11:04:39Z</time>
      </trkpt>
      <trkpt lat="42.100861" lon="2.534605">
        <ele>606.087</ele>
        <time>2021-05-27T11:04:41Z</time>
      </trkpt>
      <trkpt lat="42.100891" lon="2.534589">
        <ele>606.015</ele>
        <time>2021-05-27T11:04:43Z</time>
      </trkpt>
      <trkpt lat="42.100918" lon="2.534577">
        <ele>606.008</ele>
        <time>2021-05-27T11:04:45Z</time>
      </trkpt>
      <trkpt lat="42.100945" lon="2.534564">
        <ele>605.998</ele>
        <time>2021-05-27T11:04:47Z</time>
      </trkpt>
      <trkpt lat="42.100971" lon="2.534552">
        <ele>605.995</ele>
        <time>2021-05-27T11:04:49Z</time>
      </trkpt>
      <trkpt lat="42.100994" lon="2.534543">
        <ele>605.843</ele>
        <time>2021-05-27T11:04:52Z</time>
      </trkpt>
      <trkpt lat="42.101019" lon="2.534526">
        <ele>605.713</ele>
        <time>2021-05-27T11:04:54Z</time>
      </trkpt>
      <trkpt lat="42.101043" lon="2.534499">
        <ele>605.580</ele>
        <time>2021-05-27T11:04:56Z</time>
      </trkpt>
      <trkpt lat="42.101056" lon="2.534483">
        <ele>605.415</ele>
        <time>2021-05-27T11:04:57Z</time>
      </trkpt>
      <trkpt lat="42.101078" lon="2.534449">
        <ele>605.168</ele>
        <time>2021-05-27T11:04:59Z</time>
      </trkpt>
      <trkpt lat="42.101098" lon="2.534414">
        <ele>605.064</ele>
        <time>2021-05-27T11:05:01Z</time>
      </trkpt>
      <trkpt lat="42.101113" lon="2.534376">
        <ele>605.096</ele>
        <time>2021-05-27T11:05:03Z</time>
      </trkpt>
      <trkpt lat="42.101126" lon="2.534337">
        <ele>604.931</ele>
        <time>2021-05-27T11:05:05Z</time>
      </trkpt>
      <trkpt lat="42.101142" lon="2.534299">
        <ele>604.824</ele>
        <time>2021-05-27T11:05:07Z</time>
      </trkpt>
      <trkpt lat="42.101157" lon="2.534263">
        <ele>604.708</ele>
        <time>2021-05-27T11:05:09Z</time>
      </trkpt>
      <trkpt lat="42.101163" lon="2.534231">
        <ele>604.646</ele>
        <time>2021-05-27T11:05:11Z</time>
      </trkpt>
      <trkpt lat="42.101176" lon="2.534201">
        <ele>604.543</ele>
        <time>2021-05-27T11:05:13Z</time>
      </trkpt>
      <trkpt lat="42.101201" lon="2.534167">
        <ele>604.431</ele>
        <time>2021-05-27T11:05:15Z</time>
      </trkpt>
      <trkpt lat="42.101220" lon="2.534146">
        <ele>604.031</ele>
        <time>2021-05-27T11:05:16Z</time>
      </trkpt>
      <trkpt lat="42.101238" lon="2.534128">
        <ele>603.828</ele>
        <time>2021-05-27T11:05:17Z</time>
      </trkpt>
      <trkpt lat="42.101257" lon="2.534110">
        <ele>603.613</ele>
        <time>2021-05-27T11:05:18Z</time>
      </trkpt>
      <trkpt lat="42.101277" lon="2.534093">
        <ele>603.416</ele>
        <time>2021-05-27T11:05:19Z</time>
      </trkpt>
      <trkpt lat="42.101298" lon="2.534080">
        <ele>603.212</ele>
        <time>2021-05-27T11:05:20Z</time>
      </trkpt>
      <trkpt lat="42.101318" lon="2.534067">
        <ele>603.197</ele>
        <time>2021-05-27T11:05:21Z</time>
      </trkpt>
      <trkpt lat="42.101340" lon="2.534052">
        <ele>603.123</ele>
        <time>2021-05-27T11:05:22Z</time>
      </trkpt>
      <trkpt lat="42.101362" lon="2.534037">
        <ele>603.025</ele>
        <time>2021-05-27T11:05:23Z</time>
      </trkpt>
      <trkpt lat="42.101383" lon="2.534020">
        <ele>603.008</ele>
        <time>2021-05-27T11:05:24Z</time>
      </trkpt>
      <trkpt lat="42.101402" lon="2.534000">
        <ele>603.086</ele>
        <time>2021-05-27T11:05:25Z</time>
      </trkpt>
      <trkpt lat="42.101419" lon="2.533980">
        <ele>603.063</ele>
        <time>2021-05-27T11:05:26Z</time>
      </trkpt>
      <trkpt lat="42.101438" lon="2.533957">
        <ele>603.051</ele>
        <time>2021-05-27T11:05:27Z</time>
      </trkpt>
      <trkpt lat="42.101459" lon="2.533937">
        <ele>603.081</ele>
        <time>2021-05-27T11:05:28Z</time>
      </trkpt>
      <trkpt lat="42.101482" lon="2.533917">
        <ele>603.038</ele>
        <time>2021-05-27T11:05:29Z</time>
      </trkpt>
      <trkpt lat="42.101505" lon="2.533899">
        <ele>603.053</ele>
        <time>2021-05-27T11:05:30Z</time>
      </trkpt>
      <trkpt lat="42.101551" lon="2.533870">
        <ele>602.866</ele>
        <time>2021-05-27T11:05:31Z</time>
      </trkpt>
      <trkpt lat="42.101574" lon="2.533859">
        <ele>602.782</ele>
        <time>2021-05-27T11:05:32Z</time>
      </trkpt>
      <trkpt lat="42.101599" lon="2.533849">
        <ele>602.653</ele>
        <time>2021-05-27T11:05:34Z</time>
      </trkpt>
      <trkpt lat="42.101620" lon="2.533842">
        <ele>602.504</ele>
        <time>2021-05-27T11:05:35Z</time>
      </trkpt>
      <trkpt lat="42.101643" lon="2.533835">
        <ele>602.414</ele>
        <time>2021-05-27T11:05:36Z</time>
      </trkpt>
      <trkpt lat="42.101683" lon="2.533823">
        <ele>602.208</ele>
        <time>2021-05-27T11:05:37Z</time>
      </trkpt>
      <trkpt lat="42.101706" lon="2.533816">
        <ele>602.042</ele>
        <time>2021-05-27T11:05:39Z</time>
      </trkpt>
      <trkpt lat="42.101730" lon="2.533809">
        <ele>601.889</ele>
        <time>2021-05-27T11:05:40Z</time>
      </trkpt>
      <trkpt lat="42.101758" lon="2.533803">
        <ele>601.637</ele>
        <time>2021-05-27T11:05:41Z</time>
      </trkpt>
      <trkpt lat="42.101803" lon="2.533785">
        <ele>601.387</ele>
        <time>2021-05-27T11:05:42Z</time>
      </trkpt>
      <trkpt lat="42.101821" lon="2.533775">
        <ele>601.174</ele>
        <time>2021-05-27T11:05:43Z</time>
      </trkpt>
      <trkpt lat="42.101841" lon="2.533765">
        <ele>601.019</ele>
        <time>2021-05-27T11:05:45Z</time>
      </trkpt>
      <trkpt lat="42.101860" lon="2.533752">
        <ele>600.842</ele>
        <time>2021-05-27T11:05:46Z</time>
      </trkpt>
      <trkpt lat="42.101878" lon="2.533737">
        <ele>600.718</ele>
        <time>2021-05-27T11:05:47Z</time>
      </trkpt>
      <trkpt lat="42.101890" lon="2.533717">
        <ele>600.576</ele>
        <time>2021-05-27T11:05:48Z</time>
      </trkpt>
      <trkpt lat="42.101898" lon="2.533692">
        <ele>600.490</ele>
        <time>2021-05-27T11:05:49Z</time>
      </trkpt>
      <trkpt lat="42.101902" lon="2.533663">
        <ele>600.219</ele>
        <time>2021-05-27T11:05:50Z</time>
      </trkpt>
      <trkpt lat="42.101891" lon="2.533619">
        <ele>600.008</ele>
        <time>2021-05-27T11:05:52Z</time>
      </trkpt>
      <trkpt lat="42.101878" lon="2.533598">
        <ele>600.174</ele>
        <time>2021-05-27T11:05:53Z</time>
      </trkpt>
      <trkpt lat="42.101860" lon="2.533579">
        <ele>600.281</ele>
        <time>2021-05-27T11:05:54Z</time>
      </trkpt>
      <trkpt lat="42.101841" lon="2.533559">
        <ele>600.429</ele>
        <time>2021-05-27T11:05:55Z</time>
      </trkpt>
      <trkpt lat="42.101800" lon="2.533521">
        <ele>600.549</ele>
        <time>2021-05-27T11:05:56Z</time>
      </trkpt>
      <trkpt lat="42.101779" lon="2.533506">
        <ele>600.576</ele>
        <time>2021-05-27T11:05:58Z</time>
      </trkpt>
      <trkpt lat="42.101760" lon="2.533489">
        <ele>600.441</ele>
        <time>2021-05-27T11:05:59Z</time>
      </trkpt>
      <trkpt lat="42.101739" lon="2.533472">
        <ele>600.494</ele>
        <time>2021-05-27T11:06:00Z</time>
      </trkpt>
      <trkpt lat="42.101721" lon="2.533453">
        <ele>600.340</ele>
        <time>2021-05-27T11:06:01Z</time>
      </trkpt>
      <trkpt lat="42.101705" lon="2.533438">
        <ele>600.324</ele>
        <time>2021-05-27T11:06:02Z</time>
      </trkpt>
      <trkpt lat="42.101682" lon="2.533407">
        <ele>600.104</ele>
        <time>2021-05-27T11:06:04Z</time>
      </trkpt>
      <trkpt lat="42.101666" lon="2.533376">
        <ele>600.014</ele>
        <time>2021-05-27T11:06:06Z</time>
      </trkpt>
      <trkpt lat="42.101659" lon="2.533341">
        <ele>599.908</ele>
        <time>2021-05-27T11:06:08Z</time>
      </trkpt>
      <trkpt lat="42.101654" lon="2.533306">
        <ele>600.159</ele>
        <time>2021-05-27T11:06:10Z</time>
      </trkpt>
      <trkpt lat="42.101652" lon="2.533267">
        <ele>600.486</ele>
        <time>2021-05-27T11:06:12Z</time>
      </trkpt>
      <trkpt lat="42.101651" lon="2.533229">
        <ele>600.624</ele>
        <time>2021-05-27T11:06:14Z</time>
      </trkpt>
      <trkpt lat="42.101657" lon="2.533197">
        <ele>600.954</ele>
        <time>2021-05-27T11:06:16Z</time>
      </trkpt>
      <trkpt lat="42.101662" lon="2.533168">
        <ele>601.131</ele>
        <time>2021-05-27T11:06:18Z</time>
      </trkpt>
      <trkpt lat="42.101671" lon="2.533140">
        <ele>601.476</ele>
        <time>2021-05-27T11:06:20Z</time>
      </trkpt>
      <trkpt lat="42.101681" lon="2.533113">
        <ele>601.739</ele>
        <time>2021-05-27T11:06:22Z</time>
      </trkpt>
      <trkpt lat="42.101697" lon="2.533095">
        <ele>602.085</ele>
        <time>2021-05-27T11:06:24Z</time>
      </trkpt>
      <trkpt lat="42.101715" lon="2.533093">
        <ele>602.368</ele>
        <time>2021-05-27T11:06:26Z</time>
      </trkpt>
      <trkpt lat="42.101737" lon="2.533092">
        <ele>602.542</ele>
        <time>2021-05-27T11:06:29Z</time>
      </trkpt>
      <trkpt lat="42.101758" lon="2.533095">
        <ele>602.726</ele>
        <time>2021-05-27T11:06:32Z</time>
      </trkpt>
      <trkpt lat="42.101776" lon="2.533108">
        <ele>602.808</ele>
        <time>2021-05-27T11:06:34Z</time>
      </trkpt>
      <trkpt lat="42.101794" lon="2.533122">
        <ele>602.993</ele>
        <time>2021-05-27T11:06:36Z</time>
      </trkpt>
      <trkpt lat="42.101818" lon="2.533127">
        <ele>603.180</ele>
        <time>2021-05-27T11:06:38Z</time>
      </trkpt>
      <trkpt lat="42.101843" lon="2.533119">
        <ele>603.488</ele>
        <time>2021-05-27T11:06:40Z</time>
      </trkpt>
      <trkpt lat="42.101866" lon="2.533106">
        <ele>603.878</ele>
        <time>2021-05-27T11:06:42Z</time>
      </trkpt>
      <trkpt lat="42.101890" lon="2.533094">
        <ele>604.175</ele>
        <time>2021-05-27T11:06:44Z</time>
      </trkpt>
      <trkpt lat="42.101914" lon="2.533077">
        <ele>604.580</ele>
        <time>2021-05-27T11:06:46Z</time>
      </trkpt>
      <trkpt lat="42.101930" lon="2.533050">
        <ele>604.983</ele>
        <time>2021-05-27T11:06:48Z</time>
      </trkpt>
      <trkpt lat="42.101948" lon="2.533023">
        <ele>605.579</ele>
        <time>2021-05-27T11:06:50Z</time>
      </trkpt>
      <trkpt lat="42.101955" lon="2.532996">
        <ele>605.896</ele>
        <time>2021-05-27T11:06:52Z</time>
      </trkpt>
      <trkpt lat="42.101962" lon="2.532970">
        <ele>606.131</ele>
        <time>2021-05-27T11:06:54Z</time>
      </trkpt>
      <trkpt lat="42.101972" lon="2.532944">
        <ele>606.424</ele>
        <time>2021-05-27T11:06:56Z</time>
      </trkpt>
      <trkpt lat="42.101986" lon="2.532919">
        <ele>606.708</ele>
        <time>2021-05-27T11:06:58Z</time>
      </trkpt>
      <trkpt lat="42.102002" lon="2.532890">
        <ele>606.996</ele>
        <time>2021-05-27T11:07:01Z</time>
      </trkpt>
      <trkpt lat="42.102012" lon="2.532870">
        <ele>607.193</ele>
        <time>2021-05-27T11:07:03Z</time>
      </trkpt>
      <trkpt lat="42.102025" lon="2.532849">
        <ele>607.351</ele>
        <time>2021-05-27T11:07:05Z</time>
      </trkpt>
      <trkpt lat="42.102037" lon="2.532829">
        <ele>607.491</ele>
        <time>2021-05-27T11:07:07Z</time>
      </trkpt>
      <trkpt lat="42.102052" lon="2.532806">
        <ele>607.528</ele>
        <time>2021-05-27T11:07:09Z</time>
      </trkpt>
      <trkpt lat="42.102069" lon="2.532783">
        <ele>607.673</ele>
        <time>2021-05-27T11:07:11Z</time>
      </trkpt>
      <trkpt lat="42.102086" lon="2.532763">
        <ele>607.736</ele>
        <time>2021-05-27T11:07:13Z</time>
      </trkpt>
      <trkpt lat="42.102103" lon="2.532738">
        <ele>607.962</ele>
        <time>2021-05-27T11:07:14Z</time>
      </trkpt>
      <trkpt lat="42.102128" lon="2.532723">
        <ele>607.976</ele>
        <time>2021-05-27T11:07:17Z</time>
      </trkpt>
      <trkpt lat="42.102164" lon="2.532712">
        <ele>607.990</ele>
        <time>2021-05-27T11:07:19Z</time>
      </trkpt>
      <trkpt lat="42.102184" lon="2.532704">
        <ele>607.919</ele>
        <time>2021-05-27T11:07:20Z</time>
      </trkpt>
      <trkpt lat="42.102202" lon="2.532695">
        <ele>607.908</ele>
        <time>2021-05-27T11:07:21Z</time>
      </trkpt>
      <trkpt lat="42.102222" lon="2.532679">
        <ele>608.154</ele>
        <time>2021-05-27T11:07:22Z</time>
      </trkpt>
      <trkpt lat="42.102261" lon="2.532664">
        <ele>608.461</ele>
        <time>2021-05-27T11:07:24Z</time>
      </trkpt>
      <trkpt lat="42.102289" lon="2.532649">
        <ele>608.669</ele>
        <time>2021-05-27T11:07:26Z</time>
      </trkpt>
      <trkpt lat="42.102360" lon="2.532604">
        <ele>609.099</ele>
        <time>2021-05-27T11:07:30Z</time>
      </trkpt>
      <trkpt lat="42.102386" lon="2.532589">
        <ele>609.116</ele>
        <time>2021-05-27T11:07:33Z</time>
      </trkpt>
      <trkpt lat="42.102472" lon="2.532552">
        <ele>608.961</ele>
        <time>2021-05-27T11:07:39Z</time>
      </trkpt>
      <trkpt lat="42.102566" lon="2.532552">
        <ele>608.954</ele>
        <time>2021-05-27T11:07:46Z</time>
      </trkpt>
      <trkpt lat="42.102612" lon="2.532566">
        <ele>608.950</ele>
        <time>2021-05-27T11:07:49Z</time>
      </trkpt>
      <trkpt lat="42.102644" lon="2.532578">
        <ele>609.061</ele>
        <time>2021-05-27T11:07:51Z</time>
      </trkpt>
      <trkpt lat="42.102672" lon="2.532585">
        <ele>609.021</ele>
        <time>2021-05-27T11:07:53Z</time>
      </trkpt>
      <trkpt lat="42.102698" lon="2.532597">
        <ele>609.013</ele>
        <time>2021-05-27T11:07:55Z</time>
      </trkpt>
      <trkpt lat="42.102725" lon="2.532612">
        <ele>609.008</ele>
        <time>2021-05-27T11:07:57Z</time>
      </trkpt>
      <trkpt lat="42.102748" lon="2.532625">
        <ele>609.063</ele>
        <time>2021-05-27T11:07:59Z</time>
      </trkpt>
      <trkpt lat="42.102770" lon="2.532637">
        <ele>609.060</ele>
        <time>2021-05-27T11:08:01Z</time>
      </trkpt>
      <trkpt lat="42.102794" lon="2.532651">
        <ele>609.068</ele>
        <time>2021-05-27T11:08:03Z</time>
      </trkpt>
      <trkpt lat="42.102816" lon="2.532666">
        <ele>609.138</ele>
        <time>2021-05-27T11:08:05Z</time>
      </trkpt>
      <trkpt lat="42.102840" lon="2.532679">
        <ele>609.235</ele>
        <time>2021-05-27T11:08:07Z</time>
      </trkpt>
      <trkpt lat="42.102865" lon="2.532692">
        <ele>609.240</ele>
        <time>2021-05-27T11:08:09Z</time>
      </trkpt>
      <trkpt lat="42.102892" lon="2.532700">
        <ele>609.453</ele>
        <time>2021-05-27T11:08:11Z</time>
      </trkpt>
      <trkpt lat="42.102917" lon="2.532712">
        <ele>609.579</ele>
        <time>2021-05-27T11:08:13Z</time>
      </trkpt>
      <trkpt lat="42.102941" lon="2.532728">
        <ele>609.579</ele>
        <time>2021-05-27T11:08:15Z</time>
      </trkpt>
      <trkpt lat="42.102967" lon="2.532743">
        <ele>609.605</ele>
        <time>2021-05-27T11:08:17Z</time>
      </trkpt>
      <trkpt lat="42.102993" lon="2.532761">
        <ele>609.725</ele>
        <time>2021-05-27T11:08:19Z</time>
      </trkpt>
      <trkpt lat="42.103017" lon="2.532776">
        <ele>609.708</ele>
        <time>2021-05-27T11:08:21Z</time>
      </trkpt>
      <trkpt lat="42.103041" lon="2.532794">
        <ele>609.994</ele>
        <time>2021-05-27T11:08:23Z</time>
      </trkpt>
      <trkpt lat="42.103064" lon="2.532808">
        <ele>610.131</ele>
        <time>2021-05-27T11:08:25Z</time>
      </trkpt>
      <trkpt lat="42.103088" lon="2.532826">
        <ele>610.519</ele>
        <time>2021-05-27T11:08:27Z</time>
      </trkpt>
      <trkpt lat="42.103110" lon="2.532850">
        <ele>610.839</ele>
        <time>2021-05-27T11:08:28Z</time>
      </trkpt>
      <trkpt lat="42.103130" lon="2.532873">
        <ele>611.136</ele>
        <time>2021-05-27T11:08:31Z</time>
      </trkpt>
      <trkpt lat="42.103151" lon="2.532898">
        <ele>611.431</ele>
        <time>2021-05-27T11:08:33Z</time>
      </trkpt>
      <trkpt lat="42.103172" lon="2.532922">
        <ele>611.724</ele>
        <time>2021-05-27T11:08:35Z</time>
      </trkpt>
      <trkpt lat="42.103190" lon="2.532944">
        <ele>611.940</ele>
        <time>2021-05-27T11:08:37Z</time>
      </trkpt>
      <trkpt lat="42.103205" lon="2.532968">
        <ele>612.237</ele>
        <time>2021-05-27T11:08:39Z</time>
      </trkpt>
      <trkpt lat="42.103219" lon="2.532999">
        <ele>612.449</ele>
        <time>2021-05-27T11:08:41Z</time>
      </trkpt>
      <trkpt lat="42.103231" lon="2.533023">
        <ele>612.513</ele>
        <time>2021-05-27T11:08:43Z</time>
      </trkpt>
      <trkpt lat="42.103237" lon="2.533057">
        <ele>612.608</ele>
        <time>2021-05-27T11:08:45Z</time>
      </trkpt>
      <trkpt lat="42.103251" lon="2.533081">
        <ele>613.050</ele>
        <time>2021-05-27T11:08:47Z</time>
      </trkpt>
      <trkpt lat="42.103270" lon="2.533100">
        <ele>613.497</ele>
        <time>2021-05-27T11:08:49Z</time>
      </trkpt>
      <trkpt lat="42.103288" lon="2.533123">
        <ele>613.835</ele>
        <time>2021-05-27T11:08:51Z</time>
      </trkpt>
      <trkpt lat="42.103303" lon="2.533148">
        <ele>614.255</ele>
        <time>2021-05-27T11:08:53Z</time>
      </trkpt>
      <trkpt lat="42.103322" lon="2.533166">
        <ele>614.662</ele>
        <time>2021-05-27T11:08:55Z</time>
      </trkpt>
      <trkpt lat="42.103341" lon="2.533194">
        <ele>615.067</ele>
        <time>2021-05-27T11:08:57Z</time>
      </trkpt>
      <trkpt lat="42.103358" lon="2.533207">
        <ele>615.290</ele>
        <time>2021-05-27T11:08:59Z</time>
      </trkpt>
      <trkpt lat="42.103382" lon="2.533220">
        <ele>615.346</ele>
        <time>2021-05-27T11:09:02Z</time>
      </trkpt>
      <trkpt lat="42.103404" lon="2.533227">
        <ele>615.411</ele>
        <time>2021-05-27T11:09:04Z</time>
      </trkpt>
      <trkpt lat="42.103432" lon="2.533248">
        <ele>615.621</ele>
        <time>2021-05-27T11:09:06Z</time>
      </trkpt>
      <trkpt lat="42.103449" lon="2.533273">
        <ele>615.703</ele>
        <time>2021-05-27T11:09:08Z</time>
      </trkpt>
      <trkpt lat="42.103465" lon="2.533306">
        <ele>615.908</ele>
        <time>2021-05-27T11:09:10Z</time>
      </trkpt>
      <trkpt lat="42.103495" lon="2.533344">
        <ele>616.238</ele>
        <time>2021-05-27T11:09:13Z</time>
      </trkpt>
      <trkpt lat="42.103513" lon="2.533367">
        <ele>616.685</ele>
        <time>2021-05-27T11:09:15Z</time>
      </trkpt>
      <trkpt lat="42.103519" lon="2.533393">
        <ele>617.033</ele>
        <time>2021-05-27T11:09:17Z</time>
      </trkpt>
      <trkpt lat="42.103528" lon="2.533421">
        <ele>617.563</ele>
        <time>2021-05-27T11:09:19Z</time>
      </trkpt>
      <trkpt lat="42.103537" lon="2.533441">
        <ele>617.880</ele>
        <time>2021-05-27T11:09:21Z</time>
      </trkpt>
      <trkpt lat="42.103620" lon="2.533523">
        <ele>619.425</ele>
        <time>2021-05-27T11:09:28Z</time>
      </trkpt>
      <trkpt lat="42.103696" lon="2.533598">
        <ele>620.248</ele>
        <time>2021-05-27T11:09:36Z</time>
      </trkpt>
      <trkpt lat="42.103776" lon="2.533660">
        <ele>620.634</ele>
        <time>2021-05-27T11:09:42Z</time>
      </trkpt>
      <trkpt lat="42.103846" lon="2.533745">
        <ele>621.323</ele>
        <time>2021-05-27T11:09:50Z</time>
      </trkpt>
      <trkpt lat="42.103884" lon="2.533869">
        <ele>622.883</ele>
        <time>2021-05-27T11:09:59Z</time>
      </trkpt>
      <trkpt lat="42.103942" lon="2.533963">
        <ele>624.111</ele>
        <time>2021-05-27T11:10:07Z</time>
      </trkpt>
      <trkpt lat="42.104021" lon="2.534026">
        <ele>624.808</ele>
        <time>2021-05-27T11:10:13Z</time>
      </trkpt>
      <trkpt lat="42.104094" lon="2.534113">
        <ele>625.729</ele>
        <time>2021-05-27T11:10:22Z</time>
      </trkpt>
      <trkpt lat="42.104164" lon="2.534204">
        <ele>626.776</ele>
        <time>2021-05-27T11:10:31Z</time>
      </trkpt>
      <trkpt lat="42.104239" lon="2.534281">
        <ele>628.484</ele>
        <time>2021-05-27T11:10:40Z</time>
      </trkpt>
      <trkpt lat="42.104322" lon="2.534329">
        <ele>629.854</ele>
        <time>2021-05-27T11:10:47Z</time>
      </trkpt>
      <trkpt lat="42.104416" lon="2.534381">
        <ele>631.421</ele>
        <time>2021-05-27T11:10:56Z</time>
      </trkpt>
      <trkpt lat="42.104515" lon="2.534400">
        <ele>633.046</ele>
        <time>2021-05-27T11:11:06Z</time>
      </trkpt>
      <trkpt lat="42.104608" lon="2.534415">
        <ele>634.429</ele>
        <time>2021-05-27T11:11:15Z</time>
      </trkpt>
      <trkpt lat="42.104700" lon="2.534446">
        <ele>635.895</ele>
        <time>2021-05-27T11:11:23Z</time>
      </trkpt>
      <trkpt lat="42.104748" lon="2.534428">
        <ele>636.312</ele>
        <time>2021-05-27T11:11:31Z</time>
      </trkpt>
      <trkpt lat="42.104766" lon="2.534417">
        <ele>636.532</ele>
        <time>2021-05-27T11:11:40Z</time>
      </trkpt>
      <trkpt lat="42.104785" lon="2.534424">
        <ele>636.805</ele>
        <time>2021-05-27T11:11:44Z</time>
      </trkpt>
      <trkpt lat="42.104816" lon="2.534421">
        <ele>637.308</ele>
        <time>2021-05-27T11:11:46Z</time>
      </trkpt>
      <trkpt lat="42.104849" lon="2.534421">
        <ele>637.888</ele>
        <time>2021-05-27T11:11:47Z</time>
      </trkpt>
      <trkpt lat="42.104872" lon="2.534423">
        <ele>638.225</ele>
        <time>2021-05-27T11:11:50Z</time>
      </trkpt>
      <trkpt lat="42.104898" lon="2.534421">
        <ele>638.653</ele>
        <time>2021-05-27T11:11:51Z</time>
      </trkpt>
      <trkpt lat="42.104925" lon="2.534414">
        <ele>639.073</ele>
        <time>2021-05-27T11:11:54Z</time>
      </trkpt>
      <trkpt lat="42.104946" lon="2.534407">
        <ele>639.440</ele>
        <time>2021-05-27T11:11:56Z</time>
      </trkpt>
      <trkpt lat="42.104967" lon="2.534405">
        <ele>639.715</ele>
        <time>2021-05-27T11:11:57Z</time>
      </trkpt>
      <trkpt lat="42.104986" lon="2.534404">
        <ele>640.138</ele>
        <time>2021-05-27T11:12:00Z</time>
      </trkpt>
      <trkpt lat="42.105009" lon="2.534399">
        <ele>640.374</ele>
        <time>2021-05-27T11:12:02Z</time>
      </trkpt>
      <trkpt lat="42.105032" lon="2.534397">
        <ele>640.267</ele>
        <time>2021-05-27T11:12:04Z</time>
      </trkpt>
      <trkpt lat="42.105055" lon="2.534396">
        <ele>640.281</ele>
        <time>2021-05-27T11:12:06Z</time>
      </trkpt>
      <trkpt lat="42.105076" lon="2.534387">
        <ele>640.319</ele>
        <time>2021-05-27T11:12:08Z</time>
      </trkpt>
      <trkpt lat="42.105097" lon="2.534376">
        <ele>640.408</ele>
        <time>2021-05-27T11:12:10Z</time>
      </trkpt>
      <trkpt lat="42.105118" lon="2.534368">
        <ele>640.533</ele>
        <time>2021-05-27T11:12:12Z</time>
      </trkpt>
      <trkpt lat="42.105138" lon="2.534354">
        <ele>640.890</ele>
        <time>2021-05-27T11:12:14Z</time>
      </trkpt>
      <trkpt lat="42.105160" lon="2.534347">
        <ele>641.088</ele>
        <time>2021-05-27T11:12:16Z</time>
      </trkpt>
      <trkpt lat="42.105181" lon="2.534342">
        <ele>641.158</ele>
        <time>2021-05-27T11:12:18Z</time>
      </trkpt>
      <trkpt lat="42.105202" lon="2.534336">
        <ele>641.325</ele>
        <time>2021-05-27T11:12:20Z</time>
      </trkpt>
      <trkpt lat="42.105228" lon="2.534332">
        <ele>641.590</ele>
        <time>2021-05-27T11:12:22Z</time>
      </trkpt>
      <trkpt lat="42.105280" lon="2.534313">
        <ele>642.383</ele>
        <time>2021-05-27T11:12:26Z</time>
      </trkpt>
      <trkpt lat="42.105306" lon="2.534320">
        <ele>642.829</ele>
        <time>2021-05-27T11:12:28Z</time>
      </trkpt>
      <trkpt lat="42.105327" lon="2.534326">
        <ele>643.241</ele>
        <time>2021-05-27T11:12:30Z</time>
      </trkpt>
      <trkpt lat="42.105347" lon="2.534330">
        <ele>643.681</ele>
        <time>2021-05-27T11:12:32Z</time>
      </trkpt>
      <trkpt lat="42.105379" lon="2.534344">
        <ele>644.009</ele>
        <time>2021-05-27T11:12:35Z</time>
      </trkpt>
      <trkpt lat="42.105396" lon="2.534363">
        <ele>643.708</ele>
        <time>2021-05-27T11:12:37Z</time>
      </trkpt>
      <trkpt lat="42.105416" lon="2.534370">
        <ele>643.991</ele>
        <time>2021-05-27T11:12:39Z</time>
      </trkpt>
      <trkpt lat="42.105442" lon="2.534381">
        <ele>644.138</ele>
        <time>2021-05-27T11:12:41Z</time>
      </trkpt>
      <trkpt lat="42.105464" lon="2.534393">
        <ele>644.226</ele>
        <time>2021-05-27T11:12:42Z</time>
      </trkpt>
      <trkpt lat="42.105490" lon="2.534402">
        <ele>644.436</ele>
        <time>2021-05-27T11:12:44Z</time>
      </trkpt>
      <trkpt lat="42.105514" lon="2.534411">
        <ele>644.633</ele>
        <time>2021-05-27T11:12:47Z</time>
      </trkpt>
      <trkpt lat="42.105540" lon="2.534420">
        <ele>644.898</ele>
        <time>2021-05-27T11:12:49Z</time>
      </trkpt>
      <trkpt lat="42.105567" lon="2.534427">
        <ele>645.281</ele>
        <time>2021-05-27T11:12:51Z</time>
      </trkpt>
      <trkpt lat="42.105589" lon="2.534438">
        <ele>645.537</ele>
        <time>2021-05-27T11:12:53Z</time>
      </trkpt>
      <trkpt lat="42.105611" lon="2.534453">
        <ele>645.588</ele>
        <time>2021-05-27T11:12:55Z</time>
      </trkpt>
      <trkpt lat="42.105629" lon="2.534464">
        <ele>645.524</ele>
        <time>2021-05-27T11:12:57Z</time>
      </trkpt>
      <trkpt lat="42.105649" lon="2.534484">
        <ele>645.126</ele>
        <time>2021-05-27T11:12:59Z</time>
      </trkpt>
      <trkpt lat="42.105672" lon="2.534491">
        <ele>645.708</ele>
        <time>2021-05-27T11:13:01Z</time>
      </trkpt>
      <trkpt lat="42.105693" lon="2.534494">
        <ele>646.435</ele>
        <time>2021-05-27T11:13:03Z</time>
      </trkpt>
      <trkpt lat="42.105717" lon="2.534509">
        <ele>646.612</ele>
        <time>2021-05-27T11:13:05Z</time>
      </trkpt>
      <trkpt lat="42.105740" lon="2.534522">
        <ele>646.990</ele>
        <time>2021-05-27T11:13:07Z</time>
      </trkpt>
      <trkpt lat="42.105760" lon="2.534534">
        <ele>647.210</ele>
        <time>2021-05-27T11:13:09Z</time>
      </trkpt>
      <trkpt lat="42.105783" lon="2.534548">
        <ele>647.667</ele>
        <time>2021-05-27T11:13:11Z</time>
      </trkpt>
      <trkpt lat="42.105804" lon="2.534575">
        <ele>647.482</ele>
        <time>2021-05-27T11:13:14Z</time>
      </trkpt>
      <trkpt lat="42.105823" lon="2.534586">
        <ele>647.925</ele>
        <time>2021-05-27T11:13:16Z</time>
      </trkpt>
      <trkpt lat="42.105851" lon="2.534601">
        <ele>648.241</ele>
        <time>2021-05-27T11:13:19Z</time>
      </trkpt>
      <trkpt lat="42.105876" lon="2.534613">
        <ele>648.211</ele>
        <time>2021-05-27T11:13:21Z</time>
      </trkpt>
      <trkpt lat="42.105902" lon="2.534621">
        <ele>648.421</ele>
        <time>2021-05-27T11:13:23Z</time>
      </trkpt>
      <trkpt lat="42.105924" lon="2.534632">
        <ele>648.403</ele>
        <time>2021-05-27T11:13:25Z</time>
      </trkpt>
      <trkpt lat="42.105946" lon="2.534642">
        <ele>648.408</ele>
        <time>2021-05-27T11:13:27Z</time>
      </trkpt>
      <trkpt lat="42.105968" lon="2.534649">
        <ele>648.638</ele>
        <time>2021-05-27T11:13:29Z</time>
      </trkpt>
      <trkpt lat="42.105985" lon="2.534659">
        <ele>648.565</ele>
        <time>2021-05-27T11:13:31Z</time>
      </trkpt>
      <trkpt lat="42.106006" lon="2.534663">
        <ele>648.713</ele>
        <time>2021-05-27T11:13:33Z</time>
      </trkpt>
      <trkpt lat="42.106038" lon="2.534674">
        <ele>648.883</ele>
        <time>2021-05-27T11:13:35Z</time>
      </trkpt>
      <trkpt lat="42.106062" lon="2.534682">
        <ele>648.920</ele>
        <time>2021-05-27T11:13:37Z</time>
      </trkpt>
      <trkpt lat="42.106091" lon="2.534689">
        <ele>649.275</ele>
        <time>2021-05-27T11:13:39Z</time>
      </trkpt>
      <trkpt lat="42.106115" lon="2.534691">
        <ele>649.518</ele>
        <time>2021-05-27T11:13:41Z</time>
      </trkpt>
      <trkpt lat="42.106140" lon="2.534697">
        <ele>649.484</ele>
        <time>2021-05-27T11:13:43Z</time>
      </trkpt>
      <trkpt lat="42.106163" lon="2.534710">
        <ele>648.927</ele>
        <time>2021-05-27T11:13:45Z</time>
      </trkpt>
      <trkpt lat="42.106188" lon="2.534715">
        <ele>648.968</ele>
        <time>2021-05-27T11:13:47Z</time>
      </trkpt>
      <trkpt lat="42.106212" lon="2.534719">
        <ele>648.914</ele>
        <time>2021-05-27T11:13:49Z</time>
      </trkpt>
      <trkpt lat="42.106239" lon="2.534730">
        <ele>648.608</ele>
        <time>2021-05-27T11:13:51Z</time>
      </trkpt>
      <trkpt lat="42.106264" lon="2.534734">
        <ele>648.649</ele>
        <time>2021-05-27T11:13:53Z</time>
      </trkpt>
      <trkpt lat="42.106289" lon="2.534737">
        <ele>648.746</ele>
        <time>2021-05-27T11:13:55Z</time>
      </trkpt>
      <trkpt lat="42.106314" lon="2.534740">
        <ele>648.774</ele>
        <time>2021-05-27T11:13:57Z</time>
      </trkpt>
      <trkpt lat="42.106341" lon="2.534747">
        <ele>648.794</ele>
        <time>2021-05-27T11:13:59Z</time>
      </trkpt>
      <trkpt lat="42.106362" lon="2.534749">
        <ele>648.751</ele>
        <time>2021-05-27T11:14:01Z</time>
      </trkpt>
      <trkpt lat="42.106384" lon="2.534752">
        <ele>648.876</ele>
        <time>2021-05-27T11:14:03Z</time>
      </trkpt>
      <trkpt lat="42.106408" lon="2.534759">
        <ele>648.479</ele>
        <time>2021-05-27T11:14:05Z</time>
      </trkpt>
      <trkpt lat="42.106432" lon="2.534764">
        <ele>648.145</ele>
        <time>2021-05-27T11:14:07Z</time>
      </trkpt>
      <trkpt lat="42.106461" lon="2.534766">
        <ele>647.817</ele>
        <time>2021-05-27T11:14:09Z</time>
      </trkpt>
      <trkpt lat="42.106481" lon="2.534769">
        <ele>647.687</ele>
        <time>2021-05-27T11:14:11Z</time>
      </trkpt>
      <trkpt lat="42.106505" lon="2.534764">
        <ele>647.615</ele>
        <time>2021-05-27T11:14:13Z</time>
      </trkpt>
      <trkpt lat="42.106537" lon="2.534761">
        <ele>647.508</ele>
        <time>2021-05-27T11:14:15Z</time>
      </trkpt>
      <trkpt lat="42.106569" lon="2.534759">
        <ele>647.448</ele>
        <time>2021-05-27T11:14:17Z</time>
      </trkpt>
      <trkpt lat="42.106597" lon="2.534750">
        <ele>647.665</ele>
        <time>2021-05-27T11:14:19Z</time>
      </trkpt>
      <trkpt lat="42.106623" lon="2.534745">
        <ele>647.673</ele>
        <time>2021-05-27T11:14:21Z</time>
      </trkpt>
      <trkpt lat="42.106646" lon="2.534738">
        <ele>647.613</ele>
        <time>2021-05-27T11:14:23Z</time>
      </trkpt>
      <trkpt lat="42.106672" lon="2.534734">
        <ele>647.660</ele>
        <time>2021-05-27T11:14:25Z</time>
      </trkpt>
      <trkpt lat="42.106700" lon="2.534731">
        <ele>647.565</ele>
        <time>2021-05-27T11:14:26Z</time>
      </trkpt>
      <trkpt lat="42.106728" lon="2.534724">
        <ele>647.578</ele>
        <time>2021-05-27T11:14:29Z</time>
      </trkpt>
      <trkpt lat="42.106756" lon="2.534716">
        <ele>647.634</ele>
        <time>2021-05-27T11:14:30Z</time>
      </trkpt>
      <trkpt lat="42.106786" lon="2.534705">
        <ele>647.936</ele>
        <time>2021-05-27T11:14:33Z</time>
      </trkpt>
      <trkpt lat="42.106817" lon="2.534693">
        <ele>648.217</ele>
        <time>2021-05-27T11:14:35Z</time>
      </trkpt>
      <trkpt lat="42.106835" lon="2.534691">
        <ele>648.118</ele>
        <time>2021-05-27T11:14:36Z</time>
      </trkpt>
      <trkpt lat="42.106866" lon="2.534687">
        <ele>648.008</ele>
        <time>2021-05-27T11:14:38Z</time>
      </trkpt>
      <trkpt lat="42.106895" lon="2.534676">
        <ele>648.290</ele>
        <time>2021-05-27T11:14:40Z</time>
      </trkpt>
      <trkpt lat="42.106923" lon="2.534663">
        <ele>648.517</ele>
        <time>2021-05-27T11:14:42Z</time>
      </trkpt>
      <trkpt lat="42.106950" lon="2.534656">
        <ele>648.635</ele>
        <time>2021-05-27T11:14:44Z</time>
      </trkpt>
      <trkpt lat="42.106978" lon="2.534646">
        <ele>648.835</ele>
        <time>2021-05-27T11:14:46Z</time>
      </trkpt>
      <trkpt lat="42.107001" lon="2.534637">
        <ele>648.992</ele>
        <time>2021-05-27T11:14:48Z</time>
      </trkpt>
      <trkpt lat="42.107025" lon="2.534628">
        <ele>649.017</ele>
        <time>2021-05-27T11:14:50Z</time>
      </trkpt>
      <trkpt lat="42.107051" lon="2.534616">
        <ele>649.210</ele>
        <time>2021-05-27T11:14:52Z</time>
      </trkpt>
      <trkpt lat="42.107077" lon="2.534605">
        <ele>649.476</ele>
        <time>2021-05-27T11:14:54Z</time>
      </trkpt>
      <trkpt lat="42.107101" lon="2.534599">
        <ele>649.329</ele>
        <time>2021-05-27T11:14:56Z</time>
      </trkpt>
      <trkpt lat="42.107128" lon="2.534592">
        <ele>649.300</ele>
        <time>2021-05-27T11:14:58Z</time>
      </trkpt>
      <trkpt lat="42.107156" lon="2.534586">
        <ele>649.120</ele>
        <time>2021-05-27T11:15:00Z</time>
      </trkpt>
      <trkpt lat="42.107181" lon="2.534575">
        <ele>649.208</ele>
        <time>2021-05-27T11:15:02Z</time>
      </trkpt>
      <trkpt lat="42.107207" lon="2.534567">
        <ele>649.169</ele>
        <time>2021-05-27T11:15:04Z</time>
      </trkpt>
      <trkpt lat="42.107232" lon="2.534557">
        <ele>649.126</ele>
        <time>2021-05-27T11:15:06Z</time>
      </trkpt>
      <trkpt lat="42.107254" lon="2.534547">
        <ele>649.154</ele>
        <time>2021-05-27T11:15:08Z</time>
      </trkpt>
      <trkpt lat="42.107276" lon="2.534537">
        <ele>649.144</ele>
        <time>2021-05-27T11:15:10Z</time>
      </trkpt>
      <trkpt lat="42.107302" lon="2.534526">
        <ele>649.111</ele>
        <time>2021-05-27T11:15:12Z</time>
      </trkpt>
      <trkpt lat="42.107326" lon="2.534525">
        <ele>648.836</ele>
        <time>2021-05-27T11:15:14Z</time>
      </trkpt>
      <trkpt lat="42.107354" lon="2.534518">
        <ele>648.799</ele>
        <time>2021-05-27T11:15:16Z</time>
      </trkpt>
      <trkpt lat="42.107382" lon="2.534506">
        <ele>648.745</ele>
        <time>2021-05-27T11:15:18Z</time>
      </trkpt>
      <trkpt lat="42.107409" lon="2.534497">
        <ele>648.716</ele>
        <time>2021-05-27T11:15:20Z</time>
      </trkpt>
      <trkpt lat="42.107434" lon="2.534485">
        <ele>648.776</ele>
        <time>2021-05-27T11:15:22Z</time>
      </trkpt>
      <trkpt lat="42.107458" lon="2.534467">
        <ele>648.913</ele>
        <time>2021-05-27T11:15:24Z</time>
      </trkpt>
      <trkpt lat="42.107481" lon="2.534448">
        <ele>649.108</ele>
        <time>2021-05-27T11:15:26Z</time>
      </trkpt>
      <trkpt lat="42.107503" lon="2.534435">
        <ele>649.238</ele>
        <time>2021-05-27T11:15:28Z</time>
      </trkpt>
      <trkpt lat="42.107526" lon="2.534423">
        <ele>649.415</ele>
        <time>2021-05-27T11:15:30Z</time>
      </trkpt>
      <trkpt lat="42.107549" lon="2.534413">
        <ele>649.533</ele>
        <time>2021-05-27T11:15:32Z</time>
      </trkpt>
      <trkpt lat="42.107571" lon="2.534402">
        <ele>649.613</ele>
        <time>2021-05-27T11:15:34Z</time>
      </trkpt>
      <trkpt lat="42.107597" lon="2.534394">
        <ele>649.710</ele>
        <time>2021-05-27T11:15:36Z</time>
      </trkpt>
      <trkpt lat="42.107619" lon="2.534387">
        <ele>649.755</ele>
        <time>2021-05-27T11:15:38Z</time>
      </trkpt>
      <trkpt lat="42.107646" lon="2.534387">
        <ele>649.628</ele>
        <time>2021-05-27T11:15:40Z</time>
      </trkpt>
      <trkpt lat="42.107671" lon="2.534390">
        <ele>649.414</ele>
        <time>2021-05-27T11:15:42Z</time>
      </trkpt>
      <trkpt lat="42.107693" lon="2.534394">
        <ele>649.334</ele>
        <time>2021-05-27T11:15:44Z</time>
      </trkpt>
      <trkpt lat="42.107714" lon="2.534400">
        <ele>649.155</ele>
        <time>2021-05-27T11:15:46Z</time>
      </trkpt>
      <trkpt lat="42.107739" lon="2.534405">
        <ele>648.910</ele>
        <time>2021-05-27T11:15:48Z</time>
      </trkpt>
      <trkpt lat="42.107767" lon="2.534411">
        <ele>648.608</ele>
        <time>2021-05-27T11:15:50Z</time>
      </trkpt>
      <trkpt lat="42.107792" lon="2.534421">
        <ele>648.620</ele>
        <time>2021-05-27T11:15:52Z</time>
      </trkpt>
      <trkpt lat="42.107813" lon="2.534424">
        <ele>648.717</ele>
        <time>2021-05-27T11:15:54Z</time>
      </trkpt>
      <trkpt lat="42.107838" lon="2.534428">
        <ele>648.925</ele>
        <time>2021-05-27T11:15:56Z</time>
      </trkpt>
      <trkpt lat="42.107860" lon="2.534430">
        <ele>649.185</ele>
        <time>2021-05-27T11:15:58Z</time>
      </trkpt>
      <trkpt lat="42.107882" lon="2.534436">
        <ele>649.252</ele>
        <time>2021-05-27T11:16:00Z</time>
      </trkpt>
      <trkpt lat="42.107900" lon="2.534442">
        <ele>649.437</ele>
        <time>2021-05-27T11:16:02Z</time>
      </trkpt>
      <trkpt lat="42.107921" lon="2.534447">
        <ele>649.520</ele>
        <time>2021-05-27T11:16:07Z</time>
      </trkpt>
      <trkpt lat="42.107952" lon="2.534452">
        <ele>649.746</ele>
        <time>2021-05-27T11:16:09Z</time>
      </trkpt>
      <trkpt lat="42.107982" lon="2.534457">
        <ele>649.922</ele>
        <time>2021-05-27T11:16:11Z</time>
      </trkpt>
      <trkpt lat="42.108012" lon="2.534468">
        <ele>649.962</ele>
        <time>2021-05-27T11:16:13Z</time>
      </trkpt>
      <trkpt lat="42.108034" lon="2.534472">
        <ele>650.108</ele>
        <time>2021-05-27T11:16:15Z</time>
      </trkpt>
      <trkpt lat="42.108088" lon="2.534483">
        <ele>650.408</ele>
        <time>2021-05-27T11:16:19Z</time>
      </trkpt>
      <trkpt lat="42.108146" lon="2.534484">
        <ele>650.929</ele>
        <time>2021-05-27T11:16:23Z</time>
      </trkpt>
      <trkpt lat="42.108165" lon="2.534480">
        <ele>651.296</ele>
        <time>2021-05-27T11:16:24Z</time>
      </trkpt>
      <trkpt lat="42.108196" lon="2.534475">
        <ele>651.664</ele>
        <time>2021-05-27T11:16:26Z</time>
      </trkpt>
      <trkpt lat="42.108223" lon="2.534470">
        <ele>651.984</ele>
        <time>2021-05-27T11:16:28Z</time>
      </trkpt>
      <trkpt lat="42.108250" lon="2.534466">
        <ele>652.251</ele>
        <time>2021-05-27T11:16:30Z</time>
      </trkpt>
      <trkpt lat="42.108280" lon="2.534459">
        <ele>652.586</ele>
        <time>2021-05-27T11:16:32Z</time>
      </trkpt>
      <trkpt lat="42.108307" lon="2.534453">
        <ele>652.859</ele>
        <time>2021-05-27T11:16:34Z</time>
      </trkpt>
      <trkpt lat="42.108336" lon="2.534450">
        <ele>653.065</ele>
        <time>2021-05-27T11:16:36Z</time>
      </trkpt>
      <trkpt lat="42.108365" lon="2.534448">
        <ele>653.275</ele>
        <time>2021-05-27T11:16:38Z</time>
      </trkpt>
      <trkpt lat="42.108391" lon="2.534446">
        <ele>653.428</ele>
        <time>2021-05-27T11:16:40Z</time>
      </trkpt>
      <trkpt lat="42.108409" lon="2.534444">
        <ele>653.520</ele>
        <time>2021-05-27T11:16:42Z</time>
      </trkpt>
      <trkpt lat="42.108441" lon="2.534440">
        <ele>653.808</ele>
        <time>2021-05-27T11:16:44Z</time>
      </trkpt>
      <trkpt lat="42.108469" lon="2.534435">
        <ele>654.044</ele>
        <time>2021-05-27T11:16:45Z</time>
      </trkpt>
      <trkpt lat="42.108495" lon="2.534425">
        <ele>654.351</ele>
        <time>2021-05-27T11:16:48Z</time>
      </trkpt>
      <trkpt lat="42.108517" lon="2.534413">
        <ele>654.599</ele>
        <time>2021-05-27T11:16:50Z</time>
      </trkpt>
      <trkpt lat="42.108541" lon="2.534404">
        <ele>654.879</ele>
        <time>2021-05-27T11:16:52Z</time>
      </trkpt>
      <trkpt lat="42.108566" lon="2.534393">
        <ele>655.056</ele>
        <time>2021-05-27T11:16:54Z</time>
      </trkpt>
      <trkpt lat="42.108591" lon="2.534380">
        <ele>655.381</ele>
        <time>2021-05-27T11:16:56Z</time>
      </trkpt>
      <trkpt lat="42.108616" lon="2.534372">
        <ele>655.564</ele>
        <time>2021-05-27T11:16:58Z</time>
      </trkpt>
      <trkpt lat="42.108644" lon="2.534364">
        <ele>655.780</ele>
        <time>2021-05-27T11:17:00Z</time>
      </trkpt>
      <trkpt lat="42.108664" lon="2.534357">
        <ele>655.854</ele>
        <time>2021-05-27T11:17:02Z</time>
      </trkpt>
      <trkpt lat="42.108691" lon="2.534353">
        <ele>655.956</ele>
        <time>2021-05-27T11:17:04Z</time>
      </trkpt>
      <trkpt lat="42.108717" lon="2.534354">
        <ele>656.011</ele>
        <time>2021-05-27T11:17:06Z</time>
      </trkpt>
      <trkpt lat="42.108745" lon="2.534356">
        <ele>656.108</ele>
        <time>2021-05-27T11:17:08Z</time>
      </trkpt>
      <trkpt lat="42.108772" lon="2.534356">
        <ele>656.212</ele>
        <time>2021-05-27T11:17:10Z</time>
      </trkpt>
      <trkpt lat="42.108801" lon="2.534356">
        <ele>656.389</ele>
        <time>2021-05-27T11:17:12Z</time>
      </trkpt>
      <trkpt lat="42.108826" lon="2.534361">
        <ele>656.487</ele>
        <time>2021-05-27T11:17:14Z</time>
      </trkpt>
      <trkpt lat="42.108852" lon="2.534365">
        <ele>656.487</ele>
        <time>2021-05-27T11:17:16Z</time>
      </trkpt>
      <trkpt lat="42.108879" lon="2.534365">
        <ele>656.544</ele>
        <time>2021-05-27T11:17:18Z</time>
      </trkpt>
      <trkpt lat="42.108902" lon="2.534368">
        <ele>656.679</ele>
        <time>2021-05-27T11:17:20Z</time>
      </trkpt>
      <trkpt lat="42.108930" lon="2.534367">
        <ele>656.772</ele>
        <time>2021-05-27T11:17:22Z</time>
      </trkpt>
      <trkpt lat="42.108956" lon="2.534368">
        <ele>656.838</ele>
        <time>2021-05-27T11:17:24Z</time>
      </trkpt>
      <trkpt lat="42.108984" lon="2.534371">
        <ele>656.936</ele>
        <time>2021-05-27T11:17:26Z</time>
      </trkpt>
      <trkpt lat="42.109009" lon="2.534368">
        <ele>657.017</ele>
        <time>2021-05-27T11:17:28Z</time>
      </trkpt>
      <trkpt lat="42.109032" lon="2.534361">
        <ele>657.118</ele>
        <time>2021-05-27T11:17:30Z</time>
      </trkpt>
      <trkpt lat="42.109058" lon="2.534355">
        <ele>657.308</ele>
        <time>2021-05-27T11:17:32Z</time>
      </trkpt>
      <trkpt lat="42.109084" lon="2.534348">
        <ele>657.480</ele>
        <time>2021-05-27T11:17:34Z</time>
      </trkpt>
      <trkpt lat="42.109112" lon="2.534340">
        <ele>657.657</ele>
        <time>2021-05-27T11:17:36Z</time>
      </trkpt>
      <trkpt lat="42.109138" lon="2.534330">
        <ele>657.745</ele>
        <time>2021-05-27T11:17:38Z</time>
      </trkpt>
      <trkpt lat="42.109163" lon="2.534319">
        <ele>657.965</ele>
        <time>2021-05-27T11:17:39Z</time>
      </trkpt>
      <trkpt lat="42.109189" lon="2.534306">
        <ele>658.162</ele>
        <time>2021-05-27T11:17:42Z</time>
      </trkpt>
      <trkpt lat="42.109215" lon="2.534293">
        <ele>658.387</ele>
        <time>2021-05-27T11:17:44Z</time>
      </trkpt>
      <trkpt lat="42.109239" lon="2.534281">
        <ele>658.510</ele>
        <time>2021-05-27T11:17:46Z</time>
      </trkpt>
      <trkpt lat="42.109261" lon="2.534273">
        <ele>658.796</ele>
        <time>2021-05-27T11:17:48Z</time>
      </trkpt>
      <trkpt lat="42.109286" lon="2.534272">
        <ele>658.821</ele>
        <time>2021-05-27T11:17:49Z</time>
      </trkpt>
      <trkpt lat="42.109314" lon="2.534269">
        <ele>659.041</ele>
        <time>2021-05-27T11:17:51Z</time>
      </trkpt>
      <trkpt lat="42.109339" lon="2.534268">
        <ele>659.105</ele>
        <time>2021-05-27T11:17:54Z</time>
      </trkpt>
      <trkpt lat="42.109361" lon="2.534264">
        <ele>659.208</ele>
        <time>2021-05-27T11:17:56Z</time>
      </trkpt>
      <trkpt lat="42.109382" lon="2.534267">
        <ele>659.389</ele>
        <time>2021-05-27T11:17:58Z</time>
      </trkpt>
      <trkpt lat="42.109403" lon="2.534280">
        <ele>659.486</ele>
        <time>2021-05-27T11:18:00Z</time>
      </trkpt>
      <trkpt lat="42.109426" lon="2.534296">
        <ele>659.474</ele>
        <time>2021-05-27T11:18:02Z</time>
      </trkpt>
      <trkpt lat="42.109451" lon="2.534320">
        <ele>659.564</ele>
        <time>2021-05-27T11:18:04Z</time>
      </trkpt>
      <trkpt lat="42.109483" lon="2.534337">
        <ele>659.751</ele>
        <time>2021-05-27T11:18:06Z</time>
      </trkpt>
      <trkpt lat="42.109508" lon="2.534358">
        <ele>659.886</ele>
        <time>2021-05-27T11:18:08Z</time>
      </trkpt>
      <trkpt lat="42.109531" lon="2.534381">
        <ele>659.949</ele>
        <time>2021-05-27T11:18:10Z</time>
      </trkpt>
      <trkpt lat="42.109556" lon="2.534405">
        <ele>659.945</ele>
        <time>2021-05-27T11:18:12Z</time>
      </trkpt>
      <trkpt lat="42.109582" lon="2.534424">
        <ele>660.192</ele>
        <time>2021-05-27T11:18:14Z</time>
      </trkpt>
      <trkpt lat="42.109609" lon="2.534440">
        <ele>660.273</ele>
        <time>2021-05-27T11:18:16Z</time>
      </trkpt>
      <trkpt lat="42.109637" lon="2.534452">
        <ele>660.520</ele>
        <time>2021-05-27T11:18:18Z</time>
      </trkpt>
      <trkpt lat="42.109665" lon="2.534460">
        <ele>660.708</ele>
        <time>2021-05-27T11:18:20Z</time>
      </trkpt>
      <trkpt lat="42.109692" lon="2.534467">
        <ele>661.076</ele>
        <time>2021-05-27T11:18:22Z</time>
      </trkpt>
      <trkpt lat="42.109717" lon="2.534480">
        <ele>661.353</ele>
        <time>2021-05-27T11:18:24Z</time>
      </trkpt>
      <trkpt lat="42.109739" lon="2.534497">
        <ele>661.631</ele>
        <time>2021-05-27T11:18:26Z</time>
      </trkpt>
      <trkpt lat="42.109757" lon="2.534515">
        <ele>661.871</ele>
        <time>2021-05-27T11:18:28Z</time>
      </trkpt>
      <trkpt lat="42.109783" lon="2.534534">
        <ele>662.068</ele>
        <time>2021-05-27T11:18:29Z</time>
      </trkpt>
      <trkpt lat="42.109810" lon="2.534552">
        <ele>662.183</ele>
        <time>2021-05-27T11:18:32Z</time>
      </trkpt>
      <trkpt lat="42.109823" lon="2.534574">
        <ele>662.386</ele>
        <time>2021-05-27T11:18:34Z</time>
      </trkpt>
      <trkpt lat="42.109842" lon="2.534597">
        <ele>662.412</ele>
        <time>2021-05-27T11:18:35Z</time>
      </trkpt>
      <trkpt lat="42.109869" lon="2.534614">
        <ele>662.416</ele>
        <time>2021-05-27T11:18:38Z</time>
      </trkpt>
      <trkpt lat="42.109888" lon="2.534634">
        <ele>662.476</ele>
        <time>2021-05-27T11:18:40Z</time>
      </trkpt>
      <trkpt lat="42.109910" lon="2.534657">
        <ele>662.413</ele>
        <time>2021-05-27T11:18:41Z</time>
      </trkpt>
      <trkpt lat="42.109935" lon="2.534678">
        <ele>662.408</ele>
        <time>2021-05-27T11:18:44Z</time>
      </trkpt>
      <trkpt lat="42.109958" lon="2.534694">
        <ele>662.318</ele>
        <time>2021-05-27T11:18:46Z</time>
      </trkpt>
      <trkpt lat="42.109979" lon="2.534709">
        <ele>662.195</ele>
        <time>2021-05-27T11:18:48Z</time>
      </trkpt>
      <trkpt lat="42.110001" lon="2.534719">
        <ele>662.053</ele>
        <time>2021-05-27T11:18:49Z</time>
      </trkpt>
      <trkpt lat="42.110024" lon="2.534721">
        <ele>662.143</ele>
        <time>2021-05-27T11:18:52Z</time>
      </trkpt>
      <trkpt lat="42.110044" lon="2.534727">
        <ele>662.360</ele>
        <time>2021-05-27T11:18:54Z</time>
      </trkpt>
      <trkpt lat="42.110067" lon="2.534732">
        <ele>662.575</ele>
        <time>2021-05-27T11:18:56Z</time>
      </trkpt>
      <trkpt lat="42.110085" lon="2.534736">
        <ele>662.728</ele>
        <time>2021-05-27T11:19:00Z</time>
      </trkpt>
      <trkpt lat="42.110109" lon="2.534740">
        <ele>662.824</ele>
        <time>2021-05-27T11:19:02Z</time>
      </trkpt>
      <trkpt lat="42.110146" lon="2.534749">
        <ele>663.188</ele>
        <time>2021-05-27T11:19:04Z</time>
      </trkpt>
      <trkpt lat="42.110167" lon="2.534755">
        <ele>663.224</ele>
        <time>2021-05-27T11:19:05Z</time>
      </trkpt>
      <trkpt lat="42.110191" lon="2.534761">
        <ele>663.426</ele>
        <time>2021-05-27T11:19:06Z</time>
      </trkpt>
      <trkpt lat="42.110224" lon="2.534772">
        <ele>663.608</ele>
        <time>2021-05-27T11:19:08Z</time>
      </trkpt>
      <trkpt lat="42.110256" lon="2.534778">
        <ele>663.645</ele>
        <time>2021-05-27T11:19:10Z</time>
      </trkpt>
      <trkpt lat="42.110290" lon="2.534795">
        <ele>663.992</ele>
        <time>2021-05-27T11:19:12Z</time>
      </trkpt>
      <trkpt lat="42.110306" lon="2.534806">
        <ele>664.190</ele>
        <time>2021-05-27T11:19:13Z</time>
      </trkpt>
      <trkpt lat="42.110334" lon="2.534826">
        <ele>664.420</ele>
        <time>2021-05-27T11:19:15Z</time>
      </trkpt>
      <trkpt lat="42.110355" lon="2.534851">
        <ele>664.787</ele>
        <time>2021-05-27T11:19:17Z</time>
      </trkpt>
      <trkpt lat="42.110376" lon="2.534879">
        <ele>665.062</ele>
        <time>2021-05-27T11:19:19Z</time>
      </trkpt>
      <trkpt lat="42.110394" lon="2.534910">
        <ele>665.215</ele>
        <time>2021-05-27T11:19:21Z</time>
      </trkpt>
      <trkpt lat="42.110420" lon="2.534935">
        <ele>665.391</ele>
        <time>2021-05-27T11:19:23Z</time>
      </trkpt>
      <trkpt lat="42.110439" lon="2.534965">
        <ele>665.389</ele>
        <time>2021-05-27T11:19:25Z</time>
      </trkpt>
      <trkpt lat="42.110452" lon="2.534993">
        <ele>665.406</ele>
        <time>2021-05-27T11:19:27Z</time>
      </trkpt>
      <trkpt lat="42.110463" lon="2.535016">
        <ele>665.626</ele>
        <time>2021-05-27T11:19:29Z</time>
      </trkpt>
      <trkpt lat="42.110482" lon="2.535040">
        <ele>665.808</ele>
        <time>2021-05-27T11:19:31Z</time>
      </trkpt>
      <trkpt lat="42.110506" lon="2.535059">
        <ele>665.985</ele>
        <time>2021-05-27T11:19:32Z</time>
      </trkpt>
      <trkpt lat="42.110523" lon="2.535078">
        <ele>665.942</ele>
        <time>2021-05-27T11:19:35Z</time>
      </trkpt>
      <trkpt lat="42.110545" lon="2.535096">
        <ele>665.840</ele>
        <time>2021-05-27T11:19:37Z</time>
      </trkpt>
      <trkpt lat="42.110557" lon="2.535121">
        <ele>665.920</ele>
        <time>2021-05-27T11:19:39Z</time>
      </trkpt>
      <trkpt lat="42.110575" lon="2.535137">
        <ele>666.057</ele>
        <time>2021-05-27T11:19:41Z</time>
      </trkpt>
      <trkpt lat="42.110598" lon="2.535165">
        <ele>666.272</ele>
        <time>2021-05-27T11:19:43Z</time>
      </trkpt>
      <trkpt lat="42.110624" lon="2.535189">
        <ele>666.475</ele>
        <time>2021-05-27T11:19:45Z</time>
      </trkpt>
      <trkpt lat="42.110645" lon="2.535209">
        <ele>666.461</ele>
        <time>2021-05-27T11:19:46Z</time>
      </trkpt>
      <trkpt lat="42.110671" lon="2.535228">
        <ele>666.463</ele>
        <time>2021-05-27T11:19:49Z</time>
      </trkpt>
      <trkpt lat="42.110696" lon="2.535246">
        <ele>666.444</ele>
        <time>2021-05-27T11:19:51Z</time>
      </trkpt>
      <trkpt lat="42.110721" lon="2.535267">
        <ele>666.418</ele>
        <time>2021-05-27T11:19:53Z</time>
      </trkpt>
      <trkpt lat="42.110740" lon="2.535297">
        <ele>666.608</ele>
        <time>2021-05-27T11:19:55Z</time>
      </trkpt>
      <trkpt lat="42.110762" lon="2.535324">
        <ele>666.843</ele>
        <time>2021-05-27T11:19:57Z</time>
      </trkpt>
      <trkpt lat="42.110782" lon="2.535359">
        <ele>666.950</ele>
        <time>2021-05-27T11:19:59Z</time>
      </trkpt>
      <trkpt lat="42.110800" lon="2.535394">
        <ele>666.938</ele>
        <time>2021-05-27T11:20:01Z</time>
      </trkpt>
      <trkpt lat="42.110812" lon="2.535413">
        <ele>666.988</ele>
        <time>2021-05-27T11:20:02Z</time>
      </trkpt>
      <trkpt lat="42.110824" lon="2.535436">
        <ele>666.885</ele>
        <time>2021-05-27T11:20:03Z</time>
      </trkpt>
      <trkpt lat="42.110837" lon="2.535472">
        <ele>666.750</ele>
        <time>2021-05-27T11:20:05Z</time>
      </trkpt>
      <trkpt lat="42.110901" lon="2.535586">
        <ele>667.653</ele>
        <time>2021-05-27T11:20:11Z</time>
      </trkpt>
      <trkpt lat="42.111002" lon="2.535642">
        <ele>668.259</ele>
        <time>2021-05-27T11:20:15Z</time>
      </trkpt>
      <trkpt lat="42.111105" lon="2.535678">
        <ele>667.935</ele>
        <time>2021-05-27T11:20:20Z</time>
      </trkpt>
      <trkpt lat="42.111204" lon="2.535708">
        <ele>668.486</ele>
        <time>2021-05-27T11:20:25Z</time>
      </trkpt>
      <trkpt lat="42.111297" lon="2.535758">
        <ele>668.814</ele>
        <time>2021-05-27T11:20:30Z</time>
      </trkpt>
      <trkpt lat="42.111392" lon="2.535817">
        <ele>669.008</ele>
        <time>2021-05-27T11:20:36Z</time>
      </trkpt>
      <trkpt lat="42.111422" lon="2.535818">
        <ele>669.530</ele>
        <time>2021-05-27T11:20:38Z</time>
      </trkpt>
      <trkpt lat="42.111500" lon="2.535893">
        <ele>670.877</ele>
        <time>2021-05-27T11:20:46Z</time>
      </trkpt>
      <trkpt lat="42.111602" lon="2.535917">
        <ele>672.015</ele>
        <time>2021-05-27T11:20:52Z</time>
      </trkpt>
      <trkpt lat="42.111684" lon="2.535995">
        <ele>672.735</ele>
        <time>2021-05-27T11:20:59Z</time>
      </trkpt>
      <trkpt lat="42.111747" lon="2.536130">
        <ele>673.592</ele>
        <time>2021-05-27T11:21:07Z</time>
      </trkpt>
      <trkpt lat="42.111799" lon="2.536240">
        <ele>674.427</ele>
        <time>2021-05-27T11:21:16Z</time>
      </trkpt>
      <trkpt lat="42.111817" lon="2.536287">
        <ele>674.670</ele>
        <time>2021-05-27T11:21:19Z</time>
      </trkpt>
      <trkpt lat="42.111840" lon="2.536301">
        <ele>674.866</ele>
        <time>2021-05-27T11:21:21Z</time>
      </trkpt>
      <trkpt lat="42.111904" lon="2.536402">
        <ele>675.127</ele>
        <time>2021-05-27T11:21:37Z</time>
      </trkpt>
      <trkpt lat="42.112000" lon="2.536403">
        <ele>676.068</ele>
        <time>2021-05-27T11:22:06Z</time>
      </trkpt>
      <trkpt lat="42.112089" lon="2.536361">
        <ele>677.314</ele>
        <time>2021-05-27T11:22:15Z</time>
      </trkpt>
      <trkpt lat="42.112176" lon="2.536329">
        <ele>678.908</ele>
        <time>2021-05-27T11:22:25Z</time>
      </trkpt>
      <trkpt lat="42.112271" lon="2.536331">
        <ele>680.379</ele>
        <time>2021-05-27T11:22:29Z</time>
      </trkpt>
      <trkpt lat="42.112374" lon="2.536316">
        <ele>682.126</ele>
        <time>2021-05-27T11:22:36Z</time>
      </trkpt>
      <trkpt lat="42.112467" lon="2.536345">
        <ele>682.854</ele>
        <time>2021-05-27T11:22:44Z</time>
      </trkpt>
      <trkpt lat="42.112564" lon="2.536330">
        <ele>684.754</ele>
        <time>2021-05-27T11:22:52Z</time>
      </trkpt>
      <trkpt lat="42.112656" lon="2.536277">
        <ele>687.991</ele>
        <time>2021-05-27T11:23:01Z</time>
      </trkpt>
      <trkpt lat="42.112752" lon="2.536252">
        <ele>690.546</ele>
        <time>2021-05-27T11:23:10Z</time>
      </trkpt>
      <trkpt lat="42.112857" lon="2.536243">
        <ele>691.999</ele>
        <time>2021-05-27T11:23:15Z</time>
      </trkpt>
      <trkpt lat="42.112966" lon="2.536245">
        <ele>692.835</ele>
        <time>2021-05-27T11:23:18Z</time>
      </trkpt>
      <trkpt lat="42.113056" lon="2.536269">
        <ele>693.055</ele>
        <time>2021-05-27T11:23:21Z</time>
      </trkpt>
      <trkpt lat="42.113074" lon="2.536268">
        <ele>693.407</ele>
        <time>2021-05-27T11:23:22Z</time>
      </trkpt>
      <trkpt lat="42.113105" lon="2.536268">
        <ele>694.117</ele>
        <time>2021-05-27T11:23:24Z</time>
      </trkpt>
      <trkpt lat="42.113128" lon="2.536265">
        <ele>694.608</ele>
        <time>2021-05-27T11:23:26Z</time>
      </trkpt>
      <trkpt lat="42.113150" lon="2.536271">
        <ele>694.972</ele>
        <time>2021-05-27T11:23:28Z</time>
      </trkpt>
      <trkpt lat="42.113174" lon="2.536272">
        <ele>695.469</ele>
        <time>2021-05-27T11:23:30Z</time>
      </trkpt>
      <trkpt lat="42.113197" lon="2.536273">
        <ele>695.877</ele>
        <time>2021-05-27T11:23:32Z</time>
      </trkpt>
      <trkpt lat="42.113217" lon="2.536277">
        <ele>696.277</ele>
        <time>2021-05-27T11:23:34Z</time>
      </trkpt>
      <trkpt lat="42.113239" lon="2.536287">
        <ele>696.584</ele>
        <time>2021-05-27T11:23:36Z</time>
      </trkpt>
      <trkpt lat="42.113251" lon="2.536305">
        <ele>696.479</ele>
        <time>2021-05-27T11:23:38Z</time>
      </trkpt>
      <trkpt lat="42.113269" lon="2.536331">
        <ele>696.462</ele>
        <time>2021-05-27T11:23:41Z</time>
      </trkpt>
      <trkpt lat="42.113279" lon="2.536375">
        <ele>695.998</ele>
        <time>2021-05-27T11:23:44Z</time>
      </trkpt>
      <trkpt lat="42.113291" lon="2.536396">
        <ele>695.972</ele>
        <time>2021-05-27T11:23:46Z</time>
      </trkpt>
      <trkpt lat="42.113312" lon="2.536431">
        <ele>696.013</ele>
        <time>2021-05-27T11:23:48Z</time>
      </trkpt>
      <trkpt lat="42.113326" lon="2.536455">
        <ele>696.114</ele>
        <time>2021-05-27T11:23:50Z</time>
      </trkpt>
      <trkpt lat="42.113351" lon="2.536481">
        <ele>696.708</ele>
        <time>2021-05-27T11:23:52Z</time>
      </trkpt>
      <trkpt lat="42.113378" lon="2.536506">
        <ele>697.554</ele>
        <time>2021-05-27T11:23:54Z</time>
      </trkpt>
      <trkpt lat="42.113399" lon="2.536521">
        <ele>698.191</ele>
        <time>2021-05-27T11:23:56Z</time>
      </trkpt>
      <trkpt lat="42.113418" lon="2.536531">
        <ele>698.639</ele>
        <time>2021-05-27T11:23:58Z</time>
      </trkpt>
      <trkpt lat="42.113445" lon="2.536544">
        <ele>699.429</ele>
        <time>2021-05-27T11:24:01Z</time>
      </trkpt>
      <trkpt lat="42.113461" lon="2.536559">
        <ele>699.756</ele>
        <time>2021-05-27T11:24:03Z</time>
      </trkpt>
      <trkpt lat="42.113476" lon="2.536577">
        <ele>699.961</ele>
        <time>2021-05-27T11:24:05Z</time>
      </trkpt>
      <trkpt lat="42.113491" lon="2.536595">
        <ele>700.054</ele>
        <time>2021-05-27T11:24:07Z</time>
      </trkpt>
      <trkpt lat="42.113507" lon="2.536615">
        <ele>700.130</ele>
        <time>2021-05-27T11:24:09Z</time>
      </trkpt>
      <trkpt lat="42.113527" lon="2.536628">
        <ele>700.559</ele>
        <time>2021-05-27T11:24:11Z</time>
      </trkpt>
      <trkpt lat="42.113547" lon="2.536650">
        <ele>700.603</ele>
        <time>2021-05-27T11:24:14Z</time>
      </trkpt>
      <trkpt lat="42.113569" lon="2.536670">
        <ele>700.823</ele>
        <time>2021-05-27T11:24:17Z</time>
      </trkpt>
      <trkpt lat="42.113586" lon="2.536697">
        <ele>701.208</ele>
        <time>2021-05-27T11:24:20Z</time>
      </trkpt>
      <trkpt lat="42.113611" lon="2.536719">
        <ele>701.872</ele>
        <time>2021-05-27T11:24:22Z</time>
      </trkpt>
      <trkpt lat="42.113622" lon="2.536738">
        <ele>702.189</ele>
        <time>2021-05-27T11:24:24Z</time>
      </trkpt>
      <trkpt lat="42.113637" lon="2.536765">
        <ele>702.427</ele>
        <time>2021-05-27T11:24:26Z</time>
      </trkpt>
      <trkpt lat="42.113650" lon="2.536783">
        <ele>702.717</ele>
        <time>2021-05-27T11:24:28Z</time>
      </trkpt>
      <trkpt lat="42.113676" lon="2.536800">
        <ele>703.324</ele>
        <time>2021-05-27T11:24:30Z</time>
      </trkpt>
      <trkpt lat="42.113773" lon="2.536843">
        <ele>705.549</ele>
        <time>2021-05-27T11:24:42Z</time>
      </trkpt>
      <trkpt lat="42.113865" lon="2.536861">
        <ele>707.662</ele>
        <time>2021-05-27T11:24:50Z</time>
      </trkpt>
      <trkpt lat="42.113960" lon="2.536875">
        <ele>709.898</ele>
        <time>2021-05-27T11:24:58Z</time>
      </trkpt>
      <trkpt lat="42.114044" lon="2.536880">
        <ele>711.895</ele>
        <time>2021-05-27T11:25:06Z</time>
      </trkpt>
      <trkpt lat="42.114066" lon="2.536875">
        <ele>712.549</ele>
        <time>2021-05-27T11:25:08Z</time>
      </trkpt>
      <trkpt lat="42.114088" lon="2.536872">
        <ele>713.123</ele>
        <time>2021-05-27T11:25:11Z</time>
      </trkpt>
      <trkpt lat="42.114110" lon="2.536870">
        <ele>713.708</ele>
        <time>2021-05-27T11:25:16Z</time>
      </trkpt>
      <trkpt lat="42.114149" lon="2.536885">
        <ele>714.376</ele>
        <time>2021-05-27T11:25:20Z</time>
      </trkpt>
      <trkpt lat="42.114174" lon="2.536895">
        <ele>714.683</ele>
        <time>2021-05-27T11:25:22Z</time>
      </trkpt>
      <trkpt lat="42.114218" lon="2.536916">
        <ele>715.171</ele>
        <time>2021-05-27T11:25:27Z</time>
      </trkpt>
      <trkpt lat="42.114289" lon="2.536984">
        <ele>716.011</ele>
        <time>2021-05-27T11:25:37Z</time>
      </trkpt>
      <trkpt lat="42.114308" lon="2.537004">
        <ele>716.578</ele>
        <time>2021-05-27T11:25:40Z</time>
      </trkpt>
      <trkpt lat="42.114324" lon="2.537023">
        <ele>716.853</ele>
        <time>2021-05-27T11:25:43Z</time>
      </trkpt>
      <trkpt lat="42.114342" lon="2.537039">
        <ele>717.276</ele>
        <time>2021-05-27T11:25:46Z</time>
      </trkpt>
      <trkpt lat="42.114363" lon="2.537054">
        <ele>717.762</ele>
        <time>2021-05-27T11:25:49Z</time>
      </trkpt>
      <trkpt lat="42.114465" lon="2.537080">
        <ele>719.659</ele>
        <time>2021-05-27T11:25:58Z</time>
      </trkpt>
      <trkpt lat="42.114503" lon="2.537087">
        <ele>719.803</ele>
        <time>2021-05-27T11:26:01Z</time>
      </trkpt>
      <trkpt lat="42.114593" lon="2.537065">
        <ele>720.323</ele>
        <time>2021-05-27T11:26:09Z</time>
      </trkpt>
      <trkpt lat="42.114688" lon="2.537025">
        <ele>720.508</ele>
        <time>2021-05-27T11:26:18Z</time>
      </trkpt>
      <trkpt lat="42.114752" lon="2.537080">
        <ele>719.952</ele>
        <time>2021-05-27T11:26:26Z</time>
      </trkpt>
      <trkpt lat="42.114755" lon="2.537113">
        <ele>720.179</ele>
        <time>2021-05-27T11:26:28Z</time>
      </trkpt>
      <trkpt lat="42.114763" lon="2.537138">
        <ele>720.017</ele>
        <time>2021-05-27T11:26:30Z</time>
      </trkpt>
      <trkpt lat="42.114773" lon="2.537167">
        <ele>719.977</ele>
        <time>2021-05-27T11:26:32Z</time>
      </trkpt>
      <trkpt lat="42.114780" lon="2.537194">
        <ele>719.924</ele>
        <time>2021-05-27T11:26:34Z</time>
      </trkpt>
      <trkpt lat="42.114786" lon="2.537225">
        <ele>720.089</ele>
        <time>2021-05-27T11:26:37Z</time>
      </trkpt>
      <trkpt lat="42.114788" lon="2.537264">
        <ele>720.532</ele>
        <time>2021-05-27T11:26:40Z</time>
      </trkpt>
      <trkpt lat="42.114789" lon="2.537302">
        <ele>721.058</ele>
        <time>2021-05-27T11:26:42Z</time>
      </trkpt>
      <trkpt lat="42.114791" lon="2.537334">
        <ele>721.417</ele>
        <time>2021-05-27T11:26:44Z</time>
      </trkpt>
      <trkpt lat="42.114799" lon="2.537370">
        <ele>721.787</ele>
        <time>2021-05-27T11:26:46Z</time>
      </trkpt>
      <trkpt lat="42.114802" lon="2.537396">
        <ele>722.015</ele>
        <time>2021-05-27T11:26:48Z</time>
      </trkpt>
      <trkpt lat="42.114800" lon="2.537426">
        <ele>722.508</ele>
        <time>2021-05-27T11:26:51Z</time>
      </trkpt>
      <trkpt lat="42.114796" lon="2.537451">
        <ele>723.078</ele>
        <time>2021-05-27T11:26:53Z</time>
      </trkpt>
      <trkpt lat="42.114815" lon="2.537572">
        <ele>724.655</ele>
        <time>2021-05-27T11:27:01Z</time>
      </trkpt>
      <trkpt lat="42.114876" lon="2.537670">
        <ele>725.313</ele>
        <time>2021-05-27T11:27:09Z</time>
      </trkpt>
      <trkpt lat="42.114875" lon="2.537795">
        <ele>727.893</ele>
        <time>2021-05-27T11:27:20Z</time>
      </trkpt>
      <trkpt lat="42.114895" lon="2.537914">
        <ele>731.210</ele>
        <time>2021-05-27T11:27:30Z</time>
      </trkpt>
      <trkpt lat="42.114955" lon="2.538005">
        <ele>732.655</ele>
        <time>2021-05-27T11:27:39Z</time>
      </trkpt>
      <trkpt lat="42.115002" lon="2.538119">
        <ele>735.568</ele>
        <time>2021-05-27T11:27:53Z</time>
      </trkpt>
      <trkpt lat="42.115095" lon="2.538155">
        <ele>738.684</ele>
        <time>2021-05-27T11:28:02Z</time>
      </trkpt>
      <trkpt lat="42.115192" lon="2.538146">
        <ele>740.039</ele>
        <time>2021-05-27T11:28:14Z</time>
      </trkpt>
      <trkpt lat="42.115282" lon="2.538122">
        <ele>740.501</ele>
        <time>2021-05-27T11:28:25Z</time>
      </trkpt>
      <trkpt lat="42.115377" lon="2.538114">
        <ele>738.421</ele>
        <time>2021-05-27T11:28:34Z</time>
      </trkpt>
      <trkpt lat="42.115434" lon="2.538210">
        <ele>740.708</ele>
        <time>2021-05-27T11:28:48Z</time>
      </trkpt>
      <trkpt lat="42.115522" lon="2.538291">
        <ele>741.410</ele>
        <time>2021-05-27T11:28:56Z</time>
      </trkpt>
      <trkpt lat="42.115612" lon="2.538350">
        <ele>743.327</ele>
        <time>2021-05-27T11:29:01Z</time>
      </trkpt>
      <trkpt lat="42.115674" lon="2.538440">
        <ele>747.315</ele>
        <time>2021-05-27T11:29:14Z</time>
      </trkpt>
      <trkpt lat="42.115742" lon="2.538525">
        <ele>751.145</ele>
        <time>2021-05-27T11:29:29Z</time>
      </trkpt>
      <trkpt lat="42.115834" lon="2.538527">
        <ele>752.082</ele>
        <time>2021-05-27T11:29:43Z</time>
      </trkpt>
      <trkpt lat="42.115924" lon="2.538534">
        <ele>753.487</ele>
        <time>2021-05-27T11:29:53Z</time>
      </trkpt>
      <trkpt lat="42.116021" lon="2.538507">
        <ele>754.180</ele>
        <time>2021-05-27T11:30:06Z</time>
      </trkpt>
      <trkpt lat="42.116058" lon="2.538473">
        <ele>754.116</ele>
        <time>2021-05-27T11:30:12Z</time>
      </trkpt>
      <trkpt lat="42.116077" lon="2.538461">
        <ele>754.222</ele>
        <time>2021-05-27T11:30:14Z</time>
      </trkpt>
      <trkpt lat="42.116092" lon="2.538443">
        <ele>754.262</ele>
        <time>2021-05-27T11:30:17Z</time>
      </trkpt>
      <trkpt lat="42.116113" lon="2.538438">
        <ele>754.408</ele>
        <time>2021-05-27T11:30:19Z</time>
      </trkpt>
      <trkpt lat="42.116136" lon="2.538440">
        <ele>753.508</ele>
        <time>2021-05-27T11:30:21Z</time>
      </trkpt>
      <trkpt lat="42.116160" lon="2.538448">
        <ele>752.679</ele>
        <time>2021-05-27T11:30:23Z</time>
      </trkpt>
      <trkpt lat="42.116181" lon="2.538454">
        <ele>751.816</ele>
        <time>2021-05-27T11:30:25Z</time>
      </trkpt>
      <trkpt lat="42.116198" lon="2.538471">
        <ele>751.224</ele>
        <time>2021-05-27T11:30:28Z</time>
      </trkpt>
      <trkpt lat="42.116205" lon="2.538495">
        <ele>751.134</ele>
        <time>2021-05-27T11:30:30Z</time>
      </trkpt>
      <trkpt lat="42.116211" lon="2.538529">
        <ele>751.181</ele>
        <time>2021-05-27T11:30:32Z</time>
      </trkpt>
      <trkpt lat="42.116213" lon="2.538565">
        <ele>751.276</ele>
        <time>2021-05-27T11:30:34Z</time>
      </trkpt>
      <trkpt lat="42.116212" lon="2.538596">
        <ele>751.589</ele>
        <time>2021-05-27T11:30:36Z</time>
      </trkpt>
      <trkpt lat="42.116208" lon="2.538627">
        <ele>751.965</ele>
        <time>2021-05-27T11:30:38Z</time>
      </trkpt>
      <trkpt lat="42.116210" lon="2.538658">
        <ele>752.074</ele>
        <time>2021-05-27T11:30:40Z</time>
      </trkpt>
      <trkpt lat="42.116213" lon="2.538686">
        <ele>752.156</ele>
        <time>2021-05-27T11:30:42Z</time>
      </trkpt>
      <trkpt lat="42.116224" lon="2.538811">
        <ele>752.521</ele>
        <time>2021-05-27T11:30:52Z</time>
      </trkpt>
      <trkpt lat="42.116228" lon="2.538934">
        <ele>752.508</ele>
        <time>2021-05-27T11:31:00Z</time>
      </trkpt>
      <trkpt lat="42.116211" lon="2.538952">
        <ele>753.444</ele>
        <time>2021-05-27T11:31:02Z</time>
      </trkpt>
      <trkpt lat="42.116130" lon="2.539032">
        <ele>757.871</ele>
        <time>2021-05-27T11:31:09Z</time>
      </trkpt>
      <trkpt lat="42.116098" lon="2.539147">
        <ele>758.979</ele>
        <time>2021-05-27T11:31:16Z</time>
      </trkpt>
      <trkpt lat="42.116041" lon="2.539255">
        <ele>762.179</ele>
        <time>2021-05-27T11:31:25Z</time>
      </trkpt>
      <trkpt lat="42.116020" lon="2.539384">
        <ele>763.356</ele>
        <time>2021-05-27T11:31:35Z</time>
      </trkpt>
      <trkpt lat="42.115957" lon="2.539487">
        <ele>767.881</ele>
        <time>2021-05-27T11:31:45Z</time>
      </trkpt>
      <trkpt lat="42.115928" lon="2.539612">
        <ele>770.354</ele>
        <time>2021-05-27T11:31:55Z</time>
      </trkpt>
      <trkpt lat="42.115914" lon="2.539740">
        <ele>771.990</ele>
        <time>2021-05-27T11:32:04Z</time>
      </trkpt>
      <trkpt lat="42.115938" lon="2.539862">
        <ele>771.514</ele>
        <time>2021-05-27T11:32:13Z</time>
      </trkpt>
      <trkpt lat="42.115909" lon="2.539981">
        <ele>774.654</ele>
        <time>2021-05-27T11:32:24Z</time>
      </trkpt>
      <trkpt lat="42.115837" lon="2.540062">
        <ele>780.409</ele>
        <time>2021-05-27T11:32:34Z</time>
      </trkpt>
      <trkpt lat="42.115836" lon="2.540185">
        <ele>781.808</ele>
        <time>2021-05-27T11:32:42Z</time>
      </trkpt>
      <trkpt lat="42.115819" lon="2.540312">
        <ele>784.578</ele>
        <time>2021-05-27T11:32:51Z</time>
      </trkpt>
      <trkpt lat="42.115831" lon="2.540452">
        <ele>786.345</ele>
        <time>2021-05-27T11:33:02Z</time>
      </trkpt>
      <trkpt lat="42.115844" lon="2.540578">
        <ele>787.993</ele>
        <time>2021-05-27T11:33:15Z</time>
      </trkpt>
      <trkpt lat="42.115876" lon="2.540717">
        <ele>789.143</ele>
        <time>2021-05-27T11:33:24Z</time>
      </trkpt>
      <trkpt lat="42.115956" lon="2.540771">
        <ele>785.950</ele>
        <time>2021-05-27T11:33:28Z</time>
      </trkpt>
      <trkpt lat="42.115857" lon="2.540841">
        <ele>792.975</ele>
        <time>2021-05-27T11:33:38Z</time>
      </trkpt>
      <trkpt lat="42.115876" lon="2.540966">
        <ele>795.248</ele>
        <time>2021-05-27T11:33:48Z</time>
      </trkpt>
      <trkpt lat="42.115921" lon="2.541078">
        <ele>796.044</ele>
        <time>2021-05-27T11:33:57Z</time>
      </trkpt>
      <trkpt lat="42.115972" lon="2.541183">
        <ele>796.784</ele>
        <time>2021-05-27T11:34:05Z</time>
      </trkpt>
      <trkpt lat="42.115928" lon="2.541292">
        <ele>802.007</ele>
        <time>2021-05-27T11:34:22Z</time>
      </trkpt>
      <trkpt lat="42.115864" lon="2.541393">
        <ele>807.817</ele>
        <time>2021-05-27T11:34:32Z</time>
      </trkpt>
      <trkpt lat="42.115889" lon="2.541517">
        <ele>810.608</ele>
        <time>2021-05-27T11:34:45Z</time>
      </trkpt>
      <trkpt lat="42.115877" lon="2.541649">
        <ele>815.015</ele>
        <time>2021-05-27T11:34:56Z</time>
      </trkpt>
      <trkpt lat="42.115947" lon="2.541757">
        <ele>815.922</ele>
        <time>2021-05-27T11:35:06Z</time>
      </trkpt>
      <trkpt lat="42.116046" lon="2.541770">
        <ele>813.120</ele>
        <time>2021-05-27T11:35:25Z</time>
      </trkpt>
      <trkpt lat="42.116147" lon="2.541751">
        <ele>808.770</ele>
        <time>2021-05-27T11:35:33Z</time>
      </trkpt>
      <trkpt lat="42.116242" lon="2.541755">
        <ele>804.397</ele>
        <time>2021-05-27T11:35:42Z</time>
      </trkpt>
      <trkpt lat="42.116332" lon="2.541731">
        <ele>799.342</ele>
        <time>2021-05-27T11:35:54Z</time>
      </trkpt>
      <trkpt lat="42.116421" lon="2.541668">
        <ele>794.965</ele>
        <time>2021-05-27T11:36:02Z</time>
      </trkpt>
      <trkpt lat="42.116491" lon="2.541562">
        <ele>791.571</ele>
        <time>2021-05-27T11:36:08Z</time>
      </trkpt>
      <trkpt lat="42.116581" lon="2.541522">
        <ele>790.392</ele>
        <time>2021-05-27T11:36:18Z</time>
      </trkpt>
      <trkpt lat="42.116651" lon="2.541435">
        <ele>788.173</ele>
        <time>2021-05-27T11:36:25Z</time>
      </trkpt>
      <trkpt lat="42.116740" lon="2.541418">
        <ele>790.620</ele>
        <time>2021-05-27T11:36:33Z</time>
      </trkpt>
      <trkpt lat="42.116835" lon="2.541437">
        <ele>794.908</ele>
        <time>2021-05-27T11:36:39Z</time>
      </trkpt>
      <trkpt lat="42.116932" lon="2.541454">
        <ele>799.186</ele>
        <time>2021-05-27T11:36:43Z</time>
      </trkpt>
      <trkpt lat="42.116962" lon="2.541450">
        <ele>800.163</ele>
        <time>2021-05-27T11:36:45Z</time>
      </trkpt>
      <trkpt lat="42.116997" lon="2.541466">
        <ele>801.691</ele>
        <time>2021-05-27T11:36:48Z</time>
      </trkpt>
      <trkpt lat="42.117062" lon="2.541524">
        <ele>805.291</ele>
        <time>2021-05-27T11:36:55Z</time>
      </trkpt>
      <trkpt lat="42.117083" lon="2.541529">
        <ele>806.088</ele>
        <time>2021-05-27T11:36:58Z</time>
      </trkpt>
      <trkpt lat="42.117134" lon="2.541598">
        <ele>809.473</ele>
        <time>2021-05-27T11:37:04Z</time>
      </trkpt>
      <trkpt lat="42.117152" lon="2.541617">
        <ele>810.526</ele>
        <time>2021-05-27T11:37:07Z</time>
      </trkpt>
      <trkpt lat="42.117164" lon="2.541642">
        <ele>811.562</ele>
        <time>2021-05-27T11:37:10Z</time>
      </trkpt>
      <trkpt lat="42.117180" lon="2.541679">
        <ele>812.865</ele>
        <time>2021-05-27T11:37:13Z</time>
      </trkpt>
      <trkpt lat="42.117201" lon="2.541706">
        <ele>813.968</ele>
        <time>2021-05-27T11:37:15Z</time>
      </trkpt>
      <trkpt lat="42.117212" lon="2.541734">
        <ele>814.714</ele>
        <time>2021-05-27T11:37:17Z</time>
      </trkpt>
      <trkpt lat="42.117217" lon="2.541757">
        <ele>815.108</ele>
        <time>2021-05-27T11:37:19Z</time>
      </trkpt>
      <trkpt lat="42.117247" lon="2.541798">
        <ele>815.163</ele>
        <time>2021-05-27T11:37:21Z</time>
      </trkpt>
      <trkpt lat="42.117270" lon="2.541821">
        <ele>814.750</ele>
        <time>2021-05-27T11:37:22Z</time>
      </trkpt>
      <trkpt lat="42.117278" lon="2.541849">
        <ele>814.818</ele>
        <time>2021-05-27T11:37:23Z</time>
      </trkpt>
      <trkpt lat="42.117283" lon="2.541873">
        <ele>815.048</ele>
        <time>2021-05-27T11:37:24Z</time>
      </trkpt>
      <trkpt lat="42.117286" lon="2.541899">
        <ele>815.215</ele>
        <time>2021-05-27T11:37:26Z</time>
      </trkpt>
      <trkpt lat="42.117286" lon="2.541931">
        <ele>815.590</ele>
        <time>2021-05-27T11:37:29Z</time>
      </trkpt>
      <trkpt lat="42.117274" lon="2.541965">
        <ele>816.043</ele>
        <time>2021-05-27T11:37:32Z</time>
      </trkpt>
      <trkpt lat="42.117259" lon="2.541987">
        <ele>816.519</ele>
        <time>2021-05-27T11:37:34Z</time>
      </trkpt>
      <trkpt lat="42.117248" lon="2.542012">
        <ele>816.976</ele>
        <time>2021-05-27T11:37:36Z</time>
      </trkpt>
      <trkpt lat="42.117236" lon="2.542032">
        <ele>817.490</ele>
        <time>2021-05-27T11:37:38Z</time>
      </trkpt>
      <trkpt lat="42.117225" lon="2.542053">
        <ele>817.919</ele>
        <time>2021-05-27T11:37:40Z</time>
      </trkpt>
      <trkpt lat="42.117212" lon="2.542079">
        <ele>817.908</ele>
        <time>2021-05-27T11:37:42Z</time>
      </trkpt>
      <trkpt lat="42.117205" lon="2.542106">
        <ele>817.854</ele>
        <time>2021-05-27T11:37:44Z</time>
      </trkpt>
      <trkpt lat="42.117199" lon="2.542141">
        <ele>817.821</ele>
        <time>2021-05-27T11:37:46Z</time>
      </trkpt>
      <trkpt lat="42.117192" lon="2.542174">
        <ele>817.849</ele>
        <time>2021-05-27T11:37:48Z</time>
      </trkpt>
      <trkpt lat="42.117187" lon="2.542207">
        <ele>817.849</ele>
        <time>2021-05-27T11:37:50Z</time>
      </trkpt>
      <trkpt lat="42.117184" lon="2.542243">
        <ele>817.966</ele>
        <time>2021-05-27T11:37:52Z</time>
      </trkpt>
      <trkpt lat="42.117179" lon="2.542292">
        <ele>818.181</ele>
        <time>2021-05-27T11:37:55Z</time>
      </trkpt>
      <trkpt lat="42.117175" lon="2.542322">
        <ele>818.324</ele>
        <time>2021-05-27T11:37:57Z</time>
      </trkpt>
      <trkpt lat="42.117172" lon="2.542346">
        <ele>818.450</ele>
        <time>2021-05-27T11:37:59Z</time>
      </trkpt>
      <trkpt lat="42.117170" lon="2.542372">
        <ele>818.572</ele>
        <time>2021-05-27T11:38:01Z</time>
      </trkpt>
      <trkpt lat="42.117161" lon="2.542394">
        <ele>818.713</ele>
        <time>2021-05-27T11:38:03Z</time>
      </trkpt>
      <trkpt lat="42.117157" lon="2.542420">
        <ele>818.914</ele>
        <time>2021-05-27T11:38:05Z</time>
      </trkpt>
      <trkpt lat="42.117155" lon="2.542448">
        <ele>819.108</ele>
        <time>2021-05-27T11:38:07Z</time>
      </trkpt>
      <trkpt lat="42.117157" lon="2.542475">
        <ele>819.344</ele>
        <time>2021-05-27T11:38:09Z</time>
      </trkpt>
      <trkpt lat="42.117155" lon="2.542506">
        <ele>819.521</ele>
        <time>2021-05-27T11:38:11Z</time>
      </trkpt>
      <trkpt lat="42.117155" lon="2.542534">
        <ele>819.979</ele>
        <time>2021-05-27T11:38:13Z</time>
      </trkpt>
      <trkpt lat="42.117161" lon="2.542588">
        <ele>820.499</ele>
        <time>2021-05-27T11:38:16Z</time>
      </trkpt>
      <trkpt lat="42.117172" lon="2.542619">
        <ele>820.476</ele>
        <time>2021-05-27T11:38:18Z</time>
      </trkpt>
      <trkpt lat="42.117180" lon="2.542647">
        <ele>820.551</ele>
        <time>2021-05-27T11:38:20Z</time>
      </trkpt>
      <trkpt lat="42.117193" lon="2.542666">
        <ele>820.214</ele>
        <time>2021-05-27T11:38:27Z</time>
      </trkpt>
      <trkpt lat="42.117195" lon="2.542693">
        <ele>820.490</ele>
        <time>2021-05-27T11:38:29Z</time>
      </trkpt>
      <trkpt lat="42.117180" lon="2.542823">
        <ele>822.416</ele>
        <time>2021-05-27T11:38:38Z</time>
      </trkpt>
      <trkpt lat="42.117179" lon="2.542953">
        <ele>824.276</ele>
        <time>2021-05-27T11:38:47Z</time>
      </trkpt>
      <trkpt lat="42.117177" lon="2.543088">
        <ele>826.413</ele>
        <time>2021-05-27T11:38:54Z</time>
      </trkpt>
      <trkpt lat="42.117221" lon="2.543201">
        <ele>826.708</ele>
        <time>2021-05-27T11:39:01Z</time>
      </trkpt>
      <trkpt lat="42.117283" lon="2.543291">
        <ele>826.828</ele>
        <time>2021-05-27T11:39:08Z</time>
      </trkpt>
      <trkpt lat="42.117298" lon="2.543422">
        <ele>829.335</ele>
        <time>2021-05-27T11:39:18Z</time>
      </trkpt>
      <trkpt lat="42.117336" lon="2.543532">
        <ele>829.993</ele>
        <time>2021-05-27T11:39:25Z</time>
      </trkpt>
      <trkpt lat="42.117328" lon="2.543658">
        <ele>831.963</ele>
        <time>2021-05-27T11:39:34Z</time>
      </trkpt>
      <trkpt lat="42.117349" lon="2.543795">
        <ele>831.150</ele>
        <time>2021-05-27T11:39:43Z</time>
      </trkpt>
      <trkpt lat="42.117369" lon="2.543923">
        <ele>829.885</ele>
        <time>2021-05-27T11:39:50Z</time>
      </trkpt>
      <trkpt lat="42.117345" lon="2.544042">
        <ele>831.158</ele>
        <time>2021-05-27T11:39:58Z</time>
      </trkpt>
      <trkpt lat="42.117340" lon="2.544183">
        <ele>831.484</ele>
        <time>2021-05-27T11:40:08Z</time>
      </trkpt>
      <trkpt lat="42.117364" lon="2.544302">
        <ele>833.044</ele>
        <time>2021-05-27T11:40:14Z</time>
      </trkpt>
      <trkpt lat="42.117404" lon="2.544422">
        <ele>833.905</ele>
        <time>2021-05-27T11:40:23Z</time>
      </trkpt>
      <trkpt lat="42.117370" lon="2.544535">
        <ele>839.615</ele>
        <time>2021-05-27T11:40:29Z</time>
      </trkpt>
      <trkpt lat="42.117461" lon="2.544588">
        <ele>837.108</ele>
        <time>2021-05-27T11:40:42Z</time>
      </trkpt>
      <trkpt lat="42.117565" lon="2.544621">
        <ele>834.921</ele>
        <time>2021-05-27T11:40:46Z</time>
      </trkpt>
      <trkpt lat="42.117652" lon="2.544668">
        <ele>834.748</ele>
        <time>2021-05-27T11:40:51Z</time>
      </trkpt>
      <trkpt lat="42.117740" lon="2.544718">
        <ele>834.836</ele>
        <time>2021-05-27T11:40:56Z</time>
      </trkpt>
      <trkpt lat="42.117819" lon="2.544803">
        <ele>837.226</ele>
        <time>2021-05-27T11:41:05Z</time>
      </trkpt>
      <trkpt lat="42.117915" lon="2.544851">
        <ele>836.853</ele>
        <time>2021-05-27T11:41:12Z</time>
      </trkpt>
      <trkpt lat="42.118001" lon="2.544918">
        <ele>837.238</ele>
        <time>2021-05-27T11:41:19Z</time>
      </trkpt>
      <trkpt lat="42.118097" lon="2.544973">
        <ele>837.131</ele>
        <time>2021-05-27T11:41:28Z</time>
      </trkpt>
      <trkpt lat="42.118171" lon="2.545046">
        <ele>839.217</ele>
        <time>2021-05-27T11:41:35Z</time>
      </trkpt>
      <trkpt lat="42.118246" lon="2.545115">
        <ele>840.812</ele>
        <time>2021-05-27T11:41:43Z</time>
      </trkpt>
      <trkpt lat="42.118270" lon="2.545144">
        <ele>841.432</ele>
        <time>2021-05-27T11:41:47Z</time>
      </trkpt>
      <trkpt lat="42.118283" lon="2.545162">
        <ele>841.905</ele>
        <time>2021-05-27T11:41:49Z</time>
      </trkpt>
      <trkpt lat="42.118300" lon="2.545178">
        <ele>842.008</ele>
        <time>2021-05-27T11:41:51Z</time>
      </trkpt>
      <trkpt lat="42.118319" lon="2.545197">
        <ele>842.298</ele>
        <time>2021-05-27T11:41:53Z</time>
      </trkpt>
      <trkpt lat="42.118339" lon="2.545210">
        <ele>842.215</ele>
        <time>2021-05-27T11:41:55Z</time>
      </trkpt>
      <trkpt lat="42.118359" lon="2.545222">
        <ele>842.353</ele>
        <time>2021-05-27T11:41:57Z</time>
      </trkpt>
      <trkpt lat="42.118373" lon="2.545238">
        <ele>842.723</ele>
        <time>2021-05-27T11:41:59Z</time>
      </trkpt>
      <trkpt lat="42.118392" lon="2.545252">
        <ele>842.950</ele>
        <time>2021-05-27T11:42:01Z</time>
      </trkpt>
      <trkpt lat="42.118406" lon="2.545274">
        <ele>843.555</ele>
        <time>2021-05-27T11:42:03Z</time>
      </trkpt>
      <trkpt lat="42.118420" lon="2.545301">
        <ele>844.398</ele>
        <time>2021-05-27T11:42:06Z</time>
      </trkpt>
      <trkpt lat="42.118440" lon="2.545328">
        <ele>844.994</ele>
        <time>2021-05-27T11:42:09Z</time>
      </trkpt>
      <trkpt lat="42.118458" lon="2.545347">
        <ele>845.281</ele>
        <time>2021-05-27T11:42:11Z</time>
      </trkpt>
      <trkpt lat="42.118477" lon="2.545377">
        <ele>845.861</ele>
        <time>2021-05-27T11:42:14Z</time>
      </trkpt>
      <trkpt lat="42.118500" lon="2.545390">
        <ele>845.717</ele>
        <time>2021-05-27T11:42:16Z</time>
      </trkpt>
      <trkpt lat="42.118512" lon="2.545416">
        <ele>846.308</ele>
        <time>2021-05-27T11:42:19Z</time>
      </trkpt>
      <trkpt lat="42.118529" lon="2.545431">
        <ele>846.485</ele>
        <time>2021-05-27T11:42:21Z</time>
      </trkpt>
      <trkpt lat="42.118546" lon="2.545454">
        <ele>846.712</ele>
        <time>2021-05-27T11:42:23Z</time>
      </trkpt>
      <trkpt lat="42.118552" lon="2.545482">
        <ele>847.480</ele>
        <time>2021-05-27T11:42:26Z</time>
      </trkpt>
      <trkpt lat="42.118558" lon="2.545510">
        <ele>848.160</ele>
        <time>2021-05-27T11:42:29Z</time>
      </trkpt>
      <trkpt lat="42.118576" lon="2.545533">
        <ele>848.357</ele>
        <time>2021-05-27T11:42:32Z</time>
      </trkpt>
      <trkpt lat="42.118575" lon="2.545563">
        <ele>849.072</ele>
        <time>2021-05-27T11:42:35Z</time>
      </trkpt>
      <trkpt lat="42.118575" lon="2.545595">
        <ele>849.015</ele>
        <time>2021-05-27T11:42:38Z</time>
      </trkpt>
      <trkpt lat="42.118582" lon="2.545621">
        <ele>848.971</ele>
        <time>2021-05-27T11:42:41Z</time>
      </trkpt>
      <trkpt lat="42.118585" lon="2.545652">
        <ele>848.886</ele>
        <time>2021-05-27T11:42:45Z</time>
      </trkpt>
      <trkpt lat="42.118582" lon="2.545679">
        <ele>848.960</ele>
        <time>2021-05-27T11:42:50Z</time>
      </trkpt>
      <trkpt lat="42.118602" lon="2.545668">
        <ele>848.526</ele>
        <time>2021-05-27T11:43:04Z</time>
      </trkpt>
      <trkpt lat="42.118627" lon="2.545669">
        <ele>848.608</ele>
        <time>2021-05-27T11:43:07Z</time>
      </trkpt>
      <trkpt lat="42.118645" lon="2.545680">
        <ele>848.845</ele>
        <time>2021-05-27T11:43:10Z</time>
      </trkpt>
      <trkpt lat="42.118658" lon="2.545703">
        <ele>849.052</ele>
        <time>2021-05-27T11:43:11Z</time>
      </trkpt>
      <trkpt lat="42.118672" lon="2.545721">
        <ele>849.360</ele>
        <time>2021-05-27T11:43:13Z</time>
      </trkpt>
      <trkpt lat="42.118692" lon="2.545737">
        <ele>849.640</ele>
        <time>2021-05-27T11:43:15Z</time>
      </trkpt>
      <trkpt lat="42.118709" lon="2.545761">
        <ele>850.077</ele>
        <time>2021-05-27T11:43:17Z</time>
      </trkpt>
      <trkpt lat="42.118728" lon="2.545770">
        <ele>850.322</ele>
        <time>2021-05-27T11:43:19Z</time>
      </trkpt>
      <trkpt lat="42.118752" lon="2.545780">
        <ele>850.645</ele>
        <time>2021-05-27T11:43:22Z</time>
      </trkpt>
      <trkpt lat="42.118772" lon="2.545782">
        <ele>850.921</ele>
        <time>2021-05-27T11:43:25Z</time>
      </trkpt>
      <trkpt lat="42.118794" lon="2.545788">
        <ele>851.388</ele>
        <time>2021-05-27T11:43:27Z</time>
      </trkpt>
      <trkpt lat="42.118815" lon="2.545794">
        <ele>851.624</ele>
        <time>2021-05-27T11:43:29Z</time>
      </trkpt>
      <trkpt lat="42.118838" lon="2.545795">
        <ele>851.926</ele>
        <time>2021-05-27T11:43:31Z</time>
      </trkpt>
      <trkpt lat="42.118859" lon="2.545796">
        <ele>852.208</ele>
        <time>2021-05-27T11:43:33Z</time>
      </trkpt>
      <trkpt lat="42.118881" lon="2.545797">
        <ele>852.535</ele>
        <time>2021-05-27T11:43:35Z</time>
      </trkpt>
      <trkpt lat="42.118901" lon="2.545800">
        <ele>852.972</ele>
        <time>2021-05-27T11:43:37Z</time>
      </trkpt>
      <trkpt lat="42.118921" lon="2.545800">
        <ele>853.290</ele>
        <time>2021-05-27T11:43:39Z</time>
      </trkpt>
      <trkpt lat="42.118940" lon="2.545796">
        <ele>853.540</ele>
        <time>2021-05-27T11:43:41Z</time>
      </trkpt>
      <trkpt lat="42.118963" lon="2.545789">
        <ele>853.977</ele>
        <time>2021-05-27T11:43:43Z</time>
      </trkpt>
      <trkpt lat="42.118980" lon="2.545779">
        <ele>854.162</ele>
        <time>2021-05-27T11:43:45Z</time>
      </trkpt>
      <trkpt lat="42.118999" lon="2.545761">
        <ele>854.375</ele>
        <time>2021-05-27T11:43:48Z</time>
      </trkpt>
      <trkpt lat="42.119016" lon="2.545751">
        <ele>854.531</ele>
        <time>2021-05-27T11:43:50Z</time>
      </trkpt>
      <trkpt lat="42.119035" lon="2.545740">
        <ele>854.881</ele>
        <time>2021-05-27T11:43:52Z</time>
      </trkpt>
      <trkpt lat="42.119054" lon="2.545728">
        <ele>855.161</ele>
        <time>2021-05-27T11:43:54Z</time>
      </trkpt>
      <trkpt lat="42.119071" lon="2.545717">
        <ele>855.317</ele>
        <time>2021-05-27T11:43:56Z</time>
      </trkpt>
      <trkpt lat="42.119092" lon="2.545707">
        <ele>855.608</ele>
        <time>2021-05-27T11:43:58Z</time>
      </trkpt>
      <trkpt lat="42.119112" lon="2.545701">
        <ele>856.055</ele>
        <time>2021-05-27T11:44:00Z</time>
      </trkpt>
      <trkpt lat="42.119132" lon="2.545696">
        <ele>856.392</ele>
        <time>2021-05-27T11:44:02Z</time>
      </trkpt>
      <trkpt lat="42.119151" lon="2.545681">
        <ele>856.630</ele>
        <time>2021-05-27T11:44:05Z</time>
      </trkpt>
      <trkpt lat="42.119173" lon="2.545663">
        <ele>856.870</ele>
        <time>2021-05-27T11:44:08Z</time>
      </trkpt>
      <trkpt lat="42.119174" lon="2.545636">
        <ele>856.667</ele>
        <time>2021-05-27T11:44:12Z</time>
      </trkpt>
      <trkpt lat="42.119194" lon="2.545628">
        <ele>856.782</ele>
        <time>2021-05-27T11:44:15Z</time>
      </trkpt>
      <trkpt lat="42.119212" lon="2.545623">
        <ele>856.725</ele>
        <time>2021-05-27T11:44:16Z</time>
      </trkpt>
      <trkpt lat="42.119231" lon="2.545621">
        <ele>856.891</ele>
        <time>2021-05-27T11:44:18Z</time>
      </trkpt>
      <trkpt lat="42.119251" lon="2.545623">
        <ele>856.974</ele>
        <time>2021-05-27T11:44:21Z</time>
      </trkpt>
      <trkpt lat="42.119269" lon="2.545631">
        <ele>857.156</ele>
        <time>2021-05-27T11:44:25Z</time>
      </trkpt>
      <trkpt lat="42.119297" lon="2.545636">
        <ele>857.321</ele>
        <time>2021-05-27T11:44:28Z</time>
      </trkpt>
      <trkpt lat="42.119325" lon="2.545648">
        <ele>857.608</ele>
        <time>2021-05-27T11:44:30Z</time>
      </trkpt>
      <trkpt lat="42.119345" lon="2.545672">
        <ele>858.054</ele>
        <time>2021-05-27T11:44:32Z</time>
      </trkpt>
      <trkpt lat="42.119361" lon="2.545703">
        <ele>858.581</ele>
        <time>2021-05-27T11:44:34Z</time>
      </trkpt>
      <trkpt lat="42.119371" lon="2.545728">
        <ele>858.989</ele>
        <time>2021-05-27T11:44:36Z</time>
      </trkpt>
      <trkpt lat="42.119382" lon="2.545752">
        <ele>859.339</ele>
        <time>2021-05-27T11:44:38Z</time>
      </trkpt>
      <trkpt lat="42.119400" lon="2.545775">
        <ele>859.776</ele>
        <time>2021-05-27T11:44:41Z</time>
      </trkpt>
      <trkpt lat="42.119418" lon="2.545787">
        <ele>860.141</ele>
        <time>2021-05-27T11:44:44Z</time>
      </trkpt>
      <trkpt lat="42.119440" lon="2.545806">
        <ele>860.634</ele>
        <time>2021-05-27T11:44:47Z</time>
      </trkpt>
      <trkpt lat="42.119466" lon="2.545810">
        <ele>860.910</ele>
        <time>2021-05-27T11:44:50Z</time>
      </trkpt>
      <trkpt lat="42.119486" lon="2.545816">
        <ele>861.254</ele>
        <time>2021-05-27T11:44:53Z</time>
      </trkpt>
      <trkpt lat="42.119503" lon="2.545824">
        <ele>861.556</ele>
        <time>2021-05-27T11:44:56Z</time>
      </trkpt>
      <trkpt lat="42.119521" lon="2.545832">
        <ele>861.811</ele>
        <time>2021-05-27T11:44:59Z</time>
      </trkpt>
      <trkpt lat="42.119541" lon="2.545833">
        <ele>862.008</ele>
        <time>2021-05-27T11:45:02Z</time>
      </trkpt>
      <trkpt lat="42.119563" lon="2.545834">
        <ele>862.362</ele>
        <time>2021-05-27T11:45:05Z</time>
      </trkpt>
      <trkpt lat="42.119586" lon="2.545835">
        <ele>862.539</ele>
        <time>2021-05-27T11:45:07Z</time>
      </trkpt>
      <trkpt lat="42.119609" lon="2.545833">
        <ele>862.867</ele>
        <time>2021-05-27T11:45:11Z</time>
      </trkpt>
      <trkpt lat="42.119638" lon="2.545830">
        <ele>863.017</ele>
        <time>2021-05-27T11:45:14Z</time>
      </trkpt>
      <trkpt lat="42.119659" lon="2.545826">
        <ele>863.214</ele>
        <time>2021-05-27T11:45:16Z</time>
      </trkpt>
      <trkpt lat="42.119680" lon="2.545819">
        <ele>863.399</ele>
        <time>2021-05-27T11:45:19Z</time>
      </trkpt>
      <trkpt lat="42.119702" lon="2.545807">
        <ele>863.482</ele>
        <time>2021-05-27T11:45:22Z</time>
      </trkpt>
      <trkpt lat="42.119725" lon="2.545801">
        <ele>863.638</ele>
        <time>2021-05-27T11:45:24Z</time>
      </trkpt>
      <trkpt lat="42.119743" lon="2.545792">
        <ele>863.686</ele>
        <time>2021-05-27T11:45:26Z</time>
      </trkpt>
      <trkpt lat="42.119762" lon="2.545779">
        <ele>863.660</ele>
        <time>2021-05-27T11:45:28Z</time>
      </trkpt>
      <trkpt lat="42.119782" lon="2.545769">
        <ele>863.726</ele>
        <time>2021-05-27T11:45:30Z</time>
      </trkpt>
      <trkpt lat="42.119800" lon="2.545747">
        <ele>863.608</ele>
        <time>2021-05-27T11:45:33Z</time>
      </trkpt>
      <trkpt lat="42.119818" lon="2.545734">
        <ele>863.695</ele>
        <time>2021-05-27T11:45:35Z</time>
      </trkpt>
      <trkpt lat="42.119838" lon="2.545721">
        <ele>863.762</ele>
        <time>2021-05-27T11:45:37Z</time>
      </trkpt>
      <trkpt lat="42.119861" lon="2.545713">
        <ele>863.970</ele>
        <time>2021-05-27T11:45:39Z</time>
      </trkpt>
      <trkpt lat="42.119882" lon="2.545706">
        <ele>864.170</ele>
        <time>2021-05-27T11:45:41Z</time>
      </trkpt>
      <trkpt lat="42.119900" lon="2.545695">
        <ele>864.227</ele>
        <time>2021-05-27T11:45:43Z</time>
      </trkpt>
      <trkpt lat="42.119921" lon="2.545681">
        <ele>864.422</ele>
        <time>2021-05-27T11:45:45Z</time>
      </trkpt>
      <trkpt lat="42.119935" lon="2.545664">
        <ele>864.585</ele>
        <time>2021-05-27T11:45:47Z</time>
      </trkpt>
      <trkpt lat="42.119953" lon="2.545648">
        <ele>864.751</ele>
        <time>2021-05-27T11:45:50Z</time>
      </trkpt>
      <trkpt lat="42.119973" lon="2.545634">
        <ele>864.924</ele>
        <time>2021-05-27T11:45:51Z</time>
      </trkpt>
      <trkpt lat="42.120000" lon="2.545621">
        <ele>865.204</ele>
        <time>2021-05-27T11:45:53Z</time>
      </trkpt>
      <trkpt lat="42.120021" lon="2.545609">
        <ele>865.314</ele>
        <time>2021-05-27T11:45:55Z</time>
      </trkpt>
      <trkpt lat="42.120042" lon="2.545598">
        <ele>865.508</ele>
        <time>2021-05-27T11:45:57Z</time>
      </trkpt>
      <trkpt lat="42.120067" lon="2.545584">
        <ele>865.629</ele>
        <time>2021-05-27T11:45:59Z</time>
      </trkpt>
      <trkpt lat="42.120088" lon="2.545572">
        <ele>865.756</ele>
        <time>2021-05-27T11:46:01Z</time>
      </trkpt>
      <trkpt lat="42.120115" lon="2.545559">
        <ele>865.844</ele>
        <time>2021-05-27T11:46:03Z</time>
      </trkpt>
      <trkpt lat="42.120138" lon="2.545544">
        <ele>865.754</ele>
        <time>2021-05-27T11:46:05Z</time>
      </trkpt>
      <trkpt lat="42.120161" lon="2.545526">
        <ele>865.681</ele>
        <time>2021-05-27T11:46:07Z</time>
      </trkpt>
      <trkpt lat="42.120179" lon="2.545507">
        <ele>865.486</ele>
        <time>2021-05-27T11:46:09Z</time>
      </trkpt>
      <trkpt lat="42.120197" lon="2.545503">
        <ele>865.529</ele>
        <time>2021-05-27T11:46:11Z</time>
      </trkpt>
      <trkpt lat="42.120218" lon="2.545508">
        <ele>865.895</ele>
        <time>2021-05-27T11:46:13Z</time>
      </trkpt>
      <trkpt lat="42.120234" lon="2.545528">
        <ele>866.391</ele>
        <time>2021-05-27T11:46:16Z</time>
      </trkpt>
      <trkpt lat="42.120247" lon="2.545553">
        <ele>866.781</ele>
        <time>2021-05-27T11:46:18Z</time>
      </trkpt>
      <trkpt lat="42.120253" lon="2.545584">
        <ele>866.919</ele>
        <time>2021-05-27T11:46:21Z</time>
      </trkpt>
      <trkpt lat="42.120260" lon="2.545608">
        <ele>867.108</ele>
        <time>2021-05-27T11:46:24Z</time>
      </trkpt>
      <trkpt lat="42.120267" lon="2.545644">
        <ele>867.276</ele>
        <time>2021-05-27T11:46:27Z</time>
      </trkpt>
      <trkpt lat="42.120276" lon="2.545674">
        <ele>867.493</ele>
        <time>2021-05-27T11:46:29Z</time>
      </trkpt>
      <trkpt lat="42.120294" lon="2.545697">
        <ele>867.221</ele>
        <time>2021-05-27T11:46:31Z</time>
      </trkpt>
      <trkpt lat="42.120313" lon="2.545705">
        <ele>866.911</ele>
        <time>2021-05-27T11:46:33Z</time>
      </trkpt>
      <trkpt lat="42.120336" lon="2.545704">
        <ele>866.578</ele>
        <time>2021-05-27T11:46:35Z</time>
      </trkpt>
      <trkpt lat="42.120354" lon="2.545700">
        <ele>866.213</ele>
        <time>2021-05-27T11:46:37Z</time>
      </trkpt>
      <trkpt lat="42.120377" lon="2.545695">
        <ele>865.726</ele>
        <time>2021-05-27T11:46:40Z</time>
      </trkpt>
      <trkpt lat="42.120399" lon="2.545691">
        <ele>865.322</ele>
        <time>2021-05-27T11:46:42Z</time>
      </trkpt>
      <trkpt lat="42.120420" lon="2.545693">
        <ele>864.979</ele>
        <time>2021-05-27T11:46:50Z</time>
      </trkpt>
      <trkpt lat="42.120438" lon="2.545686">
        <ele>864.505</ele>
        <time>2021-05-27T11:47:02Z</time>
      </trkpt>
      <trkpt lat="42.120459" lon="2.545679">
        <ele>864.025</ele>
        <time>2021-05-27T11:47:07Z</time>
      </trkpt>
      <trkpt lat="42.120479" lon="2.545674">
        <ele>863.608</ele>
        <time>2021-05-27T11:47:11Z</time>
      </trkpt>
      <trkpt lat="42.120498" lon="2.545674">
        <ele>863.254</ele>
        <time>2021-05-27T11:47:13Z</time>
      </trkpt>
      <trkpt lat="42.120518" lon="2.545679">
        <ele>862.921</ele>
        <time>2021-05-27T11:47:15Z</time>
      </trkpt>
      <trkpt lat="42.120541" lon="2.545689">
        <ele>862.729</ele>
        <time>2021-05-27T11:47:17Z</time>
      </trkpt>
      <trkpt lat="42.120567" lon="2.545692">
        <ele>862.119</ele>
        <time>2021-05-27T11:47:19Z</time>
      </trkpt>
      <trkpt lat="42.120589" lon="2.545690">
        <ele>861.426</ele>
        <time>2021-05-27T11:47:21Z</time>
      </trkpt>
      <trkpt lat="42.120610" lon="2.545690">
        <ele>860.841</ele>
        <time>2021-05-27T11:47:23Z</time>
      </trkpt>
      <trkpt lat="42.120630" lon="2.545700">
        <ele>860.384</ele>
        <time>2021-05-27T11:47:25Z</time>
      </trkpt>
      <trkpt lat="42.120654" lon="2.545716">
        <ele>859.990</ele>
        <time>2021-05-27T11:47:28Z</time>
      </trkpt>
      <trkpt lat="42.120673" lon="2.545734">
        <ele>859.775</ele>
        <time>2021-05-27T11:47:35Z</time>
      </trkpt>
      <trkpt lat="42.120685" lon="2.545758">
        <ele>859.828</ele>
        <time>2021-05-27T11:47:38Z</time>
      </trkpt>
      <trkpt lat="42.120700" lon="2.545776">
        <ele>859.720</ele>
        <time>2021-05-27T11:47:40Z</time>
      </trkpt>
      <trkpt lat="42.120726" lon="2.545798">
        <ele>859.408</ele>
        <time>2021-05-27T11:47:44Z</time>
      </trkpt>
      <trkpt lat="42.120731" lon="2.545824">
        <ele>859.844</ele>
        <time>2021-05-27T11:47:47Z</time>
      </trkpt>
      <trkpt lat="42.120754" lon="2.545840">
        <ele>859.311</ele>
        <time>2021-05-27T11:47:50Z</time>
      </trkpt>
      <trkpt lat="42.120775" lon="2.545863">
        <ele>858.979</ele>
        <time>2021-05-27T11:47:53Z</time>
      </trkpt>
      <trkpt lat="42.120791" lon="2.545885">
        <ele>858.669</ele>
        <time>2021-05-27T11:47:55Z</time>
      </trkpt>
      <trkpt lat="42.120794" lon="2.545914">
        <ele>858.736</ele>
        <time>2021-05-27T11:47:58Z</time>
      </trkpt>
      <trkpt lat="42.120783" lon="2.545941">
        <ele>859.251</ele>
        <time>2021-05-27T11:48:01Z</time>
      </trkpt>
      <trkpt lat="42.120786" lon="2.545969">
        <ele>859.324</ele>
        <time>2021-05-27T11:48:03Z</time>
      </trkpt>
      <trkpt lat="42.120796" lon="2.545996">
        <ele>859.220</ele>
        <time>2021-05-27T11:48:05Z</time>
      </trkpt>
      <trkpt lat="42.120824" lon="2.546098">
        <ele>859.275</ele>
        <time>2021-05-27T11:48:10Z</time>
      </trkpt>
      <trkpt lat="42.120827" lon="2.546142">
        <ele>858.828</ele>
        <time>2021-05-27T11:48:12Z</time>
      </trkpt>
      <trkpt lat="42.120868" lon="2.546245">
        <ele>856.920</ele>
        <time>2021-05-27T11:48:17Z</time>
      </trkpt>
      <trkpt lat="42.120881" lon="2.546264">
        <ele>856.508</ele>
        <time>2021-05-27T11:48:18Z</time>
      </trkpt>
      <trkpt lat="42.120899" lon="2.546297">
        <ele>856.044</ele>
        <time>2021-05-27T11:48:20Z</time>
      </trkpt>
      <trkpt lat="42.120915" lon="2.546323">
        <ele>855.651</ele>
        <time>2021-05-27T11:48:22Z</time>
      </trkpt>
      <trkpt lat="42.120932" lon="2.546342">
        <ele>855.279</ele>
        <time>2021-05-27T11:48:24Z</time>
      </trkpt>
      <trkpt lat="42.120948" lon="2.546358">
        <ele>854.929</ele>
        <time>2021-05-27T11:48:26Z</time>
      </trkpt>
      <trkpt lat="42.120961" lon="2.546377">
        <ele>854.726</ele>
        <time>2021-05-27T11:48:28Z</time>
      </trkpt>
      <trkpt lat="42.120969" lon="2.546407">
        <ele>854.391</ele>
        <time>2021-05-27T11:48:31Z</time>
      </trkpt>
      <trkpt lat="42.120984" lon="2.546438">
        <ele>853.774</ele>
        <time>2021-05-27T11:48:34Z</time>
      </trkpt>
      <trkpt lat="42.121001" lon="2.546456">
        <ele>853.430</ele>
        <time>2021-05-27T11:48:41Z</time>
      </trkpt>
      <trkpt lat="42.121019" lon="2.546465">
        <ele>853.253</ele>
        <time>2021-05-27T11:48:44Z</time>
      </trkpt>
      <trkpt lat="42.121041" lon="2.546455">
        <ele>853.204</ele>
        <time>2021-05-27T11:48:53Z</time>
      </trkpt>
      <trkpt lat="42.121065" lon="2.546430">
        <ele>853.214</ele>
        <time>2021-05-27T11:48:55Z</time>
      </trkpt>
      <trkpt lat="42.121081" lon="2.546418">
        <ele>853.208</ele>
        <time>2021-05-27T11:48:56Z</time>
      </trkpt>
      <trkpt lat="42.121104" lon="2.546394">
        <ele>853.182</ele>
        <time>2021-05-27T11:48:58Z</time>
      </trkpt>
      <trkpt lat="42.121122" lon="2.546367">
        <ele>852.969</ele>
        <time>2021-05-27T11:49:00Z</time>
      </trkpt>
      <trkpt lat="42.121135" lon="2.546348">
        <ele>852.827</ele>
        <time>2021-05-27T11:49:02Z</time>
      </trkpt>
      <trkpt lat="42.121155" lon="2.546335">
        <ele>852.727</ele>
        <time>2021-05-27T11:49:04Z</time>
      </trkpt>
      <trkpt lat="42.121175" lon="2.546321">
        <ele>852.634</ele>
        <time>2021-05-27T11:49:06Z</time>
      </trkpt>
      <trkpt lat="42.121200" lon="2.546310">
        <ele>852.519</ele>
        <time>2021-05-27T11:49:08Z</time>
      </trkpt>
      <trkpt lat="42.121220" lon="2.546293">
        <ele>852.482</ele>
        <time>2021-05-27T11:49:11Z</time>
      </trkpt>
      <trkpt lat="42.121232" lon="2.546268">
        <ele>852.228</ele>
        <time>2021-05-27T11:49:13Z</time>
      </trkpt>
      <trkpt lat="42.121251" lon="2.546234">
        <ele>851.997</ele>
        <time>2021-05-27T11:49:15Z</time>
      </trkpt>
      <trkpt lat="42.121267" lon="2.546224">
        <ele>851.723</ele>
        <time>2021-05-27T11:49:16Z</time>
      </trkpt>
      <trkpt lat="42.121287" lon="2.546205">
        <ele>851.525</ele>
        <time>2021-05-27T11:49:18Z</time>
      </trkpt>
      <trkpt lat="42.121302" lon="2.546186">
        <ele>851.308</ele>
        <time>2021-05-27T11:49:20Z</time>
      </trkpt>
      <trkpt lat="42.121320" lon="2.546163">
        <ele>851.066</ele>
        <time>2021-05-27T11:49:22Z</time>
      </trkpt>
      <trkpt lat="42.121341" lon="2.546144">
        <ele>850.743</ele>
        <time>2021-05-27T11:49:24Z</time>
      </trkpt>
      <trkpt lat="42.121365" lon="2.546131">
        <ele>850.441</ele>
        <time>2021-05-27T11:49:26Z</time>
      </trkpt>
      <trkpt lat="42.121394" lon="2.546120">
        <ele>850.121</ele>
        <time>2021-05-27T11:49:28Z</time>
      </trkpt>
      <trkpt lat="42.121415" lon="2.546105">
        <ele>849.958</ele>
        <time>2021-05-27T11:49:30Z</time>
      </trkpt>
      <trkpt lat="42.121436" lon="2.546089">
        <ele>849.783</ele>
        <time>2021-05-27T11:49:32Z</time>
      </trkpt>
      <trkpt lat="42.121455" lon="2.546070">
        <ele>849.416</ele>
        <time>2021-05-27T11:49:34Z</time>
      </trkpt>
      <trkpt lat="42.121477" lon="2.546055">
        <ele>849.372</ele>
        <time>2021-05-27T11:49:36Z</time>
      </trkpt>
      <trkpt lat="42.121490" lon="2.546035">
        <ele>849.017</ele>
        <time>2021-05-27T11:49:38Z</time>
      </trkpt>
      <trkpt lat="42.121507" lon="2.546014">
        <ele>848.887</ele>
        <time>2021-05-27T11:49:40Z</time>
      </trkpt>
      <trkpt lat="42.121527" lon="2.545993">
        <ele>848.515</ele>
        <time>2021-05-27T11:49:42Z</time>
      </trkpt>
      <trkpt lat="42.121539" lon="2.545966">
        <ele>848.208</ele>
        <time>2021-05-27T11:49:44Z</time>
      </trkpt>
      <trkpt lat="42.121549" lon="2.545945">
        <ele>848.038</ele>
        <time>2021-05-27T11:49:46Z</time>
      </trkpt>
      <trkpt lat="42.121567" lon="2.545928">
        <ele>847.815</ele>
        <time>2021-05-27T11:49:48Z</time>
      </trkpt>
      <trkpt lat="42.121584" lon="2.545903">
        <ele>847.543</ele>
        <time>2021-05-27T11:49:51Z</time>
      </trkpt>
      <trkpt lat="42.121601" lon="2.545885">
        <ele>847.473</ele>
        <time>2021-05-27T11:49:53Z</time>
      </trkpt>
      <trkpt lat="42.121692" lon="2.545885">
        <ele>847.150</ele>
        <time>2021-05-27T11:50:19Z</time>
      </trkpt>
      <trkpt lat="42.121759" lon="2.545788">
        <ele>844.345</ele>
        <time>2021-05-27T11:50:57Z</time>
      </trkpt>
      <trkpt lat="42.121849" lon="2.545820">
        <ele>842.848</ele>
        <time>2021-05-27T11:51:05Z</time>
      </trkpt>
      <trkpt lat="42.121922" lon="2.545902">
        <ele>843.414</ele>
        <time>2021-05-27T11:51:13Z</time>
      </trkpt>
      <trkpt lat="42.121999" lon="2.545985">
        <ele>843.567</ele>
        <time>2021-05-27T11:51:20Z</time>
      </trkpt>
      <trkpt lat="42.122080" lon="2.546050">
        <ele>843.081</ele>
        <time>2021-05-27T11:51:27Z</time>
      </trkpt>
      <trkpt lat="42.122170" lon="2.546102">
        <ele>842.219</ele>
        <time>2021-05-27T11:51:36Z</time>
      </trkpt>
      <trkpt lat="42.122265" lon="2.546154">
        <ele>842.308</ele>
        <time>2021-05-27T11:51:44Z</time>
      </trkpt>
      <trkpt lat="42.122360" lon="2.546207">
        <ele>842.853</ele>
        <time>2021-05-27T11:51:52Z</time>
      </trkpt>
      <trkpt lat="42.122451" lon="2.546230">
        <ele>841.820</ele>
        <time>2021-05-27T11:52:06Z</time>
      </trkpt>
      <trkpt lat="42.122560" lon="2.546271">
        <ele>842.218</ele>
        <time>2021-05-27T11:52:13Z</time>
      </trkpt>
      <trkpt lat="42.122659" lon="2.546280">
        <ele>842.388</ele>
        <time>2021-05-27T11:52:21Z</time>
      </trkpt>
      <trkpt lat="42.122766" lon="2.546271">
        <ele>841.855</ele>
        <time>2021-05-27T11:52:30Z</time>
      </trkpt>
      <trkpt lat="42.122866" lon="2.546294">
        <ele>843.070</ele>
        <time>2021-05-27T11:52:38Z</time>
      </trkpt>
      <trkpt lat="42.122954" lon="2.546348">
        <ele>845.393</ele>
        <time>2021-05-27T11:52:47Z</time>
      </trkpt>
      <trkpt lat="42.123051" lon="2.546408">
        <ele>847.899</ele>
        <time>2021-05-27T11:52:56Z</time>
      </trkpt>
      <trkpt lat="42.123139" lon="2.546449">
        <ele>851.035</ele>
        <time>2021-05-27T11:53:01Z</time>
      </trkpt>
      <trkpt lat="42.123222" lon="2.546396">
        <ele>850.386</ele>
        <time>2021-05-27T11:53:09Z</time>
      </trkpt>
      <trkpt lat="42.123305" lon="2.546338">
        <ele>850.214</ele>
        <time>2021-05-27T11:53:15Z</time>
      </trkpt>
      <trkpt lat="42.123376" lon="2.546233">
        <ele>849.808</ele>
        <time>2021-05-27T11:53:23Z</time>
      </trkpt>
      <trkpt lat="42.123422" lon="2.546112">
        <ele>848.580</ele>
        <time>2021-05-27T11:53:28Z</time>
      </trkpt>
      <trkpt lat="42.123497" lon="2.546019">
        <ele>849.177</ele>
        <time>2021-05-27T11:53:35Z</time>
      </trkpt>
      <trkpt lat="42.123568" lon="2.545941">
        <ele>849.645</ele>
        <time>2021-05-27T11:53:41Z</time>
      </trkpt>
      <trkpt lat="42.123630" lon="2.545828">
        <ele>848.995</ele>
        <time>2021-05-27T11:53:49Z</time>
      </trkpt>
      <trkpt lat="42.123682" lon="2.545718">
        <ele>850.242</ele>
        <time>2021-05-27T11:53:58Z</time>
      </trkpt>
      <trkpt lat="42.123745" lon="2.545597">
        <ele>851.817</ele>
        <time>2021-05-27T11:54:08Z</time>
      </trkpt>
      <trkpt lat="42.123792" lon="2.545471">
        <ele>852.950</ele>
        <time>2021-05-27T11:54:18Z</time>
      </trkpt>
      <trkpt lat="42.123870" lon="2.545365">
        <ele>855.916</ele>
        <time>2021-05-27T11:54:24Z</time>
      </trkpt>
      <trkpt lat="42.123915" lon="2.545247">
        <ele>856.894</ele>
        <time>2021-05-27T11:54:35Z</time>
      </trkpt>
      <trkpt lat="42.123984" lon="2.545154">
        <ele>858.557</ele>
        <time>2021-05-27T11:54:43Z</time>
      </trkpt>
      <trkpt lat="42.124011" lon="2.545027">
        <ele>857.822</ele>
        <time>2021-05-27T11:54:52Z</time>
      </trkpt>
      <trkpt lat="42.124016" lon="2.544901">
        <ele>857.808</ele>
        <time>2021-05-27T11:54:59Z</time>
      </trkpt>
      <trkpt lat="42.124064" lon="2.544788">
        <ele>859.686</ele>
        <time>2021-05-27T11:55:07Z</time>
      </trkpt>
      <trkpt lat="42.124089" lon="2.544670">
        <ele>860.623</ele>
        <time>2021-05-27T11:55:14Z</time>
      </trkpt>
      <trkpt lat="42.124090" lon="2.544548">
        <ele>860.981</ele>
        <time>2021-05-27T11:55:23Z</time>
      </trkpt>
      <trkpt lat="42.124104" lon="2.544415">
        <ele>861.731</ele>
        <time>2021-05-27T11:55:30Z</time>
      </trkpt>
      <trkpt lat="42.124137" lon="2.544300">
        <ele>863.758</ele>
        <time>2021-05-27T11:55:37Z</time>
      </trkpt>
      <trkpt lat="42.124151" lon="2.544321">
        <ele>863.933</ele>
        <time>2021-05-27T11:55:45Z</time>
      </trkpt>
      <trkpt lat="42.124219" lon="2.544409">
        <ele>865.396</ele>
        <time>2021-05-27T11:56:01Z</time>
      </trkpt>
      <trkpt lat="42.124292" lon="2.544483">
        <ele>867.462</ele>
        <time>2021-05-27T11:56:10Z</time>
      </trkpt>
      <trkpt lat="42.124344" lon="2.544588">
        <ele>868.726</ele>
        <time>2021-05-27T11:56:18Z</time>
      </trkpt>
      <trkpt lat="42.124415" lon="2.544686">
        <ele>870.447</ele>
        <time>2021-05-27T11:56:29Z</time>
      </trkpt>
      <trkpt lat="42.124478" lon="2.544772">
        <ele>871.811</ele>
        <time>2021-05-27T11:56:37Z</time>
      </trkpt>
      <trkpt lat="42.124540" lon="2.544875">
        <ele>873.008</ele>
        <time>2021-05-27T11:56:45Z</time>
      </trkpt>
      <trkpt lat="42.124614" lon="2.544954">
        <ele>874.389</ele>
        <time>2021-05-27T11:56:56Z</time>
      </trkpt>
      <trkpt lat="42.124672" lon="2.545049">
        <ele>875.856</ele>
        <time>2021-05-27T11:57:08Z</time>
      </trkpt>
      <trkpt lat="42.124755" lon="2.545133">
        <ele>877.834</ele>
        <time>2021-05-27T11:57:19Z</time>
      </trkpt>
      <trkpt lat="42.124844" lon="2.545101">
        <ele>877.354</ele>
        <time>2021-05-27T11:57:26Z</time>
      </trkpt>
      <trkpt lat="42.124934" lon="2.545073">
        <ele>877.081</ele>
        <time>2021-05-27T11:57:35Z</time>
      </trkpt>
      <trkpt lat="42.125028" lon="2.545069">
        <ele>876.536</ele>
        <time>2021-05-27T11:57:41Z</time>
      </trkpt>
      <trkpt lat="42.125118" lon="2.545043">
        <ele>875.049</ele>
        <time>2021-05-27T11:57:48Z</time>
      </trkpt>
      <trkpt lat="42.125214" lon="2.545087">
        <ele>872.735</ele>
        <time>2021-05-27T11:57:57Z</time>
      </trkpt>
      <trkpt lat="42.125307" lon="2.545087">
        <ele>870.728</ele>
        <time>2021-05-27T11:58:03Z</time>
      </trkpt>
      <trkpt lat="42.125402" lon="2.545153">
        <ele>867.189</ele>
        <time>2021-05-27T11:58:15Z</time>
      </trkpt>
      <trkpt lat="42.125494" lon="2.545169">
        <ele>864.517</ele>
        <time>2021-05-27T11:58:23Z</time>
      </trkpt>
      <trkpt lat="42.125598" lon="2.545185">
        <ele>861.908</ele>
        <time>2021-05-27T11:58:29Z</time>
      </trkpt>
      <trkpt lat="42.125690" lon="2.545205">
        <ele>859.839</ele>
        <time>2021-05-27T11:58:35Z</time>
      </trkpt>
      <trkpt lat="42.125787" lon="2.545177">
        <ele>858.366</ele>
        <time>2021-05-27T11:58:40Z</time>
      </trkpt>
      <trkpt lat="42.125883" lon="2.545176">
        <ele>856.714</ele>
        <time>2021-05-27T11:58:46Z</time>
      </trkpt>
      <trkpt lat="42.125905" lon="2.545053">
        <ele>858.444</ele>
        <time>2021-05-27T11:58:53Z</time>
      </trkpt>
      <trkpt lat="42.126002" lon="2.545072">
        <ele>856.831</ele>
        <time>2021-05-27T11:59:08Z</time>
      </trkpt>
      <trkpt lat="42.126094" lon="2.545126">
        <ele>854.566</ele>
        <time>2021-05-27T11:59:13Z</time>
      </trkpt>
      <trkpt lat="42.126190" lon="2.545149">
        <ele>852.129</ele>
        <time>2021-05-27T11:59:20Z</time>
      </trkpt>
      <trkpt lat="42.126285" lon="2.545173">
        <ele>849.845</ele>
        <time>2021-05-27T11:59:25Z</time>
      </trkpt>
      <trkpt lat="42.126356" lon="2.545075">
        <ele>849.339</ele>
        <time>2021-05-27T11:59:30Z</time>
      </trkpt>
      <trkpt lat="42.126417" lon="2.544975">
        <ele>849.301</ele>
        <time>2021-05-27T11:59:34Z</time>
      </trkpt>
      <trkpt lat="42.126506" lon="2.544937">
        <ele>848.321</ele>
        <time>2021-05-27T11:59:38Z</time>
      </trkpt>
      <trkpt lat="42.126604" lon="2.544951">
        <ele>844.908</ele>
        <time>2021-05-27T11:59:42Z</time>
      </trkpt>
      <trkpt lat="42.126694" lon="2.544932">
        <ele>843.450</ele>
        <time>2021-05-27T11:59:47Z</time>
      </trkpt>
      <trkpt lat="42.126789" lon="2.544966">
        <ele>840.427</ele>
        <time>2021-05-27T11:59:52Z</time>
      </trkpt>
      <trkpt lat="42.126894" lon="2.544953">
        <ele>839.115</ele>
        <time>2021-05-27T11:59:58Z</time>
      </trkpt>
      <trkpt lat="42.126983" lon="2.544878">
        <ele>839.285</ele>
        <time>2021-05-27T12:00:01Z</time>
      </trkpt>
      <trkpt lat="42.127053" lon="2.544787">
        <ele>839.312</ele>
        <time>2021-05-27T12:00:04Z</time>
      </trkpt>
      <trkpt lat="42.127141" lon="2.544694">
        <ele>838.257</ele>
        <time>2021-05-27T12:00:07Z</time>
      </trkpt>
      <trkpt lat="42.127233" lon="2.544636">
        <ele>835.920</ele>
        <time>2021-05-27T12:00:11Z</time>
      </trkpt>
      <trkpt lat="42.127202" lon="2.544506">
        <ele>839.156</ele>
        <time>2021-05-27T12:00:15Z</time>
      </trkpt>
      <trkpt lat="42.127221" lon="2.544360">
        <ele>841.558</ele>
        <time>2021-05-27T12:00:20Z</time>
      </trkpt>
      <trkpt lat="42.127297" lon="2.544293">
        <ele>839.152</ele>
        <time>2021-05-27T12:00:24Z</time>
      </trkpt>
      <trkpt lat="42.127370" lon="2.544191">
        <ele>836.117</ele>
        <time>2021-05-27T12:00:27Z</time>
      </trkpt>
      <trkpt lat="42.127452" lon="2.544128">
        <ele>831.408</ele>
        <time>2021-05-27T12:00:30Z</time>
      </trkpt>
      <trkpt lat="42.127523" lon="2.544044">
        <ele>829.072</ele>
        <time>2021-05-27T12:00:34Z</time>
      </trkpt>
      <trkpt lat="42.127579" lon="2.543938">
        <ele>829.569</ele>
        <time>2021-05-27T12:00:39Z</time>
      </trkpt>
      <trkpt lat="42.127620" lon="2.543811">
        <ele>832.067</ele>
        <time>2021-05-27T12:00:46Z</time>
      </trkpt>
      <trkpt lat="42.127692" lon="2.543731">
        <ele>831.387</ele>
        <time>2021-05-27T12:00:51Z</time>
      </trkpt>
      <trkpt lat="42.127782" lon="2.543742">
        <ele>826.624</ele>
        <time>2021-05-27T12:01:00Z</time>
      </trkpt>
      <trkpt lat="42.127742" lon="2.543852">
        <ele>825.419</ele>
        <time>2021-05-27T12:01:22Z</time>
      </trkpt>
      <trkpt lat="42.127807" lon="2.543908">
        <ele>821.152</ele>
        <time>2021-05-27T12:01:48Z</time>
      </trkpt>
      <trkpt lat="42.127737" lon="2.543937">
        <ele>823.018</ele>
        <time>2021-05-27T12:02:04Z</time>
      </trkpt>
      <trkpt lat="42.127721" lon="2.543949">
        <ele>823.213</ele>
        <time>2021-05-27T12:02:15Z</time>
      </trkpt>
      <trkpt lat="42.127706" lon="2.543931">
        <ele>824.443</ele>
        <time>2021-05-27T12:02:23Z</time>
      </trkpt>
      <trkpt lat="42.127724" lon="2.543953">
        <ele>823.007</ele>
        <time>2021-05-27T12:06:17Z</time>
      </trkpt>
      <trkpt lat="42.127743" lon="2.543948">
        <ele>822.308</ele>
        <time>2021-05-27T12:15:10Z</time>
      </trkpt>
      <trkpt lat="42.127824" lon="2.543891">
        <ele>821.168</ele>
        <time>2021-05-27T12:15:39Z</time>
      </trkpt>
      <trkpt lat="42.127925" lon="2.543869">
        <ele>817.875</ele>
        <time>2021-05-27T12:16:11Z</time>
      </trkpt>
      <trkpt lat="42.128025" lon="2.543835">
        <ele>815.333</ele>
        <time>2021-05-27T12:16:19Z</time>
      </trkpt>
      <trkpt lat="42.128115" lon="2.543780">
        <ele>813.483</ele>
        <time>2021-05-27T12:16:25Z</time>
      </trkpt>
      <trkpt lat="42.128194" lon="2.543713">
        <ele>811.920</ele>
        <time>2021-05-27T12:16:30Z</time>
      </trkpt>
      <trkpt lat="42.128287" lon="2.543661">
        <ele>808.835</ele>
        <time>2021-05-27T12:16:36Z</time>
      </trkpt>
      <trkpt lat="42.128377" lon="2.543625">
        <ele>805.688</ele>
        <time>2021-05-27T12:16:41Z</time>
      </trkpt>
      <trkpt lat="42.128479" lon="2.543589">
        <ele>803.094</ele>
        <time>2021-05-27T12:16:48Z</time>
      </trkpt>
      <trkpt lat="42.128581" lon="2.543540">
        <ele>801.691</ele>
        <time>2021-05-27T12:16:53Z</time>
      </trkpt>
      <trkpt lat="42.128681" lon="2.543513">
        <ele>800.281</ele>
        <time>2021-05-27T12:16:58Z</time>
      </trkpt>
      <trkpt lat="42.128779" lon="2.543464">
        <ele>800.419</ele>
        <time>2021-05-27T12:17:03Z</time>
      </trkpt>
      <trkpt lat="42.128867" lon="2.543434">
        <ele>799.508</ele>
        <time>2021-05-27T12:17:07Z</time>
      </trkpt>
      <trkpt lat="42.128972" lon="2.543412">
        <ele>798.456</ele>
        <time>2021-05-27T12:17:11Z</time>
      </trkpt>
      <trkpt lat="42.129068" lon="2.543401">
        <ele>797.093</ele>
        <time>2021-05-27T12:17:16Z</time>
      </trkpt>
      <trkpt lat="42.129165" lon="2.543376">
        <ele>796.271</ele>
        <time>2021-05-27T12:17:21Z</time>
      </trkpt>
      <trkpt lat="42.129248" lon="2.543323">
        <ele>795.311</ele>
        <time>2021-05-27T12:17:25Z</time>
      </trkpt>
      <trkpt lat="42.129354" lon="2.543270">
        <ele>793.678</ele>
        <time>2021-05-27T12:17:30Z</time>
      </trkpt>
      <trkpt lat="42.129461" lon="2.543269">
        <ele>789.433</ele>
        <time>2021-05-27T12:17:35Z</time>
      </trkpt>
      <trkpt lat="42.129569" lon="2.543246">
        <ele>786.996</ele>
        <time>2021-05-27T12:17:40Z</time>
      </trkpt>
      <trkpt lat="42.129675" lon="2.543212">
        <ele>785.182</ele>
        <time>2021-05-27T12:17:45Z</time>
      </trkpt>
      <trkpt lat="42.129773" lon="2.543223">
        <ele>781.154</ele>
        <time>2021-05-27T12:17:50Z</time>
      </trkpt>
      <trkpt lat="42.129872" lon="2.543198">
        <ele>778.956</ele>
        <time>2021-05-27T12:17:56Z</time>
      </trkpt>
      <trkpt lat="42.129977" lon="2.543193">
        <ele>775.411</ele>
        <time>2021-05-27T12:18:01Z</time>
      </trkpt>
      <trkpt lat="42.130071" lon="2.543163">
        <ele>774.108</ele>
        <time>2021-05-27T12:18:06Z</time>
      </trkpt>
      <trkpt lat="42.130166" lon="2.543126">
        <ele>773.122</ele>
        <time>2021-05-27T12:18:11Z</time>
      </trkpt>
      <trkpt lat="42.130247" lon="2.543039">
        <ele>774.869</ele>
        <time>2021-05-27T12:18:16Z</time>
      </trkpt>
      <trkpt lat="42.130341" lon="2.542995">
        <ele>774.127</ele>
        <time>2021-05-27T12:18:21Z</time>
      </trkpt>
      <trkpt lat="42.130415" lon="2.543069">
        <ele>768.497</ele>
        <time>2021-05-27T12:18:27Z</time>
      </trkpt>
      <trkpt lat="42.130326" lon="2.543096">
        <ele>769.714</ele>
        <time>2021-05-27T12:18:34Z</time>
      </trkpt>
      <trkpt lat="42.130231" lon="2.543152">
        <ele>769.929</ele>
        <time>2021-05-27T12:18:41Z</time>
      </trkpt>
      <trkpt lat="42.130143" lon="2.543193">
        <ele>770.532</ele>
        <time>2021-05-27T12:18:47Z</time>
      </trkpt>
      <trkpt lat="42.130053" lon="2.543262">
        <ele>769.438</ele>
        <time>2021-05-27T12:18:52Z</time>
      </trkpt>
      <trkpt lat="42.129949" lon="2.543328">
        <ele>769.192</ele>
        <time>2021-05-27T12:18:56Z</time>
      </trkpt>
      <trkpt lat="42.129908" lon="2.543456">
        <ele>766.073</ele>
        <time>2021-05-27T12:19:01Z</time>
      </trkpt>
      <trkpt lat="42.129969" lon="2.543550">
        <ele>760.920</ele>
        <time>2021-05-27T12:19:05Z</time>
      </trkpt>
      <trkpt lat="42.130063" lon="2.543570">
        <ele>757.608</ele>
        <time>2021-05-27T12:19:09Z</time>
      </trkpt>
      <trkpt lat="42.130166" lon="2.543542">
        <ele>755.616</ele>
        <time>2021-05-27T12:19:16Z</time>
      </trkpt>
      <trkpt lat="42.130267" lon="2.543505">
        <ele>754.183</ele>
        <time>2021-05-27T12:19:23Z</time>
      </trkpt>
      <trkpt lat="42.130361" lon="2.543462">
        <ele>753.271</ele>
        <time>2021-05-27T12:19:28Z</time>
      </trkpt>
      <trkpt lat="42.130469" lon="2.543437">
        <ele>751.321</ele>
        <time>2021-05-27T12:19:33Z</time>
      </trkpt>
      <trkpt lat="42.130558" lon="2.543464">
        <ele>748.288</ele>
        <time>2021-05-27T12:19:37Z</time>
      </trkpt>
      <trkpt lat="42.130656" lon="2.543510">
        <ele>744.453</ele>
        <time>2021-05-27T12:19:42Z</time>
      </trkpt>
      <trkpt lat="42.130750" lon="2.543466">
        <ele>743.336</ele>
        <time>2021-05-27T12:19:47Z</time>
      </trkpt>
      <trkpt lat="42.130843" lon="2.543441">
        <ele>741.882</ele>
        <time>2021-05-27T12:19:51Z</time>
      </trkpt>
      <trkpt lat="42.130943" lon="2.543467">
        <ele>739.646</ele>
        <time>2021-05-27T12:19:56Z</time>
      </trkpt>
      <trkpt lat="42.131044" lon="2.543465">
        <ele>738.288</ele>
        <time>2021-05-27T12:20:01Z</time>
      </trkpt>
      <trkpt lat="42.131152" lon="2.543465">
        <ele>736.416</ele>
        <time>2021-05-27T12:20:07Z</time>
      </trkpt>
      <trkpt lat="42.131242" lon="2.543471">
        <ele>734.408</ele>
        <time>2021-05-27T12:20:12Z</time>
      </trkpt>
      <trkpt lat="42.131333" lon="2.543507">
        <ele>731.551</ele>
        <time>2021-05-27T12:20:17Z</time>
      </trkpt>
      <trkpt lat="42.131424" lon="2.543546">
        <ele>729.688</ele>
        <time>2021-05-27T12:20:22Z</time>
      </trkpt>
      <trkpt lat="42.131507" lon="2.543631">
        <ele>728.066</ele>
        <time>2021-05-27T12:20:27Z</time>
      </trkpt>
      <trkpt lat="42.131590" lon="2.543713">
        <ele>726.336</ele>
        <time>2021-05-27T12:20:32Z</time>
      </trkpt>
      <trkpt lat="42.131657" lon="2.543808">
        <ele>723.813</ele>
        <time>2021-05-27T12:20:37Z</time>
      </trkpt>
      <trkpt lat="42.131741" lon="2.543875">
        <ele>722.018</ele>
        <time>2021-05-27T12:20:41Z</time>
      </trkpt>
      <trkpt lat="42.131843" lon="2.543934">
        <ele>720.371</ele>
        <time>2021-05-27T12:20:46Z</time>
      </trkpt>
      <trkpt lat="42.131934" lon="2.543949">
        <ele>720.397</ele>
        <time>2021-05-27T12:20:50Z</time>
      </trkpt>
      <trkpt lat="42.132010" lon="2.544024">
        <ele>717.521</ele>
        <time>2021-05-27T12:20:55Z</time>
      </trkpt>
      <trkpt lat="42.132109" lon="2.544094">
        <ele>715.541</ele>
        <time>2021-05-27T12:20:59Z</time>
      </trkpt>
      <trkpt lat="42.132206" lon="2.544169">
        <ele>713.705</ele>
        <time>2021-05-27T12:21:03Z</time>
      </trkpt>
      <trkpt lat="42.132303" lon="2.544162">
        <ele>713.508</ele>
        <time>2021-05-27T12:21:07Z</time>
      </trkpt>
      <trkpt lat="42.132394" lon="2.544118">
        <ele>713.839</ele>
        <time>2021-05-27T12:21:10Z</time>
      </trkpt>
      <trkpt lat="42.132478" lon="2.544044">
        <ele>714.146</ele>
        <time>2021-05-27T12:21:15Z</time>
      </trkpt>
      <trkpt lat="42.132547" lon="2.543948">
        <ele>712.644</ele>
        <time>2021-05-27T12:21:20Z</time>
      </trkpt>
      <trkpt lat="42.132599" lon="2.543847">
        <ele>711.084</ele>
        <time>2021-05-27T12:21:22Z</time>
      </trkpt>
      <trkpt lat="42.132660" lon="2.543723">
        <ele>709.971</ele>
        <time>2021-05-27T12:21:26Z</time>
      </trkpt>
      <trkpt lat="42.132711" lon="2.543592">
        <ele>709.576</ele>
        <time>2021-05-27T12:21:31Z</time>
      </trkpt>
      <trkpt lat="42.132780" lon="2.543479">
        <ele>706.829</ele>
        <time>2021-05-27T12:21:36Z</time>
      </trkpt>
      <trkpt lat="42.132827" lon="2.543352">
        <ele>704.995</ele>
        <time>2021-05-27T12:21:42Z</time>
      </trkpt>
      <trkpt lat="42.132866" lon="2.543224">
        <ele>704.271</ele>
        <time>2021-05-27T12:21:48Z</time>
      </trkpt>
      <trkpt lat="42.132935" lon="2.543140">
        <ele>701.641</ele>
        <time>2021-05-27T12:21:53Z</time>
      </trkpt>
      <trkpt lat="42.133002" lon="2.543058">
        <ele>699.715</ele>
        <time>2021-05-27T12:21:58Z</time>
      </trkpt>
      <trkpt lat="42.133075" lon="2.542972">
        <ele>698.108</ele>
        <time>2021-05-27T12:22:04Z</time>
      </trkpt>
      <trkpt lat="42.133144" lon="2.542864">
        <ele>697.774</ele>
        <time>2021-05-27T12:22:08Z</time>
      </trkpt>
      <trkpt lat="42.133179" lon="2.542737">
        <ele>700.131</ele>
        <time>2021-05-27T12:22:14Z</time>
      </trkpt>
      <trkpt lat="42.133262" lon="2.542682">
        <ele>698.959</ele>
        <time>2021-05-27T12:22:20Z</time>
      </trkpt>
      <trkpt lat="42.133355" lon="2.542653">
        <ele>696.999</ele>
        <time>2021-05-27T12:22:25Z</time>
      </trkpt>
      <trkpt lat="42.133459" lon="2.542643">
        <ele>695.176</ele>
        <time>2021-05-27T12:22:30Z</time>
      </trkpt>
      <trkpt lat="42.133553" lon="2.542607">
        <ele>694.671</ele>
        <time>2021-05-27T12:22:34Z</time>
      </trkpt>
      <trkpt lat="42.133638" lon="2.542547">
        <ele>695.554</ele>
        <time>2021-05-27T12:22:37Z</time>
      </trkpt>
      <trkpt lat="42.133727" lon="2.542509">
        <ele>695.690</ele>
        <time>2021-05-27T12:22:41Z</time>
      </trkpt>
      <trkpt lat="42.133812" lon="2.542451">
        <ele>695.448</ele>
        <time>2021-05-27T12:22:44Z</time>
      </trkpt>
      <trkpt lat="42.133903" lon="2.542401">
        <ele>694.661</ele>
        <time>2021-05-27T12:22:49Z</time>
      </trkpt>
      <trkpt lat="42.133940" lon="2.542264">
        <ele>696.417</ele>
        <time>2021-05-27T12:22:54Z</time>
      </trkpt>
      <trkpt lat="42.133977" lon="2.542153">
        <ele>696.308</ele>
        <time>2021-05-27T12:22:58Z</time>
      </trkpt>
      <trkpt lat="42.134041" lon="2.542029">
        <ele>694.911</ele>
        <time>2021-05-27T12:23:03Z</time>
      </trkpt>
      <trkpt lat="42.134100" lon="2.541922">
        <ele>693.048</ele>
        <time>2021-05-27T12:23:08Z</time>
      </trkpt>
      <trkpt lat="42.134206" lon="2.541904">
        <ele>690.796</ele>
        <time>2021-05-27T12:23:14Z</time>
      </trkpt>
      <trkpt lat="42.134298" lon="2.541951">
        <ele>690.126</ele>
        <time>2021-05-27T12:23:19Z</time>
      </trkpt>
      <trkpt lat="42.134396" lon="2.541925">
        <ele>688.553</ele>
        <time>2021-05-27T12:23:23Z</time>
      </trkpt>
      <trkpt lat="42.134499" lon="2.541916">
        <ele>687.068</ele>
        <time>2021-05-27T12:23:28Z</time>
      </trkpt>
      <trkpt lat="42.134604" lon="2.541950">
        <ele>685.611</ele>
        <time>2021-05-27T12:23:33Z</time>
      </trkpt>
      <trkpt lat="42.134671" lon="2.542031">
        <ele>683.517</ele>
        <time>2021-05-27T12:23:38Z</time>
      </trkpt>
      <trkpt lat="42.134774" lon="2.542074">
        <ele>681.721</ele>
        <time>2021-05-27T12:23:45Z</time>
      </trkpt>
      <trkpt lat="42.134867" lon="2.542080">
        <ele>680.741</ele>
        <time>2021-05-27T12:23:49Z</time>
      </trkpt>
      <trkpt lat="42.134969" lon="2.542090">
        <ele>679.705</ele>
        <time>2021-05-27T12:23:53Z</time>
      </trkpt>
      <trkpt lat="42.135081" lon="2.542094">
        <ele>678.208</ele>
        <time>2021-05-27T12:23:58Z</time>
      </trkpt>
      <trkpt lat="42.135182" lon="2.542075">
        <ele>677.089</ele>
        <time>2021-05-27T12:24:02Z</time>
      </trkpt>
      <trkpt lat="42.135275" lon="2.542025">
        <ele>676.266</ele>
        <time>2021-05-27T12:24:07Z</time>
      </trkpt>
      <trkpt lat="42.135364" lon="2.541988">
        <ele>676.534</ele>
        <time>2021-05-27T12:24:11Z</time>
      </trkpt>
      <trkpt lat="42.135432" lon="2.541885">
        <ele>676.514</ele>
        <time>2021-05-27T12:24:17Z</time>
      </trkpt>
      <trkpt lat="42.135462" lon="2.541767">
        <ele>675.341</ele>
        <time>2021-05-27T12:24:22Z</time>
      </trkpt>
      <trkpt lat="42.135503" lon="2.541631">
        <ele>673.846</ele>
        <time>2021-05-27T12:24:27Z</time>
      </trkpt>
      <trkpt lat="42.135567" lon="2.541531">
        <ele>672.759</ele>
        <time>2021-05-27T12:24:32Z</time>
      </trkpt>
      <trkpt lat="42.135634" lon="2.541431">
        <ele>672.625</ele>
        <time>2021-05-27T12:24:38Z</time>
      </trkpt>
      <trkpt lat="42.135687" lon="2.541314">
        <ele>671.778</ele>
        <time>2021-05-27T12:24:44Z</time>
      </trkpt>
      <trkpt lat="42.135761" lon="2.541227">
        <ele>671.233</ele>
        <time>2021-05-27T12:24:49Z</time>
      </trkpt>
      <trkpt lat="42.135882" lon="2.541205">
        <ele>671.126</ele>
        <time>2021-05-27T12:24:54Z</time>
      </trkpt>
      <trkpt lat="42.135970" lon="2.541137">
        <ele>668.908</ele>
        <time>2021-05-27T12:24:57Z</time>
      </trkpt>
      <trkpt lat="42.136056" lon="2.541059">
        <ele>666.584</ele>
        <time>2021-05-27T12:25:02Z</time>
      </trkpt>
      <trkpt lat="42.136166" lon="2.541068">
        <ele>664.441</ele>
        <time>2021-05-27T12:25:08Z</time>
      </trkpt>
      <trkpt lat="42.136263" lon="2.541145">
        <ele>662.619</ele>
        <time>2021-05-27T12:25:13Z</time>
      </trkpt>
      <trkpt lat="42.136288" lon="2.541269">
        <ele>663.589</ele>
        <time>2021-05-27T12:25:17Z</time>
      </trkpt>
      <trkpt lat="42.136310" lon="2.541399">
        <ele>664.646</ele>
        <time>2021-05-27T12:25:21Z</time>
      </trkpt>
      <trkpt lat="42.136359" lon="2.541527">
        <ele>664.061</ele>
        <time>2021-05-27T12:25:26Z</time>
      </trkpt>
      <trkpt lat="42.136404" lon="2.541646">
        <ele>663.964</ele>
        <time>2021-05-27T12:25:31Z</time>
      </trkpt>
      <trkpt lat="42.136495" lon="2.541724">
        <ele>664.720</ele>
        <time>2021-05-27T12:25:36Z</time>
      </trkpt>
      <trkpt lat="42.136599" lon="2.541734">
        <ele>665.286</ele>
        <time>2021-05-27T12:25:42Z</time>
      </trkpt>
      <trkpt lat="42.136697" lon="2.541697">
        <ele>666.060</ele>
        <time>2021-05-27T12:25:47Z</time>
      </trkpt>
      <trkpt lat="42.136785" lon="2.541631">
        <ele>667.626</ele>
        <time>2021-05-27T12:25:52Z</time>
      </trkpt>
      <trkpt lat="42.136819" lon="2.541506">
        <ele>667.108</ele>
        <time>2021-05-27T12:25:58Z</time>
      </trkpt>
      <trkpt lat="42.136841" lon="2.541376">
        <ele>666.255</ele>
        <time>2021-05-27T12:26:03Z</time>
      </trkpt>
      <trkpt lat="42.136856" lon="2.541243">
        <ele>664.852</ele>
        <time>2021-05-27T12:26:09Z</time>
      </trkpt>
      <trkpt lat="42.136918" lon="2.541145">
        <ele>664.940</ele>
        <time>2021-05-27T12:26:13Z</time>
      </trkpt>
      <trkpt lat="42.136984" lon="2.541026">
        <ele>664.250</ele>
        <time>2021-05-27T12:26:18Z</time>
      </trkpt>
      <trkpt lat="42.137031" lon="2.540911">
        <ele>663.127</ele>
        <time>2021-05-27T12:26:22Z</time>
      </trkpt>
      <trkpt lat="42.137132" lon="2.540869">
        <ele>663.592</ele>
        <time>2021-05-27T12:26:27Z</time>
      </trkpt>
      <trkpt lat="42.137230" lon="2.540883">
        <ele>664.695</ele>
        <time>2021-05-27T12:26:31Z</time>
      </trkpt>
      <trkpt lat="42.137308" lon="2.540958">
        <ele>664.541</ele>
        <time>2021-05-27T12:26:35Z</time>
      </trkpt>
      <trkpt lat="42.137393" lon="2.541018">
        <ele>664.486</ele>
        <time>2021-05-27T12:26:39Z</time>
      </trkpt>
      <trkpt lat="42.137489" lon="2.541061">
        <ele>664.160</ele>
        <time>2021-05-27T12:26:44Z</time>
      </trkpt>
      <trkpt lat="42.137570" lon="2.541062">
        <ele>664.126</ele>
        <time>2021-05-27T12:26:48Z</time>
      </trkpt>
      <trkpt lat="42.137596" lon="2.541064">
        <ele>664.208</ele>
        <time>2021-05-27T12:26:49Z</time>
      </trkpt>
      <trkpt lat="42.137684" lon="2.541054">
        <ele>664.245</ele>
        <time>2021-05-27T12:26:53Z</time>
      </trkpt>
      <trkpt lat="42.137703" lon="2.541047">
        <ele>664.192</ele>
        <time>2021-05-27T12:26:54Z</time>
      </trkpt>
      <trkpt lat="42.137724" lon="2.541041">
        <ele>664.190</ele>
        <time>2021-05-27T12:26:55Z</time>
      </trkpt>
      <trkpt lat="42.137744" lon="2.541031">
        <ele>664.060</ele>
        <time>2021-05-27T12:26:56Z</time>
      </trkpt>
      <trkpt lat="42.137766" lon="2.541020">
        <ele>664.027</ele>
        <time>2021-05-27T12:26:57Z</time>
      </trkpt>
      <trkpt lat="42.137793" lon="2.540994">
        <ele>664.172</ele>
        <time>2021-05-27T12:26:59Z</time>
      </trkpt>
      <trkpt lat="42.137811" lon="2.540982">
        <ele>664.595</ele>
        <time>2021-05-27T12:27:00Z</time>
      </trkpt>
      <trkpt lat="42.137838" lon="2.540958">
        <ele>665.021</ele>
        <time>2021-05-27T12:27:02Z</time>
      </trkpt>
      <trkpt lat="42.137906" lon="2.540865">
        <ele>665.675</ele>
        <time>2021-05-27T12:27:08Z</time>
      </trkpt>
      <trkpt lat="42.137958" lon="2.540735">
        <ele>665.028</ele>
        <time>2021-05-27T12:27:13Z</time>
      </trkpt>
      <trkpt lat="42.138000" lon="2.540623">
        <ele>664.420</ele>
        <time>2021-05-27T12:27:17Z</time>
      </trkpt>
      <trkpt lat="42.138058" lon="2.540506">
        <ele>664.008</ele>
        <time>2021-05-27T12:27:23Z</time>
      </trkpt>
      <trkpt lat="42.138150" lon="2.540443">
        <ele>664.714</ele>
        <time>2021-05-27T12:27:29Z</time>
      </trkpt>
      <trkpt lat="42.138229" lon="2.540341">
        <ele>664.661</ele>
        <time>2021-05-27T12:27:35Z</time>
      </trkpt>
      <trkpt lat="42.138284" lon="2.540234">
        <ele>664.099</ele>
        <time>2021-05-27T12:27:40Z</time>
      </trkpt>
      <trkpt lat="42.138320" lon="2.540118">
        <ele>662.889</ele>
        <time>2021-05-27T12:27:44Z</time>
      </trkpt>
      <trkpt lat="42.138338" lon="2.539958">
        <ele>660.426</ele>
        <time>2021-05-27T12:27:48Z</time>
      </trkpt>
      <trkpt lat="42.138356" lon="2.539804">
        <ele>658.331</ele>
        <time>2021-05-27T12:27:52Z</time>
      </trkpt>
      <trkpt lat="42.138389" lon="2.539681">
        <ele>657.474</ele>
        <time>2021-05-27T12:27:56Z</time>
      </trkpt>
      <trkpt lat="42.138448" lon="2.539583">
        <ele>657.790</ele>
        <time>2021-05-27T12:28:00Z</time>
      </trkpt>
      <trkpt lat="42.138486" lon="2.539467">
        <ele>656.828</ele>
        <time>2021-05-27T12:28:04Z</time>
      </trkpt>
      <trkpt lat="42.138547" lon="2.539361">
        <ele>656.789</ele>
        <time>2021-05-27T12:28:09Z</time>
      </trkpt>
      <trkpt lat="42.138611" lon="2.539275">
        <ele>656.917</ele>
        <time>2021-05-27T12:28:14Z</time>
      </trkpt>
      <trkpt lat="42.138650" lon="2.539151">
        <ele>655.808</ele>
        <time>2021-05-27T12:28:19Z</time>
      </trkpt>
      <trkpt lat="42.138685" lon="2.539019">
        <ele>653.989</ele>
        <time>2021-05-27T12:28:23Z</time>
      </trkpt>
      <trkpt lat="42.138765" lon="2.538923">
        <ele>654.266</ele>
        <time>2021-05-27T12:28:27Z</time>
      </trkpt>
      <trkpt lat="42.138822" lon="2.538822">
        <ele>653.474</ele>
        <time>2021-05-27T12:28:31Z</time>
      </trkpt>
      <trkpt lat="42.138868" lon="2.538708">
        <ele>651.474</ele>
        <time>2021-05-27T12:28:36Z</time>
      </trkpt>
      <trkpt lat="42.138941" lon="2.538598">
        <ele>649.681</ele>
        <time>2021-05-27T12:28:42Z</time>
      </trkpt>
      <trkpt lat="42.139009" lon="2.538505">
        <ele>648.736</ele>
        <time>2021-05-27T12:28:45Z</time>
      </trkpt>
      <trkpt lat="42.139087" lon="2.538412">
        <ele>647.899</ele>
        <time>2021-05-27T12:28:49Z</time>
      </trkpt>
      <trkpt lat="42.139151" lon="2.538303">
        <ele>646.075</ele>
        <time>2021-05-27T12:28:54Z</time>
      </trkpt>
      <trkpt lat="42.139217" lon="2.538212">
        <ele>644.731</ele>
        <time>2021-05-27T12:28:58Z</time>
      </trkpt>
      <trkpt lat="42.139295" lon="2.538138">
        <ele>643.761</ele>
        <time>2021-05-27T12:29:02Z</time>
      </trkpt>
      <trkpt lat="42.139384" lon="2.538046">
        <ele>642.207</ele>
        <time>2021-05-27T12:29:07Z</time>
      </trkpt>
      <trkpt lat="42.139452" lon="2.537951">
        <ele>641.208</ele>
        <time>2021-05-27T12:29:11Z</time>
      </trkpt>
      <trkpt lat="42.139513" lon="2.537843">
        <ele>640.260</ele>
        <time>2021-05-27T12:29:15Z</time>
      </trkpt>
      <trkpt lat="42.139583" lon="2.537751">
        <ele>639.567</ele>
        <time>2021-05-27T12:29:20Z</time>
      </trkpt>
      <trkpt lat="42.139644" lon="2.537642">
        <ele>638.485</ele>
        <time>2021-05-27T12:29:25Z</time>
      </trkpt>
      <trkpt lat="42.139695" lon="2.537518">
        <ele>636.945</ele>
        <time>2021-05-27T12:29:30Z</time>
      </trkpt>
      <trkpt lat="42.139742" lon="2.537394">
        <ele>635.932</ele>
        <time>2021-05-27T12:29:35Z</time>
      </trkpt>
      <trkpt lat="42.139763" lon="2.537274">
        <ele>634.657</ele>
        <time>2021-05-27T12:29:39Z</time>
      </trkpt>
      <trkpt lat="42.139804" lon="2.537136">
        <ele>633.290</ele>
        <time>2021-05-27T12:29:44Z</time>
      </trkpt>
      <trkpt lat="42.139880" lon="2.537041">
        <ele>633.156</ele>
        <time>2021-05-27T12:29:49Z</time>
      </trkpt>
      <trkpt lat="42.139887" lon="2.536913">
        <ele>631.089</ele>
        <time>2021-05-27T12:29:55Z</time>
      </trkpt>
      <trkpt lat="42.139876" lon="2.536772">
        <ele>628.506</ele>
        <time>2021-05-27T12:30:01Z</time>
      </trkpt>
      <trkpt lat="42.139873" lon="2.536619">
        <ele>625.926</ele>
        <time>2021-05-27T12:30:06Z</time>
      </trkpt>
      <trkpt lat="42.139890" lon="2.536479">
        <ele>623.908</ele>
        <time>2021-05-27T12:30:10Z</time>
      </trkpt>
      <trkpt lat="42.139887" lon="2.536347">
        <ele>621.665</ele>
        <time>2021-05-27T12:30:16Z</time>
      </trkpt>
      <trkpt lat="42.139917" lon="2.536216">
        <ele>619.592</ele>
        <time>2021-05-27T12:30:21Z</time>
      </trkpt>
      <trkpt lat="42.139889" lon="2.536090">
        <ele>616.650</ele>
        <time>2021-05-27T12:30:32Z</time>
      </trkpt>
      <trkpt lat="42.139845" lon="2.535984">
        <ele>614.230</ele>
        <time>2021-05-27T12:30:41Z</time>
      </trkpt>
      <trkpt lat="42.139772" lon="2.535902">
        <ele>612.227</ele>
        <time>2021-05-27T12:30:52Z</time>
      </trkpt>
      <trkpt lat="42.139706" lon="2.535812">
        <ele>610.732</ele>
        <time>2021-05-27T12:31:02Z</time>
      </trkpt>
      <trkpt lat="42.139645" lon="2.535721">
        <ele>609.555</ele>
        <time>2021-05-27T12:31:09Z</time>
      </trkpt>
      <trkpt lat="42.139598" lon="2.535594">
        <ele>607.991</ele>
        <time>2021-05-27T12:31:16Z</time>
      </trkpt>
      <trkpt lat="42.139595" lon="2.535557">
        <ele>607.558</ele>
        <time>2021-05-27T12:31:18Z</time>
      </trkpt>
      <trkpt lat="42.139591" lon="2.535520">
        <ele>607.352</ele>
        <time>2021-05-27T12:31:20Z</time>
      </trkpt>
      <trkpt lat="42.139589" lon="2.535485">
        <ele>607.117</ele>
        <time>2021-05-27T12:31:22Z</time>
      </trkpt>
      <trkpt lat="42.139574" lon="2.535351">
        <ele>606.408</ele>
        <time>2021-05-27T12:31:31Z</time>
      </trkpt>
      <trkpt lat="42.139592" lon="2.535209">
        <ele>605.412</ele>
        <time>2021-05-27T12:31:41Z</time>
      </trkpt>
      <trkpt lat="42.139567" lon="2.535076">
        <ele>604.299</ele>
        <time>2021-05-27T12:31:47Z</time>
      </trkpt>
      <trkpt lat="42.139525" lon="2.534968">
        <ele>603.667</ele>
        <time>2021-05-27T12:31:51Z</time>
      </trkpt>
      <trkpt lat="42.139571" lon="2.534848">
        <ele>602.747</ele>
        <time>2021-05-27T12:31:58Z</time>
      </trkpt>
      <trkpt lat="42.139556" lon="2.534719">
        <ele>602.264</ele>
        <time>2021-05-27T12:32:08Z</time>
      </trkpt>
      <trkpt lat="42.139537" lon="2.534605">
        <ele>602.179</ele>
        <time>2021-05-27T12:32:16Z</time>
      </trkpt>
      <trkpt lat="42.139533" lon="2.534579">
        <ele>602.062</ele>
        <time>2021-05-27T12:32:27Z</time>
      </trkpt>
      <trkpt lat="42.139529" lon="2.534545">
        <ele>601.968</ele>
        <time>2021-05-27T12:32:29Z</time>
      </trkpt>
      <trkpt lat="42.139526" lon="2.534511">
        <ele>601.946</ele>
        <time>2021-05-27T12:32:31Z</time>
      </trkpt>
      <trkpt lat="42.139522" lon="2.534474">
        <ele>601.888</ele>
        <time>2021-05-27T12:32:33Z</time>
      </trkpt>
      <trkpt lat="42.139516" lon="2.534438">
        <ele>601.716</ele>
        <time>2021-05-27T12:32:35Z</time>
      </trkpt>
      <trkpt lat="42.139507" lon="2.534401">
        <ele>601.808</ele>
        <time>2021-05-27T12:32:37Z</time>
      </trkpt>
      <trkpt lat="42.139502" lon="2.534369">
        <ele>601.831</ele>
        <time>2021-05-27T12:32:39Z</time>
      </trkpt>
      <trkpt lat="42.139499" lon="2.534335">
        <ele>601.888</ele>
        <time>2021-05-27T12:32:41Z</time>
      </trkpt>
      <trkpt lat="42.139490" lon="2.534302">
        <ele>601.836</ele>
        <time>2021-05-27T12:32:43Z</time>
      </trkpt>
      <trkpt lat="42.139481" lon="2.534267">
        <ele>601.916</ele>
        <time>2021-05-27T12:32:45Z</time>
      </trkpt>
      <trkpt lat="42.139472" lon="2.534232">
        <ele>601.993</ele>
        <time>2021-05-27T12:32:47Z</time>
      </trkpt>
      <trkpt lat="42.139461" lon="2.534201">
        <ele>601.968</ele>
        <time>2021-05-27T12:32:49Z</time>
      </trkpt>
      <trkpt lat="42.139451" lon="2.534172">
        <ele>602.071</ele>
        <time>2021-05-27T12:32:51Z</time>
      </trkpt>
      <trkpt lat="42.139441" lon="2.534144">
        <ele>602.027</ele>
        <time>2021-05-27T12:32:53Z</time>
      </trkpt>
      <trkpt lat="42.139436" lon="2.534117">
        <ele>602.076</ele>
        <time>2021-05-27T12:32:55Z</time>
      </trkpt>
      <trkpt lat="42.139426" lon="2.534089">
        <ele>602.190</ele>
        <time>2021-05-27T12:32:57Z</time>
      </trkpt>
      <trkpt lat="42.139413" lon="2.534063">
        <ele>602.219</ele>
        <time>2021-05-27T12:32:59Z</time>
      </trkpt>
      <trkpt lat="42.139395" lon="2.534035">
        <ele>602.308</ele>
        <time>2021-05-27T12:33:01Z</time>
      </trkpt>
      <trkpt lat="42.139384" lon="2.533999">
        <ele>602.534</ele>
        <time>2021-05-27T12:33:03Z</time>
      </trkpt>
      <trkpt lat="42.139380" lon="2.533964">
        <ele>602.611</ele>
        <time>2021-05-27T12:33:05Z</time>
      </trkpt>
      <trkpt lat="42.139379" lon="2.533928">
        <ele>602.679</ele>
        <time>2021-05-27T12:33:08Z</time>
      </trkpt>
      <trkpt lat="42.139374" lon="2.533900">
        <ele>602.769</ele>
        <time>2021-05-27T12:33:10Z</time>
      </trkpt>
      <trkpt lat="42.139377" lon="2.533856">
        <ele>603.386</ele>
        <time>2021-05-27T12:33:12Z</time>
      </trkpt>
      <trkpt lat="42.139375" lon="2.533825">
        <ele>603.861</ele>
        <time>2021-05-27T12:33:14Z</time>
      </trkpt>
      <trkpt lat="42.139365" lon="2.533800">
        <ele>604.374</ele>
        <time>2021-05-27T12:33:16Z</time>
      </trkpt>
      <trkpt lat="42.139366" lon="2.533772">
        <ele>604.890</ele>
        <time>2021-05-27T12:33:19Z</time>
      </trkpt>
      <trkpt lat="42.139377" lon="2.533744">
        <ele>605.141</ele>
        <time>2021-05-27T12:33:22Z</time>
      </trkpt>
      <trkpt lat="42.139413" lon="2.533652">
        <ele>605.981</ele>
        <time>2021-05-27T12:33:29Z</time>
      </trkpt>
      <trkpt lat="42.139426" lon="2.533629">
        <ele>606.109</ele>
        <time>2021-05-27T12:33:31Z</time>
      </trkpt>
      <trkpt lat="42.139358" lon="2.533547">
        <ele>610.008</ele>
        <time>2021-05-27T12:33:56Z</time>
      </trkpt>
      <trkpt lat="42.139270" lon="2.533498">
        <ele>613.491</ele>
        <time>2021-05-27T12:34:07Z</time>
      </trkpt>
      <trkpt lat="42.139188" lon="2.533434">
        <ele>617.098</ele>
        <time>2021-05-27T12:34:22Z</time>
      </trkpt>
      <trkpt lat="42.139097" lon="2.533414">
        <ele>617.786</ele>
        <time>2021-05-27T12:34:29Z</time>
      </trkpt>
      <trkpt lat="42.139005" lon="2.533365">
        <ele>618.436</ele>
        <time>2021-05-27T12:34:38Z</time>
      </trkpt>
      <trkpt lat="42.138936" lon="2.533274">
        <ele>620.123</ele>
        <time>2021-05-27T12:34:51Z</time>
      </trkpt>
      <trkpt lat="42.138873" lon="2.533179">
        <ele>621.768</ele>
        <time>2021-05-27T12:34:59Z</time>
      </trkpt>
      <trkpt lat="42.138825" lon="2.533073">
        <ele>623.741</ele>
        <time>2021-05-27T12:35:08Z</time>
      </trkpt>
      <trkpt lat="42.138788" lon="2.532960">
        <ele>625.457</ele>
        <time>2021-05-27T12:35:18Z</time>
      </trkpt>
      <trkpt lat="42.138774" lon="2.532835">
        <ele>627.548</ele>
        <time>2021-05-27T12:35:29Z</time>
      </trkpt>
      <trkpt lat="42.138780" lon="2.532700">
        <ele>629.561</ele>
        <time>2021-05-27T12:35:40Z</time>
      </trkpt>
      <trkpt lat="42.138831" lon="2.532592">
        <ele>631.817</ele>
        <time>2021-05-27T12:35:49Z</time>
      </trkpt>
      <trkpt lat="42.138846" lon="2.532460">
        <ele>633.308</ele>
        <time>2021-05-27T12:36:02Z</time>
      </trkpt>
      <trkpt lat="42.138864" lon="2.532341">
        <ele>634.131</ele>
        <time>2021-05-27T12:36:11Z</time>
      </trkpt>
      <trkpt lat="42.138870" lon="2.532277">
        <ele>634.598</ele>
        <time>2021-05-27T12:36:16Z</time>
      </trkpt>
      <trkpt lat="42.138893" lon="2.532241">
        <ele>635.036</ele>
        <time>2021-05-27T12:36:19Z</time>
      </trkpt>
      <trkpt lat="42.138910" lon="2.532219">
        <ele>635.366</ele>
        <time>2021-05-27T12:36:21Z</time>
      </trkpt>
      <trkpt lat="42.138924" lon="2.532200">
        <ele>635.893</ele>
        <time>2021-05-27T12:36:23Z</time>
      </trkpt>
      <trkpt lat="42.138936" lon="2.532176">
        <ele>636.388</ele>
        <time>2021-05-27T12:36:25Z</time>
      </trkpt>
      <trkpt lat="42.138945" lon="2.532154">
        <ele>636.731</ele>
        <time>2021-05-27T12:36:27Z</time>
      </trkpt>
      <trkpt lat="42.138987" lon="2.532046">
        <ele>638.577</ele>
        <time>2021-05-27T12:36:37Z</time>
      </trkpt>
      <trkpt lat="42.139002" lon="2.532026">
        <ele>638.986</ele>
        <time>2021-05-27T12:36:39Z</time>
      </trkpt>
      <trkpt lat="42.139022" lon="2.532007">
        <ele>639.360</ele>
        <time>2021-05-27T12:36:41Z</time>
      </trkpt>
      <trkpt lat="42.139035" lon="2.531987">
        <ele>639.626</ele>
        <time>2021-05-27T12:36:43Z</time>
      </trkpt>
      <trkpt lat="42.139043" lon="2.531961">
        <ele>639.908</ele>
        <time>2021-05-27T12:36:45Z</time>
      </trkpt>
      <trkpt lat="42.139046" lon="2.531932">
        <ele>640.355</ele>
        <time>2021-05-27T12:36:47Z</time>
      </trkpt>
      <trkpt lat="42.139051" lon="2.531903">
        <ele>640.612</ele>
        <time>2021-05-27T12:36:49Z</time>
      </trkpt>
      <trkpt lat="42.139072" lon="2.531858">
        <ele>641.360</ele>
        <time>2021-05-27T12:36:54Z</time>
      </trkpt>
      <trkpt lat="42.139077" lon="2.531826">
        <ele>641.620</ele>
        <time>2021-05-27T12:37:04Z</time>
      </trkpt>
      <trkpt lat="42.139091" lon="2.531802">
        <ele>642.067</ele>
        <time>2021-05-27T12:37:07Z</time>
      </trkpt>
      <trkpt lat="42.139114" lon="2.531786">
        <ele>642.392</ele>
        <time>2021-05-27T12:37:10Z</time>
      </trkpt>
      <trkpt lat="42.139132" lon="2.531770">
        <ele>642.635</ele>
        <time>2021-05-27T12:37:12Z</time>
      </trkpt>
      <trkpt lat="42.139141" lon="2.531747">
        <ele>642.951</ele>
        <time>2021-05-27T12:37:14Z</time>
      </trkpt>
      <trkpt lat="42.139146" lon="2.531718">
        <ele>643.345</ele>
        <time>2021-05-27T12:37:16Z</time>
      </trkpt>
      <trkpt lat="42.139148" lon="2.531682">
        <ele>643.747</ele>
        <time>2021-05-27T12:37:18Z</time>
      </trkpt>
      <trkpt lat="42.139145" lon="2.531652">
        <ele>644.111</ele>
        <time>2021-05-27T12:37:20Z</time>
      </trkpt>
      <trkpt lat="42.139141" lon="2.531622">
        <ele>644.508</ele>
        <time>2021-05-27T12:37:22Z</time>
      </trkpt>
      <trkpt lat="42.139141" lon="2.531597">
        <ele>644.811</ele>
        <time>2021-05-27T12:37:24Z</time>
      </trkpt>
      <trkpt lat="42.139144" lon="2.531569">
        <ele>645.318</ele>
        <time>2021-05-27T12:37:26Z</time>
      </trkpt>
      <trkpt lat="42.139141" lon="2.531539">
        <ele>645.766</ele>
        <time>2021-05-27T12:37:28Z</time>
      </trkpt>
      <trkpt lat="42.139148" lon="2.531517">
        <ele>646.176</ele>
        <time>2021-05-27T12:37:30Z</time>
      </trkpt>
      <trkpt lat="42.139155" lon="2.531488">
        <ele>646.573</ele>
        <time>2021-05-27T12:37:32Z</time>
      </trkpt>
      <trkpt lat="42.139155" lon="2.531451">
        <ele>647.128</ele>
        <time>2021-05-27T12:37:35Z</time>
      </trkpt>
      <trkpt lat="42.139151" lon="2.531422">
        <ele>647.571</ele>
        <time>2021-05-27T12:37:37Z</time>
      </trkpt>
      <trkpt lat="42.139156" lon="2.531395">
        <ele>647.977</ele>
        <time>2021-05-27T12:37:39Z</time>
      </trkpt>
      <trkpt lat="42.139164" lon="2.531368">
        <ele>648.297</ele>
        <time>2021-05-27T12:37:41Z</time>
      </trkpt>
      <trkpt lat="42.139172" lon="2.531317">
        <ele>648.923</ele>
        <time>2021-05-27T12:37:45Z</time>
      </trkpt>
      <trkpt lat="42.139181" lon="2.531191">
        <ele>650.325</ele>
        <time>2021-05-27T12:37:55Z</time>
      </trkpt>
      <trkpt lat="42.139184" lon="2.531098">
        <ele>651.308</ele>
        <time>2021-05-27T12:38:01Z</time>
      </trkpt>
      <trkpt lat="42.139193" lon="2.531071">
        <ele>651.466</ele>
        <time>2021-05-27T12:38:03Z</time>
      </trkpt>
      <trkpt lat="42.139201" lon="2.531047">
        <ele>651.643</ele>
        <time>2021-05-27T12:38:05Z</time>
      </trkpt>
      <trkpt lat="42.139207" lon="2.531018">
        <ele>651.761</ele>
        <time>2021-05-27T12:38:07Z</time>
      </trkpt>
      <trkpt lat="42.139211" lon="2.530991">
        <ele>651.841</ele>
        <time>2021-05-27T12:38:09Z</time>
      </trkpt>
      <trkpt lat="42.139213" lon="2.530922">
        <ele>651.988</ele>
        <time>2021-05-27T12:38:14Z</time>
      </trkpt>
      <trkpt lat="42.139223" lon="2.530874">
        <ele>652.253</ele>
        <time>2021-05-27T12:38:19Z</time>
      </trkpt>
      <trkpt lat="42.139234" lon="2.530852">
        <ele>652.496</ele>
        <time>2021-05-27T12:38:22Z</time>
      </trkpt>
      <trkpt lat="42.139240" lon="2.530825">
        <ele>652.552</ele>
        <time>2021-05-27T12:38:25Z</time>
      </trkpt>
      <trkpt lat="42.139244" lon="2.530786">
        <ele>652.055</ele>
        <time>2021-05-27T12:38:28Z</time>
      </trkpt>
      <trkpt lat="42.139241" lon="2.530761">
        <ele>651.607</ele>
        <time>2021-05-27T12:38:30Z</time>
      </trkpt>
      <trkpt lat="42.139243" lon="2.530734">
        <ele>651.217</ele>
        <time>2021-05-27T12:38:32Z</time>
      </trkpt>
      <trkpt lat="42.139244" lon="2.530701">
        <ele>650.808</ele>
        <time>2021-05-27T12:38:34Z</time>
      </trkpt>
      <trkpt lat="42.139244" lon="2.530666">
        <ele>650.392</ele>
        <time>2021-05-27T12:38:36Z</time>
      </trkpt>
      <trkpt lat="42.139249" lon="2.530631">
        <ele>649.979</ele>
        <time>2021-05-27T12:38:38Z</time>
      </trkpt>
      <trkpt lat="42.139255" lon="2.530596">
        <ele>649.547</ele>
        <time>2021-05-27T12:38:40Z</time>
      </trkpt>
      <trkpt lat="42.139255" lon="2.530566">
        <ele>649.177</ele>
        <time>2021-05-27T12:38:42Z</time>
      </trkpt>
      <trkpt lat="42.139259" lon="2.530435">
        <ele>647.414</ele>
        <time>2021-05-27T12:38:48Z</time>
      </trkpt>
      <trkpt lat="42.139264" lon="2.530314">
        <ele>645.999</ele>
        <time>2021-05-27T12:38:58Z</time>
      </trkpt>
      <trkpt lat="42.139210" lon="2.530210">
        <ele>643.272</ele>
        <time>2021-05-27T12:39:12Z</time>
      </trkpt>
      <trkpt lat="42.139142" lon="2.530131">
        <ele>641.348</ele>
        <time>2021-05-27T12:39:20Z</time>
      </trkpt>
      <trkpt lat="42.139072" lon="2.530042">
        <ele>641.146</ele>
        <time>2021-05-27T12:39:28Z</time>
      </trkpt>
      <trkpt lat="42.139015" lon="2.529925">
        <ele>640.588</ele>
        <time>2021-05-27T12:39:36Z</time>
      </trkpt>
      <trkpt lat="42.139012" lon="2.529799">
        <ele>638.416</ele>
        <time>2021-05-27T12:39:45Z</time>
      </trkpt>
      <trkpt lat="42.139051" lon="2.529678">
        <ele>634.708</ele>
        <time>2021-05-27T12:39:51Z</time>
      </trkpt>
      <trkpt lat="42.139050" lon="2.529552">
        <ele>631.761</ele>
        <time>2021-05-27T12:40:00Z</time>
      </trkpt>
      <trkpt lat="42.139059" lon="2.529422">
        <ele>628.498</ele>
        <time>2021-05-27T12:40:06Z</time>
      </trkpt>
      <trkpt lat="42.139024" lon="2.529296">
        <ele>626.626</ele>
        <time>2021-05-27T12:40:10Z</time>
      </trkpt>
      <trkpt lat="42.138994" lon="2.529170">
        <ele>624.086</ele>
        <time>2021-05-27T12:40:17Z</time>
      </trkpt>
      <trkpt lat="42.138920" lon="2.529099">
        <ele>622.683</ele>
        <time>2021-05-27T12:40:29Z</time>
      </trkpt>
      <trkpt lat="42.138841" lon="2.529029">
        <ele>620.598</ele>
        <time>2021-05-27T12:40:35Z</time>
      </trkpt>
      <trkpt lat="42.138775" lon="2.528944">
        <ele>617.511</ele>
        <time>2021-05-27T12:40:47Z</time>
      </trkpt>
      <trkpt lat="42.138687" lon="2.528881">
        <ele>615.017</ele>
        <time>2021-05-27T12:40:55Z</time>
      </trkpt>
      <trkpt lat="42.138623" lon="2.528776">
        <ele>611.094</ele>
        <time>2021-05-27T12:41:01Z</time>
      </trkpt>
      <trkpt lat="42.138581" lon="2.528651">
        <ele>607.757</ele>
        <time>2021-05-27T12:41:07Z</time>
      </trkpt>
      <trkpt lat="42.138566" lon="2.528509">
        <ele>604.022</ele>
        <time>2021-05-27T12:41:12Z</time>
      </trkpt>
      <trkpt lat="42.138518" lon="2.528386">
        <ele>602.508</ele>
        <time>2021-05-27T12:41:17Z</time>
      </trkpt>
      <trkpt lat="42.138478" lon="2.528255">
        <ele>599.866</ele>
        <time>2021-05-27T12:41:23Z</time>
      </trkpt>
      <trkpt lat="42.138425" lon="2.528136">
        <ele>597.263</ele>
        <time>2021-05-27T12:41:30Z</time>
      </trkpt>
      <trkpt lat="42.138356" lon="2.528047">
        <ele>596.071</ele>
        <time>2021-05-27T12:41:34Z</time>
      </trkpt>
      <trkpt lat="42.138281" lon="2.527974">
        <ele>594.031</ele>
        <time>2021-05-27T12:41:42Z</time>
      </trkpt>
      <trkpt lat="42.138194" lon="2.527906">
        <ele>591.158</ele>
        <time>2021-05-27T12:41:54Z</time>
      </trkpt>
      <trkpt lat="42.138264" lon="2.527822">
        <ele>588.223</ele>
        <time>2021-05-27T12:42:20Z</time>
      </trkpt>
      <trkpt lat="42.138179" lon="2.527771">
        <ele>585.696</ele>
        <time>2021-05-27T12:42:30Z</time>
      </trkpt>
      <trkpt lat="42.138257" lon="2.527691">
        <ele>583.062</ele>
        <time>2021-05-27T12:42:53Z</time>
      </trkpt>
      <trkpt lat="42.138326" lon="2.527587">
        <ele>579.489</ele>
        <time>2021-05-27T12:43:01Z</time>
      </trkpt>
      <trkpt lat="42.138368" lon="2.527466">
        <ele>575.406</ele>
        <time>2021-05-27T12:43:09Z</time>
      </trkpt>
      <trkpt lat="42.138383" lon="2.527344">
        <ele>573.526</ele>
        <time>2021-05-27T12:43:16Z</time>
      </trkpt>
      <trkpt lat="42.138427" lon="2.527207">
        <ele>571.208</ele>
        <time>2021-05-27T12:43:25Z</time>
      </trkpt>
      <trkpt lat="42.138446" lon="2.527071">
        <ele>570.375</ele>
        <time>2021-05-27T12:43:29Z</time>
      </trkpt>
      <trkpt lat="42.138386" lon="2.526969">
        <ele>570.062</ele>
        <time>2021-05-27T12:43:35Z</time>
      </trkpt>
      <trkpt lat="42.138348" lon="2.526837">
        <ele>569.960</ele>
        <time>2021-05-27T12:43:40Z</time>
      </trkpt>
      <trkpt lat="42.138328" lon="2.526710">
        <ele>570.260</ele>
        <time>2021-05-27T12:43:44Z</time>
      </trkpt>
      <trkpt lat="42.138287" lon="2.526599">
        <ele>571.817</ele>
        <time>2021-05-27T12:43:51Z</time>
      </trkpt>
      <trkpt lat="42.138269" lon="2.526470">
        <ele>573.012</ele>
        <time>2021-05-27T12:43:59Z</time>
      </trkpt>
      <trkpt lat="42.138256" lon="2.526339">
        <ele>574.265</ele>
        <time>2021-05-27T12:44:05Z</time>
      </trkpt>
      <trkpt lat="42.138277" lon="2.526208">
        <ele>574.361</ele>
        <time>2021-05-27T12:44:11Z</time>
      </trkpt>
      <trkpt lat="42.138319" lon="2.526095">
        <ele>572.867</ele>
        <time>2021-05-27T12:44:15Z</time>
      </trkpt>
      <trkpt lat="42.138351" lon="2.525962">
        <ele>571.781</ele>
        <time>2021-05-27T12:44:20Z</time>
      </trkpt>
      <trkpt lat="42.138355" lon="2.525838">
        <ele>571.619</ele>
        <time>2021-05-27T12:44:24Z</time>
      </trkpt>
      <trkpt lat="42.138329" lon="2.525704">
        <ele>571.708</ele>
        <time>2021-05-27T12:44:29Z</time>
      </trkpt>
      <trkpt lat="42.138318" lon="2.525580">
        <ele>571.813</ele>
        <time>2021-05-27T12:44:35Z</time>
      </trkpt>
      <trkpt lat="42.138343" lon="2.525440">
        <ele>571.360</ele>
        <time>2021-05-27T12:44:40Z</time>
      </trkpt>
      <trkpt lat="42.138342" lon="2.525318">
        <ele>571.738</ele>
        <time>2021-05-27T12:44:44Z</time>
      </trkpt>
      <trkpt lat="42.138355" lon="2.525178">
        <ele>570.918</ele>
        <time>2021-05-27T12:44:47Z</time>
      </trkpt>
      <trkpt lat="42.138323" lon="2.525054">
        <ele>571.035</ele>
        <time>2021-05-27T12:44:52Z</time>
      </trkpt>
      <trkpt lat="42.138334" lon="2.524922">
        <ele>569.790</ele>
        <time>2021-05-27T12:44:57Z</time>
      </trkpt>
      <trkpt lat="42.138360" lon="2.524795">
        <ele>569.093</ele>
        <time>2021-05-27T12:45:00Z</time>
      </trkpt>
      <trkpt lat="42.138357" lon="2.524665">
        <ele>568.679</ele>
        <time>2021-05-27T12:45:04Z</time>
      </trkpt>
      <trkpt lat="42.138312" lon="2.524537">
        <ele>569.259</ele>
        <time>2021-05-27T12:45:08Z</time>
      </trkpt>
      <trkpt lat="42.138254" lon="2.524414">
        <ele>570.803</ele>
        <time>2021-05-27T12:45:12Z</time>
      </trkpt>
      <trkpt lat="42.138246" lon="2.524259">
        <ele>570.523</ele>
        <time>2021-05-27T12:45:17Z</time>
      </trkpt>
      <trkpt lat="42.138305" lon="2.524150">
        <ele>568.608</ele>
        <time>2021-05-27T12:45:21Z</time>
      </trkpt>
      <trkpt lat="42.138341" lon="2.524022">
        <ele>567.432</ele>
        <time>2021-05-27T12:45:26Z</time>
      </trkpt>
      <trkpt lat="42.138360" lon="2.523876">
        <ele>566.949</ele>
        <time>2021-05-27T12:45:31Z</time>
      </trkpt>
      <trkpt lat="42.138407" lon="2.523771">
        <ele>566.717</ele>
        <time>2021-05-27T12:45:35Z</time>
      </trkpt>
      <trkpt lat="42.138433" lon="2.523646">
        <ele>566.687</ele>
        <time>2021-05-27T12:45:40Z</time>
      </trkpt>
      <trkpt lat="42.138497" lon="2.523556">
        <ele>566.534</ele>
        <time>2021-05-27T12:45:45Z</time>
      </trkpt>
      <trkpt lat="42.138604" lon="2.523523">
        <ele>566.389</ele>
        <time>2021-05-27T12:45:49Z</time>
      </trkpt>
      <trkpt lat="42.138693" lon="2.523473">
        <ele>566.492</ele>
        <time>2021-05-27T12:45:54Z</time>
      </trkpt>
      <trkpt lat="42.138782" lon="2.523442">
        <ele>566.248</ele>
        <time>2021-05-27T12:45:59Z</time>
      </trkpt>
      <trkpt lat="42.138889" lon="2.523428">
        <ele>566.071</ele>
        <time>2021-05-27T12:46:05Z</time>
      </trkpt>
      <trkpt lat="42.138980" lon="2.523449">
        <ele>565.941</ele>
        <time>2021-05-27T12:46:09Z</time>
      </trkpt>
      <trkpt lat="42.139072" lon="2.523444">
        <ele>565.715</ele>
        <time>2021-05-27T12:46:13Z</time>
      </trkpt>
      <trkpt lat="42.139181" lon="2.523462">
        <ele>565.508</ele>
        <time>2021-05-27T12:46:18Z</time>
      </trkpt>
      <trkpt lat="42.139272" lon="2.523498">
        <ele>565.574</ele>
        <time>2021-05-27T12:46:22Z</time>
      </trkpt>
      <trkpt lat="42.139362" lon="2.523530">
        <ele>565.651</ele>
        <time>2021-05-27T12:46:26Z</time>
      </trkpt>
      <trkpt lat="42.139464" lon="2.523574">
        <ele>565.859</ele>
        <time>2021-05-27T12:46:30Z</time>
      </trkpt>
      <trkpt lat="42.139564" lon="2.523603">
        <ele>565.659</ele>
        <time>2021-05-27T12:46:34Z</time>
      </trkpt>
      <trkpt lat="42.139667" lon="2.523620">
        <ele>565.296</ele>
        <time>2021-05-27T12:46:39Z</time>
      </trkpt>
      <trkpt lat="42.139770" lon="2.523555">
        <ele>565.221</ele>
        <time>2021-05-27T12:46:44Z</time>
      </trkpt>
      <trkpt lat="42.139832" lon="2.523439">
        <ele>565.424</ele>
        <time>2021-05-27T12:46:49Z</time>
      </trkpt>
      <trkpt lat="42.139888" lon="2.523331">
        <ele>565.490</ele>
        <time>2021-05-27T12:46:53Z</time>
      </trkpt>
      <trkpt lat="42.139953" lon="2.523229">
        <ele>565.538</ele>
        <time>2021-05-27T12:46:58Z</time>
      </trkpt>
      <trkpt lat="42.140030" lon="2.523128">
        <ele>565.770</ele>
        <time>2021-05-27T12:47:03Z</time>
      </trkpt>
      <trkpt lat="42.140087" lon="2.523014">
        <ele>565.717</ele>
        <time>2021-05-27T12:47:08Z</time>
      </trkpt>
      <trkpt lat="42.140135" lon="2.522878">
        <ele>565.808</ele>
        <time>2021-05-27T12:47:13Z</time>
      </trkpt>
      <trkpt lat="42.140188" lon="2.522762">
        <ele>566.140</ele>
        <time>2021-05-27T12:47:19Z</time>
      </trkpt>
      <trkpt lat="42.140250" lon="2.522651">
        <ele>566.527</ele>
        <time>2021-05-27T12:47:25Z</time>
      </trkpt>
      <trkpt lat="42.140286" lon="2.522525">
        <ele>566.965</ele>
        <time>2021-05-27T12:47:30Z</time>
      </trkpt>
      <trkpt lat="42.140321" lon="2.522404">
        <ele>567.235</ele>
        <time>2021-05-27T12:47:35Z</time>
      </trkpt>
      <trkpt lat="42.140342" lon="2.522280">
        <ele>567.252</ele>
        <time>2021-05-27T12:47:40Z</time>
      </trkpt>
      <trkpt lat="42.140371" lon="2.522160">
        <ele>567.357</ele>
        <time>2021-05-27T12:47:44Z</time>
      </trkpt>
      <trkpt lat="42.140380" lon="2.522010">
        <ele>567.160</ele>
        <time>2021-05-27T12:47:49Z</time>
      </trkpt>
      <trkpt lat="42.140356" lon="2.521892">
        <ele>567.046</ele>
        <time>2021-05-27T12:47:53Z</time>
      </trkpt>
      <trkpt lat="42.140332" lon="2.521759">
        <ele>567.089</ele>
        <time>2021-05-27T12:47:58Z</time>
      </trkpt>
      <trkpt lat="42.140299" lon="2.521641">
        <ele>567.106</ele>
        <time>2021-05-27T12:48:03Z</time>
      </trkpt>
      <trkpt lat="42.140266" lon="2.521510">
        <ele>567.526</ele>
        <time>2021-05-27T12:48:08Z</time>
      </trkpt>
      <trkpt lat="42.140235" lon="2.521394">
        <ele>567.808</ele>
        <time>2021-05-27T12:48:13Z</time>
      </trkpt>
      <trkpt lat="42.140204" lon="2.521269">
        <ele>567.645</ele>
        <time>2021-05-27T12:48:18Z</time>
      </trkpt>
      <trkpt lat="42.140195" lon="2.521139">
        <ele>567.682</ele>
        <time>2021-05-27T12:48:23Z</time>
      </trkpt>
      <trkpt lat="42.140252" lon="2.521015">
        <ele>567.560</ele>
        <time>2021-05-27T12:48:29Z</time>
      </trkpt>
      <trkpt lat="42.140318" lon="2.520900">
        <ele>567.510</ele>
        <time>2021-05-27T12:48:34Z</time>
      </trkpt>
      <trkpt lat="42.140392" lon="2.520816">
        <ele>567.387</ele>
        <time>2021-05-27T12:48:41Z</time>
      </trkpt>
      <trkpt lat="42.140475" lon="2.520714">
        <ele>567.322</ele>
        <time>2021-05-27T12:48:48Z</time>
      </trkpt>
      <trkpt lat="42.140547" lon="2.520631">
        <ele>567.545</ele>
        <time>2021-05-27T12:48:52Z</time>
      </trkpt>
      <trkpt lat="42.140628" lon="2.520539">
        <ele>567.731</ele>
        <time>2021-05-27T12:48:57Z</time>
      </trkpt>
      <trkpt lat="42.140729" lon="2.520531">
        <ele>567.045</ele>
        <time>2021-05-27T12:49:02Z</time>
      </trkpt>
      <trkpt lat="42.140827" lon="2.520496">
        <ele>566.747</ele>
        <time>2021-05-27T12:49:07Z</time>
      </trkpt>
      <trkpt lat="42.140917" lon="2.520394">
        <ele>567.811</ele>
        <time>2021-05-27T12:49:12Z</time>
      </trkpt>
      <trkpt lat="42.141028" lon="2.520372">
        <ele>568.008</ele>
        <time>2021-05-27T12:49:17Z</time>
      </trkpt>
      <trkpt lat="42.141131" lon="2.520324">
        <ele>568.041</ele>
        <time>2021-05-27T12:49:21Z</time>
      </trkpt>
      <trkpt lat="42.141203" lon="2.520244">
        <ele>568.268</ele>
        <time>2021-05-27T12:49:24Z</time>
      </trkpt>
      <trkpt lat="42.141303" lon="2.520190">
        <ele>568.556</ele>
        <time>2021-05-27T12:49:30Z</time>
      </trkpt>
      <trkpt lat="42.141381" lon="2.520127">
        <ele>569.136</ele>
        <time>2021-05-27T12:49:38Z</time>
      </trkpt>
      <trkpt lat="42.141459" lon="2.520054">
        <ele>569.533</ele>
        <time>2021-05-27T12:49:45Z</time>
      </trkpt>
      <trkpt lat="42.141548" lon="2.520012">
        <ele>569.988</ele>
        <time>2021-05-27T12:49:53Z</time>
      </trkpt>
      <trkpt lat="42.141617" lon="2.519934">
        <ele>570.051</ele>
        <time>2021-05-27T12:49:59Z</time>
      </trkpt>
      <trkpt lat="42.141569" lon="2.519826">
        <ele>570.297</ele>
        <time>2021-05-27T12:50:05Z</time>
      </trkpt>
      <trkpt lat="42.141506" lon="2.519727">
        <ele>570.684</ele>
        <time>2021-05-27T12:50:10Z</time>
      </trkpt>
      <trkpt lat="42.141456" lon="2.519619">
        <ele>570.607</ele>
        <time>2021-05-27T12:50:16Z</time>
      </trkpt>
      <trkpt lat="42.141383" lon="2.519543">
        <ele>570.417</ele>
        <time>2021-05-27T12:50:23Z</time>
      </trkpt>
      <trkpt lat="42.141304" lon="2.519483">
        <ele>570.408</ele>
        <time>2021-05-27T12:50:28Z</time>
      </trkpt>
      <trkpt lat="42.141214" lon="2.519428">
        <ele>570.695</ele>
        <time>2021-05-27T12:50:33Z</time>
      </trkpt>
      <trkpt lat="42.141128" lon="2.519379">
        <ele>570.972</ele>
        <time>2021-05-27T12:50:38Z</time>
      </trkpt>
      <trkpt lat="42.141023" lon="2.519385">
        <ele>570.640</ele>
        <time>2021-05-27T12:50:42Z</time>
      </trkpt>
      <trkpt lat="42.140937" lon="2.519351">
        <ele>570.240</ele>
        <time>2021-05-27T12:50:46Z</time>
      </trkpt>
      <trkpt lat="42.140852" lon="2.519309">
        <ele>569.697</ele>
        <time>2021-05-27T12:50:49Z</time>
      </trkpt>
      <trkpt lat="42.140742" lon="2.519293">
        <ele>569.632</ele>
        <time>2021-05-27T12:50:54Z</time>
      </trkpt>
      <trkpt lat="42.140657" lon="2.519221">
        <ele>569.785</ele>
        <time>2021-05-27T12:50:58Z</time>
      </trkpt>
      <trkpt lat="42.140562" lon="2.519152">
        <ele>570.061</ele>
        <time>2021-05-27T12:51:03Z</time>
      </trkpt>
      <trkpt lat="42.140478" lon="2.519087">
        <ele>569.713</ele>
        <time>2021-05-27T12:51:08Z</time>
      </trkpt>
      <trkpt lat="42.140398" lon="2.519019">
        <ele>569.443</ele>
        <time>2021-05-27T12:51:14Z</time>
      </trkpt>
      <trkpt lat="42.140302" lon="2.519014">
        <ele>569.107</ele>
        <time>2021-05-27T12:51:18Z</time>
      </trkpt>
      <trkpt lat="42.140195" lon="2.519015">
        <ele>568.808</ele>
        <time>2021-05-27T12:51:22Z</time>
      </trkpt>
      <trkpt lat="42.140102" lon="2.519016">
        <ele>568.788</ele>
        <time>2021-05-27T12:51:26Z</time>
      </trkpt>
      <trkpt lat="42.140006" lon="2.519070">
        <ele>568.745</ele>
        <time>2021-05-27T12:51:31Z</time>
      </trkpt>
      <trkpt lat="42.139931" lon="2.519144">
        <ele>568.933</ele>
        <time>2021-05-27T12:51:36Z</time>
      </trkpt>
      <trkpt lat="42.139853" lon="2.519228">
        <ele>569.013</ele>
        <time>2021-05-27T12:51:41Z</time>
      </trkpt>
      <trkpt lat="42.139800" lon="2.519350">
        <ele>569.040</ele>
        <time>2021-05-27T12:51:47Z</time>
      </trkpt>
      <trkpt lat="42.139758" lon="2.519468">
        <ele>569.175</ele>
        <time>2021-05-27T12:51:51Z</time>
      </trkpt>
      <trkpt lat="42.139687" lon="2.519567">
        <ele>569.848</ele>
        <time>2021-05-27T12:51:56Z</time>
      </trkpt>
      <trkpt lat="42.139594" lon="2.519526">
        <ele>569.344</ele>
        <time>2021-05-27T12:52:03Z</time>
      </trkpt>
      <trkpt lat="42.139550" lon="2.519414">
        <ele>569.067</ele>
        <time>2021-05-27T12:52:08Z</time>
      </trkpt>
      <trkpt lat="42.139548" lon="2.519278">
        <ele>569.081</ele>
        <time>2021-05-27T12:52:14Z</time>
      </trkpt>
      <trkpt lat="42.139570" lon="2.519145">
        <ele>569.019</ele>
        <time>2021-05-27T12:52:21Z</time>
      </trkpt>
      <trkpt lat="42.139623" lon="2.519022">
        <ele>568.808</ele>
        <time>2021-05-27T12:52:27Z</time>
      </trkpt>
      <trkpt lat="42.139653" lon="2.518879">
        <ele>568.893</ele>
        <time>2021-05-27T12:52:32Z</time>
      </trkpt>
      <trkpt lat="42.139684" lon="2.518764">
        <ele>568.990</ele>
        <time>2021-05-27T12:52:36Z</time>
      </trkpt>
      <trkpt lat="42.139736" lon="2.518663">
        <ele>569.058</ele>
        <time>2021-05-27T12:52:41Z</time>
      </trkpt>
      <trkpt lat="42.139807" lon="2.518572">
        <ele>569.018</ele>
        <time>2021-05-27T12:52:47Z</time>
      </trkpt>
      <trkpt lat="42.139886" lon="2.518461">
        <ele>569.085</ele>
        <time>2021-05-27T12:52:52Z</time>
      </trkpt>
      <trkpt lat="42.139944" lon="2.518336">
        <ele>569.010</ele>
        <time>2021-05-27T12:52:57Z</time>
      </trkpt>
      <trkpt lat="42.140000" lon="2.518228">
        <ele>569.033</ele>
        <time>2021-05-27T12:53:02Z</time>
      </trkpt>
      <trkpt lat="42.140042" lon="2.518113">
        <ele>569.099</ele>
        <time>2021-05-27T12:53:08Z</time>
      </trkpt>
      <trkpt lat="42.140109" lon="2.518006">
        <ele>569.138</ele>
        <time>2021-05-27T12:53:14Z</time>
      </trkpt>
      <trkpt lat="42.140199" lon="2.517929">
        <ele>569.170</ele>
        <time>2021-05-27T12:53:18Z</time>
      </trkpt>
      <trkpt lat="42.140263" lon="2.517827">
        <ele>569.017</ele>
        <time>2021-05-27T12:53:21Z</time>
      </trkpt>
      <trkpt lat="42.140329" lon="2.517740">
        <ele>569.308</ele>
        <time>2021-05-27T12:53:26Z</time>
      </trkpt>
      <trkpt lat="42.140411" lon="2.517673">
        <ele>569.890</ele>
        <time>2021-05-27T12:53:33Z</time>
      </trkpt>
      <trkpt lat="42.140490" lon="2.517607">
        <ele>570.137</ele>
        <time>2021-05-27T12:53:38Z</time>
      </trkpt>
      <trkpt lat="42.140583" lon="2.517556">
        <ele>570.365</ele>
        <time>2021-05-27T12:53:45Z</time>
      </trkpt>
      <trkpt lat="42.140644" lon="2.517460">
        <ele>570.325</ele>
        <time>2021-05-27T12:53:50Z</time>
      </trkpt>
      <trkpt lat="42.140729" lon="2.517380">
        <ele>570.682</ele>
        <time>2021-05-27T12:53:55Z</time>
      </trkpt>
      <trkpt lat="42.140812" lon="2.517308">
        <ele>570.917</ele>
        <time>2021-05-27T12:54:00Z</time>
      </trkpt>
      <trkpt lat="42.140879" lon="2.517202">
        <ele>571.070</ele>
        <time>2021-05-27T12:54:06Z</time>
      </trkpt>
      <trkpt lat="42.140941" lon="2.517087">
        <ele>571.046</ele>
        <time>2021-05-27T12:54:11Z</time>
      </trkpt>
      <trkpt lat="42.141019" lon="2.517012">
        <ele>571.095</ele>
        <time>2021-05-27T12:54:15Z</time>
      </trkpt>
      <trkpt lat="42.141088" lon="2.516907">
        <ele>571.149</ele>
        <time>2021-05-27T12:54:20Z</time>
      </trkpt>
      <trkpt lat="42.141141" lon="2.516792">
        <ele>571.523</ele>
        <time>2021-05-27T12:54:25Z</time>
      </trkpt>
      <trkpt lat="42.141188" lon="2.516678">
        <ele>571.708</ele>
        <time>2021-05-27T12:54:31Z</time>
      </trkpt>
      <trkpt lat="42.141239" lon="2.516556">
        <ele>571.756</ele>
        <time>2021-05-27T12:54:37Z</time>
      </trkpt>
      <trkpt lat="42.141297" lon="2.516450">
        <ele>571.923</ele>
        <time>2021-05-27T12:54:42Z</time>
      </trkpt>
      <trkpt lat="42.141354" lon="2.516336">
        <ele>572.021</ele>
        <time>2021-05-27T12:54:47Z</time>
      </trkpt>
      <trkpt lat="42.141431" lon="2.516242">
        <ele>572.141</ele>
        <time>2021-05-27T12:54:52Z</time>
      </trkpt>
      <trkpt lat="42.141516" lon="2.516190">
        <ele>572.388</ele>
        <time>2021-05-27T12:54:57Z</time>
      </trkpt>
      <trkpt lat="42.141604" lon="2.516152">
        <ele>572.743</ele>
        <time>2021-05-27T12:55:02Z</time>
      </trkpt>
      <trkpt lat="42.141719" lon="2.516112">
        <ele>573.086</ele>
        <time>2021-05-27T12:55:07Z</time>
      </trkpt>
      <trkpt lat="42.141811" lon="2.516058">
        <ele>573.132</ele>
        <time>2021-05-27T12:55:11Z</time>
      </trkpt>
      <trkpt lat="42.141833" lon="2.516048">
        <ele>573.177</ele>
        <time>2021-05-27T12:55:12Z</time>
      </trkpt>
      <trkpt lat="42.141851" lon="2.516041">
        <ele>573.261</ele>
        <time>2021-05-27T12:55:13Z</time>
      </trkpt>
      <trkpt lat="42.141872" lon="2.516030">
        <ele>573.227</ele>
        <time>2021-05-27T12:55:14Z</time>
      </trkpt>
      <trkpt lat="42.141900" lon="2.516022">
        <ele>573.308</ele>
        <time>2021-05-27T12:55:16Z</time>
      </trkpt>
      <trkpt lat="42.141944" lon="2.516010">
        <ele>573.424</ele>
        <time>2021-05-27T12:55:18Z</time>
      </trkpt>
      <trkpt lat="42.141966" lon="2.515997">
        <ele>573.491</ele>
        <time>2021-05-27T12:55:19Z</time>
      </trkpt>
      <trkpt lat="42.141984" lon="2.515983">
        <ele>573.429</ele>
        <time>2021-05-27T12:55:20Z</time>
      </trkpt>
      <trkpt lat="42.142000" lon="2.515971">
        <ele>573.489</ele>
        <time>2021-05-27T12:55:21Z</time>
      </trkpt>
      <trkpt lat="42.142032" lon="2.515947">
        <ele>573.466</ele>
        <time>2021-05-27T12:55:23Z</time>
      </trkpt>
      <trkpt lat="42.142049" lon="2.515935">
        <ele>573.491</ele>
        <time>2021-05-27T12:55:24Z</time>
      </trkpt>
      <trkpt lat="42.142081" lon="2.515905">
        <ele>573.484</ele>
        <time>2021-05-27T12:55:26Z</time>
      </trkpt>
      <trkpt lat="42.142098" lon="2.515894">
        <ele>573.420</ele>
        <time>2021-05-27T12:55:27Z</time>
      </trkpt>
      <trkpt lat="42.142115" lon="2.515882">
        <ele>573.356</ele>
        <time>2021-05-27T12:55:28Z</time>
      </trkpt>
      <trkpt lat="42.142150" lon="2.515853">
        <ele>573.259</ele>
        <time>2021-05-27T12:55:30Z</time>
      </trkpt>
      <trkpt lat="42.142166" lon="2.515840">
        <ele>573.214</ele>
        <time>2021-05-27T12:55:31Z</time>
      </trkpt>
      <trkpt lat="42.142194" lon="2.515814">
        <ele>573.208</ele>
        <time>2021-05-27T12:55:33Z</time>
      </trkpt>
      <trkpt lat="42.142209" lon="2.515798">
        <ele>573.242</ele>
        <time>2021-05-27T12:55:34Z</time>
      </trkpt>
      <trkpt lat="42.142225" lon="2.515780">
        <ele>573.249</ele>
        <time>2021-05-27T12:55:35Z</time>
      </trkpt>
      <trkpt lat="42.142242" lon="2.515766">
        <ele>573.227</ele>
        <time>2021-05-27T12:55:36Z</time>
      </trkpt>
      <trkpt lat="42.142257" lon="2.515751">
        <ele>573.377</ele>
        <time>2021-05-27T12:55:37Z</time>
      </trkpt>
      <trkpt lat="42.142277" lon="2.515738">
        <ele>573.354</ele>
        <time>2021-05-27T12:55:38Z</time>
      </trkpt>
      <trkpt lat="42.142296" lon="2.515727">
        <ele>573.349</ele>
        <time>2021-05-27T12:55:39Z</time>
      </trkpt>
      <trkpt lat="42.142316" lon="2.515710">
        <ele>573.362</ele>
        <time>2021-05-27T12:55:40Z</time>
      </trkpt>
      <trkpt lat="42.142333" lon="2.515696">
        <ele>573.338</ele>
        <time>2021-05-27T12:55:41Z</time>
      </trkpt>
      <trkpt lat="42.142348" lon="2.515681">
        <ele>573.379</ele>
        <time>2021-05-27T12:55:42Z</time>
      </trkpt>
      <trkpt lat="42.142365" lon="2.515665">
        <ele>573.305</ele>
        <time>2021-05-27T12:55:43Z</time>
      </trkpt>
      <trkpt lat="42.142379" lon="2.515649">
        <ele>573.325</ele>
        <time>2021-05-27T12:55:44Z</time>
      </trkpt>
      <trkpt lat="42.142395" lon="2.515634">
        <ele>573.308</ele>
        <time>2021-05-27T12:55:45Z</time>
      </trkpt>
      <trkpt lat="42.142490" lon="2.515590">
        <ele>573.064</ele>
        <time>2021-05-27T12:55:50Z</time>
      </trkpt>
      <trkpt lat="42.142594" lon="2.515581">
        <ele>573.011</ele>
        <time>2021-05-27T12:55:55Z</time>
      </trkpt>
      <trkpt lat="42.142689" lon="2.515623">
        <ele>573.299</ele>
        <time>2021-05-27T12:56:00Z</time>
      </trkpt>
      <trkpt lat="42.142789" lon="2.515610">
        <ele>573.299</ele>
        <time>2021-05-27T12:56:05Z</time>
      </trkpt>
      <trkpt lat="42.142882" lon="2.515638">
        <ele>573.066</ele>
        <time>2021-05-27T12:56:13Z</time>
      </trkpt>
      <trkpt lat="42.142975" lon="2.515663">
        <ele>573.011</ele>
        <time>2021-05-27T12:56:17Z</time>
      </trkpt>
      <trkpt lat="42.143073" lon="2.515696">
        <ele>572.994</ele>
        <time>2021-05-27T12:56:24Z</time>
      </trkpt>
      <trkpt lat="42.143154" lon="2.515753">
        <ele>572.950</ele>
        <time>2021-05-27T12:56:30Z</time>
      </trkpt>
      <trkpt lat="42.143251" lon="2.515824">
        <ele>572.638</ele>
        <time>2021-05-27T12:56:36Z</time>
      </trkpt>
      <trkpt lat="42.143329" lon="2.515902">
        <ele>572.370</ele>
        <time>2021-05-27T12:56:41Z</time>
      </trkpt>
      <trkpt lat="42.143428" lon="2.515945">
        <ele>572.117</ele>
        <time>2021-05-27T12:56:48Z</time>
      </trkpt>
      <trkpt lat="42.143529" lon="2.515974">
        <ele>571.808</ele>
        <time>2021-05-27T12:56:53Z</time>
      </trkpt>
      <trkpt lat="42.143649" lon="2.515957">
        <ele>571.470</ele>
        <time>2021-05-27T12:56:57Z</time>
      </trkpt>
      <trkpt lat="42.143751" lon="2.515955">
        <ele>571.247</ele>
        <time>2021-05-27T12:57:01Z</time>
      </trkpt>
      <trkpt lat="42.143854" lon="2.515941">
        <ele>571.075</ele>
        <time>2021-05-27T12:57:08Z</time>
      </trkpt>
      <trkpt lat="42.143924" lon="2.515807">
        <ele>571.295</ele>
        <time>2021-05-27T12:57:16Z</time>
      </trkpt>
      <trkpt lat="42.143936" lon="2.515684">
        <ele>571.622</ele>
        <time>2021-05-27T12:57:21Z</time>
      </trkpt>
      <trkpt lat="42.143889" lon="2.515567">
        <ele>572.077</ele>
        <time>2021-05-27T12:57:26Z</time>
      </trkpt>
      <trkpt lat="42.143882" lon="2.515428">
        <ele>572.060</ele>
        <time>2021-05-27T12:57:33Z</time>
      </trkpt>
      <trkpt lat="42.143888" lon="2.515294">
        <ele>572.046</ele>
        <time>2021-05-27T12:57:39Z</time>
      </trkpt>
      <trkpt lat="42.143901" lon="2.515154">
        <ele>572.123</ele>
        <time>2021-05-27T12:57:45Z</time>
      </trkpt>
      <trkpt lat="42.143947" lon="2.515030">
        <ele>572.483</ele>
        <time>2021-05-27T12:57:49Z</time>
      </trkpt>
      <trkpt lat="42.143956" lon="2.514889">
        <ele>572.411</ele>
        <time>2021-05-27T12:57:54Z</time>
      </trkpt>
      <trkpt lat="42.143949" lon="2.514756">
        <ele>572.208</ele>
        <time>2021-05-27T12:57:58Z</time>
      </trkpt>
      <trkpt lat="42.143982" lon="2.514629">
        <ele>572.429</ele>
        <time>2021-05-27T12:58:03Z</time>
      </trkpt>
      <trkpt lat="42.143986" lon="2.514475">
        <ele>572.716</ele>
        <time>2021-05-27T12:58:09Z</time>
      </trkpt>
      <trkpt lat="42.144000" lon="2.514318">
        <ele>573.324</ele>
        <time>2021-05-27T12:58:14Z</time>
      </trkpt>
      <trkpt lat="42.144001" lon="2.514165">
        <ele>574.074</ele>
        <time>2021-05-27T12:58:18Z</time>
      </trkpt>
      <trkpt lat="42.143994" lon="2.514033">
        <ele>573.551</ele>
        <time>2021-05-27T12:58:22Z</time>
      </trkpt>
      <trkpt lat="42.144018" lon="2.513899">
        <ele>573.496</ele>
        <time>2021-05-27T12:58:27Z</time>
      </trkpt>
      <trkpt lat="42.144053" lon="2.513787">
        <ele>573.539</ele>
        <time>2021-05-27T12:58:31Z</time>
      </trkpt>
      <trkpt lat="42.144108" lon="2.513684">
        <ele>573.495</ele>
        <time>2021-05-27T12:58:36Z</time>
      </trkpt>
      <trkpt lat="42.144172" lon="2.513562">
        <ele>573.114</ele>
        <time>2021-05-27T12:58:42Z</time>
      </trkpt>
      <trkpt lat="42.144215" lon="2.513454">
        <ele>573.454</ele>
        <time>2021-05-27T12:58:48Z</time>
      </trkpt>
      <trkpt lat="42.144223" lon="2.513320">
        <ele>573.009</ele>
        <time>2021-05-27T12:58:54Z</time>
      </trkpt>
      <trkpt lat="42.144231" lon="2.513190">
        <ele>572.908</ele>
        <time>2021-05-27T12:58:58Z</time>
      </trkpt>
      <trkpt lat="42.144244" lon="2.513047">
        <ele>572.898</ele>
        <time>2021-05-27T12:59:03Z</time>
      </trkpt>
      <trkpt lat="42.144242" lon="2.512902">
        <ele>573.335</ele>
        <time>2021-05-27T12:59:09Z</time>
      </trkpt>
      <trkpt lat="42.144233" lon="2.512763">
        <ele>573.433</ele>
        <time>2021-05-27T12:59:13Z</time>
      </trkpt>
      <trkpt lat="42.144208" lon="2.512638">
        <ele>570.273</ele>
        <time>2021-05-27T12:59:18Z</time>
      </trkpt>
      <trkpt lat="42.144112" lon="2.512573">
        <ele>568.730</ele>
        <time>2021-05-27T12:59:25Z</time>
      </trkpt>
      <trkpt lat="42.144001" lon="2.512536">
        <ele>567.435</ele>
        <time>2021-05-27T12:59:31Z</time>
      </trkpt>
      <trkpt lat="42.143902" lon="2.512488">
        <ele>565.998</ele>
        <time>2021-05-27T12:59:37Z</time>
      </trkpt>
      <trkpt lat="42.143873" lon="2.512352">
        <ele>563.884</ele>
        <time>2021-05-27T12:59:42Z</time>
      </trkpt>
      <trkpt lat="42.143882" lon="2.512212">
        <ele>562.022</ele>
        <time>2021-05-27T12:59:47Z</time>
      </trkpt>
      <trkpt lat="42.143888" lon="2.512090">
        <ele>562.062</ele>
        <time>2021-05-27T12:59:51Z</time>
      </trkpt>
      <trkpt lat="42.143888" lon="2.511967">
        <ele>562.008</ele>
        <time>2021-05-27T12:59:56Z</time>
      </trkpt>
      <trkpt lat="42.143926" lon="2.511842">
        <ele>562.508</ele>
        <time>2021-05-27T13:00:02Z</time>
      </trkpt>
      <trkpt lat="42.143962" lon="2.511729">
        <ele>563.449</ele>
        <time>2021-05-27T13:00:07Z</time>
      </trkpt>
      <trkpt lat="42.143977" lon="2.511591">
        <ele>563.846</ele>
        <time>2021-05-27T13:00:12Z</time>
      </trkpt>
      <trkpt lat="42.144027" lon="2.511474">
        <ele>563.854</ele>
        <time>2021-05-27T13:00:18Z</time>
      </trkpt>
      <trkpt lat="42.144115" lon="2.511396">
        <ele>563.924</ele>
        <time>2021-05-27T13:00:23Z</time>
      </trkpt>
      <trkpt lat="42.144198" lon="2.511336">
        <ele>563.481</ele>
        <time>2021-05-27T13:00:28Z</time>
      </trkpt>
      <trkpt lat="42.144314" lon="2.511329">
        <ele>564.096</ele>
        <time>2021-05-27T13:00:34Z</time>
      </trkpt>
      <trkpt lat="42.144415" lon="2.511274">
        <ele>563.419</ele>
        <time>2021-05-27T13:00:40Z</time>
      </trkpt>
      <trkpt lat="42.144504" lon="2.511220">
        <ele>563.415</ele>
        <time>2021-05-27T13:00:44Z</time>
      </trkpt>
      <trkpt lat="42.144587" lon="2.511143">
        <ele>563.398</ele>
        <time>2021-05-27T13:00:48Z</time>
      </trkpt>
      <trkpt lat="42.144666" lon="2.511044">
        <ele>562.615</ele>
        <time>2021-05-27T13:00:53Z</time>
      </trkpt>
      <trkpt lat="42.144756" lon="2.510961">
        <ele>562.426</ele>
        <time>2021-05-27T13:00:58Z</time>
      </trkpt>
      <trkpt lat="42.144825" lon="2.510872">
        <ele>561.408</ele>
        <time>2021-05-27T13:01:02Z</time>
      </trkpt>
      <trkpt lat="42.144906" lon="2.510806">
        <ele>561.286</ele>
        <time>2021-05-27T13:01:07Z</time>
      </trkpt>
      <trkpt lat="42.144993" lon="2.510759">
        <ele>561.883</ele>
        <time>2021-05-27T13:01:13Z</time>
      </trkpt>
      <trkpt lat="42.145073" lon="2.510687">
        <ele>562.331</ele>
        <time>2021-05-27T13:01:19Z</time>
      </trkpt>
      <trkpt lat="42.145156" lon="2.510601">
        <ele>562.661</ele>
        <time>2021-05-27T13:01:26Z</time>
      </trkpt>
      <trkpt lat="42.145246" lon="2.510533">
        <ele>563.158</ele>
        <time>2021-05-27T13:01:34Z</time>
      </trkpt>
      <trkpt lat="42.145334" lon="2.510489">
        <ele>562.883</ele>
        <time>2021-05-27T13:01:38Z</time>
      </trkpt>
      <trkpt lat="42.145423" lon="2.510555">
        <ele>563.536</ele>
        <time>2021-05-27T13:01:44Z</time>
      </trkpt>
      <trkpt lat="42.145482" lon="2.510665">
        <ele>565.832</ele>
        <time>2021-05-27T13:01:49Z</time>
      </trkpt>
      <trkpt lat="42.145544" lon="2.510765">
        <ele>568.391</ele>
        <time>2021-05-27T13:01:55Z</time>
      </trkpt>
      <trkpt lat="42.145642" lon="2.510809">
        <ele>567.381</ele>
        <time>2021-05-27T13:02:01Z</time>
      </trkpt>
      <trkpt lat="42.145727" lon="2.510866">
        <ele>566.419</ele>
        <time>2021-05-27T13:02:05Z</time>
      </trkpt>
      <trkpt lat="42.145826" lon="2.510928">
        <ele>565.608</ele>
        <time>2021-05-27T13:02:10Z</time>
      </trkpt>
      <trkpt lat="42.145919" lon="2.510989">
        <ele>565.296</ele>
        <time>2021-05-27T13:02:16Z</time>
      </trkpt>
      <trkpt lat="42.146014" lon="2.511046">
        <ele>564.643</ele>
        <time>2021-05-27T13:02:21Z</time>
      </trkpt>
      <trkpt lat="42.146102" lon="2.511119">
        <ele>564.371</ele>
        <time>2021-05-27T13:02:25Z</time>
      </trkpt>
      <trkpt lat="42.146164" lon="2.511220">
        <ele>564.891</ele>
        <time>2021-05-27T13:02:30Z</time>
      </trkpt>
      <trkpt lat="42.146244" lon="2.511291">
        <ele>564.498</ele>
        <time>2021-05-27T13:02:36Z</time>
      </trkpt>
      <trkpt lat="42.146320" lon="2.511367">
        <ele>564.133</ele>
        <time>2021-05-27T13:02:41Z</time>
      </trkpt>
      <trkpt lat="42.146401" lon="2.511420">
        <ele>563.496</ele>
        <time>2021-05-27T13:02:47Z</time>
      </trkpt>
      <trkpt lat="42.146497" lon="2.511440">
        <ele>562.442</ele>
        <time>2021-05-27T13:02:52Z</time>
      </trkpt>
      <trkpt lat="42.146588" lon="2.511472">
        <ele>561.865</ele>
        <time>2021-05-27T13:02:56Z</time>
      </trkpt>
      <trkpt lat="42.146685" lon="2.511505">
        <ele>561.468</ele>
        <time>2021-05-27T13:03:00Z</time>
      </trkpt>
      <trkpt lat="42.146781" lon="2.511531">
        <ele>561.714</ele>
        <time>2021-05-27T13:03:04Z</time>
      </trkpt>
      <trkpt lat="42.146872" lon="2.511518">
        <ele>561.008</ele>
        <time>2021-05-27T13:03:08Z</time>
      </trkpt>
      <trkpt lat="42.146973" lon="2.511478">
        <ele>560.433</ele>
        <time>2021-05-27T13:03:12Z</time>
      </trkpt>
      <trkpt lat="42.147076" lon="2.511432">
        <ele>560.950</ele>
        <time>2021-05-27T13:03:17Z</time>
      </trkpt>
      <trkpt lat="42.147128" lon="2.511388">
        <ele>560.698</ele>
        <time>2021-05-27T13:03:20Z</time>
      </trkpt>
      <trkpt lat="42.147162" lon="2.511364">
        <ele>560.558</ele>
        <time>2021-05-27T13:03:22Z</time>
      </trkpt>
      <trkpt lat="42.147259" lon="2.511328">
        <ele>561.755</ele>
        <time>2021-05-27T13:03:27Z</time>
      </trkpt>
      <trkpt lat="42.147338" lon="2.511229">
        <ele>561.280</ele>
        <time>2021-05-27T13:03:33Z</time>
      </trkpt>
      <trkpt lat="42.147432" lon="2.511164">
        <ele>561.473</ele>
        <time>2021-05-27T13:03:38Z</time>
      </trkpt>
      <trkpt lat="42.147533" lon="2.511111">
        <ele>561.839</ele>
        <time>2021-05-27T13:03:43Z</time>
      </trkpt>
      <trkpt lat="42.147617" lon="2.511050">
        <ele>561.831</ele>
        <time>2021-05-27T13:03:48Z</time>
      </trkpt>
      <trkpt lat="42.147709" lon="2.511002">
        <ele>561.961</ele>
        <time>2021-05-27T13:03:52Z</time>
      </trkpt>
      <trkpt lat="42.147808" lon="2.510984">
        <ele>562.807</ele>
        <time>2021-05-27T13:03:57Z</time>
      </trkpt>
      <trkpt lat="42.147899" lon="2.510913">
        <ele>560.808</ele>
        <time>2021-05-27T13:04:03Z</time>
      </trkpt>
      <trkpt lat="42.148002" lon="2.510923">
        <ele>562.370</ele>
        <time>2021-05-27T13:04:09Z</time>
      </trkpt>
      <trkpt lat="42.148062" lon="2.510832">
        <ele>560.187</ele>
        <time>2021-05-27T13:04:17Z</time>
      </trkpt>
      <trkpt lat="42.148142" lon="2.510745">
        <ele>559.895</ele>
        <time>2021-05-27T13:04:23Z</time>
      </trkpt>
      <trkpt lat="42.148216" lon="2.510658">
        <ele>559.045</ele>
        <time>2021-05-27T13:04:27Z</time>
      </trkpt>
      <trkpt lat="42.148288" lon="2.510575">
        <ele>558.082</ele>
        <time>2021-05-27T13:04:32Z</time>
      </trkpt>
      <trkpt lat="42.148375" lon="2.510516">
        <ele>557.447</ele>
        <time>2021-05-27T13:04:36Z</time>
      </trkpt>
      <trkpt lat="42.148476" lon="2.510490">
        <ele>555.860</ele>
        <time>2021-05-27T13:04:41Z</time>
      </trkpt>
      <trkpt lat="42.148568" lon="2.510538">
        <ele>554.616</ele>
        <time>2021-05-27T13:04:48Z</time>
      </trkpt>
      <trkpt lat="42.148674" lon="2.510621">
        <ele>554.573</ele>
        <time>2021-05-27T13:04:53Z</time>
      </trkpt>
      <trkpt lat="42.148773" lon="2.510597">
        <ele>554.385</ele>
        <time>2021-05-27T13:04:59Z</time>
      </trkpt>
      <trkpt lat="42.148876" lon="2.510601">
        <ele>554.313</ele>
        <time>2021-05-27T13:05:04Z</time>
      </trkpt>
      <trkpt lat="42.148974" lon="2.510582">
        <ele>554.208</ele>
        <time>2021-05-27T13:05:08Z</time>
      </trkpt>
      <trkpt lat="42.149085" lon="2.510581">
        <ele>554.144</ele>
        <time>2021-05-27T13:05:12Z</time>
      </trkpt>
      <trkpt lat="42.149175" lon="2.510558">
        <ele>554.011</ele>
        <time>2021-05-27T13:05:17Z</time>
      </trkpt>
      <trkpt lat="42.149281" lon="2.510533">
        <ele>554.059</ele>
        <time>2021-05-27T13:05:22Z</time>
      </trkpt>
      <trkpt lat="42.149365" lon="2.510484">
        <ele>553.889</ele>
        <time>2021-05-27T13:05:28Z</time>
      </trkpt>
      <trkpt lat="42.149470" lon="2.510504">
        <ele>553.716</ele>
        <time>2021-05-27T13:05:33Z</time>
      </trkpt>
      <trkpt lat="42.149560" lon="2.510541">
        <ele>553.541</ele>
        <time>2021-05-27T13:05:38Z</time>
      </trkpt>
      <trkpt lat="42.149662" lon="2.510558">
        <ele>553.214</ele>
        <time>2021-05-27T13:05:44Z</time>
      </trkpt>
      <trkpt lat="42.149759" lon="2.510588">
        <ele>553.180</ele>
        <time>2021-05-27T13:05:48Z</time>
      </trkpt>
      <trkpt lat="42.149855" lon="2.510593">
        <ele>553.168</ele>
        <time>2021-05-27T13:05:52Z</time>
      </trkpt>
      <trkpt lat="42.149947" lon="2.510621">
        <ele>553.242</ele>
        <time>2021-05-27T13:05:57Z</time>
      </trkpt>
      <trkpt lat="42.150042" lon="2.510618">
        <ele>553.126</ele>
        <time>2021-05-27T13:06:02Z</time>
      </trkpt>
      <trkpt lat="42.150146" lon="2.510641">
        <ele>552.808</ele>
        <time>2021-05-27T13:06:08Z</time>
      </trkpt>
      <trkpt lat="42.150263" lon="2.510637">
        <ele>552.343</ele>
        <time>2021-05-27T13:06:13Z</time>
      </trkpt>
      <trkpt lat="42.150360" lon="2.510613">
        <ele>552.770</ele>
        <time>2021-05-27T13:06:16Z</time>
      </trkpt>
      <trkpt lat="42.150451" lon="2.510638">
        <ele>553.468</ele>
        <time>2021-05-27T13:06:19Z</time>
      </trkpt>
      <trkpt lat="42.150551" lon="2.510710">
        <ele>554.068</ele>
        <time>2021-05-27T13:06:25Z</time>
      </trkpt>
      <trkpt lat="42.150655" lon="2.510700">
        <ele>554.565</ele>
        <time>2021-05-27T13:06:31Z</time>
      </trkpt>
      <trkpt lat="42.150762" lon="2.510698">
        <ele>555.180</ele>
        <time>2021-05-27T13:06:35Z</time>
      </trkpt>
      <trkpt lat="42.150857" lon="2.510683">
        <ele>555.563</ele>
        <time>2021-05-27T13:06:41Z</time>
      </trkpt>
      <trkpt lat="42.150949" lon="2.510695">
        <ele>555.949</ele>
        <time>2021-05-27T13:06:46Z</time>
      </trkpt>
      <trkpt lat="42.151037" lon="2.510738">
        <ele>556.427</ele>
        <time>2021-05-27T13:06:52Z</time>
      </trkpt>
      <trkpt lat="42.151136" lon="2.510756">
        <ele>556.868</ele>
        <time>2021-05-27T13:07:00Z</time>
      </trkpt>
      <trkpt lat="42.151224" lon="2.510809">
        <ele>557.414</ele>
        <time>2021-05-27T13:07:07Z</time>
      </trkpt>
      <trkpt lat="42.151318" lon="2.510845">
        <ele>557.708</ele>
        <time>2021-05-27T13:07:13Z</time>
      </trkpt>
      <trkpt lat="42.151412" lon="2.510883">
        <ele>558.399</ele>
        <time>2021-05-27T13:07:22Z</time>
      </trkpt>
      <trkpt lat="42.151465" lon="2.510986">
        <ele>558.636</ele>
        <time>2021-05-27T13:07:30Z</time>
      </trkpt>
      <trkpt lat="42.151549" lon="2.511041">
        <ele>559.024</ele>
        <time>2021-05-27T13:07:39Z</time>
      </trkpt>
      <trkpt lat="42.151645" lon="2.511024">
        <ele>559.824</ele>
        <time>2021-05-27T13:07:44Z</time>
      </trkpt>
      <trkpt lat="42.151741" lon="2.511004">
        <ele>559.681</ele>
        <time>2021-05-27T13:07:51Z</time>
      </trkpt>
      <trkpt lat="42.151827" lon="2.510951">
        <ele>559.256</ele>
        <time>2021-05-27T13:07:59Z</time>
      </trkpt>
      <trkpt lat="42.151916" lon="2.510875">
        <ele>558.459</ele>
        <time>2021-05-27T13:08:05Z</time>
      </trkpt>
      <trkpt lat="42.151997" lon="2.510790">
        <ele>558.145</ele>
        <time>2021-05-27T13:08:12Z</time>
      </trkpt>
      <trkpt lat="42.152072" lon="2.510717">
        <ele>558.219</ele>
        <time>2021-05-27T13:08:19Z</time>
      </trkpt>
      <trkpt lat="42.152158" lon="2.510660">
        <ele>558.109</ele>
        <time>2021-05-27T13:08:24Z</time>
      </trkpt>
      <trkpt lat="42.152250" lon="2.510640">
        <ele>558.019</ele>
        <time>2021-05-27T13:08:31Z</time>
      </trkpt>
      <trkpt lat="42.152350" lon="2.510646">
        <ele>558.008</ele>
        <time>2021-05-27T13:08:41Z</time>
      </trkpt>
      <trkpt lat="42.152442" lon="2.510644">
        <ele>558.078</ele>
        <time>2021-05-27T13:08:49Z</time>
      </trkpt>
      <trkpt lat="42.152522" lon="2.510573">
        <ele>558.015</ele>
        <time>2021-05-27T13:08:53Z</time>
      </trkpt>
      <trkpt lat="42.152612" lon="2.510528">
        <ele>558.143</ele>
        <time>2021-05-27T13:09:00Z</time>
      </trkpt>
      <trkpt lat="42.152698" lon="2.510469">
        <ele>558.323</ele>
        <time>2021-05-27T13:09:08Z</time>
      </trkpt>
      <trkpt lat="42.152777" lon="2.510388">
        <ele>558.610</ele>
        <time>2021-05-27T13:09:13Z</time>
      </trkpt>
      <trkpt lat="42.152823" lon="2.510265">
        <ele>559.715</ele>
        <time>2021-05-27T13:09:22Z</time>
      </trkpt>
      <trkpt lat="42.152889" lon="2.510181">
        <ele>560.018</ele>
        <time>2021-05-27T13:09:28Z</time>
      </trkpt>
      <trkpt lat="42.152952" lon="2.510078">
        <ele>559.234</ele>
        <time>2021-05-27T13:09:36Z</time>
      </trkpt>
      <trkpt lat="42.152991" lon="2.509951">
        <ele>557.771</ele>
        <time>2021-05-27T13:09:43Z</time>
      </trkpt>
      <trkpt lat="42.153027" lon="2.509835">
        <ele>556.941</ele>
        <time>2021-05-27T13:09:49Z</time>
      </trkpt>
      <trkpt lat="42.153102" lon="2.509743">
        <ele>556.015</ele>
        <time>2021-05-27T13:09:55Z</time>
      </trkpt>
      <trkpt lat="42.153194" lon="2.509677">
        <ele>555.408</ele>
        <time>2021-05-27T13:10:01Z</time>
      </trkpt>
      <trkpt lat="42.153261" lon="2.509583">
        <ele>555.194</ele>
        <time>2021-05-27T13:10:08Z</time>
      </trkpt>
      <trkpt lat="42.153300" lon="2.509461">
        <ele>555.011</ele>
        <time>2021-05-27T13:10:15Z</time>
      </trkpt>
      <trkpt lat="42.153331" lon="2.509397">
        <ele>555.249</ele>
        <time>2021-05-27T13:10:20Z</time>
      </trkpt>
      <trkpt lat="42.153401" lon="2.509320">
        <ele>555.139</ele>
        <time>2021-05-27T13:10:28Z</time>
      </trkpt>
      <trkpt lat="42.153484" lon="2.509256">
        <ele>554.886</ele>
        <time>2021-05-27T13:10:36Z</time>
      </trkpt>
      <trkpt lat="42.153552" lon="2.509151">
        <ele>554.411</ele>
        <time>2021-05-27T13:10:43Z</time>
      </trkpt>
      <trkpt lat="42.153582" lon="2.509036">
        <ele>554.114</ele>
        <time>2021-05-27T13:10:52Z</time>
      </trkpt>
      <trkpt lat="42.153670" lon="2.508999">
        <ele>554.070</ele>
        <time>2021-05-27T13:10:58Z</time>
      </trkpt>
      <trkpt lat="42.153766" lon="2.508978">
        <ele>554.088</ele>
        <time>2021-05-27T13:11:07Z</time>
      </trkpt>
      <trkpt lat="42.153866" lon="2.508961">
        <ele>554.024</ele>
        <time>2021-05-27T13:11:13Z</time>
      </trkpt>
      <trkpt lat="42.153960" lon="2.508930">
        <ele>555.226</ele>
        <time>2021-05-27T13:11:21Z</time>
      </trkpt>
      <trkpt lat="42.154063" lon="2.508929">
        <ele>556.908</ele>
        <time>2021-05-27T13:11:27Z</time>
      </trkpt>
      <trkpt lat="42.154125" lon="2.509024">
        <ele>557.055</ele>
        <time>2021-05-27T13:11:37Z</time>
      </trkpt>
      <trkpt lat="42.154229" lon="2.509021">
        <ele>557.262</ele>
        <time>2021-05-27T13:11:44Z</time>
      </trkpt>
      <trkpt lat="42.154312" lon="2.509075">
        <ele>556.310</ele>
        <time>2021-05-27T13:11:50Z</time>
      </trkpt>
      <trkpt lat="42.154403" lon="2.509095">
        <ele>555.730</ele>
        <time>2021-05-27T13:12:00Z</time>
      </trkpt>
      <trkpt lat="42.154490" lon="2.509129">
        <ele>555.287</ele>
        <time>2021-05-27T13:12:03Z</time>
      </trkpt>
      <trkpt lat="42.154587" lon="2.509089">
        <ele>555.312</ele>
        <time>2021-05-27T13:12:07Z</time>
      </trkpt>
      <trkpt lat="42.154676" lon="2.509060">
        <ele>555.155</ele>
        <time>2021-05-27T13:12:12Z</time>
      </trkpt>
      <trkpt lat="42.154779" lon="2.509043">
        <ele>555.021</ele>
        <time>2021-05-27T13:12:21Z</time>
      </trkpt>
      <trkpt lat="42.154859" lon="2.508960">
        <ele>555.011</ele>
        <time>2021-05-27T13:12:32Z</time>
      </trkpt>
      <trkpt lat="42.154940" lon="2.508898">
        <ele>555.021</ele>
        <time>2021-05-27T13:12:38Z</time>
      </trkpt>
      <trkpt lat="42.155031" lon="2.508850">
        <ele>555.103</ele>
        <time>2021-05-27T13:12:45Z</time>
      </trkpt>
      <trkpt lat="42.155126" lon="2.508863">
        <ele>555.508</ele>
        <time>2021-05-27T13:12:52Z</time>
      </trkpt>
      <trkpt lat="42.155217" lon="2.508849">
        <ele>556.098</ele>
        <time>2021-05-27T13:12:59Z</time>
      </trkpt>
      <trkpt lat="42.155303" lon="2.508812">
        <ele>556.785</ele>
        <time>2021-05-27T13:13:07Z</time>
      </trkpt>
      <trkpt lat="42.155373" lon="2.508719">
        <ele>557.223</ele>
        <time>2021-05-27T13:13:18Z</time>
      </trkpt>
      <trkpt lat="42.155441" lon="2.508627">
        <ele>556.913</ele>
        <time>2021-05-27T13:13:26Z</time>
      </trkpt>
      <trkpt lat="42.155529" lon="2.508564">
        <ele>556.250</ele>
        <time>2021-05-27T13:13:31Z</time>
      </trkpt>
      <trkpt lat="42.155618" lon="2.508542">
        <ele>556.345</ele>
        <time>2021-05-27T13:13:36Z</time>
      </trkpt>
      <trkpt lat="42.155699" lon="2.508452">
        <ele>556.118</ele>
        <time>2021-05-27T13:13:44Z</time>
      </trkpt>
      <trkpt lat="42.155790" lon="2.508406">
        <ele>555.884</ele>
        <time>2021-05-27T13:13:50Z</time>
      </trkpt>
      <trkpt lat="42.155868" lon="2.508330">
        <ele>555.187</ele>
        <time>2021-05-27T13:14:00Z</time>
      </trkpt>
      <trkpt lat="42.155955" lon="2.508372">
        <ele>555.742</ele>
        <time>2021-05-27T13:14:05Z</time>
      </trkpt>
      <trkpt lat="42.156021" lon="2.508286">
        <ele>556.026</ele>
        <time>2021-05-27T13:14:17Z</time>
      </trkpt>
      <trkpt lat="42.156107" lon="2.508240">
        <ele>556.708</ele>
        <time>2021-05-27T13:14:22Z</time>
      </trkpt>
      <trkpt lat="42.156191" lon="2.508189">
        <ele>557.635</ele>
        <time>2021-05-27T13:14:26Z</time>
      </trkpt>
      <trkpt lat="42.156267" lon="2.508110">
        <ele>558.472</ele>
        <time>2021-05-27T13:14:30Z</time>
      </trkpt>
      <trkpt lat="42.156309" lon="2.507984">
        <ele>558.440</ele>
        <time>2021-05-27T13:14:37Z</time>
      </trkpt>
      <trkpt lat="42.156378" lon="2.507892">
        <ele>557.930</ele>
        <time>2021-05-27T13:14:45Z</time>
      </trkpt>
      <trkpt lat="42.156368" lon="2.507761">
        <ele>557.017</ele>
        <time>2021-05-27T13:15:01Z</time>
      </trkpt>
      <trkpt lat="42.156348" lon="2.507631">
        <ele>556.412</ele>
        <time>2021-05-27T13:15:07Z</time>
      </trkpt>
      <trkpt lat="42.156360" lon="2.507510">
        <ele>555.535</ele>
        <time>2021-05-27T13:15:13Z</time>
      </trkpt>
      <trkpt lat="42.156391" lon="2.507379">
        <ele>555.111</ele>
        <time>2021-05-27T13:15:18Z</time>
      </trkpt>
      <trkpt lat="42.156442" lon="2.507278">
        <ele>555.922</ele>
        <time>2021-05-27T13:15:21Z</time>
      </trkpt>
      <trkpt lat="42.156464" lon="2.507157">
        <ele>555.962</ele>
        <time>2021-05-27T13:15:30Z</time>
      </trkpt>
      <trkpt lat="42.156540" lon="2.507049">
        <ele>555.508</ele>
        <time>2021-05-27T13:15:39Z</time>
      </trkpt>
      <trkpt lat="42.156635" lon="2.507031">
        <ele>554.208</ele>
        <time>2021-05-27T13:15:45Z</time>
      </trkpt>
      <trkpt lat="42.156693" lon="2.506919">
        <ele>552.579</ele>
        <time>2021-05-27T13:15:52Z</time>
      </trkpt>
      <trkpt lat="42.156778" lon="2.506848">
        <ele>553.536</ele>
        <time>2021-05-27T13:16:02Z</time>
      </trkpt>
      <trkpt lat="42.156869" lon="2.506781">
        <ele>553.754</ele>
        <time>2021-05-27T13:16:07Z</time>
      </trkpt>
      <trkpt lat="42.156932" lon="2.506675">
        <ele>553.264</ele>
        <time>2021-05-27T13:16:14Z</time>
      </trkpt>
      <trkpt lat="42.156982" lon="2.506570">
        <ele>553.771</ele>
        <time>2021-05-27T13:16:20Z</time>
      </trkpt>
      <trkpt lat="42.157068" lon="2.506491">
        <ele>554.866</ele>
        <time>2021-05-27T13:16:26Z</time>
      </trkpt>
      <trkpt lat="42.157135" lon="2.506410">
        <ele>555.229</ele>
        <time>2021-05-27T13:16:32Z</time>
      </trkpt>
      <trkpt lat="42.157188" lon="2.506292">
        <ele>555.235</ele>
        <time>2021-05-27T13:16:39Z</time>
      </trkpt>
      <trkpt lat="42.157248" lon="2.506178">
        <ele>554.578</ele>
        <time>2021-05-27T13:16:47Z</time>
      </trkpt>
      <trkpt lat="42.157333" lon="2.506105">
        <ele>554.033</ele>
        <time>2021-05-27T13:16:56Z</time>
      </trkpt>
      <trkpt lat="42.157435" lon="2.506065">
        <ele>554.026</ele>
        <time>2021-05-27T13:17:03Z</time>
      </trkpt>
      <trkpt lat="42.157493" lon="2.505968">
        <ele>553.508</ele>
        <time>2021-05-27T13:17:11Z</time>
      </trkpt>
      <trkpt lat="42.157550" lon="2.505873">
        <ele>553.144</ele>
        <time>2021-05-27T13:17:18Z</time>
      </trkpt>
      <trkpt lat="42.157619" lon="2.505787">
        <ele>552.881</ele>
        <time>2021-05-27T13:17:24Z</time>
      </trkpt>
      <trkpt lat="42.157691" lon="2.505711">
        <ele>552.379</ele>
        <time>2021-05-27T13:17:33Z</time>
      </trkpt>
      <trkpt lat="42.157759" lon="2.505623">
        <ele>551.589</ele>
        <time>2021-05-27T13:17:40Z</time>
      </trkpt>
      <trkpt lat="42.157820" lon="2.505529">
        <ele>551.166</ele>
        <time>2021-05-27T13:17:46Z</time>
      </trkpt>
      <trkpt lat="42.157891" lon="2.505423">
        <ele>550.421</ele>
        <time>2021-05-27T13:17:51Z</time>
      </trkpt>
      <trkpt lat="42.157961" lon="2.505328">
        <ele>548.854</ele>
        <time>2021-05-27T13:17:56Z</time>
      </trkpt>
      <trkpt lat="42.158054" lon="2.505255">
        <ele>547.180</ele>
        <time>2021-05-27T13:18:02Z</time>
      </trkpt>
      <trkpt lat="42.158147" lon="2.505192">
        <ele>547.667</ele>
        <time>2021-05-27T13:18:07Z</time>
      </trkpt>
      <trkpt lat="42.158234" lon="2.505158">
        <ele>547.681</ele>
        <time>2021-05-27T13:18:12Z</time>
      </trkpt>
      <trkpt lat="42.158324" lon="2.505129">
        <ele>547.419</ele>
        <time>2021-05-27T13:18:17Z</time>
      </trkpt>
      <trkpt lat="42.158427" lon="2.505171">
        <ele>548.308</ele>
        <time>2021-05-27T13:18:21Z</time>
      </trkpt>
      <trkpt lat="42.158526" lon="2.505181">
        <ele>548.993</ele>
        <time>2021-05-27T13:18:26Z</time>
      </trkpt>
      <trkpt lat="42.158600" lon="2.505108">
        <ele>547.960</ele>
        <time>2021-05-27T13:18:31Z</time>
      </trkpt>
      <trkpt lat="42.158647" lon="2.504984">
        <ele>546.468</ele>
        <time>2021-05-27T13:18:38Z</time>
      </trkpt>
      <trkpt lat="42.158705" lon="2.504878">
        <ele>546.778</ele>
        <time>2021-05-27T13:18:42Z</time>
      </trkpt>
      <trkpt lat="42.158783" lon="2.504785">
        <ele>546.235</ele>
        <time>2021-05-27T13:18:46Z</time>
      </trkpt>
      <trkpt lat="42.158870" lon="2.504728">
        <ele>545.280</ele>
        <time>2021-05-27T13:18:51Z</time>
      </trkpt>
      <trkpt lat="42.158953" lon="2.504668">
        <ele>545.873</ele>
        <time>2021-05-27T13:18:59Z</time>
      </trkpt>
      <trkpt lat="42.159002" lon="2.504546">
        <ele>545.779</ele>
        <time>2021-05-27T13:19:05Z</time>
      </trkpt>
      <trkpt lat="42.159076" lon="2.504466">
        <ele>544.575</ele>
        <time>2021-05-27T13:19:09Z</time>
      </trkpt>
      <trkpt lat="42.159122" lon="2.504354">
        <ele>543.628</ele>
        <time>2021-05-27T13:19:14Z</time>
      </trkpt>
      <trkpt lat="42.159139" lon="2.504218">
        <ele>543.420</ele>
        <time>2021-05-27T13:19:18Z</time>
      </trkpt>
      <trkpt lat="42.159141" lon="2.504048">
        <ele>543.808</ele>
        <time>2021-05-27T13:19:21Z</time>
      </trkpt>
      <trkpt lat="42.159134" lon="2.503912">
        <ele>544.364</ele>
        <time>2021-05-27T13:19:24Z</time>
      </trkpt>
      <trkpt lat="42.159235" lon="2.503925">
        <ele>542.771</ele>
        <time>2021-05-27T13:19:29Z</time>
      </trkpt>
      <trkpt lat="42.159333" lon="2.503909">
        <ele>541.029</ele>
        <time>2021-05-27T13:19:35Z</time>
      </trkpt>
      <trkpt lat="42.159403" lon="2.503830">
        <ele>539.489</ele>
        <time>2021-05-27T13:19:42Z</time>
      </trkpt>
      <trkpt lat="42.159480" lon="2.503738">
        <ele>538.166</ele>
        <time>2021-05-27T13:19:47Z</time>
      </trkpt>
      <trkpt lat="42.159500" lon="2.503605">
        <ele>537.481</ele>
        <time>2021-05-27T13:19:54Z</time>
      </trkpt>
      <trkpt lat="42.159509" lon="2.503481">
        <ele>537.324</ele>
        <time>2021-05-27T13:19:58Z</time>
      </trkpt>
      <trkpt lat="42.159540" lon="2.503348">
        <ele>537.050</ele>
        <time>2021-05-27T13:20:02Z</time>
      </trkpt>
      <trkpt lat="42.159561" lon="2.503214">
        <ele>536.737</ele>
        <time>2021-05-27T13:20:08Z</time>
      </trkpt>
      <trkpt lat="42.159558" lon="2.503072">
        <ele>536.649</ele>
        <time>2021-05-27T13:20:14Z</time>
      </trkpt>
      <trkpt lat="42.159500" lon="2.502954">
        <ele>535.813</ele>
        <time>2021-05-27T13:20:19Z</time>
      </trkpt>
      <trkpt lat="42.159507" lon="2.502832">
        <ele>534.508</ele>
        <time>2021-05-27T13:20:25Z</time>
      </trkpt>
      <trkpt lat="42.159516" lon="2.502682">
        <ele>533.830</ele>
        <time>2021-05-27T13:20:31Z</time>
      </trkpt>
      <trkpt lat="42.159536" lon="2.502555">
        <ele>533.567</ele>
        <time>2021-05-27T13:20:35Z</time>
      </trkpt>
      <trkpt lat="42.159590" lon="2.502442">
        <ele>533.125</ele>
        <time>2021-05-27T13:20:41Z</time>
      </trkpt>
      <trkpt lat="42.159679" lon="2.502361">
        <ele>532.795</ele>
        <time>2021-05-27T13:20:46Z</time>
      </trkpt>
      <trkpt lat="42.159748" lon="2.502279">
        <ele>532.872</ele>
        <time>2021-05-27T13:20:51Z</time>
      </trkpt>
      <trkpt lat="42.159838" lon="2.502199">
        <ele>533.187</ele>
        <time>2021-05-27T13:20:56Z</time>
      </trkpt>
      <trkpt lat="42.159913" lon="2.502118">
        <ele>533.580</ele>
        <time>2021-05-27T13:21:01Z</time>
      </trkpt>
      <trkpt lat="42.159987" lon="2.502039">
        <ele>533.786</ele>
        <time>2021-05-27T13:21:07Z</time>
      </trkpt>
      <trkpt lat="42.160063" lon="2.501959">
        <ele>534.019</ele>
        <time>2021-05-27T13:21:12Z</time>
      </trkpt>
      <trkpt lat="42.160142" lon="2.501870">
        <ele>534.109</ele>
        <time>2021-05-27T13:21:16Z</time>
      </trkpt>
      <trkpt lat="42.160223" lon="2.501794">
        <ele>533.819</ele>
        <time>2021-05-27T13:21:22Z</time>
      </trkpt>
      <trkpt lat="42.160271" lon="2.501664">
        <ele>533.108</ele>
        <time>2021-05-27T13:21:28Z</time>
      </trkpt>
      <trkpt lat="42.160336" lon="2.501576">
        <ele>532.268</ele>
        <time>2021-05-27T13:21:34Z</time>
      </trkpt>
      <trkpt lat="42.160425" lon="2.501545">
        <ele>531.545</ele>
        <time>2021-05-27T13:21:41Z</time>
      </trkpt>
      <trkpt lat="42.160508" lon="2.501494">
        <ele>530.043</ele>
        <time>2021-05-27T13:21:46Z</time>
      </trkpt>
      <trkpt lat="42.160604" lon="2.501448">
        <ele>528.163</ele>
        <time>2021-05-27T13:21:53Z</time>
      </trkpt>
      <trkpt lat="42.160704" lon="2.501429">
        <ele>526.940</ele>
        <time>2021-05-27T13:21:59Z</time>
      </trkpt>
      <trkpt lat="42.160815" lon="2.501466">
        <ele>527.175</ele>
        <time>2021-05-27T13:22:03Z</time>
      </trkpt>
      <trkpt lat="42.160914" lon="2.501483">
        <ele>526.038</ele>
        <time>2021-05-27T13:22:06Z</time>
      </trkpt>
      <trkpt lat="42.161023" lon="2.501504">
        <ele>524.474</ele>
        <time>2021-05-27T13:22:11Z</time>
      </trkpt>
      <trkpt lat="42.161123" lon="2.501468">
        <ele>522.537</ele>
        <time>2021-05-27T13:22:15Z</time>
      </trkpt>
      <trkpt lat="42.161221" lon="2.501467">
        <ele>522.249</ele>
        <time>2021-05-27T13:22:20Z</time>
      </trkpt>
      <trkpt lat="42.161317" lon="2.501453">
        <ele>521.713</ele>
        <time>2021-05-27T13:22:25Z</time>
      </trkpt>
      <trkpt lat="42.161419" lon="2.501435">
        <ele>521.108</ele>
        <time>2021-05-27T13:22:30Z</time>
      </trkpt>
      <trkpt lat="42.161520" lon="2.501393">
        <ele>519.710</ele>
        <time>2021-05-27T13:22:36Z</time>
      </trkpt>
      <trkpt lat="42.161607" lon="2.501334">
        <ele>517.877</ele>
        <time>2021-05-27T13:22:40Z</time>
      </trkpt>
      <trkpt lat="42.161714" lon="2.501304">
        <ele>516.445</ele>
        <time>2021-05-27T13:22:45Z</time>
      </trkpt>
      <trkpt lat="42.161808" lon="2.501317">
        <ele>515.825</ele>
        <time>2021-05-27T13:22:49Z</time>
      </trkpt>
      <trkpt lat="42.161900" lon="2.501348">
        <ele>515.332</ele>
        <time>2021-05-27T13:22:52Z</time>
      </trkpt>
      <trkpt lat="42.161989" lon="2.501375">
        <ele>514.847</ele>
        <time>2021-05-27T13:22:57Z</time>
      </trkpt>
      <trkpt lat="42.162087" lon="2.501308">
        <ele>514.310</ele>
        <time>2021-05-27T13:23:00Z</time>
      </trkpt>
      <trkpt lat="42.162172" lon="2.501253">
        <ele>514.196</ele>
        <time>2021-05-27T13:23:05Z</time>
      </trkpt>
      <trkpt lat="42.162271" lon="2.501233">
        <ele>514.017</ele>
        <time>2021-05-27T13:23:09Z</time>
      </trkpt>
      <trkpt lat="42.162381" lon="2.501216">
        <ele>513.987</ele>
        <time>2021-05-27T13:23:14Z</time>
      </trkpt>
      <trkpt lat="42.162487" lon="2.501202">
        <ele>513.715</ele>
        <time>2021-05-27T13:23:20Z</time>
      </trkpt>
      <trkpt lat="42.162588" lon="2.501237">
        <ele>513.808</ele>
        <time>2021-05-27T13:23:25Z</time>
      </trkpt>
      <trkpt lat="42.162691" lon="2.501257">
        <ele>513.788</ele>
        <time>2021-05-27T13:23:30Z</time>
      </trkpt>
      <trkpt lat="42.162798" lon="2.501263">
        <ele>513.535</ele>
        <time>2021-05-27T13:23:34Z</time>
      </trkpt>
      <trkpt lat="42.162903" lon="2.501254">
        <ele>513.163</ele>
        <time>2021-05-27T13:23:38Z</time>
      </trkpt>
      <trkpt lat="42.163011" lon="2.501235">
        <ele>512.773</ele>
        <time>2021-05-27T13:23:42Z</time>
      </trkpt>
      <trkpt lat="42.163118" lon="2.501229">
        <ele>512.420</ele>
        <time>2021-05-27T13:23:46Z</time>
      </trkpt>
      <trkpt lat="42.163183" lon="2.501211">
        <ele>512.225</ele>
        <time>2021-05-27T13:23:49Z</time>
      </trkpt>
      <trkpt lat="42.163217" lon="2.501205">
        <ele>512.138</ele>
        <time>2021-05-27T13:23:51Z</time>
      </trkpt>
      <trkpt lat="42.163259" lon="2.501195">
        <ele>512.034</ele>
        <time>2021-05-27T13:23:53Z</time>
      </trkpt>
      <trkpt lat="42.163295" lon="2.501174">
        <ele>511.924</ele>
        <time>2021-05-27T13:23:55Z</time>
      </trkpt>
      <trkpt lat="42.163314" lon="2.501167">
        <ele>511.904</ele>
        <time>2021-05-27T13:23:56Z</time>
      </trkpt>
      <trkpt lat="42.163333" lon="2.501154">
        <ele>511.814</ele>
        <time>2021-05-27T13:23:57Z</time>
      </trkpt>
      <trkpt lat="42.163352" lon="2.501141">
        <ele>511.908</ele>
        <time>2021-05-27T13:23:58Z</time>
      </trkpt>
      <trkpt lat="42.163368" lon="2.501130">
        <ele>511.989</ele>
        <time>2021-05-27T13:23:59Z</time>
      </trkpt>
      <trkpt lat="42.163390" lon="2.501122">
        <ele>512.036</ele>
        <time>2021-05-27T13:24:00Z</time>
      </trkpt>
      <trkpt lat="42.163410" lon="2.501112">
        <ele>512.094</ele>
        <time>2021-05-27T13:24:01Z</time>
      </trkpt>
      <trkpt lat="42.163431" lon="2.501102">
        <ele>512.034</ele>
        <time>2021-05-27T13:24:02Z</time>
      </trkpt>
      <trkpt lat="42.163449" lon="2.501094">
        <ele>512.011</ele>
        <time>2021-05-27T13:24:03Z</time>
      </trkpt>
      <trkpt lat="42.163469" lon="2.501083">
        <ele>511.916</ele>
        <time>2021-05-27T13:24:04Z</time>
      </trkpt>
      <trkpt lat="42.163486" lon="2.501074">
        <ele>511.969</ele>
        <time>2021-05-27T13:24:05Z</time>
      </trkpt>
      <trkpt lat="42.163520" lon="2.501060">
        <ele>511.975</ele>
        <time>2021-05-27T13:24:07Z</time>
      </trkpt>
      <trkpt lat="42.163537" lon="2.501047">
        <ele>511.963</ele>
        <time>2021-05-27T13:24:08Z</time>
      </trkpt>
      <trkpt lat="42.163553" lon="2.501031">
        <ele>511.944</ele>
        <time>2021-05-27T13:24:09Z</time>
      </trkpt>
      <trkpt lat="42.163573" lon="2.501015">
        <ele>512.018</ele>
        <time>2021-05-27T13:24:10Z</time>
      </trkpt>
      <trkpt lat="42.163596" lon="2.501000">
        <ele>512.008</ele>
        <time>2021-05-27T13:24:11Z</time>
      </trkpt>
      <trkpt lat="42.163618" lon="2.500992">
        <ele>512.033</ele>
        <time>2021-05-27T13:24:12Z</time>
      </trkpt>
      <trkpt lat="42.163635" lon="2.500980">
        <ele>512.160</ele>
        <time>2021-05-27T13:24:13Z</time>
      </trkpt>
      <trkpt lat="42.163665" lon="2.500960">
        <ele>512.388</ele>
        <time>2021-05-27T13:24:15Z</time>
      </trkpt>
      <trkpt lat="42.163683" lon="2.500951">
        <ele>512.468</ele>
        <time>2021-05-27T13:24:16Z</time>
      </trkpt>
      <trkpt lat="42.163701" lon="2.500941">
        <ele>512.415</ele>
        <time>2021-05-27T13:24:17Z</time>
      </trkpt>
      <trkpt lat="42.163724" lon="2.500931">
        <ele>512.540</ele>
        <time>2021-05-27T13:24:18Z</time>
      </trkpt>
      <trkpt lat="42.163747" lon="2.500920">
        <ele>512.683</ele>
        <time>2021-05-27T13:24:19Z</time>
      </trkpt>
      <trkpt lat="42.163766" lon="2.500910">
        <ele>512.729</ele>
        <time>2021-05-27T13:24:20Z</time>
      </trkpt>
      <trkpt lat="42.163783" lon="2.500903">
        <ele>512.895</ele>
        <time>2021-05-27T13:24:21Z</time>
      </trkpt>
      <trkpt lat="42.163814" lon="2.500892">
        <ele>512.949</ele>
        <time>2021-05-27T13:24:23Z</time>
      </trkpt>
      <trkpt lat="42.163842" lon="2.500881">
        <ele>513.023</ele>
        <time>2021-05-27T13:24:25Z</time>
      </trkpt>
      <trkpt lat="42.163869" lon="2.500867">
        <ele>513.008</ele>
        <time>2021-05-27T13:24:27Z</time>
      </trkpt>
      <trkpt lat="42.163887" lon="2.500859">
        <ele>513.166</ele>
        <time>2021-05-27T13:24:28Z</time>
      </trkpt>
      <trkpt lat="42.163914" lon="2.500847">
        <ele>513.053</ele>
        <time>2021-05-27T13:24:30Z</time>
      </trkpt>
      <trkpt lat="42.163933" lon="2.500841">
        <ele>513.051</ele>
        <time>2021-05-27T13:24:31Z</time>
      </trkpt>
      <trkpt lat="42.163955" lon="2.500832">
        <ele>513.061</ele>
        <time>2021-05-27T13:24:32Z</time>
      </trkpt>
      <trkpt lat="42.163981" lon="2.500823">
        <ele>513.078</ele>
        <time>2021-05-27T13:24:34Z</time>
      </trkpt>
      <trkpt lat="42.163998" lon="2.500813">
        <ele>513.073</ele>
        <time>2021-05-27T13:24:35Z</time>
      </trkpt>
      <trkpt lat="42.164018" lon="2.500803">
        <ele>512.986</ele>
        <time>2021-05-27T13:24:36Z</time>
      </trkpt>
      <trkpt lat="42.164038" lon="2.500792">
        <ele>512.982</ele>
        <time>2021-05-27T13:24:37Z</time>
      </trkpt>
      <trkpt lat="42.164056" lon="2.500782">
        <ele>512.971</ele>
        <time>2021-05-27T13:24:38Z</time>
      </trkpt>
      <trkpt lat="42.164079" lon="2.500772">
        <ele>512.841</ele>
        <time>2021-05-27T13:24:39Z</time>
      </trkpt>
      <trkpt lat="42.164101" lon="2.500764">
        <ele>512.815</ele>
        <time>2021-05-27T13:24:40Z</time>
      </trkpt>
      <trkpt lat="42.164125" lon="2.500757">
        <ele>512.808</ele>
        <time>2021-05-27T13:24:41Z</time>
      </trkpt>
      <trkpt lat="42.164147" lon="2.500751">
        <ele>512.714</ele>
        <time>2021-05-27T13:24:42Z</time>
      </trkpt>
      <trkpt lat="42.164168" lon="2.500743">
        <ele>512.721</ele>
        <time>2021-05-27T13:24:43Z</time>
      </trkpt>
      <trkpt lat="42.164190" lon="2.500735">
        <ele>512.679</ele>
        <time>2021-05-27T13:24:44Z</time>
      </trkpt>
      <trkpt lat="42.164210" lon="2.500728">
        <ele>512.679</ele>
        <time>2021-05-27T13:24:45Z</time>
      </trkpt>
      <trkpt lat="42.164228" lon="2.500721">
        <ele>512.646</ele>
        <time>2021-05-27T13:24:46Z</time>
      </trkpt>
      <trkpt lat="42.164252" lon="2.500694">
        <ele>512.551</ele>
        <time>2021-05-27T13:24:48Z</time>
      </trkpt>
      <trkpt lat="42.164338" lon="2.500613">
        <ele>512.664</ele>
        <time>2021-05-27T13:24:54Z</time>
      </trkpt>
      <trkpt lat="42.164431" lon="2.500542">
        <ele>512.960</ele>
        <time>2021-05-27T13:24:58Z</time>
      </trkpt>
      <trkpt lat="42.164518" lon="2.500498">
        <ele>512.812</ele>
        <time>2021-05-27T13:25:02Z</time>
      </trkpt>
      <trkpt lat="42.164608" lon="2.500457">
        <ele>512.932</ele>
        <time>2021-05-27T13:25:09Z</time>
      </trkpt>
      <trkpt lat="42.164691" lon="2.500397">
        <ele>512.905</ele>
        <time>2021-05-27T13:25:17Z</time>
      </trkpt>
      <trkpt lat="42.164769" lon="2.500333">
        <ele>512.908</ele>
        <time>2021-05-27T13:25:22Z</time>
      </trkpt>
      <trkpt lat="42.164849" lon="2.500251">
        <ele>512.528</ele>
        <time>2021-05-27T13:25:29Z</time>
      </trkpt>
      <trkpt lat="42.164924" lon="2.500139">
        <ele>512.375</ele>
        <time>2021-05-27T13:25:36Z</time>
      </trkpt>
      <trkpt lat="42.164998" lon="2.500036">
        <ele>512.053</ele>
        <time>2021-05-27T13:25:41Z</time>
      </trkpt>
      <trkpt lat="42.165064" lon="2.499929">
        <ele>510.873</ele>
        <time>2021-05-27T13:25:48Z</time>
      </trkpt>
      <trkpt lat="42.165128" lon="2.499832">
        <ele>509.360</ele>
        <time>2021-05-27T13:25:52Z</time>
      </trkpt>
      <trkpt lat="42.165202" lon="2.499762">
        <ele>508.025</ele>
        <time>2021-05-27T13:25:58Z</time>
      </trkpt>
      <trkpt lat="42.165284" lon="2.499669">
        <ele>506.028</ele>
        <time>2021-05-27T13:26:02Z</time>
      </trkpt>
      <trkpt lat="42.165370" lon="2.499582">
        <ele>503.114</ele>
        <time>2021-05-27T13:26:05Z</time>
      </trkpt>
      <trkpt lat="42.165481" lon="2.499564">
        <ele>501.171</ele>
        <time>2021-05-27T13:26:14Z</time>
      </trkpt>
      <trkpt lat="42.165592" lon="2.499600">
        <ele>500.541</ele>
        <time>2021-05-27T13:26:20Z</time>
      </trkpt>
      <trkpt lat="42.165694" lon="2.499618">
        <ele>499.615</ele>
        <time>2021-05-27T13:26:26Z</time>
      </trkpt>
      <trkpt lat="42.165800" lon="2.499637">
        <ele>498.508</ele>
        <time>2021-05-27T13:26:32Z</time>
      </trkpt>
      <trkpt lat="42.165891" lon="2.499623">
        <ele>497.974</ele>
        <time>2021-05-27T13:26:36Z</time>
      </trkpt>
      <trkpt lat="42.165993" lon="2.499618">
        <ele>497.791</ele>
        <time>2021-05-27T13:26:41Z</time>
      </trkpt>
      <trkpt lat="42.166094" lon="2.499563">
        <ele>496.799</ele>
        <time>2021-05-27T13:26:46Z</time>
      </trkpt>
      <trkpt lat="42.166187" lon="2.499517">
        <ele>495.219</ele>
        <time>2021-05-27T13:26:50Z</time>
      </trkpt>
      <trkpt lat="42.166264" lon="2.499453">
        <ele>493.596</ele>
        <time>2021-05-27T13:26:54Z</time>
      </trkpt>
      <trkpt lat="42.166347" lon="2.499387">
        <ele>492.181</ele>
        <time>2021-05-27T13:26:58Z</time>
      </trkpt>
      <trkpt lat="42.166415" lon="2.499287">
        <ele>490.674</ele>
        <time>2021-05-27T13:27:03Z</time>
      </trkpt>
      <trkpt lat="42.166405" lon="2.499231">
        <ele>490.380</ele>
        <time>2021-05-27T13:27:05Z</time>
      </trkpt>
      <trkpt lat="42.166383" lon="2.499101">
        <ele>489.672</ele>
        <time>2021-05-27T13:27:10Z</time>
      </trkpt>
      <trkpt lat="42.166380" lon="2.498963">
        <ele>488.613</ele>
        <time>2021-05-27T13:27:16Z</time>
      </trkpt>
      <trkpt lat="42.166347" lon="2.498828">
        <ele>487.514</ele>
        <time>2021-05-27T13:27:22Z</time>
      </trkpt>
      <trkpt lat="42.166349" lon="2.498692">
        <ele>485.408</ele>
        <time>2021-05-27T13:27:28Z</time>
      </trkpt>
      <trkpt lat="42.166353" lon="2.498555">
        <ele>483.734</ele>
        <time>2021-05-27T13:27:33Z</time>
      </trkpt>
      <trkpt lat="42.166354" lon="2.498422">
        <ele>482.621</ele>
        <time>2021-05-27T13:27:38Z</time>
      </trkpt>
      <trkpt lat="42.166396" lon="2.498291">
        <ele>481.459</ele>
        <time>2021-05-27T13:27:44Z</time>
      </trkpt>
      <trkpt lat="42.166469" lon="2.498213">
        <ele>479.729</ele>
        <time>2021-05-27T13:27:49Z</time>
      </trkpt>
      <trkpt lat="42.166565" lon="2.498175">
        <ele>478.196</ele>
        <time>2021-05-27T13:27:55Z</time>
      </trkpt>
      <trkpt lat="42.166661" lon="2.498188">
        <ele>477.071</ele>
        <time>2021-05-27T13:28:00Z</time>
      </trkpt>
      <trkpt lat="42.166755" lon="2.498226">
        <ele>476.054</ele>
        <time>2021-05-27T13:28:05Z</time>
      </trkpt>
      <trkpt lat="42.166836" lon="2.498281">
        <ele>475.260</ele>
        <time>2021-05-27T13:28:09Z</time>
      </trkpt>
      <trkpt lat="42.166914" lon="2.498359">
        <ele>474.729</ele>
        <time>2021-05-27T13:28:13Z</time>
      </trkpt>
      <trkpt lat="42.167001" lon="2.498410">
        <ele>474.600</ele>
        <time>2021-05-27T13:28:17Z</time>
      </trkpt>
      <trkpt lat="42.167087" lon="2.498356">
        <ele>473.720</ele>
        <time>2021-05-27T13:28:23Z</time>
      </trkpt>
      <trkpt lat="42.167151" lon="2.498256">
        <ele>472.908</ele>
        <time>2021-05-27T13:28:28Z</time>
      </trkpt>
      <trkpt lat="42.167214" lon="2.498139">
        <ele>472.399</ele>
        <time>2021-05-27T13:28:34Z</time>
      </trkpt>
      <trkpt lat="42.167275" lon="2.498033">
        <ele>471.826</ele>
        <time>2021-05-27T13:28:39Z</time>
      </trkpt>
      <trkpt lat="42.167320" lon="2.497907">
        <ele>470.974</ele>
        <time>2021-05-27T13:28:45Z</time>
      </trkpt>
      <trkpt lat="42.167365" lon="2.497791">
        <ele>470.114</ele>
        <time>2021-05-27T13:28:50Z</time>
      </trkpt>
      <trkpt lat="42.167411" lon="2.497675">
        <ele>469.361</ele>
        <time>2021-05-27T13:28:55Z</time>
      </trkpt>
      <trkpt lat="42.167469" lon="2.497558">
        <ele>468.466</ele>
        <time>2021-05-27T13:29:00Z</time>
      </trkpt>
      <trkpt lat="42.167523" lon="2.497429">
        <ele>467.399</ele>
        <time>2021-05-27T13:29:06Z</time>
      </trkpt>
      <trkpt lat="42.167568" lon="2.497312">
        <ele>466.285</ele>
        <time>2021-05-27T13:29:12Z</time>
      </trkpt>
      <trkpt lat="42.167628" lon="2.497205">
        <ele>465.289</ele>
        <time>2021-05-27T13:29:17Z</time>
      </trkpt>
      <trkpt lat="42.167688" lon="2.497094">
        <ele>464.106</ele>
        <time>2021-05-27T13:29:22Z</time>
      </trkpt>
      <trkpt lat="42.167735" lon="2.496983">
        <ele>463.126</ele>
        <time>2021-05-27T13:29:27Z</time>
      </trkpt>
      <trkpt lat="42.167783" lon="2.496869">
        <ele>462.208</ele>
        <time>2021-05-27T13:29:31Z</time>
      </trkpt>
      <trkpt lat="42.167824" lon="2.496747">
        <ele>461.395</ele>
        <time>2021-05-27T13:29:36Z</time>
      </trkpt>
      <trkpt lat="42.167879" lon="2.496647">
        <ele>460.952</ele>
        <time>2021-05-27T13:29:40Z</time>
      </trkpt>
      <trkpt lat="42.167930" lon="2.496541">
        <ele>460.260</ele>
        <time>2021-05-27T13:29:45Z</time>
      </trkpt>
      <trkpt lat="42.167973" lon="2.496412">
        <ele>459.020</ele>
        <time>2021-05-27T13:29:51Z</time>
      </trkpt>
      <trkpt lat="42.168022" lon="2.496300">
        <ele>458.377</ele>
        <time>2021-05-27T13:29:55Z</time>
      </trkpt>
      <trkpt lat="42.168073" lon="2.496189">
        <ele>457.572</ele>
        <time>2021-05-27T13:30:00Z</time>
      </trkpt>
      <trkpt lat="42.168130" lon="2.496095">
        <ele>456.725</ele>
        <time>2021-05-27T13:30:05Z</time>
      </trkpt>
      <trkpt lat="42.168187" lon="2.495976">
        <ele>456.321</ele>
        <time>2021-05-27T13:30:10Z</time>
      </trkpt>
      <trkpt lat="42.168236" lon="2.495868">
        <ele>456.041</ele>
        <time>2021-05-27T13:30:15Z</time>
      </trkpt>
      <trkpt lat="42.168312" lon="2.495772">
        <ele>455.881</ele>
        <time>2021-05-27T13:30:20Z</time>
      </trkpt>
      <trkpt lat="42.168381" lon="2.495680">
        <ele>454.909</ele>
        <time>2021-05-27T13:30:25Z</time>
      </trkpt>
      <trkpt lat="42.168442" lon="2.495560">
        <ele>453.508</ele>
        <time>2021-05-27T13:30:30Z</time>
      </trkpt>
      <trkpt lat="42.168500" lon="2.495432">
        <ele>452.741</ele>
        <time>2021-05-27T13:30:35Z</time>
      </trkpt>
      <trkpt lat="42.168558" lon="2.495328">
        <ele>452.398</ele>
        <time>2021-05-27T13:30:39Z</time>
      </trkpt>
      <trkpt lat="42.168614" lon="2.495210">
        <ele>452.086</ele>
        <time>2021-05-27T13:30:44Z</time>
      </trkpt>
      <trkpt lat="42.168670" lon="2.495090">
        <ele>451.456</ele>
        <time>2021-05-27T13:30:49Z</time>
      </trkpt>
      <trkpt lat="42.168727" lon="2.494970">
        <ele>450.753</ele>
        <time>2021-05-27T13:30:55Z</time>
      </trkpt>
      <trkpt lat="42.168781" lon="2.494861">
        <ele>450.038</ele>
        <time>2021-05-27T13:31:00Z</time>
      </trkpt>
      <trkpt lat="42.168826" lon="2.494754">
        <ele>449.551</ele>
        <time>2021-05-27T13:31:05Z</time>
      </trkpt>
      <trkpt lat="42.168880" lon="2.494639">
        <ele>449.137</ele>
        <time>2021-05-27T13:31:10Z</time>
      </trkpt>
      <trkpt lat="42.168892" lon="2.494617">
        <ele>449.087</ele>
        <time>2021-05-27T13:31:11Z</time>
      </trkpt>
      <trkpt lat="42.168900" lon="2.494594">
        <ele>448.942</ele>
        <time>2021-05-27T13:31:12Z</time>
      </trkpt>
      <trkpt lat="42.168914" lon="2.494547">
        <ele>448.826</ele>
        <time>2021-05-27T13:31:14Z</time>
      </trkpt>
      <trkpt lat="42.168970" lon="2.494449">
        <ele>448.408</ele>
        <time>2021-05-27T13:31:18Z</time>
      </trkpt>
      <trkpt lat="42.169040" lon="2.494336">
        <ele>447.785</ele>
        <time>2021-05-27T13:31:23Z</time>
      </trkpt>
      <trkpt lat="42.169050" lon="2.494294">
        <ele>447.652</ele>
        <time>2021-05-27T13:31:25Z</time>
      </trkpt>
      <trkpt lat="42.169077" lon="2.494234">
        <ele>447.440</ele>
        <time>2021-05-27T13:31:28Z</time>
      </trkpt>
      <trkpt lat="42.169097" lon="2.494193">
        <ele>447.390</ele>
        <time>2021-05-27T13:31:30Z</time>
      </trkpt>
      <trkpt lat="42.169152" lon="2.494074">
        <ele>447.177</ele>
        <time>2021-05-27T13:31:36Z</time>
      </trkpt>
      <trkpt lat="42.169211" lon="2.493982">
        <ele>446.932</ele>
        <time>2021-05-27T13:31:41Z</time>
      </trkpt>
      <trkpt lat="42.169274" lon="2.493879">
        <ele>446.655</ele>
        <time>2021-05-27T13:31:46Z</time>
      </trkpt>
      <trkpt lat="42.169355" lon="2.493787">
        <ele>446.321</ele>
        <time>2021-05-27T13:31:51Z</time>
      </trkpt>
      <trkpt lat="42.169432" lon="2.493702">
        <ele>446.032</ele>
        <time>2021-05-27T13:31:55Z</time>
      </trkpt>
      <trkpt lat="42.169469" lon="2.493663">
        <ele>445.892</ele>
        <time>2021-05-27T13:31:57Z</time>
      </trkpt>
      <trkpt lat="42.169541" lon="2.493595">
        <ele>445.311</ele>
        <time>2021-05-27T13:32:01Z</time>
      </trkpt>
      <trkpt lat="42.169585" lon="2.493564">
        <ele>444.908</ele>
        <time>2021-05-27T13:32:03Z</time>
      </trkpt>
      <trkpt lat="42.169605" lon="2.493554">
        <ele>444.880</ele>
        <time>2021-05-27T13:32:04Z</time>
      </trkpt>
      <trkpt lat="42.169623" lon="2.493548">
        <ele>444.697</ele>
        <time>2021-05-27T13:32:05Z</time>
      </trkpt>
      <trkpt lat="42.169642" lon="2.493545">
        <ele>444.585</ele>
        <time>2021-05-27T13:32:06Z</time>
      </trkpt>
      <trkpt lat="42.169660" lon="2.493544">
        <ele>444.475</ele>
        <time>2021-05-27T13:32:07Z</time>
      </trkpt>
      <trkpt lat="42.169699" lon="2.493548">
        <ele>444.172</ele>
        <time>2021-05-27T13:32:09Z</time>
      </trkpt>
      <trkpt lat="42.169721" lon="2.493551">
        <ele>444.057</ele>
        <time>2021-05-27T13:32:10Z</time>
      </trkpt>
      <trkpt lat="42.169745" lon="2.493549">
        <ele>443.890</ele>
        <time>2021-05-27T13:32:11Z</time>
      </trkpt>
      <trkpt lat="42.169768" lon="2.493545">
        <ele>443.676</ele>
        <time>2021-05-27T13:32:12Z</time>
      </trkpt>
      <trkpt lat="42.169806" lon="2.493552">
        <ele>443.291</ele>
        <time>2021-05-27T13:32:14Z</time>
      </trkpt>
      <trkpt lat="42.169850" lon="2.493556">
        <ele>442.881</ele>
        <time>2021-05-27T13:32:16Z</time>
      </trkpt>
      <trkpt lat="42.169895" lon="2.493558">
        <ele>442.419</ele>
        <time>2021-05-27T13:32:18Z</time>
      </trkpt>
      <trkpt lat="42.169917" lon="2.493562">
        <ele>442.108</ele>
        <time>2021-05-27T13:32:19Z</time>
      </trkpt>
      <trkpt lat="42.169938" lon="2.493563">
        <ele>441.966</ele>
        <time>2021-05-27T13:32:20Z</time>
      </trkpt>
      <trkpt lat="42.169969" lon="2.493564">
        <ele>441.663</ele>
        <time>2021-05-27T13:32:22Z</time>
      </trkpt>
      <trkpt lat="42.169987" lon="2.493565">
        <ele>441.551</ele>
        <time>2021-05-27T13:32:23Z</time>
      </trkpt>
      <trkpt lat="42.170007" lon="2.493566">
        <ele>441.361</ele>
        <time>2021-05-27T13:32:24Z</time>
      </trkpt>
      <trkpt lat="42.170026" lon="2.493565">
        <ele>441.168</ele>
        <time>2021-05-27T13:32:25Z</time>
      </trkpt>
      <trkpt lat="42.170064" lon="2.493568">
        <ele>440.793</ele>
        <time>2021-05-27T13:32:27Z</time>
      </trkpt>
      <trkpt lat="42.170083" lon="2.493571">
        <ele>440.696</ele>
        <time>2021-05-27T13:32:28Z</time>
      </trkpt>
      <trkpt lat="42.170103" lon="2.493573">
        <ele>440.462</ele>
        <time>2021-05-27T13:32:29Z</time>
      </trkpt>
      <trkpt lat="42.170123" lon="2.493571">
        <ele>440.251</ele>
        <time>2021-05-27T13:32:30Z</time>
      </trkpt>
      <trkpt lat="42.170142" lon="2.493567">
        <ele>440.101</ele>
        <time>2021-05-27T13:32:31Z</time>
      </trkpt>
      <trkpt lat="42.170162" lon="2.493562">
        <ele>439.911</ele>
        <time>2021-05-27T13:32:32Z</time>
      </trkpt>
      <trkpt lat="42.170180" lon="2.493562">
        <ele>439.708</ele>
        <time>2021-05-27T13:32:33Z</time>
      </trkpt>
      <trkpt lat="42.170236" lon="2.493555">
        <ele>439.222</ele>
        <time>2021-05-27T13:32:35Z</time>
      </trkpt>
      <trkpt lat="42.170342" lon="2.493557">
        <ele>438.399</ele>
        <time>2021-05-27T13:32:39Z</time>
      </trkpt>
      <trkpt lat="42.170375" lon="2.493559">
        <ele>438.057</ele>
        <time>2021-05-27T13:32:40Z</time>
      </trkpt>
      <trkpt lat="42.170397" lon="2.493560">
        <ele>437.957</ele>
        <time>2021-05-27T13:32:41Z</time>
      </trkpt>
      <trkpt lat="42.170417" lon="2.493562">
        <ele>437.724</ele>
        <time>2021-05-27T13:32:42Z</time>
      </trkpt>
      <trkpt lat="42.170439" lon="2.493561">
        <ele>437.649</ele>
        <time>2021-05-27T13:32:43Z</time>
      </trkpt>
      <trkpt lat="42.170522" lon="2.493558">
        <ele>436.932</ele>
        <time>2021-05-27T13:32:47Z</time>
      </trkpt>
      <trkpt lat="42.170542" lon="2.493558">
        <ele>436.788</ele>
        <time>2021-05-27T13:32:48Z</time>
      </trkpt>
      <trkpt lat="42.170561" lon="2.493557">
        <ele>436.693</ele>
        <time>2021-05-27T13:32:49Z</time>
      </trkpt>
      <trkpt lat="42.170582" lon="2.493555">
        <ele>436.565</ele>
        <time>2021-05-27T13:32:50Z</time>
      </trkpt>
      <trkpt lat="42.170602" lon="2.493555">
        <ele>436.521</ele>
        <time>2021-05-27T13:32:51Z</time>
      </trkpt>
      <trkpt lat="42.170626" lon="2.493552">
        <ele>436.408</ele>
        <time>2021-05-27T13:32:52Z</time>
      </trkpt>
      <trkpt lat="42.170648" lon="2.493546">
        <ele>436.436</ele>
        <time>2021-05-27T13:32:53Z</time>
      </trkpt>
      <trkpt lat="42.170669" lon="2.493542">
        <ele>436.363</ele>
        <time>2021-05-27T13:32:54Z</time>
      </trkpt>
      <trkpt lat="42.170688" lon="2.493539">
        <ele>436.311</ele>
        <time>2021-05-27T13:32:55Z</time>
      </trkpt>
      <trkpt lat="42.170708" lon="2.493538">
        <ele>436.261</ele>
        <time>2021-05-27T13:32:56Z</time>
      </trkpt>
      <trkpt lat="42.170735" lon="2.493533">
        <ele>436.228</ele>
        <time>2021-05-27T13:32:57Z</time>
      </trkpt>
      <trkpt lat="42.170761" lon="2.493527">
        <ele>436.113</ele>
        <time>2021-05-27T13:32:58Z</time>
      </trkpt>
      <trkpt lat="42.170789" lon="2.493518">
        <ele>436.176</ele>
        <time>2021-05-27T13:32:59Z</time>
      </trkpt>
      <trkpt lat="42.170815" lon="2.493510">
        <ele>436.092</ele>
        <time>2021-05-27T13:33:00Z</time>
      </trkpt>
      <trkpt lat="42.170841" lon="2.493503">
        <ele>436.023</ele>
        <time>2021-05-27T13:33:01Z</time>
      </trkpt>
      <trkpt lat="42.170866" lon="2.493498">
        <ele>436.083</ele>
        <time>2021-05-27T13:33:02Z</time>
      </trkpt>
      <trkpt lat="42.170890" lon="2.493496">
        <ele>436.011</ele>
        <time>2021-05-27T13:33:03Z</time>
      </trkpt>
      <trkpt lat="42.170915" lon="2.493492">
        <ele>436.008</ele>
        <time>2021-05-27T13:33:04Z</time>
      </trkpt>
      <trkpt lat="42.170938" lon="2.493486">
        <ele>436.089</ele>
        <time>2021-05-27T13:33:05Z</time>
      </trkpt>
      <trkpt lat="42.170961" lon="2.493486">
        <ele>436.016</ele>
        <time>2021-05-27T13:33:06Z</time>
      </trkpt>
      <trkpt lat="42.170984" lon="2.493484">
        <ele>436.074</ele>
        <time>2021-05-27T13:33:07Z</time>
      </trkpt>
      <trkpt lat="42.171005" lon="2.493482">
        <ele>436.094</ele>
        <time>2021-05-27T13:33:08Z</time>
      </trkpt>
      <trkpt lat="42.171026" lon="2.493479">
        <ele>436.051</ele>
        <time>2021-05-27T13:33:09Z</time>
      </trkpt>
      <trkpt lat="42.171060" lon="2.493475">
        <ele>436.096</ele>
        <time>2021-05-27T13:33:11Z</time>
      </trkpt>
      <trkpt lat="42.171095" lon="2.493470">
        <ele>436.019</ele>
        <time>2021-05-27T13:33:13Z</time>
      </trkpt>
      <trkpt lat="42.171130" lon="2.493458">
        <ele>436.095</ele>
        <time>2021-05-27T13:33:15Z</time>
      </trkpt>
      <trkpt lat="42.171157" lon="2.493446">
        <ele>436.072</ele>
        <time>2021-05-27T13:33:17Z</time>
      </trkpt>
      <trkpt lat="42.171176" lon="2.493441">
        <ele>436.013</ele>
        <time>2021-05-27T13:33:18Z</time>
      </trkpt>
      <trkpt lat="42.171195" lon="2.493435">
        <ele>436.014</ele>
        <time>2021-05-27T13:33:19Z</time>
      </trkpt>
      <trkpt lat="42.171213" lon="2.493428">
        <ele>436.008</ele>
        <time>2021-05-27T13:33:20Z</time>
      </trkpt>
      <trkpt lat="42.171235" lon="2.493422">
        <ele>436.044</ele>
        <time>2021-05-27T13:33:21Z</time>
      </trkpt>
      <trkpt lat="42.171256" lon="2.493415">
        <ele>436.021</ele>
        <time>2021-05-27T13:33:22Z</time>
      </trkpt>
      <trkpt lat="42.171275" lon="2.493407">
        <ele>436.049</ele>
        <time>2021-05-27T13:33:23Z</time>
      </trkpt>
      <trkpt lat="42.171292" lon="2.493398">
        <ele>436.059</ele>
        <time>2021-05-27T13:33:24Z</time>
      </trkpt>
      <trkpt lat="42.171313" lon="2.493388">
        <ele>436.076</ele>
        <time>2021-05-27T13:33:25Z</time>
      </trkpt>
      <trkpt lat="42.171334" lon="2.493379">
        <ele>436.051</ele>
        <time>2021-05-27T13:33:26Z</time>
      </trkpt>
      <trkpt lat="42.171355" lon="2.493365">
        <ele>436.074</ele>
        <time>2021-05-27T13:33:27Z</time>
      </trkpt>
      <trkpt lat="42.171376" lon="2.493350">
        <ele>436.040</ele>
        <time>2021-05-27T13:33:28Z</time>
      </trkpt>
      <trkpt lat="42.171396" lon="2.493336">
        <ele>436.089</ele>
        <time>2021-05-27T13:33:29Z</time>
      </trkpt>
      <trkpt lat="42.171419" lon="2.493321">
        <ele>435.906</ele>
        <time>2021-05-27T13:33:30Z</time>
      </trkpt>
      <trkpt lat="42.171439" lon="2.493307">
        <ele>435.826</ele>
        <time>2021-05-27T13:33:31Z</time>
      </trkpt>
      <trkpt lat="42.171464" lon="2.493294">
        <ele>435.708</ele>
        <time>2021-05-27T13:33:32Z</time>
      </trkpt>
      <trkpt lat="42.171488" lon="2.493278">
        <ele>435.615</ele>
        <time>2021-05-27T13:33:33Z</time>
      </trkpt>
      <trkpt lat="42.171508" lon="2.493266">
        <ele>435.572</ele>
        <time>2021-05-27T13:33:34Z</time>
      </trkpt>
      <trkpt lat="42.171531" lon="2.493257">
        <ele>435.330</ele>
        <time>2021-05-27T13:33:35Z</time>
      </trkpt>
      <trkpt lat="42.171554" lon="2.493245">
        <ele>435.220</ele>
        <time>2021-05-27T13:33:36Z</time>
      </trkpt>
      <trkpt lat="42.171575" lon="2.493233">
        <ele>435.147</ele>
        <time>2021-05-27T13:33:37Z</time>
      </trkpt>
      <trkpt lat="42.171594" lon="2.493217">
        <ele>435.022</ele>
        <time>2021-05-27T13:33:38Z</time>
      </trkpt>
      <trkpt lat="42.171613" lon="2.493202">
        <ele>434.885</ele>
        <time>2021-05-27T13:33:39Z</time>
      </trkpt>
      <trkpt lat="42.171633" lon="2.493187">
        <ele>434.761</ele>
        <time>2021-05-27T13:33:40Z</time>
      </trkpt>
      <trkpt lat="42.171651" lon="2.493172">
        <ele>434.584</ele>
        <time>2021-05-27T13:33:41Z</time>
      </trkpt>
      <trkpt lat="42.171670" lon="2.493157">
        <ele>434.407</ele>
        <time>2021-05-27T13:33:42Z</time>
      </trkpt>
      <trkpt lat="42.171688" lon="2.493141">
        <ele>434.317</ele>
        <time>2021-05-27T13:33:43Z</time>
      </trkpt>
      <trkpt lat="42.171710" lon="2.493123">
        <ele>434.208</ele>
        <time>2021-05-27T13:33:44Z</time>
      </trkpt>
      <trkpt lat="42.171730" lon="2.493106">
        <ele>434.265</ele>
        <time>2021-05-27T13:33:45Z</time>
      </trkpt>
      <trkpt lat="42.171750" lon="2.493089">
        <ele>434.132</ele>
        <time>2021-05-27T13:33:46Z</time>
      </trkpt>
      <trkpt lat="42.171770" lon="2.493072">
        <ele>434.140</ele>
        <time>2021-05-27T13:33:47Z</time>
      </trkpt>
      <trkpt lat="42.171786" lon="2.493056">
        <ele>434.080</ele>
        <time>2021-05-27T13:33:48Z</time>
      </trkpt>
      <trkpt lat="42.171806" lon="2.493039">
        <ele>434.057</ele>
        <time>2021-05-27T13:33:49Z</time>
      </trkpt>
      <trkpt lat="42.171825" lon="2.493023">
        <ele>434.082</ele>
        <time>2021-05-27T13:33:50Z</time>
      </trkpt>
      <trkpt lat="42.171844" lon="2.493007">
        <ele>434.025</ele>
        <time>2021-05-27T13:33:51Z</time>
      </trkpt>
      <trkpt lat="42.171863" lon="2.492991">
        <ele>434.081</ele>
        <time>2021-05-27T13:33:52Z</time>
      </trkpt>
      <trkpt lat="42.171879" lon="2.492975">
        <ele>434.048</ele>
        <time>2021-05-27T13:33:53Z</time>
      </trkpt>
      <trkpt lat="42.171897" lon="2.492958">
        <ele>434.061</ele>
        <time>2021-05-27T13:33:54Z</time>
      </trkpt>
      <trkpt lat="42.171916" lon="2.492942">
        <ele>434.017</ele>
        <time>2021-05-27T13:33:55Z</time>
      </trkpt>
      <trkpt lat="42.171935" lon="2.492926">
        <ele>434.008</ele>
        <time>2021-05-27T13:33:56Z</time>
      </trkpt>
      <trkpt lat="42.171952" lon="2.492912">
        <ele>434.071</ele>
        <time>2021-05-27T13:33:57Z</time>
      </trkpt>
      <trkpt lat="42.171969" lon="2.492897">
        <ele>433.938</ele>
        <time>2021-05-27T13:33:58Z</time>
      </trkpt>
      <trkpt lat="42.171989" lon="2.492882">
        <ele>433.976</ele>
        <time>2021-05-27T13:33:59Z</time>
      </trkpt>
      <trkpt lat="42.172004" lon="2.492867">
        <ele>433.996</ele>
        <time>2021-05-27T13:34:00Z</time>
      </trkpt>
      <trkpt lat="42.172027" lon="2.492847">
        <ele>433.813</ele>
        <time>2021-05-27T13:34:02Z</time>
      </trkpt>
      <trkpt lat="42.172041" lon="2.492827">
        <ele>433.738</ele>
        <time>2021-05-27T13:34:04Z</time>
      </trkpt>
      <trkpt lat="42.172057" lon="2.492803">
        <ele>433.691</ele>
        <time>2021-05-27T13:34:06Z</time>
      </trkpt>
      <trkpt lat="42.172080" lon="2.492775">
        <ele>433.537</ele>
        <time>2021-05-27T13:34:08Z</time>
      </trkpt>
      <trkpt lat="42.172104" lon="2.492743">
        <ele>433.494</ele>
        <time>2021-05-27T13:34:10Z</time>
      </trkpt>
      <trkpt lat="42.172131" lon="2.492710">
        <ele>433.257</ele>
        <time>2021-05-27T13:34:12Z</time>
      </trkpt>
      <trkpt lat="42.172155" lon="2.492679">
        <ele>433.222</ele>
        <time>2021-05-27T13:34:14Z</time>
      </trkpt>
      <trkpt lat="42.172166" lon="2.492658">
        <ele>433.108</ele>
        <time>2021-05-27T13:34:15Z</time>
      </trkpt>
      <trkpt lat="42.172180" lon="2.492638">
        <ele>433.176</ele>
        <time>2021-05-27T13:34:16Z</time>
      </trkpt>
      <trkpt lat="42.172191" lon="2.492616">
        <ele>433.023</ele>
        <time>2021-05-27T13:34:17Z</time>
      </trkpt>
      <trkpt lat="42.172202" lon="2.492596">
        <ele>433.061</ele>
        <time>2021-05-27T13:34:18Z</time>
      </trkpt>
      <trkpt lat="42.172215" lon="2.492577">
        <ele>433.071</ele>
        <time>2021-05-27T13:34:19Z</time>
      </trkpt>
      <trkpt lat="42.172228" lon="2.492554">
        <ele>433.038</ele>
        <time>2021-05-27T13:34:20Z</time>
      </trkpt>
      <trkpt lat="42.172241" lon="2.492534">
        <ele>433.083</ele>
        <time>2021-05-27T13:34:21Z</time>
      </trkpt>
      <trkpt lat="42.172256" lon="2.492513">
        <ele>433.026</ele>
        <time>2021-05-27T13:34:22Z</time>
      </trkpt>
      <trkpt lat="42.172267" lon="2.492491">
        <ele>433.042</ele>
        <time>2021-05-27T13:34:23Z</time>
      </trkpt>
      <trkpt lat="42.172278" lon="2.492468">
        <ele>433.045</ele>
        <time>2021-05-27T13:34:24Z</time>
      </trkpt>
      <trkpt lat="42.172291" lon="2.492448">
        <ele>433.047</ele>
        <time>2021-05-27T13:34:25Z</time>
      </trkpt>
      <trkpt lat="42.172314" lon="2.492411">
        <ele>433.011</ele>
        <time>2021-05-27T13:34:27Z</time>
      </trkpt>
      <trkpt lat="42.172326" lon="2.492389">
        <ele>433.008</ele>
        <time>2021-05-27T13:34:28Z</time>
      </trkpt>
      <trkpt lat="42.172364" lon="2.492327">
        <ele>433.031</ele>
        <time>2021-05-27T13:34:31Z</time>
      </trkpt>
      <trkpt lat="42.172376" lon="2.492306">
        <ele>433.038</ele>
        <time>2021-05-27T13:34:32Z</time>
      </trkpt>
      <trkpt lat="42.172386" lon="2.492281">
        <ele>433.036</ele>
        <time>2021-05-27T13:34:33Z</time>
      </trkpt>
      <trkpt lat="42.172396" lon="2.492259">
        <ele>433.096</ele>
        <time>2021-05-27T13:34:34Z</time>
      </trkpt>
      <trkpt lat="42.172451" lon="2.492137">
        <ele>432.793</ele>
        <time>2021-05-27T13:34:39Z</time>
      </trkpt>
      <trkpt lat="42.172504" lon="2.492016">
        <ele>432.378</ele>
        <time>2021-05-27T13:34:45Z</time>
      </trkpt>
      <trkpt lat="42.172558" lon="2.491911">
        <ele>432.051</ele>
        <time>2021-05-27T13:34:49Z</time>
      </trkpt>
      <trkpt lat="42.172583" lon="2.491862">
        <ele>432.087</ele>
        <time>2021-05-27T13:34:51Z</time>
      </trkpt>
      <trkpt lat="42.172599" lon="2.491837">
        <ele>432.085</ele>
        <time>2021-05-27T13:34:52Z</time>
      </trkpt>
      <trkpt lat="42.172614" lon="2.491817">
        <ele>432.089</ele>
        <time>2021-05-27T13:34:53Z</time>
      </trkpt>
      <trkpt lat="42.172628" lon="2.491800">
        <ele>432.017</ele>
        <time>2021-05-27T13:34:54Z</time>
      </trkpt>
      <trkpt lat="42.172641" lon="2.491781">
        <ele>432.008</ele>
        <time>2021-05-27T13:34:55Z</time>
      </trkpt>
      <trkpt lat="42.172665" lon="2.491740">
        <ele>432.055</ele>
        <time>2021-05-27T13:34:57Z</time>
      </trkpt>
      <trkpt lat="42.172677" lon="2.491719">
        <ele>432.092</ele>
        <time>2021-05-27T13:34:58Z</time>
      </trkpt>
      <trkpt lat="42.172697" lon="2.491677">
        <ele>432.050</ele>
        <time>2021-05-27T13:35:00Z</time>
      </trkpt>
      <trkpt lat="42.172708" lon="2.491654">
        <ele>432.060</ele>
        <time>2021-05-27T13:35:01Z</time>
      </trkpt>
      <trkpt lat="42.172719" lon="2.491629">
        <ele>432.097</ele>
        <time>2021-05-27T13:35:02Z</time>
      </trkpt>
      <trkpt lat="42.172726" lon="2.491606">
        <ele>432.052</ele>
        <time>2021-05-27T13:35:03Z</time>
      </trkpt>
      <trkpt lat="42.172738" lon="2.491582">
        <ele>432.095</ele>
        <time>2021-05-27T13:35:04Z</time>
      </trkpt>
      <trkpt lat="42.172747" lon="2.491559">
        <ele>432.051</ele>
        <time>2021-05-27T13:35:05Z</time>
      </trkpt>
      <trkpt lat="42.172757" lon="2.491536">
        <ele>432.016</ele>
        <time>2021-05-27T13:35:06Z</time>
      </trkpt>
      <trkpt lat="42.172761" lon="2.491512">
        <ele>432.076</ele>
        <time>2021-05-27T13:35:07Z</time>
      </trkpt>
      <trkpt lat="42.172769" lon="2.491489">
        <ele>432.013</ele>
        <time>2021-05-27T13:35:08Z</time>
      </trkpt>
      <trkpt lat="42.172780" lon="2.491465">
        <ele>432.008</ele>
        <time>2021-05-27T13:35:09Z</time>
      </trkpt>
      <trkpt lat="42.172790" lon="2.491438">
        <ele>432.018</ele>
        <time>2021-05-27T13:35:10Z</time>
      </trkpt>
      <trkpt lat="42.172799" lon="2.491411">
        <ele>432.055</ele>
        <time>2021-05-27T13:35:11Z</time>
      </trkpt>
      <trkpt lat="42.172813" lon="2.491381">
        <ele>432.083</ele>
        <time>2021-05-27T13:35:12Z</time>
      </trkpt>
      <trkpt lat="42.172824" lon="2.491356">
        <ele>432.033</ele>
        <time>2021-05-27T13:35:13Z</time>
      </trkpt>
      <trkpt lat="42.172836" lon="2.491332">
        <ele>432.070</ele>
        <time>2021-05-27T13:35:14Z</time>
      </trkpt>
      <trkpt lat="42.172847" lon="2.491305">
        <ele>431.965</ele>
        <time>2021-05-27T13:35:15Z</time>
      </trkpt>
      <trkpt lat="42.172858" lon="2.491281">
        <ele>431.998</ele>
        <time>2021-05-27T13:35:16Z</time>
      </trkpt>
      <trkpt lat="42.172870" lon="2.491257">
        <ele>431.854</ele>
        <time>2021-05-27T13:35:17Z</time>
      </trkpt>
      <trkpt lat="42.172882" lon="2.491234">
        <ele>431.811</ele>
        <time>2021-05-27T13:35:18Z</time>
      </trkpt>
      <trkpt lat="42.172897" lon="2.491207">
        <ele>431.721</ele>
        <time>2021-05-27T13:35:19Z</time>
      </trkpt>
      <trkpt lat="42.172910" lon="2.491179">
        <ele>431.603</ele>
        <time>2021-05-27T13:35:20Z</time>
      </trkpt>
      <trkpt lat="42.172924" lon="2.491155">
        <ele>431.608</ele>
        <time>2021-05-27T13:35:21Z</time>
      </trkpt>
      <trkpt lat="42.172937" lon="2.491132">
        <ele>431.588</ele>
        <time>2021-05-27T13:35:22Z</time>
      </trkpt>
      <trkpt lat="42.172951" lon="2.491111">
        <ele>431.455</ele>
        <time>2021-05-27T13:35:23Z</time>
      </trkpt>
      <trkpt lat="42.172967" lon="2.491091">
        <ele>431.353</ele>
        <time>2021-05-27T13:35:24Z</time>
      </trkpt>
      <trkpt lat="42.172980" lon="2.491072">
        <ele>431.233</ele>
        <time>2021-05-27T13:35:25Z</time>
      </trkpt>
      <trkpt lat="42.172995" lon="2.491051">
        <ele>431.120</ele>
        <time>2021-05-27T13:35:26Z</time>
      </trkpt>
      <trkpt lat="42.173011" lon="2.491029">
        <ele>431.185</ele>
        <time>2021-05-27T13:35:27Z</time>
      </trkpt>
      <trkpt lat="42.173030" lon="2.491010">
        <ele>431.078</ele>
        <time>2021-05-27T13:35:28Z</time>
      </trkpt>
      <trkpt lat="42.173057" lon="2.490979">
        <ele>431.054</ele>
        <time>2021-05-27T13:35:30Z</time>
      </trkpt>
      <trkpt lat="42.173084" lon="2.490950">
        <ele>431.087</ele>
        <time>2021-05-27T13:35:32Z</time>
      </trkpt>
      <trkpt lat="42.173110" lon="2.490918">
        <ele>431.042</ele>
        <time>2021-05-27T13:35:34Z</time>
      </trkpt>
      <trkpt lat="42.173137" lon="2.490888">
        <ele>431.026</ele>
        <time>2021-05-27T13:35:36Z</time>
      </trkpt>
      <trkpt lat="42.173151" lon="2.490873">
        <ele>431.008</ele>
        <time>2021-05-27T13:35:37Z</time>
      </trkpt>
      <trkpt lat="42.173166" lon="2.490854">
        <ele>431.085</ele>
        <time>2021-05-27T13:35:38Z</time>
      </trkpt>
      <trkpt lat="42.173181" lon="2.490838">
        <ele>431.052</ele>
        <time>2021-05-27T13:35:39Z</time>
      </trkpt>
      <trkpt lat="42.173208" lon="2.490808">
        <ele>430.960</ele>
        <time>2021-05-27T13:35:41Z</time>
      </trkpt>
      <trkpt lat="42.173232" lon="2.490775">
        <ele>430.880</ele>
        <time>2021-05-27T13:35:43Z</time>
      </trkpt>
      <trkpt lat="42.173247" lon="2.490754">
        <ele>430.717</ele>
        <time>2021-05-27T13:35:44Z</time>
      </trkpt>
      <trkpt lat="42.173265" lon="2.490734">
        <ele>430.622</ele>
        <time>2021-05-27T13:35:45Z</time>
      </trkpt>
      <trkpt lat="42.173283" lon="2.490716">
        <ele>430.635</ele>
        <time>2021-05-27T13:35:46Z</time>
      </trkpt>
      <trkpt lat="42.173301" lon="2.490694">
        <ele>430.591</ele>
        <time>2021-05-27T13:35:47Z</time>
      </trkpt>
      <trkpt lat="42.173322" lon="2.490675">
        <ele>430.439</ele>
        <time>2021-05-27T13:35:48Z</time>
      </trkpt>
      <trkpt lat="42.173339" lon="2.490657">
        <ele>430.401</ele>
        <time>2021-05-27T13:35:49Z</time>
      </trkpt>
      <trkpt lat="42.173356" lon="2.490639">
        <ele>430.321</ele>
        <time>2021-05-27T13:35:50Z</time>
      </trkpt>
      <trkpt lat="42.173372" lon="2.490622">
        <ele>430.208</ele>
        <time>2021-05-27T13:35:51Z</time>
      </trkpt>
      <trkpt lat="42.173391" lon="2.490602">
        <ele>430.210</ele>
        <time>2021-05-27T13:35:52Z</time>
      </trkpt>
      <trkpt lat="42.173408" lon="2.490585">
        <ele>430.197</ele>
        <time>2021-05-27T13:35:53Z</time>
      </trkpt>
      <trkpt lat="42.173426" lon="2.490565">
        <ele>430.065</ele>
        <time>2021-05-27T13:35:54Z</time>
      </trkpt>
      <trkpt lat="42.173442" lon="2.490547">
        <ele>430.045</ele>
        <time>2021-05-27T13:35:55Z</time>
      </trkpt>
      <trkpt lat="42.173458" lon="2.490528">
        <ele>430.032</ele>
        <time>2021-05-27T13:35:56Z</time>
      </trkpt>
      <trkpt lat="42.173477" lon="2.490509">
        <ele>430.097</ele>
        <time>2021-05-27T13:35:57Z</time>
      </trkpt>
      <trkpt lat="42.173495" lon="2.490492">
        <ele>430.030</ele>
        <time>2021-05-27T13:35:58Z</time>
      </trkpt>
      <trkpt lat="42.173512" lon="2.490474">
        <ele>430.096</ele>
        <time>2021-05-27T13:35:59Z</time>
      </trkpt>
      <trkpt lat="42.173530" lon="2.490453">
        <ele>430.056</ele>
        <time>2021-05-27T13:36:00Z</time>
      </trkpt>
      <trkpt lat="42.173549" lon="2.490431">
        <ele>430.059</ele>
        <time>2021-05-27T13:36:01Z</time>
      </trkpt>
      <trkpt lat="42.173568" lon="2.490411">
        <ele>430.014</ele>
        <time>2021-05-27T13:36:02Z</time>
      </trkpt>
      <trkpt lat="42.173586" lon="2.490394">
        <ele>430.008</ele>
        <time>2021-05-27T13:36:03Z</time>
      </trkpt>
      <trkpt lat="42.173603" lon="2.490374">
        <ele>430.032</ele>
        <time>2021-05-27T13:36:04Z</time>
      </trkpt>
      <trkpt lat="42.173620" lon="2.490353">
        <ele>430.019</ele>
        <time>2021-05-27T13:36:05Z</time>
      </trkpt>
      <trkpt lat="42.173638" lon="2.490332">
        <ele>430.087</ele>
        <time>2021-05-27T13:36:06Z</time>
      </trkpt>
      <trkpt lat="42.173652" lon="2.490311">
        <ele>430.057</ele>
        <time>2021-05-27T13:36:07Z</time>
      </trkpt>
      <trkpt lat="42.173682" lon="2.490288">
        <ele>430.094</ele>
        <time>2021-05-27T13:36:08Z</time>
      </trkpt>
      <trkpt lat="42.173700" lon="2.490271">
        <ele>430.089</ele>
        <time>2021-05-27T13:36:09Z</time>
      </trkpt>
      <trkpt lat="42.173716" lon="2.490256">
        <ele>430.042</ele>
        <time>2021-05-27T13:36:10Z</time>
      </trkpt>
      <trkpt lat="42.173734" lon="2.490236">
        <ele>430.048</ele>
        <time>2021-05-27T13:36:11Z</time>
      </trkpt>
      <trkpt lat="42.173748" lon="2.490219">
        <ele>430.077</ele>
        <time>2021-05-27T13:36:12Z</time>
      </trkpt>
      <trkpt lat="42.173763" lon="2.490200">
        <ele>430.061</ele>
        <time>2021-05-27T13:36:13Z</time>
      </trkpt>
      <trkpt lat="42.173778" lon="2.490181">
        <ele>430.027</ele>
        <time>2021-05-27T13:36:14Z</time>
      </trkpt>
      <trkpt lat="42.173797" lon="2.490164">
        <ele>430.008</ele>
        <time>2021-05-27T13:36:15Z</time>
      </trkpt>
      <trkpt lat="42.173814" lon="2.490145">
        <ele>430.094</ele>
        <time>2021-05-27T13:36:16Z</time>
      </trkpt>
      <trkpt lat="42.173829" lon="2.490131">
        <ele>430.091</ele>
        <time>2021-05-27T13:36:17Z</time>
      </trkpt>
      <trkpt lat="42.173847" lon="2.490118">
        <ele>430.019</ele>
        <time>2021-05-27T13:36:18Z</time>
      </trkpt>
      <trkpt lat="42.173864" lon="2.490105">
        <ele>430.039</ele>
        <time>2021-05-27T13:36:19Z</time>
      </trkpt>
      <trkpt lat="42.173899" lon="2.490083">
        <ele>430.066</ele>
        <time>2021-05-27T13:36:21Z</time>
      </trkpt>
      <trkpt lat="42.173915" lon="2.490070">
        <ele>430.081</ele>
        <time>2021-05-27T13:36:22Z</time>
      </trkpt>
      <trkpt lat="42.173965" lon="2.490041">
        <ele>430.094</ele>
        <time>2021-05-27T13:36:25Z</time>
      </trkpt>
      <trkpt lat="42.173983" lon="2.490033">
        <ele>430.030</ele>
        <time>2021-05-27T13:36:26Z</time>
      </trkpt>
      <trkpt lat="42.173999" lon="2.490018">
        <ele>430.097</ele>
        <time>2021-05-27T13:36:27Z</time>
      </trkpt>
      <trkpt lat="42.174017" lon="2.490004">
        <ele>430.023</ele>
        <time>2021-05-27T13:36:28Z</time>
      </trkpt>
      <trkpt lat="42.174034" lon="2.489989">
        <ele>430.025</ele>
        <time>2021-05-27T13:36:29Z</time>
      </trkpt>
      <trkpt lat="42.174054" lon="2.489978">
        <ele>430.008</ele>
        <time>2021-05-27T13:36:30Z</time>
      </trkpt>
      <trkpt lat="42.174074" lon="2.489965">
        <ele>430.036</ele>
        <time>2021-05-27T13:36:31Z</time>
      </trkpt>
      <trkpt lat="42.174093" lon="2.489950">
        <ele>430.093</ele>
        <time>2021-05-27T13:36:32Z</time>
      </trkpt>
      <trkpt lat="42.174110" lon="2.489937">
        <ele>430.071</ele>
        <time>2021-05-27T13:36:33Z</time>
      </trkpt>
      <trkpt lat="42.174127" lon="2.489926">
        <ele>430.051</ele>
        <time>2021-05-27T13:36:34Z</time>
      </trkpt>
      <trkpt lat="42.174146" lon="2.489914">
        <ele>430.078</ele>
        <time>2021-05-27T13:36:35Z</time>
      </trkpt>
      <trkpt lat="42.174178" lon="2.489900">
        <ele>430.073</ele>
        <time>2021-05-27T13:36:37Z</time>
      </trkpt>
      <trkpt lat="42.174217" lon="2.489889">
        <ele>429.956</ele>
        <time>2021-05-27T13:36:39Z</time>
      </trkpt>
      <trkpt lat="42.174304" lon="2.489811">
        <ele>429.812</ele>
        <time>2021-05-27T13:36:44Z</time>
      </trkpt>
      <trkpt lat="42.174397" lon="2.489746">
        <ele>429.995</ele>
        <time>2021-05-27T13:36:50Z</time>
      </trkpt>
      <trkpt lat="42.174487" lon="2.489695">
        <ele>429.949</ele>
        <time>2021-05-27T13:36:54Z</time>
      </trkpt>
      <trkpt lat="42.174562" lon="2.489616">
        <ele>429.723</ele>
        <time>2021-05-27T13:36:59Z</time>
      </trkpt>
      <trkpt lat="42.174642" lon="2.489559">
        <ele>429.708</ele>
        <time>2021-05-27T13:37:04Z</time>
      </trkpt>
      <trkpt lat="42.174727" lon="2.489503">
        <ele>429.886</ele>
        <time>2021-05-27T13:37:09Z</time>
      </trkpt>
      <trkpt lat="42.174813" lon="2.489460">
        <ele>429.973</ele>
        <time>2021-05-27T13:37:13Z</time>
      </trkpt>
      <trkpt lat="42.174904" lon="2.489399">
        <ele>430.171</ele>
        <time>2021-05-27T13:37:18Z</time>
      </trkpt>
      <trkpt lat="42.174994" lon="2.489335">
        <ele>430.471</ele>
        <time>2021-05-27T13:37:24Z</time>
      </trkpt>
      <trkpt lat="42.175081" lon="2.489296">
        <ele>431.058</ele>
        <time>2021-05-27T13:37:31Z</time>
      </trkpt>
      <trkpt lat="42.175111" lon="2.489307">
        <ele>431.113</ele>
        <time>2021-05-27T13:37:34Z</time>
      </trkpt>
      <trkpt lat="42.175149" lon="2.489293">
        <ele>431.356</ele>
        <time>2021-05-27T13:37:37Z</time>
      </trkpt>
      <trkpt lat="42.175169" lon="2.489259">
        <ele>431.522</ele>
        <time>2021-05-27T13:37:38Z</time>
      </trkpt>
      <trkpt lat="42.175211" lon="2.489232">
        <ele>431.753</ele>
        <time>2021-05-27T13:37:43Z</time>
      </trkpt>
      <trkpt lat="42.175227" lon="2.489209">
        <ele>431.804</ele>
        <time>2021-05-27T13:37:45Z</time>
      </trkpt>
      <trkpt lat="42.175250" lon="2.489198">
        <ele>431.914</ele>
        <time>2021-05-27T13:37:47Z</time>
      </trkpt>
      <trkpt lat="42.175269" lon="2.489184">
        <ele>432.008</ele>
        <time>2021-05-27T13:37:49Z</time>
      </trkpt>
      <trkpt lat="42.175284" lon="2.489169">
        <ele>432.072</ele>
        <time>2021-05-27T13:37:51Z</time>
      </trkpt>
      <trkpt lat="42.175311" lon="2.489151">
        <ele>431.859</ele>
        <time>2021-05-27T13:37:53Z</time>
      </trkpt>
      <trkpt lat="42.175338" lon="2.489144">
        <ele>431.727</ele>
        <time>2021-05-27T13:37:55Z</time>
      </trkpt>
      <trkpt lat="42.175364" lon="2.489136">
        <ele>431.617</ele>
        <time>2021-05-27T13:37:57Z</time>
      </trkpt>
      <trkpt lat="42.175390" lon="2.489135">
        <ele>431.554</ele>
        <time>2021-05-27T13:37:59Z</time>
      </trkpt>
      <trkpt lat="42.175420" lon="2.489131">
        <ele>431.429</ele>
        <time>2021-05-27T13:38:01Z</time>
      </trkpt>
      <trkpt lat="42.175449" lon="2.489127">
        <ele>431.312</ele>
        <time>2021-05-27T13:38:03Z</time>
      </trkpt>
      <trkpt lat="42.175476" lon="2.489113">
        <ele>431.248</ele>
        <time>2021-05-27T13:38:05Z</time>
      </trkpt>
      <trkpt lat="42.175503" lon="2.489108">
        <ele>431.111</ele>
        <time>2021-05-27T13:38:07Z</time>
      </trkpt>
      <trkpt lat="42.175521" lon="2.489097">
        <ele>431.121</ele>
        <time>2021-05-27T13:38:09Z</time>
      </trkpt>
      <trkpt lat="42.175545" lon="2.489077">
        <ele>431.003</ele>
        <time>2021-05-27T13:38:11Z</time>
      </trkpt>
      <trkpt lat="42.175563" lon="2.489062">
        <ele>431.008</ele>
        <time>2021-05-27T13:38:13Z</time>
      </trkpt>
      <trkpt lat="42.175585" lon="2.489055">
        <ele>430.918</ele>
        <time>2021-05-27T13:38:15Z</time>
      </trkpt>
      <trkpt lat="42.175606" lon="2.489044">
        <ele>430.855</ele>
        <time>2021-05-27T13:38:17Z</time>
      </trkpt>
      <trkpt lat="42.175630" lon="2.489036">
        <ele>430.653</ele>
        <time>2021-05-27T13:38:20Z</time>
      </trkpt>
      <trkpt lat="42.175642" lon="2.489018">
        <ele>430.523</ele>
        <time>2021-05-27T13:38:23Z</time>
      </trkpt>
      <trkpt lat="42.175651" lon="2.488988">
        <ele>430.360</ele>
        <time>2021-05-27T13:38:26Z</time>
      </trkpt>
      <trkpt lat="42.175648" lon="2.488958">
        <ele>430.225</ele>
        <time>2021-05-27T13:38:29Z</time>
      </trkpt>
      <trkpt lat="42.175666" lon="2.488954">
        <ele>430.148</ele>
        <time>2021-05-27T13:39:07Z</time>
      </trkpt>
      <trkpt lat="42.175653" lon="2.488972">
        <ele>430.374</ele>
        <time>2021-05-27T13:39:28Z</time>
      </trkpt>
      <trkpt lat="42.175634" lon="2.488980">
        <ele>430.487</ele>
        <time>2021-05-27T13:39:42Z</time>
      </trkpt>
      <trkpt lat="42.175654" lon="2.488988">
        <ele>430.342</ele>
        <time>2021-05-27T13:39:59Z</time>
      </trkpt>
      <trkpt lat="42.175665" lon="2.488948">
        <ele>430.126</ele>
        <time>2021-05-27T13:40:06Z</time>
      </trkpt>
      <trkpt lat="42.175687" lon="2.488957">
        <ele>429.908</ele>
        <time>2021-05-27T13:40:09Z</time>
      </trkpt>
      <trkpt lat="42.175708" lon="2.488977">
        <ele>429.915</ele>
        <time>2021-05-27T13:40:11Z</time>
      </trkpt>
      <trkpt lat="42.175729" lon="2.489001">
        <ele>429.952</ele>
        <time>2021-05-27T13:40:13Z</time>
      </trkpt>
      <trkpt lat="42.175752" lon="2.489010">
        <ele>429.810</ele>
        <time>2021-05-27T13:40:15Z</time>
      </trkpt>
      <trkpt lat="42.175772" lon="2.489014">
        <ele>429.720</ele>
        <time>2021-05-27T13:40:17Z</time>
      </trkpt>
      <trkpt lat="42.175798" lon="2.488990">
        <ele>429.377</ele>
        <time>2021-05-27T13:40:19Z</time>
      </trkpt>
      <trkpt lat="42.175825" lon="2.488973">
        <ele>429.052</ele>
        <time>2021-05-27T13:40:21Z</time>
      </trkpt>
      <trkpt lat="42.175849" lon="2.488949">
        <ele>428.665</ele>
        <time>2021-05-27T13:40:23Z</time>
      </trkpt>
      <trkpt lat="42.175860" lon="2.488914">
        <ele>428.291</ele>
        <time>2021-05-27T13:40:25Z</time>
      </trkpt>
      <trkpt lat="42.175873" lon="2.488870">
        <ele>427.827</ele>
        <time>2021-05-27T13:40:31Z</time>
      </trkpt>
      <trkpt lat="42.175877" lon="2.488845">
        <ele>427.868</ele>
        <time>2021-05-27T13:40:32Z</time>
      </trkpt>
      <trkpt lat="42.175896" lon="2.488811">
        <ele>427.714</ele>
        <time>2021-05-27T13:40:34Z</time>
      </trkpt>
      <trkpt lat="42.175914" lon="2.488791">
        <ele>427.808</ele>
        <time>2021-05-27T13:40:36Z</time>
      </trkpt>
      <trkpt lat="42.175929" lon="2.488773">
        <ele>427.889</ele>
        <time>2021-05-27T13:40:38Z</time>
      </trkpt>
      <trkpt lat="42.175950" lon="2.488758">
        <ele>427.966</ele>
        <time>2021-05-27T13:40:40Z</time>
      </trkpt>
      <trkpt lat="42.175975" lon="2.488752">
        <ele>428.014</ele>
        <time>2021-05-27T13:40:42Z</time>
      </trkpt>
      <trkpt lat="42.176001" lon="2.488742">
        <ele>428.164</ele>
        <time>2021-05-27T13:40:44Z</time>
      </trkpt>
      <trkpt lat="42.176020" lon="2.488729">
        <ele>428.371</ele>
        <time>2021-05-27T13:40:46Z</time>
      </trkpt>
      <trkpt lat="42.176042" lon="2.488710">
        <ele>428.596</ele>
        <time>2021-05-27T13:40:49Z</time>
      </trkpt>
      <trkpt lat="42.176066" lon="2.488690">
        <ele>428.869</ele>
        <time>2021-05-27T13:40:52Z</time>
      </trkpt>
      <trkpt lat="42.176092" lon="2.488690">
        <ele>429.025</ele>
        <time>2021-05-27T13:40:54Z</time>
      </trkpt>
      <trkpt lat="42.176119" lon="2.488693">
        <ele>429.255</ele>
        <time>2021-05-27T13:40:56Z</time>
      </trkpt>
      <trkpt lat="42.176140" lon="2.488696">
        <ele>429.307</ele>
        <time>2021-05-27T13:41:00Z</time>
      </trkpt>
      <trkpt lat="42.176164" lon="2.488689">
        <ele>429.517</ele>
        <time>2021-05-27T13:41:02Z</time>
      </trkpt>
      <trkpt lat="42.176186" lon="2.488678">
        <ele>429.708</ele>
        <time>2021-05-27T13:41:04Z</time>
      </trkpt>
      <trkpt lat="42.176209" lon="2.488671">
        <ele>429.992</ele>
        <time>2021-05-27T13:41:06Z</time>
      </trkpt>
      <trkpt lat="42.176232" lon="2.488676">
        <ele>430.029</ele>
        <time>2021-05-27T13:41:08Z</time>
      </trkpt>
      <trkpt lat="42.176257" lon="2.488688">
        <ele>430.167</ele>
        <time>2021-05-27T13:41:10Z</time>
      </trkpt>
      <trkpt lat="42.176280" lon="2.488702">
        <ele>430.227</ele>
        <time>2021-05-27T13:41:12Z</time>
      </trkpt>
      <trkpt lat="42.176307" lon="2.488722">
        <ele>430.444</ele>
        <time>2021-05-27T13:41:14Z</time>
      </trkpt>
      <trkpt lat="42.176333" lon="2.488741">
        <ele>430.549</ele>
        <time>2021-05-27T13:41:16Z</time>
      </trkpt>
      <trkpt lat="42.176357" lon="2.488755">
        <ele>430.722</ele>
        <time>2021-05-27T13:41:18Z</time>
      </trkpt>
      <trkpt lat="42.176383" lon="2.488768">
        <ele>430.958</ele>
        <time>2021-05-27T13:41:20Z</time>
      </trkpt>
      <trkpt lat="42.176403" lon="2.488783">
        <ele>431.092</ele>
        <time>2021-05-27T13:41:22Z</time>
      </trkpt>
      <trkpt lat="42.176423" lon="2.488791">
        <ele>431.073</ele>
        <time>2021-05-27T13:41:24Z</time>
      </trkpt>
      <trkpt lat="42.176446" lon="2.488798">
        <ele>431.020</ele>
        <time>2021-05-27T13:41:26Z</time>
      </trkpt>
      <trkpt lat="42.176469" lon="2.488812">
        <ele>431.008</ele>
        <time>2021-05-27T13:41:28Z</time>
      </trkpt>
      <trkpt lat="42.176490" lon="2.488820">
        <ele>431.026</ele>
        <time>2021-05-27T13:41:30Z</time>
      </trkpt>
      <trkpt lat="42.176519" lon="2.488820">
        <ele>431.053</ele>
        <time>2021-05-27T13:41:32Z</time>
      </trkpt>
      <trkpt lat="42.176538" lon="2.488813">
        <ele>431.031</ele>
        <time>2021-05-27T13:41:33Z</time>
      </trkpt>
      <trkpt lat="42.176555" lon="2.488802">
        <ele>431.021</ele>
        <time>2021-05-27T13:41:34Z</time>
      </trkpt>
      <trkpt lat="42.176575" lon="2.488797">
        <ele>431.028</ele>
        <time>2021-05-27T13:41:35Z</time>
      </trkpt>
      <trkpt lat="42.176604" lon="2.488798">
        <ele>431.083</ele>
        <time>2021-05-27T13:41:37Z</time>
      </trkpt>
      <trkpt lat="42.176634" lon="2.488798">
        <ele>431.036</ele>
        <time>2021-05-27T13:41:39Z</time>
      </trkpt>
      <trkpt lat="42.176660" lon="2.488793">
        <ele>431.052</ele>
        <time>2021-05-27T13:41:41Z</time>
      </trkpt>
      <trkpt lat="42.176692" lon="2.488792">
        <ele>430.855</ele>
        <time>2021-05-27T13:41:43Z</time>
      </trkpt>
      <trkpt lat="42.176721" lon="2.488793">
        <ele>430.607</ele>
        <time>2021-05-27T13:41:45Z</time>
      </trkpt>
      <trkpt lat="42.176742" lon="2.488791">
        <ele>430.517</ele>
        <time>2021-05-27T13:41:47Z</time>
      </trkpt>
      <trkpt lat="42.176766" lon="2.488793">
        <ele>430.308</ele>
        <time>2021-05-27T13:41:49Z</time>
      </trkpt>
      <trkpt lat="42.176787" lon="2.488796">
        <ele>430.142</ele>
        <time>2021-05-27T13:41:51Z</time>
      </trkpt>
      <trkpt lat="42.176807" lon="2.488802">
        <ele>430.089</ele>
        <time>2021-05-27T13:41:53Z</time>
      </trkpt>
      <trkpt lat="42.176834" lon="2.488805">
        <ele>429.767</ele>
        <time>2021-05-27T13:41:56Z</time>
      </trkpt>
      <trkpt lat="42.176855" lon="2.488794">
        <ele>429.777</ele>
        <time>2021-05-27T13:41:59Z</time>
      </trkpt>
      <trkpt lat="42.176875" lon="2.488785">
        <ele>429.664</ele>
        <time>2021-05-27T13:42:01Z</time>
      </trkpt>
      <trkpt lat="42.176903" lon="2.488771">
        <ele>429.519</ele>
        <time>2021-05-27T13:42:04Z</time>
      </trkpt>
      <trkpt lat="42.176926" lon="2.488753">
        <ele>429.682</ele>
        <time>2021-05-27T13:42:07Z</time>
      </trkpt>
      <trkpt lat="42.176949" lon="2.488736">
        <ele>429.668</ele>
        <time>2021-05-27T13:42:08Z</time>
      </trkpt>
      <trkpt lat="42.176965" lon="2.488721">
        <ele>429.792</ele>
        <time>2021-05-27T13:42:12Z</time>
      </trkpt>
      <trkpt lat="42.176983" lon="2.488706">
        <ele>429.773</ele>
        <time>2021-05-27T13:42:14Z</time>
      </trkpt>
      <trkpt lat="42.177004" lon="2.488694">
        <ele>429.720</ele>
        <time>2021-05-27T13:42:16Z</time>
      </trkpt>
      <trkpt lat="42.177032" lon="2.488678">
        <ele>429.608</ele>
        <time>2021-05-27T13:42:18Z</time>
      </trkpt>
      <trkpt lat="42.177055" lon="2.488660">
        <ele>429.696</ele>
        <time>2021-05-27T13:42:20Z</time>
      </trkpt>
      <trkpt lat="42.177083" lon="2.488640">
        <ele>429.433</ele>
        <time>2021-05-27T13:42:22Z</time>
      </trkpt>
      <trkpt lat="42.177100" lon="2.488629">
        <ele>429.321</ele>
        <time>2021-05-27T13:42:23Z</time>
      </trkpt>
      <trkpt lat="42.177126" lon="2.488609">
        <ele>429.111</ele>
        <time>2021-05-27T13:42:25Z</time>
      </trkpt>
      <trkpt lat="42.177147" lon="2.488591">
        <ele>429.018</ele>
        <time>2021-05-27T13:42:27Z</time>
      </trkpt>
      <trkpt lat="42.177168" lon="2.488571">
        <ele>428.943</ele>
        <time>2021-05-27T13:42:29Z</time>
      </trkpt>
      <trkpt lat="42.177190" lon="2.488555">
        <ele>428.946</ele>
        <time>2021-05-27T13:42:31Z</time>
      </trkpt>
      <trkpt lat="42.177212" lon="2.488537">
        <ele>428.952</ele>
        <time>2021-05-27T13:42:33Z</time>
      </trkpt>
      <trkpt lat="42.177236" lon="2.488524">
        <ele>428.989</ele>
        <time>2021-05-27T13:42:35Z</time>
      </trkpt>
      <trkpt lat="42.177263" lon="2.488509">
        <ele>429.006</ele>
        <time>2021-05-27T13:42:37Z</time>
      </trkpt>
      <trkpt lat="42.177293" lon="2.488496">
        <ele>429.026</ele>
        <time>2021-05-27T13:42:39Z</time>
      </trkpt>
      <trkpt lat="42.177324" lon="2.488480">
        <ele>429.108</ele>
        <time>2021-05-27T13:42:41Z</time>
      </trkpt>
      <trkpt lat="42.177355" lon="2.488467">
        <ele>429.145</ele>
        <time>2021-05-27T13:42:43Z</time>
      </trkpt>
      <trkpt lat="42.177378" lon="2.488454">
        <ele>429.192</ele>
        <time>2021-05-27T13:42:45Z</time>
      </trkpt>
      <trkpt lat="42.177400" lon="2.488444">
        <ele>429.280</ele>
        <time>2021-05-27T13:42:46Z</time>
      </trkpt>
      <trkpt lat="42.177422" lon="2.488433">
        <ele>429.270</ele>
        <time>2021-05-27T13:42:48Z</time>
      </trkpt>
      <trkpt lat="42.177442" lon="2.488422">
        <ele>429.367</ele>
        <time>2021-05-27T13:42:50Z</time>
      </trkpt>
      <trkpt lat="42.177464" lon="2.488412">
        <ele>429.362</ele>
        <time>2021-05-27T13:42:52Z</time>
      </trkpt>
      <trkpt lat="42.177486" lon="2.488402">
        <ele>429.345</ele>
        <time>2021-05-27T13:42:54Z</time>
      </trkpt>
      <trkpt lat="42.177508" lon="2.488394">
        <ele>429.491</ele>
        <time>2021-05-27T13:42:56Z</time>
      </trkpt>
      <trkpt lat="42.177532" lon="2.488386">
        <ele>429.547</ele>
        <time>2021-05-27T13:42:58Z</time>
      </trkpt>
      <trkpt lat="42.177553" lon="2.488378">
        <ele>429.529</ele>
        <time>2021-05-27T13:43:00Z</time>
      </trkpt>
      <trkpt lat="42.177578" lon="2.488370">
        <ele>429.621</ele>
        <time>2021-05-27T13:43:02Z</time>
      </trkpt>
      <trkpt lat="42.177605" lon="2.488363">
        <ele>429.708</ele>
        <time>2021-05-27T13:43:04Z</time>
      </trkpt>
      <trkpt lat="42.177627" lon="2.488359">
        <ele>429.821</ele>
        <time>2021-05-27T13:43:06Z</time>
      </trkpt>
      <trkpt lat="42.177656" lon="2.488360">
        <ele>429.838</ele>
        <time>2021-05-27T13:43:08Z</time>
      </trkpt>
      <trkpt lat="42.177685" lon="2.488360">
        <ele>429.866</ele>
        <time>2021-05-27T13:43:10Z</time>
      </trkpt>
      <trkpt lat="42.177716" lon="2.488361">
        <ele>429.836</ele>
        <time>2021-05-27T13:43:12Z</time>
      </trkpt>
      <trkpt lat="42.177745" lon="2.488360">
        <ele>429.813</ele>
        <time>2021-05-27T13:43:14Z</time>
      </trkpt>
      <trkpt lat="42.177769" lon="2.488357">
        <ele>429.828</ele>
        <time>2021-05-27T13:43:16Z</time>
      </trkpt>
      <trkpt lat="42.177794" lon="2.488357">
        <ele>429.941</ele>
        <time>2021-05-27T13:43:18Z</time>
      </trkpt>
      <trkpt lat="42.177817" lon="2.488358">
        <ele>430.027</ele>
        <time>2021-05-27T13:43:20Z</time>
      </trkpt>
      <trkpt lat="42.177843" lon="2.488359">
        <ele>430.041</ele>
        <time>2021-05-27T13:43:22Z</time>
      </trkpt>
      <trkpt lat="42.177864" lon="2.488368">
        <ele>430.081</ele>
        <time>2021-05-27T13:43:24Z</time>
      </trkpt>
      <trkpt lat="42.177881" lon="2.488379">
        <ele>430.009</ele>
        <time>2021-05-27T13:43:26Z</time>
      </trkpt>
      <trkpt lat="42.177918" lon="2.488387">
        <ele>430.008</ele>
        <time>2021-05-27T13:43:28Z</time>
      </trkpt>
      <trkpt lat="42.177953" lon="2.488392">
        <ele>430.111</ele>
        <time>2021-05-27T13:43:30Z</time>
      </trkpt>
      <trkpt lat="42.177982" lon="2.488404">
        <ele>430.028</ele>
        <time>2021-05-27T13:43:32Z</time>
      </trkpt>
      <trkpt lat="42.178001" lon="2.488422">
        <ele>429.946</ele>
        <time>2021-05-27T13:43:34Z</time>
      </trkpt>
      <trkpt lat="42.178019" lon="2.488434">
        <ele>429.856</ele>
        <time>2021-05-27T13:43:36Z</time>
      </trkpt>
      <trkpt lat="42.178038" lon="2.488449">
        <ele>429.753</ele>
        <time>2021-05-27T13:43:38Z</time>
      </trkpt>
      <trkpt lat="42.178060" lon="2.488466">
        <ele>429.648</ele>
        <time>2021-05-27T13:43:40Z</time>
      </trkpt>
      <trkpt lat="42.178078" lon="2.488486">
        <ele>429.511</ele>
        <time>2021-05-27T13:43:42Z</time>
      </trkpt>
      <trkpt lat="42.178093" lon="2.488512">
        <ele>429.357</ele>
        <time>2021-05-27T13:43:44Z</time>
      </trkpt>
      <trkpt lat="42.178107" lon="2.488538">
        <ele>429.235</ele>
        <time>2021-05-27T13:43:46Z</time>
      </trkpt>
      <trkpt lat="42.178119" lon="2.488564">
        <ele>429.186</ele>
        <time>2021-05-27T13:43:48Z</time>
      </trkpt>
      <trkpt lat="42.178117" lon="2.488590">
        <ele>428.814</ele>
        <time>2021-05-27T13:43:50Z</time>
      </trkpt>
      <trkpt lat="42.178129" lon="2.488615">
        <ele>428.808</ele>
        <time>2021-05-27T13:43:52Z</time>
      </trkpt>
      <trkpt lat="42.178143" lon="2.488642">
        <ele>428.740</ele>
        <time>2021-05-27T13:43:54Z</time>
      </trkpt>
      <trkpt lat="42.178165" lon="2.488670">
        <ele>428.857</ele>
        <time>2021-05-27T13:43:56Z</time>
      </trkpt>
      <trkpt lat="42.178185" lon="2.488696">
        <ele>428.895</ele>
        <time>2021-05-27T13:43:58Z</time>
      </trkpt>
      <trkpt lat="42.178202" lon="2.488720">
        <ele>428.845</ele>
        <time>2021-05-27T13:44:00Z</time>
      </trkpt>
      <trkpt lat="42.178218" lon="2.488749">
        <ele>428.812</ele>
        <time>2021-05-27T13:44:02Z</time>
      </trkpt>
      <trkpt lat="42.178241" lon="2.488772">
        <ele>428.897</ele>
        <time>2021-05-27T13:44:04Z</time>
      </trkpt>
      <trkpt lat="42.178271" lon="2.488791">
        <ele>429.030</ele>
        <time>2021-05-27T13:44:06Z</time>
      </trkpt>
      <trkpt lat="42.178287" lon="2.488818">
        <ele>429.026</ele>
        <time>2021-05-27T13:44:08Z</time>
      </trkpt>
      <trkpt lat="42.178303" lon="2.488844">
        <ele>429.046</ele>
        <time>2021-05-27T13:44:10Z</time>
      </trkpt>
      <trkpt lat="42.178318" lon="2.488871">
        <ele>429.088</ele>
        <time>2021-05-27T13:44:12Z</time>
      </trkpt>
      <trkpt lat="42.178330" lon="2.488898">
        <ele>428.916</ele>
        <time>2021-05-27T13:44:14Z</time>
      </trkpt>
      <trkpt lat="42.178341" lon="2.488929">
        <ele>428.908</ele>
        <time>2021-05-27T13:44:16Z</time>
      </trkpt>
      <trkpt lat="42.178349" lon="2.488957">
        <ele>428.921</ele>
        <time>2021-05-27T13:44:18Z</time>
      </trkpt>
      <trkpt lat="42.178360" lon="2.488987">
        <ele>428.898</ele>
        <time>2021-05-27T13:44:20Z</time>
      </trkpt>
      <trkpt lat="42.178369" lon="2.489016">
        <ele>428.896</ele>
        <time>2021-05-27T13:44:22Z</time>
      </trkpt>
      <trkpt lat="42.178374" lon="2.489050">
        <ele>428.776</ele>
        <time>2021-05-27T13:44:24Z</time>
      </trkpt>
      <trkpt lat="42.178380" lon="2.489084">
        <ele>428.613</ele>
        <time>2021-05-27T13:44:26Z</time>
      </trkpt>
      <trkpt lat="42.178388" lon="2.489117">
        <ele>428.648</ele>
        <time>2021-05-27T13:44:28Z</time>
      </trkpt>
      <trkpt lat="42.178394" lon="2.489150">
        <ele>428.581</ele>
        <time>2021-05-27T13:44:30Z</time>
      </trkpt>
      <trkpt lat="42.178397" lon="2.489184">
        <ele>428.487</ele>
        <time>2021-05-27T13:44:32Z</time>
      </trkpt>
      <trkpt lat="42.178399" lon="2.489216">
        <ele>428.357</ele>
        <time>2021-05-27T13:44:34Z</time>
      </trkpt>
      <trkpt lat="42.178401" lon="2.489247">
        <ele>428.300</ele>
        <time>2021-05-27T13:44:36Z</time>
      </trkpt>
      <trkpt lat="42.178403" lon="2.489276">
        <ele>428.220</ele>
        <time>2021-05-27T13:44:38Z</time>
      </trkpt>
      <trkpt lat="42.178409" lon="2.489304">
        <ele>428.208</ele>
        <time>2021-05-27T13:44:40Z</time>
      </trkpt>
      <trkpt lat="42.178419" lon="2.489333">
        <ele>428.242</ele>
        <time>2021-05-27T13:44:42Z</time>
      </trkpt>
      <trkpt lat="42.178425" lon="2.489365">
        <ele>428.249</ele>
        <time>2021-05-27T13:44:44Z</time>
      </trkpt>
      <trkpt lat="42.178432" lon="2.489396">
        <ele>428.237</ele>
        <time>2021-05-27T13:44:46Z</time>
      </trkpt>
      <trkpt lat="42.178438" lon="2.489429">
        <ele>428.277</ele>
        <time>2021-05-27T13:44:48Z</time>
      </trkpt>
      <trkpt lat="42.178446" lon="2.489459">
        <ele>428.284</ele>
        <time>2021-05-27T13:44:50Z</time>
      </trkpt>
      <trkpt lat="42.178456" lon="2.489486">
        <ele>428.229</ele>
        <time>2021-05-27T13:44:52Z</time>
      </trkpt>
      <trkpt lat="42.178463" lon="2.489519">
        <ele>428.362</ele>
        <time>2021-05-27T13:44:54Z</time>
      </trkpt>
      <trkpt lat="42.178470" lon="2.489557">
        <ele>428.328</ele>
        <time>2021-05-27T13:44:56Z</time>
      </trkpt>
      <trkpt lat="42.178475" lon="2.489593">
        <ele>428.387</ele>
        <time>2021-05-27T13:44:58Z</time>
      </trkpt>
      <trkpt lat="42.178484" lon="2.489623">
        <ele>428.342</ele>
        <time>2021-05-27T13:45:00Z</time>
      </trkpt>
      <trkpt lat="42.178492" lon="2.489657">
        <ele>428.426</ele>
        <time>2021-05-27T13:45:02Z</time>
      </trkpt>
      <trkpt lat="42.178491" lon="2.489685">
        <ele>428.308</ele>
        <time>2021-05-27T13:45:04Z</time>
      </trkpt>
      <trkpt lat="42.178503" lon="2.489713">
        <ele>428.585</ele>
        <time>2021-05-27T13:45:06Z</time>
      </trkpt>
      <trkpt lat="42.178521" lon="2.489735">
        <ele>428.772</ele>
        <time>2021-05-27T13:45:08Z</time>
      </trkpt>
      <trkpt lat="42.178538" lon="2.489765">
        <ele>429.120</ele>
        <time>2021-05-27T13:45:10Z</time>
      </trkpt>
      <trkpt lat="42.178554" lon="2.489793">
        <ele>429.490</ele>
        <time>2021-05-27T13:45:12Z</time>
      </trkpt>
      <trkpt lat="42.178573" lon="2.489813">
        <ele>429.867</ele>
        <time>2021-05-27T13:45:14Z</time>
      </trkpt>
      <trkpt lat="42.178584" lon="2.489849">
        <ele>430.132</ele>
        <time>2021-05-27T13:45:17Z</time>
      </trkpt>
      <trkpt lat="42.178588" lon="2.489890">
        <ele>430.325</ele>
        <time>2021-05-27T13:45:19Z</time>
      </trkpt>
      <trkpt lat="42.178593" lon="2.489930">
        <ele>430.551</ele>
        <time>2021-05-27T13:45:21Z</time>
      </trkpt>
      <trkpt lat="42.178602" lon="2.489962">
        <ele>430.732</ele>
        <time>2021-05-27T13:45:23Z</time>
      </trkpt>
      <trkpt lat="42.178626" lon="2.489978">
        <ele>430.992</ele>
        <time>2021-05-27T13:45:25Z</time>
      </trkpt>
      <trkpt lat="42.178659" lon="2.489976">
        <ele>430.911</ele>
        <time>2021-05-27T13:45:27Z</time>
      </trkpt>
      <trkpt lat="42.178677" lon="2.489969">
        <ele>430.908</ele>
        <time>2021-05-27T13:45:28Z</time>
      </trkpt>
      <trkpt lat="42.178706" lon="2.489956">
        <ele>430.840</ele>
        <time>2021-05-27T13:45:30Z</time>
      </trkpt>
      <trkpt lat="42.178725" lon="2.489951">
        <ele>430.827</ele>
        <time>2021-05-27T13:45:32Z</time>
      </trkpt>
      <trkpt lat="42.178748" lon="2.489942">
        <ele>430.755</ele>
        <time>2021-05-27T13:45:34Z</time>
      </trkpt>
      <trkpt lat="42.178775" lon="2.489935">
        <ele>430.655</ele>
        <time>2021-05-27T13:45:36Z</time>
      </trkpt>
      <trkpt lat="42.178798" lon="2.489928">
        <ele>430.682</ele>
        <time>2021-05-27T13:45:38Z</time>
      </trkpt>
      <trkpt lat="42.178822" lon="2.489916">
        <ele>430.597</ele>
        <time>2021-05-27T13:45:40Z</time>
      </trkpt>
      <trkpt lat="42.178847" lon="2.489905">
        <ele>430.460</ele>
        <time>2021-05-27T13:45:42Z</time>
      </trkpt>
      <trkpt lat="42.178871" lon="2.489895">
        <ele>430.346</ele>
        <time>2021-05-27T13:45:44Z</time>
      </trkpt>
      <trkpt lat="42.178890" lon="2.489883">
        <ele>430.241</ele>
        <time>2021-05-27T13:45:46Z</time>
      </trkpt>
      <trkpt lat="42.178908" lon="2.489871">
        <ele>430.181</ele>
        <time>2021-05-27T13:45:48Z</time>
      </trkpt>
      <trkpt lat="42.178994" lon="2.489819">
        <ele>429.809</ele>
        <time>2021-05-27T13:45:56Z</time>
      </trkpt>
      <trkpt lat="42.179021" lon="2.489807">
        <ele>429.808</ele>
        <time>2021-05-27T13:45:58Z</time>
      </trkpt>
      <trkpt lat="42.179056" lon="2.489806">
        <ele>429.881</ele>
        <time>2021-05-27T13:46:00Z</time>
      </trkpt>
      <trkpt lat="42.179084" lon="2.489796">
        <ele>429.998</ele>
        <time>2021-05-27T13:46:02Z</time>
      </trkpt>
      <trkpt lat="42.179108" lon="2.489783">
        <ele>429.966</ele>
        <time>2021-05-27T13:46:04Z</time>
      </trkpt>
      <trkpt lat="42.179127" lon="2.489773">
        <ele>429.936</ele>
        <time>2021-05-27T13:46:06Z</time>
      </trkpt>
      <trkpt lat="42.179153" lon="2.489768">
        <ele>430.083</ele>
        <time>2021-05-27T13:46:08Z</time>
      </trkpt>
      <trkpt lat="42.179186" lon="2.489762">
        <ele>430.128</ele>
        <time>2021-05-27T13:46:10Z</time>
      </trkpt>
      <trkpt lat="42.179211" lon="2.489754">
        <ele>430.111</ele>
        <time>2021-05-27T13:46:12Z</time>
      </trkpt>
      <trkpt lat="42.179235" lon="2.489748">
        <ele>430.287</ele>
        <time>2021-05-27T13:46:14Z</time>
      </trkpt>
      <trkpt lat="42.179260" lon="2.489743">
        <ele>430.374</ele>
        <time>2021-05-27T13:46:16Z</time>
      </trkpt>
      <trkpt lat="42.179290" lon="2.489739">
        <ele>430.456</ele>
        <time>2021-05-27T13:46:18Z</time>
      </trkpt>
      <trkpt lat="42.179320" lon="2.489733">
        <ele>430.521</ele>
        <time>2021-05-27T13:46:20Z</time>
      </trkpt>
      <trkpt lat="42.179353" lon="2.489732">
        <ele>430.608</ele>
        <time>2021-05-27T13:46:22Z</time>
      </trkpt>
      <trkpt lat="42.179380" lon="2.489728">
        <ele>430.714</ele>
        <time>2021-05-27T13:46:24Z</time>
      </trkpt>
      <trkpt lat="42.179410" lon="2.489725">
        <ele>430.931</ele>
        <time>2021-05-27T13:46:25Z</time>
      </trkpt>
      <trkpt lat="42.179438" lon="2.489720">
        <ele>431.059</ele>
        <time>2021-05-27T13:46:26Z</time>
      </trkpt>
      <trkpt lat="42.179462" lon="2.489714">
        <ele>430.959</ele>
        <time>2021-05-27T13:46:27Z</time>
      </trkpt>
      <trkpt lat="42.179483" lon="2.489711">
        <ele>430.956</ele>
        <time>2021-05-27T13:46:28Z</time>
      </trkpt>
      <trkpt lat="42.179503" lon="2.489706">
        <ele>430.831</ele>
        <time>2021-05-27T13:46:29Z</time>
      </trkpt>
      <trkpt lat="42.179524" lon="2.489701">
        <ele>430.794</ele>
        <time>2021-05-27T13:46:30Z</time>
      </trkpt>
      <trkpt lat="42.179542" lon="2.489696">
        <ele>430.740</ele>
        <time>2021-05-27T13:46:31Z</time>
      </trkpt>
      <trkpt lat="42.179571" lon="2.489691">
        <ele>430.648</ele>
        <time>2021-05-27T13:46:33Z</time>
      </trkpt>
      <trkpt lat="42.179600" lon="2.489690">
        <ele>430.561</ele>
        <time>2021-05-27T13:46:35Z</time>
      </trkpt>
      <trkpt lat="42.179617" lon="2.489682">
        <ele>430.517</ele>
        <time>2021-05-27T13:46:36Z</time>
      </trkpt>
      <trkpt lat="42.179643" lon="2.489668">
        <ele>430.408</ele>
        <time>2021-05-27T13:46:38Z</time>
      </trkpt>
      <trkpt lat="42.179674" lon="2.489648">
        <ele>430.481</ele>
        <time>2021-05-27T13:46:40Z</time>
      </trkpt>
      <trkpt lat="42.179694" lon="2.489632">
        <ele>430.478</ele>
        <time>2021-05-27T13:46:42Z</time>
      </trkpt>
      <trkpt lat="42.179711" lon="2.489613">
        <ele>430.466</ele>
        <time>2021-05-27T13:46:44Z</time>
      </trkpt>
      <trkpt lat="42.179732" lon="2.489598">
        <ele>430.526</ele>
        <time>2021-05-27T13:46:46Z</time>
      </trkpt>
      <trkpt lat="42.179755" lon="2.489591">
        <ele>430.623</ele>
        <time>2021-05-27T13:46:48Z</time>
      </trkpt>
      <trkpt lat="42.179776" lon="2.489590">
        <ele>430.758</ele>
        <time>2021-05-27T13:46:49Z</time>
      </trkpt>
      <trkpt lat="42.179806" lon="2.489584">
        <ele>430.861</ele>
        <time>2021-05-27T13:46:51Z</time>
      </trkpt>
      <trkpt lat="42.179838" lon="2.489581">
        <ele>430.927</ele>
        <time>2021-05-27T13:46:53Z</time>
      </trkpt>
      <trkpt lat="42.179871" lon="2.489577">
        <ele>431.173</ele>
        <time>2021-05-27T13:46:55Z</time>
      </trkpt>
      <trkpt lat="42.179901" lon="2.489570">
        <ele>431.285</ele>
        <time>2021-05-27T13:46:57Z</time>
      </trkpt>
      <trkpt lat="42.179929" lon="2.489566">
        <ele>431.313</ele>
        <time>2021-05-27T13:46:59Z</time>
      </trkpt>
      <trkpt lat="42.179960" lon="2.489551">
        <ele>431.508</ele>
        <time>2021-05-27T13:47:01Z</time>
      </trkpt>
      <trkpt lat="42.179983" lon="2.489536">
        <ele>431.684</ele>
        <time>2021-05-27T13:47:03Z</time>
      </trkpt>
      <trkpt lat="42.180012" lon="2.489521">
        <ele>431.831</ele>
        <time>2021-05-27T13:47:05Z</time>
      </trkpt>
      <trkpt lat="42.180045" lon="2.489508">
        <ele>431.969</ele>
        <time>2021-05-27T13:47:07Z</time>
      </trkpt>
      <trkpt lat="42.180076" lon="2.489496">
        <ele>432.139</ele>
        <time>2021-05-27T13:47:09Z</time>
      </trkpt>
      <trkpt lat="42.180097" lon="2.489479">
        <ele>432.216</ele>
        <time>2021-05-27T13:47:11Z</time>
      </trkpt>
      <trkpt lat="42.180115" lon="2.489446">
        <ele>432.421</ele>
        <time>2021-05-27T13:47:13Z</time>
      </trkpt>
      <trkpt lat="42.180131" lon="2.489412">
        <ele>432.514</ele>
        <time>2021-05-27T13:47:15Z</time>
      </trkpt>
      <trkpt lat="42.180154" lon="2.489395">
        <ele>432.620</ele>
        <time>2021-05-27T13:47:17Z</time>
      </trkpt>
      <trkpt lat="42.180188" lon="2.489396">
        <ele>432.751</ele>
        <time>2021-05-27T13:47:19Z</time>
      </trkpt>
      <trkpt lat="42.180212" lon="2.489387">
        <ele>432.801</ele>
        <time>2021-05-27T13:47:21Z</time>
      </trkpt>
      <trkpt lat="42.180226" lon="2.489361">
        <ele>432.811</ele>
        <time>2021-05-27T13:47:23Z</time>
      </trkpt>
      <trkpt lat="42.180258" lon="2.489366">
        <ele>432.908</ele>
        <time>2021-05-27T13:47:26Z</time>
      </trkpt>
      <trkpt lat="42.180278" lon="2.489364">
        <ele>433.072</ele>
        <time>2021-05-27T13:47:29Z</time>
      </trkpt>
      <trkpt lat="42.180305" lon="2.489370">
        <ele>432.999</ele>
        <time>2021-05-27T13:47:31Z</time>
      </trkpt>
      <trkpt lat="42.180330" lon="2.489373">
        <ele>432.997</ele>
        <time>2021-05-27T13:47:33Z</time>
      </trkpt>
      <trkpt lat="42.180350" lon="2.489369">
        <ele>432.847</ele>
        <time>2021-05-27T13:47:34Z</time>
      </trkpt>
      <trkpt lat="42.180378" lon="2.489355">
        <ele>432.834</ele>
        <time>2021-05-27T13:47:36Z</time>
      </trkpt>
      <trkpt lat="42.180416" lon="2.489350">
        <ele>432.749</ele>
        <time>2021-05-27T13:47:38Z</time>
      </trkpt>
      <trkpt lat="42.180436" lon="2.489341">
        <ele>432.652</ele>
        <time>2021-05-27T13:47:39Z</time>
      </trkpt>
      <trkpt lat="42.180460" lon="2.489336">
        <ele>432.658</ele>
        <time>2021-05-27T13:47:40Z</time>
      </trkpt>
      <trkpt lat="42.180481" lon="2.489334">
        <ele>432.688</ele>
        <time>2021-05-27T13:47:41Z</time>
      </trkpt>
      <trkpt lat="42.180499" lon="2.489338">
        <ele>432.524</ele>
        <time>2021-05-27T13:47:42Z</time>
      </trkpt>
      <trkpt lat="42.180524" lon="2.489332">
        <ele>432.526</ele>
        <time>2021-05-27T13:47:44Z</time>
      </trkpt>
      <trkpt lat="42.180545" lon="2.489325">
        <ele>432.508</ele>
        <time>2021-05-27T13:47:46Z</time>
      </trkpt>
      <trkpt lat="42.180580" lon="2.489311">
        <ele>432.645</ele>
        <time>2021-05-27T13:47:48Z</time>
      </trkpt>
      <trkpt lat="42.180603" lon="2.489309">
        <ele>432.792</ele>
        <time>2021-05-27T13:47:49Z</time>
      </trkpt>
      <trkpt lat="42.180623" lon="2.489306">
        <ele>432.760</ele>
        <time>2021-05-27T13:47:50Z</time>
      </trkpt>
      <trkpt lat="42.180658" lon="2.489306">
        <ele>432.940</ele>
        <time>2021-05-27T13:47:52Z</time>
      </trkpt>
      <trkpt lat="42.180685" lon="2.489313">
        <ele>432.977</ele>
        <time>2021-05-27T13:47:54Z</time>
      </trkpt>
      <trkpt lat="42.180712" lon="2.489316">
        <ele>433.042</ele>
        <time>2021-05-27T13:47:56Z</time>
      </trkpt>
      <trkpt lat="42.180740" lon="2.489310">
        <ele>433.125</ele>
        <time>2021-05-27T13:47:58Z</time>
      </trkpt>
      <trkpt lat="42.180764" lon="2.489299">
        <ele>433.341</ele>
        <time>2021-05-27T13:48:00Z</time>
      </trkpt>
      <trkpt lat="42.180793" lon="2.489303">
        <ele>433.416</ele>
        <time>2021-05-27T13:48:02Z</time>
      </trkpt>
      <trkpt lat="42.180814" lon="2.489301">
        <ele>433.476</ele>
        <time>2021-05-27T13:48:05Z</time>
      </trkpt>
      <trkpt lat="42.180847" lon="2.489295">
        <ele>433.613</ele>
        <time>2021-05-27T13:48:07Z</time>
      </trkpt>
      <trkpt lat="42.180867" lon="2.489293">
        <ele>433.608</ele>
        <time>2021-05-27T13:48:09Z</time>
      </trkpt>
      <trkpt lat="42.180887" lon="2.489290">
        <ele>433.688</ele>
        <time>2021-05-27T13:48:11Z</time>
      </trkpt>
      <trkpt lat="42.180917" lon="2.489276">
        <ele>433.795</ele>
        <time>2021-05-27T13:48:13Z</time>
      </trkpt>
      <trkpt lat="42.180935" lon="2.489268">
        <ele>433.873</ele>
        <time>2021-05-27T13:48:14Z</time>
      </trkpt>
      <trkpt lat="42.180959" lon="2.489222">
        <ele>433.953</ele>
        <time>2021-05-27T13:48:19Z</time>
      </trkpt>
      <trkpt lat="42.180969" lon="2.489191">
        <ele>434.010</ele>
        <time>2021-05-27T13:48:21Z</time>
      </trkpt>
      <trkpt lat="42.180958" lon="2.489164">
        <ele>434.085</ele>
        <time>2021-05-27T13:48:22Z</time>
      </trkpt>
      <trkpt lat="42.180948" lon="2.489141">
        <ele>434.088</ele>
        <time>2021-05-27T13:48:25Z</time>
      </trkpt>
      <trkpt lat="42.180971" lon="2.489153">
        <ele>434.084</ele>
        <time>2021-05-27T13:48:29Z</time>
      </trkpt>
      <trkpt lat="42.181003" lon="2.489173">
        <ele>434.065</ele>
        <time>2021-05-27T13:48:31Z</time>
      </trkpt>
      <trkpt lat="42.181031" lon="2.489192">
        <ele>434.068</ele>
        <time>2021-05-27T13:48:33Z</time>
      </trkpt>
      <trkpt lat="42.181121" lon="2.489261">
        <ele>434.014</ele>
        <time>2021-05-27T13:48:39Z</time>
      </trkpt>
      <trkpt lat="42.181212" lon="2.489313">
        <ele>434.408</ele>
        <time>2021-05-27T13:48:45Z</time>
      </trkpt>
      <trkpt lat="42.181251" lon="2.489444">
        <ele>434.523</ele>
        <time>2021-05-27T13:48:54Z</time>
      </trkpt>
      <trkpt lat="42.181234" lon="2.489595">
        <ele>434.470</ele>
        <time>2021-05-27T13:48:57Z</time>
      </trkpt>
      <trkpt lat="42.181195" lon="2.489700">
        <ele>434.348</ele>
        <time>2021-05-27T13:49:02Z</time>
      </trkpt>
      <trkpt lat="42.181209" lon="2.489720">
        <ele>434.418</ele>
        <time>2021-05-27T13:49:05Z</time>
      </trkpt>
      <trkpt lat="42.181206" lon="2.489749">
        <ele>434.385</ele>
        <time>2021-05-27T13:49:08Z</time>
      </trkpt>
      <trkpt lat="42.181235" lon="2.489780">
        <ele>434.410</ele>
        <time>2021-05-27T13:49:17Z</time>
      </trkpt>
      <trkpt lat="42.181253" lon="2.489759">
        <ele>434.543</ele>
        <time>2021-05-27T13:49:21Z</time>
      </trkpt>
      <trkpt lat="42.181276" lon="2.489745">
        <ele>434.639</ele>
        <time>2021-05-27T13:49:22Z</time>
      </trkpt>
      <trkpt lat="42.181293" lon="2.489736">
        <ele>434.727</ele>
        <time>2021-05-27T13:49:28Z</time>
      </trkpt>
      <trkpt lat="42.181317" lon="2.489726">
        <ele>434.768</ele>
        <time>2021-05-27T13:49:31Z</time>
      </trkpt>
      <trkpt lat="42.181290" lon="2.489738">
        <ele>434.614</ele>
        <time>2021-05-27T13:49:52Z</time>
      </trkpt>
      <trkpt lat="42.181259" lon="2.489762">
        <ele>434.508</ele>
        <time>2021-05-27T13:49:55Z</time>
      </trkpt>
      <trkpt lat="42.181242" lon="2.489780">
        <ele>434.579</ele>
        <time>2021-05-27T13:49:57Z</time>
      </trkpt>
      <trkpt lat="42.181147" lon="2.489816">
        <ele>434.116</ele>
        <time>2021-05-27T13:50:05Z</time>
      </trkpt>
      <trkpt lat="42.181195" lon="2.489680">
        <ele>434.384</ele>
        <time>2021-05-27T13:50:14Z</time>
      </trkpt>
      <trkpt lat="42.181291" lon="2.489625">
        <ele>434.614</ele>
        <time>2021-05-27T13:50:18Z</time>
      </trkpt>
      <trkpt lat="42.181370" lon="2.489565">
        <ele>434.961</ele>
        <time>2021-05-27T13:50:30Z</time>
      </trkpt>
      <trkpt lat="42.181360" lon="2.489445">
        <ele>434.996</ele>
        <time>2021-05-27T13:50:35Z</time>
      </trkpt>
      <trkpt lat="42.181463" lon="2.489445">
        <ele>435.069</ele>
        <time>2021-05-27T13:50:47Z</time>
      </trkpt>
      <trkpt lat="42.181553" lon="2.489401">
        <ele>435.025</ele>
        <time>2021-05-27T13:50:53Z</time>
      </trkpt>
      <trkpt lat="42.181659" lon="2.489384">
        <ele>435.033</ele>
        <time>2021-05-27T13:51:04Z</time>
      </trkpt>
      <trkpt lat="42.181749" lon="2.489327">
        <ele>435.423</ele>
        <time>2021-05-27T13:51:09Z</time>
      </trkpt>
      <trkpt lat="42.181855" lon="2.489466">
        <ele>435.715</ele>
        <time>2021-05-27T13:51:17Z</time>
      </trkpt>
      <trkpt lat="42.181930" lon="2.489544">
        <ele>435.908</ele>
        <time>2021-05-27T13:51:21Z</time>
      </trkpt>
      <trkpt lat="42.181986" lon="2.489656">
        <ele>436.140</ele>
        <time>2021-05-27T13:51:27Z</time>
      </trkpt>
      <trkpt lat="42.182054" lon="2.489754">
        <ele>436.417</ele>
        <time>2021-05-27T13:51:33Z</time>
      </trkpt>
      <trkpt lat="42.182143" lon="2.489660">
        <ele>436.765</ele>
        <time>2021-05-27T13:52:00Z</time>
      </trkpt>
      <trkpt lat="42.182208" lon="2.489891">
        <ele>436.995</ele>
        <time>2021-05-27T13:53:44Z</time>
      </trkpt>
      <trkpt lat="42.182254" lon="2.489769">
        <ele>437.112</ele>
        <time>2021-05-27T13:53:53Z</time>
      </trkpt>
      <trkpt lat="42.182335" lon="2.489691">
        <ele>437.467</ele>
        <time>2021-05-27T13:54:02Z</time>
      </trkpt>
      <trkpt lat="42.182349" lon="2.489812">
        <ele>437.360</ele>
        <time>2021-05-27T13:54:25Z</time>
      </trkpt>
      <trkpt lat="42.182398" lon="2.489920">
        <ele>437.226</ele>
        <time>2021-05-27T13:54:32Z</time>
      </trkpt>
      <trkpt lat="42.182441" lon="2.490033">
        <ele>437.134</ele>
        <time>2021-05-27T13:54:41Z</time>
      </trkpt>
      <trkpt lat="42.182480" lon="2.490160">
        <ele>437.555</ele>
        <time>2021-05-27T13:54:47Z</time>
      </trkpt>
      <trkpt lat="42.182495" lon="2.490291">
        <ele>437.910</ele>
        <time>2021-05-27T13:54:53Z</time>
      </trkpt>
      <trkpt lat="42.182575" lon="2.490387">
        <ele>437.908</ele>
        <time>2021-05-27T13:54:58Z</time>
      </trkpt>
      <trkpt lat="42.182669" lon="2.490423">
        <ele>438.110</ele>
        <time>2021-05-27T13:55:02Z</time>
      </trkpt>
      <trkpt lat="42.182733" lon="2.490517">
        <ele>438.087</ele>
        <time>2021-05-27T13:55:08Z</time>
      </trkpt>
      <trkpt lat="42.182772" lon="2.490634">
        <ele>437.725</ele>
        <time>2021-05-27T13:55:15Z</time>
      </trkpt>
      <trkpt lat="42.182877" lon="2.490686">
        <ele>437.965</ele>
        <time>2021-05-27T13:55:19Z</time>
      </trkpt>
      <trkpt lat="42.182905" lon="2.490818">
        <ele>437.542</ele>
        <time>2021-05-27T13:55:25Z</time>
      </trkpt>
      <trkpt lat="42.182954" lon="2.490940">
        <ele>437.257</ele>
        <time>2021-05-27T13:55:33Z</time>
      </trkpt>
      <trkpt lat="42.183008" lon="2.491047">
        <ele>437.130</ele>
        <time>2021-05-27T13:55:40Z</time>
      </trkpt>
      <trkpt lat="42.183058" lon="2.491158">
        <ele>436.886</ele>
        <time>2021-05-27T13:55:47Z</time>
      </trkpt>
      <trkpt lat="42.183044" lon="2.491284">
        <ele>436.313</ele>
        <time>2021-05-27T13:55:54Z</time>
      </trkpt>
      <trkpt lat="42.182954" lon="2.491338">
        <ele>435.843</ele>
        <time>2021-05-27T13:56:00Z</time>
      </trkpt>
      <trkpt lat="42.182919" lon="2.491214">
        <ele>436.107</ele>
        <time>2021-05-27T13:56:22Z</time>
      </trkpt>
      <trkpt lat="42.182878" lon="2.491082">
        <ele>436.508</ele>
        <time>2021-05-27T13:56:25Z</time>
      </trkpt>
      <trkpt lat="42.182786" lon="2.491102">
        <ele>436.168</ele>
        <time>2021-05-27T13:56:35Z</time>
      </trkpt>
      <trkpt lat="42.182746" lon="2.491217">
        <ele>435.675</ele>
        <time>2021-05-27T13:56:39Z</time>
      </trkpt>
      <trkpt lat="42.182769" lon="2.491363">
        <ele>435.133</ele>
        <time>2021-05-27T13:56:58Z</time>
      </trkpt>
      <trkpt lat="42.182842" lon="2.491446">
        <ele>435.033</ele>
        <time>2021-05-27T13:57:05Z</time>
      </trkpt>
      <trkpt lat="42.182747" lon="2.491412">
        <ele>434.980</ele>
        <time>2021-05-27T13:57:11Z</time>
      </trkpt>
      <trkpt lat="42.182816" lon="2.491326">
        <ele>435.445</ele>
        <time>2021-05-27T13:57:30Z</time>
      </trkpt>
      <trkpt lat="42.182904" lon="2.491375">
        <ele>435.518</ele>
        <time>2021-05-27T13:57:40Z</time>
      </trkpt>
      <trkpt lat="42.182907" lon="2.491401">
        <ele>435.434</ele>
        <time>2021-05-27T13:58:16Z</time>
      </trkpt>
      <trkpt lat="42.182898" lon="2.491380">
        <ele>435.581</ele>
        <time>2021-05-27T13:59:30Z</time>
      </trkpt>
      <trkpt lat="42.182898" lon="2.491484">
        <ele>435.161</ele>
        <time>2021-05-27T15:42:30Z</time>
      </trkpt>
      <trkpt lat="42.182948" lon="2.491587">
        <ele>434.917</ele>
        <time>2021-05-27T15:42:38Z</time>
      </trkpt>
      <trkpt lat="42.183006" lon="2.491689">
        <ele>434.708</ele>
        <time>2021-05-27T15:42:44Z</time>
      </trkpt>
      <trkpt lat="42.183055" lon="2.491795">
        <ele>434.185</ele>
        <time>2021-05-27T15:42:49Z</time>
      </trkpt>
      <trkpt lat="42.183093" lon="2.491910">
        <ele>433.482</ele>
        <time>2021-05-27T15:42:56Z</time>
      </trkpt>
      <trkpt lat="42.183118" lon="2.492035">
        <ele>432.970</ele>
        <time>2021-05-27T15:43:03Z</time>
      </trkpt>
      <trkpt lat="42.183118" lon="2.492083">
        <ele>432.770</ele>
        <time>2021-05-27T15:43:05Z</time>
      </trkpt>
      <trkpt lat="42.183116" lon="2.492108">
        <ele>432.617</ele>
        <time>2021-05-27T15:43:06Z</time>
      </trkpt>
      <trkpt lat="42.183127" lon="2.492160">
        <ele>432.532</ele>
        <time>2021-05-27T15:43:09Z</time>
      </trkpt>
      <trkpt lat="42.183139" lon="2.492193">
        <ele>432.415</ele>
        <time>2021-05-27T15:43:11Z</time>
      </trkpt>
      <trkpt lat="42.183155" lon="2.492223">
        <ele>432.411</ele>
        <time>2021-05-27T15:43:13Z</time>
      </trkpt>
      <trkpt lat="42.183175" lon="2.492238">
        <ele>432.477</ele>
        <time>2021-05-27T15:43:17Z</time>
      </trkpt>
      <trkpt lat="42.183198" lon="2.492262">
        <ele>432.461</ele>
        <time>2021-05-27T15:43:19Z</time>
      </trkpt>
      <trkpt lat="42.183217" lon="2.492291">
        <ele>432.427</ele>
        <time>2021-05-27T15:43:21Z</time>
      </trkpt>
      <trkpt lat="42.183233" lon="2.492331">
        <ele>432.408</ele>
        <time>2021-05-27T15:43:23Z</time>
      </trkpt>
      <trkpt lat="42.183254" lon="2.492364">
        <ele>432.434</ele>
        <time>2021-05-27T15:43:25Z</time>
      </trkpt>
      <trkpt lat="42.183270" lon="2.492388">
        <ele>432.311</ele>
        <time>2021-05-27T15:43:27Z</time>
      </trkpt>
      <trkpt lat="42.183286" lon="2.492414">
        <ele>432.339</ele>
        <time>2021-05-27T15:43:29Z</time>
      </trkpt>
      <trkpt lat="42.183308" lon="2.492443">
        <ele>432.299</ele>
        <time>2021-05-27T15:43:31Z</time>
      </trkpt>
      <trkpt lat="42.183339" lon="2.492461">
        <ele>432.176</ele>
        <time>2021-05-27T15:43:33Z</time>
      </trkpt>
      <trkpt lat="42.183360" lon="2.492492">
        <ele>432.021</ele>
        <time>2021-05-27T15:43:35Z</time>
      </trkpt>
      <trkpt lat="42.183386" lon="2.492520">
        <ele>431.914</ele>
        <time>2021-05-27T15:43:37Z</time>
      </trkpt>
      <trkpt lat="42.183410" lon="2.492545">
        <ele>431.710</ele>
        <time>2021-05-27T15:43:39Z</time>
      </trkpt>
      <trkpt lat="42.183432" lon="2.492567">
        <ele>431.679</ele>
        <time>2021-05-27T15:43:41Z</time>
      </trkpt>
      <trkpt lat="42.183452" lon="2.492589">
        <ele>431.505</ele>
        <time>2021-05-27T15:43:43Z</time>
      </trkpt>
      <trkpt lat="42.183470" lon="2.492612">
        <ele>431.425</ele>
        <time>2021-05-27T15:43:45Z</time>
      </trkpt>
      <trkpt lat="42.183490" lon="2.492645">
        <ele>431.208</ele>
        <time>2021-05-27T15:43:47Z</time>
      </trkpt>
      <trkpt lat="42.183506" lon="2.492667">
        <ele>431.234</ele>
        <time>2021-05-27T15:43:49Z</time>
      </trkpt>
      <trkpt lat="42.183523" lon="2.492685">
        <ele>431.111</ele>
        <time>2021-05-27T15:43:51Z</time>
      </trkpt>
      <trkpt lat="42.183539" lon="2.492702">
        <ele>431.169</ele>
        <time>2021-05-27T15:43:53Z</time>
      </trkpt>
      <trkpt lat="42.183559" lon="2.492723">
        <ele>431.049</ele>
        <time>2021-05-27T15:43:55Z</time>
      </trkpt>
      <trkpt lat="42.183578" lon="2.492737">
        <ele>431.046</ele>
        <time>2021-05-27T15:43:56Z</time>
      </trkpt>
      <trkpt lat="42.183601" lon="2.492763">
        <ele>431.031</ele>
        <time>2021-05-27T15:43:58Z</time>
      </trkpt>
      <trkpt lat="42.183628" lon="2.492780">
        <ele>431.074</ele>
        <time>2021-05-27T15:44:00Z</time>
      </trkpt>
      <trkpt lat="42.183647" lon="2.492794">
        <ele>430.950</ele>
        <time>2021-05-27T15:44:02Z</time>
      </trkpt>
      <trkpt lat="42.183663" lon="2.492804">
        <ele>430.847</ele>
        <time>2021-05-27T15:44:04Z</time>
      </trkpt>
      <trkpt lat="42.183680" lon="2.492815">
        <ele>430.829</ele>
        <time>2021-05-27T15:44:06Z</time>
      </trkpt>
      <trkpt lat="42.183698" lon="2.492829">
        <ele>430.721</ele>
        <time>2021-05-27T15:44:08Z</time>
      </trkpt>
      <trkpt lat="42.183724" lon="2.492858">
        <ele>430.508</ele>
        <time>2021-05-27T15:44:10Z</time>
      </trkpt>
      <trkpt lat="42.183753" lon="2.492885">
        <ele>430.461</ele>
        <time>2021-05-27T15:44:12Z</time>
      </trkpt>
      <trkpt lat="42.183767" lon="2.492902">
        <ele>430.478</ele>
        <time>2021-05-27T15:44:13Z</time>
      </trkpt>
      <trkpt lat="42.183781" lon="2.492922">
        <ele>430.326</ele>
        <time>2021-05-27T15:44:14Z</time>
      </trkpt>
      <trkpt lat="42.183793" lon="2.492939">
        <ele>430.296</ele>
        <time>2021-05-27T15:44:15Z</time>
      </trkpt>
      <trkpt lat="42.183814" lon="2.492972">
        <ele>430.183</ele>
        <time>2021-05-27T15:44:17Z</time>
      </trkpt>
      <trkpt lat="42.183839" lon="2.493000">
        <ele>430.158</ele>
        <time>2021-05-27T15:44:19Z</time>
      </trkpt>
      <trkpt lat="42.183859" lon="2.493020">
        <ele>430.081</ele>
        <time>2021-05-27T15:44:21Z</time>
      </trkpt>
      <trkpt lat="42.183885" lon="2.493044">
        <ele>430.067</ele>
        <time>2021-05-27T15:44:23Z</time>
      </trkpt>
      <trkpt lat="42.183913" lon="2.493066">
        <ele>430.047</ele>
        <time>2021-05-27T15:44:25Z</time>
      </trkpt>
      <trkpt lat="42.183938" lon="2.493098">
        <ele>429.829</ele>
        <time>2021-05-27T15:44:27Z</time>
      </trkpt>
      <trkpt lat="42.183959" lon="2.493121">
        <ele>429.821</ele>
        <time>2021-05-27T15:44:29Z</time>
      </trkpt>
      <trkpt lat="42.183983" lon="2.493155">
        <ele>429.608</ele>
        <time>2021-05-27T15:44:31Z</time>
      </trkpt>
      <trkpt lat="42.184004" lon="2.493187">
        <ele>429.581</ele>
        <time>2021-05-27T15:44:33Z</time>
      </trkpt>
      <trkpt lat="42.184026" lon="2.493216">
        <ele>429.488</ele>
        <time>2021-05-27T15:44:35Z</time>
      </trkpt>
      <trkpt lat="42.184051" lon="2.493235">
        <ele>429.486</ele>
        <time>2021-05-27T15:44:37Z</time>
      </trkpt>
      <trkpt lat="42.184076" lon="2.493258">
        <ele>429.316</ele>
        <time>2021-05-27T15:44:39Z</time>
      </trkpt>
      <trkpt lat="42.184100" lon="2.493275">
        <ele>429.243</ele>
        <time>2021-05-27T15:44:41Z</time>
      </trkpt>
      <trkpt lat="42.184127" lon="2.493276">
        <ele>429.218</ele>
        <time>2021-05-27T15:44:43Z</time>
      </trkpt>
      <trkpt lat="42.184153" lon="2.493264">
        <ele>429.291</ele>
        <time>2021-05-27T15:44:45Z</time>
      </trkpt>
      <trkpt lat="42.184174" lon="2.493259">
        <ele>429.327</ele>
        <time>2021-05-27T15:44:47Z</time>
      </trkpt>
      <trkpt lat="42.184199" lon="2.493247">
        <ele>429.394</ele>
        <time>2021-05-27T15:44:49Z</time>
      </trkpt>
      <trkpt lat="42.184225" lon="2.493236">
        <ele>429.357</ele>
        <time>2021-05-27T15:44:51Z</time>
      </trkpt>
      <trkpt lat="42.184250" lon="2.493217">
        <ele>429.422</ele>
        <time>2021-05-27T15:44:53Z</time>
      </trkpt>
      <trkpt lat="42.184270" lon="2.493198">
        <ele>429.508</ele>
        <time>2021-05-27T15:44:55Z</time>
      </trkpt>
      <trkpt lat="42.184291" lon="2.493181">
        <ele>429.666</ele>
        <time>2021-05-27T15:44:57Z</time>
      </trkpt>
      <trkpt lat="42.184313" lon="2.493161">
        <ele>429.743</ele>
        <time>2021-05-27T15:44:59Z</time>
      </trkpt>
      <trkpt lat="42.184329" lon="2.493140">
        <ele>429.931</ele>
        <time>2021-05-27T15:45:01Z</time>
      </trkpt>
      <trkpt lat="42.184344" lon="2.493123">
        <ele>430.161</ele>
        <time>2021-05-27T15:45:03Z</time>
      </trkpt>
      <trkpt lat="42.184360" lon="2.493110">
        <ele>430.248</ele>
        <time>2021-05-27T15:45:05Z</time>
      </trkpt>
      <trkpt lat="42.184386" lon="2.493097">
        <ele>430.473</ele>
        <time>2021-05-27T15:45:07Z</time>
      </trkpt>
      <trkpt lat="42.184412" lon="2.493083">
        <ele>430.696</ele>
        <time>2021-05-27T15:45:09Z</time>
      </trkpt>
      <trkpt lat="42.184430" lon="2.493072">
        <ele>430.852</ele>
        <time>2021-05-27T15:45:11Z</time>
      </trkpt>
      <trkpt lat="42.184448" lon="2.493059">
        <ele>431.026</ele>
        <time>2021-05-27T15:45:14Z</time>
      </trkpt>
      <trkpt lat="42.184465" lon="2.493038">
        <ele>431.147</ele>
        <time>2021-05-27T15:45:15Z</time>
      </trkpt>
      <trkpt lat="42.184496" lon="2.493023">
        <ele>431.211</ele>
        <time>2021-05-27T15:45:17Z</time>
      </trkpt>
      <trkpt lat="42.184514" lon="2.493016">
        <ele>431.208</ele>
        <time>2021-05-27T15:45:18Z</time>
      </trkpt>
      <trkpt lat="42.184530" lon="2.493011">
        <ele>431.389</ele>
        <time>2021-05-27T15:45:19Z</time>
      </trkpt>
      <trkpt lat="42.184561" lon="2.493006">
        <ele>431.366</ele>
        <time>2021-05-27T15:45:21Z</time>
      </trkpt>
      <trkpt lat="42.184586" lon="2.492989">
        <ele>431.594</ele>
        <time>2021-05-27T15:45:23Z</time>
      </trkpt>
      <trkpt lat="42.184602" lon="2.492981">
        <ele>431.624</ele>
        <time>2021-05-27T15:45:24Z</time>
      </trkpt>
      <trkpt lat="42.184648" lon="2.492953">
        <ele>431.961</ele>
        <time>2021-05-27T15:45:27Z</time>
      </trkpt>
      <trkpt lat="42.184677" lon="2.492938">
        <ele>432.136</ele>
        <time>2021-05-27T15:45:29Z</time>
      </trkpt>
      <trkpt lat="42.184717" lon="2.492913">
        <ele>432.569</ele>
        <time>2021-05-27T15:45:32Z</time>
      </trkpt>
      <trkpt lat="42.184743" lon="2.492896">
        <ele>432.795</ele>
        <time>2021-05-27T15:45:34Z</time>
      </trkpt>
      <trkpt lat="42.184762" lon="2.492874">
        <ele>433.044</ele>
        <time>2021-05-27T15:45:36Z</time>
      </trkpt>
      <trkpt lat="42.184777" lon="2.492843">
        <ele>433.305</ele>
        <time>2021-05-27T15:45:39Z</time>
      </trkpt>
      <trkpt lat="42.184795" lon="2.492816">
        <ele>433.615</ele>
        <time>2021-05-27T15:45:42Z</time>
      </trkpt>
      <trkpt lat="42.184853" lon="2.492710">
        <ele>434.808</ele>
        <time>2021-05-27T15:45:48Z</time>
      </trkpt>
      <trkpt lat="42.184943" lon="2.492657">
        <ele>435.671</ele>
        <time>2021-05-27T15:45:53Z</time>
      </trkpt>
      <trkpt lat="42.185037" lon="2.492597">
        <ele>436.878</ele>
        <time>2021-05-27T15:45:58Z</time>
      </trkpt>
      <trkpt lat="42.185070" lon="2.492588">
        <ele>437.296</ele>
        <time>2021-05-27T15:46:00Z</time>
      </trkpt>
      <trkpt lat="42.185091" lon="2.492581">
        <ele>437.466</ele>
        <time>2021-05-27T15:46:02Z</time>
      </trkpt>
      <trkpt lat="42.185114" lon="2.492564">
        <ele>437.863</ele>
        <time>2021-05-27T15:46:05Z</time>
      </trkpt>
      <trkpt lat="42.185132" lon="2.492548">
        <ele>438.248</ele>
        <time>2021-05-27T15:46:08Z</time>
      </trkpt>
      <trkpt lat="42.185158" lon="2.492557">
        <ele>438.251</ele>
        <time>2021-05-27T15:46:11Z</time>
      </trkpt>
      <trkpt lat="42.185181" lon="2.492569">
        <ele>438.147</ele>
        <time>2021-05-27T15:46:13Z</time>
      </trkpt>
      <trkpt lat="42.185205" lon="2.492586">
        <ele>438.021</ele>
        <time>2021-05-27T15:46:15Z</time>
      </trkpt>
      <trkpt lat="42.185235" lon="2.492607">
        <ele>437.841</ele>
        <time>2021-05-27T15:46:17Z</time>
      </trkpt>
      <trkpt lat="42.185260" lon="2.492625">
        <ele>437.705</ele>
        <time>2021-05-27T15:46:19Z</time>
      </trkpt>
      <trkpt lat="42.185290" lon="2.492637">
        <ele>437.608</ele>
        <time>2021-05-27T15:46:21Z</time>
      </trkpt>
      <trkpt lat="42.185317" lon="2.492646">
        <ele>437.629</ele>
        <time>2021-05-27T15:46:23Z</time>
      </trkpt>
      <trkpt lat="42.185337" lon="2.492649">
        <ele>437.646</ele>
        <time>2021-05-27T15:46:25Z</time>
      </trkpt>
      <trkpt lat="42.185346" lon="2.492623">
        <ele>438.254</ele>
        <time>2021-05-27T15:46:27Z</time>
      </trkpt>
      <trkpt lat="42.185344" lon="2.492592">
        <ele>438.744</ele>
        <time>2021-05-27T15:46:29Z</time>
      </trkpt>
      <trkpt lat="42.185366" lon="2.492580">
        <ele>439.141</ele>
        <time>2021-05-27T15:46:37Z</time>
      </trkpt>
      <trkpt lat="42.185384" lon="2.492565">
        <ele>439.586</ele>
        <time>2021-05-27T15:46:40Z</time>
      </trkpt>
      <trkpt lat="42.185400" lon="2.492542">
        <ele>440.159</ele>
        <time>2021-05-27T15:46:41Z</time>
      </trkpt>
      <trkpt lat="42.185422" lon="2.492528">
        <ele>440.575</ele>
        <time>2021-05-27T15:46:43Z</time>
      </trkpt>
      <trkpt lat="42.185445" lon="2.492521">
        <ele>440.866</ele>
        <time>2021-05-27T15:46:45Z</time>
      </trkpt>
      <trkpt lat="42.185470" lon="2.492517">
        <ele>441.029</ele>
        <time>2021-05-27T15:46:47Z</time>
      </trkpt>
      <trkpt lat="42.185490" lon="2.492506">
        <ele>441.421</ele>
        <time>2021-05-27T15:46:49Z</time>
      </trkpt>
      <trkpt lat="42.185508" lon="2.492503">
        <ele>441.608</ele>
        <time>2021-05-27T15:46:51Z</time>
      </trkpt>
      <trkpt lat="42.185529" lon="2.492506">
        <ele>441.733</ele>
        <time>2021-05-27T15:46:53Z</time>
      </trkpt>
      <trkpt lat="42.185549" lon="2.492501">
        <ele>441.920</ele>
        <time>2021-05-27T15:46:55Z</time>
      </trkpt>
      <trkpt lat="42.185577" lon="2.492500">
        <ele>442.188</ele>
        <time>2021-05-27T15:46:58Z</time>
      </trkpt>
      <trkpt lat="42.185605" lon="2.492490">
        <ele>442.558</ele>
        <time>2021-05-27T15:47:00Z</time>
      </trkpt>
      <trkpt lat="42.185644" lon="2.492483">
        <ele>442.995</ele>
        <time>2021-05-27T15:47:03Z</time>
      </trkpt>
      <trkpt lat="42.185671" lon="2.492484">
        <ele>442.990</ele>
        <time>2021-05-27T15:47:05Z</time>
      </trkpt>
      <trkpt lat="42.185695" lon="2.492483">
        <ele>443.173</ele>
        <time>2021-05-27T15:47:07Z</time>
      </trkpt>
      <trkpt lat="42.185723" lon="2.492476">
        <ele>443.499</ele>
        <time>2021-05-27T15:47:09Z</time>
      </trkpt>
      <trkpt lat="42.185749" lon="2.492480">
        <ele>443.319</ele>
        <time>2021-05-27T15:47:11Z</time>
      </trkpt>
      <trkpt lat="42.185774" lon="2.492472">
        <ele>443.709</ele>
        <time>2021-05-27T15:47:13Z</time>
      </trkpt>
      <trkpt lat="42.185800" lon="2.492466">
        <ele>444.019</ele>
        <time>2021-05-27T15:47:15Z</time>
      </trkpt>
      <trkpt lat="42.185823" lon="2.492462">
        <ele>444.208</ele>
        <time>2021-05-27T15:47:17Z</time>
      </trkpt>
      <trkpt lat="42.185846" lon="2.492460">
        <ele>444.418</ele>
        <time>2021-05-27T15:47:19Z</time>
      </trkpt>
      <trkpt lat="42.185868" lon="2.492463">
        <ele>444.475</ele>
        <time>2021-05-27T15:47:21Z</time>
      </trkpt>
      <trkpt lat="42.185893" lon="2.492466">
        <ele>444.553</ele>
        <time>2021-05-27T15:47:23Z</time>
      </trkpt>
      <trkpt lat="42.185921" lon="2.492457">
        <ele>444.923</ele>
        <time>2021-05-27T15:47:25Z</time>
      </trkpt>
      <trkpt lat="42.185949" lon="2.492450">
        <ele>445.250</ele>
        <time>2021-05-27T15:47:27Z</time>
      </trkpt>
      <trkpt lat="42.185978" lon="2.492438">
        <ele>445.775</ele>
        <time>2021-05-27T15:47:29Z</time>
      </trkpt>
      <trkpt lat="42.185999" lon="2.492430">
        <ele>446.028</ele>
        <time>2021-05-27T15:47:31Z</time>
      </trkpt>
      <trkpt lat="42.186023" lon="2.492421">
        <ele>446.314</ele>
        <time>2021-05-27T15:47:33Z</time>
      </trkpt>
      <trkpt lat="42.186047" lon="2.492417">
        <ele>446.523</ele>
        <time>2021-05-27T15:47:35Z</time>
      </trkpt>
      <trkpt lat="42.186072" lon="2.492415">
        <ele>446.783</ele>
        <time>2021-05-27T15:47:37Z</time>
      </trkpt>
      <trkpt lat="42.186100" lon="2.492408">
        <ele>446.911</ele>
        <time>2021-05-27T15:47:39Z</time>
      </trkpt>
      <trkpt lat="42.186124" lon="2.492408">
        <ele>446.908</ele>
        <time>2021-05-27T15:47:41Z</time>
      </trkpt>
      <trkpt lat="42.186149" lon="2.492408">
        <ele>446.999</ele>
        <time>2021-05-27T15:47:43Z</time>
      </trkpt>
      <trkpt lat="42.186176" lon="2.492396">
        <ele>447.096</ele>
        <time>2021-05-27T15:47:45Z</time>
      </trkpt>
      <trkpt lat="42.186262" lon="2.492381">
        <ele>447.074</ele>
        <time>2021-05-27T15:47:51Z</time>
      </trkpt>
      <trkpt lat="42.186321" lon="2.492360">
        <ele>447.374</ele>
        <time>2021-05-27T15:47:55Z</time>
      </trkpt>
      <trkpt lat="42.186350" lon="2.492354">
        <ele>447.321</ele>
        <time>2021-05-27T15:47:57Z</time>
      </trkpt>
      <trkpt lat="42.186367" lon="2.492337">
        <ele>447.666</ele>
        <time>2021-05-27T15:47:58Z</time>
      </trkpt>
      <trkpt lat="42.186382" lon="2.492325">
        <ele>447.889</ele>
        <time>2021-05-27T15:47:59Z</time>
      </trkpt>
      <trkpt lat="42.186411" lon="2.492314">
        <ele>448.075</ele>
        <time>2021-05-27T15:48:01Z</time>
      </trkpt>
      <trkpt lat="42.186438" lon="2.492312">
        <ele>448.096</ele>
        <time>2021-05-27T15:48:03Z</time>
      </trkpt>
      <trkpt lat="42.186466" lon="2.492311">
        <ele>448.031</ele>
        <time>2021-05-27T15:48:05Z</time>
      </trkpt>
      <trkpt lat="42.186494" lon="2.492301">
        <ele>448.224</ele>
        <time>2021-05-27T15:48:07Z</time>
      </trkpt>
      <trkpt lat="42.186525" lon="2.492290">
        <ele>448.408</ele>
        <time>2021-05-27T15:48:09Z</time>
      </trkpt>
      <trkpt lat="42.186555" lon="2.492280">
        <ele>448.656</ele>
        <time>2021-05-27T15:48:11Z</time>
      </trkpt>
      <trkpt lat="42.186581" lon="2.492277">
        <ele>448.733</ele>
        <time>2021-05-27T15:48:13Z</time>
      </trkpt>
      <trkpt lat="42.186608" lon="2.492275">
        <ele>448.721</ele>
        <time>2021-05-27T15:48:15Z</time>
      </trkpt>
      <trkpt lat="42.186637" lon="2.492270">
        <ele>448.891</ele>
        <time>2021-05-27T15:48:17Z</time>
      </trkpt>
      <trkpt lat="42.186664" lon="2.492264">
        <ele>448.918</ele>
        <time>2021-05-27T15:48:19Z</time>
      </trkpt>
      <trkpt lat="42.186688" lon="2.492263">
        <ele>449.053</ele>
        <time>2021-05-27T15:48:21Z</time>
      </trkpt>
      <trkpt lat="42.186712" lon="2.492254">
        <ele>449.256</ele>
        <time>2021-05-27T15:48:23Z</time>
      </trkpt>
      <trkpt lat="42.186734" lon="2.492248">
        <ele>449.372</ele>
        <time>2021-05-27T15:48:25Z</time>
      </trkpt>
      <trkpt lat="42.186762" lon="2.492237">
        <ele>449.671</ele>
        <time>2021-05-27T15:48:27Z</time>
      </trkpt>
      <trkpt lat="42.186793" lon="2.492229">
        <ele>449.841</ele>
        <time>2021-05-27T15:48:29Z</time>
      </trkpt>
      <trkpt lat="42.186821" lon="2.492227">
        <ele>449.915</ele>
        <time>2021-05-27T15:48:31Z</time>
      </trkpt>
      <trkpt lat="42.186847" lon="2.492231">
        <ele>449.808</ele>
        <time>2021-05-27T15:48:33Z</time>
      </trkpt>
      <trkpt lat="42.186873" lon="2.492237">
        <ele>449.694</ele>
        <time>2021-05-27T15:48:35Z</time>
      </trkpt>
      <trkpt lat="42.186900" lon="2.492234">
        <ele>449.751</ele>
        <time>2021-05-27T15:48:37Z</time>
      </trkpt>
      <trkpt lat="42.186928" lon="2.492232">
        <ele>449.759</ele>
        <time>2021-05-27T15:48:39Z</time>
      </trkpt>
      <trkpt lat="42.186954" lon="2.492232">
        <ele>449.769</ele>
        <time>2021-05-27T15:48:41Z</time>
      </trkpt>
      <trkpt lat="42.186982" lon="2.492227">
        <ele>449.746</ele>
        <time>2021-05-27T15:48:43Z</time>
      </trkpt>
      <trkpt lat="42.187008" lon="2.492230">
        <ele>449.621</ele>
        <time>2021-05-27T15:48:45Z</time>
      </trkpt>
      <trkpt lat="42.187036" lon="2.492227">
        <ele>449.574</ele>
        <time>2021-05-27T15:48:47Z</time>
      </trkpt>
      <trkpt lat="42.187063" lon="2.492223">
        <ele>449.690</ele>
        <time>2021-05-27T15:48:49Z</time>
      </trkpt>
      <trkpt lat="42.187093" lon="2.492221">
        <ele>449.571</ele>
        <time>2021-05-27T15:48:51Z</time>
      </trkpt>
      <trkpt lat="42.187124" lon="2.492217">
        <ele>449.541</ele>
        <time>2021-05-27T15:48:53Z</time>
      </trkpt>
      <trkpt lat="42.187152" lon="2.492212">
        <ele>449.615</ele>
        <time>2021-05-27T15:48:55Z</time>
      </trkpt>
      <trkpt lat="42.187178" lon="2.492209">
        <ele>449.608</ele>
        <time>2021-05-27T15:48:57Z</time>
      </trkpt>
      <trkpt lat="42.187203" lon="2.492208">
        <ele>449.574</ele>
        <time>2021-05-27T15:48:59Z</time>
      </trkpt>
      <trkpt lat="42.187233" lon="2.492211">
        <ele>449.321</ele>
        <time>2021-05-27T15:49:01Z</time>
      </trkpt>
      <trkpt lat="42.187262" lon="2.492214">
        <ele>449.079</ele>
        <time>2021-05-27T15:49:03Z</time>
      </trkpt>
      <trkpt lat="42.187289" lon="2.492215">
        <ele>448.889</ele>
        <time>2021-05-27T15:49:05Z</time>
      </trkpt>
      <trkpt lat="42.187318" lon="2.492216">
        <ele>448.536</ele>
        <time>2021-05-27T15:49:07Z</time>
      </trkpt>
      <trkpt lat="42.187348" lon="2.492218">
        <ele>448.251</ele>
        <time>2021-05-27T15:49:09Z</time>
      </trkpt>
      <trkpt lat="42.187379" lon="2.492213">
        <ele>448.264</ele>
        <time>2021-05-27T15:49:11Z</time>
      </trkpt>
      <trkpt lat="42.187409" lon="2.492211">
        <ele>448.010</ele>
        <time>2021-05-27T15:49:13Z</time>
      </trkpt>
      <trkpt lat="42.187436" lon="2.492207">
        <ele>448.086</ele>
        <time>2021-05-27T15:49:15Z</time>
      </trkpt>
      <trkpt lat="42.187468" lon="2.492197">
        <ele>448.060</ele>
        <time>2021-05-27T15:49:17Z</time>
      </trkpt>
      <trkpt lat="42.187497" lon="2.492189">
        <ele>448.126</ele>
        <time>2021-05-27T15:49:19Z</time>
      </trkpt>
      <trkpt lat="42.187523" lon="2.492182">
        <ele>448.008</ele>
        <time>2021-05-27T15:49:21Z</time>
      </trkpt>
      <trkpt lat="42.187550" lon="2.492172">
        <ele>448.185</ele>
        <time>2021-05-27T15:49:23Z</time>
      </trkpt>
      <trkpt lat="42.187574" lon="2.492164">
        <ele>448.042</ele>
        <time>2021-05-27T15:49:25Z</time>
      </trkpt>
      <trkpt lat="42.187600" lon="2.492156">
        <ele>448.020</ele>
        <time>2021-05-27T15:49:27Z</time>
      </trkpt>
      <trkpt lat="42.187625" lon="2.492148">
        <ele>447.940</ele>
        <time>2021-05-27T15:49:29Z</time>
      </trkpt>
      <trkpt lat="42.187652" lon="2.492144">
        <ele>447.787</ele>
        <time>2021-05-27T15:49:31Z</time>
      </trkpt>
      <trkpt lat="42.187681" lon="2.492143">
        <ele>447.492</ele>
        <time>2021-05-27T15:49:33Z</time>
      </trkpt>
      <trkpt lat="42.187709" lon="2.492140">
        <ele>447.275</ele>
        <time>2021-05-27T15:49:35Z</time>
      </trkpt>
      <trkpt lat="42.187737" lon="2.492134">
        <ele>447.061</ele>
        <time>2021-05-27T15:49:37Z</time>
      </trkpt>
      <trkpt lat="42.187766" lon="2.492132">
        <ele>446.736</ele>
        <time>2021-05-27T15:49:39Z</time>
      </trkpt>
      <trkpt lat="42.187784" lon="2.492133">
        <ele>446.517</ele>
        <time>2021-05-27T15:49:40Z</time>
      </trkpt>
      <trkpt lat="42.187804" lon="2.492136">
        <ele>446.318</ele>
        <time>2021-05-27T15:49:41Z</time>
      </trkpt>
      <trkpt lat="42.187825" lon="2.492134">
        <ele>446.208</ele>
        <time>2021-05-27T15:49:42Z</time>
      </trkpt>
      <trkpt lat="42.187845" lon="2.492131">
        <ele>446.180</ele>
        <time>2021-05-27T15:49:43Z</time>
      </trkpt>
      <trkpt lat="42.187866" lon="2.492127">
        <ele>446.197</ele>
        <time>2021-05-27T15:49:44Z</time>
      </trkpt>
      <trkpt lat="42.187886" lon="2.492127">
        <ele>446.035</ele>
        <time>2021-05-27T15:49:45Z</time>
      </trkpt>
      <trkpt lat="42.187908" lon="2.492125">
        <ele>445.985</ele>
        <time>2021-05-27T15:49:46Z</time>
      </trkpt>
      <trkpt lat="42.187928" lon="2.492123">
        <ele>445.872</ele>
        <time>2021-05-27T15:49:47Z</time>
      </trkpt>
      <trkpt lat="42.187950" lon="2.492125">
        <ele>445.637</ele>
        <time>2021-05-27T15:49:48Z</time>
      </trkpt>
      <trkpt lat="42.187972" lon="2.492124">
        <ele>445.480</ele>
        <time>2021-05-27T15:49:49Z</time>
      </trkpt>
      <trkpt lat="42.187993" lon="2.492120">
        <ele>445.446</ele>
        <time>2021-05-27T15:49:50Z</time>
      </trkpt>
      <trkpt lat="42.188013" lon="2.492122">
        <ele>445.215</ele>
        <time>2021-05-27T15:49:51Z</time>
      </trkpt>
      <trkpt lat="42.188036" lon="2.492128">
        <ele>444.965</ele>
        <time>2021-05-27T15:49:52Z</time>
      </trkpt>
      <trkpt lat="42.188059" lon="2.492131">
        <ele>444.611</ele>
        <time>2021-05-27T15:49:53Z</time>
      </trkpt>
      <trkpt lat="42.188076" lon="2.492127">
        <ele>444.508</ele>
        <time>2021-05-27T15:49:54Z</time>
      </trkpt>
      <trkpt lat="42.188111" lon="2.492121">
        <ele>444.488</ele>
        <time>2021-05-27T15:49:56Z</time>
      </trkpt>
      <trkpt lat="42.188129" lon="2.492126">
        <ele>444.125</ele>
        <time>2021-05-27T15:49:57Z</time>
      </trkpt>
      <trkpt lat="42.188152" lon="2.492125">
        <ele>443.973</ele>
        <time>2021-05-27T15:49:58Z</time>
      </trkpt>
      <trkpt lat="42.188175" lon="2.492121">
        <ele>443.883</ele>
        <time>2021-05-27T15:49:59Z</time>
      </trkpt>
      <trkpt lat="42.188199" lon="2.492112">
        <ele>443.850</ele>
        <time>2021-05-27T15:50:00Z</time>
      </trkpt>
      <trkpt lat="42.188221" lon="2.492102">
        <ele>443.935</ele>
        <time>2021-05-27T15:50:01Z</time>
      </trkpt>
      <trkpt lat="42.188241" lon="2.492096">
        <ele>443.918</ele>
        <time>2021-05-27T15:50:02Z</time>
      </trkpt>
      <trkpt lat="42.188263" lon="2.492089">
        <ele>444.074</ele>
        <time>2021-05-27T15:50:03Z</time>
      </trkpt>
      <trkpt lat="42.188284" lon="2.492077">
        <ele>444.171</ele>
        <time>2021-05-27T15:50:04Z</time>
      </trkpt>
      <trkpt lat="42.188304" lon="2.492069">
        <ele>444.241</ele>
        <time>2021-05-27T15:50:05Z</time>
      </trkpt>
      <trkpt lat="42.188323" lon="2.492057">
        <ele>444.415</ele>
        <time>2021-05-27T15:50:06Z</time>
      </trkpt>
      <trkpt lat="42.188349" lon="2.492046">
        <ele>444.608</ele>
        <time>2021-05-27T15:50:07Z</time>
      </trkpt>
      <trkpt lat="42.188374" lon="2.492041">
        <ele>444.574</ele>
        <time>2021-05-27T15:50:08Z</time>
      </trkpt>
      <trkpt lat="42.188392" lon="2.492041">
        <ele>444.391</ele>
        <time>2021-05-27T15:50:09Z</time>
      </trkpt>
      <trkpt lat="42.188412" lon="2.492041">
        <ele>444.179</ele>
        <time>2021-05-27T15:50:10Z</time>
      </trkpt>
      <trkpt lat="42.188432" lon="2.492040">
        <ele>444.049</ele>
        <time>2021-05-27T15:50:11Z</time>
      </trkpt>
      <trkpt lat="42.188451" lon="2.492037">
        <ele>443.956</ele>
        <time>2021-05-27T15:50:12Z</time>
      </trkpt>
      <trkpt lat="42.188470" lon="2.492040">
        <ele>443.681</ele>
        <time>2021-05-27T15:50:13Z</time>
      </trkpt>
      <trkpt lat="42.188490" lon="2.492042">
        <ele>443.344</ele>
        <time>2021-05-27T15:50:14Z</time>
      </trkpt>
      <trkpt lat="42.188509" lon="2.492044">
        <ele>443.160</ele>
        <time>2021-05-27T15:50:15Z</time>
      </trkpt>
      <trkpt lat="42.188529" lon="2.492049">
        <ele>442.852</ele>
        <time>2021-05-27T15:50:16Z</time>
      </trkpt>
      <trkpt lat="42.188550" lon="2.492050">
        <ele>442.553</ele>
        <time>2021-05-27T15:50:17Z</time>
      </trkpt>
      <trkpt lat="42.188574" lon="2.492049">
        <ele>442.308</ele>
        <time>2021-05-27T15:50:18Z</time>
      </trkpt>
      <trkpt lat="42.188594" lon="2.492051">
        <ele>442.108</ele>
        <time>2021-05-27T15:50:19Z</time>
      </trkpt>
      <trkpt lat="42.188619" lon="2.492053">
        <ele>441.842</ele>
        <time>2021-05-27T15:50:20Z</time>
      </trkpt>
      <trkpt lat="42.188643" lon="2.492053">
        <ele>441.589</ele>
        <time>2021-05-27T15:50:21Z</time>
      </trkpt>
      <trkpt lat="42.188666" lon="2.492059">
        <ele>441.277</ele>
        <time>2021-05-27T15:50:22Z</time>
      </trkpt>
      <trkpt lat="42.188688" lon="2.492064">
        <ele>440.847</ele>
        <time>2021-05-27T15:50:23Z</time>
      </trkpt>
      <trkpt lat="42.188707" lon="2.492066">
        <ele>440.654</ele>
        <time>2021-05-27T15:50:24Z</time>
      </trkpt>
      <trkpt lat="42.188727" lon="2.492071">
        <ele>440.379</ele>
        <time>2021-05-27T15:50:25Z</time>
      </trkpt>
      <trkpt lat="42.188764" lon="2.492074">
        <ele>439.862</ele>
        <time>2021-05-27T15:50:27Z</time>
      </trkpt>
      <trkpt lat="42.188799" lon="2.492076">
        <ele>439.588</ele>
        <time>2021-05-27T15:50:29Z</time>
      </trkpt>
      <trkpt lat="42.188819" lon="2.492067">
        <ele>439.564</ele>
        <time>2021-05-27T15:50:30Z</time>
      </trkpt>
      <trkpt lat="42.188840" lon="2.492057">
        <ele>439.506</ele>
        <time>2021-05-27T15:50:31Z</time>
      </trkpt>
      <trkpt lat="42.188859" lon="2.492053">
        <ele>439.416</ele>
        <time>2021-05-27T15:50:32Z</time>
      </trkpt>
      <trkpt lat="42.188881" lon="2.492046">
        <ele>439.308</ele>
        <time>2021-05-27T15:50:33Z</time>
      </trkpt>
      <trkpt lat="42.188902" lon="2.492036">
        <ele>439.253</ele>
        <time>2021-05-27T15:50:34Z</time>
      </trkpt>
      <trkpt lat="42.188920" lon="2.492026">
        <ele>439.340</ele>
        <time>2021-05-27T15:50:35Z</time>
      </trkpt>
      <trkpt lat="42.188937" lon="2.492016">
        <ele>439.398</ele>
        <time>2021-05-27T15:50:36Z</time>
      </trkpt>
      <trkpt lat="42.188953" lon="2.492004">
        <ele>439.348</ele>
        <time>2021-05-27T15:50:37Z</time>
      </trkpt>
      <trkpt lat="42.188972" lon="2.491994">
        <ele>439.325</ele>
        <time>2021-05-27T15:50:38Z</time>
      </trkpt>
      <trkpt lat="42.188991" lon="2.491979">
        <ele>439.460</ele>
        <time>2021-05-27T15:50:39Z</time>
      </trkpt>
      <trkpt lat="42.189007" lon="2.491964">
        <ele>439.443</ele>
        <time>2021-05-27T15:50:40Z</time>
      </trkpt>
      <trkpt lat="42.189025" lon="2.491952">
        <ele>439.419</ele>
        <time>2021-05-27T15:50:41Z</time>
      </trkpt>
      <trkpt lat="42.189055" lon="2.491932">
        <ele>439.456</ele>
        <time>2021-05-27T15:50:43Z</time>
      </trkpt>
      <trkpt lat="42.189083" lon="2.491909">
        <ele>439.659</ele>
        <time>2021-05-27T15:50:45Z</time>
      </trkpt>
      <trkpt lat="42.189112" lon="2.491890">
        <ele>439.614</ele>
        <time>2021-05-27T15:50:47Z</time>
      </trkpt>
      <trkpt lat="42.189130" lon="2.491881">
        <ele>439.608</ele>
        <time>2021-05-27T15:50:48Z</time>
      </trkpt>
      <trkpt lat="42.189148" lon="2.491871">
        <ele>439.592</ele>
        <time>2021-05-27T15:50:49Z</time>
      </trkpt>
      <trkpt lat="42.189165" lon="2.491860">
        <ele>439.539</ele>
        <time>2021-05-27T15:50:50Z</time>
      </trkpt>
      <trkpt lat="42.189189" lon="2.491846">
        <ele>439.657</ele>
        <time>2021-05-27T15:50:51Z</time>
      </trkpt>
      <trkpt lat="42.189210" lon="2.491828">
        <ele>439.777</ele>
        <time>2021-05-27T15:50:52Z</time>
      </trkpt>
      <trkpt lat="42.189227" lon="2.491812">
        <ele>439.914</ele>
        <time>2021-05-27T15:50:53Z</time>
      </trkpt>
      <trkpt lat="42.189255" lon="2.491780">
        <ele>440.129</ele>
        <time>2021-05-27T15:50:55Z</time>
      </trkpt>
      <trkpt lat="42.189274" lon="2.491757">
        <ele>440.262</ele>
        <time>2021-05-27T15:50:56Z</time>
      </trkpt>
      <trkpt lat="42.189292" lon="2.491735">
        <ele>440.348</ele>
        <time>2021-05-27T15:50:57Z</time>
      </trkpt>
      <trkpt lat="42.189350" lon="2.491666">
        <ele>440.486</ele>
        <time>2021-05-27T15:51:00Z</time>
      </trkpt>
      <trkpt lat="42.189362" lon="2.491644">
        <ele>440.560</ele>
        <time>2021-05-27T15:51:01Z</time>
      </trkpt>
      <trkpt lat="42.189394" lon="2.491598">
        <ele>440.626</ele>
        <time>2021-05-27T15:51:03Z</time>
      </trkpt>
      <trkpt lat="42.189412" lon="2.491577">
        <ele>440.508</ele>
        <time>2021-05-27T15:51:04Z</time>
      </trkpt>
      <trkpt lat="42.189430" lon="2.491559">
        <ele>440.415</ele>
        <time>2021-05-27T15:51:05Z</time>
      </trkpt>
      <trkpt lat="42.189444" lon="2.491538">
        <ele>440.442</ele>
        <time>2021-05-27T15:51:06Z</time>
      </trkpt>
      <trkpt lat="42.189457" lon="2.491518">
        <ele>440.580</ele>
        <time>2021-05-27T15:51:08Z</time>
      </trkpt>
      <trkpt lat="42.189486" lon="2.491478">
        <ele>440.630</ele>
        <time>2021-05-27T15:51:09Z</time>
      </trkpt>
      <trkpt lat="42.189499" lon="2.491460">
        <ele>440.657</ele>
        <time>2021-05-27T15:51:10Z</time>
      </trkpt>
      <trkpt lat="42.189512" lon="2.491440">
        <ele>440.642</ele>
        <time>2021-05-27T15:51:11Z</time>
      </trkpt>
      <trkpt lat="42.189537" lon="2.491402">
        <ele>440.665</ele>
        <time>2021-05-27T15:51:13Z</time>
      </trkpt>
      <trkpt lat="42.189549" lon="2.491382">
        <ele>440.671</ele>
        <time>2021-05-27T15:51:14Z</time>
      </trkpt>
      <trkpt lat="42.189561" lon="2.491361">
        <ele>440.725</ele>
        <time>2021-05-27T15:51:15Z</time>
      </trkpt>
      <trkpt lat="42.189575" lon="2.491340">
        <ele>440.726</ele>
        <time>2021-05-27T15:51:16Z</time>
      </trkpt>
      <trkpt lat="42.189590" lon="2.491322">
        <ele>440.708</ele>
        <time>2021-05-27T15:51:17Z</time>
      </trkpt>
      <trkpt lat="42.189618" lon="2.491283">
        <ele>440.808</ele>
        <time>2021-05-27T15:51:19Z</time>
      </trkpt>
      <trkpt lat="42.189631" lon="2.491264">
        <ele>440.839</ele>
        <time>2021-05-27T15:51:20Z</time>
      </trkpt>
      <trkpt lat="42.189647" lon="2.491227">
        <ele>441.026</ele>
        <time>2021-05-27T15:51:22Z</time>
      </trkpt>
      <trkpt lat="42.189669" lon="2.491199">
        <ele>440.964</ele>
        <time>2021-05-27T15:51:24Z</time>
      </trkpt>
      <trkpt lat="42.189685" lon="2.491184">
        <ele>440.834</ele>
        <time>2021-05-27T15:51:25Z</time>
      </trkpt>
      <trkpt lat="42.189704" lon="2.491165">
        <ele>440.751</ele>
        <time>2021-05-27T15:51:26Z</time>
      </trkpt>
      <trkpt lat="42.189721" lon="2.491147">
        <ele>440.666</ele>
        <time>2021-05-27T15:51:27Z</time>
      </trkpt>
      <trkpt lat="42.189740" lon="2.491129">
        <ele>440.669</ele>
        <time>2021-05-27T15:51:28Z</time>
      </trkpt>
      <trkpt lat="42.189759" lon="2.491108">
        <ele>440.545</ele>
        <time>2021-05-27T15:51:29Z</time>
      </trkpt>
      <trkpt lat="42.189781" lon="2.491081">
        <ele>440.543</ele>
        <time>2021-05-27T15:51:30Z</time>
      </trkpt>
      <trkpt lat="42.189797" lon="2.491058">
        <ele>440.564</ele>
        <time>2021-05-27T15:51:31Z</time>
      </trkpt>
      <trkpt lat="42.189816" lon="2.491035">
        <ele>440.510</ele>
        <time>2021-05-27T15:51:32Z</time>
      </trkpt>
      <trkpt lat="42.189833" lon="2.491010">
        <ele>440.408</ele>
        <time>2021-05-27T15:51:33Z</time>
      </trkpt>
      <trkpt lat="42.189847" lon="2.490990">
        <ele>440.471</ele>
        <time>2021-05-27T15:51:34Z</time>
      </trkpt>
      <trkpt lat="42.189860" lon="2.490969">
        <ele>440.398</ele>
        <time>2021-05-27T15:51:35Z</time>
      </trkpt>
      <trkpt lat="42.189872" lon="2.490951">
        <ele>440.296</ele>
        <time>2021-05-27T15:51:36Z</time>
      </trkpt>
      <trkpt lat="42.189883" lon="2.490931">
        <ele>440.296</ele>
        <time>2021-05-27T15:51:37Z</time>
      </trkpt>
      <trkpt lat="42.189891" lon="2.490909">
        <ele>440.293</ele>
        <time>2021-05-27T15:51:38Z</time>
      </trkpt>
      <trkpt lat="42.189906" lon="2.490874">
        <ele>440.148</ele>
        <time>2021-05-27T15:51:40Z</time>
      </trkpt>
      <trkpt lat="42.189919" lon="2.490839">
        <ele>440.061</ele>
        <time>2021-05-27T15:51:42Z</time>
      </trkpt>
      <trkpt lat="42.189931" lon="2.490818">
        <ele>440.077</ele>
        <time>2021-05-27T15:51:43Z</time>
      </trkpt>
      <trkpt lat="42.189944" lon="2.490797">
        <ele>439.981</ele>
        <time>2021-05-27T15:51:44Z</time>
      </trkpt>
      <trkpt lat="42.189955" lon="2.490776">
        <ele>440.061</ele>
        <time>2021-05-27T15:51:45Z</time>
      </trkpt>
      <trkpt lat="42.189966" lon="2.490756">
        <ele>440.017</ele>
        <time>2021-05-27T15:51:46Z</time>
      </trkpt>
      <trkpt lat="42.189978" lon="2.490737">
        <ele>439.908</ele>
        <time>2021-05-27T15:51:47Z</time>
      </trkpt>
      <trkpt lat="42.190001" lon="2.490706">
        <ele>439.835</ele>
        <time>2021-05-27T15:51:49Z</time>
      </trkpt>
      <trkpt lat="42.190017" lon="2.490690">
        <ele>439.892</ele>
        <time>2021-05-27T15:51:50Z</time>
      </trkpt>
      <trkpt lat="42.190032" lon="2.490670">
        <ele>439.930</ele>
        <time>2021-05-27T15:51:51Z</time>
      </trkpt>
      <trkpt lat="42.190048" lon="2.490654">
        <ele>439.860</ele>
        <time>2021-05-27T15:51:52Z</time>
      </trkpt>
      <trkpt lat="42.190068" lon="2.490637">
        <ele>439.727</ele>
        <time>2021-05-27T15:51:53Z</time>
      </trkpt>
      <trkpt lat="42.190086" lon="2.490620">
        <ele>439.782</ele>
        <time>2021-05-27T15:51:54Z</time>
      </trkpt>
      <trkpt lat="42.190101" lon="2.490604">
        <ele>439.645</ele>
        <time>2021-05-27T15:51:55Z</time>
      </trkpt>
      <trkpt lat="42.190123" lon="2.490588">
        <ele>439.481</ele>
        <time>2021-05-27T15:51:56Z</time>
      </trkpt>
      <trkpt lat="42.190144" lon="2.490573">
        <ele>439.254</ele>
        <time>2021-05-27T15:51:57Z</time>
      </trkpt>
      <trkpt lat="42.190160" lon="2.490557">
        <ele>439.156</ele>
        <time>2021-05-27T15:51:58Z</time>
      </trkpt>
      <trkpt lat="42.190182" lon="2.490545">
        <ele>438.911</ele>
        <time>2021-05-27T15:51:59Z</time>
      </trkpt>
      <trkpt lat="42.190211" lon="2.490523">
        <ele>438.608</ele>
        <time>2021-05-27T15:52:01Z</time>
      </trkpt>
      <trkpt lat="42.190228" lon="2.490510">
        <ele>438.542</ele>
        <time>2021-05-27T15:52:02Z</time>
      </trkpt>
      <trkpt lat="42.190245" lon="2.490500">
        <ele>438.469</ele>
        <time>2021-05-27T15:52:03Z</time>
      </trkpt>
      <trkpt lat="42.190267" lon="2.490496">
        <ele>438.057</ele>
        <time>2021-05-27T15:52:04Z</time>
      </trkpt>
      <trkpt lat="42.190285" lon="2.490496">
        <ele>437.857</ele>
        <time>2021-05-27T15:52:05Z</time>
      </trkpt>
      <trkpt lat="42.190317" lon="2.490491">
        <ele>437.654</ele>
        <time>2021-05-27T15:52:07Z</time>
      </trkpt>
      <trkpt lat="42.190337" lon="2.490487">
        <ele>437.539</ele>
        <time>2021-05-27T15:52:08Z</time>
      </trkpt>
      <trkpt lat="42.190374" lon="2.490486">
        <ele>437.132</ele>
        <time>2021-05-27T15:52:10Z</time>
      </trkpt>
      <trkpt lat="42.190393" lon="2.490482">
        <ele>437.098</ele>
        <time>2021-05-27T15:52:11Z</time>
      </trkpt>
      <trkpt lat="42.190414" lon="2.490480">
        <ele>436.825</ele>
        <time>2021-05-27T15:52:12Z</time>
      </trkpt>
      <trkpt lat="42.190436" lon="2.490476">
        <ele>436.726</ele>
        <time>2021-05-27T15:52:13Z</time>
      </trkpt>
      <trkpt lat="42.190454" lon="2.490475">
        <ele>436.508</ele>
        <time>2021-05-27T15:52:14Z</time>
      </trkpt>
      <trkpt lat="42.190476" lon="2.490472">
        <ele>436.308</ele>
        <time>2021-05-27T15:52:15Z</time>
      </trkpt>
      <trkpt lat="42.190500" lon="2.490465">
        <ele>436.229</ele>
        <time>2021-05-27T15:52:16Z</time>
      </trkpt>
      <trkpt lat="42.190520" lon="2.490460">
        <ele>436.046</ele>
        <time>2021-05-27T15:52:17Z</time>
      </trkpt>
      <trkpt lat="42.190543" lon="2.490450">
        <ele>435.934</ele>
        <time>2021-05-27T15:52:18Z</time>
      </trkpt>
      <trkpt lat="42.190569" lon="2.490432">
        <ele>435.714</ele>
        <time>2021-05-27T15:52:19Z</time>
      </trkpt>
      <trkpt lat="42.190595" lon="2.490419">
        <ele>435.611</ele>
        <time>2021-05-27T15:52:20Z</time>
      </trkpt>
      <trkpt lat="42.190618" lon="2.490406">
        <ele>435.436</ele>
        <time>2021-05-27T15:52:21Z</time>
      </trkpt>
      <trkpt lat="42.190640" lon="2.490394">
        <ele>435.389</ele>
        <time>2021-05-27T15:52:22Z</time>
      </trkpt>
      <trkpt lat="42.190666" lon="2.490382">
        <ele>435.195</ele>
        <time>2021-05-27T15:52:23Z</time>
      </trkpt>
      <trkpt lat="42.190689" lon="2.490370">
        <ele>434.964</ele>
        <time>2021-05-27T15:52:24Z</time>
      </trkpt>
      <trkpt lat="42.190711" lon="2.490357">
        <ele>434.806</ele>
        <time>2021-05-27T15:52:25Z</time>
      </trkpt>
      <trkpt lat="42.190732" lon="2.490349">
        <ele>434.616</ele>
        <time>2021-05-27T15:52:26Z</time>
      </trkpt>
      <trkpt lat="42.190753" lon="2.490341">
        <ele>434.408</ele>
        <time>2021-05-27T15:52:27Z</time>
      </trkpt>
      <trkpt lat="42.190774" lon="2.490334">
        <ele>434.253</ele>
        <time>2021-05-27T15:52:28Z</time>
      </trkpt>
      <trkpt lat="42.190792" lon="2.490326">
        <ele>434.120</ele>
        <time>2021-05-27T15:52:29Z</time>
      </trkpt>
      <trkpt lat="42.190811" lon="2.490317">
        <ele>434.098</ele>
        <time>2021-05-27T15:52:30Z</time>
      </trkpt>
      <trkpt lat="42.190828" lon="2.490308">
        <ele>433.888</ele>
        <time>2021-05-27T15:52:31Z</time>
      </trkpt>
      <trkpt lat="42.190850" lon="2.490299">
        <ele>433.765</ele>
        <time>2021-05-27T15:52:32Z</time>
      </trkpt>
      <trkpt lat="42.190870" lon="2.490291">
        <ele>433.680</ele>
        <time>2021-05-27T15:52:33Z</time>
      </trkpt>
      <trkpt lat="42.190904" lon="2.490294">
        <ele>433.433</ele>
        <time>2021-05-27T15:52:35Z</time>
      </trkpt>
      <trkpt lat="42.190926" lon="2.490297">
        <ele>433.229</ele>
        <time>2021-05-27T15:52:36Z</time>
      </trkpt>
      <trkpt lat="42.190947" lon="2.490295">
        <ele>433.187</ele>
        <time>2021-05-27T15:52:37Z</time>
      </trkpt>
      <trkpt lat="42.190966" lon="2.490294">
        <ele>433.042</ele>
        <time>2021-05-27T15:52:38Z</time>
      </trkpt>
      <trkpt lat="42.190985" lon="2.490294">
        <ele>432.826</ele>
        <time>2021-05-27T15:52:39Z</time>
      </trkpt>
      <trkpt lat="42.191004" lon="2.490296">
        <ele>432.708</ele>
        <time>2021-05-27T15:52:40Z</time>
      </trkpt>
      <trkpt lat="42.191024" lon="2.490304">
        <ele>432.575</ele>
        <time>2021-05-27T15:52:41Z</time>
      </trkpt>
      <trkpt lat="42.191047" lon="2.490301">
        <ele>432.412</ele>
        <time>2021-05-27T15:52:42Z</time>
      </trkpt>
      <trkpt lat="42.191067" lon="2.490301">
        <ele>432.230</ele>
        <time>2021-05-27T15:52:43Z</time>
      </trkpt>
      <trkpt lat="42.191102" lon="2.490305">
        <ele>432.080</ele>
        <time>2021-05-27T15:52:45Z</time>
      </trkpt>
      <trkpt lat="42.191121" lon="2.490305">
        <ele>431.927</ele>
        <time>2021-05-27T15:52:46Z</time>
      </trkpt>
      <trkpt lat="42.191142" lon="2.490307">
        <ele>431.892</ele>
        <time>2021-05-27T15:52:47Z</time>
      </trkpt>
      <trkpt lat="42.191177" lon="2.490308">
        <ele>431.725</ele>
        <time>2021-05-27T15:52:49Z</time>
      </trkpt>
      <trkpt lat="42.191198" lon="2.490306">
        <ele>431.611</ele>
        <time>2021-05-27T15:52:50Z</time>
      </trkpt>
      <trkpt lat="42.191218" lon="2.490307">
        <ele>431.555</ele>
        <time>2021-05-27T15:52:51Z</time>
      </trkpt>
      <trkpt lat="42.191242" lon="2.490303">
        <ele>431.407</ele>
        <time>2021-05-27T15:52:52Z</time>
      </trkpt>
      <trkpt lat="42.191262" lon="2.490299">
        <ele>431.417</ele>
        <time>2021-05-27T15:52:53Z</time>
      </trkpt>
      <trkpt lat="42.191282" lon="2.490294">
        <ele>431.308</ele>
        <time>2021-05-27T15:52:54Z</time>
      </trkpt>
      <trkpt lat="42.191302" lon="2.490289">
        <ele>431.382</ele>
        <time>2021-05-27T15:52:55Z</time>
      </trkpt>
      <trkpt lat="42.191322" lon="2.490286">
        <ele>431.239</ele>
        <time>2021-05-27T15:52:56Z</time>
      </trkpt>
      <trkpt lat="42.191342" lon="2.490283">
        <ele>431.127</ele>
        <time>2021-05-27T15:52:57Z</time>
      </trkpt>
      <trkpt lat="42.191363" lon="2.490276">
        <ele>431.187</ele>
        <time>2021-05-27T15:52:58Z</time>
      </trkpt>
      <trkpt lat="42.191383" lon="2.490272">
        <ele>431.174</ele>
        <time>2021-05-27T15:52:59Z</time>
      </trkpt>
      <trkpt lat="42.191403" lon="2.490268">
        <ele>431.089</ele>
        <time>2021-05-27T15:53:00Z</time>
      </trkpt>
      <trkpt lat="42.191421" lon="2.490266">
        <ele>430.932</ele>
        <time>2021-05-27T15:53:01Z</time>
      </trkpt>
      <trkpt lat="42.191440" lon="2.490263">
        <ele>430.728</ele>
        <time>2021-05-27T15:53:02Z</time>
      </trkpt>
      <trkpt lat="42.191480" lon="2.490262">
        <ele>430.548</ele>
        <time>2021-05-27T15:53:04Z</time>
      </trkpt>
      <trkpt lat="42.191501" lon="2.490260">
        <ele>430.361</ele>
        <time>2021-05-27T15:53:05Z</time>
      </trkpt>
      <trkpt lat="42.191523" lon="2.490262">
        <ele>430.217</ele>
        <time>2021-05-27T15:53:06Z</time>
      </trkpt>
      <trkpt lat="42.191544" lon="2.490260">
        <ele>430.008</ele>
        <time>2021-05-27T15:53:07Z</time>
      </trkpt>
      <trkpt lat="42.191563" lon="2.490257">
        <ele>429.981</ele>
        <time>2021-05-27T15:53:08Z</time>
      </trkpt>
      <trkpt lat="42.191585" lon="2.490255">
        <ele>429.898</ele>
        <time>2021-05-27T15:53:09Z</time>
      </trkpt>
      <trkpt lat="42.191606" lon="2.490249">
        <ele>429.766</ele>
        <time>2021-05-27T15:53:10Z</time>
      </trkpt>
      <trkpt lat="42.191647" lon="2.490247">
        <ele>429.576</ele>
        <time>2021-05-27T15:53:12Z</time>
      </trkpt>
      <trkpt lat="42.191669" lon="2.490250">
        <ele>429.313</ele>
        <time>2021-05-27T15:53:13Z</time>
      </trkpt>
      <trkpt lat="42.191689" lon="2.490252">
        <ele>429.288</ele>
        <time>2021-05-27T15:53:14Z</time>
      </trkpt>
      <trkpt lat="42.191724" lon="2.490253">
        <ele>429.021</ele>
        <time>2021-05-27T15:53:16Z</time>
      </trkpt>
      <trkpt lat="42.191745" lon="2.490258">
        <ele>428.997</ele>
        <time>2021-05-27T15:53:17Z</time>
      </trkpt>
      <trkpt lat="42.191766" lon="2.490264">
        <ele>428.881</ele>
        <time>2021-05-27T15:53:18Z</time>
      </trkpt>
      <trkpt lat="42.191784" lon="2.490274">
        <ele>428.661</ele>
        <time>2021-05-27T15:53:19Z</time>
      </trkpt>
      <trkpt lat="42.191802" lon="2.490287">
        <ele>428.517</ele>
        <time>2021-05-27T15:53:20Z</time>
      </trkpt>
      <trkpt lat="42.191826" lon="2.490292">
        <ele>428.408</ele>
        <time>2021-05-27T15:53:21Z</time>
      </trkpt>
      <trkpt lat="42.191849" lon="2.490292">
        <ele>428.385</ele>
        <time>2021-05-27T15:53:22Z</time>
      </trkpt>
      <trkpt lat="42.191870" lon="2.490295">
        <ele>428.312</ele>
        <time>2021-05-27T15:53:23Z</time>
      </trkpt>
      <trkpt lat="42.191893" lon="2.490297">
        <ele>428.260</ele>
        <time>2021-05-27T15:53:24Z</time>
      </trkpt>
      <trkpt lat="42.191915" lon="2.490294">
        <ele>428.190</ele>
        <time>2021-05-27T15:53:25Z</time>
      </trkpt>
      <trkpt lat="42.191934" lon="2.490291">
        <ele>428.027</ele>
        <time>2021-05-27T15:53:26Z</time>
      </trkpt>
      <trkpt lat="42.191956" lon="2.490291">
        <ele>427.952</ele>
        <time>2021-05-27T15:53:27Z</time>
      </trkpt>
      <trkpt lat="42.191978" lon="2.490291">
        <ele>427.855</ele>
        <time>2021-05-27T15:53:28Z</time>
      </trkpt>
      <trkpt lat="42.192000" lon="2.490290">
        <ele>427.681</ele>
        <time>2021-05-27T15:53:29Z</time>
      </trkpt>
      <trkpt lat="42.192021" lon="2.490285">
        <ele>427.551</ele>
        <time>2021-05-27T15:53:30Z</time>
      </trkpt>
      <trkpt lat="42.192043" lon="2.490282">
        <ele>427.301</ele>
        <time>2021-05-27T15:53:31Z</time>
      </trkpt>
      <trkpt lat="42.192063" lon="2.490276">
        <ele>427.211</ele>
        <time>2021-05-27T15:53:32Z</time>
      </trkpt>
      <trkpt lat="42.192083" lon="2.490269">
        <ele>427.008</ele>
        <time>2021-05-27T15:53:33Z</time>
      </trkpt>
      <trkpt lat="42.192101" lon="2.490263">
        <ele>426.962</ele>
        <time>2021-05-27T15:53:34Z</time>
      </trkpt>
      <trkpt lat="42.192117" lon="2.490253">
        <ele>426.869</ele>
        <time>2021-05-27T15:53:35Z</time>
      </trkpt>
      <trkpt lat="42.192135" lon="2.490241">
        <ele>426.827</ele>
        <time>2021-05-27T15:53:36Z</time>
      </trkpt>
      <trkpt lat="42.192156" lon="2.490227">
        <ele>426.747</ele>
        <time>2021-05-27T15:53:37Z</time>
      </trkpt>
      <trkpt lat="42.192173" lon="2.490209">
        <ele>426.684</ele>
        <time>2021-05-27T15:53:38Z</time>
      </trkpt>
      <trkpt lat="42.192192" lon="2.490190">
        <ele>426.529</ele>
        <time>2021-05-27T15:53:39Z</time>
      </trkpt>
      <trkpt lat="42.192212" lon="2.490171">
        <ele>426.582</ele>
        <time>2021-05-27T15:53:40Z</time>
      </trkpt>
      <trkpt lat="42.192229" lon="2.490152">
        <ele>426.498</ele>
        <time>2021-05-27T15:53:41Z</time>
      </trkpt>
      <trkpt lat="42.192245" lon="2.490132">
        <ele>426.521</ele>
        <time>2021-05-27T15:53:42Z</time>
      </trkpt>
      <trkpt lat="42.192257" lon="2.490111">
        <ele>426.541</ele>
        <time>2021-05-27T15:53:43Z</time>
      </trkpt>
      <trkpt lat="42.192272" lon="2.490091">
        <ele>426.605</ele>
        <time>2021-05-27T15:53:44Z</time>
      </trkpt>
      <trkpt lat="42.192287" lon="2.490071">
        <ele>426.608</ele>
        <time>2021-05-27T15:53:45Z</time>
      </trkpt>
      <trkpt lat="42.192301" lon="2.490049">
        <ele>426.619</ele>
        <time>2021-05-27T15:53:46Z</time>
      </trkpt>
      <trkpt lat="42.192312" lon="2.490028">
        <ele>426.676</ele>
        <time>2021-05-27T15:53:47Z</time>
      </trkpt>
      <trkpt lat="42.192322" lon="2.490007">
        <ele>426.654</ele>
        <time>2021-05-27T15:53:48Z</time>
      </trkpt>
      <trkpt lat="42.192336" lon="2.489986">
        <ele>426.774</ele>
        <time>2021-05-27T15:53:49Z</time>
      </trkpt>
      <trkpt lat="42.192344" lon="2.489963">
        <ele>426.841</ele>
        <time>2021-05-27T15:53:50Z</time>
      </trkpt>
      <trkpt lat="42.192355" lon="2.489941">
        <ele>426.816</ele>
        <time>2021-05-27T15:53:51Z</time>
      </trkpt>
      <trkpt lat="42.192378" lon="2.489904">
        <ele>426.999</ele>
        <time>2021-05-27T15:53:53Z</time>
      </trkpt>
      <trkpt lat="42.192394" lon="2.489885">
        <ele>427.015</ele>
        <time>2021-05-27T15:53:54Z</time>
      </trkpt>
      <trkpt lat="42.192409" lon="2.489866">
        <ele>427.016</ele>
        <time>2021-05-27T15:53:55Z</time>
      </trkpt>
      <trkpt lat="42.192424" lon="2.489847">
        <ele>427.076</ele>
        <time>2021-05-27T15:53:56Z</time>
      </trkpt>
      <trkpt lat="42.192437" lon="2.489829">
        <ele>427.013</ele>
        <time>2021-05-27T15:53:57Z</time>
      </trkpt>
      <trkpt lat="42.192451" lon="2.489812">
        <ele>427.008</ele>
        <time>2021-05-27T15:53:58Z</time>
      </trkpt>
      <trkpt lat="42.192471" lon="2.489797">
        <ele>426.998</ele>
        <time>2021-05-27T15:53:59Z</time>
      </trkpt>
      <trkpt lat="42.192489" lon="2.489785">
        <ele>426.825</ele>
        <time>2021-05-27T15:54:00Z</time>
      </trkpt>
      <trkpt lat="42.192507" lon="2.489776">
        <ele>426.873</ele>
        <time>2021-05-27T15:54:01Z</time>
      </trkpt>
      <trkpt lat="42.192525" lon="2.489767">
        <ele>426.783</ele>
        <time>2021-05-27T15:54:02Z</time>
      </trkpt>
      <trkpt lat="42.192542" lon="2.489756">
        <ele>426.740</ele>
        <time>2021-05-27T15:54:03Z</time>
      </trkpt>
      <trkpt lat="42.192561" lon="2.489748">
        <ele>426.765</ele>
        <time>2021-05-27T15:54:04Z</time>
      </trkpt>
      <trkpt lat="42.192579" lon="2.489740">
        <ele>426.648</ele>
        <time>2021-05-27T15:54:05Z</time>
      </trkpt>
      <trkpt lat="42.192598" lon="2.489730">
        <ele>426.614</ele>
        <time>2021-05-27T15:54:06Z</time>
      </trkpt>
      <trkpt lat="42.192617" lon="2.489716">
        <ele>426.683</ele>
        <time>2021-05-27T15:54:07Z</time>
      </trkpt>
      <trkpt lat="42.192633" lon="2.489700">
        <ele>426.625</ele>
        <time>2021-05-27T15:54:08Z</time>
      </trkpt>
      <trkpt lat="42.192651" lon="2.489686">
        <ele>426.617</ele>
        <time>2021-05-27T15:54:09Z</time>
      </trkpt>
      <trkpt lat="42.192684" lon="2.489658">
        <ele>426.608</ele>
        <time>2021-05-27T15:54:11Z</time>
      </trkpt>
      <trkpt lat="42.192701" lon="2.489645">
        <ele>426.635</ele>
        <time>2021-05-27T15:54:12Z</time>
      </trkpt>
      <trkpt lat="42.192718" lon="2.489636">
        <ele>426.582</ele>
        <time>2021-05-27T15:54:13Z</time>
      </trkpt>
      <trkpt lat="42.192736" lon="2.489632">
        <ele>426.550</ele>
        <time>2021-05-27T15:54:14Z</time>
      </trkpt>
      <trkpt lat="42.192773" lon="2.489635">
        <ele>426.390</ele>
        <time>2021-05-27T15:54:16Z</time>
      </trkpt>
      <trkpt lat="42.192792" lon="2.489638">
        <ele>426.377</ele>
        <time>2021-05-27T15:54:17Z</time>
      </trkpt>
      <trkpt lat="42.192811" lon="2.489641">
        <ele>426.242</ele>
        <time>2021-05-27T15:54:18Z</time>
      </trkpt>
      <trkpt lat="42.192832" lon="2.489642">
        <ele>426.145</ele>
        <time>2021-05-27T15:54:19Z</time>
      </trkpt>
      <trkpt lat="42.192853" lon="2.489633">
        <ele>426.121</ele>
        <time>2021-05-27T15:54:20Z</time>
      </trkpt>
      <trkpt lat="42.192872" lon="2.489619">
        <ele>426.077</ele>
        <time>2021-05-27T15:54:21Z</time>
      </trkpt>
      <trkpt lat="42.192890" lon="2.489605">
        <ele>426.061</ele>
        <time>2021-05-27T15:54:22Z</time>
      </trkpt>
      <trkpt lat="42.192907" lon="2.489592">
        <ele>426.027</ele>
        <time>2021-05-27T15:54:23Z</time>
      </trkpt>
      <trkpt lat="42.192927" lon="2.489583">
        <ele>426.008</ele>
        <time>2021-05-27T15:54:24Z</time>
      </trkpt>
      <trkpt lat="42.192946" lon="2.489575">
        <ele>425.914</ele>
        <time>2021-05-27T15:54:25Z</time>
      </trkpt>
      <trkpt lat="42.192980" lon="2.489561">
        <ele>425.971</ele>
        <time>2021-05-27T15:54:27Z</time>
      </trkpt>
      <trkpt lat="42.193013" lon="2.489548">
        <ele>425.859</ele>
        <time>2021-05-27T15:54:29Z</time>
      </trkpt>
      <trkpt lat="42.193032" lon="2.489546">
        <ele>425.719</ele>
        <time>2021-05-27T15:54:30Z</time>
      </trkpt>
      <trkpt lat="42.193070" lon="2.489543">
        <ele>425.636</ele>
        <time>2021-05-27T15:54:32Z</time>
      </trkpt>
      <trkpt lat="42.193102" lon="2.489542">
        <ele>425.491</ele>
        <time>2021-05-27T15:54:34Z</time>
      </trkpt>
      <trkpt lat="42.193122" lon="2.489542">
        <ele>425.394</ele>
        <time>2021-05-27T15:54:35Z</time>
      </trkpt>
      <trkpt lat="42.193143" lon="2.489541">
        <ele>425.140</ele>
        <time>2021-05-27T15:54:36Z</time>
      </trkpt>
      <trkpt lat="42.193162" lon="2.489543">
        <ele>425.022</ele>
        <time>2021-05-27T15:54:37Z</time>
      </trkpt>
      <trkpt lat="42.193182" lon="2.489544">
        <ele>424.962</ele>
        <time>2021-05-27T15:54:38Z</time>
      </trkpt>
      <trkpt lat="42.193203" lon="2.489547">
        <ele>424.808</ele>
        <time>2021-05-27T15:54:39Z</time>
      </trkpt>
      <trkpt lat="42.193226" lon="2.489549">
        <ele>424.608</ele>
        <time>2021-05-27T15:54:40Z</time>
      </trkpt>
      <trkpt lat="42.193263" lon="2.489550">
        <ele>424.459</ele>
        <time>2021-05-27T15:54:42Z</time>
      </trkpt>
      <trkpt lat="42.193284" lon="2.489548">
        <ele>424.326</ele>
        <time>2021-05-27T15:54:43Z</time>
      </trkpt>
      <trkpt lat="42.193303" lon="2.489549">
        <ele>424.284</ele>
        <time>2021-05-27T15:54:44Z</time>
      </trkpt>
      <trkpt lat="42.193326" lon="2.489551">
        <ele>424.094</ele>
        <time>2021-05-27T15:54:45Z</time>
      </trkpt>
      <trkpt lat="42.193351" lon="2.489552">
        <ele>424.081</ele>
        <time>2021-05-27T15:54:46Z</time>
      </trkpt>
      <trkpt lat="42.193373" lon="2.489553">
        <ele>424.086</ele>
        <time>2021-05-27T15:54:47Z</time>
      </trkpt>
      <trkpt lat="42.193394" lon="2.489559">
        <ele>424.029</ele>
        <time>2021-05-27T15:54:48Z</time>
      </trkpt>
      <trkpt lat="42.193415" lon="2.489565">
        <ele>424.015</ele>
        <time>2021-05-27T15:54:49Z</time>
      </trkpt>
      <trkpt lat="42.193435" lon="2.489568">
        <ele>424.072</ele>
        <time>2021-05-27T15:54:50Z</time>
      </trkpt>
      <trkpt lat="42.193456" lon="2.489568">
        <ele>424.013</ele>
        <time>2021-05-27T15:54:51Z</time>
      </trkpt>
      <trkpt lat="42.193480" lon="2.489569">
        <ele>424.014</ele>
        <time>2021-05-27T15:54:52Z</time>
      </trkpt>
      <trkpt lat="42.193503" lon="2.489570">
        <ele>424.008</ele>
        <time>2021-05-27T15:54:53Z</time>
      </trkpt>
      <trkpt lat="42.193524" lon="2.489569">
        <ele>424.044</ele>
        <time>2021-05-27T15:54:54Z</time>
      </trkpt>
      <trkpt lat="42.193560" lon="2.489576">
        <ele>424.011</ele>
        <time>2021-05-27T15:54:56Z</time>
      </trkpt>
      <trkpt lat="42.193578" lon="2.489574">
        <ele>424.069</ele>
        <time>2021-05-27T15:54:57Z</time>
      </trkpt>
      <trkpt lat="42.193617" lon="2.489580">
        <ele>424.049</ele>
        <time>2021-05-27T15:54:59Z</time>
      </trkpt>
      <trkpt lat="42.193643" lon="2.489578">
        <ele>423.916</ele>
        <time>2021-05-27T15:55:00Z</time>
      </trkpt>
      <trkpt lat="42.193666" lon="2.489575">
        <ele>423.991</ele>
        <time>2021-05-27T15:55:01Z</time>
      </trkpt>
      <trkpt lat="42.193686" lon="2.489574">
        <ele>423.914</ele>
        <time>2021-05-27T15:55:02Z</time>
      </trkpt>
      <trkpt lat="42.193708" lon="2.489579">
        <ele>423.810</ele>
        <time>2021-05-27T15:55:03Z</time>
      </trkpt>
      <trkpt lat="42.193731" lon="2.489581">
        <ele>423.855</ele>
        <time>2021-05-27T15:55:04Z</time>
      </trkpt>
      <trkpt lat="42.193767" lon="2.489590">
        <ele>423.707</ele>
        <time>2021-05-27T15:55:06Z</time>
      </trkpt>
      <trkpt lat="42.193786" lon="2.489590">
        <ele>423.717</ele>
        <time>2021-05-27T15:55:07Z</time>
      </trkpt>
      <trkpt lat="42.193806" lon="2.489594">
        <ele>423.608</ele>
        <time>2021-05-27T15:55:08Z</time>
      </trkpt>
      <trkpt lat="42.193826" lon="2.489602">
        <ele>423.622</ele>
        <time>2021-05-27T15:55:09Z</time>
      </trkpt>
      <trkpt lat="42.193847" lon="2.489612">
        <ele>423.589</ele>
        <time>2021-05-27T15:55:10Z</time>
      </trkpt>
      <trkpt lat="42.193872" lon="2.489614">
        <ele>423.447</ele>
        <time>2021-05-27T15:55:11Z</time>
      </trkpt>
      <trkpt lat="42.193893" lon="2.489616">
        <ele>423.437</ele>
        <time>2021-05-27T15:55:12Z</time>
      </trkpt>
      <trkpt lat="42.193913" lon="2.489619">
        <ele>423.344</ele>
        <time>2021-05-27T15:55:13Z</time>
      </trkpt>
      <trkpt lat="42.193935" lon="2.489621">
        <ele>423.329</ele>
        <time>2021-05-27T15:55:14Z</time>
      </trkpt>
      <trkpt lat="42.193957" lon="2.489623">
        <ele>423.372</ele>
        <time>2021-05-27T15:55:15Z</time>
      </trkpt>
      <trkpt lat="42.193977" lon="2.489622">
        <ele>423.268</ele>
        <time>2021-05-27T15:55:16Z</time>
      </trkpt>
      <trkpt lat="42.193998" lon="2.489622">
        <ele>423.215</ele>
        <time>2021-05-27T15:55:17Z</time>
      </trkpt>
      <trkpt lat="42.194019" lon="2.489623">
        <ele>423.265</ele>
        <time>2021-05-27T15:55:18Z</time>
      </trkpt>
      <trkpt lat="42.194038" lon="2.489624">
        <ele>423.211</ele>
        <time>2021-05-27T15:55:19Z</time>
      </trkpt>
      <trkpt lat="42.194060" lon="2.489625">
        <ele>423.108</ele>
        <time>2021-05-27T15:55:20Z</time>
      </trkpt>
      <trkpt lat="42.194080" lon="2.489624">
        <ele>423.148</ele>
        <time>2021-05-27T15:55:21Z</time>
      </trkpt>
      <trkpt lat="42.194115" lon="2.489629">
        <ele>423.145</ele>
        <time>2021-05-27T15:55:23Z</time>
      </trkpt>
      <trkpt lat="42.194151" lon="2.489630">
        <ele>423.023</ele>
        <time>2021-05-27T15:55:25Z</time>
      </trkpt>
      <trkpt lat="42.194171" lon="2.489632">
        <ele>423.023</ele>
        <time>2021-05-27T15:55:26Z</time>
      </trkpt>
      <trkpt lat="42.194191" lon="2.489635">
        <ele>422.930</ele>
        <time>2021-05-27T15:55:27Z</time>
      </trkpt>
      <trkpt lat="42.194212" lon="2.489638">
        <ele>422.845</ele>
        <time>2021-05-27T15:55:28Z</time>
      </trkpt>
      <trkpt lat="42.194231" lon="2.489641">
        <ele>422.848</ele>
        <time>2021-05-27T15:55:29Z</time>
      </trkpt>
      <trkpt lat="42.194251" lon="2.489642">
        <ele>422.784</ele>
        <time>2021-05-27T15:55:30Z</time>
      </trkpt>
      <trkpt lat="42.194270" lon="2.489644">
        <ele>422.658</ele>
        <time>2021-05-27T15:55:31Z</time>
      </trkpt>
      <trkpt lat="42.194292" lon="2.489648">
        <ele>422.552</ele>
        <time>2021-05-27T15:55:32Z</time>
      </trkpt>
      <trkpt lat="42.194316" lon="2.489651">
        <ele>422.517</ele>
        <time>2021-05-27T15:55:33Z</time>
      </trkpt>
      <trkpt lat="42.194338" lon="2.489650">
        <ele>422.408</ele>
        <time>2021-05-27T15:55:34Z</time>
      </trkpt>
      <trkpt lat="42.194359" lon="2.489649">
        <ele>422.382</ele>
        <time>2021-05-27T15:55:35Z</time>
      </trkpt>
      <trkpt lat="42.194381" lon="2.489651">
        <ele>422.229</ele>
        <time>2021-05-27T15:55:36Z</time>
      </trkpt>
      <trkpt lat="42.194400" lon="2.489656">
        <ele>422.237</ele>
        <time>2021-05-27T15:55:37Z</time>
      </trkpt>
      <trkpt lat="42.194419" lon="2.489667">
        <ele>422.177</ele>
        <time>2021-05-27T15:55:38Z</time>
      </trkpt>
      <trkpt lat="42.194436" lon="2.489685">
        <ele>422.034</ele>
        <time>2021-05-27T15:55:39Z</time>
      </trkpt>
      <trkpt lat="42.194450" lon="2.489703">
        <ele>422.019</ele>
        <time>2021-05-27T15:55:40Z</time>
      </trkpt>
      <trkpt lat="42.194467" lon="2.489719">
        <ele>421.962</ele>
        <time>2021-05-27T15:55:41Z</time>
      </trkpt>
      <trkpt lat="42.194485" lon="2.489732">
        <ele>421.888</ele>
        <time>2021-05-27T15:55:42Z</time>
      </trkpt>
      <trkpt lat="42.194504" lon="2.489741">
        <ele>421.625</ele>
        <time>2021-05-27T15:55:43Z</time>
      </trkpt>
      <trkpt lat="42.194523" lon="2.489750">
        <ele>421.526</ele>
        <time>2021-05-27T15:55:44Z</time>
      </trkpt>
      <trkpt lat="42.194544" lon="2.489758">
        <ele>421.308</ele>
        <time>2021-05-27T15:55:45Z</time>
      </trkpt>
      <trkpt lat="42.194566" lon="2.489765">
        <ele>421.208</ele>
        <time>2021-05-27T15:55:46Z</time>
      </trkpt>
      <trkpt lat="42.194587" lon="2.489778">
        <ele>421.139</ele>
        <time>2021-05-27T15:55:47Z</time>
      </trkpt>
      <trkpt lat="42.194603" lon="2.489795">
        <ele>420.936</ele>
        <time>2021-05-27T15:55:48Z</time>
      </trkpt>
      <trkpt lat="42.194622" lon="2.489836">
        <ele>420.774</ele>
        <time>2021-05-27T15:55:50Z</time>
      </trkpt>
      <trkpt lat="42.194633" lon="2.489880">
        <ele>420.434</ele>
        <time>2021-05-27T15:55:52Z</time>
      </trkpt>
      <trkpt lat="42.194642" lon="2.489902">
        <ele>420.331</ele>
        <time>2021-05-27T15:55:53Z</time>
      </trkpt>
      <trkpt lat="42.194657" lon="2.489945">
        <ele>420.156</ele>
        <time>2021-05-27T15:55:55Z</time>
      </trkpt>
      <trkpt lat="42.194663" lon="2.489970">
        <ele>419.959</ele>
        <time>2021-05-27T15:55:56Z</time>
      </trkpt>
      <trkpt lat="42.194670" lon="2.489995">
        <ele>419.825</ele>
        <time>2021-05-27T15:55:57Z</time>
      </trkpt>
      <trkpt lat="42.194677" lon="2.490020">
        <ele>419.716</ele>
        <time>2021-05-27T15:55:58Z</time>
      </trkpt>
      <trkpt lat="42.194687" lon="2.490045">
        <ele>419.576</ele>
        <time>2021-05-27T15:55:59Z</time>
      </trkpt>
      <trkpt lat="42.194695" lon="2.490069">
        <ele>419.413</ele>
        <time>2021-05-27T15:56:00Z</time>
      </trkpt>
      <trkpt lat="42.194706" lon="2.490088">
        <ele>419.308</ele>
        <time>2021-05-27T15:56:01Z</time>
      </trkpt>
      <trkpt lat="42.194718" lon="2.490112">
        <ele>419.248</ele>
        <time>2021-05-27T15:56:02Z</time>
      </trkpt>
      <trkpt lat="42.194729" lon="2.490132">
        <ele>419.155</ele>
        <time>2021-05-27T15:56:03Z</time>
      </trkpt>
      <trkpt lat="42.194742" lon="2.490165">
        <ele>418.923</ele>
        <time>2021-05-27T15:56:05Z</time>
      </trkpt>
      <trkpt lat="42.194753" lon="2.490184">
        <ele>418.713</ele>
        <time>2021-05-27T15:56:06Z</time>
      </trkpt>
      <trkpt lat="42.194768" lon="2.490203">
        <ele>418.750</ele>
        <time>2021-05-27T15:56:07Z</time>
      </trkpt>
      <trkpt lat="42.194794" lon="2.490236">
        <ele>418.525</ele>
        <time>2021-05-27T15:56:09Z</time>
      </trkpt>
      <trkpt lat="42.194809" lon="2.490252">
        <ele>418.558</ele>
        <time>2021-05-27T15:56:10Z</time>
      </trkpt>
      <trkpt lat="42.194826" lon="2.490269">
        <ele>418.474</ele>
        <time>2021-05-27T15:56:11Z</time>
      </trkpt>
      <trkpt lat="42.194842" lon="2.490286">
        <ele>418.462</ele>
        <time>2021-05-27T15:56:12Z</time>
      </trkpt>
      <trkpt lat="42.194871" lon="2.490309">
        <ele>418.383</ele>
        <time>2021-05-27T15:56:14Z</time>
      </trkpt>
      <trkpt lat="42.194888" lon="2.490320">
        <ele>418.211</ele>
        <time>2021-05-27T15:56:15Z</time>
      </trkpt>
      <trkpt lat="42.194902" lon="2.490335">
        <ele>418.108</ele>
        <time>2021-05-27T15:56:16Z</time>
      </trkpt>
      <trkpt lat="42.194921" lon="2.490354">
        <ele>418.053</ele>
        <time>2021-05-27T15:56:17Z</time>
      </trkpt>
      <trkpt lat="42.194937" lon="2.490369">
        <ele>417.930</ele>
        <time>2021-05-27T15:56:18Z</time>
      </trkpt>
      <trkpt lat="42.194958" lon="2.490381">
        <ele>417.888</ele>
        <time>2021-05-27T15:56:19Z</time>
      </trkpt>
      <trkpt lat="42.194976" lon="2.490395">
        <ele>417.768</ele>
        <time>2021-05-27T15:56:20Z</time>
      </trkpt>
      <trkpt lat="42.194994" lon="2.490409">
        <ele>417.665</ele>
        <time>2021-05-27T15:56:21Z</time>
      </trkpt>
      <trkpt lat="42.195021" lon="2.490443">
        <ele>417.010</ele>
        <time>2021-05-27T15:56:23Z</time>
      </trkpt>
      <trkpt lat="42.195035" lon="2.490461">
        <ele>416.723</ele>
        <time>2021-05-27T15:56:24Z</time>
      </trkpt>
      <trkpt lat="42.195053" lon="2.490481">
        <ele>416.479</ele>
        <time>2021-05-27T15:56:25Z</time>
      </trkpt>
      <trkpt lat="42.195073" lon="2.490505">
        <ele>416.089</ele>
        <time>2021-05-27T15:56:26Z</time>
      </trkpt>
      <trkpt lat="42.195090" lon="2.490527">
        <ele>415.606</ele>
        <time>2021-05-27T15:56:27Z</time>
      </trkpt>
      <trkpt lat="42.195104" lon="2.490546">
        <ele>415.326</ele>
        <time>2021-05-27T15:56:28Z</time>
      </trkpt>
      <trkpt lat="42.195119" lon="2.490563">
        <ele>415.108</ele>
        <time>2021-05-27T15:56:29Z</time>
      </trkpt>
      <trkpt lat="42.195132" lon="2.490591">
        <ele>414.915</ele>
        <time>2021-05-27T15:56:30Z</time>
      </trkpt>
      <trkpt lat="42.195145" lon="2.490615">
        <ele>414.722</ele>
        <time>2021-05-27T15:56:31Z</time>
      </trkpt>
      <trkpt lat="42.195160" lon="2.490638">
        <ele>414.670</ele>
        <time>2021-05-27T15:56:32Z</time>
      </trkpt>
      <trkpt lat="42.195183" lon="2.490661">
        <ele>414.310</ele>
        <time>2021-05-27T15:56:33Z</time>
      </trkpt>
      <trkpt lat="42.195201" lon="2.490687">
        <ele>414.147</ele>
        <time>2021-05-27T15:56:34Z</time>
      </trkpt>
      <trkpt lat="42.195217" lon="2.490710">
        <ele>413.972</ele>
        <time>2021-05-27T15:56:35Z</time>
      </trkpt>
      <trkpt lat="42.195238" lon="2.490733">
        <ele>413.655</ele>
        <time>2021-05-27T15:56:36Z</time>
      </trkpt>
      <trkpt lat="42.195261" lon="2.490755">
        <ele>413.451</ele>
        <time>2021-05-27T15:56:37Z</time>
      </trkpt>
      <trkpt lat="42.195283" lon="2.490772">
        <ele>413.231</ele>
        <time>2021-05-27T15:56:38Z</time>
      </trkpt>
      <trkpt lat="42.195302" lon="2.490786">
        <ele>413.061</ele>
        <time>2021-05-27T15:56:39Z</time>
      </trkpt>
      <trkpt lat="42.195321" lon="2.490791">
        <ele>412.807</ele>
        <time>2021-05-27T15:56:40Z</time>
      </trkpt>
      <trkpt lat="42.195341" lon="2.490792">
        <ele>412.708</ele>
        <time>2021-05-27T15:56:41Z</time>
      </trkpt>
      <trkpt lat="42.195379" lon="2.490780">
        <ele>412.510</ele>
        <time>2021-05-27T15:56:43Z</time>
      </trkpt>
      <trkpt lat="42.195398" lon="2.490771">
        <ele>412.417</ele>
        <time>2021-05-27T15:56:44Z</time>
      </trkpt>
      <trkpt lat="42.195428" lon="2.490763">
        <ele>412.265</ele>
        <time>2021-05-27T15:56:46Z</time>
      </trkpt>
      <trkpt lat="42.195464" lon="2.490749">
        <ele>412.065</ele>
        <time>2021-05-27T15:56:48Z</time>
      </trkpt>
      <trkpt lat="42.195483" lon="2.490736">
        <ele>411.962</ele>
        <time>2021-05-27T15:56:49Z</time>
      </trkpt>
      <trkpt lat="42.195506" lon="2.490725">
        <ele>411.777</ele>
        <time>2021-05-27T15:56:50Z</time>
      </trkpt>
      <trkpt lat="42.195529" lon="2.490712">
        <ele>411.630</ele>
        <time>2021-05-27T15:56:51Z</time>
      </trkpt>
      <trkpt lat="42.195569" lon="2.490700">
        <ele>411.436</ele>
        <time>2021-05-27T15:56:53Z</time>
      </trkpt>
      <trkpt lat="42.195587" lon="2.490694">
        <ele>411.399</ele>
        <time>2021-05-27T15:56:54Z</time>
      </trkpt>
      <trkpt lat="42.195607" lon="2.490689">
        <ele>411.107</ele>
        <time>2021-05-27T15:56:55Z</time>
      </trkpt>
      <trkpt lat="42.195646" lon="2.490680">
        <ele>410.927</ele>
        <time>2021-05-27T15:56:57Z</time>
      </trkpt>
      <trkpt lat="42.195671" lon="2.490672">
        <ele>410.808</ele>
        <time>2021-05-27T15:56:58Z</time>
      </trkpt>
      <trkpt lat="42.195691" lon="2.490670">
        <ele>410.696</ele>
        <time>2021-05-27T15:56:59Z</time>
      </trkpt>
      <trkpt lat="42.195716" lon="2.490670">
        <ele>410.473</ele>
        <time>2021-05-27T15:57:00Z</time>
      </trkpt>
      <trkpt lat="42.195741" lon="2.490664">
        <ele>410.341</ele>
        <time>2021-05-27T15:57:01Z</time>
      </trkpt>
      <trkpt lat="42.195759" lon="2.490660">
        <ele>410.211</ele>
        <time>2021-05-27T15:57:02Z</time>
      </trkpt>
      <trkpt lat="42.195778" lon="2.490658">
        <ele>410.078</ele>
        <time>2021-05-27T15:57:03Z</time>
      </trkpt>
      <trkpt lat="42.195796" lon="2.490656">
        <ele>409.993</ele>
        <time>2021-05-27T15:57:04Z</time>
      </trkpt>
      <trkpt lat="42.195819" lon="2.490651">
        <ele>409.896</ele>
        <time>2021-05-27T15:57:05Z</time>
      </trkpt>
      <trkpt lat="42.195838" lon="2.490649">
        <ele>409.722</ele>
        <time>2021-05-27T15:57:06Z</time>
      </trkpt>
      <trkpt lat="42.195873" lon="2.490641">
        <ele>409.741</ele>
        <time>2021-05-27T15:57:08Z</time>
      </trkpt>
      <trkpt lat="42.195908" lon="2.490643">
        <ele>409.781</ele>
        <time>2021-05-27T15:57:10Z</time>
      </trkpt>
      <trkpt lat="42.195927" lon="2.490644">
        <ele>409.709</ele>
        <time>2021-05-27T15:57:11Z</time>
      </trkpt>
      <trkpt lat="42.195947" lon="2.490648">
        <ele>409.708</ele>
        <time>2021-05-27T15:57:12Z</time>
      </trkpt>
      <trkpt lat="42.195974" lon="2.490649">
        <ele>409.711</ele>
        <time>2021-05-27T15:57:13Z</time>
      </trkpt>
      <trkpt lat="42.195996" lon="2.490651">
        <ele>409.748</ele>
        <time>2021-05-27T15:57:14Z</time>
      </trkpt>
      <trkpt lat="42.196021" lon="2.490649">
        <ele>409.786</ele>
        <time>2021-05-27T15:57:15Z</time>
      </trkpt>
      <trkpt lat="42.196047" lon="2.490647">
        <ele>409.756</ele>
        <time>2021-05-27T15:57:16Z</time>
      </trkpt>
      <trkpt lat="42.196068" lon="2.490644">
        <ele>409.743</ele>
        <time>2021-05-27T15:57:17Z</time>
      </trkpt>
      <trkpt lat="42.196088" lon="2.490642">
        <ele>409.738</ele>
        <time>2021-05-27T15:57:18Z</time>
      </trkpt>
      <trkpt lat="42.196107" lon="2.490643">
        <ele>409.771</ele>
        <time>2021-05-27T15:57:19Z</time>
      </trkpt>
      <trkpt lat="42.196128" lon="2.490641">
        <ele>409.677</ele>
        <time>2021-05-27T15:57:20Z</time>
      </trkpt>
      <trkpt lat="42.196150" lon="2.490638">
        <ele>409.468</ele>
        <time>2021-05-27T15:57:21Z</time>
      </trkpt>
      <trkpt lat="42.196168" lon="2.490633">
        <ele>409.342</ele>
        <time>2021-05-27T15:57:22Z</time>
      </trkpt>
      <trkpt lat="42.196186" lon="2.490625">
        <ele>409.126</ele>
        <time>2021-05-27T15:57:23Z</time>
      </trkpt>
      <trkpt lat="42.196204" lon="2.490612">
        <ele>409.008</ele>
        <time>2021-05-27T15:57:24Z</time>
      </trkpt>
      <trkpt lat="42.196311" lon="2.490591">
        <ele>408.073</ele>
        <time>2021-05-27T15:57:29Z</time>
      </trkpt>
      <trkpt lat="42.196335" lon="2.490586">
        <ele>407.720</ele>
        <time>2021-05-27T15:57:30Z</time>
      </trkpt>
      <trkpt lat="42.196361" lon="2.490582">
        <ele>407.578</ele>
        <time>2021-05-27T15:57:31Z</time>
      </trkpt>
      <trkpt lat="42.196382" lon="2.490575">
        <ele>407.258</ele>
        <time>2021-05-27T15:57:32Z</time>
      </trkpt>
      <trkpt lat="42.196405" lon="2.490567">
        <ele>407.185</ele>
        <time>2021-05-27T15:57:33Z</time>
      </trkpt>
      <trkpt lat="42.196426" lon="2.490555">
        <ele>407.060</ele>
        <time>2021-05-27T15:57:34Z</time>
      </trkpt>
      <trkpt lat="42.196447" lon="2.490542">
        <ele>407.033</ele>
        <time>2021-05-27T15:57:35Z</time>
      </trkpt>
      <trkpt lat="42.196465" lon="2.490531">
        <ele>407.169</ele>
        <time>2021-05-27T15:57:36Z</time>
      </trkpt>
      <trkpt lat="42.196485" lon="2.490523">
        <ele>407.114</ele>
        <time>2021-05-27T15:57:37Z</time>
      </trkpt>
      <trkpt lat="42.196505" lon="2.490517">
        <ele>407.154</ele>
        <time>2021-05-27T15:57:38Z</time>
      </trkpt>
      <trkpt lat="42.196524" lon="2.490511">
        <ele>407.209</ele>
        <time>2021-05-27T15:57:39Z</time>
      </trkpt>
      <trkpt lat="42.196544" lon="2.490502">
        <ele>407.208</ele>
        <time>2021-05-27T15:57:40Z</time>
      </trkpt>
      <trkpt lat="42.196566" lon="2.490493">
        <ele>407.228</ele>
        <time>2021-05-27T15:57:41Z</time>
      </trkpt>
      <trkpt lat="42.196582" lon="2.490481">
        <ele>407.375</ele>
        <time>2021-05-27T15:57:42Z</time>
      </trkpt>
      <trkpt lat="42.196612" lon="2.490463">
        <ele>407.363</ele>
        <time>2021-05-27T15:57:44Z</time>
      </trkpt>
      <trkpt lat="42.196644" lon="2.490439">
        <ele>407.433</ele>
        <time>2021-05-27T15:57:46Z</time>
      </trkpt>
      <trkpt lat="42.196674" lon="2.490418">
        <ele>407.570</ele>
        <time>2021-05-27T15:57:48Z</time>
      </trkpt>
      <trkpt lat="42.196699" lon="2.490391">
        <ele>407.695</ele>
        <time>2021-05-27T15:57:50Z</time>
      </trkpt>
      <trkpt lat="42.196723" lon="2.490376">
        <ele>407.758</ele>
        <time>2021-05-27T15:57:51Z</time>
      </trkpt>
      <trkpt lat="42.196740" lon="2.490364">
        <ele>407.874</ele>
        <time>2021-05-27T15:57:52Z</time>
      </trkpt>
      <trkpt lat="42.196761" lon="2.490355">
        <ele>407.941</ele>
        <time>2021-05-27T15:57:53Z</time>
      </trkpt>
      <trkpt lat="42.196779" lon="2.490346">
        <ele>408.081</ele>
        <time>2021-05-27T15:57:54Z</time>
      </trkpt>
      <trkpt lat="42.196800" lon="2.490342">
        <ele>408.009</ele>
        <time>2021-05-27T15:57:55Z</time>
      </trkpt>
      <trkpt lat="42.196818" lon="2.490337">
        <ele>408.108</ele>
        <time>2021-05-27T15:57:56Z</time>
      </trkpt>
      <trkpt lat="42.196837" lon="2.490334">
        <ele>408.241</ele>
        <time>2021-05-27T15:57:57Z</time>
      </trkpt>
      <trkpt lat="42.196873" lon="2.490335">
        <ele>408.278</ele>
        <time>2021-05-27T15:57:59Z</time>
      </trkpt>
      <trkpt lat="42.196892" lon="2.490334">
        <ele>408.366</ele>
        <time>2021-05-27T15:58:00Z</time>
      </trkpt>
      <trkpt lat="42.196910" lon="2.490335">
        <ele>408.326</ele>
        <time>2021-05-27T15:58:01Z</time>
      </trkpt>
      <trkpt lat="42.196930" lon="2.490334">
        <ele>408.413</ele>
        <time>2021-05-27T15:58:02Z</time>
      </trkpt>
      <trkpt lat="42.196951" lon="2.490329">
        <ele>408.458</ele>
        <time>2021-05-27T15:58:03Z</time>
      </trkpt>
      <trkpt lat="42.196971" lon="2.490327">
        <ele>408.481</ele>
        <time>2021-05-27T15:58:04Z</time>
      </trkpt>
      <trkpt lat="42.196993" lon="2.490323">
        <ele>408.337</ele>
        <time>2021-05-27T15:58:05Z</time>
      </trkpt>
      <trkpt lat="42.197012" lon="2.490323">
        <ele>408.325</ele>
        <time>2021-05-27T15:58:06Z</time>
      </trkpt>
      <trkpt lat="42.197049" lon="2.490323">
        <ele>408.126</ele>
        <time>2021-05-27T15:58:08Z</time>
      </trkpt>
      <trkpt lat="42.197074" lon="2.490323">
        <ele>408.008</ele>
        <time>2021-05-27T15:58:09Z</time>
      </trkpt>
      <trkpt lat="42.197095" lon="2.490324">
        <ele>408.008</ele>
        <time>2021-05-27T15:58:10Z</time>
      </trkpt>
      <trkpt lat="42.197128" lon="2.490321">
        <ele>407.959</ele>
        <time>2021-05-27T15:58:12Z</time>
      </trkpt>
      <trkpt lat="42.197146" lon="2.490324">
        <ele>407.846</ele>
        <time>2021-05-27T15:58:13Z</time>
      </trkpt>
      <trkpt lat="42.197170" lon="2.490333">
        <ele>407.654</ele>
        <time>2021-05-27T15:58:14Z</time>
      </trkpt>
      <trkpt lat="42.197189" lon="2.490339">
        <ele>407.514</ele>
        <time>2021-05-27T15:58:15Z</time>
      </trkpt>
      <trkpt lat="42.197219" lon="2.490345">
        <ele>407.321</ele>
        <time>2021-05-27T15:58:17Z</time>
      </trkpt>
      <trkpt lat="42.197249" lon="2.490356">
        <ele>407.036</ele>
        <time>2021-05-27T15:58:19Z</time>
      </trkpt>
      <trkpt lat="42.197269" lon="2.490363">
        <ele>406.819</ele>
        <time>2021-05-27T15:58:20Z</time>
      </trkpt>
      <trkpt lat="42.197305" lon="2.490365">
        <ele>406.625</ele>
        <time>2021-05-27T15:58:22Z</time>
      </trkpt>
      <trkpt lat="42.197328" lon="2.490367">
        <ele>406.526</ele>
        <time>2021-05-27T15:58:23Z</time>
      </trkpt>
      <trkpt lat="42.197360" lon="2.490362">
        <ele>406.447</ele>
        <time>2021-05-27T15:58:25Z</time>
      </trkpt>
      <trkpt lat="42.197392" lon="2.490353">
        <ele>406.311</ele>
        <time>2021-05-27T15:58:27Z</time>
      </trkpt>
      <trkpt lat="42.197410" lon="2.490352">
        <ele>406.208</ele>
        <time>2021-05-27T15:58:28Z</time>
      </trkpt>
      <trkpt lat="42.197439" lon="2.490349">
        <ele>406.119</ele>
        <time>2021-05-27T15:58:31Z</time>
      </trkpt>
      <trkpt lat="42.197482" lon="2.490341">
        <ele>405.956</ele>
        <time>2021-05-27T15:58:32Z</time>
      </trkpt>
      <trkpt lat="42.197541" lon="2.490327">
        <ele>405.484</ele>
        <time>2021-05-27T15:58:35Z</time>
      </trkpt>
      <trkpt lat="42.197561" lon="2.490321">
        <ele>405.254</ele>
        <time>2021-05-27T15:58:36Z</time>
      </trkpt>
      <trkpt lat="42.197581" lon="2.490318">
        <ele>405.011</ele>
        <time>2021-05-27T15:58:37Z</time>
      </trkpt>
      <trkpt lat="42.197601" lon="2.490313">
        <ele>404.896</ele>
        <time>2021-05-27T15:58:38Z</time>
      </trkpt>
      <trkpt lat="42.197705" lon="2.490270">
        <ele>403.869</ele>
        <time>2021-05-27T15:58:44Z</time>
      </trkpt>
      <trkpt lat="42.197748" lon="2.490286">
        <ele>403.365</ele>
        <time>2021-05-27T15:58:46Z</time>
      </trkpt>
      <trkpt lat="42.197773" lon="2.490302">
        <ele>403.136</ele>
        <time>2021-05-27T15:58:47Z</time>
      </trkpt>
      <trkpt lat="42.197853" lon="2.490387">
        <ele>401.317</ele>
        <time>2021-05-27T15:58:52Z</time>
      </trkpt>
      <trkpt lat="42.197909" lon="2.490448">
        <ele>400.418</ele>
        <time>2021-05-27T15:58:55Z</time>
      </trkpt>
      <trkpt lat="42.197930" lon="2.490472">
        <ele>400.108</ele>
        <time>2021-05-27T15:58:56Z</time>
      </trkpt>
      <trkpt lat="42.197952" lon="2.490501">
        <ele>400.090</ele>
        <time>2021-05-27T15:58:57Z</time>
      </trkpt>
      <trkpt lat="42.197968" lon="2.490527">
        <ele>400.047</ele>
        <time>2021-05-27T15:58:58Z</time>
      </trkpt>
      <trkpt lat="42.197985" lon="2.490557">
        <ele>400.085</ele>
        <time>2021-05-27T15:58:59Z</time>
      </trkpt>
      <trkpt lat="42.198003" lon="2.490581">
        <ele>400.015</ele>
        <time>2021-05-27T15:59:00Z</time>
      </trkpt>
      <trkpt lat="42.198020" lon="2.490597">
        <ele>399.912</ele>
        <time>2021-05-27T15:59:01Z</time>
      </trkpt>
      <trkpt lat="42.198039" lon="2.490608">
        <ele>399.867</ele>
        <time>2021-05-27T15:59:02Z</time>
      </trkpt>
      <trkpt lat="42.198056" lon="2.490621">
        <ele>399.780</ele>
        <time>2021-05-27T15:59:03Z</time>
      </trkpt>
      <trkpt lat="42.198083" lon="2.490631">
        <ele>399.656</ele>
        <time>2021-05-27T15:59:05Z</time>
      </trkpt>
      <trkpt lat="42.198114" lon="2.490631">
        <ele>399.464</ele>
        <time>2021-05-27T15:59:07Z</time>
      </trkpt>
      <trkpt lat="42.198140" lon="2.490631">
        <ele>399.106</ele>
        <time>2021-05-27T15:59:09Z</time>
      </trkpt>
      <trkpt lat="42.198169" lon="2.490632">
        <ele>398.916</ele>
        <time>2021-05-27T15:59:11Z</time>
      </trkpt>
      <trkpt lat="42.198201" lon="2.490638">
        <ele>398.808</ele>
        <time>2021-05-27T15:59:13Z</time>
      </trkpt>
      <trkpt lat="42.198220" lon="2.490641">
        <ele>398.783</ele>
        <time>2021-05-27T15:59:14Z</time>
      </trkpt>
      <trkpt lat="42.198241" lon="2.490647">
        <ele>398.620</ele>
        <time>2021-05-27T15:59:15Z</time>
      </trkpt>
      <trkpt lat="42.198263" lon="2.490654">
        <ele>398.648</ele>
        <time>2021-05-27T15:59:16Z</time>
      </trkpt>
      <trkpt lat="42.198286" lon="2.490658">
        <ele>398.538</ele>
        <time>2021-05-27T15:59:17Z</time>
      </trkpt>
      <trkpt lat="42.198307" lon="2.490664">
        <ele>398.525</ele>
        <time>2021-05-27T15:59:18Z</time>
      </trkpt>
      <trkpt lat="42.198329" lon="2.490669">
        <ele>398.590</ele>
        <time>2021-05-27T15:59:19Z</time>
      </trkpt>
      <trkpt lat="42.198361" lon="2.490671">
        <ele>398.413</ele>
        <time>2021-05-27T15:59:20Z</time>
      </trkpt>
      <trkpt lat="42.198386" lon="2.490675">
        <ele>398.439</ele>
        <time>2021-05-27T15:59:21Z</time>
      </trkpt>
      <trkpt lat="42.198409" lon="2.490675">
        <ele>398.347</ele>
        <time>2021-05-27T15:59:22Z</time>
      </trkpt>
      <trkpt lat="42.198430" lon="2.490678">
        <ele>398.329</ele>
        <time>2021-05-27T15:59:23Z</time>
      </trkpt>
      <trkpt lat="42.198452" lon="2.490678">
        <ele>398.221</ele>
        <time>2021-05-27T15:59:24Z</time>
      </trkpt>
      <trkpt lat="42.198493" lon="2.490681">
        <ele>398.108</ele>
        <time>2021-05-27T15:59:26Z</time>
      </trkpt>
      <trkpt lat="42.198521" lon="2.490692">
        <ele>398.351</ele>
        <time>2021-05-27T15:59:27Z</time>
      </trkpt>
      <trkpt lat="42.198546" lon="2.490700">
        <ele>398.428</ele>
        <time>2021-05-27T15:59:28Z</time>
      </trkpt>
      <trkpt lat="42.198584" lon="2.490709">
        <ele>398.496</ele>
        <time>2021-05-27T15:59:30Z</time>
      </trkpt>
      <trkpt lat="42.198619" lon="2.490719">
        <ele>398.566</ele>
        <time>2021-05-27T15:59:32Z</time>
      </trkpt>
      <trkpt lat="42.198652" lon="2.490721">
        <ele>398.273</ele>
        <time>2021-05-27T15:59:34Z</time>
      </trkpt>
      <trkpt lat="42.198674" lon="2.490724">
        <ele>398.178</ele>
        <time>2021-05-27T15:59:35Z</time>
      </trkpt>
      <trkpt lat="42.198694" lon="2.490730">
        <ele>398.131</ele>
        <time>2021-05-27T15:59:36Z</time>
      </trkpt>
      <trkpt lat="42.198713" lon="2.490738">
        <ele>398.157</ele>
        <time>2021-05-27T15:59:37Z</time>
      </trkpt>
      <trkpt lat="42.198747" lon="2.490747">
        <ele>398.045</ele>
        <time>2021-05-27T15:59:39Z</time>
      </trkpt>
      <trkpt lat="42.198769" lon="2.490750">
        <ele>397.947</ele>
        <time>2021-05-27T15:59:40Z</time>
      </trkpt>
      <trkpt lat="42.198790" lon="2.490749">
        <ele>397.711</ele>
        <time>2021-05-27T15:59:41Z</time>
      </trkpt>
      <trkpt lat="42.198821" lon="2.490745">
        <ele>397.308</ele>
        <time>2021-05-27T15:59:43Z</time>
      </trkpt>
      <trkpt lat="42.198859" lon="2.490745">
        <ele>397.061</ele>
        <time>2021-05-27T15:59:45Z</time>
      </trkpt>
      <trkpt lat="42.198880" lon="2.490746">
        <ele>396.928</ele>
        <time>2021-05-27T15:59:46Z</time>
      </trkpt>
      <trkpt lat="42.198900" lon="2.490744">
        <ele>396.726</ele>
        <time>2021-05-27T15:59:47Z</time>
      </trkpt>
      <trkpt lat="42.198921" lon="2.490751">
        <ele>396.976</ele>
        <time>2021-05-27T15:59:48Z</time>
      </trkpt>
      <trkpt lat="42.198944" lon="2.490753">
        <ele>396.973</ele>
        <time>2021-05-27T15:59:49Z</time>
      </trkpt>
      <trkpt lat="42.198966" lon="2.490762">
        <ele>397.178</ele>
        <time>2021-05-27T15:59:50Z</time>
      </trkpt>
      <trkpt lat="42.198986" lon="2.490771">
        <ele>397.441</ele>
        <time>2021-05-27T15:59:51Z</time>
      </trkpt>
      <trkpt lat="42.199006" lon="2.490775">
        <ele>397.427</ele>
        <time>2021-05-27T15:59:52Z</time>
      </trkpt>
      <trkpt lat="42.199024" lon="2.490779">
        <ele>397.519</ele>
        <time>2021-05-27T15:59:53Z</time>
      </trkpt>
      <trkpt lat="42.199050" lon="2.490789">
        <ele>397.809</ele>
        <time>2021-05-27T15:59:54Z</time>
      </trkpt>
      <trkpt lat="42.199071" lon="2.490791">
        <ele>397.819</ele>
        <time>2021-05-27T15:59:55Z</time>
      </trkpt>
      <trkpt lat="42.199091" lon="2.490792">
        <ele>397.908</ele>
        <time>2021-05-27T15:59:56Z</time>
      </trkpt>
      <trkpt lat="42.199116" lon="2.490794">
        <ele>397.988</ele>
        <time>2021-05-27T15:59:57Z</time>
      </trkpt>
      <trkpt lat="42.199136" lon="2.490795">
        <ele>397.965</ele>
        <time>2021-05-27T15:59:58Z</time>
      </trkpt>
      <trkpt lat="42.199161" lon="2.490794">
        <ele>397.983</ele>
        <time>2021-05-27T15:59:59Z</time>
      </trkpt>
      <trkpt lat="42.199209" lon="2.490795">
        <ele>397.753</ele>
        <time>2021-05-27T16:00:01Z</time>
      </trkpt>
      <trkpt lat="42.199233" lon="2.490793">
        <ele>397.620</ele>
        <time>2021-05-27T16:00:02Z</time>
      </trkpt>
      <trkpt lat="42.199257" lon="2.490794">
        <ele>397.555</ele>
        <time>2021-05-27T16:00:03Z</time>
      </trkpt>
      <trkpt lat="42.199280" lon="2.490792">
        <ele>397.428</ele>
        <time>2021-05-27T16:00:04Z</time>
      </trkpt>
      <trkpt lat="42.199301" lon="2.490788">
        <ele>397.264</ele>
        <time>2021-05-27T16:00:05Z</time>
      </trkpt>
      <trkpt lat="42.199323" lon="2.490783">
        <ele>397.077</ele>
        <time>2021-05-27T16:00:06Z</time>
      </trkpt>
      <trkpt lat="42.199342" lon="2.490780">
        <ele>396.861</ele>
        <time>2021-05-27T16:00:07Z</time>
      </trkpt>
      <trkpt lat="42.199362" lon="2.490775">
        <ele>396.627</ele>
        <time>2021-05-27T16:00:08Z</time>
      </trkpt>
      <trkpt lat="42.199381" lon="2.490772">
        <ele>396.508</ele>
        <time>2021-05-27T16:00:09Z</time>
      </trkpt>
      <trkpt lat="42.199400" lon="2.490769">
        <ele>396.344</ele>
        <time>2021-05-27T16:00:10Z</time>
      </trkpt>
      <trkpt lat="42.199421" lon="2.490770">
        <ele>396.341</ele>
        <time>2021-05-27T16:00:11Z</time>
      </trkpt>
      <trkpt lat="42.199440" lon="2.490770">
        <ele>396.229</ele>
        <time>2021-05-27T16:00:12Z</time>
      </trkpt>
      <trkpt lat="42.199479" lon="2.490779">
        <ele>396.369</ele>
        <time>2021-05-27T16:00:14Z</time>
      </trkpt>
      <trkpt lat="42.199501" lon="2.490779">
        <ele>396.356</ele>
        <time>2021-05-27T16:00:15Z</time>
      </trkpt>
      <trkpt lat="42.199523" lon="2.490773">
        <ele>396.011</ele>
        <time>2021-05-27T16:00:16Z</time>
      </trkpt>
      <trkpt lat="42.199544" lon="2.490773">
        <ele>396.064</ele>
        <time>2021-05-27T16:00:17Z</time>
      </trkpt>
      <trkpt lat="42.199563" lon="2.490772">
        <ele>395.920</ele>
        <time>2021-05-27T16:00:18Z</time>
      </trkpt>
      <trkpt lat="42.199584" lon="2.490774">
        <ele>395.944</ele>
        <time>2021-05-27T16:00:19Z</time>
      </trkpt>
      <trkpt lat="42.199605" lon="2.490774">
        <ele>395.805</ele>
        <time>2021-05-27T16:00:20Z</time>
      </trkpt>
      <trkpt lat="42.199623" lon="2.490776">
        <ele>395.815</ele>
        <time>2021-05-27T16:00:21Z</time>
      </trkpt>
      <trkpt lat="42.199645" lon="2.490778">
        <ele>395.808</ele>
        <time>2021-05-27T16:00:22Z</time>
      </trkpt>
      <trkpt lat="42.199663" lon="2.490783">
        <ele>395.981</ele>
        <time>2021-05-27T16:00:23Z</time>
      </trkpt>
      <trkpt lat="42.199685" lon="2.490790">
        <ele>396.068</ele>
        <time>2021-05-27T16:00:24Z</time>
      </trkpt>
      <trkpt lat="42.199704" lon="2.490796">
        <ele>396.166</ele>
        <time>2021-05-27T16:00:25Z</time>
      </trkpt>
      <trkpt lat="42.199722" lon="2.490805">
        <ele>396.366</ele>
        <time>2021-05-27T16:00:26Z</time>
      </trkpt>
      <trkpt lat="42.199746" lon="2.490806">
        <ele>396.333</ele>
        <time>2021-05-27T16:00:27Z</time>
      </trkpt>
      <trkpt lat="42.199767" lon="2.490814">
        <ele>396.418</ele>
        <time>2021-05-27T16:00:28Z</time>
      </trkpt>
      <trkpt lat="42.199788" lon="2.490820">
        <ele>396.561</ele>
        <time>2021-05-27T16:00:29Z</time>
      </trkpt>
      <trkpt lat="42.199808" lon="2.490826">
        <ele>396.557</ele>
        <time>2021-05-27T16:00:30Z</time>
      </trkpt>
      <trkpt lat="42.199828" lon="2.490832">
        <ele>396.628</ele>
        <time>2021-05-27T16:00:31Z</time>
      </trkpt>
      <trkpt lat="42.199847" lon="2.490838">
        <ele>396.689</ele>
        <time>2021-05-27T16:00:32Z</time>
      </trkpt>
      <trkpt lat="42.199885" lon="2.490854">
        <ele>396.517</ele>
        <time>2021-05-27T16:00:34Z</time>
      </trkpt>
      <trkpt lat="42.199905" lon="2.490861">
        <ele>396.408</ele>
        <time>2021-05-27T16:00:35Z</time>
      </trkpt>
      <trkpt lat="42.199928" lon="2.490862">
        <ele>396.469</ele>
        <time>2021-05-27T16:00:36Z</time>
      </trkpt>
      <trkpt lat="42.199949" lon="2.490863">
        <ele>396.396</ele>
        <time>2021-05-27T16:00:37Z</time>
      </trkpt>
      <trkpt lat="42.199968" lon="2.490864">
        <ele>396.294</ele>
        <time>2021-05-27T16:00:38Z</time>
      </trkpt>
      <trkpt lat="42.199992" lon="2.490867">
        <ele>396.164</ele>
        <time>2021-05-27T16:00:39Z</time>
      </trkpt>
      <trkpt lat="42.200012" lon="2.490871">
        <ele>396.141</ele>
        <time>2021-05-27T16:00:40Z</time>
      </trkpt>
      <trkpt lat="42.200032" lon="2.490871">
        <ele>396.076</ele>
        <time>2021-05-27T16:00:41Z</time>
      </trkpt>
      <trkpt lat="42.200054" lon="2.490874">
        <ele>396.079</ele>
        <time>2021-05-27T16:00:42Z</time>
      </trkpt>
      <trkpt lat="42.200096" lon="2.490883">
        <ele>395.855</ele>
        <time>2021-05-27T16:00:44Z</time>
      </trkpt>
      <trkpt lat="42.200117" lon="2.490884">
        <ele>395.895</ele>
        <time>2021-05-27T16:00:45Z</time>
      </trkpt>
      <trkpt lat="42.200153" lon="2.490884">
        <ele>395.649</ele>
        <time>2021-05-27T16:00:47Z</time>
      </trkpt>
      <trkpt lat="42.200190" lon="2.490891">
        <ele>395.523</ele>
        <time>2021-05-27T16:00:49Z</time>
      </trkpt>
      <trkpt lat="42.200210" lon="2.490892">
        <ele>395.508</ele>
        <time>2021-05-27T16:00:50Z</time>
      </trkpt>
      <trkpt lat="42.200228" lon="2.490893">
        <ele>395.426</ele>
        <time>2021-05-27T16:00:51Z</time>
      </trkpt>
      <trkpt lat="42.200250" lon="2.490894">
        <ele>395.323</ele>
        <time>2021-05-27T16:00:52Z</time>
      </trkpt>
      <trkpt lat="42.200267" lon="2.490898">
        <ele>395.351</ele>
        <time>2021-05-27T16:00:53Z</time>
      </trkpt>
      <trkpt lat="42.200290" lon="2.490900">
        <ele>395.381</ele>
        <time>2021-05-27T16:00:54Z</time>
      </trkpt>
      <trkpt lat="42.200310" lon="2.490900">
        <ele>395.358</ele>
        <time>2021-05-27T16:00:55Z</time>
      </trkpt>
      <trkpt lat="42.200328" lon="2.490900">
        <ele>395.463</ele>
        <time>2021-05-27T16:00:56Z</time>
      </trkpt>
      <trkpt lat="42.200348" lon="2.490898">
        <ele>395.486</ele>
        <time>2021-05-27T16:00:57Z</time>
      </trkpt>
      <trkpt lat="42.200379" lon="2.490896">
        <ele>395.582</ele>
        <time>2021-05-27T16:00:59Z</time>
      </trkpt>
      <trkpt lat="42.200399" lon="2.490898">
        <ele>395.612</ele>
        <time>2021-05-27T16:01:00Z</time>
      </trkpt>
      <trkpt lat="42.200420" lon="2.490898">
        <ele>395.632</ele>
        <time>2021-05-27T16:01:01Z</time>
      </trkpt>
      <trkpt lat="42.200444" lon="2.490900">
        <ele>395.705</ele>
        <time>2021-05-27T16:01:02Z</time>
      </trkpt>
      <trkpt lat="42.200469" lon="2.490901">
        <ele>395.808</ele>
        <time>2021-05-27T16:01:03Z</time>
      </trkpt>
      <trkpt lat="42.200490" lon="2.490900">
        <ele>395.858</ele>
        <time>2021-05-27T16:01:04Z</time>
      </trkpt>
      <trkpt lat="42.200513" lon="2.490899">
        <ele>395.925</ele>
        <time>2021-05-27T16:01:05Z</time>
      </trkpt>
      <trkpt lat="42.200552" lon="2.490899">
        <ele>396.053</ele>
        <time>2021-05-27T16:01:07Z</time>
      </trkpt>
      <trkpt lat="42.200585" lon="2.490899">
        <ele>396.033</ele>
        <time>2021-05-27T16:01:09Z</time>
      </trkpt>
      <trkpt lat="42.200606" lon="2.490901">
        <ele>396.080</ele>
        <time>2021-05-27T16:01:10Z</time>
      </trkpt>
      <trkpt lat="42.200625" lon="2.490901">
        <ele>396.025</ele>
        <time>2021-05-27T16:01:11Z</time>
      </trkpt>
      <trkpt lat="42.200647" lon="2.490900">
        <ele>396.038</ele>
        <time>2021-05-27T16:01:12Z</time>
      </trkpt>
      <trkpt lat="42.200667" lon="2.490900">
        <ele>396.014</ele>
        <time>2021-05-27T16:01:13Z</time>
      </trkpt>
      <trkpt lat="42.200687" lon="2.490900">
        <ele>396.052</ele>
        <time>2021-05-27T16:01:14Z</time>
      </trkpt>
      <trkpt lat="42.200709" lon="2.490898">
        <ele>396.053</ele>
        <time>2021-05-27T16:01:15Z</time>
      </trkpt>
      <trkpt lat="42.200742" lon="2.490896">
        <ele>396.008</ele>
        <time>2021-05-27T16:01:17Z</time>
      </trkpt>
      <trkpt lat="42.200760" lon="2.490897">
        <ele>396.008</ele>
        <time>2021-05-27T16:01:18Z</time>
      </trkpt>
      <trkpt lat="42.200781" lon="2.490901">
        <ele>396.072</ele>
        <time>2021-05-27T16:01:19Z</time>
      </trkpt>
      <trkpt lat="42.200799" lon="2.490901">
        <ele>396.099</ele>
        <time>2021-05-27T16:01:20Z</time>
      </trkpt>
      <trkpt lat="42.200830" lon="2.490900">
        <ele>396.087</ele>
        <time>2021-05-27T16:01:22Z</time>
      </trkpt>
      <trkpt lat="42.200864" lon="2.490898">
        <ele>395.797</ele>
        <time>2021-05-27T16:01:24Z</time>
      </trkpt>
      <trkpt lat="42.200885" lon="2.490897">
        <ele>395.514</ele>
        <time>2021-05-27T16:01:25Z</time>
      </trkpt>
      <trkpt lat="42.200903" lon="2.490896">
        <ele>395.339</ele>
        <time>2021-05-27T16:01:26Z</time>
      </trkpt>
      <trkpt lat="42.200924" lon="2.490891">
        <ele>395.122</ele>
        <time>2021-05-27T16:01:27Z</time>
      </trkpt>
      <trkpt lat="42.200945" lon="2.490893">
        <ele>394.928</ele>
        <time>2021-05-27T16:01:28Z</time>
      </trkpt>
      <trkpt lat="42.200965" lon="2.490901">
        <ele>394.754</ele>
        <time>2021-05-27T16:01:29Z</time>
      </trkpt>
      <trkpt lat="42.200987" lon="2.490905">
        <ele>394.556</ele>
        <time>2021-05-27T16:01:30Z</time>
      </trkpt>
      <trkpt lat="42.201008" lon="2.490911">
        <ele>394.311</ele>
        <time>2021-05-27T16:01:31Z</time>
      </trkpt>
      <trkpt lat="42.201027" lon="2.490915">
        <ele>394.108</ele>
        <time>2021-05-27T16:01:32Z</time>
      </trkpt>
      <trkpt lat="42.201051" lon="2.490925">
        <ele>393.952</ele>
        <time>2021-05-27T16:01:33Z</time>
      </trkpt>
      <trkpt lat="42.201072" lon="2.490936">
        <ele>393.729</ele>
        <time>2021-05-27T16:01:34Z</time>
      </trkpt>
      <trkpt lat="42.201090" lon="2.490944">
        <ele>393.657</ele>
        <time>2021-05-27T16:01:35Z</time>
      </trkpt>
      <trkpt lat="42.201112" lon="2.490946">
        <ele>393.447</ele>
        <time>2021-05-27T16:01:36Z</time>
      </trkpt>
      <trkpt lat="42.201146" lon="2.490962">
        <ele>393.164</ele>
        <time>2021-05-27T16:01:38Z</time>
      </trkpt>
      <trkpt lat="42.201165" lon="2.490963">
        <ele>392.989</ele>
        <time>2021-05-27T16:01:39Z</time>
      </trkpt>
      <trkpt lat="42.201185" lon="2.490969">
        <ele>392.782</ele>
        <time>2021-05-27T16:01:40Z</time>
      </trkpt>
      <trkpt lat="42.201210" lon="2.490969">
        <ele>392.498</ele>
        <time>2021-05-27T16:01:41Z</time>
      </trkpt>
      <trkpt lat="42.201232" lon="2.490972">
        <ele>392.245</ele>
        <time>2021-05-27T16:01:42Z</time>
      </trkpt>
      <trkpt lat="42.201253" lon="2.490981">
        <ele>392.047</ele>
        <time>2021-05-27T16:01:43Z</time>
      </trkpt>
      <trkpt lat="42.201275" lon="2.490990">
        <ele>391.911</ele>
        <time>2021-05-27T16:01:44Z</time>
      </trkpt>
      <trkpt lat="42.201293" lon="2.491001">
        <ele>391.808</ele>
        <time>2021-05-27T16:01:45Z</time>
      </trkpt>
      <trkpt lat="42.201319" lon="2.491006">
        <ele>391.691</ele>
        <time>2021-05-27T16:01:46Z</time>
      </trkpt>
      <trkpt lat="42.201342" lon="2.491013">
        <ele>391.488</ele>
        <time>2021-05-27T16:01:47Z</time>
      </trkpt>
      <trkpt lat="42.201362" lon="2.491016">
        <ele>391.216</ele>
        <time>2021-05-27T16:01:48Z</time>
      </trkpt>
      <trkpt lat="42.201382" lon="2.491021">
        <ele>391.136</ele>
        <time>2021-05-27T16:01:49Z</time>
      </trkpt>
      <trkpt lat="42.201404" lon="2.491032">
        <ele>391.053</ele>
        <time>2021-05-27T16:01:50Z</time>
      </trkpt>
      <trkpt lat="42.201424" lon="2.491043">
        <ele>391.018</ele>
        <time>2021-05-27T16:01:51Z</time>
      </trkpt>
      <trkpt lat="42.201445" lon="2.491050">
        <ele>390.941</ele>
        <time>2021-05-27T16:01:52Z</time>
      </trkpt>
      <trkpt lat="42.201467" lon="2.491057">
        <ele>390.937</ele>
        <time>2021-05-27T16:01:53Z</time>
      </trkpt>
      <trkpt lat="42.201487" lon="2.491064">
        <ele>390.831</ele>
        <time>2021-05-27T16:01:54Z</time>
      </trkpt>
      <trkpt lat="42.201508" lon="2.491071">
        <ele>390.761</ele>
        <time>2021-05-27T16:01:55Z</time>
      </trkpt>
      <trkpt lat="42.201528" lon="2.491073">
        <ele>390.607</ele>
        <time>2021-05-27T16:01:56Z</time>
      </trkpt>
      <trkpt lat="42.201546" lon="2.491077">
        <ele>390.508</ele>
        <time>2021-05-27T16:01:57Z</time>
      </trkpt>
      <trkpt lat="42.201583" lon="2.491083">
        <ele>390.330</ele>
        <time>2021-05-27T16:01:59Z</time>
      </trkpt>
      <trkpt lat="42.201615" lon="2.491090">
        <ele>390.177</ele>
        <time>2021-05-27T16:02:01Z</time>
      </trkpt>
      <trkpt lat="42.201644" lon="2.491097">
        <ele>390.075</ele>
        <time>2021-05-27T16:02:03Z</time>
      </trkpt>
      <trkpt lat="42.201680" lon="2.491098">
        <ele>389.875</ele>
        <time>2021-05-27T16:02:05Z</time>
      </trkpt>
      <trkpt lat="42.201701" lon="2.491102">
        <ele>389.782</ele>
        <time>2021-05-27T16:02:06Z</time>
      </trkpt>
      <trkpt lat="42.201724" lon="2.491111">
        <ele>389.667</ele>
        <time>2021-05-27T16:02:07Z</time>
      </trkpt>
      <trkpt lat="42.201745" lon="2.491117">
        <ele>389.550</ele>
        <time>2021-05-27T16:02:08Z</time>
      </trkpt>
      <trkpt lat="42.201768" lon="2.491116">
        <ele>389.336</ele>
        <time>2021-05-27T16:02:09Z</time>
      </trkpt>
      <trkpt lat="42.201788" lon="2.491113">
        <ele>389.186</ele>
        <time>2021-05-27T16:02:10Z</time>
      </trkpt>
      <trkpt lat="42.201822" lon="2.491102">
        <ele>388.860</ele>
        <time>2021-05-27T16:02:12Z</time>
      </trkpt>
      <trkpt lat="42.201854" lon="2.491097">
        <ele>388.526</ele>
        <time>2021-05-27T16:02:14Z</time>
      </trkpt>
      <trkpt lat="42.201894" lon="2.491106">
        <ele>388.308</ele>
        <time>2021-05-27T16:02:16Z</time>
      </trkpt>
      <trkpt lat="42.201914" lon="2.491109">
        <ele>388.215</ele>
        <time>2021-05-27T16:02:17Z</time>
      </trkpt>
      <trkpt lat="42.201932" lon="2.491114">
        <ele>388.112</ele>
        <time>2021-05-27T16:02:18Z</time>
      </trkpt>
      <trkpt lat="42.201956" lon="2.491120">
        <ele>388.050</ele>
        <time>2021-05-27T16:02:19Z</time>
      </trkpt>
      <trkpt lat="42.201978" lon="2.491127">
        <ele>388.030</ele>
        <time>2021-05-27T16:02:20Z</time>
      </trkpt>
      <trkpt lat="42.202001" lon="2.491129">
        <ele>387.927</ele>
        <time>2021-05-27T16:02:21Z</time>
      </trkpt>
      <trkpt lat="42.202021" lon="2.491129">
        <ele>387.992</ele>
        <time>2021-05-27T16:02:22Z</time>
      </trkpt>
      <trkpt lat="42.202043" lon="2.491132">
        <ele>387.845</ele>
        <time>2021-05-27T16:02:23Z</time>
      </trkpt>
      <trkpt lat="42.202064" lon="2.491135">
        <ele>387.831</ele>
        <time>2021-05-27T16:02:24Z</time>
      </trkpt>
      <trkpt lat="42.202083" lon="2.491137">
        <ele>387.795</ele>
        <time>2021-05-27T16:02:25Z</time>
      </trkpt>
      <trkpt lat="42.202107" lon="2.491138">
        <ele>387.749</ele>
        <time>2021-05-27T16:02:26Z</time>
      </trkpt>
      <trkpt lat="42.202158" lon="2.491128">
        <ele>387.423</ele>
        <time>2021-05-27T16:02:28Z</time>
      </trkpt>
      <trkpt lat="42.202178" lon="2.491117">
        <ele>387.208</ele>
        <time>2021-05-27T16:02:29Z</time>
      </trkpt>
      <trkpt lat="42.202200" lon="2.491112">
        <ele>387.136</ele>
        <time>2021-05-27T16:02:30Z</time>
      </trkpt>
      <trkpt lat="42.202219" lon="2.491107">
        <ele>387.073</ele>
        <time>2021-05-27T16:02:31Z</time>
      </trkpt>
      <trkpt lat="42.202236" lon="2.491100">
        <ele>386.971</ele>
        <time>2021-05-27T16:02:32Z</time>
      </trkpt>
      <trkpt lat="42.202269" lon="2.491095">
        <ele>386.931</ele>
        <time>2021-05-27T16:02:34Z</time>
      </trkpt>
      <trkpt lat="42.202288" lon="2.491091">
        <ele>386.918</ele>
        <time>2021-05-27T16:02:35Z</time>
      </trkpt>
      <trkpt lat="42.202306" lon="2.491086">
        <ele>386.843</ele>
        <time>2021-05-27T16:02:36Z</time>
      </trkpt>
      <trkpt lat="42.202327" lon="2.491081">
        <ele>386.866</ele>
        <time>2021-05-27T16:02:37Z</time>
      </trkpt>
      <trkpt lat="42.202346" lon="2.491071">
        <ele>386.752</ele>
        <time>2021-05-27T16:02:38Z</time>
      </trkpt>
      <trkpt lat="42.202365" lon="2.491067">
        <ele>386.748</ele>
        <time>2021-05-27T16:02:39Z</time>
      </trkpt>
      <trkpt lat="42.202383" lon="2.491064">
        <ele>386.761</ele>
        <time>2021-05-27T16:02:40Z</time>
      </trkpt>
      <trkpt lat="42.202402" lon="2.491063">
        <ele>386.717</ele>
        <time>2021-05-27T16:02:41Z</time>
      </trkpt>
      <trkpt lat="42.202440" lon="2.491057">
        <ele>386.608</ele>
        <time>2021-05-27T16:02:43Z</time>
      </trkpt>
      <trkpt lat="42.202462" lon="2.491055">
        <ele>386.611</ele>
        <time>2021-05-27T16:02:44Z</time>
      </trkpt>
      <trkpt lat="42.202484" lon="2.491051">
        <ele>386.658</ele>
        <time>2021-05-27T16:02:45Z</time>
      </trkpt>
      <trkpt lat="42.202508" lon="2.491049">
        <ele>386.566</ele>
        <time>2021-05-27T16:02:46Z</time>
      </trkpt>
      <trkpt lat="42.202531" lon="2.491046">
        <ele>386.316</ele>
        <time>2021-05-27T16:02:47Z</time>
      </trkpt>
      <trkpt lat="42.202553" lon="2.491039">
        <ele>386.113</ele>
        <time>2021-05-27T16:02:48Z</time>
      </trkpt>
      <trkpt lat="42.202573" lon="2.491032">
        <ele>385.938</ele>
        <time>2021-05-27T16:02:49Z</time>
      </trkpt>
      <trkpt lat="42.202594" lon="2.491025">
        <ele>385.781</ele>
        <time>2021-05-27T16:02:50Z</time>
      </trkpt>
      <trkpt lat="42.202614" lon="2.491016">
        <ele>385.537</ele>
        <time>2021-05-27T16:02:51Z</time>
      </trkpt>
      <trkpt lat="42.202633" lon="2.491007">
        <ele>385.316</ele>
        <time>2021-05-27T16:02:52Z</time>
      </trkpt>
      <trkpt lat="42.202653" lon="2.491002">
        <ele>385.176</ele>
        <time>2021-05-27T16:02:53Z</time>
      </trkpt>
      <trkpt lat="42.202677" lon="2.490994">
        <ele>384.913</ele>
        <time>2021-05-27T16:02:54Z</time>
      </trkpt>
      <trkpt lat="42.202699" lon="2.490990">
        <ele>384.708</ele>
        <time>2021-05-27T16:02:55Z</time>
      </trkpt>
      <trkpt lat="42.202719" lon="2.490984">
        <ele>384.588</ele>
        <time>2021-05-27T16:02:56Z</time>
      </trkpt>
      <trkpt lat="42.202740" lon="2.490979">
        <ele>384.345</ele>
        <time>2021-05-27T16:02:57Z</time>
      </trkpt>
      <trkpt lat="42.202759" lon="2.490976">
        <ele>384.283</ele>
        <time>2021-05-27T16:02:58Z</time>
      </trkpt>
      <trkpt lat="42.202780" lon="2.490974">
        <ele>384.013</ele>
        <time>2021-05-27T16:02:59Z</time>
      </trkpt>
      <trkpt lat="42.202801" lon="2.490976">
        <ele>383.970</ele>
        <time>2021-05-27T16:03:00Z</time>
      </trkpt>
      <trkpt lat="42.202824" lon="2.490983">
        <ele>383.925</ele>
        <time>2021-05-27T16:03:01Z</time>
      </trkpt>
      <trkpt lat="42.202842" lon="2.490988">
        <ele>383.928</ele>
        <time>2021-05-27T16:03:02Z</time>
      </trkpt>
      <trkpt lat="42.202861" lon="2.490994">
        <ele>383.924</ele>
        <time>2021-05-27T16:03:03Z</time>
      </trkpt>
      <trkpt lat="42.202883" lon="2.491000">
        <ele>383.844</ele>
        <time>2021-05-27T16:03:04Z</time>
      </trkpt>
      <trkpt lat="42.202902" lon="2.491009">
        <ele>383.805</ele>
        <time>2021-05-27T16:03:05Z</time>
      </trkpt>
      <trkpt lat="42.202924" lon="2.491019">
        <ele>383.815</ele>
        <time>2021-05-27T16:03:06Z</time>
      </trkpt>
      <trkpt lat="42.202946" lon="2.491026">
        <ele>383.808</ele>
        <time>2021-05-27T16:03:07Z</time>
      </trkpt>
      <trkpt lat="42.202970" lon="2.491033">
        <ele>383.731</ele>
        <time>2021-05-27T16:03:08Z</time>
      </trkpt>
      <trkpt lat="42.202994" lon="2.491042">
        <ele>383.758</ele>
        <time>2021-05-27T16:03:09Z</time>
      </trkpt>
      <trkpt lat="42.203017" lon="2.491050">
        <ele>383.736</ele>
        <time>2021-05-27T16:03:10Z</time>
      </trkpt>
      <trkpt lat="42.203039" lon="2.491059">
        <ele>383.726</ele>
        <time>2021-05-27T16:03:11Z</time>
      </trkpt>
      <trkpt lat="42.203058" lon="2.491070">
        <ele>383.753</ele>
        <time>2021-05-27T16:03:12Z</time>
      </trkpt>
      <trkpt lat="42.203076" lon="2.491080">
        <ele>383.738</ele>
        <time>2021-05-27T16:03:13Z</time>
      </trkpt>
      <trkpt lat="42.203096" lon="2.491090">
        <ele>383.761</ele>
        <time>2021-05-27T16:03:14Z</time>
      </trkpt>
      <trkpt lat="42.203119" lon="2.491102">
        <ele>383.757</ele>
        <time>2021-05-27T16:03:15Z</time>
      </trkpt>
      <trkpt lat="42.203138" lon="2.491113">
        <ele>383.796</ele>
        <time>2021-05-27T16:03:16Z</time>
      </trkpt>
      <trkpt lat="42.203155" lon="2.491124">
        <ele>383.631</ele>
        <time>2021-05-27T16:03:17Z</time>
      </trkpt>
      <trkpt lat="42.203175" lon="2.491131">
        <ele>383.624</ele>
        <time>2021-05-27T16:03:18Z</time>
      </trkpt>
      <trkpt lat="42.203193" lon="2.491138">
        <ele>383.508</ele>
        <time>2021-05-27T16:03:19Z</time>
      </trkpt>
      <trkpt lat="42.203211" lon="2.491147">
        <ele>383.476</ele>
        <time>2021-05-27T16:03:20Z</time>
      </trkpt>
      <trkpt lat="42.203229" lon="2.491157">
        <ele>383.473</ele>
        <time>2021-05-27T16:03:21Z</time>
      </trkpt>
      <trkpt lat="42.203245" lon="2.491171">
        <ele>383.361</ele>
        <time>2021-05-27T16:03:22Z</time>
      </trkpt>
      <trkpt lat="42.203261" lon="2.491187">
        <ele>383.391</ele>
        <time>2021-05-27T16:03:23Z</time>
      </trkpt>
      <trkpt lat="42.203279" lon="2.491201">
        <ele>383.288</ele>
        <time>2021-05-27T16:03:24Z</time>
      </trkpt>
      <trkpt lat="42.203308" lon="2.491229">
        <ele>383.173</ele>
        <time>2021-05-27T16:03:26Z</time>
      </trkpt>
      <trkpt lat="42.203323" lon="2.491244">
        <ele>383.016</ele>
        <time>2021-05-27T16:03:27Z</time>
      </trkpt>
      <trkpt lat="42.203337" lon="2.491260">
        <ele>383.092</ele>
        <time>2021-05-27T16:03:28Z</time>
      </trkpt>
      <trkpt lat="42.203352" lon="2.491279">
        <ele>382.947</ele>
        <time>2021-05-27T16:03:29Z</time>
      </trkpt>
      <trkpt lat="42.203368" lon="2.491298">
        <ele>382.829</ele>
        <time>2021-05-27T16:03:30Z</time>
      </trkpt>
      <trkpt lat="42.203381" lon="2.491316">
        <ele>382.821</ele>
        <time>2021-05-27T16:03:31Z</time>
      </trkpt>
      <trkpt lat="42.203395" lon="2.491336">
        <ele>382.708</ele>
        <time>2021-05-27T16:03:32Z</time>
      </trkpt>
      <trkpt lat="42.203408" lon="2.491356">
        <ele>382.731</ele>
        <time>2021-05-27T16:03:33Z</time>
      </trkpt>
      <trkpt lat="42.203424" lon="2.491376">
        <ele>382.778</ele>
        <time>2021-05-27T16:03:34Z</time>
      </trkpt>
      <trkpt lat="42.203438" lon="2.491396">
        <ele>382.626</ele>
        <time>2021-05-27T16:03:35Z</time>
      </trkpt>
      <trkpt lat="42.203454" lon="2.491414">
        <ele>382.666</ele>
        <time>2021-05-27T16:03:36Z</time>
      </trkpt>
      <trkpt lat="42.203470" lon="2.491428">
        <ele>382.513</ele>
        <time>2021-05-27T16:03:37Z</time>
      </trkpt>
      <trkpt lat="42.203483" lon="2.491446">
        <ele>382.548</ele>
        <time>2021-05-27T16:03:38Z</time>
      </trkpt>
      <trkpt lat="42.203498" lon="2.491463">
        <ele>382.491</ele>
        <time>2021-05-27T16:03:39Z</time>
      </trkpt>
      <trkpt lat="42.203513" lon="2.491480">
        <ele>382.457</ele>
        <time>2021-05-27T16:03:40Z</time>
      </trkpt>
      <trkpt lat="42.203529" lon="2.491496">
        <ele>382.322</ele>
        <time>2021-05-27T16:03:41Z</time>
      </trkpt>
      <trkpt lat="42.203546" lon="2.491510">
        <ele>382.262</ele>
        <time>2021-05-27T16:03:42Z</time>
      </trkpt>
      <trkpt lat="42.203563" lon="2.491526">
        <ele>382.208</ele>
        <time>2021-05-27T16:03:43Z</time>
      </trkpt>
      <trkpt lat="42.203578" lon="2.491544">
        <ele>382.108</ele>
        <time>2021-05-27T16:03:44Z</time>
      </trkpt>
      <trkpt lat="42.203593" lon="2.491559">
        <ele>382.129</ele>
        <time>2021-05-27T16:03:45Z</time>
      </trkpt>
      <trkpt lat="42.203609" lon="2.491573">
        <ele>382.076</ele>
        <time>2021-05-27T16:03:46Z</time>
      </trkpt>
      <trkpt lat="42.203625" lon="2.491587">
        <ele>381.934</ele>
        <time>2021-05-27T16:03:47Z</time>
      </trkpt>
      <trkpt lat="42.203641" lon="2.491600">
        <ele>381.784</ele>
        <time>2021-05-27T16:03:48Z</time>
      </trkpt>
      <trkpt lat="42.203659" lon="2.491613">
        <ele>381.541</ele>
        <time>2021-05-27T16:03:49Z</time>
      </trkpt>
      <trkpt lat="42.203674" lon="2.491629">
        <ele>381.496</ele>
        <time>2021-05-27T16:03:50Z</time>
      </trkpt>
      <trkpt lat="42.203693" lon="2.491642">
        <ele>381.119</ele>
        <time>2021-05-27T16:03:51Z</time>
      </trkpt>
      <trkpt lat="42.203710" lon="2.491654">
        <ele>380.995</ele>
        <time>2021-05-27T16:03:52Z</time>
      </trkpt>
      <trkpt lat="42.203727" lon="2.491668">
        <ele>380.898</ele>
        <time>2021-05-27T16:03:53Z</time>
      </trkpt>
      <trkpt lat="42.203742" lon="2.491679">
        <ele>380.715</ele>
        <time>2021-05-27T16:03:54Z</time>
      </trkpt>
      <trkpt lat="42.203762" lon="2.491687">
        <ele>380.526</ele>
        <time>2021-05-27T16:03:55Z</time>
      </trkpt>
      <trkpt lat="42.203815" lon="2.491721">
        <ele>380.308</ele>
        <time>2021-05-27T16:03:58Z</time>
      </trkpt>
      <trkpt lat="42.203832" lon="2.491728">
        <ele>380.236</ele>
        <time>2021-05-27T16:03:59Z</time>
      </trkpt>
      <trkpt lat="42.203852" lon="2.491737">
        <ele>380.193</ele>
        <time>2021-05-27T16:04:00Z</time>
      </trkpt>
      <trkpt lat="42.203870" lon="2.491745">
        <ele>380.091</ele>
        <time>2021-05-27T16:04:01Z</time>
      </trkpt>
      <trkpt lat="42.203889" lon="2.491755">
        <ele>380.041</ele>
        <time>2021-05-27T16:04:02Z</time>
      </trkpt>
      <trkpt lat="42.203909" lon="2.491764">
        <ele>379.998</ele>
        <time>2021-05-27T16:04:03Z</time>
      </trkpt>
      <trkpt lat="42.203929" lon="2.491773">
        <ele>379.733</ele>
        <time>2021-05-27T16:04:04Z</time>
      </trkpt>
      <trkpt lat="42.203948" lon="2.491785">
        <ele>379.786</ele>
        <time>2021-05-27T16:04:05Z</time>
      </trkpt>
      <trkpt lat="42.203969" lon="2.491796">
        <ele>379.622</ele>
        <time>2021-05-27T16:04:06Z</time>
      </trkpt>
      <trkpt lat="42.203987" lon="2.491808">
        <ele>379.518</ele>
        <time>2021-05-27T16:04:07Z</time>
      </trkpt>
      <trkpt lat="42.204006" lon="2.491819">
        <ele>379.398</ele>
        <time>2021-05-27T16:04:08Z</time>
      </trkpt>
      <trkpt lat="42.204022" lon="2.491831">
        <ele>379.217</ele>
        <time>2021-05-27T16:04:09Z</time>
      </trkpt>
      <trkpt lat="42.204039" lon="2.491843">
        <ele>379.108</ele>
        <time>2021-05-27T16:04:10Z</time>
      </trkpt>
      <trkpt lat="42.204057" lon="2.491857">
        <ele>379.088</ele>
        <time>2021-05-27T16:04:11Z</time>
      </trkpt>
      <trkpt lat="42.204074" lon="2.491873">
        <ele>378.965</ele>
        <time>2021-05-27T16:04:12Z</time>
      </trkpt>
      <trkpt lat="42.204089" lon="2.491890">
        <ele>378.893</ele>
        <time>2021-05-27T16:04:13Z</time>
      </trkpt>
      <trkpt lat="42.204116" lon="2.491920">
        <ele>378.663</ele>
        <time>2021-05-27T16:04:15Z</time>
      </trkpt>
      <trkpt lat="42.204134" lon="2.491936">
        <ele>378.450</ele>
        <time>2021-05-27T16:04:16Z</time>
      </trkpt>
      <trkpt lat="42.204151" lon="2.491950">
        <ele>378.315</ele>
        <time>2021-05-27T16:04:17Z</time>
      </trkpt>
      <trkpt lat="42.204167" lon="2.491964">
        <ele>378.278</ele>
        <time>2021-05-27T16:04:18Z</time>
      </trkpt>
      <trkpt lat="42.204185" lon="2.491977">
        <ele>378.284</ele>
        <time>2021-05-27T16:04:19Z</time>
      </trkpt>
      <trkpt lat="42.204204" lon="2.491990">
        <ele>378.268</ele>
        <time>2021-05-27T16:04:20Z</time>
      </trkpt>
      <trkpt lat="42.204223" lon="2.492002">
        <ele>378.142</ele>
        <time>2021-05-27T16:04:21Z</time>
      </trkpt>
      <trkpt lat="42.204248" lon="2.492031">
        <ele>378.226</ele>
        <time>2021-05-27T16:04:23Z</time>
      </trkpt>
      <trkpt lat="42.204265" lon="2.492043">
        <ele>378.108</ele>
        <time>2021-05-27T16:04:24Z</time>
      </trkpt>
      <trkpt lat="42.204294" lon="2.492071">
        <ele>378.053</ele>
        <time>2021-05-27T16:04:26Z</time>
      </trkpt>
      <trkpt lat="42.204324" lon="2.492092">
        <ele>377.940</ele>
        <time>2021-05-27T16:04:28Z</time>
      </trkpt>
      <trkpt lat="42.204354" lon="2.492112">
        <ele>377.688</ele>
        <time>2021-05-27T16:04:30Z</time>
      </trkpt>
      <trkpt lat="42.204369" lon="2.492124">
        <ele>377.528</ele>
        <time>2021-05-27T16:04:31Z</time>
      </trkpt>
      <trkpt lat="42.204387" lon="2.492139">
        <ele>377.455</ele>
        <time>2021-05-27T16:04:32Z</time>
      </trkpt>
      <trkpt lat="42.204404" lon="2.492149">
        <ele>377.270</ele>
        <time>2021-05-27T16:04:33Z</time>
      </trkpt>
      <trkpt lat="42.204451" lon="2.492188">
        <ele>376.843</ele>
        <time>2021-05-27T16:04:36Z</time>
      </trkpt>
      <trkpt lat="42.204468" lon="2.492198">
        <ele>376.699</ele>
        <time>2021-05-27T16:04:37Z</time>
      </trkpt>
      <trkpt lat="42.204488" lon="2.492208">
        <ele>376.312</ele>
        <time>2021-05-27T16:04:38Z</time>
      </trkpt>
      <trkpt lat="42.204520" lon="2.492228">
        <ele>376.032</ele>
        <time>2021-05-27T16:04:40Z</time>
      </trkpt>
      <trkpt lat="42.204540" lon="2.492234">
        <ele>375.805</ele>
        <time>2021-05-27T16:04:41Z</time>
      </trkpt>
      <trkpt lat="42.204559" lon="2.492242">
        <ele>375.608</ele>
        <time>2021-05-27T16:04:42Z</time>
      </trkpt>
      <trkpt lat="42.204578" lon="2.492253">
        <ele>375.568</ele>
        <time>2021-05-27T16:04:43Z</time>
      </trkpt>
      <trkpt lat="42.204597" lon="2.492263">
        <ele>375.495</ele>
        <time>2021-05-27T16:04:44Z</time>
      </trkpt>
      <trkpt lat="42.204617" lon="2.492270">
        <ele>375.233</ele>
        <time>2021-05-27T16:04:45Z</time>
      </trkpt>
      <trkpt lat="42.204652" lon="2.492260">
        <ele>374.673</ele>
        <time>2021-05-27T16:04:47Z</time>
      </trkpt>
      <trkpt lat="42.204668" lon="2.492243">
        <ele>374.140</ele>
        <time>2021-05-27T16:04:48Z</time>
      </trkpt>
      <trkpt lat="42.204682" lon="2.492219">
        <ele>373.675</ele>
        <time>2021-05-27T16:04:49Z</time>
      </trkpt>
      <trkpt lat="42.204693" lon="2.492192">
        <ele>373.368</ele>
        <time>2021-05-27T16:04:50Z</time>
      </trkpt>
      <trkpt lat="42.204704" lon="2.492167">
        <ele>373.114</ele>
        <time>2021-05-27T16:04:51Z</time>
      </trkpt>
      <trkpt lat="42.204723" lon="2.492142">
        <ele>372.717</ele>
        <time>2021-05-27T16:04:52Z</time>
      </trkpt>
      <trkpt lat="42.204738" lon="2.492124">
        <ele>372.687</ele>
        <time>2021-05-27T16:04:53Z</time>
      </trkpt>
      <trkpt lat="42.204773" lon="2.492100">
        <ele>372.515</ele>
        <time>2021-05-27T16:04:55Z</time>
      </trkpt>
      <trkpt lat="42.204794" lon="2.492089">
        <ele>372.508</ele>
        <time>2021-05-27T16:04:56Z</time>
      </trkpt>
      <trkpt lat="42.204813" lon="2.492078">
        <ele>372.558</ele>
        <time>2021-05-27T16:04:57Z</time>
      </trkpt>
      <trkpt lat="42.204830" lon="2.492067">
        <ele>372.685</ele>
        <time>2021-05-27T16:04:58Z</time>
      </trkpt>
      <trkpt lat="42.204850" lon="2.492055">
        <ele>372.793</ele>
        <time>2021-05-27T16:04:59Z</time>
      </trkpt>
      <trkpt lat="42.204867" lon="2.492044">
        <ele>372.853</ele>
        <time>2021-05-27T16:05:00Z</time>
      </trkpt>
      <trkpt lat="42.204887" lon="2.492034">
        <ele>373.020</ele>
        <time>2021-05-27T16:05:01Z</time>
      </trkpt>
      <trkpt lat="42.204907" lon="2.492029">
        <ele>373.145</ele>
        <time>2021-05-27T16:05:02Z</time>
      </trkpt>
      <trkpt lat="42.204937" lon="2.492031">
        <ele>373.228</ele>
        <time>2021-05-27T16:05:04Z</time>
      </trkpt>
      <trkpt lat="42.204961" lon="2.492046">
        <ele>373.174</ele>
        <time>2021-05-27T16:05:06Z</time>
      </trkpt>
      <trkpt lat="42.204982" lon="2.492064">
        <ele>372.833</ele>
        <time>2021-05-27T16:05:08Z</time>
      </trkpt>
      <trkpt lat="42.205002" lon="2.492080">
        <ele>372.623</ele>
        <time>2021-05-27T16:05:10Z</time>
      </trkpt>
      <trkpt lat="42.205020" lon="2.492111">
        <ele>372.015</ele>
        <time>2021-05-27T16:05:12Z</time>
      </trkpt>
      <trkpt lat="42.205044" lon="2.492148">
        <ele>371.308</ele>
        <time>2021-05-27T16:05:14Z</time>
      </trkpt>
      <trkpt lat="42.205062" lon="2.492166">
        <ele>371.010</ele>
        <time>2021-05-27T16:05:15Z</time>
      </trkpt>
      <trkpt lat="42.205080" lon="2.492176">
        <ele>370.817</ele>
        <time>2021-05-27T16:05:16Z</time>
      </trkpt>
      <trkpt lat="42.205098" lon="2.492182">
        <ele>370.795</ele>
        <time>2021-05-27T16:05:17Z</time>
      </trkpt>
      <trkpt lat="42.205115" lon="2.492192">
        <ele>370.545</ele>
        <time>2021-05-27T16:05:18Z</time>
      </trkpt>
      <trkpt lat="42.205136" lon="2.492197">
        <ele>370.552</ele>
        <time>2021-05-27T16:05:19Z</time>
      </trkpt>
      <trkpt lat="42.205156" lon="2.492206">
        <ele>370.347</ele>
        <time>2021-05-27T16:05:20Z</time>
      </trkpt>
      <trkpt lat="42.205175" lon="2.492216">
        <ele>370.140</ele>
        <time>2021-05-27T16:05:21Z</time>
      </trkpt>
      <trkpt lat="42.205196" lon="2.492223">
        <ele>370.036</ele>
        <time>2021-05-27T16:05:22Z</time>
      </trkpt>
      <trkpt lat="42.205217" lon="2.492231">
        <ele>370.229</ele>
        <time>2021-05-27T16:05:23Z</time>
      </trkpt>
      <trkpt lat="42.205235" lon="2.492243">
        <ele>370.500</ele>
        <time>2021-05-27T16:05:24Z</time>
      </trkpt>
      <trkpt lat="42.205252" lon="2.492252">
        <ele>370.720</ele>
        <time>2021-05-27T16:05:25Z</time>
      </trkpt>
      <trkpt lat="42.205271" lon="2.492257">
        <ele>370.808</ele>
        <time>2021-05-27T16:05:26Z</time>
      </trkpt>
      <trkpt lat="42.205291" lon="2.492263">
        <ele>370.879</ele>
        <time>2021-05-27T16:05:27Z</time>
      </trkpt>
      <trkpt lat="42.205329" lon="2.492267">
        <ele>370.876</ele>
        <time>2021-05-27T16:05:29Z</time>
      </trkpt>
      <trkpt lat="42.205349" lon="2.492266">
        <ele>370.714</ele>
        <time>2021-05-27T16:05:30Z</time>
      </trkpt>
      <trkpt lat="42.205368" lon="2.492260">
        <ele>370.524</ele>
        <time>2021-05-27T16:05:31Z</time>
      </trkpt>
      <trkpt lat="42.205407" lon="2.492249">
        <ele>370.151</ele>
        <time>2021-05-27T16:05:33Z</time>
      </trkpt>
      <trkpt lat="42.205425" lon="2.492245">
        <ele>370.036</ele>
        <time>2021-05-27T16:05:34Z</time>
      </trkpt>
      <trkpt lat="42.205462" lon="2.492241">
        <ele>369.799</ele>
        <time>2021-05-27T16:05:36Z</time>
      </trkpt>
      <trkpt lat="42.205480" lon="2.492240">
        <ele>369.775</ele>
        <time>2021-05-27T16:05:37Z</time>
      </trkpt>
      <trkpt lat="42.205515" lon="2.492232">
        <ele>369.454</ele>
        <time>2021-05-27T16:05:39Z</time>
      </trkpt>
      <trkpt lat="42.205543" lon="2.492218">
        <ele>369.156</ele>
        <time>2021-05-27T16:05:41Z</time>
      </trkpt>
      <trkpt lat="42.205577" lon="2.492201">
        <ele>369.411</ele>
        <time>2021-05-27T16:05:43Z</time>
      </trkpt>
      <trkpt lat="42.205609" lon="2.492194">
        <ele>369.608</ele>
        <time>2021-05-27T16:05:45Z</time>
      </trkpt>
      <trkpt lat="42.205646" lon="2.492185">
        <ele>369.842</ele>
        <time>2021-05-27T16:05:47Z</time>
      </trkpt>
      <trkpt lat="42.205667" lon="2.492180">
        <ele>369.959</ele>
        <time>2021-05-27T16:05:48Z</time>
      </trkpt>
      <trkpt lat="42.205685" lon="2.492173">
        <ele>370.077</ele>
        <time>2021-05-27T16:05:49Z</time>
      </trkpt>
      <trkpt lat="42.205719" lon="2.492159">
        <ele>370.217</ele>
        <time>2021-05-27T16:05:51Z</time>
      </trkpt>
      <trkpt lat="42.205736" lon="2.492148">
        <ele>370.394</ele>
        <time>2021-05-27T16:05:52Z</time>
      </trkpt>
      <trkpt lat="42.205765" lon="2.492132">
        <ele>370.499</ele>
        <time>2021-05-27T16:05:54Z</time>
      </trkpt>
      <trkpt lat="42.205784" lon="2.492125">
        <ele>370.462</ele>
        <time>2021-05-27T16:05:55Z</time>
      </trkpt>
      <trkpt lat="42.205811" lon="2.492112">
        <ele>370.428</ele>
        <time>2021-05-27T16:05:57Z</time>
      </trkpt>
      <trkpt lat="42.205838" lon="2.492096">
        <ele>370.591</ele>
        <time>2021-05-27T16:05:59Z</time>
      </trkpt>
      <trkpt lat="42.205866" lon="2.492082">
        <ele>370.681</ele>
        <time>2021-05-27T16:06:01Z</time>
      </trkpt>
      <trkpt lat="42.205894" lon="2.492058">
        <ele>370.619</ele>
        <time>2021-05-27T16:06:03Z</time>
      </trkpt>
      <trkpt lat="42.205911" lon="2.492046">
        <ele>370.608</ele>
        <time>2021-05-27T16:06:05Z</time>
      </trkpt>
      <trkpt lat="42.205935" lon="2.492025">
        <ele>370.556</ele>
        <time>2021-05-27T16:06:06Z</time>
      </trkpt>
      <trkpt lat="42.205966" lon="2.492005">
        <ele>370.313</ele>
        <time>2021-05-27T16:06:08Z</time>
      </trkpt>
      <trkpt lat="42.206046" lon="2.491937">
        <ele>369.571</ele>
        <time>2021-05-27T16:06:13Z</time>
      </trkpt>
      <trkpt lat="42.206080" lon="2.491920">
        <ele>369.431</ele>
        <time>2021-05-27T16:06:15Z</time>
      </trkpt>
      <trkpt lat="42.206168" lon="2.491856">
        <ele>369.728</ele>
        <time>2021-05-27T16:06:20Z</time>
      </trkpt>
      <trkpt lat="42.206249" lon="2.491772">
        <ele>369.743</ele>
        <time>2021-05-27T16:06:25Z</time>
      </trkpt>
      <trkpt lat="42.206293" lon="2.491746">
        <ele>369.446</ele>
        <time>2021-05-27T16:06:27Z</time>
      </trkpt>
      <trkpt lat="42.206354" lon="2.491718">
        <ele>368.822</ele>
        <time>2021-05-27T16:06:29Z</time>
      </trkpt>
      <trkpt lat="42.206377" lon="2.491704">
        <ele>368.538</ele>
        <time>2021-05-27T16:06:30Z</time>
      </trkpt>
      <trkpt lat="42.206398" lon="2.491688">
        <ele>368.370</ele>
        <time>2021-05-27T16:06:31Z</time>
      </trkpt>
      <trkpt lat="42.206423" lon="2.491671">
        <ele>368.217</ele>
        <time>2021-05-27T16:06:32Z</time>
      </trkpt>
      <trkpt lat="42.206439" lon="2.491655">
        <ele>368.308</ele>
        <time>2021-05-27T16:06:33Z</time>
      </trkpt>
      <trkpt lat="42.206457" lon="2.491638">
        <ele>368.550</ele>
        <time>2021-05-27T16:06:34Z</time>
      </trkpt>
      <trkpt lat="42.206476" lon="2.491619">
        <ele>368.647</ele>
        <time>2021-05-27T16:06:35Z</time>
      </trkpt>
      <trkpt lat="42.206494" lon="2.491602">
        <ele>368.725</ele>
        <time>2021-05-27T16:06:36Z</time>
      </trkpt>
      <trkpt lat="42.206510" lon="2.491584">
        <ele>368.875</ele>
        <time>2021-05-27T16:06:37Z</time>
      </trkpt>
      <trkpt lat="42.206525" lon="2.491571">
        <ele>368.822</ele>
        <time>2021-05-27T16:06:38Z</time>
      </trkpt>
      <trkpt lat="42.206539" lon="2.491555">
        <ele>368.987</ele>
        <time>2021-05-27T16:06:39Z</time>
      </trkpt>
      <trkpt lat="42.206558" lon="2.491524">
        <ele>368.940</ele>
        <time>2021-05-27T16:06:41Z</time>
      </trkpt>
      <trkpt lat="42.206585" lon="2.491494">
        <ele>368.866</ele>
        <time>2021-05-27T16:06:43Z</time>
      </trkpt>
      <trkpt lat="42.206603" lon="2.491476">
        <ele>368.772</ele>
        <time>2021-05-27T16:06:44Z</time>
      </trkpt>
      <trkpt lat="42.206621" lon="2.491460">
        <ele>368.613</ele>
        <time>2021-05-27T16:06:45Z</time>
      </trkpt>
      <trkpt lat="42.206637" lon="2.491445">
        <ele>368.414</ele>
        <time>2021-05-27T16:06:46Z</time>
      </trkpt>
      <trkpt lat="42.206653" lon="2.491428">
        <ele>368.308</ele>
        <time>2021-05-27T16:06:47Z</time>
      </trkpt>
      <trkpt lat="42.206680" lon="2.491396">
        <ele>368.054</ele>
        <time>2021-05-27T16:06:49Z</time>
      </trkpt>
      <trkpt lat="42.206695" lon="2.491382">
        <ele>368.271</ele>
        <time>2021-05-27T16:06:50Z</time>
      </trkpt>
      <trkpt lat="42.206712" lon="2.491370">
        <ele>368.699</ele>
        <time>2021-05-27T16:06:51Z</time>
      </trkpt>
      <trkpt lat="42.206745" lon="2.491353">
        <ele>369.189</ele>
        <time>2021-05-27T16:06:53Z</time>
      </trkpt>
      <trkpt lat="42.206763" lon="2.491340">
        <ele>369.456</ele>
        <time>2021-05-27T16:06:54Z</time>
      </trkpt>
      <trkpt lat="42.206802" lon="2.491318">
        <ele>369.761</ele>
        <time>2021-05-27T16:06:56Z</time>
      </trkpt>
      <trkpt lat="42.206821" lon="2.491300">
        <ele>369.944</ele>
        <time>2021-05-27T16:06:57Z</time>
      </trkpt>
      <trkpt lat="42.206840" lon="2.491279">
        <ele>370.170</ele>
        <time>2021-05-27T16:06:58Z</time>
      </trkpt>
      <trkpt lat="42.206854" lon="2.491259">
        <ele>370.367</ele>
        <time>2021-05-27T16:06:59Z</time>
      </trkpt>
      <trkpt lat="42.206868" lon="2.491241">
        <ele>370.481</ele>
        <time>2021-05-27T16:07:00Z</time>
      </trkpt>
      <trkpt lat="42.206882" lon="2.491222">
        <ele>370.419</ele>
        <time>2021-05-27T16:07:01Z</time>
      </trkpt>
      <trkpt lat="42.206895" lon="2.491202">
        <ele>370.408</ele>
        <time>2021-05-27T16:07:02Z</time>
      </trkpt>
      <trkpt lat="42.206909" lon="2.491181">
        <ele>370.483</ele>
        <time>2021-05-27T16:07:03Z</time>
      </trkpt>
      <trkpt lat="42.206922" lon="2.491156">
        <ele>370.350</ele>
        <time>2021-05-27T16:07:04Z</time>
      </trkpt>
      <trkpt lat="42.206932" lon="2.491133">
        <ele>370.288</ele>
        <time>2021-05-27T16:07:05Z</time>
      </trkpt>
      <trkpt lat="42.206940" lon="2.491109">
        <ele>370.248</ele>
        <time>2021-05-27T16:07:06Z</time>
      </trkpt>
      <trkpt lat="42.206950" lon="2.491086">
        <ele>370.245</ele>
        <time>2021-05-27T16:07:07Z</time>
      </trkpt>
      <trkpt lat="42.206958" lon="2.491062">
        <ele>370.430</ele>
        <time>2021-05-27T16:07:08Z</time>
      </trkpt>
      <trkpt lat="42.206966" lon="2.491037">
        <ele>370.523</ele>
        <time>2021-05-27T16:07:09Z</time>
      </trkpt>
      <trkpt lat="42.206973" lon="2.491010">
        <ele>370.749</ele>
        <time>2021-05-27T16:07:10Z</time>
      </trkpt>
      <trkpt lat="42.206978" lon="2.490983">
        <ele>370.938</ele>
        <time>2021-05-27T16:07:11Z</time>
      </trkpt>
      <trkpt lat="42.206982" lon="2.490959">
        <ele>371.170</ele>
        <time>2021-05-27T16:07:12Z</time>
      </trkpt>
      <trkpt lat="42.206996" lon="2.490915">
        <ele>371.317</ele>
        <time>2021-05-27T16:07:14Z</time>
      </trkpt>
      <trkpt lat="42.207007" lon="2.490890">
        <ele>371.408</ele>
        <time>2021-05-27T16:07:15Z</time>
      </trkpt>
      <trkpt lat="42.207010" lon="2.490859">
        <ele>371.650</ele>
        <time>2021-05-27T16:07:16Z</time>
      </trkpt>
      <trkpt lat="42.207015" lon="2.490830">
        <ele>371.727</ele>
        <time>2021-05-27T16:07:17Z</time>
      </trkpt>
      <trkpt lat="42.207018" lon="2.490803">
        <ele>371.565</ele>
        <time>2021-05-27T16:07:18Z</time>
      </trkpt>
      <trkpt lat="42.207022" lon="2.490693">
        <ele>370.935</ele>
        <time>2021-05-27T16:07:22Z</time>
      </trkpt>
      <trkpt lat="42.207026" lon="2.490663">
        <ele>370.722</ele>
        <time>2021-05-27T16:07:23Z</time>
      </trkpt>
      <trkpt lat="42.207035" lon="2.490607">
        <ele>370.377</ele>
        <time>2021-05-27T16:07:25Z</time>
      </trkpt>
      <trkpt lat="42.207042" lon="2.490578">
        <ele>370.160</ele>
        <time>2021-05-27T16:07:26Z</time>
      </trkpt>
      <trkpt lat="42.207044" lon="2.490549">
        <ele>369.996</ele>
        <time>2021-05-27T16:07:27Z</time>
      </trkpt>
      <trkpt lat="42.207042" lon="2.490519">
        <ele>369.882</ele>
        <time>2021-05-27T16:07:28Z</time>
      </trkpt>
      <trkpt lat="42.207041" lon="2.490491">
        <ele>369.743</ele>
        <time>2021-05-27T16:07:29Z</time>
      </trkpt>
      <trkpt lat="42.207034" lon="2.490464">
        <ele>369.617</ele>
        <time>2021-05-27T16:07:30Z</time>
      </trkpt>
      <trkpt lat="42.207027" lon="2.490438">
        <ele>369.508</ele>
        <time>2021-05-27T16:07:31Z</time>
      </trkpt>
      <trkpt lat="42.207018" lon="2.490394">
        <ele>369.415</ele>
        <time>2021-05-27T16:07:33Z</time>
      </trkpt>
      <trkpt lat="42.207009" lon="2.490368">
        <ele>369.332</ele>
        <time>2021-05-27T16:07:34Z</time>
      </trkpt>
      <trkpt lat="42.207005" lon="2.490343">
        <ele>369.110</ele>
        <time>2021-05-27T16:07:35Z</time>
      </trkpt>
      <trkpt lat="42.206999" lon="2.490303">
        <ele>368.980</ele>
        <time>2021-05-27T16:07:37Z</time>
      </trkpt>
      <trkpt lat="42.206988" lon="2.490256">
        <ele>368.857</ele>
        <time>2021-05-27T16:07:39Z</time>
      </trkpt>
      <trkpt lat="42.206975" lon="2.490202">
        <ele>368.982</ele>
        <time>2021-05-27T16:07:41Z</time>
      </trkpt>
      <trkpt lat="42.206960" lon="2.490169">
        <ele>368.985</ele>
        <time>2021-05-27T16:07:42Z</time>
      </trkpt>
      <trkpt lat="42.206941" lon="2.490137">
        <ele>369.041</ele>
        <time>2021-05-27T16:07:43Z</time>
      </trkpt>
      <trkpt lat="42.206929" lon="2.490103">
        <ele>369.187</ele>
        <time>2021-05-27T16:07:44Z</time>
      </trkpt>
      <trkpt lat="42.206927" lon="2.490074">
        <ele>369.142</ele>
        <time>2021-05-27T16:07:45Z</time>
      </trkpt>
      <trkpt lat="42.206918" lon="2.490044">
        <ele>369.226</ele>
        <time>2021-05-27T16:07:46Z</time>
      </trkpt>
      <trkpt lat="42.206913" lon="2.490015">
        <ele>369.108</ele>
        <time>2021-05-27T16:07:47Z</time>
      </trkpt>
      <trkpt lat="42.206907" lon="2.489988">
        <ele>369.195</ele>
        <time>2021-05-27T16:07:48Z</time>
      </trkpt>
      <trkpt lat="42.206907" lon="2.489962">
        <ele>369.032</ele>
        <time>2021-05-27T16:07:49Z</time>
      </trkpt>
      <trkpt lat="42.206901" lon="2.489936">
        <ele>368.950</ele>
        <time>2021-05-27T16:07:50Z</time>
      </trkpt>
      <trkpt lat="42.206894" lon="2.489909">
        <ele>368.950</ele>
        <time>2021-05-27T16:07:51Z</time>
      </trkpt>
      <trkpt lat="42.206889" lon="2.489881">
        <ele>368.897</ele>
        <time>2021-05-27T16:07:52Z</time>
      </trkpt>
      <trkpt lat="42.206885" lon="2.489853">
        <ele>368.722</ele>
        <time>2021-05-27T16:07:53Z</time>
      </trkpt>
      <trkpt lat="42.206881" lon="2.489824">
        <ele>368.615</ele>
        <time>2021-05-27T16:07:54Z</time>
      </trkpt>
      <trkpt lat="42.206875" lon="2.489798">
        <ele>368.571</ele>
        <time>2021-05-27T16:07:55Z</time>
      </trkpt>
      <trkpt lat="42.206870" lon="2.489771">
        <ele>368.495</ele>
        <time>2021-05-27T16:07:56Z</time>
      </trkpt>
      <trkpt lat="42.206865" lon="2.489743">
        <ele>368.449</ele>
        <time>2021-05-27T16:07:57Z</time>
      </trkpt>
      <trkpt lat="42.206859" lon="2.489718">
        <ele>368.323</ele>
        <time>2021-05-27T16:07:58Z</time>
      </trkpt>
      <trkpt lat="42.206858" lon="2.489690">
        <ele>368.208</ele>
        <time>2021-05-27T16:07:59Z</time>
      </trkpt>
      <trkpt lat="42.206852" lon="2.489661">
        <ele>368.156</ele>
        <time>2021-05-27T16:08:00Z</time>
      </trkpt>
      <trkpt lat="42.206846" lon="2.489636">
        <ele>368.023</ele>
        <time>2021-05-27T16:08:01Z</time>
      </trkpt>
      <trkpt lat="42.206841" lon="2.489611">
        <ele>368.061</ele>
        <time>2021-05-27T16:08:02Z</time>
      </trkpt>
      <trkpt lat="42.206838" lon="2.489583">
        <ele>367.931</ele>
        <time>2021-05-27T16:08:03Z</time>
      </trkpt>
      <trkpt lat="42.206828" lon="2.489553">
        <ele>367.888</ele>
        <time>2021-05-27T16:08:04Z</time>
      </trkpt>
      <trkpt lat="42.206824" lon="2.489529">
        <ele>367.753</ele>
        <time>2021-05-27T16:08:05Z</time>
      </trkpt>
      <trkpt lat="42.206818" lon="2.489505">
        <ele>367.746</ele>
        <time>2021-05-27T16:08:06Z</time>
      </trkpt>
      <trkpt lat="42.206809" lon="2.489479">
        <ele>367.672</ele>
        <time>2021-05-27T16:08:07Z</time>
      </trkpt>
      <trkpt lat="42.206804" lon="2.489454">
        <ele>367.552</ele>
        <time>2021-05-27T16:08:08Z</time>
      </trkpt>
      <trkpt lat="42.206799" lon="2.489425">
        <ele>367.553</ele>
        <time>2021-05-27T16:08:09Z</time>
      </trkpt>
      <trkpt lat="42.206797" lon="2.489400">
        <ele>367.508</ele>
        <time>2021-05-27T16:08:10Z</time>
      </trkpt>
      <trkpt lat="42.206795" lon="2.489373">
        <ele>367.508</ele>
        <time>2021-05-27T16:08:11Z</time>
      </trkpt>
      <trkpt lat="42.206790" lon="2.489344">
        <ele>367.652</ele>
        <time>2021-05-27T16:08:12Z</time>
      </trkpt>
      <trkpt lat="42.206784" lon="2.489318">
        <ele>367.669</ele>
        <time>2021-05-27T16:08:13Z</time>
      </trkpt>
      <trkpt lat="42.206780" lon="2.489292">
        <ele>367.647</ele>
        <time>2021-05-27T16:08:14Z</time>
      </trkpt>
      <trkpt lat="42.206778" lon="2.489266">
        <ele>367.627</ele>
        <time>2021-05-27T16:08:15Z</time>
      </trkpt>
      <trkpt lat="42.206777" lon="2.489242">
        <ele>367.624</ele>
        <time>2021-05-27T16:08:16Z</time>
      </trkpt>
      <trkpt lat="42.206773" lon="2.489216">
        <ele>367.699</ele>
        <time>2021-05-27T16:08:17Z</time>
      </trkpt>
      <trkpt lat="42.206764" lon="2.489188">
        <ele>367.682</ele>
        <time>2021-05-27T16:08:18Z</time>
      </trkpt>
      <trkpt lat="42.206758" lon="2.489163">
        <ele>367.788</ele>
        <time>2021-05-27T16:08:19Z</time>
      </trkpt>
      <trkpt lat="42.206751" lon="2.489117">
        <ele>367.559</ele>
        <time>2021-05-27T16:08:21Z</time>
      </trkpt>
      <trkpt lat="42.206751" lon="2.489089">
        <ele>367.403</ele>
        <time>2021-05-27T16:08:22Z</time>
      </trkpt>
      <trkpt lat="42.206747" lon="2.489065">
        <ele>367.323</ele>
        <time>2021-05-27T16:08:23Z</time>
      </trkpt>
      <trkpt lat="42.206741" lon="2.489022">
        <ele>367.208</ele>
        <time>2021-05-27T16:08:25Z</time>
      </trkpt>
      <trkpt lat="42.206741" lon="2.488983">
        <ele>367.122</ele>
        <time>2021-05-27T16:08:27Z</time>
      </trkpt>
      <trkpt lat="42.206739" lon="2.488958">
        <ele>367.079</ele>
        <time>2021-05-27T16:08:28Z</time>
      </trkpt>
      <trkpt lat="42.206736" lon="2.488930">
        <ele>366.917</ele>
        <time>2021-05-27T16:08:29Z</time>
      </trkpt>
      <trkpt lat="42.206732" lon="2.488902">
        <ele>366.837</ele>
        <time>2021-05-27T16:08:30Z</time>
      </trkpt>
      <trkpt lat="42.206730" lon="2.488875">
        <ele>366.784</ele>
        <time>2021-05-27T16:08:31Z</time>
      </trkpt>
      <trkpt lat="42.206720" lon="2.488847">
        <ele>366.669</ele>
        <time>2021-05-27T16:08:32Z</time>
      </trkpt>
      <trkpt lat="42.206712" lon="2.488818">
        <ele>366.512</ele>
        <time>2021-05-27T16:08:33Z</time>
      </trkpt>
      <trkpt lat="42.206708" lon="2.488792">
        <ele>366.428</ele>
        <time>2021-05-27T16:08:34Z</time>
      </trkpt>
      <trkpt lat="42.206704" lon="2.488763">
        <ele>366.458</ele>
        <time>2021-05-27T16:08:35Z</time>
      </trkpt>
      <trkpt lat="42.206707" lon="2.488735">
        <ele>366.252</ele>
        <time>2021-05-27T16:08:36Z</time>
      </trkpt>
      <trkpt lat="42.206707" lon="2.488709">
        <ele>366.117</ele>
        <time>2021-05-27T16:08:37Z</time>
      </trkpt>
      <trkpt lat="42.206708" lon="2.488679">
        <ele>366.008</ele>
        <time>2021-05-27T16:08:38Z</time>
      </trkpt>
      <trkpt lat="42.206709" lon="2.488649">
        <ele>365.912</ele>
        <time>2021-05-27T16:08:39Z</time>
      </trkpt>
      <trkpt lat="42.206710" lon="2.488619">
        <ele>365.769</ele>
        <time>2021-05-27T16:08:40Z</time>
      </trkpt>
      <trkpt lat="42.206707" lon="2.488593">
        <ele>365.627</ele>
        <time>2021-05-27T16:08:41Z</time>
      </trkpt>
      <trkpt lat="42.206715" lon="2.488566">
        <ele>365.527</ele>
        <time>2021-05-27T16:08:42Z</time>
      </trkpt>
      <trkpt lat="42.206712" lon="2.488539">
        <ele>365.484</ele>
        <time>2021-05-27T16:08:43Z</time>
      </trkpt>
      <trkpt lat="42.206708" lon="2.488492">
        <ele>365.299</ele>
        <time>2021-05-27T16:08:45Z</time>
      </trkpt>
      <trkpt lat="42.206702" lon="2.488464">
        <ele>365.122</ele>
        <time>2021-05-27T16:08:46Z</time>
      </trkpt>
      <trkpt lat="42.206698" lon="2.488438">
        <ele>365.168</ele>
        <time>2021-05-27T16:08:47Z</time>
      </trkpt>
      <trkpt lat="42.206690" lon="2.488412">
        <ele>365.175</ele>
        <time>2021-05-27T16:08:48Z</time>
      </trkpt>
      <trkpt lat="42.206682" lon="2.488386">
        <ele>365.028</ele>
        <time>2021-05-27T16:08:49Z</time>
      </trkpt>
      <trkpt lat="42.206672" lon="2.488361">
        <ele>365.020</ele>
        <time>2021-05-27T16:08:50Z</time>
      </trkpt>
      <trkpt lat="42.206659" lon="2.488335">
        <ele>365.108</ele>
        <time>2021-05-27T16:08:51Z</time>
      </trkpt>
      <trkpt lat="42.206636" lon="2.488256">
        <ele>364.854</ele>
        <time>2021-05-27T16:08:54Z</time>
      </trkpt>
      <trkpt lat="42.206627" lon="2.488228">
        <ele>364.861</ele>
        <time>2021-05-27T16:08:55Z</time>
      </trkpt>
      <trkpt lat="42.206619" lon="2.488198">
        <ele>364.759</ele>
        <time>2021-05-27T16:08:56Z</time>
      </trkpt>
      <trkpt lat="42.206606" lon="2.488172">
        <ele>364.789</ele>
        <time>2021-05-27T16:08:57Z</time>
      </trkpt>
      <trkpt lat="42.206597" lon="2.488149">
        <ele>364.836</ele>
        <time>2021-05-27T16:08:58Z</time>
      </trkpt>
      <trkpt lat="42.206591" lon="2.488122">
        <ele>364.781</ele>
        <time>2021-05-27T16:08:59Z</time>
      </trkpt>
      <trkpt lat="42.206587" lon="2.488095">
        <ele>364.664</ele>
        <time>2021-05-27T16:09:00Z</time>
      </trkpt>
      <trkpt lat="42.206580" lon="2.488067">
        <ele>364.610</ele>
        <time>2021-05-27T16:09:01Z</time>
      </trkpt>
      <trkpt lat="42.206581" lon="2.488040">
        <ele>364.526</ele>
        <time>2021-05-27T16:09:02Z</time>
      </trkpt>
      <trkpt lat="42.206581" lon="2.487971">
        <ele>364.347</ele>
        <time>2021-05-27T16:09:05Z</time>
      </trkpt>
      <trkpt lat="42.206588" lon="2.487943">
        <ele>364.111</ele>
        <time>2021-05-27T16:09:06Z</time>
      </trkpt>
      <trkpt lat="42.206588" lon="2.487919">
        <ele>364.108</ele>
        <time>2021-05-27T16:09:07Z</time>
      </trkpt>
      <trkpt lat="42.206585" lon="2.487889">
        <ele>364.039</ele>
        <time>2021-05-27T16:09:08Z</time>
      </trkpt>
      <trkpt lat="42.206585" lon="2.487859">
        <ele>364.056</ele>
        <time>2021-05-27T16:09:09Z</time>
      </trkpt>
      <trkpt lat="42.206581" lon="2.487812">
        <ele>363.924</ele>
        <time>2021-05-27T16:09:11Z</time>
      </trkpt>
      <trkpt lat="42.206577" lon="2.487788">
        <ele>364.064</ele>
        <time>2021-05-27T16:09:12Z</time>
      </trkpt>
      <trkpt lat="42.206576" lon="2.487745">
        <ele>364.051</ele>
        <time>2021-05-27T16:09:14Z</time>
      </trkpt>
      <trkpt lat="42.206581" lon="2.487707">
        <ele>363.846</ele>
        <time>2021-05-27T16:09:16Z</time>
      </trkpt>
      <trkpt lat="42.206591" lon="2.487660">
        <ele>363.629</ele>
        <time>2021-05-27T16:09:18Z</time>
      </trkpt>
      <trkpt lat="42.206599" lon="2.487636">
        <ele>363.385</ele>
        <time>2021-05-27T16:09:19Z</time>
      </trkpt>
      <trkpt lat="42.206618" lon="2.487592">
        <ele>362.745</ele>
        <time>2021-05-27T16:09:21Z</time>
      </trkpt>
      <trkpt lat="42.206635" lon="2.487470">
        <ele>362.247</ele>
        <time>2021-05-27T16:09:26Z</time>
      </trkpt>
      <trkpt lat="42.206680" lon="2.487333">
        <ele>361.711</ele>
        <time>2021-05-27T16:09:31Z</time>
      </trkpt>
      <trkpt lat="42.206724" lon="2.487212">
        <ele>362.308</ele>
        <time>2021-05-27T16:09:36Z</time>
      </trkpt>
      <trkpt lat="42.206800" lon="2.487100">
        <ele>362.741</ele>
        <time>2021-05-27T16:09:41Z</time>
      </trkpt>
      <trkpt lat="42.206852" lon="2.486978">
        <ele>362.428</ele>
        <time>2021-05-27T16:09:46Z</time>
      </trkpt>
      <trkpt lat="42.206901" lon="2.486860">
        <ele>361.886</ele>
        <time>2021-05-27T16:09:51Z</time>
      </trkpt>
      <trkpt lat="42.206956" lon="2.486752">
        <ele>361.066</ele>
        <time>2021-05-27T16:09:56Z</time>
      </trkpt>
      <trkpt lat="42.207012" lon="2.486653">
        <ele>360.983</ele>
        <time>2021-05-27T16:10:00Z</time>
      </trkpt>
      <trkpt lat="42.207070" lon="2.486546">
        <ele>361.148</ele>
        <time>2021-05-27T16:10:05Z</time>
      </trkpt>
      <trkpt lat="42.207099" lon="2.486506">
        <ele>360.931</ele>
        <time>2021-05-27T16:10:07Z</time>
      </trkpt>
      <trkpt lat="42.207121" lon="2.486488">
        <ele>360.737</ele>
        <time>2021-05-27T16:10:08Z</time>
      </trkpt>
      <trkpt lat="42.207137" lon="2.486468">
        <ele>360.572</ele>
        <time>2021-05-27T16:10:09Z</time>
      </trkpt>
      <trkpt lat="42.207166" lon="2.486427">
        <ele>360.013</ele>
        <time>2021-05-27T16:10:11Z</time>
      </trkpt>
      <trkpt lat="42.207182" lon="2.486406">
        <ele>359.814</ele>
        <time>2021-05-27T16:10:12Z</time>
      </trkpt>
      <trkpt lat="42.207200" lon="2.486384">
        <ele>359.408</ele>
        <time>2021-05-27T16:10:13Z</time>
      </trkpt>
      <trkpt lat="42.207217" lon="2.486361">
        <ele>359.424</ele>
        <time>2021-05-27T16:10:14Z</time>
      </trkpt>
      <trkpt lat="42.207231" lon="2.486339">
        <ele>359.541</ele>
        <time>2021-05-27T16:10:15Z</time>
      </trkpt>
      <trkpt lat="42.207245" lon="2.486316">
        <ele>359.849</ele>
        <time>2021-05-27T16:10:16Z</time>
      </trkpt>
      <trkpt lat="42.207256" lon="2.486294">
        <ele>360.039</ele>
        <time>2021-05-27T16:10:17Z</time>
      </trkpt>
      <trkpt lat="42.207261" lon="2.486269">
        <ele>360.236</ele>
        <time>2021-05-27T16:10:18Z</time>
      </trkpt>
      <trkpt lat="42.207266" lon="2.486245">
        <ele>360.461</ele>
        <time>2021-05-27T16:10:19Z</time>
      </trkpt>
      <trkpt lat="42.207276" lon="2.486223">
        <ele>360.574</ele>
        <time>2021-05-27T16:10:20Z</time>
      </trkpt>
      <trkpt lat="42.207288" lon="2.486198">
        <ele>360.650</ele>
        <time>2021-05-27T16:10:21Z</time>
      </trkpt>
      <trkpt lat="42.207307" lon="2.486158">
        <ele>360.893</ele>
        <time>2021-05-27T16:10:23Z</time>
      </trkpt>
      <trkpt lat="42.207318" lon="2.486137">
        <ele>360.865</ele>
        <time>2021-05-27T16:10:24Z</time>
      </trkpt>
      <trkpt lat="42.207331" lon="2.486115">
        <ele>360.821</ele>
        <time>2021-05-27T16:10:25Z</time>
      </trkpt>
      <trkpt lat="42.207343" lon="2.486092">
        <ele>360.808</ele>
        <time>2021-05-27T16:10:26Z</time>
      </trkpt>
      <trkpt lat="42.207355" lon="2.486068">
        <ele>360.736</ele>
        <time>2021-05-27T16:10:27Z</time>
      </trkpt>
      <trkpt lat="42.207366" lon="2.486047">
        <ele>360.733</ele>
        <time>2021-05-27T16:10:28Z</time>
      </trkpt>
      <trkpt lat="42.207378" lon="2.486024">
        <ele>360.761</ele>
        <time>2021-05-27T16:10:29Z</time>
      </trkpt>
      <trkpt lat="42.207392" lon="2.486004">
        <ele>360.611</ele>
        <time>2021-05-27T16:10:30Z</time>
      </trkpt>
      <trkpt lat="42.207405" lon="2.485983">
        <ele>360.668</ele>
        <time>2021-05-27T16:10:31Z</time>
      </trkpt>
      <trkpt lat="42.207425" lon="2.485940">
        <ele>360.733</ele>
        <time>2021-05-27T16:10:33Z</time>
      </trkpt>
      <trkpt lat="42.207437" lon="2.485916">
        <ele>360.826</ele>
        <time>2021-05-27T16:10:34Z</time>
      </trkpt>
      <trkpt lat="42.207450" lon="2.485891">
        <ele>360.862</ele>
        <time>2021-05-27T16:10:35Z</time>
      </trkpt>
      <trkpt lat="42.207461" lon="2.485867">
        <ele>360.994</ele>
        <time>2021-05-27T16:10:36Z</time>
      </trkpt>
      <trkpt lat="42.207473" lon="2.485848">
        <ele>361.057</ele>
        <time>2021-05-27T16:10:37Z</time>
      </trkpt>
      <trkpt lat="42.207485" lon="2.485827">
        <ele>361.122</ele>
        <time>2021-05-27T16:10:38Z</time>
      </trkpt>
      <trkpt lat="42.207499" lon="2.485806">
        <ele>361.108</ele>
        <time>2021-05-27T16:10:39Z</time>
      </trkpt>
      <trkpt lat="42.207512" lon="2.485786">
        <ele>361.076</ele>
        <time>2021-05-27T16:10:40Z</time>
      </trkpt>
      <trkpt lat="42.207526" lon="2.485765">
        <ele>361.073</ele>
        <time>2021-05-27T16:10:41Z</time>
      </trkpt>
      <trkpt lat="42.207542" lon="2.485744">
        <ele>360.951</ele>
        <time>2021-05-27T16:10:42Z</time>
      </trkpt>
      <trkpt lat="42.207557" lon="2.485723">
        <ele>360.911</ele>
        <time>2021-05-27T16:10:43Z</time>
      </trkpt>
      <trkpt lat="42.207572" lon="2.485699">
        <ele>360.848</ele>
        <time>2021-05-27T16:10:44Z</time>
      </trkpt>
      <trkpt lat="42.207585" lon="2.485678">
        <ele>360.833</ele>
        <time>2021-05-27T16:10:45Z</time>
      </trkpt>
      <trkpt lat="42.207599" lon="2.485654">
        <ele>360.836</ele>
        <time>2021-05-27T16:10:46Z</time>
      </trkpt>
      <trkpt lat="42.207615" lon="2.485633">
        <ele>360.812</ele>
        <time>2021-05-27T16:10:47Z</time>
      </trkpt>
      <trkpt lat="42.207631" lon="2.485612">
        <ele>360.863</ele>
        <time>2021-05-27T16:10:48Z</time>
      </trkpt>
      <trkpt lat="42.207645" lon="2.485591">
        <ele>360.844</ele>
        <time>2021-05-27T16:10:49Z</time>
      </trkpt>
      <trkpt lat="42.207669" lon="2.485552">
        <ele>360.818</ele>
        <time>2021-05-27T16:10:51Z</time>
      </trkpt>
      <trkpt lat="42.207682" lon="2.485530">
        <ele>360.808</ele>
        <time>2021-05-27T16:10:52Z</time>
      </trkpt>
      <trkpt lat="42.207695" lon="2.485508">
        <ele>360.893</ele>
        <time>2021-05-27T16:10:53Z</time>
      </trkpt>
      <trkpt lat="42.207707" lon="2.485487">
        <ele>360.830</ele>
        <time>2021-05-27T16:10:54Z</time>
      </trkpt>
      <trkpt lat="42.207719" lon="2.485466">
        <ele>360.798</ele>
        <time>2021-05-27T16:10:55Z</time>
      </trkpt>
      <trkpt lat="42.207737" lon="2.485445">
        <ele>360.718</ele>
        <time>2021-05-27T16:10:56Z</time>
      </trkpt>
      <trkpt lat="42.207750" lon="2.485425">
        <ele>360.785</ele>
        <time>2021-05-27T16:10:57Z</time>
      </trkpt>
      <trkpt lat="42.207765" lon="2.485404">
        <ele>360.680</ele>
        <time>2021-05-27T16:10:58Z</time>
      </trkpt>
      <trkpt lat="42.207778" lon="2.485381">
        <ele>360.683</ele>
        <time>2021-05-27T16:10:59Z</time>
      </trkpt>
      <trkpt lat="42.207791" lon="2.485362">
        <ele>360.679</ele>
        <time>2021-05-27T16:11:00Z</time>
      </trkpt>
      <trkpt lat="42.207805" lon="2.485343">
        <ele>360.615</ele>
        <time>2021-05-27T16:11:01Z</time>
      </trkpt>
      <trkpt lat="42.207819" lon="2.485324">
        <ele>360.565</ele>
        <time>2021-05-27T16:11:02Z</time>
      </trkpt>
      <trkpt lat="42.207834" lon="2.485305">
        <ele>360.511</ele>
        <time>2021-05-27T16:11:03Z</time>
      </trkpt>
      <trkpt lat="42.207849" lon="2.485286">
        <ele>360.508</ele>
        <time>2021-05-27T16:11:04Z</time>
      </trkpt>
      <trkpt lat="42.207863" lon="2.485265">
        <ele>360.458</ele>
        <time>2021-05-27T16:11:05Z</time>
      </trkpt>
      <trkpt lat="42.207876" lon="2.485246">
        <ele>360.375</ele>
        <time>2021-05-27T16:11:06Z</time>
      </trkpt>
      <trkpt lat="42.207890" lon="2.485225">
        <ele>360.353</ele>
        <time>2021-05-27T16:11:07Z</time>
      </trkpt>
      <trkpt lat="42.207904" lon="2.485205">
        <ele>360.293</ele>
        <time>2021-05-27T16:11:08Z</time>
      </trkpt>
      <trkpt lat="42.207919" lon="2.485183">
        <ele>360.250</ele>
        <time>2021-05-27T16:11:09Z</time>
      </trkpt>
      <trkpt lat="42.207931" lon="2.485162">
        <ele>360.145</ele>
        <time>2021-05-27T16:11:10Z</time>
      </trkpt>
      <trkpt lat="42.207945" lon="2.485139">
        <ele>360.168</ele>
        <time>2021-05-27T16:11:11Z</time>
      </trkpt>
      <trkpt lat="42.207958" lon="2.485117">
        <ele>360.174</ele>
        <time>2021-05-27T16:11:12Z</time>
      </trkpt>
      <trkpt lat="42.207971" lon="2.485093">
        <ele>360.182</ele>
        <time>2021-05-27T16:11:13Z</time>
      </trkpt>
      <trkpt lat="42.207981" lon="2.485072">
        <ele>360.143</ele>
        <time>2021-05-27T16:11:14Z</time>
      </trkpt>
      <trkpt lat="42.208005" lon="2.485032">
        <ele>360.117</ele>
        <time>2021-05-27T16:11:16Z</time>
      </trkpt>
      <trkpt lat="42.208020" lon="2.485013">
        <ele>360.108</ele>
        <time>2021-05-27T16:11:17Z</time>
      </trkpt>
      <trkpt lat="42.208033" lon="2.484991">
        <ele>360.135</ele>
        <time>2021-05-27T16:11:18Z</time>
      </trkpt>
      <trkpt lat="42.208045" lon="2.484969">
        <ele>360.122</ele>
        <time>2021-05-27T16:11:19Z</time>
      </trkpt>
      <trkpt lat="42.208061" lon="2.484947">
        <ele>360.240</ele>
        <time>2021-05-27T16:11:20Z</time>
      </trkpt>
      <trkpt lat="42.208078" lon="2.484928">
        <ele>360.240</ele>
        <time>2021-05-27T16:11:21Z</time>
      </trkpt>
      <trkpt lat="42.208092" lon="2.484909">
        <ele>360.277</ele>
        <time>2021-05-27T16:11:22Z</time>
      </trkpt>
      <trkpt lat="42.208104" lon="2.484891">
        <ele>360.232</ele>
        <time>2021-05-27T16:11:23Z</time>
      </trkpt>
      <trkpt lat="42.208116" lon="2.484873">
        <ele>360.265</ele>
        <time>2021-05-27T16:11:24Z</time>
      </trkpt>
      <trkpt lat="42.208130" lon="2.484855">
        <ele>360.351</ele>
        <time>2021-05-27T16:11:25Z</time>
      </trkpt>
      <trkpt lat="42.208144" lon="2.484834">
        <ele>360.392</ele>
        <time>2021-05-27T16:11:26Z</time>
      </trkpt>
      <trkpt lat="42.208156" lon="2.484817">
        <ele>360.373</ele>
        <time>2021-05-27T16:11:27Z</time>
      </trkpt>
      <trkpt lat="42.208171" lon="2.484797">
        <ele>360.320</ele>
        <time>2021-05-27T16:11:28Z</time>
      </trkpt>
      <trkpt lat="42.208182" lon="2.484776">
        <ele>360.408</ele>
        <time>2021-05-27T16:11:29Z</time>
      </trkpt>
      <trkpt lat="42.208194" lon="2.484756">
        <ele>360.446</ele>
        <time>2021-05-27T16:11:30Z</time>
      </trkpt>
      <trkpt lat="42.208207" lon="2.484733">
        <ele>360.483</ele>
        <time>2021-05-27T16:11:31Z</time>
      </trkpt>
      <trkpt lat="42.208218" lon="2.484715">
        <ele>360.441</ele>
        <time>2021-05-27T16:11:32Z</time>
      </trkpt>
      <trkpt lat="42.208229" lon="2.484692">
        <ele>360.411</ele>
        <time>2021-05-27T16:11:33Z</time>
      </trkpt>
      <trkpt lat="42.208240" lon="2.484673">
        <ele>360.558</ele>
        <time>2021-05-27T16:11:34Z</time>
      </trkpt>
      <trkpt lat="42.208252" lon="2.484651">
        <ele>360.573</ele>
        <time>2021-05-27T16:11:35Z</time>
      </trkpt>
      <trkpt lat="42.208262" lon="2.484630">
        <ele>360.526</ele>
        <time>2021-05-27T16:11:36Z</time>
      </trkpt>
      <trkpt lat="42.208273" lon="2.484608">
        <ele>360.512</ele>
        <time>2021-05-27T16:11:37Z</time>
      </trkpt>
      <trkpt lat="42.208285" lon="2.484587">
        <ele>360.643</ele>
        <time>2021-05-27T16:11:38Z</time>
      </trkpt>
      <trkpt lat="42.208299" lon="2.484565">
        <ele>360.664</ele>
        <time>2021-05-27T16:11:39Z</time>
      </trkpt>
      <trkpt lat="42.208313" lon="2.484545">
        <ele>360.710</ele>
        <time>2021-05-27T16:11:40Z</time>
      </trkpt>
      <trkpt lat="42.208329" lon="2.484525">
        <ele>360.708</ele>
        <time>2021-05-27T16:11:41Z</time>
      </trkpt>
      <trkpt lat="42.208341" lon="2.484505">
        <ele>360.891</ele>
        <time>2021-05-27T16:11:42Z</time>
      </trkpt>
      <trkpt lat="42.208355" lon="2.484486">
        <ele>360.858</ele>
        <time>2021-05-27T16:11:43Z</time>
      </trkpt>
      <trkpt lat="42.208370" lon="2.484464">
        <ele>360.826</ele>
        <time>2021-05-27T16:11:44Z</time>
      </trkpt>
      <trkpt lat="42.208385" lon="2.484444">
        <ele>360.866</ele>
        <time>2021-05-27T16:11:45Z</time>
      </trkpt>
      <trkpt lat="42.208401" lon="2.484423">
        <ele>360.853</ele>
        <time>2021-05-27T16:11:46Z</time>
      </trkpt>
      <trkpt lat="42.208415" lon="2.484403">
        <ele>360.788</ele>
        <time>2021-05-27T16:11:47Z</time>
      </trkpt>
      <trkpt lat="42.208428" lon="2.484383">
        <ele>360.761</ele>
        <time>2021-05-27T16:11:48Z</time>
      </trkpt>
      <trkpt lat="42.208440" lon="2.484362">
        <ele>360.667</ele>
        <time>2021-05-27T16:11:49Z</time>
      </trkpt>
      <trkpt lat="42.208453" lon="2.484342">
        <ele>360.666</ele>
        <time>2021-05-27T16:11:50Z</time>
      </trkpt>
      <trkpt lat="42.208468" lon="2.484319">
        <ele>360.529</ele>
        <time>2021-05-27T16:11:51Z</time>
      </trkpt>
      <trkpt lat="42.208482" lon="2.484300">
        <ele>360.521</ele>
        <time>2021-05-27T16:11:52Z</time>
      </trkpt>
      <trkpt lat="42.208495" lon="2.484279">
        <ele>360.408</ele>
        <time>2021-05-27T16:11:53Z</time>
      </trkpt>
      <trkpt lat="42.208507" lon="2.484259">
        <ele>360.413</ele>
        <time>2021-05-27T16:11:54Z</time>
      </trkpt>
      <trkpt lat="42.208529" lon="2.484222">
        <ele>360.380</ele>
        <time>2021-05-27T16:11:56Z</time>
      </trkpt>
      <trkpt lat="42.208542" lon="2.484203">
        <ele>360.268</ele>
        <time>2021-05-27T16:11:57Z</time>
      </trkpt>
      <trkpt lat="42.208555" lon="2.484185">
        <ele>360.278</ele>
        <time>2021-05-27T16:11:58Z</time>
      </trkpt>
      <trkpt lat="42.208581" lon="2.484153">
        <ele>360.235</ele>
        <time>2021-05-27T16:12:00Z</time>
      </trkpt>
      <trkpt lat="42.208597" lon="2.484142">
        <ele>360.190</ele>
        <time>2021-05-27T16:12:01Z</time>
      </trkpt>
      <trkpt lat="42.208628" lon="2.484140">
        <ele>360.173</ele>
        <time>2021-05-27T16:12:03Z</time>
      </trkpt>
      <trkpt lat="42.208659" lon="2.484151">
        <ele>360.039</ele>
        <time>2021-05-27T16:12:05Z</time>
      </trkpt>
      <trkpt lat="42.208690" lon="2.484158">
        <ele>360.024</ele>
        <time>2021-05-27T16:12:07Z</time>
      </trkpt>
      <trkpt lat="42.208707" lon="2.484150">
        <ele>360.004</ele>
        <time>2021-05-27T16:12:08Z</time>
      </trkpt>
      <trkpt lat="42.208724" lon="2.484125">
        <ele>360.114</ele>
        <time>2021-05-27T16:12:10Z</time>
      </trkpt>
      <trkpt lat="42.208737" lon="2.484095">
        <ele>360.108</ele>
        <time>2021-05-27T16:12:12Z</time>
      </trkpt>
      <trkpt lat="42.208778" lon="2.484052">
        <ele>360.299</ele>
        <time>2021-05-27T16:12:15Z</time>
      </trkpt>
      <trkpt lat="42.208799" lon="2.484034">
        <ele>360.226</ele>
        <time>2021-05-27T16:12:16Z</time>
      </trkpt>
      <trkpt lat="42.208822" lon="2.484019">
        <ele>360.174</ele>
        <time>2021-05-27T16:12:17Z</time>
      </trkpt>
      <trkpt lat="42.208844" lon="2.484004">
        <ele>360.134</ele>
        <time>2021-05-27T16:12:18Z</time>
      </trkpt>
      <trkpt lat="42.208859" lon="2.483986">
        <ele>360.171</ele>
        <time>2021-05-27T16:12:19Z</time>
      </trkpt>
      <trkpt lat="42.208887" lon="2.483934">
        <ele>360.066</ele>
        <time>2021-05-27T16:12:21Z</time>
      </trkpt>
      <trkpt lat="42.208899" lon="2.483905">
        <ele>360.039</ele>
        <time>2021-05-27T16:12:22Z</time>
      </trkpt>
      <trkpt lat="42.208913" lon="2.483875">
        <ele>359.925</ele>
        <time>2021-05-27T16:12:23Z</time>
      </trkpt>
      <trkpt lat="42.208922" lon="2.483849">
        <ele>359.929</ele>
        <time>2021-05-27T16:12:24Z</time>
      </trkpt>
      <trkpt lat="42.208928" lon="2.483823">
        <ele>359.900</ele>
        <time>2021-05-27T16:12:25Z</time>
      </trkpt>
      <trkpt lat="42.208933" lon="2.483794">
        <ele>359.920</ele>
        <time>2021-05-27T16:12:26Z</time>
      </trkpt>
      <trkpt lat="42.208939" lon="2.483765">
        <ele>359.908</ele>
        <time>2021-05-27T16:12:27Z</time>
      </trkpt>
      <trkpt lat="42.208943" lon="2.483739">
        <ele>359.999</ele>
        <time>2021-05-27T16:12:28Z</time>
      </trkpt>
      <trkpt lat="42.208947" lon="2.483691">
        <ele>359.996</ele>
        <time>2021-05-27T16:12:30Z</time>
      </trkpt>
      <trkpt lat="42.208947" lon="2.483666">
        <ele>360.014</ele>
        <time>2021-05-27T16:12:31Z</time>
      </trkpt>
      <trkpt lat="42.208951" lon="2.483640">
        <ele>360.054</ele>
        <time>2021-05-27T16:12:32Z</time>
      </trkpt>
      <trkpt lat="42.208962" lon="2.483619">
        <ele>360.011</ele>
        <time>2021-05-27T16:12:33Z</time>
      </trkpt>
      <trkpt lat="42.208988" lon="2.483595">
        <ele>360.046</ele>
        <time>2021-05-27T16:12:35Z</time>
      </trkpt>
      <trkpt lat="42.209017" lon="2.483594">
        <ele>360.099</ele>
        <time>2021-05-27T16:12:37Z</time>
      </trkpt>
      <trkpt lat="42.209035" lon="2.483602">
        <ele>360.085</ele>
        <time>2021-05-27T16:12:38Z</time>
      </trkpt>
      <trkpt lat="42.209069" lon="2.483619">
        <ele>360.015</ele>
        <time>2021-05-27T16:12:40Z</time>
      </trkpt>
      <trkpt lat="42.209104" lon="2.483632">
        <ele>359.965</ele>
        <time>2021-05-27T16:12:42Z</time>
      </trkpt>
      <trkpt lat="42.209123" lon="2.483640">
        <ele>359.911</ele>
        <time>2021-05-27T16:12:43Z</time>
      </trkpt>
      <trkpt lat="42.209143" lon="2.483644">
        <ele>359.908</ele>
        <time>2021-05-27T16:12:44Z</time>
      </trkpt>
      <trkpt lat="42.209164" lon="2.483648">
        <ele>359.928</ele>
        <time>2021-05-27T16:12:45Z</time>
      </trkpt>
      <trkpt lat="42.209184" lon="2.483650">
        <ele>359.995</ele>
        <time>2021-05-27T16:12:46Z</time>
      </trkpt>
      <trkpt lat="42.209202" lon="2.483654">
        <ele>359.823</ele>
        <time>2021-05-27T16:12:47Z</time>
      </trkpt>
      <trkpt lat="42.209221" lon="2.483657">
        <ele>359.853</ele>
        <time>2021-05-27T16:12:48Z</time>
      </trkpt>
      <trkpt lat="42.209254" lon="2.483647">
        <ele>359.930</ele>
        <time>2021-05-27T16:12:50Z</time>
      </trkpt>
      <trkpt lat="42.209270" lon="2.483632">
        <ele>359.985</ele>
        <time>2021-05-27T16:12:51Z</time>
      </trkpt>
      <trkpt lat="42.209284" lon="2.483613">
        <ele>360.098</ele>
        <time>2021-05-27T16:12:52Z</time>
      </trkpt>
      <trkpt lat="42.209297" lon="2.483593">
        <ele>360.094</ele>
        <time>2021-05-27T16:12:53Z</time>
      </trkpt>
      <trkpt lat="42.209313" lon="2.483566">
        <ele>360.069</ele>
        <time>2021-05-27T16:12:55Z</time>
      </trkpt>
      <trkpt lat="42.209331" lon="2.483526">
        <ele>360.004</ele>
        <time>2021-05-27T16:12:57Z</time>
      </trkpt>
      <trkpt lat="42.209339" lon="2.483504">
        <ele>360.024</ele>
        <time>2021-05-27T16:12:58Z</time>
      </trkpt>
      <trkpt lat="42.209349" lon="2.483481">
        <ele>360.008</ele>
        <time>2021-05-27T16:12:59Z</time>
      </trkpt>
      <trkpt lat="42.209357" lon="2.483456">
        <ele>360.093</ele>
        <time>2021-05-27T16:13:00Z</time>
      </trkpt>
      <trkpt lat="42.209371" lon="2.483430">
        <ele>360.070</ele>
        <time>2021-05-27T16:13:01Z</time>
      </trkpt>
      <trkpt lat="42.209384" lon="2.483405">
        <ele>360.038</ele>
        <time>2021-05-27T16:13:02Z</time>
      </trkpt>
      <trkpt lat="42.209393" lon="2.483382">
        <ele>360.098</ele>
        <time>2021-05-27T16:13:03Z</time>
      </trkpt>
      <trkpt lat="42.209405" lon="2.483358">
        <ele>360.055</ele>
        <time>2021-05-27T16:13:04Z</time>
      </trkpt>
      <trkpt lat="42.209418" lon="2.483333">
        <ele>360.030</ele>
        <time>2021-05-27T16:13:05Z</time>
      </trkpt>
      <trkpt lat="42.209430" lon="2.483307">
        <ele>360.043</ele>
        <time>2021-05-27T16:13:06Z</time>
      </trkpt>
      <trkpt lat="42.209439" lon="2.483280">
        <ele>360.029</ele>
        <time>2021-05-27T16:13:07Z</time>
      </trkpt>
      <trkpt lat="42.209450" lon="2.483252">
        <ele>360.038</ele>
        <time>2021-05-27T16:13:08Z</time>
      </trkpt>
      <trkpt lat="42.209459" lon="2.483226">
        <ele>360.070</ele>
        <time>2021-05-27T16:13:09Z</time>
      </trkpt>
      <trkpt lat="42.209468" lon="2.483201">
        <ele>360.017</ele>
        <time>2021-05-27T16:13:10Z</time>
      </trkpt>
      <trkpt lat="42.209478" lon="2.483180">
        <ele>359.908</ele>
        <time>2021-05-27T16:13:11Z</time>
      </trkpt>
      <trkpt lat="42.209489" lon="2.483158">
        <ele>359.910</ele>
        <time>2021-05-27T16:13:12Z</time>
      </trkpt>
      <trkpt lat="42.209500" lon="2.483138">
        <ele>359.927</ele>
        <time>2021-05-27T16:13:13Z</time>
      </trkpt>
      <trkpt lat="42.209522" lon="2.483108">
        <ele>359.895</ele>
        <time>2021-05-27T16:13:15Z</time>
      </trkpt>
      <trkpt lat="42.209548" lon="2.483086">
        <ele>359.715</ele>
        <time>2021-05-27T16:13:17Z</time>
      </trkpt>
      <trkpt lat="42.209568" lon="2.483077">
        <ele>359.682</ele>
        <time>2021-05-27T16:13:18Z</time>
      </trkpt>
      <trkpt lat="42.209589" lon="2.483069">
        <ele>359.517</ele>
        <time>2021-05-27T16:13:19Z</time>
      </trkpt>
      <trkpt lat="42.209609" lon="2.483065">
        <ele>359.410</ele>
        <time>2021-05-27T16:13:20Z</time>
      </trkpt>
      <trkpt lat="42.209629" lon="2.483065">
        <ele>359.416</ele>
        <time>2021-05-27T16:13:21Z</time>
      </trkpt>
      <trkpt lat="42.209649" lon="2.483062">
        <ele>359.371</ele>
        <time>2021-05-27T16:13:22Z</time>
      </trkpt>
      <trkpt lat="42.209667" lon="2.483062">
        <ele>359.241</ele>
        <time>2021-05-27T16:13:23Z</time>
      </trkpt>
      <trkpt lat="42.209697" lon="2.483071">
        <ele>359.115</ele>
        <time>2021-05-27T16:13:25Z</time>
      </trkpt>
      <trkpt lat="42.209716" lon="2.483077">
        <ele>359.108</ele>
        <time>2021-05-27T16:13:26Z</time>
      </trkpt>
      <trkpt lat="42.209737" lon="2.483076">
        <ele>359.084</ele>
        <time>2021-05-27T16:13:27Z</time>
      </trkpt>
      <trkpt lat="42.209759" lon="2.483078">
        <ele>359.031</ele>
        <time>2021-05-27T16:13:28Z</time>
      </trkpt>
      <trkpt lat="42.209780" lon="2.483078">
        <ele>358.939</ele>
        <time>2021-05-27T16:13:29Z</time>
      </trkpt>
      <trkpt lat="42.209818" lon="2.483082">
        <ele>358.859</ele>
        <time>2021-05-27T16:13:31Z</time>
      </trkpt>
      <trkpt lat="42.209839" lon="2.483086">
        <ele>358.746</ele>
        <time>2021-05-27T16:13:32Z</time>
      </trkpt>
      <trkpt lat="42.209858" lon="2.483092">
        <ele>358.781</ele>
        <time>2021-05-27T16:13:33Z</time>
      </trkpt>
      <trkpt lat="42.209898" lon="2.483105">
        <ele>358.784</ele>
        <time>2021-05-27T16:13:35Z</time>
      </trkpt>
      <trkpt lat="42.209920" lon="2.483113">
        <ele>358.620</ele>
        <time>2021-05-27T16:13:36Z</time>
      </trkpt>
      <trkpt lat="42.209943" lon="2.483122">
        <ele>358.612</ele>
        <time>2021-05-27T16:13:37Z</time>
      </trkpt>
      <trkpt lat="42.209963" lon="2.483131">
        <ele>358.632</ele>
        <time>2021-05-27T16:13:38Z</time>
      </trkpt>
      <trkpt lat="42.209986" lon="2.483138">
        <ele>358.605</ele>
        <time>2021-05-27T16:13:39Z</time>
      </trkpt>
      <trkpt lat="42.210007" lon="2.483145">
        <ele>358.608</ele>
        <time>2021-05-27T16:13:40Z</time>
      </trkpt>
      <trkpt lat="42.210028" lon="2.483156">
        <ele>358.648</ele>
        <time>2021-05-27T16:13:41Z</time>
      </trkpt>
      <trkpt lat="42.210066" lon="2.483168">
        <ele>358.595</ele>
        <time>2021-05-27T16:13:43Z</time>
      </trkpt>
      <trkpt lat="42.210087" lon="2.483176">
        <ele>358.443</ele>
        <time>2021-05-27T16:13:44Z</time>
      </trkpt>
      <trkpt lat="42.210107" lon="2.483183">
        <ele>358.453</ele>
        <time>2021-05-27T16:13:45Z</time>
      </trkpt>
      <trkpt lat="42.210130" lon="2.483191">
        <ele>358.350</ele>
        <time>2021-05-27T16:13:46Z</time>
      </trkpt>
      <trkpt lat="42.210153" lon="2.483198">
        <ele>358.275</ele>
        <time>2021-05-27T16:13:47Z</time>
      </trkpt>
      <trkpt lat="42.210175" lon="2.483206">
        <ele>358.198</ele>
        <time>2021-05-27T16:13:48Z</time>
      </trkpt>
      <trkpt lat="42.210193" lon="2.483208">
        <ele>358.094</ele>
        <time>2021-05-27T16:13:49Z</time>
      </trkpt>
      <trkpt lat="42.210214" lon="2.483211">
        <ele>357.976</ele>
        <time>2021-05-27T16:13:50Z</time>
      </trkpt>
      <trkpt lat="42.210236" lon="2.483217">
        <ele>357.890</ele>
        <time>2021-05-27T16:13:51Z</time>
      </trkpt>
      <trkpt lat="42.210254" lon="2.483221">
        <ele>357.719</ele>
        <time>2021-05-27T16:13:52Z</time>
      </trkpt>
      <trkpt lat="42.210273" lon="2.483227">
        <ele>357.608</ele>
        <time>2021-05-27T16:13:53Z</time>
      </trkpt>
      <trkpt lat="42.210292" lon="2.483232">
        <ele>357.664</ele>
        <time>2021-05-27T16:13:54Z</time>
      </trkpt>
      <trkpt lat="42.210311" lon="2.483236">
        <ele>357.681</ele>
        <time>2021-05-27T16:13:55Z</time>
      </trkpt>
      <trkpt lat="42.210332" lon="2.483242">
        <ele>357.559</ele>
        <time>2021-05-27T16:13:56Z</time>
      </trkpt>
      <trkpt lat="42.210350" lon="2.483251">
        <ele>357.549</ele>
        <time>2021-05-27T16:13:57Z</time>
      </trkpt>
      <trkpt lat="42.210370" lon="2.483259">
        <ele>357.566</ele>
        <time>2021-05-27T16:13:58Z</time>
      </trkpt>
      <trkpt lat="42.210391" lon="2.483265">
        <ele>357.431</ele>
        <time>2021-05-27T16:13:59Z</time>
      </trkpt>
      <trkpt lat="42.210411" lon="2.483271">
        <ele>357.464</ele>
        <time>2021-05-27T16:14:00Z</time>
      </trkpt>
      <trkpt lat="42.210432" lon="2.483277">
        <ele>357.450</ele>
        <time>2021-05-27T16:14:01Z</time>
      </trkpt>
      <trkpt lat="42.210452" lon="2.483283">
        <ele>357.324</ele>
        <time>2021-05-27T16:14:02Z</time>
      </trkpt>
      <trkpt lat="42.210476" lon="2.483290">
        <ele>357.204</ele>
        <time>2021-05-27T16:14:03Z</time>
      </trkpt>
      <trkpt lat="42.210498" lon="2.483293">
        <ele>357.214</ele>
        <time>2021-05-27T16:14:04Z</time>
      </trkpt>
      <trkpt lat="42.210518" lon="2.483296">
        <ele>357.108</ele>
        <time>2021-05-27T16:14:05Z</time>
      </trkpt>
      <trkpt lat="42.210538" lon="2.483298">
        <ele>357.179</ele>
        <time>2021-05-27T16:14:06Z</time>
      </trkpt>
      <trkpt lat="42.210560" lon="2.483299">
        <ele>357.046</ele>
        <time>2021-05-27T16:14:07Z</time>
      </trkpt>
      <trkpt lat="42.210581" lon="2.483301">
        <ele>357.034</ele>
        <time>2021-05-27T16:14:08Z</time>
      </trkpt>
      <trkpt lat="42.210603" lon="2.483303">
        <ele>357.054</ele>
        <time>2021-05-27T16:14:09Z</time>
      </trkpt>
      <trkpt lat="42.210625" lon="2.483304">
        <ele>357.061</ele>
        <time>2021-05-27T16:14:10Z</time>
      </trkpt>
      <trkpt lat="42.210644" lon="2.483306">
        <ele>357.076</ele>
        <time>2021-05-27T16:14:11Z</time>
      </trkpt>
      <trkpt lat="42.210664" lon="2.483308">
        <ele>357.099</ele>
        <time>2021-05-27T16:14:12Z</time>
      </trkpt>
      <trkpt lat="42.210685" lon="2.483308">
        <ele>357.035</ele>
        <time>2021-05-27T16:14:13Z</time>
      </trkpt>
      <trkpt lat="42.210713" lon="2.483310">
        <ele>357.017</ele>
        <time>2021-05-27T16:14:15Z</time>
      </trkpt>
      <trkpt lat="42.210748" lon="2.483311">
        <ele>357.087</ele>
        <time>2021-05-27T16:14:17Z</time>
      </trkpt>
      <trkpt lat="42.210778" lon="2.483309">
        <ele>357.015</ele>
        <time>2021-05-27T16:14:19Z</time>
      </trkpt>
      <trkpt lat="42.210814" lon="2.483301">
        <ele>357.008</ele>
        <time>2021-05-27T16:14:21Z</time>
      </trkpt>
      <trkpt lat="42.210834" lon="2.483297">
        <ele>357.068</ele>
        <time>2021-05-27T16:14:22Z</time>
      </trkpt>
      <trkpt lat="42.210852" lon="2.483295">
        <ele>356.915</ele>
        <time>2021-05-27T16:14:23Z</time>
      </trkpt>
      <trkpt lat="42.210871" lon="2.483294">
        <ele>356.993</ele>
        <time>2021-05-27T16:14:24Z</time>
      </trkpt>
      <trkpt lat="42.210892" lon="2.483294">
        <ele>356.853</ele>
        <time>2021-05-27T16:14:25Z</time>
      </trkpt>
      <trkpt lat="42.210912" lon="2.483293">
        <ele>356.730</ele>
        <time>2021-05-27T16:14:26Z</time>
      </trkpt>
      <trkpt lat="42.210931" lon="2.483293">
        <ele>356.655</ele>
        <time>2021-05-27T16:14:27Z</time>
      </trkpt>
      <trkpt lat="42.210967" lon="2.483295">
        <ele>356.538</ele>
        <time>2021-05-27T16:14:29Z</time>
      </trkpt>
      <trkpt lat="42.210989" lon="2.483294">
        <ele>356.454</ele>
        <time>2021-05-27T16:14:30Z</time>
      </trkpt>
      <trkpt lat="42.211010" lon="2.483292">
        <ele>356.487</ele>
        <time>2021-05-27T16:14:31Z</time>
      </trkpt>
      <trkpt lat="42.211029" lon="2.483288">
        <ele>356.342</ele>
        <time>2021-05-27T16:14:32Z</time>
      </trkpt>
      <trkpt lat="42.211048" lon="2.483288">
        <ele>356.226</ele>
        <time>2021-05-27T16:14:33Z</time>
      </trkpt>
      <trkpt lat="42.211067" lon="2.483290">
        <ele>356.208</ele>
        <time>2021-05-27T16:14:34Z</time>
      </trkpt>
      <trkpt lat="42.211088" lon="2.483290">
        <ele>356.145</ele>
        <time>2021-05-27T16:14:35Z</time>
      </trkpt>
      <trkpt lat="42.211107" lon="2.483289">
        <ele>356.032</ele>
        <time>2021-05-27T16:14:36Z</time>
      </trkpt>
      <trkpt lat="42.211127" lon="2.483287">
        <ele>355.920</ele>
        <time>2021-05-27T16:14:37Z</time>
      </trkpt>
      <trkpt lat="42.211147" lon="2.483284">
        <ele>355.910</ele>
        <time>2021-05-27T16:14:38Z</time>
      </trkpt>
      <trkpt lat="42.211169" lon="2.483283">
        <ele>355.867</ele>
        <time>2021-05-27T16:14:39Z</time>
      </trkpt>
      <trkpt lat="42.211190" lon="2.483280">
        <ele>355.712</ele>
        <time>2021-05-27T16:14:40Z</time>
      </trkpt>
      <trkpt lat="42.211211" lon="2.483278">
        <ele>355.675</ele>
        <time>2021-05-27T16:14:41Z</time>
      </trkpt>
      <trkpt lat="42.211233" lon="2.483274">
        <ele>355.671</ele>
        <time>2021-05-27T16:14:42Z</time>
      </trkpt>
      <trkpt lat="42.211253" lon="2.483272">
        <ele>355.522</ele>
        <time>2021-05-27T16:14:43Z</time>
      </trkpt>
      <trkpt lat="42.211274" lon="2.483268">
        <ele>355.462</ele>
        <time>2021-05-27T16:14:44Z</time>
      </trkpt>
      <trkpt lat="42.211295" lon="2.483266">
        <ele>355.308</ele>
        <time>2021-05-27T16:14:45Z</time>
      </trkpt>
      <trkpt lat="42.211332" lon="2.483255">
        <ele>355.208</ele>
        <time>2021-05-27T16:14:47Z</time>
      </trkpt>
      <trkpt lat="42.211352" lon="2.483251">
        <ele>355.189</ele>
        <time>2021-05-27T16:14:48Z</time>
      </trkpt>
      <trkpt lat="42.211372" lon="2.483247">
        <ele>355.116</ele>
        <time>2021-05-27T16:14:49Z</time>
      </trkpt>
      <trkpt lat="42.211396" lon="2.483241">
        <ele>355.054</ele>
        <time>2021-05-27T16:14:50Z</time>
      </trkpt>
      <trkpt lat="42.211418" lon="2.483240">
        <ele>354.944</ele>
        <time>2021-05-27T16:14:51Z</time>
      </trkpt>
      <trkpt lat="42.211441" lon="2.483236">
        <ele>354.761</ele>
        <time>2021-05-27T16:14:52Z</time>
      </trkpt>
      <trkpt lat="42.211463" lon="2.483230">
        <ele>354.686</ele>
        <time>2021-05-27T16:14:53Z</time>
      </trkpt>
      <trkpt lat="42.211485" lon="2.483226">
        <ele>354.559</ele>
        <time>2021-05-27T16:14:54Z</time>
      </trkpt>
      <trkpt lat="42.211508" lon="2.483223">
        <ele>354.435</ele>
        <time>2021-05-27T16:14:55Z</time>
      </trkpt>
      <trkpt lat="42.211530" lon="2.483216">
        <ele>354.347</ele>
        <time>2021-05-27T16:14:56Z</time>
      </trkpt>
      <trkpt lat="42.211553" lon="2.483211">
        <ele>354.129</ele>
        <time>2021-05-27T16:14:57Z</time>
      </trkpt>
      <trkpt lat="42.211574" lon="2.483207">
        <ele>354.021</ele>
        <time>2021-05-27T16:14:58Z</time>
      </trkpt>
      <trkpt lat="42.211595" lon="2.483204">
        <ele>353.908</ele>
        <time>2021-05-27T16:14:59Z</time>
      </trkpt>
      <trkpt lat="42.211617" lon="2.483200">
        <ele>353.841</ele>
        <time>2021-05-27T16:15:00Z</time>
      </trkpt>
      <trkpt lat="42.211640" lon="2.483193">
        <ele>353.678</ele>
        <time>2021-05-27T16:15:01Z</time>
      </trkpt>
      <trkpt lat="42.211663" lon="2.483185">
        <ele>353.526</ele>
        <time>2021-05-27T16:15:02Z</time>
      </trkpt>
      <trkpt lat="42.211683" lon="2.483175">
        <ele>353.446</ele>
        <time>2021-05-27T16:15:03Z</time>
      </trkpt>
      <trkpt lat="42.211705" lon="2.483169">
        <ele>353.313</ele>
        <time>2021-05-27T16:15:04Z</time>
      </trkpt>
      <trkpt lat="42.211727" lon="2.483169">
        <ele>353.278</ele>
        <time>2021-05-27T16:15:05Z</time>
      </trkpt>
      <trkpt lat="42.211749" lon="2.483161">
        <ele>353.191</ele>
        <time>2021-05-27T16:15:06Z</time>
      </trkpt>
      <trkpt lat="42.211772" lon="2.483154">
        <ele>353.077</ele>
        <time>2021-05-27T16:15:07Z</time>
      </trkpt>
      <trkpt lat="42.211794" lon="2.483148">
        <ele>352.942</ele>
        <time>2021-05-27T16:15:08Z</time>
      </trkpt>
      <trkpt lat="42.211816" lon="2.483142">
        <ele>352.822</ele>
        <time>2021-05-27T16:15:09Z</time>
      </trkpt>
      <trkpt lat="42.211840" lon="2.483138">
        <ele>352.714</ele>
        <time>2021-05-27T16:15:10Z</time>
      </trkpt>
      <trkpt lat="42.211861" lon="2.483130">
        <ele>352.608</ele>
        <time>2021-05-27T16:15:11Z</time>
      </trkpt>
      <trkpt lat="42.211895" lon="2.483113">
        <ele>352.451</ele>
        <time>2021-05-27T16:15:13Z</time>
      </trkpt>
      <trkpt lat="42.211914" lon="2.483109">
        <ele>352.398</ele>
        <time>2021-05-27T16:15:14Z</time>
      </trkpt>
      <trkpt lat="42.211934" lon="2.483105">
        <ele>352.236</ele>
        <time>2021-05-27T16:15:15Z</time>
      </trkpt>
      <trkpt lat="42.211959" lon="2.483101">
        <ele>352.126</ele>
        <time>2021-05-27T16:15:16Z</time>
      </trkpt>
      <trkpt lat="42.211981" lon="2.483095">
        <ele>352.113</ele>
        <time>2021-05-27T16:15:17Z</time>
      </trkpt>
      <trkpt lat="42.211999" lon="2.483090">
        <ele>352.038</ele>
        <time>2021-05-27T16:15:18Z</time>
      </trkpt>
      <trkpt lat="42.212017" lon="2.483088">
        <ele>352.081</ele>
        <time>2021-05-27T16:15:19Z</time>
      </trkpt>
      <trkpt lat="42.212037" lon="2.483089">
        <ele>352.097</ele>
        <time>2021-05-27T16:15:20Z</time>
      </trkpt>
      <trkpt lat="42.212055" lon="2.483087">
        <ele>351.955</ele>
        <time>2021-05-27T16:15:21Z</time>
      </trkpt>
      <trkpt lat="42.212074" lon="2.483087">
        <ele>351.907</ele>
        <time>2021-05-27T16:15:22Z</time>
      </trkpt>
      <trkpt lat="42.212094" lon="2.483088">
        <ele>351.917</ele>
        <time>2021-05-27T16:15:23Z</time>
      </trkpt>
      <trkpt lat="42.212112" lon="2.483089">
        <ele>351.808</ele>
        <time>2021-05-27T16:15:24Z</time>
      </trkpt>
      <trkpt lat="42.212148" lon="2.483080">
        <ele>351.892</ele>
        <time>2021-05-27T16:15:26Z</time>
      </trkpt>
      <trkpt lat="42.212185" lon="2.483069">
        <ele>351.989</ele>
        <time>2021-05-27T16:15:28Z</time>
      </trkpt>
      <trkpt lat="42.212206" lon="2.483063">
        <ele>351.927</ele>
        <time>2021-05-27T16:15:29Z</time>
      </trkpt>
      <trkpt lat="42.212243" lon="2.483051">
        <ele>352.017</ele>
        <time>2021-05-27T16:15:31Z</time>
      </trkpt>
      <trkpt lat="42.212266" lon="2.483044">
        <ele>352.024</ele>
        <time>2021-05-27T16:15:32Z</time>
      </trkpt>
      <trkpt lat="42.212291" lon="2.483036">
        <ele>352.059</ele>
        <time>2021-05-27T16:15:33Z</time>
      </trkpt>
      <trkpt lat="42.212314" lon="2.483025">
        <ele>352.062</ele>
        <time>2021-05-27T16:15:34Z</time>
      </trkpt>
      <trkpt lat="42.212337" lon="2.483016">
        <ele>352.098</ele>
        <time>2021-05-27T16:15:35Z</time>
      </trkpt>
      <trkpt lat="42.212357" lon="2.483006">
        <ele>352.053</ele>
        <time>2021-05-27T16:15:36Z</time>
      </trkpt>
      <trkpt lat="42.212377" lon="2.482994">
        <ele>352.004</ele>
        <time>2021-05-27T16:15:37Z</time>
      </trkpt>
      <trkpt lat="42.212399" lon="2.482981">
        <ele>352.014</ele>
        <time>2021-05-27T16:15:38Z</time>
      </trkpt>
      <trkpt lat="42.212413" lon="2.482963">
        <ele>352.008</ele>
        <time>2021-05-27T16:15:39Z</time>
      </trkpt>
      <trkpt lat="42.212448" lon="2.482927">
        <ele>352.092</ele>
        <time>2021-05-27T16:15:41Z</time>
      </trkpt>
      <trkpt lat="42.212465" lon="2.482917">
        <ele>352.029</ele>
        <time>2021-05-27T16:15:42Z</time>
      </trkpt>
      <trkpt lat="42.212484" lon="2.482912">
        <ele>352.017</ele>
        <time>2021-05-27T16:15:43Z</time>
      </trkpt>
      <trkpt lat="42.212505" lon="2.482899">
        <ele>352.027</ele>
        <time>2021-05-27T16:15:44Z</time>
      </trkpt>
      <trkpt lat="42.212520" lon="2.482877">
        <ele>352.014</ele>
        <time>2021-05-27T16:15:45Z</time>
      </trkpt>
      <trkpt lat="42.212536" lon="2.482855">
        <ele>352.029</ele>
        <time>2021-05-27T16:15:46Z</time>
      </trkpt>
      <trkpt lat="42.212548" lon="2.482831">
        <ele>352.072</ele>
        <time>2021-05-27T16:15:47Z</time>
      </trkpt>
      <trkpt lat="42.212560" lon="2.482808">
        <ele>352.028</ele>
        <time>2021-05-27T16:15:48Z</time>
      </trkpt>
      <trkpt lat="42.212570" lon="2.482785">
        <ele>352.025</ele>
        <time>2021-05-27T16:15:49Z</time>
      </trkpt>
      <trkpt lat="42.212583" lon="2.482761">
        <ele>352.026</ele>
        <time>2021-05-27T16:15:50Z</time>
      </trkpt>
      <trkpt lat="42.212595" lon="2.482737">
        <ele>352.008</ele>
        <time>2021-05-27T16:15:51Z</time>
      </trkpt>
      <trkpt lat="42.212607" lon="2.482713">
        <ele>352.008</ele>
        <time>2021-05-27T16:15:52Z</time>
      </trkpt>
      <trkpt lat="42.212619" lon="2.482687">
        <ele>352.049</ele>
        <time>2021-05-27T16:15:53Z</time>
      </trkpt>
      <trkpt lat="42.212632" lon="2.482664">
        <ele>352.066</ele>
        <time>2021-05-27T16:15:54Z</time>
      </trkpt>
      <trkpt lat="42.212645" lon="2.482642">
        <ele>352.054</ele>
        <time>2021-05-27T16:15:55Z</time>
      </trkpt>
      <trkpt lat="42.212654" lon="2.482619">
        <ele>352.044</ele>
        <time>2021-05-27T16:15:56Z</time>
      </trkpt>
      <trkpt lat="42.212663" lon="2.482595">
        <ele>352.081</ele>
        <time>2021-05-27T16:15:57Z</time>
      </trkpt>
      <trkpt lat="42.212672" lon="2.482570">
        <ele>352.076</ele>
        <time>2021-05-27T16:15:58Z</time>
      </trkpt>
      <trkpt lat="42.212693" lon="2.482520">
        <ele>352.079</ele>
        <time>2021-05-27T16:16:00Z</time>
      </trkpt>
      <trkpt lat="42.212703" lon="2.482497">
        <ele>352.055</ele>
        <time>2021-05-27T16:16:01Z</time>
      </trkpt>
      <trkpt lat="42.212712" lon="2.482472">
        <ele>352.136</ele>
        <time>2021-05-27T16:16:02Z</time>
      </trkpt>
      <trkpt lat="42.212719" lon="2.482447">
        <ele>352.217</ele>
        <time>2021-05-27T16:16:03Z</time>
      </trkpt>
      <trkpt lat="42.212729" lon="2.482424">
        <ele>352.318</ele>
        <time>2021-05-27T16:16:04Z</time>
      </trkpt>
      <trkpt lat="42.212738" lon="2.482400">
        <ele>352.408</ele>
        <time>2021-05-27T16:16:05Z</time>
      </trkpt>
      <trkpt lat="42.212747" lon="2.482377">
        <ele>352.490</ele>
        <time>2021-05-27T16:16:06Z</time>
      </trkpt>
      <trkpt lat="42.212757" lon="2.482353">
        <ele>352.527</ele>
        <time>2021-05-27T16:16:07Z</time>
      </trkpt>
      <trkpt lat="42.212762" lon="2.482330">
        <ele>352.685</ele>
        <time>2021-05-27T16:16:08Z</time>
      </trkpt>
      <trkpt lat="42.212775" lon="2.482286">
        <ele>352.885</ele>
        <time>2021-05-27T16:16:10Z</time>
      </trkpt>
      <trkpt lat="42.212788" lon="2.482243">
        <ele>352.932</ele>
        <time>2021-05-27T16:16:12Z</time>
      </trkpt>
      <trkpt lat="42.212799" lon="2.482201">
        <ele>352.987</ele>
        <time>2021-05-27T16:16:14Z</time>
      </trkpt>
      <trkpt lat="42.212805" lon="2.482160">
        <ele>352.960</ele>
        <time>2021-05-27T16:16:16Z</time>
      </trkpt>
      <trkpt lat="42.212813" lon="2.482135">
        <ele>352.936</ele>
        <time>2021-05-27T16:16:17Z</time>
      </trkpt>
      <trkpt lat="42.212819" lon="2.482110">
        <ele>352.988</ele>
        <time>2021-05-27T16:16:18Z</time>
      </trkpt>
      <trkpt lat="42.212827" lon="2.482087">
        <ele>352.824</ele>
        <time>2021-05-27T16:16:19Z</time>
      </trkpt>
      <trkpt lat="42.212835" lon="2.482065">
        <ele>352.826</ele>
        <time>2021-05-27T16:16:20Z</time>
      </trkpt>
      <trkpt lat="42.212846" lon="2.482043">
        <ele>352.808</ele>
        <time>2021-05-27T16:16:21Z</time>
      </trkpt>
      <trkpt lat="42.212858" lon="2.482023">
        <ele>352.775</ele>
        <time>2021-05-27T16:16:22Z</time>
      </trkpt>
      <trkpt lat="42.212876" lon="2.481983">
        <ele>352.682</ele>
        <time>2021-05-27T16:16:24Z</time>
      </trkpt>
      <trkpt lat="42.212887" lon="2.481962">
        <ele>352.680</ele>
        <time>2021-05-27T16:16:25Z</time>
      </trkpt>
      <trkpt lat="42.212896" lon="2.481940">
        <ele>352.690</ele>
        <time>2021-05-27T16:16:26Z</time>
      </trkpt>
      <trkpt lat="42.212905" lon="2.481918">
        <ele>352.567</ele>
        <time>2021-05-27T16:16:27Z</time>
      </trkpt>
      <trkpt lat="42.212921" lon="2.481875">
        <ele>352.572</ele>
        <time>2021-05-27T16:16:29Z</time>
      </trkpt>
      <trkpt lat="42.212929" lon="2.481852">
        <ele>352.515</ele>
        <time>2021-05-27T16:16:30Z</time>
      </trkpt>
      <trkpt lat="42.212936" lon="2.481827">
        <ele>352.491</ele>
        <time>2021-05-27T16:16:31Z</time>
      </trkpt>
      <trkpt lat="42.212946" lon="2.481802">
        <ele>352.491</ele>
        <time>2021-05-27T16:16:32Z</time>
      </trkpt>
      <trkpt lat="42.212953" lon="2.481778">
        <ele>352.481</ele>
        <time>2021-05-27T16:16:33Z</time>
      </trkpt>
      <trkpt lat="42.212962" lon="2.481755">
        <ele>352.319</ele>
        <time>2021-05-27T16:16:34Z</time>
      </trkpt>
      <trkpt lat="42.212971" lon="2.481729">
        <ele>352.308</ele>
        <time>2021-05-27T16:16:35Z</time>
      </trkpt>
      <trkpt lat="42.212978" lon="2.481703">
        <ele>352.386</ele>
        <time>2021-05-27T16:16:36Z</time>
      </trkpt>
      <trkpt lat="42.212985" lon="2.481678">
        <ele>352.313</ele>
        <time>2021-05-27T16:16:37Z</time>
      </trkpt>
      <trkpt lat="42.212992" lon="2.481655">
        <ele>352.311</ele>
        <time>2021-05-27T16:16:38Z</time>
      </trkpt>
      <trkpt lat="42.213001" lon="2.481632">
        <ele>352.391</ele>
        <time>2021-05-27T16:16:39Z</time>
      </trkpt>
      <trkpt lat="42.213008" lon="2.481608">
        <ele>352.498</ele>
        <time>2021-05-27T16:16:40Z</time>
      </trkpt>
      <trkpt lat="42.213016" lon="2.481585">
        <ele>352.413</ele>
        <time>2021-05-27T16:16:41Z</time>
      </trkpt>
      <trkpt lat="42.213021" lon="2.481562">
        <ele>352.546</ele>
        <time>2021-05-27T16:16:42Z</time>
      </trkpt>
      <trkpt lat="42.213036" lon="2.481518">
        <ele>352.692</ele>
        <time>2021-05-27T16:16:44Z</time>
      </trkpt>
      <trkpt lat="42.213048" lon="2.481497">
        <ele>352.664</ele>
        <time>2021-05-27T16:16:45Z</time>
      </trkpt>
      <trkpt lat="42.213059" lon="2.481476">
        <ele>352.606</ele>
        <time>2021-05-27T16:16:46Z</time>
      </trkpt>
      <trkpt lat="42.213069" lon="2.481454">
        <ele>352.616</ele>
        <time>2021-05-27T16:16:47Z</time>
      </trkpt>
      <trkpt lat="42.213078" lon="2.481433">
        <ele>352.508</ele>
        <time>2021-05-27T16:16:48Z</time>
      </trkpt>
      <trkpt lat="42.213091" lon="2.481411">
        <ele>352.453</ele>
        <time>2021-05-27T16:16:49Z</time>
      </trkpt>
      <trkpt lat="42.213106" lon="2.481370">
        <ele>352.360</ele>
        <time>2021-05-27T16:16:51Z</time>
      </trkpt>
      <trkpt lat="42.213115" lon="2.481348">
        <ele>352.258</ele>
        <time>2021-05-27T16:16:52Z</time>
      </trkpt>
      <trkpt lat="42.213125" lon="2.481327">
        <ele>352.118</ele>
        <time>2021-05-27T16:16:53Z</time>
      </trkpt>
      <trkpt lat="42.213135" lon="2.481307">
        <ele>352.085</ele>
        <time>2021-05-27T16:16:54Z</time>
      </trkpt>
      <trkpt lat="42.213155" lon="2.481267">
        <ele>351.940</ele>
        <time>2021-05-27T16:16:56Z</time>
      </trkpt>
      <trkpt lat="42.213165" lon="2.481247">
        <ele>351.873</ele>
        <time>2021-05-27T16:16:57Z</time>
      </trkpt>
      <trkpt lat="42.213178" lon="2.481226">
        <ele>351.839</ele>
        <time>2021-05-27T16:16:58Z</time>
      </trkpt>
      <trkpt lat="42.213191" lon="2.481204">
        <ele>351.733</ele>
        <time>2021-05-27T16:16:59Z</time>
      </trkpt>
      <trkpt lat="42.213202" lon="2.481184">
        <ele>351.723</ele>
        <time>2021-05-27T16:17:00Z</time>
      </trkpt>
      <trkpt lat="42.213214" lon="2.481164">
        <ele>351.615</ele>
        <time>2021-05-27T16:17:01Z</time>
      </trkpt>
      <trkpt lat="42.213229" lon="2.481143">
        <ele>351.608</ele>
        <time>2021-05-27T16:17:02Z</time>
      </trkpt>
      <trkpt lat="42.213244" lon="2.481121">
        <ele>351.670</ele>
        <time>2021-05-27T16:17:03Z</time>
      </trkpt>
      <trkpt lat="42.213255" lon="2.481098">
        <ele>351.627</ele>
        <time>2021-05-27T16:17:04Z</time>
      </trkpt>
      <trkpt lat="42.213267" lon="2.481075">
        <ele>351.655</ele>
        <time>2021-05-27T16:17:05Z</time>
      </trkpt>
      <trkpt lat="42.213277" lon="2.481053">
        <ele>351.625</ele>
        <time>2021-05-27T16:17:06Z</time>
      </trkpt>
      <trkpt lat="42.213290" lon="2.481029">
        <ele>351.662</ele>
        <time>2021-05-27T16:17:07Z</time>
      </trkpt>
      <trkpt lat="42.213301" lon="2.481005">
        <ele>351.667</ele>
        <time>2021-05-27T16:17:08Z</time>
      </trkpt>
      <trkpt lat="42.213314" lon="2.480982">
        <ele>351.690</ele>
        <time>2021-05-27T16:17:09Z</time>
      </trkpt>
      <trkpt lat="42.213326" lon="2.480956">
        <ele>351.656</ele>
        <time>2021-05-27T16:17:10Z</time>
      </trkpt>
      <trkpt lat="42.213336" lon="2.480930">
        <ele>351.684</ele>
        <time>2021-05-27T16:17:11Z</time>
      </trkpt>
      <trkpt lat="42.213343" lon="2.480906">
        <ele>351.507</ele>
        <time>2021-05-27T16:17:12Z</time>
      </trkpt>
      <trkpt lat="42.213354" lon="2.480880">
        <ele>351.317</ele>
        <time>2021-05-27T16:17:13Z</time>
      </trkpt>
      <trkpt lat="42.213365" lon="2.480854">
        <ele>351.108</ele>
        <time>2021-05-27T16:17:14Z</time>
      </trkpt>
      <trkpt lat="42.213376" lon="2.480829">
        <ele>350.935</ele>
        <time>2021-05-27T16:17:15Z</time>
      </trkpt>
      <trkpt lat="42.213396" lon="2.480782">
        <ele>350.482</ele>
        <time>2021-05-27T16:17:17Z</time>
      </trkpt>
      <trkpt lat="42.213409" lon="2.480758">
        <ele>350.120</ele>
        <time>2021-05-27T16:17:18Z</time>
      </trkpt>
      <trkpt lat="42.213420" lon="2.480734">
        <ele>349.820</ele>
        <time>2021-05-27T16:17:19Z</time>
      </trkpt>
      <trkpt lat="42.213432" lon="2.480711">
        <ele>349.587</ele>
        <time>2021-05-27T16:17:20Z</time>
      </trkpt>
      <trkpt lat="42.213443" lon="2.480683">
        <ele>349.282</ele>
        <time>2021-05-27T16:17:21Z</time>
      </trkpt>
      <trkpt lat="42.213453" lon="2.480658">
        <ele>349.065</ele>
        <time>2021-05-27T16:17:22Z</time>
      </trkpt>
      <trkpt lat="42.213460" lon="2.480630">
        <ele>348.841</ele>
        <time>2021-05-27T16:17:23Z</time>
      </trkpt>
      <trkpt lat="42.213463" lon="2.480599">
        <ele>348.745</ele>
        <time>2021-05-27T16:17:24Z</time>
      </trkpt>
      <trkpt lat="42.213466" lon="2.480568">
        <ele>348.747</ele>
        <time>2021-05-27T16:17:25Z</time>
      </trkpt>
      <trkpt lat="42.213469" lon="2.480542">
        <ele>348.611</ele>
        <time>2021-05-27T16:17:26Z</time>
      </trkpt>
      <trkpt lat="42.213477" lon="2.480514">
        <ele>348.508</ele>
        <time>2021-05-27T16:17:27Z</time>
      </trkpt>
      <trkpt lat="42.213482" lon="2.480486">
        <ele>348.431</ele>
        <time>2021-05-27T16:17:28Z</time>
      </trkpt>
      <trkpt lat="42.213492" lon="2.480462">
        <ele>348.238</ele>
        <time>2021-05-27T16:17:29Z</time>
      </trkpt>
      <trkpt lat="42.213500" lon="2.480416">
        <ele>348.166</ele>
        <time>2021-05-27T16:17:31Z</time>
      </trkpt>
      <trkpt lat="42.213507" lon="2.480390">
        <ele>348.036</ele>
        <time>2021-05-27T16:17:32Z</time>
      </trkpt>
      <trkpt lat="42.213516" lon="2.480368">
        <ele>347.833</ele>
        <time>2021-05-27T16:17:33Z</time>
      </trkpt>
      <trkpt lat="42.213526" lon="2.480344">
        <ele>347.778</ele>
        <time>2021-05-27T16:17:34Z</time>
      </trkpt>
      <trkpt lat="42.213534" lon="2.480322">
        <ele>347.611</ele>
        <time>2021-05-27T16:17:35Z</time>
      </trkpt>
      <trkpt lat="42.213541" lon="2.480300">
        <ele>347.527</ele>
        <time>2021-05-27T16:17:36Z</time>
      </trkpt>
      <trkpt lat="42.213551" lon="2.480256">
        <ele>347.432</ele>
        <time>2021-05-27T16:17:38Z</time>
      </trkpt>
      <trkpt lat="42.213561" lon="2.480233">
        <ele>347.292</ele>
        <time>2021-05-27T16:17:39Z</time>
      </trkpt>
      <trkpt lat="42.213577" lon="2.480189">
        <ele>347.011</ele>
        <time>2021-05-27T16:17:41Z</time>
      </trkpt>
      <trkpt lat="42.213586" lon="2.480166">
        <ele>346.908</ele>
        <time>2021-05-27T16:17:42Z</time>
      </trkpt>
      <trkpt lat="42.213594" lon="2.480140">
        <ele>346.840</ele>
        <time>2021-05-27T16:17:43Z</time>
      </trkpt>
      <trkpt lat="42.213605" lon="2.480115">
        <ele>346.797</ele>
        <time>2021-05-27T16:17:44Z</time>
      </trkpt>
      <trkpt lat="42.213615" lon="2.480089">
        <ele>346.695</ele>
        <time>2021-05-27T16:17:45Z</time>
      </trkpt>
      <trkpt lat="42.213624" lon="2.480067">
        <ele>346.495</ele>
        <time>2021-05-27T16:17:46Z</time>
      </trkpt>
      <trkpt lat="42.213632" lon="2.480042">
        <ele>346.322</ele>
        <time>2021-05-27T16:17:47Z</time>
      </trkpt>
      <trkpt lat="42.213638" lon="2.480017">
        <ele>346.247</ele>
        <time>2021-05-27T16:17:48Z</time>
      </trkpt>
      <trkpt lat="42.213654" lon="2.479976">
        <ele>345.820</ele>
        <time>2021-05-27T16:17:50Z</time>
      </trkpt>
      <trkpt lat="42.213664" lon="2.479952">
        <ele>345.596</ele>
        <time>2021-05-27T16:17:51Z</time>
      </trkpt>
      <trkpt lat="42.213678" lon="2.479926">
        <ele>345.112</ele>
        <time>2021-05-27T16:17:52Z</time>
      </trkpt>
      <trkpt lat="42.213691" lon="2.479900">
        <ele>344.832</ele>
        <time>2021-05-27T16:17:53Z</time>
      </trkpt>
      <trkpt lat="42.213697" lon="2.479876">
        <ele>344.705</ele>
        <time>2021-05-27T16:17:54Z</time>
      </trkpt>
      <trkpt lat="42.213702" lon="2.479852">
        <ele>344.608</ele>
        <time>2021-05-27T16:17:55Z</time>
      </trkpt>
      <trkpt lat="42.213708" lon="2.479825">
        <ele>344.488</ele>
        <time>2021-05-27T16:17:56Z</time>
      </trkpt>
      <trkpt lat="42.213722" lon="2.479798">
        <ele>344.165</ele>
        <time>2021-05-27T16:17:57Z</time>
      </trkpt>
      <trkpt lat="42.213734" lon="2.479769">
        <ele>343.893</ele>
        <time>2021-05-27T16:17:58Z</time>
      </trkpt>
      <trkpt lat="42.213746" lon="2.479739">
        <ele>343.683</ele>
        <time>2021-05-27T16:17:59Z</time>
      </trkpt>
      <trkpt lat="42.213757" lon="2.479711">
        <ele>343.490</ele>
        <time>2021-05-27T16:18:00Z</time>
      </trkpt>
      <trkpt lat="42.213762" lon="2.479684">
        <ele>343.355</ele>
        <time>2021-05-27T16:18:01Z</time>
      </trkpt>
      <trkpt lat="42.213772" lon="2.479654">
        <ele>343.268</ele>
        <time>2021-05-27T16:18:02Z</time>
      </trkpt>
      <trkpt lat="42.213785" lon="2.479628">
        <ele>343.084</ele>
        <time>2021-05-27T16:18:03Z</time>
      </trkpt>
      <trkpt lat="42.213793" lon="2.479603">
        <ele>342.887</ele>
        <time>2021-05-27T16:18:04Z</time>
      </trkpt>
      <trkpt lat="42.213800" lon="2.479578">
        <ele>342.842</ele>
        <time>2021-05-27T16:18:05Z</time>
      </trkpt>
      <trkpt lat="42.213811" lon="2.479554">
        <ele>342.626</ele>
        <time>2021-05-27T16:18:06Z</time>
      </trkpt>
      <trkpt lat="42.213817" lon="2.479527">
        <ele>342.508</ele>
        <time>2021-05-27T16:18:07Z</time>
      </trkpt>
      <trkpt lat="42.213821" lon="2.479500">
        <ele>342.585</ele>
        <time>2021-05-27T16:18:08Z</time>
      </trkpt>
      <trkpt lat="42.213828" lon="2.479471">
        <ele>342.482</ele>
        <time>2021-05-27T16:18:09Z</time>
      </trkpt>
      <trkpt lat="42.213831" lon="2.479445">
        <ele>342.570</ele>
        <time>2021-05-27T16:18:10Z</time>
      </trkpt>
      <trkpt lat="42.213834" lon="2.479397">
        <ele>342.610</ele>
        <time>2021-05-27T16:18:12Z</time>
      </trkpt>
      <trkpt lat="42.213844" lon="2.479373">
        <ele>342.417</ele>
        <time>2021-05-27T16:18:13Z</time>
      </trkpt>
      <trkpt lat="42.213858" lon="2.479348">
        <ele>342.162</ele>
        <time>2021-05-27T16:18:14Z</time>
      </trkpt>
      <trkpt lat="42.213869" lon="2.479324">
        <ele>341.995</ele>
        <time>2021-05-27T16:18:15Z</time>
      </trkpt>
      <trkpt lat="42.213883" lon="2.479299">
        <ele>341.711</ele>
        <time>2021-05-27T16:18:16Z</time>
      </trkpt>
      <trkpt lat="42.213901" lon="2.479274">
        <ele>341.576</ele>
        <time>2021-05-27T16:18:17Z</time>
      </trkpt>
      <trkpt lat="42.213918" lon="2.479251">
        <ele>341.490</ele>
        <time>2021-05-27T16:18:18Z</time>
      </trkpt>
      <trkpt lat="42.213940" lon="2.479228">
        <ele>341.219</ele>
        <time>2021-05-27T16:18:19Z</time>
      </trkpt>
      <trkpt lat="42.213960" lon="2.479206">
        <ele>341.108</ele>
        <time>2021-05-27T16:18:20Z</time>
      </trkpt>
      <trkpt lat="42.213981" lon="2.479186">
        <ele>340.994</ele>
        <time>2021-05-27T16:18:21Z</time>
      </trkpt>
      <trkpt lat="42.214003" lon="2.479170">
        <ele>340.841</ele>
        <time>2021-05-27T16:18:22Z</time>
      </trkpt>
      <trkpt lat="42.214026" lon="2.479156">
        <ele>340.679</ele>
        <time>2021-05-27T16:18:23Z</time>
      </trkpt>
      <trkpt lat="42.214048" lon="2.479144">
        <ele>340.449</ele>
        <time>2021-05-27T16:18:24Z</time>
      </trkpt>
      <trkpt lat="42.214072" lon="2.479133">
        <ele>340.136</ele>
        <time>2021-05-27T16:18:25Z</time>
      </trkpt>
      <trkpt lat="42.214095" lon="2.479123">
        <ele>339.931</ele>
        <time>2021-05-27T16:18:26Z</time>
      </trkpt>
      <trkpt lat="42.214117" lon="2.479113">
        <ele>339.724</ele>
        <time>2021-05-27T16:18:27Z</time>
      </trkpt>
      <trkpt lat="42.214140" lon="2.479105">
        <ele>339.530</ele>
        <time>2021-05-27T16:18:28Z</time>
      </trkpt>
      <trkpt lat="42.214162" lon="2.479101">
        <ele>339.316</ele>
        <time>2021-05-27T16:18:29Z</time>
      </trkpt>
      <trkpt lat="42.214183" lon="2.479097">
        <ele>339.276</ele>
        <time>2021-05-27T16:18:30Z</time>
      </trkpt>
      <trkpt lat="42.214200" lon="2.479092">
        <ele>339.213</ele>
        <time>2021-05-27T16:18:31Z</time>
      </trkpt>
      <trkpt lat="42.214221" lon="2.479089">
        <ele>339.208</ele>
        <time>2021-05-27T16:18:32Z</time>
      </trkpt>
      <trkpt lat="42.214241" lon="2.479087">
        <ele>339.238</ele>
        <time>2021-05-27T16:18:33Z</time>
      </trkpt>
      <trkpt lat="42.214262" lon="2.479086">
        <ele>339.255</ele>
        <time>2021-05-27T16:18:34Z</time>
      </trkpt>
      <trkpt lat="42.214282" lon="2.479087">
        <ele>339.233</ele>
        <time>2021-05-27T16:18:35Z</time>
      </trkpt>
      <trkpt lat="42.214301" lon="2.479087">
        <ele>339.123</ele>
        <time>2021-05-27T16:18:36Z</time>
      </trkpt>
      <trkpt lat="42.214336" lon="2.479091">
        <ele>339.110</ele>
        <time>2021-05-27T16:18:38Z</time>
      </trkpt>
      <trkpt lat="42.214356" lon="2.479093">
        <ele>339.135</ele>
        <time>2021-05-27T16:18:39Z</time>
      </trkpt>
      <trkpt lat="42.214374" lon="2.479093">
        <ele>339.198</ele>
        <time>2021-05-27T16:18:40Z</time>
      </trkpt>
      <trkpt lat="42.214394" lon="2.479094">
        <ele>339.094</ele>
        <time>2021-05-27T16:18:41Z</time>
      </trkpt>
      <trkpt lat="42.214413" lon="2.479096">
        <ele>339.043</ele>
        <time>2021-05-27T16:18:42Z</time>
      </trkpt>
      <trkpt lat="42.214445" lon="2.479098">
        <ele>339.064</ele>
        <time>2021-05-27T16:18:44Z</time>
      </trkpt>
      <trkpt lat="42.214479" lon="2.479099">
        <ele>339.010</ele>
        <time>2021-05-27T16:18:46Z</time>
      </trkpt>
      <trkpt lat="42.214515" lon="2.479102">
        <ele>339.008</ele>
        <time>2021-05-27T16:18:48Z</time>
      </trkpt>
      <trkpt lat="42.214552" lon="2.479103">
        <ele>339.021</ele>
        <time>2021-05-27T16:18:50Z</time>
      </trkpt>
      <trkpt lat="42.214584" lon="2.479103">
        <ele>339.078</ele>
        <time>2021-05-27T16:18:52Z</time>
      </trkpt>
      <trkpt lat="42.214620" lon="2.479103">
        <ele>339.086</ele>
        <time>2021-05-27T16:18:54Z</time>
      </trkpt>
      <trkpt lat="42.214656" lon="2.479101">
        <ele>339.016</ele>
        <time>2021-05-27T16:18:56Z</time>
      </trkpt>
      <trkpt lat="42.214689" lon="2.479103">
        <ele>339.053</ele>
        <time>2021-05-27T16:18:58Z</time>
      </trkpt>
      <trkpt lat="42.214708" lon="2.479103">
        <ele>339.038</ele>
        <time>2021-05-27T16:18:59Z</time>
      </trkpt>
      <trkpt lat="42.214728" lon="2.479104">
        <ele>339.081</ele>
        <time>2021-05-27T16:19:00Z</time>
      </trkpt>
      <trkpt lat="42.214746" lon="2.479104">
        <ele>339.097</ele>
        <time>2021-05-27T16:19:01Z</time>
      </trkpt>
      <trkpt lat="42.214767" lon="2.479103">
        <ele>339.072</ele>
        <time>2021-05-27T16:19:02Z</time>
      </trkpt>
      <trkpt lat="42.214787" lon="2.479103">
        <ele>339.013</ele>
        <time>2021-05-27T16:19:03Z</time>
      </trkpt>
      <trkpt lat="42.214805" lon="2.479101">
        <ele>339.014</ele>
        <time>2021-05-27T16:19:04Z</time>
      </trkpt>
      <trkpt lat="42.214827" lon="2.479101">
        <ele>339.008</ele>
        <time>2021-05-27T16:19:05Z</time>
      </trkpt>
      <trkpt lat="42.214847" lon="2.479100">
        <ele>339.094</ele>
        <time>2021-05-27T16:19:06Z</time>
      </trkpt>
      <trkpt lat="42.214867" lon="2.479099">
        <ele>339.091</ele>
        <time>2021-05-27T16:19:07Z</time>
      </trkpt>
      <trkpt lat="42.214886" lon="2.479099">
        <ele>339.019</ele>
        <time>2021-05-27T16:19:08Z</time>
      </trkpt>
      <trkpt lat="42.214918" lon="2.479101">
        <ele>339.089</ele>
        <time>2021-05-27T16:19:10Z</time>
      </trkpt>
      <trkpt lat="42.214937" lon="2.479103">
        <ele>339.096</ele>
        <time>2021-05-27T16:19:11Z</time>
      </trkpt>
      <trkpt lat="42.214957" lon="2.479103">
        <ele>339.081</ele>
        <time>2021-05-27T16:19:12Z</time>
      </trkpt>
      <trkpt lat="42.214979" lon="2.479102">
        <ele>339.074</ele>
        <time>2021-05-27T16:19:13Z</time>
      </trkpt>
      <trkpt lat="42.215000" lon="2.479103">
        <ele>339.010</ele>
        <time>2021-05-27T16:19:14Z</time>
      </trkpt>
      <trkpt lat="42.215020" lon="2.479102">
        <ele>338.941</ele>
        <time>2021-05-27T16:19:15Z</time>
      </trkpt>
      <trkpt lat="42.215046" lon="2.479100">
        <ele>338.781</ele>
        <time>2021-05-27T16:19:17Z</time>
      </trkpt>
      <trkpt lat="42.215075" lon="2.479102">
        <ele>338.609</ele>
        <time>2021-05-27T16:19:19Z</time>
      </trkpt>
      <trkpt lat="42.215109" lon="2.479112">
        <ele>338.408</ele>
        <time>2021-05-27T16:19:21Z</time>
      </trkpt>
      <trkpt lat="42.215129" lon="2.479120">
        <ele>338.221</ele>
        <time>2021-05-27T16:19:22Z</time>
      </trkpt>
      <trkpt lat="42.215152" lon="2.479127">
        <ele>338.158</ele>
        <time>2021-05-27T16:19:23Z</time>
      </trkpt>
      <trkpt lat="42.215186" lon="2.479137">
        <ele>337.866</ele>
        <time>2021-05-27T16:19:25Z</time>
      </trkpt>
      <trkpt lat="42.215205" lon="2.479146">
        <ele>337.666</ele>
        <time>2021-05-27T16:19:26Z</time>
      </trkpt>
      <trkpt lat="42.215222" lon="2.479161">
        <ele>337.493</ele>
        <time>2021-05-27T16:19:27Z</time>
      </trkpt>
      <trkpt lat="42.215239" lon="2.479175">
        <ele>337.328</ele>
        <time>2021-05-27T16:19:28Z</time>
      </trkpt>
      <trkpt lat="42.215257" lon="2.479189">
        <ele>337.151</ele>
        <time>2021-05-27T16:19:29Z</time>
      </trkpt>
      <trkpt lat="42.215272" lon="2.479202">
        <ele>337.067</ele>
        <time>2021-05-27T16:19:30Z</time>
      </trkpt>
      <trkpt lat="42.215297" lon="2.479237">
        <ele>337.144</ele>
        <time>2021-05-27T16:19:32Z</time>
      </trkpt>
      <trkpt lat="42.215325" lon="2.479269">
        <ele>337.305</ele>
        <time>2021-05-27T16:19:34Z</time>
      </trkpt>
      <trkpt lat="42.215342" lon="2.479282">
        <ele>337.515</ele>
        <time>2021-05-27T16:19:35Z</time>
      </trkpt>
      <trkpt lat="42.215360" lon="2.479298">
        <ele>337.608</ele>
        <time>2021-05-27T16:19:36Z</time>
      </trkpt>
      <trkpt lat="42.215389" lon="2.479322">
        <ele>337.851</ele>
        <time>2021-05-27T16:19:38Z</time>
      </trkpt>
      <trkpt lat="42.215407" lon="2.479333">
        <ele>337.988</ele>
        <time>2021-05-27T16:19:39Z</time>
      </trkpt>
      <trkpt lat="42.215425" lon="2.479336">
        <ele>338.146</ele>
        <time>2021-05-27T16:19:40Z</time>
      </trkpt>
      <trkpt lat="42.215446" lon="2.479335">
        <ele>338.276</ele>
        <time>2021-05-27T16:19:41Z</time>
      </trkpt>
      <trkpt lat="42.215468" lon="2.479324">
        <ele>338.493</ele>
        <time>2021-05-27T16:19:42Z</time>
      </trkpt>
      <trkpt lat="42.215484" lon="2.479309">
        <ele>338.558</ele>
        <time>2021-05-27T16:19:43Z</time>
      </trkpt>
      <trkpt lat="42.215499" lon="2.479289">
        <ele>338.641</ele>
        <time>2021-05-27T16:19:44Z</time>
      </trkpt>
      <trkpt lat="42.215513" lon="2.479264">
        <ele>338.727</ele>
        <time>2021-05-27T16:19:45Z</time>
      </trkpt>
      <trkpt lat="42.215520" lon="2.479239">
        <ele>338.758</ele>
        <time>2021-05-27T16:19:46Z</time>
      </trkpt>
      <trkpt lat="42.215525" lon="2.479214">
        <ele>338.852</ele>
        <time>2021-05-27T16:19:47Z</time>
      </trkpt>
      <trkpt lat="42.215528" lon="2.479185">
        <ele>338.817</ele>
        <time>2021-05-27T16:19:48Z</time>
      </trkpt>
      <trkpt lat="42.215530" lon="2.479155">
        <ele>338.808</ele>
        <time>2021-05-27T16:19:49Z</time>
      </trkpt>
      <trkpt lat="42.215537" lon="2.479127">
        <ele>338.872</ele>
        <time>2021-05-27T16:19:50Z</time>
      </trkpt>
      <trkpt lat="42.215545" lon="2.479103">
        <ele>338.759</ele>
        <time>2021-05-27T16:19:51Z</time>
      </trkpt>
      <trkpt lat="42.215554" lon="2.479081">
        <ele>338.737</ele>
        <time>2021-05-27T16:19:52Z</time>
      </trkpt>
      <trkpt lat="42.215601" lon="2.478962">
        <ele>338.277</ele>
        <time>2021-05-27T16:19:56Z</time>
      </trkpt>
      <trkpt lat="42.215639" lon="2.478831">
        <ele>338.184</ele>
        <time>2021-05-27T16:20:01Z</time>
      </trkpt>
      <trkpt lat="42.215674" lon="2.478755">
        <ele>338.279</ele>
        <time>2021-05-27T16:20:05Z</time>
      </trkpt>
      <trkpt lat="42.215697" lon="2.478743">
        <ele>338.372</ele>
        <time>2021-05-27T16:20:06Z</time>
      </trkpt>
      <trkpt lat="42.215765" lon="2.478644">
        <ele>338.738</ele>
        <time>2021-05-27T16:20:10Z</time>
      </trkpt>
      <trkpt lat="42.215796" lon="2.478529">
        <ele>338.662</ele>
        <time>2021-05-27T16:20:15Z</time>
      </trkpt>
      <trkpt lat="42.215871" lon="2.478424">
        <ele>338.483</ele>
        <time>2021-05-27T16:20:21Z</time>
      </trkpt>
      <trkpt lat="42.215946" lon="2.478311">
        <ele>338.511</ele>
        <time>2021-05-27T16:20:27Z</time>
      </trkpt>
      <trkpt lat="42.216007" lon="2.478214">
        <ele>338.808</ele>
        <time>2021-05-27T16:20:32Z</time>
      </trkpt>
      <trkpt lat="42.216060" lon="2.478099">
        <ele>339.063</ele>
        <time>2021-05-27T16:20:37Z</time>
      </trkpt>
      <trkpt lat="42.216135" lon="2.477999">
        <ele>338.850</ele>
        <time>2021-05-27T16:20:43Z</time>
      </trkpt>
      <trkpt lat="42.216199" lon="2.477892">
        <ele>338.658</ele>
        <time>2021-05-27T16:20:48Z</time>
      </trkpt>
      <trkpt lat="42.216265" lon="2.477791">
        <ele>338.668</ele>
        <time>2021-05-27T16:20:53Z</time>
      </trkpt>
      <trkpt lat="42.216316" lon="2.477738">
        <ele>338.815</ele>
        <time>2021-05-27T16:20:56Z</time>
      </trkpt>
      <trkpt lat="42.216337" lon="2.477721">
        <ele>338.930</ele>
        <time>2021-05-27T16:20:57Z</time>
      </trkpt>
      <trkpt lat="42.216357" lon="2.477699">
        <ele>338.963</ele>
        <time>2021-05-27T16:20:58Z</time>
      </trkpt>
      <trkpt lat="42.216373" lon="2.477680">
        <ele>339.069</ele>
        <time>2021-05-27T16:20:59Z</time>
      </trkpt>
      <trkpt lat="42.216390" lon="2.477662">
        <ele>339.061</ele>
        <time>2021-05-27T16:21:00Z</time>
      </trkpt>
      <trkpt lat="42.216408" lon="2.477640">
        <ele>339.321</ele>
        <time>2021-05-27T16:21:02Z</time>
      </trkpt>
      <trkpt lat="42.216435" lon="2.477600">
        <ele>339.613</ele>
        <time>2021-05-27T16:21:03Z</time>
      </trkpt>
      <trkpt lat="42.216454" lon="2.477563">
        <ele>339.708</ele>
        <time>2021-05-27T16:21:05Z</time>
      </trkpt>
      <trkpt lat="42.216478" lon="2.477529">
        <ele>339.823</ele>
        <time>2021-05-27T16:21:07Z</time>
      </trkpt>
      <trkpt lat="42.216503" lon="2.477492">
        <ele>339.880</ele>
        <time>2021-05-27T16:21:09Z</time>
      </trkpt>
      <trkpt lat="42.216515" lon="2.477472">
        <ele>339.818</ele>
        <time>2021-05-27T16:21:10Z</time>
      </trkpt>
      <trkpt lat="42.216525" lon="2.477448">
        <ele>339.828</ele>
        <time>2021-05-27T16:21:11Z</time>
      </trkpt>
      <trkpt lat="42.216533" lon="2.477426">
        <ele>339.835</ele>
        <time>2021-05-27T16:21:12Z</time>
      </trkpt>
      <trkpt lat="42.216544" lon="2.477405">
        <ele>339.830</ele>
        <time>2021-05-27T16:21:13Z</time>
      </trkpt>
      <trkpt lat="42.216557" lon="2.477383">
        <ele>339.823</ele>
        <time>2021-05-27T16:21:14Z</time>
      </trkpt>
      <trkpt lat="42.216573" lon="2.477364">
        <ele>339.829</ele>
        <time>2021-05-27T16:21:15Z</time>
      </trkpt>
      <trkpt lat="42.216595" lon="2.477342">
        <ele>339.951</ele>
        <time>2021-05-27T16:21:16Z</time>
      </trkpt>
      <trkpt lat="42.216613" lon="2.477324">
        <ele>340.001</ele>
        <time>2021-05-27T16:21:17Z</time>
      </trkpt>
      <trkpt lat="42.216626" lon="2.477306">
        <ele>340.011</ele>
        <time>2021-05-27T16:21:18Z</time>
      </trkpt>
      <trkpt lat="42.216638" lon="2.477285">
        <ele>340.008</ele>
        <time>2021-05-27T16:21:19Z</time>
      </trkpt>
      <trkpt lat="42.216652" lon="2.477260">
        <ele>340.052</ele>
        <time>2021-05-27T16:21:20Z</time>
      </trkpt>
      <trkpt lat="42.216661" lon="2.477235">
        <ele>340.079</ele>
        <time>2021-05-27T16:21:21Z</time>
      </trkpt>
      <trkpt lat="42.216671" lon="2.477214">
        <ele>340.197</ele>
        <time>2021-05-27T16:21:22Z</time>
      </trkpt>
      <trkpt lat="42.216683" lon="2.477192">
        <ele>340.227</ele>
        <time>2021-05-27T16:21:23Z</time>
      </trkpt>
      <trkpt lat="42.216694" lon="2.477170">
        <ele>340.454</ele>
        <time>2021-05-27T16:21:24Z</time>
      </trkpt>
      <trkpt lat="42.216708" lon="2.477144">
        <ele>340.669</ele>
        <time>2021-05-27T16:21:25Z</time>
      </trkpt>
      <trkpt lat="42.216719" lon="2.477116">
        <ele>340.712</ele>
        <time>2021-05-27T16:21:26Z</time>
      </trkpt>
      <trkpt lat="42.216732" lon="2.477090">
        <ele>340.838</ele>
        <time>2021-05-27T16:21:27Z</time>
      </trkpt>
      <trkpt lat="42.216746" lon="2.477066">
        <ele>341.048</ele>
        <time>2021-05-27T16:21:28Z</time>
      </trkpt>
      <trkpt lat="42.216761" lon="2.477043">
        <ele>341.261</ele>
        <time>2021-05-27T16:21:29Z</time>
      </trkpt>
      <trkpt lat="42.216774" lon="2.477020">
        <ele>341.317</ele>
        <time>2021-05-27T16:21:30Z</time>
      </trkpt>
      <trkpt lat="42.216784" lon="2.476996">
        <ele>341.408</ele>
        <time>2021-05-27T16:21:31Z</time>
      </trkpt>
      <trkpt lat="42.216791" lon="2.476973">
        <ele>341.481</ele>
        <time>2021-05-27T16:21:32Z</time>
      </trkpt>
      <trkpt lat="42.216801" lon="2.476952">
        <ele>341.528</ele>
        <time>2021-05-27T16:21:33Z</time>
      </trkpt>
      <trkpt lat="42.216809" lon="2.476930">
        <ele>341.586</ele>
        <time>2021-05-27T16:21:34Z</time>
      </trkpt>
      <trkpt lat="42.216824" lon="2.476886">
        <ele>341.546</ele>
        <time>2021-05-27T16:21:36Z</time>
      </trkpt>
      <trkpt lat="42.216839" lon="2.476841">
        <ele>341.583</ele>
        <time>2021-05-27T16:21:38Z</time>
      </trkpt>
      <trkpt lat="42.216854" lon="2.476797">
        <ele>341.518</ele>
        <time>2021-05-27T16:21:40Z</time>
      </trkpt>
      <trkpt lat="42.216867" lon="2.476776">
        <ele>341.671</ele>
        <time>2021-05-27T16:21:41Z</time>
      </trkpt>
      <trkpt lat="42.216877" lon="2.476755">
        <ele>341.637</ele>
        <time>2021-05-27T16:21:42Z</time>
      </trkpt>
      <trkpt lat="42.216891" lon="2.476716">
        <ele>341.624</ele>
        <time>2021-05-27T16:21:44Z</time>
      </trkpt>
      <trkpt lat="42.216900" lon="2.476680">
        <ele>341.404</ele>
        <time>2021-05-27T16:21:46Z</time>
      </trkpt>
      <trkpt lat="42.216919" lon="2.476643">
        <ele>341.514</ele>
        <time>2021-05-27T16:21:48Z</time>
      </trkpt>
      <trkpt lat="42.216939" lon="2.476610">
        <ele>341.508</ele>
        <time>2021-05-27T16:21:50Z</time>
      </trkpt>
      <trkpt lat="42.216952" lon="2.476574">
        <ele>341.619</ele>
        <time>2021-05-27T16:21:52Z</time>
      </trkpt>
      <trkpt lat="42.216967" lon="2.476538">
        <ele>341.926</ele>
        <time>2021-05-27T16:21:54Z</time>
      </trkpt>
      <trkpt lat="42.216982" lon="2.476498">
        <ele>342.264</ele>
        <time>2021-05-27T16:21:56Z</time>
      </trkpt>
      <trkpt lat="42.216999" lon="2.476463">
        <ele>342.564</ele>
        <time>2021-05-27T16:21:58Z</time>
      </trkpt>
      <trkpt lat="42.217014" lon="2.476425">
        <ele>342.691</ele>
        <time>2021-05-27T16:22:00Z</time>
      </trkpt>
      <trkpt lat="42.217024" lon="2.476401">
        <ele>342.726</ele>
        <time>2021-05-27T16:22:01Z</time>
      </trkpt>
      <trkpt lat="42.217036" lon="2.476373">
        <ele>342.819</ele>
        <time>2021-05-27T16:22:02Z</time>
      </trkpt>
      <trkpt lat="42.217045" lon="2.476347">
        <ele>342.915</ele>
        <time>2021-05-27T16:22:03Z</time>
      </trkpt>
      <trkpt lat="42.217066" lon="2.476330">
        <ele>343.443</ele>
        <time>2021-05-27T16:22:04Z</time>
      </trkpt>
      <trkpt lat="42.217087" lon="2.476294">
        <ele>343.664</ele>
        <time>2021-05-27T16:22:06Z</time>
      </trkpt>
      <trkpt lat="42.217110" lon="2.476249">
        <ele>343.710</ele>
        <time>2021-05-27T16:22:08Z</time>
      </trkpt>
      <trkpt lat="42.217119" lon="2.476224">
        <ele>343.608</ele>
        <time>2021-05-27T16:22:09Z</time>
      </trkpt>
      <trkpt lat="42.217129" lon="2.476202">
        <ele>343.551</ele>
        <time>2021-05-27T16:22:10Z</time>
      </trkpt>
      <trkpt lat="42.217138" lon="2.476180">
        <ele>343.478</ele>
        <time>2021-05-27T16:22:11Z</time>
      </trkpt>
      <trkpt lat="42.217155" lon="2.476141">
        <ele>343.296</ele>
        <time>2021-05-27T16:22:13Z</time>
      </trkpt>
      <trkpt lat="42.217168" lon="2.476116">
        <ele>343.156</ele>
        <time>2021-05-27T16:22:14Z</time>
      </trkpt>
      <trkpt lat="42.217185" lon="2.476079">
        <ele>343.043</ele>
        <time>2021-05-27T16:22:16Z</time>
      </trkpt>
      <trkpt lat="42.217220" lon="2.476026">
        <ele>343.198</ele>
        <time>2021-05-27T16:22:19Z</time>
      </trkpt>
      <trkpt lat="42.217231" lon="2.476003">
        <ele>343.281</ele>
        <time>2021-05-27T16:22:20Z</time>
      </trkpt>
      <trkpt lat="42.217240" lon="2.475982">
        <ele>343.397</ele>
        <time>2021-05-27T16:22:21Z</time>
      </trkpt>
      <trkpt lat="42.217303" lon="2.475866">
        <ele>343.878</ele>
        <time>2021-05-27T16:22:26Z</time>
      </trkpt>
      <trkpt lat="42.217374" lon="2.475763">
        <ele>344.333</ele>
        <time>2021-05-27T16:22:31Z</time>
      </trkpt>
      <trkpt lat="42.217388" lon="2.475745">
        <ele>344.426</ele>
        <time>2021-05-27T16:22:32Z</time>
      </trkpt>
      <trkpt lat="42.217406" lon="2.475733">
        <ele>344.608</ele>
        <time>2021-05-27T16:22:33Z</time>
      </trkpt>
      <trkpt lat="42.217434" lon="2.475708">
        <ele>344.854</ele>
        <time>2021-05-27T16:22:35Z</time>
      </trkpt>
      <trkpt lat="42.217452" lon="2.475693">
        <ele>344.961</ele>
        <time>2021-05-27T16:22:36Z</time>
      </trkpt>
      <trkpt lat="42.217468" lon="2.475678">
        <ele>345.029</ele>
        <time>2021-05-27T16:22:37Z</time>
      </trkpt>
      <trkpt lat="42.217481" lon="2.475662">
        <ele>344.939</ele>
        <time>2021-05-27T16:22:38Z</time>
      </trkpt>
      <trkpt lat="42.217511" lon="2.475638">
        <ele>345.116</ele>
        <time>2021-05-27T16:22:40Z</time>
      </trkpt>
      <trkpt lat="42.217538" lon="2.475611">
        <ele>345.351</ele>
        <time>2021-05-27T16:22:42Z</time>
      </trkpt>
      <trkpt lat="42.217555" lon="2.475596">
        <ele>345.584</ele>
        <time>2021-05-27T16:22:43Z</time>
      </trkpt>
      <trkpt lat="42.217575" lon="2.475580">
        <ele>345.770</ele>
        <time>2021-05-27T16:22:44Z</time>
      </trkpt>
      <trkpt lat="42.217604" lon="2.475552">
        <ele>345.916</ele>
        <time>2021-05-27T16:22:46Z</time>
      </trkpt>
      <trkpt lat="42.217623" lon="2.475539">
        <ele>346.376</ele>
        <time>2021-05-27T16:22:47Z</time>
      </trkpt>
      <trkpt lat="42.217638" lon="2.475521">
        <ele>346.413</ele>
        <time>2021-05-27T16:22:48Z</time>
      </trkpt>
      <trkpt lat="42.217652" lon="2.475506">
        <ele>346.608</ele>
        <time>2021-05-27T16:22:49Z</time>
      </trkpt>
      <trkpt lat="42.217668" lon="2.475492">
        <ele>346.788</ele>
        <time>2021-05-27T16:22:50Z</time>
      </trkpt>
      <trkpt lat="42.217683" lon="2.475479">
        <ele>346.925</ele>
        <time>2021-05-27T16:22:51Z</time>
      </trkpt>
      <trkpt lat="42.217699" lon="2.475465">
        <ele>347.183</ele>
        <time>2021-05-27T16:22:52Z</time>
      </trkpt>
      <trkpt lat="42.217716" lon="2.475448">
        <ele>347.233</ele>
        <time>2021-05-27T16:22:53Z</time>
      </trkpt>
      <trkpt lat="42.217732" lon="2.475431">
        <ele>347.270</ele>
        <time>2021-05-27T16:22:54Z</time>
      </trkpt>
      <trkpt lat="42.217751" lon="2.475415">
        <ele>347.385</ele>
        <time>2021-05-27T16:22:55Z</time>
      </trkpt>
      <trkpt lat="42.217766" lon="2.475399">
        <ele>347.418</ele>
        <time>2021-05-27T16:22:56Z</time>
      </trkpt>
      <trkpt lat="42.217784" lon="2.475384">
        <ele>347.464</ele>
        <time>2021-05-27T16:22:57Z</time>
      </trkpt>
      <trkpt lat="42.217804" lon="2.475369">
        <ele>347.528</ele>
        <time>2021-05-27T16:22:58Z</time>
      </trkpt>
      <trkpt lat="42.217826" lon="2.475359">
        <ele>347.889</ele>
        <time>2021-05-27T16:22:59Z</time>
      </trkpt>
      <trkpt lat="42.217848" lon="2.475347">
        <ele>347.917</ele>
        <time>2021-05-27T16:23:00Z</time>
      </trkpt>
      <trkpt lat="42.217869" lon="2.475337">
        <ele>348.108</ele>
        <time>2021-05-27T16:23:01Z</time>
      </trkpt>
      <trkpt lat="42.217886" lon="2.475328">
        <ele>348.239</ele>
        <time>2021-05-27T16:23:02Z</time>
      </trkpt>
      <trkpt lat="42.217918" lon="2.475307">
        <ele>348.326</ele>
        <time>2021-05-27T16:23:04Z</time>
      </trkpt>
      <trkpt lat="42.217949" lon="2.475288">
        <ele>348.424</ele>
        <time>2021-05-27T16:23:06Z</time>
      </trkpt>
      <trkpt lat="42.217980" lon="2.475269">
        <ele>348.534</ele>
        <time>2021-05-27T16:23:08Z</time>
      </trkpt>
      <trkpt lat="42.217999" lon="2.475257">
        <ele>348.761</ele>
        <time>2021-05-27T16:23:09Z</time>
      </trkpt>
      <trkpt lat="42.218031" lon="2.475231">
        <ele>348.866</ele>
        <time>2021-05-27T16:23:11Z</time>
      </trkpt>
      <trkpt lat="42.218052" lon="2.475219">
        <ele>348.999</ele>
        <time>2021-05-27T16:23:12Z</time>
      </trkpt>
      <trkpt lat="42.218071" lon="2.475210">
        <ele>349.035</ele>
        <time>2021-05-27T16:23:13Z</time>
      </trkpt>
      <trkpt lat="42.218090" lon="2.475198">
        <ele>349.193</ele>
        <time>2021-05-27T16:23:14Z</time>
      </trkpt>
      <trkpt lat="42.218105" lon="2.475183">
        <ele>349.165</ele>
        <time>2021-05-27T16:23:15Z</time>
      </trkpt>
      <trkpt lat="42.218120" lon="2.475165">
        <ele>349.021</ele>
        <time>2021-05-27T16:23:16Z</time>
      </trkpt>
      <trkpt lat="42.218135" lon="2.475151">
        <ele>349.008</ele>
        <time>2021-05-27T16:23:17Z</time>
      </trkpt>
      <trkpt lat="42.218166" lon="2.475123">
        <ele>349.016</ele>
        <time>2021-05-27T16:23:19Z</time>
      </trkpt>
      <trkpt lat="42.218189" lon="2.475091">
        <ele>348.713</ele>
        <time>2021-05-27T16:23:21Z</time>
      </trkpt>
      <trkpt lat="42.218202" lon="2.475053">
        <ele>348.231</ele>
        <time>2021-05-27T16:23:23Z</time>
      </trkpt>
      <trkpt lat="42.218206" lon="2.475011">
        <ele>347.451</ele>
        <time>2021-05-27T16:23:25Z</time>
      </trkpt>
      <trkpt lat="42.218217" lon="2.474965">
        <ele>347.128</ele>
        <time>2021-05-27T16:23:27Z</time>
      </trkpt>
      <trkpt lat="42.218226" lon="2.474942">
        <ele>347.033</ele>
        <time>2021-05-27T16:23:28Z</time>
      </trkpt>
      <trkpt lat="42.218231" lon="2.474919">
        <ele>346.956</ele>
        <time>2021-05-27T16:23:29Z</time>
      </trkpt>
      <trkpt lat="42.218243" lon="2.474879">
        <ele>346.712</ele>
        <time>2021-05-27T16:23:31Z</time>
      </trkpt>
      <trkpt lat="42.218266" lon="2.474849">
        <ele>346.731</ele>
        <time>2021-05-27T16:23:33Z</time>
      </trkpt>
      <trkpt lat="42.218262" lon="2.474802">
        <ele>346.261</ele>
        <time>2021-05-27T16:23:35Z</time>
      </trkpt>
      <trkpt lat="42.218258" lon="2.474761">
        <ele>345.807</ele>
        <time>2021-05-27T16:23:37Z</time>
      </trkpt>
      <trkpt lat="42.218271" lon="2.474725">
        <ele>345.608</ele>
        <time>2021-05-27T16:23:39Z</time>
      </trkpt>
      <trkpt lat="42.218278" lon="2.474688">
        <ele>345.360</ele>
        <time>2021-05-27T16:23:41Z</time>
      </trkpt>
      <trkpt lat="42.218282" lon="2.474649">
        <ele>344.927</ele>
        <time>2021-05-27T16:23:43Z</time>
      </trkpt>
      <trkpt lat="42.218286" lon="2.474611">
        <ele>344.645</ele>
        <time>2021-05-27T16:23:45Z</time>
      </trkpt>
      <trkpt lat="42.218287" lon="2.474579">
        <ele>344.365</ele>
        <time>2021-05-27T16:23:47Z</time>
      </trkpt>
      <trkpt lat="42.218295" lon="2.474606">
        <ele>344.612</ele>
        <time>2021-05-27T16:23:51Z</time>
      </trkpt>
      <trkpt lat="42.218296" lon="2.474633">
        <ele>344.997</ele>
        <time>2021-05-27T16:23:53Z</time>
      </trkpt>
      <trkpt lat="42.218297" lon="2.474661">
        <ele>345.120</ele>
        <time>2021-05-27T16:23:55Z</time>
      </trkpt>
      <trkpt lat="42.218293" lon="2.474688">
        <ele>345.486</ele>
        <time>2021-05-27T16:23:57Z</time>
      </trkpt>
      <trkpt lat="42.218303" lon="2.474664">
        <ele>345.253</ele>
        <time>2021-05-27T16:24:08Z</time>
      </trkpt>
      <trkpt lat="42.218302" lon="2.474629">
        <ele>344.804</ele>
        <time>2021-05-27T16:24:10Z</time>
      </trkpt>
      <trkpt lat="42.218302" lon="2.474596">
        <ele>344.514</ele>
        <time>2021-05-27T16:24:12Z</time>
      </trkpt>
      <trkpt lat="42.218305" lon="2.474562">
        <ele>344.208</ele>
        <time>2021-05-27T16:24:14Z</time>
      </trkpt>
      <trkpt lat="42.218309" lon="2.474529">
        <ele>343.912</ele>
        <time>2021-05-27T16:24:16Z</time>
      </trkpt>
      <trkpt lat="42.218311" lon="2.474494">
        <ele>343.529</ele>
        <time>2021-05-27T16:24:18Z</time>
      </trkpt>
      <trkpt lat="42.218309" lon="2.474462">
        <ele>343.217</ele>
        <time>2021-05-27T16:24:20Z</time>
      </trkpt>
      <trkpt lat="42.218309" lon="2.474431">
        <ele>343.067</ele>
        <time>2021-05-27T16:24:22Z</time>
      </trkpt>
      <trkpt lat="42.218310" lon="2.474396">
        <ele>343.094</ele>
        <time>2021-05-27T16:24:24Z</time>
      </trkpt>
      <trkpt lat="42.218308" lon="2.474362">
        <ele>343.029</ele>
        <time>2021-05-27T16:24:26Z</time>
      </trkpt>
      <trkpt lat="42.218305" lon="2.474327">
        <ele>343.032</ele>
        <time>2021-05-27T16:24:28Z</time>
      </trkpt>
      <trkpt lat="42.218303" lon="2.474292">
        <ele>343.148</ele>
        <time>2021-05-27T16:24:30Z</time>
      </trkpt>
      <trkpt lat="42.218299" lon="2.474255">
        <ele>343.176</ele>
        <time>2021-05-27T16:24:32Z</time>
      </trkpt>
      <trkpt lat="42.218297" lon="2.474224">
        <ele>343.190</ele>
        <time>2021-05-27T16:24:34Z</time>
      </trkpt>
      <trkpt lat="42.218295" lon="2.474198">
        <ele>343.119</ele>
        <time>2021-05-27T16:24:36Z</time>
      </trkpt>
      <trkpt lat="42.218299" lon="2.474231">
        <ele>343.108</ele>
        <time>2021-05-27T16:24:41Z</time>
      </trkpt>
      <trkpt lat="42.218297" lon="2.474264">
        <ele>343.184</ele>
        <time>2021-05-27T16:24:43Z</time>
      </trkpt>
      <trkpt lat="42.218296" lon="2.474303">
        <ele>343.161</ele>
        <time>2021-05-27T16:24:45Z</time>
      </trkpt>
      <trkpt lat="42.218300" lon="2.474342">
        <ele>343.099</ele>
        <time>2021-05-27T16:24:47Z</time>
      </trkpt>
      <trkpt lat="42.218301" lon="2.474382">
        <ele>343.029</ele>
        <time>2021-05-27T16:24:49Z</time>
      </trkpt>
      <trkpt lat="42.218301" lon="2.474420">
        <ele>343.096</ele>
        <time>2021-05-27T16:24:51Z</time>
      </trkpt>
      <trkpt lat="42.218303" lon="2.474456">
        <ele>343.161</ele>
        <time>2021-05-27T16:24:53Z</time>
      </trkpt>
      <trkpt lat="42.218303" lon="2.474490">
        <ele>343.554</ele>
        <time>2021-05-27T16:24:55Z</time>
      </trkpt>
      <trkpt lat="42.218303" lon="2.474525">
        <ele>343.840</ele>
        <time>2021-05-27T16:24:57Z</time>
      </trkpt>
      <trkpt lat="42.218306" lon="2.474561">
        <ele>344.295</ele>
        <time>2021-05-27T16:24:59Z</time>
      </trkpt>
      <trkpt lat="42.218303" lon="2.474597">
        <ele>344.549</ele>
        <time>2021-05-27T16:25:01Z</time>
      </trkpt>
      <trkpt lat="42.218301" lon="2.474633">
        <ele>344.923</ele>
        <time>2021-05-27T16:25:03Z</time>
      </trkpt>
      <trkpt lat="42.218301" lon="2.474674">
        <ele>345.308</ele>
        <time>2021-05-27T16:25:05Z</time>
      </trkpt>
      <trkpt lat="42.218301" lon="2.474708">
        <ele>345.686</ele>
        <time>2021-05-27T16:25:07Z</time>
      </trkpt>
      <trkpt lat="42.218300" lon="2.474742">
        <ele>346.053</ele>
        <time>2021-05-27T16:25:09Z</time>
      </trkpt>
      <trkpt lat="42.218300" lon="2.474776">
        <ele>346.371</ele>
        <time>2021-05-27T16:25:11Z</time>
      </trkpt>
      <trkpt lat="42.218301" lon="2.474809">
        <ele>346.631</ele>
        <time>2021-05-27T16:25:13Z</time>
      </trkpt>
      <trkpt lat="42.218300" lon="2.474842">
        <ele>346.948</ele>
        <time>2021-05-27T16:25:15Z</time>
      </trkpt>
      <trkpt lat="42.218303" lon="2.474875">
        <ele>347.333</ele>
        <time>2021-05-27T16:25:17Z</time>
      </trkpt>
      <trkpt lat="42.218317" lon="2.474904">
        <ele>347.896</ele>
        <time>2021-05-27T16:25:19Z</time>
      </trkpt>
      <trkpt lat="42.218335" lon="2.474921">
        <ele>348.252</ele>
        <time>2021-05-27T16:25:21Z</time>
      </trkpt>
      <trkpt lat="42.218355" lon="2.474925">
        <ele>348.673</ele>
        <time>2021-05-27T16:25:23Z</time>
      </trkpt>
      <trkpt lat="42.218373" lon="2.474920">
        <ele>348.985</ele>
        <time>2021-05-27T16:25:25Z</time>
      </trkpt>
      <trkpt lat="42.218391" lon="2.474909">
        <ele>349.113</ele>
        <time>2021-05-27T16:25:27Z</time>
      </trkpt>
      <trkpt lat="42.218411" lon="2.474899">
        <ele>349.408</ele>
        <time>2021-05-27T16:25:29Z</time>
      </trkpt>
      <trkpt lat="42.218427" lon="2.474882">
        <ele>349.594</ele>
        <time>2021-05-27T16:25:31Z</time>
      </trkpt>
      <trkpt lat="42.218444" lon="2.474861">
        <ele>349.521</ele>
        <time>2021-05-27T16:25:33Z</time>
      </trkpt>
      <trkpt lat="42.218463" lon="2.474838">
        <ele>349.539</ele>
        <time>2021-05-27T16:25:35Z</time>
      </trkpt>
      <trkpt lat="42.218480" lon="2.474814">
        <ele>349.599</ele>
        <time>2021-05-27T16:25:37Z</time>
      </trkpt>
      <trkpt lat="42.218498" lon="2.474791">
        <ele>349.486</ele>
        <time>2021-05-27T16:25:39Z</time>
      </trkpt>
      <trkpt lat="42.218514" lon="2.474767">
        <ele>349.341</ele>
        <time>2021-05-27T16:25:41Z</time>
      </trkpt>
      <trkpt lat="42.218534" lon="2.474746">
        <ele>349.334</ele>
        <time>2021-05-27T16:25:43Z</time>
      </trkpt>
      <trkpt lat="42.218553" lon="2.474724">
        <ele>349.280</ele>
        <time>2021-05-27T16:25:45Z</time>
      </trkpt>
      <trkpt lat="42.218572" lon="2.474702">
        <ele>349.111</ele>
        <time>2021-05-27T16:25:47Z</time>
      </trkpt>
      <trkpt lat="42.218590" lon="2.474681">
        <ele>349.021</ele>
        <time>2021-05-27T16:25:49Z</time>
      </trkpt>
      <trkpt lat="42.218608" lon="2.474659">
        <ele>348.803</ele>
        <time>2021-05-27T16:25:51Z</time>
      </trkpt>
      <trkpt lat="42.218634" lon="2.474648">
        <ele>349.008</ele>
        <time>2021-05-27T16:25:53Z</time>
      </trkpt>
      <trkpt lat="42.218665" lon="2.474636">
        <ele>349.238</ele>
        <time>2021-05-27T16:25:55Z</time>
      </trkpt>
      <trkpt lat="42.218682" lon="2.474626">
        <ele>349.345</ele>
        <time>2021-05-27T16:25:56Z</time>
      </trkpt>
      <trkpt lat="42.218709" lon="2.474611">
        <ele>349.453</ele>
        <time>2021-05-27T16:25:58Z</time>
      </trkpt>
      <trkpt lat="42.218730" lon="2.474598">
        <ele>349.563</ele>
        <time>2021-05-27T16:26:00Z</time>
      </trkpt>
      <trkpt lat="42.218745" lon="2.474580">
        <ele>349.430</ele>
        <time>2021-05-27T16:26:03Z</time>
      </trkpt>
      <trkpt lat="42.218727" lon="2.474601">
        <ele>349.575</ele>
        <time>2021-05-27T16:26:10Z</time>
      </trkpt>
      <trkpt lat="42.218706" lon="2.474621">
        <ele>349.588</ele>
        <time>2021-05-27T16:26:13Z</time>
      </trkpt>
      <trkpt lat="42.218675" lon="2.474649">
        <ele>349.654</ele>
        <time>2021-05-27T16:26:14Z</time>
      </trkpt>
      <trkpt lat="42.218658" lon="2.474664">
        <ele>349.652</ele>
        <time>2021-05-27T16:26:15Z</time>
      </trkpt>
      <trkpt lat="42.218640" lon="2.474681">
        <ele>349.753</ele>
        <time>2021-05-27T16:26:16Z</time>
      </trkpt>
      <trkpt lat="42.218624" lon="2.474696">
        <ele>349.708</ele>
        <time>2021-05-27T16:26:17Z</time>
      </trkpt>
      <trkpt lat="42.218609" lon="2.474711">
        <ele>349.808</ele>
        <time>2021-05-27T16:26:18Z</time>
      </trkpt>
      <trkpt lat="42.218594" lon="2.474729">
        <ele>349.962</ele>
        <time>2021-05-27T16:26:19Z</time>
      </trkpt>
      <trkpt lat="42.218579" lon="2.474747">
        <ele>350.059</ele>
        <time>2021-05-27T16:26:20Z</time>
      </trkpt>
      <trkpt lat="42.218563" lon="2.474766">
        <ele>350.097</ele>
        <time>2021-05-27T16:26:21Z</time>
      </trkpt>
      <trkpt lat="42.218547" lon="2.474783">
        <ele>350.137</ele>
        <time>2021-05-27T16:26:22Z</time>
      </trkpt>
      <trkpt lat="42.218530" lon="2.474802">
        <ele>350.194</ele>
        <time>2021-05-27T16:26:23Z</time>
      </trkpt>
      <trkpt lat="42.218515" lon="2.474821">
        <ele>350.179</ele>
        <time>2021-05-27T16:26:24Z</time>
      </trkpt>
      <trkpt lat="42.218502" lon="2.474838">
        <ele>350.212</ele>
        <time>2021-05-27T16:26:25Z</time>
      </trkpt>
      <trkpt lat="42.218488" lon="2.474858">
        <ele>350.288</ele>
        <time>2021-05-27T16:26:26Z</time>
      </trkpt>
      <trkpt lat="42.218471" lon="2.474875">
        <ele>350.251</ele>
        <time>2021-05-27T16:26:27Z</time>
      </trkpt>
      <trkpt lat="42.218453" lon="2.474890">
        <ele>350.101</ele>
        <time>2021-05-27T16:26:28Z</time>
      </trkpt>
      <trkpt lat="42.218432" lon="2.474903">
        <ele>349.811</ele>
        <time>2021-05-27T16:26:29Z</time>
      </trkpt>
      <trkpt lat="42.218414" lon="2.474911">
        <ele>349.608</ele>
        <time>2021-05-27T16:26:30Z</time>
      </trkpt>
      <trkpt lat="42.218388" lon="2.474917">
        <ele>349.272</ele>
        <time>2021-05-27T16:26:32Z</time>
      </trkpt>
      <trkpt lat="42.218357" lon="2.474922">
        <ele>348.699</ele>
        <time>2021-05-27T16:26:34Z</time>
      </trkpt>
      <trkpt lat="42.218330" lon="2.474914">
        <ele>348.087</ele>
        <time>2021-05-27T16:26:36Z</time>
      </trkpt>
      <trkpt lat="42.218309" lon="2.474880">
        <ele>347.467</ele>
        <time>2021-05-27T16:26:38Z</time>
      </trkpt>
      <trkpt lat="42.218305" lon="2.474855">
        <ele>347.194</ele>
        <time>2021-05-27T16:26:39Z</time>
      </trkpt>
      <trkpt lat="42.218302" lon="2.474828">
        <ele>346.869</ele>
        <time>2021-05-27T16:26:40Z</time>
      </trkpt>
      <trkpt lat="42.218301" lon="2.474802">
        <ele>346.692</ele>
        <time>2021-05-27T16:26:41Z</time>
      </trkpt>
      <trkpt lat="42.218302" lon="2.474775">
        <ele>346.388</ele>
        <time>2021-05-27T16:26:42Z</time>
      </trkpt>
      <trkpt lat="42.218303" lon="2.474748">
        <ele>346.035</ele>
        <time>2021-05-27T16:26:43Z</time>
      </trkpt>
      <trkpt lat="42.218304" lon="2.474721">
        <ele>345.886</ele>
        <time>2021-05-27T16:26:44Z</time>
      </trkpt>
      <trkpt lat="42.218307" lon="2.474690">
        <ele>345.514</ele>
        <time>2021-05-27T16:26:45Z</time>
      </trkpt>
      <trkpt lat="42.218310" lon="2.474659">
        <ele>345.208</ele>
        <time>2021-05-27T16:26:46Z</time>
      </trkpt>
      <trkpt lat="42.218313" lon="2.474631">
        <ele>344.920</ele>
        <time>2021-05-27T16:26:47Z</time>
      </trkpt>
      <trkpt lat="42.218316" lon="2.474600">
        <ele>344.617</ele>
        <time>2021-05-27T16:26:48Z</time>
      </trkpt>
      <trkpt lat="42.218318" lon="2.474567">
        <ele>344.325</ele>
        <time>2021-05-27T16:26:49Z</time>
      </trkpt>
      <trkpt lat="42.218318" lon="2.474538">
        <ele>344.015</ele>
        <time>2021-05-27T16:26:50Z</time>
      </trkpt>
      <trkpt lat="42.218316" lon="2.474509">
        <ele>343.752</ele>
        <time>2021-05-27T16:26:51Z</time>
      </trkpt>
      <trkpt lat="42.218317" lon="2.474477">
        <ele>343.357</ele>
        <time>2021-05-27T16:26:52Z</time>
      </trkpt>
      <trkpt lat="42.218316" lon="2.474444">
        <ele>343.080</ele>
        <time>2021-05-27T16:26:53Z</time>
      </trkpt>
      <trkpt lat="42.218316" lon="2.474414">
        <ele>343.066</ele>
        <time>2021-05-27T16:26:54Z</time>
      </trkpt>
      <trkpt lat="42.218315" lon="2.474380">
        <ele>343.096</ele>
        <time>2021-05-27T16:26:55Z</time>
      </trkpt>
      <trkpt lat="42.218314" lon="2.474349">
        <ele>343.031</ele>
        <time>2021-05-27T16:26:56Z</time>
      </trkpt>
      <trkpt lat="42.218310" lon="2.474316">
        <ele>343.024</ele>
        <time>2021-05-27T16:26:57Z</time>
      </trkpt>
      <trkpt lat="42.218309" lon="2.474286">
        <ele>343.108</ele>
        <time>2021-05-27T16:26:58Z</time>
      </trkpt>
      <trkpt lat="42.218309" lon="2.474257">
        <ele>343.146</ele>
        <time>2021-05-27T16:26:59Z</time>
      </trkpt>
      <trkpt lat="42.218309" lon="2.474228">
        <ele>343.173</ele>
        <time>2021-05-27T16:27:00Z</time>
      </trkpt>
      <trkpt lat="42.218302" lon="2.474186">
        <ele>343.141</ele>
        <time>2021-05-27T16:27:02Z</time>
      </trkpt>
      <trkpt lat="42.218298" lon="2.474153">
        <ele>343.361</ele>
        <time>2021-05-27T16:27:04Z</time>
      </trkpt>
      <trkpt lat="42.218296" lon="2.474126">
        <ele>343.688</ele>
        <time>2021-05-27T16:27:06Z</time>
      </trkpt>
      <trkpt lat="42.218286" lon="2.474092">
        <ele>344.133</ele>
        <time>2021-05-27T16:27:08Z</time>
      </trkpt>
      <trkpt lat="42.218283" lon="2.474060">
        <ele>344.546</ele>
        <time>2021-05-27T16:27:10Z</time>
      </trkpt>
      <trkpt lat="42.218281" lon="2.474031">
        <ele>344.942</ele>
        <time>2021-05-27T16:27:12Z</time>
      </trkpt>
      <trkpt lat="42.218281" lon="2.473997">
        <ele>345.467</ele>
        <time>2021-05-27T16:27:14Z</time>
      </trkpt>
      <trkpt lat="42.218283" lon="2.473964">
        <ele>345.881</ele>
        <time>2021-05-27T16:27:16Z</time>
      </trkpt>
      <trkpt lat="42.218293" lon="2.473933">
        <ele>346.019</ele>
        <time>2021-05-27T16:27:18Z</time>
      </trkpt>
      <trkpt lat="42.218300" lon="2.473902">
        <ele>346.308</ele>
        <time>2021-05-27T16:27:20Z</time>
      </trkpt>
      <trkpt lat="42.218310" lon="2.473874">
        <ele>346.763</ele>
        <time>2021-05-27T16:27:22Z</time>
      </trkpt>
      <trkpt lat="42.218321" lon="2.473843">
        <ele>347.380</ele>
        <time>2021-05-27T16:27:24Z</time>
      </trkpt>
      <trkpt lat="42.218330" lon="2.473808">
        <ele>348.168</ele>
        <time>2021-05-27T16:27:26Z</time>
      </trkpt>
      <trkpt lat="42.218339" lon="2.473776">
        <ele>348.858</ele>
        <time>2021-05-27T16:27:28Z</time>
      </trkpt>
      <trkpt lat="42.218351" lon="2.473746">
        <ele>349.315</ele>
        <time>2021-05-27T16:27:30Z</time>
      </trkpt>
      <trkpt lat="42.218367" lon="2.473717">
        <ele>349.720</ele>
        <time>2021-05-27T16:27:32Z</time>
      </trkpt>
      <trkpt lat="42.218377" lon="2.473686">
        <ele>350.273</ele>
        <time>2021-05-27T16:27:34Z</time>
      </trkpt>
      <trkpt lat="42.218387" lon="2.473659">
        <ele>350.629</ele>
        <time>2021-05-27T16:27:36Z</time>
      </trkpt>
      <trkpt lat="42.218402" lon="2.473629">
        <ele>350.925</ele>
        <time>2021-05-27T16:27:38Z</time>
      </trkpt>
      <trkpt lat="42.218417" lon="2.473599">
        <ele>351.126</ele>
        <time>2021-05-27T16:27:40Z</time>
      </trkpt>
      <trkpt lat="42.218429" lon="2.473568">
        <ele>351.208</ele>
        <time>2021-05-27T16:27:42Z</time>
      </trkpt>
      <trkpt lat="42.218441" lon="2.473535">
        <ele>351.408</ele>
        <time>2021-05-27T16:27:44Z</time>
      </trkpt>
      <trkpt lat="42.218456" lon="2.473499">
        <ele>351.789</ele>
        <time>2021-05-27T16:27:46Z</time>
      </trkpt>
      <trkpt lat="42.218459" lon="2.473471">
        <ele>352.086</ele>
        <time>2021-05-27T16:27:48Z</time>
      </trkpt>
      <trkpt lat="42.218460" lon="2.473441">
        <ele>352.514</ele>
        <time>2021-05-27T16:27:50Z</time>
      </trkpt>
      <trkpt lat="42.218465" lon="2.473413">
        <ele>352.874</ele>
        <time>2021-05-27T16:27:52Z</time>
      </trkpt>
      <trkpt lat="42.218466" lon="2.473389">
        <ele>353.261</ele>
        <time>2021-05-27T16:27:54Z</time>
      </trkpt>
      <trkpt lat="42.218471" lon="2.473365">
        <ele>353.556</ele>
        <time>2021-05-27T16:27:56Z</time>
      </trkpt>
      <trkpt lat="42.218479" lon="2.473338">
        <ele>353.889</ele>
        <time>2021-05-27T16:27:58Z</time>
      </trkpt>
      <trkpt lat="42.218483" lon="2.473314">
        <ele>353.875</ele>
        <time>2021-05-27T16:28:00Z</time>
      </trkpt>
      <trkpt lat="42.218489" lon="2.473284">
        <ele>353.695</ele>
        <time>2021-05-27T16:28:02Z</time>
      </trkpt>
      <trkpt lat="42.218501" lon="2.473255">
        <ele>353.449</ele>
        <time>2021-05-27T16:28:04Z</time>
      </trkpt>
      <trkpt lat="42.218517" lon="2.473225">
        <ele>353.123</ele>
        <time>2021-05-27T16:28:06Z</time>
      </trkpt>
      <trkpt lat="42.218533" lon="2.473194">
        <ele>352.808</ele>
        <time>2021-05-27T16:28:08Z</time>
      </trkpt>
      <trkpt lat="42.218541" lon="2.473171">
        <ele>352.746</ele>
        <time>2021-05-27T16:28:09Z</time>
      </trkpt>
      <trkpt lat="42.218556" lon="2.473131">
        <ele>352.523</ele>
        <time>2021-05-27T16:28:11Z</time>
      </trkpt>
      <trkpt lat="42.218568" lon="2.473100">
        <ele>352.441</ele>
        <time>2021-05-27T16:28:13Z</time>
      </trkpt>
      <trkpt lat="42.218582" lon="2.473066">
        <ele>352.261</ele>
        <time>2021-05-27T16:28:15Z</time>
      </trkpt>
      <trkpt lat="42.218594" lon="2.473048">
        <ele>352.128</ele>
        <time>2021-05-27T16:28:16Z</time>
      </trkpt>
      <trkpt lat="42.218611" lon="2.473008">
        <ele>352.093</ele>
        <time>2021-05-27T16:28:18Z</time>
      </trkpt>
      <trkpt lat="42.218620" lon="2.472976">
        <ele>351.876</ele>
        <time>2021-05-27T16:28:20Z</time>
      </trkpt>
      <trkpt lat="42.218630" lon="2.472953">
        <ele>351.642</ele>
        <time>2021-05-27T16:28:21Z</time>
      </trkpt>
      <trkpt lat="42.218644" lon="2.472924">
        <ele>351.323</ele>
        <time>2021-05-27T16:28:22Z</time>
      </trkpt>
      <trkpt lat="42.218655" lon="2.472900">
        <ele>351.183</ele>
        <time>2021-05-27T16:28:23Z</time>
      </trkpt>
      <trkpt lat="42.218667" lon="2.472873">
        <ele>350.911</ele>
        <time>2021-05-27T16:28:24Z</time>
      </trkpt>
      <trkpt lat="42.218679" lon="2.472851">
        <ele>350.708</ele>
        <time>2021-05-27T16:28:25Z</time>
      </trkpt>
      <trkpt lat="42.218692" lon="2.472829">
        <ele>350.569</ele>
        <time>2021-05-27T16:28:26Z</time>
      </trkpt>
      <trkpt lat="42.218703" lon="2.472809">
        <ele>350.386</ele>
        <time>2021-05-27T16:28:27Z</time>
      </trkpt>
      <trkpt lat="42.218715" lon="2.472787">
        <ele>350.124</ele>
        <time>2021-05-27T16:28:28Z</time>
      </trkpt>
      <trkpt lat="42.218726" lon="2.472766">
        <ele>349.974</ele>
        <time>2021-05-27T16:28:29Z</time>
      </trkpt>
      <trkpt lat="42.218740" lon="2.472750">
        <ele>349.881</ele>
        <time>2021-05-27T16:28:30Z</time>
      </trkpt>
      <trkpt lat="42.218751" lon="2.472729">
        <ele>349.786</ele>
        <time>2021-05-27T16:28:31Z</time>
      </trkpt>
      <trkpt lat="42.218763" lon="2.472711">
        <ele>349.659</ele>
        <time>2021-05-27T16:28:32Z</time>
      </trkpt>
      <trkpt lat="42.218779" lon="2.472694">
        <ele>349.535</ele>
        <time>2021-05-27T16:28:33Z</time>
      </trkpt>
      <trkpt lat="42.218794" lon="2.472680">
        <ele>349.548</ele>
        <time>2021-05-27T16:28:34Z</time>
      </trkpt>
      <trkpt lat="42.218819" lon="2.472650">
        <ele>349.661</ele>
        <time>2021-05-27T16:28:36Z</time>
      </trkpt>
      <trkpt lat="42.218842" lon="2.472613">
        <ele>350.017</ele>
        <time>2021-05-27T16:28:38Z</time>
      </trkpt>
      <trkpt lat="42.218857" lon="2.472597">
        <ele>350.208</ele>
        <time>2021-05-27T16:28:39Z</time>
      </trkpt>
      <trkpt lat="42.218883" lon="2.472570">
        <ele>350.761</ele>
        <time>2021-05-27T16:28:41Z</time>
      </trkpt>
      <trkpt lat="42.218909" lon="2.472546">
        <ele>351.258</ele>
        <time>2021-05-27T16:28:43Z</time>
      </trkpt>
      <trkpt lat="42.218937" lon="2.472521">
        <ele>351.666</ele>
        <time>2021-05-27T16:28:45Z</time>
      </trkpt>
      <trkpt lat="42.218969" lon="2.472495">
        <ele>352.016</ele>
        <time>2021-05-27T16:28:47Z</time>
      </trkpt>
      <trkpt lat="42.218986" lon="2.472487">
        <ele>352.013</ele>
        <time>2021-05-27T16:28:48Z</time>
      </trkpt>
      <trkpt lat="42.219018" lon="2.472463">
        <ele>352.178</ele>
        <time>2021-05-27T16:28:50Z</time>
      </trkpt>
      <trkpt lat="42.219036" lon="2.472446">
        <ele>352.151</ele>
        <time>2021-05-27T16:28:51Z</time>
      </trkpt>
      <trkpt lat="42.219053" lon="2.472432">
        <ele>352.257</ele>
        <time>2021-05-27T16:28:52Z</time>
      </trkpt>
      <trkpt lat="42.219069" lon="2.472417">
        <ele>352.376</ele>
        <time>2021-05-27T16:28:53Z</time>
      </trkpt>
      <trkpt lat="42.219084" lon="2.472403">
        <ele>352.490</ele>
        <time>2021-05-27T16:28:54Z</time>
      </trkpt>
      <trkpt lat="42.219102" lon="2.472387">
        <ele>352.519</ele>
        <time>2021-05-27T16:28:55Z</time>
      </trkpt>
      <trkpt lat="42.219122" lon="2.472373">
        <ele>352.708</ele>
        <time>2021-05-27T16:28:56Z</time>
      </trkpt>
      <trkpt lat="42.219138" lon="2.472360">
        <ele>352.954</ele>
        <time>2021-05-27T16:28:57Z</time>
      </trkpt>
      <trkpt lat="42.219154" lon="2.472348">
        <ele>353.031</ele>
        <time>2021-05-27T16:28:58Z</time>
      </trkpt>
      <trkpt lat="42.219169" lon="2.472333">
        <ele>353.239</ele>
        <time>2021-05-27T16:28:59Z</time>
      </trkpt>
      <trkpt lat="42.219202" lon="2.472307">
        <ele>353.369</ele>
        <time>2021-05-27T16:29:01Z</time>
      </trkpt>
      <trkpt lat="42.219223" lon="2.472298">
        <ele>353.356</ele>
        <time>2021-05-27T16:29:02Z</time>
      </trkpt>
      <trkpt lat="42.219240" lon="2.472287">
        <ele>353.481</ele>
        <time>2021-05-27T16:29:03Z</time>
      </trkpt>
      <trkpt lat="42.219256" lon="2.472272">
        <ele>353.534</ele>
        <time>2021-05-27T16:29:04Z</time>
      </trkpt>
      <trkpt lat="42.219277" lon="2.472236">
        <ele>353.910</ele>
        <time>2021-05-27T16:29:06Z</time>
      </trkpt>
      <trkpt lat="42.219291" lon="2.472218">
        <ele>354.069</ele>
        <time>2021-05-27T16:29:07Z</time>
      </trkpt>
      <trkpt lat="42.219305" lon="2.472202">
        <ele>354.004</ele>
        <time>2021-05-27T16:29:08Z</time>
      </trkpt>
      <trkpt lat="42.219321" lon="2.472188">
        <ele>354.024</ele>
        <time>2021-05-27T16:29:09Z</time>
      </trkpt>
      <trkpt lat="42.219349" lon="2.472162">
        <ele>354.008</ele>
        <time>2021-05-27T16:29:11Z</time>
      </trkpt>
      <trkpt lat="42.219379" lon="2.472135">
        <ele>354.173</ele>
        <time>2021-05-27T16:29:13Z</time>
      </trkpt>
      <trkpt lat="42.219396" lon="2.472123">
        <ele>354.240</ele>
        <time>2021-05-27T16:29:14Z</time>
      </trkpt>
      <trkpt lat="42.219424" lon="2.472099">
        <ele>354.318</ele>
        <time>2021-05-27T16:29:16Z</time>
      </trkpt>
      <trkpt lat="42.219440" lon="2.472084">
        <ele>354.528</ele>
        <time>2021-05-27T16:29:17Z</time>
      </trkpt>
      <trkpt lat="42.219463" lon="2.472057">
        <ele>354.635</ele>
        <time>2021-05-27T16:29:19Z</time>
      </trkpt>
      <trkpt lat="42.219490" lon="2.472031">
        <ele>354.990</ele>
        <time>2021-05-27T16:29:21Z</time>
      </trkpt>
      <trkpt lat="42.219518" lon="2.472010">
        <ele>355.113</ele>
        <time>2021-05-27T16:29:23Z</time>
      </trkpt>
      <trkpt lat="42.219549" lon="2.471994">
        <ele>355.449</ele>
        <time>2021-05-27T16:29:25Z</time>
      </trkpt>
      <trkpt lat="42.219584" lon="2.471975">
        <ele>355.776</ele>
        <time>2021-05-27T16:29:27Z</time>
      </trkpt>
      <trkpt lat="42.219603" lon="2.471963">
        <ele>356.090</ele>
        <time>2021-05-27T16:29:28Z</time>
      </trkpt>
      <trkpt lat="42.219622" lon="2.471954">
        <ele>356.219</ele>
        <time>2021-05-27T16:29:29Z</time>
      </trkpt>
      <trkpt lat="42.219652" lon="2.471935">
        <ele>356.508</ele>
        <time>2021-05-27T16:29:31Z</time>
      </trkpt>
      <trkpt lat="42.219679" lon="2.471927">
        <ele>356.784</ele>
        <time>2021-05-27T16:29:33Z</time>
      </trkpt>
      <trkpt lat="42.219699" lon="2.471921">
        <ele>356.911</ele>
        <time>2021-05-27T16:29:35Z</time>
      </trkpt>
      <trkpt lat="42.219711" lon="2.471900">
        <ele>357.179</ele>
        <time>2021-05-27T16:29:43Z</time>
      </trkpt>
      <trkpt lat="42.219733" lon="2.471899">
        <ele>357.269</ele>
        <time>2021-05-27T16:29:46Z</time>
      </trkpt>
      <trkpt lat="42.219760" lon="2.471889">
        <ele>357.216</ele>
        <time>2021-05-27T16:29:47Z</time>
      </trkpt>
      <trkpt lat="42.219785" lon="2.471876">
        <ele>357.381</ele>
        <time>2021-05-27T16:29:49Z</time>
      </trkpt>
      <trkpt lat="42.219812" lon="2.471855">
        <ele>357.424</ele>
        <time>2021-05-27T16:29:51Z</time>
      </trkpt>
      <trkpt lat="42.219839" lon="2.471837">
        <ele>357.580</ele>
        <time>2021-05-27T16:29:55Z</time>
      </trkpt>
      <trkpt lat="42.219875" lon="2.471815">
        <ele>357.756</ele>
        <time>2021-05-27T16:29:57Z</time>
      </trkpt>
      <trkpt lat="42.219894" lon="2.471802">
        <ele>357.859</ele>
        <time>2021-05-27T16:29:58Z</time>
      </trkpt>
      <trkpt lat="42.219914" lon="2.471790">
        <ele>357.914</ele>
        <time>2021-05-27T16:29:59Z</time>
      </trkpt>
      <trkpt lat="42.219935" lon="2.471776">
        <ele>358.108</ele>
        <time>2021-05-27T16:30:00Z</time>
      </trkpt>
      <trkpt lat="42.219955" lon="2.471763">
        <ele>358.222</ele>
        <time>2021-05-27T16:30:01Z</time>
      </trkpt>
      <trkpt lat="42.219978" lon="2.471749">
        <ele>358.439</ele>
        <time>2021-05-27T16:30:02Z</time>
      </trkpt>
      <trkpt lat="42.219997" lon="2.471736">
        <ele>358.567</ele>
        <time>2021-05-27T16:30:03Z</time>
      </trkpt>
      <trkpt lat="42.220018" lon="2.471722">
        <ele>358.597</ele>
        <time>2021-05-27T16:30:04Z</time>
      </trkpt>
      <trkpt lat="42.220037" lon="2.471707">
        <ele>358.514</ele>
        <time>2021-05-27T16:30:05Z</time>
      </trkpt>
      <trkpt lat="42.220056" lon="2.471691">
        <ele>358.629</ele>
        <time>2021-05-27T16:30:06Z</time>
      </trkpt>
      <trkpt lat="42.220074" lon="2.471676">
        <ele>358.672</ele>
        <time>2021-05-27T16:30:07Z</time>
      </trkpt>
      <trkpt lat="42.220095" lon="2.471658">
        <ele>358.718</ele>
        <time>2021-05-27T16:30:08Z</time>
      </trkpt>
      <trkpt lat="42.220111" lon="2.471639">
        <ele>358.879</ele>
        <time>2021-05-27T16:30:09Z</time>
      </trkpt>
      <trkpt lat="42.220127" lon="2.471621">
        <ele>358.905</ele>
        <time>2021-05-27T16:30:10Z</time>
      </trkpt>
      <trkpt lat="42.220148" lon="2.471607">
        <ele>358.925</ele>
        <time>2021-05-27T16:30:11Z</time>
      </trkpt>
      <trkpt lat="42.220166" lon="2.471593">
        <ele>359.008</ele>
        <time>2021-05-27T16:30:12Z</time>
      </trkpt>
      <trkpt lat="42.220183" lon="2.471577">
        <ele>359.124</ele>
        <time>2021-05-27T16:30:13Z</time>
      </trkpt>
      <trkpt lat="42.220200" lon="2.471561">
        <ele>359.231</ele>
        <time>2021-05-27T16:30:14Z</time>
      </trkpt>
      <trkpt lat="42.220215" lon="2.471542">
        <ele>359.449</ele>
        <time>2021-05-27T16:30:15Z</time>
      </trkpt>
      <trkpt lat="42.220233" lon="2.471523">
        <ele>359.529</ele>
        <time>2021-05-27T16:30:16Z</time>
      </trkpt>
      <trkpt lat="42.220249" lon="2.471505">
        <ele>359.776</ele>
        <time>2021-05-27T16:30:17Z</time>
      </trkpt>
      <trkpt lat="42.220263" lon="2.471487">
        <ele>359.951</ele>
        <time>2021-05-27T16:30:18Z</time>
      </trkpt>
      <trkpt lat="42.220276" lon="2.471467">
        <ele>360.254</ele>
        <time>2021-05-27T16:30:19Z</time>
      </trkpt>
      <trkpt lat="42.220293" lon="2.471446">
        <ele>360.410</ele>
        <time>2021-05-27T16:30:20Z</time>
      </trkpt>
      <trkpt lat="42.220307" lon="2.471425">
        <ele>360.665</ele>
        <time>2021-05-27T16:30:21Z</time>
      </trkpt>
      <trkpt lat="42.220323" lon="2.471405">
        <ele>360.768</ele>
        <time>2021-05-27T16:30:22Z</time>
      </trkpt>
      <trkpt lat="42.220339" lon="2.471385">
        <ele>360.814</ele>
        <time>2021-05-27T16:30:23Z</time>
      </trkpt>
      <trkpt lat="42.220354" lon="2.471367">
        <ele>360.808</ele>
        <time>2021-05-27T16:30:24Z</time>
      </trkpt>
      <trkpt lat="42.220372" lon="2.471349">
        <ele>360.933</ele>
        <time>2021-05-27T16:30:25Z</time>
      </trkpt>
      <trkpt lat="42.220387" lon="2.471329">
        <ele>361.080</ele>
        <time>2021-05-27T16:30:26Z</time>
      </trkpt>
      <trkpt lat="42.220409" lon="2.471311">
        <ele>361.168</ele>
        <time>2021-05-27T16:30:27Z</time>
      </trkpt>
      <trkpt lat="42.220425" lon="2.471293">
        <ele>361.278</ele>
        <time>2021-05-27T16:30:28Z</time>
      </trkpt>
      <trkpt lat="42.220445" lon="2.471274">
        <ele>361.395</ele>
        <time>2021-05-27T16:30:29Z</time>
      </trkpt>
      <trkpt lat="42.220466" lon="2.471256">
        <ele>361.480</ele>
        <time>2021-05-27T16:30:30Z</time>
      </trkpt>
      <trkpt lat="42.220484" lon="2.471236">
        <ele>361.663</ele>
        <time>2021-05-27T16:30:31Z</time>
      </trkpt>
      <trkpt lat="42.220501" lon="2.471219">
        <ele>361.829</ele>
        <time>2021-05-27T16:30:32Z</time>
      </trkpt>
      <trkpt lat="42.220517" lon="2.471201">
        <ele>362.044</ele>
        <time>2021-05-27T16:30:33Z</time>
      </trkpt>
      <trkpt lat="42.220535" lon="2.471188">
        <ele>362.105</ele>
        <time>2021-05-27T16:30:34Z</time>
      </trkpt>
      <trkpt lat="42.220554" lon="2.471176">
        <ele>362.315</ele>
        <time>2021-05-27T16:30:36Z</time>
      </trkpt>
      <trkpt lat="42.220593" lon="2.471145">
        <ele>362.708</ele>
        <time>2021-05-27T16:30:37Z</time>
      </trkpt>
      <trkpt lat="42.220612" lon="2.471128">
        <ele>362.931</ele>
        <time>2021-05-27T16:30:38Z</time>
      </trkpt>
      <trkpt lat="42.220632" lon="2.471108">
        <ele>363.048</ele>
        <time>2021-05-27T16:30:39Z</time>
      </trkpt>
      <trkpt lat="42.220651" lon="2.471087">
        <ele>363.116</ele>
        <time>2021-05-27T16:30:40Z</time>
      </trkpt>
      <trkpt lat="42.220667" lon="2.471063">
        <ele>363.266</ele>
        <time>2021-05-27T16:30:41Z</time>
      </trkpt>
      <trkpt lat="42.220682" lon="2.471039">
        <ele>363.313</ele>
        <time>2021-05-27T16:30:42Z</time>
      </trkpt>
      <trkpt lat="42.220703" lon="2.470990">
        <ele>363.438</ele>
        <time>2021-05-27T16:30:44Z</time>
      </trkpt>
      <trkpt lat="42.220715" lon="2.470950">
        <ele>363.611</ele>
        <time>2021-05-27T16:30:46Z</time>
      </trkpt>
      <trkpt lat="42.220722" lon="2.470920">
        <ele>363.717</ele>
        <time>2021-05-27T16:30:48Z</time>
      </trkpt>
      <trkpt lat="42.220730" lon="2.470887">
        <ele>363.814</ele>
        <time>2021-05-27T16:30:50Z</time>
      </trkpt>
      <trkpt lat="42.220745" lon="2.470855">
        <ele>363.954</ele>
        <time>2021-05-27T16:30:53Z</time>
      </trkpt>
      <trkpt lat="42.220757" lon="2.470825">
        <ele>364.009</ele>
        <time>2021-05-27T16:30:54Z</time>
      </trkpt>
      <trkpt lat="42.220762" lon="2.470798">
        <ele>364.208</ele>
        <time>2021-05-27T16:30:56Z</time>
      </trkpt>
      <trkpt lat="42.220768" lon="2.470773">
        <ele>364.348</ele>
        <time>2021-05-27T16:30:58Z</time>
      </trkpt>
      <trkpt lat="42.220777" lon="2.470748">
        <ele>364.595</ele>
        <time>2021-05-27T16:31:00Z</time>
      </trkpt>
      <trkpt lat="42.220790" lon="2.470719">
        <ele>364.783</ele>
        <time>2021-05-27T16:31:02Z</time>
      </trkpt>
      <trkpt lat="42.220805" lon="2.470690">
        <ele>364.943</ele>
        <time>2021-05-27T16:31:04Z</time>
      </trkpt>
      <trkpt lat="42.220819" lon="2.470659">
        <ele>365.280</ele>
        <time>2021-05-27T16:31:06Z</time>
      </trkpt>
      <trkpt lat="42.220834" lon="2.470627">
        <ele>365.565</ele>
        <time>2021-05-27T16:31:08Z</time>
      </trkpt>
      <trkpt lat="42.220846" lon="2.470592">
        <ele>365.958</ele>
        <time>2021-05-27T16:31:10Z</time>
      </trkpt>
      <trkpt lat="42.220855" lon="2.470566">
        <ele>366.284</ele>
        <time>2021-05-27T16:31:12Z</time>
      </trkpt>
      <trkpt lat="42.220866" lon="2.470539">
        <ele>366.483</ele>
        <time>2021-05-27T16:31:14Z</time>
      </trkpt>
      <trkpt lat="42.220881" lon="2.470513">
        <ele>366.725</ele>
        <time>2021-05-27T16:31:16Z</time>
      </trkpt>
      <trkpt lat="42.220897" lon="2.470488">
        <ele>366.917</ele>
        <time>2021-05-27T16:31:18Z</time>
      </trkpt>
      <trkpt lat="42.220914" lon="2.470461">
        <ele>367.208</ele>
        <time>2021-05-27T16:31:20Z</time>
      </trkpt>
      <trkpt lat="42.220925" lon="2.470431">
        <ele>367.495</ele>
        <time>2021-05-27T16:31:22Z</time>
      </trkpt>
      <trkpt lat="42.220939" lon="2.470404">
        <ele>367.712</ele>
        <time>2021-05-27T16:31:24Z</time>
      </trkpt>
      <trkpt lat="42.220955" lon="2.470379">
        <ele>367.970</ele>
        <time>2021-05-27T16:31:26Z</time>
      </trkpt>
      <trkpt lat="42.220969" lon="2.470351">
        <ele>368.240</ele>
        <time>2021-05-27T16:31:28Z</time>
      </trkpt>
      <trkpt lat="42.220983" lon="2.470326">
        <ele>368.467</ele>
        <time>2021-05-27T16:31:30Z</time>
      </trkpt>
      <trkpt lat="42.220999" lon="2.470298">
        <ele>368.752</ele>
        <time>2021-05-27T16:31:32Z</time>
      </trkpt>
      <trkpt lat="42.221016" lon="2.470269">
        <ele>369.025</ele>
        <time>2021-05-27T16:31:34Z</time>
      </trkpt>
      <trkpt lat="42.221032" lon="2.470245">
        <ele>369.241</ele>
        <time>2021-05-27T16:31:36Z</time>
      </trkpt>
      <trkpt lat="42.221051" lon="2.470221">
        <ele>369.435</ele>
        <time>2021-05-27T16:31:38Z</time>
      </trkpt>
      <trkpt lat="42.221069" lon="2.470197">
        <ele>369.686</ele>
        <time>2021-05-27T16:31:40Z</time>
      </trkpt>
      <trkpt lat="42.221089" lon="2.470175">
        <ele>369.814</ele>
        <time>2021-05-27T16:31:42Z</time>
      </trkpt>
      <trkpt lat="42.221111" lon="2.470157">
        <ele>370.008</ele>
        <time>2021-05-27T16:31:44Z</time>
      </trkpt>
      <trkpt lat="42.221133" lon="2.470143">
        <ele>370.070</ele>
        <time>2021-05-27T16:31:46Z</time>
      </trkpt>
      <trkpt lat="42.221154" lon="2.470131">
        <ele>370.117</ele>
        <time>2021-05-27T16:31:48Z</time>
      </trkpt>
      <trkpt lat="42.221176" lon="2.470124">
        <ele>370.135</ele>
        <time>2021-05-27T16:31:50Z</time>
      </trkpt>
      <trkpt lat="42.221198" lon="2.470112">
        <ele>370.225</ele>
        <time>2021-05-27T16:31:52Z</time>
      </trkpt>
      <trkpt lat="42.221222" lon="2.470097">
        <ele>370.352</ele>
        <time>2021-05-27T16:31:54Z</time>
      </trkpt>
      <trkpt lat="42.221242" lon="2.470083">
        <ele>370.377</ele>
        <time>2021-05-27T16:31:56Z</time>
      </trkpt>
      <trkpt lat="42.221265" lon="2.470071">
        <ele>370.480</ele>
        <time>2021-05-27T16:31:58Z</time>
      </trkpt>
      <trkpt lat="42.221289" lon="2.470058">
        <ele>370.516</ele>
        <time>2021-05-27T16:32:00Z</time>
      </trkpt>
      <trkpt lat="42.221314" lon="2.470055">
        <ele>370.678</ele>
        <time>2021-05-27T16:32:02Z</time>
      </trkpt>
      <trkpt lat="42.221339" lon="2.470057">
        <ele>370.733</ele>
        <time>2021-05-27T16:32:04Z</time>
      </trkpt>
      <trkpt lat="42.221368" lon="2.470056">
        <ele>370.726</ele>
        <time>2021-05-27T16:32:06Z</time>
      </trkpt>
      <trkpt lat="42.221398" lon="2.470055">
        <ele>370.808</ele>
        <time>2021-05-27T16:32:09Z</time>
      </trkpt>
      <trkpt lat="42.221430" lon="2.470057">
        <ele>370.964</ele>
        <time>2021-05-27T16:32:10Z</time>
      </trkpt>
      <trkpt lat="42.221462" lon="2.470058">
        <ele>371.151</ele>
        <time>2021-05-27T16:32:12Z</time>
      </trkpt>
      <trkpt lat="42.221481" lon="2.470058">
        <ele>371.159</ele>
        <time>2021-05-27T16:32:13Z</time>
      </trkpt>
      <trkpt lat="42.221499" lon="2.470057">
        <ele>371.289</ele>
        <time>2021-05-27T16:32:14Z</time>
      </trkpt>
      <trkpt lat="42.221518" lon="2.470055">
        <ele>371.386</ele>
        <time>2021-05-27T16:32:15Z</time>
      </trkpt>
      <trkpt lat="42.221536" lon="2.470054">
        <ele>371.361</ele>
        <time>2021-05-27T16:32:16Z</time>
      </trkpt>
      <trkpt lat="42.221555" lon="2.470053">
        <ele>371.454</ele>
        <time>2021-05-27T16:32:17Z</time>
      </trkpt>
      <trkpt lat="42.221574" lon="2.470053">
        <ele>371.520</ele>
        <time>2021-05-27T16:32:18Z</time>
      </trkpt>
      <trkpt lat="42.221592" lon="2.470052">
        <ele>371.558</ele>
        <time>2021-05-27T16:32:19Z</time>
      </trkpt>
      <trkpt lat="42.221614" lon="2.470050">
        <ele>371.652</ele>
        <time>2021-05-27T16:32:20Z</time>
      </trkpt>
      <trkpt lat="42.221635" lon="2.470049">
        <ele>371.717</ele>
        <time>2021-05-27T16:32:21Z</time>
      </trkpt>
      <trkpt lat="42.221656" lon="2.470047">
        <ele>371.808</ele>
        <time>2021-05-27T16:32:22Z</time>
      </trkpt>
      <trkpt lat="42.221675" lon="2.470046">
        <ele>371.932</ele>
        <time>2021-05-27T16:32:23Z</time>
      </trkpt>
      <trkpt lat="42.221695" lon="2.470045">
        <ele>371.989</ele>
        <time>2021-05-27T16:32:24Z</time>
      </trkpt>
      <trkpt lat="42.221715" lon="2.470045">
        <ele>372.047</ele>
        <time>2021-05-27T16:32:25Z</time>
      </trkpt>
      <trkpt lat="42.221734" lon="2.470044">
        <ele>372.137</ele>
        <time>2021-05-27T16:32:26Z</time>
      </trkpt>
      <trkpt lat="42.221756" lon="2.470046">
        <ele>372.264</ele>
        <time>2021-05-27T16:32:27Z</time>
      </trkpt>
      <trkpt lat="42.221776" lon="2.470046">
        <ele>372.239</ele>
        <time>2021-05-27T16:32:28Z</time>
      </trkpt>
      <trkpt lat="42.221796" lon="2.470046">
        <ele>372.312</ele>
        <time>2021-05-27T16:32:29Z</time>
      </trkpt>
      <trkpt lat="42.221816" lon="2.470044">
        <ele>372.428</ele>
        <time>2021-05-27T16:32:30Z</time>
      </trkpt>
      <trkpt lat="42.221836" lon="2.470043">
        <ele>372.552</ele>
        <time>2021-05-27T16:32:31Z</time>
      </trkpt>
      <trkpt lat="42.221859" lon="2.470040">
        <ele>372.553</ele>
        <time>2021-05-27T16:32:32Z</time>
      </trkpt>
      <trkpt lat="42.221880" lon="2.470035">
        <ele>372.608</ele>
        <time>2021-05-27T16:32:33Z</time>
      </trkpt>
      <trkpt lat="42.221904" lon="2.470033">
        <ele>372.708</ele>
        <time>2021-05-27T16:32:34Z</time>
      </trkpt>
      <trkpt lat="42.221928" lon="2.470030">
        <ele>372.892</ele>
        <time>2021-05-27T16:32:35Z</time>
      </trkpt>
      <trkpt lat="42.221950" lon="2.470027">
        <ele>372.959</ele>
        <time>2021-05-27T16:32:36Z</time>
      </trkpt>
      <trkpt lat="42.221972" lon="2.470024">
        <ele>373.177</ele>
        <time>2021-05-27T16:32:37Z</time>
      </trkpt>
      <trkpt lat="42.221992" lon="2.470021">
        <ele>373.347</ele>
        <time>2021-05-27T16:32:38Z</time>
      </trkpt>
      <trkpt lat="42.222011" lon="2.470021">
        <ele>373.414</ele>
        <time>2021-05-27T16:32:39Z</time>
      </trkpt>
      <trkpt lat="42.222033" lon="2.470019">
        <ele>373.659</ele>
        <time>2021-05-27T16:32:40Z</time>
      </trkpt>
      <trkpt lat="42.222054" lon="2.470020">
        <ele>373.772</ele>
        <time>2021-05-27T16:32:41Z</time>
      </trkpt>
      <trkpt lat="42.222076" lon="2.470019">
        <ele>373.928</ele>
        <time>2021-05-27T16:32:42Z</time>
      </trkpt>
      <trkpt lat="42.222098" lon="2.470016">
        <ele>374.023</ele>
        <time>2021-05-27T16:32:43Z</time>
      </trkpt>
      <trkpt lat="42.222119" lon="2.470014">
        <ele>374.283</ele>
        <time>2021-05-27T16:32:44Z</time>
      </trkpt>
      <trkpt lat="42.222141" lon="2.470012">
        <ele>374.411</ele>
        <time>2021-05-27T16:32:45Z</time>
      </trkpt>
      <trkpt lat="42.222160" lon="2.470011">
        <ele>374.508</ele>
        <time>2021-05-27T16:32:46Z</time>
      </trkpt>
      <trkpt lat="42.222182" lon="2.470012">
        <ele>374.719</ele>
        <time>2021-05-27T16:32:47Z</time>
      </trkpt>
      <trkpt lat="42.222202" lon="2.470015">
        <ele>374.896</ele>
        <time>2021-05-27T16:32:48Z</time>
      </trkpt>
      <trkpt lat="42.222221" lon="2.470018">
        <ele>374.914</ele>
        <time>2021-05-27T16:32:49Z</time>
      </trkpt>
      <trkpt lat="42.222243" lon="2.470021">
        <ele>375.044</ele>
        <time>2021-05-27T16:32:50Z</time>
      </trkpt>
      <trkpt lat="42.222263" lon="2.470024">
        <ele>375.111</ele>
        <time>2021-05-27T16:32:51Z</time>
      </trkpt>
      <trkpt lat="42.222282" lon="2.470028">
        <ele>375.116</ele>
        <time>2021-05-27T16:32:52Z</time>
      </trkpt>
      <trkpt lat="42.222300" lon="2.470030">
        <ele>375.259</ele>
        <time>2021-05-27T16:32:53Z</time>
      </trkpt>
      <trkpt lat="42.222340" lon="2.470037">
        <ele>375.345</ele>
        <time>2021-05-27T16:32:55Z</time>
      </trkpt>
      <trkpt lat="42.222360" lon="2.470039">
        <ele>375.478</ele>
        <time>2021-05-27T16:32:56Z</time>
      </trkpt>
      <trkpt lat="42.222380" lon="2.470041">
        <ele>375.433</ele>
        <time>2021-05-27T16:32:57Z</time>
      </trkpt>
      <trkpt lat="42.222401" lon="2.470044">
        <ele>375.526</ele>
        <time>2021-05-27T16:32:58Z</time>
      </trkpt>
      <trkpt lat="42.222423" lon="2.470046">
        <ele>375.608</ele>
        <time>2021-05-27T16:32:59Z</time>
      </trkpt>
      <trkpt lat="42.222441" lon="2.470047">
        <ele>375.644</ele>
        <time>2021-05-27T16:33:00Z</time>
      </trkpt>
      <trkpt lat="42.222476" lon="2.470050">
        <ele>375.721</ele>
        <time>2021-05-27T16:33:02Z</time>
      </trkpt>
      <trkpt lat="42.222494" lon="2.470049">
        <ele>375.899</ele>
        <time>2021-05-27T16:33:03Z</time>
      </trkpt>
      <trkpt lat="42.222528" lon="2.470050">
        <ele>376.049</ele>
        <time>2021-05-27T16:33:05Z</time>
      </trkpt>
      <trkpt lat="42.222558" lon="2.470052">
        <ele>376.286</ele>
        <time>2021-05-27T16:33:07Z</time>
      </trkpt>
      <trkpt lat="42.222593" lon="2.470052">
        <ele>376.511</ele>
        <time>2021-05-27T16:33:09Z</time>
      </trkpt>
      <trkpt lat="42.222627" lon="2.470054">
        <ele>376.744</ele>
        <time>2021-05-27T16:33:11Z</time>
      </trkpt>
      <trkpt lat="42.222646" lon="2.470052">
        <ele>376.920</ele>
        <time>2021-05-27T16:33:12Z</time>
      </trkpt>
      <trkpt lat="42.222665" lon="2.470049">
        <ele>377.078</ele>
        <time>2021-05-27T16:33:13Z</time>
      </trkpt>
      <trkpt lat="42.222694" lon="2.470046">
        <ele>377.233</ele>
        <time>2021-05-27T16:33:15Z</time>
      </trkpt>
      <trkpt lat="42.222726" lon="2.470041">
        <ele>377.526</ele>
        <time>2021-05-27T16:33:17Z</time>
      </trkpt>
      <trkpt lat="42.222744" lon="2.470041">
        <ele>377.608</ele>
        <time>2021-05-27T16:33:18Z</time>
      </trkpt>
      <trkpt lat="42.222764" lon="2.470043">
        <ele>377.794</ele>
        <time>2021-05-27T16:33:19Z</time>
      </trkpt>
      <trkpt lat="42.222783" lon="2.470044">
        <ele>377.941</ele>
        <time>2021-05-27T16:33:20Z</time>
      </trkpt>
      <trkpt lat="42.222801" lon="2.470043">
        <ele>377.929</ele>
        <time>2021-05-27T16:33:21Z</time>
      </trkpt>
      <trkpt lat="42.222838" lon="2.470045">
        <ele>378.129</ele>
        <time>2021-05-27T16:33:23Z</time>
      </trkpt>
      <trkpt lat="42.222856" lon="2.470044">
        <ele>378.196</ele>
        <time>2021-05-27T16:33:24Z</time>
      </trkpt>
      <trkpt lat="42.222893" lon="2.470041">
        <ele>378.371</ele>
        <time>2021-05-27T16:33:26Z</time>
      </trkpt>
      <trkpt lat="42.222926" lon="2.470041">
        <ele>378.474</ele>
        <time>2021-05-27T16:33:28Z</time>
      </trkpt>
      <trkpt lat="42.222961" lon="2.470038">
        <ele>378.580</ele>
        <time>2021-05-27T16:33:30Z</time>
      </trkpt>
      <trkpt lat="42.222998" lon="2.470035">
        <ele>378.795</ele>
        <time>2021-05-27T16:33:32Z</time>
      </trkpt>
      <trkpt lat="42.223015" lon="2.470033">
        <ele>378.749</ele>
        <time>2021-05-27T16:33:33Z</time>
      </trkpt>
      <trkpt lat="42.223034" lon="2.470033">
        <ele>378.823</ele>
        <time>2021-05-27T16:33:34Z</time>
      </trkpt>
      <trkpt lat="42.223054" lon="2.470031">
        <ele>378.908</ele>
        <time>2021-05-27T16:33:35Z</time>
      </trkpt>
      <trkpt lat="42.223089" lon="2.470031">
        <ele>379.086</ele>
        <time>2021-05-27T16:33:37Z</time>
      </trkpt>
      <trkpt lat="42.223127" lon="2.470023">
        <ele>379.243</ele>
        <time>2021-05-27T16:33:39Z</time>
      </trkpt>
      <trkpt lat="42.223147" lon="2.470020">
        <ele>379.311</ele>
        <time>2021-05-27T16:33:40Z</time>
      </trkpt>
      <trkpt lat="42.223166" lon="2.470017">
        <ele>379.451</ele>
        <time>2021-05-27T16:33:41Z</time>
      </trkpt>
      <trkpt lat="42.223184" lon="2.470014">
        <ele>379.428</ele>
        <time>2021-05-27T16:33:42Z</time>
      </trkpt>
      <trkpt lat="42.223218" lon="2.470008">
        <ele>379.613</ele>
        <time>2021-05-27T16:33:44Z</time>
      </trkpt>
      <trkpt lat="42.223236" lon="2.470005">
        <ele>379.646</ele>
        <time>2021-05-27T16:33:45Z</time>
      </trkpt>
      <trkpt lat="42.223273" lon="2.469998">
        <ele>379.892</ele>
        <time>2021-05-27T16:33:47Z</time>
      </trkpt>
      <trkpt lat="42.223291" lon="2.469992">
        <ele>379.966</ele>
        <time>2021-05-27T16:33:48Z</time>
      </trkpt>
      <trkpt lat="42.223311" lon="2.469986">
        <ele>380.029</ele>
        <time>2021-05-27T16:33:49Z</time>
      </trkpt>
      <trkpt lat="42.223330" lon="2.469982">
        <ele>380.121</ele>
        <time>2021-05-27T16:33:50Z</time>
      </trkpt>
      <trkpt lat="42.223347" lon="2.469976">
        <ele>380.208</ele>
        <time>2021-05-27T16:33:51Z</time>
      </trkpt>
      <trkpt lat="42.223365" lon="2.469971">
        <ele>380.313</ele>
        <time>2021-05-27T16:33:52Z</time>
      </trkpt>
      <trkpt lat="42.223385" lon="2.469966">
        <ele>380.550</ele>
        <time>2021-05-27T16:33:53Z</time>
      </trkpt>
      <trkpt lat="42.223402" lon="2.469961">
        <ele>380.638</ele>
        <time>2021-05-27T16:33:54Z</time>
      </trkpt>
      <trkpt lat="42.223436" lon="2.469950">
        <ele>380.998</ele>
        <time>2021-05-27T16:33:56Z</time>
      </trkpt>
      <trkpt lat="42.223455" lon="2.469949">
        <ele>381.125</ele>
        <time>2021-05-27T16:33:57Z</time>
      </trkpt>
      <trkpt lat="42.223489" lon="2.469944">
        <ele>381.390</ele>
        <time>2021-05-27T16:33:59Z</time>
      </trkpt>
      <trkpt lat="42.223523" lon="2.469941">
        <ele>381.623</ele>
        <time>2021-05-27T16:34:01Z</time>
      </trkpt>
      <trkpt lat="42.223542" lon="2.469938">
        <ele>381.739</ele>
        <time>2021-05-27T16:34:02Z</time>
      </trkpt>
      <trkpt lat="42.223578" lon="2.469935">
        <ele>382.075</ele>
        <time>2021-05-27T16:34:04Z</time>
      </trkpt>
      <trkpt lat="42.223596" lon="2.469932">
        <ele>382.128</ele>
        <time>2021-05-27T16:34:05Z</time>
      </trkpt>
      <trkpt lat="42.223617" lon="2.469929">
        <ele>382.320</ele>
        <time>2021-05-27T16:34:06Z</time>
      </trkpt>
      <trkpt lat="42.223634" lon="2.469929">
        <ele>382.308</ele>
        <time>2021-05-27T16:34:07Z</time>
      </trkpt>
      <trkpt lat="42.223671" lon="2.469929">
        <ele>382.484</ele>
        <time>2021-05-27T16:34:09Z</time>
      </trkpt>
      <trkpt lat="42.223689" lon="2.469926">
        <ele>382.511</ele>
        <time>2021-05-27T16:34:10Z</time>
      </trkpt>
      <trkpt lat="42.223707" lon="2.469922">
        <ele>382.529</ele>
        <time>2021-05-27T16:34:11Z</time>
      </trkpt>
      <trkpt lat="42.223727" lon="2.469918">
        <ele>382.689</ele>
        <time>2021-05-27T16:34:12Z</time>
      </trkpt>
      <trkpt lat="42.223746" lon="2.469915">
        <ele>382.626</ele>
        <time>2021-05-27T16:34:13Z</time>
      </trkpt>
      <trkpt lat="42.223779" lon="2.469904">
        <ele>382.731</ele>
        <time>2021-05-27T16:34:15Z</time>
      </trkpt>
      <trkpt lat="42.223813" lon="2.469895">
        <ele>382.844</ele>
        <time>2021-05-27T16:34:17Z</time>
      </trkpt>
      <trkpt lat="42.223833" lon="2.469888">
        <ele>382.940</ele>
        <time>2021-05-27T16:34:18Z</time>
      </trkpt>
      <trkpt lat="42.223850" lon="2.469884">
        <ele>382.957</ele>
        <time>2021-05-27T16:34:19Z</time>
      </trkpt>
      <trkpt lat="42.223886" lon="2.469875">
        <ele>383.000</ele>
        <time>2021-05-27T16:34:21Z</time>
      </trkpt>
      <trkpt lat="42.223920" lon="2.469862">
        <ele>383.120</ele>
        <time>2021-05-27T16:34:23Z</time>
      </trkpt>
      <trkpt lat="42.223936" lon="2.469856">
        <ele>383.208</ele>
        <time>2021-05-27T16:34:24Z</time>
      </trkpt>
      <trkpt lat="42.223954" lon="2.469851">
        <ele>383.262</ele>
        <time>2021-05-27T16:34:25Z</time>
      </trkpt>
      <trkpt lat="42.223988" lon="2.469836">
        <ele>383.439</ele>
        <time>2021-05-27T16:34:27Z</time>
      </trkpt>
      <trkpt lat="42.224016" lon="2.469820">
        <ele>383.547</ele>
        <time>2021-05-27T16:34:29Z</time>
      </trkpt>
      <trkpt lat="42.224033" lon="2.469811">
        <ele>383.517</ele>
        <time>2021-05-27T16:34:30Z</time>
      </trkpt>
      <trkpt lat="42.224050" lon="2.469801">
        <ele>383.674</ele>
        <time>2021-05-27T16:34:31Z</time>
      </trkpt>
      <trkpt lat="42.224066" lon="2.469793">
        <ele>383.629</ele>
        <time>2021-05-27T16:34:32Z</time>
      </trkpt>
      <trkpt lat="42.224102" lon="2.469778">
        <ele>383.852</ele>
        <time>2021-05-27T16:34:34Z</time>
      </trkpt>
      <trkpt lat="42.224133" lon="2.469755">
        <ele>383.988</ele>
        <time>2021-05-27T16:34:36Z</time>
      </trkpt>
      <trkpt lat="42.224163" lon="2.469731">
        <ele>384.022</ele>
        <time>2021-05-27T16:34:38Z</time>
      </trkpt>
      <trkpt lat="42.224191" lon="2.469706">
        <ele>384.262</ele>
        <time>2021-05-27T16:34:40Z</time>
      </trkpt>
      <trkpt lat="42.224222" lon="2.469680">
        <ele>384.408</ele>
        <time>2021-05-27T16:34:42Z</time>
      </trkpt>
      <trkpt lat="42.224247" lon="2.469647">
        <ele>384.608</ele>
        <time>2021-05-27T16:34:44Z</time>
      </trkpt>
      <trkpt lat="42.224271" lon="2.469614">
        <ele>384.869</ele>
        <time>2021-05-27T16:34:46Z</time>
      </trkpt>
      <trkpt lat="42.224294" lon="2.469578">
        <ele>384.936</ele>
        <time>2021-05-27T16:34:48Z</time>
      </trkpt>
      <trkpt lat="42.224306" lon="2.469556">
        <ele>385.044</ele>
        <time>2021-05-27T16:34:49Z</time>
      </trkpt>
      <trkpt lat="42.224320" lon="2.469535">
        <ele>385.194</ele>
        <time>2021-05-27T16:34:50Z</time>
      </trkpt>
      <trkpt lat="42.224332" lon="2.469514">
        <ele>385.281</ele>
        <time>2021-05-27T16:34:51Z</time>
      </trkpt>
      <trkpt lat="42.224343" lon="2.469494">
        <ele>385.326</ele>
        <time>2021-05-27T16:34:52Z</time>
      </trkpt>
      <trkpt lat="42.224355" lon="2.469474">
        <ele>385.469</ele>
        <time>2021-05-27T16:34:53Z</time>
      </trkpt>
      <trkpt lat="42.224368" lon="2.469452">
        <ele>385.425</ele>
        <time>2021-05-27T16:34:54Z</time>
      </trkpt>
      <trkpt lat="42.224381" lon="2.469432">
        <ele>385.585</ele>
        <time>2021-05-27T16:34:55Z</time>
      </trkpt>
      <trkpt lat="42.224394" lon="2.469413">
        <ele>385.689</ele>
        <time>2021-05-27T16:34:56Z</time>
      </trkpt>
      <trkpt lat="42.224408" lon="2.469392">
        <ele>385.717</ele>
        <time>2021-05-27T16:34:57Z</time>
      </trkpt>
      <trkpt lat="42.224420" lon="2.469373">
        <ele>385.808</ele>
        <time>2021-05-27T16:34:58Z</time>
      </trkpt>
      <trkpt lat="42.224433" lon="2.469350">
        <ele>385.925</ele>
        <time>2021-05-27T16:34:59Z</time>
      </trkpt>
      <trkpt lat="42.224445" lon="2.469329">
        <ele>386.032</ele>
        <time>2021-05-27T16:35:00Z</time>
      </trkpt>
      <trkpt lat="42.224457" lon="2.469308">
        <ele>386.180</ele>
        <time>2021-05-27T16:35:01Z</time>
      </trkpt>
      <trkpt lat="42.224470" lon="2.469285">
        <ele>386.290</ele>
        <time>2021-05-27T16:35:02Z</time>
      </trkpt>
      <trkpt lat="42.224480" lon="2.469264">
        <ele>386.367</ele>
        <time>2021-05-27T16:35:03Z</time>
      </trkpt>
      <trkpt lat="42.224489" lon="2.469240">
        <ele>386.312</ele>
        <time>2021-05-27T16:35:04Z</time>
      </trkpt>
      <trkpt lat="42.224501" lon="2.469199">
        <ele>386.465</ele>
        <time>2021-05-27T16:35:06Z</time>
      </trkpt>
      <trkpt lat="42.224517" lon="2.469157">
        <ele>386.521</ele>
        <time>2021-05-27T16:35:08Z</time>
      </trkpt>
      <trkpt lat="42.224525" lon="2.469134">
        <ele>386.556</ele>
        <time>2021-05-27T16:35:09Z</time>
      </trkpt>
      <trkpt lat="42.224533" lon="2.469111">
        <ele>386.659</ele>
        <time>2021-05-27T16:35:10Z</time>
      </trkpt>
      <trkpt lat="42.224547" lon="2.469066">
        <ele>386.614</ele>
        <time>2021-05-27T16:35:12Z</time>
      </trkpt>
      <trkpt lat="42.224559" lon="2.469021">
        <ele>386.708</ele>
        <time>2021-05-27T16:35:14Z</time>
      </trkpt>
      <trkpt lat="42.224573" lon="2.468978">
        <ele>386.942</ele>
        <time>2021-05-27T16:35:16Z</time>
      </trkpt>
      <trkpt lat="42.224589" lon="2.468934">
        <ele>387.149</ele>
        <time>2021-05-27T16:35:18Z</time>
      </trkpt>
      <trkpt lat="42.224601" lon="2.468911">
        <ele>387.217</ele>
        <time>2021-05-27T16:35:19Z</time>
      </trkpt>
      <trkpt lat="42.224613" lon="2.468889">
        <ele>387.497</ele>
        <time>2021-05-27T16:35:20Z</time>
      </trkpt>
      <trkpt lat="42.224622" lon="2.468868">
        <ele>387.574</ele>
        <time>2021-05-27T16:35:21Z</time>
      </trkpt>
      <trkpt lat="42.224633" lon="2.468847">
        <ele>387.629</ele>
        <time>2021-05-27T16:35:22Z</time>
      </trkpt>
      <trkpt lat="42.224644" lon="2.468824">
        <ele>387.722</ele>
        <time>2021-05-27T16:35:23Z</time>
      </trkpt>
      <trkpt lat="42.224655" lon="2.468803">
        <ele>387.888</ele>
        <time>2021-05-27T16:35:24Z</time>
      </trkpt>
      <trkpt lat="42.224665" lon="2.468783">
        <ele>387.962</ele>
        <time>2021-05-27T16:35:25Z</time>
      </trkpt>
      <trkpt lat="42.224677" lon="2.468760">
        <ele>388.083</ele>
        <time>2021-05-27T16:35:26Z</time>
      </trkpt>
      <trkpt lat="42.224687" lon="2.468739">
        <ele>388.011</ele>
        <time>2021-05-27T16:35:27Z</time>
      </trkpt>
      <trkpt lat="42.224698" lon="2.468717">
        <ele>388.108</ele>
        <time>2021-05-27T16:35:28Z</time>
      </trkpt>
      <trkpt lat="42.224717" lon="2.468674">
        <ele>388.293</ele>
        <time>2021-05-27T16:35:30Z</time>
      </trkpt>
      <trkpt lat="42.224729" lon="2.468651">
        <ele>388.330</ele>
        <time>2021-05-27T16:35:31Z</time>
      </trkpt>
      <trkpt lat="42.224740" lon="2.468629">
        <ele>388.668</ele>
        <time>2021-05-27T16:35:32Z</time>
      </trkpt>
      <trkpt lat="42.224751" lon="2.468608">
        <ele>388.838</ele>
        <time>2021-05-27T16:35:33Z</time>
      </trkpt>
      <trkpt lat="42.224769" lon="2.468567">
        <ele>389.015</ele>
        <time>2021-05-27T16:35:35Z</time>
      </trkpt>
      <trkpt lat="42.224780" lon="2.468547">
        <ele>389.250</ele>
        <time>2021-05-27T16:35:36Z</time>
      </trkpt>
      <trkpt lat="42.224797" lon="2.468506">
        <ele>389.453</ele>
        <time>2021-05-27T16:35:38Z</time>
      </trkpt>
      <trkpt lat="42.224806" lon="2.468483">
        <ele>389.599</ele>
        <time>2021-05-27T16:35:39Z</time>
      </trkpt>
      <trkpt lat="42.224815" lon="2.468461">
        <ele>389.645</ele>
        <time>2021-05-27T16:35:40Z</time>
      </trkpt>
      <trkpt lat="42.224827" lon="2.468439">
        <ele>389.847</ele>
        <time>2021-05-27T16:35:41Z</time>
      </trkpt>
      <trkpt lat="42.224837" lon="2.468416">
        <ele>389.911</ele>
        <time>2021-05-27T16:35:42Z</time>
      </trkpt>
      <trkpt lat="42.224845" lon="2.468394">
        <ele>390.008</ele>
        <time>2021-05-27T16:35:43Z</time>
      </trkpt>
      <trkpt lat="42.224855" lon="2.468369">
        <ele>390.131</ele>
        <time>2021-05-27T16:35:44Z</time>
      </trkpt>
      <trkpt lat="42.224864" lon="2.468347">
        <ele>390.288</ele>
        <time>2021-05-27T16:35:45Z</time>
      </trkpt>
      <trkpt lat="42.224880" lon="2.468305">
        <ele>390.386</ele>
        <time>2021-05-27T16:35:47Z</time>
      </trkpt>
      <trkpt lat="42.224896" lon="2.468263">
        <ele>390.466</ele>
        <time>2021-05-27T16:35:49Z</time>
      </trkpt>
      <trkpt lat="42.224906" lon="2.468220">
        <ele>390.323</ele>
        <time>2021-05-27T16:35:51Z</time>
      </trkpt>
      <trkpt lat="42.224914" lon="2.468198">
        <ele>390.488</ele>
        <time>2021-05-27T16:35:52Z</time>
      </trkpt>
      <trkpt lat="42.224931" lon="2.468155">
        <ele>390.421</ele>
        <time>2021-05-27T16:35:54Z</time>
      </trkpt>
      <trkpt lat="42.224942" lon="2.468132">
        <ele>390.567</ele>
        <time>2021-05-27T16:35:55Z</time>
      </trkpt>
      <trkpt lat="42.224950" lon="2.468108">
        <ele>390.481</ele>
        <time>2021-05-27T16:35:56Z</time>
      </trkpt>
      <trkpt lat="42.224959" lon="2.468085">
        <ele>390.461</ele>
        <time>2021-05-27T16:35:57Z</time>
      </trkpt>
      <trkpt lat="42.224966" lon="2.468061">
        <ele>390.317</ele>
        <time>2021-05-27T16:35:58Z</time>
      </trkpt>
      <trkpt lat="42.224973" lon="2.468038">
        <ele>390.308</ele>
        <time>2021-05-27T16:35:59Z</time>
      </trkpt>
      <trkpt lat="42.224981" lon="2.468014">
        <ele>390.335</ele>
        <time>2021-05-27T16:36:00Z</time>
      </trkpt>
      <trkpt lat="42.224988" lon="2.467989">
        <ele>390.352</ele>
        <time>2021-05-27T16:36:01Z</time>
      </trkpt>
      <trkpt lat="42.225001" lon="2.467943">
        <ele>390.260</ele>
        <time>2021-05-27T16:36:03Z</time>
      </trkpt>
      <trkpt lat="42.225010" lon="2.467916">
        <ele>390.410</ele>
        <time>2021-05-27T16:36:04Z</time>
      </trkpt>
      <trkpt lat="42.225016" lon="2.467893">
        <ele>390.467</ele>
        <time>2021-05-27T16:36:05Z</time>
      </trkpt>
      <trkpt lat="42.225025" lon="2.467868">
        <ele>390.692</ele>
        <time>2021-05-27T16:36:06Z</time>
      </trkpt>
      <trkpt lat="42.225030" lon="2.467844">
        <ele>390.675</ele>
        <time>2021-05-27T16:36:07Z</time>
      </trkpt>
      <trkpt lat="42.225039" lon="2.467819">
        <ele>390.851</ele>
        <time>2021-05-27T16:36:08Z</time>
      </trkpt>
      <trkpt lat="42.225042" lon="2.467793">
        <ele>390.869</ele>
        <time>2021-05-27T16:36:09Z</time>
      </trkpt>
      <trkpt lat="42.225046" lon="2.467768">
        <ele>390.804</ele>
        <time>2021-05-27T16:36:10Z</time>
      </trkpt>
      <trkpt lat="42.225051" lon="2.467743">
        <ele>390.824</ele>
        <time>2021-05-27T16:36:11Z</time>
      </trkpt>
      <trkpt lat="42.225055" lon="2.467717">
        <ele>390.708</ele>
        <time>2021-05-27T16:36:12Z</time>
      </trkpt>
      <trkpt lat="42.225056" lon="2.467693">
        <ele>390.643</ele>
        <time>2021-05-27T16:36:13Z</time>
      </trkpt>
      <trkpt lat="42.225059" lon="2.467667">
        <ele>390.520</ele>
        <time>2021-05-27T16:36:14Z</time>
      </trkpt>
      <trkpt lat="42.225065" lon="2.467641">
        <ele>390.638</ele>
        <time>2021-05-27T16:36:15Z</time>
      </trkpt>
      <trkpt lat="42.225068" lon="2.467615">
        <ele>390.538</ele>
        <time>2021-05-27T16:36:16Z</time>
      </trkpt>
      <trkpt lat="42.225071" lon="2.467590">
        <ele>390.585</ele>
        <time>2021-05-27T16:36:17Z</time>
      </trkpt>
      <trkpt lat="42.225076" lon="2.467564">
        <ele>390.510</ele>
        <time>2021-05-27T16:36:18Z</time>
      </trkpt>
      <trkpt lat="42.225082" lon="2.467539">
        <ele>390.553</ele>
        <time>2021-05-27T16:36:19Z</time>
      </trkpt>
      <trkpt lat="42.225091" lon="2.467516">
        <ele>390.749</ele>
        <time>2021-05-27T16:36:20Z</time>
      </trkpt>
      <trkpt lat="42.225105" lon="2.467496">
        <ele>391.161</ele>
        <time>2021-05-27T16:36:21Z</time>
      </trkpt>
      <trkpt lat="42.225123" lon="2.467462">
        <ele>391.621</ele>
        <time>2021-05-27T16:36:23Z</time>
      </trkpt>
      <trkpt lat="42.225140" lon="2.467439">
        <ele>392.013</ele>
        <time>2021-05-27T16:36:25Z</time>
      </trkpt>
      <trkpt lat="42.225157" lon="2.467423">
        <ele>392.508</ele>
        <time>2021-05-27T16:36:27Z</time>
      </trkpt>
      <trkpt lat="42.225177" lon="2.467398">
        <ele>392.953</ele>
        <time>2021-05-27T16:36:29Z</time>
      </trkpt>
      <trkpt lat="42.225199" lon="2.467374">
        <ele>393.580</ele>
        <time>2021-05-27T16:36:31Z</time>
      </trkpt>
      <trkpt lat="42.225219" lon="2.467351">
        <ele>393.978</ele>
        <time>2021-05-27T16:36:33Z</time>
      </trkpt>
      <trkpt lat="42.225243" lon="2.467325">
        <ele>394.378</ele>
        <time>2021-05-27T16:36:35Z</time>
      </trkpt>
      <trkpt lat="42.225260" lon="2.467300">
        <ele>394.645</ele>
        <time>2021-05-27T16:36:37Z</time>
      </trkpt>
      <trkpt lat="42.225275" lon="2.467278">
        <ele>394.750</ele>
        <time>2021-05-27T16:36:39Z</time>
      </trkpt>
      <trkpt lat="42.225292" lon="2.467259">
        <ele>395.023</ele>
        <time>2021-05-27T16:36:41Z</time>
      </trkpt>
      <trkpt lat="42.225310" lon="2.467235">
        <ele>395.319</ele>
        <time>2021-05-27T16:36:43Z</time>
      </trkpt>
      <trkpt lat="42.225327" lon="2.467209">
        <ele>395.682</ele>
        <time>2021-05-27T16:36:45Z</time>
      </trkpt>
      <trkpt lat="42.225344" lon="2.467180">
        <ele>395.943</ele>
        <time>2021-05-27T16:36:47Z</time>
      </trkpt>
      <trkpt lat="42.225361" lon="2.467150">
        <ele>396.117</ele>
        <time>2021-05-27T16:36:49Z</time>
      </trkpt>
      <trkpt lat="42.225377" lon="2.467123">
        <ele>396.408</ele>
        <time>2021-05-27T16:36:51Z</time>
      </trkpt>
      <trkpt lat="42.225396" lon="2.467094">
        <ele>396.735</ele>
        <time>2021-05-27T16:36:53Z</time>
      </trkpt>
      <trkpt lat="42.225411" lon="2.467064">
        <ele>396.812</ele>
        <time>2021-05-27T16:36:56Z</time>
      </trkpt>
      <trkpt lat="42.225425" lon="2.467035">
        <ele>396.990</ele>
        <time>2021-05-27T16:36:57Z</time>
      </trkpt>
      <trkpt lat="42.225440" lon="2.467005">
        <ele>397.010</ele>
        <time>2021-05-27T16:36:59Z</time>
      </trkpt>
      <trkpt lat="42.225457" lon="2.466976">
        <ele>397.277</ele>
        <time>2021-05-27T16:37:01Z</time>
      </trkpt>
      <trkpt lat="42.225471" lon="2.466945">
        <ele>397.312</ele>
        <time>2021-05-27T16:37:03Z</time>
      </trkpt>
      <trkpt lat="42.225483" lon="2.466914">
        <ele>397.325</ele>
        <time>2021-05-27T16:37:05Z</time>
      </trkpt>
      <trkpt lat="42.225500" lon="2.466886">
        <ele>397.431</ele>
        <time>2021-05-27T16:37:07Z</time>
      </trkpt>
      <trkpt lat="42.225518" lon="2.466861">
        <ele>397.753</ele>
        <time>2021-05-27T16:37:09Z</time>
      </trkpt>
      <trkpt lat="42.225536" lon="2.466835">
        <ele>397.804</ele>
        <time>2021-05-27T16:37:11Z</time>
      </trkpt>
      <trkpt lat="42.225554" lon="2.466809">
        <ele>398.014</ele>
        <time>2021-05-27T16:37:13Z</time>
      </trkpt>
      <trkpt lat="42.225571" lon="2.466779">
        <ele>398.308</ele>
        <time>2021-05-27T16:37:15Z</time>
      </trkpt>
      <trkpt lat="42.225587" lon="2.466752">
        <ele>398.632</ele>
        <time>2021-05-27T16:37:17Z</time>
      </trkpt>
      <trkpt lat="42.225602" lon="2.466724">
        <ele>398.859</ele>
        <time>2021-05-27T16:37:19Z</time>
      </trkpt>
      <trkpt lat="42.225617" lon="2.466701">
        <ele>399.117</ele>
        <time>2021-05-27T16:37:21Z</time>
      </trkpt>
      <trkpt lat="42.225631" lon="2.466677">
        <ele>399.467</ele>
        <time>2021-05-27T16:37:23Z</time>
      </trkpt>
      <trkpt lat="42.225645" lon="2.466645">
        <ele>399.634</ele>
        <time>2021-05-27T16:37:25Z</time>
      </trkpt>
      <trkpt lat="42.225659" lon="2.466615">
        <ele>399.819</ele>
        <time>2021-05-27T16:37:27Z</time>
      </trkpt>
      <trkpt lat="42.225673" lon="2.466591">
        <ele>400.042</ele>
        <time>2021-05-27T16:37:29Z</time>
      </trkpt>
      <trkpt lat="42.225679" lon="2.466566">
        <ele>399.938</ele>
        <time>2021-05-27T16:37:31Z</time>
      </trkpt>
      <trkpt lat="42.225686" lon="2.466535">
        <ele>399.851</ele>
        <time>2021-05-27T16:37:33Z</time>
      </trkpt>
      <trkpt lat="42.225697" lon="2.466505">
        <ele>399.801</ele>
        <time>2021-05-27T16:37:35Z</time>
      </trkpt>
      <trkpt lat="42.225706" lon="2.466479">
        <ele>399.711</ele>
        <time>2021-05-27T16:37:37Z</time>
      </trkpt>
      <trkpt lat="42.225718" lon="2.466453">
        <ele>399.808</ele>
        <time>2021-05-27T16:37:39Z</time>
      </trkpt>
      <trkpt lat="42.225727" lon="2.466425">
        <ele>399.722</ele>
        <time>2021-05-27T16:37:41Z</time>
      </trkpt>
      <trkpt lat="42.225739" lon="2.466401">
        <ele>399.889</ele>
        <time>2021-05-27T16:37:43Z</time>
      </trkpt>
      <trkpt lat="42.225753" lon="2.466378">
        <ele>399.947</ele>
        <time>2021-05-27T16:37:45Z</time>
      </trkpt>
      <trkpt lat="42.225780" lon="2.466351">
        <ele>400.327</ele>
        <time>2021-05-27T16:37:47Z</time>
      </trkpt>
      <trkpt lat="42.225806" lon="2.466323">
        <ele>400.794</ele>
        <time>2021-05-27T16:37:49Z</time>
      </trkpt>
      <trkpt lat="42.225832" lon="2.466300">
        <ele>401.099</ele>
        <time>2021-05-27T16:37:51Z</time>
      </trkpt>
      <trkpt lat="42.225856" lon="2.466283">
        <ele>401.352</ele>
        <time>2021-05-27T16:37:53Z</time>
      </trkpt>
      <trkpt lat="42.225879" lon="2.466271">
        <ele>401.748</ele>
        <time>2021-05-27T16:37:55Z</time>
      </trkpt>
      <trkpt lat="42.225899" lon="2.466257">
        <ele>401.951</ele>
        <time>2021-05-27T16:37:57Z</time>
      </trkpt>
      <trkpt lat="42.225922" lon="2.466244">
        <ele>402.301</ele>
        <time>2021-05-27T16:37:59Z</time>
      </trkpt>
      <trkpt lat="42.225940" lon="2.466226">
        <ele>402.311</ele>
        <time>2021-05-27T16:38:01Z</time>
      </trkpt>
      <trkpt lat="42.225957" lon="2.466209">
        <ele>402.408</ele>
        <time>2021-05-27T16:38:03Z</time>
      </trkpt>
      <trkpt lat="42.225975" lon="2.466196">
        <ele>402.682</ele>
        <time>2021-05-27T16:38:05Z</time>
      </trkpt>
      <trkpt lat="42.225992" lon="2.466184">
        <ele>402.759</ele>
        <time>2021-05-27T16:38:07Z</time>
      </trkpt>
      <trkpt lat="42.226012" lon="2.466167">
        <ele>402.887</ele>
        <time>2021-05-27T16:38:10Z</time>
      </trkpt>
      <trkpt lat="42.226030" lon="2.466148">
        <ele>402.847</ele>
        <time>2021-05-27T16:38:12Z</time>
      </trkpt>
      <trkpt lat="42.226048" lon="2.466130">
        <ele>402.944</ele>
        <time>2021-05-27T16:38:14Z</time>
      </trkpt>
      <trkpt lat="42.226065" lon="2.466109">
        <ele>402.829</ele>
        <time>2021-05-27T16:38:16Z</time>
      </trkpt>
      <trkpt lat="42.226089" lon="2.466089">
        <ele>403.072</ele>
        <time>2021-05-27T16:38:18Z</time>
      </trkpt>
      <trkpt lat="42.226122" lon="2.466071">
        <ele>403.318</ele>
        <time>2021-05-27T16:38:20Z</time>
      </trkpt>
      <trkpt lat="42.226149" lon="2.466054">
        <ele>403.491</ele>
        <time>2021-05-27T16:38:22Z</time>
      </trkpt>
      <trkpt lat="42.226174" lon="2.466038">
        <ele>403.581</ele>
        <time>2021-05-27T16:38:24Z</time>
      </trkpt>
      <trkpt lat="42.226200" lon="2.466025">
        <ele>403.619</ele>
        <time>2021-05-27T16:38:26Z</time>
      </trkpt>
      <trkpt lat="42.226227" lon="2.466011">
        <ele>403.808</ele>
        <time>2021-05-27T16:38:28Z</time>
      </trkpt>
      <trkpt lat="42.226261" lon="2.465985">
        <ele>403.756</ele>
        <time>2021-05-27T16:38:30Z</time>
      </trkpt>
      <trkpt lat="42.226279" lon="2.465972">
        <ele>403.793</ele>
        <time>2021-05-27T16:38:31Z</time>
      </trkpt>
      <trkpt lat="42.226310" lon="2.465956">
        <ele>403.871</ele>
        <time>2021-05-27T16:38:33Z</time>
      </trkpt>
      <trkpt lat="42.226327" lon="2.465937">
        <ele>403.611</ele>
        <time>2021-05-27T16:38:35Z</time>
      </trkpt>
      <trkpt lat="42.226356" lon="2.465925">
        <ele>403.818</ele>
        <time>2021-05-27T16:38:37Z</time>
      </trkpt>
      <trkpt lat="42.226381" lon="2.465914">
        <ele>403.913</ele>
        <time>2021-05-27T16:38:39Z</time>
      </trkpt>
      <trkpt lat="42.226399" lon="2.465908">
        <ele>404.186</ele>
        <time>2021-05-27T16:38:40Z</time>
      </trkpt>
      <trkpt lat="42.226421" lon="2.465902">
        <ele>404.342</ele>
        <time>2021-05-27T16:38:41Z</time>
      </trkpt>
      <trkpt lat="42.226443" lon="2.465897">
        <ele>404.581</ele>
        <time>2021-05-27T16:38:42Z</time>
      </trkpt>
      <trkpt lat="42.226469" lon="2.465891">
        <ele>404.861</ele>
        <time>2021-05-27T16:38:43Z</time>
      </trkpt>
      <trkpt lat="42.226487" lon="2.465886">
        <ele>404.917</ele>
        <time>2021-05-27T16:38:44Z</time>
      </trkpt>
      <trkpt lat="42.226509" lon="2.465877">
        <ele>405.008</ele>
        <time>2021-05-27T16:38:45Z</time>
      </trkpt>
      <trkpt lat="42.226528" lon="2.465871">
        <ele>405.285</ele>
        <time>2021-05-27T16:38:46Z</time>
      </trkpt>
      <trkpt lat="42.226544" lon="2.465861">
        <ele>405.112</ele>
        <time>2021-05-27T16:38:47Z</time>
      </trkpt>
      <trkpt lat="42.226567" lon="2.465853">
        <ele>405.240</ele>
        <time>2021-05-27T16:38:48Z</time>
      </trkpt>
      <trkpt lat="42.226588" lon="2.465851">
        <ele>405.490</ele>
        <time>2021-05-27T16:38:49Z</time>
      </trkpt>
      <trkpt lat="42.226614" lon="2.465846">
        <ele>405.737</ele>
        <time>2021-05-27T16:38:50Z</time>
      </trkpt>
      <trkpt lat="42.226632" lon="2.465840">
        <ele>405.792</ele>
        <time>2021-05-27T16:38:51Z</time>
      </trkpt>
      <trkpt lat="42.226654" lon="2.465834">
        <ele>405.825</ele>
        <time>2021-05-27T16:38:52Z</time>
      </trkpt>
      <trkpt lat="42.226676" lon="2.465823">
        <ele>405.731</ele>
        <time>2021-05-27T16:38:53Z</time>
      </trkpt>
      <trkpt lat="42.226703" lon="2.465810">
        <ele>405.463</ele>
        <time>2021-05-27T16:38:54Z</time>
      </trkpt>
      <trkpt lat="42.226728" lon="2.465796">
        <ele>405.144</ele>
        <time>2021-05-27T16:38:55Z</time>
      </trkpt>
      <trkpt lat="42.226753" lon="2.465790">
        <ele>405.118</ele>
        <time>2021-05-27T16:38:56Z</time>
      </trkpt>
      <trkpt lat="42.226775" lon="2.465780">
        <ele>404.908</ele>
        <time>2021-05-27T16:38:57Z</time>
      </trkpt>
      <trkpt lat="42.226799" lon="2.465771">
        <ele>404.893</ele>
        <time>2021-05-27T16:38:58Z</time>
      </trkpt>
      <trkpt lat="42.226820" lon="2.465767">
        <ele>404.820</ele>
        <time>2021-05-27T16:38:59Z</time>
      </trkpt>
      <trkpt lat="42.226845" lon="2.465761">
        <ele>404.858</ele>
        <time>2021-05-27T16:39:00Z</time>
      </trkpt>
      <trkpt lat="42.226867" lon="2.465759">
        <ele>405.088</ele>
        <time>2021-05-27T16:39:01Z</time>
      </trkpt>
      <trkpt lat="42.226893" lon="2.465753">
        <ele>405.025</ele>
        <time>2021-05-27T16:39:02Z</time>
      </trkpt>
      <trkpt lat="42.226915" lon="2.465752">
        <ele>405.120</ele>
        <time>2021-05-27T16:39:03Z</time>
      </trkpt>
      <trkpt lat="42.226938" lon="2.465749">
        <ele>405.293</ele>
        <time>2021-05-27T16:39:04Z</time>
      </trkpt>
      <trkpt lat="42.226961" lon="2.465744">
        <ele>405.229</ele>
        <time>2021-05-27T16:39:05Z</time>
      </trkpt>
      <trkpt lat="42.226985" lon="2.465744">
        <ele>405.372</ele>
        <time>2021-05-27T16:39:06Z</time>
      </trkpt>
      <trkpt lat="42.227004" lon="2.465741">
        <ele>405.213</ele>
        <time>2021-05-27T16:39:07Z</time>
      </trkpt>
      <trkpt lat="42.227033" lon="2.465733">
        <ele>405.114</ele>
        <time>2021-05-27T16:39:09Z</time>
      </trkpt>
      <trkpt lat="42.227064" lon="2.465737">
        <ele>405.308</ele>
        <time>2021-05-27T16:39:11Z</time>
      </trkpt>
      <trkpt lat="42.227091" lon="2.465739">
        <ele>405.524</ele>
        <time>2021-05-27T16:39:13Z</time>
      </trkpt>
      <trkpt lat="42.227118" lon="2.465736">
        <ele>405.581</ele>
        <time>2021-05-27T16:39:15Z</time>
      </trkpt>
      <trkpt lat="42.227208" lon="2.465762">
        <ele>406.669</ele>
        <time>2021-05-27T16:39:20Z</time>
      </trkpt>
      <trkpt lat="42.227308" lon="2.465771">
        <ele>407.179</ele>
        <time>2021-05-27T16:39:25Z</time>
      </trkpt>
      <trkpt lat="42.227398" lon="2.465788">
        <ele>407.796</ele>
        <time>2021-05-27T16:39:29Z</time>
      </trkpt>
      <trkpt lat="42.227484" lon="2.465838">
        <ele>409.221</ele>
        <time>2021-05-27T16:39:36Z</time>
      </trkpt>
      <trkpt lat="42.227576" lon="2.465841">
        <ele>409.584</ele>
        <time>2021-05-27T16:39:41Z</time>
      </trkpt>
      <trkpt lat="42.227678" lon="2.465833">
        <ele>409.680</ele>
        <time>2021-05-27T16:39:46Z</time>
      </trkpt>
      <trkpt lat="42.227759" lon="2.465819">
        <ele>409.574</ele>
        <time>2021-05-27T16:39:49Z</time>
      </trkpt>
      <trkpt lat="42.227797" lon="2.465827">
        <ele>409.556</ele>
        <time>2021-05-27T16:39:51Z</time>
      </trkpt>
      <trkpt lat="42.227821" lon="2.465832">
        <ele>409.221</ele>
        <time>2021-05-27T16:39:53Z</time>
      </trkpt>
      <trkpt lat="42.227848" lon="2.465839">
        <ele>408.908</ele>
        <time>2021-05-27T16:39:55Z</time>
      </trkpt>
      <trkpt lat="42.227865" lon="2.465857">
        <ele>409.224</ele>
        <time>2021-05-27T16:39:57Z</time>
      </trkpt>
      <trkpt lat="42.227933" lon="2.465946">
        <ele>410.671</ele>
        <time>2021-05-27T16:40:05Z</time>
      </trkpt>
      <trkpt lat="42.228004" lon="2.466042">
        <ele>412.139</ele>
        <time>2021-05-27T16:40:11Z</time>
      </trkpt>
      <trkpt lat="42.228109" lon="2.466083">
        <ele>411.819</ele>
        <time>2021-05-27T16:40:17Z</time>
      </trkpt>
      <trkpt lat="42.228208" lon="2.466101">
        <ele>411.616</ele>
        <time>2021-05-27T16:40:21Z</time>
      </trkpt>
      <trkpt lat="42.228304" lon="2.466103">
        <ele>411.061</ele>
        <time>2021-05-27T16:40:25Z</time>
      </trkpt>
      <trkpt lat="42.228396" lon="2.466088">
        <ele>410.714</ele>
        <time>2021-05-27T16:40:30Z</time>
      </trkpt>
      <trkpt lat="42.228463" lon="2.466109">
        <ele>411.410</ele>
        <time>2021-05-27T16:40:34Z</time>
      </trkpt>
      <trkpt lat="42.228486" lon="2.466125">
        <ele>412.118</ele>
        <time>2021-05-27T16:40:36Z</time>
      </trkpt>
      <trkpt lat="42.228509" lon="2.466137">
        <ele>412.698</ele>
        <time>2021-05-27T16:40:39Z</time>
      </trkpt>
      <trkpt lat="42.228598" lon="2.466182">
        <ele>414.517</ele>
        <time>2021-05-27T16:40:46Z</time>
      </trkpt>
      <trkpt lat="42.228689" lon="2.466204">
        <ele>415.808</ele>
        <time>2021-05-27T16:40:53Z</time>
      </trkpt>
      <trkpt lat="42.228725" lon="2.466207">
        <ele>416.168</ele>
        <time>2021-05-27T16:40:55Z</time>
      </trkpt>
      <trkpt lat="42.228753" lon="2.466209">
        <ele>416.445</ele>
        <time>2021-05-27T16:40:57Z</time>
      </trkpt>
      <trkpt lat="42.228780" lon="2.466207">
        <ele>416.543</ele>
        <time>2021-05-27T16:40:59Z</time>
      </trkpt>
      <trkpt lat="42.228802" lon="2.466209">
        <ele>416.713</ele>
        <time>2021-05-27T16:41:02Z</time>
      </trkpt>
      <trkpt lat="42.228825" lon="2.466215">
        <ele>417.050</ele>
        <time>2021-05-27T16:41:05Z</time>
      </trkpt>
      <trkpt lat="42.228844" lon="2.466222">
        <ele>417.375</ele>
        <time>2021-05-27T16:41:07Z</time>
      </trkpt>
      <trkpt lat="42.228867" lon="2.466226">
        <ele>417.658</ele>
        <time>2021-05-27T16:41:09Z</time>
      </trkpt>
      <trkpt lat="42.228897" lon="2.466224">
        <ele>417.714</ele>
        <time>2021-05-27T16:41:11Z</time>
      </trkpt>
      <trkpt lat="42.228920" lon="2.466230">
        <ele>417.914</ele>
        <time>2021-05-27T16:41:13Z</time>
      </trkpt>
      <trkpt lat="42.228940" lon="2.466242">
        <ele>418.354</ele>
        <time>2021-05-27T16:41:15Z</time>
      </trkpt>
      <trkpt lat="42.228964" lon="2.466253">
        <ele>418.709</ele>
        <time>2021-05-27T16:41:17Z</time>
      </trkpt>
      <trkpt lat="42.229011" lon="2.466265">
        <ele>419.208</ele>
        <time>2021-05-27T16:41:20Z</time>
      </trkpt>
      <trkpt lat="42.229030" lon="2.466268">
        <ele>419.348</ele>
        <time>2021-05-27T16:41:21Z</time>
      </trkpt>
      <trkpt lat="42.229063" lon="2.466279">
        <ele>419.715</ele>
        <time>2021-05-27T16:41:23Z</time>
      </trkpt>
      <trkpt lat="42.229087" lon="2.466287">
        <ele>420.083</ele>
        <time>2021-05-27T16:41:25Z</time>
      </trkpt>
      <trkpt lat="42.229121" lon="2.466294">
        <ele>420.283</ele>
        <time>2021-05-27T16:41:28Z</time>
      </trkpt>
      <trkpt lat="42.229154" lon="2.466299">
        <ele>420.490</ele>
        <time>2021-05-27T16:41:30Z</time>
      </trkpt>
      <trkpt lat="42.229180" lon="2.466297">
        <ele>420.535</ele>
        <time>2021-05-27T16:41:32Z</time>
      </trkpt>
      <trkpt lat="42.229199" lon="2.466294">
        <ele>420.528</ele>
        <time>2021-05-27T16:41:33Z</time>
      </trkpt>
      <trkpt lat="42.229264" lon="2.466286">
        <ele>420.954</ele>
        <time>2021-05-27T16:41:37Z</time>
      </trkpt>
      <trkpt lat="42.229362" lon="2.466232">
        <ele>420.384</ele>
        <time>2021-05-27T16:41:42Z</time>
      </trkpt>
      <trkpt lat="42.229443" lon="2.466200">
        <ele>420.207</ele>
        <time>2021-05-27T16:41:46Z</time>
      </trkpt>
      <trkpt lat="42.229490" lon="2.466183">
        <ele>420.617</ele>
        <time>2021-05-27T16:41:48Z</time>
      </trkpt>
      <trkpt lat="42.229578" lon="2.466152">
        <ele>421.108</ele>
        <time>2021-05-27T16:41:52Z</time>
      </trkpt>
      <trkpt lat="42.229625" lon="2.466137">
        <ele>421.415</ele>
        <time>2021-05-27T16:41:54Z</time>
      </trkpt>
      <trkpt lat="42.229680" lon="2.466122">
        <ele>421.712</ele>
        <time>2021-05-27T16:41:56Z</time>
      </trkpt>
      <trkpt lat="42.229713" lon="2.466110">
        <ele>421.880</ele>
        <time>2021-05-27T16:41:57Z</time>
      </trkpt>
      <trkpt lat="42.229739" lon="2.466100">
        <ele>422.130</ele>
        <time>2021-05-27T16:41:58Z</time>
      </trkpt>
      <trkpt lat="42.229766" lon="2.466081">
        <ele>422.177</ele>
        <time>2021-05-27T16:41:59Z</time>
      </trkpt>
      <trkpt lat="42.229790" lon="2.466071">
        <ele>422.262</ele>
        <time>2021-05-27T16:42:00Z</time>
      </trkpt>
      <trkpt lat="42.229813" lon="2.466064">
        <ele>422.445</ele>
        <time>2021-05-27T16:42:01Z</time>
      </trkpt>
      <trkpt lat="42.229835" lon="2.466058">
        <ele>422.671</ele>
        <time>2021-05-27T16:42:02Z</time>
      </trkpt>
      <trkpt lat="42.229854" lon="2.466052">
        <ele>422.838</ele>
        <time>2021-05-27T16:42:03Z</time>
      </trkpt>
      <trkpt lat="42.229881" lon="2.466046">
        <ele>423.170</ele>
        <time>2021-05-27T16:42:05Z</time>
      </trkpt>
      <trkpt lat="42.229903" lon="2.466036">
        <ele>423.117</ele>
        <time>2021-05-27T16:42:06Z</time>
      </trkpt>
      <trkpt lat="42.229925" lon="2.466032">
        <ele>423.308</ele>
        <time>2021-05-27T16:42:07Z</time>
      </trkpt>
      <trkpt lat="42.229943" lon="2.466030">
        <ele>423.580</ele>
        <time>2021-05-27T16:42:08Z</time>
      </trkpt>
      <trkpt lat="42.229965" lon="2.466012">
        <ele>423.337</ele>
        <time>2021-05-27T16:42:10Z</time>
      </trkpt>
      <trkpt lat="42.229993" lon="2.466008">
        <ele>423.695</ele>
        <time>2021-05-27T16:42:13Z</time>
      </trkpt>
      <trkpt lat="42.230015" lon="2.465998">
        <ele>423.415</ele>
        <time>2021-05-27T16:42:14Z</time>
      </trkpt>
      <trkpt lat="42.230049" lon="2.465988">
        <ele>423.482</ele>
        <time>2021-05-27T16:42:16Z</time>
      </trkpt>
      <trkpt lat="42.230084" lon="2.465971">
        <ele>423.157</ele>
        <time>2021-05-27T16:42:18Z</time>
      </trkpt>
      <trkpt lat="42.230107" lon="2.465964">
        <ele>423.010</ele>
        <time>2021-05-27T16:42:19Z</time>
      </trkpt>
      <trkpt lat="42.230139" lon="2.465957">
        <ele>423.026</ele>
        <time>2021-05-27T16:42:21Z</time>
      </trkpt>
      <trkpt lat="42.230167" lon="2.465945">
        <ele>422.889</ele>
        <time>2021-05-27T16:42:23Z</time>
      </trkpt>
      <trkpt lat="42.230198" lon="2.465938">
        <ele>422.806</ele>
        <time>2021-05-27T16:42:25Z</time>
      </trkpt>
      <trkpt lat="42.230233" lon="2.465938">
        <ele>423.126</ele>
        <time>2021-05-27T16:42:27Z</time>
      </trkpt>
      <trkpt lat="42.230252" lon="2.465941">
        <ele>423.308</ele>
        <time>2021-05-27T16:42:28Z</time>
      </trkpt>
      <trkpt lat="42.230286" lon="2.465944">
        <ele>423.555</ele>
        <time>2021-05-27T16:42:30Z</time>
      </trkpt>
      <trkpt lat="42.230317" lon="2.465947">
        <ele>423.352</ele>
        <time>2021-05-27T16:42:32Z</time>
      </trkpt>
      <trkpt lat="42.230345" lon="2.465947">
        <ele>423.030</ele>
        <time>2021-05-27T16:42:34Z</time>
      </trkpt>
      <trkpt lat="42.230374" lon="2.465943">
        <ele>422.670</ele>
        <time>2021-05-27T16:42:36Z</time>
      </trkpt>
      <trkpt lat="42.230399" lon="2.465961">
        <ele>422.927</ele>
        <time>2021-05-27T16:42:38Z</time>
      </trkpt>
      <trkpt lat="42.230425" lon="2.465985">
        <ele>423.392</ele>
        <time>2021-05-27T16:42:40Z</time>
      </trkpt>
      <trkpt lat="42.230443" lon="2.466015">
        <ele>423.955</ele>
        <time>2021-05-27T16:42:42Z</time>
      </trkpt>
      <trkpt lat="42.230460" lon="2.466038">
        <ele>424.491</ele>
        <time>2021-05-27T16:42:44Z</time>
      </trkpt>
      <trkpt lat="42.230474" lon="2.466060">
        <ele>424.881</ele>
        <time>2021-05-27T16:42:46Z</time>
      </trkpt>
      <trkpt lat="42.230480" lon="2.466093">
        <ele>425.661</ele>
        <time>2021-05-27T16:42:48Z</time>
      </trkpt>
      <trkpt lat="42.230493" lon="2.466123">
        <ele>426.217</ele>
        <time>2021-05-27T16:42:50Z</time>
      </trkpt>
      <trkpt lat="42.230510" lon="2.466151">
        <ele>426.608</ele>
        <time>2021-05-27T16:42:52Z</time>
      </trkpt>
      <trkpt lat="42.230527" lon="2.466174">
        <ele>426.855</ele>
        <time>2021-05-27T16:42:55Z</time>
      </trkpt>
      <trkpt lat="42.230548" lon="2.466190">
        <ele>426.832</ele>
        <time>2021-05-27T16:42:56Z</time>
      </trkpt>
      <trkpt lat="42.230567" lon="2.466200">
        <ele>426.710</ele>
        <time>2021-05-27T16:42:58Z</time>
      </trkpt>
      <trkpt lat="42.230594" lon="2.466212">
        <ele>426.550</ele>
        <time>2021-05-27T16:43:00Z</time>
      </trkpt>
      <trkpt lat="42.230619" lon="2.466213">
        <ele>426.037</ele>
        <time>2021-05-27T16:43:01Z</time>
      </trkpt>
      <trkpt lat="42.230641" lon="2.466210">
        <ele>425.652</ele>
        <time>2021-05-27T16:43:02Z</time>
      </trkpt>
      <trkpt lat="42.230661" lon="2.466210">
        <ele>425.255</ele>
        <time>2021-05-27T16:43:03Z</time>
      </trkpt>
      <trkpt lat="42.230692" lon="2.466217">
        <ele>424.831</ele>
        <time>2021-05-27T16:43:05Z</time>
      </trkpt>
      <trkpt lat="42.230723" lon="2.466222">
        <ele>424.387</ele>
        <time>2021-05-27T16:43:07Z</time>
      </trkpt>
      <trkpt lat="42.230753" lon="2.466218">
        <ele>423.642</ele>
        <time>2021-05-27T16:43:09Z</time>
      </trkpt>
      <trkpt lat="42.230778" lon="2.466219">
        <ele>423.226</ele>
        <time>2021-05-27T16:43:11Z</time>
      </trkpt>
      <trkpt lat="42.230804" lon="2.466218">
        <ele>422.708</ele>
        <time>2021-05-27T16:43:14Z</time>
      </trkpt>
      <trkpt lat="42.230838" lon="2.466208">
        <ele>422.115</ele>
        <time>2021-05-27T16:43:15Z</time>
      </trkpt>
      <trkpt lat="42.230866" lon="2.466202">
        <ele>422.022</ele>
        <time>2021-05-27T16:43:16Z</time>
      </trkpt>
      <trkpt lat="42.230890" lon="2.466194">
        <ele>422.010</ele>
        <time>2021-05-27T16:43:17Z</time>
      </trkpt>
      <trkpt lat="42.230912" lon="2.466187">
        <ele>421.990</ele>
        <time>2021-05-27T16:43:18Z</time>
      </trkpt>
      <trkpt lat="42.230936" lon="2.466180">
        <ele>421.977</ele>
        <time>2021-05-27T16:43:19Z</time>
      </trkpt>
      <trkpt lat="42.230961" lon="2.466168">
        <ele>421.942</ele>
        <time>2021-05-27T16:43:20Z</time>
      </trkpt>
      <trkpt lat="42.230982" lon="2.466159">
        <ele>421.955</ele>
        <time>2021-05-27T16:43:21Z</time>
      </trkpt>
      <trkpt lat="42.231000" lon="2.466150">
        <ele>421.921</ele>
        <time>2021-05-27T16:43:22Z</time>
      </trkpt>
      <trkpt lat="42.231023" lon="2.466136">
        <ele>421.844</ele>
        <time>2021-05-27T16:43:23Z</time>
      </trkpt>
      <trkpt lat="42.231042" lon="2.466120">
        <ele>421.805</ele>
        <time>2021-05-27T16:43:24Z</time>
      </trkpt>
      <trkpt lat="42.231060" lon="2.466109">
        <ele>421.815</ele>
        <time>2021-05-27T16:43:25Z</time>
      </trkpt>
      <trkpt lat="42.231080" lon="2.466093">
        <ele>421.708</ele>
        <time>2021-05-27T16:43:26Z</time>
      </trkpt>
      <trkpt lat="42.231105" lon="2.466075">
        <ele>421.791</ele>
        <time>2021-05-27T16:43:27Z</time>
      </trkpt>
      <trkpt lat="42.231120" lon="2.466060">
        <ele>421.758</ele>
        <time>2021-05-27T16:43:28Z</time>
      </trkpt>
      <trkpt lat="42.231138" lon="2.466042">
        <ele>421.626</ele>
        <time>2021-05-27T16:43:29Z</time>
      </trkpt>
      <trkpt lat="42.231154" lon="2.466021">
        <ele>421.546</ele>
        <time>2021-05-27T16:43:30Z</time>
      </trkpt>
      <trkpt lat="42.231171" lon="2.465997">
        <ele>421.473</ele>
        <time>2021-05-27T16:43:31Z</time>
      </trkpt>
      <trkpt lat="42.231184" lon="2.465972">
        <ele>421.358</ele>
        <time>2021-05-27T16:43:32Z</time>
      </trkpt>
      <trkpt lat="42.231194" lon="2.465948">
        <ele>421.151</ele>
        <time>2021-05-27T16:43:33Z</time>
      </trkpt>
      <trkpt lat="42.231206" lon="2.465922">
        <ele>421.027</ele>
        <time>2021-05-27T16:43:34Z</time>
      </trkpt>
      <trkpt lat="42.231213" lon="2.465900">
        <ele>420.826</ele>
        <time>2021-05-27T16:43:35Z</time>
      </trkpt>
      <trkpt lat="42.231225" lon="2.465870">
        <ele>420.747</ele>
        <time>2021-05-27T16:43:36Z</time>
      </trkpt>
      <trkpt lat="42.231228" lon="2.465839">
        <ele>420.511</ele>
        <time>2021-05-27T16:43:37Z</time>
      </trkpt>
      <trkpt lat="42.231235" lon="2.465810">
        <ele>420.308</ele>
        <time>2021-05-27T16:43:38Z</time>
      </trkpt>
      <trkpt lat="42.231240" lon="2.465782">
        <ele>420.219</ele>
        <time>2021-05-27T16:43:39Z</time>
      </trkpt>
      <trkpt lat="42.231247" lon="2.465756">
        <ele>420.176</ele>
        <time>2021-05-27T16:43:40Z</time>
      </trkpt>
      <trkpt lat="42.231257" lon="2.465730">
        <ele>420.054</ele>
        <time>2021-05-27T16:43:41Z</time>
      </trkpt>
      <trkpt lat="42.231269" lon="2.465706">
        <ele>419.924</ele>
        <time>2021-05-27T16:43:42Z</time>
      </trkpt>
      <trkpt lat="42.231281" lon="2.465683">
        <ele>419.911</ele>
        <time>2021-05-27T16:43:43Z</time>
      </trkpt>
      <trkpt lat="42.231294" lon="2.465660">
        <ele>419.846</ele>
        <time>2021-05-27T16:43:44Z</time>
      </trkpt>
      <trkpt lat="42.231312" lon="2.465638">
        <ele>419.879</ele>
        <time>2021-05-27T16:43:45Z</time>
      </trkpt>
      <trkpt lat="42.231327" lon="2.465620">
        <ele>419.835</ele>
        <time>2021-05-27T16:43:46Z</time>
      </trkpt>
      <trkpt lat="42.231341" lon="2.465604">
        <ele>419.987</ele>
        <time>2021-05-27T16:43:47Z</time>
      </trkpt>
      <trkpt lat="42.231361" lon="2.465590">
        <ele>419.942</ele>
        <time>2021-05-27T16:43:48Z</time>
      </trkpt>
      <trkpt lat="42.231382" lon="2.465579">
        <ele>420.026</ele>
        <time>2021-05-27T16:43:49Z</time>
      </trkpt>
      <trkpt lat="42.231399" lon="2.465572">
        <ele>420.008</ele>
        <time>2021-05-27T16:43:50Z</time>
      </trkpt>
      <trkpt lat="42.231418" lon="2.465565">
        <ele>419.785</ele>
        <time>2021-05-27T16:43:51Z</time>
      </trkpt>
      <trkpt lat="42.231438" lon="2.465561">
        <ele>419.562</ele>
        <time>2021-05-27T16:43:52Z</time>
      </trkpt>
      <trkpt lat="42.231457" lon="2.465559">
        <ele>419.320</ele>
        <time>2021-05-27T16:43:53Z</time>
      </trkpt>
      <trkpt lat="42.231477" lon="2.465556">
        <ele>419.140</ele>
        <time>2021-05-27T16:43:54Z</time>
      </trkpt>
      <trkpt lat="42.231515" lon="2.465559">
        <ele>418.797</ele>
        <time>2021-05-27T16:43:56Z</time>
      </trkpt>
      <trkpt lat="42.231534" lon="2.465561">
        <ele>418.532</ele>
        <time>2021-05-27T16:43:57Z</time>
      </trkpt>
      <trkpt lat="42.231554" lon="2.465562">
        <ele>418.345</ele>
        <time>2021-05-27T16:43:58Z</time>
      </trkpt>
      <trkpt lat="42.231589" lon="2.465565">
        <ele>417.921</ele>
        <time>2021-05-27T16:44:00Z</time>
      </trkpt>
      <trkpt lat="42.231628" lon="2.465576">
        <ele>417.751</ele>
        <time>2021-05-27T16:44:02Z</time>
      </trkpt>
      <trkpt lat="42.231662" lon="2.465591">
        <ele>417.601</ele>
        <time>2021-05-27T16:44:04Z</time>
      </trkpt>
      <trkpt lat="42.231680" lon="2.465599">
        <ele>417.511</ele>
        <time>2021-05-27T16:44:05Z</time>
      </trkpt>
      <trkpt lat="42.231697" lon="2.465608">
        <ele>417.508</ele>
        <time>2021-05-27T16:44:06Z</time>
      </trkpt>
      <trkpt lat="42.231715" lon="2.465614">
        <ele>417.422</ele>
        <time>2021-05-27T16:44:07Z</time>
      </trkpt>
      <trkpt lat="42.231735" lon="2.465620">
        <ele>417.439</ele>
        <time>2021-05-27T16:44:08Z</time>
      </trkpt>
      <trkpt lat="42.231755" lon="2.465627">
        <ele>417.347</ele>
        <time>2021-05-27T16:44:09Z</time>
      </trkpt>
      <trkpt lat="42.231774" lon="2.465632">
        <ele>417.387</ele>
        <time>2021-05-27T16:44:10Z</time>
      </trkpt>
      <trkpt lat="42.231793" lon="2.465636">
        <ele>417.254</ele>
        <time>2021-05-27T16:44:11Z</time>
      </trkpt>
      <trkpt lat="42.231826" lon="2.465644">
        <ele>417.149</ele>
        <time>2021-05-27T16:44:13Z</time>
      </trkpt>
      <trkpt lat="42.231860" lon="2.465648">
        <ele>416.932</ele>
        <time>2021-05-27T16:44:15Z</time>
      </trkpt>
      <trkpt lat="42.231894" lon="2.465657">
        <ele>416.988</ele>
        <time>2021-05-27T16:44:17Z</time>
      </trkpt>
      <trkpt lat="42.231923" lon="2.465673">
        <ele>417.154</ele>
        <time>2021-05-27T16:44:19Z</time>
      </trkpt>
      <trkpt lat="42.231947" lon="2.465681">
        <ele>417.256</ele>
        <time>2021-05-27T16:44:21Z</time>
      </trkpt>
      <trkpt lat="42.231975" lon="2.465689">
        <ele>417.611</ele>
        <time>2021-05-27T16:44:23Z</time>
      </trkpt>
      <trkpt lat="42.232001" lon="2.465702">
        <ele>418.108</ele>
        <time>2021-05-27T16:44:25Z</time>
      </trkpt>
      <trkpt lat="42.232024" lon="2.465725">
        <ele>418.872</ele>
        <time>2021-05-27T16:44:27Z</time>
      </trkpt>
      <trkpt lat="42.232043" lon="2.465754">
        <ele>419.729</ele>
        <time>2021-05-27T16:44:30Z</time>
      </trkpt>
      <trkpt lat="42.232059" lon="2.465773">
        <ele>420.367</ele>
        <time>2021-05-27T16:44:31Z</time>
      </trkpt>
      <trkpt lat="42.232084" lon="2.465785">
        <ele>420.827</ele>
        <time>2021-05-27T16:44:33Z</time>
      </trkpt>
      <trkpt lat="42.232103" lon="2.465803">
        <ele>421.424</ele>
        <time>2021-05-27T16:44:35Z</time>
      </trkpt>
      <trkpt lat="42.232128" lon="2.465821">
        <ele>422.069</ele>
        <time>2021-05-27T16:44:37Z</time>
      </trkpt>
      <trkpt lat="42.232191" lon="2.465836">
        <ele>422.882</ele>
        <time>2021-05-27T16:44:41Z</time>
      </trkpt>
      <trkpt lat="42.232210" lon="2.465838">
        <ele>423.078</ele>
        <time>2021-05-27T16:44:42Z</time>
      </trkpt>
      <trkpt lat="42.232240" lon="2.465845">
        <ele>423.454</ele>
        <time>2021-05-27T16:44:44Z</time>
      </trkpt>
      <trkpt lat="42.232263" lon="2.465848">
        <ele>423.756</ele>
        <time>2021-05-27T16:44:46Z</time>
      </trkpt>
      <trkpt lat="42.232286" lon="2.465855">
        <ele>424.111</ele>
        <time>2021-05-27T16:44:48Z</time>
      </trkpt>
      <trkpt lat="42.232308" lon="2.465870">
        <ele>424.608</ele>
        <time>2021-05-27T16:44:50Z</time>
      </trkpt>
      <trkpt lat="42.232331" lon="2.465874">
        <ele>425.072</ele>
        <time>2021-05-27T16:44:52Z</time>
      </trkpt>
      <trkpt lat="42.232355" lon="2.465875">
        <ele>425.339</ele>
        <time>2021-05-27T16:44:54Z</time>
      </trkpt>
      <trkpt lat="42.232375" lon="2.465872">
        <ele>425.467</ele>
        <time>2021-05-27T16:44:56Z</time>
      </trkpt>
      <trkpt lat="42.232393" lon="2.465871">
        <ele>425.657</ele>
        <time>2021-05-27T16:44:59Z</time>
      </trkpt>
      <trkpt lat="42.232417" lon="2.465875">
        <ele>426.044</ele>
        <time>2021-05-27T16:45:00Z</time>
      </trkpt>
      <trkpt lat="42.232448" lon="2.465879">
        <ele>426.479</ele>
        <time>2021-05-27T16:45:02Z</time>
      </trkpt>
      <trkpt lat="42.232471" lon="2.465883">
        <ele>426.762</ele>
        <time>2021-05-27T16:45:04Z</time>
      </trkpt>
      <trkpt lat="42.232491" lon="2.465895">
        <ele>427.228</ele>
        <time>2021-05-27T16:45:06Z</time>
      </trkpt>
      <trkpt lat="42.232513" lon="2.465901">
        <ele>427.628</ele>
        <time>2021-05-27T16:45:09Z</time>
      </trkpt>
      <trkpt lat="42.232533" lon="2.465902">
        <ele>427.989</ele>
        <time>2021-05-27T16:45:10Z</time>
      </trkpt>
      <trkpt lat="42.232555" lon="2.465901">
        <ele>428.217</ele>
        <time>2021-05-27T16:45:13Z</time>
      </trkpt>
      <trkpt lat="42.232576" lon="2.465900">
        <ele>428.508</ele>
        <time>2021-05-27T16:45:14Z</time>
      </trkpt>
      <trkpt lat="42.232603" lon="2.465899">
        <ele>428.869</ele>
        <time>2021-05-27T16:45:16Z</time>
      </trkpt>
      <trkpt lat="42.232626" lon="2.465893">
        <ele>428.936</ele>
        <time>2021-05-27T16:45:18Z</time>
      </trkpt>
      <trkpt lat="42.232650" lon="2.465884">
        <ele>429.094</ele>
        <time>2021-05-27T16:45:20Z</time>
      </trkpt>
      <trkpt lat="42.232674" lon="2.465876">
        <ele>429.124</ele>
        <time>2021-05-27T16:45:22Z</time>
      </trkpt>
      <trkpt lat="42.232697" lon="2.465875">
        <ele>429.371</ele>
        <time>2021-05-27T16:45:24Z</time>
      </trkpt>
      <trkpt lat="42.232722" lon="2.465876">
        <ele>429.786</ele>
        <time>2021-05-27T16:45:26Z</time>
      </trkpt>
      <trkpt lat="42.232748" lon="2.465879">
        <ele>430.179</ele>
        <time>2021-05-27T16:45:28Z</time>
      </trkpt>
      <trkpt lat="42.232770" lon="2.465882">
        <ele>430.555</ele>
        <time>2021-05-27T16:45:30Z</time>
      </trkpt>
      <trkpt lat="42.232793" lon="2.465889">
        <ele>430.727</ele>
        <time>2021-05-27T16:45:32Z</time>
      </trkpt>
      <trkpt lat="42.232811" lon="2.465899">
        <ele>431.068</ele>
        <time>2021-05-27T16:45:34Z</time>
      </trkpt>
      <trkpt lat="42.232829" lon="2.465917">
        <ele>431.514</ele>
        <time>2021-05-27T16:45:37Z</time>
      </trkpt>
      <trkpt lat="42.232850" lon="2.465940">
        <ele>432.108</ele>
        <time>2021-05-27T16:45:40Z</time>
      </trkpt>
      <trkpt lat="42.232867" lon="2.465959">
        <ele>432.619</ele>
        <time>2021-05-27T16:45:42Z</time>
      </trkpt>
      <trkpt lat="42.232885" lon="2.465987">
        <ele>433.466</ele>
        <time>2021-05-27T16:45:46Z</time>
      </trkpt>
      <trkpt lat="42.232897" lon="2.466015">
        <ele>434.224</ele>
        <time>2021-05-27T16:45:47Z</time>
      </trkpt>
      <trkpt lat="42.232911" lon="2.466034">
        <ele>434.764</ele>
        <time>2021-05-27T16:45:49Z</time>
      </trkpt>
      <trkpt lat="42.232923" lon="2.466055">
        <ele>435.271</ele>
        <time>2021-05-27T16:45:51Z</time>
      </trkpt>
      <trkpt lat="42.232942" lon="2.466073">
        <ele>435.736</ele>
        <time>2021-05-27T16:45:53Z</time>
      </trkpt>
      <trkpt lat="42.232955" lon="2.466092">
        <ele>436.199</ele>
        <time>2021-05-27T16:45:55Z</time>
      </trkpt>
      <trkpt lat="42.232968" lon="2.466112">
        <ele>436.745</ele>
        <time>2021-05-27T16:45:57Z</time>
      </trkpt>
      <trkpt lat="42.232995" lon="2.466128">
        <ele>436.964</ele>
        <time>2021-05-27T16:45:59Z</time>
      </trkpt>
      <trkpt lat="42.233012" lon="2.466149">
        <ele>437.406</ele>
        <time>2021-05-27T16:46:01Z</time>
      </trkpt>
      <trkpt lat="42.233026" lon="2.466168">
        <ele>437.816</ele>
        <time>2021-05-27T16:46:03Z</time>
      </trkpt>
      <trkpt lat="42.233039" lon="2.466186">
        <ele>438.308</ele>
        <time>2021-05-27T16:46:05Z</time>
      </trkpt>
      <trkpt lat="42.233058" lon="2.466200">
        <ele>438.663</ele>
        <time>2021-05-27T16:46:07Z</time>
      </trkpt>
      <trkpt lat="42.233083" lon="2.466212">
        <ele>438.840</ele>
        <time>2021-05-27T16:46:09Z</time>
      </trkpt>
      <trkpt lat="42.233113" lon="2.466223">
        <ele>439.068</ele>
        <time>2021-05-27T16:46:11Z</time>
      </trkpt>
      <trkpt lat="42.233132" lon="2.466227">
        <ele>439.178</ele>
        <time>2021-05-27T16:46:12Z</time>
      </trkpt>
      <trkpt lat="42.233157" lon="2.466229">
        <ele>439.075</ele>
        <time>2021-05-27T16:46:14Z</time>
      </trkpt>
      <trkpt lat="42.233190" lon="2.466260">
        <ele>439.890</ele>
        <time>2021-05-27T16:46:18Z</time>
      </trkpt>
      <trkpt lat="42.233213" lon="2.466258">
        <ele>439.783</ele>
        <time>2021-05-27T16:46:20Z</time>
      </trkpt>
      <trkpt lat="42.233233" lon="2.466273">
        <ele>440.089</ele>
        <time>2021-05-27T16:46:24Z</time>
      </trkpt>
      <trkpt lat="42.233250" lon="2.466297">
        <ele>440.755</ele>
        <time>2021-05-27T16:46:26Z</time>
      </trkpt>
      <trkpt lat="42.233272" lon="2.466310">
        <ele>440.907</ele>
        <time>2021-05-27T16:46:28Z</time>
      </trkpt>
      <trkpt lat="42.233289" lon="2.466330">
        <ele>441.517</ele>
        <time>2021-05-27T16:46:30Z</time>
      </trkpt>
      <trkpt lat="42.233305" lon="2.466346">
        <ele>441.908</ele>
        <time>2021-05-27T16:46:33Z</time>
      </trkpt>
      <trkpt lat="42.233324" lon="2.466358">
        <ele>442.182</ele>
        <time>2021-05-27T16:46:35Z</time>
      </trkpt>
      <trkpt lat="42.233385" lon="2.466345">
        <ele>441.989</ele>
        <time>2021-05-27T16:46:38Z</time>
      </trkpt>
      <trkpt lat="42.233421" lon="2.466347">
        <ele>442.167</ele>
        <time>2021-05-27T16:46:40Z</time>
      </trkpt>
      <trkpt lat="42.233468" lon="2.466349">
        <ele>442.397</ele>
        <time>2021-05-27T16:46:43Z</time>
      </trkpt>
      <trkpt lat="42.233487" lon="2.466350">
        <ele>442.484</ele>
        <time>2021-05-27T16:46:44Z</time>
      </trkpt>
      <trkpt lat="42.233516" lon="2.466356">
        <ele>442.729</ele>
        <time>2021-05-27T16:46:46Z</time>
      </trkpt>
      <trkpt lat="42.233534" lon="2.466355">
        <ele>442.752</ele>
        <time>2021-05-27T16:46:47Z</time>
      </trkpt>
      <trkpt lat="42.233553" lon="2.466355">
        <ele>442.868</ele>
        <time>2021-05-27T16:46:48Z</time>
      </trkpt>
      <trkpt lat="42.233575" lon="2.466354">
        <ele>442.968</ele>
        <time>2021-05-27T16:46:49Z</time>
      </trkpt>
      <trkpt lat="42.233600" lon="2.466355">
        <ele>443.042</ele>
        <time>2021-05-27T16:46:50Z</time>
      </trkpt>
      <trkpt lat="42.233633" lon="2.466364">
        <ele>443.126</ele>
        <time>2021-05-27T16:46:52Z</time>
      </trkpt>
      <trkpt lat="42.233655" lon="2.466383">
        <ele>443.508</ele>
        <time>2021-05-27T16:46:54Z</time>
      </trkpt>
      <trkpt lat="42.233676" lon="2.466416">
        <ele>444.263</ele>
        <time>2021-05-27T16:46:56Z</time>
      </trkpt>
      <trkpt lat="42.233689" lon="2.466434">
        <ele>444.570</ele>
        <time>2021-05-27T16:46:57Z</time>
      </trkpt>
      <trkpt lat="42.233714" lon="2.466444">
        <ele>444.668</ele>
        <time>2021-05-27T16:46:58Z</time>
      </trkpt>
      <trkpt lat="42.233736" lon="2.466456">
        <ele>444.868</ele>
        <time>2021-05-27T16:46:59Z</time>
      </trkpt>
      <trkpt lat="42.233833" lon="2.466520">
        <ele>446.015</ele>
        <time>2021-05-27T16:47:04Z</time>
      </trkpt>
      <trkpt lat="42.233852" lon="2.466529">
        <ele>446.230</ele>
        <time>2021-05-27T16:47:05Z</time>
      </trkpt>
      <trkpt lat="42.233933" lon="2.466574">
        <ele>446.683</ele>
        <time>2021-05-27T16:47:10Z</time>
      </trkpt>
      <trkpt lat="42.234026" lon="2.466628">
        <ele>446.379</ele>
        <time>2021-05-27T16:47:15Z</time>
      </trkpt>
      <trkpt lat="42.234119" lon="2.466680">
        <ele>445.438</ele>
        <time>2021-05-27T16:47:20Z</time>
      </trkpt>
      <trkpt lat="42.234140" lon="2.466677">
        <ele>444.970</ele>
        <time>2021-05-27T16:47:21Z</time>
      </trkpt>
      <trkpt lat="42.234183" lon="2.466685">
        <ele>444.617</ele>
        <time>2021-05-27T16:47:24Z</time>
      </trkpt>
      <trkpt lat="42.234276" lon="2.466710">
        <ele>446.008</ele>
        <time>2021-05-27T16:47:29Z</time>
      </trkpt>
      <trkpt lat="42.234382" lon="2.466720">
        <ele>446.980</ele>
        <time>2021-05-27T16:47:35Z</time>
      </trkpt>
      <trkpt lat="42.234436" lon="2.466756">
        <ele>448.277</ele>
        <time>2021-05-27T16:47:41Z</time>
      </trkpt>
      <trkpt lat="42.234477" lon="2.466780">
        <ele>449.115</ele>
        <time>2021-05-27T16:47:43Z</time>
      </trkpt>
      <trkpt lat="42.234501" lon="2.466806">
        <ele>449.875</ele>
        <time>2021-05-27T16:47:45Z</time>
      </trkpt>
      <trkpt lat="42.234521" lon="2.466829">
        <ele>450.412</ele>
        <time>2021-05-27T16:47:47Z</time>
      </trkpt>
      <trkpt lat="42.234555" lon="2.466857">
        <ele>451.027</ele>
        <time>2021-05-27T16:47:52Z</time>
      </trkpt>
      <trkpt lat="42.234575" lon="2.466868">
        <ele>451.240</ele>
        <time>2021-05-27T16:47:53Z</time>
      </trkpt>
      <trkpt lat="42.234594" lon="2.466879">
        <ele>451.446</ele>
        <time>2021-05-27T16:47:55Z</time>
      </trkpt>
      <trkpt lat="42.234604" lon="2.466901">
        <ele>451.862</ele>
        <time>2021-05-27T16:47:57Z</time>
      </trkpt>
      <trkpt lat="42.234609" lon="2.466929">
        <ele>452.283</ele>
        <time>2021-05-27T16:48:00Z</time>
      </trkpt>
      <trkpt lat="42.234629" lon="2.466964">
        <ele>453.011</ele>
        <time>2021-05-27T16:48:02Z</time>
      </trkpt>
      <trkpt lat="42.234653" lon="2.466993">
        <ele>453.808</ele>
        <time>2021-05-27T16:48:06Z</time>
      </trkpt>
      <trkpt lat="42.234668" lon="2.467013">
        <ele>454.423</ele>
        <time>2021-05-27T16:48:07Z</time>
      </trkpt>
      <trkpt lat="42.234680" lon="2.467039">
        <ele>455.250</ele>
        <time>2021-05-27T16:48:09Z</time>
      </trkpt>
      <trkpt lat="42.234770" lon="2.467065">
        <ele>456.028</ele>
        <time>2021-05-27T16:48:17Z</time>
      </trkpt>
      <trkpt lat="42.234810" lon="2.467051">
        <ele>455.828</ele>
        <time>2021-05-27T16:48:19Z</time>
      </trkpt>
      <trkpt lat="42.234836" lon="2.467056">
        <ele>456.085</ele>
        <time>2021-05-27T16:48:21Z</time>
      </trkpt>
      <trkpt lat="42.234857" lon="2.467044">
        <ele>455.820</ele>
        <time>2021-05-27T16:48:22Z</time>
      </trkpt>
      <trkpt lat="42.234961" lon="2.467020">
        <ele>455.953</ele>
        <time>2021-05-27T16:48:28Z</time>
      </trkpt>
      <trkpt lat="42.235021" lon="2.467003">
        <ele>456.029</ele>
        <time>2021-05-27T16:48:33Z</time>
      </trkpt>
      <trkpt lat="42.235041" lon="2.466996">
        <ele>456.198</ele>
        <time>2021-05-27T16:48:34Z</time>
      </trkpt>
      <trkpt lat="42.235059" lon="2.466987">
        <ele>456.215</ele>
        <time>2021-05-27T16:48:35Z</time>
      </trkpt>
      <trkpt lat="42.235076" lon="2.466979">
        <ele>456.226</ele>
        <time>2021-05-27T16:48:37Z</time>
      </trkpt>
      <trkpt lat="42.235100" lon="2.466967">
        <ele>456.308</ele>
        <time>2021-05-27T16:48:38Z</time>
      </trkpt>
      <trkpt lat="42.235131" lon="2.466964">
        <ele>456.626</ele>
        <time>2021-05-27T16:48:40Z</time>
      </trkpt>
      <trkpt lat="42.235162" lon="2.466965">
        <ele>457.073</ele>
        <time>2021-05-27T16:48:42Z</time>
      </trkpt>
      <trkpt lat="42.235189" lon="2.466971">
        <ele>457.391</ele>
        <time>2021-05-27T16:48:44Z</time>
      </trkpt>
      <trkpt lat="42.235211" lon="2.466989">
        <ele>457.761</ele>
        <time>2021-05-27T16:48:46Z</time>
      </trkpt>
      <trkpt lat="42.235239" lon="2.466989">
        <ele>457.968</ele>
        <time>2021-05-27T16:48:48Z</time>
      </trkpt>
      <trkpt lat="42.235269" lon="2.466995">
        <ele>458.323</ele>
        <time>2021-05-27T16:48:50Z</time>
      </trkpt>
      <trkpt lat="42.235291" lon="2.466996">
        <ele>458.566</ele>
        <time>2021-05-27T16:48:52Z</time>
      </trkpt>
      <trkpt lat="42.235311" lon="2.467001">
        <ele>458.672</ele>
        <time>2021-05-27T16:48:54Z</time>
      </trkpt>
      <trkpt lat="42.235328" lon="2.467010">
        <ele>458.829</ele>
        <time>2021-05-27T16:48:56Z</time>
      </trkpt>
      <trkpt lat="42.235352" lon="2.467013">
        <ele>459.000</ele>
        <time>2021-05-27T16:48:58Z</time>
      </trkpt>
      <trkpt lat="42.235377" lon="2.467012">
        <ele>459.220</ele>
        <time>2021-05-27T16:49:00Z</time>
      </trkpt>
      <trkpt lat="42.235404" lon="2.467012">
        <ele>459.408</ele>
        <time>2021-05-27T16:49:02Z</time>
      </trkpt>
      <trkpt lat="42.235432" lon="2.467010">
        <ele>459.659</ele>
        <time>2021-05-27T16:49:04Z</time>
      </trkpt>
      <trkpt lat="42.235458" lon="2.467012">
        <ele>459.836</ele>
        <time>2021-05-27T16:49:06Z</time>
      </trkpt>
      <trkpt lat="42.235495" lon="2.467017">
        <ele>460.184</ele>
        <time>2021-05-27T16:49:08Z</time>
      </trkpt>
      <trkpt lat="42.235524" lon="2.467017">
        <ele>460.384</ele>
        <time>2021-05-27T16:49:10Z</time>
      </trkpt>
      <trkpt lat="42.235558" lon="2.467028">
        <ele>460.611</ele>
        <time>2021-05-27T16:49:12Z</time>
      </trkpt>
      <trkpt lat="42.235576" lon="2.467031">
        <ele>460.656</ele>
        <time>2021-05-27T16:49:13Z</time>
      </trkpt>
      <trkpt lat="42.235596" lon="2.467032">
        <ele>460.669</ele>
        <time>2021-05-27T16:49:14Z</time>
      </trkpt>
      <trkpt lat="42.235624" lon="2.467042">
        <ele>460.625</ele>
        <time>2021-05-27T16:49:16Z</time>
      </trkpt>
      <trkpt lat="42.235722" lon="2.467063">
        <ele>460.816</ele>
        <time>2021-05-27T16:49:22Z</time>
      </trkpt>
      <trkpt lat="42.235811" lon="2.467102">
        <ele>461.376</ele>
        <time>2021-05-27T16:49:27Z</time>
      </trkpt>
      <trkpt lat="42.235903" lon="2.467099">
        <ele>461.313</ele>
        <time>2021-05-27T16:49:31Z</time>
      </trkpt>
      <trkpt lat="42.236004" lon="2.467129">
        <ele>461.908</ele>
        <time>2021-05-27T16:49:37Z</time>
      </trkpt>
      <trkpt lat="42.236042" lon="2.467144">
        <ele>462.178</ele>
        <time>2021-05-27T16:49:38Z</time>
      </trkpt>
      <trkpt lat="42.236138" lon="2.467202">
        <ele>462.995</ele>
        <time>2021-05-27T16:49:43Z</time>
      </trkpt>
      <trkpt lat="42.236237" lon="2.467233">
        <ele>463.873</ele>
        <time>2021-05-27T16:49:49Z</time>
      </trkpt>
      <trkpt lat="42.236337" lon="2.467265">
        <ele>465.163</ele>
        <time>2021-05-27T16:49:55Z</time>
      </trkpt>
      <trkpt lat="42.236379" lon="2.467275">
        <ele>465.530</ele>
        <time>2021-05-27T16:49:58Z</time>
      </trkpt>
      <trkpt lat="42.236399" lon="2.467280">
        <ele>465.765</ele>
        <time>2021-05-27T16:49:59Z</time>
      </trkpt>
      <trkpt lat="42.236427" lon="2.467283">
        <ele>466.058</ele>
        <time>2021-05-27T16:50:01Z</time>
      </trkpt>
      <trkpt lat="42.236450" lon="2.467288">
        <ele>466.344</ele>
        <time>2021-05-27T16:50:03Z</time>
      </trkpt>
      <trkpt lat="42.236471" lon="2.467294">
        <ele>466.614</ele>
        <time>2021-05-27T16:50:05Z</time>
      </trkpt>
      <trkpt lat="42.236507" lon="2.467306">
        <ele>467.154</ele>
        <time>2021-05-27T16:50:07Z</time>
      </trkpt>
      <trkpt lat="42.236552" lon="2.467327">
        <ele>468.009</ele>
        <time>2021-05-27T16:50:10Z</time>
      </trkpt>
      <trkpt lat="42.236575" lon="2.467340">
        <ele>468.408</ele>
        <time>2021-05-27T16:50:12Z</time>
      </trkpt>
      <trkpt lat="42.236595" lon="2.467347">
        <ele>468.778</ele>
        <time>2021-05-27T16:50:14Z</time>
      </trkpt>
      <trkpt lat="42.236616" lon="2.467354">
        <ele>469.035</ele>
        <time>2021-05-27T16:50:16Z</time>
      </trkpt>
      <trkpt lat="42.236638" lon="2.467353">
        <ele>469.163</ele>
        <time>2021-05-27T16:50:18Z</time>
      </trkpt>
      <trkpt lat="42.236657" lon="2.467360">
        <ele>469.453</ele>
        <time>2021-05-27T16:50:20Z</time>
      </trkpt>
      <trkpt lat="42.236676" lon="2.467369">
        <ele>469.720</ele>
        <time>2021-05-27T16:50:22Z</time>
      </trkpt>
      <trkpt lat="42.236728" lon="2.467391">
        <ele>470.455</ele>
        <time>2021-05-27T16:50:28Z</time>
      </trkpt>
      <trkpt lat="42.236756" lon="2.467405">
        <ele>470.778</ele>
        <time>2021-05-27T16:50:31Z</time>
      </trkpt>
      <trkpt lat="42.236772" lon="2.467438">
        <ele>471.334</ele>
        <time>2021-05-27T16:50:33Z</time>
      </trkpt>
      <trkpt lat="42.236794" lon="2.467483">
        <ele>471.982</ele>
        <time>2021-05-27T16:50:37Z</time>
      </trkpt>
      <trkpt lat="42.236816" lon="2.467497">
        <ele>471.943</ele>
        <time>2021-05-27T16:50:39Z</time>
      </trkpt>
      <trkpt lat="42.236847" lon="2.467521">
        <ele>472.517</ele>
        <time>2021-05-27T16:50:42Z</time>
      </trkpt>
      <trkpt lat="42.236886" lon="2.467540">
        <ele>472.808</ele>
        <time>2021-05-27T16:50:45Z</time>
      </trkpt>
      <trkpt lat="42.236909" lon="2.467551">
        <ele>473.085</ele>
        <time>2021-05-27T16:50:47Z</time>
      </trkpt>
      <trkpt lat="42.236926" lon="2.467561">
        <ele>473.262</ele>
        <time>2021-05-27T16:50:49Z</time>
      </trkpt>
      <trkpt lat="42.237020" lon="2.467605">
        <ele>475.130</ele>
        <time>2021-05-27T16:50:56Z</time>
      </trkpt>
      <trkpt lat="42.237073" lon="2.467605">
        <ele>475.630</ele>
        <time>2021-05-27T16:51:00Z</time>
      </trkpt>
      <trkpt lat="42.237096" lon="2.467602">
        <ele>475.827</ele>
        <time>2021-05-27T16:51:02Z</time>
      </trkpt>
      <trkpt lat="42.237111" lon="2.467581">
        <ele>475.642</ele>
        <time>2021-05-27T16:51:04Z</time>
      </trkpt>
      <trkpt lat="42.237127" lon="2.467559">
        <ele>475.615</ele>
        <time>2021-05-27T16:51:06Z</time>
      </trkpt>
      <trkpt lat="42.237141" lon="2.467530">
        <ele>475.551</ele>
        <time>2021-05-27T16:51:09Z</time>
      </trkpt>
      <trkpt lat="42.237153" lon="2.467503">
        <ele>475.571</ele>
        <time>2021-05-27T16:51:10Z</time>
      </trkpt>
      <trkpt lat="42.237180" lon="2.467445">
        <ele>476.341</ele>
        <time>2021-05-27T16:51:14Z</time>
      </trkpt>
      <trkpt lat="42.237185" lon="2.467413">
        <ele>476.515</ele>
        <time>2021-05-27T16:51:16Z</time>
      </trkpt>
      <trkpt lat="42.237195" lon="2.467379">
        <ele>476.808</ele>
        <time>2021-05-27T16:51:18Z</time>
      </trkpt>
      <trkpt lat="42.237218" lon="2.467329">
        <ele>477.514</ele>
        <time>2021-05-27T16:51:22Z</time>
      </trkpt>
      <trkpt lat="42.237267" lon="2.467216">
        <ele>479.191</ele>
        <time>2021-05-27T16:51:32Z</time>
      </trkpt>
      <trkpt lat="42.237326" lon="2.467123">
        <ele>480.199</ele>
        <time>2021-05-27T16:51:38Z</time>
      </trkpt>
      <trkpt lat="42.237415" lon="2.467084">
        <ele>482.049</ele>
        <time>2021-05-27T16:51:47Z</time>
      </trkpt>
      <trkpt lat="42.237450" lon="2.467057">
        <ele>482.786</ele>
        <time>2021-05-27T16:51:51Z</time>
      </trkpt>
      <trkpt lat="42.237470" lon="2.467045">
        <ele>483.011</ele>
        <time>2021-05-27T16:51:52Z</time>
      </trkpt>
      <trkpt lat="42.237489" lon="2.467030">
        <ele>483.454</ele>
        <time>2021-05-27T16:51:54Z</time>
      </trkpt>
      <trkpt lat="42.237515" lon="2.467024">
        <ele>484.030</ele>
        <time>2021-05-27T16:51:57Z</time>
      </trkpt>
      <trkpt lat="42.237540" lon="2.467017">
        <ele>484.776</ele>
        <time>2021-05-27T16:51:59Z</time>
      </trkpt>
      <trkpt lat="42.237566" lon="2.467020">
        <ele>485.690</ele>
        <time>2021-05-27T16:52:00Z</time>
      </trkpt>
      <trkpt lat="42.237586" lon="2.467029">
        <ele>486.219</ele>
        <time>2021-05-27T16:52:02Z</time>
      </trkpt>
      <trkpt lat="42.237604" lon="2.467043">
        <ele>486.808</ele>
        <time>2021-05-27T16:52:04Z</time>
      </trkpt>
      <trkpt lat="42.237657" lon="2.467152">
        <ele>488.774</ele>
        <time>2021-05-27T16:52:16Z</time>
      </trkpt>
      <trkpt lat="42.237665" lon="2.467243">
        <ele>489.361</ele>
        <time>2021-05-27T16:52:21Z</time>
      </trkpt>
      <trkpt lat="42.237681" lon="2.467297">
        <ele>490.139</ele>
        <time>2021-05-27T16:52:24Z</time>
      </trkpt>
      <trkpt lat="42.237679" lon="2.467334">
        <ele>490.319</ele>
        <time>2021-05-27T16:52:26Z</time>
      </trkpt>
      <trkpt lat="42.237684" lon="2.467365">
        <ele>490.736</ele>
        <time>2021-05-27T16:52:28Z</time>
      </trkpt>
      <trkpt lat="42.237685" lon="2.467397">
        <ele>490.981</ele>
        <time>2021-05-27T16:52:30Z</time>
      </trkpt>
      <trkpt lat="42.237683" lon="2.467428">
        <ele>491.134</ele>
        <time>2021-05-27T16:52:32Z</time>
      </trkpt>
      <trkpt lat="42.237680" lon="2.467466">
        <ele>491.350</ele>
        <time>2021-05-27T16:52:34Z</time>
      </trkpt>
      <trkpt lat="42.237679" lon="2.467495">
        <ele>491.556</ele>
        <time>2021-05-27T16:52:36Z</time>
      </trkpt>
      <trkpt lat="42.237675" lon="2.467530">
        <ele>491.459</ele>
        <time>2021-05-27T16:52:38Z</time>
      </trkpt>
      <trkpt lat="42.237678" lon="2.467563">
        <ele>491.514</ele>
        <time>2021-05-27T16:52:40Z</time>
      </trkpt>
      <trkpt lat="42.237681" lon="2.467592">
        <ele>491.708</ele>
        <time>2021-05-27T16:52:42Z</time>
      </trkpt>
      <trkpt lat="42.237684" lon="2.467624">
        <ele>491.852</ele>
        <time>2021-05-27T16:52:44Z</time>
      </trkpt>
      <trkpt lat="42.237679" lon="2.467653">
        <ele>491.749</ele>
        <time>2021-05-27T16:52:46Z</time>
      </trkpt>
      <trkpt lat="42.237683" lon="2.467678">
        <ele>491.847</ele>
        <time>2021-05-27T16:52:48Z</time>
      </trkpt>
      <trkpt lat="42.237685" lon="2.467706">
        <ele>491.917</ele>
        <time>2021-05-27T16:52:50Z</time>
      </trkpt>
      <trkpt lat="42.237692" lon="2.467741">
        <ele>492.284</ele>
        <time>2021-05-27T16:52:52Z</time>
      </trkpt>
      <trkpt lat="42.237704" lon="2.467784">
        <ele>492.659</ele>
        <time>2021-05-27T16:52:54Z</time>
      </trkpt>
      <trkpt lat="42.237712" lon="2.467807">
        <ele>492.732</ele>
        <time>2021-05-27T16:52:55Z</time>
      </trkpt>
      <trkpt lat="42.237729" lon="2.467847">
        <ele>493.138</ele>
        <time>2021-05-27T16:52:57Z</time>
      </trkpt>
      <trkpt lat="42.237743" lon="2.467885">
        <ele>493.438</ele>
        <time>2021-05-27T16:52:59Z</time>
      </trkpt>
      <trkpt lat="42.237760" lon="2.467923">
        <ele>493.870</ele>
        <time>2021-05-27T16:53:01Z</time>
      </trkpt>
      <trkpt lat="42.237770" lon="2.467972">
        <ele>494.017</ele>
        <time>2021-05-27T16:53:03Z</time>
      </trkpt>
      <trkpt lat="42.237780" lon="2.468037">
        <ele>494.208</ele>
        <time>2021-05-27T16:53:05Z</time>
      </trkpt>
      <trkpt lat="42.237801" lon="2.468129">
        <ele>494.540</ele>
        <time>2021-05-27T16:53:08Z</time>
      </trkpt>
      <trkpt lat="42.237804" lon="2.468156">
        <ele>494.497</ele>
        <time>2021-05-27T16:53:09Z</time>
      </trkpt>
      <trkpt lat="42.237803" lon="2.468183">
        <ele>494.125</ele>
        <time>2021-05-27T16:53:10Z</time>
      </trkpt>
      <trkpt lat="42.237801" lon="2.468212">
        <ele>493.835</ele>
        <time>2021-05-27T16:53:11Z</time>
      </trkpt>
      <trkpt lat="42.237805" lon="2.468241">
        <ele>493.822</ele>
        <time>2021-05-27T16:53:12Z</time>
      </trkpt>
      <trkpt lat="42.237809" lon="2.468264">
        <ele>493.847</ele>
        <time>2021-05-27T16:53:13Z</time>
      </trkpt>
      <trkpt lat="42.237821" lon="2.468299">
        <ele>494.080</ele>
        <time>2021-05-27T16:53:15Z</time>
      </trkpt>
      <trkpt lat="42.237811" lon="2.468330">
        <ele>493.396</ele>
        <time>2021-05-27T16:53:17Z</time>
      </trkpt>
      <trkpt lat="42.237804" lon="2.468355">
        <ele>493.113</ele>
        <time>2021-05-27T16:53:19Z</time>
      </trkpt>
      <trkpt lat="42.237823" lon="2.468424">
        <ele>493.843</ele>
        <time>2021-05-27T16:53:29Z</time>
      </trkpt>
      <trkpt lat="42.237846" lon="2.468421">
        <ele>494.607</ele>
        <time>2021-05-27T16:53:31Z</time>
      </trkpt>
      <trkpt lat="42.237877" lon="2.468400">
        <ele>495.708</ele>
        <time>2021-05-27T16:53:34Z</time>
      </trkpt>
      <trkpt lat="42.237890" lon="2.468382">
        <ele>496.218</ele>
        <time>2021-05-27T16:53:36Z</time>
      </trkpt>
      <trkpt lat="42.237894" lon="2.468308">
        <ele>496.815</ele>
        <time>2021-05-27T16:53:41Z</time>
      </trkpt>
      <trkpt lat="42.237889" lon="2.468262">
        <ele>497.043</ele>
        <time>2021-05-27T16:53:44Z</time>
      </trkpt>
      <trkpt lat="42.237890" lon="2.468233">
        <ele>497.323</ele>
        <time>2021-05-27T16:53:46Z</time>
      </trkpt>
      <trkpt lat="42.237889" lon="2.468204">
        <ele>497.550</ele>
        <time>2021-05-27T16:53:48Z</time>
      </trkpt>
      <trkpt lat="42.237891" lon="2.468177">
        <ele>497.825</ele>
        <time>2021-05-27T16:53:50Z</time>
      </trkpt>
      <trkpt lat="42.237884" lon="2.468151">
        <ele>497.868</ele>
        <time>2021-05-27T16:53:52Z</time>
      </trkpt>
      <trkpt lat="42.237894" lon="2.468037">
        <ele>499.134</ele>
        <time>2021-05-27T16:53:58Z</time>
      </trkpt>
      <trkpt lat="42.237893" lon="2.468006">
        <ele>499.212</ele>
        <time>2021-05-27T16:54:00Z</time>
      </trkpt>
      <trkpt lat="42.237905" lon="2.467877">
        <ele>500.432</ele>
        <time>2021-05-27T16:54:07Z</time>
      </trkpt>
      <trkpt lat="42.237917" lon="2.467773">
        <ele>501.505</ele>
        <time>2021-05-27T16:54:14Z</time>
      </trkpt>
      <trkpt lat="42.237928" lon="2.467738">
        <ele>501.908</ele>
        <time>2021-05-27T16:54:17Z</time>
      </trkpt>
      <trkpt lat="42.237930" lon="2.467710">
        <ele>501.938</ele>
        <time>2021-05-27T16:54:19Z</time>
      </trkpt>
      <trkpt lat="42.237946" lon="2.467682">
        <ele>502.555</ele>
        <time>2021-05-27T16:54:22Z</time>
      </trkpt>
      <trkpt lat="42.237957" lon="2.467658">
        <ele>503.033</ele>
        <time>2021-05-27T16:54:24Z</time>
      </trkpt>
      <trkpt lat="42.237966" lon="2.467631">
        <ele>503.313</ele>
        <time>2021-05-27T16:54:26Z</time>
      </trkpt>
      <trkpt lat="42.237976" lon="2.467606">
        <ele>503.740</ele>
        <time>2021-05-27T16:54:28Z</time>
      </trkpt>
      <trkpt lat="42.237985" lon="2.467584">
        <ele>504.025</ele>
        <time>2021-05-27T16:54:30Z</time>
      </trkpt>
      <trkpt lat="42.237999" lon="2.467563">
        <ele>504.688</ele>
        <time>2021-05-27T16:54:32Z</time>
      </trkpt>
      <trkpt lat="42.238009" lon="2.467542">
        <ele>505.054</ele>
        <time>2021-05-27T16:54:34Z</time>
      </trkpt>
      <trkpt lat="42.238017" lon="2.467521">
        <ele>505.388</ele>
        <time>2021-05-27T16:54:36Z</time>
      </trkpt>
      <trkpt lat="42.238028" lon="2.467492">
        <ele>505.724</ele>
        <time>2021-05-27T16:54:39Z</time>
      </trkpt>
      <trkpt lat="42.238042" lon="2.467471">
        <ele>506.326</ele>
        <time>2021-05-27T16:54:41Z</time>
      </trkpt>
      <trkpt lat="42.238055" lon="2.467447">
        <ele>506.808</ele>
        <time>2021-05-27T16:54:43Z</time>
      </trkpt>
      <trkpt lat="42.238067" lon="2.467421">
        <ele>507.395</ele>
        <time>2021-05-27T16:54:46Z</time>
      </trkpt>
      <trkpt lat="42.238081" lon="2.467386">
        <ele>507.912</ele>
        <time>2021-05-27T16:54:49Z</time>
      </trkpt>
      <trkpt lat="42.238097" lon="2.467365">
        <ele>508.640</ele>
        <time>2021-05-27T16:54:51Z</time>
      </trkpt>
      <trkpt lat="42.238112" lon="2.467343">
        <ele>509.320</ele>
        <time>2021-05-27T16:54:53Z</time>
      </trkpt>
      <trkpt lat="42.238132" lon="2.467317">
        <ele>510.177</ele>
        <time>2021-05-27T16:54:55Z</time>
      </trkpt>
      <trkpt lat="42.238150" lon="2.467281">
        <ele>510.892</ele>
        <time>2021-05-27T16:54:57Z</time>
      </trkpt>
      <trkpt lat="42.238176" lon="2.467246">
        <ele>511.885</ele>
        <time>2021-05-27T16:54:59Z</time>
      </trkpt>
      <trkpt lat="42.238194" lon="2.467208">
        <ele>512.341</ele>
        <time>2021-05-27T16:55:01Z</time>
      </trkpt>
      <trkpt lat="42.238207" lon="2.467187">
        <ele>512.684</ele>
        <time>2021-05-27T16:55:03Z</time>
      </trkpt>
      <trkpt lat="42.238226" lon="2.467165">
        <ele>513.207</ele>
        <time>2021-05-27T16:55:06Z</time>
      </trkpt>
      <trkpt lat="42.238242" lon="2.467149">
        <ele>513.817</ele>
        <time>2021-05-27T16:55:08Z</time>
      </trkpt>
      <trkpt lat="42.238257" lon="2.467134">
        <ele>514.208</ele>
        <time>2021-05-27T16:55:10Z</time>
      </trkpt>
      <trkpt lat="42.238271" lon="2.467114">
        <ele>514.695</ele>
        <time>2021-05-27T16:55:12Z</time>
      </trkpt>
      <trkpt lat="42.238289" lon="2.467096">
        <ele>515.212</ele>
        <time>2021-05-27T16:55:15Z</time>
      </trkpt>
      <trkpt lat="42.238301" lon="2.467066">
        <ele>515.390</ele>
        <time>2021-05-27T16:55:18Z</time>
      </trkpt>
      <trkpt lat="42.238310" lon="2.467039">
        <ele>515.380</ele>
        <time>2021-05-27T16:55:20Z</time>
      </trkpt>
      <trkpt lat="42.238319" lon="2.467016">
        <ele>515.437</ele>
        <time>2021-05-27T16:55:22Z</time>
      </trkpt>
      <trkpt lat="42.238328" lon="2.466993">
        <ele>515.562</ele>
        <time>2021-05-27T16:55:24Z</time>
      </trkpt>
      <trkpt lat="42.238343" lon="2.466967">
        <ele>515.815</ele>
        <time>2021-05-27T16:55:27Z</time>
      </trkpt>
      <trkpt lat="42.238355" lon="2.466948">
        <ele>516.261</ele>
        <time>2021-05-27T16:55:29Z</time>
      </trkpt>
      <trkpt lat="42.238374" lon="2.466919">
        <ele>517.186</ele>
        <time>2021-05-27T16:55:32Z</time>
      </trkpt>
      <trkpt lat="42.238387" lon="2.466895">
        <ele>517.660</ele>
        <time>2021-05-27T16:55:34Z</time>
      </trkpt>
      <trkpt lat="42.238393" lon="2.466864">
        <ele>517.726</ele>
        <time>2021-05-27T16:55:36Z</time>
      </trkpt>
      <trkpt lat="42.238404" lon="2.466835">
        <ele>518.108</ele>
        <time>2021-05-27T16:55:38Z</time>
      </trkpt>
      <trkpt lat="42.238409" lon="2.466806">
        <ele>518.265</ele>
        <time>2021-05-27T16:55:40Z</time>
      </trkpt>
      <trkpt lat="42.238417" lon="2.466773">
        <ele>518.392</ele>
        <time>2021-05-27T16:55:42Z</time>
      </trkpt>
      <trkpt lat="42.238429" lon="2.466744">
        <ele>518.770</ele>
        <time>2021-05-27T16:55:44Z</time>
      </trkpt>
      <trkpt lat="42.238451" lon="2.466712">
        <ele>519.530</ele>
        <time>2021-05-27T16:55:46Z</time>
      </trkpt>
      <trkpt lat="42.238466" lon="2.466680">
        <ele>519.847</ele>
        <time>2021-05-27T16:55:48Z</time>
      </trkpt>
      <trkpt lat="42.238477" lon="2.466653">
        <ele>520.142</ele>
        <time>2021-05-27T16:55:50Z</time>
      </trkpt>
      <trkpt lat="42.238490" lon="2.466627">
        <ele>520.515</ele>
        <time>2021-05-27T16:55:52Z</time>
      </trkpt>
      <trkpt lat="42.238505" lon="2.466597">
        <ele>520.971</ele>
        <time>2021-05-27T16:55:54Z</time>
      </trkpt>
      <trkpt lat="42.238510" lon="2.466569">
        <ele>520.834</ele>
        <time>2021-05-27T16:55:56Z</time>
      </trkpt>
      <trkpt lat="42.238526" lon="2.466536">
        <ele>521.255</ele>
        <time>2021-05-27T16:55:58Z</time>
      </trkpt>
      <trkpt lat="42.238536" lon="2.466511">
        <ele>521.410</ele>
        <time>2021-05-27T16:56:00Z</time>
      </trkpt>
      <trkpt lat="42.238546" lon="2.466487">
        <ele>521.508</ele>
        <time>2021-05-27T16:56:02Z</time>
      </trkpt>
      <trkpt lat="42.238556" lon="2.466464">
        <ele>521.730</ele>
        <time>2021-05-27T16:56:04Z</time>
      </trkpt>
      <trkpt lat="42.238570" lon="2.466434">
        <ele>522.017</ele>
        <time>2021-05-27T16:56:06Z</time>
      </trkpt>
      <trkpt lat="42.238575" lon="2.466398">
        <ele>521.875</ele>
        <time>2021-05-27T16:56:08Z</time>
      </trkpt>
      <trkpt lat="42.238578" lon="2.466364">
        <ele>521.595</ele>
        <time>2021-05-27T16:56:10Z</time>
      </trkpt>
      <trkpt lat="42.238579" lon="2.466332">
        <ele>521.392</ele>
        <time>2021-05-27T16:56:12Z</time>
      </trkpt>
      <trkpt lat="42.238590" lon="2.466300">
        <ele>521.397</ele>
        <time>2021-05-27T16:56:14Z</time>
      </trkpt>
      <trkpt lat="42.238607" lon="2.466264">
        <ele>521.540</ele>
        <time>2021-05-27T16:56:16Z</time>
      </trkpt>
      <trkpt lat="42.238621" lon="2.466236">
        <ele>521.696</ele>
        <time>2021-05-27T16:56:18Z</time>
      </trkpt>
      <trkpt lat="42.238637" lon="2.466211">
        <ele>521.648</ele>
        <time>2021-05-27T16:56:21Z</time>
      </trkpt>
      <trkpt lat="42.238659" lon="2.466206">
        <ele>522.061</ele>
        <time>2021-05-27T16:56:24Z</time>
      </trkpt>
      <trkpt lat="42.238687" lon="2.466212">
        <ele>522.617</ele>
        <time>2021-05-27T16:56:27Z</time>
      </trkpt>
      <trkpt lat="42.238705" lon="2.466221">
        <ele>523.108</ele>
        <time>2021-05-27T16:56:29Z</time>
      </trkpt>
      <trkpt lat="42.238727" lon="2.466235">
        <ele>523.891</ele>
        <time>2021-05-27T16:56:31Z</time>
      </trkpt>
      <trkpt lat="42.238746" lon="2.466253">
        <ele>524.518</ele>
        <time>2021-05-27T16:56:33Z</time>
      </trkpt>
      <trkpt lat="42.238760" lon="2.466281">
        <ele>525.376</ele>
        <time>2021-05-27T16:56:36Z</time>
      </trkpt>
      <trkpt lat="42.238763" lon="2.466306">
        <ele>525.866</ele>
        <time>2021-05-27T16:56:39Z</time>
      </trkpt>
      <trkpt lat="42.238766" lon="2.466330">
        <ele>526.453</ele>
        <time>2021-05-27T16:56:42Z</time>
      </trkpt>
      <trkpt lat="42.238763" lon="2.466355">
        <ele>526.738</ele>
        <time>2021-05-27T16:56:44Z</time>
      </trkpt>
      <trkpt lat="42.238759" lon="2.466393">
        <ele>527.391</ele>
        <time>2021-05-27T16:56:47Z</time>
      </trkpt>
      <trkpt lat="42.238760" lon="2.466417">
        <ele>527.637</ele>
        <time>2021-05-27T16:56:49Z</time>
      </trkpt>
      <trkpt lat="42.238762" lon="2.466448">
        <ele>528.113</ele>
        <time>2021-05-27T16:56:52Z</time>
      </trkpt>
      <trkpt lat="42.238763" lon="2.466474">
        <ele>528.543</ele>
        <time>2021-05-27T16:56:54Z</time>
      </trkpt>
      <trkpt lat="42.238763" lon="2.466498">
        <ele>528.807</ele>
        <time>2021-05-27T16:56:56Z</time>
      </trkpt>
      <trkpt lat="42.238756" lon="2.466535">
        <ele>529.008</ele>
        <time>2021-05-27T16:56:58Z</time>
      </trkpt>
      <trkpt lat="42.238752" lon="2.466568">
        <ele>529.378</ele>
        <time>2021-05-27T16:57:00Z</time>
      </trkpt>
      <trkpt lat="42.238750" lon="2.466605">
        <ele>529.755</ele>
        <time>2021-05-27T16:57:03Z</time>
      </trkpt>
      <trkpt lat="42.238749" lon="2.466635">
        <ele>530.133</ele>
        <time>2021-05-27T16:57:05Z</time>
      </trkpt>
      <trkpt lat="42.238741" lon="2.466669">
        <ele>530.213</ele>
        <time>2021-05-27T16:57:07Z</time>
      </trkpt>
      <trkpt lat="42.238734" lon="2.466701">
        <ele>530.550</ele>
        <time>2021-05-27T16:57:10Z</time>
      </trkpt>
      <trkpt lat="42.238734" lon="2.466731">
        <ele>531.055</ele>
        <time>2021-05-27T16:57:11Z</time>
      </trkpt>
      <trkpt lat="42.238731" lon="2.466768">
        <ele>531.568</ele>
        <time>2021-05-27T16:57:14Z</time>
      </trkpt>
      <trkpt lat="42.238725" lon="2.466792">
        <ele>531.724</ele>
        <time>2021-05-27T16:57:16Z</time>
      </trkpt>
      <trkpt lat="42.238719" lon="2.466827">
        <ele>532.072</ele>
        <time>2021-05-27T16:57:19Z</time>
      </trkpt>
      <trkpt lat="42.238714" lon="2.466858">
        <ele>532.313</ele>
        <time>2021-05-27T16:57:21Z</time>
      </trkpt>
      <trkpt lat="42.238706" lon="2.466892">
        <ele>532.614</ele>
        <time>2021-05-27T16:57:24Z</time>
      </trkpt>
      <trkpt lat="42.238700" lon="2.466925">
        <ele>532.908</ele>
        <time>2021-05-27T16:57:26Z</time>
      </trkpt>
      <trkpt lat="42.238692" lon="2.466956">
        <ele>533.114</ele>
        <time>2021-05-27T16:57:29Z</time>
      </trkpt>
      <trkpt lat="42.238692" lon="2.466983">
        <ele>533.421</ele>
        <time>2021-05-27T16:57:30Z</time>
      </trkpt>
      <trkpt lat="42.238689" lon="2.467017">
        <ele>533.799</ele>
        <time>2021-05-27T16:57:33Z</time>
      </trkpt>
      <trkpt lat="42.238680" lon="2.467053">
        <ele>533.869</ele>
        <time>2021-05-27T16:57:35Z</time>
      </trkpt>
      <trkpt lat="42.238678" lon="2.467079">
        <ele>534.176</ele>
        <time>2021-05-27T16:57:37Z</time>
      </trkpt>
      <trkpt lat="42.238676" lon="2.467105">
        <ele>534.361</ele>
        <time>2021-05-27T16:57:42Z</time>
      </trkpt>
      <trkpt lat="42.238673" lon="2.467139">
        <ele>534.684</ele>
        <time>2021-05-27T16:57:43Z</time>
      </trkpt>
      <trkpt lat="42.238669" lon="2.467177">
        <ele>534.910</ele>
        <time>2021-05-27T16:57:46Z</time>
      </trkpt>
      <trkpt lat="42.238668" lon="2.467215">
        <ele>535.479</ele>
        <time>2021-05-27T16:57:47Z</time>
      </trkpt>
      <trkpt lat="42.238662" lon="2.467239">
        <ele>535.405</ele>
        <time>2021-05-27T16:57:49Z</time>
      </trkpt>
      <trkpt lat="42.238654" lon="2.467274">
        <ele>535.425</ele>
        <time>2021-05-27T16:57:50Z</time>
      </trkpt>
      <trkpt lat="42.238640" lon="2.467311">
        <ele>535.208</ele>
        <time>2021-05-27T16:57:52Z</time>
      </trkpt>
      <trkpt lat="42.238630" lon="2.467347">
        <ele>535.124</ele>
        <time>2021-05-27T16:57:54Z</time>
      </trkpt>
      <trkpt lat="42.238629" lon="2.467386">
        <ele>535.571</ele>
        <time>2021-05-27T16:57:56Z</time>
      </trkpt>
      <trkpt lat="42.238627" lon="2.467428">
        <ele>535.979</ele>
        <time>2021-05-27T16:57:58Z</time>
      </trkpt>
      <trkpt lat="42.238625" lon="2.467467">
        <ele>536.259</ele>
        <time>2021-05-27T16:58:00Z</time>
      </trkpt>
      <trkpt lat="42.238629" lon="2.467500">
        <ele>536.746</ele>
        <time>2021-05-27T16:58:02Z</time>
      </trkpt>
      <trkpt lat="42.238633" lon="2.467533">
        <ele>537.011</ele>
        <time>2021-05-27T16:58:04Z</time>
      </trkpt>
      <trkpt lat="42.238637" lon="2.467564">
        <ele>537.314</ele>
        <time>2021-05-27T16:58:06Z</time>
      </trkpt>
      <trkpt lat="42.238638" lon="2.467594">
        <ele>537.430</ele>
        <time>2021-05-27T16:58:08Z</time>
      </trkpt>
      <trkpt lat="42.238641" lon="2.467628">
        <ele>537.614</ele>
        <time>2021-05-27T16:58:10Z</time>
      </trkpt>
      <trkpt lat="42.238649" lon="2.467659">
        <ele>538.154</ele>
        <time>2021-05-27T16:58:12Z</time>
      </trkpt>
      <trkpt lat="42.238658" lon="2.467686">
        <ele>538.509</ele>
        <time>2021-05-27T16:58:14Z</time>
      </trkpt>
      <trkpt lat="42.238667" lon="2.467708">
        <ele>539.008</ele>
        <time>2021-05-27T16:58:16Z</time>
      </trkpt>
      <trkpt lat="42.238678" lon="2.467731">
        <ele>539.538</ele>
        <time>2021-05-27T16:58:18Z</time>
      </trkpt>
      <trkpt lat="42.238691" lon="2.467752">
        <ele>540.145</ele>
        <time>2021-05-27T16:58:20Z</time>
      </trkpt>
      <trkpt lat="42.238701" lon="2.467772">
        <ele>540.583</ele>
        <time>2021-05-27T16:58:22Z</time>
      </trkpt>
      <trkpt lat="42.238709" lon="2.467796">
        <ele>540.753</ele>
        <time>2021-05-27T16:58:24Z</time>
      </trkpt>
      <trkpt lat="42.238720" lon="2.467827">
        <ele>540.720</ele>
        <time>2021-05-27T16:58:27Z</time>
      </trkpt>
      <trkpt lat="42.238732" lon="2.467846">
        <ele>540.985</ele>
        <time>2021-05-27T16:58:29Z</time>
      </trkpt>
      <trkpt lat="42.238747" lon="2.467870">
        <ele>541.218</ele>
        <time>2021-05-27T16:58:31Z</time>
      </trkpt>
      <trkpt lat="42.238765" lon="2.467893">
        <ele>541.614</ele>
        <time>2021-05-27T16:58:33Z</time>
      </trkpt>
      <trkpt lat="42.238781" lon="2.467913">
        <ele>542.046</ele>
        <time>2021-05-27T16:58:35Z</time>
      </trkpt>
      <trkpt lat="42.238795" lon="2.467931">
        <ele>542.388</ele>
        <time>2021-05-27T16:58:37Z</time>
      </trkpt>
      <trkpt lat="42.238810" lon="2.467951">
        <ele>542.616</ele>
        <time>2021-05-27T16:58:39Z</time>
      </trkpt>
      <trkpt lat="42.238825" lon="2.467968">
        <ele>542.908</ele>
        <time>2021-05-27T16:58:41Z</time>
      </trkpt>
      <trkpt lat="42.238844" lon="2.467990">
        <ele>543.341</ele>
        <time>2021-05-27T16:58:43Z</time>
      </trkpt>
      <trkpt lat="42.238862" lon="2.468013">
        <ele>543.638</ele>
        <time>2021-05-27T16:58:45Z</time>
      </trkpt>
      <trkpt lat="42.238882" lon="2.468035">
        <ele>544.076</ele>
        <time>2021-05-27T16:58:47Z</time>
      </trkpt>
      <trkpt lat="42.238902" lon="2.468054">
        <ele>544.616</ele>
        <time>2021-05-27T16:58:49Z</time>
      </trkpt>
      <trkpt lat="42.238922" lon="2.468076">
        <ele>545.123</ele>
        <time>2021-05-27T16:58:51Z</time>
      </trkpt>
      <trkpt lat="42.238943" lon="2.468099">
        <ele>545.628</ele>
        <time>2021-05-27T16:58:53Z</time>
      </trkpt>
      <trkpt lat="42.238964" lon="2.468114">
        <ele>546.361</ele>
        <time>2021-05-27T16:58:55Z</time>
      </trkpt>
      <trkpt lat="42.238983" lon="2.468130">
        <ele>546.987</ele>
        <time>2021-05-27T16:58:57Z</time>
      </trkpt>
      <trkpt lat="42.239001" lon="2.468153">
        <ele>547.375</ele>
        <time>2021-05-27T16:58:59Z</time>
      </trkpt>
      <trkpt lat="42.239014" lon="2.468184">
        <ele>547.328</ele>
        <time>2021-05-27T16:59:01Z</time>
      </trkpt>
      <trkpt lat="42.239026" lon="2.468210">
        <ele>547.420</ele>
        <time>2021-05-27T16:59:03Z</time>
      </trkpt>
      <trkpt lat="42.239041" lon="2.468239">
        <ele>547.508</ele>
        <time>2021-05-27T16:59:05Z</time>
      </trkpt>
      <trkpt lat="42.239056" lon="2.468265">
        <ele>547.834</ele>
        <time>2021-05-27T16:59:07Z</time>
      </trkpt>
      <trkpt lat="42.239069" lon="2.468291">
        <ele>547.941</ele>
        <time>2021-05-27T16:59:09Z</time>
      </trkpt>
      <trkpt lat="42.239081" lon="2.468317">
        <ele>548.069</ele>
        <time>2021-05-27T16:59:11Z</time>
      </trkpt>
      <trkpt lat="42.239093" lon="2.468345">
        <ele>548.039</ele>
        <time>2021-05-27T16:59:13Z</time>
      </trkpt>
      <trkpt lat="42.239103" lon="2.468376">
        <ele>547.736</ele>
        <time>2021-05-27T16:59:15Z</time>
      </trkpt>
      <trkpt lat="42.239110" lon="2.468406">
        <ele>547.381</ele>
        <time>2021-05-27T16:59:17Z</time>
      </trkpt>
      <trkpt lat="42.239121" lon="2.468435">
        <ele>547.114</ele>
        <time>2021-05-27T16:59:19Z</time>
      </trkpt>
      <trkpt lat="42.239134" lon="2.468456">
        <ele>547.240</ele>
        <time>2021-05-27T16:59:21Z</time>
      </trkpt>
      <trkpt lat="42.239145" lon="2.468476">
        <ele>547.376</ele>
        <time>2021-05-27T16:59:23Z</time>
      </trkpt>
      <trkpt lat="42.239158" lon="2.468494">
        <ele>547.590</ele>
        <time>2021-05-27T16:59:25Z</time>
      </trkpt>
      <trkpt lat="42.239173" lon="2.468514">
        <ele>547.819</ele>
        <time>2021-05-27T16:59:27Z</time>
      </trkpt>
      <trkpt lat="42.239189" lon="2.468535">
        <ele>548.208</ele>
        <time>2021-05-27T16:59:29Z</time>
      </trkpt>
      <trkpt lat="42.239205" lon="2.468551">
        <ele>548.844</ele>
        <time>2021-05-27T16:59:31Z</time>
      </trkpt>
      <trkpt lat="42.239223" lon="2.468564">
        <ele>549.641</ele>
        <time>2021-05-27T16:59:33Z</time>
      </trkpt>
      <trkpt lat="42.239241" lon="2.468586">
        <ele>550.179</ele>
        <time>2021-05-27T16:59:35Z</time>
      </trkpt>
      <trkpt lat="42.239259" lon="2.468610">
        <ele>550.759</ele>
        <time>2021-05-27T16:59:37Z</time>
      </trkpt>
      <trkpt lat="42.239269" lon="2.468639">
        <ele>551.036</ele>
        <time>2021-05-27T16:59:39Z</time>
      </trkpt>
      <trkpt lat="42.239277" lon="2.468664">
        <ele>551.111</ele>
        <time>2021-05-27T16:59:41Z</time>
      </trkpt>
      <trkpt lat="42.239285" lon="2.468685">
        <ele>551.464</ele>
        <time>2021-05-27T16:59:43Z</time>
      </trkpt>
      <trkpt lat="42.239293" lon="2.468713">
        <ele>551.520</ele>
        <time>2021-05-27T16:59:45Z</time>
      </trkpt>
      <trkpt lat="42.239303" lon="2.468745">
        <ele>551.796</ele>
        <time>2021-05-27T16:59:48Z</time>
      </trkpt>
      <trkpt lat="42.239304" lon="2.468772">
        <ele>551.431</ele>
        <time>2021-05-27T16:59:50Z</time>
      </trkpt>
      <trkpt lat="42.239306" lon="2.468806">
        <ele>551.124</ele>
        <time>2021-05-27T16:59:52Z</time>
      </trkpt>
      <trkpt lat="42.239308" lon="2.468834">
        <ele>550.808</ele>
        <time>2021-05-27T16:59:54Z</time>
      </trkpt>
      <trkpt lat="42.239312" lon="2.468858">
        <ele>550.766</ele>
        <time>2021-05-27T16:59:56Z</time>
      </trkpt>
      <trkpt lat="42.239323" lon="2.468885">
        <ele>550.953</ele>
        <time>2021-05-27T16:59:58Z</time>
      </trkpt>
      <trkpt lat="42.239332" lon="2.468916">
        <ele>551.431</ele>
        <time>2021-05-27T17:00:01Z</time>
      </trkpt>
      <trkpt lat="42.239343" lon="2.468945">
        <ele>552.091</ele>
        <time>2021-05-27T17:00:02Z</time>
      </trkpt>
      <trkpt lat="42.239360" lon="2.468967">
        <ele>552.838</ele>
        <time>2021-05-27T17:00:04Z</time>
      </trkpt>
      <trkpt lat="42.239383" lon="2.468978">
        <ele>553.983</ele>
        <time>2021-05-27T17:00:07Z</time>
      </trkpt>
      <trkpt lat="42.239405" lon="2.468961">
        <ele>554.966</ele>
        <time>2021-05-27T17:00:09Z</time>
      </trkpt>
      <trkpt lat="42.239415" lon="2.468931">
        <ele>555.492</ele>
        <time>2021-05-27T17:00:11Z</time>
      </trkpt>
      <trkpt lat="42.239423" lon="2.468905">
        <ele>555.917</ele>
        <time>2021-05-27T17:00:13Z</time>
      </trkpt>
      <trkpt lat="42.239423" lon="2.468871">
        <ele>556.287</ele>
        <time>2021-05-27T17:00:15Z</time>
      </trkpt>
      <trkpt lat="42.239420" lon="2.468831">
        <ele>556.815</ele>
        <time>2021-05-27T17:00:17Z</time>
      </trkpt>
      <trkpt lat="42.239415" lon="2.468796">
        <ele>557.108</ele>
        <time>2021-05-27T17:00:20Z</time>
      </trkpt>
      <trkpt lat="42.239417" lon="2.468764">
        <ele>557.758</ele>
        <time>2021-05-27T17:00:21Z</time>
      </trkpt>
      <trkpt lat="42.239417" lon="2.468736">
        <ele>558.275</ele>
        <time>2021-05-27T17:00:23Z</time>
      </trkpt>
      <trkpt lat="42.239413" lon="2.468706">
        <ele>558.593</ele>
        <time>2021-05-27T17:00:25Z</time>
      </trkpt>
      <trkpt lat="42.239415" lon="2.468680">
        <ele>559.093</ele>
        <time>2021-05-27T17:00:28Z</time>
      </trkpt>
      <trkpt lat="42.239410" lon="2.468652">
        <ele>559.240</ele>
        <time>2021-05-27T17:00:30Z</time>
      </trkpt>
      <trkpt lat="42.239398" lon="2.468621">
        <ele>559.095</ele>
        <time>2021-05-27T17:00:32Z</time>
      </trkpt>
      <trkpt lat="42.239392" lon="2.468592">
        <ele>559.288</ele>
        <time>2021-05-27T17:00:34Z</time>
      </trkpt>
      <trkpt lat="42.239382" lon="2.468560">
        <ele>559.264</ele>
        <time>2021-05-27T17:00:36Z</time>
      </trkpt>
      <trkpt lat="42.239383" lon="2.468531">
        <ele>559.896</ele>
        <time>2021-05-27T17:00:38Z</time>
      </trkpt>
      <trkpt lat="42.239374" lon="2.468496">
        <ele>560.031</ele>
        <time>2021-05-27T17:00:40Z</time>
      </trkpt>
      <trkpt lat="42.239364" lon="2.468466">
        <ele>560.024</ele>
        <time>2021-05-27T17:00:42Z</time>
      </trkpt>
      <trkpt lat="42.239355" lon="2.468435">
        <ele>560.108</ele>
        <time>2021-05-27T17:00:44Z</time>
      </trkpt>
      <trkpt lat="42.239350" lon="2.468403">
        <ele>560.546</ele>
        <time>2021-05-27T17:00:46Z</time>
      </trkpt>
      <trkpt lat="42.239346" lon="2.468367">
        <ele>561.023</ele>
        <time>2021-05-27T17:00:48Z</time>
      </trkpt>
      <trkpt lat="42.239346" lon="2.468330">
        <ele>561.741</ele>
        <time>2021-05-27T17:00:50Z</time>
      </trkpt>
      <trkpt lat="42.239339" lon="2.468297">
        <ele>561.771</ele>
        <time>2021-05-27T17:00:52Z</time>
      </trkpt>
      <trkpt lat="42.239336" lon="2.468267">
        <ele>561.918</ele>
        <time>2021-05-27T17:00:54Z</time>
      </trkpt>
      <trkpt lat="42.239333" lon="2.468240">
        <ele>562.173</ele>
        <time>2021-05-27T17:00:56Z</time>
      </trkpt>
      <trkpt lat="42.239331" lon="2.468214">
        <ele>562.316</ele>
        <time>2021-05-27T17:00:58Z</time>
      </trkpt>
      <trkpt lat="42.239325" lon="2.468187">
        <ele>562.382</ele>
        <time>2021-05-27T17:01:00Z</time>
      </trkpt>
      <trkpt lat="42.239323" lon="2.468150">
        <ele>562.631</ele>
        <time>2021-05-27T17:01:02Z</time>
      </trkpt>
      <trkpt lat="42.239313" lon="2.468103">
        <ele>562.761</ele>
        <time>2021-05-27T17:01:04Z</time>
      </trkpt>
      <trkpt lat="42.239309" lon="2.468063">
        <ele>563.107</ele>
        <time>2021-05-27T17:01:06Z</time>
      </trkpt>
      <trkpt lat="42.239305" lon="2.468026">
        <ele>563.008</ele>
        <time>2021-05-27T17:01:08Z</time>
      </trkpt>
      <trkpt lat="42.239299" lon="2.467980">
        <ele>562.720</ele>
        <time>2021-05-27T17:01:10Z</time>
      </trkpt>
      <trkpt lat="42.239299" lon="2.467952">
        <ele>562.737</ele>
        <time>2021-05-27T17:01:11Z</time>
      </trkpt>
      <trkpt lat="42.239302" lon="2.467905">
        <ele>562.965</ele>
        <time>2021-05-27T17:01:13Z</time>
      </trkpt>
      <trkpt lat="42.239309" lon="2.467878">
        <ele>563.155</ele>
        <time>2021-05-27T17:01:14Z</time>
      </trkpt>
      <trkpt lat="42.239312" lon="2.467852">
        <ele>563.212</ele>
        <time>2021-05-27T17:01:15Z</time>
      </trkpt>
      <trkpt lat="42.239316" lon="2.467804">
        <ele>563.427</ele>
        <time>2021-05-27T17:01:17Z</time>
      </trkpt>
      <trkpt lat="42.239322" lon="2.467779">
        <ele>563.620</ele>
        <time>2021-05-27T17:01:18Z</time>
      </trkpt>
      <trkpt lat="42.239334" lon="2.467758">
        <ele>564.046</ele>
        <time>2021-05-27T17:01:19Z</time>
      </trkpt>
      <trkpt lat="42.239346" lon="2.467732">
        <ele>564.564</ele>
        <time>2021-05-27T17:01:20Z</time>
      </trkpt>
      <trkpt lat="42.239356" lon="2.467708">
        <ele>564.806</ele>
        <time>2021-05-27T17:01:21Z</time>
      </trkpt>
      <trkpt lat="42.239367" lon="2.467683">
        <ele>565.216</ele>
        <time>2021-05-27T17:01:22Z</time>
      </trkpt>
      <trkpt lat="42.239375" lon="2.467656">
        <ele>565.508</ele>
        <time>2021-05-27T17:01:23Z</time>
      </trkpt>
      <trkpt lat="42.239382" lon="2.467629">
        <ele>565.853</ele>
        <time>2021-05-27T17:01:24Z</time>
      </trkpt>
      <trkpt lat="42.239388" lon="2.467605">
        <ele>566.050</ele>
        <time>2021-05-27T17:01:25Z</time>
      </trkpt>
      <trkpt lat="42.239394" lon="2.467582">
        <ele>566.228</ele>
        <time>2021-05-27T17:01:26Z</time>
      </trkpt>
      <trkpt lat="42.239404" lon="2.467547">
        <ele>566.588</ele>
        <time>2021-05-27T17:01:28Z</time>
      </trkpt>
      <trkpt lat="42.239418" lon="2.467518">
        <ele>567.045</ele>
        <time>2021-05-27T17:01:30Z</time>
      </trkpt>
      <trkpt lat="42.239459" lon="2.467444">
        <ele>568.230</ele>
        <time>2021-05-27T17:01:36Z</time>
      </trkpt>
      <trkpt lat="42.239478" lon="2.467382">
        <ele>568.473</ele>
        <time>2021-05-27T17:01:39Z</time>
      </trkpt>
      <trkpt lat="42.239497" lon="2.467357">
        <ele>569.039</ele>
        <time>2021-05-27T17:01:41Z</time>
      </trkpt>
      <trkpt lat="42.239510" lon="2.467334">
        <ele>569.314</ele>
        <time>2021-05-27T17:01:43Z</time>
      </trkpt>
      <trkpt lat="42.239533" lon="2.467308">
        <ele>569.954</ele>
        <time>2021-05-27T17:01:45Z</time>
      </trkpt>
      <trkpt lat="42.239551" lon="2.467281">
        <ele>570.309</ele>
        <time>2021-05-27T17:01:47Z</time>
      </trkpt>
      <trkpt lat="42.239563" lon="2.467249">
        <ele>570.508</ele>
        <time>2021-05-27T17:01:49Z</time>
      </trkpt>
      <trkpt lat="42.239576" lon="2.467219">
        <ele>570.768</ele>
        <time>2021-05-27T17:01:51Z</time>
      </trkpt>
      <trkpt lat="42.239588" lon="2.467187">
        <ele>570.575</ele>
        <time>2021-05-27T17:01:53Z</time>
      </trkpt>
      <trkpt lat="42.239603" lon="2.467149">
        <ele>570.413</ele>
        <time>2021-05-27T17:01:55Z</time>
      </trkpt>
      <trkpt lat="42.239617" lon="2.467108">
        <ele>570.343</ele>
        <time>2021-05-27T17:01:57Z</time>
      </trkpt>
      <trkpt lat="42.239633" lon="2.467068">
        <ele>570.230</ele>
        <time>2021-05-27T17:01:59Z</time>
      </trkpt>
      <trkpt lat="42.239656" lon="2.467031">
        <ele>570.575</ele>
        <time>2021-05-27T17:02:01Z</time>
      </trkpt>
      <trkpt lat="42.239673" lon="2.467011">
        <ele>570.978</ele>
        <time>2021-05-27T17:02:02Z</time>
      </trkpt>
      <trkpt lat="42.239684" lon="2.466987">
        <ele>571.094</ele>
        <time>2021-05-27T17:02:03Z</time>
      </trkpt>
      <trkpt lat="42.239699" lon="2.466965">
        <ele>571.383</ele>
        <time>2021-05-27T17:02:04Z</time>
      </trkpt>
      <trkpt lat="42.239708" lon="2.466943">
        <ele>571.325</ele>
        <time>2021-05-27T17:02:05Z</time>
      </trkpt>
      <trkpt lat="42.239749" lon="2.466850">
        <ele>570.817</ele>
        <time>2021-05-27T17:02:10Z</time>
      </trkpt>
      <trkpt lat="42.239773" lon="2.466806">
        <ele>570.808</ele>
        <time>2021-05-27T17:02:12Z</time>
      </trkpt>
      <trkpt lat="42.239829" lon="2.466735">
        <ele>571.415</ele>
        <time>2021-05-27T17:02:16Z</time>
      </trkpt>
      <trkpt lat="42.239846" lon="2.466722">
        <ele>571.822</ele>
        <time>2021-05-27T17:02:17Z</time>
      </trkpt>
      <trkpt lat="42.239899" lon="2.466678">
        <ele>572.970</ele>
        <time>2021-05-27T17:02:20Z</time>
      </trkpt>
      <trkpt lat="42.239913" lon="2.466659">
        <ele>573.070</ele>
        <time>2021-05-27T17:02:21Z</time>
      </trkpt>
      <trkpt lat="42.239926" lon="2.466642">
        <ele>573.157</ele>
        <time>2021-05-27T17:02:22Z</time>
      </trkpt>
      <trkpt lat="42.239947" lon="2.466590">
        <ele>572.592</ele>
        <time>2021-05-27T17:02:26Z</time>
      </trkpt>
      <trkpt lat="42.239965" lon="2.466563">
        <ele>572.525</ele>
        <time>2021-05-27T17:02:28Z</time>
      </trkpt>
      <trkpt lat="42.239995" lon="2.466545">
        <ele>573.321</ele>
        <time>2021-05-27T17:02:30Z</time>
      </trkpt>
      <trkpt lat="42.240079" lon="2.466487">
        <ele>574.454</ele>
        <time>2021-05-27T17:02:37Z</time>
      </trkpt>
      <trkpt lat="42.240157" lon="2.466424">
        <ele>575.156</ele>
        <time>2021-05-27T17:02:43Z</time>
      </trkpt>
      <trkpt lat="42.240176" lon="2.466407">
        <ele>575.211</ele>
        <time>2021-05-27T17:02:45Z</time>
      </trkpt>
      <trkpt lat="42.240252" lon="2.466317">
        <ele>576.108</ele>
        <time>2021-05-27T17:02:54Z</time>
      </trkpt>
      <trkpt lat="42.240334" lon="2.466238">
        <ele>577.872</ele>
        <time>2021-05-27T17:03:01Z</time>
      </trkpt>
      <trkpt lat="42.240395" lon="2.466205">
        <ele>579.459</ele>
        <time>2021-05-27T17:03:08Z</time>
      </trkpt>
      <trkpt lat="42.240420" lon="2.466216">
        <ele>580.557</ele>
        <time>2021-05-27T17:03:10Z</time>
      </trkpt>
      <trkpt lat="42.240436" lon="2.466236">
        <ele>581.497</ele>
        <time>2021-05-27T17:03:12Z</time>
      </trkpt>
      <trkpt lat="42.240446" lon="2.466286">
        <ele>582.714</ele>
        <time>2021-05-27T17:03:16Z</time>
      </trkpt>
      <trkpt lat="42.240440" lon="2.466318">
        <ele>583.189</ele>
        <time>2021-05-27T17:03:19Z</time>
      </trkpt>
      <trkpt lat="42.240428" lon="2.466341">
        <ele>583.182</ele>
        <time>2021-05-27T17:03:21Z</time>
      </trkpt>
      <trkpt lat="42.240413" lon="2.466362">
        <ele>582.948</ele>
        <time>2021-05-27T17:03:23Z</time>
      </trkpt>
      <trkpt lat="42.240402" lon="2.466395">
        <ele>583.192</ele>
        <time>2021-05-27T17:03:25Z</time>
      </trkpt>
      <trkpt lat="42.240392" lon="2.466426">
        <ele>583.573</ele>
        <time>2021-05-27T17:03:27Z</time>
      </trkpt>
      <trkpt lat="42.240382" lon="2.466454">
        <ele>583.920</ele>
        <time>2021-05-27T17:03:29Z</time>
      </trkpt>
      <trkpt lat="42.240372" lon="2.466480">
        <ele>584.208</ele>
        <time>2021-05-27T17:03:31Z</time>
      </trkpt>
      <trkpt lat="42.240363" lon="2.466505">
        <ele>584.616</ele>
        <time>2021-05-27T17:03:33Z</time>
      </trkpt>
      <trkpt lat="42.240352" lon="2.466531">
        <ele>584.943</ele>
        <time>2021-05-27T17:03:35Z</time>
      </trkpt>
      <trkpt lat="42.240341" lon="2.466551">
        <ele>585.031</ele>
        <time>2021-05-27T17:03:37Z</time>
      </trkpt>
      <trkpt lat="42.240331" lon="2.466573">
        <ele>585.331</ele>
        <time>2021-05-27T17:03:39Z</time>
      </trkpt>
      <trkpt lat="42.240315" lon="2.466596">
        <ele>585.368</ele>
        <time>2021-05-27T17:03:41Z</time>
      </trkpt>
      <trkpt lat="42.240302" lon="2.466615">
        <ele>585.413</ele>
        <time>2021-05-27T17:03:43Z</time>
      </trkpt>
      <trkpt lat="42.240286" lon="2.466638">
        <ele>585.536</ele>
        <time>2021-05-27T17:03:45Z</time>
      </trkpt>
      <trkpt lat="42.240269" lon="2.466658">
        <ele>585.562</ele>
        <time>2021-05-27T17:03:47Z</time>
      </trkpt>
      <trkpt lat="42.240251" lon="2.466681">
        <ele>585.615</ele>
        <time>2021-05-27T17:03:49Z</time>
      </trkpt>
      <trkpt lat="42.240228" lon="2.466701">
        <ele>585.665</ele>
        <time>2021-05-27T17:03:51Z</time>
      </trkpt>
      <trkpt lat="42.240207" lon="2.466719">
        <ele>585.511</ele>
        <time>2021-05-27T17:03:53Z</time>
      </trkpt>
      <trkpt lat="42.240176" lon="2.466745">
        <ele>585.308</ele>
        <time>2021-05-27T17:03:56Z</time>
      </trkpt>
      <trkpt lat="42.240158" lon="2.466765">
        <ele>585.438</ele>
        <time>2021-05-27T17:03:58Z</time>
      </trkpt>
      <trkpt lat="42.240139" lon="2.466780">
        <ele>585.235</ele>
        <time>2021-05-27T17:04:00Z</time>
      </trkpt>
      <trkpt lat="42.240123" lon="2.466804">
        <ele>585.453</ele>
        <time>2021-05-27T17:04:02Z</time>
      </trkpt>
      <trkpt lat="42.240116" lon="2.466835">
        <ele>586.113</ele>
        <time>2021-05-27T17:04:04Z</time>
      </trkpt>
      <trkpt lat="42.240113" lon="2.466870">
        <ele>587.130</ele>
        <time>2021-05-27T17:04:06Z</time>
      </trkpt>
      <trkpt lat="42.240111" lon="2.466899">
        <ele>588.075</ele>
        <time>2021-05-27T17:04:08Z</time>
      </trkpt>
      <trkpt lat="42.240103" lon="2.466925">
        <ele>588.588</ele>
        <time>2021-05-27T17:04:10Z</time>
      </trkpt>
      <trkpt lat="42.240094" lon="2.466956">
        <ele>588.934</ele>
        <time>2021-05-27T17:04:12Z</time>
      </trkpt>
      <trkpt lat="42.240086" lon="2.466983">
        <ele>588.955</ele>
        <time>2021-05-27T17:04:14Z</time>
      </trkpt>
      <trkpt lat="42.240076" lon="2.467015">
        <ele>588.807</ele>
        <time>2021-05-27T17:04:16Z</time>
      </trkpt>
      <trkpt lat="42.240067" lon="2.467040">
        <ele>588.817</ele>
        <time>2021-05-27T17:04:18Z</time>
      </trkpt>
      <trkpt lat="42.240056" lon="2.467072">
        <ele>588.708</ele>
        <time>2021-05-27T17:04:20Z</time>
      </trkpt>
      <trkpt lat="42.240050" lon="2.467106">
        <ele>588.892</ele>
        <time>2021-05-27T17:04:22Z</time>
      </trkpt>
      <trkpt lat="42.240046" lon="2.467146">
        <ele>589.179</ele>
        <time>2021-05-27T17:04:24Z</time>
      </trkpt>
      <trkpt lat="42.240047" lon="2.467181">
        <ele>589.647</ele>
        <time>2021-05-27T17:04:26Z</time>
      </trkpt>
      <trkpt lat="42.240047" lon="2.467215">
        <ele>589.947</ele>
        <time>2021-05-27T17:04:28Z</time>
      </trkpt>
      <trkpt lat="42.240046" lon="2.467247">
        <ele>590.224</ele>
        <time>2021-05-27T17:04:30Z</time>
      </trkpt>
      <trkpt lat="42.240043" lon="2.467287">
        <ele>590.419</ele>
        <time>2021-05-27T17:04:32Z</time>
      </trkpt>
      <trkpt lat="42.240040" lon="2.467325">
        <ele>590.532</ele>
        <time>2021-05-27T17:04:34Z</time>
      </trkpt>
      <trkpt lat="42.240040" lon="2.467361">
        <ele>590.878</ele>
        <time>2021-05-27T17:04:36Z</time>
      </trkpt>
      <trkpt lat="42.240041" lon="2.467394">
        <ele>591.193</ele>
        <time>2021-05-27T17:04:38Z</time>
      </trkpt>
      <trkpt lat="42.240043" lon="2.467422">
        <ele>591.465</ele>
        <time>2021-05-27T17:04:40Z</time>
      </trkpt>
      <trkpt lat="42.240044" lon="2.467451">
        <ele>591.721</ele>
        <time>2021-05-27T17:04:42Z</time>
      </trkpt>
      <trkpt lat="42.240047" lon="2.467485">
        <ele>592.108</ele>
        <time>2021-05-27T17:04:44Z</time>
      </trkpt>
      <trkpt lat="42.240050" lon="2.467518">
        <ele>592.336</ele>
        <time>2021-05-27T17:04:46Z</time>
      </trkpt>
      <trkpt lat="42.240050" lon="2.467550">
        <ele>592.363</ele>
        <time>2021-05-27T17:04:48Z</time>
      </trkpt>
      <trkpt lat="42.240054" lon="2.467579">
        <ele>592.411</ele>
        <time>2021-05-27T17:04:50Z</time>
      </trkpt>
      <trkpt lat="42.240056" lon="2.467618">
        <ele>592.511</ele>
        <time>2021-05-27T17:04:52Z</time>
      </trkpt>
      <trkpt lat="42.240056" lon="2.467645">
        <ele>592.458</ele>
        <time>2021-05-27T17:04:53Z</time>
      </trkpt>
      <trkpt lat="42.240058" lon="2.467672">
        <ele>592.583</ele>
        <time>2021-05-27T17:04:54Z</time>
      </trkpt>
      <trkpt lat="42.240062" lon="2.467698">
        <ele>592.656</ele>
        <time>2021-05-27T17:04:55Z</time>
      </trkpt>
      <trkpt lat="42.240065" lon="2.467726">
        <ele>592.792</ele>
        <time>2021-05-27T17:04:56Z</time>
      </trkpt>
      <trkpt lat="42.240071" lon="2.467751">
        <ele>592.924</ele>
        <time>2021-05-27T17:04:57Z</time>
      </trkpt>
      <trkpt lat="42.240088" lon="2.467792">
        <ele>593.504</ele>
        <time>2021-05-27T17:04:59Z</time>
      </trkpt>
      <trkpt lat="42.240097" lon="2.467814">
        <ele>593.814</ele>
        <time>2021-05-27T17:05:00Z</time>
      </trkpt>
      <trkpt lat="42.240107" lon="2.467839">
        <ele>594.208</ele>
        <time>2021-05-27T17:05:01Z</time>
      </trkpt>
      <trkpt lat="42.240115" lon="2.467864">
        <ele>594.589</ele>
        <time>2021-05-27T17:05:02Z</time>
      </trkpt>
      <trkpt lat="42.240122" lon="2.467888">
        <ele>594.746</ele>
        <time>2021-05-27T17:05:03Z</time>
      </trkpt>
      <trkpt lat="42.240127" lon="2.467913">
        <ele>594.854</ele>
        <time>2021-05-27T17:05:04Z</time>
      </trkpt>
      <trkpt lat="42.240134" lon="2.467960">
        <ele>595.084</ele>
        <time>2021-05-27T17:05:06Z</time>
      </trkpt>
      <trkpt lat="42.240137" lon="2.467986">
        <ele>595.151</ele>
        <time>2021-05-27T17:05:07Z</time>
      </trkpt>
      <trkpt lat="42.240140" lon="2.468034">
        <ele>595.146</ele>
        <time>2021-05-27T17:05:09Z</time>
      </trkpt>
      <trkpt lat="42.240141" lon="2.468074">
        <ele>595.139</ele>
        <time>2021-05-27T17:05:11Z</time>
      </trkpt>
      <trkpt lat="42.240149" lon="2.468120">
        <ele>595.345</ele>
        <time>2021-05-27T17:05:13Z</time>
      </trkpt>
      <trkpt lat="42.240158" lon="2.468158">
        <ele>595.558</ele>
        <time>2021-05-27T17:05:15Z</time>
      </trkpt>
      <trkpt lat="42.240170" lon="2.468185">
        <ele>595.952</ele>
        <time>2021-05-27T17:05:17Z</time>
      </trkpt>
      <trkpt lat="42.240189" lon="2.468212">
        <ele>596.417</ele>
        <time>2021-05-27T17:05:19Z</time>
      </trkpt>
      <trkpt lat="42.240211" lon="2.468236">
        <ele>597.108</ele>
        <time>2021-05-27T17:05:21Z</time>
      </trkpt>
      <trkpt lat="42.240226" lon="2.468259">
        <ele>597.562</ele>
        <time>2021-05-27T17:05:23Z</time>
      </trkpt>
      <trkpt lat="42.240243" lon="2.468281">
        <ele>598.089</ele>
        <time>2021-05-27T17:05:25Z</time>
      </trkpt>
      <trkpt lat="42.240264" lon="2.468299">
        <ele>598.697</ele>
        <time>2021-05-27T17:05:27Z</time>
      </trkpt>
      <trkpt lat="42.240279" lon="2.468317">
        <ele>599.047</ele>
        <time>2021-05-27T17:05:29Z</time>
      </trkpt>
      <trkpt lat="42.240302" lon="2.468325">
        <ele>599.824</ele>
        <time>2021-05-27T17:05:31Z</time>
      </trkpt>
      <trkpt lat="42.240322" lon="2.468333">
        <ele>600.499</ele>
        <time>2021-05-27T17:05:33Z</time>
      </trkpt>
      <trkpt lat="42.240344" lon="2.468333">
        <ele>601.182</ele>
        <time>2021-05-27T17:05:35Z</time>
      </trkpt>
      <trkpt lat="42.240363" lon="2.468330">
        <ele>601.828</ele>
        <time>2021-05-27T17:05:37Z</time>
      </trkpt>
      <trkpt lat="42.240381" lon="2.468327">
        <ele>602.391</ele>
        <time>2021-05-27T17:05:39Z</time>
      </trkpt>
      <trkpt lat="42.240399" lon="2.468311">
        <ele>602.981</ele>
        <time>2021-05-27T17:05:42Z</time>
      </trkpt>
      <trkpt lat="42.240422" lon="2.468297">
        <ele>603.719</ele>
        <time>2021-05-27T17:05:44Z</time>
      </trkpt>
      <trkpt lat="42.240441" lon="2.468280">
        <ele>604.308</ele>
        <time>2021-05-27T17:05:46Z</time>
      </trkpt>
      <trkpt lat="42.240460" lon="2.468252">
        <ele>604.956</ele>
        <time>2021-05-27T17:05:48Z</time>
      </trkpt>
      <trkpt lat="42.240482" lon="2.468220">
        <ele>605.663</ele>
        <time>2021-05-27T17:05:50Z</time>
      </trkpt>
      <trkpt lat="42.240499" lon="2.468192">
        <ele>606.211</ele>
        <time>2021-05-27T17:05:52Z</time>
      </trkpt>
      <trkpt lat="42.240542" lon="2.468139">
        <ele>607.681</ele>
        <time>2021-05-27T17:05:56Z</time>
      </trkpt>
      <trkpt lat="42.240551" lon="2.468113">
        <ele>607.988</ele>
        <time>2021-05-27T17:05:58Z</time>
      </trkpt>
      <trkpt lat="42.240559" lon="2.468084">
        <ele>608.163</ele>
        <time>2021-05-27T17:06:00Z</time>
      </trkpt>
      <trkpt lat="42.240563" lon="2.468057">
        <ele>608.386</ele>
        <time>2021-05-27T17:06:02Z</time>
      </trkpt>
      <trkpt lat="42.240564" lon="2.467988">
        <ele>609.112</ele>
        <time>2021-05-27T17:06:07Z</time>
      </trkpt>
      <trkpt lat="42.240556" lon="2.467960">
        <ele>609.014</ele>
        <time>2021-05-27T17:06:09Z</time>
      </trkpt>
      <trkpt lat="42.240543" lon="2.467930">
        <ele>608.954</ele>
        <time>2021-05-27T17:06:11Z</time>
      </trkpt>
      <trkpt lat="42.240534" lon="2.467902">
        <ele>608.909</ele>
        <time>2021-05-27T17:06:13Z</time>
      </trkpt>
      <trkpt lat="42.240526" lon="2.467873">
        <ele>608.908</ele>
        <time>2021-05-27T17:06:15Z</time>
      </trkpt>
      <trkpt lat="42.240521" lon="2.467843">
        <ele>609.128</ele>
        <time>2021-05-27T17:06:17Z</time>
      </trkpt>
      <trkpt lat="42.240515" lon="2.467807">
        <ele>609.295</ele>
        <time>2021-05-27T17:06:20Z</time>
      </trkpt>
      <trkpt lat="42.240510" lon="2.467780">
        <ele>609.393</ele>
        <time>2021-05-27T17:06:22Z</time>
      </trkpt>
      <trkpt lat="42.240507" lon="2.467752">
        <ele>609.433</ele>
        <time>2021-05-27T17:06:24Z</time>
      </trkpt>
      <trkpt lat="42.240507" lon="2.467724">
        <ele>609.620</ele>
        <time>2021-05-27T17:06:26Z</time>
      </trkpt>
      <trkpt lat="42.240513" lon="2.467698">
        <ele>610.085</ele>
        <time>2021-05-27T17:06:28Z</time>
      </trkpt>
      <trkpt lat="42.240511" lon="2.467672">
        <ele>610.268</ele>
        <time>2021-05-27T17:06:30Z</time>
      </trkpt>
      <trkpt lat="42.240514" lon="2.467644">
        <ele>610.574</ele>
        <time>2021-05-27T17:06:32Z</time>
      </trkpt>
      <trkpt lat="42.240514" lon="2.467615">
        <ele>610.727</ele>
        <time>2021-05-27T17:06:34Z</time>
      </trkpt>
      <trkpt lat="42.240513" lon="2.467590">
        <ele>610.868</ele>
        <time>2021-05-27T17:06:36Z</time>
      </trkpt>
      <trkpt lat="42.240510" lon="2.467560">
        <ele>610.914</ele>
        <time>2021-05-27T17:06:39Z</time>
      </trkpt>
      <trkpt lat="42.240505" lon="2.467537">
        <ele>610.908</ele>
        <time>2021-05-27T17:06:41Z</time>
      </trkpt>
      <trkpt lat="42.240515" lon="2.467511">
        <ele>611.599</ele>
        <time>2021-05-27T17:06:43Z</time>
      </trkpt>
      <trkpt lat="42.240531" lon="2.467488">
        <ele>612.126</ele>
        <time>2021-05-27T17:06:45Z</time>
      </trkpt>
      <trkpt lat="42.240551" lon="2.467463">
        <ele>612.734</ele>
        <time>2021-05-27T17:06:47Z</time>
      </trkpt>
      <trkpt lat="42.240573" lon="2.467439">
        <ele>613.414</ele>
        <time>2021-05-27T17:06:49Z</time>
      </trkpt>
      <trkpt lat="42.240597" lon="2.467414">
        <ele>614.141</ele>
        <time>2021-05-27T17:06:51Z</time>
      </trkpt>
      <trkpt lat="42.240613" lon="2.467397">
        <ele>614.656</ele>
        <time>2021-05-27T17:06:52Z</time>
      </trkpt>
      <trkpt lat="42.240631" lon="2.467373">
        <ele>615.139</ele>
        <time>2021-05-27T17:06:54Z</time>
      </trkpt>
      <trkpt lat="42.240647" lon="2.467357">
        <ele>615.655</ele>
        <time>2021-05-27T17:06:56Z</time>
      </trkpt>
      <trkpt lat="42.240664" lon="2.467338">
        <ele>616.176</ele>
        <time>2021-05-27T17:06:58Z</time>
      </trkpt>
      <trkpt lat="42.240685" lon="2.467321">
        <ele>616.790</ele>
        <time>2021-05-27T17:07:00Z</time>
      </trkpt>
      <trkpt lat="42.240706" lon="2.467306">
        <ele>617.319</ele>
        <time>2021-05-27T17:07:02Z</time>
      </trkpt>
      <trkpt lat="42.240724" lon="2.467295">
        <ele>617.908</ele>
        <time>2021-05-27T17:07:04Z</time>
      </trkpt>
      <trkpt lat="42.240741" lon="2.467278">
        <ele>618.314</ele>
        <time>2021-05-27T17:07:06Z</time>
      </trkpt>
      <trkpt lat="42.240756" lon="2.467262">
        <ele>618.761</ele>
        <time>2021-05-27T17:07:08Z</time>
      </trkpt>
      <trkpt lat="42.240770" lon="2.467245">
        <ele>619.129</ele>
        <time>2021-05-27T17:07:10Z</time>
      </trkpt>
      <trkpt lat="42.240786" lon="2.467230">
        <ele>619.519</ele>
        <time>2021-05-27T17:07:12Z</time>
      </trkpt>
      <trkpt lat="42.240808" lon="2.467218">
        <ele>620.116</ele>
        <time>2021-05-27T17:07:14Z</time>
      </trkpt>
      <trkpt lat="42.240831" lon="2.467208">
        <ele>620.731</ele>
        <time>2021-05-27T17:07:16Z</time>
      </trkpt>
      <trkpt lat="42.240851" lon="2.467197">
        <ele>621.234</ele>
        <time>2021-05-27T17:07:18Z</time>
      </trkpt>
      <trkpt lat="42.240870" lon="2.467187">
        <ele>621.760</ele>
        <time>2021-05-27T17:07:20Z</time>
      </trkpt>
      <trkpt lat="42.240889" lon="2.467178">
        <ele>622.254</ele>
        <time>2021-05-27T17:07:23Z</time>
      </trkpt>
      <trkpt lat="42.240908" lon="2.467162">
        <ele>622.556</ele>
        <time>2021-05-27T17:07:26Z</time>
      </trkpt>
      <trkpt lat="42.240925" lon="2.467150">
        <ele>622.911</ele>
        <time>2021-05-27T17:07:28Z</time>
      </trkpt>
      <trkpt lat="42.240942" lon="2.467121">
        <ele>622.908</ele>
        <time>2021-05-27T17:07:31Z</time>
      </trkpt>
      <trkpt lat="42.240957" lon="2.467102">
        <ele>623.132</ele>
        <time>2021-05-27T17:07:33Z</time>
      </trkpt>
      <trkpt lat="42.240974" lon="2.467081">
        <ele>623.339</ele>
        <time>2021-05-27T17:07:35Z</time>
      </trkpt>
      <trkpt lat="42.240989" lon="2.467062">
        <ele>623.467</ele>
        <time>2021-05-27T17:07:37Z</time>
      </trkpt>
      <trkpt lat="42.241006" lon="2.467046">
        <ele>623.697</ele>
        <time>2021-05-27T17:07:39Z</time>
      </trkpt>
      <trkpt lat="42.241024" lon="2.467028">
        <ele>623.934</ele>
        <time>2021-05-27T17:07:41Z</time>
      </trkpt>
      <trkpt lat="42.241039" lon="2.467008">
        <ele>624.069</ele>
        <time>2021-05-27T17:07:43Z</time>
      </trkpt>
      <trkpt lat="42.241058" lon="2.466997">
        <ele>624.452</ele>
        <time>2021-05-27T17:07:45Z</time>
      </trkpt>
      <trkpt lat="42.241079" lon="2.466983">
        <ele>624.818</ele>
        <time>2021-05-27T17:07:47Z</time>
      </trkpt>
      <trkpt lat="42.241098" lon="2.466963">
        <ele>625.051</ele>
        <time>2021-05-27T17:07:49Z</time>
      </trkpt>
      <trkpt lat="42.241115" lon="2.466944">
        <ele>625.101</ele>
        <time>2021-05-27T17:07:51Z</time>
      </trkpt>
      <trkpt lat="42.241127" lon="2.466925">
        <ele>625.111</ele>
        <time>2021-05-27T17:07:53Z</time>
      </trkpt>
      <trkpt lat="42.241151" lon="2.466898">
        <ele>625.308</ele>
        <time>2021-05-27T17:07:56Z</time>
      </trkpt>
      <trkpt lat="42.241174" lon="2.466878">
        <ele>625.782</ele>
        <time>2021-05-27T17:07:59Z</time>
      </trkpt>
      <trkpt lat="42.241265" lon="2.466822">
        <ele>627.569</ele>
        <time>2021-05-27T17:08:09Z</time>
      </trkpt>
      <trkpt lat="42.241309" lon="2.466831">
        <ele>628.927</ele>
        <time>2021-05-27T17:08:14Z</time>
      </trkpt>
      <trkpt lat="42.241328" lon="2.466849">
        <ele>629.897</ele>
        <time>2021-05-27T17:08:16Z</time>
      </trkpt>
      <trkpt lat="42.241337" lon="2.466873">
        <ele>630.414</ele>
        <time>2021-05-27T17:08:18Z</time>
      </trkpt>
      <trkpt lat="42.241347" lon="2.466902">
        <ele>631.239</ele>
        <time>2021-05-27T17:08:21Z</time>
      </trkpt>
      <trkpt lat="42.241352" lon="2.466928">
        <ele>631.752</ele>
        <time>2021-05-27T17:08:24Z</time>
      </trkpt>
      <trkpt lat="42.241348" lon="2.466955">
        <ele>632.058</ele>
        <time>2021-05-27T17:08:27Z</time>
      </trkpt>
      <trkpt lat="42.241337" lon="2.466976">
        <ele>632.141</ele>
        <time>2021-05-27T17:08:29Z</time>
      </trkpt>
      <trkpt lat="42.241327" lon="2.466998">
        <ele>632.281</ele>
        <time>2021-05-27T17:08:31Z</time>
      </trkpt>
      <trkpt lat="42.241320" lon="2.467023">
        <ele>632.509</ele>
        <time>2021-05-27T17:08:33Z</time>
      </trkpt>
      <trkpt lat="42.241309" lon="2.467048">
        <ele>632.708</ele>
        <time>2021-05-27T17:08:35Z</time>
      </trkpt>
      <trkpt lat="42.241297" lon="2.467072">
        <ele>632.811</ele>
        <time>2021-05-27T17:08:37Z</time>
      </trkpt>
      <trkpt lat="42.241286" lon="2.467104">
        <ele>633.158</ele>
        <time>2021-05-27T17:08:39Z</time>
      </trkpt>
      <trkpt lat="42.241278" lon="2.467136">
        <ele>633.536</ele>
        <time>2021-05-27T17:08:41Z</time>
      </trkpt>
      <trkpt lat="42.241271" lon="2.467164">
        <ele>633.966</ele>
        <time>2021-05-27T17:08:43Z</time>
      </trkpt>
      <trkpt lat="42.241268" lon="2.467193">
        <ele>634.433</ele>
        <time>2021-05-27T17:08:45Z</time>
      </trkpt>
      <trkpt lat="42.241263" lon="2.467219">
        <ele>634.848</ele>
        <time>2021-05-27T17:08:47Z</time>
      </trkpt>
      <trkpt lat="42.241256" lon="2.467247">
        <ele>634.891</ele>
        <time>2021-05-27T17:08:49Z</time>
      </trkpt>
      <trkpt lat="42.241256" lon="2.467277">
        <ele>635.047</ele>
        <time>2021-05-27T17:08:51Z</time>
      </trkpt>
      <trkpt lat="42.241257" lon="2.467306">
        <ele>635.168</ele>
        <time>2021-05-27T17:08:53Z</time>
      </trkpt>
      <trkpt lat="42.241259" lon="2.467334">
        <ele>635.342</ele>
        <time>2021-05-27T17:08:55Z</time>
      </trkpt>
      <trkpt lat="42.241260" lon="2.467363">
        <ele>635.526</ele>
        <time>2021-05-27T17:08:57Z</time>
      </trkpt>
      <trkpt lat="42.241262" lon="2.467393">
        <ele>635.808</ele>
        <time>2021-05-27T17:08:59Z</time>
      </trkpt>
      <trkpt lat="42.241264" lon="2.467422">
        <ele>636.083</ele>
        <time>2021-05-27T17:09:01Z</time>
      </trkpt>
      <trkpt lat="42.241264" lon="2.467450">
        <ele>636.170</ele>
        <time>2021-05-27T17:09:03Z</time>
      </trkpt>
      <trkpt lat="42.241262" lon="2.467481">
        <ele>636.258</ele>
        <time>2021-05-27T17:09:05Z</time>
      </trkpt>
      <trkpt lat="42.241270" lon="2.467509">
        <ele>636.698</ele>
        <time>2021-05-27T17:09:07Z</time>
      </trkpt>
      <trkpt lat="42.241278" lon="2.467535">
        <ele>636.985</ele>
        <time>2021-05-27T17:09:09Z</time>
      </trkpt>
      <trkpt lat="42.241289" lon="2.467561">
        <ele>637.380</ele>
        <time>2021-05-27T17:09:11Z</time>
      </trkpt>
      <trkpt lat="42.241298" lon="2.467588">
        <ele>637.773</ele>
        <time>2021-05-27T17:09:13Z</time>
      </trkpt>
      <trkpt lat="42.241302" lon="2.467615">
        <ele>637.979</ele>
        <time>2021-05-27T17:09:15Z</time>
      </trkpt>
      <trkpt lat="42.241308" lon="2.467643">
        <ele>638.299</ele>
        <time>2021-05-27T17:09:17Z</time>
      </trkpt>
      <trkpt lat="42.241315" lon="2.467670">
        <ele>638.607</ele>
        <time>2021-05-27T17:09:19Z</time>
      </trkpt>
      <trkpt lat="42.241316" lon="2.467698">
        <ele>638.827</ele>
        <time>2021-05-27T17:09:21Z</time>
      </trkpt>
      <trkpt lat="42.241322" lon="2.467726">
        <ele>639.108</ele>
        <time>2021-05-27T17:09:23Z</time>
      </trkpt>
      <trkpt lat="42.241330" lon="2.467752">
        <ele>639.576</ele>
        <time>2021-05-27T17:09:25Z</time>
      </trkpt>
      <trkpt lat="42.241336" lon="2.467778">
        <ele>639.943</ele>
        <time>2021-05-27T17:09:27Z</time>
      </trkpt>
      <trkpt lat="42.241341" lon="2.467804">
        <ele>640.361</ele>
        <time>2021-05-27T17:09:29Z</time>
      </trkpt>
      <trkpt lat="42.241349" lon="2.467827">
        <ele>640.711</ele>
        <time>2021-05-27T17:09:31Z</time>
      </trkpt>
      <trkpt lat="42.241354" lon="2.467851">
        <ele>641.158</ele>
        <time>2021-05-27T17:09:33Z</time>
      </trkpt>
      <trkpt lat="42.241357" lon="2.467877">
        <ele>641.423</ele>
        <time>2021-05-27T17:09:35Z</time>
      </trkpt>
      <trkpt lat="42.241362" lon="2.467903">
        <ele>641.826</ele>
        <time>2021-05-27T17:09:37Z</time>
      </trkpt>
      <trkpt lat="42.241370" lon="2.467927">
        <ele>642.382</ele>
        <time>2021-05-27T17:09:39Z</time>
      </trkpt>
      <trkpt lat="42.241374" lon="2.467951">
        <ele>642.649</ele>
        <time>2021-05-27T17:09:41Z</time>
      </trkpt>
      <trkpt lat="42.241385" lon="2.467986">
        <ele>643.302</ele>
        <time>2021-05-27T17:09:44Z</time>
      </trkpt>
      <trkpt lat="42.241393" lon="2.468013">
        <ele>643.822</ele>
        <time>2021-05-27T17:09:46Z</time>
      </trkpt>
      <trkpt lat="42.241402" lon="2.468039">
        <ele>644.408</ele>
        <time>2021-05-27T17:09:48Z</time>
      </trkpt>
      <trkpt lat="42.241414" lon="2.468065">
        <ele>644.981</ele>
        <time>2021-05-27T17:09:50Z</time>
      </trkpt>
      <trkpt lat="42.241421" lon="2.468090">
        <ele>645.388</ele>
        <time>2021-05-27T17:09:52Z</time>
      </trkpt>
      <trkpt lat="42.241425" lon="2.468116">
        <ele>645.526</ele>
        <time>2021-05-27T17:09:54Z</time>
      </trkpt>
      <trkpt lat="42.241425" lon="2.468144">
        <ele>645.646</ele>
        <time>2021-05-27T17:09:56Z</time>
      </trkpt>
      <trkpt lat="42.241428" lon="2.468173">
        <ele>645.893</ele>
        <time>2021-05-27T17:09:58Z</time>
      </trkpt>
      <trkpt lat="42.241435" lon="2.468195">
        <ele>646.218</ele>
        <time>2021-05-27T17:10:00Z</time>
      </trkpt>
      <trkpt lat="42.241446" lon="2.468230">
        <ele>646.771</ele>
        <time>2021-05-27T17:10:03Z</time>
      </trkpt>
      <trkpt lat="42.241455" lon="2.468256">
        <ele>647.157</ele>
        <time>2021-05-27T17:10:05Z</time>
      </trkpt>
      <trkpt lat="42.241467" lon="2.468292">
        <ele>647.737</ele>
        <time>2021-05-27T17:10:08Z</time>
      </trkpt>
      <trkpt lat="42.241477" lon="2.468312">
        <ele>648.149</ele>
        <time>2021-05-27T17:10:10Z</time>
      </trkpt>
      <trkpt lat="42.241487" lon="2.468333">
        <ele>648.513</ele>
        <time>2021-05-27T17:10:12Z</time>
      </trkpt>
      <trkpt lat="42.241497" lon="2.468356">
        <ele>648.708</ele>
        <time>2021-05-27T17:10:14Z</time>
      </trkpt>
      <trkpt lat="42.241509" lon="2.468379">
        <ele>648.940</ele>
        <time>2021-05-27T17:10:16Z</time>
      </trkpt>
      <trkpt lat="42.241521" lon="2.468407">
        <ele>649.147</ele>
        <time>2021-05-27T17:10:18Z</time>
      </trkpt>
      <trkpt lat="42.241530" lon="2.468435">
        <ele>649.265</ele>
        <time>2021-05-27T17:10:20Z</time>
      </trkpt>
      <trkpt lat="42.241540" lon="2.468461">
        <ele>649.375</ele>
        <time>2021-05-27T17:10:22Z</time>
      </trkpt>
      <trkpt lat="42.241551" lon="2.468487">
        <ele>649.582</ele>
        <time>2021-05-27T17:10:24Z</time>
      </trkpt>
      <trkpt lat="42.241562" lon="2.468510">
        <ele>649.797</ele>
        <time>2021-05-27T17:10:26Z</time>
      </trkpt>
      <trkpt lat="42.241576" lon="2.468530">
        <ele>650.110</ele>
        <time>2021-05-27T17:10:28Z</time>
      </trkpt>
      <trkpt lat="42.241590" lon="2.468549">
        <ele>650.566</ele>
        <time>2021-05-27T17:10:30Z</time>
      </trkpt>
      <trkpt lat="42.241603" lon="2.468567">
        <ele>650.881</ele>
        <time>2021-05-27T17:10:32Z</time>
      </trkpt>
      <trkpt lat="42.241619" lon="2.468585">
        <ele>651.361</ele>
        <time>2021-05-27T17:10:34Z</time>
      </trkpt>
      <trkpt lat="42.241635" lon="2.468605">
        <ele>651.817</ele>
        <time>2021-05-27T17:10:36Z</time>
      </trkpt>
      <trkpt lat="42.241654" lon="2.468634">
        <ele>652.408</ele>
        <time>2021-05-27T17:10:39Z</time>
      </trkpt>
      <trkpt lat="42.241669" lon="2.468653">
        <ele>652.975</ele>
        <time>2021-05-27T17:10:41Z</time>
      </trkpt>
      <trkpt lat="42.241690" lon="2.468672">
        <ele>653.652</ele>
        <time>2021-05-27T17:10:43Z</time>
      </trkpt>
      <trkpt lat="42.241707" lon="2.468696">
        <ele>654.210</ele>
        <time>2021-05-27T17:10:45Z</time>
      </trkpt>
      <trkpt lat="42.241720" lon="2.468714">
        <ele>654.650</ele>
        <time>2021-05-27T17:10:47Z</time>
      </trkpt>
      <trkpt lat="42.241738" lon="2.468736">
        <ele>655.287</ele>
        <time>2021-05-27T17:10:49Z</time>
      </trkpt>
      <trkpt lat="42.241750" lon="2.468755">
        <ele>655.612</ele>
        <time>2021-05-27T17:10:51Z</time>
      </trkpt>
      <trkpt lat="42.241758" lon="2.468779">
        <ele>655.995</ele>
        <time>2021-05-27T17:10:53Z</time>
      </trkpt>
      <trkpt lat="42.241758" lon="2.468803">
        <ele>655.831</ele>
        <time>2021-05-27T17:10:55Z</time>
      </trkpt>
      <trkpt lat="42.241760" lon="2.468839">
        <ele>655.817</ele>
        <time>2021-05-27T17:10:58Z</time>
      </trkpt>
      <trkpt lat="42.241752" lon="2.468873">
        <ele>655.487</ele>
        <time>2021-05-27T17:11:01Z</time>
      </trkpt>
      <trkpt lat="42.241747" lon="2.468897">
        <ele>655.315</ele>
        <time>2021-05-27T17:11:03Z</time>
      </trkpt>
      <trkpt lat="42.241741" lon="2.468921">
        <ele>655.208</ele>
        <time>2021-05-27T17:11:05Z</time>
      </trkpt>
      <trkpt lat="42.241736" lon="2.468946">
        <ele>655.388</ele>
        <time>2021-05-27T17:11:07Z</time>
      </trkpt>
      <trkpt lat="42.241728" lon="2.468981">
        <ele>655.225</ele>
        <time>2021-05-27T17:11:10Z</time>
      </trkpt>
      <trkpt lat="42.241722" lon="2.469013">
        <ele>655.353</ele>
        <time>2021-05-27T17:11:13Z</time>
      </trkpt>
      <trkpt lat="42.241721" lon="2.469046">
        <ele>655.593</ele>
        <time>2021-05-27T17:11:16Z</time>
      </trkpt>
      <trkpt lat="42.241724" lon="2.469081">
        <ele>655.920</ele>
        <time>2021-05-27T17:11:19Z</time>
      </trkpt>
      <trkpt lat="42.241728" lon="2.469107">
        <ele>656.385</ele>
        <time>2021-05-27T17:11:21Z</time>
      </trkpt>
      <trkpt lat="42.241736" lon="2.469134">
        <ele>657.028</ele>
        <time>2021-05-27T17:11:23Z</time>
      </trkpt>
      <trkpt lat="42.241747" lon="2.469161">
        <ele>657.714</ele>
        <time>2021-05-27T17:11:25Z</time>
      </trkpt>
      <trkpt lat="42.241759" lon="2.469183">
        <ele>658.462</ele>
        <time>2021-05-27T17:11:27Z</time>
      </trkpt>
      <trkpt lat="42.241770" lon="2.469208">
        <ele>659.083</ele>
        <time>2021-05-27T17:11:29Z</time>
      </trkpt>
      <trkpt lat="42.241781" lon="2.469239">
        <ele>659.611</ele>
        <time>2021-05-27T17:11:32Z</time>
      </trkpt>
      <trkpt lat="42.241792" lon="2.469260">
        <ele>660.208</ele>
        <time>2021-05-27T17:11:34Z</time>
      </trkpt>
      <trkpt lat="42.241811" lon="2.469286">
        <ele>661.223</ele>
        <time>2021-05-27T17:11:37Z</time>
      </trkpt>
      <trkpt lat="42.241825" lon="2.469304">
        <ele>661.940</ele>
        <time>2021-05-27T17:11:39Z</time>
      </trkpt>
      <trkpt lat="42.241839" lon="2.469319">
        <ele>662.688</ele>
        <time>2021-05-27T17:11:41Z</time>
      </trkpt>
      <trkpt lat="42.241861" lon="2.469326">
        <ele>663.778</ele>
        <time>2021-05-27T17:11:43Z</time>
      </trkpt>
      <trkpt lat="42.241879" lon="2.469328">
        <ele>664.585</ele>
        <time>2021-05-27T17:11:45Z</time>
      </trkpt>
      <trkpt lat="42.241898" lon="2.469328">
        <ele>665.460</ele>
        <time>2021-05-27T17:11:47Z</time>
      </trkpt>
      <trkpt lat="42.241922" lon="2.469328">
        <ele>666.573</ele>
        <time>2021-05-27T17:11:50Z</time>
      </trkpt>
      <trkpt lat="42.241940" lon="2.469321">
        <ele>667.349</ele>
        <time>2021-05-27T17:11:52Z</time>
      </trkpt>
      <trkpt lat="42.241960" lon="2.469312">
        <ele>667.914</ele>
        <time>2021-05-27T17:11:54Z</time>
      </trkpt>
      <trkpt lat="42.241981" lon="2.469292">
        <ele>668.354</ele>
        <time>2021-05-27T17:11:57Z</time>
      </trkpt>
      <trkpt lat="42.242001" lon="2.469277">
        <ele>668.709</ele>
        <time>2021-05-27T17:12:00Z</time>
      </trkpt>
      <trkpt lat="42.242021" lon="2.469255">
        <ele>669.008</ele>
        <time>2021-05-27T17:12:03Z</time>
      </trkpt>
      <trkpt lat="42.242034" lon="2.469236">
        <ele>669.288</ele>
        <time>2021-05-27T17:12:05Z</time>
      </trkpt>
      <trkpt lat="42.242046" lon="2.469218">
        <ele>669.395</ele>
        <time>2021-05-27T17:12:07Z</time>
      </trkpt>
      <trkpt lat="42.242062" lon="2.469195">
        <ele>669.473</ele>
        <time>2021-05-27T17:12:10Z</time>
      </trkpt>
      <trkpt lat="42.242086" lon="2.469188">
        <ele>669.883</ele>
        <time>2021-05-27T17:12:13Z</time>
      </trkpt>
      <trkpt lat="42.242104" lon="2.469185">
        <ele>670.160</ele>
        <time>2021-05-27T17:12:15Z</time>
      </trkpt>
      <trkpt lat="42.242128" lon="2.469185">
        <ele>670.565</ele>
        <time>2021-05-27T17:12:18Z</time>
      </trkpt>
      <trkpt lat="42.242152" lon="2.469196">
        <ele>671.288</ele>
        <time>2021-05-27T17:12:21Z</time>
      </trkpt>
      <trkpt lat="42.242168" lon="2.469205">
        <ele>671.654</ele>
        <time>2021-05-27T17:12:23Z</time>
      </trkpt>
      <trkpt lat="42.242190" lon="2.469226">
        <ele>672.455</ele>
        <time>2021-05-27T17:12:26Z</time>
      </trkpt>
      <trkpt lat="42.242205" lon="2.469240">
        <ele>672.907</ele>
        <time>2021-05-27T17:12:28Z</time>
      </trkpt>
      <trkpt lat="42.242225" lon="2.469251">
        <ele>673.617</ele>
        <time>2021-05-27T17:12:30Z</time>
      </trkpt>
      <trkpt lat="42.242242" lon="2.469262">
        <ele>674.008</ele>
        <time>2021-05-27T17:12:32Z</time>
      </trkpt>
      <trkpt lat="42.242266" lon="2.469273">
        <ele>674.692</ele>
        <time>2021-05-27T17:12:35Z</time>
      </trkpt>
      <trkpt lat="42.242285" lon="2.469282">
        <ele>675.159</ele>
        <time>2021-05-27T17:12:38Z</time>
      </trkpt>
      <trkpt lat="42.242308" lon="2.469291">
        <ele>675.697</ele>
        <time>2021-05-27T17:12:41Z</time>
      </trkpt>
      <trkpt lat="42.242334" lon="2.469298">
        <ele>676.267</ele>
        <time>2021-05-27T17:12:44Z</time>
      </trkpt>
      <trkpt lat="42.242361" lon="2.469295">
        <ele>676.654</ele>
        <time>2021-05-27T17:12:47Z</time>
      </trkpt>
      <trkpt lat="42.242383" lon="2.469290">
        <ele>676.989</ele>
        <time>2021-05-27T17:12:49Z</time>
      </trkpt>
      <trkpt lat="42.242407" lon="2.469278">
        <ele>677.122</ele>
        <time>2021-05-27T17:12:51Z</time>
      </trkpt>
      <trkpt lat="42.242432" lon="2.469270">
        <ele>677.488</ele>
        <time>2021-05-27T17:12:53Z</time>
      </trkpt>
      <trkpt lat="42.242452" lon="2.469254">
        <ele>677.425</ele>
        <time>2021-05-27T17:12:55Z</time>
      </trkpt>
      <trkpt lat="42.242473" lon="2.469235">
        <ele>677.526</ele>
        <time>2021-05-27T17:12:57Z</time>
      </trkpt>
      <trkpt lat="42.242498" lon="2.469214">
        <ele>677.608</ele>
        <time>2021-05-27T17:12:59Z</time>
      </trkpt>
      <trkpt lat="42.242516" lon="2.469195">
        <ele>677.808</ele>
        <time>2021-05-27T17:13:01Z</time>
      </trkpt>
      <trkpt lat="42.242534" lon="2.469176">
        <ele>677.969</ele>
        <time>2021-05-27T17:13:03Z</time>
      </trkpt>
      <trkpt lat="42.242557" lon="2.469155">
        <ele>678.346</ele>
        <time>2021-05-27T17:13:05Z</time>
      </trkpt>
      <trkpt lat="42.242574" lon="2.469137">
        <ele>678.734</ele>
        <time>2021-05-27T17:13:07Z</time>
      </trkpt>
      <trkpt lat="42.242591" lon="2.469122">
        <ele>679.134</ele>
        <time>2021-05-27T17:13:09Z</time>
      </trkpt>
      <trkpt lat="42.242610" lon="2.469105">
        <ele>679.661</ele>
        <time>2021-05-27T17:13:11Z</time>
      </trkpt>
      <trkpt lat="42.242628" lon="2.469086">
        <ele>680.196</ele>
        <time>2021-05-27T17:13:13Z</time>
      </trkpt>
      <trkpt lat="42.242641" lon="2.469068">
        <ele>680.469</ele>
        <time>2021-05-27T17:13:15Z</time>
      </trkpt>
      <trkpt lat="42.242654" lon="2.469049">
        <ele>680.815</ele>
        <time>2021-05-27T17:13:17Z</time>
      </trkpt>
      <trkpt lat="42.242665" lon="2.469018">
        <ele>681.122</ele>
        <time>2021-05-27T17:13:20Z</time>
      </trkpt>
      <trkpt lat="42.242679" lon="2.468982">
        <ele>681.562</ele>
        <time>2021-05-27T17:13:23Z</time>
      </trkpt>
      <trkpt lat="42.242682" lon="2.468948">
        <ele>681.708</ele>
        <time>2021-05-27T17:13:25Z</time>
      </trkpt>
      <trkpt lat="42.242688" lon="2.468923">
        <ele>681.908</ele>
        <time>2021-05-27T17:13:27Z</time>
      </trkpt>
      <trkpt lat="42.242690" lon="2.468898">
        <ele>682.169</ele>
        <time>2021-05-27T17:13:29Z</time>
      </trkpt>
      <trkpt lat="42.242692" lon="2.468860">
        <ele>682.436</ele>
        <time>2021-05-27T17:13:32Z</time>
      </trkpt>
      <trkpt lat="42.242688" lon="2.468830">
        <ele>682.674</ele>
        <time>2021-05-27T17:13:34Z</time>
      </trkpt>
      <trkpt lat="42.242686" lon="2.468803">
        <ele>682.774</ele>
        <time>2021-05-27T17:13:36Z</time>
      </trkpt>
      <trkpt lat="42.242684" lon="2.468777">
        <ele>682.971</ele>
        <time>2021-05-27T17:13:38Z</time>
      </trkpt>
      <trkpt lat="42.242681" lon="2.468752">
        <ele>683.126</ele>
        <time>2021-05-27T17:13:40Z</time>
      </trkpt>
      <trkpt lat="42.242684" lon="2.468726">
        <ele>683.319</ele>
        <time>2021-05-27T17:13:42Z</time>
      </trkpt>
      <trkpt lat="42.242684" lon="2.468701">
        <ele>683.625</ele>
        <time>2021-05-27T17:13:44Z</time>
      </trkpt>
      <trkpt lat="42.242685" lon="2.468665">
        <ele>683.986</ele>
        <time>2021-05-27T17:13:47Z</time>
      </trkpt>
      <trkpt lat="42.242690" lon="2.468629">
        <ele>684.360</ele>
        <time>2021-05-27T17:13:50Z</time>
      </trkpt>
      <trkpt lat="42.242697" lon="2.468604">
        <ele>684.626</ele>
        <time>2021-05-27T17:13:52Z</time>
      </trkpt>
      <trkpt lat="42.242702" lon="2.468577">
        <ele>684.708</ele>
        <time>2021-05-27T17:13:54Z</time>
      </trkpt>
      <trkpt lat="42.242705" lon="2.468548">
        <ele>684.945</ele>
        <time>2021-05-27T17:13:56Z</time>
      </trkpt>
      <trkpt lat="42.242711" lon="2.468520">
        <ele>685.092</ele>
        <time>2021-05-27T17:13:58Z</time>
      </trkpt>
      <trkpt lat="42.242717" lon="2.468494">
        <ele>685.240</ele>
        <time>2021-05-27T17:14:00Z</time>
      </trkpt>
      <trkpt lat="42.242727" lon="2.468469">
        <ele>685.570</ele>
        <time>2021-05-27T17:14:02Z</time>
      </trkpt>
      <trkpt lat="42.242736" lon="2.468442">
        <ele>685.827</ele>
        <time>2021-05-27T17:14:04Z</time>
      </trkpt>
      <trkpt lat="42.242742" lon="2.468414">
        <ele>686.012</ele>
        <time>2021-05-27T17:14:06Z</time>
      </trkpt>
      <trkpt lat="42.242754" lon="2.468384">
        <ele>686.375</ele>
        <time>2021-05-27T17:14:08Z</time>
      </trkpt>
      <trkpt lat="42.242764" lon="2.468353">
        <ele>686.631</ele>
        <time>2021-05-27T17:14:10Z</time>
      </trkpt>
      <trkpt lat="42.242775" lon="2.468325">
        <ele>686.967</ele>
        <time>2021-05-27T17:14:12Z</time>
      </trkpt>
      <trkpt lat="42.242788" lon="2.468304">
        <ele>687.481</ele>
        <time>2021-05-27T17:14:14Z</time>
      </trkpt>
      <trkpt lat="42.242801" lon="2.468276">
        <ele>687.819</ele>
        <time>2021-05-27T17:14:16Z</time>
      </trkpt>
      <trkpt lat="42.242815" lon="2.468249">
        <ele>688.308</ele>
        <time>2021-05-27T17:14:18Z</time>
      </trkpt>
      <trkpt lat="42.242826" lon="2.468223">
        <ele>688.793</ele>
        <time>2021-05-27T17:14:20Z</time>
      </trkpt>
      <trkpt lat="42.242835" lon="2.468197">
        <ele>689.070</ele>
        <time>2021-05-27T17:14:22Z</time>
      </trkpt>
      <trkpt lat="42.242852" lon="2.468177">
        <ele>689.588</ele>
        <time>2021-05-27T17:14:24Z</time>
      </trkpt>
      <trkpt lat="42.242869" lon="2.468155">
        <ele>690.138</ele>
        <time>2021-05-27T17:14:26Z</time>
      </trkpt>
      <trkpt lat="42.242876" lon="2.468126">
        <ele>690.365</ele>
        <time>2021-05-27T17:14:28Z</time>
      </trkpt>
      <trkpt lat="42.242889" lon="2.468090">
        <ele>690.780</ele>
        <time>2021-05-27T17:14:30Z</time>
      </trkpt>
      <trkpt lat="42.242901" lon="2.468055">
        <ele>691.023</ele>
        <time>2021-05-27T17:14:32Z</time>
      </trkpt>
      <trkpt lat="42.242907" lon="2.468023">
        <ele>690.799</ele>
        <time>2021-05-27T17:14:34Z</time>
      </trkpt>
      <trkpt lat="42.242915" lon="2.467990">
        <ele>690.426</ele>
        <time>2021-05-27T17:14:36Z</time>
      </trkpt>
      <trkpt lat="42.242920" lon="2.467955">
        <ele>690.047</ele>
        <time>2021-05-27T17:14:38Z</time>
      </trkpt>
      <trkpt lat="42.242930" lon="2.467913">
        <ele>689.611</ele>
        <time>2021-05-27T17:14:40Z</time>
      </trkpt>
      <trkpt lat="42.242941" lon="2.467871">
        <ele>689.408</ele>
        <time>2021-05-27T17:14:42Z</time>
      </trkpt>
      <trkpt lat="42.242955" lon="2.467853">
        <ele>689.619</ele>
        <time>2021-05-27T17:14:43Z</time>
      </trkpt>
      <trkpt lat="42.242963" lon="2.467832">
        <ele>689.596</ele>
        <time>2021-05-27T17:14:44Z</time>
      </trkpt>
      <trkpt lat="42.242977" lon="2.467810">
        <ele>689.794</ele>
        <time>2021-05-27T17:14:45Z</time>
      </trkpt>
      <trkpt lat="42.242998" lon="2.467790">
        <ele>690.114</ele>
        <time>2021-05-27T17:14:46Z</time>
      </trkpt>
      <trkpt lat="42.243015" lon="2.467774">
        <ele>690.591</ele>
        <time>2021-05-27T17:14:47Z</time>
      </trkpt>
      <trkpt lat="42.243031" lon="2.467759">
        <ele>691.056</ele>
        <time>2021-05-27T17:14:48Z</time>
      </trkpt>
      <trkpt lat="42.243047" lon="2.467743">
        <ele>691.689</ele>
        <time>2021-05-27T17:14:49Z</time>
      </trkpt>
      <trkpt lat="42.243061" lon="2.467727">
        <ele>692.055</ele>
        <time>2021-05-27T17:14:50Z</time>
      </trkpt>
      <trkpt lat="42.243082" lon="2.467700">
        <ele>692.541</ele>
        <time>2021-05-27T17:14:52Z</time>
      </trkpt>
      <trkpt lat="42.243099" lon="2.467686">
        <ele>693.081</ele>
        <time>2021-05-27T17:14:53Z</time>
      </trkpt>
      <trkpt lat="42.243118" lon="2.467663">
        <ele>693.509</ele>
        <time>2021-05-27T17:14:55Z</time>
      </trkpt>
      <trkpt lat="42.243129" lon="2.467641">
        <ele>693.808</ele>
        <time>2021-05-27T17:14:57Z</time>
      </trkpt>
      <trkpt lat="42.243144" lon="2.467616">
        <ele>694.141</ele>
        <time>2021-05-27T17:15:00Z</time>
      </trkpt>
      <trkpt lat="42.243162" lon="2.467601">
        <ele>694.688</ele>
        <time>2021-05-27T17:15:03Z</time>
      </trkpt>
      <trkpt lat="42.243166" lon="2.467630">
        <ele>694.826</ele>
        <time>2021-05-27T17:15:06Z</time>
      </trkpt>
      <trkpt lat="42.243170" lon="2.467655">
        <ele>695.146</ele>
        <time>2021-05-27T17:17:05Z</time>
      </trkpt>
      <trkpt lat="42.243156" lon="2.467625">
        <ele>694.593</ele>
        <time>2021-05-27T17:17:14Z</time>
      </trkpt>
      <trkpt lat="42.243150" lon="2.467602">
        <ele>694.258</ele>
        <time>2021-05-27T17:17:20Z</time>
      </trkpt>
      <trkpt lat="42.243147" lon="2.467576">
        <ele>694.051</ele>
        <time>2021-05-27T17:17:22Z</time>
      </trkpt>
      <trkpt lat="42.243158" lon="2.467554">
        <ele>694.247</ele>
        <time>2021-05-27T17:17:24Z</time>
      </trkpt>
      <trkpt lat="42.243174" lon="2.467530">
        <ele>694.618</ele>
        <time>2021-05-27T17:17:26Z</time>
      </trkpt>
      <trkpt lat="42.243191" lon="2.467510">
        <ele>695.098</ele>
        <time>2021-05-27T17:17:27Z</time>
      </trkpt>
      <trkpt lat="42.243209" lon="2.467496">
        <ele>695.517</ele>
        <time>2021-05-27T17:17:29Z</time>
      </trkpt>
      <trkpt lat="42.243225" lon="2.467484">
        <ele>696.308</ele>
        <time>2021-05-27T17:17:31Z</time>
      </trkpt>
      <trkpt lat="42.243243" lon="2.467478">
        <ele>697.048</ele>
        <time>2021-05-27T17:17:33Z</time>
      </trkpt>
      <trkpt lat="42.243260" lon="2.467470">
        <ele>697.715</ele>
        <time>2021-05-27T17:17:35Z</time>
      </trkpt>
      <trkpt lat="42.243285" lon="2.467473">
        <ele>698.493</ele>
        <time>2021-05-27T17:17:38Z</time>
      </trkpt>
      <trkpt lat="42.243310" lon="2.467486">
        <ele>698.773</ele>
        <time>2021-05-27T17:17:41Z</time>
      </trkpt>
      <trkpt lat="42.243331" lon="2.467501">
        <ele>698.970</ele>
        <time>2021-05-27T17:17:45Z</time>
      </trkpt>
      <trkpt lat="42.243345" lon="2.467527">
        <ele>700.085</ele>
        <time>2021-05-27T17:17:47Z</time>
      </trkpt>
      <trkpt lat="42.243358" lon="2.467557">
        <ele>701.078</ele>
        <time>2021-05-27T17:17:50Z</time>
      </trkpt>
      <trkpt lat="42.243370" lon="2.467591">
        <ele>701.934</ele>
        <time>2021-05-27T17:17:53Z</time>
      </trkpt>
      <trkpt lat="42.243375" lon="2.467617">
        <ele>702.357</ele>
        <time>2021-05-27T17:17:55Z</time>
      </trkpt>
      <trkpt lat="42.243373" lon="2.467645">
        <ele>702.300</ele>
        <time>2021-05-27T17:17:57Z</time>
      </trkpt>
      <trkpt lat="42.243364" lon="2.467674">
        <ele>701.920</ele>
        <time>2021-05-27T17:17:59Z</time>
      </trkpt>
      <trkpt lat="42.243361" lon="2.467709">
        <ele>701.908</ele>
        <time>2021-05-27T17:18:01Z</time>
      </trkpt>
      <trkpt lat="42.243356" lon="2.467745">
        <ele>701.992</ele>
        <time>2021-05-27T17:18:03Z</time>
      </trkpt>
      <trkpt lat="42.243350" lon="2.467778">
        <ele>701.849</ele>
        <time>2021-05-27T17:18:05Z</time>
      </trkpt>
      <trkpt lat="42.243346" lon="2.467811">
        <ele>702.057</ele>
        <time>2021-05-27T17:18:07Z</time>
      </trkpt>
      <trkpt lat="42.243338" lon="2.467841">
        <ele>701.917</ele>
        <time>2021-05-27T17:18:09Z</time>
      </trkpt>
      <trkpt lat="42.243332" lon="2.467870">
        <ele>702.074</ele>
        <time>2021-05-27T17:18:11Z</time>
      </trkpt>
      <trkpt lat="42.243325" lon="2.467902">
        <ele>702.199</ele>
        <time>2021-05-27T17:18:13Z</time>
      </trkpt>
      <trkpt lat="42.243320" lon="2.467936">
        <ele>702.322</ele>
        <time>2021-05-27T17:18:15Z</time>
      </trkpt>
      <trkpt lat="42.243311" lon="2.467966">
        <ele>702.418</ele>
        <time>2021-05-27T17:18:17Z</time>
      </trkpt>
      <trkpt lat="42.243306" lon="2.467999">
        <ele>702.649</ele>
        <time>2021-05-27T17:18:19Z</time>
      </trkpt>
      <trkpt lat="42.243306" lon="2.468029">
        <ele>702.902</ele>
        <time>2021-05-27T17:18:21Z</time>
      </trkpt>
      <trkpt lat="42.243300" lon="2.468059">
        <ele>703.122</ele>
        <time>2021-05-27T17:18:23Z</time>
      </trkpt>
      <trkpt lat="42.243290" lon="2.468087">
        <ele>703.208</ele>
        <time>2021-05-27T17:18:25Z</time>
      </trkpt>
      <trkpt lat="42.243286" lon="2.468121">
        <ele>703.561</ele>
        <time>2021-05-27T17:18:27Z</time>
      </trkpt>
      <trkpt lat="42.243284" lon="2.468155">
        <ele>703.828</ele>
        <time>2021-05-27T17:18:29Z</time>
      </trkpt>
      <trkpt lat="42.243283" lon="2.468187">
        <ele>704.256</ele>
        <time>2021-05-27T17:18:31Z</time>
      </trkpt>
      <trkpt lat="42.243275" lon="2.468219">
        <ele>704.376</ele>
        <time>2021-05-27T17:18:33Z</time>
      </trkpt>
      <trkpt lat="42.243263" lon="2.468250">
        <ele>704.293</ele>
        <time>2021-05-27T17:18:35Z</time>
      </trkpt>
      <trkpt lat="42.243258" lon="2.468280">
        <ele>704.428</ele>
        <time>2021-05-27T17:18:37Z</time>
      </trkpt>
      <trkpt lat="42.243254" lon="2.468311">
        <ele>704.631</ele>
        <time>2021-05-27T17:18:39Z</time>
      </trkpt>
      <trkpt lat="42.243253" lon="2.468340">
        <ele>704.897</ele>
        <time>2021-05-27T17:18:41Z</time>
      </trkpt>
      <trkpt lat="42.243252" lon="2.468369">
        <ele>704.729</ele>
        <time>2021-05-27T17:18:43Z</time>
      </trkpt>
      <trkpt lat="42.243254" lon="2.468398">
        <ele>704.700</ele>
        <time>2021-05-27T17:18:45Z</time>
      </trkpt>
      <trkpt lat="42.243259" lon="2.468430">
        <ele>704.920</ele>
        <time>2021-05-27T17:18:47Z</time>
      </trkpt>
      <trkpt lat="42.243262" lon="2.468460">
        <ele>704.908</ele>
        <time>2021-05-27T17:18:49Z</time>
      </trkpt>
      <trkpt lat="42.243263" lon="2.468488">
        <ele>704.919</ele>
        <time>2021-05-27T17:18:57Z</time>
      </trkpt>
      <trkpt lat="42.243271" lon="2.468515">
        <ele>705.246</ele>
        <time>2021-05-27T17:18:59Z</time>
      </trkpt>
      <trkpt lat="42.243278" lon="2.468545">
        <ele>705.554</ele>
        <time>2021-05-27T17:19:00Z</time>
      </trkpt>
      <trkpt lat="42.243286" lon="2.468576">
        <ele>705.834</ele>
        <time>2021-05-27T17:19:02Z</time>
      </trkpt>
      <trkpt lat="42.243295" lon="2.468607">
        <ele>706.261</ele>
        <time>2021-05-27T17:19:04Z</time>
      </trkpt>
      <trkpt lat="42.243303" lon="2.468636">
        <ele>706.276</ele>
        <time>2021-05-27T17:19:06Z</time>
      </trkpt>
      <trkpt lat="42.243312" lon="2.468665">
        <ele>706.299</ele>
        <time>2021-05-27T17:19:08Z</time>
      </trkpt>
      <trkpt lat="42.243322" lon="2.468693">
        <ele>706.355</ele>
        <time>2021-05-27T17:19:10Z</time>
      </trkpt>
      <trkpt lat="42.243333" lon="2.468717">
        <ele>706.553</ele>
        <time>2021-05-27T17:19:12Z</time>
      </trkpt>
      <trkpt lat="42.243341" lon="2.468741">
        <ele>706.504</ele>
        <time>2021-05-27T17:19:14Z</time>
      </trkpt>
      <trkpt lat="42.243349" lon="2.468768">
        <ele>706.514</ele>
        <time>2021-05-27T17:19:16Z</time>
      </trkpt>
      <trkpt lat="42.243361" lon="2.468791">
        <ele>706.708</ele>
        <time>2021-05-27T17:19:18Z</time>
      </trkpt>
      <trkpt lat="42.243373" lon="2.468813">
        <ele>707.032</ele>
        <time>2021-05-27T17:19:20Z</time>
      </trkpt>
      <trkpt lat="42.243382" lon="2.468839">
        <ele>707.199</ele>
        <time>2021-05-27T17:19:22Z</time>
      </trkpt>
      <trkpt lat="42.243394" lon="2.468862">
        <ele>707.437</ele>
        <time>2021-05-27T17:19:24Z</time>
      </trkpt>
      <trkpt lat="42.243403" lon="2.468886">
        <ele>707.567</ele>
        <time>2021-05-27T17:19:26Z</time>
      </trkpt>
      <trkpt lat="42.243412" lon="2.468911">
        <ele>707.744</ele>
        <time>2021-05-27T17:19:28Z</time>
      </trkpt>
      <trkpt lat="42.243421" lon="2.468938">
        <ele>707.999</ele>
        <time>2021-05-27T17:19:30Z</time>
      </trkpt>
      <trkpt lat="42.243431" lon="2.468963">
        <ele>708.292</ele>
        <time>2021-05-27T17:19:32Z</time>
      </trkpt>
      <trkpt lat="42.243444" lon="2.468989">
        <ele>708.698</ele>
        <time>2021-05-27T17:19:34Z</time>
      </trkpt>
      <trkpt lat="42.243453" lon="2.469015">
        <ele>708.929</ele>
        <time>2021-05-27T17:19:36Z</time>
      </trkpt>
      <trkpt lat="42.243460" lon="2.469040">
        <ele>709.000</ele>
        <time>2021-05-27T17:19:39Z</time>
      </trkpt>
      <trkpt lat="42.243461" lon="2.469076">
        <ele>708.720</ele>
        <time>2021-05-27T17:19:40Z</time>
      </trkpt>
      <trkpt lat="42.243465" lon="2.469111">
        <ele>708.608</ele>
        <time>2021-05-27T17:19:42Z</time>
      </trkpt>
      <trkpt lat="42.243473" lon="2.469145">
        <ele>708.769</ele>
        <time>2021-05-27T17:19:44Z</time>
      </trkpt>
      <trkpt lat="42.243474" lon="2.469176">
        <ele>708.866</ele>
        <time>2021-05-27T17:19:46Z</time>
      </trkpt>
      <trkpt lat="42.243472" lon="2.469204">
        <ele>709.314</ele>
        <time>2021-05-27T17:19:48Z</time>
      </trkpt>
      <trkpt lat="42.243464" lon="2.469232">
        <ele>709.524</ele>
        <time>2021-05-27T17:19:50Z</time>
      </trkpt>
      <trkpt lat="42.243457" lon="2.469255">
        <ele>709.611</ele>
        <time>2021-05-27T17:19:52Z</time>
      </trkpt>
      <trkpt lat="42.243444" lon="2.469279">
        <ele>709.416</ele>
        <time>2021-05-27T17:19:54Z</time>
      </trkpt>
      <trkpt lat="42.243433" lon="2.469315">
        <ele>709.629</ele>
        <time>2021-05-27T17:19:59Z</time>
      </trkpt>
      <trkpt lat="42.243421" lon="2.469340">
        <ele>709.595</ele>
        <time>2021-05-27T17:20:00Z</time>
      </trkpt>
      <trkpt lat="42.243412" lon="2.469366">
        <ele>709.643</ele>
        <time>2021-05-27T17:20:02Z</time>
      </trkpt>
      <trkpt lat="42.243410" lon="2.469392">
        <ele>710.064</ele>
        <time>2021-05-27T17:20:04Z</time>
      </trkpt>
      <trkpt lat="42.243402" lon="2.469417">
        <ele>710.110</ele>
        <time>2021-05-27T17:20:06Z</time>
      </trkpt>
      <trkpt lat="42.243402" lon="2.469443">
        <ele>710.708</ele>
        <time>2021-05-27T17:20:08Z</time>
      </trkpt>
      <trkpt lat="42.243397" lon="2.469475">
        <ele>711.321</ele>
        <time>2021-05-27T17:20:11Z</time>
      </trkpt>
      <trkpt lat="42.243396" lon="2.469501">
        <ele>712.078</ele>
        <time>2021-05-27T17:20:13Z</time>
      </trkpt>
      <trkpt lat="42.243397" lon="2.469526">
        <ele>712.826</ele>
        <time>2021-05-27T17:20:15Z</time>
      </trkpt>
      <trkpt lat="42.243395" lon="2.469554">
        <ele>713.556</ele>
        <time>2021-05-27T17:20:18Z</time>
      </trkpt>
      <trkpt lat="42.243386" lon="2.469582">
        <ele>713.843</ele>
        <time>2021-05-27T17:20:20Z</time>
      </trkpt>
      <trkpt lat="42.243384" lon="2.469610">
        <ele>714.598</ele>
        <time>2021-05-27T17:20:22Z</time>
      </trkpt>
      <trkpt lat="42.243383" lon="2.469637">
        <ele>715.291</ele>
        <time>2021-05-27T17:20:24Z</time>
      </trkpt>
      <trkpt lat="42.243377" lon="2.469668">
        <ele>715.847</ele>
        <time>2021-05-27T17:20:27Z</time>
      </trkpt>
      <trkpt lat="42.243367" lon="2.469697">
        <ele>716.113</ele>
        <time>2021-05-27T17:20:30Z</time>
      </trkpt>
      <trkpt lat="42.243349" lon="2.469721">
        <ele>715.843</ele>
        <time>2021-05-27T17:20:33Z</time>
      </trkpt>
      <trkpt lat="42.243333" lon="2.469734">
        <ele>715.507</ele>
        <time>2021-05-27T17:20:35Z</time>
      </trkpt>
      <trkpt lat="42.243308" lon="2.469750">
        <ele>715.508</ele>
        <time>2021-05-27T17:20:38Z</time>
      </trkpt>
      <trkpt lat="42.243285" lon="2.469766">
        <ele>715.598</ele>
        <time>2021-05-27T17:20:40Z</time>
      </trkpt>
      <trkpt lat="42.243262" lon="2.469781">
        <ele>715.435</ele>
        <time>2021-05-27T17:20:42Z</time>
      </trkpt>
      <trkpt lat="42.243241" lon="2.469795">
        <ele>715.473</ele>
        <time>2021-05-27T17:20:44Z</time>
      </trkpt>
      <trkpt lat="42.243217" lon="2.469805">
        <ele>715.143</ele>
        <time>2021-05-27T17:20:46Z</time>
      </trkpt>
      <trkpt lat="42.243198" lon="2.469820">
        <ele>715.250</ele>
        <time>2021-05-27T17:20:48Z</time>
      </trkpt>
      <trkpt lat="42.243182" lon="2.469831">
        <ele>715.165</ele>
        <time>2021-05-27T17:20:50Z</time>
      </trkpt>
      <trkpt lat="42.243166" lon="2.469844">
        <ele>715.248</ele>
        <time>2021-05-27T17:20:52Z</time>
      </trkpt>
      <trkpt lat="42.243151" lon="2.469858">
        <ele>715.394</ele>
        <time>2021-05-27T17:20:54Z</time>
      </trkpt>
      <trkpt lat="42.243134" lon="2.469871">
        <ele>715.354</ele>
        <time>2021-05-27T17:20:56Z</time>
      </trkpt>
      <trkpt lat="42.243119" lon="2.469886">
        <ele>715.456</ele>
        <time>2021-05-27T17:20:58Z</time>
      </trkpt>
      <trkpt lat="42.243097" lon="2.469915">
        <ele>715.911</ele>
        <time>2021-05-27T17:21:01Z</time>
      </trkpt>
      <trkpt lat="42.243082" lon="2.469942">
        <ele>716.508</ele>
        <time>2021-05-27T17:21:03Z</time>
      </trkpt>
      <trkpt lat="42.243065" lon="2.469964">
        <ele>716.942</ele>
        <time>2021-05-27T17:21:05Z</time>
      </trkpt>
      <trkpt lat="42.243052" lon="2.469993">
        <ele>717.669</ele>
        <time>2021-05-27T17:21:07Z</time>
      </trkpt>
      <trkpt lat="42.243049" lon="2.470024">
        <ele>718.617</ele>
        <time>2021-05-27T17:21:09Z</time>
      </trkpt>
      <trkpt lat="42.243043" lon="2.470054">
        <ele>719.457</ele>
        <time>2021-05-27T17:21:11Z</time>
      </trkpt>
      <trkpt lat="42.243035" lon="2.470079">
        <ele>719.944</ele>
        <time>2021-05-27T17:21:13Z</time>
      </trkpt>
      <trkpt lat="42.243031" lon="2.470107">
        <ele>720.769</ele>
        <time>2021-05-27T17:21:15Z</time>
      </trkpt>
      <trkpt lat="42.243026" lon="2.470132">
        <ele>721.442</ele>
        <time>2021-05-27T17:21:17Z</time>
      </trkpt>
      <trkpt lat="42.243016" lon="2.470165">
        <ele>722.158</ele>
        <time>2021-05-27T17:21:20Z</time>
      </trkpt>
      <trkpt lat="42.242995" lon="2.470189">
        <ele>722.245</ele>
        <time>2021-05-27T17:21:23Z</time>
      </trkpt>
      <trkpt lat="42.242982" lon="2.470208">
        <ele>722.447</ele>
        <time>2021-05-27T17:21:25Z</time>
      </trkpt>
      <trkpt lat="42.242973" lon="2.470231">
        <ele>722.911</ele>
        <time>2021-05-27T17:21:27Z</time>
      </trkpt>
      <trkpt lat="42.242960" lon="2.470257">
        <ele>723.308</ele>
        <time>2021-05-27T17:21:29Z</time>
      </trkpt>
      <trkpt lat="42.242944" lon="2.470285">
        <ele>723.511</ele>
        <time>2021-05-27T17:21:33Z</time>
      </trkpt>
      <trkpt lat="42.242936" lon="2.470308">
        <ele>723.888</ele>
        <time>2021-05-27T17:21:34Z</time>
      </trkpt>
      <trkpt lat="42.242927" lon="2.470337">
        <ele>724.166</ele>
        <time>2021-05-27T17:21:36Z</time>
      </trkpt>
      <trkpt lat="42.242917" lon="2.470372">
        <ele>724.556</ele>
        <time>2021-05-27T17:21:39Z</time>
      </trkpt>
      <trkpt lat="42.242912" lon="2.470400">
        <ele>725.083</ele>
        <time>2021-05-27T17:21:41Z</time>
      </trkpt>
      <trkpt lat="42.242910" lon="2.470427">
        <ele>725.528</ele>
        <time>2021-05-27T17:21:43Z</time>
      </trkpt>
      <trkpt lat="42.242905" lon="2.470461">
        <ele>726.071</ele>
        <time>2021-05-27T17:21:45Z</time>
      </trkpt>
      <trkpt lat="42.242896" lon="2.470492">
        <ele>726.347</ele>
        <time>2021-05-27T17:21:47Z</time>
      </trkpt>
      <trkpt lat="42.242887" lon="2.470522">
        <ele>726.636</ele>
        <time>2021-05-27T17:21:49Z</time>
      </trkpt>
      <trkpt lat="42.242886" lon="2.470553">
        <ele>727.217</ele>
        <time>2021-05-27T17:21:51Z</time>
      </trkpt>
      <trkpt lat="42.242884" lon="2.470578">
        <ele>727.618</ele>
        <time>2021-05-27T17:21:53Z</time>
      </trkpt>
      <trkpt lat="42.242883" lon="2.470603">
        <ele>728.008</ele>
        <time>2021-05-27T17:21:56Z</time>
      </trkpt>
      <trkpt lat="42.242880" lon="2.470640">
        <ele>728.670</ele>
        <time>2021-05-27T17:21:58Z</time>
      </trkpt>
      <trkpt lat="42.242879" lon="2.470677">
        <ele>729.257</ele>
        <time>2021-05-27T17:22:01Z</time>
      </trkpt>
      <trkpt lat="42.242878" lon="2.470702">
        <ele>729.635</ele>
        <time>2021-05-27T17:22:03Z</time>
      </trkpt>
      <trkpt lat="42.242868" lon="2.470725">
        <ele>729.655</ele>
        <time>2021-05-27T17:22:05Z</time>
      </trkpt>
      <trkpt lat="42.242861" lon="2.470752">
        <ele>729.832</ele>
        <time>2021-05-27T17:22:07Z</time>
      </trkpt>
      <trkpt lat="42.242860" lon="2.470779">
        <ele>730.247</ele>
        <time>2021-05-27T17:22:09Z</time>
      </trkpt>
      <trkpt lat="42.242858" lon="2.470807">
        <ele>730.610</ele>
        <time>2021-05-27T17:22:11Z</time>
      </trkpt>
      <trkpt lat="42.242855" lon="2.470836">
        <ele>730.986</ele>
        <time>2021-05-27T17:22:13Z</time>
      </trkpt>
      <trkpt lat="42.242854" lon="2.470864">
        <ele>731.246</ele>
        <time>2021-05-27T17:22:15Z</time>
      </trkpt>
      <trkpt lat="42.242859" lon="2.470893">
        <ele>731.988</ele>
        <time>2021-05-27T17:22:17Z</time>
      </trkpt>
      <trkpt lat="42.242863" lon="2.470923">
        <ele>732.516</ele>
        <time>2021-05-27T17:22:19Z</time>
      </trkpt>
      <trkpt lat="42.242866" lon="2.470954">
        <ele>733.008</ele>
        <time>2021-05-27T17:22:21Z</time>
      </trkpt>
      <trkpt lat="42.242867" lon="2.470982">
        <ele>733.411</ele>
        <time>2021-05-27T17:22:23Z</time>
      </trkpt>
      <trkpt lat="42.242868" lon="2.471009">
        <ele>733.928</ele>
        <time>2021-05-27T17:22:25Z</time>
      </trkpt>
      <trkpt lat="42.242870" lon="2.471038">
        <ele>734.316</ele>
        <time>2021-05-27T17:22:27Z</time>
      </trkpt>
      <trkpt lat="42.242874" lon="2.471067">
        <ele>735.046</ele>
        <time>2021-05-27T17:22:30Z</time>
      </trkpt>
      <trkpt lat="42.242878" lon="2.471096">
        <ele>735.643</ele>
        <time>2021-05-27T17:22:31Z</time>
      </trkpt>
      <trkpt lat="42.242880" lon="2.471124">
        <ele>736.078</ele>
        <time>2021-05-27T17:22:33Z</time>
      </trkpt>
      <trkpt lat="42.242881" lon="2.471153">
        <ele>736.221</ele>
        <time>2021-05-27T17:22:35Z</time>
      </trkpt>
      <trkpt lat="42.242878" lon="2.471182">
        <ele>736.287</ele>
        <time>2021-05-27T17:22:37Z</time>
      </trkpt>
      <trkpt lat="42.242877" lon="2.471211">
        <ele>736.393</ele>
        <time>2021-05-27T17:22:39Z</time>
      </trkpt>
      <trkpt lat="42.242872" lon="2.471241">
        <ele>736.265</ele>
        <time>2021-05-27T17:22:41Z</time>
      </trkpt>
      <trkpt lat="42.242868" lon="2.471271">
        <ele>736.121</ele>
        <time>2021-05-27T17:22:43Z</time>
      </trkpt>
      <trkpt lat="42.242866" lon="2.471301">
        <ele>736.208</ele>
        <time>2021-05-27T17:22:45Z</time>
      </trkpt>
      <trkpt lat="42.242864" lon="2.471332">
        <ele>736.356</ele>
        <time>2021-05-27T17:22:47Z</time>
      </trkpt>
      <trkpt lat="42.242867" lon="2.471361">
        <ele>736.633</ele>
        <time>2021-05-27T17:22:49Z</time>
      </trkpt>
      <trkpt lat="42.242873" lon="2.471385">
        <ele>737.161</ele>
        <time>2021-05-27T17:22:51Z</time>
      </trkpt>
      <trkpt lat="42.242882" lon="2.471409">
        <ele>737.781</ele>
        <time>2021-05-27T17:22:53Z</time>
      </trkpt>
      <trkpt lat="42.242898" lon="2.471437">
        <ele>738.618</ele>
        <time>2021-05-27T17:22:55Z</time>
      </trkpt>
      <trkpt lat="42.242911" lon="2.471470">
        <ele>739.383</ele>
        <time>2021-05-27T17:22:57Z</time>
      </trkpt>
      <trkpt lat="42.242921" lon="2.471496">
        <ele>739.966</ele>
        <time>2021-05-27T17:22:59Z</time>
      </trkpt>
      <trkpt lat="42.242928" lon="2.471521">
        <ele>740.382</ele>
        <time>2021-05-27T17:23:01Z</time>
      </trkpt>
      <trkpt lat="42.242931" lon="2.471548">
        <ele>740.421</ele>
        <time>2021-05-27T17:23:03Z</time>
      </trkpt>
      <trkpt lat="42.242934" lon="2.471577">
        <ele>740.441</ele>
        <time>2021-05-27T17:23:05Z</time>
      </trkpt>
      <trkpt lat="42.242938" lon="2.471613">
        <ele>740.605</ele>
        <time>2021-05-27T17:23:08Z</time>
      </trkpt>
      <trkpt lat="42.242942" lon="2.471643">
        <ele>740.708</ele>
        <time>2021-05-27T17:23:10Z</time>
      </trkpt>
      <trkpt lat="42.242951" lon="2.471671">
        <ele>741.229</ele>
        <time>2021-05-27T17:23:12Z</time>
      </trkpt>
      <trkpt lat="42.242949" lon="2.471699">
        <ele>741.256</ele>
        <time>2021-05-27T17:23:14Z</time>
      </trkpt>
      <trkpt lat="42.242947" lon="2.471727">
        <ele>741.244</ele>
        <time>2021-05-27T17:23:16Z</time>
      </trkpt>
      <trkpt lat="42.242944" lon="2.471756">
        <ele>741.244</ele>
        <time>2021-05-27T17:23:18Z</time>
      </trkpt>
      <trkpt lat="42.242942" lon="2.471786">
        <ele>741.231</ele>
        <time>2021-05-27T17:23:20Z</time>
      </trkpt>
      <trkpt lat="42.242945" lon="2.471818">
        <ele>741.566</ele>
        <time>2021-05-27T17:23:22Z</time>
      </trkpt>
      <trkpt lat="42.242949" lon="2.471847">
        <ele>741.889</ele>
        <time>2021-05-27T17:23:24Z</time>
      </trkpt>
      <trkpt lat="42.242953" lon="2.471878">
        <ele>742.215</ele>
        <time>2021-05-27T17:23:26Z</time>
      </trkpt>
      <trkpt lat="42.242958" lon="2.471905">
        <ele>742.648</ele>
        <time>2021-05-27T17:23:28Z</time>
      </trkpt>
      <trkpt lat="42.242966" lon="2.471932">
        <ele>743.161</ele>
        <time>2021-05-27T17:23:30Z</time>
      </trkpt>
      <trkpt lat="42.242978" lon="2.471955">
        <ele>744.017</ele>
        <time>2021-05-27T17:23:32Z</time>
      </trkpt>
      <trkpt lat="42.242994" lon="2.471973">
        <ele>745.108</ele>
        <time>2021-05-27T17:23:34Z</time>
      </trkpt>
      <trkpt lat="42.243013" lon="2.472001">
        <ele>746.581</ele>
        <time>2021-05-27T17:23:37Z</time>
      </trkpt>
      <trkpt lat="42.243036" lon="2.471998">
        <ele>747.778</ele>
        <time>2021-05-27T17:23:42Z</time>
      </trkpt>
      <trkpt lat="42.243052" lon="2.471979">
        <ele>748.346</ele>
        <time>2021-05-27T17:23:44Z</time>
      </trkpt>
      <trkpt lat="42.243045" lon="2.471950">
        <ele>747.516</ele>
        <time>2021-05-27T17:23:50Z</time>
      </trkpt>
      <trkpt lat="42.243060" lon="2.471928">
        <ele>748.343</ele>
        <time>2021-05-27T17:23:54Z</time>
      </trkpt>
      <trkpt lat="42.243074" lon="2.471904">
        <ele>749.158</ele>
        <time>2021-05-27T17:23:58Z</time>
      </trkpt>
      <trkpt lat="42.243077" lon="2.471873">
        <ele>749.251</ele>
        <time>2021-05-27T17:24:00Z</time>
      </trkpt>
      <trkpt lat="42.243093" lon="2.471831">
        <ele>750.237</ele>
        <time>2021-05-27T17:24:04Z</time>
      </trkpt>
      <trkpt lat="42.243100" lon="2.471807">
        <ele>750.683</ele>
        <time>2021-05-27T17:24:07Z</time>
      </trkpt>
      <trkpt lat="42.243107" lon="2.471783">
        <ele>751.025</ele>
        <time>2021-05-27T17:24:09Z</time>
      </trkpt>
      <trkpt lat="42.243119" lon="2.471761">
        <ele>751.717</ele>
        <time>2021-05-27T17:24:11Z</time>
      </trkpt>
      <trkpt lat="42.243132" lon="2.471742">
        <ele>752.408</ele>
        <time>2021-05-27T17:24:13Z</time>
      </trkpt>
      <trkpt lat="42.243140" lon="2.471719">
        <ele>752.995</ele>
        <time>2021-05-27T17:24:15Z</time>
      </trkpt>
      <trkpt lat="42.243149" lon="2.471698">
        <ele>753.452</ele>
        <time>2021-05-27T17:24:17Z</time>
      </trkpt>
      <trkpt lat="42.243163" lon="2.471671">
        <ele>754.220</ele>
        <time>2021-05-27T17:24:19Z</time>
      </trkpt>
      <trkpt lat="42.243178" lon="2.471629">
        <ele>755.270</ele>
        <time>2021-05-27T17:24:23Z</time>
      </trkpt>
      <trkpt lat="42.243189" lon="2.471601">
        <ele>755.997</ele>
        <time>2021-05-27T17:24:26Z</time>
      </trkpt>
      <trkpt lat="42.243191" lon="2.471563">
        <ele>756.212</ele>
        <time>2021-05-27T17:24:29Z</time>
      </trkpt>
      <trkpt lat="42.243193" lon="2.471535">
        <ele>756.415</ele>
        <time>2021-05-27T17:24:31Z</time>
      </trkpt>
      <trkpt lat="42.243196" lon="2.471504">
        <ele>756.741</ele>
        <time>2021-05-27T17:24:33Z</time>
      </trkpt>
      <trkpt lat="42.243198" lon="2.471480">
        <ele>756.995</ele>
        <time>2021-05-27T17:24:35Z</time>
      </trkpt>
      <trkpt lat="42.243204" lon="2.471453">
        <ele>757.349</ele>
        <time>2021-05-27T17:24:37Z</time>
      </trkpt>
      <trkpt lat="42.243202" lon="2.471417">
        <ele>757.323</ele>
        <time>2021-05-27T17:24:40Z</time>
      </trkpt>
      <trkpt lat="42.243206" lon="2.471390">
        <ele>757.708</ele>
        <time>2021-05-27T17:24:42Z</time>
      </trkpt>
      <trkpt lat="42.243221" lon="2.471372">
        <ele>758.336</ele>
        <time>2021-05-27T17:24:44Z</time>
      </trkpt>
      <trkpt lat="42.243238" lon="2.471360">
        <ele>759.143</ele>
        <time>2021-05-27T17:24:46Z</time>
      </trkpt>
      <trkpt lat="42.243265" lon="2.471361">
        <ele>760.771</ele>
        <time>2021-05-27T17:24:49Z</time>
      </trkpt>
      <trkpt lat="42.243282" lon="2.471370">
        <ele>761.831</ele>
        <time>2021-05-27T17:24:51Z</time>
      </trkpt>
      <trkpt lat="42.243298" lon="2.471392">
        <ele>763.048</ele>
        <time>2021-05-27T17:24:54Z</time>
      </trkpt>
      <trkpt lat="42.243309" lon="2.471420">
        <ele>763.533</ele>
        <time>2021-05-27T17:24:58Z</time>
      </trkpt>
      <trkpt lat="42.243313" lon="2.471446">
        <ele>763.686</ele>
        <time>2021-05-27T17:25:01Z</time>
      </trkpt>
      <trkpt lat="42.243321" lon="2.471475">
        <ele>764.062</ele>
        <time>2021-05-27T17:25:04Z</time>
      </trkpt>
      <trkpt lat="42.243326" lon="2.471502">
        <ele>764.225</ele>
        <time>2021-05-27T17:25:07Z</time>
      </trkpt>
      <trkpt lat="42.243338" lon="2.471531">
        <ele>764.826</ele>
        <time>2021-05-27T17:25:11Z</time>
      </trkpt>
      <trkpt lat="42.243344" lon="2.471566">
        <ele>765.008</ele>
        <time>2021-05-27T17:25:14Z</time>
      </trkpt>
      <trkpt lat="42.243355" lon="2.471596">
        <ele>765.608</ele>
        <time>2021-05-27T17:25:17Z</time>
      </trkpt>
      <trkpt lat="42.243364" lon="2.471617">
        <ele>766.139</ele>
        <time>2021-05-27T17:25:18Z</time>
      </trkpt>
      <trkpt lat="42.243373" lon="2.471642">
        <ele>766.676</ele>
        <time>2021-05-27T17:25:20Z</time>
      </trkpt>
      <trkpt lat="42.243380" lon="2.471677">
        <ele>767.044</ele>
        <time>2021-05-27T17:25:23Z</time>
      </trkpt>
      <trkpt lat="42.243383" lon="2.471704">
        <ele>767.214</ele>
        <time>2021-05-27T17:25:25Z</time>
      </trkpt>
      <trkpt lat="42.243385" lon="2.471731">
        <ele>767.371</ele>
        <time>2021-05-27T17:25:27Z</time>
      </trkpt>
      <trkpt lat="42.243389" lon="2.471755">
        <ele>767.536</ele>
        <time>2021-05-27T17:25:29Z</time>
      </trkpt>
      <trkpt lat="42.243396" lon="2.471785">
        <ele>768.079</ele>
        <time>2021-05-27T17:25:31Z</time>
      </trkpt>
      <trkpt lat="42.243398" lon="2.471814">
        <ele>768.115</ele>
        <time>2021-05-27T17:25:33Z</time>
      </trkpt>
      <trkpt lat="42.243401" lon="2.471842">
        <ele>768.234</ele>
        <time>2021-05-27T17:25:35Z</time>
      </trkpt>
      <trkpt lat="42.243402" lon="2.471873">
        <ele>768.355</ele>
        <time>2021-05-27T17:25:37Z</time>
      </trkpt>
      <trkpt lat="42.243401" lon="2.471902">
        <ele>768.210</ele>
        <time>2021-05-27T17:25:40Z</time>
      </trkpt>
      <trkpt lat="42.243397" lon="2.471930">
        <ele>767.908</ele>
        <time>2021-05-27T17:25:41Z</time>
      </trkpt>
      <trkpt lat="42.243396" lon="2.471955">
        <ele>767.950</ele>
        <time>2021-05-27T17:25:43Z</time>
      </trkpt>
      <trkpt lat="42.243405" lon="2.471982">
        <ele>768.797</ele>
        <time>2021-05-27T17:25:45Z</time>
      </trkpt>
      <trkpt lat="42.243410" lon="2.472016">
        <ele>769.355</ele>
        <time>2021-05-27T17:25:47Z</time>
      </trkpt>
      <trkpt lat="42.243410" lon="2.472051">
        <ele>769.685</ele>
        <time>2021-05-27T17:25:49Z</time>
      </trkpt>
      <trkpt lat="42.243404" lon="2.472083">
        <ele>769.682</ele>
        <time>2021-05-27T17:25:51Z</time>
      </trkpt>
      <trkpt lat="42.243404" lon="2.472116">
        <ele>769.947</ele>
        <time>2021-05-27T17:25:53Z</time>
      </trkpt>
      <trkpt lat="42.243398" lon="2.472148">
        <ele>769.810</ele>
        <time>2021-05-27T17:25:55Z</time>
      </trkpt>
      <trkpt lat="42.243392" lon="2.472186">
        <ele>769.896</ele>
        <time>2021-05-27T17:25:57Z</time>
      </trkpt>
      <trkpt lat="42.243391" lon="2.472222">
        <ele>770.127</ele>
        <time>2021-05-27T17:25:59Z</time>
      </trkpt>
      <trkpt lat="42.243392" lon="2.472251">
        <ele>770.768</ele>
        <time>2021-05-27T17:26:01Z</time>
      </trkpt>
      <trkpt lat="42.243394" lon="2.472277">
        <ele>771.314</ele>
        <time>2021-05-27T17:26:03Z</time>
      </trkpt>
      <trkpt lat="42.243396" lon="2.472305">
        <ele>771.908</ele>
        <time>2021-05-27T17:26:05Z</time>
      </trkpt>
      <trkpt lat="42.243390" lon="2.472336">
        <ele>772.289</ele>
        <time>2021-05-27T17:26:07Z</time>
      </trkpt>
      <trkpt lat="42.243381" lon="2.472361">
        <ele>772.246</ele>
        <time>2021-05-27T17:26:09Z</time>
      </trkpt>
      <trkpt lat="42.243378" lon="2.472387">
        <ele>772.624</ele>
        <time>2021-05-27T17:26:11Z</time>
      </trkpt>
      <trkpt lat="42.243373" lon="2.472417">
        <ele>772.974</ele>
        <time>2021-05-27T17:26:13Z</time>
      </trkpt>
      <trkpt lat="42.243366" lon="2.472444">
        <ele>773.231</ele>
        <time>2021-05-27T17:26:15Z</time>
      </trkpt>
      <trkpt lat="42.243363" lon="2.472469">
        <ele>773.636</ele>
        <time>2021-05-27T17:26:17Z</time>
      </trkpt>
      <trkpt lat="42.243355" lon="2.472494">
        <ele>773.729</ele>
        <time>2021-05-27T17:26:19Z</time>
      </trkpt>
      <trkpt lat="42.243350" lon="2.472519">
        <ele>774.085</ele>
        <time>2021-05-27T17:26:21Z</time>
      </trkpt>
      <trkpt lat="42.243351" lon="2.472544">
        <ele>774.542</ele>
        <time>2021-05-27T17:26:23Z</time>
      </trkpt>
      <trkpt lat="42.243353" lon="2.472577">
        <ele>775.122</ele>
        <time>2021-05-27T17:26:26Z</time>
      </trkpt>
      <trkpt lat="42.243353" lon="2.472609">
        <ele>775.714</ele>
        <time>2021-05-27T17:26:29Z</time>
      </trkpt>
      <trkpt lat="42.243352" lon="2.472648">
        <ele>776.308</ele>
        <time>2021-05-27T17:26:32Z</time>
      </trkpt>
      <trkpt lat="42.243352" lon="2.472677">
        <ele>776.811</ele>
        <time>2021-05-27T17:26:34Z</time>
      </trkpt>
      <trkpt lat="42.243356" lon="2.472701">
        <ele>777.328</ele>
        <time>2021-05-27T17:26:37Z</time>
      </trkpt>
      <trkpt lat="42.243358" lon="2.472731">
        <ele>777.946</ele>
        <time>2021-05-27T17:26:39Z</time>
      </trkpt>
      <trkpt lat="42.243363" lon="2.472761">
        <ele>778.656</ele>
        <time>2021-05-27T17:26:42Z</time>
      </trkpt>
      <trkpt lat="42.243363" lon="2.472793">
        <ele>779.063</ele>
        <time>2021-05-27T17:26:45Z</time>
      </trkpt>
      <trkpt lat="42.243367" lon="2.472825">
        <ele>779.518</ele>
        <time>2021-05-27T17:26:48Z</time>
      </trkpt>
      <trkpt lat="42.243369" lon="2.472851">
        <ele>779.971</ele>
        <time>2021-05-27T17:26:50Z</time>
      </trkpt>
      <trkpt lat="42.243369" lon="2.472884">
        <ele>780.397</ele>
        <time>2021-05-27T17:26:53Z</time>
      </trkpt>
      <trkpt lat="42.243371" lon="2.472910">
        <ele>780.773</ele>
        <time>2021-05-27T17:26:55Z</time>
      </trkpt>
      <trkpt lat="42.243376" lon="2.472935">
        <ele>781.185</ele>
        <time>2021-05-27T17:26:57Z</time>
      </trkpt>
      <trkpt lat="42.243380" lon="2.472971">
        <ele>781.513</ele>
        <time>2021-05-27T17:27:00Z</time>
      </trkpt>
      <trkpt lat="42.243380" lon="2.472996">
        <ele>781.808</ele>
        <time>2021-05-27T17:27:02Z</time>
      </trkpt>
      <trkpt lat="42.243379" lon="2.473033">
        <ele>782.264</ele>
        <time>2021-05-27T17:27:05Z</time>
      </trkpt>
      <trkpt lat="42.243377" lon="2.473059">
        <ele>782.521</ele>
        <time>2021-05-27T17:27:07Z</time>
      </trkpt>
      <trkpt lat="42.243376" lon="2.473086">
        <ele>782.769</ele>
        <time>2021-05-27T17:27:09Z</time>
      </trkpt>
      <trkpt lat="42.243375" lon="2.473114">
        <ele>782.919</ele>
        <time>2021-05-27T17:27:11Z</time>
      </trkpt>
      <trkpt lat="42.243379" lon="2.473143">
        <ele>783.116</ele>
        <time>2021-05-27T17:27:13Z</time>
      </trkpt>
      <trkpt lat="42.243384" lon="2.473172">
        <ele>783.331</ele>
        <time>2021-05-27T17:27:15Z</time>
      </trkpt>
      <trkpt lat="42.243395" lon="2.473200">
        <ele>783.444</ele>
        <time>2021-05-27T17:27:17Z</time>
      </trkpt>
      <trkpt lat="42.243408" lon="2.473225">
        <ele>783.560</ele>
        <time>2021-05-27T17:27:19Z</time>
      </trkpt>
      <trkpt lat="42.243428" lon="2.473245">
        <ele>783.496</ele>
        <time>2021-05-27T17:27:21Z</time>
      </trkpt>
      <trkpt lat="42.243446" lon="2.473267">
        <ele>783.331</ele>
        <time>2021-05-27T17:27:23Z</time>
      </trkpt>
      <trkpt lat="42.243466" lon="2.473282">
        <ele>783.224</ele>
        <time>2021-05-27T17:27:25Z</time>
      </trkpt>
      <trkpt lat="42.243494" lon="2.473291">
        <ele>782.808</ele>
        <time>2021-05-27T17:27:27Z</time>
      </trkpt>
      <trkpt lat="42.243526" lon="2.473296">
        <ele>782.536</ele>
        <time>2021-05-27T17:27:29Z</time>
      </trkpt>
      <trkpt lat="42.243546" lon="2.473296">
        <ele>782.373</ele>
        <time>2021-05-27T17:27:30Z</time>
      </trkpt>
      <trkpt lat="42.243578" lon="2.473307">
        <ele>781.841</ele>
        <time>2021-05-27T17:27:32Z</time>
      </trkpt>
      <trkpt lat="42.243609" lon="2.473319">
        <ele>781.281</ele>
        <time>2021-05-27T17:27:34Z</time>
      </trkpt>
      <trkpt lat="42.243642" lon="2.473313">
        <ele>780.158</ele>
        <time>2021-05-27T17:27:36Z</time>
      </trkpt>
      <trkpt lat="42.243663" lon="2.473303">
        <ele>779.423</ele>
        <time>2021-05-27T17:27:37Z</time>
      </trkpt>
      <trkpt lat="42.243682" lon="2.473291">
        <ele>778.986</ele>
        <time>2021-05-27T17:27:38Z</time>
      </trkpt>
      <trkpt lat="42.243703" lon="2.473277">
        <ele>778.322</ele>
        <time>2021-05-27T17:27:39Z</time>
      </trkpt>
      <trkpt lat="42.243738" lon="2.473275">
        <ele>777.099</ele>
        <time>2021-05-27T17:27:41Z</time>
      </trkpt>
      <trkpt lat="42.243774" lon="2.473265">
        <ele>775.807</ele>
        <time>2021-05-27T17:27:43Z</time>
      </trkpt>
      <trkpt lat="42.243791" lon="2.473255">
        <ele>775.427</ele>
        <time>2021-05-27T17:27:44Z</time>
      </trkpt>
      <trkpt lat="42.243821" lon="2.473228">
        <ele>774.808</ele>
        <time>2021-05-27T17:27:46Z</time>
      </trkpt>
      <trkpt lat="42.243838" lon="2.473204">
        <ele>774.656</ele>
        <time>2021-05-27T17:27:47Z</time>
      </trkpt>
      <trkpt lat="42.243861" lon="2.473172">
        <ele>774.563</ele>
        <time>2021-05-27T17:27:49Z</time>
      </trkpt>
      <trkpt lat="42.243879" lon="2.473156">
        <ele>774.261</ele>
        <time>2021-05-27T17:27:50Z</time>
      </trkpt>
      <trkpt lat="42.243897" lon="2.473145">
        <ele>773.781</ele>
        <time>2021-05-27T17:27:51Z</time>
      </trkpt>
      <trkpt lat="42.243917" lon="2.473130">
        <ele>773.398</ele>
        <time>2021-05-27T17:27:52Z</time>
      </trkpt>
      <trkpt lat="42.243934" lon="2.473115">
        <ele>773.073</ele>
        <time>2021-05-27T17:27:53Z</time>
      </trkpt>
      <trkpt lat="42.243953" lon="2.473097">
        <ele>772.796</ele>
        <time>2021-05-27T17:27:55Z</time>
      </trkpt>
      <trkpt lat="42.243977" lon="2.473082">
        <ele>772.222</ele>
        <time>2021-05-27T17:27:57Z</time>
      </trkpt>
      <trkpt lat="42.244009" lon="2.473067">
        <ele>771.466</ele>
        <time>2021-05-27T17:27:59Z</time>
      </trkpt>
      <trkpt lat="42.244040" lon="2.473057">
        <ele>770.529</ele>
        <time>2021-05-27T17:28:01Z</time>
      </trkpt>
      <trkpt lat="42.244064" lon="2.473049">
        <ele>769.821</ele>
        <time>2021-05-27T17:28:03Z</time>
      </trkpt>
      <trkpt lat="42.244095" lon="2.473037">
        <ele>769.008</ele>
        <time>2021-05-27T17:28:05Z</time>
      </trkpt>
      <trkpt lat="42.244111" lon="2.473025">
        <ele>768.793</ele>
        <time>2021-05-27T17:28:06Z</time>
      </trkpt>
      <trkpt lat="42.244124" lon="2.473008">
        <ele>768.740</ele>
        <time>2021-05-27T17:28:07Z</time>
      </trkpt>
      <trkpt lat="42.244139" lon="2.472992">
        <ele>768.688</ele>
        <time>2021-05-27T17:28:08Z</time>
      </trkpt>
      <trkpt lat="42.244168" lon="2.472976">
        <ele>767.928</ele>
        <time>2021-05-27T17:28:10Z</time>
      </trkpt>
      <trkpt lat="42.244200" lon="2.472956">
        <ele>767.075</ele>
        <time>2021-05-27T17:28:12Z</time>
      </trkpt>
      <trkpt lat="42.244227" lon="2.472936">
        <ele>766.360</ele>
        <time>2021-05-27T17:28:14Z</time>
      </trkpt>
      <trkpt lat="42.244254" lon="2.472932">
        <ele>765.323</ele>
        <time>2021-05-27T17:28:16Z</time>
      </trkpt>
      <trkpt lat="42.244289" lon="2.472928">
        <ele>763.949</ele>
        <time>2021-05-27T17:28:18Z</time>
      </trkpt>
      <trkpt lat="42.244309" lon="2.472913">
        <ele>763.571</ele>
        <time>2021-05-27T17:28:19Z</time>
      </trkpt>
      <trkpt lat="42.244328" lon="2.472903">
        <ele>763.041</ele>
        <time>2021-05-27T17:28:20Z</time>
      </trkpt>
      <trkpt lat="42.244360" lon="2.472895">
        <ele>761.915</ele>
        <time>2021-05-27T17:28:22Z</time>
      </trkpt>
      <trkpt lat="42.244378" lon="2.472884">
        <ele>761.608</ele>
        <time>2021-05-27T17:28:23Z</time>
      </trkpt>
      <trkpt lat="42.244401" lon="2.472865">
        <ele>761.344</ele>
        <time>2021-05-27T17:28:24Z</time>
      </trkpt>
      <trkpt lat="42.244421" lon="2.472851">
        <ele>761.051</ele>
        <time>2021-05-27T17:28:25Z</time>
      </trkpt>
      <trkpt lat="42.244438" lon="2.472839">
        <ele>760.899</ele>
        <time>2021-05-27T17:28:26Z</time>
      </trkpt>
      <trkpt lat="42.244458" lon="2.472824">
        <ele>760.799</ele>
        <time>2021-05-27T17:28:27Z</time>
      </trkpt>
      <trkpt lat="42.244491" lon="2.472804">
        <ele>760.486</ele>
        <time>2021-05-27T17:28:29Z</time>
      </trkpt>
      <trkpt lat="42.244509" lon="2.472799">
        <ele>760.071</ele>
        <time>2021-05-27T17:28:30Z</time>
      </trkpt>
      <trkpt lat="42.244529" lon="2.472797">
        <ele>759.434</ele>
        <time>2021-05-27T17:28:31Z</time>
      </trkpt>
      <trkpt lat="42.244561" lon="2.472780">
        <ele>759.190</ele>
        <time>2021-05-27T17:28:33Z</time>
      </trkpt>
      <trkpt lat="42.244589" lon="2.472767">
        <ele>758.712</ele>
        <time>2021-05-27T17:28:35Z</time>
      </trkpt>
      <trkpt lat="42.244623" lon="2.472759">
        <ele>757.832</ele>
        <time>2021-05-27T17:28:37Z</time>
      </trkpt>
      <trkpt lat="42.244661" lon="2.472759">
        <ele>756.605</ele>
        <time>2021-05-27T17:28:39Z</time>
      </trkpt>
      <trkpt lat="42.244679" lon="2.472760">
        <ele>756.008</ele>
        <time>2021-05-27T17:28:40Z</time>
      </trkpt>
      <trkpt lat="42.244699" lon="2.472756">
        <ele>755.578</ele>
        <time>2021-05-27T17:28:41Z</time>
      </trkpt>
      <trkpt lat="42.244719" lon="2.472752">
        <ele>755.035</ele>
        <time>2021-05-27T17:28:42Z</time>
      </trkpt>
      <trkpt lat="42.244740" lon="2.472754">
        <ele>754.793</ele>
        <time>2021-05-27T17:28:43Z</time>
      </trkpt>
      <trkpt lat="42.244779" lon="2.472761">
        <ele>754.223</ele>
        <time>2021-05-27T17:28:45Z</time>
      </trkpt>
      <trkpt lat="42.244798" lon="2.472762">
        <ele>754.180</ele>
        <time>2021-05-27T17:28:46Z</time>
      </trkpt>
      <trkpt lat="42.244830" lon="2.472765">
        <ele>753.775</ele>
        <time>2021-05-27T17:28:48Z</time>
      </trkpt>
      <trkpt lat="42.244849" lon="2.472772">
        <ele>753.378</ele>
        <time>2021-05-27T17:28:49Z</time>
      </trkpt>
      <trkpt lat="42.244868" lon="2.472780">
        <ele>752.834</ele>
        <time>2021-05-27T17:28:50Z</time>
      </trkpt>
      <trkpt lat="42.244902" lon="2.472787">
        <ele>752.217</ele>
        <time>2021-05-27T17:28:52Z</time>
      </trkpt>
      <trkpt lat="42.244938" lon="2.472801">
        <ele>751.087</ele>
        <time>2021-05-27T17:28:54Z</time>
      </trkpt>
      <trkpt lat="42.244959" lon="2.472804">
        <ele>750.715</ele>
        <time>2021-05-27T17:28:55Z</time>
      </trkpt>
      <trkpt lat="42.244994" lon="2.472816">
        <ele>749.608</ele>
        <time>2021-05-27T17:28:57Z</time>
      </trkpt>
      <trkpt lat="42.245019" lon="2.472816">
        <ele>749.298</ele>
        <time>2021-05-27T17:28:59Z</time>
      </trkpt>
      <trkpt lat="42.245040" lon="2.472813">
        <ele>749.075</ele>
        <time>2021-05-27T17:29:00Z</time>
      </trkpt>
      <trkpt lat="42.245058" lon="2.472805">
        <ele>749.273</ele>
        <time>2021-05-27T17:29:01Z</time>
      </trkpt>
      <trkpt lat="42.245095" lon="2.472791">
        <ele>749.543</ele>
        <time>2021-05-27T17:29:03Z</time>
      </trkpt>
      <trkpt lat="42.245129" lon="2.472798">
        <ele>748.460</ele>
        <time>2021-05-27T17:29:05Z</time>
      </trkpt>
      <trkpt lat="42.245147" lon="2.472797">
        <ele>748.285</ele>
        <time>2021-05-27T17:29:06Z</time>
      </trkpt>
      <trkpt lat="42.245166" lon="2.472791">
        <ele>748.268</ele>
        <time>2021-05-27T17:29:07Z</time>
      </trkpt>
      <trkpt lat="42.245198" lon="2.472791">
        <ele>747.654</ele>
        <time>2021-05-27T17:29:09Z</time>
      </trkpt>
      <trkpt lat="42.245223" lon="2.472784">
        <ele>747.626</ele>
        <time>2021-05-27T17:29:11Z</time>
      </trkpt>
      <trkpt lat="42.245249" lon="2.472776">
        <ele>747.647</ele>
        <time>2021-05-27T17:29:13Z</time>
      </trkpt>
      <trkpt lat="42.245266" lon="2.472771">
        <ele>747.611</ele>
        <time>2021-05-27T17:29:14Z</time>
      </trkpt>
      <trkpt lat="42.245296" lon="2.472763">
        <ele>747.708</ele>
        <time>2021-05-27T17:29:16Z</time>
      </trkpt>
      <trkpt lat="42.245330" lon="2.472760">
        <ele>747.799</ele>
        <time>2021-05-27T17:29:18Z</time>
      </trkpt>
      <trkpt lat="42.245358" lon="2.472750">
        <ele>748.086</ele>
        <time>2021-05-27T17:29:20Z</time>
      </trkpt>
      <trkpt lat="42.245387" lon="2.472750">
        <ele>747.954</ele>
        <time>2021-05-27T17:29:22Z</time>
      </trkpt>
      <trkpt lat="42.245406" lon="2.472757">
        <ele>747.434</ele>
        <time>2021-05-27T17:29:23Z</time>
      </trkpt>
      <trkpt lat="42.245424" lon="2.472768">
        <ele>746.991</ele>
        <time>2021-05-27T17:29:24Z</time>
      </trkpt>
      <trkpt lat="42.245461" lon="2.472799">
        <ele>745.156</ele>
        <time>2021-05-27T17:29:26Z</time>
      </trkpt>
      <trkpt lat="42.245480" lon="2.472805">
        <ele>744.799</ele>
        <time>2021-05-27T17:29:27Z</time>
      </trkpt>
      <trkpt lat="42.245507" lon="2.472816">
        <ele>744.065</ele>
        <time>2021-05-27T17:29:28Z</time>
      </trkpt>
      <trkpt lat="42.245529" lon="2.472829">
        <ele>743.185</ele>
        <time>2021-05-27T17:29:29Z</time>
      </trkpt>
      <trkpt lat="42.245554" lon="2.472835">
        <ele>742.789</ele>
        <time>2021-05-27T17:29:31Z</time>
      </trkpt>
      <trkpt lat="42.245576" lon="2.472849">
        <ele>741.517</ele>
        <time>2021-05-27T17:29:33Z</time>
      </trkpt>
      <trkpt lat="42.245607" lon="2.472852">
        <ele>740.708</ele>
        <time>2021-05-27T17:29:35Z</time>
      </trkpt>
      <trkpt lat="42.245626" lon="2.472857">
        <ele>740.075</ele>
        <time>2021-05-27T17:29:36Z</time>
      </trkpt>
      <trkpt lat="42.245645" lon="2.472860">
        <ele>739.542</ele>
        <time>2021-05-27T17:29:37Z</time>
      </trkpt>
      <trkpt lat="42.245681" lon="2.472864">
        <ele>738.640</ele>
        <time>2021-05-27T17:29:39Z</time>
      </trkpt>
      <trkpt lat="42.245708" lon="2.472854">
        <ele>738.570</ele>
        <time>2021-05-27T17:29:40Z</time>
      </trkpt>
      <trkpt lat="42.245734" lon="2.472843">
        <ele>738.567</ele>
        <time>2021-05-27T17:29:41Z</time>
      </trkpt>
      <trkpt lat="42.245762" lon="2.472826">
        <ele>738.782</ele>
        <time>2021-05-27T17:29:42Z</time>
      </trkpt>
      <trkpt lat="42.245789" lon="2.472811">
        <ele>738.755</ele>
        <time>2021-05-27T17:29:43Z</time>
      </trkpt>
      <trkpt lat="42.245817" lon="2.472799">
        <ele>738.541</ele>
        <time>2021-05-27T17:29:44Z</time>
      </trkpt>
      <trkpt lat="42.245839" lon="2.472785">
        <ele>738.421</ele>
        <time>2021-05-27T17:29:45Z</time>
      </trkpt>
      <trkpt lat="42.245857" lon="2.472766">
        <ele>738.241</ele>
        <time>2021-05-27T17:29:47Z</time>
      </trkpt>
      <trkpt lat="42.245904" lon="2.472749">
        <ele>736.305</ele>
        <time>2021-05-27T17:29:48Z</time>
      </trkpt>
      <trkpt lat="42.245920" lon="2.472734">
        <ele>736.008</ele>
        <time>2021-05-27T17:29:49Z</time>
      </trkpt>
      <trkpt lat="42.245941" lon="2.472707">
        <ele>735.939</ele>
        <time>2021-05-27T17:29:50Z</time>
      </trkpt>
      <trkpt lat="42.245963" lon="2.472676">
        <ele>736.036</ele>
        <time>2021-05-27T17:29:51Z</time>
      </trkpt>
      <trkpt lat="42.245981" lon="2.472648">
        <ele>736.274</ele>
        <time>2021-05-27T17:29:52Z</time>
      </trkpt>
      <trkpt lat="42.246000" lon="2.472626">
        <ele>736.194</ele>
        <time>2021-05-27T17:29:53Z</time>
      </trkpt>
      <trkpt lat="42.246014" lon="2.472608">
        <ele>736.211</ele>
        <time>2021-05-27T17:29:54Z</time>
      </trkpt>
      <trkpt lat="42.246029" lon="2.472589">
        <ele>736.296</ele>
        <time>2021-05-27T17:29:55Z</time>
      </trkpt>
      <trkpt lat="42.246056" lon="2.472563">
        <ele>735.969</ele>
        <time>2021-05-27T17:29:57Z</time>
      </trkpt>
      <trkpt lat="42.246076" lon="2.472542">
        <ele>735.925</ele>
        <time>2021-05-27T17:29:58Z</time>
      </trkpt>
      <trkpt lat="42.246091" lon="2.472522">
        <ele>736.012</ele>
        <time>2021-05-27T17:29:59Z</time>
      </trkpt>
      <trkpt lat="42.246160" lon="2.472444">
        <ele>735.532</ele>
        <time>2021-05-27T17:30:02Z</time>
      </trkpt>
      <trkpt lat="42.246251" lon="2.472392">
        <ele>732.405</ele>
        <time>2021-05-27T17:30:06Z</time>
      </trkpt>
      <trkpt lat="42.246334" lon="2.472319">
        <ele>730.208</ele>
        <time>2021-05-27T17:30:14Z</time>
      </trkpt>
      <trkpt lat="42.246409" lon="2.472209">
        <ele>728.698</ele>
        <time>2021-05-27T17:30:20Z</time>
      </trkpt>
      <trkpt lat="42.246457" lon="2.472102">
        <ele>726.155</ele>
        <time>2021-05-27T17:30:25Z</time>
      </trkpt>
      <trkpt lat="42.246524" lon="2.472014">
        <ele>722.053</ele>
        <time>2021-05-27T17:30:33Z</time>
      </trkpt>
      <trkpt lat="42.246563" lon="2.471904">
        <ele>720.353</ele>
        <time>2021-05-27T17:30:39Z</time>
      </trkpt>
      <trkpt lat="42.246607" lon="2.471794">
        <ele>718.890</ele>
        <time>2021-05-27T17:30:44Z</time>
      </trkpt>
      <trkpt lat="42.246620" lon="2.471700">
        <ele>719.395</ele>
        <time>2021-05-27T17:30:49Z</time>
      </trkpt>
      <trkpt lat="42.246657" lon="2.471581">
        <ele>718.898</ele>
        <time>2021-05-27T17:30:55Z</time>
      </trkpt>
      <trkpt lat="42.246756" lon="2.471423">
        <ele>716.984</ele>
        <time>2021-05-27T17:31:00Z</time>
      </trkpt>
      <trkpt lat="42.246818" lon="2.471316">
        <ele>716.318</ele>
        <time>2021-05-27T17:31:05Z</time>
      </trkpt>
      <trkpt lat="42.246900" lon="2.471248">
        <ele>714.098</ele>
        <time>2021-05-27T17:31:10Z</time>
      </trkpt>
      <trkpt lat="42.246953" lon="2.471129">
        <ele>713.417</ele>
        <time>2021-05-27T17:31:16Z</time>
      </trkpt>
      <trkpt lat="42.247012" lon="2.471022">
        <ele>712.908</ele>
        <time>2021-05-27T17:31:22Z</time>
      </trkpt>
      <trkpt lat="42.247080" lon="2.470940">
        <ele>710.898</ele>
        <time>2021-05-27T17:31:28Z</time>
      </trkpt>
      <trkpt lat="42.247152" lon="2.470846">
        <ele>707.975</ele>
        <time>2021-05-27T17:31:34Z</time>
      </trkpt>
      <trkpt lat="42.247216" lon="2.470756">
        <ele>704.693</ele>
        <time>2021-05-27T17:31:45Z</time>
      </trkpt>
      <trkpt lat="42.247293" lon="2.470661">
        <ele>701.923</ele>
        <time>2021-05-27T17:31:51Z</time>
      </trkpt>
      <trkpt lat="42.247361" lon="2.470552">
        <ele>699.010</ele>
        <time>2021-05-27T17:31:57Z</time>
      </trkpt>
      <trkpt lat="42.247417" lon="2.470454">
        <ele>696.835</ele>
        <time>2021-05-27T17:32:00Z</time>
      </trkpt>
      <trkpt lat="42.247469" lon="2.470346">
        <ele>694.088</ele>
        <time>2021-05-27T17:32:07Z</time>
      </trkpt>
      <trkpt lat="42.247530" lon="2.470237">
        <ele>690.824</ele>
        <time>2021-05-27T17:32:13Z</time>
      </trkpt>
      <trkpt lat="42.247545" lon="2.470116">
        <ele>690.918</ele>
        <time>2021-05-27T17:32:18Z</time>
      </trkpt>
      <trkpt lat="42.247593" lon="2.470009">
        <ele>688.698</ele>
        <time>2021-05-27T17:32:24Z</time>
      </trkpt>
      <trkpt lat="42.247645" lon="2.469893">
        <ele>686.017</ele>
        <time>2021-05-27T17:32:30Z</time>
      </trkpt>
      <trkpt lat="42.247661" lon="2.469763">
        <ele>686.108</ele>
        <time>2021-05-27T17:32:39Z</time>
      </trkpt>
      <trkpt lat="42.247696" lon="2.469648">
        <ele>684.648</ele>
        <time>2021-05-27T17:32:45Z</time>
      </trkpt>
      <trkpt lat="42.247742" lon="2.469526">
        <ele>682.685</ele>
        <time>2021-05-27T17:32:51Z</time>
      </trkpt>
      <trkpt lat="42.247751" lon="2.469469">
        <ele>682.623</ele>
        <time>2021-05-27T17:32:54Z</time>
      </trkpt>
      <trkpt lat="42.247773" lon="2.469416">
        <ele>681.683</ele>
        <time>2021-05-27T17:32:56Z</time>
      </trkpt>
      <trkpt lat="42.247798" lon="2.469380">
        <ele>680.550</ele>
        <time>2021-05-27T17:32:58Z</time>
      </trkpt>
      <trkpt lat="42.247809" lon="2.469361">
        <ele>680.095</ele>
        <time>2021-05-27T17:32:59Z</time>
      </trkpt>
      <trkpt lat="42.247848" lon="2.469232">
        <ele>679.218</ele>
        <time>2021-05-27T17:33:05Z</time>
      </trkpt>
      <trkpt lat="42.247853" lon="2.469087">
        <ele>681.024</ele>
        <time>2021-05-27T17:33:10Z</time>
      </trkpt>
      <trkpt lat="42.247869" lon="2.468948">
        <ele>682.423</ele>
        <time>2021-05-27T17:33:16Z</time>
      </trkpt>
      <trkpt lat="42.247916" lon="2.468824">
        <ele>683.583</ele>
        <time>2021-05-27T17:33:21Z</time>
      </trkpt>
      <trkpt lat="42.247944" lon="2.468692">
        <ele>687.011</ele>
        <time>2021-05-27T17:33:28Z</time>
      </trkpt>
      <trkpt lat="42.248006" lon="2.468594">
        <ele>687.108</ele>
        <time>2021-05-27T17:33:35Z</time>
      </trkpt>
      <trkpt lat="42.248067" lon="2.468497">
        <ele>686.339</ele>
        <time>2021-05-27T17:33:44Z</time>
      </trkpt>
      <trkpt lat="42.248120" lon="2.468389">
        <ele>686.386</ele>
        <time>2021-05-27T17:33:50Z</time>
      </trkpt>
      <trkpt lat="42.248184" lon="2.468296">
        <ele>685.984</ele>
        <time>2021-05-27T17:33:56Z</time>
      </trkpt>
      <trkpt lat="42.248238" lon="2.468196">
        <ele>687.124</ele>
        <time>2021-05-27T17:34:03Z</time>
      </trkpt>
      <trkpt lat="42.248259" lon="2.468172">
        <ele>687.171</ele>
        <time>2021-05-27T17:34:05Z</time>
      </trkpt>
      <trkpt lat="42.248310" lon="2.468142">
        <ele>686.246</ele>
        <time>2021-05-27T17:34:08Z</time>
      </trkpt>
      <trkpt lat="42.248340" lon="2.468123">
        <ele>685.969</ele>
        <time>2021-05-27T17:34:10Z</time>
      </trkpt>
      <trkpt lat="42.248356" lon="2.468113">
        <ele>686.035</ele>
        <time>2021-05-27T17:34:11Z</time>
      </trkpt>
      <trkpt lat="42.248396" lon="2.468087">
        <ele>686.282</ele>
        <time>2021-05-27T17:34:13Z</time>
      </trkpt>
      <trkpt lat="42.248417" lon="2.468076">
        <ele>686.243</ele>
        <time>2021-05-27T17:34:14Z</time>
      </trkpt>
      <trkpt lat="42.248456" lon="2.468053">
        <ele>686.517</ele>
        <time>2021-05-27T17:34:16Z</time>
      </trkpt>
      <trkpt lat="42.248479" lon="2.468031">
        <ele>686.808</ele>
        <time>2021-05-27T17:34:17Z</time>
      </trkpt>
      <trkpt lat="42.248500" lon="2.468018">
        <ele>686.815</ele>
        <time>2021-05-27T17:34:18Z</time>
      </trkpt>
      <trkpt lat="42.248524" lon="2.468007">
        <ele>686.642</ele>
        <time>2021-05-27T17:34:19Z</time>
      </trkpt>
      <trkpt lat="42.248545" lon="2.467996">
        <ele>686.460</ele>
        <time>2021-05-27T17:34:20Z</time>
      </trkpt>
      <trkpt lat="42.248562" lon="2.467986">
        <ele>686.390</ele>
        <time>2021-05-27T17:34:21Z</time>
      </trkpt>
      <trkpt lat="42.248652" lon="2.467923">
        <ele>685.137</ele>
        <time>2021-05-27T17:34:26Z</time>
      </trkpt>
      <trkpt lat="42.248726" lon="2.467836">
        <ele>684.122</ele>
        <time>2021-05-27T17:34:32Z</time>
      </trkpt>
      <trkpt lat="42.248803" lon="2.467755">
        <ele>682.385</ele>
        <time>2021-05-27T17:34:36Z</time>
      </trkpt>
      <trkpt lat="42.248859" lon="2.467650">
        <ele>680.811</ele>
        <time>2021-05-27T17:34:41Z</time>
      </trkpt>
      <trkpt lat="42.248871" lon="2.467628">
        <ele>680.529</ele>
        <time>2021-05-27T17:34:42Z</time>
      </trkpt>
      <trkpt lat="42.248918" lon="2.467513">
        <ele>679.700</ele>
        <time>2021-05-27T17:34:47Z</time>
      </trkpt>
      <trkpt lat="42.248935" lon="2.467460">
        <ele>679.320</ele>
        <time>2021-05-27T17:34:49Z</time>
      </trkpt>
      <trkpt lat="42.248941" lon="2.467434">
        <ele>679.208</ele>
        <time>2021-05-27T17:34:50Z</time>
      </trkpt>
      <trkpt lat="42.248950" lon="2.467409">
        <ele>679.019</ele>
        <time>2021-05-27T17:34:51Z</time>
      </trkpt>
      <trkpt lat="42.248954" lon="2.467357">
        <ele>679.166</ele>
        <time>2021-05-27T17:34:53Z</time>
      </trkpt>
      <trkpt lat="42.248965" lon="2.467325">
        <ele>678.844</ele>
        <time>2021-05-27T17:34:54Z</time>
      </trkpt>
      <trkpt lat="42.248967" lon="2.467295">
        <ele>678.924</ele>
        <time>2021-05-27T17:34:55Z</time>
      </trkpt>
      <trkpt lat="42.248972" lon="2.467269">
        <ele>678.831</ele>
        <time>2021-05-27T17:34:56Z</time>
      </trkpt>
      <trkpt lat="42.248976" lon="2.467242">
        <ele>678.886</ele>
        <time>2021-05-27T17:34:57Z</time>
      </trkpt>
      <trkpt lat="42.248978" lon="2.467199">
        <ele>678.829</ele>
        <time>2021-05-27T17:34:59Z</time>
      </trkpt>
      <trkpt lat="42.248985" lon="2.467174">
        <ele>678.525</ele>
        <time>2021-05-27T17:35:00Z</time>
      </trkpt>
      <trkpt lat="42.248995" lon="2.467135">
        <ele>678.291</ele>
        <time>2021-05-27T17:35:02Z</time>
      </trkpt>
      <trkpt lat="42.249000" lon="2.467002">
        <ele>678.081</ele>
        <time>2021-05-27T17:35:07Z</time>
      </trkpt>
      <trkpt lat="42.248992" lon="2.466860">
        <ele>677.619</ele>
        <time>2021-05-27T17:35:12Z</time>
      </trkpt>
      <trkpt lat="42.248990" lon="2.466730">
        <ele>676.708</ele>
        <time>2021-05-27T17:35:18Z</time>
      </trkpt>
      <trkpt lat="42.248989" lon="2.466681">
        <ele>676.416</ele>
        <time>2021-05-27T17:35:20Z</time>
      </trkpt>
      <trkpt lat="42.248986" lon="2.466633">
        <ele>676.463</ele>
        <time>2021-05-27T17:35:22Z</time>
      </trkpt>
      <trkpt lat="42.248992" lon="2.466509">
        <ele>676.091</ele>
        <time>2021-05-27T17:35:27Z</time>
      </trkpt>
      <trkpt lat="42.248992" lon="2.466456">
        <ele>676.031</ele>
        <time>2021-05-27T17:35:29Z</time>
      </trkpt>
      <trkpt lat="42.248993" lon="2.466314">
        <ele>675.598</ele>
        <time>2021-05-27T17:35:35Z</time>
      </trkpt>
      <trkpt lat="42.249011" lon="2.466180">
        <ele>674.123</ele>
        <time>2021-05-27T17:35:40Z</time>
      </trkpt>
      <trkpt lat="42.249030" lon="2.466023">
        <ele>673.276</ele>
        <time>2021-05-27T17:35:45Z</time>
      </trkpt>
      <trkpt lat="42.249023" lon="2.465897">
        <ele>674.012</ele>
        <time>2021-05-27T17:35:50Z</time>
      </trkpt>
      <trkpt lat="42.249004" lon="2.465765">
        <ele>677.049</ele>
        <time>2021-05-27T17:35:58Z</time>
      </trkpt>
      <trkpt lat="42.249014" lon="2.465637">
        <ele>680.202</ele>
        <time>2021-05-27T17:36:05Z</time>
      </trkpt>
      <trkpt lat="42.249075" lon="2.465522">
        <ele>681.022</ele>
        <time>2021-05-27T17:36:10Z</time>
      </trkpt>
      <trkpt lat="42.249142" lon="2.465441">
        <ele>679.808</ele>
        <time>2021-05-27T17:36:14Z</time>
      </trkpt>
      <trkpt lat="42.249173" lon="2.465392">
        <ele>679.081</ele>
        <time>2021-05-27T17:36:18Z</time>
      </trkpt>
      <trkpt lat="42.249210" lon="2.465277">
        <ele>678.358</ele>
        <time>2021-05-27T17:36:24Z</time>
      </trkpt>
      <trkpt lat="42.249234" lon="2.465148">
        <ele>675.616</ele>
        <time>2021-05-27T17:36:29Z</time>
      </trkpt>
      <trkpt lat="42.249264" lon="2.465029">
        <ele>672.716</ele>
        <time>2021-05-27T17:36:33Z</time>
      </trkpt>
      <trkpt lat="42.249268" lon="2.464905">
        <ele>672.163</ele>
        <time>2021-05-27T17:36:37Z</time>
      </trkpt>
      <trkpt lat="42.249212" lon="2.464778">
        <ele>674.978</ele>
        <time>2021-05-27T17:36:42Z</time>
      </trkpt>
      <trkpt lat="42.249196" lon="2.464667">
        <ele>675.871</ele>
        <time>2021-05-27T17:36:48Z</time>
      </trkpt>
      <trkpt lat="42.249192" lon="2.464630">
        <ele>676.277</ele>
        <time>2021-05-27T17:36:49Z</time>
      </trkpt>
      <trkpt lat="42.249167" lon="2.464508">
        <ele>677.894</ele>
        <time>2021-05-27T17:36:55Z</time>
      </trkpt>
      <trkpt lat="42.249157" lon="2.464386">
        <ele>680.057</ele>
        <time>2021-05-27T17:37:01Z</time>
      </trkpt>
      <trkpt lat="42.249117" lon="2.464269">
        <ele>684.722</ele>
        <time>2021-05-27T17:37:05Z</time>
      </trkpt>
      <trkpt lat="42.249097" lon="2.464138">
        <ele>688.508</ele>
        <time>2021-05-27T17:37:12Z</time>
      </trkpt>
      <trkpt lat="42.249151" lon="2.464029">
        <ele>689.186</ele>
        <time>2021-05-27T17:37:20Z</time>
      </trkpt>
      <trkpt lat="42.249210" lon="2.463940">
        <ele>689.893</ele>
        <time>2021-05-27T17:37:26Z</time>
      </trkpt>
      <trkpt lat="42.249261" lon="2.463902">
        <ele>689.911</ele>
        <time>2021-05-27T17:37:29Z</time>
      </trkpt>
      <trkpt lat="42.249279" lon="2.463890">
        <ele>689.971</ele>
        <time>2021-05-27T17:37:30Z</time>
      </trkpt>
      <trkpt lat="42.249298" lon="2.463880">
        <ele>690.018</ele>
        <time>2021-05-27T17:37:31Z</time>
      </trkpt>
      <trkpt lat="42.249325" lon="2.463872">
        <ele>690.063</ele>
        <time>2021-05-27T17:37:32Z</time>
      </trkpt>
      <trkpt lat="42.249342" lon="2.463863">
        <ele>690.196</ele>
        <time>2021-05-27T17:37:33Z</time>
      </trkpt>
      <trkpt lat="42.249380" lon="2.463847">
        <ele>690.382</ele>
        <time>2021-05-27T17:37:35Z</time>
      </trkpt>
      <trkpt lat="42.249405" lon="2.463842">
        <ele>690.192</ele>
        <time>2021-05-27T17:37:36Z</time>
      </trkpt>
      <trkpt lat="42.249424" lon="2.463840">
        <ele>690.073</ele>
        <time>2021-05-27T17:37:37Z</time>
      </trkpt>
      <trkpt lat="42.249444" lon="2.463832">
        <ele>690.120</ele>
        <time>2021-05-27T17:37:38Z</time>
      </trkpt>
      <trkpt lat="42.249465" lon="2.463830">
        <ele>690.008</ele>
        <time>2021-05-27T17:37:39Z</time>
      </trkpt>
      <trkpt lat="42.249490" lon="2.463827">
        <ele>690.066</ele>
        <time>2021-05-27T17:37:40Z</time>
      </trkpt>
      <trkpt lat="42.249510" lon="2.463826">
        <ele>689.983</ele>
        <time>2021-05-27T17:37:42Z</time>
      </trkpt>
      <trkpt lat="42.249543" lon="2.463822">
        <ele>689.951</ele>
        <time>2021-05-27T17:37:44Z</time>
      </trkpt>
      <trkpt lat="42.249599" lon="2.463821">
        <ele>689.631</ele>
        <time>2021-05-27T17:37:46Z</time>
      </trkpt>
      <trkpt lat="42.249618" lon="2.463812">
        <ele>689.818</ele>
        <time>2021-05-27T17:37:47Z</time>
      </trkpt>
      <trkpt lat="42.249638" lon="2.463809">
        <ele>689.833</ele>
        <time>2021-05-27T17:37:48Z</time>
      </trkpt>
      <trkpt lat="42.249660" lon="2.463805">
        <ele>689.866</ele>
        <time>2021-05-27T17:37:49Z</time>
      </trkpt>
      <trkpt lat="42.249678" lon="2.463802">
        <ele>689.892</ele>
        <time>2021-05-27T17:37:50Z</time>
      </trkpt>
      <trkpt lat="42.249697" lon="2.463797">
        <ele>689.924</ele>
        <time>2021-05-27T17:37:51Z</time>
      </trkpt>
      <trkpt lat="42.249715" lon="2.463792">
        <ele>689.904</ele>
        <time>2021-05-27T17:37:52Z</time>
      </trkpt>
      <trkpt lat="42.249734" lon="2.463782">
        <ele>689.914</ele>
        <time>2021-05-27T17:37:53Z</time>
      </trkpt>
      <trkpt lat="42.249763" lon="2.463755">
        <ele>689.908</ele>
        <time>2021-05-27T17:37:54Z</time>
      </trkpt>
      <trkpt lat="42.249786" lon="2.463736">
        <ele>689.869</ele>
        <time>2021-05-27T17:37:55Z</time>
      </trkpt>
      <trkpt lat="42.249813" lon="2.463711">
        <ele>689.556</ele>
        <time>2021-05-27T17:37:56Z</time>
      </trkpt>
      <trkpt lat="42.249836" lon="2.463690">
        <ele>689.254</ele>
        <time>2021-05-27T17:37:57Z</time>
      </trkpt>
      <trkpt lat="42.249858" lon="2.463667">
        <ele>688.814</ele>
        <time>2021-05-27T17:37:58Z</time>
      </trkpt>
      <trkpt lat="42.249875" lon="2.463647">
        <ele>688.511</ele>
        <time>2021-05-27T17:37:59Z</time>
      </trkpt>
      <trkpt lat="42.249894" lon="2.463598">
        <ele>688.366</ele>
        <time>2021-05-27T17:38:01Z</time>
      </trkpt>
      <trkpt lat="42.249903" lon="2.463571">
        <ele>687.929</ele>
        <time>2021-05-27T17:38:02Z</time>
      </trkpt>
      <trkpt lat="42.249974" lon="2.463484">
        <ele>684.055</ele>
        <time>2021-05-27T17:38:05Z</time>
      </trkpt>
      <trkpt lat="42.249993" lon="2.463363">
        <ele>682.568</ele>
        <time>2021-05-27T17:38:11Z</time>
      </trkpt>
      <trkpt lat="42.250039" lon="2.463236">
        <ele>679.742</ele>
        <time>2021-05-27T17:38:16Z</time>
      </trkpt>
      <trkpt lat="42.250048" lon="2.463145">
        <ele>679.226</ele>
        <time>2021-05-27T17:38:20Z</time>
      </trkpt>
      <trkpt lat="42.250071" lon="2.463013">
        <ele>677.908</ele>
        <time>2021-05-27T17:38:25Z</time>
      </trkpt>
      <trkpt lat="42.250072" lon="2.462875">
        <ele>677.913</ele>
        <time>2021-05-27T17:38:30Z</time>
      </trkpt>
      <trkpt lat="42.250065" lon="2.462749">
        <ele>678.550</ele>
        <time>2021-05-27T17:38:35Z</time>
      </trkpt>
      <trkpt lat="42.250069" lon="2.462620">
        <ele>679.638</ele>
        <time>2021-05-27T17:38:40Z</time>
      </trkpt>
      <trkpt lat="42.250050" lon="2.462498">
        <ele>681.418</ele>
        <time>2021-05-27T17:38:44Z</time>
      </trkpt>
      <trkpt lat="42.250020" lon="2.462370">
        <ele>684.435</ele>
        <time>2021-05-27T17:38:51Z</time>
      </trkpt>
      <trkpt lat="42.250052" lon="2.462247">
        <ele>685.880</ele>
        <time>2021-05-27T17:39:00Z</time>
      </trkpt>
      <trkpt lat="42.250129" lon="2.462171">
        <ele>686.653</ele>
        <time>2021-05-27T17:39:07Z</time>
      </trkpt>
      <trkpt lat="42.250228" lon="2.462153">
        <ele>685.969</ele>
        <time>2021-05-27T17:39:13Z</time>
      </trkpt>
      <trkpt lat="42.250335" lon="2.462114">
        <ele>684.744</ele>
        <time>2021-05-27T17:39:19Z</time>
      </trkpt>
      <trkpt lat="42.250420" lon="2.462052">
        <ele>683.805</ele>
        <time>2021-05-27T17:39:22Z</time>
      </trkpt>
      <trkpt lat="42.250514" lon="2.461991">
        <ele>682.315</ele>
        <time>2021-05-27T17:39:27Z</time>
      </trkpt>
      <trkpt lat="42.250590" lon="2.461904">
        <ele>681.408</ele>
        <time>2021-05-27T17:39:32Z</time>
      </trkpt>
      <trkpt lat="42.250648" lon="2.461791">
        <ele>681.961</ele>
        <time>2021-05-27T17:39:38Z</time>
      </trkpt>
      <trkpt lat="42.250688" lon="2.461702">
        <ele>682.718</ele>
        <time>2021-05-27T17:39:43Z</time>
      </trkpt>
      <trkpt lat="42.250754" lon="2.461598">
        <ele>683.076</ele>
        <time>2021-05-27T17:39:49Z</time>
      </trkpt>
      <trkpt lat="42.250832" lon="2.461509">
        <ele>682.646</ele>
        <time>2021-05-27T17:39:54Z</time>
      </trkpt>
      <trkpt lat="42.250905" lon="2.461414">
        <ele>683.513</ele>
        <time>2021-05-27T17:40:01Z</time>
      </trkpt>
      <trkpt lat="42.250997" lon="2.461325">
        <ele>684.028</ele>
        <time>2021-05-27T17:40:06Z</time>
      </trkpt>
      <trkpt lat="42.251011" lon="2.461309">
        <ele>684.251</ele>
        <time>2021-05-27T17:40:07Z</time>
      </trkpt>
      <trkpt lat="42.251087" lon="2.461233">
        <ele>685.117</ele>
        <time>2021-05-27T17:40:14Z</time>
      </trkpt>
      <trkpt lat="42.251115" lon="2.461220">
        <ele>685.159</ele>
        <time>2021-05-27T17:40:15Z</time>
      </trkpt>
      <trkpt lat="42.251139" lon="2.461215">
        <ele>685.603</ele>
        <time>2021-05-27T17:40:17Z</time>
      </trkpt>
      <trkpt lat="42.251174" lon="2.461218">
        <ele>686.023</ele>
        <time>2021-05-27T17:40:19Z</time>
      </trkpt>
      <trkpt lat="42.251206" lon="2.461238">
        <ele>685.708</ele>
        <time>2021-05-27T17:40:21Z</time>
      </trkpt>
      <trkpt lat="42.251237" lon="2.461256">
        <ele>685.652</ele>
        <time>2021-05-27T17:40:23Z</time>
      </trkpt>
      <trkpt lat="42.251268" lon="2.461278">
        <ele>685.519</ele>
        <time>2021-05-27T17:40:25Z</time>
      </trkpt>
      <trkpt lat="42.251285" lon="2.461288">
        <ele>685.557</ele>
        <time>2021-05-27T17:40:26Z</time>
      </trkpt>
      <trkpt lat="42.251311" lon="2.461309">
        <ele>685.487</ele>
        <time>2021-05-27T17:40:28Z</time>
      </trkpt>
      <trkpt lat="42.251329" lon="2.461329">
        <ele>685.254</ele>
        <time>2021-05-27T17:40:29Z</time>
      </trkpt>
      <trkpt lat="42.251354" lon="2.461362">
        <ele>684.979</ele>
        <time>2021-05-27T17:40:31Z</time>
      </trkpt>
      <trkpt lat="42.251368" lon="2.461381">
        <ele>684.782</ele>
        <time>2021-05-27T17:40:33Z</time>
      </trkpt>
      <trkpt lat="42.251393" lon="2.461417">
        <ele>684.178</ele>
        <time>2021-05-27T17:40:34Z</time>
      </trkpt>
      <trkpt lat="42.251416" lon="2.461451">
        <ele>683.253</ele>
        <time>2021-05-27T17:40:36Z</time>
      </trkpt>
      <trkpt lat="42.251428" lon="2.461475">
        <ele>682.604</ele>
        <time>2021-05-27T17:40:37Z</time>
      </trkpt>
      <trkpt lat="42.251442" lon="2.461495">
        <ele>682.214</ele>
        <time>2021-05-27T17:40:38Z</time>
      </trkpt>
      <trkpt lat="42.251454" lon="2.461515">
        <ele>681.808</ele>
        <time>2021-05-27T17:40:39Z</time>
      </trkpt>
      <trkpt lat="42.251466" lon="2.461538">
        <ele>681.372</ele>
        <time>2021-05-27T17:40:41Z</time>
      </trkpt>
      <trkpt lat="42.251478" lon="2.461560">
        <ele>681.019</ele>
        <time>2021-05-27T17:40:42Z</time>
      </trkpt>
      <trkpt lat="42.251498" lon="2.461604">
        <ele>680.217</ele>
        <time>2021-05-27T17:40:44Z</time>
      </trkpt>
      <trkpt lat="42.251520" lon="2.461639">
        <ele>679.967</ele>
        <time>2021-05-27T17:40:46Z</time>
      </trkpt>
      <trkpt lat="42.251539" lon="2.461680">
        <ele>679.414</ele>
        <time>2021-05-27T17:40:48Z</time>
      </trkpt>
      <trkpt lat="42.251562" lon="2.461712">
        <ele>679.269</ele>
        <time>2021-05-27T17:40:49Z</time>
      </trkpt>
      <trkpt lat="42.251576" lon="2.461730">
        <ele>679.072</ele>
        <time>2021-05-27T17:40:50Z</time>
      </trkpt>
      <trkpt lat="42.251588" lon="2.461753">
        <ele>678.768</ele>
        <time>2021-05-27T17:40:52Z</time>
      </trkpt>
      <trkpt lat="42.251613" lon="2.461794">
        <ele>678.213</ele>
        <time>2021-05-27T17:40:53Z</time>
      </trkpt>
      <trkpt lat="42.251704" lon="2.461868">
        <ele>676.343</ele>
        <time>2021-05-27T17:40:58Z</time>
      </trkpt>
      <trkpt lat="42.251723" lon="2.461863">
        <ele>675.907</ele>
        <time>2021-05-27T17:40:59Z</time>
      </trkpt>
      <trkpt lat="42.251748" lon="2.461851">
        <ele>675.608</ele>
        <time>2021-05-27T17:41:00Z</time>
      </trkpt>
      <trkpt lat="42.251764" lon="2.461833">
        <ele>675.828</ele>
        <time>2021-05-27T17:41:02Z</time>
      </trkpt>
      <trkpt lat="42.251776" lon="2.461814">
        <ele>676.055</ele>
        <time>2021-05-27T17:41:03Z</time>
      </trkpt>
      <trkpt lat="42.251803" lon="2.461777">
        <ele>676.423</ele>
        <time>2021-05-27T17:41:05Z</time>
      </trkpt>
      <trkpt lat="42.251816" lon="2.461749">
        <ele>676.993</ele>
        <time>2021-05-27T17:41:06Z</time>
      </trkpt>
      <trkpt lat="42.251843" lon="2.461709">
        <ele>677.330</ele>
        <time>2021-05-27T17:41:07Z</time>
      </trkpt>
      <trkpt lat="42.251862" lon="2.461684">
        <ele>677.675</ele>
        <time>2021-05-27T17:41:09Z</time>
      </trkpt>
      <trkpt lat="42.251883" lon="2.461649">
        <ele>677.648</ele>
        <time>2021-05-27T17:41:11Z</time>
      </trkpt>
      <trkpt lat="42.251905" lon="2.461611">
        <ele>677.324</ele>
        <time>2021-05-27T17:41:13Z</time>
      </trkpt>
      <trkpt lat="42.251931" lon="2.461579">
        <ele>676.788</ele>
        <time>2021-05-27T17:41:15Z</time>
      </trkpt>
      <trkpt lat="42.252000" lon="2.461496">
        <ele>677.324</ele>
        <time>2021-05-27T17:41:19Z</time>
      </trkpt>
      <trkpt lat="42.252019" lon="2.461483">
        <ele>677.626</ele>
        <time>2021-05-27T17:41:20Z</time>
      </trkpt>
      <trkpt lat="42.252033" lon="2.461465">
        <ele>677.808</ele>
        <time>2021-05-27T17:41:21Z</time>
      </trkpt>
      <trkpt lat="42.252049" lon="2.461443">
        <ele>678.095</ele>
        <time>2021-05-27T17:41:23Z</time>
      </trkpt>
      <trkpt lat="42.252065" lon="2.461420">
        <ele>678.282</ele>
        <time>2021-05-27T17:41:24Z</time>
      </trkpt>
      <trkpt lat="42.252079" lon="2.461401">
        <ele>678.470</ele>
        <time>2021-05-27T17:41:25Z</time>
      </trkpt>
      <trkpt lat="42.252101" lon="2.461362">
        <ele>678.470</ele>
        <time>2021-05-27T17:41:27Z</time>
      </trkpt>
      <trkpt lat="42.252128" lon="2.461319">
        <ele>678.167</ele>
        <time>2021-05-27T17:41:28Z</time>
      </trkpt>
      <trkpt lat="42.252141" lon="2.461294">
        <ele>678.032</ele>
        <time>2021-05-27T17:41:29Z</time>
      </trkpt>
      <trkpt lat="42.252167" lon="2.461256">
        <ele>677.775</ele>
        <time>2021-05-27T17:41:31Z</time>
      </trkpt>
      <trkpt lat="42.252181" lon="2.461235">
        <ele>677.571</ele>
        <time>2021-05-27T17:41:32Z</time>
      </trkpt>
      <trkpt lat="42.252200" lon="2.461198">
        <ele>677.138</ele>
        <time>2021-05-27T17:41:34Z</time>
      </trkpt>
      <trkpt lat="42.252212" lon="2.461178">
        <ele>676.970</ele>
        <time>2021-05-27T17:41:35Z</time>
      </trkpt>
      <trkpt lat="42.252233" lon="2.461169">
        <ele>677.117</ele>
        <time>2021-05-27T17:41:36Z</time>
      </trkpt>
      <trkpt lat="42.252251" lon="2.461155">
        <ele>677.308</ele>
        <time>2021-05-27T17:41:37Z</time>
      </trkpt>
      <trkpt lat="42.252267" lon="2.461143">
        <ele>677.440</ele>
        <time>2021-05-27T17:41:38Z</time>
      </trkpt>
      <trkpt lat="42.252283" lon="2.461125">
        <ele>677.547</ele>
        <time>2021-05-27T17:41:39Z</time>
      </trkpt>
      <trkpt lat="42.252299" lon="2.461100">
        <ele>677.425</ele>
        <time>2021-05-27T17:41:40Z</time>
      </trkpt>
      <trkpt lat="42.252307" lon="2.461075">
        <ele>677.185</ele>
        <time>2021-05-27T17:41:41Z</time>
      </trkpt>
      <trkpt lat="42.252320" lon="2.461054">
        <ele>676.932</ele>
        <time>2021-05-27T17:41:42Z</time>
      </trkpt>
      <trkpt lat="42.252363" lon="2.460931">
        <ele>675.167</ele>
        <time>2021-05-27T17:41:47Z</time>
      </trkpt>
      <trkpt lat="42.252439" lon="2.460839">
        <ele>674.390</ele>
        <time>2021-05-27T17:41:51Z</time>
      </trkpt>
      <trkpt lat="42.252529" lon="2.460760">
        <ele>673.886</ele>
        <time>2021-05-27T17:41:54Z</time>
      </trkpt>
      <trkpt lat="42.252631" lon="2.460727">
        <ele>674.446</ele>
        <time>2021-05-27T17:42:01Z</time>
      </trkpt>
      <trkpt lat="42.252729" lon="2.460679">
        <ele>674.588</ele>
        <time>2021-05-27T17:42:05Z</time>
      </trkpt>
      <trkpt lat="42.252833" lon="2.460609">
        <ele>673.316</ele>
        <time>2021-05-27T17:42:08Z</time>
      </trkpt>
      <trkpt lat="42.252921" lon="2.460538">
        <ele>672.108</ele>
        <time>2021-05-27T17:42:13Z</time>
      </trkpt>
      <trkpt lat="42.253000" lon="2.460462">
        <ele>671.091</ele>
        <time>2021-05-27T17:42:20Z</time>
      </trkpt>
      <trkpt lat="42.253041" lon="2.460417">
        <ele>670.418</ele>
        <time>2021-05-27T17:42:23Z</time>
      </trkpt>
      <trkpt lat="42.253054" lon="2.460399">
        <ele>670.296</ele>
        <time>2021-05-27T17:42:24Z</time>
      </trkpt>
      <trkpt lat="42.253079" lon="2.460373">
        <ele>668.616</ele>
        <time>2021-05-27T17:42:26Z</time>
      </trkpt>
      <trkpt lat="42.253093" lon="2.460356">
        <ele>667.773</ele>
        <time>2021-05-27T17:42:28Z</time>
      </trkpt>
      <trkpt lat="42.253175" lon="2.460303">
        <ele>663.218</ele>
        <time>2021-05-27T17:42:34Z</time>
      </trkpt>
      <trkpt lat="42.253182" lon="2.460373">
        <ele>663.831</ele>
        <time>2021-05-27T17:42:39Z</time>
      </trkpt>
      <trkpt lat="42.253169" lon="2.460491">
        <ele>666.077</ele>
        <time>2021-05-27T17:42:43Z</time>
      </trkpt>
      <trkpt lat="42.253166" lon="2.460518">
        <ele>666.552</ele>
        <time>2021-05-27T17:42:44Z</time>
      </trkpt>
      <trkpt lat="42.253163" lon="2.460543">
        <ele>667.053</ele>
        <time>2021-05-27T17:42:45Z</time>
      </trkpt>
      <trkpt lat="42.253158" lon="2.460580">
        <ele>667.708</ele>
        <time>2021-05-27T17:42:47Z</time>
      </trkpt>
      <trkpt lat="42.253160" lon="2.460625">
        <ele>668.008</ele>
        <time>2021-05-27T17:42:49Z</time>
      </trkpt>
      <trkpt lat="42.253157" lon="2.460667">
        <ele>668.572</ele>
        <time>2021-05-27T17:42:52Z</time>
      </trkpt>
      <trkpt lat="42.253152" lon="2.460713">
        <ele>669.299</ele>
        <time>2021-05-27T17:42:54Z</time>
      </trkpt>
      <trkpt lat="42.253152" lon="2.460748">
        <ele>669.567</ele>
        <time>2021-05-27T17:42:55Z</time>
      </trkpt>
      <trkpt lat="42.253150" lon="2.460793">
        <ele>669.997</ele>
        <time>2021-05-27T17:42:57Z</time>
      </trkpt>
      <trkpt lat="42.253148" lon="2.460830">
        <ele>670.344</ele>
        <time>2021-05-27T17:42:59Z</time>
      </trkpt>
      <trkpt lat="42.253201" lon="2.460934">
        <ele>671.669</ele>
        <time>2021-05-27T17:43:07Z</time>
      </trkpt>
      <trkpt lat="42.253298" lon="2.460936">
        <ele>669.822</ele>
        <time>2021-05-27T17:43:11Z</time>
      </trkpt>
      <trkpt lat="42.253391" lon="2.460910">
        <ele>669.428</ele>
        <time>2021-05-27T17:43:14Z</time>
      </trkpt>
      <trkpt lat="42.253484" lon="2.460879">
        <ele>670.547</ele>
        <time>2021-05-27T17:43:17Z</time>
      </trkpt>
      <trkpt lat="42.253581" lon="2.460869">
        <ele>672.529</ele>
        <time>2021-05-27T17:43:23Z</time>
      </trkpt>
      <trkpt lat="42.253643" lon="2.460776">
        <ele>671.321</ele>
        <time>2021-05-27T17:43:30Z</time>
      </trkpt>
      <trkpt lat="42.253728" lon="2.460684">
        <ele>671.908</ele>
        <time>2021-05-27T17:43:35Z</time>
      </trkpt>
      <trkpt lat="42.253816" lon="2.460603">
        <ele>673.251</ele>
        <time>2021-05-27T17:43:40Z</time>
      </trkpt>
      <trkpt lat="42.253900" lon="2.460511">
        <ele>673.778</ele>
        <time>2021-05-27T17:43:46Z</time>
      </trkpt>
      <trkpt lat="42.253948" lon="2.460384">
        <ele>670.556</ele>
        <time>2021-05-27T17:43:53Z</time>
      </trkpt>
      <trkpt lat="42.254017" lon="2.460286">
        <ele>669.456</ele>
        <time>2021-05-27T17:43:56Z</time>
      </trkpt>
      <trkpt lat="42.254117" lon="2.460225">
        <ele>670.553</ele>
        <time>2021-05-27T17:44:00Z</time>
      </trkpt>
      <trkpt lat="42.254204" lon="2.460195">
        <ele>670.998</ele>
        <time>2021-05-27T17:44:04Z</time>
      </trkpt>
      <trkpt lat="42.254273" lon="2.460072">
        <ele>666.761</ele>
        <time>2021-05-27T17:44:09Z</time>
      </trkpt>
      <trkpt lat="42.254321" lon="2.459951">
        <ele>662.937</ele>
        <time>2021-05-27T17:44:15Z</time>
      </trkpt>
      <trkpt lat="42.254411" lon="2.459904">
        <ele>661.791</ele>
        <time>2021-05-27T17:44:22Z</time>
      </trkpt>
      <trkpt lat="42.254521" lon="2.459870">
        <ele>660.981</ele>
        <time>2021-05-27T17:44:27Z</time>
      </trkpt>
      <trkpt lat="42.254606" lon="2.459814">
        <ele>659.419</ele>
        <time>2021-05-27T17:44:32Z</time>
      </trkpt>
      <trkpt lat="42.254625" lon="2.459800">
        <ele>659.008</ele>
        <time>2021-05-27T17:44:33Z</time>
      </trkpt>
      <trkpt lat="42.254656" lon="2.459783">
        <ele>658.636</ele>
        <time>2021-05-27T17:44:35Z</time>
      </trkpt>
      <trkpt lat="42.254677" lon="2.459779">
        <ele>658.543</ele>
        <time>2021-05-27T17:44:36Z</time>
      </trkpt>
      <trkpt lat="42.254714" lon="2.459768">
        <ele>658.311</ele>
        <time>2021-05-27T17:44:38Z</time>
      </trkpt>
      <trkpt lat="42.254731" lon="2.459764">
        <ele>658.091</ele>
        <time>2021-05-27T17:44:39Z</time>
      </trkpt>
      <trkpt lat="42.254838" lon="2.459786">
        <ele>655.628</ele>
        <time>2021-05-27T17:44:45Z</time>
      </trkpt>
      <trkpt lat="42.254931" lon="2.459849">
        <ele>654.483</ele>
        <time>2021-05-27T17:44:50Z</time>
      </trkpt>
      <trkpt lat="42.254954" lon="2.459883">
        <ele>654.376</ele>
        <time>2021-05-27T17:44:52Z</time>
      </trkpt>
      <trkpt lat="42.254962" lon="2.459908">
        <ele>654.652</ele>
        <time>2021-05-27T17:44:53Z</time>
      </trkpt>
      <trkpt lat="42.254984" lon="2.459982">
        <ele>655.221</ele>
        <time>2021-05-27T17:44:57Z</time>
      </trkpt>
      <trkpt lat="42.254994" lon="2.460046">
        <ele>655.441</ele>
        <time>2021-05-27T17:45:00Z</time>
      </trkpt>
      <trkpt lat="42.254987" lon="2.460124">
        <ele>655.905</ele>
        <time>2021-05-27T17:45:02Z</time>
      </trkpt>
      <trkpt lat="42.254986" lon="2.460154">
        <ele>656.008</ele>
        <time>2021-05-27T17:45:03Z</time>
      </trkpt>
      <trkpt lat="42.254980" lon="2.460183">
        <ele>656.339</ele>
        <time>2021-05-27T17:45:04Z</time>
      </trkpt>
      <trkpt lat="42.254978" lon="2.460211">
        <ele>656.596</ele>
        <time>2021-05-27T17:45:05Z</time>
      </trkpt>
      <trkpt lat="42.254964" lon="2.460250">
        <ele>657.144</ele>
        <time>2021-05-27T17:45:07Z</time>
      </trkpt>
      <trkpt lat="42.254950" lon="2.460284">
        <ele>657.514</ele>
        <time>2021-05-27T17:45:09Z</time>
      </trkpt>
      <trkpt lat="42.254896" lon="2.460399">
        <ele>656.891</ele>
        <time>2021-05-27T17:45:14Z</time>
      </trkpt>
      <trkpt lat="42.254842" lon="2.460497">
        <ele>656.426</ele>
        <time>2021-05-27T17:45:20Z</time>
      </trkpt>
      <trkpt lat="42.254765" lon="2.460573">
        <ele>657.359</ele>
        <time>2021-05-27T17:45:23Z</time>
      </trkpt>
      <trkpt lat="42.254730" lon="2.460687">
        <ele>656.815</ele>
        <time>2021-05-27T17:45:27Z</time>
      </trkpt>
      <trkpt lat="42.254733" lon="2.460816">
        <ele>654.818</ele>
        <time>2021-05-27T17:45:33Z</time>
      </trkpt>
      <trkpt lat="42.254752" lon="2.460923">
        <ele>654.598</ele>
        <time>2021-05-27T17:45:37Z</time>
      </trkpt>
      <trkpt lat="42.254795" lon="2.461040">
        <ele>653.817</ele>
        <time>2021-05-27T17:45:41Z</time>
      </trkpt>
      <trkpt lat="42.254816" lon="2.461120">
        <ele>653.608</ele>
        <time>2021-05-27T17:45:46Z</time>
      </trkpt>
      <trkpt lat="42.254819" lon="2.461148">
        <ele>653.488</ele>
        <time>2021-05-27T17:45:47Z</time>
      </trkpt>
      <trkpt lat="42.254829" lon="2.461291">
        <ele>652.715</ele>
        <time>2021-05-27T17:45:52Z</time>
      </trkpt>
      <trkpt lat="42.254828" lon="2.461321">
        <ele>652.633</ele>
        <time>2021-05-27T17:45:53Z</time>
      </trkpt>
      <trkpt lat="42.254818" lon="2.461353">
        <ele>653.083</ele>
        <time>2021-05-27T17:45:54Z</time>
      </trkpt>
      <trkpt lat="42.254807" lon="2.461383">
        <ele>653.480</ele>
        <time>2021-05-27T17:45:55Z</time>
      </trkpt>
      <trkpt lat="42.254799" lon="2.461413">
        <ele>653.465</ele>
        <time>2021-05-27T17:45:56Z</time>
      </trkpt>
      <trkpt lat="42.254783" lon="2.461460">
        <ele>653.658</ele>
        <time>2021-05-27T17:45:57Z</time>
      </trkpt>
      <trkpt lat="42.254773" lon="2.461482">
        <ele>653.874</ele>
        <time>2021-05-27T17:45:58Z</time>
      </trkpt>
      <trkpt lat="42.254760" lon="2.461508">
        <ele>654.149</ele>
        <time>2021-05-27T17:45:59Z</time>
      </trkpt>
      <trkpt lat="42.254756" lon="2.461534">
        <ele>654.002</ele>
        <time>2021-05-27T17:46:00Z</time>
      </trkpt>
      <trkpt lat="42.254757" lon="2.461575">
        <ele>653.522</ele>
        <time>2021-05-27T17:46:03Z</time>
      </trkpt>
      <trkpt lat="42.254779" lon="2.461715">
        <ele>651.608</ele>
        <time>2021-05-27T17:46:08Z</time>
      </trkpt>
      <trkpt lat="42.254788" lon="2.461757">
        <ele>651.311</ele>
        <time>2021-05-27T17:46:09Z</time>
      </trkpt>
      <trkpt lat="42.254790" lon="2.461784">
        <ele>651.328</ele>
        <time>2021-05-27T17:46:10Z</time>
      </trkpt>
      <trkpt lat="42.254792" lon="2.461809">
        <ele>651.216</ele>
        <time>2021-05-27T17:46:11Z</time>
      </trkpt>
      <trkpt lat="42.254792" lon="2.461837">
        <ele>651.386</ele>
        <time>2021-05-27T17:46:12Z</time>
      </trkpt>
      <trkpt lat="42.254797" lon="2.461886">
        <ele>651.213</ele>
        <time>2021-05-27T17:46:14Z</time>
      </trkpt>
      <trkpt lat="42.254795" lon="2.461913">
        <ele>651.398</ele>
        <time>2021-05-27T17:46:15Z</time>
      </trkpt>
      <trkpt lat="42.254797" lon="2.461941">
        <ele>651.371</ele>
        <time>2021-05-27T17:46:16Z</time>
      </trkpt>
      <trkpt lat="42.254799" lon="2.461965">
        <ele>651.197</ele>
        <time>2021-05-27T17:46:18Z</time>
      </trkpt>
      <trkpt lat="42.254793" lon="2.462013">
        <ele>650.931</ele>
        <time>2021-05-27T17:46:20Z</time>
      </trkpt>
      <trkpt lat="42.254783" lon="2.462039">
        <ele>651.161</ele>
        <time>2021-05-27T17:46:21Z</time>
      </trkpt>
      <trkpt lat="42.254780" lon="2.462067">
        <ele>650.907</ele>
        <time>2021-05-27T17:46:22Z</time>
      </trkpt>
      <trkpt lat="42.254776" lon="2.462097">
        <ele>650.908</ele>
        <time>2021-05-27T17:46:23Z</time>
      </trkpt>
      <trkpt lat="42.254758" lon="2.462256">
        <ele>650.270</ele>
        <time>2021-05-27T17:46:28Z</time>
      </trkpt>
      <trkpt lat="42.254745" lon="2.462351">
        <ele>649.787</ele>
        <time>2021-05-27T17:46:31Z</time>
      </trkpt>
      <trkpt lat="42.254735" lon="2.462462">
        <ele>648.935</ele>
        <time>2021-05-27T17:46:35Z</time>
      </trkpt>
      <trkpt lat="42.254722" lon="2.462540">
        <ele>648.485</ele>
        <time>2021-05-27T17:46:38Z</time>
      </trkpt>
      <trkpt lat="42.254706" lon="2.462581">
        <ele>648.462</ele>
        <time>2021-05-27T17:46:40Z</time>
      </trkpt>
      <trkpt lat="42.254698" lon="2.462621">
        <ele>648.187</ele>
        <time>2021-05-27T17:46:42Z</time>
      </trkpt>
      <trkpt lat="42.254692" lon="2.462665">
        <ele>647.680</ele>
        <time>2021-05-27T17:46:44Z</time>
      </trkpt>
      <trkpt lat="42.254690" lon="2.462706">
        <ele>647.176</ele>
        <time>2021-05-27T17:46:46Z</time>
      </trkpt>
      <trkpt lat="42.254686" lon="2.462753">
        <ele>646.545</ele>
        <time>2021-05-27T17:46:48Z</time>
      </trkpt>
      <trkpt lat="42.254679" lon="2.462776">
        <ele>646.447</ele>
        <time>2021-05-27T17:46:49Z</time>
      </trkpt>
      <trkpt lat="42.254669" lon="2.462817">
        <ele>646.111</ele>
        <time>2021-05-27T17:46:51Z</time>
      </trkpt>
      <trkpt lat="42.254660" lon="2.462843">
        <ele>646.008</ele>
        <time>2021-05-27T17:46:53Z</time>
      </trkpt>
      <trkpt lat="42.254643" lon="2.462890">
        <ele>645.841</ele>
        <time>2021-05-27T17:46:54Z</time>
      </trkpt>
      <trkpt lat="42.254641" lon="2.462915">
        <ele>645.588</ele>
        <time>2021-05-27T17:46:55Z</time>
      </trkpt>
      <trkpt lat="42.254640" lon="2.462941">
        <ele>645.156</ele>
        <time>2021-05-27T17:46:56Z</time>
      </trkpt>
      <trkpt lat="42.254642" lon="2.462966">
        <ele>644.746</ele>
        <time>2021-05-27T17:46:57Z</time>
      </trkpt>
      <trkpt lat="42.254642" lon="2.462996">
        <ele>644.273</ele>
        <time>2021-05-27T17:46:58Z</time>
      </trkpt>
      <trkpt lat="42.254641" lon="2.463050">
        <ele>643.438</ele>
        <time>2021-05-27T17:47:00Z</time>
      </trkpt>
      <trkpt lat="42.254638" lon="2.463079">
        <ele>643.241</ele>
        <time>2021-05-27T17:47:01Z</time>
      </trkpt>
      <trkpt lat="42.254640" lon="2.463108">
        <ele>642.957</ele>
        <time>2021-05-27T17:47:02Z</time>
      </trkpt>
      <trkpt lat="42.254646" lon="2.463134">
        <ele>642.582</ele>
        <time>2021-05-27T17:47:03Z</time>
      </trkpt>
      <trkpt lat="42.254648" lon="2.463161">
        <ele>642.243</ele>
        <time>2021-05-27T17:47:04Z</time>
      </trkpt>
      <trkpt lat="42.254649" lon="2.463191">
        <ele>641.917</ele>
        <time>2021-05-27T17:47:05Z</time>
      </trkpt>
      <trkpt lat="42.254642" lon="2.463221">
        <ele>641.808</ele>
        <time>2021-05-27T17:47:06Z</time>
      </trkpt>
      <trkpt lat="42.254637" lon="2.463249">
        <ele>641.665</ele>
        <time>2021-05-27T17:47:07Z</time>
      </trkpt>
      <trkpt lat="42.254632" lon="2.463316">
        <ele>641.142</ele>
        <time>2021-05-27T17:47:10Z</time>
      </trkpt>
      <trkpt lat="42.254626" lon="2.463342">
        <ele>641.050</ele>
        <time>2021-05-27T17:47:12Z</time>
      </trkpt>
      <trkpt lat="42.254622" lon="2.463394">
        <ele>640.670</ele>
        <time>2021-05-27T17:47:13Z</time>
      </trkpt>
      <trkpt lat="42.254633" lon="2.463473">
        <ele>639.627</ele>
        <time>2021-05-27T17:47:16Z</time>
      </trkpt>
      <trkpt lat="42.254649" lon="2.463520">
        <ele>638.912</ele>
        <time>2021-05-27T17:47:18Z</time>
      </trkpt>
      <trkpt lat="42.254660" lon="2.463545">
        <ele>638.525</ele>
        <time>2021-05-27T17:47:19Z</time>
      </trkpt>
      <trkpt lat="42.254675" lon="2.463566">
        <ele>638.181</ele>
        <time>2021-05-27T17:47:20Z</time>
      </trkpt>
      <trkpt lat="42.254695" lon="2.463572">
        <ele>637.783</ele>
        <time>2021-05-27T17:47:21Z</time>
      </trkpt>
      <trkpt lat="42.254717" lon="2.463577">
        <ele>637.325</ele>
        <time>2021-05-27T17:47:22Z</time>
      </trkpt>
      <trkpt lat="42.254803" lon="2.463658">
        <ele>636.017</ele>
        <time>2021-05-27T17:47:28Z</time>
      </trkpt>
      <trkpt lat="42.254901" lon="2.463723">
        <ele>635.308</ele>
        <time>2021-05-27T17:47:33Z</time>
      </trkpt>
      <trkpt lat="42.255016" lon="2.463715">
        <ele>635.075</ele>
        <time>2021-05-27T17:47:35Z</time>
      </trkpt>
      <trkpt lat="42.255090" lon="2.463672">
        <ele>635.642</ele>
        <time>2021-05-27T17:47:40Z</time>
      </trkpt>
      <trkpt lat="42.255109" lon="2.463658">
        <ele>635.730</ele>
        <time>2021-05-27T17:47:41Z</time>
      </trkpt>
      <trkpt lat="42.255129" lon="2.463646">
        <ele>635.860</ele>
        <time>2021-05-27T17:47:42Z</time>
      </trkpt>
      <trkpt lat="42.255162" lon="2.463634">
        <ele>636.167</ele>
        <time>2021-05-27T17:47:44Z</time>
      </trkpt>
      <trkpt lat="42.255194" lon="2.463622">
        <ele>636.312</ele>
        <time>2021-05-27T17:47:46Z</time>
      </trkpt>
      <trkpt lat="42.255228" lon="2.463610">
        <ele>636.485</ele>
        <time>2021-05-27T17:47:48Z</time>
      </trkpt>
      <trkpt lat="42.255263" lon="2.463597">
        <ele>636.611</ele>
        <time>2021-05-27T17:47:50Z</time>
      </trkpt>
      <trkpt lat="42.255338" lon="2.463524">
        <ele>636.383</ele>
        <time>2021-05-27T17:47:54Z</time>
      </trkpt>
      <trkpt lat="42.255254" lon="2.463579">
        <ele>636.325</ele>
        <time>2021-05-27T17:48:00Z</time>
      </trkpt>
      <trkpt lat="42.255237" lon="2.463570">
        <ele>636.017</ele>
        <time>2021-05-27T17:48:01Z</time>
      </trkpt>
      <trkpt lat="42.255222" lon="2.463548">
        <ele>635.608</ele>
        <time>2021-05-27T17:48:05Z</time>
      </trkpt>
      <trkpt lat="42.255241" lon="2.463540">
        <ele>635.785</ele>
        <time>2021-05-27T17:48:12Z</time>
      </trkpt>
      <trkpt lat="42.255231" lon="2.463583">
        <ele>636.162</ele>
        <time>2021-05-27T17:48:22Z</time>
      </trkpt>
      <trkpt lat="42.255232" lon="2.463556">
        <ele>635.850</ele>
        <time>2021-05-27T17:48:36Z</time>
      </trkpt>
      <trkpt lat="42.255261" lon="2.463546">
        <ele>635.950</ele>
        <time>2021-05-27T17:48:43Z</time>
      </trkpt>
      <trkpt lat="42.255280" lon="2.463552">
        <ele>636.237</ele>
        <time>2021-05-27T17:49:08Z</time>
      </trkpt>
      <trkpt lat="42.255300" lon="2.463553">
        <ele>636.462</ele>
        <time>2021-05-27T17:49:10Z</time>
      </trkpt>
      <trkpt lat="42.255369" lon="2.463535">
        <ele>636.895</ele>
        <time>2021-05-27T17:49:13Z</time>
      </trkpt>
      <trkpt lat="42.255440" lon="2.463461">
        <ele>636.371</ele>
        <time>2021-05-27T17:49:22Z</time>
      </trkpt>
      <trkpt lat="42.255485" lon="2.463372">
        <ele>635.251</ele>
        <time>2021-05-27T17:49:31Z</time>
      </trkpt>
      <trkpt lat="42.255505" lon="2.463348">
        <ele>634.901</ele>
        <time>2021-05-27T17:49:33Z</time>
      </trkpt>
      <trkpt lat="42.255522" lon="2.463324">
        <ele>634.611</ele>
        <time>2021-05-27T17:49:35Z</time>
      </trkpt>
      <trkpt lat="42.255548" lon="2.463313">
        <ele>634.708</ele>
        <time>2021-05-27T17:49:37Z</time>
      </trkpt>
      <trkpt lat="42.255565" lon="2.463289">
        <ele>634.632</ele>
        <time>2021-05-27T17:49:39Z</time>
      </trkpt>
      <trkpt lat="42.255576" lon="2.463252">
        <ele>634.359</ele>
        <time>2021-05-27T17:49:41Z</time>
      </trkpt>
      <trkpt lat="42.255592" lon="2.463230">
        <ele>634.457</ele>
        <time>2021-05-27T17:49:43Z</time>
      </trkpt>
      <trkpt lat="42.255606" lon="2.463204">
        <ele>634.437</ele>
        <time>2021-05-27T17:49:45Z</time>
      </trkpt>
      <trkpt lat="42.255619" lon="2.463176">
        <ele>634.344</ele>
        <time>2021-05-27T17:49:47Z</time>
      </trkpt>
      <trkpt lat="42.255633" lon="2.463150">
        <ele>634.349</ele>
        <time>2021-05-27T17:49:49Z</time>
      </trkpt>
      <trkpt lat="42.255644" lon="2.463122">
        <ele>634.232</ele>
        <time>2021-05-27T17:49:51Z</time>
      </trkpt>
      <trkpt lat="42.255648" lon="2.463096">
        <ele>633.938</ele>
        <time>2021-05-27T17:49:53Z</time>
      </trkpt>
      <trkpt lat="42.255653" lon="2.463066">
        <ele>633.691</ele>
        <time>2021-05-27T17:49:55Z</time>
      </trkpt>
      <trkpt lat="42.255670" lon="2.463040">
        <ele>633.781</ele>
        <time>2021-05-27T17:49:57Z</time>
      </trkpt>
      <trkpt lat="42.255681" lon="2.463014">
        <ele>633.719</ele>
        <time>2021-05-27T17:49:59Z</time>
      </trkpt>
      <trkpt lat="42.255689" lon="2.462985">
        <ele>633.608</ele>
        <time>2021-05-27T17:50:01Z</time>
      </trkpt>
      <trkpt lat="42.255700" lon="2.462957">
        <ele>633.676</ele>
        <time>2021-05-27T17:50:03Z</time>
      </trkpt>
      <trkpt lat="42.255716" lon="2.462933">
        <ele>633.793</ele>
        <time>2021-05-27T17:50:05Z</time>
      </trkpt>
      <trkpt lat="42.255733" lon="2.462907">
        <ele>633.931</ele>
        <time>2021-05-27T17:50:07Z</time>
      </trkpt>
      <trkpt lat="42.255749" lon="2.462880">
        <ele>634.041</ele>
        <time>2021-05-27T17:50:09Z</time>
      </trkpt>
      <trkpt lat="42.255762" lon="2.462852">
        <ele>634.038</ele>
        <time>2021-05-27T17:50:11Z</time>
      </trkpt>
      <trkpt lat="42.255770" lon="2.462823">
        <ele>633.923</ele>
        <time>2021-05-27T17:50:13Z</time>
      </trkpt>
      <trkpt lat="42.255783" lon="2.462792">
        <ele>633.996</ele>
        <time>2021-05-27T17:50:15Z</time>
      </trkpt>
      <trkpt lat="42.255801" lon="2.462761">
        <ele>633.862</ele>
        <time>2021-05-27T17:50:17Z</time>
      </trkpt>
      <trkpt lat="42.255815" lon="2.462736">
        <ele>633.661</ele>
        <time>2021-05-27T17:50:19Z</time>
      </trkpt>
      <trkpt lat="42.255823" lon="2.462703">
        <ele>633.121</ele>
        <time>2021-05-27T17:50:22Z</time>
      </trkpt>
      <trkpt lat="42.255827" lon="2.462665">
        <ele>632.413</ele>
        <time>2021-05-27T17:50:23Z</time>
      </trkpt>
      <trkpt lat="42.255840" lon="2.462634">
        <ele>632.208</ele>
        <time>2021-05-27T17:50:25Z</time>
      </trkpt>
      <trkpt lat="42.255905" lon="2.462544">
        <ele>632.843</ele>
        <time>2021-05-27T17:50:31Z</time>
      </trkpt>
      <trkpt lat="42.255990" lon="2.462459">
        <ele>634.110</ele>
        <time>2021-05-27T17:50:35Z</time>
      </trkpt>
      <trkpt lat="42.256057" lon="2.462375">
        <ele>634.168</ele>
        <time>2021-05-27T17:50:43Z</time>
      </trkpt>
      <trkpt lat="42.256066" lon="2.462347">
        <ele>633.548</ele>
        <time>2021-05-27T17:50:46Z</time>
      </trkpt>
      <trkpt lat="42.256117" lon="2.462236">
        <ele>631.755</ele>
        <time>2021-05-27T17:50:54Z</time>
      </trkpt>
      <trkpt lat="42.256214" lon="2.462174">
        <ele>633.840</ele>
        <time>2021-05-27T17:51:01Z</time>
      </trkpt>
      <trkpt lat="42.256298" lon="2.462128">
        <ele>635.773</ele>
        <time>2021-05-27T17:51:06Z</time>
      </trkpt>
      <trkpt lat="42.256379" lon="2.462050">
        <ele>636.149</ele>
        <time>2021-05-27T17:51:14Z</time>
      </trkpt>
      <trkpt lat="42.256422" lon="2.461942">
        <ele>634.232</ele>
        <time>2021-05-27T17:51:20Z</time>
      </trkpt>
      <trkpt lat="42.256481" lon="2.461818">
        <ele>633.292</ele>
        <time>2021-05-27T17:51:24Z</time>
      </trkpt>
      <trkpt lat="42.256550" lon="2.461718">
        <ele>633.311</ele>
        <time>2021-05-27T17:51:30Z</time>
      </trkpt>
      <trkpt lat="42.256596" lon="2.461604">
        <ele>632.108</ele>
        <time>2021-05-27T17:51:36Z</time>
      </trkpt>
      <trkpt lat="42.256675" lon="2.461511">
        <ele>632.340</ele>
        <time>2021-05-27T17:51:41Z</time>
      </trkpt>
      <trkpt lat="42.256734" lon="2.461414">
        <ele>631.757</ele>
        <time>2021-05-27T17:51:46Z</time>
      </trkpt>
      <trkpt lat="42.256806" lon="2.461313">
        <ele>632.045</ele>
        <time>2021-05-27T17:51:51Z</time>
      </trkpt>
      <trkpt lat="42.256855" lon="2.461200">
        <ele>630.975</ele>
        <time>2021-05-27T17:51:56Z</time>
      </trkpt>
      <trkpt lat="42.256848" lon="2.461081">
        <ele>627.442</ele>
        <time>2021-05-27T17:52:02Z</time>
      </trkpt>
      <trkpt lat="42.256840" lon="2.461050">
        <ele>626.337</ele>
        <time>2021-05-27T17:52:03Z</time>
      </trkpt>
      <trkpt lat="42.256840" lon="2.461015">
        <ele>625.470</ele>
        <time>2021-05-27T17:52:05Z</time>
      </trkpt>
      <trkpt lat="42.256836" lon="2.460986">
        <ele>624.566</ele>
        <time>2021-05-27T17:52:06Z</time>
      </trkpt>
      <trkpt lat="42.256844" lon="2.460942">
        <ele>623.634</ele>
        <time>2021-05-27T17:52:08Z</time>
      </trkpt>
      <trkpt lat="42.256849" lon="2.460918">
        <ele>623.155</ele>
        <time>2021-05-27T17:52:09Z</time>
      </trkpt>
      <trkpt lat="42.256854" lon="2.460892">
        <ele>622.610</ele>
        <time>2021-05-27T17:52:10Z</time>
      </trkpt>
      <trkpt lat="42.256859" lon="2.460866">
        <ele>622.108</ele>
        <time>2021-05-27T17:52:11Z</time>
      </trkpt>
      <trkpt lat="42.256869" lon="2.460845">
        <ele>621.960</ele>
        <time>2021-05-27T17:52:12Z</time>
      </trkpt>
      <trkpt lat="42.256890" lon="2.460806">
        <ele>621.587</ele>
        <time>2021-05-27T17:52:14Z</time>
      </trkpt>
      <trkpt lat="42.256921" lon="2.460746">
        <ele>621.095</ele>
        <time>2021-05-27T17:52:16Z</time>
      </trkpt>
      <trkpt lat="42.256934" lon="2.460728">
        <ele>621.085</ele>
        <time>2021-05-27T17:52:17Z</time>
      </trkpt>
      <trkpt lat="42.256955" lon="2.460692">
        <ele>620.672</ele>
        <time>2021-05-27T17:52:19Z</time>
      </trkpt>
      <trkpt lat="42.256968" lon="2.460674">
        <ele>620.477</ele>
        <time>2021-05-27T17:52:20Z</time>
      </trkpt>
      <trkpt lat="42.256978" lon="2.460652">
        <ele>620.120</ele>
        <time>2021-05-27T17:52:21Z</time>
      </trkpt>
      <trkpt lat="42.257004" lon="2.460616">
        <ele>619.626</ele>
        <time>2021-05-27T17:52:23Z</time>
      </trkpt>
      <trkpt lat="42.257019" lon="2.460597">
        <ele>619.465</ele>
        <time>2021-05-27T17:52:24Z</time>
      </trkpt>
      <trkpt lat="42.257033" lon="2.460579">
        <ele>619.268</ele>
        <time>2021-05-27T17:52:25Z</time>
      </trkpt>
      <trkpt lat="42.257062" lon="2.460549">
        <ele>618.914</ele>
        <time>2021-05-27T17:52:27Z</time>
      </trkpt>
      <trkpt lat="42.257078" lon="2.460535">
        <ele>618.808</ele>
        <time>2021-05-27T17:52:28Z</time>
      </trkpt>
      <trkpt lat="42.257094" lon="2.460521">
        <ele>618.693</ele>
        <time>2021-05-27T17:52:29Z</time>
      </trkpt>
      <trkpt lat="42.257113" lon="2.460508">
        <ele>618.670</ele>
        <time>2021-05-27T17:52:30Z</time>
      </trkpt>
      <trkpt lat="42.257131" lon="2.460494">
        <ele>618.488</ele>
        <time>2021-05-27T17:52:31Z</time>
      </trkpt>
      <trkpt lat="42.257146" lon="2.460480">
        <ele>618.328</ele>
        <time>2021-05-27T17:52:32Z</time>
      </trkpt>
      <trkpt lat="42.257164" lon="2.460467">
        <ele>618.155</ele>
        <time>2021-05-27T17:52:33Z</time>
      </trkpt>
      <trkpt lat="42.257179" lon="2.460454">
        <ele>618.080</ele>
        <time>2021-05-27T17:52:34Z</time>
      </trkpt>
      <trkpt lat="42.257208" lon="2.460428">
        <ele>617.643</ele>
        <time>2021-05-27T17:52:36Z</time>
      </trkpt>
      <trkpt lat="42.257224" lon="2.460416">
        <ele>617.599</ele>
        <time>2021-05-27T17:52:37Z</time>
      </trkpt>
      <trkpt lat="42.257239" lon="2.460402">
        <ele>617.224</ele>
        <time>2021-05-27T17:52:38Z</time>
      </trkpt>
      <trkpt lat="42.257269" lon="2.460379">
        <ele>616.604</ele>
        <time>2021-05-27T17:52:40Z</time>
      </trkpt>
      <trkpt lat="42.257294" lon="2.460355">
        <ele>616.014</ele>
        <time>2021-05-27T17:52:42Z</time>
      </trkpt>
      <trkpt lat="42.257326" lon="2.460340">
        <ele>615.608</ele>
        <time>2021-05-27T17:52:44Z</time>
      </trkpt>
      <trkpt lat="42.257346" lon="2.460333">
        <ele>615.519</ele>
        <time>2021-05-27T17:52:45Z</time>
      </trkpt>
      <trkpt lat="42.257367" lon="2.460328">
        <ele>615.416</ele>
        <time>2021-05-27T17:52:46Z</time>
      </trkpt>
      <trkpt lat="42.257386" lon="2.460325">
        <ele>615.454</ele>
        <time>2021-05-27T17:52:48Z</time>
      </trkpt>
      <trkpt lat="42.257419" lon="2.460317">
        <ele>615.344</ele>
        <time>2021-05-27T17:52:49Z</time>
      </trkpt>
      <trkpt lat="42.257438" lon="2.460313">
        <ele>615.241</ele>
        <time>2021-05-27T17:52:50Z</time>
      </trkpt>
      <trkpt lat="42.257472" lon="2.460307">
        <ele>615.196</ele>
        <time>2021-05-27T17:52:52Z</time>
      </trkpt>
      <trkpt lat="42.257506" lon="2.460301">
        <ele>615.019</ele>
        <time>2021-05-27T17:52:54Z</time>
      </trkpt>
      <trkpt lat="42.257526" lon="2.460301">
        <ele>615.045</ele>
        <time>2021-05-27T17:52:55Z</time>
      </trkpt>
      <trkpt lat="42.257560" lon="2.460296">
        <ele>614.853</ele>
        <time>2021-05-27T17:52:57Z</time>
      </trkpt>
      <trkpt lat="42.257592" lon="2.460282">
        <ele>614.204</ele>
        <time>2021-05-27T17:52:59Z</time>
      </trkpt>
      <trkpt lat="42.257625" lon="2.460266">
        <ele>613.614</ele>
        <time>2021-05-27T17:53:01Z</time>
      </trkpt>
      <trkpt lat="42.257656" lon="2.460254">
        <ele>613.208</ele>
        <time>2021-05-27T17:53:03Z</time>
      </trkpt>
      <trkpt lat="42.257690" lon="2.460247">
        <ele>613.022</ele>
        <time>2021-05-27T17:53:05Z</time>
      </trkpt>
      <trkpt lat="42.257713" lon="2.460245">
        <ele>612.959</ele>
        <time>2021-05-27T17:53:06Z</time>
      </trkpt>
      <trkpt lat="42.257734" lon="2.460242">
        <ele>612.887</ele>
        <time>2021-05-27T17:53:07Z</time>
      </trkpt>
      <trkpt lat="42.257756" lon="2.460238">
        <ele>612.737</ele>
        <time>2021-05-27T17:53:08Z</time>
      </trkpt>
      <trkpt lat="42.257774" lon="2.460237">
        <ele>612.754</ele>
        <time>2021-05-27T17:53:09Z</time>
      </trkpt>
      <trkpt lat="42.257795" lon="2.460234">
        <ele>612.899</ele>
        <time>2021-05-27T17:53:10Z</time>
      </trkpt>
      <trkpt lat="42.257820" lon="2.460215">
        <ele>612.522</ele>
        <time>2021-05-27T17:53:12Z</time>
      </trkpt>
      <trkpt lat="42.257845" lon="2.460199">
        <ele>612.338</ele>
        <time>2021-05-27T17:53:15Z</time>
      </trkpt>
      <trkpt lat="42.257861" lon="2.460189">
        <ele>612.257</ele>
        <time>2021-05-27T17:53:16Z</time>
      </trkpt>
      <trkpt lat="42.257898" lon="2.460170">
        <ele>612.100</ele>
        <time>2021-05-27T17:53:17Z</time>
      </trkpt>
      <trkpt lat="42.257923" lon="2.460160">
        <ele>612.120</ele>
        <time>2021-05-27T17:53:18Z</time>
      </trkpt>
      <trkpt lat="42.257948" lon="2.460154">
        <ele>612.208</ele>
        <time>2021-05-27T17:53:19Z</time>
      </trkpt>
      <trkpt lat="42.257975" lon="2.460148">
        <ele>612.382</ele>
        <time>2021-05-27T17:53:20Z</time>
      </trkpt>
      <trkpt lat="42.258002" lon="2.460146">
        <ele>612.669</ele>
        <time>2021-05-27T17:53:21Z</time>
      </trkpt>
      <trkpt lat="42.258028" lon="2.460139">
        <ele>612.797</ele>
        <time>2021-05-27T17:53:22Z</time>
      </trkpt>
      <trkpt lat="42.258052" lon="2.460132">
        <ele>612.747</ele>
        <time>2021-05-27T17:53:23Z</time>
      </trkpt>
      <trkpt lat="42.258093" lon="2.460110">
        <ele>613.114</ele>
        <time>2021-05-27T17:53:25Z</time>
      </trkpt>
      <trkpt lat="42.258112" lon="2.460099">
        <ele>613.349</ele>
        <time>2021-05-27T17:53:26Z</time>
      </trkpt>
      <trkpt lat="42.258131" lon="2.460084">
        <ele>613.382</ele>
        <time>2021-05-27T17:53:27Z</time>
      </trkpt>
      <trkpt lat="42.258147" lon="2.460067">
        <ele>613.138</ele>
        <time>2021-05-27T17:53:28Z</time>
      </trkpt>
      <trkpt lat="42.258163" lon="2.460048">
        <ele>612.938</ele>
        <time>2021-05-27T17:53:29Z</time>
      </trkpt>
      <trkpt lat="42.258177" lon="2.460029">
        <ele>612.670</ele>
        <time>2021-05-27T17:53:30Z</time>
      </trkpt>
      <trkpt lat="42.258206" lon="2.459994">
        <ele>612.117</ele>
        <time>2021-05-27T17:53:32Z</time>
      </trkpt>
      <trkpt lat="42.258219" lon="2.459977">
        <ele>611.908</ele>
        <time>2021-05-27T17:53:33Z</time>
      </trkpt>
      <trkpt lat="42.258249" lon="2.459956">
        <ele>612.180</ele>
        <time>2021-05-27T17:53:35Z</time>
      </trkpt>
      <trkpt lat="42.258265" lon="2.459941">
        <ele>612.027</ele>
        <time>2021-05-27T17:53:36Z</time>
      </trkpt>
      <trkpt lat="42.258287" lon="2.459911">
        <ele>611.675</ele>
        <time>2021-05-27T17:53:38Z</time>
      </trkpt>
      <trkpt lat="42.258314" lon="2.459887">
        <ele>611.415</ele>
        <time>2021-05-27T17:53:40Z</time>
      </trkpt>
      <trkpt lat="42.258343" lon="2.459862">
        <ele>611.322</ele>
        <time>2021-05-27T17:53:42Z</time>
      </trkpt>
      <trkpt lat="42.258373" lon="2.459841">
        <ele>611.247</ele>
        <time>2021-05-27T17:53:44Z</time>
      </trkpt>
      <trkpt lat="42.258402" lon="2.459814">
        <ele>610.930</ele>
        <time>2021-05-27T17:53:46Z</time>
      </trkpt>
      <trkpt lat="42.258428" lon="2.459805">
        <ele>611.186</ele>
        <time>2021-05-27T17:53:47Z</time>
      </trkpt>
      <trkpt lat="42.258455" lon="2.459802">
        <ele>611.641</ele>
        <time>2021-05-27T17:53:48Z</time>
      </trkpt>
      <trkpt lat="42.258478" lon="2.459791">
        <ele>611.781</ele>
        <time>2021-05-27T17:53:49Z</time>
      </trkpt>
      <trkpt lat="42.258497" lon="2.459778">
        <ele>611.709</ele>
        <time>2021-05-27T17:53:50Z</time>
      </trkpt>
      <trkpt lat="42.258516" lon="2.459766">
        <ele>611.608</ele>
        <time>2021-05-27T17:53:52Z</time>
      </trkpt>
      <trkpt lat="42.258551" lon="2.459738">
        <ele>611.391</ele>
        <time>2021-05-27T17:53:53Z</time>
      </trkpt>
      <trkpt lat="42.258584" lon="2.459702">
        <ele>610.758</ele>
        <time>2021-05-27T17:53:55Z</time>
      </trkpt>
      <trkpt lat="42.258599" lon="2.459680">
        <ele>610.226</ele>
        <time>2021-05-27T17:53:56Z</time>
      </trkpt>
      <trkpt lat="42.258614" lon="2.459661">
        <ele>609.856</ele>
        <time>2021-05-27T17:53:57Z</time>
      </trkpt>
      <trkpt lat="42.258625" lon="2.459639">
        <ele>609.253</ele>
        <time>2021-05-27T17:53:58Z</time>
      </trkpt>
      <trkpt lat="42.258647" lon="2.459601">
        <ele>608.118</ele>
        <time>2021-05-27T17:54:00Z</time>
      </trkpt>
      <trkpt lat="42.258666" lon="2.459561">
        <ele>606.891</ele>
        <time>2021-05-27T17:54:02Z</time>
      </trkpt>
      <trkpt lat="42.258683" lon="2.459547">
        <ele>606.537</ele>
        <time>2021-05-27T17:54:03Z</time>
      </trkpt>
      <trkpt lat="42.258700" lon="2.459534">
        <ele>606.247</ele>
        <time>2021-05-27T17:54:04Z</time>
      </trkpt>
      <trkpt lat="42.258726" lon="2.459503">
        <ele>605.229</ele>
        <time>2021-05-27T17:54:06Z</time>
      </trkpt>
      <trkpt lat="42.258754" lon="2.459480">
        <ele>604.521</ele>
        <time>2021-05-27T17:54:08Z</time>
      </trkpt>
      <trkpt lat="42.258777" lon="2.459458">
        <ele>603.808</ele>
        <time>2021-05-27T17:54:10Z</time>
      </trkpt>
      <trkpt lat="42.258801" lon="2.459441">
        <ele>603.231</ele>
        <time>2021-05-27T17:54:13Z</time>
      </trkpt>
      <trkpt lat="42.258833" lon="2.459431">
        <ele>603.078</ele>
        <time>2021-05-27T17:54:15Z</time>
      </trkpt>
      <trkpt lat="42.258865" lon="2.459422">
        <ele>602.826</ele>
        <time>2021-05-27T17:54:17Z</time>
      </trkpt>
      <trkpt lat="42.258891" lon="2.459411">
        <ele>602.536</ele>
        <time>2021-05-27T17:54:18Z</time>
      </trkpt>
      <trkpt lat="42.258923" lon="2.459399">
        <ele>602.213</ele>
        <time>2021-05-27T17:54:21Z</time>
      </trkpt>
      <trkpt lat="42.258957" lon="2.459382">
        <ele>601.868</ele>
        <time>2021-05-27T17:54:23Z</time>
      </trkpt>
      <trkpt lat="42.258979" lon="2.459377">
        <ele>601.861</ele>
        <time>2021-05-27T17:54:24Z</time>
      </trkpt>
      <trkpt lat="42.259002" lon="2.459373">
        <ele>601.947</ele>
        <time>2021-05-27T17:54:25Z</time>
      </trkpt>
      <trkpt lat="42.259025" lon="2.459365">
        <ele>601.821</ele>
        <time>2021-05-27T17:54:26Z</time>
      </trkpt>
      <trkpt lat="42.259043" lon="2.459356">
        <ele>601.541</ele>
        <time>2021-05-27T17:54:27Z</time>
      </trkpt>
      <trkpt lat="42.259064" lon="2.459352">
        <ele>601.605</ele>
        <time>2021-05-27T17:54:28Z</time>
      </trkpt>
      <trkpt lat="42.259101" lon="2.459338">
        <ele>601.308</ele>
        <time>2021-05-27T17:54:29Z</time>
      </trkpt>
      <trkpt lat="42.259119" lon="2.459331">
        <ele>601.249</ele>
        <time>2021-05-27T17:54:30Z</time>
      </trkpt>
      <trkpt lat="42.259160" lon="2.459325">
        <ele>601.386</ele>
        <time>2021-05-27T17:54:32Z</time>
      </trkpt>
      <trkpt lat="42.259179" lon="2.459325">
        <ele>601.334</ele>
        <time>2021-05-27T17:54:33Z</time>
      </trkpt>
      <trkpt lat="42.259200" lon="2.459324">
        <ele>601.054</ele>
        <time>2021-05-27T17:54:34Z</time>
      </trkpt>
      <trkpt lat="42.259219" lon="2.459324">
        <ele>600.731</ele>
        <time>2021-05-27T17:54:35Z</time>
      </trkpt>
      <trkpt lat="42.259238" lon="2.459324">
        <ele>600.526</ele>
        <time>2021-05-27T17:54:36Z</time>
      </trkpt>
      <trkpt lat="42.259273" lon="2.459325">
        <ele>600.159</ele>
        <time>2021-05-27T17:54:38Z</time>
      </trkpt>
      <trkpt lat="42.259297" lon="2.459335">
        <ele>600.365</ele>
        <time>2021-05-27T17:54:39Z</time>
      </trkpt>
      <trkpt lat="42.259317" lon="2.459343">
        <ele>600.465</ele>
        <time>2021-05-27T17:54:40Z</time>
      </trkpt>
      <trkpt lat="42.259341" lon="2.459348">
        <ele>600.468</ele>
        <time>2021-05-27T17:54:41Z</time>
      </trkpt>
      <trkpt lat="42.259361" lon="2.459350">
        <ele>600.214</ele>
        <time>2021-05-27T17:54:42Z</time>
      </trkpt>
      <trkpt lat="42.259380" lon="2.459351">
        <ele>600.108</ele>
        <time>2021-05-27T17:54:43Z</time>
      </trkpt>
      <trkpt lat="42.259414" lon="2.459358">
        <ele>600.043</ele>
        <time>2021-05-27T17:54:45Z</time>
      </trkpt>
      <trkpt lat="42.259448" lon="2.459365">
        <ele>599.940</ele>
        <time>2021-05-27T17:54:47Z</time>
      </trkpt>
      <trkpt lat="42.259467" lon="2.459367">
        <ele>599.698</ele>
        <time>2021-05-27T17:54:48Z</time>
      </trkpt>
      <trkpt lat="42.259484" lon="2.459376">
        <ele>599.778</ele>
        <time>2021-05-27T17:54:49Z</time>
      </trkpt>
      <trkpt lat="42.259503" lon="2.459380">
        <ele>599.585</ele>
        <time>2021-05-27T17:54:50Z</time>
      </trkpt>
      <trkpt lat="42.259540" lon="2.459391">
        <ele>599.280</ele>
        <time>2021-05-27T17:54:52Z</time>
      </trkpt>
      <trkpt lat="42.259578" lon="2.459402">
        <ele>599.043</ele>
        <time>2021-05-27T17:54:54Z</time>
      </trkpt>
      <trkpt lat="42.259600" lon="2.459410">
        <ele>598.969</ele>
        <time>2021-05-27T17:54:55Z</time>
      </trkpt>
      <trkpt lat="42.259631" lon="2.459418">
        <ele>598.672</ele>
        <time>2021-05-27T17:54:57Z</time>
      </trkpt>
      <trkpt lat="42.259664" lon="2.459425">
        <ele>598.313</ele>
        <time>2021-05-27T17:54:59Z</time>
      </trkpt>
      <trkpt lat="42.259696" lon="2.459430">
        <ele>597.814</ele>
        <time>2021-05-27T17:55:01Z</time>
      </trkpt>
      <trkpt lat="42.259725" lon="2.459445">
        <ele>598.008</ele>
        <time>2021-05-27T17:55:03Z</time>
      </trkpt>
      <trkpt lat="42.259747" lon="2.459455">
        <ele>598.454</ele>
        <time>2021-05-27T17:55:04Z</time>
      </trkpt>
      <trkpt lat="42.259770" lon="2.459458">
        <ele>598.471</ele>
        <time>2021-05-27T17:55:06Z</time>
      </trkpt>
      <trkpt lat="42.259814" lon="2.459458">
        <ele>598.049</ele>
        <time>2021-05-27T17:55:07Z</time>
      </trkpt>
      <trkpt lat="42.259835" lon="2.459458">
        <ele>597.949</ele>
        <time>2021-05-27T17:55:08Z</time>
      </trkpt>
      <trkpt lat="42.259856" lon="2.459455">
        <ele>597.636</ele>
        <time>2021-05-27T17:55:09Z</time>
      </trkpt>
      <trkpt lat="42.259877" lon="2.459449">
        <ele>597.161</ele>
        <time>2021-05-27T17:55:10Z</time>
      </trkpt>
      <trkpt lat="42.259899" lon="2.459438">
        <ele>596.424</ele>
        <time>2021-05-27T17:55:11Z</time>
      </trkpt>
      <trkpt lat="42.259919" lon="2.459430">
        <ele>595.950</ele>
        <time>2021-05-27T17:55:12Z</time>
      </trkpt>
      <trkpt lat="42.259937" lon="2.459421">
        <ele>595.396</ele>
        <time>2021-05-27T17:55:13Z</time>
      </trkpt>
      <trkpt lat="42.259956" lon="2.459417">
        <ele>594.931</ele>
        <time>2021-05-27T17:55:14Z</time>
      </trkpt>
      <trkpt lat="42.259996" lon="2.459407">
        <ele>594.124</ele>
        <time>2021-05-27T17:55:16Z</time>
      </trkpt>
      <trkpt lat="42.260014" lon="2.459404">
        <ele>593.708</ele>
        <time>2021-05-27T17:55:17Z</time>
      </trkpt>
      <trkpt lat="42.260032" lon="2.459401">
        <ele>593.186</ele>
        <time>2021-05-27T17:55:18Z</time>
      </trkpt>
      <trkpt lat="42.260051" lon="2.459402">
        <ele>592.873</ele>
        <time>2021-05-27T17:55:19Z</time>
      </trkpt>
      <trkpt lat="42.260069" lon="2.459404">
        <ele>592.541</ele>
        <time>2021-05-27T17:55:20Z</time>
      </trkpt>
      <trkpt lat="42.260090" lon="2.459407">
        <ele>592.271</ele>
        <time>2021-05-27T17:55:21Z</time>
      </trkpt>
      <trkpt lat="42.260127" lon="2.459416">
        <ele>591.748</ele>
        <time>2021-05-27T17:55:23Z</time>
      </trkpt>
      <trkpt lat="42.260145" lon="2.459418">
        <ele>591.493</ele>
        <time>2021-05-27T17:55:24Z</time>
      </trkpt>
      <trkpt lat="42.260163" lon="2.459420">
        <ele>591.026</ele>
        <time>2021-05-27T17:55:25Z</time>
      </trkpt>
      <trkpt lat="42.260209" lon="2.459422">
        <ele>590.022</ele>
        <time>2021-05-27T17:55:27Z</time>
      </trkpt>
      <trkpt lat="42.260228" lon="2.459425">
        <ele>589.786</ele>
        <time>2021-05-27T17:55:28Z</time>
      </trkpt>
      <trkpt lat="42.260251" lon="2.459425">
        <ele>589.160</ele>
        <time>2021-05-27T17:55:29Z</time>
      </trkpt>
      <trkpt lat="42.260269" lon="2.459432">
        <ele>588.926</ele>
        <time>2021-05-27T17:55:30Z</time>
      </trkpt>
      <trkpt lat="42.260288" lon="2.459440">
        <ele>588.608</ele>
        <time>2021-05-27T17:55:31Z</time>
      </trkpt>
      <trkpt lat="42.260307" lon="2.459450">
        <ele>588.545</ele>
        <time>2021-05-27T17:55:32Z</time>
      </trkpt>
      <trkpt lat="42.260325" lon="2.459461">
        <ele>588.572</ele>
        <time>2021-05-27T17:55:33Z</time>
      </trkpt>
      <trkpt lat="42.260343" lon="2.459469">
        <ele>588.330</ele>
        <time>2021-05-27T17:55:34Z</time>
      </trkpt>
      <trkpt lat="42.260360" lon="2.459480">
        <ele>588.390</ele>
        <time>2021-05-27T17:55:35Z</time>
      </trkpt>
      <trkpt lat="42.260376" lon="2.459492">
        <ele>588.377</ele>
        <time>2021-05-27T17:55:36Z</time>
      </trkpt>
      <trkpt lat="42.260397" lon="2.459500">
        <ele>588.172</ele>
        <time>2021-05-27T17:55:37Z</time>
      </trkpt>
      <trkpt lat="42.260416" lon="2.459507">
        <ele>587.915</ele>
        <time>2021-05-27T17:55:38Z</time>
      </trkpt>
      <trkpt lat="42.260446" lon="2.459523">
        <ele>587.761</ele>
        <time>2021-05-27T17:55:40Z</time>
      </trkpt>
      <trkpt lat="42.260478" lon="2.459539">
        <ele>587.576</ele>
        <time>2021-05-27T17:55:42Z</time>
      </trkpt>
      <trkpt lat="42.260529" lon="2.459555">
        <ele>586.790</ele>
        <time>2021-05-27T17:55:45Z</time>
      </trkpt>
      <trkpt lat="42.260560" lon="2.459564">
        <ele>586.219</ele>
        <time>2021-05-27T17:55:47Z</time>
      </trkpt>
      <trkpt lat="42.260588" lon="2.459572">
        <ele>585.908</ele>
        <time>2021-05-27T17:55:49Z</time>
      </trkpt>
      <trkpt lat="42.260620" lon="2.459578">
        <ele>585.454</ele>
        <time>2021-05-27T17:55:51Z</time>
      </trkpt>
      <trkpt lat="42.260650" lon="2.459593">
        <ele>585.351</ele>
        <time>2021-05-27T17:55:53Z</time>
      </trkpt>
      <trkpt lat="42.260669" lon="2.459598">
        <ele>585.029</ele>
        <time>2021-05-27T17:55:54Z</time>
      </trkpt>
      <trkpt lat="42.260688" lon="2.459603">
        <ele>584.749</ele>
        <time>2021-05-27T17:55:55Z</time>
      </trkpt>
      <trkpt lat="42.260709" lon="2.459606">
        <ele>584.336</ele>
        <time>2021-05-27T17:55:56Z</time>
      </trkpt>
      <trkpt lat="42.260733" lon="2.459610">
        <ele>583.991</ele>
        <time>2021-05-27T17:55:57Z</time>
      </trkpt>
      <trkpt lat="42.260753" lon="2.459620">
        <ele>583.784</ele>
        <time>2021-05-27T17:55:58Z</time>
      </trkpt>
      <trkpt lat="42.260775" lon="2.459627">
        <ele>583.340</ele>
        <time>2021-05-27T17:55:59Z</time>
      </trkpt>
      <trkpt lat="42.260812" lon="2.459638">
        <ele>582.742</ele>
        <time>2021-05-27T17:56:01Z</time>
      </trkpt>
      <trkpt lat="42.260830" lon="2.459646">
        <ele>582.422</ele>
        <time>2021-05-27T17:56:03Z</time>
      </trkpt>
      <trkpt lat="42.260872" lon="2.459665">
        <ele>581.914</ele>
        <time>2021-05-27T17:56:04Z</time>
      </trkpt>
      <trkpt lat="42.260893" lon="2.459677">
        <ele>581.708</ele>
        <time>2021-05-27T17:56:05Z</time>
      </trkpt>
      <trkpt lat="42.260910" lon="2.459689">
        <ele>581.571</ele>
        <time>2021-05-27T17:56:06Z</time>
      </trkpt>
      <trkpt lat="42.260928" lon="2.459700">
        <ele>581.218</ele>
        <time>2021-05-27T17:56:07Z</time>
      </trkpt>
      <trkpt lat="42.260945" lon="2.459713">
        <ele>581.086</ele>
        <time>2021-05-27T17:56:08Z</time>
      </trkpt>
      <trkpt lat="42.260962" lon="2.459724">
        <ele>580.896</ele>
        <time>2021-05-27T17:56:09Z</time>
      </trkpt>
      <trkpt lat="42.260981" lon="2.459734">
        <ele>580.853</ele>
        <time>2021-05-27T17:56:10Z</time>
      </trkpt>
      <trkpt lat="42.261000" lon="2.459741">
        <ele>580.668</ele>
        <time>2021-05-27T17:56:11Z</time>
      </trkpt>
      <trkpt lat="42.261018" lon="2.459750">
        <ele>580.491</ele>
        <time>2021-05-27T17:56:12Z</time>
      </trkpt>
      <trkpt lat="42.261040" lon="2.459755">
        <ele>580.157</ele>
        <time>2021-05-27T17:56:13Z</time>
      </trkpt>
      <trkpt lat="42.261060" lon="2.459762">
        <ele>579.835</ele>
        <time>2021-05-27T17:56:15Z</time>
      </trkpt>
      <trkpt lat="42.261079" lon="2.459768">
        <ele>579.586</ele>
        <time>2021-05-27T17:56:16Z</time>
      </trkpt>
      <trkpt lat="42.261101" lon="2.459772">
        <ele>579.114</ele>
        <time>2021-05-27T17:56:17Z</time>
      </trkpt>
      <trkpt lat="42.261121" lon="2.459780">
        <ele>578.908</ele>
        <time>2021-05-27T17:56:18Z</time>
      </trkpt>
      <trkpt lat="42.261139" lon="2.459790">
        <ele>579.080</ele>
        <time>2021-05-27T17:56:19Z</time>
      </trkpt>
      <trkpt lat="42.261169" lon="2.459802">
        <ele>578.957</ele>
        <time>2021-05-27T17:56:21Z</time>
      </trkpt>
      <trkpt lat="42.261204" lon="2.459809">
        <ele>578.635</ele>
        <time>2021-05-27T17:56:22Z</time>
      </trkpt>
      <trkpt lat="42.261223" lon="2.459807">
        <ele>578.275</ele>
        <time>2021-05-27T17:56:23Z</time>
      </trkpt>
      <trkpt lat="42.261256" lon="2.459803">
        <ele>577.632</ele>
        <time>2021-05-27T17:56:25Z</time>
      </trkpt>
      <trkpt lat="42.261279" lon="2.459802">
        <ele>577.257</ele>
        <time>2021-05-27T17:56:27Z</time>
      </trkpt>
      <trkpt lat="42.261270" lon="2.459781">
        <ele>576.870</ele>
        <time>2021-05-27T17:56:32Z</time>
      </trkpt>
      <trkpt lat="42.261246" lon="2.459792">
        <ele>577.476</ele>
        <time>2021-05-27T17:56:34Z</time>
      </trkpt>
      <trkpt lat="42.261268" lon="2.459789">
        <ele>577.096</ele>
        <time>2021-05-27T17:56:39Z</time>
      </trkpt>
      <trkpt lat="42.261292" lon="2.459766">
        <ele>576.131</ele>
        <time>2021-05-27T17:56:41Z</time>
      </trkpt>
      <trkpt lat="42.261306" lon="2.459749">
        <ele>575.524</ele>
        <time>2021-05-27T17:56:42Z</time>
      </trkpt>
      <trkpt lat="42.261328" lon="2.459723">
        <ele>574.708</ele>
        <time>2021-05-27T17:56:44Z</time>
      </trkpt>
      <trkpt lat="42.261352" lon="2.459699">
        <ele>574.686</ele>
        <time>2021-05-27T17:56:47Z</time>
      </trkpt>
      <trkpt lat="42.261372" lon="2.459678">
        <ele>574.643</ele>
        <time>2021-05-27T17:56:49Z</time>
      </trkpt>
      <trkpt lat="42.261394" lon="2.459649">
        <ele>574.811</ele>
        <time>2021-05-27T17:56:51Z</time>
      </trkpt>
      <trkpt lat="42.261416" lon="2.459621">
        <ele>575.181</ele>
        <time>2021-05-27T17:56:53Z</time>
      </trkpt>
      <trkpt lat="42.261433" lon="2.459597">
        <ele>575.498</ele>
        <time>2021-05-27T17:56:55Z</time>
      </trkpt>
      <trkpt lat="42.261454" lon="2.459577">
        <ele>575.643</ele>
        <time>2021-05-27T17:56:57Z</time>
      </trkpt>
      <trkpt lat="42.261477" lon="2.459557">
        <ele>575.876</ele>
        <time>2021-05-27T17:56:58Z</time>
      </trkpt>
      <trkpt lat="42.261497" lon="2.459535">
        <ele>576.062</ele>
        <time>2021-05-27T17:57:00Z</time>
      </trkpt>
      <trkpt lat="42.261515" lon="2.459510">
        <ele>576.364</ele>
        <time>2021-05-27T17:57:02Z</time>
      </trkpt>
      <trkpt lat="42.261534" lon="2.459486">
        <ele>576.606</ele>
        <time>2021-05-27T17:57:04Z</time>
      </trkpt>
      <trkpt lat="42.261553" lon="2.459464">
        <ele>576.816</ele>
        <time>2021-05-27T17:57:06Z</time>
      </trkpt>
      <trkpt lat="42.261571" lon="2.459441">
        <ele>577.108</ele>
        <time>2021-05-27T17:57:08Z</time>
      </trkpt>
      <trkpt lat="42.261589" lon="2.459422">
        <ele>577.553</ele>
        <time>2021-05-27T17:57:10Z</time>
      </trkpt>
      <trkpt lat="42.261607" lon="2.459405">
        <ele>577.810</ele>
        <time>2021-05-27T17:57:12Z</time>
      </trkpt>
      <trkpt lat="42.261624" lon="2.459389">
        <ele>578.278</ele>
        <time>2021-05-27T17:57:15Z</time>
      </trkpt>
      <trkpt lat="42.261640" lon="2.459370">
        <ele>578.658</ele>
        <time>2021-05-27T17:57:16Z</time>
      </trkpt>
      <trkpt lat="42.261637" lon="2.459342">
        <ele>579.245</ele>
        <time>2021-05-27T17:57:19Z</time>
      </trkpt>
      <trkpt lat="42.261643" lon="2.459316">
        <ele>579.710</ele>
        <time>2021-05-27T17:57:28Z</time>
      </trkpt>
      <trkpt lat="42.261667" lon="2.459316">
        <ele>579.813</ele>
        <time>2021-05-27T17:58:51Z</time>
      </trkpt>
      <trkpt lat="42.261700" lon="2.459327">
        <ele>578.979</ele>
        <time>2021-05-27T17:58:54Z</time>
      </trkpt>
      <trkpt lat="42.261725" lon="2.459327">
        <ele>578.514</ele>
        <time>2021-05-27T17:58:56Z</time>
      </trkpt>
      <trkpt lat="42.261750" lon="2.459327">
        <ele>578.054</ele>
        <time>2021-05-27T17:58:58Z</time>
      </trkpt>
      <trkpt lat="42.261775" lon="2.459329">
        <ele>577.509</ele>
        <time>2021-05-27T17:59:00Z</time>
      </trkpt>
      <trkpt lat="42.261800" lon="2.459334">
        <ele>577.008</ele>
        <time>2021-05-27T17:59:02Z</time>
      </trkpt>
      <trkpt lat="42.261823" lon="2.459337">
        <ele>576.598</ele>
        <time>2021-05-27T17:59:04Z</time>
      </trkpt>
      <trkpt lat="42.261843" lon="2.459347">
        <ele>576.155</ele>
        <time>2021-05-27T17:59:06Z</time>
      </trkpt>
      <trkpt lat="42.261859" lon="2.459364">
        <ele>575.783</ele>
        <time>2021-05-27T17:59:08Z</time>
      </trkpt>
      <trkpt lat="42.261870" lon="2.459390">
        <ele>575.323</ele>
        <time>2021-05-27T17:59:10Z</time>
      </trkpt>
      <trkpt lat="42.261874" lon="2.459418">
        <ele>575.010</ele>
        <time>2021-05-27T17:59:12Z</time>
      </trkpt>
      <trkpt lat="42.261874" lon="2.459446">
        <ele>574.835</ele>
        <time>2021-05-27T17:59:15Z</time>
      </trkpt>
      <trkpt lat="42.261885" lon="2.459472">
        <ele>574.568</ele>
        <time>2021-05-27T17:59:16Z</time>
      </trkpt>
      <trkpt lat="42.261898" lon="2.459496">
        <ele>574.364</ele>
        <time>2021-05-27T17:59:18Z</time>
      </trkpt>
      <trkpt lat="42.261906" lon="2.459521">
        <ele>574.145</ele>
        <time>2021-05-27T17:59:20Z</time>
      </trkpt>
      <trkpt lat="42.261921" lon="2.459541">
        <ele>573.847</ele>
        <time>2021-05-27T17:59:22Z</time>
      </trkpt>
      <trkpt lat="42.261932" lon="2.459566">
        <ele>573.711</ele>
        <time>2021-05-27T17:59:24Z</time>
      </trkpt>
      <trkpt lat="42.261941" lon="2.459589">
        <ele>573.508</ele>
        <time>2021-05-27T17:59:26Z</time>
      </trkpt>
      <trkpt lat="42.261955" lon="2.459609">
        <ele>573.351</ele>
        <time>2021-05-27T17:59:28Z</time>
      </trkpt>
      <trkpt lat="42.261980" lon="2.459622">
        <ele>573.118</ele>
        <time>2021-05-27T17:59:30Z</time>
      </trkpt>
      <trkpt lat="42.262002" lon="2.459637">
        <ele>573.076</ele>
        <time>2021-05-27T17:59:32Z</time>
      </trkpt>
      <trkpt lat="42.262040" lon="2.459651">
        <ele>572.726</ele>
        <time>2021-05-27T17:59:34Z</time>
      </trkpt>
      <trkpt lat="42.262061" lon="2.459654">
        <ele>572.633</ele>
        <time>2021-05-27T17:59:35Z</time>
      </trkpt>
      <trkpt lat="42.262083" lon="2.459654">
        <ele>572.588</ele>
        <time>2021-05-27T17:59:37Z</time>
      </trkpt>
      <trkpt lat="42.262104" lon="2.459653">
        <ele>572.461</ele>
        <time>2021-05-27T17:59:38Z</time>
      </trkpt>
      <trkpt lat="42.262122" lon="2.459654">
        <ele>572.377</ele>
        <time>2021-05-27T17:59:39Z</time>
      </trkpt>
      <trkpt lat="42.262142" lon="2.459654">
        <ele>572.229</ele>
        <time>2021-05-27T17:59:40Z</time>
      </trkpt>
      <trkpt lat="42.262163" lon="2.459653">
        <ele>572.100</ele>
        <time>2021-05-27T17:59:41Z</time>
      </trkpt>
      <trkpt lat="42.262183" lon="2.459655">
        <ele>572.020</ele>
        <time>2021-05-27T17:59:42Z</time>
      </trkpt>
      <trkpt lat="42.262220" lon="2.459657">
        <ele>571.808</ele>
        <time>2021-05-27T17:59:43Z</time>
      </trkpt>
      <trkpt lat="42.262239" lon="2.459660">
        <ele>571.799</ele>
        <time>2021-05-27T17:59:44Z</time>
      </trkpt>
      <trkpt lat="42.262273" lon="2.459664">
        <ele>571.566</ele>
        <time>2021-05-27T17:59:46Z</time>
      </trkpt>
      <trkpt lat="42.262311" lon="2.459666">
        <ele>571.244</ele>
        <time>2021-05-27T17:59:48Z</time>
      </trkpt>
      <trkpt lat="42.262346" lon="2.459665">
        <ele>571.034</ele>
        <time>2021-05-27T17:59:50Z</time>
      </trkpt>
      <trkpt lat="42.262396" lon="2.459674">
        <ele>570.781</ele>
        <time>2021-05-27T17:59:53Z</time>
      </trkpt>
      <trkpt lat="42.262416" lon="2.459678">
        <ele>570.696</ele>
        <time>2021-05-27T17:59:54Z</time>
      </trkpt>
      <trkpt lat="42.262454" lon="2.459680">
        <ele>570.319</ele>
        <time>2021-05-27T17:59:56Z</time>
      </trkpt>
      <trkpt lat="42.262475" lon="2.459681">
        <ele>570.255</ele>
        <time>2021-05-27T17:59:57Z</time>
      </trkpt>
      <trkpt lat="42.262496" lon="2.459681">
        <ele>570.078</ele>
        <time>2021-05-27T17:59:58Z</time>
      </trkpt>
      <trkpt lat="42.262516" lon="2.459679">
        <ele>569.933</ele>
        <time>2021-05-27T18:00:00Z</time>
      </trkpt>
      <trkpt lat="42.262557" lon="2.459677">
        <ele>569.826</ele>
        <time>2021-05-27T18:00:01Z</time>
      </trkpt>
      <trkpt lat="42.262578" lon="2.459680">
        <ele>569.708</ele>
        <time>2021-05-27T18:00:02Z</time>
      </trkpt>
      <trkpt lat="42.262615" lon="2.459681">
        <ele>569.534</ele>
        <time>2021-05-27T18:00:04Z</time>
      </trkpt>
      <trkpt lat="42.262633" lon="2.459682">
        <ele>569.571</ele>
        <time>2021-05-27T18:00:05Z</time>
      </trkpt>
      <trkpt lat="42.262652" lon="2.459682">
        <ele>569.479</ele>
        <time>2021-05-27T18:00:06Z</time>
      </trkpt>
      <trkpt lat="42.262686" lon="2.459683">
        <ele>569.219</ele>
        <time>2021-05-27T18:00:08Z</time>
      </trkpt>
      <trkpt lat="42.262708" lon="2.459682">
        <ele>569.136</ele>
        <time>2021-05-27T18:00:09Z</time>
      </trkpt>
      <trkpt lat="42.262746" lon="2.459688">
        <ele>569.031</ele>
        <time>2021-05-27T18:00:11Z</time>
      </trkpt>
      <trkpt lat="42.262767" lon="2.459687">
        <ele>568.934</ele>
        <time>2021-05-27T18:00:12Z</time>
      </trkpt>
      <trkpt lat="42.262786" lon="2.459687">
        <ele>568.880</ele>
        <time>2021-05-27T18:00:13Z</time>
      </trkpt>
      <trkpt lat="42.262805" lon="2.459683">
        <ele>568.638</ele>
        <time>2021-05-27T18:00:14Z</time>
      </trkpt>
      <trkpt lat="42.262824" lon="2.459679">
        <ele>568.470</ele>
        <time>2021-05-27T18:00:15Z</time>
      </trkpt>
      <trkpt lat="42.262858" lon="2.459669">
        <ele>568.117</ele>
        <time>2021-05-27T18:00:17Z</time>
      </trkpt>
      <trkpt lat="42.262891" lon="2.459658">
        <ele>567.708</ele>
        <time>2021-05-27T18:00:19Z</time>
      </trkpt>
      <trkpt lat="42.262914" lon="2.459646">
        <ele>567.550</ele>
        <time>2021-05-27T18:00:21Z</time>
      </trkpt>
      <trkpt lat="42.262935" lon="2.459642">
        <ele>567.327</ele>
        <time>2021-05-27T18:00:23Z</time>
      </trkpt>
      <trkpt lat="42.262956" lon="2.459642">
        <ele>567.235</ele>
        <time>2021-05-27T18:00:26Z</time>
      </trkpt>
      <trkpt lat="42.262987" lon="2.459643">
        <ele>566.995</ele>
        <time>2021-05-27T18:00:28Z</time>
      </trkpt>
      <trkpt lat="42.263009" lon="2.459642">
        <ele>566.742</ele>
        <time>2021-05-27T18:00:30Z</time>
      </trkpt>
      <trkpt lat="42.263027" lon="2.459638">
        <ele>566.597</ele>
        <time>2021-05-27T18:00:32Z</time>
      </trkpt>
      <trkpt lat="42.263054" lon="2.459634">
        <ele>566.340</ele>
        <time>2021-05-27T18:00:35Z</time>
      </trkpt>
      <trkpt lat="42.263075" lon="2.459643">
        <ele>566.836</ele>
        <time>2021-05-27T18:00:38Z</time>
      </trkpt>
      <trkpt lat="42.263084" lon="2.459669">
        <ele>566.955</ele>
        <time>2021-05-27T18:00:40Z</time>
      </trkpt>
      <trkpt lat="42.263090" lon="2.459700">
        <ele>566.907</ele>
        <time>2021-05-27T18:00:42Z</time>
      </trkpt>
      <trkpt lat="42.263094" lon="2.459735">
        <ele>567.017</ele>
        <time>2021-05-27T18:00:44Z</time>
      </trkpt>
      <trkpt lat="42.263109" lon="2.459764">
        <ele>567.308</ele>
        <time>2021-05-27T18:00:46Z</time>
      </trkpt>
      <trkpt lat="42.263120" lon="2.459785">
        <ele>567.542</ele>
        <time>2021-05-27T18:00:48Z</time>
      </trkpt>
      <trkpt lat="42.263127" lon="2.459810">
        <ele>567.679</ele>
        <time>2021-05-27T18:00:51Z</time>
      </trkpt>
      <trkpt lat="42.263133" lon="2.459837">
        <ele>567.727</ele>
        <time>2021-05-27T18:00:53Z</time>
      </trkpt>
      <trkpt lat="42.263138" lon="2.459865">
        <ele>567.837</ele>
        <time>2021-05-27T18:00:54Z</time>
      </trkpt>
      <trkpt lat="42.263141" lon="2.459890">
        <ele>567.814</ele>
        <time>2021-05-27T18:00:56Z</time>
      </trkpt>
      <trkpt lat="42.263152" lon="2.459923">
        <ele>567.929</ele>
        <time>2021-05-27T18:00:59Z</time>
      </trkpt>
      <trkpt lat="42.263168" lon="2.459954">
        <ele>568.262</ele>
        <time>2021-05-27T18:01:01Z</time>
      </trkpt>
      <trkpt lat="42.263178" lon="2.459987">
        <ele>568.218</ele>
        <time>2021-05-27T18:01:02Z</time>
      </trkpt>
      <trkpt lat="42.263186" lon="2.460026">
        <ele>568.259</ele>
        <time>2021-05-27T18:01:04Z</time>
      </trkpt>
      <trkpt lat="42.263197" lon="2.460071">
        <ele>568.003</ele>
        <time>2021-05-27T18:01:06Z</time>
      </trkpt>
      <trkpt lat="42.263203" lon="2.460109">
        <ele>567.823</ele>
        <time>2021-05-27T18:01:08Z</time>
      </trkpt>
      <trkpt lat="42.263211" lon="2.460146">
        <ele>567.608</ele>
        <time>2021-05-27T18:01:10Z</time>
      </trkpt>
      <trkpt lat="42.263224" lon="2.460191">
        <ele>567.452</ele>
        <time>2021-05-27T18:01:13Z</time>
      </trkpt>
      <trkpt lat="42.263246" lon="2.460230">
        <ele>567.279</ele>
        <time>2021-05-27T18:01:15Z</time>
      </trkpt>
      <trkpt lat="42.263262" lon="2.460268">
        <ele>566.867</ele>
        <time>2021-05-27T18:01:16Z</time>
      </trkpt>
      <trkpt lat="42.263288" lon="2.460304">
        <ele>566.637</ele>
        <time>2021-05-27T18:01:18Z</time>
      </trkpt>
      <trkpt lat="42.263302" lon="2.460330">
        <ele>566.464</ele>
        <time>2021-05-27T18:01:19Z</time>
      </trkpt>
      <trkpt lat="42.263325" lon="2.460345">
        <ele>566.359</ele>
        <time>2021-05-27T18:01:20Z</time>
      </trkpt>
      <trkpt lat="42.263341" lon="2.460358">
        <ele>566.462</ele>
        <time>2021-05-27T18:01:21Z</time>
      </trkpt>
      <trkpt lat="42.263364" lon="2.460381">
        <ele>566.878</ele>
        <time>2021-05-27T18:01:23Z</time>
      </trkpt>
      <trkpt lat="42.263375" lon="2.460420">
        <ele>566.643</ele>
        <time>2021-05-27T18:01:25Z</time>
      </trkpt>
      <trkpt lat="42.263388" lon="2.460444">
        <ele>566.564</ele>
        <time>2021-05-27T18:01:28Z</time>
      </trkpt>
      <trkpt lat="42.263411" lon="2.460465">
        <ele>566.610</ele>
        <time>2021-05-27T18:01:29Z</time>
      </trkpt>
      <trkpt lat="42.263498" lon="2.460540">
        <ele>566.208</ele>
        <time>2021-05-27T18:01:34Z</time>
      </trkpt>
      <trkpt lat="42.263513" lon="2.460555">
        <ele>566.061</ele>
        <time>2021-05-27T18:01:35Z</time>
      </trkpt>
      <trkpt lat="42.263538" lon="2.460580">
        <ele>566.078</ele>
        <time>2021-05-27T18:01:38Z</time>
      </trkpt>
      <trkpt lat="42.263583" lon="2.460604">
        <ele>566.236</ele>
        <time>2021-05-27T18:01:40Z</time>
      </trkpt>
      <trkpt lat="42.263606" lon="2.460621">
        <ele>566.386</ele>
        <time>2021-05-27T18:01:43Z</time>
      </trkpt>
      <trkpt lat="42.263631" lon="2.460612">
        <ele>566.743</ele>
        <time>2021-05-27T18:01:45Z</time>
      </trkpt>
      <trkpt lat="42.263657" lon="2.460605">
        <ele>567.138</ele>
        <time>2021-05-27T18:01:46Z</time>
      </trkpt>
      <trkpt lat="42.263689" lon="2.460604">
        <ele>567.611</ele>
        <time>2021-05-27T18:01:48Z</time>
      </trkpt>
      <trkpt lat="42.263709" lon="2.460610">
        <ele>567.837</ele>
        <time>2021-05-27T18:01:49Z</time>
      </trkpt>
      <trkpt lat="42.263749" lon="2.460620">
        <ele>568.134</ele>
        <time>2021-05-27T18:01:51Z</time>
      </trkpt>
      <trkpt lat="42.263768" lon="2.460625">
        <ele>568.255</ele>
        <time>2021-05-27T18:01:53Z</time>
      </trkpt>
      <trkpt lat="42.263786" lon="2.460623">
        <ele>568.510</ele>
        <time>2021-05-27T18:01:54Z</time>
      </trkpt>
      <trkpt lat="42.263815" lon="2.460631">
        <ele>568.708</ele>
        <time>2021-05-27T18:01:55Z</time>
      </trkpt>
      <trkpt lat="42.263840" lon="2.460637">
        <ele>568.890</ele>
        <time>2021-05-27T18:01:57Z</time>
      </trkpt>
      <trkpt lat="42.263866" lon="2.460648">
        <ele>568.847</ele>
        <time>2021-05-27T18:01:59Z</time>
      </trkpt>
      <trkpt lat="42.263888" lon="2.460663">
        <ele>568.515</ele>
        <time>2021-05-27T18:02:02Z</time>
      </trkpt>
      <trkpt lat="42.263910" lon="2.460684">
        <ele>568.495</ele>
        <time>2021-05-27T18:02:04Z</time>
      </trkpt>
      <trkpt lat="42.263939" lon="2.460713">
        <ele>568.242</ele>
        <time>2021-05-27T18:02:05Z</time>
      </trkpt>
      <trkpt lat="42.263956" lon="2.460722">
        <ele>568.317</ele>
        <time>2021-05-27T18:02:06Z</time>
      </trkpt>
      <trkpt lat="42.263986" lon="2.460754">
        <ele>567.710</ele>
        <time>2021-05-27T18:02:08Z</time>
      </trkpt>
      <trkpt lat="42.263998" lon="2.460772">
        <ele>567.266</ele>
        <time>2021-05-27T18:02:09Z</time>
      </trkpt>
      <trkpt lat="42.264013" lon="2.460789">
        <ele>566.717</ele>
        <time>2021-05-27T18:02:10Z</time>
      </trkpt>
      <trkpt lat="42.264029" lon="2.460804">
        <ele>566.387</ele>
        <time>2021-05-27T18:02:11Z</time>
      </trkpt>
      <trkpt lat="42.264046" lon="2.460818">
        <ele>566.015</ele>
        <time>2021-05-27T18:02:12Z</time>
      </trkpt>
      <trkpt lat="42.264065" lon="2.460830">
        <ele>565.708</ele>
        <time>2021-05-27T18:02:13Z</time>
      </trkpt>
      <trkpt lat="42.264096" lon="2.460851">
        <ele>565.868</ele>
        <time>2021-05-27T18:02:15Z</time>
      </trkpt>
      <trkpt lat="42.264114" lon="2.460864">
        <ele>565.945</ele>
        <time>2021-05-27T18:02:16Z</time>
      </trkpt>
      <trkpt lat="42.264137" lon="2.460872">
        <ele>566.163</ele>
        <time>2021-05-27T18:02:17Z</time>
      </trkpt>
      <trkpt lat="42.264157" lon="2.460881">
        <ele>566.263</ele>
        <time>2021-05-27T18:02:18Z</time>
      </trkpt>
      <trkpt lat="42.264178" lon="2.460891">
        <ele>566.280</ele>
        <time>2021-05-27T18:02:19Z</time>
      </trkpt>
      <trkpt lat="42.264198" lon="2.460904">
        <ele>566.115</ele>
        <time>2021-05-27T18:02:20Z</time>
      </trkpt>
      <trkpt lat="42.264219" lon="2.460912">
        <ele>566.038</ele>
        <time>2021-05-27T18:02:21Z</time>
      </trkpt>
      <trkpt lat="42.264243" lon="2.460914">
        <ele>566.084</ele>
        <time>2021-05-27T18:02:22Z</time>
      </trkpt>
      <trkpt lat="42.264265" lon="2.460918">
        <ele>566.099</ele>
        <time>2021-05-27T18:02:24Z</time>
      </trkpt>
      <trkpt lat="42.264310" lon="2.460926">
        <ele>566.007</ele>
        <time>2021-05-27T18:02:25Z</time>
      </trkpt>
      <trkpt lat="42.264330" lon="2.460933">
        <ele>565.927</ele>
        <time>2021-05-27T18:02:26Z</time>
      </trkpt>
      <trkpt lat="42.264356" lon="2.460936">
        <ele>566.008</ele>
        <time>2021-05-27T18:02:27Z</time>
      </trkpt>
      <trkpt lat="42.264382" lon="2.460944">
        <ele>565.916</ele>
        <time>2021-05-27T18:02:28Z</time>
      </trkpt>
      <trkpt lat="42.264404" lon="2.460951">
        <ele>565.813</ele>
        <time>2021-05-27T18:02:29Z</time>
      </trkpt>
      <trkpt lat="42.264428" lon="2.460957">
        <ele>565.751</ele>
        <time>2021-05-27T18:02:30Z</time>
      </trkpt>
      <trkpt lat="42.264449" lon="2.460969">
        <ele>565.511</ele>
        <time>2021-05-27T18:02:31Z</time>
      </trkpt>
      <trkpt lat="42.264471" lon="2.460982">
        <ele>565.318</ele>
        <time>2021-05-27T18:02:32Z</time>
      </trkpt>
      <trkpt lat="42.264491" lon="2.460999">
        <ele>565.053</ele>
        <time>2021-05-27T18:02:33Z</time>
      </trkpt>
      <trkpt lat="42.264512" lon="2.461008">
        <ele>564.846</ele>
        <time>2021-05-27T18:02:34Z</time>
      </trkpt>
      <trkpt lat="42.264532" lon="2.461022">
        <ele>564.622</ele>
        <time>2021-05-27T18:02:35Z</time>
      </trkpt>
      <trkpt lat="42.264552" lon="2.461033">
        <ele>564.533</ele>
        <time>2021-05-27T18:02:36Z</time>
      </trkpt>
      <trkpt lat="42.264572" lon="2.461044">
        <ele>564.323</ele>
        <time>2021-05-27T18:02:37Z</time>
      </trkpt>
      <trkpt lat="42.264591" lon="2.461053">
        <ele>564.215</ele>
        <time>2021-05-27T18:02:39Z</time>
      </trkpt>
      <trkpt lat="42.264607" lon="2.461067">
        <ele>564.108</ele>
        <time>2021-05-27T18:02:40Z</time>
      </trkpt>
      <trkpt lat="42.264625" lon="2.461082">
        <ele>564.090</ele>
        <time>2021-05-27T18:02:41Z</time>
      </trkpt>
      <trkpt lat="42.264643" lon="2.461094">
        <ele>563.917</ele>
        <time>2021-05-27T18:02:42Z</time>
      </trkpt>
      <trkpt lat="42.264682" lon="2.461116">
        <ele>563.865</ele>
        <time>2021-05-27T18:02:43Z</time>
      </trkpt>
      <trkpt lat="42.264699" lon="2.461129">
        <ele>563.985</ele>
        <time>2021-05-27T18:02:44Z</time>
      </trkpt>
      <trkpt lat="42.264719" lon="2.461140">
        <ele>563.942</ele>
        <time>2021-05-27T18:02:45Z</time>
      </trkpt>
      <trkpt lat="42.264738" lon="2.461149">
        <ele>563.947</ele>
        <time>2021-05-27T18:02:46Z</time>
      </trkpt>
      <trkpt lat="42.264754" lon="2.461161">
        <ele>563.810</ele>
        <time>2021-05-27T18:02:47Z</time>
      </trkpt>
      <trkpt lat="42.264772" lon="2.461169">
        <ele>563.876</ele>
        <time>2021-05-27T18:02:48Z</time>
      </trkpt>
      <trkpt lat="42.264791" lon="2.461178">
        <ele>563.762</ele>
        <time>2021-05-27T18:02:49Z</time>
      </trkpt>
      <trkpt lat="42.264812" lon="2.461192">
        <ele>563.683</ele>
        <time>2021-05-27T18:02:50Z</time>
      </trkpt>
      <trkpt lat="42.264832" lon="2.461203">
        <ele>563.511</ele>
        <time>2021-05-27T18:02:51Z</time>
      </trkpt>
      <trkpt lat="42.264853" lon="2.461209">
        <ele>563.508</ele>
        <time>2021-05-27T18:02:52Z</time>
      </trkpt>
      <trkpt lat="42.264874" lon="2.461217">
        <ele>563.493</ele>
        <time>2021-05-27T18:02:53Z</time>
      </trkpt>
      <trkpt lat="42.264892" lon="2.461227">
        <ele>563.340</ele>
        <time>2021-05-27T18:02:54Z</time>
      </trkpt>
      <trkpt lat="42.264929" lon="2.461243">
        <ele>563.298</ele>
        <time>2021-05-27T18:02:56Z</time>
      </trkpt>
      <trkpt lat="42.264950" lon="2.461251">
        <ele>563.188</ele>
        <time>2021-05-27T18:02:57Z</time>
      </trkpt>
      <trkpt lat="42.264992" lon="2.461268">
        <ele>562.985</ele>
        <time>2021-05-27T18:02:59Z</time>
      </trkpt>
      <trkpt lat="42.265012" lon="2.461277">
        <ele>562.850</ele>
        <time>2021-05-27T18:03:00Z</time>
      </trkpt>
      <trkpt lat="42.265030" lon="2.461280">
        <ele>562.863</ele>
        <time>2021-05-27T18:03:01Z</time>
      </trkpt>
      <trkpt lat="42.265050" lon="2.461284">
        <ele>562.889</ele>
        <time>2021-05-27T18:03:02Z</time>
      </trkpt>
      <trkpt lat="42.265070" lon="2.461284">
        <ele>562.887</ele>
        <time>2021-05-27T18:03:03Z</time>
      </trkpt>
      <trkpt lat="42.265090" lon="2.461288">
        <ele>562.742</ele>
        <time>2021-05-27T18:03:04Z</time>
      </trkpt>
      <trkpt lat="42.265112" lon="2.461291">
        <ele>562.726</ele>
        <time>2021-05-27T18:03:05Z</time>
      </trkpt>
      <trkpt lat="42.265135" lon="2.461293">
        <ele>562.708</ele>
        <time>2021-05-27T18:03:06Z</time>
      </trkpt>
      <trkpt lat="42.265153" lon="2.461299">
        <ele>562.625</ele>
        <time>2021-05-27T18:03:07Z</time>
      </trkpt>
      <trkpt lat="42.265176" lon="2.461301">
        <ele>562.652</ele>
        <time>2021-05-27T18:03:08Z</time>
      </trkpt>
      <trkpt lat="42.265195" lon="2.461305">
        <ele>562.610</ele>
        <time>2021-05-27T18:03:09Z</time>
      </trkpt>
      <trkpt lat="42.265214" lon="2.461310">
        <ele>562.610</ele>
        <time>2021-05-27T18:03:10Z</time>
      </trkpt>
      <trkpt lat="42.265232" lon="2.461313">
        <ele>562.527</ele>
        <time>2021-05-27T18:03:11Z</time>
      </trkpt>
      <trkpt lat="42.265266" lon="2.461318">
        <ele>562.542</ele>
        <time>2021-05-27T18:03:13Z</time>
      </trkpt>
      <trkpt lat="42.265288" lon="2.461319">
        <ele>562.515</ele>
        <time>2021-05-27T18:03:14Z</time>
      </trkpt>
      <trkpt lat="42.265311" lon="2.461320">
        <ele>562.531</ele>
        <time>2021-05-27T18:03:15Z</time>
      </trkpt>
      <trkpt lat="42.265330" lon="2.461325">
        <ele>562.518</ele>
        <time>2021-05-27T18:03:16Z</time>
      </trkpt>
      <trkpt lat="42.265349" lon="2.461330">
        <ele>562.498</ele>
        <time>2021-05-27T18:03:17Z</time>
      </trkpt>
      <trkpt lat="42.265367" lon="2.461336">
        <ele>562.417</ele>
        <time>2021-05-27T18:03:18Z</time>
      </trkpt>
      <trkpt lat="42.265390" lon="2.461334">
        <ele>562.408</ele>
        <time>2021-05-27T18:03:19Z</time>
      </trkpt>
      <trkpt lat="42.265410" lon="2.461334">
        <ele>562.458</ele>
        <time>2021-05-27T18:03:20Z</time>
      </trkpt>
      <trkpt lat="42.265443" lon="2.461332">
        <ele>562.475</ele>
        <time>2021-05-27T18:03:22Z</time>
      </trkpt>
      <trkpt lat="42.265480" lon="2.461326">
        <ele>562.533</ele>
        <time>2021-05-27T18:03:24Z</time>
      </trkpt>
      <trkpt lat="42.265500" lon="2.461323">
        <ele>562.553</ele>
        <time>2021-05-27T18:03:25Z</time>
      </trkpt>
      <trkpt lat="42.265518" lon="2.461319">
        <ele>562.590</ele>
        <time>2021-05-27T18:03:26Z</time>
      </trkpt>
      <trkpt lat="42.265540" lon="2.461308">
        <ele>562.675</ele>
        <time>2021-05-27T18:03:27Z</time>
      </trkpt>
      <trkpt lat="42.265560" lon="2.461298">
        <ele>562.688</ele>
        <time>2021-05-27T18:03:28Z</time>
      </trkpt>
      <trkpt lat="42.265578" lon="2.461288">
        <ele>562.734</ele>
        <time>2021-05-27T18:03:29Z</time>
      </trkpt>
      <trkpt lat="42.265594" lon="2.461277">
        <ele>562.769</ele>
        <time>2021-05-27T18:03:30Z</time>
      </trkpt>
      <trkpt lat="42.265613" lon="2.461272">
        <ele>562.704</ele>
        <time>2021-05-27T18:03:31Z</time>
      </trkpt>
      <trkpt lat="42.265634" lon="2.461264">
        <ele>562.724</ele>
        <time>2021-05-27T18:03:32Z</time>
      </trkpt>
      <trkpt lat="42.265656" lon="2.461259">
        <ele>562.708</ele>
        <time>2021-05-27T18:03:33Z</time>
      </trkpt>
      <trkpt lat="42.265680" lon="2.461254">
        <ele>562.763</ele>
        <time>2021-05-27T18:03:34Z</time>
      </trkpt>
      <trkpt lat="42.265702" lon="2.461249">
        <ele>562.730</ele>
        <time>2021-05-27T18:03:35Z</time>
      </trkpt>
      <trkpt lat="42.265723" lon="2.461244">
        <ele>562.848</ele>
        <time>2021-05-27T18:03:36Z</time>
      </trkpt>
      <trkpt lat="42.265743" lon="2.461235">
        <ele>562.898</ele>
        <time>2021-05-27T18:03:37Z</time>
      </trkpt>
      <trkpt lat="42.265760" lon="2.461226">
        <ele>562.985</ele>
        <time>2021-05-27T18:03:38Z</time>
      </trkpt>
      <trkpt lat="42.265779" lon="2.461218">
        <ele>562.950</ele>
        <time>2021-05-27T18:03:39Z</time>
      </trkpt>
      <trkpt lat="42.265809" lon="2.461205">
        <ele>563.053</ele>
        <time>2021-05-27T18:03:41Z</time>
      </trkpt>
      <trkpt lat="42.265842" lon="2.461186">
        <ele>563.269</ele>
        <time>2021-05-27T18:03:43Z</time>
      </trkpt>
      <trkpt lat="42.265878" lon="2.461176">
        <ele>563.377</ele>
        <time>2021-05-27T18:03:45Z</time>
      </trkpt>
      <trkpt lat="42.265912" lon="2.461174">
        <ele>563.461</ele>
        <time>2021-05-27T18:03:47Z</time>
      </trkpt>
      <trkpt lat="42.265930" lon="2.461177">
        <ele>563.427</ele>
        <time>2021-05-27T18:03:48Z</time>
      </trkpt>
      <trkpt lat="42.265949" lon="2.461183">
        <ele>563.308</ele>
        <time>2021-05-27T18:03:49Z</time>
      </trkpt>
      <trkpt lat="42.265985" lon="2.461201">
        <ele>563.064</ele>
        <time>2021-05-27T18:03:51Z</time>
      </trkpt>
      <trkpt lat="42.266013" lon="2.461220">
        <ele>562.741</ele>
        <time>2021-05-27T18:03:54Z</time>
      </trkpt>
      <trkpt lat="42.266032" lon="2.461237">
        <ele>562.449</ele>
        <time>2021-05-27T18:03:55Z</time>
      </trkpt>
      <trkpt lat="42.266045" lon="2.461252">
        <ele>562.139</ele>
        <time>2021-05-27T18:03:58Z</time>
      </trkpt>
      <trkpt lat="42.266072" lon="2.461271">
        <ele>561.636</ele>
        <time>2021-05-27T18:04:00Z</time>
      </trkpt>
      <trkpt lat="42.266088" lon="2.461303">
        <ele>560.921</ele>
        <time>2021-05-27T18:04:01Z</time>
      </trkpt>
      <trkpt lat="42.266107" lon="2.461330">
        <ele>560.354</ele>
        <time>2021-05-27T18:04:03Z</time>
      </trkpt>
      <trkpt lat="42.266124" lon="2.461343">
        <ele>560.390</ele>
        <time>2021-05-27T18:04:05Z</time>
      </trkpt>
      <trkpt lat="42.266147" lon="2.461341">
        <ele>560.921</ele>
        <time>2021-05-27T18:04:08Z</time>
      </trkpt>
      <trkpt lat="42.266168" lon="2.461347">
        <ele>561.241</ele>
        <time>2021-05-27T18:04:10Z</time>
      </trkpt>
      <trkpt lat="42.266196" lon="2.461362">
        <ele>561.405</ele>
        <time>2021-05-27T18:04:13Z</time>
      </trkpt>
      <trkpt lat="42.266219" lon="2.461365">
        <ele>561.808</ele>
        <time>2021-05-27T18:04:15Z</time>
      </trkpt>
      <trkpt lat="42.266241" lon="2.461368">
        <ele>562.139</ele>
        <time>2021-05-27T18:04:17Z</time>
      </trkpt>
      <trkpt lat="42.266262" lon="2.461376">
        <ele>562.216</ele>
        <time>2021-05-27T18:04:19Z</time>
      </trkpt>
      <trkpt lat="42.266285" lon="2.461392">
        <ele>562.124</ele>
        <time>2021-05-27T18:04:21Z</time>
      </trkpt>
      <trkpt lat="42.266311" lon="2.461413">
        <ele>562.324</ele>
        <time>2021-05-27T18:04:23Z</time>
      </trkpt>
      <trkpt lat="42.266336" lon="2.461428">
        <ele>562.431</ele>
        <time>2021-05-27T18:04:25Z</time>
      </trkpt>
      <trkpt lat="42.266363" lon="2.461440">
        <ele>562.496</ele>
        <time>2021-05-27T18:04:27Z</time>
      </trkpt>
      <trkpt lat="42.266387" lon="2.461460">
        <ele>561.939</ele>
        <time>2021-05-27T18:04:29Z</time>
      </trkpt>
      <trkpt lat="42.266414" lon="2.461482">
        <ele>562.225</ele>
        <time>2021-05-27T18:04:32Z</time>
      </trkpt>
      <trkpt lat="42.266437" lon="2.461506">
        <ele>562.271</ele>
        <time>2021-05-27T18:04:33Z</time>
      </trkpt>
      <trkpt lat="42.266459" lon="2.461524">
        <ele>562.341</ele>
        <time>2021-05-27T18:04:35Z</time>
      </trkpt>
      <trkpt lat="42.266479" lon="2.461538">
        <ele>562.415</ele>
        <time>2021-05-27T18:04:38Z</time>
      </trkpt>
      <trkpt lat="42.266502" lon="2.461544">
        <ele>562.808</ele>
        <time>2021-05-27T18:04:39Z</time>
      </trkpt>
      <trkpt lat="42.266521" lon="2.461546">
        <ele>563.224</ele>
        <time>2021-05-27T18:04:41Z</time>
      </trkpt>
      <trkpt lat="42.266543" lon="2.461542">
        <ele>564.121</ele>
        <time>2021-05-27T18:04:43Z</time>
      </trkpt>
      <trkpt lat="42.266558" lon="2.461557">
        <ele>563.859</ele>
        <time>2021-05-27T18:04:45Z</time>
      </trkpt>
      <trkpt lat="42.266575" lon="2.461571">
        <ele>563.539</ele>
        <time>2021-05-27T18:04:47Z</time>
      </trkpt>
      <trkpt lat="42.266592" lon="2.461591">
        <ele>562.936</ele>
        <time>2021-05-27T18:04:49Z</time>
      </trkpt>
      <trkpt lat="42.266606" lon="2.461617">
        <ele>561.821</ele>
        <time>2021-05-27T18:04:51Z</time>
      </trkpt>
      <trkpt lat="42.266620" lon="2.461634">
        <ele>561.174</ele>
        <time>2021-05-27T18:04:53Z</time>
      </trkpt>
      <trkpt lat="42.266641" lon="2.461649">
        <ele>560.740</ele>
        <time>2021-05-27T18:04:55Z</time>
      </trkpt>
      <trkpt lat="42.266661" lon="2.461664">
        <ele>560.139</ele>
        <time>2021-05-27T18:04:57Z</time>
      </trkpt>
      <trkpt lat="42.266680" lon="2.461683">
        <ele>560.601</ele>
        <time>2021-05-27T18:04:59Z</time>
      </trkpt>
      <trkpt lat="42.266702" lon="2.461696">
        <ele>561.921</ele>
        <time>2021-05-27T18:05:01Z</time>
      </trkpt>
      <trkpt lat="42.266726" lon="2.461712">
        <ele>563.108</ele>
        <time>2021-05-27T18:05:03Z</time>
      </trkpt>
      <trkpt lat="42.266747" lon="2.461726">
        <ele>564.110</ele>
        <time>2021-05-27T18:05:05Z</time>
      </trkpt>
      <trkpt lat="42.266771" lon="2.461744">
        <ele>565.197</ele>
        <time>2021-05-27T18:05:07Z</time>
      </trkpt>
      <trkpt lat="42.266793" lon="2.461769">
        <ele>565.465</ele>
        <time>2021-05-27T18:05:10Z</time>
      </trkpt>
      <trkpt lat="42.266812" lon="2.461793">
        <ele>565.585</ele>
        <time>2021-05-27T18:05:11Z</time>
      </trkpt>
      <trkpt lat="42.266829" lon="2.461818">
        <ele>565.292</ele>
        <time>2021-05-27T18:05:13Z</time>
      </trkpt>
      <trkpt lat="42.266848" lon="2.461848">
        <ele>564.777</ele>
        <time>2021-05-27T18:05:15Z</time>
      </trkpt>
      <trkpt lat="42.266873" lon="2.461882">
        <ele>564.070</ele>
        <time>2021-05-27T18:05:17Z</time>
      </trkpt>
      <trkpt lat="42.266887" lon="2.461898">
        <ele>563.756</ele>
        <time>2021-05-27T18:05:18Z</time>
      </trkpt>
      <trkpt lat="42.266918" lon="2.461916">
        <ele>563.929</ele>
        <time>2021-05-27T18:05:20Z</time>
      </trkpt>
      <trkpt lat="42.266941" lon="2.461934">
        <ele>563.600</ele>
        <time>2021-05-27T18:05:22Z</time>
      </trkpt>
      <trkpt lat="42.266965" lon="2.461949">
        <ele>564.120</ele>
        <time>2021-05-27T18:05:24Z</time>
      </trkpt>
      <trkpt lat="42.266986" lon="2.461973">
        <ele>564.708</ele>
        <time>2021-05-27T18:05:26Z</time>
      </trkpt>
      <trkpt lat="42.267005" lon="2.461992">
        <ele>565.319</ele>
        <time>2021-05-27T18:05:28Z</time>
      </trkpt>
      <trkpt lat="42.267024" lon="2.462017">
        <ele>565.676</ele>
        <time>2021-05-27T18:05:30Z</time>
      </trkpt>
      <trkpt lat="42.267048" lon="2.462036">
        <ele>566.554</ele>
        <time>2021-05-27T18:05:32Z</time>
      </trkpt>
      <trkpt lat="42.267066" lon="2.462053">
        <ele>567.014</ele>
        <time>2021-05-27T18:05:34Z</time>
      </trkpt>
      <trkpt lat="42.267083" lon="2.462073">
        <ele>567.351</ele>
        <time>2021-05-27T18:05:37Z</time>
      </trkpt>
      <trkpt lat="42.267101" lon="2.462099">
        <ele>567.576</ele>
        <time>2021-05-27T18:05:38Z</time>
      </trkpt>
      <trkpt lat="42.267119" lon="2.462121">
        <ele>567.879</ele>
        <time>2021-05-27T18:05:40Z</time>
      </trkpt>
      <trkpt lat="42.267139" lon="2.462147">
        <ele>568.185</ele>
        <time>2021-05-27T18:05:42Z</time>
      </trkpt>
      <trkpt lat="42.267159" lon="2.462181">
        <ele>568.052</ele>
        <time>2021-05-27T18:05:44Z</time>
      </trkpt>
      <trkpt lat="42.267177" lon="2.462210">
        <ele>568.053</ele>
        <time>2021-05-27T18:05:46Z</time>
      </trkpt>
      <trkpt lat="42.267197" lon="2.462235">
        <ele>568.008</ele>
        <time>2021-05-27T18:05:48Z</time>
      </trkpt>
      <trkpt lat="42.267219" lon="2.462250">
        <ele>568.408</ele>
        <time>2021-05-27T18:05:50Z</time>
      </trkpt>
      <trkpt lat="42.267238" lon="2.462276">
        <ele>568.182</ele>
        <time>2021-05-27T18:05:53Z</time>
      </trkpt>
      <trkpt lat="42.267256" lon="2.462300">
        <ele>567.889</ele>
        <time>2021-05-27T18:05:55Z</time>
      </trkpt>
      <trkpt lat="42.267276" lon="2.462322">
        <ele>567.717</ele>
        <time>2021-05-27T18:05:57Z</time>
      </trkpt>
      <trkpt lat="42.267298" lon="2.462344">
        <ele>567.817</ele>
        <time>2021-05-27T18:05:59Z</time>
      </trkpt>
      <trkpt lat="42.267321" lon="2.462367">
        <ele>567.954</ele>
        <time>2021-05-27T18:06:01Z</time>
      </trkpt>
      <trkpt lat="42.267347" lon="2.462394">
        <ele>568.059</ele>
        <time>2021-05-27T18:06:03Z</time>
      </trkpt>
      <trkpt lat="42.267373" lon="2.462423">
        <ele>568.172</ele>
        <time>2021-05-27T18:06:05Z</time>
      </trkpt>
      <trkpt lat="42.267386" lon="2.462441">
        <ele>568.088</ele>
        <time>2021-05-27T18:06:06Z</time>
      </trkpt>
      <trkpt lat="42.267398" lon="2.462461">
        <ele>567.813</ele>
        <time>2021-05-27T18:06:07Z</time>
      </trkpt>
      <trkpt lat="42.267409" lon="2.462481">
        <ele>567.643</ele>
        <time>2021-05-27T18:06:08Z</time>
      </trkpt>
      <trkpt lat="42.267421" lon="2.462502">
        <ele>567.407</ele>
        <time>2021-05-27T18:06:09Z</time>
      </trkpt>
      <trkpt lat="42.267432" lon="2.462521">
        <ele>567.308</ele>
        <time>2021-05-27T18:06:10Z</time>
      </trkpt>
      <trkpt lat="42.267457" lon="2.462556">
        <ele>567.418</ele>
        <time>2021-05-27T18:06:12Z</time>
      </trkpt>
      <trkpt lat="42.267470" lon="2.462575">
        <ele>567.335</ele>
        <time>2021-05-27T18:06:13Z</time>
      </trkpt>
      <trkpt lat="42.267484" lon="2.462595">
        <ele>567.143</ele>
        <time>2021-05-27T18:06:14Z</time>
      </trkpt>
      <trkpt lat="42.267513" lon="2.462628">
        <ele>566.933</ele>
        <time>2021-05-27T18:06:16Z</time>
      </trkpt>
      <trkpt lat="42.267528" lon="2.462644">
        <ele>566.840</ele>
        <time>2021-05-27T18:06:17Z</time>
      </trkpt>
      <trkpt lat="42.267555" lon="2.462672">
        <ele>566.625</ele>
        <time>2021-05-27T18:06:19Z</time>
      </trkpt>
      <trkpt lat="42.267575" lon="2.462698">
        <ele>566.348</ele>
        <time>2021-05-27T18:06:21Z</time>
      </trkpt>
      <trkpt lat="42.267598" lon="2.462729">
        <ele>565.964</ele>
        <time>2021-05-27T18:06:23Z</time>
      </trkpt>
      <trkpt lat="42.267619" lon="2.462758">
        <ele>565.576</ele>
        <time>2021-05-27T18:06:26Z</time>
      </trkpt>
      <trkpt lat="42.267633" lon="2.462777">
        <ele>565.390</ele>
        <time>2021-05-27T18:06:28Z</time>
      </trkpt>
      <trkpt lat="42.267645" lon="2.462806">
        <ele>564.719</ele>
        <time>2021-05-27T18:06:29Z</time>
      </trkpt>
      <trkpt lat="42.267662" lon="2.462843">
        <ele>564.008</ele>
        <time>2021-05-27T18:06:32Z</time>
      </trkpt>
      <trkpt lat="42.267685" lon="2.462876">
        <ele>563.744</ele>
        <time>2021-05-27T18:06:34Z</time>
      </trkpt>
      <trkpt lat="42.267705" lon="2.462908">
        <ele>563.241</ele>
        <time>2021-05-27T18:06:36Z</time>
      </trkpt>
      <trkpt lat="42.267732" lon="2.462934">
        <ele>563.229</ele>
        <time>2021-05-27T18:06:38Z</time>
      </trkpt>
      <trkpt lat="42.267763" lon="2.462959">
        <ele>563.359</ele>
        <time>2021-05-27T18:06:40Z</time>
      </trkpt>
      <trkpt lat="42.267787" lon="2.462989">
        <ele>562.566</ele>
        <time>2021-05-27T18:06:41Z</time>
      </trkpt>
      <trkpt lat="42.267798" lon="2.463014">
        <ele>561.451</ele>
        <time>2021-05-27T18:06:42Z</time>
      </trkpt>
      <trkpt lat="42.267811" lon="2.463044">
        <ele>560.154</ele>
        <time>2021-05-27T18:06:44Z</time>
      </trkpt>
      <trkpt lat="42.267785" lon="2.463038">
        <ele>560.690</ele>
        <time>2021-05-27T18:06:46Z</time>
      </trkpt>
      <trkpt lat="42.267757" lon="2.463009">
        <ele>561.155</ele>
        <time>2021-05-27T18:06:49Z</time>
      </trkpt>
      <trkpt lat="42.267731" lon="2.462992">
        <ele>560.907</ele>
        <time>2021-05-27T18:06:51Z</time>
      </trkpt>
      <trkpt lat="42.267745" lon="2.463028">
        <ele>560.017</ele>
        <time>2021-05-27T18:06:56Z</time>
      </trkpt>
      <trkpt lat="42.267761" lon="2.463059">
        <ele>559.308</ele>
        <time>2021-05-27T18:06:57Z</time>
      </trkpt>
      <trkpt lat="42.267773" lon="2.463085">
        <ele>558.792</ele>
        <time>2021-05-27T18:06:59Z</time>
      </trkpt>
      <trkpt lat="42.267789" lon="2.463115">
        <ele>557.689</ele>
        <time>2021-05-27T18:07:01Z</time>
      </trkpt>
      <trkpt lat="42.267816" lon="2.463143">
        <ele>556.617</ele>
        <time>2021-05-27T18:07:04Z</time>
      </trkpt>
      <trkpt lat="42.267828" lon="2.463173">
        <ele>555.617</ele>
        <time>2021-05-27T18:07:05Z</time>
      </trkpt>
      <trkpt lat="42.267812" lon="2.463197">
        <ele>554.764</ele>
        <time>2021-05-27T18:07:07Z</time>
      </trkpt>
      <trkpt lat="42.267794" lon="2.463207">
        <ele>554.239</ele>
        <time>2021-05-27T18:07:10Z</time>
      </trkpt>
      <trkpt lat="42.267775" lon="2.463233">
        <ele>553.082</ele>
        <time>2021-05-27T18:07:12Z</time>
      </trkpt>
      <trkpt lat="42.267783" lon="2.463264">
        <ele>551.848</ele>
        <time>2021-05-27T18:07:13Z</time>
      </trkpt>
      <trkpt lat="42.267806" lon="2.463277">
        <ele>551.843</ele>
        <time>2021-05-27T18:07:15Z</time>
      </trkpt>
      <trkpt lat="42.267824" lon="2.463288">
        <ele>551.864</ele>
        <time>2021-05-27T18:07:18Z</time>
      </trkpt>
      <trkpt lat="42.267847" lon="2.463300">
        <ele>552.010</ele>
        <time>2021-05-27T18:07:22Z</time>
      </trkpt>
      <trkpt lat="42.267871" lon="2.463298">
        <ele>552.608</ele>
        <time>2021-05-27T18:07:24Z</time>
      </trkpt>
      <trkpt lat="42.267894" lon="2.463297">
        <ele>553.251</ele>
        <time>2021-05-27T18:07:27Z</time>
      </trkpt>
      <trkpt lat="42.267917" lon="2.463296">
        <ele>553.778</ele>
        <time>2021-05-27T18:07:30Z</time>
      </trkpt>
      <trkpt lat="42.267936" lon="2.463287">
        <ele>554.396</ele>
        <time>2021-05-27T18:07:33Z</time>
      </trkpt>
      <trkpt lat="42.267944" lon="2.463311">
        <ele>554.146</ele>
        <time>2021-05-27T18:07:39Z</time>
      </trkpt>
      <trkpt lat="42.267943" lon="2.463338">
        <ele>553.723</ele>
        <time>2021-05-27T18:07:45Z</time>
      </trkpt>
      <trkpt lat="42.267953" lon="2.463360">
        <ele>553.728</ele>
        <time>2021-05-27T18:07:50Z</time>
      </trkpt>
      <trkpt lat="42.267969" lon="2.463375">
        <ele>553.921</ele>
        <time>2021-05-27T18:07:54Z</time>
      </trkpt>
      <trkpt lat="42.267976" lon="2.463402">
        <ele>553.677</ele>
        <time>2021-05-27T18:07:58Z</time>
      </trkpt>
      <trkpt lat="42.267978" lon="2.463430">
        <ele>553.118</ele>
        <time>2021-05-27T18:08:03Z</time>
      </trkpt>
      <trkpt lat="42.267989" lon="2.463453">
        <ele>552.998</ele>
        <time>2021-05-27T18:08:05Z</time>
      </trkpt>
      <trkpt lat="42.268005" lon="2.463470">
        <ele>552.717</ele>
        <time>2021-05-27T18:08:07Z</time>
      </trkpt>
      <trkpt lat="42.268022" lon="2.463481">
        <ele>552.608</ele>
        <time>2021-05-27T18:08:11Z</time>
      </trkpt>
      <trkpt lat="42.268045" lon="2.463487">
        <ele>552.568</ele>
        <time>2021-05-27T18:08:13Z</time>
      </trkpt>
      <trkpt lat="42.268078" lon="2.463496">
        <ele>552.695</ele>
        <time>2021-05-27T18:08:16Z</time>
      </trkpt>
      <trkpt lat="42.268105" lon="2.463489">
        <ele>553.153</ele>
        <time>2021-05-27T18:08:19Z</time>
      </trkpt>
      <trkpt lat="42.268133" lon="2.463486">
        <ele>553.563</ele>
        <time>2021-05-27T18:08:21Z</time>
      </trkpt>
      <trkpt lat="42.268151" lon="2.463480">
        <ele>554.090</ele>
        <time>2021-05-27T18:08:25Z</time>
      </trkpt>
      <trkpt lat="42.268176" lon="2.463482">
        <ele>554.275</ele>
        <time>2021-05-27T18:08:28Z</time>
      </trkpt>
      <trkpt lat="42.268194" lon="2.463486">
        <ele>554.348</ele>
        <time>2021-05-27T18:08:32Z</time>
      </trkpt>
      <trkpt lat="42.268226" lon="2.463491">
        <ele>554.544</ele>
        <time>2021-05-27T18:08:35Z</time>
      </trkpt>
      <trkpt lat="42.268252" lon="2.463491">
        <ele>554.874</ele>
        <time>2021-05-27T18:08:38Z</time>
      </trkpt>
      <trkpt lat="42.268272" lon="2.463490">
        <ele>555.156</ele>
        <time>2021-05-27T18:08:39Z</time>
      </trkpt>
      <trkpt lat="42.268291" lon="2.463481">
        <ele>555.621</ele>
        <time>2021-05-27T18:08:41Z</time>
      </trkpt>
      <trkpt lat="42.268311" lon="2.463478">
        <ele>556.008</ele>
        <time>2021-05-27T18:08:44Z</time>
      </trkpt>
      <trkpt lat="42.268330" lon="2.463476">
        <ele>556.374</ele>
        <time>2021-05-27T18:08:45Z</time>
      </trkpt>
      <trkpt lat="42.268353" lon="2.463486">
        <ele>555.941</ele>
        <time>2021-05-27T18:08:48Z</time>
      </trkpt>
      <trkpt lat="42.268371" lon="2.463490">
        <ele>555.769</ele>
        <time>2021-05-27T18:08:50Z</time>
      </trkpt>
      <trkpt lat="42.268394" lon="2.463499">
        <ele>555.299</ele>
        <time>2021-05-27T18:08:53Z</time>
      </trkpt>
      <trkpt lat="42.268413" lon="2.463500">
        <ele>555.126</ele>
        <time>2021-05-27T18:08:55Z</time>
      </trkpt>
      <trkpt lat="42.268437" lon="2.463498">
        <ele>555.171</ele>
        <time>2021-05-27T18:08:57Z</time>
      </trkpt>
      <trkpt lat="42.268461" lon="2.463497">
        <ele>555.124</ele>
        <time>2021-05-27T18:08:59Z</time>
      </trkpt>
      <trkpt lat="42.268485" lon="2.463499">
        <ele>554.920</ele>
        <time>2021-05-27T18:09:01Z</time>
      </trkpt>
      <trkpt lat="42.268507" lon="2.463483">
        <ele>555.688</ele>
        <time>2021-05-27T18:09:03Z</time>
      </trkpt>
      <trkpt lat="42.268529" lon="2.463473">
        <ele>556.124</ele>
        <time>2021-05-27T18:09:05Z</time>
      </trkpt>
      <trkpt lat="42.268548" lon="2.463465">
        <ele>556.526</ele>
        <time>2021-05-27T18:09:07Z</time>
      </trkpt>
      <trkpt lat="42.268564" lon="2.463452">
        <ele>557.208</ele>
        <time>2021-05-27T18:09:09Z</time>
      </trkpt>
      <trkpt lat="42.268583" lon="2.463429">
        <ele>558.525</ele>
        <time>2021-05-27T18:09:11Z</time>
      </trkpt>
      <trkpt lat="42.268614" lon="2.463405">
        <ele>559.942</ele>
        <time>2021-05-27T18:09:14Z</time>
      </trkpt>
      <trkpt lat="42.268647" lon="2.463409">
        <ele>559.980</ele>
        <time>2021-05-27T18:09:17Z</time>
      </trkpt>
      <trkpt lat="42.268668" lon="2.463408">
        <ele>560.120</ele>
        <time>2021-05-27T18:09:19Z</time>
      </trkpt>
      <trkpt lat="42.268687" lon="2.463400">
        <ele>560.697</ele>
        <time>2021-05-27T18:09:21Z</time>
      </trkpt>
      <trkpt lat="42.268708" lon="2.463389">
        <ele>561.492</ele>
        <time>2021-05-27T18:09:23Z</time>
      </trkpt>
      <trkpt lat="42.268732" lon="2.463397">
        <ele>561.165</ele>
        <time>2021-05-27T18:09:25Z</time>
      </trkpt>
      <trkpt lat="42.268758" lon="2.463405">
        <ele>560.841</ele>
        <time>2021-05-27T18:09:27Z</time>
      </trkpt>
      <trkpt lat="42.268780" lon="2.463416">
        <ele>560.381</ele>
        <time>2021-05-27T18:09:29Z</time>
      </trkpt>
      <trkpt lat="42.268805" lon="2.463419">
        <ele>560.261</ele>
        <time>2021-05-27T18:09:31Z</time>
      </trkpt>
      <trkpt lat="42.268824" lon="2.463414">
        <ele>560.717</ele>
        <time>2021-05-27T18:09:33Z</time>
      </trkpt>
      <trkpt lat="42.268854" lon="2.463419">
        <ele>560.508</ele>
        <time>2021-05-27T18:09:35Z</time>
      </trkpt>
      <trkpt lat="42.268878" lon="2.463428">
        <ele>560.165</ele>
        <time>2021-05-27T18:09:38Z</time>
      </trkpt>
      <trkpt lat="42.268909" lon="2.463438">
        <ele>560.222</ele>
        <time>2021-05-27T18:09:39Z</time>
      </trkpt>
      <trkpt lat="42.268944" lon="2.463441">
        <ele>561.020</ele>
        <time>2021-05-27T18:09:42Z</time>
      </trkpt>
      <trkpt lat="42.268977" lon="2.463436">
        <ele>562.220</ele>
        <time>2021-05-27T18:09:43Z</time>
      </trkpt>
      <trkpt lat="42.269004" lon="2.463447">
        <ele>562.457</ele>
        <time>2021-05-27T18:09:45Z</time>
      </trkpt>
      <trkpt lat="42.269025" lon="2.463471">
        <ele>561.782</ele>
        <time>2021-05-27T18:09:47Z</time>
      </trkpt>
      <trkpt lat="42.269041" lon="2.463483">
        <ele>561.685</ele>
        <time>2021-05-27T18:09:48Z</time>
      </trkpt>
      <trkpt lat="42.269071" lon="2.463505">
        <ele>561.521</ele>
        <time>2021-05-27T18:09:50Z</time>
      </trkpt>
      <trkpt lat="42.269088" lon="2.463514">
        <ele>561.671</ele>
        <time>2021-05-27T18:09:51Z</time>
      </trkpt>
      <trkpt lat="42.269104" lon="2.463526">
        <ele>561.541</ele>
        <time>2021-05-27T18:09:52Z</time>
      </trkpt>
      <trkpt lat="42.269132" lon="2.463554">
        <ele>561.215</ele>
        <time>2021-05-27T18:09:54Z</time>
      </trkpt>
      <trkpt lat="42.269150" lon="2.463571">
        <ele>561.108</ele>
        <time>2021-05-27T18:09:55Z</time>
      </trkpt>
      <trkpt lat="42.269169" lon="2.463582">
        <ele>561.484</ele>
        <time>2021-05-27T18:09:56Z</time>
      </trkpt>
      <trkpt lat="42.269202" lon="2.463601">
        <ele>562.111</ele>
        <time>2021-05-27T18:09:58Z</time>
      </trkpt>
      <trkpt lat="42.269233" lon="2.463626">
        <ele>562.729</ele>
        <time>2021-05-27T18:10:00Z</time>
      </trkpt>
      <trkpt lat="42.269246" lon="2.463645">
        <ele>562.789</ele>
        <time>2021-05-27T18:10:01Z</time>
      </trkpt>
      <trkpt lat="42.269267" lon="2.463676">
        <ele>562.846</ele>
        <time>2021-05-27T18:10:03Z</time>
      </trkpt>
      <trkpt lat="42.269296" lon="2.463701">
        <ele>563.551</ele>
        <time>2021-05-27T18:10:05Z</time>
      </trkpt>
      <trkpt lat="42.269314" lon="2.463712">
        <ele>564.054</ele>
        <time>2021-05-27T18:10:07Z</time>
      </trkpt>
      <trkpt lat="42.269340" lon="2.463735">
        <ele>564.510</ele>
        <time>2021-05-27T18:10:10Z</time>
      </trkpt>
      <trkpt lat="42.269357" lon="2.463778">
        <ele>564.183</ele>
        <time>2021-05-27T18:10:13Z</time>
      </trkpt>
      <trkpt lat="42.269367" lon="2.463810">
        <ele>563.625</ele>
        <time>2021-05-27T18:10:15Z</time>
      </trkpt>
      <trkpt lat="42.269384" lon="2.463841">
        <ele>563.517</ele>
        <time>2021-05-27T18:10:17Z</time>
      </trkpt>
      <trkpt lat="42.269444" lon="2.463927">
        <ele>564.408</ele>
        <time>2021-05-27T18:10:24Z</time>
      </trkpt>
      <trkpt lat="42.269473" lon="2.464013">
        <ele>565.185</ele>
        <time>2021-05-27T18:10:31Z</time>
      </trkpt>
      <trkpt lat="42.269527" lon="2.464115">
        <ele>567.742</ele>
        <time>2021-05-27T18:10:40Z</time>
      </trkpt>
      <trkpt lat="42.269587" lon="2.464215">
        <ele>571.810</ele>
        <time>2021-05-27T18:10:50Z</time>
      </trkpt>
      <trkpt lat="42.269599" lon="2.464315">
        <ele>572.790</ele>
        <time>2021-05-27T18:10:58Z</time>
      </trkpt>
      <trkpt lat="42.269608" lon="2.464349">
        <ele>573.417</ele>
        <time>2021-05-27T18:11:01Z</time>
      </trkpt>
      <trkpt lat="42.269613" lon="2.464379">
        <ele>573.712</ele>
        <time>2021-05-27T18:11:03Z</time>
      </trkpt>
      <trkpt lat="42.269623" lon="2.464409">
        <ele>574.535</ele>
        <time>2021-05-27T18:11:07Z</time>
      </trkpt>
      <trkpt lat="42.269630" lon="2.464442">
        <ele>575.031</ele>
        <time>2021-05-27T18:11:10Z</time>
      </trkpt>
      <trkpt lat="42.269636" lon="2.464475">
        <ele>575.882</ele>
        <time>2021-05-27T18:11:13Z</time>
      </trkpt>
      <trkpt lat="42.269634" lon="2.464501">
        <ele>576.043</ele>
        <time>2021-05-27T18:11:14Z</time>
      </trkpt>
      <trkpt lat="42.269640" lon="2.464532">
        <ele>576.817</ele>
        <time>2021-05-27T18:11:18Z</time>
      </trkpt>
      <trkpt lat="42.269644" lon="2.464601">
        <ele>577.908</ele>
        <time>2021-05-27T18:11:23Z</time>
      </trkpt>
      <trkpt lat="42.269647" lon="2.464635">
        <ele>578.645</ele>
        <time>2021-05-27T18:11:27Z</time>
      </trkpt>
      <trkpt lat="42.269650" lon="2.464665">
        <ele>579.142</ele>
        <time>2021-05-27T18:11:29Z</time>
      </trkpt>
      <trkpt lat="42.269649" lon="2.464693">
        <ele>579.430</ele>
        <time>2021-05-27T18:11:32Z</time>
      </trkpt>
      <trkpt lat="42.269614" lon="2.464808">
        <ele>579.250</ele>
        <time>2021-05-27T18:11:43Z</time>
      </trkpt>
      <trkpt lat="42.269610" lon="2.464892">
        <ele>580.817</ele>
        <time>2021-05-27T18:11:50Z</time>
      </trkpt>
      <trkpt lat="42.269614" lon="2.464918">
        <ele>581.732</ele>
        <time>2021-05-27T18:11:51Z</time>
      </trkpt>
      <trkpt lat="42.269607" lon="2.464954">
        <ele>582.185</ele>
        <time>2021-05-27T18:11:55Z</time>
      </trkpt>
      <trkpt lat="42.269603" lon="2.464978">
        <ele>582.351</ele>
        <time>2021-05-27T18:11:57Z</time>
      </trkpt>
      <trkpt lat="42.269597" lon="2.465003">
        <ele>582.568</ele>
        <time>2021-05-27T18:11:58Z</time>
      </trkpt>
      <trkpt lat="42.269592" lon="2.465035">
        <ele>582.642</ele>
        <time>2021-05-27T18:12:02Z</time>
      </trkpt>
      <trkpt lat="42.269591" lon="2.465066">
        <ele>583.126</ele>
        <time>2021-05-27T18:12:04Z</time>
      </trkpt>
      <trkpt lat="42.269584" lon="2.465099">
        <ele>583.108</ele>
        <time>2021-05-27T18:12:08Z</time>
      </trkpt>
      <trkpt lat="42.269597" lon="2.465131">
        <ele>584.573</ele>
        <time>2021-05-27T18:12:10Z</time>
      </trkpt>
      <trkpt lat="42.269613" lon="2.465170">
        <ele>586.130</ele>
        <time>2021-05-27T18:12:15Z</time>
      </trkpt>
      <trkpt lat="42.269618" lon="2.465206">
        <ele>586.948</ele>
        <time>2021-05-27T18:12:17Z</time>
      </trkpt>
      <trkpt lat="42.269612" lon="2.465232">
        <ele>587.078</ele>
        <time>2021-05-27T18:12:20Z</time>
      </trkpt>
      <trkpt lat="42.269614" lon="2.465258">
        <ele>587.595</ele>
        <time>2021-05-27T18:12:21Z</time>
      </trkpt>
      <trkpt lat="42.269621" lon="2.465285">
        <ele>588.180</ele>
        <time>2021-05-27T18:12:23Z</time>
      </trkpt>
      <trkpt lat="42.269621" lon="2.465316">
        <ele>588.033</ele>
        <time>2021-05-27T18:12:26Z</time>
      </trkpt>
      <trkpt lat="42.269638" lon="2.465361">
        <ele>588.699</ele>
        <time>2021-05-27T18:12:30Z</time>
      </trkpt>
      <trkpt lat="42.269639" lon="2.465386">
        <ele>588.515</ele>
        <time>2021-05-27T18:12:32Z</time>
      </trkpt>
      <trkpt lat="42.269650" lon="2.465407">
        <ele>588.965</ele>
        <time>2021-05-27T18:12:34Z</time>
      </trkpt>
      <trkpt lat="42.269649" lon="2.465433">
        <ele>588.711</ele>
        <time>2021-05-27T18:12:36Z</time>
      </trkpt>
      <trkpt lat="42.269654" lon="2.465456">
        <ele>588.808</ele>
        <time>2021-05-27T18:12:38Z</time>
      </trkpt>
      <trkpt lat="42.269668" lon="2.465476">
        <ele>589.328</ele>
        <time>2021-05-27T18:12:40Z</time>
      </trkpt>
      <trkpt lat="42.269680" lon="2.465494">
        <ele>589.745</ele>
        <time>2021-05-27T18:12:42Z</time>
      </trkpt>
      <trkpt lat="42.269694" lon="2.465520">
        <ele>590.123</ele>
        <time>2021-05-27T18:12:45Z</time>
      </trkpt>
      <trkpt lat="42.269711" lon="2.465546">
        <ele>590.663</ele>
        <time>2021-05-27T18:12:49Z</time>
      </trkpt>
      <trkpt lat="42.269725" lon="2.465564">
        <ele>590.910</ele>
        <time>2021-05-27T18:12:51Z</time>
      </trkpt>
      <trkpt lat="42.269737" lon="2.465584">
        <ele>590.865</ele>
        <time>2021-05-27T18:12:52Z</time>
      </trkpt>
      <trkpt lat="42.269759" lon="2.465605">
        <ele>591.288</ele>
        <time>2021-05-27T18:12:55Z</time>
      </trkpt>
      <trkpt lat="42.269781" lon="2.465615">
        <ele>592.074</ele>
        <time>2021-05-27T18:12:58Z</time>
      </trkpt>
      <trkpt lat="42.269803" lon="2.465633">
        <ele>592.514</ele>
        <time>2021-05-27T18:13:01Z</time>
      </trkpt>
      <trkpt lat="42.269819" lon="2.465646">
        <ele>592.854</ele>
        <time>2021-05-27T18:13:03Z</time>
      </trkpt>
      <trkpt lat="42.269836" lon="2.465663">
        <ele>593.109</ele>
        <time>2021-05-27T18:13:06Z</time>
      </trkpt>
      <trkpt lat="42.269856" lon="2.465674">
        <ele>593.708</ele>
        <time>2021-05-27T18:13:09Z</time>
      </trkpt>
      <trkpt lat="42.269876" lon="2.465687">
        <ele>594.298</ele>
        <time>2021-05-27T18:13:11Z</time>
      </trkpt>
      <trkpt lat="42.269893" lon="2.465705">
        <ele>594.495</ele>
        <time>2021-05-27T18:13:12Z</time>
      </trkpt>
      <trkpt lat="42.269908" lon="2.465724">
        <ele>594.563</ele>
        <time>2021-05-27T18:13:14Z</time>
      </trkpt>
      <trkpt lat="42.269930" lon="2.465737">
        <ele>595.133</ele>
        <time>2021-05-27T18:13:16Z</time>
      </trkpt>
      <trkpt lat="42.269950" lon="2.465755">
        <ele>595.410</ele>
        <time>2021-05-27T18:13:18Z</time>
      </trkpt>
      <trkpt lat="42.269965" lon="2.465778">
        <ele>595.365</ele>
        <time>2021-05-27T18:13:20Z</time>
      </trkpt>
      <trkpt lat="42.269982" lon="2.465806">
        <ele>595.178</ele>
        <time>2021-05-27T18:13:22Z</time>
      </trkpt>
      <trkpt lat="42.270004" lon="2.465831">
        <ele>595.334</ele>
        <time>2021-05-27T18:13:25Z</time>
      </trkpt>
      <trkpt lat="42.270031" lon="2.465846">
        <ele>595.921</ele>
        <time>2021-05-27T18:13:27Z</time>
      </trkpt>
      <trkpt lat="42.270056" lon="2.465859">
        <ele>596.641</ele>
        <time>2021-05-27T18:13:29Z</time>
      </trkpt>
      <trkpt lat="42.270072" lon="2.465880">
        <ele>596.505</ele>
        <time>2021-05-27T18:13:30Z</time>
      </trkpt>
      <trkpt lat="42.270093" lon="2.465885">
        <ele>597.208</ele>
        <time>2021-05-27T18:13:32Z</time>
      </trkpt>
      <trkpt lat="42.270116" lon="2.465904">
        <ele>597.519</ele>
        <time>2021-05-27T18:13:35Z</time>
      </trkpt>
      <trkpt lat="42.270134" lon="2.465924">
        <ele>597.546</ele>
        <time>2021-05-27T18:13:37Z</time>
      </trkpt>
      <trkpt lat="42.270157" lon="2.465941">
        <ele>597.954</ele>
        <time>2021-05-27T18:13:39Z</time>
      </trkpt>
      <trkpt lat="42.270187" lon="2.465951">
        <ele>598.814</ele>
        <time>2021-05-27T18:13:41Z</time>
      </trkpt>
      <trkpt lat="42.270211" lon="2.465967">
        <ele>599.281</ele>
        <time>2021-05-27T18:13:43Z</time>
      </trkpt>
      <trkpt lat="42.270233" lon="2.465981">
        <ele>599.696</ele>
        <time>2021-05-27T18:13:45Z</time>
      </trkpt>
      <trkpt lat="42.270252" lon="2.466004">
        <ele>599.579</ele>
        <time>2021-05-27T18:13:48Z</time>
      </trkpt>
      <trkpt lat="42.270269" lon="2.466024">
        <ele>599.425</ele>
        <time>2021-05-27T18:13:49Z</time>
      </trkpt>
      <trkpt lat="42.270282" lon="2.466051">
        <ele>598.864</ele>
        <time>2021-05-27T18:13:51Z</time>
      </trkpt>
      <trkpt lat="42.270341" lon="2.466131">
        <ele>598.806</ele>
        <time>2021-05-27T18:14:03Z</time>
      </trkpt>
      <trkpt lat="42.270403" lon="2.466228">
        <ele>599.816</ele>
        <time>2021-05-27T18:14:10Z</time>
      </trkpt>
      <trkpt lat="42.270451" lon="2.466342">
        <ele>599.708</ele>
        <time>2021-05-27T18:14:19Z</time>
      </trkpt>
      <trkpt lat="42.270486" lon="2.466459">
        <ele>600.813</ele>
        <time>2021-05-27T18:14:28Z</time>
      </trkpt>
      <trkpt lat="42.270465" lon="2.466579">
        <ele>600.370</ele>
        <time>2021-05-27T18:14:35Z</time>
      </trkpt>
      <trkpt lat="42.270464" lon="2.466644">
        <ele>600.688</ele>
        <time>2021-05-27T18:14:39Z</time>
      </trkpt>
      <trkpt lat="42.270467" lon="2.466691">
        <ele>600.758</ele>
        <time>2021-05-27T18:14:40Z</time>
      </trkpt>
      <trkpt lat="42.270470" lon="2.466715">
        <ele>600.725</ele>
        <time>2021-05-27T18:14:41Z</time>
      </trkpt>
      <trkpt lat="42.270482" lon="2.466783">
        <ele>600.880</ele>
        <time>2021-05-27T18:14:44Z</time>
      </trkpt>
      <trkpt lat="42.270490" lon="2.466823">
        <ele>600.933</ele>
        <time>2021-05-27T18:14:46Z</time>
      </trkpt>
      <trkpt lat="42.270513" lon="2.466855">
        <ele>601.839</ele>
        <time>2021-05-27T18:14:49Z</time>
      </trkpt>
      <trkpt lat="42.270527" lon="2.466910">
        <ele>602.034</ele>
        <time>2021-05-27T18:14:51Z</time>
      </trkpt>
      <trkpt lat="42.270541" lon="2.466944">
        <ele>602.455</ele>
        <time>2021-05-27T18:14:53Z</time>
      </trkpt>
      <trkpt lat="42.270540" lon="2.466986">
        <ele>602.010</ele>
        <time>2021-05-27T18:14:55Z</time>
      </trkpt>
      <trkpt lat="42.270551" lon="2.467107">
        <ele>601.608</ele>
        <time>2021-05-27T18:15:01Z</time>
      </trkpt>
      <trkpt lat="42.270573" lon="2.467227">
        <ele>602.170</ele>
        <time>2021-05-27T18:15:06Z</time>
      </trkpt>
      <trkpt lat="42.270540" lon="2.467348">
        <ele>601.737</ele>
        <time>2021-05-27T18:15:12Z</time>
      </trkpt>
      <trkpt lat="42.270484" lon="2.467433">
        <ele>600.315</ele>
        <time>2021-05-27T18:15:17Z</time>
      </trkpt>
      <trkpt lat="42.270468" lon="2.467473">
        <ele>600.245</ele>
        <time>2021-05-27T18:15:19Z</time>
      </trkpt>
      <trkpt lat="42.270458" lon="2.467523">
        <ele>600.232</ele>
        <time>2021-05-27T18:15:21Z</time>
      </trkpt>
      <trkpt lat="42.270459" lon="2.467568">
        <ele>600.587</ele>
        <time>2021-05-27T18:15:23Z</time>
      </trkpt>
      <trkpt lat="42.270472" lon="2.467605">
        <ele>601.270</ele>
        <time>2021-05-27T18:15:25Z</time>
      </trkpt>
      <trkpt lat="42.270481" lon="2.467651">
        <ele>601.786</ele>
        <time>2021-05-27T18:15:27Z</time>
      </trkpt>
      <trkpt lat="42.270488" lon="2.467675">
        <ele>602.149</ele>
        <time>2021-05-27T18:15:28Z</time>
      </trkpt>
      <trkpt lat="42.270496" lon="2.467701">
        <ele>602.502</ele>
        <time>2021-05-27T18:15:29Z</time>
      </trkpt>
      <trkpt lat="42.270505" lon="2.467744">
        <ele>603.022</ele>
        <time>2021-05-27T18:15:31Z</time>
      </trkpt>
      <trkpt lat="42.270503" lon="2.467788">
        <ele>603.108</ele>
        <time>2021-05-27T18:15:33Z</time>
      </trkpt>
      <trkpt lat="42.270498" lon="2.467922">
        <ele>602.961</ele>
        <time>2021-05-27T18:15:39Z</time>
      </trkpt>
      <trkpt lat="42.270503" lon="2.467974">
        <ele>603.148</ele>
        <time>2021-05-27T18:15:41Z</time>
      </trkpt>
      <trkpt lat="42.270498" lon="2.467999">
        <ele>602.996</ele>
        <time>2021-05-27T18:15:42Z</time>
      </trkpt>
      <trkpt lat="42.270489" lon="2.468026">
        <ele>602.636</ele>
        <time>2021-05-27T18:15:43Z</time>
      </trkpt>
      <trkpt lat="42.270489" lon="2.468075">
        <ele>602.493</ele>
        <time>2021-05-27T18:15:45Z</time>
      </trkpt>
      <trkpt lat="42.270528" lon="2.468195">
        <ele>602.528</ele>
        <time>2021-05-27T18:15:50Z</time>
      </trkpt>
      <trkpt lat="42.270544" lon="2.468232">
        <ele>602.751</ele>
        <time>2021-05-27T18:15:53Z</time>
      </trkpt>
      <trkpt lat="42.270561" lon="2.468269">
        <ele>602.877</ele>
        <time>2021-05-27T18:15:54Z</time>
      </trkpt>
      <trkpt lat="42.270571" lon="2.468307">
        <ele>602.516</ele>
        <time>2021-05-27T18:15:56Z</time>
      </trkpt>
      <trkpt lat="42.270594" lon="2.468337">
        <ele>602.376</ele>
        <time>2021-05-27T18:15:58Z</time>
      </trkpt>
      <trkpt lat="42.270623" lon="2.468351">
        <ele>602.113</ele>
        <time>2021-05-27T18:16:00Z</time>
      </trkpt>
      <trkpt lat="42.270671" lon="2.468373">
        <ele>602.108</ele>
        <time>2021-05-27T18:16:03Z</time>
      </trkpt>
      <trkpt lat="42.270686" lon="2.468388">
        <ele>601.988</ele>
        <time>2021-05-27T18:16:04Z</time>
      </trkpt>
      <trkpt lat="42.270717" lon="2.468409">
        <ele>601.945</ele>
        <time>2021-05-27T18:16:06Z</time>
      </trkpt>
      <trkpt lat="42.270737" lon="2.468421">
        <ele>601.923</ele>
        <time>2021-05-27T18:16:07Z</time>
      </trkpt>
      <trkpt lat="42.270759" lon="2.468444">
        <ele>601.983</ele>
        <time>2021-05-27T18:16:09Z</time>
      </trkpt>
      <trkpt lat="42.270783" lon="2.468467">
        <ele>601.980</ele>
        <time>2021-05-27T18:16:11Z</time>
      </trkpt>
      <trkpt lat="42.270805" lon="2.468493">
        <ele>602.035</ele>
        <time>2021-05-27T18:16:13Z</time>
      </trkpt>
      <trkpt lat="42.270832" lon="2.468510">
        <ele>602.488</ele>
        <time>2021-05-27T18:16:15Z</time>
      </trkpt>
      <trkpt lat="42.270849" lon="2.468538">
        <ele>602.674</ele>
        <time>2021-05-27T18:16:17Z</time>
      </trkpt>
      <trkpt lat="42.270857" lon="2.468572">
        <ele>602.495</ele>
        <time>2021-05-27T18:16:20Z</time>
      </trkpt>
      <trkpt lat="42.270863" lon="2.468601">
        <ele>602.149</ele>
        <time>2021-05-27T18:16:21Z</time>
      </trkpt>
      <trkpt lat="42.270870" lon="2.468636">
        <ele>601.223</ele>
        <time>2021-05-27T18:16:24Z</time>
      </trkpt>
      <trkpt lat="42.270885" lon="2.468671">
        <ele>600.308</ele>
        <time>2021-05-27T18:16:27Z</time>
      </trkpt>
      <trkpt lat="42.270896" lon="2.468702">
        <ele>599.546</ele>
        <time>2021-05-27T18:16:30Z</time>
      </trkpt>
      <trkpt lat="42.270912" lon="2.468721">
        <ele>599.353</ele>
        <time>2021-05-27T18:16:33Z</time>
      </trkpt>
      <trkpt lat="42.270933" lon="2.468730">
        <ele>599.751</ele>
        <time>2021-05-27T18:16:35Z</time>
      </trkpt>
      <trkpt lat="42.270968" lon="2.468740">
        <ele>600.591</ele>
        <time>2021-05-27T18:16:38Z</time>
      </trkpt>
      <trkpt lat="42.270985" lon="2.468747">
        <ele>600.868</ele>
        <time>2021-05-27T18:16:39Z</time>
      </trkpt>
      <trkpt lat="42.271017" lon="2.468771">
        <ele>601.053</ele>
        <time>2021-05-27T18:16:40Z</time>
      </trkpt>
      <trkpt lat="42.271044" lon="2.468799">
        <ele>600.936</ele>
        <time>2021-05-27T18:16:43Z</time>
      </trkpt>
      <trkpt lat="42.271065" lon="2.468830">
        <ele>600.582</ele>
        <time>2021-05-27T18:16:44Z</time>
      </trkpt>
      <trkpt lat="42.271079" lon="2.468867">
        <ele>599.624</ele>
        <time>2021-05-27T18:16:46Z</time>
      </trkpt>
      <trkpt lat="42.271113" lon="2.468901">
        <ele>599.404</ele>
        <time>2021-05-27T18:16:48Z</time>
      </trkpt>
      <trkpt lat="42.271136" lon="2.468921">
        <ele>599.114</ele>
        <time>2021-05-27T18:16:50Z</time>
      </trkpt>
      <trkpt lat="42.271160" lon="2.468936">
        <ele>599.008</ele>
        <time>2021-05-27T18:16:53Z</time>
      </trkpt>
      <trkpt lat="42.271185" lon="2.468941">
        <ele>599.559</ele>
        <time>2021-05-27T18:16:55Z</time>
      </trkpt>
      <trkpt lat="42.271212" lon="2.468940">
        <ele>600.326</ele>
        <time>2021-05-27T18:16:57Z</time>
      </trkpt>
      <trkpt lat="42.271240" lon="2.468946">
        <ele>600.764</ele>
        <time>2021-05-27T18:16:59Z</time>
      </trkpt>
      <trkpt lat="42.271259" lon="2.468949">
        <ele>601.174</ele>
        <time>2021-05-27T18:17:00Z</time>
      </trkpt>
      <trkpt lat="42.271281" lon="2.468949">
        <ele>601.721</ele>
        <time>2021-05-27T18:17:01Z</time>
      </trkpt>
      <trkpt lat="42.271299" lon="2.468952">
        <ele>602.126</ele>
        <time>2021-05-27T18:17:02Z</time>
      </trkpt>
      <trkpt lat="42.271328" lon="2.468958">
        <ele>602.669</ele>
        <time>2021-05-27T18:17:05Z</time>
      </trkpt>
      <trkpt lat="42.271353" lon="2.468966">
        <ele>602.875</ele>
        <time>2021-05-27T18:17:07Z</time>
      </trkpt>
      <trkpt lat="42.271371" lon="2.468983">
        <ele>602.459</ele>
        <time>2021-05-27T18:17:09Z</time>
      </trkpt>
      <trkpt lat="42.271392" lon="2.468995">
        <ele>602.503</ele>
        <time>2021-05-27T18:17:11Z</time>
      </trkpt>
      <trkpt lat="42.271417" lon="2.469003">
        <ele>603.723</ele>
        <time>2021-05-27T18:17:14Z</time>
      </trkpt>
      <trkpt lat="42.271433" lon="2.469039">
        <ele>602.908</ele>
        <time>2021-05-27T18:17:16Z</time>
      </trkpt>
      <trkpt lat="42.271447" lon="2.469068">
        <ele>602.322</ele>
        <time>2021-05-27T18:17:17Z</time>
      </trkpt>
      <trkpt lat="42.271463" lon="2.469104">
        <ele>601.579</ele>
        <time>2021-05-27T18:17:19Z</time>
      </trkpt>
      <trkpt lat="42.271479" lon="2.469129">
        <ele>601.467</ele>
        <time>2021-05-27T18:17:21Z</time>
      </trkpt>
      <trkpt lat="42.271493" lon="2.469150">
        <ele>601.367</ele>
        <time>2021-05-27T18:17:23Z</time>
      </trkpt>
      <trkpt lat="42.271498" lon="2.469180">
        <ele>600.384</ele>
        <time>2021-05-27T18:17:26Z</time>
      </trkpt>
      <trkpt lat="42.271506" lon="2.469214">
        <ele>599.319</ele>
        <time>2021-05-27T18:17:27Z</time>
      </trkpt>
      <trkpt lat="42.271508" lon="2.469248">
        <ele>598.092</ele>
        <time>2021-05-27T18:17:29Z</time>
      </trkpt>
      <trkpt lat="42.271509" lon="2.469277">
        <ele>596.838</ele>
        <time>2021-05-27T18:17:31Z</time>
      </trkpt>
      <trkpt lat="42.271516" lon="2.469318">
        <ele>595.577</ele>
        <time>2021-05-27T18:17:33Z</time>
      </trkpt>
      <trkpt lat="42.271534" lon="2.469346">
        <ele>595.861</ele>
        <time>2021-05-27T18:17:35Z</time>
      </trkpt>
      <trkpt lat="42.271557" lon="2.469372">
        <ele>596.527</ele>
        <time>2021-05-27T18:17:38Z</time>
      </trkpt>
      <trkpt lat="42.271579" lon="2.469392">
        <ele>597.608</ele>
        <time>2021-05-27T18:17:40Z</time>
      </trkpt>
      <trkpt lat="42.271598" lon="2.469402">
        <ele>598.794</ele>
        <time>2021-05-27T18:17:42Z</time>
      </trkpt>
      <trkpt lat="42.271622" lon="2.469414">
        <ele>600.381</ele>
        <time>2021-05-27T18:17:44Z</time>
      </trkpt>
      <trkpt lat="42.271636" lon="2.469440">
        <ele>600.599</ele>
        <time>2021-05-27T18:17:47Z</time>
      </trkpt>
      <trkpt lat="42.271649" lon="2.469463">
        <ele>600.719</ele>
        <time>2021-05-27T18:17:51Z</time>
      </trkpt>
      <trkpt lat="42.271656" lon="2.469487">
        <ele>600.416</ele>
        <time>2021-05-27T18:17:53Z</time>
      </trkpt>
      <trkpt lat="42.271673" lon="2.469501">
        <ele>601.071</ele>
        <time>2021-05-27T18:17:55Z</time>
      </trkpt>
      <trkpt lat="42.271684" lon="2.469519">
        <ele>600.734</ele>
        <time>2021-05-27T18:17:56Z</time>
      </trkpt>
      <trkpt lat="42.271696" lon="2.469541">
        <ele>600.310</ele>
        <time>2021-05-27T18:17:59Z</time>
      </trkpt>
      <trkpt lat="42.271699" lon="2.469567">
        <ele>599.243</ele>
        <time>2021-05-27T18:18:01Z</time>
      </trkpt>
      <trkpt lat="42.271706" lon="2.469593">
        <ele>598.464</ele>
        <time>2021-05-27T18:18:03Z</time>
      </trkpt>
      <trkpt lat="42.271715" lon="2.469617">
        <ele>597.610</ele>
        <time>2021-05-27T18:18:04Z</time>
      </trkpt>
      <trkpt lat="42.271727" lon="2.469636">
        <ele>597.008</ele>
        <time>2021-05-27T18:18:07Z</time>
      </trkpt>
      <trkpt lat="42.271738" lon="2.469654">
        <ele>596.571</ele>
        <time>2021-05-27T18:18:09Z</time>
      </trkpt>
      <trkpt lat="42.271761" lon="2.469667">
        <ele>596.488</ele>
        <time>2021-05-27T18:18:11Z</time>
      </trkpt>
      <trkpt lat="42.271785" lon="2.469668">
        <ele>596.926</ele>
        <time>2021-05-27T18:18:13Z</time>
      </trkpt>
      <trkpt lat="42.271809" lon="2.469671">
        <ele>597.316</ele>
        <time>2021-05-27T18:18:16Z</time>
      </trkpt>
      <trkpt lat="42.271829" lon="2.469672">
        <ele>597.863</ele>
        <time>2021-05-27T18:18:19Z</time>
      </trkpt>
      <trkpt lat="42.271851" lon="2.469675">
        <ele>598.118</ele>
        <time>2021-05-27T18:18:20Z</time>
      </trkpt>
      <trkpt lat="42.271872" lon="2.469677">
        <ele>598.541</ele>
        <time>2021-05-27T18:18:22Z</time>
      </trkpt>
      <trkpt lat="42.271895" lon="2.469670">
        <ele>599.477</ele>
        <time>2021-05-27T18:18:25Z</time>
      </trkpt>
      <trkpt lat="42.271917" lon="2.469665">
        <ele>600.363</ele>
        <time>2021-05-27T18:18:27Z</time>
      </trkpt>
      <trkpt lat="42.271938" lon="2.469656">
        <ele>601.444</ele>
        <time>2021-05-27T18:18:29Z</time>
      </trkpt>
      <trkpt lat="42.271959" lon="2.469653">
        <ele>602.018</ele>
        <time>2021-05-27T18:18:30Z</time>
      </trkpt>
      <trkpt lat="42.271984" lon="2.469652">
        <ele>602.408</ele>
        <time>2021-05-27T18:18:33Z</time>
      </trkpt>
      <trkpt lat="42.272009" lon="2.469647">
        <ele>603.273</ele>
        <time>2021-05-27T18:18:34Z</time>
      </trkpt>
      <trkpt lat="42.272034" lon="2.469633">
        <ele>604.410</ele>
        <time>2021-05-27T18:18:36Z</time>
      </trkpt>
      <trkpt lat="42.272054" lon="2.469633">
        <ele>604.758</ele>
        <time>2021-05-27T18:18:38Z</time>
      </trkpt>
      <trkpt lat="42.272079" lon="2.469638">
        <ele>604.858</ele>
        <time>2021-05-27T18:18:41Z</time>
      </trkpt>
      <trkpt lat="42.272103" lon="2.469639">
        <ele>605.155</ele>
        <time>2021-05-27T18:18:43Z</time>
      </trkpt>
      <trkpt lat="42.272124" lon="2.469658">
        <ele>604.410</ele>
        <time>2021-05-27T18:18:46Z</time>
      </trkpt>
      <trkpt lat="42.272135" lon="2.469686">
        <ele>603.123</ele>
        <time>2021-05-27T18:18:49Z</time>
      </trkpt>
      <trkpt lat="42.272137" lon="2.469715">
        <ele>601.569</ele>
        <time>2021-05-27T18:18:52Z</time>
      </trkpt>
      <trkpt lat="42.272147" lon="2.469744">
        <ele>599.737</ele>
        <time>2021-05-27T18:18:56Z</time>
      </trkpt>
      <trkpt lat="42.272150" lon="2.469770">
        <ele>597.949</ele>
        <time>2021-05-27T18:19:01Z</time>
      </trkpt>
      <trkpt lat="42.272161" lon="2.469794">
        <ele>596.513</ele>
        <time>2021-05-27T18:19:10Z</time>
      </trkpt>
      <trkpt lat="42.272189" lon="2.469826">
        <ele>595.708</ele>
        <time>2021-05-27T18:19:12Z</time>
      </trkpt>
      <trkpt lat="42.272207" lon="2.469832">
        <ele>596.380</ele>
        <time>2021-05-27T18:19:14Z</time>
      </trkpt>
      <trkpt lat="42.272227" lon="2.469846">
        <ele>596.987</ele>
        <time>2021-05-27T18:19:17Z</time>
      </trkpt>
      <trkpt lat="42.272242" lon="2.469867">
        <ele>597.665</ele>
        <time>2021-05-27T18:19:19Z</time>
      </trkpt>
      <trkpt lat="42.272252" lon="2.469891">
        <ele>597.645</ele>
        <time>2021-05-27T18:19:22Z</time>
      </trkpt>
      <trkpt lat="42.272266" lon="2.469912">
        <ele>598.452</ele>
        <time>2021-05-27T18:19:25Z</time>
      </trkpt>
      <trkpt lat="42.272271" lon="2.469939">
        <ele>597.867</ele>
        <time>2021-05-27T18:19:29Z</time>
      </trkpt>
      <trkpt lat="42.272270" lon="2.469973">
        <ele>596.130</ele>
        <time>2021-05-27T18:19:33Z</time>
      </trkpt>
      <trkpt lat="42.272275" lon="2.470010">
        <ele>595.256</ele>
        <time>2021-05-27T18:19:35Z</time>
      </trkpt>
      <trkpt lat="42.272282" lon="2.470042">
        <ele>594.767</ele>
        <time>2021-05-27T18:19:37Z</time>
      </trkpt>
      <trkpt lat="42.272283" lon="2.470067">
        <ele>593.781</ele>
        <time>2021-05-27T18:19:39Z</time>
      </trkpt>
      <trkpt lat="42.272287" lon="2.470095">
        <ele>592.919</ele>
        <time>2021-05-27T18:19:42Z</time>
      </trkpt>
      <trkpt lat="42.272298" lon="2.470125">
        <ele>592.808</ele>
        <time>2021-05-27T18:19:44Z</time>
      </trkpt>
      <trkpt lat="42.272312" lon="2.470161">
        <ele>592.733</ele>
        <time>2021-05-27T18:19:46Z</time>
      </trkpt>
      <trkpt lat="42.272324" lon="2.470177">
        <ele>593.270</ele>
        <time>2021-05-27T18:19:47Z</time>
      </trkpt>
      <trkpt lat="42.272346" lon="2.470210">
        <ele>593.928</ele>
        <time>2021-05-27T18:19:49Z</time>
      </trkpt>
      <trkpt lat="42.272370" lon="2.470233">
        <ele>595.118</ele>
        <time>2021-05-27T18:19:50Z</time>
      </trkpt>
      <trkpt lat="42.272385" lon="2.470251">
        <ele>595.555</ele>
        <time>2021-05-27T18:19:52Z</time>
      </trkpt>
      <trkpt lat="42.272395" lon="2.470276">
        <ele>594.980</ele>
        <time>2021-05-27T18:19:54Z</time>
      </trkpt>
      <trkpt lat="42.272419" lon="2.470301">
        <ele>595.613</ele>
        <time>2021-05-27T18:19:57Z</time>
      </trkpt>
      <trkpt lat="42.272460" lon="2.470314">
        <ele>598.899</ele>
        <time>2021-05-27T18:20:01Z</time>
      </trkpt>
      <trkpt lat="42.272477" lon="2.470327">
        <ele>599.648</ele>
        <time>2021-05-27T18:20:04Z</time>
      </trkpt>
      <trkpt lat="42.272494" lon="2.470336">
        <ele>600.661</ele>
        <time>2021-05-27T18:20:06Z</time>
      </trkpt>
      <trkpt lat="42.272517" lon="2.470345">
        <ele>601.117</ele>
        <time>2021-05-27T18:20:08Z</time>
      </trkpt>
      <trkpt lat="42.272537" lon="2.470370">
        <ele>600.008</ele>
        <time>2021-05-27T18:20:12Z</time>
      </trkpt>
      <trkpt lat="42.272554" lon="2.470381">
        <ele>599.611</ele>
        <time>2021-05-27T18:20:14Z</time>
      </trkpt>
      <trkpt lat="42.272578" lon="2.470394">
        <ele>599.398</ele>
        <time>2021-05-27T18:20:16Z</time>
      </trkpt>
      <trkpt lat="42.272598" lon="2.470391">
        <ele>600.036</ele>
        <time>2021-05-27T18:20:19Z</time>
      </trkpt>
      <trkpt lat="42.272616" lon="2.470394">
        <ele>600.246</ele>
        <time>2021-05-27T18:20:20Z</time>
      </trkpt>
      <trkpt lat="42.272641" lon="2.470405">
        <ele>599.943</ele>
        <time>2021-05-27T18:20:23Z</time>
      </trkpt>
      <trkpt lat="42.272662" lon="2.470447">
        <ele>597.238</ele>
        <time>2021-05-27T18:20:27Z</time>
      </trkpt>
      <trkpt lat="42.272682" lon="2.470452">
        <ele>597.141</ele>
        <time>2021-05-27T18:20:38Z</time>
      </trkpt>
      <trkpt lat="42.272703" lon="2.470458">
        <ele>597.127</ele>
        <time>2021-05-27T18:20:40Z</time>
      </trkpt>
      <trkpt lat="42.272734" lon="2.470472">
        <ele>596.527</ele>
        <time>2021-05-27T18:20:42Z</time>
      </trkpt>
      <trkpt lat="42.272764" lon="2.470485">
        <ele>595.968</ele>
        <time>2021-05-27T18:20:43Z</time>
      </trkpt>
      <trkpt lat="42.272784" lon="2.470506">
        <ele>594.514</ele>
        <time>2021-05-27T18:20:45Z</time>
      </trkpt>
      <trkpt lat="42.272813" lon="2.470521">
        <ele>594.308</ele>
        <time>2021-05-27T18:20:47Z</time>
      </trkpt>
      <trkpt lat="42.272832" lon="2.470517">
        <ele>595.499</ele>
        <time>2021-05-27T18:20:48Z</time>
      </trkpt>
      <trkpt lat="42.272852" lon="2.470509">
        <ele>596.836</ele>
        <time>2021-05-27T18:20:49Z</time>
      </trkpt>
      <trkpt lat="42.272871" lon="2.470506">
        <ele>597.734</ele>
        <time>2021-05-27T18:20:50Z</time>
      </trkpt>
      <trkpt lat="42.272925" lon="2.470533">
        <ele>597.934</ele>
        <time>2021-05-27T18:20:56Z</time>
      </trkpt>
      <trkpt lat="42.272983" lon="2.470631">
        <ele>595.461</ele>
        <time>2021-05-27T18:21:07Z</time>
      </trkpt>
      <trkpt lat="42.273038" lon="2.470708">
        <ele>594.646</ele>
        <time>2021-05-27T18:21:17Z</time>
      </trkpt>
      <trkpt lat="42.273048" lon="2.470735">
        <ele>593.969</ele>
        <time>2021-05-27T18:21:20Z</time>
      </trkpt>
      <trkpt lat="42.273059" lon="2.470758">
        <ele>593.325</ele>
        <time>2021-05-27T18:21:22Z</time>
      </trkpt>
      <trkpt lat="42.273071" lon="2.470777">
        <ele>592.542</ele>
        <time>2021-05-27T18:21:24Z</time>
      </trkpt>
      <trkpt lat="42.273083" lon="2.470800">
        <ele>591.522</ele>
        <time>2021-05-27T18:21:25Z</time>
      </trkpt>
      <trkpt lat="42.273094" lon="2.470829">
        <ele>590.214</ele>
        <time>2021-05-27T18:21:27Z</time>
      </trkpt>
      <trkpt lat="42.273095" lon="2.470857">
        <ele>588.508</ele>
        <time>2021-05-27T18:21:29Z</time>
      </trkpt>
      <trkpt lat="42.273117" lon="2.470874">
        <ele>587.411</ele>
        <time>2021-05-27T18:21:32Z</time>
      </trkpt>
      <trkpt lat="42.273142" lon="2.470893">
        <ele>586.188</ele>
        <time>2021-05-27T18:21:35Z</time>
      </trkpt>
      <trkpt lat="42.273164" lon="2.470897">
        <ele>585.836</ele>
        <time>2021-05-27T18:21:37Z</time>
      </trkpt>
      <trkpt lat="42.273195" lon="2.470888">
        <ele>586.426</ele>
        <time>2021-05-27T18:21:39Z</time>
      </trkpt>
      <trkpt lat="42.273212" lon="2.470879">
        <ele>586.953</ele>
        <time>2021-05-27T18:21:40Z</time>
      </trkpt>
      <trkpt lat="42.273234" lon="2.470871">
        <ele>587.438</ele>
        <time>2021-05-27T18:21:42Z</time>
      </trkpt>
      <trkpt lat="42.273258" lon="2.470858">
        <ele>588.321</ele>
        <time>2021-05-27T18:21:45Z</time>
      </trkpt>
      <trkpt lat="42.273283" lon="2.470850">
        <ele>588.877</ele>
        <time>2021-05-27T18:21:47Z</time>
      </trkpt>
      <trkpt lat="42.273313" lon="2.470842">
        <ele>589.457</ele>
        <time>2021-05-27T18:21:49Z</time>
      </trkpt>
      <trkpt lat="42.273339" lon="2.470821">
        <ele>590.800</ele>
        <time>2021-05-27T18:21:52Z</time>
      </trkpt>
      <trkpt lat="42.273421" lon="2.470770">
        <ele>593.920</ele>
        <time>2021-05-27T18:22:00Z</time>
      </trkpt>
      <trkpt lat="42.273518" lon="2.470745">
        <ele>595.308</ele>
        <time>2021-05-27T18:22:12Z</time>
      </trkpt>
      <trkpt lat="42.273537" lon="2.470768">
        <ele>593.762</ele>
        <time>2021-05-27T18:22:18Z</time>
      </trkpt>
      <trkpt lat="42.273558" lon="2.470793">
        <ele>591.929</ele>
        <time>2021-05-27T18:22:21Z</time>
      </trkpt>
      <trkpt lat="42.273572" lon="2.470819">
        <ele>590.127</ele>
        <time>2021-05-27T18:22:24Z</time>
      </trkpt>
      <trkpt lat="42.273590" lon="2.470845">
        <ele>588.417</ele>
        <time>2021-05-27T18:22:28Z</time>
      </trkpt>
      <trkpt lat="42.273607" lon="2.470858">
        <ele>587.694</ele>
        <time>2021-05-27T18:22:30Z</time>
      </trkpt>
      <trkpt lat="42.273625" lon="2.470884">
        <ele>586.549</ele>
        <time>2021-05-27T18:22:33Z</time>
      </trkpt>
      <trkpt lat="42.273715" lon="2.470900">
        <ele>588.182</ele>
        <time>2021-05-27T18:22:39Z</time>
      </trkpt>
      <trkpt lat="42.273798" lon="2.470969">
        <ele>585.638</ele>
        <time>2021-05-27T18:22:46Z</time>
      </trkpt>
      <trkpt lat="42.273848" lon="2.470997">
        <ele>584.722</ele>
        <time>2021-05-27T18:22:50Z</time>
      </trkpt>
      <trkpt lat="42.273871" lon="2.471006">
        <ele>584.662</ele>
        <time>2021-05-27T18:22:53Z</time>
      </trkpt>
      <trkpt lat="42.273891" lon="2.471019">
        <ele>584.008</ele>
        <time>2021-05-27T18:22:55Z</time>
      </trkpt>
      <trkpt lat="42.273914" lon="2.471031">
        <ele>583.508</ele>
        <time>2021-05-27T18:22:57Z</time>
      </trkpt>
      <trkpt lat="42.273937" lon="2.471041">
        <ele>583.239</ele>
        <time>2021-05-27T18:22:59Z</time>
      </trkpt>
      <trkpt lat="42.273961" lon="2.471038">
        <ele>583.916</ele>
        <time>2021-05-27T18:23:00Z</time>
      </trkpt>
      <trkpt lat="42.273986" lon="2.471041">
        <ele>584.144</ele>
        <time>2021-05-27T18:23:02Z</time>
      </trkpt>
      <trkpt lat="42.274008" lon="2.471036">
        <ele>584.924</ele>
        <time>2021-05-27T18:23:04Z</time>
      </trkpt>
      <trkpt lat="42.274030" lon="2.471029">
        <ele>585.741</ele>
        <time>2021-05-27T18:23:06Z</time>
      </trkpt>
      <trkpt lat="42.274051" lon="2.471021">
        <ele>586.656</ele>
        <time>2021-05-27T18:23:08Z</time>
      </trkpt>
      <trkpt lat="42.274075" lon="2.471018">
        <ele>587.299</ele>
        <time>2021-05-27T18:23:11Z</time>
      </trkpt>
      <trkpt lat="42.274097" lon="2.471006">
        <ele>588.265</ele>
        <time>2021-05-27T18:23:14Z</time>
      </trkpt>
      <trkpt lat="42.274123" lon="2.470986">
        <ele>589.736</ele>
        <time>2021-05-27T18:23:19Z</time>
      </trkpt>
      <trkpt lat="42.274138" lon="2.470967">
        <ele>590.917</ele>
        <time>2021-05-27T18:23:25Z</time>
      </trkpt>
      <trkpt lat="42.274163" lon="2.470968">
        <ele>591.218</ele>
        <time>2021-05-27T18:23:30Z</time>
      </trkpt>
      <trkpt lat="42.274184" lon="2.470979">
        <ele>591.608</ele>
        <time>2021-05-27T18:23:33Z</time>
      </trkpt>
      <trkpt lat="42.274198" lon="2.471003">
        <ele>591.190</ele>
        <time>2021-05-27T18:23:36Z</time>
      </trkpt>
      <trkpt lat="42.274211" lon="2.471034">
        <ele>590.327</ele>
        <time>2021-05-27T18:23:39Z</time>
      </trkpt>
      <trkpt lat="42.274229" lon="2.471056">
        <ele>590.155</ele>
        <time>2021-05-27T18:23:44Z</time>
      </trkpt>
      <trkpt lat="42.274246" lon="2.471075">
        <ele>590.185</ele>
        <time>2021-05-27T18:23:47Z</time>
      </trkpt>
      <trkpt lat="42.274262" lon="2.471096">
        <ele>589.912</ele>
        <time>2021-05-27T18:23:48Z</time>
      </trkpt>
      <trkpt lat="42.274282" lon="2.471120">
        <ele>589.997</ele>
        <time>2021-05-27T18:23:51Z</time>
      </trkpt>
      <trkpt lat="42.274299" lon="2.471140">
        <ele>590.170</ele>
        <time>2021-05-27T18:23:53Z</time>
      </trkpt>
      <trkpt lat="42.274320" lon="2.471160">
        <ele>590.566</ele>
        <time>2021-05-27T18:23:56Z</time>
      </trkpt>
      <trkpt lat="42.274342" lon="2.471176">
        <ele>591.251</ele>
        <time>2021-05-27T18:24:00Z</time>
      </trkpt>
      <trkpt lat="42.274362" lon="2.471186">
        <ele>592.001</ele>
        <time>2021-05-27T18:24:02Z</time>
      </trkpt>
      <trkpt lat="42.274380" lon="2.471212">
        <ele>592.111</ele>
        <time>2021-05-27T18:24:05Z</time>
      </trkpt>
      <trkpt lat="42.274391" lon="2.471238">
        <ele>591.808</ele>
        <time>2021-05-27T18:24:07Z</time>
      </trkpt>
      <trkpt lat="42.274407" lon="2.471255">
        <ele>592.242</ele>
        <time>2021-05-27T18:24:12Z</time>
      </trkpt>
      <trkpt lat="42.274425" lon="2.471276">
        <ele>592.599</ele>
        <time>2021-05-27T18:24:16Z</time>
      </trkpt>
      <trkpt lat="42.274434" lon="2.471300">
        <ele>592.327</ele>
        <time>2021-05-27T18:24:18Z</time>
      </trkpt>
      <trkpt lat="42.274449" lon="2.471322">
        <ele>592.367</ele>
        <time>2021-05-27T18:24:19Z</time>
      </trkpt>
      <trkpt lat="42.274470" lon="2.471338">
        <ele>592.694</ele>
        <time>2021-05-27T18:24:22Z</time>
      </trkpt>
      <trkpt lat="42.274483" lon="2.471355">
        <ele>592.459</ele>
        <time>2021-05-27T18:24:24Z</time>
      </trkpt>
      <trkpt lat="42.274506" lon="2.471356">
        <ele>593.272</ele>
        <time>2021-05-27T18:24:27Z</time>
      </trkpt>
      <trkpt lat="42.274526" lon="2.471358">
        <ele>593.878</ele>
        <time>2021-05-27T18:24:31Z</time>
      </trkpt>
      <trkpt lat="42.274537" lon="2.471378">
        <ele>593.487</ele>
        <time>2021-05-27T18:24:32Z</time>
      </trkpt>
      <trkpt lat="42.274557" lon="2.471387">
        <ele>593.742</ele>
        <time>2021-05-27T18:24:35Z</time>
      </trkpt>
      <trkpt lat="42.274575" lon="2.471400">
        <ele>593.726</ele>
        <time>2021-05-27T18:24:36Z</time>
      </trkpt>
      <trkpt lat="42.274593" lon="2.471409">
        <ele>593.808</ele>
        <time>2021-05-27T18:24:39Z</time>
      </trkpt>
      <trkpt lat="42.274614" lon="2.471415">
        <ele>594.155</ele>
        <time>2021-05-27T18:24:40Z</time>
      </trkpt>
      <trkpt lat="42.274634" lon="2.471430">
        <ele>593.972</ele>
        <time>2021-05-27T18:24:42Z</time>
      </trkpt>
      <trkpt lat="42.274651" lon="2.471449">
        <ele>593.330</ele>
        <time>2021-05-27T18:24:44Z</time>
      </trkpt>
      <trkpt lat="42.274669" lon="2.471462">
        <ele>593.130</ele>
        <time>2021-05-27T18:24:46Z</time>
      </trkpt>
      <trkpt lat="42.274687" lon="2.471485">
        <ele>592.267</ele>
        <time>2021-05-27T18:24:48Z</time>
      </trkpt>
      <trkpt lat="42.274709" lon="2.471498">
        <ele>592.032</ele>
        <time>2021-05-27T18:24:50Z</time>
      </trkpt>
      <trkpt lat="42.274732" lon="2.471497">
        <ele>592.735</ele>
        <time>2021-05-27T18:24:52Z</time>
      </trkpt>
      <trkpt lat="42.274755" lon="2.471486">
        <ele>594.131</ele>
        <time>2021-05-27T18:24:55Z</time>
      </trkpt>
      <trkpt lat="42.274781" lon="2.471474">
        <ele>595.675</ele>
        <time>2021-05-27T18:24:56Z</time>
      </trkpt>
      <trkpt lat="42.274803" lon="2.471466">
        <ele>596.728</ele>
        <time>2021-05-27T18:24:59Z</time>
      </trkpt>
      <trkpt lat="42.274826" lon="2.471468">
        <ele>597.320</ele>
        <time>2021-05-27T18:25:01Z</time>
      </trkpt>
      <trkpt lat="42.274847" lon="2.471467">
        <ele>598.008</ele>
        <time>2021-05-27T18:25:04Z</time>
      </trkpt>
      <trkpt lat="42.274868" lon="2.471470">
        <ele>598.514</ele>
        <time>2021-05-27T18:25:08Z</time>
      </trkpt>
      <trkpt lat="42.274892" lon="2.471476">
        <ele>598.941</ele>
        <time>2021-05-27T18:25:11Z</time>
      </trkpt>
      <trkpt lat="42.274924" lon="2.471498">
        <ele>598.869</ele>
        <time>2021-05-27T18:25:15Z</time>
      </trkpt>
      <trkpt lat="42.274941" lon="2.471513">
        <ele>598.739</ele>
        <time>2021-05-27T18:25:20Z</time>
      </trkpt>
      <trkpt lat="42.274950" lon="2.471537">
        <ele>597.916</ele>
        <time>2021-05-27T18:25:27Z</time>
      </trkpt>
      <trkpt lat="42.274960" lon="2.471562">
        <ele>597.181</ele>
        <time>2021-05-27T18:25:31Z</time>
      </trkpt>
      <trkpt lat="42.274978" lon="2.471571">
        <ele>597.374</ele>
        <time>2021-05-27T18:25:34Z</time>
      </trkpt>
      <trkpt lat="42.274993" lon="2.471586">
        <ele>597.260</ele>
        <time>2021-05-27T18:25:35Z</time>
      </trkpt>
      <trkpt lat="42.275009" lon="2.471598">
        <ele>597.558</ele>
        <time>2021-05-27T18:25:37Z</time>
      </trkpt>
      <trkpt lat="42.275020" lon="2.471625">
        <ele>597.052</ele>
        <time>2021-05-27T18:25:41Z</time>
      </trkpt>
      <trkpt lat="42.275024" lon="2.471650">
        <ele>596.117</ele>
        <time>2021-05-27T18:25:45Z</time>
      </trkpt>
      <trkpt lat="42.275031" lon="2.471680">
        <ele>595.408</ele>
        <time>2021-05-27T18:25:47Z</time>
      </trkpt>
      <trkpt lat="42.275034" lon="2.471709">
        <ele>594.642</ele>
        <time>2021-05-27T18:25:49Z</time>
      </trkpt>
      <trkpt lat="42.275037" lon="2.471739">
        <ele>593.829</ele>
        <time>2021-05-27T18:25:52Z</time>
      </trkpt>
      <trkpt lat="42.275043" lon="2.471765">
        <ele>593.267</ele>
        <time>2021-05-27T18:25:54Z</time>
      </trkpt>
      <trkpt lat="42.275058" lon="2.471779">
        <ele>593.447</ele>
        <time>2021-05-27T18:26:16Z</time>
      </trkpt>
      <trkpt lat="42.275074" lon="2.471763">
        <ele>594.724</ele>
        <time>2021-05-27T18:26:21Z</time>
      </trkpt>
      <trkpt lat="42.275090" lon="2.471750">
        <ele>596.039</ele>
        <time>2021-05-27T18:26:29Z</time>
      </trkpt>
      <trkpt lat="42.275109" lon="2.471757">
        <ele>596.772</ele>
        <time>2021-05-27T18:26:34Z</time>
      </trkpt>
      <trkpt lat="42.275126" lon="2.471778">
        <ele>596.638</ele>
        <time>2021-05-27T18:26:37Z</time>
      </trkpt>
      <trkpt lat="42.275138" lon="2.471801">
        <ele>596.285</ele>
        <time>2021-05-27T18:26:40Z</time>
      </trkpt>
      <trkpt lat="42.275151" lon="2.471826">
        <ele>595.689</ele>
        <time>2021-05-27T18:26:42Z</time>
      </trkpt>
      <trkpt lat="42.275164" lon="2.471848">
        <ele>595.117</ele>
        <time>2021-05-27T18:26:46Z</time>
      </trkpt>
      <trkpt lat="42.275182" lon="2.471855">
        <ele>595.508</ele>
        <time>2021-05-27T18:26:54Z</time>
      </trkpt>
      <trkpt lat="42.275204" lon="2.471841">
        <ele>597.075</ele>
        <time>2021-05-27T18:27:01Z</time>
      </trkpt>
      <trkpt lat="42.275221" lon="2.471832">
        <ele>598.222</ele>
        <time>2021-05-27T18:27:07Z</time>
      </trkpt>
      <trkpt lat="42.275239" lon="2.471816">
        <ele>599.880</ele>
        <time>2021-05-27T18:27:09Z</time>
      </trkpt>
      <trkpt lat="42.275261" lon="2.471807">
        <ele>601.250</ele>
        <time>2021-05-27T18:27:17Z</time>
      </trkpt>
      <trkpt lat="42.275279" lon="2.471797">
        <ele>602.597</ele>
        <time>2021-05-27T18:27:21Z</time>
      </trkpt>
      <trkpt lat="42.275298" lon="2.471789">
        <ele>602.522</ele>
        <time>2021-05-27T18:27:25Z</time>
      </trkpt>
      <trkpt lat="42.275311" lon="2.471766">
        <ele>603.565</ele>
        <time>2021-05-27T18:27:29Z</time>
      </trkpt>
      <trkpt lat="42.275325" lon="2.471746">
        <ele>604.371</ele>
        <time>2021-05-27T18:27:33Z</time>
      </trkpt>
      <trkpt lat="42.275339" lon="2.471712">
        <ele>606.016</ele>
        <time>2021-05-27T18:27:36Z</time>
      </trkpt>
      <trkpt lat="42.275350" lon="2.471690">
        <ele>607.176</ele>
        <time>2021-05-27T18:27:42Z</time>
      </trkpt>
      <trkpt lat="42.275364" lon="2.471675">
        <ele>607.613</ele>
        <time>2021-05-27T18:27:45Z</time>
      </trkpt>
      <trkpt lat="42.275391" lon="2.471666">
        <ele>607.608</ele>
        <time>2021-05-27T18:27:47Z</time>
      </trkpt>
      <trkpt lat="42.275410" lon="2.471659">
        <ele>607.768</ele>
        <time>2021-05-27T18:27:51Z</time>
      </trkpt>
      <trkpt lat="42.275444" lon="2.471614">
        <ele>610.425</ele>
        <time>2021-05-27T18:27:59Z</time>
      </trkpt>
      <trkpt lat="42.275510" lon="2.471528">
        <ele>615.763</ele>
        <time>2021-05-27T18:28:15Z</time>
      </trkpt>
      <trkpt lat="42.275523" lon="2.471508">
        <ele>617.173</ele>
        <time>2021-05-27T18:28:19Z</time>
      </trkpt>
      <trkpt lat="42.275517" lon="2.471484">
        <ele>619.050</ele>
        <time>2021-05-27T18:28:31Z</time>
      </trkpt>
      <trkpt lat="42.275540" lon="2.471466">
        <ele>620.125</ele>
        <time>2021-05-27T18:28:37Z</time>
      </trkpt>
      <trkpt lat="42.275585" lon="2.471354">
        <ele>626.638</ele>
        <time>2021-05-27T18:28:47Z</time>
      </trkpt>
      <trkpt lat="42.275598" lon="2.471334">
        <ele>627.224</ele>
        <time>2021-05-27T18:28:52Z</time>
      </trkpt>
      <trkpt lat="42.275621" lon="2.471265">
        <ele>630.996</ele>
        <time>2021-05-27T18:29:00Z</time>
      </trkpt>
      <trkpt lat="42.275665" lon="2.471227">
        <ele>630.531</ele>
        <time>2021-05-27T18:29:04Z</time>
      </trkpt>
      <trkpt lat="42.275680" lon="2.471206">
        <ele>630.924</ele>
        <time>2021-05-27T18:29:06Z</time>
      </trkpt>
      <trkpt lat="42.275689" lon="2.471185">
        <ele>631.808</ele>
        <time>2021-05-27T18:29:09Z</time>
      </trkpt>
      <trkpt lat="42.275709" lon="2.471161">
        <ele>632.186</ele>
        <time>2021-05-27T18:29:13Z</time>
      </trkpt>
      <trkpt lat="42.275726" lon="2.471141">
        <ele>632.323</ele>
        <time>2021-05-27T18:29:16Z</time>
      </trkpt>
      <trkpt lat="42.275743" lon="2.471128">
        <ele>631.941</ele>
        <time>2021-05-27T18:29:19Z</time>
      </trkpt>
      <trkpt lat="42.275763" lon="2.471131">
        <ele>630.191</ele>
        <time>2021-05-27T18:29:23Z</time>
      </trkpt>
      <trkpt lat="42.275772" lon="2.471107">
        <ele>631.128</ele>
        <time>2021-05-27T18:29:27Z</time>
      </trkpt>
      <trkpt lat="42.275793" lon="2.471090">
        <ele>630.633</ele>
        <time>2021-05-27T18:29:33Z</time>
      </trkpt>
      <trkpt lat="42.275810" lon="2.471080">
        <ele>630.076</ele>
        <time>2021-05-27T18:29:35Z</time>
      </trkpt>
      <trkpt lat="42.275854" lon="2.471104">
        <ele>626.682</ele>
        <time>2021-05-27T18:29:43Z</time>
      </trkpt>
      <trkpt lat="42.275876" lon="2.471114">
        <ele>626.094</ele>
        <time>2021-05-27T18:29:45Z</time>
      </trkpt>
      <trkpt lat="42.275891" lon="2.471132">
        <ele>624.957</ele>
        <time>2021-05-27T18:29:47Z</time>
      </trkpt>
      <trkpt lat="42.275952" lon="2.471159">
        <ele>623.922</ele>
        <time>2021-05-27T18:29:53Z</time>
      </trkpt>
      <trkpt lat="42.275973" lon="2.471166">
        <ele>623.708</ele>
        <time>2021-05-27T18:29:55Z</time>
      </trkpt>
      <trkpt lat="42.275991" lon="2.471178">
        <ele>623.486</ele>
        <time>2021-05-27T18:29:57Z</time>
      </trkpt>
      <trkpt lat="42.276012" lon="2.471190">
        <ele>623.293</ele>
        <time>2021-05-27T18:29:59Z</time>
      </trkpt>
      <trkpt lat="42.276034" lon="2.471205">
        <ele>622.931</ele>
        <time>2021-05-27T18:30:02Z</time>
      </trkpt>
      <trkpt lat="42.276055" lon="2.471223">
        <ele>622.691</ele>
        <time>2021-05-27T18:30:05Z</time>
      </trkpt>
      <trkpt lat="42.276073" lon="2.471246">
        <ele>622.278</ele>
        <time>2021-05-27T18:30:07Z</time>
      </trkpt>
      <trkpt lat="42.276086" lon="2.471266">
        <ele>621.833</ele>
        <time>2021-05-27T18:30:09Z</time>
      </trkpt>
      <trkpt lat="42.276088" lon="2.471292">
        <ele>621.126</ele>
        <time>2021-05-27T18:30:11Z</time>
      </trkpt>
      <trkpt lat="42.276085" lon="2.471324">
        <ele>619.952</ele>
        <time>2021-05-27T18:30:13Z</time>
      </trkpt>
      <trkpt lat="42.276068" lon="2.471355">
        <ele>618.239</ele>
        <time>2021-05-27T18:30:16Z</time>
      </trkpt>
      <trkpt lat="42.276058" lon="2.471375">
        <ele>617.001</ele>
        <time>2021-05-27T18:30:17Z</time>
      </trkpt>
      <trkpt lat="42.276058" lon="2.471412">
        <ele>615.721</ele>
        <time>2021-05-27T18:30:19Z</time>
      </trkpt>
      <trkpt lat="42.276068" lon="2.471447">
        <ele>614.808</ele>
        <time>2021-05-27T18:30:21Z</time>
      </trkpt>
      <trkpt lat="42.276073" lon="2.471479">
        <ele>613.950</ele>
        <time>2021-05-27T18:30:23Z</time>
      </trkpt>
      <trkpt lat="42.276073" lon="2.471509">
        <ele>612.867</ele>
        <time>2021-05-27T18:30:25Z</time>
      </trkpt>
      <trkpt lat="42.276073" lon="2.471538">
        <ele>611.735</ele>
        <time>2021-05-27T18:30:27Z</time>
      </trkpt>
      <trkpt lat="42.276082" lon="2.471567">
        <ele>611.115</ele>
        <time>2021-05-27T18:30:29Z</time>
      </trkpt>
      <trkpt lat="42.276093" lon="2.471589">
        <ele>610.932</ele>
        <time>2021-05-27T18:30:31Z</time>
      </trkpt>
      <trkpt lat="42.276100" lon="2.471612">
        <ele>610.487</ele>
        <time>2021-05-27T18:30:33Z</time>
      </trkpt>
      <trkpt lat="42.276125" lon="2.471630">
        <ele>610.670</ele>
        <time>2021-05-27T18:30:35Z</time>
      </trkpt>
      <trkpt lat="42.276148" lon="2.471638">
        <ele>610.736</ele>
        <time>2021-05-27T18:30:37Z</time>
      </trkpt>
      <trkpt lat="42.276173" lon="2.471644">
        <ele>611.084</ele>
        <time>2021-05-27T18:30:39Z</time>
      </trkpt>
      <trkpt lat="42.276196" lon="2.471656">
        <ele>610.907</ele>
        <time>2021-05-27T18:30:41Z</time>
      </trkpt>
      <trkpt lat="42.276217" lon="2.471657">
        <ele>611.317</ele>
        <time>2021-05-27T18:30:43Z</time>
      </trkpt>
      <trkpt lat="42.276235" lon="2.471672">
        <ele>611.108</ele>
        <time>2021-05-27T18:30:46Z</time>
      </trkpt>
      <trkpt lat="42.276230" lon="2.471700">
        <ele>610.175</ele>
        <time>2021-05-27T18:30:59Z</time>
      </trkpt>
      <trkpt lat="42.276244" lon="2.471717">
        <ele>609.842</ele>
        <time>2021-05-27T18:31:03Z</time>
      </trkpt>
      <trkpt lat="42.276264" lon="2.471741">
        <ele>609.360</ele>
        <time>2021-05-27T18:31:05Z</time>
      </trkpt>
      <trkpt lat="42.276284" lon="2.471763">
        <ele>608.930</ele>
        <time>2021-05-27T18:31:07Z</time>
      </trkpt>
      <trkpt lat="42.276302" lon="2.471789">
        <ele>608.337</ele>
        <time>2021-05-27T18:31:10Z</time>
      </trkpt>
      <trkpt lat="42.276314" lon="2.471808">
        <ele>607.872</ele>
        <time>2021-05-27T18:31:13Z</time>
      </trkpt>
      <trkpt lat="42.276330" lon="2.471821">
        <ele>607.615</ele>
        <time>2021-05-27T18:31:14Z</time>
      </trkpt>
      <trkpt lat="42.276346" lon="2.471841">
        <ele>607.181</ele>
        <time>2021-05-27T18:31:16Z</time>
      </trkpt>
      <trkpt lat="42.276369" lon="2.471821">
        <ele>608.267</ele>
        <time>2021-05-27T18:31:20Z</time>
      </trkpt>
      <trkpt lat="42.276388" lon="2.471832">
        <ele>608.081</ele>
        <time>2021-05-27T18:31:26Z</time>
      </trkpt>
      <trkpt lat="42.276395" lon="2.471862">
        <ele>607.219</ele>
        <time>2021-05-27T18:31:28Z</time>
      </trkpt>
      <trkpt lat="42.276396" lon="2.471894">
        <ele>606.108</ele>
        <time>2021-05-27T18:31:30Z</time>
      </trkpt>
      <trkpt lat="42.276405" lon="2.471916">
        <ele>605.793</ele>
        <time>2021-05-27T18:31:36Z</time>
      </trkpt>
      <trkpt lat="42.276420" lon="2.471933">
        <ele>605.670</ele>
        <time>2021-05-27T18:31:38Z</time>
      </trkpt>
      <trkpt lat="42.276439" lon="2.471948">
        <ele>605.848</ele>
        <time>2021-05-27T18:31:41Z</time>
      </trkpt>
      <trkpt lat="42.276460" lon="2.471956">
        <ele>606.498</ele>
        <time>2021-05-27T18:31:43Z</time>
      </trkpt>
      <trkpt lat="42.276481" lon="2.471974">
        <ele>606.575</ele>
        <time>2021-05-27T18:31:45Z</time>
      </trkpt>
      <trkpt lat="42.276500" lon="2.471999">
        <ele>606.360</ele>
        <time>2021-05-27T18:31:46Z</time>
      </trkpt>
      <trkpt lat="42.276512" lon="2.472018">
        <ele>606.153</ele>
        <time>2021-05-27T18:31:47Z</time>
      </trkpt>
      <trkpt lat="42.276522" lon="2.472039">
        <ele>605.759</ele>
        <time>2021-05-27T18:31:48Z</time>
      </trkpt>
      <trkpt lat="42.276545" lon="2.472056">
        <ele>606.032</ele>
        <time>2021-05-27T18:31:51Z</time>
      </trkpt>
      <trkpt lat="42.276560" lon="2.472070">
        <ele>606.192</ele>
        <time>2021-05-27T18:31:52Z</time>
      </trkpt>
      <trkpt lat="42.276580" lon="2.472083">
        <ele>606.411</ele>
        <time>2021-05-27T18:31:55Z</time>
      </trkpt>
      <trkpt lat="42.276603" lon="2.472105">
        <ele>606.608</ele>
        <time>2021-05-27T18:31:58Z</time>
      </trkpt>
      <trkpt lat="42.276621" lon="2.472127">
        <ele>606.570</ele>
        <time>2021-05-27T18:32:00Z</time>
      </trkpt>
      <trkpt lat="42.276639" lon="2.472137">
        <ele>606.917</ele>
        <time>2021-05-27T18:32:02Z</time>
      </trkpt>
      <trkpt lat="42.276656" lon="2.472160">
        <ele>606.885</ele>
        <time>2021-05-27T18:32:04Z</time>
      </trkpt>
      <trkpt lat="42.276674" lon="2.472179">
        <ele>607.075</ele>
        <time>2021-05-27T18:32:06Z</time>
      </trkpt>
      <trkpt lat="42.276689" lon="2.472194">
        <ele>607.472</ele>
        <time>2021-05-27T18:32:08Z</time>
      </trkpt>
      <trkpt lat="42.276706" lon="2.472205">
        <ele>608.047</ele>
        <time>2021-05-27T18:32:10Z</time>
      </trkpt>
      <trkpt lat="42.276731" lon="2.472223">
        <ele>608.960</ele>
        <time>2021-05-27T18:32:11Z</time>
      </trkpt>
      <trkpt lat="42.276750" lon="2.472236">
        <ele>609.756</ele>
        <time>2021-05-27T18:32:14Z</time>
      </trkpt>
      <trkpt lat="42.276769" lon="2.472243">
        <ele>610.727</ele>
        <time>2021-05-27T18:32:16Z</time>
      </trkpt>
      <trkpt lat="42.276782" lon="2.472262">
        <ele>610.968</ele>
        <time>2021-05-27T18:32:18Z</time>
      </trkpt>
      <trkpt lat="42.276781" lon="2.472288">
        <ele>610.114</ele>
        <time>2021-05-27T18:32:20Z</time>
      </trkpt>
      <trkpt lat="42.276779" lon="2.472325">
        <ele>608.908</ele>
        <time>2021-05-27T18:32:22Z</time>
      </trkpt>
      <trkpt lat="42.276788" lon="2.472352">
        <ele>608.729</ele>
        <time>2021-05-27T18:32:24Z</time>
      </trkpt>
      <trkpt lat="42.276801" lon="2.472383">
        <ele>608.686</ele>
        <time>2021-05-27T18:32:28Z</time>
      </trkpt>
      <trkpt lat="42.276816" lon="2.472406">
        <ele>608.824</ele>
        <time>2021-05-27T18:32:29Z</time>
      </trkpt>
      <trkpt lat="42.276831" lon="2.472429">
        <ele>609.134</ele>
        <time>2021-05-27T18:32:31Z</time>
      </trkpt>
      <trkpt lat="42.276845" lon="2.472456">
        <ele>609.221</ele>
        <time>2021-05-27T18:32:34Z</time>
      </trkpt>
      <trkpt lat="42.276865" lon="2.472474">
        <ele>609.956</ele>
        <time>2021-05-27T18:32:37Z</time>
      </trkpt>
      <trkpt lat="42.276875" lon="2.472496">
        <ele>609.949</ele>
        <time>2021-05-27T18:32:39Z</time>
      </trkpt>
      <trkpt lat="42.276892" lon="2.472512">
        <ele>610.495</ele>
        <time>2021-05-27T18:32:41Z</time>
      </trkpt>
      <trkpt lat="42.276906" lon="2.472532">
        <ele>610.782</ele>
        <time>2021-05-27T18:32:44Z</time>
      </trkpt>
      <trkpt lat="42.276926" lon="2.472551">
        <ele>611.443</ele>
        <time>2021-05-27T18:32:47Z</time>
      </trkpt>
      <trkpt lat="42.276943" lon="2.472561">
        <ele>612.217</ele>
        <time>2021-05-27T18:32:48Z</time>
      </trkpt>
      <trkpt lat="42.276960" lon="2.472587">
        <ele>612.608</ele>
        <time>2021-05-27T18:32:52Z</time>
      </trkpt>
      <trkpt lat="42.276972" lon="2.472609">
        <ele>612.715</ele>
        <time>2021-05-27T18:32:54Z</time>
      </trkpt>
      <trkpt lat="42.276986" lon="2.472635">
        <ele>613.072</ele>
        <time>2021-05-27T18:32:56Z</time>
      </trkpt>
      <trkpt lat="42.276996" lon="2.472656">
        <ele>613.070</ele>
        <time>2021-05-27T18:32:58Z</time>
      </trkpt>
      <trkpt lat="42.277007" lon="2.472682">
        <ele>613.030</ele>
        <time>2021-05-27T18:33:01Z</time>
      </trkpt>
      <trkpt lat="42.277015" lon="2.472713">
        <ele>612.767</ele>
        <time>2021-05-27T18:33:03Z</time>
      </trkpt>
      <trkpt lat="42.277026" lon="2.472737">
        <ele>612.842</ele>
        <time>2021-05-27T18:33:05Z</time>
      </trkpt>
      <trkpt lat="42.277043" lon="2.472756">
        <ele>613.485</ele>
        <time>2021-05-27T18:33:07Z</time>
      </trkpt>
      <trkpt lat="42.277057" lon="2.472785">
        <ele>613.551</ele>
        <time>2021-05-27T18:33:08Z</time>
      </trkpt>
      <trkpt lat="42.277073" lon="2.472814">
        <ele>613.611</ele>
        <time>2021-05-27T18:33:10Z</time>
      </trkpt>
      <trkpt lat="42.277085" lon="2.472838">
        <ele>613.721</ele>
        <time>2021-05-27T18:33:12Z</time>
      </trkpt>
      <trkpt lat="42.277101" lon="2.472860">
        <ele>614.003</ele>
        <time>2021-05-27T18:33:14Z</time>
      </trkpt>
      <trkpt lat="42.277117" lon="2.472883">
        <ele>614.208</ele>
        <time>2021-05-27T18:33:17Z</time>
      </trkpt>
      <trkpt lat="42.277132" lon="2.472899">
        <ele>614.648</ele>
        <time>2021-05-27T18:33:19Z</time>
      </trkpt>
      <trkpt lat="42.277142" lon="2.472920">
        <ele>614.585</ele>
        <time>2021-05-27T18:33:21Z</time>
      </trkpt>
      <trkpt lat="42.277158" lon="2.472940">
        <ele>614.763</ele>
        <time>2021-05-27T18:33:23Z</time>
      </trkpt>
      <trkpt lat="42.277174" lon="2.472960">
        <ele>614.993</ele>
        <time>2021-05-27T18:33:25Z</time>
      </trkpt>
      <trkpt lat="42.277192" lon="2.472981">
        <ele>615.290</ele>
        <time>2021-05-27T18:33:27Z</time>
      </trkpt>
      <trkpt lat="42.277218" lon="2.472999">
        <ele>616.015</ele>
        <time>2021-05-27T18:33:29Z</time>
      </trkpt>
      <trkpt lat="42.277249" lon="2.473010">
        <ele>616.978</ele>
        <time>2021-05-27T18:33:31Z</time>
      </trkpt>
      <trkpt lat="42.277274" lon="2.473017">
        <ele>617.784</ele>
        <time>2021-05-27T18:33:33Z</time>
      </trkpt>
      <trkpt lat="42.277290" lon="2.473031">
        <ele>617.917</ele>
        <time>2021-05-27T18:33:35Z</time>
      </trkpt>
      <trkpt lat="42.277310" lon="2.473042">
        <ele>618.387</ele>
        <time>2021-05-27T18:33:37Z</time>
      </trkpt>
      <trkpt lat="42.277342" lon="2.473161">
        <ele>617.715</ele>
        <time>2021-05-27T18:33:47Z</time>
      </trkpt>
      <trkpt lat="42.277316" lon="2.473237">
        <ele>615.008</ele>
        <time>2021-05-27T18:33:54Z</time>
      </trkpt>
      <trkpt lat="42.277302" lon="2.473288">
        <ele>613.348</ele>
        <time>2021-05-27T18:33:57Z</time>
      </trkpt>
      <trkpt lat="42.277295" lon="2.473312">
        <ele>612.425</ele>
        <time>2021-05-27T18:33:58Z</time>
      </trkpt>
      <trkpt lat="42.277301" lon="2.473357">
        <ele>612.483</ele>
        <time>2021-05-27T18:34:00Z</time>
      </trkpt>
      <trkpt lat="42.277314" lon="2.473404">
        <ele>613.243</ele>
        <time>2021-05-27T18:34:02Z</time>
      </trkpt>
      <trkpt lat="42.277329" lon="2.473447">
        <ele>614.110</ele>
        <time>2021-05-27T18:34:04Z</time>
      </trkpt>
      <trkpt lat="42.277342" lon="2.473466">
        <ele>614.875</ele>
        <time>2021-05-27T18:34:05Z</time>
      </trkpt>
      <trkpt lat="42.277362" lon="2.473484">
        <ele>616.078</ele>
        <time>2021-05-27T18:34:07Z</time>
      </trkpt>
      <trkpt lat="42.277376" lon="2.473506">
        <ele>616.814</ele>
        <time>2021-05-27T18:34:09Z</time>
      </trkpt>
      <trkpt lat="42.277380" lon="2.473539">
        <ele>616.988</ele>
        <time>2021-05-27T18:34:11Z</time>
      </trkpt>
      <trkpt lat="42.277388" lon="2.473569">
        <ele>617.224</ele>
        <time>2021-05-27T18:34:13Z</time>
      </trkpt>
      <trkpt lat="42.277405" lon="2.473597">
        <ele>618.026</ele>
        <time>2021-05-27T18:34:15Z</time>
      </trkpt>
      <trkpt lat="42.277423" lon="2.473628">
        <ele>618.608</ele>
        <time>2021-05-27T18:34:17Z</time>
      </trkpt>
      <trkpt lat="42.277435" lon="2.473663">
        <ele>618.675</ele>
        <time>2021-05-27T18:34:19Z</time>
      </trkpt>
      <trkpt lat="42.277446" lon="2.473688">
        <ele>618.852</ele>
        <time>2021-05-27T18:34:21Z</time>
      </trkpt>
      <trkpt lat="42.277462" lon="2.473724">
        <ele>619.030</ele>
        <time>2021-05-27T18:34:23Z</time>
      </trkpt>
      <trkpt lat="42.277478" lon="2.473760">
        <ele>619.260</ele>
        <time>2021-05-27T18:34:25Z</time>
      </trkpt>
      <trkpt lat="42.277490" lon="2.473789">
        <ele>619.357</ele>
        <time>2021-05-27T18:34:27Z</time>
      </trkpt>
      <trkpt lat="42.277505" lon="2.473811">
        <ele>619.712</ele>
        <time>2021-05-27T18:34:29Z</time>
      </trkpt>
      <trkpt lat="42.277518" lon="2.473831">
        <ele>619.955</ele>
        <time>2021-05-27T18:34:31Z</time>
      </trkpt>
      <trkpt lat="42.277537" lon="2.473853">
        <ele>620.581</ele>
        <time>2021-05-27T18:34:33Z</time>
      </trkpt>
      <trkpt lat="42.277545" lon="2.473884">
        <ele>620.481</ele>
        <time>2021-05-27T18:34:35Z</time>
      </trkpt>
      <trkpt lat="42.277556" lon="2.473912">
        <ele>620.361</ele>
        <time>2021-05-27T18:34:37Z</time>
      </trkpt>
      <trkpt lat="42.277560" lon="2.473950">
        <ele>619.717</ele>
        <time>2021-05-27T18:34:39Z</time>
      </trkpt>
      <trkpt lat="42.277575" lon="2.473995">
        <ele>619.508</ele>
        <time>2021-05-27T18:34:42Z</time>
      </trkpt>
      <trkpt lat="42.277593" lon="2.474033">
        <ele>619.675</ele>
        <time>2021-05-27T18:34:43Z</time>
      </trkpt>
      <trkpt lat="42.277615" lon="2.474092">
        <ele>619.452</ele>
        <time>2021-05-27T18:34:47Z</time>
      </trkpt>
      <trkpt lat="42.277632" lon="2.474127">
        <ele>619.580</ele>
        <time>2021-05-27T18:34:49Z</time>
      </trkpt>
      <trkpt lat="42.277651" lon="2.474160">
        <ele>619.830</ele>
        <time>2021-05-27T18:34:51Z</time>
      </trkpt>
      <trkpt lat="42.277668" lon="2.474189">
        <ele>619.947</ele>
        <time>2021-05-27T18:34:53Z</time>
      </trkpt>
      <trkpt lat="42.277685" lon="2.474219">
        <ele>620.022</ele>
        <time>2021-05-27T18:34:55Z</time>
      </trkpt>
      <trkpt lat="42.277702" lon="2.474252">
        <ele>620.085</ele>
        <time>2021-05-27T18:34:57Z</time>
      </trkpt>
      <trkpt lat="42.277708" lon="2.474276">
        <ele>619.751</ele>
        <time>2021-05-27T18:34:58Z</time>
      </trkpt>
      <trkpt lat="42.277723" lon="2.474303">
        <ele>619.851</ele>
        <time>2021-05-27T18:35:00Z</time>
      </trkpt>
      <trkpt lat="42.277749" lon="2.474325">
        <ele>620.601</ele>
        <time>2021-05-27T18:35:01Z</time>
      </trkpt>
      <trkpt lat="42.277765" lon="2.474352">
        <ele>620.711</ele>
        <time>2021-05-27T18:35:03Z</time>
      </trkpt>
      <trkpt lat="42.277781" lon="2.474382">
        <ele>620.708</ele>
        <time>2021-05-27T18:35:05Z</time>
      </trkpt>
      <trkpt lat="42.277791" lon="2.474404">
        <ele>620.782</ele>
        <time>2021-05-27T18:35:07Z</time>
      </trkpt>
      <trkpt lat="42.277808" lon="2.474422">
        <ele>621.139</ele>
        <time>2021-05-27T18:35:09Z</time>
      </trkpt>
      <trkpt lat="42.277825" lon="2.474450">
        <ele>621.387</ele>
        <time>2021-05-27T18:35:11Z</time>
      </trkpt>
      <trkpt lat="42.277837" lon="2.474476">
        <ele>621.497</ele>
        <time>2021-05-27T18:35:13Z</time>
      </trkpt>
      <trkpt lat="42.277847" lon="2.474496">
        <ele>621.514</ele>
        <time>2021-05-27T18:35:15Z</time>
      </trkpt>
      <trkpt lat="42.277832" lon="2.474541">
        <ele>619.929</ele>
        <time>2021-05-27T18:35:17Z</time>
      </trkpt>
      <trkpt lat="42.277832" lon="2.474577">
        <ele>619.342</ele>
        <time>2021-05-27T18:35:20Z</time>
      </trkpt>
      <trkpt lat="42.277848" lon="2.474613">
        <ele>619.458</ele>
        <time>2021-05-27T18:35:21Z</time>
      </trkpt>
      <trkpt lat="42.277862" lon="2.474639">
        <ele>619.545</ele>
        <time>2021-05-27T18:35:23Z</time>
      </trkpt>
      <trkpt lat="42.277875" lon="2.474661">
        <ele>619.747</ele>
        <time>2021-05-27T18:35:26Z</time>
      </trkpt>
      <trkpt lat="42.277903" lon="2.474715">
        <ele>620.011</ele>
        <time>2021-05-27T18:35:28Z</time>
      </trkpt>
      <trkpt lat="42.277911" lon="2.474738">
        <ele>620.008</ele>
        <time>2021-05-27T18:35:29Z</time>
      </trkpt>
      <trkpt lat="42.277926" lon="2.474773">
        <ele>620.281</ele>
        <time>2021-05-27T18:35:31Z</time>
      </trkpt>
      <trkpt lat="42.277933" lon="2.474797">
        <ele>620.268</ele>
        <time>2021-05-27T18:35:32Z</time>
      </trkpt>
      <trkpt lat="42.277946" lon="2.474834">
        <ele>620.356</ele>
        <time>2021-05-27T18:35:34Z</time>
      </trkpt>
      <trkpt lat="42.277963" lon="2.474869">
        <ele>620.646</ele>
        <time>2021-05-27T18:35:36Z</time>
      </trkpt>
      <trkpt lat="42.277977" lon="2.474929">
        <ele>620.363</ele>
        <time>2021-05-27T18:35:39Z</time>
      </trkpt>
      <trkpt lat="42.277989" lon="2.474971">
        <ele>620.328</ele>
        <time>2021-05-27T18:35:42Z</time>
      </trkpt>
      <trkpt lat="42.277997" lon="2.475004">
        <ele>620.221</ele>
        <time>2021-05-27T18:35:44Z</time>
      </trkpt>
      <trkpt lat="42.278006" lon="2.475033">
        <ele>620.287</ele>
        <time>2021-05-27T18:35:45Z</time>
      </trkpt>
      <trkpt lat="42.278012" lon="2.475071">
        <ele>620.086</ele>
        <time>2021-05-27T18:35:47Z</time>
      </trkpt>
      <trkpt lat="42.278019" lon="2.475115">
        <ele>619.760</ele>
        <time>2021-05-27T18:35:49Z</time>
      </trkpt>
      <trkpt lat="42.278028" lon="2.475139">
        <ele>619.826</ele>
        <time>2021-05-27T18:35:50Z</time>
      </trkpt>
      <trkpt lat="42.278039" lon="2.475165">
        <ele>619.908</ele>
        <time>2021-05-27T18:35:51Z</time>
      </trkpt>
      <trkpt lat="42.278055" lon="2.475205">
        <ele>620.085</ele>
        <time>2021-05-27T18:35:53Z</time>
      </trkpt>
      <trkpt lat="42.278083" lon="2.475229">
        <ele>620.682</ele>
        <time>2021-05-27T18:35:55Z</time>
      </trkpt>
      <trkpt lat="42.278102" lon="2.475244">
        <ele>621.170</ele>
        <time>2021-05-27T18:35:57Z</time>
      </trkpt>
      <trkpt lat="42.278121" lon="2.475259">
        <ele>621.420</ele>
        <time>2021-05-27T18:36:01Z</time>
      </trkpt>
      <trkpt lat="42.278131" lon="2.475280">
        <ele>621.497</ele>
        <time>2021-05-27T18:36:02Z</time>
      </trkpt>
      <trkpt lat="42.278140" lon="2.475307">
        <ele>621.282</ele>
        <time>2021-05-27T18:36:05Z</time>
      </trkpt>
      <trkpt lat="42.278144" lon="2.475331">
        <ele>620.955</ele>
        <time>2021-05-27T18:36:11Z</time>
      </trkpt>
      <trkpt lat="42.278136" lon="2.475304">
        <ele>621.171</ele>
        <time>2021-05-27T18:36:22Z</time>
      </trkpt>
      <trkpt lat="42.278130" lon="2.475277">
        <ele>621.463</ele>
        <time>2021-05-27T18:36:24Z</time>
      </trkpt>
      <trkpt lat="42.278122" lon="2.475248">
        <ele>621.744</ele>
        <time>2021-05-27T18:36:26Z</time>
      </trkpt>
      <trkpt lat="42.278110" lon="2.475221">
        <ele>621.718</ele>
        <time>2021-05-27T18:36:28Z</time>
      </trkpt>
      <trkpt lat="42.278109" lon="2.475189">
        <ele>622.208</ele>
        <time>2021-05-27T18:36:29Z</time>
      </trkpt>
      <trkpt lat="42.278108" lon="2.475151">
        <ele>622.853</ele>
        <time>2021-05-27T18:36:31Z</time>
      </trkpt>
      <trkpt lat="42.278093" lon="2.475126">
        <ele>622.680</ele>
        <time>2021-05-27T18:36:33Z</time>
      </trkpt>
      <trkpt lat="42.278090" lon="2.475099">
        <ele>622.988</ele>
        <time>2021-05-27T18:36:36Z</time>
      </trkpt>
      <trkpt lat="42.278088" lon="2.475063">
        <ele>623.418</ele>
        <time>2021-05-27T18:36:37Z</time>
      </trkpt>
      <trkpt lat="42.278086" lon="2.475030">
        <ele>623.825</ele>
        <time>2021-05-27T18:36:39Z</time>
      </trkpt>
      <trkpt lat="42.278093" lon="2.474994">
        <ele>624.730</ele>
        <time>2021-05-27T18:36:41Z</time>
      </trkpt>
      <trkpt lat="42.278087" lon="2.474958">
        <ele>625.063</ele>
        <time>2021-05-27T18:36:43Z</time>
      </trkpt>
      <trkpt lat="42.278080" lon="2.474917">
        <ele>625.359</ele>
        <time>2021-05-27T18:36:45Z</time>
      </trkpt>
      <trkpt lat="42.278085" lon="2.474797">
        <ele>627.492</ele>
        <time>2021-05-27T18:36:51Z</time>
      </trkpt>
      <trkpt lat="42.278115" lon="2.474760">
        <ele>629.473</ele>
        <time>2021-05-27T18:36:55Z</time>
      </trkpt>
      <trkpt lat="42.278123" lon="2.474788">
        <ele>629.320</ele>
        <time>2021-05-27T18:36:58Z</time>
      </trkpt>
      <trkpt lat="42.278137" lon="2.474816">
        <ele>629.608</ele>
        <time>2021-05-27T18:36:59Z</time>
      </trkpt>
      <trkpt lat="42.278146" lon="2.474854">
        <ele>629.476</ele>
        <time>2021-05-27T18:37:02Z</time>
      </trkpt>
      <trkpt lat="42.278151" lon="2.474886">
        <ele>629.053</ele>
        <time>2021-05-27T18:37:03Z</time>
      </trkpt>
      <trkpt lat="42.278159" lon="2.474917">
        <ele>628.981</ele>
        <time>2021-05-27T18:37:05Z</time>
      </trkpt>
      <trkpt lat="42.278172" lon="2.474951">
        <ele>628.961</ele>
        <time>2021-05-27T18:37:07Z</time>
      </trkpt>
      <trkpt lat="42.278188" lon="2.474988">
        <ele>628.978</ele>
        <time>2021-05-27T18:37:09Z</time>
      </trkpt>
      <trkpt lat="42.278208" lon="2.475021">
        <ele>629.283</ele>
        <time>2021-05-27T18:37:11Z</time>
      </trkpt>
      <trkpt lat="42.278226" lon="2.475042">
        <ele>629.586</ele>
        <time>2021-05-27T18:37:13Z</time>
      </trkpt>
      <trkpt lat="42.278238" lon="2.475061">
        <ele>629.642</ele>
        <time>2021-05-27T18:37:15Z</time>
      </trkpt>
      <trkpt lat="42.278264" lon="2.475094">
        <ele>629.983</ele>
        <time>2021-05-27T18:37:16Z</time>
      </trkpt>
      <trkpt lat="42.278298" lon="2.475110">
        <ele>630.925</ele>
        <time>2021-05-27T18:37:18Z</time>
      </trkpt>
      <trkpt lat="42.278324" lon="2.475129">
        <ele>631.417</ele>
        <time>2021-05-27T18:37:21Z</time>
      </trkpt>
      <trkpt lat="42.278354" lon="2.475148">
        <ele>631.708</ele>
        <time>2021-05-27T18:37:22Z</time>
      </trkpt>
      <trkpt lat="42.278373" lon="2.475147">
        <ele>632.135</ele>
        <time>2021-05-27T18:37:23Z</time>
      </trkpt>
      <trkpt lat="42.278392" lon="2.475149">
        <ele>632.522</ele>
        <time>2021-05-27T18:37:24Z</time>
      </trkpt>
      <trkpt lat="42.278420" lon="2.475157">
        <ele>632.920</ele>
        <time>2021-05-27T18:37:26Z</time>
      </trkpt>
      <trkpt lat="42.278452" lon="2.475170">
        <ele>633.260</ele>
        <time>2021-05-27T18:37:29Z</time>
      </trkpt>
      <trkpt lat="42.278483" lon="2.475181">
        <ele>633.587</ele>
        <time>2021-05-27T18:37:30Z</time>
      </trkpt>
      <trkpt lat="42.278524" lon="2.475189">
        <ele>634.162</ele>
        <time>2021-05-27T18:37:32Z</time>
      </trkpt>
      <trkpt lat="42.278544" lon="2.475193">
        <ele>634.445</ele>
        <time>2021-05-27T18:37:33Z</time>
      </trkpt>
      <trkpt lat="42.278564" lon="2.475199">
        <ele>634.611</ele>
        <time>2021-05-27T18:37:34Z</time>
      </trkpt>
      <trkpt lat="42.278583" lon="2.475201">
        <ele>634.966</ele>
        <time>2021-05-27T18:37:35Z</time>
      </trkpt>
      <trkpt lat="42.278622" lon="2.475210">
        <ele>635.229</ele>
        <time>2021-05-27T18:37:37Z</time>
      </trkpt>
      <trkpt lat="42.278640" lon="2.475211">
        <ele>635.221</ele>
        <time>2021-05-27T18:37:38Z</time>
      </trkpt>
      <trkpt lat="42.278672" lon="2.475206">
        <ele>635.408</ele>
        <time>2021-05-27T18:37:40Z</time>
      </trkpt>
      <trkpt lat="42.278705" lon="2.475208">
        <ele>635.343</ele>
        <time>2021-05-27T18:37:42Z</time>
      </trkpt>
      <trkpt lat="42.278736" lon="2.475204">
        <ele>635.520</ele>
        <time>2021-05-27T18:37:45Z</time>
      </trkpt>
      <trkpt lat="42.278771" lon="2.475184">
        <ele>636.228</ele>
        <time>2021-05-27T18:37:46Z</time>
      </trkpt>
      <trkpt lat="42.278795" lon="2.475175">
        <ele>636.688</ele>
        <time>2021-05-27T18:37:48Z</time>
      </trkpt>
      <trkpt lat="42.278819" lon="2.475168">
        <ele>636.955</ele>
        <time>2021-05-27T18:37:50Z</time>
      </trkpt>
      <trkpt lat="42.278843" lon="2.475155">
        <ele>637.350</ele>
        <time>2021-05-27T18:37:53Z</time>
      </trkpt>
      <trkpt lat="42.278870" lon="2.475147">
        <ele>637.783</ele>
        <time>2021-05-27T18:37:55Z</time>
      </trkpt>
      <trkpt lat="42.278895" lon="2.475140">
        <ele>637.959</ele>
        <time>2021-05-27T18:37:57Z</time>
      </trkpt>
      <trkpt lat="42.278921" lon="2.475128">
        <ele>638.066</ele>
        <time>2021-05-27T18:37:59Z</time>
      </trkpt>
      <trkpt lat="42.278940" lon="2.475120">
        <ele>638.129</ele>
        <time>2021-05-27T18:38:00Z</time>
      </trkpt>
      <trkpt lat="42.278969" lon="2.475104">
        <ele>638.421</ele>
        <time>2021-05-27T18:38:01Z</time>
      </trkpt>
      <trkpt lat="42.278997" lon="2.475090">
        <ele>638.608</ele>
        <time>2021-05-27T18:38:04Z</time>
      </trkpt>
      <trkpt lat="42.279021" lon="2.475075">
        <ele>638.913</ele>
        <time>2021-05-27T18:38:05Z</time>
      </trkpt>
      <trkpt lat="42.279045" lon="2.475055">
        <ele>639.350</ele>
        <time>2021-05-27T18:38:07Z</time>
      </trkpt>
      <trkpt lat="42.279065" lon="2.475046">
        <ele>639.468</ele>
        <time>2021-05-27T18:38:09Z</time>
      </trkpt>
      <trkpt lat="42.279105" lon="2.475006">
        <ele>640.538</ele>
        <time>2021-05-27T18:38:12Z</time>
      </trkpt>
      <trkpt lat="42.279128" lon="2.474979">
        <ele>641.235</ele>
        <time>2021-05-27T18:38:14Z</time>
      </trkpt>
      <trkpt lat="42.279152" lon="2.474958">
        <ele>641.780</ele>
        <time>2021-05-27T18:38:16Z</time>
      </trkpt>
      <trkpt lat="42.279173" lon="2.474941">
        <ele>642.073</ele>
        <time>2021-05-27T18:38:19Z</time>
      </trkpt>
      <trkpt lat="42.279192" lon="2.474929">
        <ele>642.129</ele>
        <time>2021-05-27T18:38:21Z</time>
      </trkpt>
      <trkpt lat="42.279215" lon="2.474912">
        <ele>642.461</ele>
        <time>2021-05-27T18:38:23Z</time>
      </trkpt>
      <trkpt lat="42.279263" lon="2.474863">
        <ele>643.421</ele>
        <time>2021-05-27T18:38:28Z</time>
      </trkpt>
      <trkpt lat="42.279287" lon="2.474842">
        <ele>643.813</ele>
        <time>2021-05-27T18:38:31Z</time>
      </trkpt>
      <trkpt lat="42.279308" lon="2.474830">
        <ele>643.908</ele>
        <time>2021-05-27T18:38:33Z</time>
      </trkpt>
      <trkpt lat="42.279389" lon="2.474765">
        <ele>645.183</ele>
        <time>2021-05-27T18:38:40Z</time>
      </trkpt>
      <trkpt lat="42.279477" lon="2.474713">
        <ele>645.840</ele>
        <time>2021-05-27T18:38:49Z</time>
      </trkpt>
      <trkpt lat="42.279556" lon="2.474673">
        <ele>645.948</ele>
        <time>2021-05-27T18:38:55Z</time>
      </trkpt>
      <trkpt lat="42.279572" lon="2.474658">
        <ele>646.238</ele>
        <time>2021-05-27T18:38:56Z</time>
      </trkpt>
      <trkpt lat="42.279601" lon="2.474641">
        <ele>646.475</ele>
        <time>2021-05-27T18:38:58Z</time>
      </trkpt>
      <trkpt lat="42.279627" lon="2.474620">
        <ele>646.870</ele>
        <time>2021-05-27T18:38:59Z</time>
      </trkpt>
      <trkpt lat="42.279652" lon="2.474601">
        <ele>647.153</ele>
        <time>2021-05-27T18:39:01Z</time>
      </trkpt>
      <trkpt lat="42.279679" lon="2.474597">
        <ele>646.719</ele>
        <time>2021-05-27T18:39:04Z</time>
      </trkpt>
      <trkpt lat="42.279701" lon="2.474590">
        <ele>646.611</ele>
        <time>2021-05-27T18:39:06Z</time>
      </trkpt>
      <trkpt lat="42.279724" lon="2.474581">
        <ele>646.621</ele>
        <time>2021-05-27T18:39:08Z</time>
      </trkpt>
      <trkpt lat="42.279747" lon="2.474574">
        <ele>646.503</ele>
        <time>2021-05-27T18:39:11Z</time>
      </trkpt>
      <trkpt lat="42.279770" lon="2.474570">
        <ele>646.308</ele>
        <time>2021-05-27T18:39:13Z</time>
      </trkpt>
      <trkpt lat="42.279796" lon="2.474564">
        <ele>646.148</ele>
        <time>2021-05-27T18:39:15Z</time>
      </trkpt>
      <trkpt lat="42.279822" lon="2.474546">
        <ele>646.585</ele>
        <time>2021-05-27T18:39:17Z</time>
      </trkpt>
      <trkpt lat="42.279847" lon="2.474530">
        <ele>646.843</ele>
        <time>2021-05-27T18:39:19Z</time>
      </trkpt>
      <trkpt lat="42.279871" lon="2.474514">
        <ele>647.283</ele>
        <time>2021-05-27T18:39:21Z</time>
      </trkpt>
      <trkpt lat="42.279896" lon="2.474500">
        <ele>647.530</ele>
        <time>2021-05-27T18:39:23Z</time>
      </trkpt>
      <trkpt lat="42.279917" lon="2.474488">
        <ele>647.825</ele>
        <time>2021-05-27T18:39:25Z</time>
      </trkpt>
      <trkpt lat="42.279938" lon="2.474483">
        <ele>647.888</ele>
        <time>2021-05-27T18:39:27Z</time>
      </trkpt>
      <trkpt lat="42.279958" lon="2.474469">
        <ele>648.354</ele>
        <time>2021-05-27T18:39:29Z</time>
      </trkpt>
      <trkpt lat="42.279974" lon="2.474453">
        <ele>648.974</ele>
        <time>2021-05-27T18:39:30Z</time>
      </trkpt>
      <trkpt lat="42.279991" lon="2.474435">
        <ele>649.456</ele>
        <time>2021-05-27T18:39:33Z</time>
      </trkpt>
      <trkpt lat="42.280005" lon="2.474411">
        <ele>650.121</ele>
        <time>2021-05-27T18:39:36Z</time>
      </trkpt>
      <trkpt lat="42.280026" lon="2.474399">
        <ele>650.308</ele>
        <time>2021-05-27T18:39:38Z</time>
      </trkpt>
      <trkpt lat="42.280050" lon="2.474393">
        <ele>650.144</ele>
        <time>2021-05-27T18:39:40Z</time>
      </trkpt>
      <trkpt lat="42.280078" lon="2.474382">
        <ele>650.171</ele>
        <time>2021-05-27T18:39:42Z</time>
      </trkpt>
      <trkpt lat="42.280100" lon="2.474370">
        <ele>650.269</ele>
        <time>2021-05-27T18:39:44Z</time>
      </trkpt>
      <trkpt lat="42.280131" lon="2.474352">
        <ele>650.479</ele>
        <time>2021-05-27T18:39:46Z</time>
      </trkpt>
      <trkpt lat="42.280150" lon="2.474336">
        <ele>650.726</ele>
        <time>2021-05-27T18:39:48Z</time>
      </trkpt>
      <trkpt lat="42.280172" lon="2.474324">
        <ele>650.971</ele>
        <time>2021-05-27T18:39:50Z</time>
      </trkpt>
      <trkpt lat="42.280190" lon="2.474311">
        <ele>651.154</ele>
        <time>2021-05-27T18:39:52Z</time>
      </trkpt>
      <trkpt lat="42.280210" lon="2.474301">
        <ele>651.190</ele>
        <time>2021-05-27T18:39:54Z</time>
      </trkpt>
      <trkpt lat="42.280235" lon="2.474293">
        <ele>651.143</ele>
        <time>2021-05-27T18:39:56Z</time>
      </trkpt>
      <trkpt lat="42.280262" lon="2.474282">
        <ele>651.164</ele>
        <time>2021-05-27T18:39:58Z</time>
      </trkpt>
      <trkpt lat="42.280279" lon="2.474271">
        <ele>651.210</ele>
        <time>2021-05-27T18:40:01Z</time>
      </trkpt>
      <trkpt lat="42.280296" lon="2.474254">
        <ele>651.808</ele>
        <time>2021-05-27T18:40:02Z</time>
      </trkpt>
      <trkpt lat="42.280315" lon="2.474235">
        <ele>652.481</ele>
        <time>2021-05-27T18:40:04Z</time>
      </trkpt>
      <trkpt lat="42.280338" lon="2.474216">
        <ele>653.048</ele>
        <time>2021-05-27T18:40:08Z</time>
      </trkpt>
      <trkpt lat="42.280419" lon="2.474132">
        <ele>656.276</ele>
        <time>2021-05-27T18:40:16Z</time>
      </trkpt>
      <trkpt lat="42.280450" lon="2.474122">
        <ele>656.676</ele>
        <time>2021-05-27T18:40:20Z</time>
      </trkpt>
      <trkpt lat="42.280480" lon="2.474114">
        <ele>656.823</ele>
        <time>2021-05-27T18:40:23Z</time>
      </trkpt>
      <trkpt lat="42.280507" lon="2.474111">
        <ele>656.928</ele>
        <time>2021-05-27T18:40:25Z</time>
      </trkpt>
      <trkpt lat="42.280526" lon="2.474105">
        <ele>657.091</ele>
        <time>2021-05-27T18:40:28Z</time>
      </trkpt>
      <trkpt lat="42.280548" lon="2.474102">
        <ele>657.137</ele>
        <time>2021-05-27T18:40:29Z</time>
      </trkpt>
      <trkpt lat="42.280599" lon="2.474088">
        <ele>657.027</ele>
        <time>2021-05-27T18:40:33Z</time>
      </trkpt>
      <trkpt lat="42.280624" lon="2.474077">
        <ele>657.168</ele>
        <time>2021-05-27T18:40:35Z</time>
      </trkpt>
      <trkpt lat="42.280709" lon="2.474029">
        <ele>657.814</ele>
        <time>2021-05-27T18:40:42Z</time>
      </trkpt>
      <trkpt lat="42.280772" lon="2.473989">
        <ele>658.608</ele>
        <time>2021-05-27T18:40:47Z</time>
      </trkpt>
      <trkpt lat="42.280786" lon="2.473973">
        <ele>659.189</ele>
        <time>2021-05-27T18:40:49Z</time>
      </trkpt>
      <trkpt lat="42.280830" lon="2.473943">
        <ele>659.976</ele>
        <time>2021-05-27T18:40:53Z</time>
      </trkpt>
      <trkpt lat="42.280850" lon="2.473926">
        <ele>660.344</ele>
        <time>2021-05-27T18:40:55Z</time>
      </trkpt>
      <trkpt lat="42.280859" lon="2.473899">
        <ele>661.224</ele>
        <time>2021-05-27T18:40:57Z</time>
      </trkpt>
      <trkpt lat="42.280858" lon="2.473873">
        <ele>662.171</ele>
        <time>2021-05-27T18:40:59Z</time>
      </trkpt>
      <trkpt lat="42.280836" lon="2.473853">
        <ele>663.266</ele>
        <time>2021-05-27T18:41:03Z</time>
      </trkpt>
      <trkpt lat="42.280777" lon="2.473836">
        <ele>664.349</ele>
        <time>2021-05-27T18:41:06Z</time>
      </trkpt>
      <trkpt lat="42.280758" lon="2.473832">
        <ele>664.685</ele>
        <time>2021-05-27T18:41:07Z</time>
      </trkpt>
      <trkpt lat="42.280731" lon="2.473832">
        <ele>664.885</ele>
        <time>2021-05-27T18:41:10Z</time>
      </trkpt>
      <trkpt lat="42.280622" lon="2.473840">
        <ele>665.389</ele>
        <time>2021-05-27T18:41:19Z</time>
      </trkpt>
      <trkpt lat="42.280525" lon="2.473834">
        <ele>666.217</ele>
        <time>2021-05-27T18:41:25Z</time>
      </trkpt>
      <trkpt lat="42.280427" lon="2.473832">
        <ele>666.908</ele>
        <time>2021-05-27T18:41:31Z</time>
      </trkpt>
      <trkpt lat="42.280334" lon="2.473831">
        <ele>667.525</ele>
        <time>2021-05-27T18:41:38Z</time>
      </trkpt>
      <trkpt lat="42.280243" lon="2.473839">
        <ele>668.072</ele>
        <time>2021-05-27T18:41:47Z</time>
      </trkpt>
      <trkpt lat="42.280197" lon="2.473796">
        <ele>670.010</ele>
        <time>2021-05-27T18:41:53Z</time>
      </trkpt>
      <trkpt lat="42.280202" lon="2.473767">
        <ele>670.960</ele>
        <time>2021-05-27T18:41:55Z</time>
      </trkpt>
      <trkpt lat="42.280218" lon="2.473739">
        <ele>671.697</ele>
        <time>2021-05-27T18:41:57Z</time>
      </trkpt>
      <trkpt lat="42.280245" lon="2.473729">
        <ele>671.692</ele>
        <time>2021-05-27T18:41:59Z</time>
      </trkpt>
      <trkpt lat="42.280278" lon="2.473718">
        <ele>671.555</ele>
        <time>2021-05-27T18:42:02Z</time>
      </trkpt>
      <trkpt lat="42.280299" lon="2.473712">
        <ele>671.681</ele>
        <time>2021-05-27T18:42:05Z</time>
      </trkpt>
      <trkpt lat="42.280319" lon="2.473714">
        <ele>671.544</ele>
        <time>2021-05-27T18:42:07Z</time>
      </trkpt>
      <trkpt lat="42.280346" lon="2.473703">
        <ele>671.705</ele>
        <time>2021-05-27T18:42:09Z</time>
      </trkpt>
      <trkpt lat="42.280382" lon="2.473691">
        <ele>671.915</ele>
        <time>2021-05-27T18:42:13Z</time>
      </trkpt>
      <trkpt lat="42.280429" lon="2.473681">
        <ele>672.108</ele>
        <time>2021-05-27T18:42:16Z</time>
      </trkpt>
      <trkpt lat="42.280455" lon="2.473666">
        <ele>672.551</ele>
        <time>2021-05-27T18:42:18Z</time>
      </trkpt>
      <trkpt lat="42.280481" lon="2.473646">
        <ele>673.098</ele>
        <time>2021-05-27T18:42:20Z</time>
      </trkpt>
      <trkpt lat="42.280563" lon="2.473572">
        <ele>675.186</ele>
        <time>2021-05-27T18:42:26Z</time>
      </trkpt>
      <trkpt lat="42.280652" lon="2.473537">
        <ele>675.536</ele>
        <time>2021-05-27T18:42:34Z</time>
      </trkpt>
      <trkpt lat="42.280672" lon="2.473520">
        <ele>675.943</ele>
        <time>2021-05-27T18:42:38Z</time>
      </trkpt>
      <trkpt lat="42.280691" lon="2.473495">
        <ele>676.678</ele>
        <time>2021-05-27T18:42:40Z</time>
      </trkpt>
      <trkpt lat="42.280768" lon="2.473447">
        <ele>677.651</ele>
        <time>2021-05-27T18:42:48Z</time>
      </trkpt>
      <trkpt lat="42.280789" lon="2.473431">
        <ele>678.137</ele>
        <time>2021-05-27T18:42:50Z</time>
      </trkpt>
      <trkpt lat="42.280812" lon="2.473406">
        <ele>678.792</ele>
        <time>2021-05-27T18:42:52Z</time>
      </trkpt>
      <trkpt lat="42.280839" lon="2.473377">
        <ele>679.673</ele>
        <time>2021-05-27T18:42:54Z</time>
      </trkpt>
      <trkpt lat="42.280856" lon="2.473354">
        <ele>680.220</ele>
        <time>2021-05-27T18:42:56Z</time>
      </trkpt>
      <trkpt lat="42.280867" lon="2.473331">
        <ele>681.008</ele>
        <time>2021-05-27T18:42:59Z</time>
      </trkpt>
      <trkpt lat="42.280779" lon="2.473275">
        <ele>683.276</ele>
        <time>2021-05-27T18:43:10Z</time>
      </trkpt>
      <trkpt lat="42.280680" lon="2.473282">
        <ele>683.483</ele>
        <time>2021-05-27T18:43:18Z</time>
      </trkpt>
      <trkpt lat="42.280590" lon="2.473274">
        <ele>684.261</ele>
        <time>2021-05-27T18:43:25Z</time>
      </trkpt>
      <trkpt lat="42.280560" lon="2.473271">
        <ele>684.451</ele>
        <time>2021-05-27T18:43:27Z</time>
      </trkpt>
      <trkpt lat="42.280532" lon="2.473269">
        <ele>684.978</ele>
        <time>2021-05-27T18:43:30Z</time>
      </trkpt>
      <trkpt lat="42.280514" lon="2.473274">
        <ele>684.963</ele>
        <time>2021-05-27T18:43:32Z</time>
      </trkpt>
      <trkpt lat="42.280494" lon="2.473279">
        <ele>685.076</ele>
        <time>2021-05-27T18:43:34Z</time>
      </trkpt>
      <trkpt lat="42.280472" lon="2.473280">
        <ele>685.372</ele>
        <time>2021-05-27T18:43:36Z</time>
      </trkpt>
      <trkpt lat="42.280453" lon="2.473281">
        <ele>685.562</ele>
        <time>2021-05-27T18:43:38Z</time>
      </trkpt>
      <trkpt lat="42.280427" lon="2.473284">
        <ele>685.783</ele>
        <time>2021-05-27T18:43:42Z</time>
      </trkpt>
      <trkpt lat="42.280330" lon="2.473281">
        <ele>687.211</ele>
        <time>2021-05-27T18:43:49Z</time>
      </trkpt>
      <trkpt lat="42.280234" lon="2.473286">
        <ele>688.308</ele>
        <time>2021-05-27T18:43:56Z</time>
      </trkpt>
      <trkpt lat="42.280133" lon="2.473278">
        <ele>690.173</ele>
        <time>2021-05-27T18:44:03Z</time>
      </trkpt>
      <trkpt lat="42.280033" lon="2.473286">
        <ele>691.250</ele>
        <time>2021-05-27T18:44:13Z</time>
      </trkpt>
      <trkpt lat="42.279934" lon="2.473303">
        <ele>692.368</ele>
        <time>2021-05-27T18:44:22Z</time>
      </trkpt>
      <trkpt lat="42.279841" lon="2.473322">
        <ele>693.248</ele>
        <time>2021-05-27T18:44:28Z</time>
      </trkpt>
      <trkpt lat="42.279746" lon="2.473346">
        <ele>694.135</ele>
        <time>2021-05-27T18:44:37Z</time>
      </trkpt>
      <trkpt lat="42.279643" lon="2.473366">
        <ele>694.630</ele>
        <time>2021-05-27T18:44:46Z</time>
      </trkpt>
      <trkpt lat="42.279548" lon="2.473397">
        <ele>694.633</ele>
        <time>2021-05-27T18:44:56Z</time>
      </trkpt>
      <trkpt lat="42.279454" lon="2.473411">
        <ele>695.439</ele>
        <time>2021-05-27T18:45:03Z</time>
      </trkpt>
      <trkpt lat="42.279356" lon="2.473396">
        <ele>696.129</ele>
        <time>2021-05-27T18:45:11Z</time>
      </trkpt>
      <trkpt lat="42.279265" lon="2.473380">
        <ele>696.700</ele>
        <time>2021-05-27T18:45:17Z</time>
      </trkpt>
      <trkpt lat="42.279180" lon="2.473316">
        <ele>698.420</ele>
        <time>2021-05-27T18:45:24Z</time>
      </trkpt>
      <trkpt lat="42.279094" lon="2.473260">
        <ele>699.108</ele>
        <time>2021-05-27T18:45:33Z</time>
      </trkpt>
      <trkpt lat="42.279004" lon="2.473212">
        <ele>699.599</ele>
        <time>2021-05-27T18:45:41Z</time>
      </trkpt>
      <trkpt lat="42.278941" lon="2.473127">
        <ele>700.836</ele>
        <time>2021-05-27T18:45:49Z</time>
      </trkpt>
      <trkpt lat="42.278918" lon="2.473097">
        <ele>701.314</ele>
        <time>2021-05-27T18:45:51Z</time>
      </trkpt>
      <trkpt lat="42.278897" lon="2.473078">
        <ele>701.654</ele>
        <time>2021-05-27T18:45:53Z</time>
      </trkpt>
      <trkpt lat="42.278876" lon="2.473050">
        <ele>701.641</ele>
        <time>2021-05-27T18:45:54Z</time>
      </trkpt>
      <trkpt lat="42.278863" lon="2.473015">
        <ele>701.896</ele>
        <time>2021-05-27T18:45:56Z</time>
      </trkpt>
      <trkpt lat="42.278856" lon="2.472986">
        <ele>702.149</ele>
        <time>2021-05-27T18:45:58Z</time>
      </trkpt>
      <trkpt lat="42.278857" lon="2.472958">
        <ele>702.675</ele>
        <time>2021-05-27T18:46:00Z</time>
      </trkpt>
      <trkpt lat="42.278870" lon="2.472934">
        <ele>703.526</ele>
        <time>2021-05-27T18:46:04Z</time>
      </trkpt>
      <trkpt lat="42.278891" lon="2.472925">
        <ele>704.447</ele>
        <time>2021-05-27T18:46:05Z</time>
      </trkpt>
      <trkpt lat="42.278921" lon="2.472925">
        <ele>704.611</ele>
        <time>2021-05-27T18:46:08Z</time>
      </trkpt>
      <trkpt lat="42.278940" lon="2.472928">
        <ele>704.708</ele>
        <time>2021-05-27T18:46:10Z</time>
      </trkpt>
      <trkpt lat="42.278963" lon="2.472934">
        <ele>704.769</ele>
        <time>2021-05-27T18:46:11Z</time>
      </trkpt>
      <trkpt lat="42.278985" lon="2.472929">
        <ele>705.016</ele>
        <time>2021-05-27T18:46:13Z</time>
      </trkpt>
      <trkpt lat="42.279004" lon="2.472938">
        <ele>704.994</ele>
        <time>2021-05-27T18:46:15Z</time>
      </trkpt>
      <trkpt lat="42.279025" lon="2.472946">
        <ele>705.054</ele>
        <time>2021-05-27T18:46:17Z</time>
      </trkpt>
      <trkpt lat="42.279049" lon="2.472945">
        <ele>705.121</ele>
        <time>2021-05-27T18:46:20Z</time>
      </trkpt>
      <trkpt lat="42.279075" lon="2.472942">
        <ele>705.416</ele>
        <time>2021-05-27T18:46:21Z</time>
      </trkpt>
      <trkpt lat="42.279100" lon="2.472940">
        <ele>705.699</ele>
        <time>2021-05-27T18:46:23Z</time>
      </trkpt>
      <trkpt lat="42.279124" lon="2.472935">
        <ele>705.945</ele>
        <time>2021-05-27T18:46:26Z</time>
      </trkpt>
      <trkpt lat="42.279144" lon="2.472916">
        <ele>706.372</ele>
        <time>2021-05-27T18:46:27Z</time>
      </trkpt>
      <trkpt lat="42.279162" lon="2.472903">
        <ele>706.713</ele>
        <time>2021-05-27T18:46:29Z</time>
      </trkpt>
      <trkpt lat="42.279180" lon="2.472890">
        <ele>707.014</ele>
        <time>2021-05-27T18:46:32Z</time>
      </trkpt>
      <trkpt lat="42.279198" lon="2.472871">
        <ele>707.408</ele>
        <time>2021-05-27T18:46:35Z</time>
      </trkpt>
      <trkpt lat="42.279221" lon="2.472842">
        <ele>708.014</ele>
        <time>2021-05-27T18:46:37Z</time>
      </trkpt>
      <trkpt lat="42.279257" lon="2.472808">
        <ele>708.851</ele>
        <time>2021-05-27T18:46:41Z</time>
      </trkpt>
      <trkpt lat="42.279285" lon="2.472795">
        <ele>709.169</ele>
        <time>2021-05-27T18:46:44Z</time>
      </trkpt>
      <trkpt lat="42.279309" lon="2.472783">
        <ele>709.439</ele>
        <time>2021-05-27T18:46:46Z</time>
      </trkpt>
      <trkpt lat="42.279381" lon="2.472764">
        <ele>710.066</ele>
        <time>2021-05-27T18:46:50Z</time>
      </trkpt>
      <trkpt lat="42.279407" lon="2.472749">
        <ele>710.421</ele>
        <time>2021-05-27T18:46:52Z</time>
      </trkpt>
      <trkpt lat="42.279434" lon="2.472731">
        <ele>710.824</ele>
        <time>2021-05-27T18:46:55Z</time>
      </trkpt>
      <trkpt lat="42.279452" lon="2.472702">
        <ele>711.410</ele>
        <time>2021-05-27T18:46:56Z</time>
      </trkpt>
      <trkpt lat="42.279461" lon="2.472670">
        <ele>712.081</ele>
        <time>2021-05-27T18:46:58Z</time>
      </trkpt>
      <trkpt lat="42.279457" lon="2.472641">
        <ele>712.561</ele>
        <time>2021-05-27T18:47:00Z</time>
      </trkpt>
      <trkpt lat="42.279442" lon="2.472610">
        <ele>713.017</ele>
        <time>2021-05-27T18:47:04Z</time>
      </trkpt>
      <trkpt lat="42.279427" lon="2.472588">
        <ele>713.408</ele>
        <time>2021-05-27T18:47:05Z</time>
      </trkpt>
      <trkpt lat="42.279406" lon="2.472566">
        <ele>713.735</ele>
        <time>2021-05-27T18:47:07Z</time>
      </trkpt>
      <trkpt lat="42.279381" lon="2.472541">
        <ele>714.042</ele>
        <time>2021-05-27T18:47:09Z</time>
      </trkpt>
      <trkpt lat="42.279359" lon="2.472522">
        <ele>714.320</ele>
        <time>2021-05-27T18:47:11Z</time>
      </trkpt>
      <trkpt lat="42.279337" lon="2.472507">
        <ele>714.570</ele>
        <time>2021-05-27T18:47:13Z</time>
      </trkpt>
      <trkpt lat="42.279313" lon="2.472491">
        <ele>714.777</ele>
        <time>2021-05-27T18:47:15Z</time>
      </trkpt>
      <trkpt lat="42.279292" lon="2.472468">
        <ele>714.962</ele>
        <time>2021-05-27T18:47:18Z</time>
      </trkpt>
      <trkpt lat="42.279269" lon="2.472446">
        <ele>715.125</ele>
        <time>2021-05-27T18:47:20Z</time>
      </trkpt>
      <trkpt lat="42.279247" lon="2.472427">
        <ele>715.381</ele>
        <time>2021-05-27T18:47:22Z</time>
      </trkpt>
      <trkpt lat="42.279231" lon="2.472401">
        <ele>715.794</ele>
        <time>2021-05-27T18:47:23Z</time>
      </trkpt>
      <trkpt lat="42.279224" lon="2.472374">
        <ele>716.057</ele>
        <time>2021-05-27T18:47:25Z</time>
      </trkpt>
      <trkpt lat="42.279222" lon="2.472343">
        <ele>716.522</ele>
        <time>2021-05-27T18:47:27Z</time>
      </trkpt>
      <trkpt lat="42.279229" lon="2.472317">
        <ele>716.908</ele>
        <time>2021-05-27T18:47:29Z</time>
      </trkpt>
      <trkpt lat="42.279237" lon="2.472291">
        <ele>717.336</ele>
        <time>2021-05-27T18:47:31Z</time>
      </trkpt>
      <trkpt lat="42.279250" lon="2.472264">
        <ele>717.753</ele>
        <time>2021-05-27T18:47:34Z</time>
      </trkpt>
      <trkpt lat="42.279265" lon="2.472240">
        <ele>718.161</ele>
        <time>2021-05-27T18:47:35Z</time>
      </trkpt>
      <trkpt lat="42.279291" lon="2.472225">
        <ele>718.421</ele>
        <time>2021-05-27T18:47:38Z</time>
      </trkpt>
      <trkpt lat="42.279313" lon="2.472214">
        <ele>718.798</ele>
        <time>2021-05-27T18:47:41Z</time>
      </trkpt>
      <trkpt lat="42.279339" lon="2.472210">
        <ele>718.943</ele>
        <time>2021-05-27T18:47:42Z</time>
      </trkpt>
      <trkpt lat="42.279365" lon="2.472207">
        <ele>719.056</ele>
        <time>2021-05-27T18:47:44Z</time>
      </trkpt>
      <trkpt lat="42.279388" lon="2.472211">
        <ele>719.062</ele>
        <time>2021-05-27T18:47:46Z</time>
      </trkpt>
      <trkpt lat="42.279407" lon="2.472218">
        <ele>719.063</ele>
        <time>2021-05-27T18:47:48Z</time>
      </trkpt>
      <trkpt lat="42.279431" lon="2.472227">
        <ele>718.944</ele>
        <time>2021-05-27T18:47:50Z</time>
      </trkpt>
      <trkpt lat="42.279450" lon="2.472241">
        <ele>718.818</ele>
        <time>2021-05-27T18:47:52Z</time>
      </trkpt>
      <trkpt lat="42.279476" lon="2.472248">
        <ele>718.908</ele>
        <time>2021-05-27T18:47:54Z</time>
      </trkpt>
      <trkpt lat="42.279504" lon="2.472250">
        <ele>719.283</ele>
        <time>2021-05-27T18:47:56Z</time>
      </trkpt>
      <trkpt lat="42.279533" lon="2.472252">
        <ele>719.510</ele>
        <time>2021-05-27T18:47:58Z</time>
      </trkpt>
      <trkpt lat="42.279553" lon="2.472253">
        <ele>719.668</ele>
        <time>2021-05-27T18:48:00Z</time>
      </trkpt>
      <trkpt lat="42.279581" lon="2.472251">
        <ele>720.088</ele>
        <time>2021-05-27T18:48:03Z</time>
      </trkpt>
      <trkpt lat="42.279612" lon="2.472251">
        <ele>720.375</ele>
        <time>2021-05-27T18:48:04Z</time>
      </trkpt>
      <trkpt lat="42.279634" lon="2.472243">
        <ele>720.680</ele>
        <time>2021-05-27T18:48:06Z</time>
      </trkpt>
      <trkpt lat="42.279652" lon="2.472226">
        <ele>721.223</ele>
        <time>2021-05-27T18:48:08Z</time>
      </trkpt>
      <trkpt lat="42.279679" lon="2.472228">
        <ele>721.499</ele>
        <time>2021-05-27T18:48:10Z</time>
      </trkpt>
      <trkpt lat="42.279703" lon="2.472224">
        <ele>721.856</ele>
        <time>2021-05-27T18:48:12Z</time>
      </trkpt>
      <trkpt lat="42.279726" lon="2.472224">
        <ele>722.059</ele>
        <time>2021-05-27T18:48:14Z</time>
      </trkpt>
      <trkpt lat="42.279748" lon="2.472227">
        <ele>722.114</ele>
        <time>2021-05-27T18:48:16Z</time>
      </trkpt>
      <trkpt lat="42.279764" lon="2.472240">
        <ele>721.908</ele>
        <time>2021-05-27T18:48:19Z</time>
      </trkpt>
      <trkpt lat="42.279800" lon="2.472256">
        <ele>721.852</ele>
        <time>2021-05-27T18:48:21Z</time>
      </trkpt>
      <trkpt lat="42.279828" lon="2.472261">
        <ele>721.899</ele>
        <time>2021-05-27T18:48:24Z</time>
      </trkpt>
      <trkpt lat="42.279862" lon="2.472263">
        <ele>722.077</ele>
        <time>2021-05-27T18:48:25Z</time>
      </trkpt>
      <trkpt lat="42.279959" lon="2.472270">
        <ele>722.497</ele>
        <time>2021-05-27T18:48:32Z</time>
      </trkpt>
      <trkpt lat="42.280068" lon="2.472246">
        <ele>723.314</ele>
        <time>2021-05-27T18:48:38Z</time>
      </trkpt>
      <trkpt lat="42.280169" lon="2.472197">
        <ele>724.799</ele>
        <time>2021-05-27T18:48:42Z</time>
      </trkpt>
      <trkpt lat="42.280272" lon="2.472171">
        <ele>725.512</ele>
        <time>2021-05-27T18:48:49Z</time>
      </trkpt>
      <trkpt lat="42.280361" lon="2.472141">
        <ele>726.188</ele>
        <time>2021-05-27T18:48:53Z</time>
      </trkpt>
      <trkpt lat="42.280411" lon="2.472120">
        <ele>726.653</ele>
        <time>2021-05-27T18:48:57Z</time>
      </trkpt>
      <trkpt lat="42.280442" lon="2.472099">
        <ele>727.204</ele>
        <time>2021-05-27T18:48:59Z</time>
      </trkpt>
      <trkpt lat="42.280457" lon="2.472071">
        <ele>728.114</ele>
        <time>2021-05-27T18:49:00Z</time>
      </trkpt>
      <trkpt lat="42.280452" lon="2.472044">
        <ele>728.908</ele>
        <time>2021-05-27T18:49:05Z</time>
      </trkpt>
      <trkpt lat="42.280349" lon="2.472039">
        <ele>729.222</ele>
        <time>2021-05-27T18:49:12Z</time>
      </trkpt>
      <trkpt lat="42.280256" lon="2.472046">
        <ele>729.079</ele>
        <time>2021-05-27T18:49:18Z</time>
      </trkpt>
      <trkpt lat="42.280166" lon="2.471984">
        <ele>730.517</ele>
        <time>2021-05-27T18:49:25Z</time>
      </trkpt>
      <trkpt lat="42.280163" lon="2.471887">
        <ele>733.467</ele>
        <time>2021-05-27T18:49:39Z</time>
      </trkpt>
      <trkpt lat="42.280201" lon="2.471889">
        <ele>733.554</ele>
        <time>2021-05-27T18:49:42Z</time>
      </trkpt>
      <trkpt lat="42.280221" lon="2.471894">
        <ele>733.499</ele>
        <time>2021-05-27T18:49:45Z</time>
      </trkpt>
      <trkpt lat="42.280244" lon="2.471893">
        <ele>733.582</ele>
        <time>2021-05-27T18:49:47Z</time>
      </trkpt>
      <trkpt lat="42.280267" lon="2.471906">
        <ele>733.268</ele>
        <time>2021-05-27T18:49:48Z</time>
      </trkpt>
      <trkpt lat="42.280292" lon="2.471908">
        <ele>733.211</ele>
        <time>2021-05-27T18:49:51Z</time>
      </trkpt>
      <trkpt lat="42.280312" lon="2.471911">
        <ele>733.121</ele>
        <time>2021-05-27T18:49:52Z</time>
      </trkpt>
      <trkpt lat="42.280340" lon="2.471913">
        <ele>733.103</ele>
        <time>2021-05-27T18:49:54Z</time>
      </trkpt>
      <trkpt lat="42.280368" lon="2.471918">
        <ele>732.908</ele>
        <time>2021-05-27T18:49:56Z</time>
      </trkpt>
      <trkpt lat="42.280386" lon="2.471919">
        <ele>732.948</ele>
        <time>2021-05-27T18:49:58Z</time>
      </trkpt>
      <trkpt lat="42.280421" lon="2.471908">
        <ele>733.335</ele>
        <time>2021-05-27T18:49:59Z</time>
      </trkpt>
      <trkpt lat="42.280442" lon="2.471905">
        <ele>733.473</ele>
        <time>2021-05-27T18:50:01Z</time>
      </trkpt>
      <trkpt lat="42.280472" lon="2.471903">
        <ele>733.673</ele>
        <time>2021-05-27T18:50:03Z</time>
      </trkpt>
      <trkpt lat="42.280520" lon="2.471913">
        <ele>733.280</ele>
        <time>2021-05-27T18:50:07Z</time>
      </trkpt>
      <trkpt lat="42.280625" lon="2.471903">
        <ele>734.225</ele>
        <time>2021-05-27T18:50:13Z</time>
      </trkpt>
      <trkpt lat="42.280725" lon="2.471882">
        <ele>735.828</ele>
        <time>2021-05-27T18:50:19Z</time>
      </trkpt>
      <trkpt lat="42.280827" lon="2.471845">
        <ele>738.284</ele>
        <time>2021-05-27T18:50:26Z</time>
      </trkpt>
      <trkpt lat="42.280933" lon="2.471830">
        <ele>738.932</ele>
        <time>2021-05-27T18:50:33Z</time>
      </trkpt>
      <trkpt lat="42.281031" lon="2.471798">
        <ele>740.392</ele>
        <time>2021-05-27T18:50:39Z</time>
      </trkpt>
      <trkpt lat="42.281119" lon="2.471757">
        <ele>742.111</ele>
        <time>2021-05-27T18:50:47Z</time>
      </trkpt>
      <trkpt lat="42.281211" lon="2.471760">
        <ele>742.108</ele>
        <time>2021-05-27T18:50:53Z</time>
      </trkpt>
      <trkpt lat="42.281241" lon="2.471760">
        <ele>742.180</ele>
        <time>2021-05-27T18:50:55Z</time>
      </trkpt>
      <trkpt lat="42.281315" lon="2.471746">
        <ele>742.887</ele>
        <time>2021-05-27T18:51:01Z</time>
      </trkpt>
      <trkpt lat="42.281357" lon="2.471741">
        <ele>743.065</ele>
        <time>2021-05-27T18:51:04Z</time>
      </trkpt>
      <trkpt lat="42.281407" lon="2.471735">
        <ele>743.655</ele>
        <time>2021-05-27T18:51:08Z</time>
      </trkpt>
      <trkpt lat="42.281435" lon="2.471740">
        <ele>743.942</ele>
        <time>2021-05-27T18:51:10Z</time>
      </trkpt>
      <trkpt lat="42.281455" lon="2.471741">
        <ele>744.257</ele>
        <time>2021-05-27T18:51:12Z</time>
      </trkpt>
      <trkpt lat="42.281481" lon="2.471742">
        <ele>744.680</ele>
        <time>2021-05-27T18:51:15Z</time>
      </trkpt>
      <trkpt lat="42.281499" lon="2.471751">
        <ele>744.516</ele>
        <time>2021-05-27T18:51:17Z</time>
      </trkpt>
      <trkpt lat="42.281589" lon="2.471775">
        <ele>745.058</ele>
        <time>2021-05-27T18:51:27Z</time>
      </trkpt>
      <trkpt lat="42.281681" lon="2.471752">
        <ele>747.652</ele>
        <time>2021-05-27T18:51:34Z</time>
      </trkpt>
      <trkpt lat="42.281769" lon="2.471783">
        <ele>748.017</ele>
        <time>2021-05-27T18:51:46Z</time>
      </trkpt>
      <trkpt lat="42.281861" lon="2.471762">
        <ele>750.808</ele>
        <time>2021-05-27T18:51:54Z</time>
      </trkpt>
      <trkpt lat="42.281883" lon="2.471753">
        <ele>751.772</ele>
        <time>2021-05-27T18:51:56Z</time>
      </trkpt>
      <trkpt lat="42.281905" lon="2.471755">
        <ele>752.189</ele>
        <time>2021-05-27T18:51:58Z</time>
      </trkpt>
      <trkpt lat="42.281947" lon="2.471767">
        <ele>752.317</ele>
        <time>2021-05-27T18:52:03Z</time>
      </trkpt>
      <trkpt lat="42.281976" lon="2.471779">
        <ele>752.227</ele>
        <time>2021-05-27T18:52:06Z</time>
      </trkpt>
      <trkpt lat="42.282004" lon="2.471779">
        <ele>752.714</ele>
        <time>2021-05-27T18:52:10Z</time>
      </trkpt>
      <trkpt lat="42.282102" lon="2.471780">
        <ele>754.219</ele>
        <time>2021-05-27T18:52:17Z</time>
      </trkpt>
      <trkpt lat="42.282121" lon="2.471783">
        <ele>754.422</ele>
        <time>2021-05-27T18:52:19Z</time>
      </trkpt>
      <trkpt lat="42.282211" lon="2.471798">
        <ele>755.188</ele>
        <time>2021-05-27T18:52:30Z</time>
      </trkpt>
      <trkpt lat="42.282264" lon="2.471785">
        <ele>757.151</ele>
        <time>2021-05-27T18:52:34Z</time>
      </trkpt>
      <trkpt lat="42.282290" lon="2.471792">
        <ele>757.501</ele>
        <time>2021-05-27T18:52:35Z</time>
      </trkpt>
      <trkpt lat="42.282315" lon="2.471793">
        <ele>758.211</ele>
        <time>2021-05-27T18:52:37Z</time>
      </trkpt>
      <trkpt lat="42.282407" lon="2.471828">
        <ele>759.508</ele>
        <time>2021-05-27T18:52:47Z</time>
      </trkpt>
      <trkpt lat="42.282487" lon="2.471907">
        <ele>758.982</ele>
        <time>2021-05-27T18:52:58Z</time>
      </trkpt>
      <trkpt lat="42.282542" lon="2.471959">
        <ele>758.799</ele>
        <time>2021-05-27T18:53:03Z</time>
      </trkpt>
      <trkpt lat="42.282565" lon="2.471973">
        <ele>758.957</ele>
        <time>2021-05-27T18:53:05Z</time>
      </trkpt>
      <trkpt lat="42.282589" lon="2.471999">
        <ele>758.797</ele>
        <time>2021-05-27T18:53:08Z</time>
      </trkpt>
      <trkpt lat="42.282612" lon="2.472015">
        <ele>758.934</ele>
        <time>2021-05-27T18:53:10Z</time>
      </trkpt>
      <trkpt lat="42.282638" lon="2.472033">
        <ele>759.189</ele>
        <time>2021-05-27T18:53:13Z</time>
      </trkpt>
      <trkpt lat="42.282661" lon="2.472053">
        <ele>759.242</ele>
        <time>2021-05-27T18:53:15Z</time>
      </trkpt>
      <trkpt lat="42.282685" lon="2.472074">
        <ele>759.358</ele>
        <time>2021-05-27T18:53:17Z</time>
      </trkpt>
      <trkpt lat="42.282705" lon="2.472095">
        <ele>759.342</ele>
        <time>2021-05-27T18:53:19Z</time>
      </trkpt>
      <trkpt lat="42.282723" lon="2.472122">
        <ele>759.122</ele>
        <time>2021-05-27T18:53:21Z</time>
      </trkpt>
      <trkpt lat="42.282748" lon="2.472134">
        <ele>759.514</ele>
        <time>2021-05-27T18:53:23Z</time>
      </trkpt>
      <trkpt lat="42.282770" lon="2.472152">
        <ele>759.808</ele>
        <time>2021-05-27T18:53:24Z</time>
      </trkpt>
      <trkpt lat="42.282795" lon="2.472168">
        <ele>759.991</ele>
        <time>2021-05-27T18:53:26Z</time>
      </trkpt>
      <trkpt lat="42.282823" lon="2.472175">
        <ele>760.318</ele>
        <time>2021-05-27T18:53:29Z</time>
      </trkpt>
      <trkpt lat="42.282848" lon="2.472184">
        <ele>760.566</ele>
        <time>2021-05-27T18:53:31Z</time>
      </trkpt>
      <trkpt lat="42.282870" lon="2.472194">
        <ele>760.786</ele>
        <time>2021-05-27T18:53:33Z</time>
      </trkpt>
      <trkpt lat="42.282889" lon="2.472200">
        <ele>760.973</ele>
        <time>2021-05-27T18:53:35Z</time>
      </trkpt>
      <trkpt lat="42.282911" lon="2.472203">
        <ele>761.358</ele>
        <time>2021-05-27T18:53:37Z</time>
      </trkpt>
      <trkpt lat="42.282930" lon="2.472202">
        <ele>761.811</ele>
        <time>2021-05-27T18:53:39Z</time>
      </trkpt>
      <trkpt lat="42.282951" lon="2.472201">
        <ele>762.227</ele>
        <time>2021-05-27T18:53:41Z</time>
      </trkpt>
      <trkpt lat="42.282976" lon="2.472198">
        <ele>762.855</ele>
        <time>2021-05-27T18:53:43Z</time>
      </trkpt>
      <trkpt lat="42.282997" lon="2.472199">
        <ele>763.207</ele>
        <time>2021-05-27T18:53:45Z</time>
      </trkpt>
      <trkpt lat="42.283022" lon="2.472201">
        <ele>763.717</ele>
        <time>2021-05-27T18:53:46Z</time>
      </trkpt>
      <trkpt lat="42.283044" lon="2.472206">
        <ele>764.008</ele>
        <time>2021-05-27T18:53:48Z</time>
      </trkpt>
      <trkpt lat="42.283068" lon="2.472215">
        <ele>764.392</ele>
        <time>2021-05-27T18:53:50Z</time>
      </trkpt>
      <trkpt lat="42.283089" lon="2.472227">
        <ele>764.329</ele>
        <time>2021-05-27T18:53:52Z</time>
      </trkpt>
      <trkpt lat="42.283114" lon="2.472235">
        <ele>764.557</ele>
        <time>2021-05-27T18:53:54Z</time>
      </trkpt>
      <trkpt lat="42.283135" lon="2.472242">
        <ele>764.617</ele>
        <time>2021-05-27T18:53:57Z</time>
      </trkpt>
      <trkpt lat="42.283158" lon="2.472258">
        <ele>764.664</ele>
        <time>2021-05-27T18:53:58Z</time>
      </trkpt>
      <trkpt lat="42.283182" lon="2.472269">
        <ele>764.799</ele>
        <time>2021-05-27T18:54:00Z</time>
      </trkpt>
      <trkpt lat="42.283206" lon="2.472285">
        <ele>764.752</ele>
        <time>2021-05-27T18:54:03Z</time>
      </trkpt>
      <trkpt lat="42.283256" lon="2.472312">
        <ele>765.118</ele>
        <time>2021-05-27T18:54:05Z</time>
      </trkpt>
      <trkpt lat="42.283273" lon="2.472324">
        <ele>765.323</ele>
        <time>2021-05-27T18:54:06Z</time>
      </trkpt>
      <trkpt lat="42.283291" lon="2.472336">
        <ele>765.483</ele>
        <time>2021-05-27T18:54:07Z</time>
      </trkpt>
      <trkpt lat="42.283309" lon="2.472348">
        <ele>765.611</ele>
        <time>2021-05-27T18:54:08Z</time>
      </trkpt>
      <trkpt lat="42.283327" lon="2.472363">
        <ele>765.808</ele>
        <time>2021-05-27T18:54:09Z</time>
      </trkpt>
      <trkpt lat="42.283343" lon="2.472380">
        <ele>765.989</ele>
        <time>2021-05-27T18:54:10Z</time>
      </trkpt>
      <trkpt lat="42.283360" lon="2.472399">
        <ele>765.946</ele>
        <time>2021-05-27T18:54:11Z</time>
      </trkpt>
      <trkpt lat="42.283378" lon="2.472415">
        <ele>766.044</ele>
        <time>2021-05-27T18:54:13Z</time>
      </trkpt>
      <trkpt lat="42.283396" lon="2.472431">
        <ele>766.184</ele>
        <time>2021-05-27T18:54:14Z</time>
      </trkpt>
      <trkpt lat="42.283414" lon="2.472445">
        <ele>766.271</ele>
        <time>2021-05-27T18:54:15Z</time>
      </trkpt>
      <trkpt lat="42.283429" lon="2.472462">
        <ele>766.356</ele>
        <time>2021-05-27T18:54:16Z</time>
      </trkpt>
      <trkpt lat="42.283458" lon="2.472491">
        <ele>766.469</ele>
        <time>2021-05-27T18:54:18Z</time>
      </trkpt>
      <trkpt lat="42.283473" lon="2.472507">
        <ele>766.525</ele>
        <time>2021-05-27T18:54:19Z</time>
      </trkpt>
      <trkpt lat="42.283501" lon="2.472543">
        <ele>766.983</ele>
        <time>2021-05-27T18:54:20Z</time>
      </trkpt>
      <trkpt lat="42.283509" lon="2.472565">
        <ele>766.925</ele>
        <time>2021-05-27T18:54:21Z</time>
      </trkpt>
      <trkpt lat="42.283521" lon="2.472585">
        <ele>767.117</ele>
        <time>2021-05-27T18:54:22Z</time>
      </trkpt>
      <trkpt lat="42.283534" lon="2.472605">
        <ele>767.208</ele>
        <time>2021-05-27T18:54:23Z</time>
      </trkpt>
      <trkpt lat="42.283547" lon="2.472623">
        <ele>767.435</ele>
        <time>2021-05-27T18:54:24Z</time>
      </trkpt>
      <trkpt lat="42.283572" lon="2.472662">
        <ele>767.772</ele>
        <time>2021-05-27T18:54:26Z</time>
      </trkpt>
      <trkpt lat="42.283585" lon="2.472678">
        <ele>767.920</ele>
        <time>2021-05-27T18:54:27Z</time>
      </trkpt>
      <trkpt lat="42.283596" lon="2.472698">
        <ele>768.040</ele>
        <time>2021-05-27T18:54:28Z</time>
      </trkpt>
      <trkpt lat="42.283610" lon="2.472714">
        <ele>768.287</ele>
        <time>2021-05-27T18:54:29Z</time>
      </trkpt>
      <trkpt lat="42.283624" lon="2.472731">
        <ele>768.552</ele>
        <time>2021-05-27T18:54:31Z</time>
      </trkpt>
      <trkpt lat="42.283642" lon="2.472765">
        <ele>768.985</ele>
        <time>2021-05-27T18:54:32Z</time>
      </trkpt>
      <trkpt lat="42.283649" lon="2.472803">
        <ele>769.051</ele>
        <time>2021-05-27T18:54:34Z</time>
      </trkpt>
      <trkpt lat="42.283655" lon="2.472833">
        <ele>769.074</ele>
        <time>2021-05-27T18:54:36Z</time>
      </trkpt>
      <trkpt lat="42.283662" lon="2.472867">
        <ele>769.156</ele>
        <time>2021-05-27T18:54:38Z</time>
      </trkpt>
      <trkpt lat="42.283665" lon="2.472900">
        <ele>769.021</ele>
        <time>2021-05-27T18:54:40Z</time>
      </trkpt>
      <trkpt lat="42.283673" lon="2.472936">
        <ele>769.108</ele>
        <time>2021-05-27T18:54:42Z</time>
      </trkpt>
      <trkpt lat="42.283678" lon="2.472970">
        <ele>769.134</ele>
        <time>2021-05-27T18:54:45Z</time>
      </trkpt>
      <trkpt lat="42.283686" lon="2.473036">
        <ele>769.021</ele>
        <time>2021-05-27T18:54:47Z</time>
      </trkpt>
      <trkpt lat="42.283690" lon="2.473066">
        <ele>769.189</ele>
        <time>2021-05-27T18:54:49Z</time>
      </trkpt>
      <trkpt lat="42.283690" lon="2.473094">
        <ele>769.299</ele>
        <time>2021-05-27T18:54:51Z</time>
      </trkpt>
      <trkpt lat="42.283690" lon="2.473131">
        <ele>769.556</ele>
        <time>2021-05-27T18:54:53Z</time>
      </trkpt>
      <trkpt lat="42.283688" lon="2.473165">
        <ele>769.681</ele>
        <time>2021-05-27T18:54:55Z</time>
      </trkpt>
      <trkpt lat="42.283688" lon="2.473198">
        <ele>769.854</ele>
        <time>2021-05-27T18:54:57Z</time>
      </trkpt>
      <trkpt lat="42.283691" lon="2.473227">
        <ele>770.160</ele>
        <time>2021-05-27T18:54:59Z</time>
      </trkpt>
      <trkpt lat="42.283695" lon="2.473253">
        <ele>770.312</ele>
        <time>2021-05-27T18:55:01Z</time>
      </trkpt>
      <trkpt lat="42.283703" lon="2.473291">
        <ele>770.732</ele>
        <time>2021-05-27T18:55:05Z</time>
      </trkpt>
      <trkpt lat="42.283704" lon="2.473318">
        <ele>770.905</ele>
        <time>2021-05-27T18:55:08Z</time>
      </trkpt>
      <trkpt lat="42.283711" lon="2.473449">
        <ele>772.408</ele>
        <time>2021-05-27T18:55:17Z</time>
      </trkpt>
      <trkpt lat="42.283800" lon="2.473493">
        <ele>774.888</ele>
        <time>2021-05-27T18:55:26Z</time>
      </trkpt>
      <trkpt lat="42.283889" lon="2.473430">
        <ele>776.085</ele>
        <time>2021-05-27T18:55:34Z</time>
      </trkpt>
      <trkpt lat="42.283919" lon="2.473419">
        <ele>776.113</ele>
        <time>2021-05-27T18:55:37Z</time>
      </trkpt>
      <trkpt lat="42.283942" lon="2.473404">
        <ele>776.173</ele>
        <time>2021-05-27T18:55:38Z</time>
      </trkpt>
      <trkpt lat="42.283968" lon="2.473394">
        <ele>776.210</ele>
        <time>2021-05-27T18:55:40Z</time>
      </trkpt>
      <trkpt lat="42.283992" lon="2.473392">
        <ele>776.425</ele>
        <time>2021-05-27T18:55:42Z</time>
      </trkpt>
      <trkpt lat="42.284014" lon="2.473401">
        <ele>776.668</ele>
        <time>2021-05-27T18:55:44Z</time>
      </trkpt>
      <trkpt lat="42.284033" lon="2.473419">
        <ele>777.074</ele>
        <time>2021-05-27T18:55:46Z</time>
      </trkpt>
      <trkpt lat="42.284054" lon="2.473429">
        <ele>777.224</ele>
        <time>2021-05-27T18:55:49Z</time>
      </trkpt>
      <trkpt lat="42.284079" lon="2.473446">
        <ele>777.604</ele>
        <time>2021-05-27T18:55:51Z</time>
      </trkpt>
      <trkpt lat="42.284102" lon="2.473456">
        <ele>777.914</ele>
        <time>2021-05-27T18:55:53Z</time>
      </trkpt>
      <trkpt lat="42.284120" lon="2.473460">
        <ele>778.008</ele>
        <time>2021-05-27T18:55:54Z</time>
      </trkpt>
      <trkpt lat="42.284145" lon="2.473472">
        <ele>778.359</ele>
        <time>2021-05-27T18:55:56Z</time>
      </trkpt>
      <trkpt lat="42.284161" lon="2.473482">
        <ele>778.696</ele>
        <time>2021-05-27T18:55:59Z</time>
      </trkpt>
      <trkpt lat="42.284178" lon="2.473495">
        <ele>778.924</ele>
        <time>2021-05-27T18:56:01Z</time>
      </trkpt>
      <trkpt lat="42.284189" lon="2.473515">
        <ele>779.264</ele>
        <time>2021-05-27T18:56:03Z</time>
      </trkpt>
      <trkpt lat="42.284206" lon="2.473537">
        <ele>779.631</ele>
        <time>2021-05-27T18:56:05Z</time>
      </trkpt>
      <trkpt lat="42.284217" lon="2.473558">
        <ele>780.096</ele>
        <time>2021-05-27T18:56:07Z</time>
      </trkpt>
      <trkpt lat="42.284223" lon="2.473581">
        <ele>780.379</ele>
        <time>2021-05-27T18:56:09Z</time>
      </trkpt>
      <trkpt lat="42.284226" lon="2.473612">
        <ele>780.675</ele>
        <time>2021-05-27T18:56:11Z</time>
      </trkpt>
      <trkpt lat="42.284233" lon="2.473650">
        <ele>781.199</ele>
        <time>2021-05-27T18:56:13Z</time>
      </trkpt>
      <trkpt lat="42.284243" lon="2.473683">
        <ele>781.507</ele>
        <time>2021-05-27T18:56:15Z</time>
      </trkpt>
      <trkpt lat="42.284254" lon="2.473711">
        <ele>781.927</ele>
        <time>2021-05-27T18:56:16Z</time>
      </trkpt>
      <trkpt lat="42.284262" lon="2.473740">
        <ele>782.308</ele>
        <time>2021-05-27T18:56:18Z</time>
      </trkpt>
      <trkpt lat="42.284275" lon="2.473769">
        <ele>782.736</ele>
        <time>2021-05-27T18:56:21Z</time>
      </trkpt>
      <trkpt lat="42.284288" lon="2.473793">
        <ele>783.013</ele>
        <time>2021-05-27T18:56:22Z</time>
      </trkpt>
      <trkpt lat="42.284301" lon="2.473818">
        <ele>783.341</ele>
        <time>2021-05-27T18:56:24Z</time>
      </trkpt>
      <trkpt lat="42.284311" lon="2.473840">
        <ele>783.621</ele>
        <time>2021-05-27T18:56:26Z</time>
      </trkpt>
      <trkpt lat="42.284326" lon="2.473855">
        <ele>783.998</ele>
        <time>2021-05-27T18:56:28Z</time>
      </trkpt>
      <trkpt lat="42.284343" lon="2.473880">
        <ele>784.223</ele>
        <time>2021-05-27T18:56:30Z</time>
      </trkpt>
      <trkpt lat="42.284355" lon="2.473909">
        <ele>784.546</ele>
        <time>2021-05-27T18:56:32Z</time>
      </trkpt>
      <trkpt lat="42.284369" lon="2.473936">
        <ele>784.752</ele>
        <time>2021-05-27T18:56:34Z</time>
      </trkpt>
      <trkpt lat="42.284387" lon="2.473966">
        <ele>784.982</ele>
        <time>2021-05-27T18:56:36Z</time>
      </trkpt>
      <trkpt lat="42.284406" lon="2.473994">
        <ele>785.243</ele>
        <time>2021-05-27T18:56:38Z</time>
      </trkpt>
      <trkpt lat="42.284428" lon="2.474018">
        <ele>785.417</ele>
        <time>2021-05-27T18:56:41Z</time>
      </trkpt>
      <trkpt lat="42.284460" lon="2.474035">
        <ele>785.808</ele>
        <time>2021-05-27T18:56:42Z</time>
      </trkpt>
      <trkpt lat="42.284483" lon="2.474051">
        <ele>786.215</ele>
        <time>2021-05-27T18:56:44Z</time>
      </trkpt>
      <trkpt lat="42.284506" lon="2.474067">
        <ele>786.672</ele>
        <time>2021-05-27T18:56:46Z</time>
      </trkpt>
      <trkpt lat="42.284532" lon="2.474085">
        <ele>787.080</ele>
        <time>2021-05-27T18:56:48Z</time>
      </trkpt>
      <trkpt lat="42.284552" lon="2.474109">
        <ele>787.370</ele>
        <time>2021-05-27T18:56:50Z</time>
      </trkpt>
      <trkpt lat="42.284576" lon="2.474118">
        <ele>787.667</ele>
        <time>2021-05-27T18:56:52Z</time>
      </trkpt>
      <trkpt lat="42.284598" lon="2.474133">
        <ele>787.842</ele>
        <time>2021-05-27T18:56:54Z</time>
      </trkpt>
      <trkpt lat="42.284620" lon="2.474156">
        <ele>788.055</ele>
        <time>2021-05-27T18:56:57Z</time>
      </trkpt>
      <trkpt lat="42.284640" lon="2.474181">
        <ele>788.121</ele>
        <time>2021-05-27T18:56:58Z</time>
      </trkpt>
      <trkpt lat="42.284660" lon="2.474204">
        <ele>788.263</ele>
        <time>2021-05-27T18:57:00Z</time>
      </trkpt>
      <trkpt lat="42.284680" lon="2.474225">
        <ele>788.444</ele>
        <time>2021-05-27T18:57:03Z</time>
      </trkpt>
      <trkpt lat="42.284700" lon="2.474243">
        <ele>788.518</ele>
        <time>2021-05-27T18:57:05Z</time>
      </trkpt>
      <trkpt lat="42.284718" lon="2.474260">
        <ele>788.608</ele>
        <time>2021-05-27T18:57:06Z</time>
      </trkpt>
      <trkpt lat="42.284737" lon="2.474279">
        <ele>788.713</ele>
        <time>2021-05-27T18:57:08Z</time>
      </trkpt>
      <trkpt lat="42.284758" lon="2.474299">
        <ele>788.840</ele>
        <time>2021-05-27T18:57:10Z</time>
      </trkpt>
      <trkpt lat="42.284777" lon="2.474317">
        <ele>788.858</ele>
        <time>2021-05-27T18:57:12Z</time>
      </trkpt>
      <trkpt lat="42.284797" lon="2.474331">
        <ele>788.998</ele>
        <time>2021-05-27T18:57:14Z</time>
      </trkpt>
      <trkpt lat="42.284814" lon="2.474356">
        <ele>788.975</ele>
        <time>2021-05-27T18:57:17Z</time>
      </trkpt>
      <trkpt lat="42.284819" lon="2.474380">
        <ele>788.720</ele>
        <time>2021-05-27T18:57:20Z</time>
      </trkpt>
      <trkpt lat="42.284828" lon="2.474402">
        <ele>788.663</ele>
        <time>2021-05-27T18:57:57Z</time>
      </trkpt>
      <trkpt lat="42.284817" lon="2.474440">
        <ele>788.429</ele>
        <time>2021-05-27T18:58:01Z</time>
      </trkpt>
      <trkpt lat="42.284812" lon="2.474472">
        <ele>788.399</ele>
        <time>2021-05-27T18:58:03Z</time>
      </trkpt>
      <trkpt lat="42.284811" lon="2.474504">
        <ele>788.307</ele>
        <time>2021-05-27T18:58:04Z</time>
      </trkpt>
      <trkpt lat="42.284806" lon="2.474546">
        <ele>788.327</ele>
        <time>2021-05-27T18:58:06Z</time>
      </trkpt>
      <trkpt lat="42.284796" lon="2.474585">
        <ele>788.308</ele>
        <time>2021-05-27T18:58:09Z</time>
      </trkpt>
      <trkpt lat="42.284779" lon="2.474599">
        <ele>788.266</ele>
        <time>2021-05-27T18:58:11Z</time>
      </trkpt>
      <trkpt lat="42.284763" lon="2.474588">
        <ele>788.153</ele>
        <time>2021-05-27T18:58:15Z</time>
      </trkpt>
      <trkpt lat="42.284745" lon="2.474583">
        <ele>788.141</ele>
        <time>2021-05-27T18:58:19Z</time>
      </trkpt>
      <trkpt lat="42.284736" lon="2.474619">
        <ele>788.071</ele>
        <time>2021-05-27T18:58:24Z</time>
      </trkpt>
      <trkpt lat="42.284745" lon="2.474648">
        <ele>788.178</ele>
        <time>2021-05-27T18:58:26Z</time>
      </trkpt>
      <trkpt lat="42.284750" lon="2.474677">
        <ele>788.193</ele>
        <time>2021-05-27T18:58:28Z</time>
      </trkpt>
      <trkpt lat="42.284743" lon="2.474708">
        <ele>788.186</ele>
        <time>2021-05-27T18:58:30Z</time>
      </trkpt>
      <trkpt lat="42.284741" lon="2.474747">
        <ele>788.322</ele>
        <time>2021-05-27T18:58:32Z</time>
      </trkpt>
      <trkpt lat="42.284734" lon="2.474779">
        <ele>788.675</ele>
        <time>2021-05-27T18:58:34Z</time>
      </trkpt>
      <trkpt lat="42.284729" lon="2.474820">
        <ele>789.128</ele>
        <time>2021-05-27T18:58:36Z</time>
      </trkpt>
      <trkpt lat="42.284713" lon="2.474855">
        <ele>789.420</ele>
        <time>2021-05-27T18:58:38Z</time>
      </trkpt>
      <trkpt lat="42.284702" lon="2.474897">
        <ele>789.708</ele>
        <time>2021-05-27T18:58:40Z</time>
      </trkpt>
      <trkpt lat="42.284696" lon="2.474923">
        <ele>789.984</ele>
        <time>2021-05-27T18:58:41Z</time>
      </trkpt>
      <trkpt lat="42.284684" lon="2.474979">
        <ele>790.321</ele>
        <time>2021-05-27T18:58:43Z</time>
      </trkpt>
      <trkpt lat="42.284678" lon="2.475003">
        <ele>790.459</ele>
        <time>2021-05-27T18:58:44Z</time>
      </trkpt>
      <trkpt lat="42.284671" lon="2.475028">
        <ele>790.379</ele>
        <time>2021-05-27T18:58:45Z</time>
      </trkpt>
      <trkpt lat="42.284656" lon="2.475074">
        <ele>790.296</ele>
        <time>2021-05-27T18:58:47Z</time>
      </trkpt>
      <trkpt lat="42.284646" lon="2.475097">
        <ele>790.241</ele>
        <time>2021-05-27T18:58:48Z</time>
      </trkpt>
      <trkpt lat="42.284639" lon="2.475122">
        <ele>790.124</ele>
        <time>2021-05-27T18:58:49Z</time>
      </trkpt>
      <trkpt lat="42.284633" lon="2.475170">
        <ele>790.120</ele>
        <time>2021-05-27T18:58:51Z</time>
      </trkpt>
      <trkpt lat="42.284630" lon="2.475196">
        <ele>790.161</ele>
        <time>2021-05-27T18:58:52Z</time>
      </trkpt>
      <trkpt lat="42.284626" lon="2.475226">
        <ele>790.121</ele>
        <time>2021-05-27T18:58:53Z</time>
      </trkpt>
      <trkpt lat="42.284622" lon="2.475263">
        <ele>790.213</ele>
        <time>2021-05-27T18:58:55Z</time>
      </trkpt>
      <trkpt lat="42.284625" lon="2.475400">
        <ele>790.108</ele>
        <time>2021-05-27T18:59:02Z</time>
      </trkpt>
      <trkpt lat="42.284665" lon="2.475517">
        <ele>790.553</ele>
        <time>2021-05-27T18:59:07Z</time>
      </trkpt>
      <trkpt lat="42.284687" lon="2.475650">
        <ele>790.390</ele>
        <time>2021-05-27T18:59:11Z</time>
      </trkpt>
      <trkpt lat="42.284690" lon="2.475688">
        <ele>790.268</ele>
        <time>2021-05-27T18:59:14Z</time>
      </trkpt>
      <trkpt lat="42.284696" lon="2.475712">
        <ele>790.248</ele>
        <time>2021-05-27T18:59:15Z</time>
      </trkpt>
      <trkpt lat="42.284702" lon="2.475736">
        <ele>790.225</ele>
        <time>2021-05-27T18:59:16Z</time>
      </trkpt>
      <trkpt lat="42.284713" lon="2.475760">
        <ele>790.220</ele>
        <time>2021-05-27T18:59:17Z</time>
      </trkpt>
      <trkpt lat="42.284734" lon="2.475816">
        <ele>790.243</ele>
        <time>2021-05-27T18:59:18Z</time>
      </trkpt>
      <trkpt lat="42.284743" lon="2.475842">
        <ele>790.229</ele>
        <time>2021-05-27T18:59:19Z</time>
      </trkpt>
      <trkpt lat="42.284751" lon="2.475865">
        <ele>790.272</ele>
        <time>2021-05-27T18:59:20Z</time>
      </trkpt>
      <trkpt lat="42.284760" lon="2.475895">
        <ele>790.213</ele>
        <time>2021-05-27T18:59:21Z</time>
      </trkpt>
      <trkpt lat="42.284764" lon="2.476021">
        <ele>789.814</ele>
        <time>2021-05-27T18:59:26Z</time>
      </trkpt>
      <trkpt lat="42.284732" lon="2.476135">
        <ele>789.208</ele>
        <time>2021-05-27T18:59:30Z</time>
      </trkpt>
      <trkpt lat="42.284715" lon="2.476265">
        <ele>789.564</ele>
        <time>2021-05-27T18:59:37Z</time>
      </trkpt>
      <trkpt lat="42.284664" lon="2.476386">
        <ele>789.681</ele>
        <time>2021-05-27T18:59:41Z</time>
      </trkpt>
      <trkpt lat="42.284603" lon="2.476479">
        <ele>790.239</ele>
        <time>2021-05-27T18:59:46Z</time>
      </trkpt>
      <trkpt lat="42.284535" lon="2.476577">
        <ele>790.439</ele>
        <time>2021-05-27T18:59:50Z</time>
      </trkpt>
      <trkpt lat="42.284463" lon="2.476671">
        <ele>790.386</ele>
        <time>2021-05-27T18:59:54Z</time>
      </trkpt>
      <trkpt lat="42.284387" lon="2.476755">
        <ele>790.921</ele>
        <time>2021-05-27T18:59:58Z</time>
      </trkpt>
      <trkpt lat="42.284367" lon="2.476778">
        <ele>791.174</ele>
        <time>2021-05-27T18:59:59Z</time>
      </trkpt>
      <trkpt lat="42.284335" lon="2.476817">
        <ele>791.330</ele>
        <time>2021-05-27T19:00:01Z</time>
      </trkpt>
      <trkpt lat="42.284308" lon="2.476845">
        <ele>791.439</ele>
        <time>2021-05-27T19:00:03Z</time>
      </trkpt>
      <trkpt lat="42.284279" lon="2.476865">
        <ele>791.401</ele>
        <time>2021-05-27T19:00:05Z</time>
      </trkpt>
      <trkpt lat="42.284248" lon="2.476893">
        <ele>791.421</ele>
        <time>2021-05-27T19:00:08Z</time>
      </trkpt>
      <trkpt lat="42.284233" lon="2.476917">
        <ele>791.508</ele>
        <time>2021-05-27T19:00:09Z</time>
      </trkpt>
      <trkpt lat="42.284212" lon="2.476939">
        <ele>791.440</ele>
        <time>2021-05-27T19:00:11Z</time>
      </trkpt>
      <trkpt lat="42.284185" lon="2.476974">
        <ele>791.547</ele>
        <time>2021-05-27T19:00:12Z</time>
      </trkpt>
      <trkpt lat="42.284167" lon="2.477026">
        <ele>791.965</ele>
        <time>2021-05-27T19:00:15Z</time>
      </trkpt>
      <trkpt lat="42.284152" lon="2.477064">
        <ele>792.145</ele>
        <time>2021-05-27T19:00:18Z</time>
      </trkpt>
      <trkpt lat="42.284137" lon="2.477095">
        <ele>792.382</ele>
        <time>2021-05-27T19:00:20Z</time>
      </trkpt>
      <trkpt lat="42.284126" lon="2.477142">
        <ele>792.797</ele>
        <time>2021-05-27T19:00:21Z</time>
      </trkpt>
      <trkpt lat="42.284115" lon="2.477192">
        <ele>793.150</ele>
        <time>2021-05-27T19:00:24Z</time>
      </trkpt>
      <trkpt lat="42.284095" lon="2.477232">
        <ele>793.396</ele>
        <time>2021-05-27T19:00:26Z</time>
      </trkpt>
      <trkpt lat="42.284080" lon="2.477249">
        <ele>793.398</ele>
        <time>2021-05-27T19:00:27Z</time>
      </trkpt>
      <trkpt lat="42.284043" lon="2.477310">
        <ele>793.515</ele>
        <time>2021-05-27T19:00:30Z</time>
      </trkpt>
      <trkpt lat="42.284012" lon="2.477342">
        <ele>793.426</ele>
        <time>2021-05-27T19:00:32Z</time>
      </trkpt>
      <trkpt lat="42.283994" lon="2.477354">
        <ele>793.308</ele>
        <time>2021-05-27T19:00:33Z</time>
      </trkpt>
      <trkpt lat="42.283961" lon="2.477408">
        <ele>793.356</ele>
        <time>2021-05-27T19:00:36Z</time>
      </trkpt>
      <trkpt lat="42.283934" lon="2.477434">
        <ele>793.113</ele>
        <time>2021-05-27T19:00:38Z</time>
      </trkpt>
      <trkpt lat="42.283917" lon="2.477454">
        <ele>793.191</ele>
        <time>2021-05-27T19:00:39Z</time>
      </trkpt>
      <trkpt lat="42.283895" lon="2.477488">
        <ele>793.041</ele>
        <time>2021-05-27T19:00:40Z</time>
      </trkpt>
      <trkpt lat="42.283880" lon="2.477527">
        <ele>792.948</ele>
        <time>2021-05-27T19:00:43Z</time>
      </trkpt>
      <trkpt lat="42.283870" lon="2.477552">
        <ele>792.843</ele>
        <time>2021-05-27T19:00:44Z</time>
      </trkpt>
      <trkpt lat="42.283859" lon="2.477589">
        <ele>792.866</ele>
        <time>2021-05-27T19:00:46Z</time>
      </trkpt>
      <trkpt lat="42.283840" lon="2.477631">
        <ele>792.632</ele>
        <time>2021-05-27T19:00:48Z</time>
      </trkpt>
      <trkpt lat="42.283831" lon="2.477658">
        <ele>792.555</ele>
        <time>2021-05-27T19:00:49Z</time>
      </trkpt>
      <trkpt lat="42.283818" lon="2.477681">
        <ele>792.407</ele>
        <time>2021-05-27T19:00:50Z</time>
      </trkpt>
      <trkpt lat="42.283805" lon="2.477698">
        <ele>792.217</ele>
        <time>2021-05-27T19:00:51Z</time>
      </trkpt>
      <trkpt lat="42.283792" lon="2.477716">
        <ele>792.008</ele>
        <time>2021-05-27T19:00:52Z</time>
      </trkpt>
      <trkpt lat="42.283772" lon="2.477754">
        <ele>791.872</ele>
        <time>2021-05-27T19:00:54Z</time>
      </trkpt>
      <trkpt lat="42.283756" lon="2.477798">
        <ele>791.599</ele>
        <time>2021-05-27T19:00:55Z</time>
      </trkpt>
      <trkpt lat="42.283744" lon="2.477819">
        <ele>791.287</ele>
        <time>2021-05-27T19:00:56Z</time>
      </trkpt>
      <trkpt lat="42.283731" lon="2.477838">
        <ele>790.967</ele>
        <time>2021-05-27T19:00:57Z</time>
      </trkpt>
      <trkpt lat="42.283722" lon="2.477889">
        <ele>790.524</ele>
        <time>2021-05-27T19:00:59Z</time>
      </trkpt>
      <trkpt lat="42.283716" lon="2.477916">
        <ele>790.339</ele>
        <time>2021-05-27T19:01:01Z</time>
      </trkpt>
      <trkpt lat="42.283712" lon="2.477948">
        <ele>790.052</ele>
        <time>2021-05-27T19:01:02Z</time>
      </trkpt>
      <trkpt lat="42.283710" lon="2.477980">
        <ele>789.868</ele>
        <time>2021-05-27T19:01:03Z</time>
      </trkpt>
      <trkpt lat="42.283710" lon="2.478009">
        <ele>789.749</ele>
        <time>2021-05-27T19:01:04Z</time>
      </trkpt>
      <trkpt lat="42.283715" lon="2.478035">
        <ele>789.702</ele>
        <time>2021-05-27T19:01:05Z</time>
      </trkpt>
      <trkpt lat="42.283719" lon="2.478064">
        <ele>789.522</ele>
        <time>2021-05-27T19:01:06Z</time>
      </trkpt>
      <trkpt lat="42.283725" lon="2.478090">
        <ele>789.108</ele>
        <time>2021-05-27T19:01:07Z</time>
      </trkpt>
      <trkpt lat="42.283733" lon="2.478117">
        <ele>788.651</ele>
        <time>2021-05-27T19:01:08Z</time>
      </trkpt>
      <trkpt lat="42.283744" lon="2.478140">
        <ele>788.438</ele>
        <time>2021-05-27T19:01:09Z</time>
      </trkpt>
      <trkpt lat="42.283756" lon="2.478162">
        <ele>788.296</ele>
        <time>2021-05-27T19:01:10Z</time>
      </trkpt>
      <trkpt lat="42.283778" lon="2.478194">
        <ele>788.016</ele>
        <time>2021-05-27T19:01:12Z</time>
      </trkpt>
      <trkpt lat="42.283791" lon="2.478213">
        <ele>787.973</ele>
        <time>2021-05-27T19:01:13Z</time>
      </trkpt>
      <trkpt lat="42.283802" lon="2.478237">
        <ele>787.798</ele>
        <time>2021-05-27T19:01:14Z</time>
      </trkpt>
      <trkpt lat="42.283819" lon="2.478285">
        <ele>787.171</ele>
        <time>2021-05-27T19:01:16Z</time>
      </trkpt>
      <trkpt lat="42.283835" lon="2.478308">
        <ele>787.037</ele>
        <time>2021-05-27T19:01:17Z</time>
      </trkpt>
      <trkpt lat="42.283864" lon="2.478349">
        <ele>787.169</ele>
        <time>2021-05-27T19:01:18Z</time>
      </trkpt>
      <trkpt lat="42.283879" lon="2.478363">
        <ele>787.304</ele>
        <time>2021-05-27T19:01:20Z</time>
      </trkpt>
      <trkpt lat="42.283894" lon="2.478405">
        <ele>787.124</ele>
        <time>2021-05-27T19:01:21Z</time>
      </trkpt>
      <trkpt lat="42.283901" lon="2.478433">
        <ele>787.008</ele>
        <time>2021-05-27T19:01:22Z</time>
      </trkpt>
      <trkpt lat="42.283912" lon="2.478458">
        <ele>787.163</ele>
        <time>2021-05-27T19:01:23Z</time>
      </trkpt>
      <trkpt lat="42.283923" lon="2.478479">
        <ele>787.270</ele>
        <time>2021-05-27T19:01:24Z</time>
      </trkpt>
      <trkpt lat="42.283930" lon="2.478502">
        <ele>787.288</ele>
        <time>2021-05-27T19:01:25Z</time>
      </trkpt>
      <trkpt lat="42.283932" lon="2.478546">
        <ele>786.778</ele>
        <time>2021-05-27T19:01:28Z</time>
      </trkpt>
      <trkpt lat="42.283915" lon="2.478584">
        <ele>785.555</ele>
        <time>2021-05-27T19:01:30Z</time>
      </trkpt>
      <trkpt lat="42.283901" lon="2.478640">
        <ele>784.650</ele>
        <time>2021-05-27T19:01:31Z</time>
      </trkpt>
      <trkpt lat="42.283898" lon="2.478675">
        <ele>784.613</ele>
        <time>2021-05-27T19:01:32Z</time>
      </trkpt>
      <trkpt lat="42.283896" lon="2.478708">
        <ele>784.679</ele>
        <time>2021-05-27T19:01:33Z</time>
      </trkpt>
      <trkpt lat="42.283893" lon="2.478733">
        <ele>784.665</ele>
        <time>2021-05-27T19:01:34Z</time>
      </trkpt>
      <trkpt lat="42.283893" lon="2.478762">
        <ele>784.768</ele>
        <time>2021-05-27T19:01:35Z</time>
      </trkpt>
      <trkpt lat="42.283895" lon="2.478792">
        <ele>784.914</ele>
        <time>2021-05-27T19:01:37Z</time>
      </trkpt>
      <trkpt lat="42.283898" lon="2.478854">
        <ele>785.208</ele>
        <time>2021-05-27T19:01:38Z</time>
      </trkpt>
      <trkpt lat="42.283900" lon="2.478879">
        <ele>785.423</ele>
        <time>2021-05-27T19:01:39Z</time>
      </trkpt>
      <trkpt lat="42.283904" lon="2.478905">
        <ele>785.570</ele>
        <time>2021-05-27T19:01:40Z</time>
      </trkpt>
      <trkpt lat="42.283907" lon="2.478933">
        <ele>785.798</ele>
        <time>2021-05-27T19:01:41Z</time>
      </trkpt>
      <trkpt lat="42.283912" lon="2.478963">
        <ele>785.828</ele>
        <time>2021-05-27T19:01:42Z</time>
      </trkpt>
      <trkpt lat="42.283916" lon="2.479025">
        <ele>786.015</ele>
        <time>2021-05-27T19:01:44Z</time>
      </trkpt>
      <trkpt lat="42.283918" lon="2.479057">
        <ele>786.010</ele>
        <time>2021-05-27T19:01:45Z</time>
      </trkpt>
      <trkpt lat="42.283920" lon="2.479084">
        <ele>786.163</ele>
        <time>2021-05-27T19:01:46Z</time>
      </trkpt>
      <trkpt lat="42.283924" lon="2.479112">
        <ele>786.329</ele>
        <time>2021-05-27T19:01:47Z</time>
      </trkpt>
      <trkpt lat="42.283926" lon="2.479143">
        <ele>786.399</ele>
        <time>2021-05-27T19:01:48Z</time>
      </trkpt>
      <trkpt lat="42.283927" lon="2.479171">
        <ele>786.407</ele>
        <time>2021-05-27T19:01:49Z</time>
      </trkpt>
      <trkpt lat="42.283928" lon="2.479196">
        <ele>786.327</ele>
        <time>2021-05-27T19:01:50Z</time>
      </trkpt>
      <trkpt lat="42.283927" lon="2.479224">
        <ele>786.208</ele>
        <time>2021-05-27T19:01:51Z</time>
      </trkpt>
      <trkpt lat="42.283929" lon="2.479252">
        <ele>786.296</ele>
        <time>2021-05-27T19:01:52Z</time>
      </trkpt>
      <trkpt lat="42.283932" lon="2.479280">
        <ele>786.253</ele>
        <time>2021-05-27T19:01:53Z</time>
      </trkpt>
      <trkpt lat="42.283934" lon="2.479308">
        <ele>786.291</ele>
        <time>2021-05-27T19:01:54Z</time>
      </trkpt>
      <trkpt lat="42.283937" lon="2.479332">
        <ele>786.211</ele>
        <time>2021-05-27T19:01:56Z</time>
      </trkpt>
      <trkpt lat="42.283945" lon="2.479377">
        <ele>786.498</ele>
        <time>2021-05-27T19:01:57Z</time>
      </trkpt>
      <trkpt lat="42.283954" lon="2.479450">
        <ele>786.633</ele>
        <time>2021-05-27T19:02:00Z</time>
      </trkpt>
      <trkpt lat="42.283959" lon="2.479492">
        <ele>786.746</ele>
        <time>2021-05-27T19:02:03Z</time>
      </trkpt>
      <trkpt lat="42.283962" lon="2.479537">
        <ele>786.792</ele>
        <time>2021-05-27T19:02:05Z</time>
      </trkpt>
      <trkpt lat="42.283965" lon="2.479562">
        <ele>786.863</ele>
        <time>2021-05-27T19:02:06Z</time>
      </trkpt>
      <trkpt lat="42.283967" lon="2.479587">
        <ele>786.944</ele>
        <time>2021-05-27T19:02:07Z</time>
      </trkpt>
      <trkpt lat="42.283972" lon="2.479637">
        <ele>787.018</ele>
        <time>2021-05-27T19:02:09Z</time>
      </trkpt>
      <trkpt lat="42.283967" lon="2.479697">
        <ele>786.708</ele>
        <time>2021-05-27T19:02:11Z</time>
      </trkpt>
      <trkpt lat="42.283954" lon="2.479751">
        <ele>786.123</ele>
        <time>2021-05-27T19:02:14Z</time>
      </trkpt>
      <trkpt lat="42.283951" lon="2.479776">
        <ele>786.020</ele>
        <time>2021-05-27T19:02:15Z</time>
      </trkpt>
      <trkpt lat="42.283907" lon="2.479896">
        <ele>784.018</ele>
        <time>2021-05-27T19:02:19Z</time>
      </trkpt>
      <trkpt lat="42.283908" lon="2.479931">
        <ele>784.018</ele>
        <time>2021-05-27T19:02:20Z</time>
      </trkpt>
      <trkpt lat="42.283905" lon="2.479963">
        <ele>783.925</ele>
        <time>2021-05-27T19:02:21Z</time>
      </trkpt>
      <trkpt lat="42.283877" lon="2.480102">
        <ele>783.740</ele>
        <time>2021-05-27T19:02:26Z</time>
      </trkpt>
      <trkpt lat="42.283821" lon="2.480224">
        <ele>782.883</ele>
        <time>2021-05-27T19:02:31Z</time>
      </trkpt>
      <trkpt lat="42.283796" lon="2.480265">
        <ele>782.289</ele>
        <time>2021-05-27T19:02:34Z</time>
      </trkpt>
      <trkpt lat="42.283770" lon="2.480305">
        <ele>781.745</ele>
        <time>2021-05-27T19:02:35Z</time>
      </trkpt>
      <trkpt lat="42.283756" lon="2.480322">
        <ele>781.447</ele>
        <time>2021-05-27T19:02:36Z</time>
      </trkpt>
      <trkpt lat="42.283741" lon="2.480358">
        <ele>781.311</ele>
        <time>2021-05-27T19:02:38Z</time>
      </trkpt>
      <trkpt lat="42.283708" lon="2.480408">
        <ele>780.608</ele>
        <time>2021-05-27T19:02:41Z</time>
      </trkpt>
      <trkpt lat="42.283646" lon="2.480499">
        <ele>779.091</ele>
        <time>2021-05-27T19:02:46Z</time>
      </trkpt>
      <trkpt lat="42.283640" lon="2.480544">
        <ele>779.288</ele>
        <time>2021-05-27T19:02:48Z</time>
      </trkpt>
      <trkpt lat="42.283637" lon="2.480571">
        <ele>779.376</ele>
        <time>2021-05-27T19:02:49Z</time>
      </trkpt>
      <trkpt lat="42.283637" lon="2.480628">
        <ele>779.566</ele>
        <time>2021-05-27T19:02:51Z</time>
      </trkpt>
      <trkpt lat="42.283633" lon="2.480682">
        <ele>779.683</ele>
        <time>2021-05-27T19:02:53Z</time>
      </trkpt>
      <trkpt lat="42.283630" lon="2.480736">
        <ele>779.658</ele>
        <time>2021-05-27T19:02:55Z</time>
      </trkpt>
      <trkpt lat="42.283629" lon="2.480763">
        <ele>779.731</ele>
        <time>2021-05-27T19:02:56Z</time>
      </trkpt>
      <trkpt lat="42.283627" lon="2.480790">
        <ele>779.757</ele>
        <time>2021-05-27T19:02:57Z</time>
      </trkpt>
      <trkpt lat="42.283602" lon="2.480865">
        <ele>778.569</ele>
        <time>2021-05-27T19:03:00Z</time>
      </trkpt>
      <trkpt lat="42.283587" lon="2.480921">
        <ele>777.604</ele>
        <time>2021-05-27T19:03:02Z</time>
      </trkpt>
      <trkpt lat="42.283577" lon="2.480967">
        <ele>777.024</ele>
        <time>2021-05-27T19:03:04Z</time>
      </trkpt>
      <trkpt lat="42.283570" lon="2.480997">
        <ele>776.508</ele>
        <time>2021-05-27T19:03:05Z</time>
      </trkpt>
      <trkpt lat="42.283553" lon="2.481039">
        <ele>775.643</ele>
        <time>2021-05-27T19:03:07Z</time>
      </trkpt>
      <trkpt lat="42.283546" lon="2.481085">
        <ele>775.110</ele>
        <time>2021-05-27T19:03:09Z</time>
      </trkpt>
      <trkpt lat="42.283539" lon="2.481153">
        <ele>773.968</ele>
        <time>2021-05-27T19:03:12Z</time>
      </trkpt>
      <trkpt lat="42.283549" lon="2.481204">
        <ele>773.598</ele>
        <time>2021-05-27T19:03:14Z</time>
      </trkpt>
      <trkpt lat="42.283557" lon="2.481251">
        <ele>773.055</ele>
        <time>2021-05-27T19:03:16Z</time>
      </trkpt>
      <trkpt lat="42.283565" lon="2.481294">
        <ele>772.720</ele>
        <time>2021-05-27T19:03:18Z</time>
      </trkpt>
      <trkpt lat="42.283560" lon="2.481333">
        <ele>771.863</ele>
        <time>2021-05-27T19:03:20Z</time>
      </trkpt>
      <trkpt lat="42.283565" lon="2.481376">
        <ele>771.249</ele>
        <time>2021-05-27T19:03:22Z</time>
      </trkpt>
      <trkpt lat="42.283570" lon="2.481425">
        <ele>770.529</ele>
        <time>2021-05-27T19:03:24Z</time>
      </trkpt>
      <trkpt lat="42.283571" lon="2.481454">
        <ele>769.900</ele>
        <time>2021-05-27T19:03:25Z</time>
      </trkpt>
      <trkpt lat="42.283574" lon="2.481499">
        <ele>769.120</ele>
        <time>2021-05-27T19:03:27Z</time>
      </trkpt>
      <trkpt lat="42.283580" lon="2.481543">
        <ele>768.408</ele>
        <time>2021-05-27T19:03:29Z</time>
      </trkpt>
      <trkpt lat="42.283594" lon="2.481593">
        <ele>767.949</ele>
        <time>2021-05-27T19:03:31Z</time>
      </trkpt>
      <trkpt lat="42.283609" lon="2.481638">
        <ele>767.556</ele>
        <time>2021-05-27T19:03:33Z</time>
      </trkpt>
      <trkpt lat="42.283619" lon="2.481683">
        <ele>767.034</ele>
        <time>2021-05-27T19:03:35Z</time>
      </trkpt>
      <trkpt lat="42.283621" lon="2.481711">
        <ele>766.514</ele>
        <time>2021-05-27T19:03:36Z</time>
      </trkpt>
      <trkpt lat="42.283626" lon="2.481735">
        <ele>766.231</ele>
        <time>2021-05-27T19:03:37Z</time>
      </trkpt>
      <trkpt lat="42.283641" lon="2.481778">
        <ele>766.036</ele>
        <time>2021-05-27T19:03:39Z</time>
      </trkpt>
      <trkpt lat="42.283645" lon="2.481802">
        <ele>765.759</ele>
        <time>2021-05-27T19:03:40Z</time>
      </trkpt>
      <trkpt lat="42.283646" lon="2.481827">
        <ele>765.215</ele>
        <time>2021-05-27T19:03:41Z</time>
      </trkpt>
      <trkpt lat="42.283650" lon="2.481852">
        <ele>764.837</ele>
        <time>2021-05-27T19:03:42Z</time>
      </trkpt>
      <trkpt lat="42.283655" lon="2.481878">
        <ele>764.549</ele>
        <time>2021-05-27T19:03:43Z</time>
      </trkpt>
      <trkpt lat="42.283661" lon="2.481910">
        <ele>764.113</ele>
        <time>2021-05-27T19:03:44Z</time>
      </trkpt>
      <trkpt lat="42.283668" lon="2.481940">
        <ele>763.808</ele>
        <time>2021-05-27T19:03:45Z</time>
      </trkpt>
      <trkpt lat="42.283676" lon="2.481965">
        <ele>763.650</ele>
        <time>2021-05-27T19:03:46Z</time>
      </trkpt>
      <trkpt lat="42.283683" lon="2.481989">
        <ele>763.577</ele>
        <time>2021-05-27T19:03:47Z</time>
      </trkpt>
      <trkpt lat="42.283709" lon="2.482054">
        <ele>763.325</ele>
        <time>2021-05-27T19:03:50Z</time>
      </trkpt>
      <trkpt lat="42.283721" lon="2.482076">
        <ele>763.425</ele>
        <time>2021-05-27T19:03:52Z</time>
      </trkpt>
      <trkpt lat="42.283731" lon="2.482101">
        <ele>763.372</ele>
        <time>2021-05-27T19:03:53Z</time>
      </trkpt>
      <trkpt lat="42.283743" lon="2.482123">
        <ele>763.317</ele>
        <time>2021-05-27T19:03:54Z</time>
      </trkpt>
      <trkpt lat="42.283756" lon="2.482148">
        <ele>763.470</ele>
        <time>2021-05-27T19:03:55Z</time>
      </trkpt>
      <trkpt lat="42.283778" lon="2.482194">
        <ele>763.276</ele>
        <time>2021-05-27T19:03:56Z</time>
      </trkpt>
      <trkpt lat="42.283790" lon="2.482221">
        <ele>763.192</ele>
        <time>2021-05-27T19:03:58Z</time>
      </trkpt>
      <trkpt lat="42.283801" lon="2.482244">
        <ele>763.073</ele>
        <time>2021-05-27T19:03:59Z</time>
      </trkpt>
      <trkpt lat="42.283810" lon="2.482268">
        <ele>762.820</ele>
        <time>2021-05-27T19:04:00Z</time>
      </trkpt>
      <trkpt lat="42.283821" lon="2.482290">
        <ele>762.808</ele>
        <time>2021-05-27T19:04:01Z</time>
      </trkpt>
      <trkpt lat="42.283834" lon="2.482307">
        <ele>762.996</ele>
        <time>2021-05-27T19:04:02Z</time>
      </trkpt>
      <trkpt lat="42.283845" lon="2.482329">
        <ele>762.933</ele>
        <time>2021-05-27T19:04:03Z</time>
      </trkpt>
      <trkpt lat="42.283871" lon="2.482361">
        <ele>763.351</ele>
        <time>2021-05-27T19:04:05Z</time>
      </trkpt>
      <trkpt lat="42.283887" lon="2.482372">
        <ele>763.761</ele>
        <time>2021-05-27T19:04:06Z</time>
      </trkpt>
      <trkpt lat="42.283907" lon="2.482390">
        <ele>764.218</ele>
        <time>2021-05-27T19:04:08Z</time>
      </trkpt>
      <trkpt lat="42.283924" lon="2.482409">
        <ele>764.563</ele>
        <time>2021-05-27T19:04:09Z</time>
      </trkpt>
      <trkpt lat="42.283940" lon="2.482432">
        <ele>764.636</ele>
        <time>2021-05-27T19:04:11Z</time>
      </trkpt>
      <trkpt lat="42.283957" lon="2.482455">
        <ele>764.822</ele>
        <time>2021-05-27T19:04:13Z</time>
      </trkpt>
      <trkpt lat="42.283972" lon="2.482475">
        <ele>764.973</ele>
        <time>2021-05-27T19:04:15Z</time>
      </trkpt>
      <trkpt lat="42.283984" lon="2.482501">
        <ele>764.785</ele>
        <time>2021-05-27T19:04:17Z</time>
      </trkpt>
      <trkpt lat="42.284000" lon="2.482520">
        <ele>764.713</ele>
        <time>2021-05-27T19:04:19Z</time>
      </trkpt>
      <trkpt lat="42.284017" lon="2.482537">
        <ele>764.808</ele>
        <time>2021-05-27T19:04:21Z</time>
      </trkpt>
      <trkpt lat="42.284037" lon="2.482552">
        <ele>765.174</ele>
        <time>2021-05-27T19:04:23Z</time>
      </trkpt>
      <trkpt lat="42.284056" lon="2.482563">
        <ele>765.581</ele>
        <time>2021-05-27T19:04:25Z</time>
      </trkpt>
      <trkpt lat="42.284076" lon="2.482580">
        <ele>765.719</ele>
        <time>2021-05-27T19:04:28Z</time>
      </trkpt>
      <trkpt lat="42.284096" lon="2.482594">
        <ele>766.189</ele>
        <time>2021-05-27T19:04:29Z</time>
      </trkpt>
      <trkpt lat="42.284115" lon="2.482616">
        <ele>766.156</ele>
        <time>2021-05-27T19:04:31Z</time>
      </trkpt>
      <trkpt lat="42.284137" lon="2.482636">
        <ele>766.481</ele>
        <time>2021-05-27T19:04:33Z</time>
      </trkpt>
      <trkpt lat="42.284156" lon="2.482658">
        <ele>766.414</ele>
        <time>2021-05-27T19:04:35Z</time>
      </trkpt>
      <trkpt lat="42.284177" lon="2.482678">
        <ele>766.730</ele>
        <time>2021-05-27T19:04:38Z</time>
      </trkpt>
      <trkpt lat="42.284200" lon="2.482696">
        <ele>767.116</ele>
        <time>2021-05-27T19:04:40Z</time>
      </trkpt>
      <trkpt lat="42.284222" lon="2.482715">
        <ele>767.576</ele>
        <time>2021-05-27T19:04:42Z</time>
      </trkpt>
      <trkpt lat="42.284243" lon="2.482733">
        <ele>767.813</ele>
        <time>2021-05-27T19:04:44Z</time>
      </trkpt>
      <trkpt lat="42.284265" lon="2.482752">
        <ele>768.108</ele>
        <time>2021-05-27T19:04:46Z</time>
      </trkpt>
      <trkpt lat="42.284287" lon="2.482771">
        <ele>768.428</ele>
        <time>2021-05-27T19:04:47Z</time>
      </trkpt>
      <trkpt lat="42.284306" lon="2.482793">
        <ele>768.465</ele>
        <time>2021-05-27T19:04:49Z</time>
      </trkpt>
      <trkpt lat="42.284324" lon="2.482814">
        <ele>768.383</ele>
        <time>2021-05-27T19:04:51Z</time>
      </trkpt>
      <trkpt lat="42.284347" lon="2.482831">
        <ele>768.573</ele>
        <time>2021-05-27T19:04:53Z</time>
      </trkpt>
      <trkpt lat="42.284362" lon="2.482857">
        <ele>768.010</ele>
        <time>2021-05-27T19:04:55Z</time>
      </trkpt>
      <trkpt lat="42.284375" lon="2.482883">
        <ele>767.415</ele>
        <time>2021-05-27T19:04:57Z</time>
      </trkpt>
      <trkpt lat="42.284398" lon="2.482900">
        <ele>767.538</ele>
        <time>2021-05-27T19:05:00Z</time>
      </trkpt>
      <trkpt lat="42.284418" lon="2.482913">
        <ele>767.784</ele>
        <time>2021-05-27T19:05:02Z</time>
      </trkpt>
      <trkpt lat="42.284441" lon="2.482925">
        <ele>768.024</ele>
        <time>2021-05-27T19:05:04Z</time>
      </trkpt>
      <trkpt lat="42.284484" lon="2.482925">
        <ele>768.504</ele>
        <time>2021-05-27T19:05:07Z</time>
      </trkpt>
      <trkpt lat="42.284523" lon="2.482929">
        <ele>768.614</ele>
        <time>2021-05-27T19:05:10Z</time>
      </trkpt>
      <trkpt lat="42.284548" lon="2.482929">
        <ele>768.808</ele>
        <time>2021-05-27T19:05:12Z</time>
      </trkpt>
      <trkpt lat="42.284573" lon="2.482925">
        <ele>769.289</ele>
        <time>2021-05-27T19:05:14Z</time>
      </trkpt>
      <trkpt lat="42.284598" lon="2.482923">
        <ele>769.516</ele>
        <time>2021-05-27T19:05:16Z</time>
      </trkpt>
      <trkpt lat="42.284623" lon="2.482919">
        <ele>770.094</ele>
        <time>2021-05-27T19:05:18Z</time>
      </trkpt>
      <trkpt lat="42.284647" lon="2.482911">
        <ele>770.624</ele>
        <time>2021-05-27T19:05:20Z</time>
      </trkpt>
      <trkpt lat="42.284676" lon="2.482905">
        <ele>771.291</ele>
        <time>2021-05-27T19:05:22Z</time>
      </trkpt>
      <trkpt lat="42.284694" lon="2.482898">
        <ele>771.816</ele>
        <time>2021-05-27T19:05:23Z</time>
      </trkpt>
      <trkpt lat="42.284727" lon="2.482891">
        <ele>772.619</ele>
        <time>2021-05-27T19:05:25Z</time>
      </trkpt>
      <trkpt lat="42.284760" lon="2.482887">
        <ele>773.435</ele>
        <time>2021-05-27T19:05:27Z</time>
      </trkpt>
      <trkpt lat="42.284786" lon="2.482886">
        <ele>774.047</ele>
        <time>2021-05-27T19:05:28Z</time>
      </trkpt>
      <trkpt lat="42.284811" lon="2.482889">
        <ele>774.329</ele>
        <time>2021-05-27T19:05:30Z</time>
      </trkpt>
      <trkpt lat="42.284832" lon="2.482896">
        <ele>774.321</ele>
        <time>2021-05-27T19:05:32Z</time>
      </trkpt>
      <trkpt lat="42.284853" lon="2.482903">
        <ele>774.408</ele>
        <time>2021-05-27T19:05:34Z</time>
      </trkpt>
      <trkpt lat="42.284874" lon="2.482905">
        <ele>774.721</ele>
        <time>2021-05-27T19:05:36Z</time>
      </trkpt>
      <trkpt lat="42.284899" lon="2.482904">
        <ele>775.288</ele>
        <time>2021-05-27T19:05:38Z</time>
      </trkpt>
      <trkpt lat="42.284931" lon="2.482910">
        <ele>775.576</ele>
        <time>2021-05-27T19:05:40Z</time>
      </trkpt>
      <trkpt lat="42.284958" lon="2.482919">
        <ele>775.516</ele>
        <time>2021-05-27T19:05:42Z</time>
      </trkpt>
      <trkpt lat="42.284984" lon="2.482937">
        <ele>775.153</ele>
        <time>2021-05-27T19:05:44Z</time>
      </trkpt>
      <trkpt lat="42.285007" lon="2.482953">
        <ele>774.948</ele>
        <time>2021-05-27T19:05:46Z</time>
      </trkpt>
      <trkpt lat="42.285030" lon="2.482971">
        <ele>775.051</ele>
        <time>2021-05-27T19:05:48Z</time>
      </trkpt>
      <trkpt lat="42.285054" lon="2.482991">
        <ele>775.287</ele>
        <time>2021-05-27T19:05:50Z</time>
      </trkpt>
      <trkpt lat="42.285077" lon="2.483012">
        <ele>775.391</ele>
        <time>2021-05-27T19:05:53Z</time>
      </trkpt>
      <trkpt lat="42.285097" lon="2.483033">
        <ele>775.381</ele>
        <time>2021-05-27T19:05:54Z</time>
      </trkpt>
      <trkpt lat="42.285117" lon="2.483046">
        <ele>775.819</ele>
        <time>2021-05-27T19:05:57Z</time>
      </trkpt>
      <trkpt lat="42.285136" lon="2.483067">
        <ele>776.008</ele>
        <time>2021-05-27T19:05:59Z</time>
      </trkpt>
      <trkpt lat="42.285153" lon="2.483087">
        <ele>776.486</ele>
        <time>2021-05-27T19:06:01Z</time>
      </trkpt>
      <trkpt lat="42.285170" lon="2.483109">
        <ele>776.723</ele>
        <time>2021-05-27T19:06:03Z</time>
      </trkpt>
      <trkpt lat="42.285190" lon="2.483129">
        <ele>777.211</ele>
        <time>2021-05-27T19:06:04Z</time>
      </trkpt>
      <trkpt lat="42.285211" lon="2.483147">
        <ele>777.971</ele>
        <time>2021-05-27T19:06:07Z</time>
      </trkpt>
      <trkpt lat="42.285231" lon="2.483169">
        <ele>778.528</ele>
        <time>2021-05-27T19:06:09Z</time>
      </trkpt>
      <trkpt lat="42.285249" lon="2.483192">
        <ele>778.913</ele>
        <time>2021-05-27T19:06:10Z</time>
      </trkpt>
      <trkpt lat="42.285266" lon="2.483215">
        <ele>779.376</ele>
        <time>2021-05-27T19:06:12Z</time>
      </trkpt>
      <trkpt lat="42.285277" lon="2.483242">
        <ele>779.322</ele>
        <time>2021-05-27T19:06:14Z</time>
      </trkpt>
      <trkpt lat="42.285288" lon="2.483270">
        <ele>779.344</ele>
        <time>2021-05-27T19:06:16Z</time>
      </trkpt>
      <trkpt lat="42.285299" lon="2.483301">
        <ele>779.305</ele>
        <time>2021-05-27T19:06:18Z</time>
      </trkpt>
      <trkpt lat="42.285312" lon="2.483329">
        <ele>779.615</ele>
        <time>2021-05-27T19:06:20Z</time>
      </trkpt>
      <trkpt lat="42.285323" lon="2.483357">
        <ele>779.908</ele>
        <time>2021-05-27T19:06:23Z</time>
      </trkpt>
      <trkpt lat="42.285333" lon="2.483387">
        <ele>780.371</ele>
        <time>2021-05-27T19:06:25Z</time>
      </trkpt>
      <trkpt lat="42.285342" lon="2.483418">
        <ele>780.558</ele>
        <time>2021-05-27T19:06:27Z</time>
      </trkpt>
      <trkpt lat="42.285351" lon="2.483449">
        <ele>780.836</ele>
        <time>2021-05-27T19:06:28Z</time>
      </trkpt>
      <trkpt lat="42.285359" lon="2.483482">
        <ele>781.026</ele>
        <time>2021-05-27T19:06:30Z</time>
      </trkpt>
      <trkpt lat="42.285370" lon="2.483513">
        <ele>781.523</ele>
        <time>2021-05-27T19:06:32Z</time>
      </trkpt>
      <trkpt lat="42.285379" lon="2.483543">
        <ele>781.878</ele>
        <time>2021-05-27T19:06:34Z</time>
      </trkpt>
      <trkpt lat="42.285387" lon="2.483574">
        <ele>782.171</ele>
        <time>2021-05-27T19:06:36Z</time>
      </trkpt>
      <trkpt lat="42.285392" lon="2.483607">
        <ele>782.147</ele>
        <time>2021-05-27T19:06:38Z</time>
      </trkpt>
      <trkpt lat="42.285395" lon="2.483640">
        <ele>782.113</ele>
        <time>2021-05-27T19:06:41Z</time>
      </trkpt>
      <trkpt lat="42.285395" lon="2.483675">
        <ele>781.943</ele>
        <time>2021-05-27T19:06:42Z</time>
      </trkpt>
      <trkpt lat="42.285392" lon="2.483710">
        <ele>781.507</ele>
        <time>2021-05-27T19:06:44Z</time>
      </trkpt>
      <trkpt lat="42.285393" lon="2.483750">
        <ele>781.308</ele>
        <time>2021-05-27T19:06:46Z</time>
      </trkpt>
      <trkpt lat="42.285391" lon="2.483791">
        <ele>780.928</ele>
        <time>2021-05-27T19:06:48Z</time>
      </trkpt>
      <trkpt lat="42.285395" lon="2.483830">
        <ele>781.065</ele>
        <time>2021-05-27T19:06:50Z</time>
      </trkpt>
      <trkpt lat="42.285403" lon="2.483865">
        <ele>781.363</ele>
        <time>2021-05-27T19:06:52Z</time>
      </trkpt>
      <trkpt lat="42.285411" lon="2.483897">
        <ele>781.533</ele>
        <time>2021-05-27T19:06:54Z</time>
      </trkpt>
      <trkpt lat="42.285423" lon="2.483928">
        <ele>781.650</ele>
        <time>2021-05-27T19:06:56Z</time>
      </trkpt>
      <trkpt lat="42.285437" lon="2.483958">
        <ele>781.895</ele>
        <time>2021-05-27T19:06:58Z</time>
      </trkpt>
      <trkpt lat="42.285453" lon="2.483985">
        <ele>782.248</ele>
        <time>2021-05-27T19:07:00Z</time>
      </trkpt>
      <trkpt lat="42.285470" lon="2.484015">
        <ele>782.654</ele>
        <time>2021-05-27T19:07:02Z</time>
      </trkpt>
      <trkpt lat="42.285483" lon="2.484043">
        <ele>782.726</ele>
        <time>2021-05-27T19:07:04Z</time>
      </trkpt>
      <trkpt lat="42.285504" lon="2.484070">
        <ele>783.347</ele>
        <time>2021-05-27T19:07:06Z</time>
      </trkpt>
      <trkpt lat="42.285523" lon="2.484097">
        <ele>783.811</ele>
        <time>2021-05-27T19:07:09Z</time>
      </trkpt>
      <trkpt lat="42.285538" lon="2.484125">
        <ele>784.008</ele>
        <time>2021-05-27T19:07:11Z</time>
      </trkpt>
      <trkpt lat="42.285552" lon="2.484154">
        <ele>784.129</ele>
        <time>2021-05-27T19:07:13Z</time>
      </trkpt>
      <trkpt lat="42.285565" lon="2.484185">
        <ele>784.036</ele>
        <time>2021-05-27T19:07:15Z</time>
      </trkpt>
      <trkpt lat="42.285578" lon="2.484215">
        <ele>784.014</ele>
        <time>2021-05-27T19:07:17Z</time>
      </trkpt>
      <trkpt lat="42.285589" lon="2.484250">
        <ele>783.654</ele>
        <time>2021-05-27T19:07:19Z</time>
      </trkpt>
      <trkpt lat="42.285607" lon="2.484275">
        <ele>783.981</ele>
        <time>2021-05-27T19:07:21Z</time>
      </trkpt>
      <trkpt lat="42.285624" lon="2.484297">
        <ele>784.226</ele>
        <time>2021-05-27T19:07:23Z</time>
      </trkpt>
      <trkpt lat="42.285643" lon="2.484322">
        <ele>784.539</ele>
        <time>2021-05-27T19:07:25Z</time>
      </trkpt>
      <trkpt lat="42.285659" lon="2.484354">
        <ele>784.435</ele>
        <time>2021-05-27T19:07:27Z</time>
      </trkpt>
      <trkpt lat="42.285678" lon="2.484382">
        <ele>784.664</ele>
        <time>2021-05-27T19:07:29Z</time>
      </trkpt>
      <trkpt lat="42.285695" lon="2.484415">
        <ele>784.506</ele>
        <time>2021-05-27T19:07:31Z</time>
      </trkpt>
      <trkpt lat="42.285713" lon="2.484448">
        <ele>784.416</ele>
        <time>2021-05-27T19:07:32Z</time>
      </trkpt>
      <trkpt lat="42.285735" lon="2.484485">
        <ele>784.108</ele>
        <time>2021-05-27T19:07:34Z</time>
      </trkpt>
      <trkpt lat="42.285748" lon="2.484503">
        <ele>784.193</ele>
        <time>2021-05-27T19:07:35Z</time>
      </trkpt>
      <trkpt lat="42.285764" lon="2.484525">
        <ele>784.060</ele>
        <time>2021-05-27T19:07:36Z</time>
      </trkpt>
      <trkpt lat="42.285780" lon="2.484538">
        <ele>784.358</ele>
        <time>2021-05-27T19:07:37Z</time>
      </trkpt>
      <trkpt lat="42.285819" lon="2.484572">
        <ele>784.898</ele>
        <time>2021-05-27T19:07:39Z</time>
      </trkpt>
      <trkpt lat="42.285857" lon="2.484595">
        <ele>784.865</ele>
        <time>2021-05-27T19:07:41Z</time>
      </trkpt>
      <trkpt lat="42.285877" lon="2.484603">
        <ele>784.770</ele>
        <time>2021-05-27T19:07:43Z</time>
      </trkpt>
      <trkpt lat="42.285898" lon="2.484606">
        <ele>784.993</ele>
        <time>2021-05-27T19:07:44Z</time>
      </trkpt>
      <trkpt lat="42.285918" lon="2.484604">
        <ele>785.269</ele>
        <time>2021-05-27T19:07:45Z</time>
      </trkpt>
      <trkpt lat="42.285938" lon="2.484601">
        <ele>785.628</ele>
        <time>2021-05-27T19:07:46Z</time>
      </trkpt>
      <trkpt lat="42.285958" lon="2.484600">
        <ele>786.089</ele>
        <time>2021-05-27T19:07:47Z</time>
      </trkpt>
      <trkpt lat="42.285976" lon="2.484605">
        <ele>786.017</ele>
        <time>2021-05-27T19:07:48Z</time>
      </trkpt>
      <trkpt lat="42.286014" lon="2.484608">
        <ele>786.308</ele>
        <time>2021-05-27T19:07:50Z</time>
      </trkpt>
      <trkpt lat="42.286034" lon="2.484607">
        <ele>786.619</ele>
        <time>2021-05-27T19:07:51Z</time>
      </trkpt>
      <trkpt lat="42.286054" lon="2.484607">
        <ele>786.976</ele>
        <time>2021-05-27T19:07:52Z</time>
      </trkpt>
      <trkpt lat="42.286073" lon="2.484611">
        <ele>786.994</ele>
        <time>2021-05-27T19:07:53Z</time>
      </trkpt>
      <trkpt lat="42.286091" lon="2.484616">
        <ele>786.944</ele>
        <time>2021-05-27T19:07:54Z</time>
      </trkpt>
      <trkpt lat="42.286110" lon="2.484624">
        <ele>786.681</ele>
        <time>2021-05-27T19:07:55Z</time>
      </trkpt>
      <trkpt lat="42.286129" lon="2.484636">
        <ele>786.886</ele>
        <time>2021-05-27T19:07:56Z</time>
      </trkpt>
      <trkpt lat="42.286164" lon="2.484664">
        <ele>786.799</ele>
        <time>2021-05-27T19:07:57Z</time>
      </trkpt>
      <trkpt lat="42.286198" lon="2.484697">
        <ele>786.375</ele>
        <time>2021-05-27T19:07:59Z</time>
      </trkpt>
      <trkpt lat="42.286215" lon="2.484714">
        <ele>786.042</ele>
        <time>2021-05-27T19:08:00Z</time>
      </trkpt>
      <trkpt lat="42.286234" lon="2.484726">
        <ele>786.122</ele>
        <time>2021-05-27T19:08:01Z</time>
      </trkpt>
      <trkpt lat="42.286253" lon="2.484735">
        <ele>786.514</ele>
        <time>2021-05-27T19:08:02Z</time>
      </trkpt>
      <trkpt lat="42.286291" lon="2.484755">
        <ele>787.108</ele>
        <time>2021-05-27T19:08:04Z</time>
      </trkpt>
      <trkpt lat="42.286308" lon="2.484766">
        <ele>787.351</ele>
        <time>2021-05-27T19:08:05Z</time>
      </trkpt>
      <trkpt lat="42.286324" lon="2.484778">
        <ele>787.438</ele>
        <time>2021-05-27T19:08:06Z</time>
      </trkpt>
      <trkpt lat="42.286341" lon="2.484791">
        <ele>787.526</ele>
        <time>2021-05-27T19:08:07Z</time>
      </trkpt>
      <trkpt lat="42.286358" lon="2.484807">
        <ele>787.446</ele>
        <time>2021-05-27T19:08:08Z</time>
      </trkpt>
      <trkpt lat="42.286376" lon="2.484821">
        <ele>787.523</ele>
        <time>2021-05-27T19:08:09Z</time>
      </trkpt>
      <trkpt lat="42.286393" lon="2.484835">
        <ele>787.678</ele>
        <time>2021-05-27T19:08:10Z</time>
      </trkpt>
      <trkpt lat="42.286411" lon="2.484848">
        <ele>788.161</ele>
        <time>2021-05-27T19:08:11Z</time>
      </trkpt>
      <trkpt lat="42.286428" lon="2.484864">
        <ele>788.427</ele>
        <time>2021-05-27T19:08:12Z</time>
      </trkpt>
      <trkpt lat="42.286445" lon="2.484878">
        <ele>788.793</ele>
        <time>2021-05-27T19:08:13Z</time>
      </trkpt>
      <trkpt lat="42.286461" lon="2.484892">
        <ele>789.065</ele>
        <time>2021-05-27T19:08:14Z</time>
      </trkpt>
      <trkpt lat="42.286492" lon="2.484922">
        <ele>789.321</ele>
        <time>2021-05-27T19:08:16Z</time>
      </trkpt>
      <trkpt lat="42.286507" lon="2.484939">
        <ele>789.308</ele>
        <time>2021-05-27T19:08:18Z</time>
      </trkpt>
      <trkpt lat="42.286522" lon="2.484953">
        <ele>789.416</ele>
        <time>2021-05-27T19:08:19Z</time>
      </trkpt>
      <trkpt lat="42.286536" lon="2.484969">
        <ele>789.373</ele>
        <time>2021-05-27T19:08:20Z</time>
      </trkpt>
      <trkpt lat="42.286550" lon="2.484987">
        <ele>789.041</ele>
        <time>2021-05-27T19:08:21Z</time>
      </trkpt>
      <trkpt lat="42.286565" lon="2.485003">
        <ele>789.051</ele>
        <time>2021-05-27T19:08:22Z</time>
      </trkpt>
      <trkpt lat="42.286578" lon="2.485021">
        <ele>789.148</ele>
        <time>2021-05-27T19:08:23Z</time>
      </trkpt>
      <trkpt lat="42.286591" lon="2.485041">
        <ele>789.083</ele>
        <time>2021-05-27T19:08:24Z</time>
      </trkpt>
      <trkpt lat="42.286615" lon="2.485076">
        <ele>789.046</ele>
        <time>2021-05-27T19:08:26Z</time>
      </trkpt>
      <trkpt lat="42.286637" lon="2.485108">
        <ele>789.082</ele>
        <time>2021-05-27T19:08:28Z</time>
      </trkpt>
      <trkpt lat="42.286657" lon="2.485147">
        <ele>788.636</ele>
        <time>2021-05-27T19:08:30Z</time>
      </trkpt>
      <trkpt lat="42.286676" lon="2.485190">
        <ele>788.117</ele>
        <time>2021-05-27T19:08:31Z</time>
      </trkpt>
      <trkpt lat="42.286697" lon="2.485224">
        <ele>788.018</ele>
        <time>2021-05-27T19:08:34Z</time>
      </trkpt>
      <trkpt lat="42.286722" lon="2.485255">
        <ele>788.308</ele>
        <time>2021-05-27T19:08:36Z</time>
      </trkpt>
      <trkpt lat="42.286751" lon="2.485284">
        <ele>788.940</ele>
        <time>2021-05-27T19:08:38Z</time>
      </trkpt>
      <trkpt lat="42.286782" lon="2.485312">
        <ele>789.687</ele>
        <time>2021-05-27T19:08:39Z</time>
      </trkpt>
      <trkpt lat="42.286797" lon="2.485327">
        <ele>789.945</ele>
        <time>2021-05-27T19:08:40Z</time>
      </trkpt>
      <trkpt lat="42.286812" lon="2.485343">
        <ele>790.135</ele>
        <time>2021-05-27T19:08:41Z</time>
      </trkpt>
      <trkpt lat="42.286827" lon="2.485356">
        <ele>790.482</ele>
        <time>2021-05-27T19:08:43Z</time>
      </trkpt>
      <trkpt lat="42.286851" lon="2.485393">
        <ele>790.367</ele>
        <time>2021-05-27T19:08:44Z</time>
      </trkpt>
      <trkpt lat="42.286864" lon="2.485410">
        <ele>790.420</ele>
        <time>2021-05-27T19:08:45Z</time>
      </trkpt>
      <trkpt lat="42.286878" lon="2.485430">
        <ele>790.416</ele>
        <time>2021-05-27T19:08:46Z</time>
      </trkpt>
      <trkpt lat="42.286892" lon="2.485448">
        <ele>790.421</ele>
        <time>2021-05-27T19:08:47Z</time>
      </trkpt>
      <trkpt lat="42.286919" lon="2.485485">
        <ele>790.541</ele>
        <time>2021-05-27T19:08:49Z</time>
      </trkpt>
      <trkpt lat="42.286933" lon="2.485505">
        <ele>790.505</ele>
        <time>2021-05-27T19:08:50Z</time>
      </trkpt>
      <trkpt lat="42.286946" lon="2.485523">
        <ele>790.508</ele>
        <time>2021-05-27T19:08:51Z</time>
      </trkpt>
      <trkpt lat="42.286959" lon="2.485543">
        <ele>790.659</ele>
        <time>2021-05-27T19:08:52Z</time>
      </trkpt>
      <trkpt lat="42.286984" lon="2.485582">
        <ele>791.326</ele>
        <time>2021-05-27T19:08:54Z</time>
      </trkpt>
      <trkpt lat="42.286995" lon="2.485603">
        <ele>791.624</ele>
        <time>2021-05-27T19:08:56Z</time>
      </trkpt>
      <trkpt lat="42.287005" lon="2.485625">
        <ele>791.734</ele>
        <time>2021-05-27T19:08:57Z</time>
      </trkpt>
      <trkpt lat="42.287023" lon="2.485671">
        <ele>791.821</ele>
        <time>2021-05-27T19:08:58Z</time>
      </trkpt>
      <trkpt lat="42.287038" lon="2.485718">
        <ele>791.686</ele>
        <time>2021-05-27T19:09:00Z</time>
      </trkpt>
      <trkpt lat="42.287046" lon="2.485741">
        <ele>791.559</ele>
        <time>2021-05-27T19:09:01Z</time>
      </trkpt>
      <trkpt lat="42.287053" lon="2.485765">
        <ele>791.335</ele>
        <time>2021-05-27T19:09:02Z</time>
      </trkpt>
      <trkpt lat="42.287060" lon="2.485789">
        <ele>791.269</ele>
        <time>2021-05-27T19:09:03Z</time>
      </trkpt>
      <trkpt lat="42.287066" lon="2.485814">
        <ele>790.904</ele>
        <time>2021-05-27T19:09:05Z</time>
      </trkpt>
      <trkpt lat="42.287072" lon="2.485841">
        <ele>790.524</ele>
        <time>2021-05-27T19:09:06Z</time>
      </trkpt>
      <trkpt lat="42.287078" lon="2.485869">
        <ele>790.008</ele>
        <time>2021-05-27T19:09:07Z</time>
      </trkpt>
      <trkpt lat="42.287085" lon="2.485895">
        <ele>789.693</ele>
        <time>2021-05-27T19:09:08Z</time>
      </trkpt>
      <trkpt lat="42.287092" lon="2.485920">
        <ele>789.260</ele>
        <time>2021-05-27T19:09:09Z</time>
      </trkpt>
      <trkpt lat="42.287101" lon="2.485946">
        <ele>788.868</ele>
        <time>2021-05-27T19:09:10Z</time>
      </trkpt>
      <trkpt lat="42.287112" lon="2.485969">
        <ele>788.698</ele>
        <time>2021-05-27T19:09:11Z</time>
      </trkpt>
      <trkpt lat="42.287124" lon="2.485991">
        <ele>788.335</ele>
        <time>2021-05-27T19:09:12Z</time>
      </trkpt>
      <trkpt lat="42.287138" lon="2.486009">
        <ele>788.370</ele>
        <time>2021-05-27T19:09:13Z</time>
      </trkpt>
      <trkpt lat="42.287156" lon="2.486023">
        <ele>788.573</ele>
        <time>2021-05-27T19:09:14Z</time>
      </trkpt>
      <trkpt lat="42.287191" lon="2.486047">
        <ele>789.019</ele>
        <time>2021-05-27T19:09:15Z</time>
      </trkpt>
      <trkpt lat="42.287208" lon="2.486056">
        <ele>789.223</ele>
        <time>2021-05-27T19:09:16Z</time>
      </trkpt>
      <trkpt lat="42.287245" lon="2.486068">
        <ele>790.183</ele>
        <time>2021-05-27T19:09:18Z</time>
      </trkpt>
      <trkpt lat="42.287263" lon="2.486076">
        <ele>790.311</ele>
        <time>2021-05-27T19:09:19Z</time>
      </trkpt>
      <trkpt lat="42.287282" lon="2.486084">
        <ele>790.608</ele>
        <time>2021-05-27T19:09:21Z</time>
      </trkpt>
      <trkpt lat="42.287319" lon="2.486100">
        <ele>791.129</ele>
        <time>2021-05-27T19:09:22Z</time>
      </trkpt>
      <trkpt lat="42.287337" lon="2.486112">
        <ele>791.176</ele>
        <time>2021-05-27T19:09:23Z</time>
      </trkpt>
      <trkpt lat="42.287356" lon="2.486122">
        <ele>791.254</ele>
        <time>2021-05-27T19:09:24Z</time>
      </trkpt>
      <trkpt lat="42.287376" lon="2.486133">
        <ele>791.454</ele>
        <time>2021-05-27T19:09:25Z</time>
      </trkpt>
      <trkpt lat="42.287395" lon="2.486146">
        <ele>791.461</ele>
        <time>2021-05-27T19:09:26Z</time>
      </trkpt>
      <trkpt lat="42.287413" lon="2.486159">
        <ele>791.346</ele>
        <time>2021-05-27T19:09:27Z</time>
      </trkpt>
      <trkpt lat="42.287430" lon="2.486172">
        <ele>791.299</ele>
        <time>2021-05-27T19:09:28Z</time>
      </trkpt>
      <trkpt lat="42.287448" lon="2.486187">
        <ele>791.195</ele>
        <time>2021-05-27T19:09:29Z</time>
      </trkpt>
      <trkpt lat="42.287466" lon="2.486202">
        <ele>790.979</ele>
        <time>2021-05-27T19:09:30Z</time>
      </trkpt>
      <trkpt lat="42.287499" lon="2.486233">
        <ele>790.405</ele>
        <time>2021-05-27T19:09:32Z</time>
      </trkpt>
      <trkpt lat="42.287515" lon="2.486253">
        <ele>790.225</ele>
        <time>2021-05-27T19:09:33Z</time>
      </trkpt>
      <trkpt lat="42.287530" lon="2.486272">
        <ele>790.008</ele>
        <time>2021-05-27T19:09:34Z</time>
      </trkpt>
      <trkpt lat="42.287544" lon="2.486294">
        <ele>789.724</ele>
        <time>2021-05-27T19:09:35Z</time>
      </trkpt>
      <trkpt lat="42.287559" lon="2.486311">
        <ele>789.711</ele>
        <time>2021-05-27T19:09:36Z</time>
      </trkpt>
      <trkpt lat="42.287575" lon="2.486328">
        <ele>789.929</ele>
        <time>2021-05-27T19:09:37Z</time>
      </trkpt>
      <trkpt lat="42.287591" lon="2.486344">
        <ele>790.159</ele>
        <time>2021-05-27T19:09:39Z</time>
      </trkpt>
      <trkpt lat="42.287607" lon="2.486362">
        <ele>790.266</ele>
        <time>2021-05-27T19:09:40Z</time>
      </trkpt>
      <trkpt lat="42.287636" lon="2.486398">
        <ele>790.571</ele>
        <time>2021-05-27T19:09:41Z</time>
      </trkpt>
      <trkpt lat="42.287648" lon="2.486416">
        <ele>790.854</ele>
        <time>2021-05-27T19:09:42Z</time>
      </trkpt>
      <trkpt lat="42.287670" lon="2.486451">
        <ele>791.140</ele>
        <time>2021-05-27T19:09:44Z</time>
      </trkpt>
      <trkpt lat="42.287685" lon="2.486493">
        <ele>790.975</ele>
        <time>2021-05-27T19:09:46Z</time>
      </trkpt>
      <trkpt lat="42.287690" lon="2.486520">
        <ele>790.428</ele>
        <time>2021-05-27T19:09:48Z</time>
      </trkpt>
      <trkpt lat="42.287694" lon="2.486546">
        <ele>789.920</ele>
        <time>2021-05-27T19:09:49Z</time>
      </trkpt>
      <trkpt lat="42.287700" lon="2.486572">
        <ele>789.508</ele>
        <time>2021-05-27T19:09:50Z</time>
      </trkpt>
      <trkpt lat="42.287717" lon="2.486621">
        <ele>789.284</ele>
        <time>2021-05-27T19:09:51Z</time>
      </trkpt>
      <trkpt lat="42.287725" lon="2.486645">
        <ele>789.061</ele>
        <time>2021-05-27T19:09:53Z</time>
      </trkpt>
      <trkpt lat="42.287733" lon="2.486669">
        <ele>788.999</ele>
        <time>2021-05-27T19:09:54Z</time>
      </trkpt>
      <trkpt lat="42.287740" lon="2.486694">
        <ele>788.979</ele>
        <time>2021-05-27T19:09:55Z</time>
      </trkpt>
      <trkpt lat="42.287746" lon="2.486719">
        <ele>788.976</ele>
        <time>2021-05-27T19:09:56Z</time>
      </trkpt>
      <trkpt lat="42.287751" lon="2.486745">
        <ele>788.821</ele>
        <time>2021-05-27T19:09:57Z</time>
      </trkpt>
      <trkpt lat="42.287757" lon="2.486770">
        <ele>788.734</ele>
        <time>2021-05-27T19:09:58Z</time>
      </trkpt>
      <trkpt lat="42.287763" lon="2.486794">
        <ele>788.730</ele>
        <time>2021-05-27T19:09:59Z</time>
      </trkpt>
      <trkpt lat="42.287776" lon="2.486838">
        <ele>788.856</ele>
        <time>2021-05-27T19:10:01Z</time>
      </trkpt>
      <trkpt lat="42.287782" lon="2.486865">
        <ele>788.859</ele>
        <time>2021-05-27T19:10:02Z</time>
      </trkpt>
      <trkpt lat="42.287795" lon="2.486906">
        <ele>788.914</ele>
        <time>2021-05-27T19:10:04Z</time>
      </trkpt>
      <trkpt lat="42.287812" lon="2.486949">
        <ele>789.208</ele>
        <time>2021-05-27T19:10:06Z</time>
      </trkpt>
      <trkpt lat="42.287833" lon="2.486986">
        <ele>789.322</ele>
        <time>2021-05-27T19:10:08Z</time>
      </trkpt>
      <trkpt lat="42.287844" lon="2.487006">
        <ele>789.389</ele>
        <time>2021-05-27T19:10:09Z</time>
      </trkpt>
      <trkpt lat="42.287856" lon="2.487025">
        <ele>789.387</ele>
        <time>2021-05-27T19:10:10Z</time>
      </trkpt>
      <trkpt lat="42.287870" lon="2.487044">
        <ele>789.527</ele>
        <time>2021-05-27T19:10:11Z</time>
      </trkpt>
      <trkpt lat="42.287899" lon="2.487076">
        <ele>790.064</ele>
        <time>2021-05-27T19:10:12Z</time>
      </trkpt>
      <trkpt lat="42.287915" lon="2.487091">
        <ele>790.319</ele>
        <time>2021-05-27T19:10:14Z</time>
      </trkpt>
      <trkpt lat="42.287947" lon="2.487120">
        <ele>791.052</ele>
        <time>2021-05-27T19:10:15Z</time>
      </trkpt>
      <trkpt lat="42.287963" lon="2.487134">
        <ele>791.338</ele>
        <time>2021-05-27T19:10:16Z</time>
      </trkpt>
      <trkpt lat="42.287979" lon="2.487149">
        <ele>791.546</ele>
        <time>2021-05-27T19:10:17Z</time>
      </trkpt>
      <trkpt lat="42.287993" lon="2.487165">
        <ele>791.588</ele>
        <time>2021-05-27T19:10:18Z</time>
      </trkpt>
      <trkpt lat="42.288008" lon="2.487181">
        <ele>791.616</ele>
        <time>2021-05-27T19:10:19Z</time>
      </trkpt>
      <trkpt lat="42.288023" lon="2.487196">
        <ele>791.608</ele>
        <time>2021-05-27T19:10:20Z</time>
      </trkpt>
      <trkpt lat="42.288048" lon="2.487230">
        <ele>791.471</ele>
        <time>2021-05-27T19:10:23Z</time>
      </trkpt>
      <trkpt lat="42.288060" lon="2.487249">
        <ele>791.658</ele>
        <time>2021-05-27T19:10:24Z</time>
      </trkpt>
      <trkpt lat="42.288081" lon="2.487290">
        <ele>791.816</ele>
        <time>2021-05-27T19:10:25Z</time>
      </trkpt>
      <trkpt lat="42.288091" lon="2.487311">
        <ele>791.816</ele>
        <time>2021-05-27T19:10:26Z</time>
      </trkpt>
      <trkpt lat="42.288099" lon="2.487334">
        <ele>791.773</ele>
        <time>2021-05-27T19:10:27Z</time>
      </trkpt>
      <trkpt lat="42.288112" lon="2.487385">
        <ele>791.028</ele>
        <time>2021-05-27T19:10:29Z</time>
      </trkpt>
      <trkpt lat="42.288118" lon="2.487410">
        <ele>790.681</ele>
        <time>2021-05-27T19:10:30Z</time>
      </trkpt>
      <trkpt lat="42.288124" lon="2.487433">
        <ele>790.357</ele>
        <time>2021-05-27T19:10:32Z</time>
      </trkpt>
      <trkpt lat="42.288131" lon="2.487479">
        <ele>789.422</ele>
        <time>2021-05-27T19:10:33Z</time>
      </trkpt>
      <trkpt lat="42.288134" lon="2.487526">
        <ele>788.462</ele>
        <time>2021-05-27T19:10:35Z</time>
      </trkpt>
      <trkpt lat="42.288139" lon="2.487576">
        <ele>787.508</ele>
        <time>2021-05-27T19:10:37Z</time>
      </trkpt>
      <trkpt lat="42.288148" lon="2.487622">
        <ele>786.708</ele>
        <time>2021-05-27T19:10:39Z</time>
      </trkpt>
      <trkpt lat="42.288154" lon="2.487646">
        <ele>786.459</ele>
        <time>2021-05-27T19:10:40Z</time>
      </trkpt>
      <trkpt lat="42.288170" lon="2.487691">
        <ele>785.876</ele>
        <time>2021-05-27T19:10:42Z</time>
      </trkpt>
      <trkpt lat="42.288180" lon="2.487714">
        <ele>785.414</ele>
        <time>2021-05-27T19:10:43Z</time>
      </trkpt>
      <trkpt lat="42.288192" lon="2.487735">
        <ele>785.274</ele>
        <time>2021-05-27T19:10:45Z</time>
      </trkpt>
      <trkpt lat="42.288206" lon="2.487754">
        <ele>785.061</ele>
        <time>2021-05-27T19:10:46Z</time>
      </trkpt>
      <trkpt lat="42.288222" lon="2.487770">
        <ele>784.816</ele>
        <time>2021-05-27T19:10:47Z</time>
      </trkpt>
      <trkpt lat="42.288238" lon="2.487785">
        <ele>784.779</ele>
        <time>2021-05-27T19:10:48Z</time>
      </trkpt>
      <trkpt lat="42.288256" lon="2.487799">
        <ele>784.645</ele>
        <time>2021-05-27T19:10:49Z</time>
      </trkpt>
      <trkpt lat="42.288292" lon="2.487820">
        <ele>784.585</ele>
        <time>2021-05-27T19:10:50Z</time>
      </trkpt>
      <trkpt lat="42.288310" lon="2.487826">
        <ele>784.689</ele>
        <time>2021-05-27T19:10:51Z</time>
      </trkpt>
      <trkpt lat="42.288345" lon="2.487833">
        <ele>784.817</ele>
        <time>2021-05-27T19:10:53Z</time>
      </trkpt>
      <trkpt lat="42.288382" lon="2.487837">
        <ele>784.808</ele>
        <time>2021-05-27T19:10:55Z</time>
      </trkpt>
      <trkpt lat="42.288402" lon="2.487837">
        <ele>784.825</ele>
        <time>2021-05-27T19:10:56Z</time>
      </trkpt>
      <trkpt lat="42.288422" lon="2.487838">
        <ele>784.822</ele>
        <time>2021-05-27T19:10:57Z</time>
      </trkpt>
      <trkpt lat="42.288444" lon="2.487839">
        <ele>784.850</ele>
        <time>2021-05-27T19:10:58Z</time>
      </trkpt>
      <trkpt lat="42.288483" lon="2.487841">
        <ele>784.820</ele>
        <time>2021-05-27T19:11:00Z</time>
      </trkpt>
      <trkpt lat="42.288501" lon="2.487844">
        <ele>784.787</ele>
        <time>2021-05-27T19:11:01Z</time>
      </trkpt>
      <trkpt lat="42.288522" lon="2.487847">
        <ele>784.642</ele>
        <time>2021-05-27T19:11:02Z</time>
      </trkpt>
      <trkpt lat="42.288543" lon="2.487850">
        <ele>784.595</ele>
        <time>2021-05-27T19:11:03Z</time>
      </trkpt>
      <trkpt lat="42.288565" lon="2.487855">
        <ele>784.361</ele>
        <time>2021-05-27T19:11:04Z</time>
      </trkpt>
      <trkpt lat="42.288587" lon="2.487860">
        <ele>784.113</ele>
        <time>2021-05-27T19:11:06Z</time>
      </trkpt>
      <trkpt lat="42.288607" lon="2.487865">
        <ele>783.943</ele>
        <time>2021-05-27T19:11:07Z</time>
      </trkpt>
      <trkpt lat="42.288624" lon="2.487873">
        <ele>783.707</ele>
        <time>2021-05-27T19:11:08Z</time>
      </trkpt>
      <trkpt lat="42.288658" lon="2.487882">
        <ele>783.608</ele>
        <time>2021-05-27T19:11:10Z</time>
      </trkpt>
      <trkpt lat="42.288710" lon="2.487900">
        <ele>783.218</ele>
        <time>2021-05-27T19:11:12Z</time>
      </trkpt>
      <trkpt lat="42.288730" lon="2.487906">
        <ele>783.175</ele>
        <time>2021-05-27T19:11:13Z</time>
      </trkpt>
      <trkpt lat="42.288751" lon="2.487911">
        <ele>783.013</ele>
        <time>2021-05-27T19:11:14Z</time>
      </trkpt>
      <trkpt lat="42.288772" lon="2.487918">
        <ele>782.983</ele>
        <time>2021-05-27T19:11:16Z</time>
      </trkpt>
      <trkpt lat="42.288792" lon="2.487925">
        <ele>782.750</ele>
        <time>2021-05-27T19:11:17Z</time>
      </trkpt>
      <trkpt lat="42.288834" lon="2.487936">
        <ele>782.515</ele>
        <time>2021-05-27T19:11:18Z</time>
      </trkpt>
      <trkpt lat="42.288854" lon="2.487942">
        <ele>782.448</ele>
        <time>2021-05-27T19:11:19Z</time>
      </trkpt>
      <trkpt lat="42.288875" lon="2.487947">
        <ele>782.424</ele>
        <time>2021-05-27T19:11:21Z</time>
      </trkpt>
      <trkpt lat="42.288894" lon="2.487950">
        <ele>782.593</ele>
        <time>2021-05-27T19:11:22Z</time>
      </trkpt>
      <trkpt lat="42.288929" lon="2.487956">
        <ele>783.565</ele>
        <time>2021-05-27T19:11:23Z</time>
      </trkpt>
      <trkpt lat="42.288948" lon="2.487963">
        <ele>783.921</ele>
        <time>2021-05-27T19:11:24Z</time>
      </trkpt>
      <trkpt lat="42.288968" lon="2.487971">
        <ele>784.308</ele>
        <time>2021-05-27T19:11:25Z</time>
      </trkpt>
      <trkpt lat="42.288988" lon="2.487983">
        <ele>784.696</ele>
        <time>2021-05-27T19:11:26Z</time>
      </trkpt>
      <trkpt lat="42.289005" lon="2.487994">
        <ele>784.783</ele>
        <time>2021-05-27T19:11:27Z</time>
      </trkpt>
      <trkpt lat="42.289038" lon="2.488020">
        <ele>785.031</ele>
        <time>2021-05-27T19:11:29Z</time>
      </trkpt>
      <trkpt lat="42.289059" lon="2.488035">
        <ele>785.271</ele>
        <time>2021-05-27T19:11:30Z</time>
      </trkpt>
      <trkpt lat="42.289075" lon="2.488048">
        <ele>785.358</ele>
        <time>2021-05-27T19:11:31Z</time>
      </trkpt>
      <trkpt lat="42.289090" lon="2.488062">
        <ele>785.593</ele>
        <time>2021-05-27T19:11:32Z</time>
      </trkpt>
      <trkpt lat="42.289104" lon="2.488078">
        <ele>785.726</ele>
        <time>2021-05-27T19:11:34Z</time>
      </trkpt>
      <trkpt lat="42.289130" lon="2.488119">
        <ele>785.722</ele>
        <time>2021-05-27T19:11:35Z</time>
      </trkpt>
      <trkpt lat="42.289142" lon="2.488140">
        <ele>785.721</ele>
        <time>2021-05-27T19:11:36Z</time>
      </trkpt>
      <trkpt lat="42.289155" lon="2.488161">
        <ele>785.841</ele>
        <time>2021-05-27T19:11:38Z</time>
      </trkpt>
      <trkpt lat="42.289166" lon="2.488183">
        <ele>785.805</ele>
        <time>2021-05-27T19:11:39Z</time>
      </trkpt>
      <trkpt lat="42.289186" lon="2.488213">
        <ele>786.208</ele>
        <time>2021-05-27T19:11:40Z</time>
      </trkpt>
      <trkpt lat="42.289206" lon="2.488255">
        <ele>786.449</ele>
        <time>2021-05-27T19:11:43Z</time>
      </trkpt>
      <trkpt lat="42.289233" lon="2.488357">
        <ele>786.146</ele>
        <time>2021-05-27T19:11:47Z</time>
      </trkpt>
      <trkpt lat="42.289241" lon="2.488395">
        <ele>786.334</ele>
        <time>2021-05-27T19:11:49Z</time>
      </trkpt>
      <trkpt lat="42.289246" lon="2.488420">
        <ele>786.464</ele>
        <time>2021-05-27T19:11:50Z</time>
      </trkpt>
      <trkpt lat="42.289249" lon="2.488447">
        <ele>786.491</ele>
        <time>2021-05-27T19:11:51Z</time>
      </trkpt>
      <trkpt lat="42.289256" lon="2.488489">
        <ele>786.596</ele>
        <time>2021-05-27T19:11:54Z</time>
      </trkpt>
      <trkpt lat="42.289257" lon="2.488529">
        <ele>786.259</ele>
        <time>2021-05-27T19:11:55Z</time>
      </trkpt>
      <trkpt lat="42.289260" lon="2.488555">
        <ele>786.245</ele>
        <time>2021-05-27T19:11:56Z</time>
      </trkpt>
      <trkpt lat="42.289270" lon="2.488589">
        <ele>786.626</ele>
        <time>2021-05-27T19:11:57Z</time>
      </trkpt>
      <trkpt lat="42.289279" lon="2.488642">
        <ele>787.147</ele>
        <time>2021-05-27T19:12:00Z</time>
      </trkpt>
      <trkpt lat="42.289284" lon="2.488671">
        <ele>787.511</ele>
        <time>2021-05-27T19:12:01Z</time>
      </trkpt>
      <trkpt lat="42.289289" lon="2.488713">
        <ele>788.008</ele>
        <time>2021-05-27T19:12:03Z</time>
      </trkpt>
      <trkpt lat="42.289296" lon="2.488814">
        <ele>788.759</ele>
        <time>2021-05-27T19:12:10Z</time>
      </trkpt>
      <trkpt lat="42.289289" lon="2.488848">
        <ele>788.226</ele>
        <time>2021-05-27T19:12:12Z</time>
      </trkpt>
      <trkpt lat="42.289285" lon="2.488972">
        <ele>789.244</ele>
        <time>2021-05-27T19:12:18Z</time>
      </trkpt>
      <trkpt lat="42.289267" lon="2.489107">
        <ele>789.994</ele>
        <time>2021-05-27T19:12:26Z</time>
      </trkpt>
      <trkpt lat="42.289287" lon="2.489230">
        <ele>791.961</ele>
        <time>2021-05-27T19:12:35Z</time>
      </trkpt>
      <trkpt lat="42.289301" lon="2.489284">
        <ele>792.746</ele>
        <time>2021-05-27T19:12:37Z</time>
      </trkpt>
      <trkpt lat="42.289309" lon="2.489316">
        <ele>793.279</ele>
        <time>2021-05-27T19:12:39Z</time>
      </trkpt>
      <trkpt lat="42.289317" lon="2.489350">
        <ele>793.775</ele>
        <time>2021-05-27T19:12:41Z</time>
      </trkpt>
      <trkpt lat="42.289327" lon="2.489384">
        <ele>794.458</ele>
        <time>2021-05-27T19:12:43Z</time>
      </trkpt>
      <trkpt lat="42.289344" lon="2.489474">
        <ele>795.552</ele>
        <time>2021-05-27T19:12:48Z</time>
      </trkpt>
      <trkpt lat="42.289358" lon="2.489558">
        <ele>796.317</ele>
        <time>2021-05-27T19:12:52Z</time>
      </trkpt>
      <trkpt lat="42.289358" lon="2.489594">
        <ele>796.108</ele>
        <time>2021-05-27T19:12:54Z</time>
      </trkpt>
      <trkpt lat="42.289359" lon="2.489645">
        <ele>795.932</ele>
        <time>2021-05-27T19:12:56Z</time>
      </trkpt>
      <trkpt lat="42.289345" lon="2.489677">
        <ele>794.739</ele>
        <time>2021-05-27T19:12:58Z</time>
      </trkpt>
      <trkpt lat="42.289326" lon="2.489704">
        <ele>793.147</ele>
        <time>2021-05-27T19:13:01Z</time>
      </trkpt>
      <trkpt lat="42.289314" lon="2.489733">
        <ele>792.147</ele>
        <time>2021-05-27T19:13:03Z</time>
      </trkpt>
      <trkpt lat="42.289299" lon="2.489775">
        <ele>791.044</ele>
        <time>2021-05-27T19:13:05Z</time>
      </trkpt>
      <trkpt lat="42.289285" lon="2.489822">
        <ele>790.119</ele>
        <time>2021-05-27T19:13:07Z</time>
      </trkpt>
      <trkpt lat="42.289279" lon="2.489849">
        <ele>789.822</ele>
        <time>2021-05-27T19:13:08Z</time>
      </trkpt>
      <trkpt lat="42.289274" lon="2.489879">
        <ele>789.568</ele>
        <time>2021-05-27T19:13:09Z</time>
      </trkpt>
      <trkpt lat="42.289269" lon="2.489941">
        <ele>789.443</ele>
        <time>2021-05-27T19:13:10Z</time>
      </trkpt>
      <trkpt lat="42.289264" lon="2.490014">
        <ele>789.364</ele>
        <time>2021-05-27T19:13:13Z</time>
      </trkpt>
      <trkpt lat="42.289264" lon="2.490040">
        <ele>789.210</ele>
        <time>2021-05-27T19:13:14Z</time>
      </trkpt>
      <trkpt lat="42.289267" lon="2.490065">
        <ele>789.408</ele>
        <time>2021-05-27T19:13:16Z</time>
      </trkpt>
      <trkpt lat="42.289268" lon="2.490091">
        <ele>789.471</ele>
        <time>2021-05-27T19:13:17Z</time>
      </trkpt>
      <trkpt lat="42.289268" lon="2.490119">
        <ele>789.478</ele>
        <time>2021-05-27T19:13:18Z</time>
      </trkpt>
      <trkpt lat="42.289270" lon="2.490149">
        <ele>789.536</ele>
        <time>2021-05-27T19:13:19Z</time>
      </trkpt>
      <trkpt lat="42.289273" lon="2.490173">
        <ele>789.646</ele>
        <time>2021-05-27T19:13:20Z</time>
      </trkpt>
      <trkpt lat="42.289284" lon="2.490211">
        <ele>789.923</ele>
        <time>2021-05-27T19:13:21Z</time>
      </trkpt>
      <trkpt lat="42.289301" lon="2.490239">
        <ele>790.528</ele>
        <time>2021-05-27T19:13:23Z</time>
      </trkpt>
      <trkpt lat="42.289307" lon="2.490274">
        <ele>790.651</ele>
        <time>2021-05-27T19:13:32Z</time>
      </trkpt>
      <trkpt lat="42.289313" lon="2.490304">
        <ele>790.257</ele>
        <time>2021-05-27T19:13:33Z</time>
      </trkpt>
      <trkpt lat="42.289334" lon="2.490351">
        <ele>789.991</ele>
        <time>2021-05-27T19:13:34Z</time>
      </trkpt>
      <trkpt lat="42.289347" lon="2.490374">
        <ele>789.881</ele>
        <time>2021-05-27T19:13:35Z</time>
      </trkpt>
      <trkpt lat="42.289360" lon="2.490396">
        <ele>789.719</ele>
        <time>2021-05-27T19:13:36Z</time>
      </trkpt>
      <trkpt lat="42.289376" lon="2.490416">
        <ele>789.708</ele>
        <time>2021-05-27T19:13:37Z</time>
      </trkpt>
      <trkpt lat="42.289393" lon="2.490436">
        <ele>789.786</ele>
        <time>2021-05-27T19:13:39Z</time>
      </trkpt>
      <trkpt lat="42.289410" lon="2.490455">
        <ele>789.783</ele>
        <time>2021-05-27T19:13:40Z</time>
      </trkpt>
      <trkpt lat="42.289427" lon="2.490474">
        <ele>789.681</ele>
        <time>2021-05-27T19:13:41Z</time>
      </trkpt>
      <trkpt lat="42.289444" lon="2.490492">
        <ele>789.621</ele>
        <time>2021-05-27T19:13:42Z</time>
      </trkpt>
      <trkpt lat="42.289461" lon="2.490509">
        <ele>789.448</ele>
        <time>2021-05-27T19:13:43Z</time>
      </trkpt>
      <trkpt lat="42.289478" lon="2.490528">
        <ele>789.233</ele>
        <time>2021-05-27T19:13:44Z</time>
      </trkpt>
      <trkpt lat="42.289511" lon="2.490562">
        <ele>789.156</ele>
        <time>2021-05-27T19:13:45Z</time>
      </trkpt>
      <trkpt lat="42.289540" lon="2.490600">
        <ele>789.252</ele>
        <time>2021-05-27T19:13:47Z</time>
      </trkpt>
      <trkpt lat="42.289554" lon="2.490619">
        <ele>789.311</ele>
        <time>2021-05-27T19:13:48Z</time>
      </trkpt>
      <trkpt lat="42.289568" lon="2.490638">
        <ele>789.421</ele>
        <time>2021-05-27T19:13:50Z</time>
      </trkpt>
      <trkpt lat="42.289581" lon="2.490657">
        <ele>789.503</ele>
        <time>2021-05-27T19:13:51Z</time>
      </trkpt>
      <trkpt lat="42.289595" lon="2.490679">
        <ele>789.708</ele>
        <time>2021-05-27T19:13:52Z</time>
      </trkpt>
      <trkpt lat="42.289609" lon="2.490698">
        <ele>789.898</ele>
        <time>2021-05-27T19:13:53Z</time>
      </trkpt>
      <trkpt lat="42.289623" lon="2.490715">
        <ele>790.095</ele>
        <time>2021-05-27T19:13:54Z</time>
      </trkpt>
      <trkpt lat="42.289636" lon="2.490733">
        <ele>790.223</ele>
        <time>2021-05-27T19:13:55Z</time>
      </trkpt>
      <trkpt lat="42.289662" lon="2.490766">
        <ele>790.733</ele>
        <time>2021-05-27T19:13:57Z</time>
      </trkpt>
      <trkpt lat="42.289689" lon="2.490780">
        <ele>791.310</ele>
        <time>2021-05-27T19:13:58Z</time>
      </trkpt>
      <trkpt lat="42.289711" lon="2.490793">
        <ele>791.815</ele>
        <time>2021-05-27T19:14:00Z</time>
      </trkpt>
      <trkpt lat="42.289727" lon="2.490809">
        <ele>792.148</ele>
        <time>2021-05-27T19:14:02Z</time>
      </trkpt>
      <trkpt lat="42.289741" lon="2.490828">
        <ele>792.044</ele>
        <time>2021-05-27T19:14:04Z</time>
      </trkpt>
      <trkpt lat="42.289765" lon="2.490816">
        <ele>791.911</ele>
        <time>2021-05-27T19:14:08Z</time>
      </trkpt>
      <trkpt lat="42.289784" lon="2.490798">
        <ele>791.921</ele>
        <time>2021-05-27T19:14:10Z</time>
      </trkpt>
      <trkpt lat="42.289804" lon="2.490778">
        <ele>791.903</ele>
        <time>2021-05-27T19:14:11Z</time>
      </trkpt>
      <trkpt lat="42.289825" lon="2.490761">
        <ele>791.908</ele>
        <time>2021-05-27T19:14:13Z</time>
      </trkpt>
      <trkpt lat="42.289851" lon="2.490755">
        <ele>791.838</ele>
        <time>2021-05-27T19:14:15Z</time>
      </trkpt>
      <trkpt lat="42.289872" lon="2.490742">
        <ele>791.835</ele>
        <time>2021-05-27T19:14:17Z</time>
      </trkpt>
      <trkpt lat="42.289891" lon="2.490736">
        <ele>791.723</ele>
        <time>2021-05-27T19:14:20Z</time>
      </trkpt>
      <trkpt lat="42.289902" lon="2.490758">
        <ele>791.673</ele>
        <time>2021-05-27T19:14:33Z</time>
      </trkpt>
      <trkpt lat="42.289932" lon="2.490762">
        <ele>791.570</ele>
        <time>2021-05-27T19:14:34Z</time>
      </trkpt>
      <trkpt lat="42.289952" lon="2.490740">
        <ele>791.525</ele>
        <time>2021-05-27T19:14:37Z</time>
      </trkpt>
      <trkpt lat="42.289975" lon="2.490720">
        <ele>791.568</ele>
        <time>2021-05-27T19:14:38Z</time>
      </trkpt>
      <trkpt lat="42.289997" lon="2.490705">
        <ele>791.554</ele>
        <time>2021-05-27T19:14:40Z</time>
      </trkpt>
      <trkpt lat="42.290018" lon="2.490685">
        <ele>791.374</ele>
        <time>2021-05-27T19:14:42Z</time>
      </trkpt>
      <trkpt lat="42.290041" lon="2.490668">
        <ele>791.056</ele>
        <time>2021-05-27T19:14:44Z</time>
      </trkpt>
      <trkpt lat="42.290062" lon="2.490663">
        <ele>790.721</ele>
        <time>2021-05-27T19:14:46Z</time>
      </trkpt>
      <trkpt lat="42.290080" lon="2.490661">
        <ele>790.408</ele>
        <time>2021-05-27T19:14:55Z</time>
      </trkpt>
      <trkpt lat="42.290095" lon="2.490686">
        <ele>790.184</ele>
        <time>2021-05-27T19:15:06Z</time>
      </trkpt>
      <trkpt lat="42.290125" lon="2.490670">
        <ele>789.751</ele>
        <time>2021-05-27T19:15:09Z</time>
      </trkpt>
      <trkpt lat="42.290143" lon="2.490662">
        <ele>789.419</ele>
        <time>2021-05-27T19:15:11Z</time>
      </trkpt>
      <trkpt lat="42.290164" lon="2.490655">
        <ele>789.199</ele>
        <time>2021-05-27T19:15:14Z</time>
      </trkpt>
      <trkpt lat="42.290187" lon="2.490647">
        <ele>788.796</ele>
        <time>2021-05-27T19:15:17Z</time>
      </trkpt>
      <trkpt lat="42.290211" lon="2.490647">
        <ele>788.471</ele>
        <time>2021-05-27T19:15:20Z</time>
      </trkpt>
      <trkpt lat="42.290232" lon="2.490637">
        <ele>788.034</ele>
        <time>2021-05-27T19:15:35Z</time>
      </trkpt>
      <trkpt lat="42.290255" lon="2.490634">
        <ele>787.690</ele>
        <time>2021-05-27T19:16:18Z</time>
      </trkpt>
      <trkpt lat="42.290273" lon="2.490625">
        <ele>787.384</ele>
        <time>2021-05-27T19:16:20Z</time>
      </trkpt>
      <trkpt lat="42.290296" lon="2.490622">
        <ele>786.707</ele>
        <time>2021-05-27T19:16:31Z</time>
      </trkpt>
      <trkpt lat="42.290313" lon="2.490612">
        <ele>786.217</ele>
        <time>2021-05-27T19:16:34Z</time>
      </trkpt>
      <trkpt lat="42.290332" lon="2.490598">
        <ele>785.708</ele>
        <time>2021-05-27T19:16:36Z</time>
      </trkpt>
      <trkpt lat="42.290349" lon="2.490585">
        <ele>785.125</ele>
        <time>2021-05-27T19:16:37Z</time>
      </trkpt>
      <trkpt lat="42.290369" lon="2.490570">
        <ele>784.562</ele>
        <time>2021-05-27T19:16:40Z</time>
      </trkpt>
      <trkpt lat="42.290388" lon="2.490573">
        <ele>783.960</ele>
        <time>2021-05-27T19:16:51Z</time>
      </trkpt>
      <trkpt lat="42.290406" lon="2.490571">
        <ele>783.470</ele>
        <time>2021-05-27T19:17:10Z</time>
      </trkpt>
      <trkpt lat="42.290437" lon="2.490562">
        <ele>782.517</ele>
        <time>2021-05-27T19:17:13Z</time>
      </trkpt>
      <trkpt lat="42.290460" lon="2.490551">
        <ele>781.872</ele>
        <time>2021-05-27T19:17:14Z</time>
      </trkpt>
      <trkpt lat="42.290478" lon="2.490531">
        <ele>781.475</ele>
        <time>2021-05-27T19:17:16Z</time>
      </trkpt>
      <trkpt lat="42.290499" lon="2.490500">
        <ele>781.091</ele>
        <time>2021-05-27T19:17:18Z</time>
      </trkpt>
      <trkpt lat="42.290525" lon="2.490482">
        <ele>780.466</ele>
        <time>2021-05-27T19:17:20Z</time>
      </trkpt>
      <trkpt lat="42.290546" lon="2.490462">
        <ele>779.929</ele>
        <time>2021-05-27T19:17:22Z</time>
      </trkpt>
      <trkpt lat="42.290565" lon="2.490430">
        <ele>779.521</ele>
        <time>2021-05-27T19:17:24Z</time>
      </trkpt>
      <trkpt lat="42.290578" lon="2.490413">
        <ele>779.008</ele>
        <time>2021-05-27T19:17:25Z</time>
      </trkpt>
      <trkpt lat="42.290600" lon="2.490380">
        <ele>778.223</ele>
        <time>2021-05-27T19:17:27Z</time>
      </trkpt>
      <trkpt lat="42.290622" lon="2.490349">
        <ele>777.470</ele>
        <time>2021-05-27T19:17:30Z</time>
      </trkpt>
      <trkpt lat="42.290646" lon="2.490325">
        <ele>776.518</ele>
        <time>2021-05-27T19:17:31Z</time>
      </trkpt>
      <trkpt lat="42.290665" lon="2.490302">
        <ele>775.758</ele>
        <time>2021-05-27T19:17:33Z</time>
      </trkpt>
      <trkpt lat="42.290675" lon="2.490274">
        <ele>775.455</ele>
        <time>2021-05-27T19:17:35Z</time>
      </trkpt>
      <trkpt lat="42.290691" lon="2.490255">
        <ele>774.830</ele>
        <time>2021-05-27T19:17:37Z</time>
      </trkpt>
      <trkpt lat="42.290704" lon="2.490236">
        <ele>774.393</ele>
        <time>2021-05-27T19:17:39Z</time>
      </trkpt>
      <trkpt lat="42.290715" lon="2.490216">
        <ele>773.939</ele>
        <time>2021-05-27T19:17:42Z</time>
      </trkpt>
      <trkpt lat="42.290727" lon="2.490195">
        <ele>773.516</ele>
        <time>2021-05-27T19:17:43Z</time>
      </trkpt>
      <trkpt lat="42.290741" lon="2.490169">
        <ele>773.076</ele>
        <time>2021-05-27T19:17:46Z</time>
      </trkpt>
      <trkpt lat="42.290752" lon="2.490148">
        <ele>772.613</ele>
        <time>2021-05-27T19:17:48Z</time>
      </trkpt>
      <trkpt lat="42.290766" lon="2.490125">
        <ele>772.108</ele>
        <time>2021-05-27T19:17:49Z</time>
      </trkpt>
      <trkpt lat="42.290778" lon="2.490092">
        <ele>771.898</ele>
        <time>2021-05-27T19:17:51Z</time>
      </trkpt>
      <trkpt lat="42.290793" lon="2.490071">
        <ele>771.345</ele>
        <time>2021-05-27T19:17:53Z</time>
      </trkpt>
      <trkpt lat="42.290811" lon="2.490045">
        <ele>770.793</ele>
        <time>2021-05-27T19:17:55Z</time>
      </trkpt>
      <trkpt lat="42.290825" lon="2.490025">
        <ele>770.233</ele>
        <time>2021-05-27T19:17:57Z</time>
      </trkpt>
      <trkpt lat="42.290840" lon="2.490010">
        <ele>769.690</ele>
        <time>2021-05-27T19:17:59Z</time>
      </trkpt>
      <trkpt lat="42.290899" lon="2.489903">
        <ele>767.815</ele>
        <time>2021-05-27T19:18:07Z</time>
      </trkpt>
      <trkpt lat="42.290956" lon="2.489807">
        <ele>766.298</ele>
        <time>2021-05-27T19:18:14Z</time>
      </trkpt>
      <trkpt lat="42.291003" lon="2.489716">
        <ele>765.144</ele>
        <time>2021-05-27T19:18:18Z</time>
      </trkpt>
      <trkpt lat="42.291054" lon="2.489593">
        <ele>763.938</ele>
        <time>2021-05-27T19:18:25Z</time>
      </trkpt>
      <trkpt lat="42.291106" lon="2.489482">
        <ele>762.870</ele>
        <time>2021-05-27T19:18:35Z</time>
      </trkpt>
      <trkpt lat="42.291161" lon="2.489378">
        <ele>761.917</ele>
        <time>2021-05-27T19:18:43Z</time>
      </trkpt>
      <trkpt lat="42.291228" lon="2.489285">
        <ele>760.608</ele>
        <time>2021-05-27T19:18:58Z</time>
      </trkpt>
      <trkpt lat="42.291297" lon="2.489231">
        <ele>759.020</ele>
        <time>2021-05-27T19:19:02Z</time>
      </trkpt>
      <trkpt lat="42.291339" lon="2.489203">
        <ele>758.187</ele>
        <time>2021-05-27T19:19:04Z</time>
      </trkpt>
      <trkpt lat="42.291358" lon="2.489186">
        <ele>757.795</ele>
        <time>2021-05-27T19:19:07Z</time>
      </trkpt>
      <trkpt lat="42.291374" lon="2.489167">
        <ele>757.445</ele>
        <time>2021-05-27T19:19:09Z</time>
      </trkpt>
      <trkpt lat="42.291431" lon="2.489096">
        <ele>757.052</ele>
        <time>2021-05-27T19:19:19Z</time>
      </trkpt>
      <trkpt lat="42.291446" lon="2.489081">
        <ele>756.967</ele>
        <time>2021-05-27T19:19:21Z</time>
      </trkpt>
      <trkpt lat="42.291462" lon="2.489059">
        <ele>756.880</ele>
        <time>2021-05-27T19:19:25Z</time>
      </trkpt>
      <trkpt lat="42.291489" lon="2.489056">
        <ele>756.176</ele>
        <time>2021-05-27T19:19:27Z</time>
      </trkpt>
      <trkpt lat="42.291521" lon="2.489053">
        <ele>755.462</ele>
        <time>2021-05-27T19:19:29Z</time>
      </trkpt>
      <trkpt lat="42.291575" lon="2.489028">
        <ele>754.383</ele>
        <time>2021-05-27T19:19:31Z</time>
      </trkpt>
      <trkpt lat="42.291592" lon="2.489018">
        <ele>754.011</ele>
        <time>2021-05-27T19:19:32Z</time>
      </trkpt>
      <trkpt lat="42.291608" lon="2.489001">
        <ele>753.708</ele>
        <time>2021-05-27T19:19:34Z</time>
      </trkpt>
      <trkpt lat="42.291630" lon="2.488964">
        <ele>753.443</ele>
        <time>2021-05-27T19:19:36Z</time>
      </trkpt>
      <trkpt lat="42.291647" lon="2.488941">
        <ele>753.250</ele>
        <time>2021-05-27T19:19:37Z</time>
      </trkpt>
      <trkpt lat="42.291664" lon="2.488922">
        <ele>752.888</ele>
        <time>2021-05-27T19:19:40Z</time>
      </trkpt>
      <trkpt lat="42.291671" lon="2.488898">
        <ele>752.858</ele>
        <time>2021-05-27T19:19:42Z</time>
      </trkpt>
      <trkpt lat="42.291678" lon="2.488871">
        <ele>753.015</ele>
        <time>2021-05-27T19:19:44Z</time>
      </trkpt>
      <trkpt lat="42.291688" lon="2.488844">
        <ele>753.240</ele>
        <time>2021-05-27T19:19:46Z</time>
      </trkpt>
      <trkpt lat="42.291701" lon="2.488817">
        <ele>753.383</ele>
        <time>2021-05-27T19:19:49Z</time>
      </trkpt>
      <trkpt lat="42.291713" lon="2.488796">
        <ele>753.339</ele>
        <time>2021-05-27T19:19:50Z</time>
      </trkpt>
      <trkpt lat="42.291735" lon="2.488785">
        <ele>752.964</ele>
        <time>2021-05-27T19:19:54Z</time>
      </trkpt>
      <trkpt lat="42.291754" lon="2.488794">
        <ele>752.406</ele>
        <time>2021-05-27T19:19:55Z</time>
      </trkpt>
      <trkpt lat="42.291783" lon="2.488803">
        <ele>751.616</ele>
        <time>2021-05-27T19:19:58Z</time>
      </trkpt>
      <trkpt lat="42.291810" lon="2.488797">
        <ele>751.108</ele>
        <time>2021-05-27T19:19:59Z</time>
      </trkpt>
      <trkpt lat="42.291841" lon="2.488796">
        <ele>750.423</ele>
        <time>2021-05-27T19:20:01Z</time>
      </trkpt>
      <trkpt lat="42.291878" lon="2.488787">
        <ele>749.610</ele>
        <time>2021-05-27T19:20:03Z</time>
      </trkpt>
      <trkpt lat="42.291905" lon="2.488776">
        <ele>749.128</ele>
        <time>2021-05-27T19:20:04Z</time>
      </trkpt>
      <trkpt lat="42.291930" lon="2.488769">
        <ele>748.698</ele>
        <time>2021-05-27T19:20:05Z</time>
      </trkpt>
      <trkpt lat="42.291949" lon="2.488764">
        <ele>748.385</ele>
        <time>2021-05-27T19:20:06Z</time>
      </trkpt>
      <trkpt lat="42.291967" lon="2.488761">
        <ele>747.940</ele>
        <time>2021-05-27T19:20:07Z</time>
      </trkpt>
      <trkpt lat="42.291988" lon="2.488759">
        <ele>747.533</ele>
        <time>2021-05-27T19:20:08Z</time>
      </trkpt>
      <trkpt lat="42.292009" lon="2.488754">
        <ele>747.269</ele>
        <time>2021-05-27T19:20:09Z</time>
      </trkpt>
      <trkpt lat="42.292030" lon="2.488747">
        <ele>746.873</ele>
        <time>2021-05-27T19:20:10Z</time>
      </trkpt>
      <trkpt lat="42.292053" lon="2.488740">
        <ele>746.485</ele>
        <time>2021-05-27T19:20:11Z</time>
      </trkpt>
      <trkpt lat="42.292071" lon="2.488737">
        <ele>746.113</ele>
        <time>2021-05-27T19:20:12Z</time>
      </trkpt>
      <trkpt lat="42.292106" lon="2.488733">
        <ele>745.408</ele>
        <time>2021-05-27T19:20:14Z</time>
      </trkpt>
      <trkpt lat="42.292141" lon="2.488724">
        <ele>744.834</ele>
        <time>2021-05-27T19:20:16Z</time>
      </trkpt>
      <trkpt lat="42.292176" lon="2.488716">
        <ele>744.281</ele>
        <time>2021-05-27T19:20:18Z</time>
      </trkpt>
      <trkpt lat="42.292208" lon="2.488715">
        <ele>743.589</ele>
        <time>2021-05-27T19:20:21Z</time>
      </trkpt>
      <trkpt lat="42.292233" lon="2.488688">
        <ele>743.249</ele>
        <time>2021-05-27T19:20:23Z</time>
      </trkpt>
      <trkpt lat="42.292258" lon="2.488668">
        <ele>742.996</ele>
        <time>2021-05-27T19:20:25Z</time>
      </trkpt>
      <trkpt lat="42.292286" lon="2.488645">
        <ele>742.621</ele>
        <time>2021-05-27T19:20:27Z</time>
      </trkpt>
      <trkpt lat="42.292316" lon="2.488632">
        <ele>742.134</ele>
        <time>2021-05-27T19:20:29Z</time>
      </trkpt>
      <trkpt lat="42.292335" lon="2.488622">
        <ele>741.960</ele>
        <time>2021-05-27T19:20:30Z</time>
      </trkpt>
      <trkpt lat="42.292353" lon="2.488608">
        <ele>741.727</ele>
        <time>2021-05-27T19:20:31Z</time>
      </trkpt>
      <trkpt lat="42.292368" lon="2.488594">
        <ele>741.668</ele>
        <time>2021-05-27T19:20:32Z</time>
      </trkpt>
      <trkpt lat="42.292394" lon="2.488567">
        <ele>741.314</ele>
        <time>2021-05-27T19:20:34Z</time>
      </trkpt>
      <trkpt lat="42.292425" lon="2.488546">
        <ele>740.908</ele>
        <time>2021-05-27T19:20:36Z</time>
      </trkpt>
      <trkpt lat="42.292458" lon="2.488531">
        <ele>740.499</ele>
        <time>2021-05-27T19:20:38Z</time>
      </trkpt>
      <trkpt lat="42.292473" lon="2.488506">
        <ele>740.326</ele>
        <time>2021-05-27T19:20:40Z</time>
      </trkpt>
      <trkpt lat="42.292494" lon="2.488477">
        <ele>740.134</ele>
        <time>2021-05-27T19:20:42Z</time>
      </trkpt>
      <trkpt lat="42.292514" lon="2.488456">
        <ele>739.784</ele>
        <time>2021-05-27T19:20:44Z</time>
      </trkpt>
      <trkpt lat="42.292542" lon="2.488430">
        <ele>739.161</ele>
        <time>2021-05-27T19:20:46Z</time>
      </trkpt>
      <trkpt lat="42.292556" lon="2.488415">
        <ele>738.926</ele>
        <time>2021-05-27T19:20:47Z</time>
      </trkpt>
      <trkpt lat="42.292571" lon="2.488398">
        <ele>738.679</ele>
        <time>2021-05-27T19:20:48Z</time>
      </trkpt>
      <trkpt lat="42.292585" lon="2.488383">
        <ele>738.445</ele>
        <time>2021-05-27T19:20:49Z</time>
      </trkpt>
      <trkpt lat="42.292599" lon="2.488365">
        <ele>738.238</ele>
        <time>2021-05-27T19:20:50Z</time>
      </trkpt>
      <trkpt lat="42.292620" lon="2.488341">
        <ele>737.970</ele>
        <time>2021-05-27T19:20:52Z</time>
      </trkpt>
      <trkpt lat="42.292643" lon="2.488322">
        <ele>737.517</ele>
        <time>2021-05-27T19:20:54Z</time>
      </trkpt>
      <trkpt lat="42.292668" lon="2.488296">
        <ele>737.108</ele>
        <time>2021-05-27T19:20:56Z</time>
      </trkpt>
      <trkpt lat="42.292685" lon="2.488268">
        <ele>736.830</ele>
        <time>2021-05-27T19:20:58Z</time>
      </trkpt>
      <trkpt lat="42.292704" lon="2.488249">
        <ele>736.497</ele>
        <time>2021-05-27T19:21:00Z</time>
      </trkpt>
      <trkpt lat="42.292729" lon="2.488231">
        <ele>735.815</ele>
        <time>2021-05-27T19:21:01Z</time>
      </trkpt>
      <trkpt lat="42.292755" lon="2.488212">
        <ele>735.155</ele>
        <time>2021-05-27T19:21:03Z</time>
      </trkpt>
      <trkpt lat="42.292779" lon="2.488192">
        <ele>734.552</ele>
        <time>2021-05-27T19:21:05Z</time>
      </trkpt>
      <trkpt lat="42.292801" lon="2.488169">
        <ele>734.087</ele>
        <time>2021-05-27T19:21:08Z</time>
      </trkpt>
      <trkpt lat="42.292826" lon="2.488148">
        <ele>733.460</ele>
        <time>2021-05-27T19:21:10Z</time>
      </trkpt>
      <trkpt lat="42.292848" lon="2.488125">
        <ele>732.966</ele>
        <time>2021-05-27T19:21:12Z</time>
      </trkpt>
      <trkpt lat="42.292875" lon="2.488101">
        <ele>732.341</ele>
        <time>2021-05-27T19:21:14Z</time>
      </trkpt>
      <trkpt lat="42.292895" lon="2.488074">
        <ele>732.081</ele>
        <time>2021-05-27T19:21:15Z</time>
      </trkpt>
      <trkpt lat="42.292911" lon="2.488038">
        <ele>731.709</ele>
        <time>2021-05-27T19:21:17Z</time>
      </trkpt>
      <trkpt lat="42.292931" lon="2.488010">
        <ele>731.408</ele>
        <time>2021-05-27T19:21:19Z</time>
      </trkpt>
      <trkpt lat="42.292956" lon="2.487981">
        <ele>730.861</ele>
        <time>2021-05-27T19:21:21Z</time>
      </trkpt>
      <trkpt lat="42.292976" lon="2.487955">
        <ele>730.318</ele>
        <time>2021-05-27T19:21:23Z</time>
      </trkpt>
      <trkpt lat="42.292993" lon="2.487932">
        <ele>729.926</ele>
        <time>2021-05-27T19:21:26Z</time>
      </trkpt>
      <trkpt lat="42.293011" lon="2.487912">
        <ele>729.496</ele>
        <time>2021-05-27T19:21:28Z</time>
      </trkpt>
      <trkpt lat="42.293032" lon="2.487893">
        <ele>728.723</ele>
        <time>2021-05-27T19:21:30Z</time>
      </trkpt>
      <trkpt lat="42.293057" lon="2.487890">
        <ele>728.038</ele>
        <time>2021-05-27T19:21:32Z</time>
      </trkpt>
      <trkpt lat="42.293078" lon="2.487885">
        <ele>727.381</ele>
        <time>2021-05-27T19:21:34Z</time>
      </trkpt>
      <trkpt lat="42.293095" lon="2.487872">
        <ele>726.717</ele>
        <time>2021-05-27T19:21:36Z</time>
      </trkpt>
      <trkpt lat="42.293119" lon="2.487872">
        <ele>725.987</ele>
        <time>2021-05-27T19:21:38Z</time>
      </trkpt>
      <trkpt lat="42.293148" lon="2.487864">
        <ele>725.042</ele>
        <time>2021-05-27T19:21:40Z</time>
      </trkpt>
      <trkpt lat="42.293177" lon="2.487845">
        <ele>724.126</ele>
        <time>2021-05-27T19:21:42Z</time>
      </trkpt>
      <trkpt lat="42.293201" lon="2.487824">
        <ele>723.308</ele>
        <time>2021-05-27T19:21:44Z</time>
      </trkpt>
      <trkpt lat="42.293221" lon="2.487796">
        <ele>722.645</ele>
        <time>2021-05-27T19:21:46Z</time>
      </trkpt>
      <trkpt lat="42.293231" lon="2.487762">
        <ele>722.372</ele>
        <time>2021-05-27T19:21:48Z</time>
      </trkpt>
      <trkpt lat="42.293248" lon="2.487724">
        <ele>721.680</ele>
        <time>2021-05-27T19:21:50Z</time>
      </trkpt>
      <trkpt lat="42.293264" lon="2.487686">
        <ele>720.920</ele>
        <time>2021-05-27T19:21:52Z</time>
      </trkpt>
      <trkpt lat="42.293287" lon="2.487663">
        <ele>720.147</ele>
        <time>2021-05-27T19:21:53Z</time>
      </trkpt>
      <trkpt lat="42.293308" lon="2.487666">
        <ele>719.492</ele>
        <time>2021-05-27T19:21:56Z</time>
      </trkpt>
      <trkpt lat="42.293335" lon="2.487669">
        <ele>718.555</ele>
        <time>2021-05-27T19:21:57Z</time>
      </trkpt>
      <trkpt lat="42.293354" lon="2.487660">
        <ele>717.851</ele>
        <time>2021-05-27T19:21:59Z</time>
      </trkpt>
      <trkpt lat="42.293373" lon="2.487643">
        <ele>717.165</ele>
        <time>2021-05-27T19:22:01Z</time>
      </trkpt>
      <trkpt lat="42.293396" lon="2.487617">
        <ele>716.268</ele>
        <time>2021-05-27T19:22:03Z</time>
      </trkpt>
      <trkpt lat="42.293409" lon="2.487588">
        <ele>715.614</ele>
        <time>2021-05-27T19:22:06Z</time>
      </trkpt>
      <trkpt lat="42.293414" lon="2.487564">
        <ele>715.308</ele>
        <time>2021-05-27T19:22:08Z</time>
      </trkpt>
      <trkpt lat="42.293414" lon="2.487531">
        <ele>715.243</ele>
        <time>2021-05-27T19:22:10Z</time>
      </trkpt>
      <trkpt lat="42.293421" lon="2.487500">
        <ele>714.820</ele>
        <time>2021-05-27T19:22:13Z</time>
      </trkpt>
      <trkpt lat="42.293431" lon="2.487479">
        <ele>714.438</ele>
        <time>2021-05-27T19:22:16Z</time>
      </trkpt>
      <trkpt lat="42.293450" lon="2.487453">
        <ele>713.678</ele>
        <time>2021-05-27T19:22:18Z</time>
      </trkpt>
      <trkpt lat="42.293457" lon="2.487422">
        <ele>713.135</ele>
        <time>2021-05-27T19:22:20Z</time>
      </trkpt>
      <trkpt lat="42.293483" lon="2.487413">
        <ele>712.150</ele>
        <time>2021-05-27T19:22:28Z</time>
      </trkpt>
      <trkpt lat="42.293513" lon="2.487421">
        <ele>711.143</ele>
        <time>2021-05-27T19:22:31Z</time>
      </trkpt>
      <trkpt lat="42.293539" lon="2.487415">
        <ele>710.129</ele>
        <time>2021-05-27T19:22:33Z</time>
      </trkpt>
      <trkpt lat="42.293564" lon="2.487405">
        <ele>709.134</ele>
        <time>2021-05-27T19:22:35Z</time>
      </trkpt>
      <trkpt lat="42.293582" lon="2.487388">
        <ele>708.355</ele>
        <time>2021-05-27T19:22:38Z</time>
      </trkpt>
      <trkpt lat="42.293609" lon="2.487379">
        <ele>707.210</ele>
        <time>2021-05-27T19:22:41Z</time>
      </trkpt>
      <trkpt lat="42.293631" lon="2.487382">
        <ele>706.508</ele>
        <time>2021-05-27T19:22:44Z</time>
      </trkpt>
      <trkpt lat="42.293650" lon="2.487379">
        <ele>705.840</ele>
        <time>2021-05-27T19:22:47Z</time>
      </trkpt>
      <trkpt lat="42.293671" lon="2.487376">
        <ele>705.097</ele>
        <time>2021-05-27T19:22:50Z</time>
      </trkpt>
      <trkpt lat="42.293702" lon="2.487362">
        <ele>703.925</ele>
        <time>2021-05-27T19:22:53Z</time>
      </trkpt>
      <trkpt lat="42.293724" lon="2.487328">
        <ele>702.995</ele>
        <time>2021-05-27T19:22:54Z</time>
      </trkpt>
      <trkpt lat="42.293739" lon="2.487284">
        <ele>702.222</ele>
        <time>2021-05-27T19:22:57Z</time>
      </trkpt>
      <trkpt lat="42.293753" lon="2.487231">
        <ele>701.517</ele>
        <time>2021-05-27T19:22:59Z</time>
      </trkpt>
      <trkpt lat="42.293759" lon="2.487206">
        <ele>701.160</ele>
        <time>2021-05-27T19:23:00Z</time>
      </trkpt>
      <trkpt lat="42.293763" lon="2.487154">
        <ele>700.856</ele>
        <time>2021-05-27T19:23:01Z</time>
      </trkpt>
      <trkpt lat="42.293774" lon="2.487112">
        <ele>700.389</ele>
        <time>2021-05-27T19:23:03Z</time>
      </trkpt>
      <trkpt lat="42.293787" lon="2.487075">
        <ele>699.606</ele>
        <time>2021-05-27T19:23:05Z</time>
      </trkpt>
      <trkpt lat="42.293802" lon="2.487031">
        <ele>698.926</ele>
        <time>2021-05-27T19:23:08Z</time>
      </trkpt>
      <trkpt lat="42.293817" lon="2.486997">
        <ele>698.108</ele>
        <time>2021-05-27T19:23:10Z</time>
      </trkpt>
      <trkpt lat="42.293828" lon="2.486955">
        <ele>697.595</ele>
        <time>2021-05-27T19:23:11Z</time>
      </trkpt>
      <trkpt lat="42.293837" lon="2.486914">
        <ele>696.942</ele>
        <time>2021-05-27T19:23:13Z</time>
      </trkpt>
      <trkpt lat="42.293844" lon="2.486883">
        <ele>696.560</ele>
        <time>2021-05-27T19:23:15Z</time>
      </trkpt>
      <trkpt lat="42.293856" lon="2.486864">
        <ele>696.010</ele>
        <time>2021-05-27T19:23:17Z</time>
      </trkpt>
      <trkpt lat="42.293879" lon="2.486858">
        <ele>695.147</ele>
        <time>2021-05-27T19:23:19Z</time>
      </trkpt>
      <trkpt lat="42.293897" lon="2.486836">
        <ele>694.382</ele>
        <time>2021-05-27T19:23:21Z</time>
      </trkpt>
      <trkpt lat="42.293912" lon="2.486810">
        <ele>693.725</ele>
        <time>2021-05-27T19:23:24Z</time>
      </trkpt>
      <trkpt lat="42.293917" lon="2.486776">
        <ele>693.421</ele>
        <time>2021-05-27T19:23:26Z</time>
      </trkpt>
      <trkpt lat="42.293911" lon="2.486744">
        <ele>693.528</ele>
        <time>2021-05-27T19:23:28Z</time>
      </trkpt>
      <trkpt lat="42.293899" lon="2.486719">
        <ele>693.889</ele>
        <time>2021-05-27T19:23:30Z</time>
      </trkpt>
      <trkpt lat="42.293897" lon="2.486682">
        <ele>693.817</ele>
        <time>2021-05-27T19:23:32Z</time>
      </trkpt>
      <trkpt lat="42.293903" lon="2.486655">
        <ele>693.408</ele>
        <time>2021-05-27T19:23:35Z</time>
      </trkpt>
      <trkpt lat="42.293917" lon="2.486621">
        <ele>692.899</ele>
        <time>2021-05-27T19:23:40Z</time>
      </trkpt>
      <trkpt lat="42.293925" lon="2.486594">
        <ele>692.446</ele>
        <time>2021-05-27T19:23:42Z</time>
      </trkpt>
      <trkpt lat="42.293933" lon="2.486568">
        <ele>692.084</ele>
        <time>2021-05-27T19:23:43Z</time>
      </trkpt>
      <trkpt lat="42.293936" lon="2.486537">
        <ele>691.844</ele>
        <time>2021-05-27T19:23:46Z</time>
      </trkpt>
      <trkpt lat="42.293934" lon="2.486500">
        <ele>691.751</ele>
        <time>2021-05-27T19:23:50Z</time>
      </trkpt>
      <trkpt lat="42.293933" lon="2.486472">
        <ele>691.676</ele>
        <time>2021-05-27T19:23:52Z</time>
      </trkpt>
      <trkpt lat="42.293928" lon="2.486440">
        <ele>691.759</ele>
        <time>2021-05-27T19:23:54Z</time>
      </trkpt>
      <trkpt lat="42.293927" lon="2.486412">
        <ele>691.655</ele>
        <time>2021-05-27T19:23:56Z</time>
      </trkpt>
      <trkpt lat="42.293928" lon="2.486387">
        <ele>691.414</ele>
        <time>2021-05-27T19:23:58Z</time>
      </trkpt>
      <trkpt lat="42.293924" lon="2.486359">
        <ele>691.454</ele>
        <time>2021-05-27T19:24:00Z</time>
      </trkpt>
      <trkpt lat="42.293929" lon="2.486329">
        <ele>691.009</ele>
        <time>2021-05-27T19:24:03Z</time>
      </trkpt>
      <trkpt lat="42.293928" lon="2.486305">
        <ele>690.908</ele>
        <time>2021-05-27T19:24:06Z</time>
      </trkpt>
      <trkpt lat="42.293931" lon="2.486278">
        <ele>690.628</ele>
        <time>2021-05-27T19:24:10Z</time>
      </trkpt>
      <trkpt lat="42.293938" lon="2.486253">
        <ele>690.285</ele>
        <time>2021-05-27T19:24:15Z</time>
      </trkpt>
      <trkpt lat="42.293940" lon="2.486227">
        <ele>689.943</ele>
        <time>2021-05-27T19:24:19Z</time>
      </trkpt>
      <trkpt lat="42.293947" lon="2.486197">
        <ele>689.513</ele>
        <time>2021-05-27T19:24:22Z</time>
      </trkpt>
      <trkpt lat="42.293920" lon="2.486174">
        <ele>690.330</ele>
        <time>2021-05-27T19:24:24Z</time>
      </trkpt>
      <trkpt lat="42.293897" lon="2.486173">
        <ele>691.165</ele>
        <time>2021-05-27T19:24:27Z</time>
      </trkpt>
      <trkpt lat="42.293907" lon="2.486200">
        <ele>691.028</ele>
        <time>2021-05-27T19:24:37Z</time>
      </trkpt>
      <trkpt lat="42.293925" lon="2.486224">
        <ele>690.564</ele>
        <time>2021-05-27T19:24:39Z</time>
      </trkpt>
      <trkpt lat="42.293902" lon="2.486216">
        <ele>691.383</ele>
        <time>2021-05-27T19:24:44Z</time>
      </trkpt>
      <trkpt lat="42.293881" lon="2.486199">
        <ele>691.825</ele>
        <time>2021-05-27T19:24:47Z</time>
      </trkpt>
      <trkpt lat="42.293859" lon="2.486185">
        <ele>692.217</ele>
        <time>2021-05-27T19:24:48Z</time>
      </trkpt>
      <trkpt lat="42.293836" lon="2.486172">
        <ele>692.708</ele>
        <time>2021-05-27T19:24:50Z</time>
      </trkpt>
      <trkpt lat="42.293816" lon="2.486157">
        <ele>693.045</ele>
        <time>2021-05-27T19:24:52Z</time>
      </trkpt>
      <trkpt lat="42.293797" lon="2.486144">
        <ele>693.382</ele>
        <time>2021-05-27T19:24:54Z</time>
      </trkpt>
      <trkpt lat="42.293777" lon="2.486132">
        <ele>693.680</ele>
        <time>2021-05-27T19:24:56Z</time>
      </trkpt>
      <trkpt lat="42.293756" lon="2.486121">
        <ele>694.060</ele>
        <time>2021-05-27T19:24:58Z</time>
      </trkpt>
      <trkpt lat="42.293734" lon="2.486114">
        <ele>694.477</ele>
        <time>2021-05-27T19:25:00Z</time>
      </trkpt>
      <trkpt lat="42.293712" lon="2.486105">
        <ele>694.722</ele>
        <time>2021-05-27T19:25:03Z</time>
      </trkpt>
      <trkpt lat="42.293690" lon="2.486091">
        <ele>695.015</ele>
        <time>2021-05-27T19:25:04Z</time>
      </trkpt>
      <trkpt lat="42.293669" lon="2.486072">
        <ele>695.141</ele>
        <time>2021-05-27T19:25:06Z</time>
      </trkpt>
      <trkpt lat="42.293648" lon="2.486054">
        <ele>695.326</ele>
        <time>2021-05-27T19:25:08Z</time>
      </trkpt>
      <trkpt lat="42.293629" lon="2.486032">
        <ele>695.447</ele>
        <time>2021-05-27T19:25:10Z</time>
      </trkpt>
      <trkpt lat="42.293610" lon="2.486009">
        <ele>695.611</ele>
        <time>2021-05-27T19:25:12Z</time>
      </trkpt>
      <trkpt lat="42.293592" lon="2.485989">
        <ele>695.708</ele>
        <time>2021-05-27T19:25:14Z</time>
      </trkpt>
      <trkpt lat="42.293573" lon="2.485968">
        <ele>696.079</ele>
        <time>2021-05-27T19:25:16Z</time>
      </trkpt>
      <trkpt lat="42.293550" lon="2.485955">
        <ele>696.446</ele>
        <time>2021-05-27T19:25:18Z</time>
      </trkpt>
      <trkpt lat="42.293530" lon="2.485941">
        <ele>696.824</ele>
        <time>2021-05-27T19:25:20Z</time>
      </trkpt>
      <trkpt lat="42.293509" lon="2.485922">
        <ele>697.224</ele>
        <time>2021-05-27T19:25:23Z</time>
      </trkpt>
      <trkpt lat="42.293479" lon="2.485891">
        <ele>697.811</ele>
        <time>2021-05-27T19:25:26Z</time>
      </trkpt>
      <trkpt lat="42.293431" lon="2.485777">
        <ele>698.876</ele>
        <time>2021-05-27T19:25:34Z</time>
      </trkpt>
      <trkpt lat="42.293408" lon="2.485650">
        <ele>699.549</ele>
        <time>2021-05-27T19:25:41Z</time>
      </trkpt>
      <trkpt lat="42.293416" lon="2.485584">
        <ele>699.265</ele>
        <time>2021-05-27T19:25:45Z</time>
      </trkpt>
      <trkpt lat="42.293425" lon="2.485549">
        <ele>699.137</ele>
        <time>2021-05-27T19:25:46Z</time>
      </trkpt>
      <trkpt lat="42.293437" lon="2.485524">
        <ele>699.049</ele>
        <time>2021-05-27T19:25:48Z</time>
      </trkpt>
      <trkpt lat="42.293445" lon="2.485499">
        <ele>699.013</ele>
        <time>2021-05-27T19:25:51Z</time>
      </trkpt>
      <trkpt lat="42.293461" lon="2.485472">
        <ele>698.808</ele>
        <time>2021-05-27T19:25:52Z</time>
      </trkpt>
      <trkpt lat="42.293476" lon="2.485430">
        <ele>698.880</ele>
        <time>2021-05-27T19:25:54Z</time>
      </trkpt>
      <trkpt lat="42.293490" lon="2.485389">
        <ele>698.827</ele>
        <time>2021-05-27T19:25:56Z</time>
      </trkpt>
      <trkpt lat="42.293503" lon="2.485354">
        <ele>698.885</ele>
        <time>2021-05-27T19:25:58Z</time>
      </trkpt>
      <trkpt lat="42.293511" lon="2.485322">
        <ele>698.855</ele>
        <time>2021-05-27T19:26:01Z</time>
      </trkpt>
      <trkpt lat="42.293520" lon="2.485290">
        <ele>698.982</ele>
        <time>2021-05-27T19:26:03Z</time>
      </trkpt>
      <trkpt lat="42.293527" lon="2.485254">
        <ele>699.047</ele>
        <time>2021-05-27T19:26:05Z</time>
      </trkpt>
      <trkpt lat="42.293527" lon="2.485218">
        <ele>699.360</ele>
        <time>2021-05-27T19:26:06Z</time>
      </trkpt>
      <trkpt lat="42.293519" lon="2.485189">
        <ele>699.726</ele>
        <time>2021-05-27T19:26:09Z</time>
      </trkpt>
      <trkpt lat="42.293511" lon="2.485158">
        <ele>700.151</ele>
        <time>2021-05-27T19:26:11Z</time>
      </trkpt>
      <trkpt lat="42.293510" lon="2.485119">
        <ele>700.501</ele>
        <time>2021-05-27T19:26:13Z</time>
      </trkpt>
      <trkpt lat="42.293511" lon="2.485080">
        <ele>700.811</ele>
        <time>2021-05-27T19:26:15Z</time>
      </trkpt>
      <trkpt lat="42.293511" lon="2.485046">
        <ele>701.108</ele>
        <time>2021-05-27T19:26:17Z</time>
      </trkpt>
      <trkpt lat="42.293511" lon="2.485009">
        <ele>701.472</ele>
        <time>2021-05-27T19:26:18Z</time>
      </trkpt>
      <trkpt lat="42.293514" lon="2.484974">
        <ele>701.429</ele>
        <time>2021-05-27T19:26:20Z</time>
      </trkpt>
      <trkpt lat="42.293520" lon="2.484935">
        <ele>701.427</ele>
        <time>2021-05-27T19:26:22Z</time>
      </trkpt>
      <trkpt lat="42.293523" lon="2.484898">
        <ele>701.427</ele>
        <time>2021-05-27T19:26:24Z</time>
      </trkpt>
      <trkpt lat="42.293530" lon="2.484859">
        <ele>701.364</ele>
        <time>2021-05-27T19:26:26Z</time>
      </trkpt>
      <trkpt lat="42.293543" lon="2.484800">
        <ele>701.229</ele>
        <time>2021-05-27T19:26:30Z</time>
      </trkpt>
      <trkpt lat="42.293549" lon="2.484760">
        <ele>701.152</ele>
        <time>2021-05-27T19:26:33Z</time>
      </trkpt>
      <trkpt lat="42.293553" lon="2.484728">
        <ele>701.048</ele>
        <time>2021-05-27T19:26:35Z</time>
      </trkpt>
      <trkpt lat="42.293557" lon="2.484698">
        <ele>701.139</ele>
        <time>2021-05-27T19:26:37Z</time>
      </trkpt>
      <trkpt lat="42.293564" lon="2.484662">
        <ele>701.101</ele>
        <time>2021-05-27T19:26:40Z</time>
      </trkpt>
      <trkpt lat="42.293569" lon="2.484631">
        <ele>701.121</ele>
        <time>2021-05-27T19:26:42Z</time>
      </trkpt>
      <trkpt lat="42.293578" lon="2.484606">
        <ele>701.108</ele>
        <time>2021-05-27T19:26:44Z</time>
      </trkpt>
      <trkpt lat="42.293570" lon="2.484641">
        <ele>701.160</ele>
        <time>2021-05-27T19:26:47Z</time>
      </trkpt>
      <trkpt lat="42.293558" lon="2.484685">
        <ele>701.127</ele>
        <time>2021-05-27T19:26:49Z</time>
      </trkpt>
      <trkpt lat="42.293553" lon="2.484708">
        <ele>701.195</ele>
        <time>2021-05-27T19:26:50Z</time>
      </trkpt>
      <trkpt lat="42.293544" lon="2.484752">
        <ele>701.245</ele>
        <time>2021-05-27T19:26:52Z</time>
      </trkpt>
      <trkpt lat="42.293535" lon="2.484801">
        <ele>701.362</ele>
        <time>2021-05-27T19:26:54Z</time>
      </trkpt>
      <trkpt lat="42.293531" lon="2.484824">
        <ele>701.327</ele>
        <time>2021-05-27T19:26:55Z</time>
      </trkpt>
      <trkpt lat="42.293527" lon="2.484875">
        <ele>701.390</ele>
        <time>2021-05-27T19:26:56Z</time>
      </trkpt>
      <trkpt lat="42.293526" lon="2.484950">
        <ele>701.316</ele>
        <time>2021-05-27T19:26:59Z</time>
      </trkpt>
      <trkpt lat="42.293529" lon="2.485009">
        <ele>701.189</ele>
        <time>2021-05-27T19:27:01Z</time>
      </trkpt>
      <trkpt lat="42.293534" lon="2.485036">
        <ele>700.806</ele>
        <time>2021-05-27T19:27:03Z</time>
      </trkpt>
      <trkpt lat="42.293539" lon="2.485096">
        <ele>700.226</ele>
        <time>2021-05-27T19:27:04Z</time>
      </trkpt>
      <trkpt lat="42.293541" lon="2.485230">
        <ele>698.908</ele>
        <time>2021-05-27T19:27:09Z</time>
      </trkpt>
      <trkpt lat="42.293512" lon="2.485351">
        <ele>698.675</ele>
        <time>2021-05-27T19:27:16Z</time>
      </trkpt>
      <trkpt lat="42.293484" lon="2.485473">
        <ele>698.322</ele>
        <time>2021-05-27T19:27:24Z</time>
      </trkpt>
      <trkpt lat="42.293455" lon="2.485588">
        <ele>698.350</ele>
        <time>2021-05-27T19:27:28Z</time>
      </trkpt>
      <trkpt lat="42.293484" lon="2.485704">
        <ele>697.480</ele>
        <time>2021-05-27T19:27:34Z</time>
      </trkpt>
      <trkpt lat="42.293543" lon="2.485807">
        <ele>695.367</ele>
        <time>2021-05-27T19:27:41Z</time>
      </trkpt>
      <trkpt lat="42.293606" lon="2.485918">
        <ele>694.462</ele>
        <time>2021-05-27T19:27:48Z</time>
      </trkpt>
      <trkpt lat="42.293644" lon="2.485954">
        <ele>693.985</ele>
        <time>2021-05-27T19:27:51Z</time>
      </trkpt>
      <trkpt lat="42.293659" lon="2.485973">
        <ele>693.891</ele>
        <time>2021-05-27T19:28:05Z</time>
      </trkpt>
      <trkpt lat="42.293684" lon="2.485999">
        <ele>693.697</ele>
        <time>2021-05-27T19:28:07Z</time>
      </trkpt>
      <trkpt lat="42.293702" lon="2.486026">
        <ele>693.623</ele>
        <time>2021-05-27T19:28:08Z</time>
      </trkpt>
      <trkpt lat="42.293726" lon="2.486055">
        <ele>693.525</ele>
        <time>2021-05-27T19:28:11Z</time>
      </trkpt>
      <trkpt lat="42.293803" lon="2.486149">
        <ele>693.208</ele>
        <time>2021-05-27T19:28:15Z</time>
      </trkpt>
      <trkpt lat="42.293881" lon="2.486212">
        <ele>691.966</ele>
        <time>2021-05-27T19:28:19Z</time>
      </trkpt>
      <trkpt lat="42.293963" lon="2.486280">
        <ele>689.483</ele>
        <time>2021-05-27T19:28:24Z</time>
      </trkpt>
      <trkpt lat="42.293985" lon="2.486421">
        <ele>689.481</ele>
        <time>2021-05-27T19:28:30Z</time>
      </trkpt>
      <trkpt lat="42.294006" lon="2.486546">
        <ele>689.261</ele>
        <time>2021-05-27T19:28:35Z</time>
      </trkpt>
      <trkpt lat="42.294047" lon="2.486685">
        <ele>688.458</ele>
        <time>2021-05-27T19:28:43Z</time>
      </trkpt>
      <trkpt lat="42.294093" lon="2.486816">
        <ele>687.293</ele>
        <time>2021-05-27T19:28:48Z</time>
      </trkpt>
      <trkpt lat="42.294150" lon="2.486923">
        <ele>685.546</ele>
        <time>2021-05-27T19:28:54Z</time>
      </trkpt>
      <trkpt lat="42.294208" lon="2.487033">
        <ele>684.652</ele>
        <time>2021-05-27T19:28:58Z</time>
      </trkpt>
      <trkpt lat="42.294280" lon="2.487061">
        <ele>683.434</ele>
        <time>2021-05-27T19:29:04Z</time>
      </trkpt>
      <trkpt lat="42.294318" lon="2.487037">
        <ele>682.855</ele>
        <time>2021-05-27T19:29:06Z</time>
      </trkpt>
      <trkpt lat="42.294338" lon="2.487024">
        <ele>682.510</ele>
        <time>2021-05-27T19:29:07Z</time>
      </trkpt>
      <trkpt lat="42.294356" lon="2.487012">
        <ele>682.208</ele>
        <time>2021-05-27T19:29:08Z</time>
      </trkpt>
      <trkpt lat="42.294373" lon="2.487003">
        <ele>681.940</ele>
        <time>2021-05-27T19:29:09Z</time>
      </trkpt>
      <trkpt lat="42.294410" lon="2.486983">
        <ele>681.477</ele>
        <time>2021-05-27T19:29:10Z</time>
      </trkpt>
      <trkpt lat="42.294429" lon="2.486972">
        <ele>681.115</ele>
        <time>2021-05-27T19:29:12Z</time>
      </trkpt>
      <trkpt lat="42.294448" lon="2.486961">
        <ele>680.935</ele>
        <time>2021-05-27T19:29:13Z</time>
      </trkpt>
      <trkpt lat="42.294467" lon="2.486951">
        <ele>680.692</ele>
        <time>2021-05-27T19:29:14Z</time>
      </trkpt>
      <trkpt lat="42.294484" lon="2.486940">
        <ele>680.347</ele>
        <time>2021-05-27T19:29:15Z</time>
      </trkpt>
      <trkpt lat="42.294513" lon="2.486926">
        <ele>679.670</ele>
        <time>2021-05-27T19:29:17Z</time>
      </trkpt>
      <trkpt lat="42.294532" lon="2.486918">
        <ele>679.386</ele>
        <time>2021-05-27T19:29:18Z</time>
      </trkpt>
      <trkpt lat="42.294552" lon="2.486909">
        <ele>678.919</ele>
        <time>2021-05-27T19:29:19Z</time>
      </trkpt>
      <trkpt lat="42.294570" lon="2.486900">
        <ele>678.509</ele>
        <time>2021-05-27T19:29:20Z</time>
      </trkpt>
      <trkpt lat="42.294589" lon="2.486890">
        <ele>678.119</ele>
        <time>2021-05-27T19:29:21Z</time>
      </trkpt>
      <trkpt lat="42.294605" lon="2.486879">
        <ele>677.808</ele>
        <time>2021-05-27T19:29:22Z</time>
      </trkpt>
      <trkpt lat="42.294622" lon="2.486868">
        <ele>677.428</ele>
        <time>2021-05-27T19:29:23Z</time>
      </trkpt>
      <trkpt lat="42.294655" lon="2.486847">
        <ele>676.815</ele>
        <time>2021-05-27T19:29:24Z</time>
      </trkpt>
      <trkpt lat="42.294672" lon="2.486836">
        <ele>676.433</ele>
        <time>2021-05-27T19:29:26Z</time>
      </trkpt>
      <trkpt lat="42.294707" lon="2.486816">
        <ele>675.843</ele>
        <time>2021-05-27T19:29:27Z</time>
      </trkpt>
      <trkpt lat="42.294733" lon="2.486782">
        <ele>675.220</ele>
        <time>2021-05-27T19:29:30Z</time>
      </trkpt>
      <trkpt lat="42.294737" lon="2.486741">
        <ele>675.035</ele>
        <time>2021-05-27T19:29:32Z</time>
      </trkpt>
      <trkpt lat="42.294723" lon="2.486701">
        <ele>675.148</ele>
        <time>2021-05-27T19:29:34Z</time>
      </trkpt>
      <trkpt lat="42.294708" lon="2.486662">
        <ele>675.194</ele>
        <time>2021-05-27T19:29:35Z</time>
      </trkpt>
      <trkpt lat="42.294697" lon="2.486618">
        <ele>674.767</ele>
        <time>2021-05-27T19:29:38Z</time>
      </trkpt>
      <trkpt lat="42.294693" lon="2.486595">
        <ele>674.481</ele>
        <time>2021-05-27T19:29:39Z</time>
      </trkpt>
      <trkpt lat="42.294690" lon="2.486569">
        <ele>674.119</ele>
        <time>2021-05-27T19:29:40Z</time>
      </trkpt>
      <trkpt lat="42.294686" lon="2.486542">
        <ele>673.808</ele>
        <time>2021-05-27T19:29:41Z</time>
      </trkpt>
      <trkpt lat="42.294680" lon="2.486513">
        <ele>673.613</ele>
        <time>2021-05-27T19:29:42Z</time>
      </trkpt>
      <trkpt lat="42.294674" lon="2.486486">
        <ele>673.370</ele>
        <time>2021-05-27T19:29:43Z</time>
      </trkpt>
      <trkpt lat="42.294670" lon="2.486458">
        <ele>673.048</ele>
        <time>2021-05-27T19:29:44Z</time>
      </trkpt>
      <trkpt lat="42.294669" lon="2.486433">
        <ele>672.798</ele>
        <time>2021-05-27T19:29:45Z</time>
      </trkpt>
      <trkpt lat="42.294674" lon="2.486387">
        <ele>672.025</ele>
        <time>2021-05-27T19:29:47Z</time>
      </trkpt>
      <trkpt lat="42.294677" lon="2.486360">
        <ele>671.850</ele>
        <time>2021-05-27T19:29:48Z</time>
      </trkpt>
      <trkpt lat="42.294683" lon="2.486311">
        <ele>671.313</ele>
        <time>2021-05-27T19:29:50Z</time>
      </trkpt>
      <trkpt lat="42.294680" lon="2.486277">
        <ele>671.169</ele>
        <time>2021-05-27T19:29:51Z</time>
      </trkpt>
      <trkpt lat="42.294677" lon="2.486242">
        <ele>670.943</ele>
        <time>2021-05-27T19:29:52Z</time>
      </trkpt>
      <trkpt lat="42.294680" lon="2.486214">
        <ele>670.764</ele>
        <time>2021-05-27T19:29:53Z</time>
      </trkpt>
      <trkpt lat="42.294681" lon="2.486182">
        <ele>670.410</ele>
        <time>2021-05-27T19:29:54Z</time>
      </trkpt>
      <trkpt lat="42.294680" lon="2.486153">
        <ele>670.208</ele>
        <time>2021-05-27T19:29:55Z</time>
      </trkpt>
      <trkpt lat="42.294678" lon="2.486122">
        <ele>670.021</ele>
        <time>2021-05-27T19:29:56Z</time>
      </trkpt>
      <trkpt lat="42.294678" lon="2.486093">
        <ele>669.668</ele>
        <time>2021-05-27T19:29:57Z</time>
      </trkpt>
      <trkpt lat="42.294674" lon="2.485971">
        <ele>667.676</ele>
        <time>2021-05-27T19:30:01Z</time>
      </trkpt>
      <trkpt lat="42.294608" lon="2.485865">
        <ele>667.486</ele>
        <time>2021-05-27T19:30:07Z</time>
      </trkpt>
      <trkpt lat="42.294541" lon="2.485777">
        <ele>667.723</ele>
        <time>2021-05-27T19:30:12Z</time>
      </trkpt>
      <trkpt lat="42.294471" lon="2.485693">
        <ele>668.628</ele>
        <time>2021-05-27T19:30:20Z</time>
      </trkpt>
      <trkpt lat="42.294380" lon="2.485691">
        <ele>671.421</ele>
        <time>2021-05-27T19:30:28Z</time>
      </trkpt>
      <trkpt lat="42.294298" lon="2.485744">
        <ele>674.487</ele>
        <time>2021-05-27T19:30:54Z</time>
      </trkpt>
      <trkpt lat="42.294356" lon="2.485649">
        <ele>671.864</ele>
        <time>2021-05-27T19:31:45Z</time>
      </trkpt>
      <trkpt lat="42.294371" lon="2.485669">
        <ele>671.506</ele>
        <time>2021-05-27T19:31:49Z</time>
      </trkpt>
      <trkpt lat="42.294374" lon="2.485645">
        <ele>671.216</ele>
        <time>2021-05-27T19:32:05Z</time>
      </trkpt>
      <trkpt lat="42.294385" lon="2.485625">
        <ele>670.608</ele>
        <time>2021-05-27T19:32:09Z</time>
      </trkpt>
      <trkpt lat="42.294387" lon="2.485600">
        <ele>670.343</ele>
        <time>2021-05-27T19:32:14Z</time>
      </trkpt>
      <trkpt lat="42.294404" lon="2.485577">
        <ele>669.520</ele>
        <time>2021-05-27T19:32:17Z</time>
      </trkpt>
      <trkpt lat="42.294420" lon="2.485561">
        <ele>668.878</ele>
        <time>2021-05-27T19:32:20Z</time>
      </trkpt>
      <trkpt lat="42.294497" lon="2.485491">
        <ele>667.648</ele>
        <time>2021-05-27T19:32:26Z</time>
      </trkpt>
      <trkpt lat="42.294554" lon="2.485445">
        <ele>666.275</ele>
        <time>2021-05-27T19:32:33Z</time>
      </trkpt>
      <trkpt lat="42.294564" lon="2.485422">
        <ele>666.310</ele>
        <time>2021-05-27T19:32:38Z</time>
      </trkpt>
      <trkpt lat="42.294582" lon="2.485405">
        <ele>665.843</ele>
        <time>2021-05-27T19:32:43Z</time>
      </trkpt>
      <trkpt lat="42.294644" lon="2.485313">
        <ele>664.619</ele>
        <time>2021-05-27T19:32:57Z</time>
      </trkpt>
      <trkpt lat="42.294707" lon="2.485218">
        <ele>663.275</ele>
        <time>2021-05-27T19:33:29Z</time>
      </trkpt>
      <trkpt lat="42.294771" lon="2.485132">
        <ele>662.528</ele>
        <time>2021-05-27T19:33:38Z</time>
      </trkpt>
      <trkpt lat="42.294828" lon="2.485035">
        <ele>662.820</ele>
        <time>2021-05-27T19:33:47Z</time>
      </trkpt>
      <trkpt lat="42.294875" lon="2.484919">
        <ele>663.208</ele>
        <time>2021-05-27T19:33:53Z</time>
      </trkpt>
      <trkpt lat="42.294934" lon="2.484826">
        <ele>662.884</ele>
        <time>2021-05-27T19:34:02Z</time>
      </trkpt>
      <trkpt lat="42.295012" lon="2.484737">
        <ele>662.171</ele>
        <time>2021-05-27T19:34:09Z</time>
      </trkpt>
      <trkpt lat="42.295047" lon="2.484692">
        <ele>661.439</ele>
        <time>2021-05-27T19:34:12Z</time>
      </trkpt>
      <trkpt lat="42.295067" lon="2.484670">
        <ele>660.989</ele>
        <time>2021-05-27T19:34:14Z</time>
      </trkpt>
      <trkpt lat="42.295090" lon="2.484649">
        <ele>660.386</ele>
        <time>2021-05-27T19:34:17Z</time>
      </trkpt>
      <trkpt lat="42.295109" lon="2.484629">
        <ele>659.821</ele>
        <time>2021-05-27T19:34:20Z</time>
      </trkpt>
      <trkpt lat="42.295121" lon="2.484598">
        <ele>660.034</ele>
        <time>2021-05-27T19:34:23Z</time>
      </trkpt>
      <trkpt lat="42.295132" lon="2.484540">
        <ele>660.790</ele>
        <time>2021-05-27T19:34:27Z</time>
      </trkpt>
      <trkpt lat="42.295176" lon="2.484451">
        <ele>660.987</ele>
        <time>2021-05-27T19:34:35Z</time>
      </trkpt>
      <trkpt lat="42.295196" lon="2.484434">
        <ele>660.442</ele>
        <time>2021-05-27T19:34:37Z</time>
      </trkpt>
      <trkpt lat="42.295211" lon="2.484416">
        <ele>660.126</ele>
        <time>2021-05-27T19:34:39Z</time>
      </trkpt>
      <trkpt lat="42.295229" lon="2.484400">
        <ele>659.708</ele>
        <time>2021-05-27T19:34:41Z</time>
      </trkpt>
      <trkpt lat="42.295248" lon="2.484394">
        <ele>659.145</ele>
        <time>2021-05-27T19:34:43Z</time>
      </trkpt>
      <trkpt lat="42.295263" lon="2.484372">
        <ele>658.932</ele>
        <time>2021-05-27T19:34:46Z</time>
      </trkpt>
      <trkpt lat="42.295283" lon="2.484358">
        <ele>658.310</ele>
        <time>2021-05-27T19:34:48Z</time>
      </trkpt>
      <trkpt lat="42.295307" lon="2.484350">
        <ele>657.370</ele>
        <time>2021-05-27T19:34:50Z</time>
      </trkpt>
      <trkpt lat="42.295325" lon="2.484347">
        <ele>656.587</ele>
        <time>2021-05-27T19:34:52Z</time>
      </trkpt>
      <trkpt lat="42.295346" lon="2.484335">
        <ele>655.752</ele>
        <time>2021-05-27T19:34:54Z</time>
      </trkpt>
      <trkpt lat="42.295363" lon="2.484315">
        <ele>655.325</ele>
        <time>2021-05-27T19:34:56Z</time>
      </trkpt>
      <trkpt lat="42.295377" lon="2.484295">
        <ele>655.121</ele>
        <time>2021-05-27T19:34:58Z</time>
      </trkpt>
      <trkpt lat="42.295391" lon="2.484272">
        <ele>654.981</ele>
        <time>2021-05-27T19:35:00Z</time>
      </trkpt>
      <trkpt lat="42.295406" lon="2.484250">
        <ele>654.761</ele>
        <time>2021-05-27T19:35:02Z</time>
      </trkpt>
      <trkpt lat="42.295425" lon="2.484220">
        <ele>654.517</ele>
        <time>2021-05-27T19:35:04Z</time>
      </trkpt>
      <trkpt lat="42.295445" lon="2.484193">
        <ele>654.208</ele>
        <time>2021-05-27T19:35:06Z</time>
      </trkpt>
      <trkpt lat="42.295516" lon="2.484097">
        <ele>651.825</ele>
        <time>2021-05-27T19:35:15Z</time>
      </trkpt>
      <trkpt lat="42.295561" lon="2.483978">
        <ele>649.792</ele>
        <time>2021-05-27T19:35:26Z</time>
      </trkpt>
      <trkpt lat="42.295606" lon="2.483869">
        <ele>647.620</ele>
        <time>2021-05-27T19:35:35Z</time>
      </trkpt>
      <trkpt lat="42.295651" lon="2.483756">
        <ele>647.850</ele>
        <time>2021-05-27T19:35:46Z</time>
      </trkpt>
      <trkpt lat="42.295728" lon="2.483686">
        <ele>647.077</ele>
        <time>2021-05-27T19:35:55Z</time>
      </trkpt>
      <trkpt lat="42.295828" lon="2.483762">
        <ele>640.752</ele>
        <time>2021-05-27T19:36:07Z</time>
      </trkpt>
      <trkpt lat="42.295908" lon="2.483842">
        <ele>637.825</ele>
        <time>2021-05-27T19:36:17Z</time>
      </trkpt>
      <trkpt lat="42.295993" lon="2.483898">
        <ele>636.541</ele>
        <time>2021-05-27T19:36:24Z</time>
      </trkpt>
      <trkpt lat="42.296088" lon="2.483938">
        <ele>635.816</ele>
        <time>2021-05-27T19:36:31Z</time>
      </trkpt>
      <trkpt lat="42.296167" lon="2.483997">
        <ele>633.476</ele>
        <time>2021-05-27T19:36:40Z</time>
      </trkpt>
      <trkpt lat="42.296258" lon="2.484044">
        <ele>631.613</ele>
        <time>2021-05-27T19:36:48Z</time>
      </trkpt>
      <trkpt lat="42.296348" lon="2.484062">
        <ele>631.108</ele>
        <time>2021-05-27T19:36:58Z</time>
      </trkpt>
      <trkpt lat="42.296442" lon="2.484053">
        <ele>630.448</ele>
        <time>2021-05-27T19:37:07Z</time>
      </trkpt>
      <trkpt lat="42.296533" lon="2.484008">
        <ele>630.095</ele>
        <time>2021-05-27T19:37:13Z</time>
      </trkpt>
      <trkpt lat="42.296622" lon="2.483958">
        <ele>629.483</ele>
        <time>2021-05-27T19:37:20Z</time>
      </trkpt>
      <trkpt lat="42.296705" lon="2.483899">
        <ele>628.053</ele>
        <time>2021-05-27T19:37:29Z</time>
      </trkpt>
      <trkpt lat="42.296797" lon="2.483847">
        <ele>624.910</ele>
        <time>2021-05-27T19:37:36Z</time>
      </trkpt>
      <trkpt lat="42.296856" lon="2.483776">
        <ele>623.775</ele>
        <time>2021-05-27T19:37:40Z</time>
      </trkpt>
      <trkpt lat="42.296883" lon="2.483758">
        <ele>622.878</ele>
        <time>2021-05-27T19:37:42Z</time>
      </trkpt>
      <trkpt lat="42.296934" lon="2.483701">
        <ele>621.684</ele>
        <time>2021-05-27T19:37:45Z</time>
      </trkpt>
      <trkpt lat="42.296963" lon="2.483669">
        <ele>620.742</ele>
        <time>2021-05-27T19:37:47Z</time>
      </trkpt>
      <trkpt lat="42.297030" lon="2.483580">
        <ele>618.522</ele>
        <time>2021-05-27T19:37:53Z</time>
      </trkpt>
      <trkpt lat="42.297047" lon="2.483548">
        <ele>617.914</ele>
        <time>2021-05-27T19:37:55Z</time>
      </trkpt>
      <trkpt lat="42.297060" lon="2.483511">
        <ele>617.608</ele>
        <time>2021-05-27T19:37:57Z</time>
      </trkpt>
      <trkpt lat="42.297073" lon="2.483490">
        <ele>617.141</ele>
        <time>2021-05-27T19:37:59Z</time>
      </trkpt>
      <trkpt lat="42.297145" lon="2.483425">
        <ele>613.628</ele>
        <time>2021-05-27T19:38:10Z</time>
      </trkpt>
      <trkpt lat="42.297157" lon="2.483406">
        <ele>613.156</ele>
        <time>2021-05-27T19:38:18Z</time>
      </trkpt>
      <trkpt lat="42.297183" lon="2.483424">
        <ele>611.416</ele>
        <time>2021-05-27T19:38:20Z</time>
      </trkpt>
      <trkpt lat="42.297198" lon="2.483448">
        <ele>610.263</ele>
        <time>2021-05-27T19:38:22Z</time>
      </trkpt>
      <trkpt lat="42.297208" lon="2.483471">
        <ele>609.478</ele>
        <time>2021-05-27T19:38:24Z</time>
      </trkpt>
      <trkpt lat="42.297212" lon="2.483525">
        <ele>608.571</ele>
        <time>2021-05-27T19:38:28Z</time>
      </trkpt>
      <trkpt lat="42.297215" lon="2.483559">
        <ele>608.087</ele>
        <time>2021-05-27T19:38:30Z</time>
      </trkpt>
      <trkpt lat="42.297213" lon="2.483585">
        <ele>607.838</ele>
        <time>2021-05-27T19:38:32Z</time>
      </trkpt>
      <trkpt lat="42.297198" lon="2.483723">
        <ele>606.370</ele>
        <time>2021-05-27T19:38:40Z</time>
      </trkpt>
      <trkpt lat="42.297163" lon="2.483843">
        <ele>606.117</ele>
        <time>2021-05-27T19:38:50Z</time>
      </trkpt>
      <trkpt lat="42.297121" lon="2.483966">
        <ele>605.808</ele>
        <time>2021-05-27T19:39:00Z</time>
      </trkpt>
      <trkpt lat="42.297090" lon="2.484085">
        <ele>604.960</ele>
        <time>2021-05-27T19:39:11Z</time>
      </trkpt>
      <trkpt lat="42.297035" lon="2.484192">
        <ele>605.597</ele>
        <time>2021-05-27T19:39:18Z</time>
      </trkpt>
      <trkpt lat="42.296997" lon="2.484302">
        <ele>605.145</ele>
        <time>2021-05-27T19:39:24Z</time>
      </trkpt>
      <trkpt lat="42.296958" lon="2.484420">
        <ele>604.885</ele>
        <time>2021-05-27T19:39:29Z</time>
      </trkpt>
      <trkpt lat="42.296893" lon="2.484519">
        <ele>604.572</ele>
        <time>2021-05-27T19:39:34Z</time>
      </trkpt>
      <trkpt lat="42.296812" lon="2.484600">
        <ele>604.417</ele>
        <time>2021-05-27T19:39:39Z</time>
      </trkpt>
      <trkpt lat="42.296761" lon="2.484702">
        <ele>602.660</ele>
        <time>2021-05-27T19:39:45Z</time>
      </trkpt>
      <trkpt lat="42.296858" lon="2.484697">
        <ele>600.676</ele>
        <time>2021-05-27T19:39:54Z</time>
      </trkpt>
      <trkpt lat="42.296931" lon="2.484596">
        <ele>601.598</ele>
        <time>2021-05-27T19:39:59Z</time>
      </trkpt>
      <trkpt lat="42.297001" lon="2.484515">
        <ele>600.015</ele>
        <time>2021-05-27T19:40:04Z</time>
      </trkpt>
      <trkpt lat="42.297029" lon="2.484494">
        <ele>598.926</ele>
        <time>2021-05-27T19:40:07Z</time>
      </trkpt>
      <trkpt lat="42.297048" lon="2.484471">
        <ele>598.408</ele>
        <time>2021-05-27T19:40:09Z</time>
      </trkpt>
      <trkpt lat="42.297073" lon="2.484448">
        <ele>597.516</ele>
        <time>2021-05-27T19:40:11Z</time>
      </trkpt>
      <trkpt lat="42.297096" lon="2.484427">
        <ele>596.733</ele>
        <time>2021-05-27T19:40:13Z</time>
      </trkpt>
      <trkpt lat="42.297167" lon="2.484343">
        <ele>594.781</ele>
        <time>2021-05-27T19:40:18Z</time>
      </trkpt>
      <trkpt lat="42.297223" lon="2.484231">
        <ele>594.371</ele>
        <time>2021-05-27T19:40:25Z</time>
      </trkpt>
      <trkpt lat="42.297279" lon="2.484126">
        <ele>593.488</ele>
        <time>2021-05-27T19:40:31Z</time>
      </trkpt>
      <trkpt lat="42.297342" lon="2.484039">
        <ele>591.613</ele>
        <time>2021-05-27T19:40:37Z</time>
      </trkpt>
      <trkpt lat="42.297402" lon="2.483918">
        <ele>590.926</ele>
        <time>2021-05-27T19:40:42Z</time>
      </trkpt>
      <trkpt lat="42.297468" lon="2.483829">
        <ele>588.972</ele>
        <time>2021-05-27T19:40:46Z</time>
      </trkpt>
      <trkpt lat="42.297526" lon="2.483722">
        <ele>587.623</ele>
        <time>2021-05-27T19:40:54Z</time>
      </trkpt>
      <trkpt lat="42.297512" lon="2.483597">
        <ele>590.683</ele>
        <time>2021-05-27T19:41:03Z</time>
      </trkpt>
      <trkpt lat="42.297571" lon="2.483475">
        <ele>590.111</ele>
        <time>2021-05-27T19:41:12Z</time>
      </trkpt>
      <trkpt lat="42.297655" lon="2.483407">
        <ele>587.908</ele>
        <time>2021-05-27T19:41:16Z</time>
      </trkpt>
      <trkpt lat="42.297734" lon="2.483322">
        <ele>587.099</ele>
        <time>2021-05-27T19:41:22Z</time>
      </trkpt>
      <trkpt lat="42.297813" lon="2.483243">
        <ele>585.856</ele>
        <time>2021-05-27T19:41:31Z</time>
      </trkpt>
      <trkpt lat="42.297896" lon="2.483158">
        <ele>584.784</ele>
        <time>2021-05-27T19:41:39Z</time>
      </trkpt>
      <trkpt lat="42.297930" lon="2.483045">
        <ele>585.884</ele>
        <time>2021-05-27T19:41:45Z</time>
      </trkpt>
      <trkpt lat="42.297992" lon="2.482947">
        <ele>586.771</ele>
        <time>2021-05-27T19:41:52Z</time>
      </trkpt>
      <trkpt lat="42.298081" lon="2.482860">
        <ele>586.486</ele>
        <time>2021-05-27T19:42:00Z</time>
      </trkpt>
      <trkpt lat="42.298161" lon="2.482804">
        <ele>585.439</ele>
        <time>2021-05-27T19:42:05Z</time>
      </trkpt>
      <trkpt lat="42.298232" lon="2.482713">
        <ele>585.515</ele>
        <time>2021-05-27T19:42:11Z</time>
      </trkpt>
      <trkpt lat="42.298305" lon="2.482640">
        <ele>585.053</ele>
        <time>2021-05-27T19:42:26Z</time>
      </trkpt>
      <trkpt lat="42.298403" lon="2.482636">
        <ele>582.804</ele>
        <time>2021-05-27T19:42:33Z</time>
      </trkpt>
      <trkpt lat="42.298496" lon="2.482660">
        <ele>580.414</ele>
        <time>2021-05-27T19:42:41Z</time>
      </trkpt>
      <trkpt lat="42.298588" lon="2.482673">
        <ele>578.208</ele>
        <time>2021-05-27T19:42:47Z</time>
      </trkpt>
      <trkpt lat="42.298682" lon="2.482609">
        <ele>578.312</ele>
        <time>2021-05-27T19:42:51Z</time>
      </trkpt>
      <trkpt lat="42.298772" lon="2.482555">
        <ele>577.729</ele>
        <time>2021-05-27T19:42:56Z</time>
      </trkpt>
      <trkpt lat="42.298852" lon="2.482491">
        <ele>577.257</ele>
        <time>2021-05-27T19:43:02Z</time>
      </trkpt>
      <trkpt lat="42.298916" lon="2.482398">
        <ele>576.387</ele>
        <time>2021-05-27T19:43:08Z</time>
      </trkpt>
      <trkpt lat="42.298969" lon="2.482286">
        <ele>576.034</ele>
        <time>2021-05-27T19:43:18Z</time>
      </trkpt>
      <trkpt lat="42.299056" lon="2.482239">
        <ele>573.639</ele>
        <time>2021-05-27T19:43:25Z</time>
      </trkpt>
      <trkpt lat="42.299145" lon="2.482217">
        <ele>571.082</ele>
        <time>2021-05-27T19:43:31Z</time>
      </trkpt>
      <trkpt lat="42.299224" lon="2.482150">
        <ele>570.878</ele>
        <time>2021-05-27T19:43:38Z</time>
      </trkpt>
      <trkpt lat="42.299324" lon="2.482160">
        <ele>567.573</ele>
        <time>2021-05-27T19:43:48Z</time>
      </trkpt>
      <trkpt lat="42.299266" lon="2.482262">
        <ele>566.185</ele>
        <time>2021-05-27T19:44:01Z</time>
      </trkpt>
      <trkpt lat="42.299217" lon="2.482365">
        <ele>565.013</ele>
        <time>2021-05-27T19:44:07Z</time>
      </trkpt>
      <trkpt lat="42.299201" lon="2.482505">
        <ele>561.908</ele>
        <time>2021-05-27T19:44:16Z</time>
      </trkpt>
      <trkpt lat="42.299181" lon="2.482624">
        <ele>560.334</ele>
        <time>2021-05-27T19:44:23Z</time>
      </trkpt>
      <trkpt lat="42.299149" lon="2.482752">
        <ele>559.271</ele>
        <time>2021-05-27T19:44:30Z</time>
      </trkpt>
      <trkpt lat="42.299092" lon="2.482871">
        <ele>559.369</ele>
        <time>2021-05-27T19:44:36Z</time>
      </trkpt>
      <trkpt lat="42.299006" lon="2.482968">
        <ele>560.059</ele>
        <time>2021-05-27T19:44:41Z</time>
      </trkpt>
      <trkpt lat="42.299101" lon="2.482989">
        <ele>556.856</ele>
        <time>2021-05-27T19:45:01Z</time>
      </trkpt>
      <trkpt lat="42.299184" lon="2.482915">
        <ele>555.491</ele>
        <time>2021-05-27T19:45:07Z</time>
      </trkpt>
      <trkpt lat="42.299251" lon="2.482824">
        <ele>554.574</ele>
        <time>2021-05-27T19:45:13Z</time>
      </trkpt>
      <trkpt lat="42.299330" lon="2.482751">
        <ele>553.280</ele>
        <time>2021-05-27T19:45:17Z</time>
      </trkpt>
      <trkpt lat="42.299420" lon="2.482690">
        <ele>551.759</ele>
        <time>2021-05-27T19:45:23Z</time>
      </trkpt>
      <trkpt lat="42.299486" lon="2.482606">
        <ele>551.003</ele>
        <time>2021-05-27T19:45:30Z</time>
      </trkpt>
      <trkpt lat="42.299543" lon="2.482504">
        <ele>550.723</ele>
        <time>2021-05-27T19:45:38Z</time>
      </trkpt>
      <trkpt lat="42.299639" lon="2.482472">
        <ele>547.608</ele>
        <time>2021-05-27T19:45:42Z</time>
      </trkpt>
      <trkpt lat="42.299705" lon="2.482367">
        <ele>548.952</ele>
        <time>2021-05-27T19:45:50Z</time>
      </trkpt>
      <trkpt lat="42.299792" lon="2.482411">
        <ele>545.949</ele>
        <time>2021-05-27T19:46:03Z</time>
      </trkpt>
      <trkpt lat="42.299889" lon="2.482458">
        <ele>543.377</ele>
        <time>2021-05-27T19:46:14Z</time>
      </trkpt>
      <trkpt lat="42.299980" lon="2.482430">
        <ele>543.427</ele>
        <time>2021-05-27T19:46:21Z</time>
      </trkpt>
      <trkpt lat="42.300084" lon="2.482417">
        <ele>541.994</ele>
        <time>2021-05-27T19:46:30Z</time>
      </trkpt>
      <trkpt lat="42.300173" lon="2.482345">
        <ele>541.939</ele>
        <time>2021-05-27T19:46:37Z</time>
      </trkpt>
      <trkpt lat="42.300246" lon="2.482246">
        <ele>542.472</ele>
        <time>2021-05-27T19:46:43Z</time>
      </trkpt>
      <trkpt lat="42.300328" lon="2.482177">
        <ele>542.388</ele>
        <time>2021-05-27T19:46:51Z</time>
      </trkpt>
      <trkpt lat="42.300427" lon="2.482147">
        <ele>540.514</ele>
        <time>2021-05-27T19:46:58Z</time>
      </trkpt>
      <trkpt lat="42.300512" lon="2.482104">
        <ele>539.354</ele>
        <time>2021-05-27T19:47:04Z</time>
      </trkpt>
      <trkpt lat="42.300594" lon="2.482055">
        <ele>538.509</ele>
        <time>2021-05-27T19:47:09Z</time>
      </trkpt>
      <trkpt lat="42.300687" lon="2.482001">
        <ele>537.208</ele>
        <time>2021-05-27T19:47:14Z</time>
      </trkpt>
      <trkpt lat="42.300756" lon="2.481923">
        <ele>536.368</ele>
        <time>2021-05-27T19:47:21Z</time>
      </trkpt>
      <trkpt lat="42.300845" lon="2.481871">
        <ele>535.375</ele>
        <time>2021-05-27T19:47:30Z</time>
      </trkpt>
      <trkpt lat="42.300928" lon="2.481807">
        <ele>535.863</ele>
        <time>2021-05-27T19:47:41Z</time>
      </trkpt>
      <trkpt lat="42.301017" lon="2.481742">
        <ele>534.743</ele>
        <time>2021-05-27T19:48:00Z</time>
      </trkpt>
      <trkpt lat="42.301114" lon="2.481732">
        <ele>532.270</ele>
        <time>2021-05-27T19:48:26Z</time>
      </trkpt>
      <trkpt lat="42.301205" lon="2.481675">
        <ele>531.175</ele>
        <time>2021-05-27T19:48:31Z</time>
      </trkpt>
      <trkpt lat="42.301254" lon="2.481709">
        <ele>531.228</ele>
        <time>2021-05-27T19:48:38Z</time>
      </trkpt>
      <trkpt lat="42.301277" lon="2.481707">
        <ele>531.014</ele>
        <time>2021-05-27T19:48:41Z</time>
      </trkpt>
      <trkpt lat="42.301323" lon="2.481591">
        <ele>531.482</ele>
        <time>2021-05-27T19:49:24Z</time>
      </trkpt>
      <trkpt lat="42.301394" lon="2.481626">
        <ele>529.743</ele>
        <time>2021-05-27T19:49:39Z</time>
      </trkpt>
      <trkpt lat="42.301421" lon="2.481611">
        <ele>530.617</ele>
        <time>2021-05-27T19:49:46Z</time>
      </trkpt>
      <trkpt lat="42.301430" lon="2.481585">
        <ele>531.008</ele>
        <time>2021-05-27T19:50:02Z</time>
      </trkpt>
      <trkpt lat="42.301402" lon="2.481542">
        <ele>531.065</ele>
        <time>2021-05-27T19:50:19Z</time>
      </trkpt>
      <trkpt lat="42.301385" lon="2.481569">
        <ele>530.512</ele>
        <time>2021-05-27T19:50:21Z</time>
      </trkpt>
      <trkpt lat="42.301417" lon="2.481653">
        <ele>530.140</ele>
        <time>2021-05-27T19:50:34Z</time>
      </trkpt>
      <trkpt lat="42.301431" lon="2.481672">
        <ele>530.720</ele>
        <time>2021-05-27T19:50:45Z</time>
      </trkpt>
      <trkpt lat="42.301411" lon="2.481668">
        <ele>529.887</ele>
        <time>2021-05-27T19:50:49Z</time>
      </trkpt>
      <trkpt lat="42.301423" lon="2.481641">
        <ele>530.422</ele>
        <time>2021-05-27T19:50:51Z</time>
      </trkpt>
      <trkpt lat="42.301423" lon="2.481608">
        <ele>530.795</ele>
        <time>2021-05-27T19:50:56Z</time>
      </trkpt>
      <trkpt lat="42.301426" lon="2.481583">
        <ele>531.051</ele>
        <time>2021-05-27T19:51:36Z</time>
      </trkpt>
      <trkpt lat="42.301440" lon="2.481564">
        <ele>531.422</ele>
        <time>2021-05-27T19:51:41Z</time>
      </trkpt>
      <trkpt lat="42.301455" lon="2.481548">
        <ele>531.762</ele>
        <time>2021-05-27T19:51:46Z</time>
      </trkpt>
      <trkpt lat="42.301467" lon="2.481524">
        <ele>531.808</ele>
        <time>2021-05-27T19:52:30Z</time>
      </trkpt>
      <trkpt lat="42.301484" lon="2.481537">
        <ele>532.108</ele>
        <time>2021-05-27T19:52:43Z</time>
      </trkpt>
      <trkpt lat="42.301506" lon="2.481523">
        <ele>532.249</ele>
        <time>2021-05-27T19:52:51Z</time>
      </trkpt>
      <trkpt lat="42.301522" lon="2.481509">
        <ele>532.336</ele>
        <time>2021-05-27T19:53:00Z</time>
      </trkpt>
      <trkpt lat="42.301538" lon="2.481485">
        <ele>532.184</ele>
        <time>2021-05-27T19:53:04Z</time>
      </trkpt>
      <trkpt lat="42.301549" lon="2.481464">
        <ele>531.824</ele>
        <time>2021-05-27T19:53:10Z</time>
      </trkpt>
      <trkpt lat="42.301564" lon="2.481449">
        <ele>531.561</ele>
        <time>2021-05-27T19:53:17Z</time>
      </trkpt>
      <trkpt lat="42.301587" lon="2.481434">
        <ele>531.116</ele>
        <time>2021-05-27T19:53:36Z</time>
      </trkpt>
      <trkpt lat="42.301606" lon="2.481409">
        <ele>530.489</ele>
        <time>2021-05-27T19:53:39Z</time>
      </trkpt>
      <trkpt lat="42.301611" lon="2.481385">
        <ele>529.855</ele>
        <time>2021-05-27T19:53:40Z</time>
      </trkpt>
      <trkpt lat="42.301615" lon="2.481360">
        <ele>530.092</ele>
        <time>2021-05-27T19:53:43Z</time>
      </trkpt>
      <trkpt lat="42.301627" lon="2.481330">
        <ele>530.073</ele>
        <time>2021-05-27T19:53:46Z</time>
      </trkpt>
      <trkpt lat="42.301650" lon="2.481302">
        <ele>529.720</ele>
        <time>2021-05-27T19:53:48Z</time>
      </trkpt>
      <trkpt lat="42.301677" lon="2.481261">
        <ele>529.408</ele>
        <time>2021-05-27T19:53:51Z</time>
      </trkpt>
      <trkpt lat="42.301699" lon="2.481243">
        <ele>529.326</ele>
        <time>2021-05-27T19:53:54Z</time>
      </trkpt>
      <trkpt lat="42.301716" lon="2.481227">
        <ele>529.283</ele>
        <time>2021-05-27T19:53:56Z</time>
      </trkpt>
      <trkpt lat="42.301733" lon="2.481206">
        <ele>529.061</ele>
        <time>2021-05-27T19:53:58Z</time>
      </trkpt>
      <trkpt lat="42.301747" lon="2.481181">
        <ele>528.711</ele>
        <time>2021-05-27T19:53:59Z</time>
      </trkpt>
      <trkpt lat="42.301770" lon="2.481136">
        <ele>528.098</ele>
        <time>2021-05-27T19:54:03Z</time>
      </trkpt>
      <trkpt lat="42.301803" lon="2.481121">
        <ele>527.213</ele>
        <time>2021-05-27T19:54:06Z</time>
      </trkpt>
      <trkpt lat="42.301823" lon="2.481118">
        <ele>526.716</ele>
        <time>2021-05-27T19:54:08Z</time>
      </trkpt>
      <trkpt lat="42.301844" lon="2.481121">
        <ele>526.342</ele>
        <time>2021-05-27T19:54:11Z</time>
      </trkpt>
      <trkpt lat="42.301862" lon="2.481134">
        <ele>526.229</ele>
        <time>2021-05-27T19:54:14Z</time>
      </trkpt>
      <trkpt lat="42.301881" lon="2.481136">
        <ele>525.900</ele>
        <time>2021-05-27T19:54:15Z</time>
      </trkpt>
      <trkpt lat="42.301900" lon="2.481136">
        <ele>525.520</ele>
        <time>2021-05-27T19:54:21Z</time>
      </trkpt>
      <trkpt lat="42.301921" lon="2.481153">
        <ele>525.608</ele>
        <time>2021-05-27T19:54:23Z</time>
      </trkpt>
      <trkpt lat="42.301949" lon="2.481180">
        <ele>526.089</ele>
        <time>2021-05-27T19:54:26Z</time>
      </trkpt>
      <trkpt lat="42.301975" lon="2.481185">
        <ele>526.576</ele>
        <time>2021-05-27T19:54:28Z</time>
      </trkpt>
      <trkpt lat="42.301995" lon="2.481189">
        <ele>526.994</ele>
        <time>2021-05-27T19:54:31Z</time>
      </trkpt>
      <trkpt lat="42.302067" lon="2.481176">
        <ele>527.334</ele>
        <time>2021-05-27T19:54:38Z</time>
      </trkpt>
      <trkpt lat="42.302135" lon="2.481158">
        <ele>527.371</ele>
        <time>2021-05-27T19:54:43Z</time>
      </trkpt>
      <trkpt lat="42.302174" lon="2.481140">
        <ele>526.916</ele>
        <time>2021-05-27T19:54:47Z</time>
      </trkpt>
      <trkpt lat="42.302200" lon="2.481142">
        <ele>527.229</ele>
        <time>2021-05-27T19:54:50Z</time>
      </trkpt>
      <trkpt lat="42.302293" lon="2.481074">
        <ele>527.455</ele>
        <time>2021-05-27T19:54:57Z</time>
      </trkpt>
      <trkpt lat="42.302376" lon="2.480979">
        <ele>526.973</ele>
        <time>2021-05-27T19:55:01Z</time>
      </trkpt>
      <trkpt lat="42.302456" lon="2.480908">
        <ele>526.785</ele>
        <time>2021-05-27T19:55:06Z</time>
      </trkpt>
      <trkpt lat="42.302508" lon="2.480859">
        <ele>526.313</ele>
        <time>2021-05-27T19:55:11Z</time>
      </trkpt>
      <trkpt lat="42.302587" lon="2.480786">
        <ele>527.508</ele>
        <time>2021-05-27T19:55:18Z</time>
      </trkpt>
      <trkpt lat="42.302654" lon="2.480704">
        <ele>528.594</ele>
        <time>2021-05-27T19:55:26Z</time>
      </trkpt>
      <trkpt lat="42.302670" lon="2.480673">
        <ele>528.541</ele>
        <time>2021-05-27T19:55:27Z</time>
      </trkpt>
      <trkpt lat="42.302686" lon="2.480643">
        <ele>528.599</ele>
        <time>2021-05-27T19:55:30Z</time>
      </trkpt>
      <trkpt lat="42.302702" lon="2.480614">
        <ele>528.549</ele>
        <time>2021-05-27T19:55:32Z</time>
      </trkpt>
      <trkpt lat="42.302716" lon="2.480583">
        <ele>528.396</ele>
        <time>2021-05-27T19:55:34Z</time>
      </trkpt>
      <trkpt lat="42.302730" lon="2.480554">
        <ele>528.281</ele>
        <time>2021-05-27T19:55:35Z</time>
      </trkpt>
      <trkpt lat="42.302745" lon="2.480538">
        <ele>528.494</ele>
        <time>2021-05-27T19:55:37Z</time>
      </trkpt>
      <trkpt lat="42.302766" lon="2.480535">
        <ele>529.180</ele>
        <time>2021-05-27T19:55:40Z</time>
      </trkpt>
      <trkpt lat="42.302774" lon="2.480504">
        <ele>528.622</ele>
        <time>2021-05-27T19:55:45Z</time>
      </trkpt>
      <trkpt lat="42.302789" lon="2.480482">
        <ele>528.362</ele>
        <time>2021-05-27T19:55:47Z</time>
      </trkpt>
      <trkpt lat="42.302810" lon="2.480460">
        <ele>528.108</ele>
        <time>2021-05-27T19:55:49Z</time>
      </trkpt>
      <trkpt lat="42.302833" lon="2.480438">
        <ele>527.908</ele>
        <time>2021-05-27T19:55:51Z</time>
      </trkpt>
      <trkpt lat="42.302856" lon="2.480415">
        <ele>527.749</ele>
        <time>2021-05-27T19:55:53Z</time>
      </trkpt>
      <trkpt lat="42.302877" lon="2.480391">
        <ele>527.536</ele>
        <time>2021-05-27T19:55:55Z</time>
      </trkpt>
      <trkpt lat="42.302887" lon="2.480360">
        <ele>526.934</ele>
        <time>2021-05-27T19:55:57Z</time>
      </trkpt>
      <trkpt lat="42.302891" lon="2.480329">
        <ele>526.344</ele>
        <time>2021-05-27T19:55:59Z</time>
      </trkpt>
      <trkpt lat="42.302910" lon="2.480310">
        <ele>526.141</ele>
        <time>2021-05-27T19:56:01Z</time>
      </trkpt>
      <trkpt lat="42.302934" lon="2.480298">
        <ele>526.346</ele>
        <time>2021-05-27T19:56:03Z</time>
      </trkpt>
      <trkpt lat="42.302958" lon="2.480285">
        <ele>526.459</ele>
        <time>2021-05-27T19:56:05Z</time>
      </trkpt>
      <trkpt lat="42.302983" lon="2.480269">
        <ele>526.545</ele>
        <time>2021-05-27T19:56:07Z</time>
      </trkpt>
      <trkpt lat="42.303009" lon="2.480250">
        <ele>526.591</ele>
        <time>2021-05-27T19:56:09Z</time>
      </trkpt>
      <trkpt lat="42.303031" lon="2.480233">
        <ele>526.681</ele>
        <time>2021-05-27T19:56:11Z</time>
      </trkpt>
      <trkpt lat="42.303055" lon="2.480215">
        <ele>526.619</ele>
        <time>2021-05-27T19:56:13Z</time>
      </trkpt>
      <trkpt lat="42.303082" lon="2.480200">
        <ele>526.108</ele>
        <time>2021-05-27T19:56:15Z</time>
      </trkpt>
      <trkpt lat="42.303112" lon="2.480185">
        <ele>525.566</ele>
        <time>2021-05-27T19:56:17Z</time>
      </trkpt>
      <trkpt lat="42.303141" lon="2.480174">
        <ele>525.113</ele>
        <time>2021-05-27T19:56:18Z</time>
      </trkpt>
      <trkpt lat="42.303170" lon="2.480163">
        <ele>524.621</ele>
        <time>2021-05-27T19:56:20Z</time>
      </trkpt>
      <trkpt lat="42.303195" lon="2.480145">
        <ele>524.121</ele>
        <time>2021-05-27T19:56:22Z</time>
      </trkpt>
      <trkpt lat="42.303213" lon="2.480120">
        <ele>523.518</ele>
        <time>2021-05-27T19:56:25Z</time>
      </trkpt>
      <trkpt lat="42.303220" lon="2.480088">
        <ele>522.933</ele>
        <time>2021-05-27T19:56:27Z</time>
      </trkpt>
      <trkpt lat="42.303203" lon="2.480051">
        <ele>522.486</ele>
        <time>2021-05-27T19:56:29Z</time>
      </trkpt>
      <trkpt lat="42.303190" lon="2.480033">
        <ele>522.162</ele>
        <time>2021-05-27T19:56:30Z</time>
      </trkpt>
      <trkpt lat="42.303159" lon="2.480007">
        <ele>521.826</ele>
        <time>2021-05-27T19:56:32Z</time>
      </trkpt>
      <trkpt lat="42.303121" lon="2.479992">
        <ele>521.647</ele>
        <time>2021-05-27T19:56:34Z</time>
      </trkpt>
      <trkpt lat="42.303101" lon="2.479984">
        <ele>521.511</ele>
        <time>2021-05-27T19:56:35Z</time>
      </trkpt>
      <trkpt lat="42.303081" lon="2.479975">
        <ele>521.508</ele>
        <time>2021-05-27T19:56:36Z</time>
      </trkpt>
      <trkpt lat="42.303064" lon="2.479961">
        <ele>521.389</ele>
        <time>2021-05-27T19:56:37Z</time>
      </trkpt>
      <trkpt lat="42.303043" lon="2.479926">
        <ele>520.456</ele>
        <time>2021-05-27T19:56:39Z</time>
      </trkpt>
      <trkpt lat="42.303040" lon="2.479898">
        <ele>519.964</ele>
        <time>2021-05-27T19:56:40Z</time>
      </trkpt>
      <trkpt lat="42.303044" lon="2.479873">
        <ele>519.534</ele>
        <time>2021-05-27T19:56:41Z</time>
      </trkpt>
      <trkpt lat="42.303051" lon="2.479851">
        <ele>519.221</ele>
        <time>2021-05-27T19:56:42Z</time>
      </trkpt>
      <trkpt lat="42.303065" lon="2.479830">
        <ele>518.926</ele>
        <time>2021-05-27T19:56:43Z</time>
      </trkpt>
      <trkpt lat="42.303092" lon="2.479800">
        <ele>518.399</ele>
        <time>2021-05-27T19:56:45Z</time>
      </trkpt>
      <trkpt lat="42.303108" lon="2.479784">
        <ele>517.915</ele>
        <time>2021-05-27T19:56:46Z</time>
      </trkpt>
      <trkpt lat="42.303124" lon="2.479769">
        <ele>517.664</ele>
        <time>2021-05-27T19:56:47Z</time>
      </trkpt>
      <trkpt lat="42.303143" lon="2.479755">
        <ele>517.306</ele>
        <time>2021-05-27T19:56:48Z</time>
      </trkpt>
      <trkpt lat="42.303162" lon="2.479741">
        <ele>517.016</ele>
        <time>2021-05-27T19:56:49Z</time>
      </trkpt>
      <trkpt lat="42.303180" lon="2.479725">
        <ele>516.608</ele>
        <time>2021-05-27T19:56:50Z</time>
      </trkpt>
      <trkpt lat="42.303198" lon="2.479707">
        <ele>516.373</ele>
        <time>2021-05-27T19:56:51Z</time>
      </trkpt>
      <trkpt lat="42.303234" lon="2.479673">
        <ele>515.870</ele>
        <time>2021-05-27T19:56:52Z</time>
      </trkpt>
      <trkpt lat="42.303256" lon="2.479657">
        <ele>515.598</ele>
        <time>2021-05-27T19:56:53Z</time>
      </trkpt>
      <trkpt lat="42.303276" lon="2.479640">
        <ele>515.498</ele>
        <time>2021-05-27T19:56:54Z</time>
      </trkpt>
      <trkpt lat="42.303294" lon="2.479624">
        <ele>515.245</ele>
        <time>2021-05-27T19:56:55Z</time>
      </trkpt>
      <trkpt lat="42.303312" lon="2.479612">
        <ele>515.290</ele>
        <time>2021-05-27T19:56:56Z</time>
      </trkpt>
      <trkpt lat="42.303329" lon="2.479596">
        <ele>515.123</ele>
        <time>2021-05-27T19:56:57Z</time>
      </trkpt>
      <trkpt lat="42.303344" lon="2.479579">
        <ele>514.679</ele>
        <time>2021-05-27T19:56:58Z</time>
      </trkpt>
      <trkpt lat="42.303372" lon="2.479547">
        <ele>513.413</ele>
        <time>2021-05-27T19:57:00Z</time>
      </trkpt>
      <trkpt lat="42.303396" lon="2.479530">
        <ele>512.543</ele>
        <time>2021-05-27T19:57:02Z</time>
      </trkpt>
      <trkpt lat="42.303421" lon="2.479525">
        <ele>511.607</ele>
        <time>2021-05-27T19:57:05Z</time>
      </trkpt>
      <trkpt lat="42.303404" lon="2.479536">
        <ele>512.208</ele>
        <time>2021-05-27T19:57:18Z</time>
      </trkpt>
      <trkpt lat="42.303385" lon="2.479543">
        <ele>512.918</ele>
        <time>2021-05-27T19:57:20Z</time>
      </trkpt>
      <trkpt lat="42.303365" lon="2.479525">
        <ele>513.585</ele>
        <time>2021-05-27T19:57:22Z</time>
      </trkpt>
      <trkpt lat="42.303376" lon="2.479499">
        <ele>513.053</ele>
        <time>2021-05-27T19:57:23Z</time>
      </trkpt>
      <trkpt lat="42.303392" lon="2.479474">
        <ele>512.473</ele>
        <time>2021-05-27T19:57:27Z</time>
      </trkpt>
      <trkpt lat="42.303410" lon="2.479476">
        <ele>511.970</ele>
        <time>2021-05-27T19:57:33Z</time>
      </trkpt>
      <trkpt lat="42.303428" lon="2.479459">
        <ele>511.355</ele>
        <time>2021-05-27T19:57:36Z</time>
      </trkpt>
      <trkpt lat="42.303434" lon="2.479424">
        <ele>511.198</ele>
        <time>2021-05-27T19:57:38Z</time>
      </trkpt>
      <trkpt lat="42.303444" lon="2.479392">
        <ele>510.874</ele>
        <time>2021-05-27T19:57:40Z</time>
      </trkpt>
      <trkpt lat="42.303457" lon="2.479366">
        <ele>510.697</ele>
        <time>2021-05-27T19:57:42Z</time>
      </trkpt>
      <trkpt lat="42.303467" lon="2.479339">
        <ele>510.523</ele>
        <time>2021-05-27T19:57:43Z</time>
      </trkpt>
      <trkpt lat="42.303482" lon="2.479308">
        <ele>510.325</ele>
        <time>2021-05-27T19:57:45Z</time>
      </trkpt>
      <trkpt lat="42.303502" lon="2.479289">
        <ele>510.208</ele>
        <time>2021-05-27T19:57:47Z</time>
      </trkpt>
      <trkpt lat="42.303516" lon="2.479269">
        <ele>510.256</ele>
        <time>2021-05-27T19:57:49Z</time>
      </trkpt>
      <trkpt lat="42.303528" lon="2.479247">
        <ele>510.273</ele>
        <time>2021-05-27T19:57:51Z</time>
      </trkpt>
      <trkpt lat="42.303541" lon="2.479226">
        <ele>510.411</ele>
        <time>2021-05-27T19:57:53Z</time>
      </trkpt>
      <trkpt lat="42.303553" lon="2.479200">
        <ele>510.661</ele>
        <time>2021-05-27T19:57:56Z</time>
      </trkpt>
      <trkpt lat="42.303559" lon="2.479175">
        <ele>510.978</ele>
        <time>2021-05-27T19:57:59Z</time>
      </trkpt>
      <trkpt lat="42.303568" lon="2.479146">
        <ele>511.363</ele>
        <time>2021-05-27T19:58:03Z</time>
      </trkpt>
      <trkpt lat="42.303576" lon="2.479119">
        <ele>511.816</ele>
        <time>2021-05-27T19:58:05Z</time>
      </trkpt>
      <trkpt lat="42.303586" lon="2.479092">
        <ele>512.492</ele>
        <time>2021-05-27T19:58:07Z</time>
      </trkpt>
      <trkpt lat="42.303596" lon="2.479068">
        <ele>512.976</ele>
        <time>2021-05-27T19:58:09Z</time>
      </trkpt>
      <trkpt lat="42.303608" lon="2.479042">
        <ele>513.690</ele>
        <time>2021-05-27T19:58:11Z</time>
      </trkpt>
      <trkpt lat="42.303613" lon="2.479017">
        <ele>514.119</ele>
        <time>2021-05-27T19:58:13Z</time>
      </trkpt>
      <trkpt lat="42.303620" lon="2.478992">
        <ele>514.408</ele>
        <time>2021-05-27T19:58:16Z</time>
      </trkpt>
      <trkpt lat="42.303627" lon="2.478960">
        <ele>514.734</ele>
        <time>2021-05-27T19:58:18Z</time>
      </trkpt>
      <trkpt lat="42.303629" lon="2.478931">
        <ele>515.371</ele>
        <time>2021-05-27T19:58:21Z</time>
      </trkpt>
      <trkpt lat="42.303650" lon="2.478933">
        <ele>514.259</ele>
        <time>2021-05-27T19:58:24Z</time>
      </trkpt>
      <trkpt lat="42.303630" lon="2.478927">
        <ele>515.389</ele>
        <time>2021-05-27T19:58:29Z</time>
      </trkpt>
      <trkpt lat="42.303613" lon="2.478910">
        <ele>516.546</ele>
        <time>2021-05-27T19:58:31Z</time>
      </trkpt>
      <trkpt lat="42.303592" lon="2.478892">
        <ele>516.381</ele>
        <time>2021-05-27T19:58:34Z</time>
      </trkpt>
      <trkpt lat="42.303579" lon="2.478871">
        <ele>515.834</ele>
        <time>2021-05-27T19:58:38Z</time>
      </trkpt>
      <trkpt lat="42.303603" lon="2.478883">
        <ele>516.710</ele>
        <time>2021-05-27T19:58:44Z</time>
      </trkpt>
      <trkpt lat="42.303609" lon="2.478916">
        <ele>516.357</ele>
        <time>2021-05-27T19:58:46Z</time>
      </trkpt>
      <trkpt lat="42.303611" lon="2.478953">
        <ele>515.600</ele>
        <time>2021-05-27T19:58:47Z</time>
      </trkpt>
      <trkpt lat="42.303605" lon="2.478988">
        <ele>514.720</ele>
        <time>2021-05-27T19:58:49Z</time>
      </trkpt>
      <trkpt lat="42.303596" lon="2.479020">
        <ele>513.908</ele>
        <time>2021-05-27T19:58:51Z</time>
      </trkpt>
      <trkpt lat="42.303588" lon="2.479047">
        <ele>513.272</ele>
        <time>2021-05-27T19:58:53Z</time>
      </trkpt>
      <trkpt lat="42.303581" lon="2.479073">
        <ele>512.739</ele>
        <time>2021-05-27T19:58:56Z</time>
      </trkpt>
      <trkpt lat="42.303566" lon="2.479095">
        <ele>512.157</ele>
        <time>2021-05-27T19:58:58Z</time>
      </trkpt>
      <trkpt lat="42.303562" lon="2.479129">
        <ele>511.617</ele>
        <time>2021-05-27T19:59:00Z</time>
      </trkpt>
      <trkpt lat="42.303563" lon="2.479172">
        <ele>510.954</ele>
        <time>2021-05-27T19:59:02Z</time>
      </trkpt>
      <trkpt lat="42.303549" lon="2.479203">
        <ele>510.699</ele>
        <time>2021-05-27T19:59:04Z</time>
      </trkpt>
      <trkpt lat="42.303539" lon="2.479224">
        <ele>510.492</ele>
        <time>2021-05-27T19:59:06Z</time>
      </trkpt>
      <trkpt lat="42.303529" lon="2.479249">
        <ele>510.278</ele>
        <time>2021-05-27T19:59:10Z</time>
      </trkpt>
      <trkpt lat="42.303522" lon="2.479278">
        <ele>510.058</ele>
        <time>2021-05-27T19:59:13Z</time>
      </trkpt>
      <trkpt lat="42.303507" lon="2.479305">
        <ele>510.052</ele>
        <time>2021-05-27T19:59:21Z</time>
      </trkpt>
      <trkpt lat="42.303494" lon="2.479328">
        <ele>510.117</ele>
        <time>2021-05-27T19:59:23Z</time>
      </trkpt>
      <trkpt lat="42.303482" lon="2.479369">
        <ele>510.108</ele>
        <time>2021-05-27T19:59:26Z</time>
      </trkpt>
      <trkpt lat="42.303472" lon="2.479398">
        <ele>510.212</ele>
        <time>2021-05-27T19:59:28Z</time>
      </trkpt>
      <trkpt lat="42.303459" lon="2.479430">
        <ele>510.489</ele>
        <time>2021-05-27T19:59:29Z</time>
      </trkpt>
      <trkpt lat="42.303441" lon="2.479454">
        <ele>510.947</ele>
        <time>2021-05-27T19:59:31Z</time>
      </trkpt>
      <trkpt lat="42.303422" lon="2.479474">
        <ele>511.517</ele>
        <time>2021-05-27T19:59:34Z</time>
      </trkpt>
      <trkpt lat="42.303403" lon="2.479493">
        <ele>512.164</ele>
        <time>2021-05-27T19:59:36Z</time>
      </trkpt>
      <trkpt lat="42.303388" lon="2.479507">
        <ele>512.789</ele>
        <time>2021-05-27T19:59:42Z</time>
      </trkpt>
      <trkpt lat="42.303377" lon="2.479527">
        <ele>513.132</ele>
        <time>2021-05-27T19:59:46Z</time>
      </trkpt>
      <trkpt lat="42.303349" lon="2.479519">
        <ele>514.068</ele>
        <time>2021-05-27T19:59:48Z</time>
      </trkpt>
      <trkpt lat="42.303324" lon="2.479505">
        <ele>514.454</ele>
        <time>2021-05-27T19:59:50Z</time>
      </trkpt>
      <trkpt lat="42.303294" lon="2.479488">
        <ele>514.056</ele>
        <time>2021-05-27T19:59:52Z</time>
      </trkpt>
      <trkpt lat="42.303258" lon="2.479473">
        <ele>513.511</ele>
        <time>2021-05-27T19:59:53Z</time>
      </trkpt>
      <trkpt lat="42.303238" lon="2.479467">
        <ele>513.208</ele>
        <time>2021-05-27T19:59:54Z</time>
      </trkpt>
      <trkpt lat="42.303218" lon="2.479463">
        <ele>513.012</ele>
        <time>2021-05-27T19:59:56Z</time>
      </trkpt>
      <trkpt lat="42.303198" lon="2.479459">
        <ele>512.739</ele>
        <time>2021-05-27T19:59:57Z</time>
      </trkpt>
      <trkpt lat="42.303176" lon="2.479454">
        <ele>512.417</ele>
        <time>2021-05-27T19:59:58Z</time>
      </trkpt>
      <trkpt lat="42.303156" lon="2.479440">
        <ele>512.027</ele>
        <time>2021-05-27T19:59:59Z</time>
      </trkpt>
      <trkpt lat="42.303134" lon="2.479390">
        <ele>511.484</ele>
        <time>2021-05-27T20:00:01Z</time>
      </trkpt>
      <trkpt lat="42.303134" lon="2.479361">
        <ele>511.269</ele>
        <time>2021-05-27T20:00:02Z</time>
      </trkpt>
      <trkpt lat="42.303140" lon="2.479332">
        <ele>511.072</ele>
        <time>2021-05-27T20:00:03Z</time>
      </trkpt>
      <trkpt lat="42.303152" lon="2.479311">
        <ele>510.978</ele>
        <time>2021-05-27T20:00:04Z</time>
      </trkpt>
      <trkpt lat="42.303164" lon="2.479289">
        <ele>510.818</ele>
        <time>2021-05-27T20:00:05Z</time>
      </trkpt>
      <trkpt lat="42.303190" lon="2.479248">
        <ele>510.798</ele>
        <time>2021-05-27T20:00:06Z</time>
      </trkpt>
      <trkpt lat="42.303204" lon="2.479229">
        <ele>510.617</ele>
        <time>2021-05-27T20:00:07Z</time>
      </trkpt>
      <trkpt lat="42.303217" lon="2.479211">
        <ele>510.608</ele>
        <time>2021-05-27T20:00:08Z</time>
      </trkpt>
      <trkpt lat="42.303240" lon="2.479181">
        <ele>510.588</ele>
        <time>2021-05-27T20:00:10Z</time>
      </trkpt>
      <trkpt lat="42.303261" lon="2.479150">
        <ele>510.395</ele>
        <time>2021-05-27T20:00:13Z</time>
      </trkpt>
      <trkpt lat="42.303279" lon="2.479117">
        <ele>510.143</ele>
        <time>2021-05-27T20:00:15Z</time>
      </trkpt>
      <trkpt lat="42.303290" lon="2.479081">
        <ele>509.783</ele>
        <time>2021-05-27T20:00:17Z</time>
      </trkpt>
      <trkpt lat="42.303304" lon="2.479048">
        <ele>509.460</ele>
        <time>2021-05-27T20:00:19Z</time>
      </trkpt>
      <trkpt lat="42.303318" lon="2.479024">
        <ele>509.065</ele>
        <time>2021-05-27T20:00:20Z</time>
      </trkpt>
      <trkpt lat="42.303329" lon="2.479004">
        <ele>508.758</ele>
        <time>2021-05-27T20:00:22Z</time>
      </trkpt>
      <trkpt lat="42.303265" lon="2.479098">
        <ele>509.944</ele>
        <time>2021-05-27T20:00:33Z</time>
      </trkpt>
      <trkpt lat="42.303224" lon="2.479168">
        <ele>510.284</ele>
        <time>2021-05-27T20:00:37Z</time>
      </trkpt>
      <trkpt lat="42.303166" lon="2.479260">
        <ele>510.607</ele>
        <time>2021-05-27T20:00:43Z</time>
      </trkpt>
      <trkpt lat="42.303145" lon="2.479302">
        <ele>510.817</ele>
        <time>2021-05-27T20:00:45Z</time>
      </trkpt>
      <trkpt lat="42.303133" lon="2.479334">
        <ele>510.908</ele>
        <time>2021-05-27T20:00:47Z</time>
      </trkpt>
      <trkpt lat="42.303122" lon="2.479354">
        <ele>511.055</ele>
        <time>2021-05-27T20:00:50Z</time>
      </trkpt>
      <trkpt lat="42.303127" lon="2.479381">
        <ele>511.332</ele>
        <time>2021-05-27T20:00:52Z</time>
      </trkpt>
      <trkpt lat="42.303139" lon="2.479410">
        <ele>511.610</ele>
        <time>2021-05-27T20:00:53Z</time>
      </trkpt>
      <trkpt lat="42.303158" lon="2.479430">
        <ele>512.050</ele>
        <time>2021-05-27T20:00:55Z</time>
      </trkpt>
      <trkpt lat="42.303187" lon="2.479441">
        <ele>512.467</ele>
        <time>2021-05-27T20:00:57Z</time>
      </trkpt>
      <trkpt lat="42.303217" lon="2.479442">
        <ele>512.762</ele>
        <time>2021-05-27T20:00:59Z</time>
      </trkpt>
      <trkpt lat="42.303251" lon="2.479445">
        <ele>513.185</ele>
        <time>2021-05-27T20:01:02Z</time>
      </trkpt>
      <trkpt lat="42.303283" lon="2.479451">
        <ele>513.561</ele>
        <time>2021-05-27T20:01:04Z</time>
      </trkpt>
      <trkpt lat="42.303312" lon="2.479465">
        <ele>513.993</ele>
        <time>2021-05-27T20:01:06Z</time>
      </trkpt>
      <trkpt lat="42.303345" lon="2.479476">
        <ele>513.965</ele>
        <time>2021-05-27T20:01:08Z</time>
      </trkpt>
      <trkpt lat="42.303375" lon="2.479492">
        <ele>513.021</ele>
        <time>2021-05-27T20:01:10Z</time>
      </trkpt>
      <trkpt lat="42.303401" lon="2.479507">
        <ele>512.208</ele>
        <time>2021-05-27T20:01:12Z</time>
      </trkpt>
      <trkpt lat="42.303423" lon="2.479532">
        <ele>511.556</ele>
        <time>2021-05-27T20:01:14Z</time>
      </trkpt>
      <trkpt lat="42.303445" lon="2.479547">
        <ele>510.823</ele>
        <time>2021-05-27T20:01:15Z</time>
      </trkpt>
      <trkpt lat="42.303454" lon="2.479507">
        <ele>510.561</ele>
        <time>2021-05-27T20:01:25Z</time>
      </trkpt>
      <trkpt lat="42.303462" lon="2.479470">
        <ele>510.381</ele>
        <time>2021-05-27T20:01:27Z</time>
      </trkpt>
      <trkpt lat="42.303478" lon="2.479441">
        <ele>509.828</ele>
        <time>2021-05-27T20:01:29Z</time>
      </trkpt>
      <trkpt lat="42.303492" lon="2.479412">
        <ele>509.613</ele>
        <time>2021-05-27T20:01:31Z</time>
      </trkpt>
      <trkpt lat="42.303516" lon="2.479395">
        <ele>509.146</ele>
        <time>2021-05-27T20:01:34Z</time>
      </trkpt>
      <trkpt lat="42.303538" lon="2.479393">
        <ele>508.692</ele>
        <time>2021-05-27T20:01:36Z</time>
      </trkpt>
      <trkpt lat="42.303561" lon="2.479364">
        <ele>508.554</ele>
        <time>2021-05-27T20:01:38Z</time>
      </trkpt>
      <trkpt lat="42.303588" lon="2.479336">
        <ele>508.456</ele>
        <time>2021-05-27T20:01:40Z</time>
      </trkpt>
      <trkpt lat="42.303604" lon="2.479322">
        <ele>508.311</ele>
        <time>2021-05-27T20:01:41Z</time>
      </trkpt>
      <trkpt lat="42.303674" lon="2.479245">
        <ele>507.008</ele>
        <time>2021-05-27T20:01:48Z</time>
      </trkpt>
      <trkpt lat="42.303762" lon="2.479181">
        <ele>504.342</ele>
        <time>2021-05-27T20:01:55Z</time>
      </trkpt>
      <trkpt lat="42.303830" lon="2.479100">
        <ele>502.889</ele>
        <time>2021-05-27T20:02:00Z</time>
      </trkpt>
      <trkpt lat="42.303901" lon="2.478987">
        <ele>502.047</ele>
        <time>2021-05-27T20:02:06Z</time>
      </trkpt>
      <trkpt lat="42.303991" lon="2.478936">
        <ele>500.827</ele>
        <time>2021-05-27T20:02:12Z</time>
      </trkpt>
      <trkpt lat="42.304077" lon="2.478896">
        <ele>499.214</ele>
        <time>2021-05-27T20:02:21Z</time>
      </trkpt>
      <trkpt lat="42.304170" lon="2.478864">
        <ele>497.439</ele>
        <time>2021-05-27T20:02:27Z</time>
      </trkpt>
      <trkpt lat="42.304274" lon="2.478821">
        <ele>496.962</ele>
        <time>2021-05-27T20:02:35Z</time>
      </trkpt>
      <trkpt lat="42.304351" lon="2.478792">
        <ele>496.368</ele>
        <time>2021-05-27T20:02:39Z</time>
      </trkpt>
      <trkpt lat="42.304376" lon="2.478781">
        <ele>496.178</ele>
        <time>2021-05-27T20:02:41Z</time>
      </trkpt>
      <trkpt lat="42.304406" lon="2.478777">
        <ele>495.733</ele>
        <time>2021-05-27T20:02:43Z</time>
      </trkpt>
      <trkpt lat="42.304433" lon="2.478794">
        <ele>495.226</ele>
        <time>2021-05-27T20:02:45Z</time>
      </trkpt>
      <trkpt lat="42.304452" lon="2.478817">
        <ele>494.708</ele>
        <time>2021-05-27T20:02:47Z</time>
      </trkpt>
      <trkpt lat="42.304475" lon="2.478838">
        <ele>494.374</ele>
        <time>2021-05-27T20:02:49Z</time>
      </trkpt>
      <trkpt lat="42.304498" lon="2.478865">
        <ele>493.951</ele>
        <time>2021-05-27T20:02:50Z</time>
      </trkpt>
      <trkpt lat="42.304512" lon="2.478893">
        <ele>493.539</ele>
        <time>2021-05-27T20:02:53Z</time>
      </trkpt>
      <trkpt lat="42.304532" lon="2.479019">
        <ele>493.029</ele>
        <time>2021-05-27T20:03:15Z</time>
      </trkpt>
      <trkpt lat="42.304595" lon="2.479050">
        <ele>493.716</ele>
        <time>2021-05-27T20:03:29Z</time>
      </trkpt>
      <trkpt lat="42.304611" lon="2.479066">
        <ele>494.141</ele>
        <time>2021-05-27T20:03:48Z</time>
      </trkpt>
      <trkpt lat="42.304622" lon="2.479090">
        <ele>494.524</ele>
        <time>2021-05-27T20:03:55Z</time>
      </trkpt>
      <trkpt lat="42.304628" lon="2.479117">
        <ele>494.880</ele>
        <time>2021-05-27T20:03:57Z</time>
      </trkpt>
      <trkpt lat="42.304655" lon="2.479242">
        <ele>496.541</ele>
        <time>2021-05-27T20:04:08Z</time>
      </trkpt>
      <trkpt lat="42.304706" lon="2.479249">
        <ele>497.981</ele>
        <time>2021-05-27T20:04:14Z</time>
      </trkpt>
      <trkpt lat="42.304729" lon="2.479247">
        <ele>498.409</ele>
        <time>2021-05-27T20:04:16Z</time>
      </trkpt>
      <trkpt lat="42.304746" lon="2.479269">
        <ele>498.908</ele>
        <time>2021-05-27T20:04:21Z</time>
      </trkpt>
      <trkpt lat="42.304761" lon="2.479307">
        <ele>499.451</ele>
        <time>2021-05-27T20:04:23Z</time>
      </trkpt>
      <trkpt lat="42.304779" lon="2.479348">
        <ele>500.038</ele>
        <time>2021-05-27T20:04:25Z</time>
      </trkpt>
      <trkpt lat="42.304819" lon="2.479443">
        <ele>501.466</ele>
        <time>2021-05-27T20:04:30Z</time>
      </trkpt>
      <trkpt lat="42.304837" lon="2.479477">
        <ele>501.996</ele>
        <time>2021-05-27T20:04:31Z</time>
      </trkpt>
      <trkpt lat="42.304855" lon="2.479506">
        <ele>502.363</ele>
        <time>2021-05-27T20:04:33Z</time>
      </trkpt>
      <trkpt lat="42.304877" lon="2.479538">
        <ele>502.998</ele>
        <time>2021-05-27T20:04:35Z</time>
      </trkpt>
      <trkpt lat="42.304892" lon="2.479568">
        <ele>503.371</ele>
        <time>2021-05-27T20:04:38Z</time>
      </trkpt>
      <trkpt lat="42.304897" lon="2.479592">
        <ele>503.417</ele>
        <time>2021-05-27T20:04:40Z</time>
      </trkpt>
      <trkpt lat="42.304905" lon="2.479617">
        <ele>503.626</ele>
        <time>2021-05-27T20:04:42Z</time>
      </trkpt>
      <trkpt lat="42.304918" lon="2.479643">
        <ele>503.947</ele>
        <time>2021-05-27T20:04:44Z</time>
      </trkpt>
      <trkpt lat="42.304936" lon="2.479673">
        <ele>504.411</ele>
        <time>2021-05-27T20:04:46Z</time>
      </trkpt>
      <trkpt lat="42.304948" lon="2.479698">
        <ele>504.708</ele>
        <time>2021-05-27T20:04:48Z</time>
      </trkpt>
      <trkpt lat="42.304964" lon="2.479733">
        <ele>505.019</ele>
        <time>2021-05-27T20:04:50Z</time>
      </trkpt>
      <trkpt lat="42.305016" lon="2.479835">
        <ele>505.986</ele>
        <time>2021-05-27T20:04:56Z</time>
      </trkpt>
      <trkpt lat="42.305061" lon="2.479960">
        <ele>507.124</ele>
        <time>2021-05-27T20:05:05Z</time>
      </trkpt>
      <trkpt lat="42.305121" lon="2.480056">
        <ele>509.024</ele>
        <time>2021-05-27T20:05:10Z</time>
      </trkpt>
      <trkpt lat="42.305177" lon="2.480161">
        <ele>510.271</ele>
        <time>2021-05-27T20:05:16Z</time>
      </trkpt>
      <trkpt lat="42.305231" lon="2.480261">
        <ele>511.296</ele>
        <time>2021-05-27T20:05:23Z</time>
      </trkpt>
      <trkpt lat="42.305249" lon="2.480292">
        <ele>511.419</ele>
        <time>2021-05-27T20:05:25Z</time>
      </trkpt>
      <trkpt lat="42.305258" lon="2.480323">
        <ele>511.015</ele>
        <time>2021-05-27T20:05:27Z</time>
      </trkpt>
      <trkpt lat="42.305275" lon="2.480351">
        <ele>511.041</ele>
        <time>2021-05-27T20:05:29Z</time>
      </trkpt>
      <trkpt lat="42.305289" lon="2.480377">
        <ele>511.281</ele>
        <time>2021-05-27T20:05:31Z</time>
      </trkpt>
      <trkpt lat="42.305352" lon="2.480482">
        <ele>512.709</ele>
        <time>2021-05-27T20:05:37Z</time>
      </trkpt>
      <trkpt lat="42.305418" lon="2.480589">
        <ele>513.908</ele>
        <time>2021-05-27T20:05:46Z</time>
      </trkpt>
      <trkpt lat="42.305494" lon="2.480678">
        <ele>515.861</ele>
        <time>2021-05-27T20:05:54Z</time>
      </trkpt>
      <trkpt lat="42.305566" lon="2.480751">
        <ele>518.228</ele>
        <time>2021-05-27T20:06:02Z</time>
      </trkpt>
      <trkpt lat="42.305619" lon="2.480818">
        <ele>518.746</ele>
        <time>2021-05-27T20:06:08Z</time>
      </trkpt>
      <trkpt lat="42.305630" lon="2.480843">
        <ele>518.446</ele>
        <time>2021-05-27T20:06:10Z</time>
      </trkpt>
      <trkpt lat="42.305647" lon="2.480863">
        <ele>518.463</ele>
        <time>2021-05-27T20:06:12Z</time>
      </trkpt>
      <trkpt lat="42.305720" lon="2.480953">
        <ele>518.978</ele>
        <time>2021-05-27T20:06:20Z</time>
      </trkpt>
      <trkpt lat="42.305784" lon="2.481042">
        <ele>519.481</ele>
        <time>2021-05-27T20:06:28Z</time>
      </trkpt>
      <trkpt lat="42.305849" lon="2.481147">
        <ele>520.427</ele>
        <time>2021-05-27T20:06:35Z</time>
      </trkpt>
      <trkpt lat="42.305871" lon="2.481265">
        <ele>520.243</ele>
        <time>2021-05-27T20:06:42Z</time>
      </trkpt>
      <trkpt lat="42.305876" lon="2.481317">
        <ele>519.964</ele>
        <time>2021-05-27T20:06:45Z</time>
      </trkpt>
      <trkpt lat="42.305886" lon="2.481353">
        <ele>520.010</ele>
        <time>2021-05-27T20:06:47Z</time>
      </trkpt>
      <trkpt lat="42.305893" lon="2.481391">
        <ele>520.008</ele>
        <time>2021-05-27T20:06:49Z</time>
      </trkpt>
      <trkpt lat="42.305901" lon="2.481428">
        <ele>520.241</ele>
        <time>2021-05-27T20:06:51Z</time>
      </trkpt>
      <trkpt lat="42.305909" lon="2.481469">
        <ele>520.328</ele>
        <time>2021-05-27T20:06:54Z</time>
      </trkpt>
      <trkpt lat="42.305913" lon="2.481503">
        <ele>520.386</ele>
        <time>2021-05-27T20:06:56Z</time>
      </trkpt>
      <trkpt lat="42.305916" lon="2.481537">
        <ele>520.216</ele>
        <time>2021-05-27T20:06:58Z</time>
      </trkpt>
      <trkpt lat="42.305928" lon="2.481565">
        <ele>520.543</ele>
        <time>2021-05-27T20:07:00Z</time>
      </trkpt>
      <trkpt lat="42.305938" lon="2.481598">
        <ele>520.748</ele>
        <time>2021-05-27T20:07:02Z</time>
      </trkpt>
      <trkpt lat="42.305949" lon="2.481641">
        <ele>520.861</ele>
        <time>2021-05-27T20:07:04Z</time>
      </trkpt>
      <trkpt lat="42.305962" lon="2.481675">
        <ele>520.877</ele>
        <time>2021-05-27T20:07:06Z</time>
      </trkpt>
      <trkpt lat="42.305983" lon="2.481746">
        <ele>519.223</ele>
        <time>2021-05-27T20:07:09Z</time>
      </trkpt>
      <trkpt lat="42.306030" lon="2.481857">
        <ele>517.783</ele>
        <time>2021-05-27T20:07:12Z</time>
      </trkpt>
      <trkpt lat="42.306102" lon="2.481965">
        <ele>517.911</ele>
        <time>2021-05-27T20:07:16Z</time>
      </trkpt>
      <trkpt lat="42.306167" lon="2.482068">
        <ele>517.108</ele>
        <time>2021-05-27T20:07:20Z</time>
      </trkpt>
      <trkpt lat="42.306213" lon="2.482181">
        <ele>515.119</ele>
        <time>2021-05-27T20:07:24Z</time>
      </trkpt>
      <trkpt lat="42.306260" lon="2.482295">
        <ele>514.326</ele>
        <time>2021-05-27T20:07:29Z</time>
      </trkpt>
      <trkpt lat="42.306285" lon="2.482433">
        <ele>513.294</ele>
        <time>2021-05-27T20:07:32Z</time>
      </trkpt>
      <trkpt lat="42.306307" lon="2.482573">
        <ele>511.884</ele>
        <time>2021-05-27T20:07:38Z</time>
      </trkpt>
      <trkpt lat="42.306341" lon="2.482696">
        <ele>511.271</ele>
        <time>2021-05-27T20:07:42Z</time>
      </trkpt>
      <trkpt lat="42.306398" lon="2.482844">
        <ele>510.066</ele>
        <time>2021-05-27T20:07:48Z</time>
      </trkpt>
      <trkpt lat="42.306470" lon="2.482951">
        <ele>508.279</ele>
        <time>2021-05-27T20:07:53Z</time>
      </trkpt>
      <trkpt lat="42.306561" lon="2.483029">
        <ele>508.195</ele>
        <time>2021-05-27T20:07:58Z</time>
      </trkpt>
      <trkpt lat="42.306644" lon="2.483090">
        <ele>508.448</ele>
        <time>2021-05-27T20:08:01Z</time>
      </trkpt>
      <trkpt lat="42.306715" lon="2.483203">
        <ele>506.761</ele>
        <time>2021-05-27T20:08:07Z</time>
      </trkpt>
      <trkpt lat="42.306789" lon="2.483279">
        <ele>506.417</ele>
        <time>2021-05-27T20:08:10Z</time>
      </trkpt>
      <trkpt lat="42.306864" lon="2.483379">
        <ele>505.808</ele>
        <time>2021-05-27T20:08:15Z</time>
      </trkpt>
      <trkpt lat="42.306936" lon="2.483473">
        <ele>505.361</ele>
        <time>2021-05-27T20:08:21Z</time>
      </trkpt>
      <trkpt lat="42.307020" lon="2.483552">
        <ele>505.948</ele>
        <time>2021-05-27T20:08:26Z</time>
      </trkpt>
      <trkpt lat="42.307107" lon="2.483634">
        <ele>506.076</ele>
        <time>2021-05-27T20:08:31Z</time>
      </trkpt>
      <trkpt lat="42.307191" lon="2.483686">
        <ele>506.576</ele>
        <time>2021-05-27T20:08:35Z</time>
      </trkpt>
      <trkpt lat="42.307296" lon="2.483726">
        <ele>507.263</ele>
        <time>2021-05-27T20:08:40Z</time>
      </trkpt>
      <trkpt lat="42.307392" lon="2.483795">
        <ele>506.438</ele>
        <time>2021-05-27T20:08:46Z</time>
      </trkpt>
      <trkpt lat="42.307456" lon="2.483886">
        <ele>504.321</ele>
        <time>2021-05-27T20:08:51Z</time>
      </trkpt>
      <trkpt lat="42.307538" lon="2.483993">
        <ele>503.527</ele>
        <time>2021-05-27T20:08:56Z</time>
      </trkpt>
      <trkpt lat="42.307629" lon="2.484078">
        <ele>503.386</ele>
        <time>2021-05-27T20:09:01Z</time>
      </trkpt>
      <trkpt lat="42.307715" lon="2.484158">
        <ele>502.260</ele>
        <time>2021-05-27T20:09:05Z</time>
      </trkpt>
      <trkpt lat="42.307790" lon="2.484241">
        <ele>500.926</ele>
        <time>2021-05-27T20:09:11Z</time>
      </trkpt>
      <trkpt lat="42.307868" lon="2.484314">
        <ele>499.808</ele>
        <time>2021-05-27T20:09:16Z</time>
      </trkpt>
      <trkpt lat="42.307951" lon="2.484388">
        <ele>498.235</ele>
        <time>2021-05-27T20:09:21Z</time>
      </trkpt>
      <trkpt lat="42.308032" lon="2.484454">
        <ele>496.422</ele>
        <time>2021-05-27T20:09:26Z</time>
      </trkpt>
      <trkpt lat="42.308131" lon="2.484513">
        <ele>495.660</ele>
        <time>2021-05-27T20:09:31Z</time>
      </trkpt>
      <trkpt lat="42.308221" lon="2.484547">
        <ele>495.770</ele>
        <time>2021-05-27T20:09:36Z</time>
      </trkpt>
      <trkpt lat="42.308313" lon="2.484602">
        <ele>494.927</ele>
        <time>2021-05-27T20:09:42Z</time>
      </trkpt>
      <trkpt lat="42.308408" lon="2.484650">
        <ele>494.322</ele>
        <time>2021-05-27T20:09:48Z</time>
      </trkpt>
      <trkpt lat="42.308498" lon="2.484679">
        <ele>494.335</ele>
        <time>2021-05-27T20:09:52Z</time>
      </trkpt>
      <trkpt lat="42.308576" lon="2.484742">
        <ele>492.931</ele>
        <time>2021-05-27T20:09:59Z</time>
      </trkpt>
      <trkpt lat="42.308679" lon="2.484786">
        <ele>494.661</ele>
        <time>2021-05-27T20:10:04Z</time>
      </trkpt>
      <trkpt lat="42.308756" lon="2.484860">
        <ele>495.221</ele>
        <time>2021-05-27T20:10:09Z</time>
      </trkpt>
      <trkpt lat="42.308829" lon="2.484967">
        <ele>494.813</ele>
        <time>2021-05-27T20:10:16Z</time>
      </trkpt>
      <trkpt lat="42.308887" lon="2.485084">
        <ele>494.108</ele>
        <time>2021-05-27T20:10:20Z</time>
      </trkpt>
      <trkpt lat="42.308919" lon="2.485225">
        <ele>492.913</ele>
        <time>2021-05-27T20:10:26Z</time>
      </trkpt>
      <trkpt lat="42.308932" lon="2.485358">
        <ele>491.870</ele>
        <time>2021-05-27T20:10:31Z</time>
      </trkpt>
      <trkpt lat="42.308962" lon="2.485515">
        <ele>491.958</ele>
        <time>2021-05-27T20:10:36Z</time>
      </trkpt>
      <trkpt lat="42.308970" lon="2.485665">
        <ele>491.558</ele>
        <time>2021-05-27T20:10:41Z</time>
      </trkpt>
      <trkpt lat="42.308979" lon="2.485798">
        <ele>491.425</ele>
        <time>2021-05-27T20:10:47Z</time>
      </trkpt>
      <trkpt lat="42.308979" lon="2.485928">
        <ele>490.540</ele>
        <time>2021-05-27T20:10:52Z</time>
      </trkpt>
      <trkpt lat="42.308981" lon="2.486057">
        <ele>489.783</ele>
        <time>2021-05-27T20:10:56Z</time>
      </trkpt>
      <trkpt lat="42.308998" lon="2.486187">
        <ele>489.919</ele>
        <time>2021-05-27T20:11:01Z</time>
      </trkpt>
      <trkpt lat="42.309013" lon="2.486311">
        <ele>489.972</ele>
        <time>2021-05-27T20:11:07Z</time>
      </trkpt>
      <trkpt lat="42.309005" lon="2.486444">
        <ele>488.513</ele>
        <time>2021-05-27T20:11:12Z</time>
      </trkpt>
      <trkpt lat="42.309019" lon="2.486571">
        <ele>487.714</ele>
        <time>2021-05-27T20:11:17Z</time>
      </trkpt>
      <trkpt lat="42.309031" lon="2.486724">
        <ele>486.508</ele>
        <time>2021-05-27T20:11:22Z</time>
      </trkpt>
      <trkpt lat="42.309064" lon="2.486849">
        <ele>486.264</ele>
        <time>2021-05-27T20:11:28Z</time>
      </trkpt>
      <trkpt lat="42.309087" lon="2.486968">
        <ele>486.251</ele>
        <time>2021-05-27T20:11:32Z</time>
      </trkpt>
      <trkpt lat="42.309142" lon="2.487082">
        <ele>487.859</ele>
        <time>2021-05-27T20:11:37Z</time>
      </trkpt>
      <trkpt lat="42.309158" lon="2.487207">
        <ele>487.949</ele>
        <time>2021-05-27T20:11:41Z</time>
      </trkpt>
      <trkpt lat="42.309183" lon="2.487345">
        <ele>487.476</ele>
        <time>2021-05-27T20:11:46Z</time>
      </trkpt>
      <trkpt lat="42.309209" lon="2.487465">
        <ele>487.081</ele>
        <time>2021-05-27T20:11:51Z</time>
      </trkpt>
      <trkpt lat="42.309250" lon="2.487585">
        <ele>486.924</ele>
        <time>2021-05-27T20:11:58Z</time>
      </trkpt>
      <trkpt lat="42.309312" lon="2.487705">
        <ele>486.760</ele>
        <time>2021-05-27T20:12:05Z</time>
      </trkpt>
      <trkpt lat="42.309380" lon="2.487786">
        <ele>486.467</ele>
        <time>2021-05-27T20:12:09Z</time>
      </trkpt>
      <trkpt lat="42.309468" lon="2.487887">
        <ele>485.681</ele>
        <time>2021-05-27T20:12:13Z</time>
      </trkpt>
      <trkpt lat="42.309532" lon="2.487978">
        <ele>484.819</ele>
        <time>2021-05-27T20:12:17Z</time>
      </trkpt>
      <trkpt lat="42.309604" lon="2.488087">
        <ele>483.808</ele>
        <time>2021-05-27T20:12:23Z</time>
      </trkpt>
      <trkpt lat="42.309665" lon="2.488179">
        <ele>483.073</ele>
        <time>2021-05-27T20:12:29Z</time>
      </trkpt>
      <trkpt lat="42.309729" lon="2.488283">
        <ele>481.620</ele>
        <time>2021-05-27T20:12:34Z</time>
      </trkpt>
      <trkpt lat="42.309804" lon="2.488363">
        <ele>479.438</ele>
        <time>2021-05-27T20:12:40Z</time>
      </trkpt>
      <trkpt lat="42.309893" lon="2.488380">
        <ele>477.878</ele>
        <time>2021-05-27T20:12:44Z</time>
      </trkpt>
      <trkpt lat="42.310007" lon="2.488442">
        <ele>475.715</ele>
        <time>2021-05-27T20:12:49Z</time>
      </trkpt>
      <trkpt lat="42.310111" lon="2.488455">
        <ele>477.540</ele>
        <time>2021-05-27T20:12:53Z</time>
      </trkpt>
      <trkpt lat="42.310219" lon="2.488469">
        <ele>479.493</ele>
        <time>2021-05-27T20:12:59Z</time>
      </trkpt>
      <trkpt lat="42.310328" lon="2.488454">
        <ele>481.419</ele>
        <time>2021-05-27T20:13:06Z</time>
      </trkpt>
      <trkpt lat="42.310423" lon="2.488403">
        <ele>483.024</ele>
        <time>2021-05-27T20:13:11Z</time>
      </trkpt>
      <trkpt lat="42.310507" lon="2.488317">
        <ele>484.104</ele>
        <time>2021-05-27T20:13:18Z</time>
      </trkpt>
      <trkpt lat="42.310563" lon="2.488204">
        <ele>484.714</ele>
        <time>2021-05-27T20:13:25Z</time>
      </trkpt>
      <trkpt lat="42.310602" lon="2.488089">
        <ele>484.908</ele>
        <time>2021-05-27T20:13:30Z</time>
      </trkpt>
      <trkpt lat="42.310662" lon="2.487990">
        <ele>484.049</ele>
        <time>2021-05-27T20:13:35Z</time>
      </trkpt>
      <trkpt lat="42.310749" lon="2.487953">
        <ele>483.816</ele>
        <time>2021-05-27T20:13:40Z</time>
      </trkpt>
      <trkpt lat="42.310841" lon="2.487916">
        <ele>483.054</ele>
        <time>2021-05-27T20:13:47Z</time>
      </trkpt>
      <trkpt lat="42.310943" lon="2.487955">
        <ele>484.164</ele>
        <time>2021-05-27T20:13:51Z</time>
      </trkpt>
      <trkpt lat="42.311047" lon="2.488007">
        <ele>484.881</ele>
        <time>2021-05-27T20:13:54Z</time>
      </trkpt>
      <trkpt lat="42.311142" lon="2.488053">
        <ele>484.596</ele>
        <time>2021-05-27T20:13:59Z</time>
      </trkpt>
      <trkpt lat="42.311238" lon="2.488095">
        <ele>485.169</ele>
        <time>2021-05-27T20:14:04Z</time>
      </trkpt>
      <trkpt lat="42.311339" lon="2.488150">
        <ele>486.715</ele>
        <time>2021-05-27T20:14:11Z</time>
      </trkpt>
      <trkpt lat="42.311424" lon="2.488207">
        <ele>489.165</ele>
        <time>2021-05-27T20:14:15Z</time>
      </trkpt>
      <trkpt lat="42.311511" lon="2.488259">
        <ele>491.568</ele>
        <time>2021-05-27T20:14:20Z</time>
      </trkpt>
      <trkpt lat="42.311607" lon="2.488299">
        <ele>492.914</ele>
        <time>2021-05-27T20:14:23Z</time>
      </trkpt>
      <trkpt lat="42.311722" lon="2.488275">
        <ele>491.608</ele>
        <time>2021-05-27T20:14:29Z</time>
      </trkpt>
      <trkpt lat="42.311811" lon="2.488251">
        <ele>490.993</ele>
        <time>2021-05-27T20:14:33Z</time>
      </trkpt>
      <trkpt lat="42.311900" lon="2.488175">
        <ele>488.630</ele>
        <time>2021-05-27T20:14:41Z</time>
      </trkpt>
      <trkpt lat="42.311993" lon="2.488159">
        <ele>488.948</ele>
        <time>2021-05-27T20:14:46Z</time>
      </trkpt>
      <trkpt lat="42.312064" lon="2.488071">
        <ele>487.188</ele>
        <time>2021-05-27T20:14:50Z</time>
      </trkpt>
      <trkpt lat="42.312151" lon="2.488009">
        <ele>487.425</ele>
        <time>2021-05-27T20:14:54Z</time>
      </trkpt>
      <trkpt lat="42.312247" lon="2.487958">
        <ele>488.110</ele>
        <time>2021-05-27T20:14:58Z</time>
      </trkpt>
      <trkpt lat="42.312311" lon="2.487865">
        <ele>488.143</ele>
        <time>2021-05-27T20:15:01Z</time>
      </trkpt>
      <trkpt lat="42.312401" lon="2.487790">
        <ele>489.089</ele>
        <time>2021-05-27T20:15:07Z</time>
      </trkpt>
      <trkpt lat="42.312471" lon="2.487702">
        <ele>489.949</ele>
        <time>2021-05-27T20:15:12Z</time>
      </trkpt>
      <trkpt lat="42.312530" lon="2.487580">
        <ele>490.202</ele>
        <time>2021-05-27T20:15:17Z</time>
      </trkpt>
      <trkpt lat="42.312591" lon="2.487472">
        <ele>490.422</ele>
        <time>2021-05-27T20:15:22Z</time>
      </trkpt>
      <trkpt lat="42.312649" lon="2.487356">
        <ele>490.408</ele>
        <time>2021-05-27T20:15:27Z</time>
      </trkpt>
      <trkpt lat="42.312696" lon="2.487244">
        <ele>490.471</ele>
        <time>2021-05-27T20:15:33Z</time>
      </trkpt>
      <trkpt lat="42.312758" lon="2.487147">
        <ele>491.188</ele>
        <time>2021-05-27T20:15:38Z</time>
      </trkpt>
      <trkpt lat="42.312820" lon="2.487026">
        <ele>491.566</ele>
        <time>2021-05-27T20:15:43Z</time>
      </trkpt>
      <trkpt lat="42.312869" lon="2.486892">
        <ele>491.596</ele>
        <time>2021-05-27T20:15:48Z</time>
      </trkpt>
      <trkpt lat="42.312909" lon="2.486765">
        <ele>491.213</ele>
        <time>2021-05-27T20:15:53Z</time>
      </trkpt>
      <trkpt lat="42.312974" lon="2.486661">
        <ele>491.958</ele>
        <time>2021-05-27T20:15:57Z</time>
      </trkpt>
      <trkpt lat="42.313023" lon="2.486552">
        <ele>492.181</ele>
        <time>2021-05-27T20:16:03Z</time>
      </trkpt>
      <trkpt lat="42.313077" lon="2.486435">
        <ele>492.517</ele>
        <time>2021-05-27T20:16:08Z</time>
      </trkpt>
      <trkpt lat="42.313144" lon="2.486340">
        <ele>494.433</ele>
        <time>2021-05-27T20:16:13Z</time>
      </trkpt>
      <trkpt lat="42.313199" lon="2.486224">
        <ele>495.023</ele>
        <time>2021-05-27T20:16:19Z</time>
      </trkpt>
      <trkpt lat="42.313242" lon="2.486088">
        <ele>494.515</ele>
        <time>2021-05-27T20:16:24Z</time>
      </trkpt>
      <trkpt lat="42.313318" lon="2.486016">
        <ele>496.208</ele>
        <time>2021-05-27T20:16:29Z</time>
      </trkpt>
      <trkpt lat="42.313407" lon="2.485926">
        <ele>497.760</ele>
        <time>2021-05-27T20:16:34Z</time>
      </trkpt>
      <trkpt lat="42.313454" lon="2.485808">
        <ele>496.687</ele>
        <time>2021-05-27T20:16:39Z</time>
      </trkpt>
      <trkpt lat="42.313532" lon="2.485722">
        <ele>496.585</ele>
        <time>2021-05-27T20:16:43Z</time>
      </trkpt>
      <trkpt lat="42.313604" lon="2.485628">
        <ele>495.795</ele>
        <time>2021-05-27T20:16:49Z</time>
      </trkpt>
      <trkpt lat="42.313675" lon="2.485552">
        <ele>495.192</ele>
        <time>2021-05-27T20:16:54Z</time>
      </trkpt>
      <trkpt lat="42.313772" lon="2.485533">
        <ele>496.557</ele>
        <time>2021-05-27T20:16:59Z</time>
      </trkpt>
      <trkpt lat="42.313879" lon="2.485523">
        <ele>498.030</ele>
        <time>2021-05-27T20:17:05Z</time>
      </trkpt>
      <trkpt lat="42.313987" lon="2.485493">
        <ele>499.136</ele>
        <time>2021-05-27T20:17:10Z</time>
      </trkpt>
      <trkpt lat="42.314092" lon="2.485452">
        <ele>499.443</ele>
        <time>2021-05-27T20:17:15Z</time>
      </trkpt>
      <trkpt lat="42.314197" lon="2.485406">
        <ele>499.664</ele>
        <time>2021-05-27T20:17:20Z</time>
      </trkpt>
      <trkpt lat="42.314285" lon="2.485375">
        <ele>500.910</ele>
        <time>2021-05-27T20:17:24Z</time>
      </trkpt>
      <trkpt lat="42.314378" lon="2.485312">
        <ele>500.308</ele>
        <time>2021-05-27T20:17:30Z</time>
      </trkpt>
      <trkpt lat="42.314452" lon="2.485241">
        <ele>499.671</ele>
        <time>2021-05-27T20:17:35Z</time>
      </trkpt>
      <trkpt lat="42.314528" lon="2.485175">
        <ele>501.428</ele>
        <time>2021-05-27T20:17:39Z</time>
      </trkpt>
      <trkpt lat="42.314602" lon="2.485093">
        <ele>502.156</ele>
        <time>2021-05-27T20:17:46Z</time>
      </trkpt>
      <trkpt lat="42.314664" lon="2.484987">
        <ele>501.026</ele>
        <time>2021-05-27T20:17:52Z</time>
      </trkpt>
      <trkpt lat="42.314722" lon="2.484876">
        <ele>501.733</ele>
        <time>2021-05-27T20:17:58Z</time>
      </trkpt>
      <trkpt lat="42.314788" lon="2.484782">
        <ele>503.798</ele>
        <time>2021-05-27T20:18:03Z</time>
      </trkpt>
      <trkpt lat="42.314836" lon="2.484666">
        <ele>504.441</ele>
        <time>2021-05-27T20:18:09Z</time>
      </trkpt>
      <trkpt lat="42.314905" lon="2.484584">
        <ele>506.267</ele>
        <time>2021-05-27T20:18:14Z</time>
      </trkpt>
      <trkpt lat="42.314954" lon="2.484460">
        <ele>506.374</ele>
        <time>2021-05-27T20:18:20Z</time>
      </trkpt>
      <trkpt lat="42.314990" lon="2.484338">
        <ele>505.456</ele>
        <time>2021-05-27T20:18:25Z</time>
      </trkpt>
      <trkpt lat="42.315051" lon="2.484217">
        <ele>506.121</ele>
        <time>2021-05-27T20:18:31Z</time>
      </trkpt>
      <trkpt lat="42.315103" lon="2.484100">
        <ele>506.408</ele>
        <time>2021-05-27T20:18:36Z</time>
      </trkpt>
      <trkpt lat="42.315166" lon="2.484002">
        <ele>507.214</ele>
        <time>2021-05-27T20:18:41Z</time>
      </trkpt>
      <trkpt lat="42.315198" lon="2.483940">
        <ele>507.061</ele>
        <time>2021-05-27T20:18:44Z</time>
      </trkpt>
      <trkpt lat="42.315210" lon="2.483918">
        <ele>506.939</ele>
        <time>2021-05-27T20:18:45Z</time>
      </trkpt>
      <trkpt lat="42.315223" lon="2.483900">
        <ele>507.039</ele>
        <time>2021-05-27T20:18:46Z</time>
      </trkpt>
      <trkpt lat="42.315287" lon="2.483793">
        <ele>507.786</ele>
        <time>2021-05-27T20:18:51Z</time>
      </trkpt>
      <trkpt lat="42.315335" lon="2.483687">
        <ele>508.081</ele>
        <time>2021-05-27T20:18:56Z</time>
      </trkpt>
      <trkpt lat="42.315352" lon="2.483631">
        <ele>507.644</ele>
        <time>2021-05-27T20:18:57Z</time>
      </trkpt>
      <trkpt lat="42.315405" lon="2.483518">
        <ele>508.020</ele>
        <time>2021-05-27T20:19:03Z</time>
      </trkpt>
      <trkpt lat="42.315464" lon="2.483425">
        <ele>508.761</ele>
        <time>2021-05-27T20:19:08Z</time>
      </trkpt>
      <trkpt lat="42.315515" lon="2.483314">
        <ele>508.521</ele>
        <time>2021-05-27T20:19:12Z</time>
      </trkpt>
      <trkpt lat="42.315560" lon="2.483208">
        <ele>508.913</ele>
        <time>2021-05-27T20:19:17Z</time>
      </trkpt>
      <trkpt lat="42.315600" lon="2.483079">
        <ele>509.208</ele>
        <time>2021-05-27T20:19:22Z</time>
      </trkpt>
      <trkpt lat="42.315656" lon="2.482950">
        <ele>510.053</ele>
        <time>2021-05-27T20:19:27Z</time>
      </trkpt>
      <trkpt lat="42.315696" lon="2.482816">
        <ele>509.680</ele>
        <time>2021-05-27T20:19:33Z</time>
      </trkpt>
      <trkpt lat="42.315733" lon="2.482692">
        <ele>508.988</ele>
        <time>2021-05-27T20:19:38Z</time>
      </trkpt>
      <trkpt lat="42.315791" lon="2.482570">
        <ele>508.488</ele>
        <time>2021-05-27T20:19:43Z</time>
      </trkpt>
      <trkpt lat="42.315863" lon="2.482467">
        <ele>508.555</ele>
        <time>2021-05-27T20:19:49Z</time>
      </trkpt>
      <trkpt lat="42.315937" lon="2.482371">
        <ele>509.010</ele>
        <time>2021-05-27T20:19:53Z</time>
      </trkpt>
      <trkpt lat="42.316021" lon="2.482291">
        <ele>509.263</ele>
        <time>2021-05-27T20:19:59Z</time>
      </trkpt>
      <trkpt lat="42.316103" lon="2.482199">
        <ele>508.429</ele>
        <time>2021-05-27T20:20:03Z</time>
      </trkpt>
      <trkpt lat="42.316174" lon="2.482109">
        <ele>508.632</ele>
        <time>2021-05-27T20:20:09Z</time>
      </trkpt>
      <trkpt lat="42.316253" lon="2.482037">
        <ele>508.792</ele>
        <time>2021-05-27T20:20:14Z</time>
      </trkpt>
      <trkpt lat="42.316325" lon="2.481955">
        <ele>507.311</ele>
        <time>2021-05-27T20:20:19Z</time>
      </trkpt>
      <trkpt lat="42.316400" lon="2.481888">
        <ele>507.008</ele>
        <time>2021-05-27T20:20:24Z</time>
      </trkpt>
      <trkpt lat="42.316505" lon="2.481859">
        <ele>508.160</ele>
        <time>2021-05-27T20:20:29Z</time>
      </trkpt>
      <trkpt lat="42.316584" lon="2.481792">
        <ele>507.417</ele>
        <time>2021-05-27T20:20:34Z</time>
      </trkpt>
      <trkpt lat="42.316670" lon="2.481737">
        <ele>506.575</ele>
        <time>2021-05-27T20:20:40Z</time>
      </trkpt>
      <trkpt lat="42.316713" lon="2.481623">
        <ele>504.595</ele>
        <time>2021-05-27T20:20:59Z</time>
      </trkpt>
      <trkpt lat="42.316754" lon="2.481505">
        <ele>505.922</ele>
        <time>2021-05-27T20:21:09Z</time>
      </trkpt>
      <trkpt lat="42.316775" lon="2.481469">
        <ele>506.477</ele>
        <time>2021-05-27T20:21:14Z</time>
      </trkpt>
      <trkpt lat="42.316786" lon="2.481442">
        <ele>506.860</ele>
        <time>2021-05-27T20:21:20Z</time>
      </trkpt>
      <trkpt lat="42.316844" lon="2.481337">
        <ele>508.236</ele>
        <time>2021-05-27T20:21:27Z</time>
      </trkpt>
      <trkpt lat="42.316908" lon="2.481226">
        <ele>509.699</ele>
        <time>2021-05-27T20:21:33Z</time>
      </trkpt>
      <trkpt lat="42.316973" lon="2.481124">
        <ele>511.007</ele>
        <time>2021-05-27T20:21:40Z</time>
      </trkpt>
      <trkpt lat="42.317051" lon="2.481046">
        <ele>512.027</ele>
        <time>2021-05-27T20:21:47Z</time>
      </trkpt>
      <trkpt lat="42.317096" lon="2.481013">
        <ele>512.408</ele>
        <time>2021-05-27T20:21:51Z</time>
      </trkpt>
      <trkpt lat="42.317164" lon="2.480927">
        <ele>513.346</ele>
        <time>2021-05-27T20:21:58Z</time>
      </trkpt>
      <trkpt lat="42.317241" lon="2.480865">
        <ele>513.883</ele>
        <time>2021-05-27T20:22:05Z</time>
      </trkpt>
      <trkpt lat="42.317327" lon="2.480801">
        <ele>514.561</ele>
        <time>2021-05-27T20:22:12Z</time>
      </trkpt>
      <trkpt lat="42.317407" lon="2.480737">
        <ele>515.451</ele>
        <time>2021-05-27T20:22:20Z</time>
      </trkpt>
      <trkpt lat="42.317444" lon="2.480615">
        <ele>517.158</ele>
        <time>2021-05-27T20:22:27Z</time>
      </trkpt>
      <trkpt lat="42.317531" lon="2.480569">
        <ele>517.723</ele>
        <time>2021-05-27T20:22:34Z</time>
      </trkpt>
      <trkpt lat="42.317620" lon="2.480499">
        <ele>518.666</ele>
        <time>2021-05-27T20:22:41Z</time>
      </trkpt>
      <trkpt lat="42.317637" lon="2.480477">
        <ele>518.972</ele>
        <time>2021-05-27T20:22:42Z</time>
      </trkpt>
      <trkpt lat="42.317714" lon="2.480397">
        <ele>520.173</ele>
        <time>2021-05-27T20:22:51Z</time>
      </trkpt>
      <trkpt lat="42.317797" lon="2.480335">
        <ele>520.885</ele>
        <time>2021-05-27T20:22:58Z</time>
      </trkpt>
      <trkpt lat="42.317737" lon="2.480437">
        <ele>519.313</ele>
        <time>2021-05-27T20:23:17Z</time>
      </trkpt>
      <trkpt lat="42.317655" lon="2.480524">
        <ele>518.008</ele>
        <time>2021-05-27T20:23:23Z</time>
      </trkpt>
      <trkpt lat="42.317750" lon="2.480498">
        <ele>518.174</ele>
        <time>2021-05-27T20:23:46Z</time>
      </trkpt>
      <trkpt lat="42.317816" lon="2.480412">
        <ele>519.481</ele>
        <time>2021-05-27T20:23:51Z</time>
      </trkpt>
      <trkpt lat="42.317906" lon="2.480363">
        <ele>519.559</ele>
        <time>2021-05-27T20:23:57Z</time>
      </trkpt>
      <trkpt lat="42.317983" lon="2.480258">
        <ele>520.279</ele>
        <time>2021-05-27T20:24:01Z</time>
      </trkpt>
      <trkpt lat="42.318086" lon="2.480230">
        <ele>520.256</ele>
        <time>2021-05-27T20:24:08Z</time>
      </trkpt>
      <trkpt lat="42.318185" lon="2.480245">
        <ele>520.581</ele>
        <time>2021-05-27T20:24:12Z</time>
      </trkpt>
      <trkpt lat="42.318279" lon="2.480269">
        <ele>520.714</ele>
        <time>2021-05-27T20:24:18Z</time>
      </trkpt>
      <trkpt lat="42.318373" lon="2.480306">
        <ele>521.560</ele>
        <time>2021-05-27T20:24:27Z</time>
      </trkpt>
      <trkpt lat="42.318466" lon="2.480316">
        <ele>522.951</ele>
        <time>2021-05-27T20:24:33Z</time>
      </trkpt>
      <trkpt lat="42.318558" lon="2.480322">
        <ele>524.201</ele>
        <time>2021-05-27T20:24:41Z</time>
      </trkpt>
      <trkpt lat="42.318640" lon="2.480396">
        <ele>524.111</ele>
        <time>2021-05-27T20:24:47Z</time>
      </trkpt>
      <trkpt lat="42.318730" lon="2.480433">
        <ele>524.808</ele>
        <time>2021-05-27T20:24:56Z</time>
      </trkpt>
      <trkpt lat="42.318823" lon="2.480444">
        <ele>526.132</ele>
        <time>2021-05-27T20:25:11Z</time>
      </trkpt>
      <trkpt lat="42.318926" lon="2.480463">
        <ele>526.769</ele>
        <time>2021-05-27T20:25:17Z</time>
      </trkpt>
      <trkpt lat="42.319035" lon="2.480476">
        <ele>527.367</ele>
        <time>2021-05-27T20:25:19Z</time>
      </trkpt>
      <trkpt lat="42.319137" lon="2.480488">
        <ele>527.877</ele>
        <time>2021-05-27T20:25:24Z</time>
      </trkpt>
      <trkpt lat="42.319236" lon="2.480504">
        <ele>528.224</ele>
        <time>2021-05-27T20:25:26Z</time>
      </trkpt>
      <trkpt lat="42.319361" lon="2.480536">
        <ele>528.069</ele>
        <time>2021-05-27T20:25:29Z</time>
      </trkpt>
      <trkpt lat="42.319463" lon="2.480555">
        <ele>528.382</ele>
        <time>2021-05-27T20:25:34Z</time>
      </trkpt>
      <trkpt lat="42.319562" lon="2.480563">
        <ele>529.558</ele>
        <time>2021-05-27T20:25:40Z</time>
      </trkpt>
      <trkpt lat="42.319651" lon="2.480595">
        <ele>529.822</ele>
        <time>2021-05-27T20:25:45Z</time>
      </trkpt>
      <trkpt lat="42.319750" lon="2.480633">
        <ele>529.062</ele>
        <time>2021-05-27T20:25:55Z</time>
      </trkpt>
      <trkpt lat="42.319855" lon="2.480622">
        <ele>527.608</ele>
        <time>2021-05-27T20:26:01Z</time>
      </trkpt>
      <trkpt lat="42.319947" lon="2.480567">
        <ele>527.608</ele>
        <time>2021-05-27T20:26:08Z</time>
      </trkpt>
      <trkpt lat="42.320022" lon="2.480478">
        <ele>528.639</ele>
        <time>2021-05-27T20:26:15Z</time>
      </trkpt>
      <trkpt lat="42.320073" lon="2.480373">
        <ele>530.236</ele>
        <time>2021-05-27T20:26:23Z</time>
      </trkpt>
      <trkpt lat="42.320085" lon="2.480239">
        <ele>534.424</ele>
        <time>2021-05-27T20:26:31Z</time>
      </trkpt>
      <trkpt lat="42.320172" lon="2.480188">
        <ele>534.414</ele>
        <time>2021-05-27T20:26:40Z</time>
      </trkpt>
      <trkpt lat="42.320271" lon="2.480186">
        <ele>532.181</ele>
        <time>2021-05-27T20:26:47Z</time>
      </trkpt>
      <trkpt lat="42.320372" lon="2.480207">
        <ele>531.696</ele>
        <time>2021-05-27T20:26:52Z</time>
      </trkpt>
      <trkpt lat="42.320464" lon="2.480209">
        <ele>532.029</ele>
        <time>2021-05-27T20:26:59Z</time>
      </trkpt>
      <trkpt lat="42.320546" lon="2.480228">
        <ele>532.065</ele>
        <time>2021-05-27T20:27:05Z</time>
      </trkpt>
      <trkpt lat="42.320574" lon="2.480243">
        <ele>531.927</ele>
        <time>2021-05-27T20:27:07Z</time>
      </trkpt>
      <trkpt lat="42.320597" lon="2.480260">
        <ele>531.768</ele>
        <time>2021-05-27T20:27:09Z</time>
      </trkpt>
      <trkpt lat="42.320622" lon="2.480265">
        <ele>531.714</ele>
        <time>2021-05-27T20:27:10Z</time>
      </trkpt>
      <trkpt lat="42.320655" lon="2.480270">
        <ele>531.908</ele>
        <time>2021-05-27T20:27:12Z</time>
      </trkpt>
      <trkpt lat="42.320723" lon="2.480278">
        <ele>532.239</ele>
        <time>2021-05-27T20:27:18Z</time>
      </trkpt>
      <trkpt lat="42.320743" lon="2.480281">
        <ele>532.326</ele>
        <time>2021-05-27T20:27:19Z</time>
      </trkpt>
      <trkpt lat="42.320764" lon="2.480286">
        <ele>532.414</ele>
        <time>2021-05-27T20:27:21Z</time>
      </trkpt>
      <trkpt lat="42.320807" lon="2.480294">
        <ele>532.694</ele>
        <time>2021-05-27T20:27:24Z</time>
      </trkpt>
      <trkpt lat="42.320834" lon="2.480300">
        <ele>532.811</ele>
        <time>2021-05-27T20:27:27Z</time>
      </trkpt>
      <trkpt lat="42.320859" lon="2.480306">
        <ele>532.836</ele>
        <time>2021-05-27T20:27:28Z</time>
      </trkpt>
      <trkpt lat="42.320880" lon="2.480310">
        <ele>532.889</ele>
        <time>2021-05-27T20:27:30Z</time>
      </trkpt>
      <trkpt lat="42.320905" lon="2.480311">
        <ele>532.855</ele>
        <time>2021-05-27T20:27:34Z</time>
      </trkpt>
      <trkpt lat="42.320925" lon="2.480309">
        <ele>532.934</ele>
        <time>2021-05-27T20:27:35Z</time>
      </trkpt>
      <trkpt lat="42.320945" lon="2.480310">
        <ele>533.055</ele>
        <time>2021-05-27T20:27:37Z</time>
      </trkpt>
      <trkpt lat="42.320971" lon="2.480311">
        <ele>533.010</ele>
        <time>2021-05-27T20:27:41Z</time>
      </trkpt>
      <trkpt lat="42.320991" lon="2.480317">
        <ele>533.008</ele>
        <time>2021-05-27T20:27:42Z</time>
      </trkpt>
      <trkpt lat="42.321018" lon="2.480294">
        <ele>533.460</ele>
        <time>2021-05-27T20:27:47Z</time>
      </trkpt>
      <trkpt lat="42.321036" lon="2.480268">
        <ele>533.867</ele>
        <time>2021-05-27T20:27:50Z</time>
      </trkpt>
      <trkpt lat="42.321041" lon="2.480215">
        <ele>534.355</ele>
        <time>2021-05-27T20:27:53Z</time>
      </trkpt>
      <trkpt lat="42.321047" lon="2.480165">
        <ele>534.785</ele>
        <time>2021-05-27T20:27:55Z</time>
      </trkpt>
      <trkpt lat="42.321063" lon="2.480053">
        <ele>535.672</ele>
        <time>2021-05-27T20:28:02Z</time>
      </trkpt>
      <trkpt lat="42.321091" lon="2.479957">
        <ele>536.867</ele>
        <time>2021-05-27T20:28:09Z</time>
      </trkpt>
      <trkpt lat="42.321076" lon="2.479939">
        <ele>537.220</ele>
        <time>2021-05-27T20:28:15Z</time>
      </trkpt>
      <trkpt lat="42.321100" lon="2.479912">
        <ele>537.666</ele>
        <time>2021-05-27T20:28:21Z</time>
      </trkpt>
      <trkpt lat="42.321119" lon="2.479900">
        <ele>537.742</ele>
        <time>2021-05-27T20:28:23Z</time>
      </trkpt>
      <trkpt lat="42.321206" lon="2.479951">
        <ele>535.922</ele>
        <time>2021-05-27T20:29:41Z</time>
      </trkpt>
      <trkpt lat="42.321289" lon="2.480011">
        <ele>533.914</ele>
        <time>2021-05-27T20:29:49Z</time>
      </trkpt>
      <trkpt lat="42.321288" lon="2.480138">
        <ele>532.508</ele>
        <time>2021-05-27T20:30:00Z</time>
      </trkpt>
      <trkpt lat="42.321292" lon="2.480162">
        <ele>532.161</ele>
        <time>2021-05-27T20:30:12Z</time>
      </trkpt>
      <trkpt lat="42.321298" lon="2.480186">
        <ele>531.718</ele>
        <time>2021-05-27T20:30:18Z</time>
      </trkpt>
      <trkpt lat="42.321281" lon="2.480177">
        <ele>532.136</ele>
        <time>2021-05-27T20:30:43Z</time>
      </trkpt>
      <trkpt lat="42.321267" lon="2.480231">
        <ele>531.746</ele>
        <time>2021-05-27T20:31:31Z</time>
      </trkpt>
      <trkpt lat="42.321254" lon="2.480249">
        <ele>531.793</ele>
        <time>2021-05-27T20:31:33Z</time>
      </trkpt>
      <trkpt lat="42.321252" lon="2.480273">
        <ele>531.588</ele>
        <time>2021-05-27T20:31:35Z</time>
      </trkpt>
      <trkpt lat="42.321207" lon="2.480304">
        <ele>531.991</ele>
        <time>2021-05-27T20:31:39Z</time>
      </trkpt>
      <trkpt lat="42.321189" lon="2.480325">
        <ele>531.817</ele>
        <time>2021-05-27T20:31:41Z</time>
      </trkpt>
      <trkpt lat="42.321166" lon="2.480335">
        <ele>532.133</ele>
        <time>2021-05-27T20:31:43Z</time>
      </trkpt>
      <trkpt lat="42.321141" lon="2.480339">
        <ele>532.423</ele>
        <time>2021-05-27T20:31:45Z</time>
      </trkpt>
      <trkpt lat="42.321114" lon="2.480343">
        <ele>532.815</ele>
        <time>2021-05-27T20:31:47Z</time>
      </trkpt>
      <trkpt lat="42.321089" lon="2.480350">
        <ele>532.708</ele>
        <time>2021-05-27T20:31:49Z</time>
      </trkpt>
      <trkpt lat="42.321062" lon="2.480350">
        <ele>532.620</ele>
        <time>2021-05-27T20:31:51Z</time>
      </trkpt>
      <trkpt lat="42.321039" lon="2.480361">
        <ele>532.477</ele>
        <time>2021-05-27T20:31:53Z</time>
      </trkpt>
      <trkpt lat="42.321021" lon="2.480369">
        <ele>532.225</ele>
        <time>2021-05-27T20:31:55Z</time>
      </trkpt>
      <trkpt lat="42.321000" lon="2.480391">
        <ele>531.985</ele>
        <time>2021-05-27T20:31:57Z</time>
      </trkpt>
      <trkpt lat="42.320984" lon="2.480423">
        <ele>531.442</ele>
        <time>2021-05-27T20:31:59Z</time>
      </trkpt>
      <trkpt lat="42.320970" lon="2.480452">
        <ele>531.077</ele>
        <time>2021-05-27T20:32:01Z</time>
      </trkpt>
      <trkpt lat="42.320949" lon="2.480453">
        <ele>531.090</ele>
        <time>2021-05-27T20:32:03Z</time>
      </trkpt>
      <trkpt lat="42.320873" lon="2.480524">
        <ele>530.286</ele>
        <time>2021-05-27T20:32:10Z</time>
      </trkpt>
      <trkpt lat="42.320778" lon="2.480572">
        <ele>528.214</ele>
        <time>2021-05-27T20:32:17Z</time>
      </trkpt>
      <trkpt lat="42.320708" lon="2.480655">
        <ele>526.854</ele>
        <time>2021-05-27T20:32:28Z</time>
      </trkpt>
      <trkpt lat="42.320706" lon="2.480710">
        <ele>527.309</ele>
        <time>2021-05-27T20:32:32Z</time>
      </trkpt>
      <trkpt lat="42.320692" lon="2.480732">
        <ele>527.408</ele>
        <time>2021-05-27T20:32:41Z</time>
      </trkpt>
      <trkpt lat="42.320679" lon="2.480761">
        <ele>527.748</ele>
        <time>2021-05-27T20:32:47Z</time>
      </trkpt>
      <trkpt lat="42.320691" lon="2.480780">
        <ele>527.975</ele>
        <time>2021-05-27T20:32:58Z</time>
      </trkpt>
      <trkpt lat="42.320633" lon="2.480878">
        <ele>530.023</ele>
        <time>2021-05-27T20:33:15Z</time>
      </trkpt>
      <trkpt lat="42.320629" lon="2.481015">
        <ele>532.753</ele>
        <time>2021-05-27T20:33:21Z</time>
      </trkpt>
      <trkpt lat="42.320532" lon="2.481062">
        <ele>531.930</ele>
        <time>2021-05-27T20:33:28Z</time>
      </trkpt>
      <trkpt lat="42.320442" lon="2.481092">
        <ele>529.945</ele>
        <time>2021-05-27T20:33:35Z</time>
      </trkpt>
      <trkpt lat="42.320428" lon="2.481110">
        <ele>529.898</ele>
        <time>2021-05-27T20:33:37Z</time>
      </trkpt>
      <trkpt lat="42.320424" lon="2.481142">
        <ele>529.374</ele>
        <time>2021-05-27T20:33:41Z</time>
      </trkpt>
      <trkpt lat="42.320448" lon="2.481121">
        <ele>530.274</ele>
        <time>2021-05-27T20:33:55Z</time>
      </trkpt>
      <trkpt lat="42.320465" lon="2.481107">
        <ele>530.756</ele>
        <time>2021-05-27T20:33:58Z</time>
      </trkpt>
      <trkpt lat="42.320526" lon="2.481015">
        <ele>531.221</ele>
        <time>2021-05-27T20:34:07Z</time>
      </trkpt>
      <trkpt lat="42.320563" lon="2.481092">
        <ele>532.908</ele>
        <time>2021-05-27T20:34:16Z</time>
      </trkpt>
      <trkpt lat="42.320585" lon="2.481211">
        <ele>533.174</ele>
        <time>2021-05-27T20:34:22Z</time>
      </trkpt>
      <trkpt lat="42.320658" lon="2.481283">
        <ele>535.341</ele>
        <time>2021-05-27T20:34:33Z</time>
      </trkpt>
      <trkpt lat="42.320714" lon="2.481381">
        <ele>537.889</ele>
        <time>2021-05-27T20:34:41Z</time>
      </trkpt>
      <trkpt lat="42.320717" lon="2.481407">
        <ele>537.849</ele>
        <time>2021-05-27T20:34:53Z</time>
      </trkpt>
      <trkpt lat="42.320730" lon="2.481436">
        <ele>538.056</ele>
        <time>2021-05-27T20:36:43Z</time>
      </trkpt>
      <trkpt lat="42.320735" lon="2.481408">
        <ele>538.541</ele>
        <time>2021-05-27T20:36:45Z</time>
      </trkpt>
      <trkpt lat="42.320729" lon="2.481385">
        <ele>538.534</ele>
        <time>2021-05-27T20:36:46Z</time>
      </trkpt>
      <trkpt lat="42.320756" lon="2.481409">
        <ele>539.450</ele>
        <time>2021-05-27T20:36:50Z</time>
      </trkpt>
      <trkpt lat="42.320788" lon="2.481447">
        <ele>540.418</ele>
        <time>2021-05-27T20:36:53Z</time>
      </trkpt>
      <trkpt lat="42.320847" lon="2.481508">
        <ele>542.498</ele>
        <time>2021-05-27T20:36:58Z</time>
      </trkpt>
      <trkpt lat="42.320877" lon="2.481627">
        <ele>542.917</ele>
        <time>2021-05-27T20:37:06Z</time>
      </trkpt>
      <trkpt lat="42.320935" lon="2.481641">
        <ele>546.008</ele>
        <time>2021-05-27T20:37:22Z</time>
      </trkpt>
      <trkpt lat="42.320954" lon="2.481634">
        <ele>547.148</ele>
        <time>2021-05-27T20:37:29Z</time>
      </trkpt>
      <trkpt lat="42.320987" lon="2.481656">
        <ele>548.915</ele>
        <time>2021-05-27T20:37:33Z</time>
      </trkpt>
      <trkpt lat="42.321005" lon="2.481684">
        <ele>549.513</ele>
        <time>2021-05-27T20:37:36Z</time>
      </trkpt>
      <trkpt lat="42.321019" lon="2.481716">
        <ele>549.713</ele>
        <time>2021-05-27T20:37:38Z</time>
      </trkpt>
      <trkpt lat="42.321031" lon="2.481739">
        <ele>549.930</ele>
        <time>2021-05-27T20:37:40Z</time>
      </trkpt>
      <trkpt lat="42.321052" lon="2.481747">
        <ele>550.915</ele>
        <time>2021-05-27T20:37:43Z</time>
      </trkpt>
      <trkpt lat="42.321072" lon="2.481753">
        <ele>551.978</ele>
        <time>2021-05-27T20:37:59Z</time>
      </trkpt>
      <trkpt lat="42.321093" lon="2.481776">
        <ele>552.664</ele>
        <time>2021-05-27T20:38:05Z</time>
      </trkpt>
      <trkpt lat="42.321106" lon="2.481796">
        <ele>552.966</ele>
        <time>2021-05-27T20:38:07Z</time>
      </trkpt>
      <trkpt lat="42.321146" lon="2.481857">
        <ele>554.029</ele>
        <time>2021-05-27T20:38:12Z</time>
      </trkpt>
      <trkpt lat="42.321157" lon="2.481879">
        <ele>554.321</ele>
        <time>2021-05-27T20:38:14Z</time>
      </trkpt>
      <trkpt lat="42.321167" lon="2.481901">
        <ele>554.508</ele>
        <time>2021-05-27T20:38:16Z</time>
      </trkpt>
      <trkpt lat="42.321183" lon="2.481911">
        <ele>555.383</ele>
        <time>2021-05-27T20:38:18Z</time>
      </trkpt>
      <trkpt lat="42.321199" lon="2.481938">
        <ele>555.810</ele>
        <time>2021-05-27T20:38:21Z</time>
      </trkpt>
      <trkpt lat="42.321209" lon="2.481963">
        <ele>555.998</ele>
        <time>2021-05-27T20:38:23Z</time>
      </trkpt>
      <trkpt lat="42.321219" lon="2.481994">
        <ele>555.798</ele>
        <time>2021-05-27T20:38:25Z</time>
      </trkpt>
      <trkpt lat="42.321232" lon="2.482013">
        <ele>556.175</ele>
        <time>2021-05-27T20:38:27Z</time>
      </trkpt>
      <trkpt lat="42.321243" lon="2.482033">
        <ele>556.370</ele>
        <time>2021-05-27T20:38:29Z</time>
      </trkpt>
      <trkpt lat="42.321263" lon="2.482055">
        <ele>557.133</ele>
        <time>2021-05-27T20:38:32Z</time>
      </trkpt>
      <trkpt lat="42.321280" lon="2.482073">
        <ele>557.869</ele>
        <time>2021-05-27T20:38:34Z</time>
      </trkpt>
      <trkpt lat="42.321297" lon="2.482086">
        <ele>558.719</ele>
        <time>2021-05-27T20:38:36Z</time>
      </trkpt>
      <trkpt lat="42.321353" lon="2.482129">
        <ele>561.509</ele>
        <time>2021-05-27T20:38:43Z</time>
      </trkpt>
      <trkpt lat="42.321373" lon="2.482146">
        <ele>562.519</ele>
        <time>2021-05-27T20:38:47Z</time>
      </trkpt>
      <trkpt lat="42.321389" lon="2.482173">
        <ele>563.108</ele>
        <time>2021-05-27T20:38:50Z</time>
      </trkpt>
      <trkpt lat="42.321402" lon="2.482202">
        <ele>563.018</ele>
        <time>2021-05-27T20:38:53Z</time>
      </trkpt>
      <trkpt lat="42.321415" lon="2.482229">
        <ele>562.975</ele>
        <time>2021-05-27T20:38:55Z</time>
      </trkpt>
      <trkpt lat="42.321415" lon="2.482259">
        <ele>561.813</ele>
        <time>2021-05-27T20:38:59Z</time>
      </trkpt>
      <trkpt lat="42.321404" lon="2.482234">
        <ele>562.333</ele>
        <time>2021-05-27T20:39:26Z</time>
      </trkpt>
      <trkpt lat="42.321387" lon="2.482221">
        <ele>561.970</ele>
        <time>2021-05-27T20:39:28Z</time>
      </trkpt>
      <trkpt lat="42.321381" lon="2.482248">
        <ele>560.645</ele>
        <time>2021-05-27T20:39:31Z</time>
      </trkpt>
      <trkpt lat="42.321384" lon="2.482277">
        <ele>559.998</ele>
        <time>2021-05-27T20:39:33Z</time>
      </trkpt>
      <trkpt lat="42.321380" lon="2.482401">
        <ele>555.664</ele>
        <time>2021-05-27T20:39:40Z</time>
      </trkpt>
      <trkpt lat="42.321383" lon="2.482368">
        <ele>556.982</ele>
        <time>2021-05-27T20:39:50Z</time>
      </trkpt>
      <trkpt lat="42.321383" lon="2.482336">
        <ele>557.943</ele>
        <time>2021-05-27T20:39:53Z</time>
      </trkpt>
      <trkpt lat="42.321383" lon="2.482301">
        <ele>559.017</ele>
        <time>2021-05-27T20:39:56Z</time>
      </trkpt>
      <trkpt lat="42.321387" lon="2.482276">
        <ele>560.108</ele>
        <time>2021-05-27T20:39:58Z</time>
      </trkpt>
      <trkpt lat="42.321374" lon="2.482246">
        <ele>560.285</ele>
        <time>2021-05-27T20:40:01Z</time>
      </trkpt>
      <trkpt lat="42.321307" lon="2.482128">
        <ele>558.312</ele>
        <time>2021-05-27T20:40:08Z</time>
      </trkpt>
      <trkpt lat="42.321259" lon="2.482083">
        <ele>556.140</ele>
        <time>2021-05-27T20:40:12Z</time>
      </trkpt>
      <trkpt lat="42.321243" lon="2.482062">
        <ele>555.620</ele>
        <time>2021-05-27T20:40:14Z</time>
      </trkpt>
      <trkpt lat="42.321222" lon="2.482036">
        <ele>554.867</ele>
        <time>2021-05-27T20:40:16Z</time>
      </trkpt>
      <trkpt lat="42.321201" lon="2.482010">
        <ele>554.182</ele>
        <time>2021-05-27T20:40:18Z</time>
      </trkpt>
      <trkpt lat="42.321188" lon="2.481987">
        <ele>553.835</ele>
        <time>2021-05-27T20:40:20Z</time>
      </trkpt>
      <trkpt lat="42.321179" lon="2.481964">
        <ele>553.941</ele>
        <time>2021-05-27T20:40:22Z</time>
      </trkpt>
      <trkpt lat="42.321168" lon="2.481940">
        <ele>553.844</ele>
        <time>2021-05-27T20:40:24Z</time>
      </trkpt>
      <trkpt lat="42.321150" lon="2.481918">
        <ele>553.105</ele>
        <time>2021-05-27T20:40:26Z</time>
      </trkpt>
      <trkpt lat="42.321135" lon="2.481897">
        <ele>552.515</ele>
        <time>2021-05-27T20:40:28Z</time>
      </trkpt>
      <trkpt lat="42.321119" lon="2.481875">
        <ele>552.008</ele>
        <time>2021-05-27T20:40:30Z</time>
      </trkpt>
      <trkpt lat="42.321099" lon="2.481845">
        <ele>551.591</ele>
        <time>2021-05-27T20:40:33Z</time>
      </trkpt>
      <trkpt lat="42.321081" lon="2.481827">
        <ele>550.938</ele>
        <time>2021-05-27T20:40:35Z</time>
      </trkpt>
      <trkpt lat="42.321071" lon="2.481806">
        <ele>550.886</ele>
        <time>2021-05-27T20:40:37Z</time>
      </trkpt>
      <trkpt lat="42.321052" lon="2.481777">
        <ele>550.346</ele>
        <time>2021-05-27T20:40:39Z</time>
      </trkpt>
      <trkpt lat="42.321032" lon="2.481751">
        <ele>549.733</ele>
        <time>2021-05-27T20:40:41Z</time>
      </trkpt>
      <trkpt lat="42.321014" lon="2.481739">
        <ele>548.968</ele>
        <time>2021-05-27T20:40:43Z</time>
      </trkpt>
      <trkpt lat="42.321004" lon="2.481700">
        <ele>549.231</ele>
        <time>2021-05-27T20:40:45Z</time>
      </trkpt>
      <trkpt lat="42.320994" lon="2.481675">
        <ele>549.157</ele>
        <time>2021-05-27T20:40:47Z</time>
      </trkpt>
      <trkpt lat="42.320986" lon="2.481641">
        <ele>548.928</ele>
        <time>2021-05-27T20:40:50Z</time>
      </trkpt>
      <trkpt lat="42.320977" lon="2.481613">
        <ele>548.589</ele>
        <time>2021-05-27T20:40:52Z</time>
      </trkpt>
      <trkpt lat="42.320967" lon="2.481572">
        <ele>548.117</ele>
        <time>2021-05-27T20:40:54Z</time>
      </trkpt>
      <trkpt lat="42.320967" lon="2.481547">
        <ele>548.208</ele>
        <time>2021-05-27T20:40:55Z</time>
      </trkpt>
      <trkpt lat="42.320968" lon="2.481516">
        <ele>548.339</ele>
        <time>2021-05-27T20:40:57Z</time>
      </trkpt>
      <trkpt lat="42.320973" lon="2.481486">
        <ele>548.766</ele>
        <time>2021-05-27T20:41:00Z</time>
      </trkpt>
      <trkpt lat="42.320982" lon="2.481463">
        <ele>549.254</ele>
        <time>2021-05-27T20:41:02Z</time>
      </trkpt>
      <trkpt lat="42.320994" lon="2.481432">
        <ele>549.834</ele>
        <time>2021-05-27T20:41:04Z</time>
      </trkpt>
      <trkpt lat="42.321007" lon="2.481399">
        <ele>550.521</ele>
        <time>2021-05-27T20:41:06Z</time>
      </trkpt>
      <trkpt lat="42.321021" lon="2.481364">
        <ele>550.326</ele>
        <time>2021-05-27T20:41:08Z</time>
      </trkpt>
      <trkpt lat="42.321038" lon="2.481322">
        <ele>549.619</ele>
        <time>2021-05-27T20:41:10Z</time>
      </trkpt>
      <trkpt lat="42.321057" lon="2.481289">
        <ele>549.275</ele>
        <time>2021-05-27T20:41:12Z</time>
      </trkpt>
      <trkpt lat="42.321087" lon="2.481268">
        <ele>549.434</ele>
        <time>2021-05-27T20:41:14Z</time>
      </trkpt>
      <trkpt lat="42.321119" lon="2.481259">
        <ele>550.155</ele>
        <time>2021-05-27T20:41:16Z</time>
      </trkpt>
      <trkpt lat="42.321137" lon="2.481250">
        <ele>550.210</ele>
        <time>2021-05-27T20:41:17Z</time>
      </trkpt>
      <trkpt lat="42.321157" lon="2.481227">
        <ele>549.908</ele>
        <time>2021-05-27T20:41:19Z</time>
      </trkpt>
      <trkpt lat="42.321250" lon="2.481213">
        <ele>551.970</ele>
        <time>2021-05-27T20:41:27Z</time>
      </trkpt>
      <trkpt lat="42.321279" lon="2.481221">
        <ele>553.197</ele>
        <time>2021-05-27T20:41:29Z</time>
      </trkpt>
      <trkpt lat="42.321342" lon="2.481228">
        <ele>555.145</ele>
        <time>2021-05-27T20:41:35Z</time>
      </trkpt>
      <trkpt lat="42.321369" lon="2.481225">
        <ele>555.835</ele>
        <time>2021-05-27T20:41:37Z</time>
      </trkpt>
      <trkpt lat="42.321392" lon="2.481220">
        <ele>556.122</ele>
        <time>2021-05-27T20:41:39Z</time>
      </trkpt>
      <trkpt lat="42.321411" lon="2.481218">
        <ele>556.287</ele>
        <time>2021-05-27T20:41:41Z</time>
      </trkpt>
      <trkpt lat="42.321435" lon="2.481228">
        <ele>557.030</ele>
        <time>2021-05-27T20:41:43Z</time>
      </trkpt>
      <trkpt lat="42.321457" lon="2.481241">
        <ele>557.886</ele>
        <time>2021-05-27T20:41:45Z</time>
      </trkpt>
      <trkpt lat="42.321480" lon="2.481248">
        <ele>558.411</ele>
        <time>2021-05-27T20:41:50Z</time>
      </trkpt>
      <trkpt lat="42.321508" lon="2.481248">
        <ele>558.721</ele>
        <time>2021-05-27T20:41:53Z</time>
      </trkpt>
      <trkpt lat="42.321538" lon="2.481250">
        <ele>559.103</ele>
        <time>2021-05-27T20:41:55Z</time>
      </trkpt>
      <trkpt lat="42.321562" lon="2.481258">
        <ele>559.708</ele>
        <time>2021-05-27T20:41:57Z</time>
      </trkpt>
      <trkpt lat="42.321578" lon="2.481285">
        <ele>561.298</ele>
        <time>2021-05-27T20:42:00Z</time>
      </trkpt>
      <trkpt lat="42.321572" lon="2.481311">
        <ele>562.395</ele>
        <time>2021-05-27T20:42:04Z</time>
      </trkpt>
      <trkpt lat="42.321561" lon="2.481335">
        <ele>563.333</ele>
        <time>2021-05-27T20:42:08Z</time>
      </trkpt>
      <trkpt lat="42.321542" lon="2.481341">
        <ele>563.413</ele>
        <time>2021-05-27T20:42:10Z</time>
      </trkpt>
      <trkpt lat="42.321521" lon="2.481340">
        <ele>563.170</ele>
        <time>2021-05-27T20:42:12Z</time>
      </trkpt>
      <trkpt lat="42.321506" lon="2.481361">
        <ele>564.045</ele>
        <time>2021-05-27T20:42:14Z</time>
      </trkpt>
      <trkpt lat="42.321518" lon="2.481381">
        <ele>565.048</ele>
        <time>2021-05-27T20:42:17Z</time>
      </trkpt>
      <trkpt lat="42.321530" lon="2.481399">
        <ele>565.814</ele>
        <time>2021-05-27T20:42:20Z</time>
      </trkpt>
      <trkpt lat="42.321544" lon="2.481417">
        <ele>566.697</ele>
        <time>2021-05-27T20:42:26Z</time>
      </trkpt>
      <trkpt lat="42.321544" lon="2.481443">
        <ele>567.423</ele>
        <time>2021-05-27T20:42:29Z</time>
      </trkpt>
      <trkpt lat="42.321532" lon="2.481461">
        <ele>567.825</ele>
        <time>2021-05-27T20:42:33Z</time>
      </trkpt>
      <trkpt lat="42.321520" lon="2.481486">
        <ele>568.408</ele>
        <time>2021-05-27T20:42:35Z</time>
      </trkpt>
      <trkpt lat="42.321517" lon="2.481514">
        <ele>569.276</ele>
        <time>2021-05-27T20:42:37Z</time>
      </trkpt>
      <trkpt lat="42.321510" lon="2.481545">
        <ele>570.083</ele>
        <time>2021-05-27T20:42:40Z</time>
      </trkpt>
      <trkpt lat="42.321513" lon="2.481519">
        <ele>569.221</ele>
        <time>2021-05-27T20:42:52Z</time>
      </trkpt>
      <trkpt lat="42.321518" lon="2.481496">
        <ele>568.651</ele>
        <time>2021-05-27T20:42:54Z</time>
      </trkpt>
      <trkpt lat="42.321523" lon="2.481472">
        <ele>568.098</ele>
        <time>2021-05-27T20:42:56Z</time>
      </trkpt>
      <trkpt lat="42.321511" lon="2.481497">
        <ele>568.613</ele>
        <time>2021-05-27T20:43:08Z</time>
      </trkpt>
      <trkpt lat="42.321504" lon="2.481521">
        <ele>569.296</ele>
        <time>2021-05-27T20:43:10Z</time>
      </trkpt>
      <trkpt lat="42.321506" lon="2.481555">
        <ele>570.222</ele>
        <time>2021-05-27T20:43:13Z</time>
      </trkpt>
      <trkpt lat="42.321498" lon="2.481590">
        <ele>571.133</ele>
        <time>2021-05-27T20:43:16Z</time>
      </trkpt>
      <trkpt lat="42.321492" lon="2.481615">
        <ele>571.723</ele>
        <time>2021-05-27T20:43:19Z</time>
      </trkpt>
      <trkpt lat="42.321500" lon="2.481646">
        <ele>572.815</ele>
        <time>2021-05-27T20:43:22Z</time>
      </trkpt>
      <trkpt lat="42.321508" lon="2.481679">
        <ele>573.608</ele>
        <time>2021-05-27T20:43:25Z</time>
      </trkpt>
      <trkpt lat="42.321509" lon="2.481705">
        <ele>573.730</ele>
        <time>2021-05-27T20:43:30Z</time>
      </trkpt>
      <trkpt lat="42.321518" lon="2.481735">
        <ele>574.047</ele>
        <time>2021-05-27T20:43:33Z</time>
      </trkpt>
      <trkpt lat="42.321527" lon="2.481762">
        <ele>574.355</ele>
        <time>2021-05-27T20:43:37Z</time>
      </trkpt>
      <trkpt lat="42.321546" lon="2.481755">
        <ele>574.975</ele>
        <time>2021-05-27T20:43:41Z</time>
      </trkpt>
      <trkpt lat="42.321554" lon="2.481731">
        <ele>575.092</ele>
        <time>2021-05-27T20:43:43Z</time>
      </trkpt>
      <trkpt lat="42.321563" lon="2.481699">
        <ele>575.027</ele>
        <time>2021-05-27T20:43:46Z</time>
      </trkpt>
      <trkpt lat="42.321573" lon="2.481673">
        <ele>575.010</ele>
        <time>2021-05-27T20:43:48Z</time>
      </trkpt>
      <trkpt lat="42.321594" lon="2.481663">
        <ele>575.376</ele>
        <time>2021-05-27T20:43:51Z</time>
      </trkpt>
      <trkpt lat="42.321607" lon="2.481685">
        <ele>575.965</ele>
        <time>2021-05-27T20:43:53Z</time>
      </trkpt>
      <trkpt lat="42.321620" lon="2.481702">
        <ele>576.568</ele>
        <time>2021-05-27T20:43:55Z</time>
      </trkpt>
      <trkpt lat="42.321633" lon="2.481720">
        <ele>577.014</ele>
        <time>2021-05-27T20:43:57Z</time>
      </trkpt>
      <trkpt lat="42.321646" lon="2.481749">
        <ele>577.908</ele>
        <time>2021-05-27T20:44:00Z</time>
      </trkpt>
      <trkpt lat="42.321664" lon="2.481762">
        <ele>578.693</ele>
        <time>2021-05-27T20:44:02Z</time>
      </trkpt>
      <trkpt lat="42.321689" lon="2.481762">
        <ele>579.480</ele>
        <time>2021-05-27T20:44:06Z</time>
      </trkpt>
      <trkpt lat="42.321704" lon="2.481791">
        <ele>580.428</ele>
        <time>2021-05-27T20:44:09Z</time>
      </trkpt>
      <trkpt lat="42.321715" lon="2.481820">
        <ele>581.288</ele>
        <time>2021-05-27T20:44:12Z</time>
      </trkpt>
      <trkpt lat="42.321726" lon="2.481903">
        <ele>583.015</ele>
        <time>2021-05-27T20:44:18Z</time>
      </trkpt>
      <trkpt lat="42.321734" lon="2.481929">
        <ele>583.740</ele>
        <time>2021-05-27T20:44:21Z</time>
      </trkpt>
      <trkpt lat="42.321749" lon="2.481950">
        <ele>584.263</ele>
        <time>2021-05-27T20:44:24Z</time>
      </trkpt>
      <trkpt lat="42.321770" lon="2.481969">
        <ele>584.289</ele>
        <time>2021-05-27T20:44:27Z</time>
      </trkpt>
      <trkpt lat="42.321795" lon="2.481988">
        <ele>584.316</ele>
        <time>2021-05-27T20:44:29Z</time>
      </trkpt>
      <trkpt lat="42.321818" lon="2.482000">
        <ele>584.576</ele>
        <time>2021-05-27T20:44:31Z</time>
      </trkpt>
      <trkpt lat="42.321842" lon="2.482001">
        <ele>585.213</ele>
        <time>2021-05-27T20:44:33Z</time>
      </trkpt>
      <trkpt lat="42.321861" lon="2.481990">
        <ele>586.108</ele>
        <time>2021-05-27T20:44:35Z</time>
      </trkpt>
      <trkpt lat="42.321897" lon="2.481892">
        <ele>587.878</ele>
        <time>2021-05-27T20:44:43Z</time>
      </trkpt>
      <trkpt lat="42.321992" lon="2.481882">
        <ele>589.835</ele>
        <time>2021-05-27T20:44:54Z</time>
      </trkpt>
      <trkpt lat="42.322056" lon="2.481901">
        <ele>590.753</ele>
        <time>2021-05-27T20:45:01Z</time>
      </trkpt>
      <trkpt lat="42.322127" lon="2.481915">
        <ele>591.593</ele>
        <time>2021-05-27T20:45:08Z</time>
      </trkpt>
      <trkpt lat="42.322216" lon="2.481860">
        <ele>593.440</ele>
        <time>2021-05-27T20:45:20Z</time>
      </trkpt>
      <trkpt lat="42.322292" lon="2.481774">
        <ele>595.115</ele>
        <time>2021-05-27T20:45:30Z</time>
      </trkpt>
      <trkpt lat="42.322364" lon="2.481679">
        <ele>598.258</ele>
        <time>2021-05-27T20:45:39Z</time>
      </trkpt>
      <trkpt lat="42.322465" lon="2.481646">
        <ele>599.914</ele>
        <time>2021-05-27T20:45:49Z</time>
      </trkpt>
      <trkpt lat="42.322460" lon="2.481578">
        <ele>600.591</ele>
        <time>2021-05-27T20:45:59Z</time>
      </trkpt>
      <trkpt lat="42.322461" lon="2.481548">
        <ele>600.981</ele>
        <time>2021-05-27T20:46:01Z</time>
      </trkpt>
      <trkpt lat="42.322471" lon="2.481521">
        <ele>601.519</ele>
        <time>2021-05-27T20:46:03Z</time>
      </trkpt>
      <trkpt lat="42.322479" lon="2.481491">
        <ele>602.308</ele>
        <time>2021-05-27T20:46:05Z</time>
      </trkpt>
      <trkpt lat="42.322487" lon="2.481458">
        <ele>603.196</ele>
        <time>2021-05-27T20:46:08Z</time>
      </trkpt>
      <trkpt lat="42.322492" lon="2.481422">
        <ele>604.043</ele>
        <time>2021-05-27T20:46:10Z</time>
      </trkpt>
      <trkpt lat="42.322498" lon="2.481387">
        <ele>604.861</ele>
        <time>2021-05-27T20:46:12Z</time>
      </trkpt>
      <trkpt lat="42.322509" lon="2.481348">
        <ele>604.331</ele>
        <time>2021-05-27T20:46:14Z</time>
      </trkpt>
      <trkpt lat="42.322513" lon="2.481313">
        <ele>603.618</ele>
        <time>2021-05-27T20:46:16Z</time>
      </trkpt>
      <trkpt lat="42.322529" lon="2.481285">
        <ele>603.673</ele>
        <time>2021-05-27T20:46:18Z</time>
      </trkpt>
      <trkpt lat="42.322538" lon="2.481256">
        <ele>603.316</ele>
        <time>2021-05-27T20:46:20Z</time>
      </trkpt>
      <trkpt lat="42.322556" lon="2.481232">
        <ele>603.722</ele>
        <time>2021-05-27T20:46:23Z</time>
      </trkpt>
      <trkpt lat="42.322571" lon="2.481213">
        <ele>604.169</ele>
        <time>2021-05-27T20:46:25Z</time>
      </trkpt>
      <trkpt lat="42.322651" lon="2.481138">
        <ele>607.404</ele>
        <time>2021-05-27T20:46:33Z</time>
      </trkpt>
      <trkpt lat="42.322733" lon="2.481074">
        <ele>611.024</ele>
        <time>2021-05-27T20:46:40Z</time>
      </trkpt>
      <trkpt lat="42.322823" lon="2.481055">
        <ele>615.608</ele>
        <time>2021-05-27T20:46:49Z</time>
      </trkpt>
      <trkpt lat="42.322905" lon="2.480980">
        <ele>618.213</ele>
        <time>2021-05-27T20:47:00Z</time>
      </trkpt>
      <trkpt lat="42.322974" lon="2.480896">
        <ele>620.760</ele>
        <time>2021-05-27T20:47:10Z</time>
      </trkpt>
      <trkpt lat="42.323041" lon="2.480801">
        <ele>623.328</ele>
        <time>2021-05-27T20:47:19Z</time>
      </trkpt>
      <trkpt lat="42.323050" lon="2.480934">
        <ele>626.188</ele>
        <time>2021-05-27T20:47:33Z</time>
      </trkpt>
      <trkpt lat="42.323050" lon="2.480998">
        <ele>627.015</ele>
        <time>2021-05-27T20:47:38Z</time>
      </trkpt>
      <trkpt lat="42.323052" lon="2.481147">
        <ele>627.710</ele>
        <time>2021-05-27T20:47:50Z</time>
      </trkpt>
      <trkpt lat="42.323046" lon="2.481176">
        <ele>626.593</ele>
        <time>2021-05-27T20:47:52Z</time>
      </trkpt>
      <trkpt lat="42.323034" lon="2.481217">
        <ele>624.759</ele>
        <time>2021-05-27T20:47:55Z</time>
      </trkpt>
      <trkpt lat="42.323118" lon="2.481281">
        <ele>626.731</ele>
        <time>2021-05-27T20:48:04Z</time>
      </trkpt>
      <trkpt lat="42.323176" lon="2.481291">
        <ele>629.461</ele>
        <time>2021-05-27T20:48:09Z</time>
      </trkpt>
      <trkpt lat="42.323270" lon="2.481343">
        <ele>632.407</ele>
        <time>2021-05-27T20:48:21Z</time>
      </trkpt>
      <trkpt lat="42.323370" lon="2.481352">
        <ele>637.408</ele>
        <time>2021-05-27T20:48:28Z</time>
      </trkpt>
      <trkpt lat="42.323308" lon="2.481257">
        <ele>637.420</ele>
        <time>2021-05-27T20:48:42Z</time>
      </trkpt>
      <trkpt lat="42.323274" lon="2.481143">
        <ele>639.777</ele>
        <time>2021-05-27T20:48:53Z</time>
      </trkpt>
      <trkpt lat="42.323272" lon="2.481010">
        <ele>640.995</ele>
        <time>2021-05-27T20:49:03Z</time>
      </trkpt>
      <trkpt lat="42.323289" lon="2.480883">
        <ele>642.515</ele>
        <time>2021-05-27T20:49:11Z</time>
      </trkpt>
      <trkpt lat="42.323358" lon="2.480806">
        <ele>647.262</ele>
        <time>2021-05-27T20:49:22Z</time>
      </trkpt>
      <trkpt lat="42.323434" lon="2.480734">
        <ele>651.457</ele>
        <time>2021-05-27T20:49:35Z</time>
      </trkpt>
      <trkpt lat="42.323474" lon="2.480623">
        <ele>652.450</ele>
        <time>2021-05-27T20:49:45Z</time>
      </trkpt>
      <trkpt lat="42.323512" lon="2.480733">
        <ele>657.286</ele>
        <time>2021-05-27T20:50:05Z</time>
      </trkpt>
      <trkpt lat="42.323509" lon="2.480770">
        <ele>657.616</ele>
        <time>2021-05-27T20:50:08Z</time>
      </trkpt>
      <trkpt lat="42.323527" lon="2.480816">
        <ele>659.776</ele>
        <time>2021-05-27T20:50:14Z</time>
      </trkpt>
      <trkpt lat="42.323537" lon="2.480850">
        <ele>660.713</ele>
        <time>2021-05-27T20:50:17Z</time>
      </trkpt>
      <trkpt lat="42.323566" lon="2.480970">
        <ele>663.408</ele>
        <time>2021-05-27T20:50:29Z</time>
      </trkpt>
      <trkpt lat="42.323609" lon="2.480925">
        <ele>666.578</ele>
        <time>2021-05-27T20:50:38Z</time>
      </trkpt>
      <trkpt lat="42.323672" lon="2.480910">
        <ele>672.055</ele>
        <time>2021-05-27T20:50:52Z</time>
      </trkpt>
      <trkpt lat="42.323668" lon="2.480990">
        <ele>671.623</ele>
        <time>2021-05-27T20:50:59Z</time>
      </trkpt>
      <trkpt lat="42.323741" lon="2.480906">
        <ele>678.373</ele>
        <time>2021-05-27T20:51:12Z</time>
      </trkpt>
      <trkpt lat="42.323791" lon="2.480798">
        <ele>683.480</ele>
        <time>2021-05-27T20:51:23Z</time>
      </trkpt>
      <trkpt lat="42.323836" lon="2.480688">
        <ele>685.375</ele>
        <time>2021-05-27T20:51:36Z</time>
      </trkpt>
      <trkpt lat="42.323862" lon="2.480617">
        <ele>686.118</ele>
        <time>2021-05-27T20:51:51Z</time>
      </trkpt>
      <trkpt lat="42.323867" lon="2.480746">
        <ele>689.794</ele>
        <time>2021-05-27T20:52:01Z</time>
      </trkpt>
      <trkpt lat="42.323865" lon="2.480878">
        <ele>690.326</ele>
        <time>2021-05-27T20:52:11Z</time>
      </trkpt>
      <trkpt lat="42.323874" lon="2.480900">
        <ele>690.547</ele>
        <time>2021-05-27T20:52:14Z</time>
      </trkpt>
      <trkpt lat="42.323889" lon="2.480887">
        <ele>692.311</ele>
        <time>2021-05-27T20:52:16Z</time>
      </trkpt>
      <trkpt lat="42.323895" lon="2.480864">
        <ele>693.808</ele>
        <time>2021-05-27T20:52:18Z</time>
      </trkpt>
      <trkpt lat="42.323903" lon="2.480835">
        <ele>695.839</ele>
        <time>2021-05-27T20:52:21Z</time>
      </trkpt>
      <trkpt lat="42.323945" lon="2.480726">
        <ele>698.476</ele>
        <time>2021-05-27T20:52:34Z</time>
      </trkpt>
      <trkpt lat="42.324000" lon="2.480626">
        <ele>702.644</ele>
        <time>2021-05-27T20:52:48Z</time>
      </trkpt>
      <trkpt lat="42.324017" lon="2.480502">
        <ele>702.134</ele>
        <time>2021-05-27T20:53:01Z</time>
      </trkpt>
      <trkpt lat="42.323981" lon="2.480406">
        <ele>697.211</ele>
        <time>2021-05-27T20:53:07Z</time>
      </trkpt>
      <trkpt lat="42.323975" lon="2.480382">
        <ele>696.446</ele>
        <time>2021-05-27T20:53:09Z</time>
      </trkpt>
      <trkpt lat="42.323973" lon="2.480351">
        <ele>696.019</ele>
        <time>2021-05-27T20:53:11Z</time>
      </trkpt>
      <trkpt lat="42.323985" lon="2.480321">
        <ele>697.075</ele>
        <time>2021-05-27T20:53:14Z</time>
      </trkpt>
      <trkpt lat="42.324001" lon="2.480300">
        <ele>698.342</ele>
        <time>2021-05-27T20:53:17Z</time>
      </trkpt>
      <trkpt lat="42.324095" lon="2.480255">
        <ele>707.122</ele>
        <time>2021-05-27T20:53:29Z</time>
      </trkpt>
      <trkpt lat="42.324069" lon="2.480375">
        <ele>705.914</ele>
        <time>2021-05-27T20:53:41Z</time>
      </trkpt>
      <trkpt lat="42.324148" lon="2.480316">
        <ele>712.308</ele>
        <time>2021-05-27T20:53:57Z</time>
      </trkpt>
      <trkpt lat="42.324231" lon="2.480261">
        <ele>720.851</ele>
        <time>2021-05-27T20:54:17Z</time>
      </trkpt>
      <trkpt lat="42.324233" lon="2.480391">
        <ele>724.188</ele>
        <time>2021-05-27T20:54:44Z</time>
      </trkpt>
      <trkpt lat="42.324325" lon="2.480333">
        <ele>733.156</ele>
        <time>2021-05-27T20:55:00Z</time>
      </trkpt>
      <trkpt lat="42.324385" lon="2.480237">
        <ele>738.346</ele>
        <time>2021-05-27T20:55:13Z</time>
      </trkpt>
      <trkpt lat="42.324377" lon="2.480114">
        <ele>738.143</ele>
        <time>2021-05-27T20:55:27Z</time>
      </trkpt>
      <trkpt lat="42.324305" lon="2.480028">
        <ele>732.628</ele>
        <time>2021-05-27T20:55:35Z</time>
      </trkpt>
      <trkpt lat="42.324224" lon="2.479950">
        <ele>728.981</ele>
        <time>2021-05-27T20:55:44Z</time>
      </trkpt>
      <trkpt lat="42.324172" lon="2.479896">
        <ele>728.067</ele>
        <time>2021-05-27T20:55:50Z</time>
      </trkpt>
      <trkpt lat="42.324105" lon="2.479803">
        <ele>727.478</ele>
        <time>2021-05-27T20:56:00Z</time>
      </trkpt>
      <trkpt lat="42.324073" lon="2.479801">
        <ele>724.933</ele>
        <time>2021-05-27T20:56:04Z</time>
      </trkpt>
      <trkpt lat="42.324048" lon="2.479800">
        <ele>722.826</ele>
        <time>2021-05-27T20:56:07Z</time>
      </trkpt>
      <trkpt lat="42.324028" lon="2.479804">
        <ele>720.808</ele>
        <time>2021-05-27T20:56:12Z</time>
      </trkpt>
      <trkpt lat="42.324017" lon="2.479782">
        <ele>721.634</ele>
        <time>2021-05-27T20:56:47Z</time>
      </trkpt>
      <trkpt lat="42.324028" lon="2.479755">
        <ele>724.541</ele>
        <time>2021-05-27T20:56:50Z</time>
      </trkpt>
      <trkpt lat="42.324052" lon="2.479763">
        <ele>725.859</ele>
        <time>2021-05-27T20:56:53Z</time>
      </trkpt>
      <trkpt lat="42.324063" lon="2.479743">
        <ele>728.139</ele>
        <time>2021-05-27T20:56:56Z</time>
      </trkpt>
      <trkpt lat="42.324052" lon="2.479726">
        <ele>728.516</ele>
        <time>2021-05-27T20:56:59Z</time>
      </trkpt>
      <trkpt lat="42.324046" lon="2.479695">
        <ele>728.431</ele>
        <time>2021-05-27T20:57:02Z</time>
      </trkpt>
      <trkpt lat="42.324040" lon="2.479661">
        <ele>728.144</ele>
        <time>2021-05-27T20:57:05Z</time>
      </trkpt>
      <trkpt lat="42.324045" lon="2.479633">
        <ele>728.590</ele>
        <time>2021-05-27T20:57:08Z</time>
      </trkpt>
      <trkpt lat="42.324056" lon="2.479613">
        <ele>729.392</ele>
        <time>2021-05-27T20:57:10Z</time>
      </trkpt>
      <trkpt lat="42.324066" lon="2.479585">
        <ele>730.073</ele>
        <time>2021-05-27T20:57:13Z</time>
      </trkpt>
      <trkpt lat="42.324077" lon="2.479565">
        <ele>730.720</ele>
        <time>2021-05-27T20:57:15Z</time>
      </trkpt>
      <trkpt lat="42.324096" lon="2.479546">
        <ele>731.908</ele>
        <time>2021-05-27T20:57:18Z</time>
      </trkpt>
      <trkpt lat="42.324115" lon="2.479534">
        <ele>733.196</ele>
        <time>2021-05-27T20:57:20Z</time>
      </trkpt>
      <trkpt lat="42.324133" lon="2.479525">
        <ele>734.223</ele>
        <time>2021-05-27T20:57:22Z</time>
      </trkpt>
      <trkpt lat="42.324150" lon="2.479519">
        <ele>735.211</ele>
        <time>2021-05-27T20:57:24Z</time>
      </trkpt>
      <trkpt lat="42.324174" lon="2.479511">
        <ele>736.521</ele>
        <time>2021-05-27T20:57:27Z</time>
      </trkpt>
      <trkpt lat="42.324194" lon="2.479505">
        <ele>737.398</ele>
        <time>2021-05-27T20:57:29Z</time>
      </trkpt>
      <trkpt lat="42.324216" lon="2.479495">
        <ele>738.293</ele>
        <time>2021-05-27T20:57:31Z</time>
      </trkpt>
      <trkpt lat="42.324234" lon="2.479486">
        <ele>738.996</ele>
        <time>2021-05-27T20:57:33Z</time>
      </trkpt>
      <trkpt lat="42.324252" lon="2.479474">
        <ele>739.572</ele>
        <time>2021-05-27T20:57:36Z</time>
      </trkpt>
      <trkpt lat="42.324271" lon="2.479463">
        <ele>740.213</ele>
        <time>2021-05-27T20:57:38Z</time>
      </trkpt>
      <trkpt lat="42.324294" lon="2.479451">
        <ele>741.143</ele>
        <time>2021-05-27T20:57:40Z</time>
      </trkpt>
      <trkpt lat="42.324318" lon="2.479431">
        <ele>741.607</ele>
        <time>2021-05-27T20:57:43Z</time>
      </trkpt>
      <trkpt lat="42.324336" lon="2.479419">
        <ele>742.008</ele>
        <time>2021-05-27T20:57:45Z</time>
      </trkpt>
      <trkpt lat="42.324354" lon="2.479414">
        <ele>742.778</ele>
        <time>2021-05-27T20:57:47Z</time>
      </trkpt>
      <trkpt lat="42.324372" lon="2.479394">
        <ele>742.995</ele>
        <time>2021-05-27T20:57:49Z</time>
      </trkpt>
      <trkpt lat="42.324392" lon="2.479381">
        <ele>743.473</ele>
        <time>2021-05-27T20:57:51Z</time>
      </trkpt>
      <trkpt lat="42.324414" lon="2.479376">
        <ele>744.253</ele>
        <time>2021-05-27T20:57:53Z</time>
      </trkpt>
      <trkpt lat="42.324482" lon="2.479348">
        <ele>746.730</ele>
        <time>2021-05-27T20:58:01Z</time>
      </trkpt>
      <trkpt lat="42.324482" lon="2.479374">
        <ele>747.255</ele>
        <time>2021-05-27T20:58:07Z</time>
      </trkpt>
      <trkpt lat="42.324478" lon="2.479398">
        <ele>747.578</ele>
        <time>2021-05-27T20:58:09Z</time>
      </trkpt>
      <trkpt lat="42.324470" lon="2.479428">
        <ele>747.844</ele>
        <time>2021-05-27T20:58:12Z</time>
      </trkpt>
      <trkpt lat="42.324458" lon="2.479459">
        <ele>747.778</ele>
        <time>2021-05-27T20:58:15Z</time>
      </trkpt>
      <trkpt lat="42.324445" lon="2.479477">
        <ele>747.333</ele>
        <time>2021-05-27T20:58:18Z</time>
      </trkpt>
      <trkpt lat="42.324451" lon="2.479503">
        <ele>747.726</ele>
        <time>2021-05-27T20:58:20Z</time>
      </trkpt>
      <trkpt lat="42.324453" lon="2.479533">
        <ele>748.008</ele>
        <time>2021-05-27T20:58:23Z</time>
      </trkpt>
      <trkpt lat="42.324471" lon="2.479540">
        <ele>748.954</ele>
        <time>2021-05-27T20:58:27Z</time>
      </trkpt>
      <trkpt lat="42.324489" lon="2.479528">
        <ele>749.711</ele>
        <time>2021-05-27T20:58:29Z</time>
      </trkpt>
      <trkpt lat="42.324521" lon="2.479509">
        <ele>751.019</ele>
        <time>2021-05-27T20:58:34Z</time>
      </trkpt>
      <trkpt lat="42.324536" lon="2.479481">
        <ele>751.319</ele>
        <time>2021-05-27T20:58:37Z</time>
      </trkpt>
      <trkpt lat="42.324558" lon="2.479454">
        <ele>752.096</ele>
        <time>2021-05-27T20:58:40Z</time>
      </trkpt>
      <trkpt lat="42.324601" lon="2.479477">
        <ele>754.211</ele>
        <time>2021-05-27T20:58:48Z</time>
      </trkpt>
      <trkpt lat="42.324594" lon="2.479510">
        <ele>754.314</ele>
        <time>2021-05-27T20:58:51Z</time>
      </trkpt>
      <trkpt lat="42.324595" lon="2.479541">
        <ele>754.890</ele>
        <time>2021-05-27T20:58:53Z</time>
      </trkpt>
      <trkpt lat="42.324608" lon="2.479561">
        <ele>755.692</ele>
        <time>2021-05-27T20:58:56Z</time>
      </trkpt>
      <trkpt lat="42.324630" lon="2.479557">
        <ele>756.673</ele>
        <time>2021-05-27T20:58:59Z</time>
      </trkpt>
      <trkpt lat="42.324650" lon="2.479558">
        <ele>757.620</ele>
        <time>2021-05-27T20:59:02Z</time>
      </trkpt>
      <trkpt lat="42.324670" lon="2.479541">
        <ele>758.308</ele>
        <time>2021-05-27T20:59:05Z</time>
      </trkpt>
      <trkpt lat="42.324744" lon="2.479462">
        <ele>760.026</ele>
        <time>2021-05-27T20:59:16Z</time>
      </trkpt>
      <trkpt lat="42.324763" lon="2.479474">
        <ele>760.933</ele>
        <time>2021-05-27T20:59:19Z</time>
      </trkpt>
      <trkpt lat="42.324754" lon="2.479498">
        <ele>761.051</ele>
        <time>2021-05-27T20:59:22Z</time>
      </trkpt>
      <trkpt lat="42.324761" lon="2.479543">
        <ele>762.081</ele>
        <time>2021-05-27T20:59:26Z</time>
      </trkpt>
      <trkpt lat="42.324762" lon="2.479569">
        <ele>762.578</ele>
        <time>2021-05-27T20:59:28Z</time>
      </trkpt>
      <trkpt lat="42.324781" lon="2.479566">
        <ele>763.193</ele>
        <time>2021-05-27T20:59:31Z</time>
      </trkpt>
      <trkpt lat="42.324826" lon="2.479535">
        <ele>764.066</ele>
        <time>2021-05-27T20:59:37Z</time>
      </trkpt>
      <trkpt lat="42.324843" lon="2.479525">
        <ele>764.452</ele>
        <time>2021-05-27T20:59:39Z</time>
      </trkpt>
      <trkpt lat="42.324932" lon="2.479485">
        <ele>766.582</ele>
        <time>2021-05-27T20:59:49Z</time>
      </trkpt>
      <trkpt lat="42.324958" lon="2.479482">
        <ele>767.343</ele>
        <time>2021-05-27T20:59:52Z</time>
      </trkpt>
      <trkpt lat="42.324995" lon="2.479458">
        <ele>768.117</ele>
        <time>2021-05-27T20:59:58Z</time>
      </trkpt>
      <trkpt lat="42.325021" lon="2.479459">
        <ele>768.908</ele>
        <time>2021-05-27T21:00:01Z</time>
      </trkpt>
      <trkpt lat="42.325115" lon="2.479425">
        <ele>771.065</ele>
        <time>2021-05-27T21:00:12Z</time>
      </trkpt>
      <trkpt lat="42.325204" lon="2.479390">
        <ele>772.842</ele>
        <time>2021-05-27T21:00:21Z</time>
      </trkpt>
      <trkpt lat="42.325222" lon="2.479378">
        <ele>773.150</ele>
        <time>2021-05-27T21:00:23Z</time>
      </trkpt>
      <trkpt lat="42.325261" lon="2.479364">
        <ele>773.820</ele>
        <time>2021-05-27T21:00:27Z</time>
      </trkpt>
      <trkpt lat="42.325284" lon="2.479342">
        <ele>774.047</ele>
        <time>2021-05-27T21:00:30Z</time>
      </trkpt>
      <trkpt lat="42.325309" lon="2.479329">
        <ele>774.422</ele>
        <time>2021-05-27T21:00:33Z</time>
      </trkpt>
      <trkpt lat="42.325331" lon="2.479319">
        <ele>774.785</ele>
        <time>2021-05-27T21:00:35Z</time>
      </trkpt>
      <trkpt lat="42.325352" lon="2.479314">
        <ele>775.231</ele>
        <time>2021-05-27T21:00:37Z</time>
      </trkpt>
      <trkpt lat="42.325387" lon="2.479300">
        <ele>775.858</ele>
        <time>2021-05-27T21:00:40Z</time>
      </trkpt>
      <trkpt lat="42.325412" lon="2.479292">
        <ele>776.352</ele>
        <time>2021-05-27T21:00:42Z</time>
      </trkpt>
      <trkpt lat="42.325429" lon="2.479276">
        <ele>776.417</ele>
        <time>2021-05-27T21:00:44Z</time>
      </trkpt>
      <trkpt lat="42.325445" lon="2.479264">
        <ele>776.508</ele>
        <time>2021-05-27T21:00:46Z</time>
      </trkpt>
      <trkpt lat="42.325482" lon="2.479251">
        <ele>777.292</ele>
        <time>2021-05-27T21:00:49Z</time>
      </trkpt>
      <trkpt lat="42.325507" lon="2.479240">
        <ele>777.619</ele>
        <time>2021-05-27T21:00:51Z</time>
      </trkpt>
      <trkpt lat="42.325601" lon="2.479222">
        <ele>779.167</ele>
        <time>2021-05-27T21:01:00Z</time>
      </trkpt>
      <trkpt lat="42.325690" lon="2.479161">
        <ele>778.887</ele>
        <time>2021-05-27T21:01:09Z</time>
      </trkpt>
      <trkpt lat="42.325713" lon="2.479146">
        <ele>778.694</ele>
        <time>2021-05-27T21:01:11Z</time>
      </trkpt>
      <trkpt lat="42.325743" lon="2.479129">
        <ele>778.579</ele>
        <time>2021-05-27T21:01:13Z</time>
      </trkpt>
      <trkpt lat="42.325770" lon="2.479109">
        <ele>778.212</ele>
        <time>2021-05-27T21:01:15Z</time>
      </trkpt>
      <trkpt lat="42.325802" lon="2.479084">
        <ele>777.978</ele>
        <time>2021-05-27T21:01:17Z</time>
      </trkpt>
      <trkpt lat="42.325818" lon="2.479069">
        <ele>777.694</ele>
        <time>2021-05-27T21:01:18Z</time>
      </trkpt>
      <trkpt lat="42.325844" lon="2.479043">
        <ele>777.157</ele>
        <time>2021-05-27T21:01:20Z</time>
      </trkpt>
      <trkpt lat="42.325874" lon="2.479022">
        <ele>776.822</ele>
        <time>2021-05-27T21:01:22Z</time>
      </trkpt>
      <trkpt lat="42.325970" lon="2.479045">
        <ele>778.908</ele>
        <time>2021-05-27T21:01:32Z</time>
      </trkpt>
      <trkpt lat="42.326062" lon="2.479075">
        <ele>781.636</ele>
        <time>2021-05-27T21:01:40Z</time>
      </trkpt>
      <trkpt lat="42.326155" lon="2.479115">
        <ele>784.723</ele>
        <time>2021-05-27T21:01:47Z</time>
      </trkpt>
      <trkpt lat="42.326246" lon="2.479133">
        <ele>786.261</ele>
        <time>2021-05-27T21:01:55Z</time>
      </trkpt>
      <trkpt lat="42.326337" lon="2.479140">
        <ele>787.251</ele>
        <time>2021-05-27T21:02:07Z</time>
      </trkpt>
      <trkpt lat="42.326400" lon="2.479097">
        <ele>785.268</ele>
        <time>2021-05-27T21:02:14Z</time>
      </trkpt>
      <trkpt lat="42.326499" lon="2.479099">
        <ele>785.173</ele>
        <time>2021-05-27T21:02:22Z</time>
      </trkpt>
      <trkpt lat="42.326571" lon="2.479100">
        <ele>785.116</ele>
        <time>2021-05-27T21:02:28Z</time>
      </trkpt>
      <trkpt lat="42.326594" lon="2.479105">
        <ele>785.372</ele>
        <time>2021-05-27T21:02:30Z</time>
      </trkpt>
      <trkpt lat="42.326618" lon="2.479109">
        <ele>785.494</ele>
        <time>2021-05-27T21:02:32Z</time>
      </trkpt>
      <trkpt lat="42.326638" lon="2.479114">
        <ele>785.657</ele>
        <time>2021-05-27T21:02:34Z</time>
      </trkpt>
      <trkpt lat="42.326658" lon="2.479121">
        <ele>785.922</ele>
        <time>2021-05-27T21:02:36Z</time>
      </trkpt>
      <trkpt lat="42.326678" lon="2.479132">
        <ele>786.208</ele>
        <time>2021-05-27T21:02:38Z</time>
      </trkpt>
      <trkpt lat="42.326701" lon="2.479137">
        <ele>786.036</ele>
        <time>2021-05-27T21:02:40Z</time>
      </trkpt>
      <trkpt lat="42.326726" lon="2.479152">
        <ele>786.373</ele>
        <time>2021-05-27T21:02:42Z</time>
      </trkpt>
      <trkpt lat="42.326753" lon="2.479171">
        <ele>786.761</ele>
        <time>2021-05-27T21:02:44Z</time>
      </trkpt>
      <trkpt lat="42.326774" lon="2.479184">
        <ele>787.031</ele>
        <time>2021-05-27T21:02:46Z</time>
      </trkpt>
      <trkpt lat="42.326795" lon="2.479195">
        <ele>787.288</ele>
        <time>2021-05-27T21:02:48Z</time>
      </trkpt>
      <trkpt lat="42.326817" lon="2.479214">
        <ele>787.893</ele>
        <time>2021-05-27T21:02:50Z</time>
      </trkpt>
      <trkpt lat="42.326837" lon="2.479238">
        <ele>788.666</ele>
        <time>2021-05-27T21:02:52Z</time>
      </trkpt>
      <trkpt lat="42.326861" lon="2.479260">
        <ele>789.392</ele>
        <time>2021-05-27T21:02:54Z</time>
      </trkpt>
      <trkpt lat="42.326882" lon="2.479280">
        <ele>789.942</ele>
        <time>2021-05-27T21:02:56Z</time>
      </trkpt>
      <trkpt lat="42.326906" lon="2.479295">
        <ele>790.222</ele>
        <time>2021-05-27T21:02:58Z</time>
      </trkpt>
      <trkpt lat="42.326926" lon="2.479300">
        <ele>790.114</ele>
        <time>2021-05-27T21:03:00Z</time>
      </trkpt>
      <trkpt lat="42.326961" lon="2.479318">
        <ele>790.208</ele>
        <time>2021-05-27T21:03:02Z</time>
      </trkpt>
      <trkpt lat="42.327045" lon="2.479392">
        <ele>791.811</ele>
        <time>2021-05-27T21:03:08Z</time>
      </trkpt>
      <trkpt lat="42.327117" lon="2.479477">
        <ele>794.478</ele>
        <time>2021-05-27T21:03:16Z</time>
      </trkpt>
      <trkpt lat="42.327203" lon="2.479524">
        <ele>794.526</ele>
        <time>2021-05-27T21:03:21Z</time>
      </trkpt>
      <trkpt lat="42.327300" lon="2.479598">
        <ele>795.136</ele>
        <time>2021-05-27T21:03:26Z</time>
      </trkpt>
      <trkpt lat="42.327376" lon="2.479704">
        <ele>797.643</ele>
        <time>2021-05-27T21:03:33Z</time>
      </trkpt>
      <trkpt lat="42.327450" lon="2.479774">
        <ele>797.968</ele>
        <time>2021-05-27T21:03:37Z</time>
      </trkpt>
      <trkpt lat="42.327479" lon="2.479902">
        <ele>801.931</ele>
        <time>2021-05-27T21:03:46Z</time>
      </trkpt>
      <trkpt lat="42.327505" lon="2.480026">
        <ele>805.457</ele>
        <time>2021-05-27T21:03:58Z</time>
      </trkpt>
      <trkpt lat="42.327551" lon="2.480135">
        <ele>806.688</ele>
        <time>2021-05-27T21:04:07Z</time>
      </trkpt>
      <trkpt lat="42.327555" lon="2.480171">
        <ele>807.324</ele>
        <time>2021-05-27T21:04:10Z</time>
      </trkpt>
      <trkpt lat="42.327565" lon="2.480199">
        <ele>807.826</ele>
        <time>2021-05-27T21:04:12Z</time>
      </trkpt>
      <trkpt lat="42.327578" lon="2.480239">
        <ele>808.508</ele>
        <time>2021-05-27T21:04:15Z</time>
      </trkpt>
      <trkpt lat="42.327579" lon="2.480270">
        <ele>809.315</ele>
        <time>2021-05-27T21:04:17Z</time>
      </trkpt>
      <trkpt lat="42.327585" lon="2.480305">
        <ele>809.772</ele>
        <time>2021-05-27T21:04:20Z</time>
      </trkpt>
      <trkpt lat="42.327594" lon="2.480339">
        <ele>810.190</ele>
        <time>2021-05-27T21:04:22Z</time>
      </trkpt>
      <trkpt lat="42.327598" lon="2.480366">
        <ele>810.410</ele>
        <time>2021-05-27T21:04:24Z</time>
      </trkpt>
      <trkpt lat="42.327597" lon="2.480395">
        <ele>810.757</ele>
        <time>2021-05-27T21:04:26Z</time>
      </trkpt>
      <trkpt lat="42.327606" lon="2.480431">
        <ele>811.252</ele>
        <time>2021-05-27T21:04:28Z</time>
      </trkpt>
      <trkpt lat="42.327614" lon="2.480471">
        <ele>811.755</ele>
        <time>2021-05-27T21:04:30Z</time>
      </trkpt>
      <trkpt lat="42.327620" lon="2.480497">
        <ele>812.131</ele>
        <time>2021-05-27T21:04:32Z</time>
      </trkpt>
      <trkpt lat="42.327633" lon="2.480518">
        <ele>812.451</ele>
        <time>2021-05-27T21:04:34Z</time>
      </trkpt>
      <trkpt lat="42.327640" lon="2.480548">
        <ele>812.901</ele>
        <time>2021-05-27T21:04:36Z</time>
      </trkpt>
      <trkpt lat="42.327652" lon="2.480571">
        <ele>813.211</ele>
        <time>2021-05-27T21:04:38Z</time>
      </trkpt>
      <trkpt lat="42.327665" lon="2.480593">
        <ele>813.508</ele>
        <time>2021-05-27T21:04:41Z</time>
      </trkpt>
      <trkpt lat="42.327679" lon="2.480616">
        <ele>813.862</ele>
        <time>2021-05-27T21:04:43Z</time>
      </trkpt>
      <trkpt lat="42.327693" lon="2.480639">
        <ele>814.169</ele>
        <time>2021-05-27T21:04:45Z</time>
      </trkpt>
      <trkpt lat="42.327713" lon="2.480660">
        <ele>814.577</ele>
        <time>2021-05-27T21:04:47Z</time>
      </trkpt>
      <trkpt lat="42.327727" lon="2.480684">
        <ele>814.947</ele>
        <time>2021-05-27T21:04:49Z</time>
      </trkpt>
      <trkpt lat="42.327732" lon="2.480711">
        <ele>815.254</ele>
        <time>2021-05-27T21:04:51Z</time>
      </trkpt>
      <trkpt lat="42.327733" lon="2.480742">
        <ele>815.519</ele>
        <time>2021-05-27T21:04:53Z</time>
      </trkpt>
      <trkpt lat="42.327751" lon="2.480793">
        <ele>816.242</ele>
        <time>2021-05-27T21:04:56Z</time>
      </trkpt>
      <trkpt lat="42.327773" lon="2.480813">
        <ele>816.788</ele>
        <time>2021-05-27T21:04:58Z</time>
      </trkpt>
      <trkpt lat="42.327799" lon="2.480828">
        <ele>817.238</ele>
        <time>2021-05-27T21:05:00Z</time>
      </trkpt>
      <trkpt lat="42.327818" lon="2.480843">
        <ele>817.570</ele>
        <time>2021-05-27T21:05:02Z</time>
      </trkpt>
      <trkpt lat="42.327835" lon="2.480859">
        <ele>817.917</ele>
        <time>2021-05-27T21:05:04Z</time>
      </trkpt>
      <trkpt lat="42.327858" lon="2.480874">
        <ele>818.308</ele>
        <time>2021-05-27T21:05:06Z</time>
      </trkpt>
      <trkpt lat="42.327873" lon="2.480889">
        <ele>818.720</ele>
        <time>2021-05-27T21:05:08Z</time>
      </trkpt>
      <trkpt lat="42.327891" lon="2.480899">
        <ele>819.027</ele>
        <time>2021-05-27T21:05:10Z</time>
      </trkpt>
      <trkpt lat="42.327911" lon="2.480917">
        <ele>819.585</ele>
        <time>2021-05-27T21:05:12Z</time>
      </trkpt>
      <trkpt lat="42.327928" lon="2.480932">
        <ele>819.925</ele>
        <time>2021-05-27T21:05:14Z</time>
      </trkpt>
      <trkpt lat="42.327944" lon="2.480947">
        <ele>820.322</ele>
        <time>2021-05-27T21:05:16Z</time>
      </trkpt>
      <trkpt lat="42.327964" lon="2.480962">
        <ele>820.797</ele>
        <time>2021-05-27T21:05:18Z</time>
      </trkpt>
      <trkpt lat="42.327984" lon="2.480971">
        <ele>821.160</ele>
        <time>2021-05-27T21:05:20Z</time>
      </trkpt>
      <trkpt lat="42.327998" lon="2.480987">
        <ele>821.536</ele>
        <time>2021-05-27T21:05:22Z</time>
      </trkpt>
      <trkpt lat="42.328020" lon="2.480991">
        <ele>821.819</ele>
        <time>2021-05-27T21:05:25Z</time>
      </trkpt>
      <trkpt lat="42.328044" lon="2.481001">
        <ele>822.309</ele>
        <time>2021-05-27T21:05:28Z</time>
      </trkpt>
      <trkpt lat="42.328066" lon="2.481010">
        <ele>822.719</ele>
        <time>2021-05-27T21:05:35Z</time>
      </trkpt>
      <trkpt lat="42.328084" lon="2.481032">
        <ele>823.208</ele>
        <time>2021-05-27T21:05:40Z</time>
      </trkpt>
      <trkpt lat="42.328104" lon="2.481054">
        <ele>823.788</ele>
        <time>2021-05-27T21:05:42Z</time>
      </trkpt>
      <trkpt lat="42.328116" lon="2.481073">
        <ele>824.165</ele>
        <time>2021-05-27T21:05:44Z</time>
      </trkpt>
      <trkpt lat="42.328126" lon="2.481104">
        <ele>824.713</ele>
        <time>2021-05-27T21:05:47Z</time>
      </trkpt>
      <trkpt lat="42.328132" lon="2.481130">
        <ele>825.293</ele>
        <time>2021-05-27T21:05:50Z</time>
      </trkpt>
      <trkpt lat="42.328146" lon="2.481160">
        <ele>825.920</ele>
        <time>2021-05-27T21:05:53Z</time>
      </trkpt>
      <trkpt lat="42.328156" lon="2.481186">
        <ele>826.475</ele>
        <time>2021-05-27T21:05:55Z</time>
      </trkpt>
      <trkpt lat="42.328176" lon="2.481218">
        <ele>827.258</ele>
        <time>2021-05-27T21:05:57Z</time>
      </trkpt>
      <trkpt lat="42.328196" lon="2.481244">
        <ele>827.944</ele>
        <time>2021-05-27T21:05:59Z</time>
      </trkpt>
      <trkpt lat="42.328216" lon="2.481266">
        <ele>828.598</ele>
        <time>2021-05-27T21:06:01Z</time>
      </trkpt>
      <trkpt lat="42.328229" lon="2.481283">
        <ele>829.015</ele>
        <time>2021-05-27T21:06:03Z</time>
      </trkpt>
      <trkpt lat="42.328244" lon="2.481303">
        <ele>829.526</ele>
        <time>2021-05-27T21:06:05Z</time>
      </trkpt>
      <trkpt lat="42.328260" lon="2.481332">
        <ele>830.208</ele>
        <time>2021-05-27T21:06:08Z</time>
      </trkpt>
      <trkpt lat="42.328273" lon="2.481350">
        <ele>830.616</ele>
        <time>2021-05-27T21:06:10Z</time>
      </trkpt>
      <trkpt lat="42.328287" lon="2.481372">
        <ele>831.243</ele>
        <time>2021-05-27T21:06:12Z</time>
      </trkpt>
      <trkpt lat="42.328305" lon="2.481404">
        <ele>831.931</ele>
        <time>2021-05-27T21:06:15Z</time>
      </trkpt>
      <trkpt lat="42.328326" lon="2.481431">
        <ele>832.411</ele>
        <time>2021-05-27T21:06:17Z</time>
      </trkpt>
      <trkpt lat="42.328348" lon="2.481453">
        <ele>832.978</ele>
        <time>2021-05-27T21:06:19Z</time>
      </trkpt>
      <trkpt lat="42.328367" lon="2.481467">
        <ele>833.253</ele>
        <time>2021-05-27T21:06:21Z</time>
      </trkpt>
      <trkpt lat="42.328390" lon="2.481471">
        <ele>833.626</ele>
        <time>2021-05-27T21:06:23Z</time>
      </trkpt>
      <trkpt lat="42.328407" lon="2.481463">
        <ele>833.772</ele>
        <time>2021-05-27T21:06:25Z</time>
      </trkpt>
      <trkpt lat="42.328430" lon="2.481450">
        <ele>833.815</ele>
        <time>2021-05-27T21:06:28Z</time>
      </trkpt>
      <trkpt lat="42.328454" lon="2.481454">
        <ele>834.165</ele>
        <time>2021-05-27T21:06:32Z</time>
      </trkpt>
      <trkpt lat="42.328475" lon="2.481464">
        <ele>834.511</ele>
        <time>2021-05-27T21:06:34Z</time>
      </trkpt>
      <trkpt lat="42.328497" lon="2.481484">
        <ele>835.008</ele>
        <time>2021-05-27T21:06:36Z</time>
      </trkpt>
      <trkpt lat="42.328516" lon="2.481501">
        <ele>835.488</ele>
        <time>2021-05-27T21:06:38Z</time>
      </trkpt>
      <trkpt lat="42.328540" lon="2.481502">
        <ele>835.845</ele>
        <time>2021-05-27T21:06:41Z</time>
      </trkpt>
      <trkpt lat="42.328565" lon="2.481520">
        <ele>836.313</ele>
        <time>2021-05-27T21:06:44Z</time>
      </trkpt>
      <trkpt lat="42.328593" lon="2.481535">
        <ele>836.943</ele>
        <time>2021-05-27T21:06:46Z</time>
      </trkpt>
      <trkpt lat="42.328619" lon="2.481536">
        <ele>837.230</ele>
        <time>2021-05-27T21:06:48Z</time>
      </trkpt>
      <trkpt lat="42.328638" lon="2.481541">
        <ele>837.455</ele>
        <time>2021-05-27T21:06:50Z</time>
      </trkpt>
      <trkpt lat="42.328661" lon="2.481551">
        <ele>837.858</ele>
        <time>2021-05-27T21:06:53Z</time>
      </trkpt>
      <trkpt lat="42.328683" lon="2.481567">
        <ele>838.244</ele>
        <time>2021-05-27T21:06:56Z</time>
      </trkpt>
      <trkpt lat="42.328704" lon="2.481574">
        <ele>838.625</ele>
        <time>2021-05-27T21:06:58Z</time>
      </trkpt>
      <trkpt lat="42.328730" lon="2.481585">
        <ele>839.026</ele>
        <time>2021-05-27T21:07:01Z</time>
      </trkpt>
      <trkpt lat="42.328746" lon="2.481600">
        <ele>839.408</ele>
        <time>2021-05-27T21:07:03Z</time>
      </trkpt>
      <trkpt lat="42.328761" lon="2.481616">
        <ele>839.808</ele>
        <time>2021-05-27T21:07:05Z</time>
      </trkpt>
      <trkpt lat="42.328775" lon="2.481639">
        <ele>840.389</ele>
        <time>2021-05-27T21:07:07Z</time>
      </trkpt>
      <trkpt lat="42.328788" lon="2.481656">
        <ele>840.776</ele>
        <time>2021-05-27T21:07:09Z</time>
      </trkpt>
      <trkpt lat="42.328794" lon="2.481680">
        <ele>841.264</ele>
        <time>2021-05-27T21:07:11Z</time>
      </trkpt>
      <trkpt lat="42.328803" lon="2.481705">
        <ele>841.774</ele>
        <time>2021-05-27T21:07:13Z</time>
      </trkpt>
      <trkpt lat="42.328816" lon="2.481730">
        <ele>842.221</ele>
        <time>2021-05-27T21:07:15Z</time>
      </trkpt>
      <trkpt lat="42.328825" lon="2.481756">
        <ele>842.816</ele>
        <time>2021-05-27T21:07:17Z</time>
      </trkpt>
      <trkpt lat="42.328841" lon="2.481783">
        <ele>843.469</ele>
        <time>2021-05-27T21:07:20Z</time>
      </trkpt>
      <trkpt lat="42.328861" lon="2.481807">
        <ele>844.195</ele>
        <time>2021-05-27T21:07:22Z</time>
      </trkpt>
      <trkpt lat="42.328868" lon="2.481831">
        <ele>844.639</ele>
        <time>2021-05-27T21:07:24Z</time>
      </trkpt>
      <trkpt lat="42.328888" lon="2.481847">
        <ele>845.201</ele>
        <time>2021-05-27T21:07:28Z</time>
      </trkpt>
      <trkpt lat="42.328896" lon="2.481875">
        <ele>845.821</ele>
        <time>2021-05-27T21:07:31Z</time>
      </trkpt>
      <trkpt lat="42.328906" lon="2.481902">
        <ele>846.408</ele>
        <time>2021-05-27T21:07:34Z</time>
      </trkpt>
      <trkpt lat="42.328924" lon="2.481924">
        <ele>847.010</ele>
        <time>2021-05-27T21:07:37Z</time>
      </trkpt>
      <trkpt lat="42.328948" lon="2.481945">
        <ele>847.617</ele>
        <time>2021-05-27T21:07:40Z</time>
      </trkpt>
      <trkpt lat="42.328968" lon="2.481970">
        <ele>848.235</ele>
        <time>2021-05-27T21:07:43Z</time>
      </trkpt>
      <trkpt lat="42.328980" lon="2.481992">
        <ele>848.795</ele>
        <time>2021-05-27T21:07:45Z</time>
      </trkpt>
      <trkpt lat="42.328988" lon="2.482019">
        <ele>849.182</ele>
        <time>2021-05-27T21:07:47Z</time>
      </trkpt>
      <trkpt lat="42.328990" lon="2.482048">
        <ele>849.637</ele>
        <time>2021-05-27T21:07:49Z</time>
      </trkpt>
      <trkpt lat="42.328996" lon="2.482084">
        <ele>850.260</ele>
        <time>2021-05-27T21:07:51Z</time>
      </trkpt>
      <trkpt lat="42.329006" lon="2.482118">
        <ele>850.886</ele>
        <time>2021-05-27T21:07:53Z</time>
      </trkpt>
      <trkpt lat="42.329025" lon="2.482143">
        <ele>851.339</ele>
        <time>2021-05-27T21:07:56Z</time>
      </trkpt>
      <trkpt lat="42.329040" lon="2.482175">
        <ele>852.001</ele>
        <time>2021-05-27T21:07:59Z</time>
      </trkpt>
      <trkpt lat="42.329103" lon="2.482248">
        <ele>853.621</ele>
        <time>2021-05-27T21:08:07Z</time>
      </trkpt>
      <trkpt lat="42.329122" lon="2.482275">
        <ele>854.108</ele>
        <time>2021-05-27T21:08:09Z</time>
      </trkpt>
      <trkpt lat="42.329139" lon="2.482297">
        <ele>854.540</ele>
        <time>2021-05-27T21:08:11Z</time>
      </trkpt>
      <trkpt lat="42.329166" lon="2.482336">
        <ele>855.267</ele>
        <time>2021-05-27T21:08:15Z</time>
      </trkpt>
      <trkpt lat="42.329184" lon="2.482362">
        <ele>855.675</ele>
        <time>2021-05-27T21:08:17Z</time>
      </trkpt>
      <trkpt lat="42.329206" lon="2.482385">
        <ele>856.135</ele>
        <time>2021-05-27T21:08:19Z</time>
      </trkpt>
      <trkpt lat="42.329224" lon="2.482403">
        <ele>856.462</ele>
        <time>2021-05-27T21:08:21Z</time>
      </trkpt>
      <trkpt lat="42.329237" lon="2.482430">
        <ele>856.927</ele>
        <time>2021-05-27T21:08:23Z</time>
      </trkpt>
      <trkpt lat="42.329264" lon="2.482449">
        <ele>857.440</ele>
        <time>2021-05-27T21:08:25Z</time>
      </trkpt>
      <trkpt lat="42.329298" lon="2.482461">
        <ele>857.986</ele>
        <time>2021-05-27T21:08:27Z</time>
      </trkpt>
      <trkpt lat="42.329321" lon="2.482475">
        <ele>858.333</ele>
        <time>2021-05-27T21:08:29Z</time>
      </trkpt>
      <trkpt lat="42.329344" lon="2.482495">
        <ele>858.823</ele>
        <time>2021-05-27T21:08:32Z</time>
      </trkpt>
      <trkpt lat="42.329358" lon="2.482512">
        <ele>859.215</ele>
        <time>2021-05-27T21:08:34Z</time>
      </trkpt>
      <trkpt lat="42.329362" lon="2.482538">
        <ele>859.608</ele>
        <time>2021-05-27T21:08:36Z</time>
      </trkpt>
      <trkpt lat="42.329367" lon="2.482564">
        <ele>860.030</ele>
        <time>2021-05-27T21:08:38Z</time>
      </trkpt>
      <trkpt lat="42.329381" lon="2.482593">
        <ele>860.697</ele>
        <time>2021-05-27T21:08:40Z</time>
      </trkpt>
      <trkpt lat="42.329386" lon="2.482621">
        <ele>861.015</ele>
        <time>2021-05-27T21:08:42Z</time>
      </trkpt>
      <trkpt lat="42.329390" lon="2.482652">
        <ele>861.585</ele>
        <time>2021-05-27T21:08:44Z</time>
      </trkpt>
      <trkpt lat="42.329394" lon="2.482681">
        <ele>861.962</ele>
        <time>2021-05-27T21:08:46Z</time>
      </trkpt>
      <trkpt lat="42.329396" lon="2.482706">
        <ele>862.397</ele>
        <time>2021-05-27T21:08:48Z</time>
      </trkpt>
      <trkpt lat="42.329394" lon="2.482732">
        <ele>862.650</ele>
        <time>2021-05-27T21:08:50Z</time>
      </trkpt>
      <trkpt lat="42.329391" lon="2.482759">
        <ele>863.056</ele>
        <time>2021-05-27T21:08:52Z</time>
      </trkpt>
      <trkpt lat="42.329381" lon="2.482787">
        <ele>863.236</ele>
        <time>2021-05-27T21:08:54Z</time>
      </trkpt>
      <trkpt lat="42.329378" lon="2.482815">
        <ele>863.717</ele>
        <time>2021-05-27T21:08:56Z</time>
      </trkpt>
      <trkpt lat="42.329382" lon="2.482840">
        <ele>864.218</ele>
        <time>2021-05-27T21:08:58Z</time>
      </trkpt>
      <trkpt lat="42.329376" lon="2.482865">
        <ele>864.508</ele>
        <time>2021-05-27T21:09:00Z</time>
      </trkpt>
      <trkpt lat="42.329374" lon="2.482890">
        <ele>864.990</ele>
        <time>2021-05-27T21:09:02Z</time>
      </trkpt>
      <trkpt lat="42.329374" lon="2.482915">
        <ele>865.337</ele>
        <time>2021-05-27T21:09:04Z</time>
      </trkpt>
      <trkpt lat="42.329382" lon="2.482953">
        <ele>866.135</ele>
        <time>2021-05-27T21:09:07Z</time>
      </trkpt>
      <trkpt lat="42.329396" lon="2.482976">
        <ele>866.715</ele>
        <time>2021-05-27T21:09:09Z</time>
      </trkpt>
      <trkpt lat="42.329408" lon="2.482996">
        <ele>867.382</ele>
        <time>2021-05-27T21:09:12Z</time>
      </trkpt>
      <trkpt lat="42.329417" lon="2.483023">
        <ele>867.917</ele>
        <time>2021-05-27T21:09:15Z</time>
      </trkpt>
      <trkpt lat="42.329423" lon="2.483053">
        <ele>868.630</ele>
        <time>2021-05-27T21:09:18Z</time>
      </trkpt>
      <trkpt lat="42.329425" lon="2.483104">
        <ele>869.516</ele>
        <time>2021-05-27T21:09:22Z</time>
      </trkpt>
      <trkpt lat="42.329424" lon="2.483128">
        <ele>869.962</ele>
        <time>2021-05-27T21:09:24Z</time>
      </trkpt>
      <trkpt lat="42.329428" lon="2.483158">
        <ele>870.583</ele>
        <time>2021-05-27T21:09:26Z</time>
      </trkpt>
      <trkpt lat="42.329425" lon="2.483196">
        <ele>871.111</ele>
        <time>2021-05-27T21:09:29Z</time>
      </trkpt>
      <trkpt lat="42.329439" lon="2.483218">
        <ele>871.808</ele>
        <time>2021-05-27T21:09:32Z</time>
      </trkpt>
      <trkpt lat="42.329449" lon="2.483240">
        <ele>872.463</ele>
        <time>2021-05-27T21:09:35Z</time>
      </trkpt>
      <trkpt lat="42.329446" lon="2.483267">
        <ele>872.830</ele>
        <time>2021-05-27T21:09:37Z</time>
      </trkpt>
      <trkpt lat="42.329449" lon="2.483303">
        <ele>873.578</ele>
        <time>2021-05-27T21:09:40Z</time>
      </trkpt>
      <trkpt lat="42.329466" lon="2.483336">
        <ele>874.398</ele>
        <time>2021-05-27T21:09:43Z</time>
      </trkpt>
      <trkpt lat="42.329482" lon="2.483356">
        <ele>874.865</ele>
        <time>2021-05-27T21:09:45Z</time>
      </trkpt>
      <trkpt lat="42.329488" lon="2.483385">
        <ele>875.290</ele>
        <time>2021-05-27T21:09:47Z</time>
      </trkpt>
      <trkpt lat="42.329488" lon="2.483413">
        <ele>875.573</ele>
        <time>2021-05-27T21:09:49Z</time>
      </trkpt>
      <trkpt lat="42.329496" lon="2.483441">
        <ele>876.029</ele>
        <time>2021-05-27T21:09:51Z</time>
      </trkpt>
      <trkpt lat="42.329510" lon="2.483464">
        <ele>876.532</ele>
        <time>2021-05-27T21:09:53Z</time>
      </trkpt>
      <trkpt lat="42.329520" lon="2.483496">
        <ele>877.092</ele>
        <time>2021-05-27T21:09:56Z</time>
      </trkpt>
      <trkpt lat="42.329529" lon="2.483523">
        <ele>877.511</ele>
        <time>2021-05-27T21:09:58Z</time>
      </trkpt>
      <trkpt lat="42.329547" lon="2.483553">
        <ele>878.108</ele>
        <time>2021-05-27T21:10:01Z</time>
      </trkpt>
      <trkpt lat="42.329562" lon="2.483572">
        <ele>878.680</ele>
        <time>2021-05-27T21:10:03Z</time>
      </trkpt>
      <trkpt lat="42.329576" lon="2.483593">
        <ele>879.137</ele>
        <time>2021-05-27T21:10:05Z</time>
      </trkpt>
      <trkpt lat="42.329592" lon="2.483616">
        <ele>879.695</ele>
        <time>2021-05-27T21:10:07Z</time>
      </trkpt>
      <trkpt lat="42.329615" lon="2.483628">
        <ele>880.065</ele>
        <time>2021-05-27T21:10:10Z</time>
      </trkpt>
      <trkpt lat="42.329641" lon="2.483637">
        <ele>880.592</ele>
        <time>2021-05-27T21:10:13Z</time>
      </trkpt>
      <trkpt lat="42.329660" lon="2.483636">
        <ele>880.897</ele>
        <time>2021-05-27T21:10:16Z</time>
      </trkpt>
      <trkpt lat="42.329678" lon="2.483635">
        <ele>881.260</ele>
        <time>2021-05-27T21:10:18Z</time>
      </trkpt>
      <trkpt lat="42.329702" lon="2.483635">
        <ele>881.636</ele>
        <time>2021-05-27T21:10:21Z</time>
      </trkpt>
      <trkpt lat="42.329725" lon="2.483628">
        <ele>882.138</ele>
        <time>2021-05-27T21:10:24Z</time>
      </trkpt>
      <trkpt lat="42.329744" lon="2.483633">
        <ele>882.670</ele>
        <time>2021-05-27T21:10:26Z</time>
      </trkpt>
      <trkpt lat="42.329764" lon="2.483640">
        <ele>883.117</ele>
        <time>2021-05-27T21:10:28Z</time>
      </trkpt>
      <trkpt lat="42.329787" lon="2.483643">
        <ele>883.708</ele>
        <time>2021-05-27T21:10:30Z</time>
      </trkpt>
      <trkpt lat="42.329810" lon="2.483645">
        <ele>884.380</ele>
        <time>2021-05-27T21:10:32Z</time>
      </trkpt>
      <trkpt lat="42.329830" lon="2.483632">
        <ele>884.867</ele>
        <time>2021-05-27T21:10:35Z</time>
      </trkpt>
      <trkpt lat="42.329898" lon="2.483653">
        <ele>886.645</ele>
        <time>2021-05-27T21:10:43Z</time>
      </trkpt>
      <trkpt lat="42.329921" lon="2.483663">
        <ele>887.325</ele>
        <time>2021-05-27T21:10:45Z</time>
      </trkpt>
      <trkpt lat="42.329945" lon="2.483666">
        <ele>887.972</ele>
        <time>2021-05-27T21:10:47Z</time>
      </trkpt>
      <trkpt lat="42.329969" lon="2.483670">
        <ele>888.687</ele>
        <time>2021-05-27T21:10:50Z</time>
      </trkpt>
      <trkpt lat="42.329987" lon="2.483676">
        <ele>889.180</ele>
        <time>2021-05-27T21:10:52Z</time>
      </trkpt>
      <trkpt lat="42.330005" lon="2.483677">
        <ele>889.686</ele>
        <time>2021-05-27T21:10:54Z</time>
      </trkpt>
      <trkpt lat="42.330042" lon="2.483690">
        <ele>890.464</ele>
        <time>2021-05-27T21:10:57Z</time>
      </trkpt>
      <trkpt lat="42.330061" lon="2.483692">
        <ele>890.806</ele>
        <time>2021-05-27T21:10:59Z</time>
      </trkpt>
      <trkpt lat="42.330097" lon="2.483716">
        <ele>891.816</ele>
        <time>2021-05-27T21:11:02Z</time>
      </trkpt>
      <trkpt lat="42.330121" lon="2.483729">
        <ele>892.408</ele>
        <time>2021-05-27T21:11:04Z</time>
      </trkpt>
      <trkpt lat="42.330146" lon="2.483745">
        <ele>893.113</ele>
        <time>2021-05-27T21:11:07Z</time>
      </trkpt>
      <trkpt lat="42.330169" lon="2.483767">
        <ele>893.820</ele>
        <time>2021-05-27T21:11:10Z</time>
      </trkpt>
      <trkpt lat="42.330189" lon="2.483785">
        <ele>894.558</ele>
        <time>2021-05-27T21:11:12Z</time>
      </trkpt>
      <trkpt lat="42.330210" lon="2.483798">
        <ele>895.128</ele>
        <time>2021-05-27T21:11:14Z</time>
      </trkpt>
      <trkpt lat="42.330226" lon="2.483811">
        <ele>895.725</ele>
        <time>2021-05-27T21:11:16Z</time>
      </trkpt>
      <trkpt lat="42.330247" lon="2.483836">
        <ele>896.510</ele>
        <time>2021-05-27T21:11:19Z</time>
      </trkpt>
      <trkpt lat="42.330265" lon="2.483852">
        <ele>897.213</ele>
        <time>2021-05-27T21:11:21Z</time>
      </trkpt>
      <trkpt lat="42.330281" lon="2.483866">
        <ele>897.839</ele>
        <time>2021-05-27T21:11:23Z</time>
      </trkpt>
      <trkpt lat="42.330300" lon="2.483885">
        <ele>898.575</ele>
        <time>2021-05-27T21:11:26Z</time>
      </trkpt>
      <trkpt lat="42.330327" lon="2.483891">
        <ele>899.228</ele>
        <time>2021-05-27T21:11:28Z</time>
      </trkpt>
      <trkpt lat="42.330351" lon="2.483896">
        <ele>899.820</ele>
        <time>2021-05-27T21:11:30Z</time>
      </trkpt>
      <trkpt lat="42.330368" lon="2.483907">
        <ele>900.208</ele>
        <time>2021-05-27T21:11:32Z</time>
      </trkpt>
      <trkpt lat="42.330382" lon="2.483929">
        <ele>900.414</ele>
        <time>2021-05-27T21:11:34Z</time>
      </trkpt>
      <trkpt lat="42.330401" lon="2.483947">
        <ele>900.791</ele>
        <time>2021-05-27T21:11:36Z</time>
      </trkpt>
      <trkpt lat="42.330421" lon="2.483958">
        <ele>901.149</ele>
        <time>2021-05-27T21:11:38Z</time>
      </trkpt>
      <trkpt lat="42.330442" lon="2.483969">
        <ele>901.549</ele>
        <time>2021-05-27T21:11:41Z</time>
      </trkpt>
      <trkpt lat="42.330459" lon="2.483953">
        <ele>902.026</ele>
        <time>2021-05-27T21:11:45Z</time>
      </trkpt>
      <trkpt lat="42.330479" lon="2.483951">
        <ele>902.521</ele>
        <time>2021-05-27T21:11:48Z</time>
      </trkpt>
      <trkpt lat="42.330500" lon="2.483948">
        <ele>903.074</ele>
        <time>2021-05-27T21:11:51Z</time>
      </trkpt>
      <trkpt lat="42.330522" lon="2.483955">
        <ele>903.520</ele>
        <time>2021-05-27T21:11:54Z</time>
      </trkpt>
      <trkpt lat="42.330547" lon="2.483949">
        <ele>904.116</ele>
        <time>2021-05-27T21:11:59Z</time>
      </trkpt>
      <trkpt lat="42.330565" lon="2.483947">
        <ele>904.676</ele>
        <time>2021-05-27T21:12:02Z</time>
      </trkpt>
      <trkpt lat="42.330591" lon="2.483946">
        <ele>905.313</ele>
        <time>2021-05-27T21:12:06Z</time>
      </trkpt>
      <trkpt lat="42.330608" lon="2.483951">
        <ele>905.708</ele>
        <time>2021-05-27T21:12:11Z</time>
      </trkpt>
      <trkpt lat="42.330626" lon="2.483933">
        <ele>906.318</ele>
        <time>2021-05-27T21:12:15Z</time>
      </trkpt>
      <trkpt lat="42.330651" lon="2.483933">
        <ele>906.925</ele>
        <time>2021-05-27T21:12:32Z</time>
      </trkpt>
      <trkpt lat="42.330668" lon="2.483944">
        <ele>907.223</ele>
        <time>2021-05-27T21:12:35Z</time>
      </trkpt>
      <trkpt lat="42.330689" lon="2.483942">
        <ele>907.813</ele>
        <time>2021-05-27T21:12:54Z</time>
      </trkpt>
      <trkpt lat="42.330708" lon="2.483950">
        <ele>908.220</ele>
        <time>2021-05-27T21:12:57Z</time>
      </trkpt>
      <trkpt lat="42.330728" lon="2.483964">
        <ele>908.585</ele>
        <time>2021-05-27T21:13:00Z</time>
      </trkpt>
      <trkpt lat="42.330750" lon="2.483961">
        <ele>909.178</ele>
        <time>2021-05-27T21:13:05Z</time>
      </trkpt>
      <trkpt lat="42.330775" lon="2.483969">
        <ele>909.724</ele>
        <time>2021-05-27T21:13:08Z</time>
      </trkpt>
      <trkpt lat="42.330799" lon="2.483983">
        <ele>910.132</ele>
        <time>2021-05-27T21:13:11Z</time>
      </trkpt>
      <trkpt lat="42.330820" lon="2.484000">
        <ele>910.592</ele>
        <time>2021-05-27T21:13:14Z</time>
      </trkpt>
      <trkpt lat="42.330838" lon="2.484004">
        <ele>910.911</ele>
        <time>2021-05-27T21:13:17Z</time>
      </trkpt>
      <trkpt lat="42.330862" lon="2.484001">
        <ele>911.408</ele>
        <time>2021-05-27T21:13:20Z</time>
      </trkpt>
      <trkpt lat="42.330887" lon="2.484003">
        <ele>911.950</ele>
        <time>2021-05-27T21:13:23Z</time>
      </trkpt>
      <trkpt lat="42.330907" lon="2.483999">
        <ele>912.457</ele>
        <time>2021-05-27T21:13:26Z</time>
      </trkpt>
      <trkpt lat="42.330931" lon="2.483996">
        <ele>913.055</ele>
        <time>2021-05-27T21:13:29Z</time>
      </trkpt>
      <trkpt lat="42.330952" lon="2.483984">
        <ele>913.575</ele>
        <time>2021-05-27T21:13:32Z</time>
      </trkpt>
      <trkpt lat="42.330973" lon="2.483980">
        <ele>914.082</ele>
        <time>2021-05-27T21:13:35Z</time>
      </trkpt>
      <trkpt lat="42.330998" lon="2.483974">
        <ele>914.617</ele>
        <time>2021-05-27T21:13:38Z</time>
      </trkpt>
      <trkpt lat="42.331022" lon="2.483959">
        <ele>915.390</ele>
        <time>2021-05-27T21:13:41Z</time>
      </trkpt>
      <trkpt lat="42.331043" lon="2.483945">
        <ele>915.936</ele>
        <time>2021-05-27T21:13:43Z</time>
      </trkpt>
      <trkpt lat="42.331061" lon="2.483921">
        <ele>916.639</ele>
        <time>2021-05-27T21:13:46Z</time>
      </trkpt>
      <trkpt lat="42.331083" lon="2.483913">
        <ele>917.101</ele>
        <time>2021-05-27T21:13:48Z</time>
      </trkpt>
      <trkpt lat="42.331104" lon="2.483908">
        <ele>917.621</ele>
        <time>2021-05-27T21:13:50Z</time>
      </trkpt>
      <trkpt lat="42.331126" lon="2.483909">
        <ele>918.308</ele>
        <time>2021-05-27T21:13:54Z</time>
      </trkpt>
      <trkpt lat="42.331146" lon="2.483919">
        <ele>918.870</ele>
        <time>2021-05-27T21:13:57Z</time>
      </trkpt>
      <trkpt lat="42.331161" lon="2.483941">
        <ele>919.077</ele>
        <time>2021-05-27T21:14:00Z</time>
      </trkpt>
      <trkpt lat="42.331179" lon="2.483943">
        <ele>919.695</ele>
        <time>2021-05-27T21:14:03Z</time>
      </trkpt>
      <trkpt lat="42.331204" lon="2.483953">
        <ele>920.225</ele>
        <time>2021-05-27T21:14:07Z</time>
      </trkpt>
      <trkpt lat="42.331226" lon="2.483964">
        <ele>920.892</ele>
        <time>2021-05-27T21:14:10Z</time>
      </trkpt>
      <trkpt lat="42.331242" lon="2.483978">
        <ele>921.167</ele>
        <time>2021-05-27T21:14:13Z</time>
      </trkpt>
      <trkpt lat="42.331261" lon="2.483999">
        <ele>921.590</ele>
        <time>2021-05-27T21:14:28Z</time>
      </trkpt>
      <trkpt lat="42.331276" lon="2.484016">
        <ele>921.756</ele>
        <time>2021-05-27T21:14:30Z</time>
      </trkpt>
      <trkpt lat="42.331289" lon="2.484033">
        <ele>921.959</ele>
        <time>2021-05-27T21:14:32Z</time>
      </trkpt>
      <trkpt lat="42.331300" lon="2.484060">
        <ele>921.903</ele>
        <time>2021-05-27T21:14:34Z</time>
      </trkpt>
      <trkpt lat="42.331317" lon="2.484082">
        <ele>922.123</ele>
        <time>2021-05-27T21:14:36Z</time>
      </trkpt>
      <trkpt lat="42.331334" lon="2.484105">
        <ele>922.308</ele>
        <time>2021-05-27T21:14:38Z</time>
      </trkpt>
      <trkpt lat="42.331354" lon="2.484123">
        <ele>922.642</ele>
        <time>2021-05-27T21:14:40Z</time>
      </trkpt>
      <trkpt lat="42.331374" lon="2.484133">
        <ele>923.099</ele>
        <time>2021-05-27T21:14:42Z</time>
      </trkpt>
      <trkpt lat="42.331406" lon="2.484151">
        <ele>924.057</ele>
        <time>2021-05-27T21:14:45Z</time>
      </trkpt>
      <trkpt lat="42.331430" lon="2.484169">
        <ele>924.847</ele>
        <time>2021-05-27T21:14:48Z</time>
      </trkpt>
      <trkpt lat="42.331449" lon="2.484178">
        <ele>925.514</ele>
        <time>2021-05-27T21:14:50Z</time>
      </trkpt>
      <trkpt lat="42.331470" lon="2.484199">
        <ele>926.319</ele>
        <time>2021-05-27T21:14:53Z</time>
      </trkpt>
      <trkpt lat="42.331484" lon="2.484217">
        <ele>926.762</ele>
        <time>2021-05-27T21:14:55Z</time>
      </trkpt>
      <trkpt lat="42.331498" lon="2.484237">
        <ele>927.248</ele>
        <time>2021-05-27T21:14:57Z</time>
      </trkpt>
      <trkpt lat="42.331514" lon="2.484260">
        <ele>927.776</ele>
        <time>2021-05-27T21:14:59Z</time>
      </trkpt>
      <trkpt lat="42.331531" lon="2.484282">
        <ele>928.390</ele>
        <time>2021-05-27T21:15:01Z</time>
      </trkpt>
      <trkpt lat="42.331542" lon="2.484309">
        <ele>928.619</ele>
        <time>2021-05-27T21:15:04Z</time>
      </trkpt>
      <trkpt lat="42.331555" lon="2.484334">
        <ele>929.008</ele>
        <time>2021-05-27T21:15:08Z</time>
      </trkpt>
      <trkpt lat="42.331572" lon="2.484356">
        <ele>929.564</ele>
        <time>2021-05-27T21:15:11Z</time>
      </trkpt>
      <trkpt lat="42.331584" lon="2.484376">
        <ele>929.981</ele>
        <time>2021-05-27T21:15:13Z</time>
      </trkpt>
      <trkpt lat="42.331607" lon="2.484375">
        <ele>930.929</ele>
        <time>2021-05-27T21:15:16Z</time>
      </trkpt>
      <trkpt lat="42.331628" lon="2.484366">
        <ele>931.969</ele>
        <time>2021-05-27T21:15:19Z</time>
      </trkpt>
      <trkpt lat="42.331645" lon="2.484375">
        <ele>932.646</ele>
        <time>2021-05-27T21:15:24Z</time>
      </trkpt>
      <trkpt lat="42.331667" lon="2.484393">
        <ele>933.441</ele>
        <time>2021-05-27T21:15:27Z</time>
      </trkpt>
      <trkpt lat="42.331689" lon="2.484393">
        <ele>934.254</ele>
        <time>2021-05-27T21:15:31Z</time>
      </trkpt>
      <trkpt lat="42.331713" lon="2.484385">
        <ele>935.130</ele>
        <time>2021-05-27T21:15:34Z</time>
      </trkpt>
      <trkpt lat="42.331730" lon="2.484363">
        <ele>935.871</ele>
        <time>2021-05-27T21:15:37Z</time>
      </trkpt>
      <trkpt lat="42.331747" lon="2.484351">
        <ele>936.541</ele>
        <time>2021-05-27T21:15:39Z</time>
      </trkpt>
      <trkpt lat="42.331768" lon="2.484328">
        <ele>937.215</ele>
        <time>2021-05-27T21:15:44Z</time>
      </trkpt>
      <trkpt lat="42.331778" lon="2.484304">
        <ele>937.608</ele>
        <time>2021-05-27T21:15:47Z</time>
      </trkpt>
      <trkpt lat="42.331827" lon="2.484277">
        <ele>939.214</ele>
        <time>2021-05-27T21:15:54Z</time>
      </trkpt>
      <trkpt lat="42.331859" lon="2.484261">
        <ele>940.171</ele>
        <time>2021-05-27T21:15:58Z</time>
      </trkpt>
      <trkpt lat="42.331890" lon="2.484269">
        <ele>941.159</ele>
        <time>2021-05-27T21:16:01Z</time>
      </trkpt>
      <trkpt lat="42.331917" lon="2.484259">
        <ele>941.819</ele>
        <time>2021-05-27T21:16:04Z</time>
      </trkpt>
      <trkpt lat="42.331947" lon="2.484258">
        <ele>942.726</ele>
        <time>2021-05-27T21:16:06Z</time>
      </trkpt>
      <trkpt lat="42.331969" lon="2.484255">
        <ele>942.931</ele>
        <time>2021-05-27T21:16:08Z</time>
      </trkpt>
      <trkpt lat="42.331989" lon="2.484266">
        <ele>943.294</ele>
        <time>2021-05-27T21:16:11Z</time>
      </trkpt>
      <trkpt lat="42.332015" lon="2.484288">
        <ele>943.740</ele>
        <time>2021-05-27T21:16:14Z</time>
      </trkpt>
      <trkpt lat="42.332035" lon="2.484305">
        <ele>944.127</ele>
        <time>2021-05-27T21:16:16Z</time>
      </trkpt>
      <trkpt lat="42.332053" lon="2.484333">
        <ele>944.768</ele>
        <time>2021-05-27T21:16:19Z</time>
      </trkpt>
      <trkpt lat="42.332073" lon="2.484350">
        <ele>945.214</ele>
        <time>2021-05-27T21:16:22Z</time>
      </trkpt>
      <trkpt lat="42.332093" lon="2.484363">
        <ele>945.608</ele>
        <time>2021-05-27T21:16:24Z</time>
      </trkpt>
      <trkpt lat="42.332114" lon="2.484372">
        <ele>946.169</ele>
        <time>2021-05-27T21:16:26Z</time>
      </trkpt>
      <trkpt lat="42.332133" lon="2.484381">
        <ele>946.526</ele>
        <time>2021-05-27T21:16:28Z</time>
      </trkpt>
      <trkpt lat="42.332152" lon="2.484385">
        <ele>946.884</ele>
        <time>2021-05-27T21:16:30Z</time>
      </trkpt>
      <trkpt lat="42.332173" lon="2.484384">
        <ele>947.144</ele>
        <time>2021-05-27T21:16:32Z</time>
      </trkpt>
      <trkpt lat="42.332195" lon="2.484382">
        <ele>947.591</ele>
        <time>2021-05-27T21:16:34Z</time>
      </trkpt>
      <trkpt lat="42.332215" lon="2.484375">
        <ele>947.696</ele>
        <time>2021-05-27T21:16:36Z</time>
      </trkpt>
      <trkpt lat="42.332244" lon="2.484355">
        <ele>947.969</ele>
        <time>2021-05-27T21:16:39Z</time>
      </trkpt>
      <trkpt lat="42.332264" lon="2.484357">
        <ele>948.435</ele>
        <time>2021-05-27T21:16:41Z</time>
      </trkpt>
      <trkpt lat="42.332291" lon="2.484350">
        <ele>948.962</ele>
        <time>2021-05-27T21:16:46Z</time>
      </trkpt>
      <trkpt lat="42.332311" lon="2.484333">
        <ele>949.083</ele>
        <time>2021-05-27T21:16:48Z</time>
      </trkpt>
      <trkpt lat="42.332328" lon="2.484315">
        <ele>949.111</ele>
        <time>2021-05-27T21:16:50Z</time>
      </trkpt>
      <trkpt lat="42.332348" lon="2.484300">
        <ele>949.408</ele>
        <time>2021-05-27T21:16:52Z</time>
      </trkpt>
      <trkpt lat="42.332366" lon="2.484284">
        <ele>949.553</ele>
        <time>2021-05-27T21:16:54Z</time>
      </trkpt>
      <trkpt lat="42.332384" lon="2.484271">
        <ele>949.790</ele>
        <time>2021-05-27T21:16:56Z</time>
      </trkpt>
      <trkpt lat="42.332413" lon="2.484263">
        <ele>950.338</ele>
        <time>2021-05-27T21:16:59Z</time>
      </trkpt>
      <trkpt lat="42.332437" lon="2.484257">
        <ele>950.818</ele>
        <time>2021-05-27T21:17:02Z</time>
      </trkpt>
      <trkpt lat="42.332456" lon="2.484250">
        <ele>951.135</ele>
        <time>2021-05-27T21:17:05Z</time>
      </trkpt>
      <trkpt lat="42.332476" lon="2.484249">
        <ele>951.630</ele>
        <time>2021-05-27T21:17:07Z</time>
      </trkpt>
      <trkpt lat="42.332499" lon="2.484243">
        <ele>952.183</ele>
        <time>2021-05-27T21:17:10Z</time>
      </trkpt>
      <trkpt lat="42.332530" lon="2.484232">
        <ele>952.559</ele>
        <time>2021-05-27T21:17:13Z</time>
      </trkpt>
      <trkpt lat="42.332556" lon="2.484216">
        <ele>952.812</ele>
        <time>2021-05-27T21:17:16Z</time>
      </trkpt>
      <trkpt lat="42.332579" lon="2.484206">
        <ele>953.232</ele>
        <time>2021-05-27T21:17:20Z</time>
      </trkpt>
      <trkpt lat="42.332604" lon="2.484192">
        <ele>953.505</ele>
        <time>2021-05-27T21:17:22Z</time>
      </trkpt>
      <trkpt lat="42.332627" lon="2.484191">
        <ele>954.008</ele>
        <time>2021-05-27T21:17:24Z</time>
      </trkpt>
      <trkpt lat="42.332657" lon="2.484187">
        <ele>954.648</ele>
        <time>2021-05-27T21:17:26Z</time>
      </trkpt>
      <trkpt lat="42.332678" lon="2.484171">
        <ele>954.995</ele>
        <time>2021-05-27T21:17:28Z</time>
      </trkpt>
      <trkpt lat="42.332696" lon="2.484149">
        <ele>954.953</ele>
        <time>2021-05-27T21:17:30Z</time>
      </trkpt>
      <trkpt lat="42.332708" lon="2.484129">
        <ele>954.733</ele>
        <time>2021-05-27T21:17:32Z</time>
      </trkpt>
      <trkpt lat="42.332729" lon="2.484108">
        <ele>954.840</ele>
        <time>2021-05-27T21:17:34Z</time>
      </trkpt>
      <trkpt lat="42.332754" lon="2.484083">
        <ele>954.925</ele>
        <time>2021-05-27T21:17:36Z</time>
      </trkpt>
      <trkpt lat="42.332778" lon="2.484061">
        <ele>955.178</ele>
        <time>2021-05-27T21:17:38Z</time>
      </trkpt>
      <trkpt lat="42.332797" lon="2.484039">
        <ele>955.074</ele>
        <time>2021-05-27T21:17:40Z</time>
      </trkpt>
      <trkpt lat="42.332814" lon="2.484016">
        <ele>954.964</ele>
        <time>2021-05-27T21:17:42Z</time>
      </trkpt>
      <trkpt lat="42.332831" lon="2.483995">
        <ele>954.906</ele>
        <time>2021-05-27T21:17:44Z</time>
      </trkpt>
      <trkpt lat="42.332851" lon="2.483972">
        <ele>954.816</ele>
        <time>2021-05-27T21:17:46Z</time>
      </trkpt>
      <trkpt lat="42.332875" lon="2.483956">
        <ele>955.008</ele>
        <time>2021-05-27T21:17:48Z</time>
      </trkpt>
      <trkpt lat="42.332906" lon="2.483947">
        <ele>955.473</ele>
        <time>2021-05-27T21:17:50Z</time>
      </trkpt>
      <trkpt lat="42.332928" lon="2.483944">
        <ele>955.740</ele>
        <time>2021-05-27T21:17:52Z</time>
      </trkpt>
      <trkpt lat="42.332947" lon="2.483940">
        <ele>956.068</ele>
        <time>2021-05-27T21:17:54Z</time>
      </trkpt>
      <trkpt lat="42.332968" lon="2.483939">
        <ele>956.318</ele>
        <time>2021-05-27T21:17:56Z</time>
      </trkpt>
      <trkpt lat="42.332990" lon="2.483938">
        <ele>956.745</ele>
        <time>2021-05-27T21:17:58Z</time>
      </trkpt>
      <trkpt lat="42.333015" lon="2.483933">
        <ele>957.180</ele>
        <time>2021-05-27T21:18:00Z</time>
      </trkpt>
      <trkpt lat="42.333037" lon="2.483936">
        <ele>957.543</ele>
        <time>2021-05-27T21:18:02Z</time>
      </trkpt>
      <trkpt lat="42.333064" lon="2.483931">
        <ele>957.869</ele>
        <time>2021-05-27T21:18:04Z</time>
      </trkpt>
      <trkpt lat="42.333090" lon="2.483929">
        <ele>958.124</ele>
        <time>2021-05-27T21:18:06Z</time>
      </trkpt>
      <trkpt lat="42.333115" lon="2.483931">
        <ele>958.404</ele>
        <time>2021-05-27T21:18:08Z</time>
      </trkpt>
      <trkpt lat="42.333141" lon="2.483932">
        <ele>958.714</ele>
        <time>2021-05-27T21:18:10Z</time>
      </trkpt>
      <trkpt lat="42.333163" lon="2.483926">
        <ele>958.808</ele>
        <time>2021-05-27T21:18:12Z</time>
      </trkpt>
      <trkpt lat="42.333186" lon="2.483925">
        <ele>959.129</ele>
        <time>2021-05-27T21:18:14Z</time>
      </trkpt>
      <trkpt lat="42.333209" lon="2.483917">
        <ele>959.226</ele>
        <time>2021-05-27T21:18:16Z</time>
      </trkpt>
      <trkpt lat="42.333239" lon="2.483906">
        <ele>959.344</ele>
        <time>2021-05-27T21:18:19Z</time>
      </trkpt>
      <trkpt lat="42.333266" lon="2.483895">
        <ele>959.424</ele>
        <time>2021-05-27T21:18:21Z</time>
      </trkpt>
      <trkpt lat="42.333290" lon="2.483887">
        <ele>959.591</ele>
        <time>2021-05-27T21:18:23Z</time>
      </trkpt>
      <trkpt lat="42.333312" lon="2.483880">
        <ele>959.556</ele>
        <time>2021-05-27T21:18:25Z</time>
      </trkpt>
      <trkpt lat="42.333337" lon="2.483879">
        <ele>959.829</ele>
        <time>2021-05-27T21:18:27Z</time>
      </trkpt>
      <trkpt lat="42.333368" lon="2.483873">
        <ele>959.975</ele>
        <time>2021-05-27T21:18:29Z</time>
      </trkpt>
      <trkpt lat="42.333393" lon="2.483873">
        <ele>960.143</ele>
        <time>2021-05-27T21:18:31Z</time>
      </trkpt>
      <trkpt lat="42.333417" lon="2.483875">
        <ele>960.364</ele>
        <time>2021-05-27T21:18:33Z</time>
      </trkpt>
      <trkpt lat="42.333444" lon="2.483869">
        <ele>960.410</ele>
        <time>2021-05-27T21:18:35Z</time>
      </trkpt>
      <trkpt lat="42.333469" lon="2.483860">
        <ele>960.408</ele>
        <time>2021-05-27T21:18:37Z</time>
      </trkpt>
      <trkpt lat="42.333493" lon="2.483856">
        <ele>960.551</ele>
        <time>2021-05-27T21:18:39Z</time>
      </trkpt>
      <trkpt lat="42.333516" lon="2.483857">
        <ele>960.778</ele>
        <time>2021-05-27T21:18:41Z</time>
      </trkpt>
      <trkpt lat="42.333540" lon="2.483862">
        <ele>961.036</ele>
        <time>2021-05-27T21:18:43Z</time>
      </trkpt>
      <trkpt lat="42.333563" lon="2.483862">
        <ele>961.266</ele>
        <time>2021-05-27T21:18:44Z</time>
      </trkpt>
      <trkpt lat="42.333590" lon="2.483855">
        <ele>961.323</ele>
        <time>2021-05-27T21:18:46Z</time>
      </trkpt>
      <trkpt lat="42.333609" lon="2.483848">
        <ele>961.428</ele>
        <time>2021-05-27T21:18:48Z</time>
      </trkpt>
      <trkpt lat="42.333633" lon="2.483848">
        <ele>961.731</ele>
        <time>2021-05-27T21:18:50Z</time>
      </trkpt>
      <trkpt lat="42.333661" lon="2.483849">
        <ele>962.187</ele>
        <time>2021-05-27T21:18:52Z</time>
      </trkpt>
      <trkpt lat="42.333684" lon="2.483849">
        <ele>962.492</ele>
        <time>2021-05-27T21:18:54Z</time>
      </trkpt>
      <trkpt lat="42.333709" lon="2.483854">
        <ele>962.773</ele>
        <time>2021-05-27T21:18:56Z</time>
      </trkpt>
      <trkpt lat="42.333737" lon="2.483858">
        <ele>963.120</ele>
        <time>2021-05-27T21:18:58Z</time>
      </trkpt>
      <trkpt lat="42.333759" lon="2.483858">
        <ele>963.408</ele>
        <time>2021-05-27T21:19:00Z</time>
      </trkpt>
      <trkpt lat="42.333786" lon="2.483853">
        <ele>963.726</ele>
        <time>2021-05-27T21:19:03Z</time>
      </trkpt>
      <trkpt lat="42.333806" lon="2.483854">
        <ele>964.053</ele>
        <time>2021-05-27T21:19:05Z</time>
      </trkpt>
      <trkpt lat="42.333829" lon="2.483857">
        <ele>964.351</ele>
        <time>2021-05-27T21:19:07Z</time>
      </trkpt>
      <trkpt lat="42.333852" lon="2.483860">
        <ele>964.511</ele>
        <time>2021-05-27T21:19:09Z</time>
      </trkpt>
      <trkpt lat="42.333871" lon="2.483859">
        <ele>964.838</ele>
        <time>2021-05-27T21:19:11Z</time>
      </trkpt>
      <trkpt lat="42.333890" lon="2.483864">
        <ele>965.073</ele>
        <time>2021-05-27T21:19:13Z</time>
      </trkpt>
      <trkpt lat="42.333913" lon="2.483872">
        <ele>965.426</ele>
        <time>2021-05-27T21:19:15Z</time>
      </trkpt>
      <trkpt lat="42.333936" lon="2.483877">
        <ele>965.762</ele>
        <time>2021-05-27T21:19:17Z</time>
      </trkpt>
      <trkpt lat="42.333961" lon="2.483879">
        <ele>966.169</ele>
        <time>2021-05-27T21:19:20Z</time>
      </trkpt>
      <trkpt lat="42.333981" lon="2.483873">
        <ele>966.404</ele>
        <time>2021-05-27T21:19:22Z</time>
      </trkpt>
      <trkpt lat="42.333998" lon="2.483860">
        <ele>966.724</ele>
        <time>2021-05-27T21:19:24Z</time>
      </trkpt>
      <trkpt lat="42.334021" lon="2.483841">
        <ele>967.208</ele>
        <time>2021-05-27T21:19:27Z</time>
      </trkpt>
      <trkpt lat="42.334033" lon="2.483812">
        <ele>967.683</ele>
        <time>2021-05-27T21:19:30Z</time>
      </trkpt>
      <trkpt lat="42.334041" lon="2.483785">
        <ele>968.010</ele>
        <time>2021-05-27T21:19:32Z</time>
      </trkpt>
      <trkpt lat="42.334041" lon="2.483753">
        <ele>968.368</ele>
        <time>2021-05-27T21:19:34Z</time>
      </trkpt>
      <trkpt lat="42.334039" lon="2.483728">
        <ele>968.468</ele>
        <time>2021-05-27T21:19:36Z</time>
      </trkpt>
      <trkpt lat="42.334054" lon="2.483744">
        <ele>968.645</ele>
        <time>2021-05-27T21:19:40Z</time>
      </trkpt>
      <trkpt lat="42.334063" lon="2.483773">
        <ele>968.690</ele>
        <time>2021-05-27T21:19:42Z</time>
      </trkpt>
      <trkpt lat="42.334076" lon="2.483799">
        <ele>968.663</ele>
        <time>2021-05-27T21:19:44Z</time>
      </trkpt>
      <trkpt lat="42.334095" lon="2.483821">
        <ele>968.749</ele>
        <time>2021-05-27T21:19:46Z</time>
      </trkpt>
      <trkpt lat="42.334123" lon="2.483832">
        <ele>969.198</ele>
        <time>2021-05-27T21:19:48Z</time>
      </trkpt>
      <trkpt lat="42.334151" lon="2.483827">
        <ele>969.615</ele>
        <time>2021-05-27T21:19:50Z</time>
      </trkpt>
      <trkpt lat="42.334168" lon="2.483809">
        <ele>970.226</ele>
        <time>2021-05-27T21:19:52Z</time>
      </trkpt>
      <trkpt lat="42.334170" lon="2.483780">
        <ele>970.608</ele>
        <time>2021-05-27T21:19:55Z</time>
      </trkpt>
      <trkpt lat="42.334166" lon="2.483743">
        <ele>971.186</ele>
        <time>2021-05-27T21:19:58Z</time>
      </trkpt>
      <trkpt lat="42.334161" lon="2.483714">
        <ele>971.423</ele>
        <time>2021-05-27T21:20:00Z</time>
      </trkpt>
      <trkpt lat="42.334158" lon="2.483684">
        <ele>971.791</ele>
        <time>2021-05-27T21:20:02Z</time>
      </trkpt>
      <trkpt lat="42.334152" lon="2.483650">
        <ele>972.061</ele>
        <time>2021-05-27T21:20:04Z</time>
      </trkpt>
      <trkpt lat="42.334148" lon="2.483615">
        <ele>972.418</ele>
        <time>2021-05-27T21:20:06Z</time>
      </trkpt>
      <trkpt lat="42.334147" lon="2.483583">
        <ele>972.763</ele>
        <time>2021-05-27T21:20:08Z</time>
      </trkpt>
      <trkpt lat="42.334149" lon="2.483553">
        <ele>973.116</ele>
        <time>2021-05-27T21:20:10Z</time>
      </trkpt>
      <trkpt lat="42.334150" lon="2.483509">
        <ele>973.682</ele>
        <time>2021-05-27T21:20:12Z</time>
      </trkpt>
      <trkpt lat="42.334149" lon="2.483475">
        <ele>973.916</ele>
        <time>2021-05-27T21:20:14Z</time>
      </trkpt>
      <trkpt lat="42.334154" lon="2.483442">
        <ele>974.476</ele>
        <time>2021-05-27T21:20:16Z</time>
      </trkpt>
      <trkpt lat="42.334159" lon="2.483415">
        <ele>974.813</ele>
        <time>2021-05-27T21:20:18Z</time>
      </trkpt>
      <trkpt lat="42.334162" lon="2.483390">
        <ele>975.208</ele>
        <time>2021-05-27T21:20:20Z</time>
      </trkpt>
      <trkpt lat="42.334170" lon="2.483358">
        <ele>975.978</ele>
        <time>2021-05-27T21:20:22Z</time>
      </trkpt>
      <trkpt lat="42.334178" lon="2.483326">
        <ele>976.655</ele>
        <time>2021-05-27T21:20:24Z</time>
      </trkpt>
      <trkpt lat="42.334187" lon="2.483295">
        <ele>977.253</ele>
        <time>2021-05-27T21:20:26Z</time>
      </trkpt>
      <trkpt lat="42.334195" lon="2.483270">
        <ele>977.853</ele>
        <time>2021-05-27T21:20:28Z</time>
      </trkpt>
      <trkpt lat="42.334204" lon="2.483243">
        <ele>978.410</ele>
        <time>2021-05-27T21:20:30Z</time>
      </trkpt>
      <trkpt lat="42.334211" lon="2.483218">
        <ele>978.965</ele>
        <time>2021-05-27T21:20:32Z</time>
      </trkpt>
      <trkpt lat="42.334215" lon="2.483192">
        <ele>979.288</ele>
        <time>2021-05-27T21:20:34Z</time>
      </trkpt>
      <trkpt lat="42.334220" lon="2.483168">
        <ele>979.654</ele>
        <time>2021-05-27T21:20:36Z</time>
      </trkpt>
      <trkpt lat="42.334229" lon="2.483146">
        <ele>980.211</ele>
        <time>2021-05-27T21:20:38Z</time>
      </trkpt>
      <trkpt lat="42.334238" lon="2.483118">
        <ele>980.821</ele>
        <time>2021-05-27T21:20:40Z</time>
      </trkpt>
      <trkpt lat="42.334249" lon="2.483087">
        <ele>981.603</ele>
        <time>2021-05-27T21:20:42Z</time>
      </trkpt>
      <trkpt lat="42.334252" lon="2.483051">
        <ele>981.908</ele>
        <time>2021-05-27T21:20:44Z</time>
      </trkpt>
      <trkpt lat="42.334261" lon="2.483024">
        <ele>982.378</ele>
        <time>2021-05-27T21:20:46Z</time>
      </trkpt>
      <trkpt lat="42.334270" lon="2.482991">
        <ele>982.655</ele>
        <time>2021-05-27T21:20:48Z</time>
      </trkpt>
      <trkpt lat="42.334274" lon="2.482958">
        <ele>982.783</ele>
        <time>2021-05-27T21:20:51Z</time>
      </trkpt>
      <trkpt lat="42.334276" lon="2.482927">
        <ele>982.713</ele>
        <time>2021-05-27T21:20:53Z</time>
      </trkpt>
      <trkpt lat="42.334279" lon="2.482895">
        <ele>982.760</ele>
        <time>2021-05-27T21:20:55Z</time>
      </trkpt>
      <trkpt lat="42.334287" lon="2.482872">
        <ele>983.035</ele>
        <time>2021-05-27T21:20:57Z</time>
      </trkpt>
      <trkpt lat="42.334298" lon="2.482846">
        <ele>983.598</ele>
        <time>2021-05-27T21:20:59Z</time>
      </trkpt>
      <trkpt lat="42.334310" lon="2.482815">
        <ele>983.954</ele>
        <time>2021-05-27T21:21:01Z</time>
      </trkpt>
      <trkpt lat="42.334315" lon="2.482787">
        <ele>984.178</ele>
        <time>2021-05-27T21:21:03Z</time>
      </trkpt>
      <trkpt lat="42.334325" lon="2.482756">
        <ele>984.433</ele>
        <time>2021-05-27T21:21:05Z</time>
      </trkpt>
      <trkpt lat="42.334337" lon="2.482727">
        <ele>984.926</ele>
        <time>2021-05-27T21:21:07Z</time>
      </trkpt>
      <trkpt lat="42.334344" lon="2.482699">
        <ele>985.208</ele>
        <time>2021-05-27T21:21:09Z</time>
      </trkpt>
      <trkpt lat="42.334351" lon="2.482669">
        <ele>985.494</ele>
        <time>2021-05-27T21:21:11Z</time>
      </trkpt>
      <trkpt lat="42.334353" lon="2.482641">
        <ele>985.441</ele>
        <time>2021-05-27T21:21:13Z</time>
      </trkpt>
      <trkpt lat="42.334357" lon="2.482613">
        <ele>985.539</ele>
        <time>2021-05-27T21:21:15Z</time>
      </trkpt>
      <trkpt lat="42.334366" lon="2.482586">
        <ele>985.979</ele>
        <time>2021-05-27T21:21:17Z</time>
      </trkpt>
      <trkpt lat="42.334370" lon="2.482557">
        <ele>986.036</ele>
        <time>2021-05-27T21:21:19Z</time>
      </trkpt>
      <trkpt lat="42.334376" lon="2.482528">
        <ele>986.221</ele>
        <time>2021-05-27T21:21:21Z</time>
      </trkpt>
      <trkpt lat="42.334383" lon="2.482474">
        <ele>986.344</ele>
        <time>2021-05-27T21:21:24Z</time>
      </trkpt>
      <trkpt lat="42.334386" lon="2.482441">
        <ele>986.310</ele>
        <time>2021-05-27T21:21:26Z</time>
      </trkpt>
      <trkpt lat="42.334390" lon="2.482408">
        <ele>986.324</ele>
        <time>2021-05-27T21:21:28Z</time>
      </trkpt>
      <trkpt lat="42.334392" lon="2.482374">
        <ele>986.204</ele>
        <time>2021-05-27T21:21:30Z</time>
      </trkpt>
      <trkpt lat="42.334397" lon="2.482340">
        <ele>986.214</ele>
        <time>2021-05-27T21:21:32Z</time>
      </trkpt>
      <trkpt lat="42.334400" lon="2.482307">
        <ele>986.208</ele>
        <time>2021-05-27T21:21:34Z</time>
      </trkpt>
      <trkpt lat="42.334405" lon="2.482274">
        <ele>986.279</ele>
        <time>2021-05-27T21:21:36Z</time>
      </trkpt>
      <trkpt lat="42.334410" lon="2.482243">
        <ele>986.396</ele>
        <time>2021-05-27T21:21:38Z</time>
      </trkpt>
      <trkpt lat="42.334416" lon="2.482212">
        <ele>986.544</ele>
        <time>2021-05-27T21:21:40Z</time>
      </trkpt>
      <trkpt lat="42.334420" lon="2.482180">
        <ele>986.714</ele>
        <time>2021-05-27T21:21:42Z</time>
      </trkpt>
      <trkpt lat="42.334425" lon="2.482149">
        <ele>986.991</ele>
        <time>2021-05-27T21:21:44Z</time>
      </trkpt>
      <trkpt lat="42.334432" lon="2.482118">
        <ele>987.316</ele>
        <time>2021-05-27T21:21:46Z</time>
      </trkpt>
      <trkpt lat="42.334438" lon="2.482085">
        <ele>987.679</ele>
        <time>2021-05-27T21:21:48Z</time>
      </trkpt>
      <trkpt lat="42.334442" lon="2.482052">
        <ele>987.915</ele>
        <time>2021-05-27T21:21:50Z</time>
      </trkpt>
      <trkpt lat="42.334449" lon="2.482022">
        <ele>988.345</ele>
        <time>2021-05-27T21:21:52Z</time>
      </trkpt>
      <trkpt lat="42.334454" lon="2.481990">
        <ele>988.647</ele>
        <time>2021-05-27T21:21:54Z</time>
      </trkpt>
      <trkpt lat="42.334459" lon="2.481957">
        <ele>988.811</ele>
        <time>2021-05-27T21:21:56Z</time>
      </trkpt>
      <trkpt lat="42.334466" lon="2.481925">
        <ele>989.208</ele>
        <time>2021-05-27T21:21:58Z</time>
      </trkpt>
      <trkpt lat="42.334473" lon="2.481896">
        <ele>989.631</ele>
        <time>2021-05-27T21:22:00Z</time>
      </trkpt>
      <trkpt lat="42.334477" lon="2.481863">
        <ele>989.948</ele>
        <time>2021-05-27T21:22:02Z</time>
      </trkpt>
      <trkpt lat="42.334478" lon="2.481831">
        <ele>989.926</ele>
        <time>2021-05-27T21:22:04Z</time>
      </trkpt>
      <trkpt lat="42.334477" lon="2.481802">
        <ele>989.956</ele>
        <time>2021-05-27T21:22:06Z</time>
      </trkpt>
      <trkpt lat="42.334477" lon="2.481772">
        <ele>989.983</ele>
        <time>2021-05-27T21:22:08Z</time>
      </trkpt>
      <trkpt lat="42.334485" lon="2.481740">
        <ele>990.338</ele>
        <time>2021-05-27T21:22:10Z</time>
      </trkpt>
      <trkpt lat="42.334485" lon="2.481709">
        <ele>990.391</ele>
        <time>2021-05-27T21:22:12Z</time>
      </trkpt>
      <trkpt lat="42.334490" lon="2.481681">
        <ele>990.687</ele>
        <time>2021-05-27T21:22:14Z</time>
      </trkpt>
      <trkpt lat="42.334494" lon="2.481650">
        <ele>991.059</ele>
        <time>2021-05-27T21:22:16Z</time>
      </trkpt>
      <trkpt lat="42.334501" lon="2.481618">
        <ele>991.803</ele>
        <time>2021-05-27T21:22:18Z</time>
      </trkpt>
      <trkpt lat="42.334505" lon="2.481590">
        <ele>992.423</ele>
        <time>2021-05-27T21:22:20Z</time>
      </trkpt>
      <trkpt lat="42.334507" lon="2.481562">
        <ele>992.808</ele>
        <time>2021-05-27T21:22:22Z</time>
      </trkpt>
      <trkpt lat="42.334503" lon="2.481451">
        <ele>993.962</ele>
        <time>2021-05-27T21:22:29Z</time>
      </trkpt>
      <trkpt lat="42.334493" lon="2.481420">
        <ele>993.679</ele>
        <time>2021-05-27T21:22:31Z</time>
      </trkpt>
      <trkpt lat="42.334494" lon="2.481392">
        <ele>994.057</ele>
        <time>2021-05-27T21:22:33Z</time>
      </trkpt>
      <trkpt lat="42.334500" lon="2.481360">
        <ele>994.837</ele>
        <time>2021-05-27T21:22:35Z</time>
      </trkpt>
      <trkpt lat="42.334493" lon="2.481328">
        <ele>994.964</ele>
        <time>2021-05-27T21:22:37Z</time>
      </trkpt>
      <trkpt lat="42.334488" lon="2.481293">
        <ele>995.149</ele>
        <time>2021-05-27T21:22:39Z</time>
      </trkpt>
      <trkpt lat="42.334484" lon="2.481260">
        <ele>995.392</ele>
        <time>2021-05-27T21:22:41Z</time>
      </trkpt>
      <trkpt lat="42.334481" lon="2.481232">
        <ele>995.698</ele>
        <time>2021-05-27T21:22:43Z</time>
      </trkpt>
      <trkpt lat="42.334482" lon="2.481207">
        <ele>996.046</ele>
        <time>2021-05-27T21:22:45Z</time>
      </trkpt>
      <trkpt lat="42.334482" lon="2.481177">
        <ele>996.588</ele>
        <time>2021-05-27T21:22:47Z</time>
      </trkpt>
      <trkpt lat="42.334475" lon="2.481147">
        <ele>996.416</ele>
        <time>2021-05-27T21:22:49Z</time>
      </trkpt>
      <trkpt lat="42.334467" lon="2.481116">
        <ele>996.408</ele>
        <time>2021-05-27T21:22:51Z</time>
      </trkpt>
      <trkpt lat="42.334461" lon="2.481085">
        <ele>996.551</ele>
        <time>2021-05-27T21:22:53Z</time>
      </trkpt>
      <trkpt lat="42.334459" lon="2.481056">
        <ele>996.728</ele>
        <time>2021-05-27T21:22:55Z</time>
      </trkpt>
      <trkpt lat="42.334454" lon="2.481023">
        <ele>996.936</ele>
        <time>2021-05-27T21:22:57Z</time>
      </trkpt>
      <trkpt lat="42.334452" lon="2.480992">
        <ele>997.296</ele>
        <time>2021-05-27T21:22:59Z</time>
      </trkpt>
      <trkpt lat="42.334448" lon="2.480961">
        <ele>997.493</ele>
        <time>2021-05-27T21:23:01Z</time>
      </trkpt>
      <trkpt lat="42.334442" lon="2.480931">
        <ele>997.528</ele>
        <time>2021-05-27T21:23:03Z</time>
      </trkpt>
      <trkpt lat="42.334438" lon="2.480895">
        <ele>997.851</ele>
        <time>2021-05-27T21:23:06Z</time>
      </trkpt>
      <trkpt lat="42.334433" lon="2.480864">
        <ele>998.057</ele>
        <time>2021-05-27T21:23:08Z</time>
      </trkpt>
      <trkpt lat="42.334427" lon="2.480834">
        <ele>998.138</ele>
        <time>2021-05-27T21:23:10Z</time>
      </trkpt>
      <trkpt lat="42.334424" lon="2.480805">
        <ele>998.070</ele>
        <time>2021-05-27T21:23:12Z</time>
      </trkpt>
      <trkpt lat="42.334419" lon="2.480773">
        <ele>997.717</ele>
        <time>2021-05-27T21:23:14Z</time>
      </trkpt>
      <trkpt lat="42.334418" lon="2.480742">
        <ele>997.608</ele>
        <time>2021-05-27T21:23:16Z</time>
      </trkpt>
      <trkpt lat="42.334421" lon="2.480713">
        <ele>997.850</ele>
        <time>2021-05-27T21:23:18Z</time>
      </trkpt>
      <trkpt lat="42.334425" lon="2.480682">
        <ele>998.067</ele>
        <time>2021-05-27T21:23:20Z</time>
      </trkpt>
      <trkpt lat="42.334427" lon="2.480654">
        <ele>998.195</ele>
        <time>2021-05-27T21:23:22Z</time>
      </trkpt>
      <trkpt lat="42.334428" lon="2.480622">
        <ele>998.155</ele>
        <time>2021-05-27T21:23:24Z</time>
      </trkpt>
      <trkpt lat="42.334432" lon="2.480591">
        <ele>998.362</ele>
        <time>2021-05-27T21:23:26Z</time>
      </trkpt>
      <trkpt lat="42.334436" lon="2.480560">
        <ele>998.567</ele>
        <time>2021-05-27T21:23:28Z</time>
      </trkpt>
      <trkpt lat="42.334443" lon="2.480531">
        <ele>998.540</ele>
        <time>2021-05-27T21:23:30Z</time>
      </trkpt>
      <trkpt lat="42.334450" lon="2.480500">
        <ele>998.436</ele>
        <time>2021-05-27T21:23:32Z</time>
      </trkpt>
      <trkpt lat="42.334456" lon="2.480471">
        <ele>998.426</ele>
        <time>2021-05-27T21:23:34Z</time>
      </trkpt>
      <trkpt lat="42.334465" lon="2.480440">
        <ele>998.547</ele>
        <time>2021-05-27T21:23:36Z</time>
      </trkpt>
      <trkpt lat="42.334475" lon="2.480416">
        <ele>998.811</ele>
        <time>2021-05-27T21:23:38Z</time>
      </trkpt>
      <trkpt lat="42.334485" lon="2.480386">
        <ele>999.008</ele>
        <time>2021-05-27T21:23:40Z</time>
      </trkpt>
      <trkpt lat="42.334504" lon="2.480361">
        <ele>1000.049</ele>
        <time>2021-05-27T21:23:42Z</time>
      </trkpt>
      <trkpt lat="42.334511" lon="2.480330">
        <ele>1000.086</ele>
        <time>2021-05-27T21:23:44Z</time>
      </trkpt>
      <trkpt lat="42.334519" lon="2.480301">
        <ele>1000.194</ele>
        <time>2021-05-27T21:23:46Z</time>
      </trkpt>
      <trkpt lat="42.334533" lon="2.480274">
        <ele>1000.624</ele>
        <time>2021-05-27T21:23:48Z</time>
      </trkpt>
      <trkpt lat="42.334545" lon="2.480248">
        <ele>1001.031</ele>
        <time>2021-05-27T21:23:50Z</time>
      </trkpt>
      <trkpt lat="42.334558" lon="2.480219">
        <ele>1001.336</ele>
        <time>2021-05-27T21:23:52Z</time>
      </trkpt>
      <trkpt lat="42.334566" lon="2.480188">
        <ele>1001.169</ele>
        <time>2021-05-27T21:23:54Z</time>
      </trkpt>
      <trkpt lat="42.334578" lon="2.480155">
        <ele>1001.235</ele>
        <time>2021-05-27T21:23:56Z</time>
      </trkpt>
      <trkpt lat="42.334587" lon="2.480123">
        <ele>1001.114</ele>
        <time>2021-05-27T21:23:58Z</time>
      </trkpt>
      <trkpt lat="42.334589" lon="2.480088">
        <ele>1000.454</ele>
        <time>2021-05-27T21:24:00Z</time>
      </trkpt>
      <trkpt lat="42.334600" lon="2.480058">
        <ele>1000.509</ele>
        <time>2021-05-27T21:24:02Z</time>
      </trkpt>
      <trkpt lat="42.334611" lon="2.480034">
        <ele>1000.608</ele>
        <time>2021-05-27T21:24:04Z</time>
      </trkpt>
      <trkpt lat="42.334628" lon="2.480016">
        <ele>1001.398</ele>
        <time>2021-05-27T21:24:06Z</time>
      </trkpt>
      <trkpt lat="42.334643" lon="2.479994">
        <ele>1001.785</ele>
        <time>2021-05-27T21:24:08Z</time>
      </trkpt>
      <trkpt lat="42.334659" lon="2.479970">
        <ele>1001.973</ele>
        <time>2021-05-27T21:24:10Z</time>
      </trkpt>
      <trkpt lat="42.334675" lon="2.479948">
        <ele>1002.283</ele>
        <time>2021-05-27T21:24:12Z</time>
      </trkpt>
      <trkpt lat="42.334693" lon="2.479933">
        <ele>1002.860</ele>
        <time>2021-05-27T21:24:14Z</time>
      </trkpt>
      <trkpt lat="42.334707" lon="2.479909">
        <ele>1002.845</ele>
        <time>2021-05-27T21:24:16Z</time>
      </trkpt>
      <trkpt lat="42.334726" lon="2.479886">
        <ele>1003.358</ele>
        <time>2021-05-27T21:24:18Z</time>
      </trkpt>
      <trkpt lat="42.334746" lon="2.479865">
        <ele>1004.754</ele>
        <time>2021-05-27T21:24:20Z</time>
      </trkpt>
      <trkpt lat="42.334764" lon="2.479841">
        <ele>1005.764</ele>
        <time>2021-05-27T21:24:22Z</time>
      </trkpt>
      <trkpt lat="42.334782" lon="2.479819">
        <ele>1006.706</ele>
        <time>2021-05-27T21:24:24Z</time>
      </trkpt>
      <trkpt lat="42.334796" lon="2.479795">
        <ele>1007.316</ele>
        <time>2021-05-27T21:24:26Z</time>
      </trkpt>
      <trkpt lat="42.334811" lon="2.479773">
        <ele>1008.008</ele>
        <time>2021-05-27T21:24:28Z</time>
      </trkpt>
      <trkpt lat="42.334832" lon="2.479752">
        <ele>1009.343</ele>
        <time>2021-05-27T21:24:30Z</time>
      </trkpt>
      <trkpt lat="42.334845" lon="2.479733">
        <ele>1009.860</ele>
        <time>2021-05-27T21:24:32Z</time>
      </trkpt>
      <trkpt lat="42.334856" lon="2.479705">
        <ele>1009.818</ele>
        <time>2021-05-27T21:24:34Z</time>
      </trkpt>
      <trkpt lat="42.334871" lon="2.479686">
        <ele>1010.638</ele>
        <time>2021-05-27T21:24:36Z</time>
      </trkpt>
      <trkpt lat="42.334888" lon="2.479671">
        <ele>1011.645</ele>
        <time>2021-05-27T21:24:38Z</time>
      </trkpt>
      <trkpt lat="42.334898" lon="2.479642">
        <ele>1011.340</ele>
        <time>2021-05-27T21:24:40Z</time>
      </trkpt>
      <trkpt lat="42.334912" lon="2.479613">
        <ele>1011.483</ele>
        <time>2021-05-27T21:24:42Z</time>
      </trkpt>
      <trkpt lat="42.334925" lon="2.479581">
        <ele>1011.089</ele>
        <time>2021-05-27T21:24:44Z</time>
      </trkpt>
      <trkpt lat="42.334936" lon="2.479551">
        <ele>1010.623</ele>
        <time>2021-05-27T21:24:46Z</time>
      </trkpt>
      <trkpt lat="42.334939" lon="2.479522">
        <ele>1009.583</ele>
        <time>2021-05-27T21:24:48Z</time>
      </trkpt>
      <trkpt lat="42.334937" lon="2.479489">
        <ele>1007.811</ele>
        <time>2021-05-27T21:24:50Z</time>
      </trkpt>
      <trkpt lat="42.334937" lon="2.479447">
        <ele>1005.808</ele>
        <time>2021-05-27T21:24:52Z</time>
      </trkpt>
      <trkpt lat="42.334948" lon="2.479416">
        <ele>1005.519</ele>
        <time>2021-05-27T21:24:54Z</time>
      </trkpt>
      <trkpt lat="42.334960" lon="2.479387">
        <ele>1005.456</ele>
        <time>2021-05-27T21:24:56Z</time>
      </trkpt>
      <trkpt lat="42.334977" lon="2.479364">
        <ele>1005.714</ele>
        <time>2021-05-27T21:24:59Z</time>
      </trkpt>
      <trkpt lat="42.334995" lon="2.479341">
        <ele>1006.094</ele>
        <time>2021-05-27T21:25:01Z</time>
      </trkpt>
      <trkpt lat="42.335013" lon="2.479321">
        <ele>1006.551</ele>
        <time>2021-05-27T21:25:03Z</time>
      </trkpt>
      <trkpt lat="42.335034" lon="2.479305">
        <ele>1007.426</ele>
        <time>2021-05-27T21:25:05Z</time>
      </trkpt>
      <trkpt lat="42.335055" lon="2.479290">
        <ele>1008.219</ele>
        <time>2021-05-27T21:25:07Z</time>
      </trkpt>
      <trkpt lat="42.335076" lon="2.479281">
        <ele>1009.335</ele>
        <time>2021-05-27T21:25:09Z</time>
      </trkpt>
      <trkpt lat="42.335096" lon="2.479273">
        <ele>1010.474</ele>
        <time>2021-05-27T21:25:11Z</time>
      </trkpt>
      <trkpt lat="42.335118" lon="2.479265">
        <ele>1011.556</ele>
        <time>2021-05-27T21:25:13Z</time>
      </trkpt>
      <trkpt lat="42.335140" lon="2.479252">
        <ele>1012.421</ele>
        <time>2021-05-27T21:25:15Z</time>
      </trkpt>
      <trkpt lat="42.335157" lon="2.479232">
        <ele>1012.608</ele>
        <time>2021-05-27T21:25:17Z</time>
      </trkpt>
      <trkpt lat="42.335176" lon="2.479212">
        <ele>1012.934</ele>
        <time>2021-05-27T21:25:19Z</time>
      </trkpt>
      <trkpt lat="42.335193" lon="2.479187">
        <ele>1012.811</ele>
        <time>2021-05-27T21:25:21Z</time>
      </trkpt>
      <trkpt lat="42.335205" lon="2.479160">
        <ele>1012.229</ele>
        <time>2021-05-27T21:25:23Z</time>
      </trkpt>
      <trkpt lat="42.335220" lon="2.479128">
        <ele>1011.579</ele>
        <time>2021-05-27T21:25:25Z</time>
      </trkpt>
      <trkpt lat="42.335235" lon="2.479098">
        <ele>1010.886</ele>
        <time>2021-05-27T21:25:27Z</time>
      </trkpt>
      <trkpt lat="42.335247" lon="2.479066">
        <ele>1009.861</ele>
        <time>2021-05-27T21:25:29Z</time>
      </trkpt>
      <trkpt lat="42.335266" lon="2.479039">
        <ele>1009.444</ele>
        <time>2021-05-27T21:25:31Z</time>
      </trkpt>
      <trkpt lat="42.335286" lon="2.479004">
        <ele>1008.490</ele>
        <time>2021-05-27T21:25:33Z</time>
      </trkpt>
      <trkpt lat="42.335311" lon="2.478995">
        <ele>1008.618</ele>
        <time>2021-05-27T21:25:35Z</time>
      </trkpt>
      <trkpt lat="42.335331" lon="2.478978">
        <ele>1008.298</ele>
        <time>2021-05-27T21:25:37Z</time>
      </trkpt>
      <trkpt lat="42.335347" lon="2.478961">
        <ele>1007.617</ele>
        <time>2021-05-27T21:25:39Z</time>
      </trkpt>
      <trkpt lat="42.335363" lon="2.478947">
        <ele>1007.208</ele>
        <time>2021-05-27T21:25:41Z</time>
      </trkpt>
      <trkpt lat="42.335384" lon="2.478920">
        <ele>1006.178</ele>
        <time>2021-05-27T21:25:44Z</time>
      </trkpt>
      <trkpt lat="42.335410" lon="2.478906">
        <ele>1005.985</ele>
        <time>2021-05-27T21:25:46Z</time>
      </trkpt>
      <trkpt lat="42.335438" lon="2.478888">
        <ele>1005.433</ele>
        <time>2021-05-27T21:25:48Z</time>
      </trkpt>
      <trkpt lat="42.335464" lon="2.478869">
        <ele>1005.133</ele>
        <time>2021-05-27T21:25:50Z</time>
      </trkpt>
      <trkpt lat="42.335492" lon="2.478848">
        <ele>1004.760</ele>
        <time>2021-05-27T21:25:52Z</time>
      </trkpt>
      <trkpt lat="42.335511" lon="2.478840">
        <ele>1004.825</ele>
        <time>2021-05-27T21:25:53Z</time>
      </trkpt>
      <trkpt lat="42.335529" lon="2.478836">
        <ele>1005.068</ele>
        <time>2021-05-27T21:25:54Z</time>
      </trkpt>
      <trkpt lat="42.335551" lon="2.478824">
        <ele>1004.984</ele>
        <time>2021-05-27T21:25:55Z</time>
      </trkpt>
      <trkpt lat="42.335568" lon="2.478811">
        <ele>1004.588</ele>
        <time>2021-05-27T21:25:56Z</time>
      </trkpt>
      <trkpt lat="42.335598" lon="2.478800">
        <ele>1004.224</ele>
        <time>2021-05-27T21:25:58Z</time>
      </trkpt>
      <trkpt lat="42.335621" lon="2.478788">
        <ele>1003.926</ele>
        <time>2021-05-27T21:26:00Z</time>
      </trkpt>
      <trkpt lat="42.335650" lon="2.478778">
        <ele>1003.808</ele>
        <time>2021-05-27T21:26:02Z</time>
      </trkpt>
      <trkpt lat="42.335672" lon="2.478772">
        <ele>1003.795</ele>
        <time>2021-05-27T21:26:03Z</time>
      </trkpt>
      <trkpt lat="42.335706" lon="2.478765">
        <ele>1003.872</ele>
        <time>2021-05-27T21:26:05Z</time>
      </trkpt>
      <trkpt lat="42.335726" lon="2.478763">
        <ele>1003.950</ele>
        <time>2021-05-27T21:26:06Z</time>
      </trkpt>
      <trkpt lat="42.335746" lon="2.478760">
        <ele>1004.060</ele>
        <time>2021-05-27T21:26:07Z</time>
      </trkpt>
      <trkpt lat="42.335765" lon="2.478762">
        <ele>1004.397</ele>
        <time>2021-05-27T21:26:08Z</time>
      </trkpt>
      <trkpt lat="42.335865" lon="2.478766">
        <ele>1005.482</ele>
        <time>2021-05-27T21:26:13Z</time>
      </trkpt>
      <trkpt lat="42.335934" lon="2.478769">
        <ele>1006.145</ele>
        <time>2021-05-27T21:26:17Z</time>
      </trkpt>
      <trkpt lat="42.335957" lon="2.478766">
        <ele>1006.261</ele>
        <time>2021-05-27T21:26:18Z</time>
      </trkpt>
      <trkpt lat="42.335990" lon="2.478757">
        <ele>1006.235</ele>
        <time>2021-05-27T21:26:20Z</time>
      </trkpt>
      <trkpt lat="42.336016" lon="2.478753">
        <ele>1006.386</ele>
        <time>2021-05-27T21:26:22Z</time>
      </trkpt>
      <trkpt lat="42.336040" lon="2.478750">
        <ele>1006.414</ele>
        <time>2021-05-27T21:26:24Z</time>
      </trkpt>
      <trkpt lat="42.336073" lon="2.478747">
        <ele>1006.508</ele>
        <time>2021-05-27T21:26:26Z</time>
      </trkpt>
      <trkpt lat="42.336098" lon="2.478744">
        <ele>1006.770</ele>
        <time>2021-05-27T21:26:28Z</time>
      </trkpt>
      <trkpt lat="42.336139" lon="2.478733">
        <ele>1006.947</ele>
        <time>2021-05-27T21:26:31Z</time>
      </trkpt>
      <trkpt lat="42.336163" lon="2.478726">
        <ele>1007.125</ele>
        <time>2021-05-27T21:26:33Z</time>
      </trkpt>
      <trkpt lat="42.336191" lon="2.478725">
        <ele>1007.785</ele>
        <time>2021-05-27T21:26:35Z</time>
      </trkpt>
      <trkpt lat="42.336215" lon="2.478715">
        <ele>1007.882</ele>
        <time>2021-05-27T21:26:37Z</time>
      </trkpt>
      <trkpt lat="42.336240" lon="2.478712">
        <ele>1008.157</ele>
        <time>2021-05-27T21:26:39Z</time>
      </trkpt>
      <trkpt lat="42.336267" lon="2.478701">
        <ele>1008.210</ele>
        <time>2021-05-27T21:26:41Z</time>
      </trkpt>
      <trkpt lat="42.336354" lon="2.478666">
        <ele>1008.536</ele>
        <time>2021-05-27T21:26:46Z</time>
      </trkpt>
      <trkpt lat="42.336386" lon="2.478651">
        <ele>1008.542</ele>
        <time>2021-05-27T21:26:48Z</time>
      </trkpt>
      <trkpt lat="42.336421" lon="2.478631">
        <ele>1009.122</ele>
        <time>2021-05-27T21:26:50Z</time>
      </trkpt>
      <trkpt lat="42.336437" lon="2.478619">
        <ele>1009.214</ele>
        <time>2021-05-27T21:26:51Z</time>
      </trkpt>
      <trkpt lat="42.336461" lon="2.478595">
        <ele>1009.208</ele>
        <time>2021-05-27T21:26:53Z</time>
      </trkpt>
      <trkpt lat="42.336477" lon="2.478579">
        <ele>1009.141</ele>
        <time>2021-05-27T21:26:54Z</time>
      </trkpt>
      <trkpt lat="42.336499" lon="2.478550">
        <ele>1008.898</ele>
        <time>2021-05-27T21:26:56Z</time>
      </trkpt>
      <trkpt lat="42.336519" lon="2.478523">
        <ele>1008.576</ele>
        <time>2021-05-27T21:26:58Z</time>
      </trkpt>
      <trkpt lat="42.336545" lon="2.478496">
        <ele>1008.436</ele>
        <time>2021-05-27T21:27:00Z</time>
      </trkpt>
      <trkpt lat="42.336563" lon="2.478468">
        <ele>1008.083</ele>
        <time>2021-05-27T21:27:02Z</time>
      </trkpt>
      <trkpt lat="42.336574" lon="2.478437">
        <ele>1007.258</ele>
        <time>2021-05-27T21:27:04Z</time>
      </trkpt>
      <trkpt lat="42.336588" lon="2.478405">
        <ele>1006.551</ele>
        <time>2021-05-27T21:27:06Z</time>
      </trkpt>
      <trkpt lat="42.336600" lon="2.478366">
        <ele>1005.477</ele>
        <time>2021-05-27T21:27:08Z</time>
      </trkpt>
      <trkpt lat="42.336607" lon="2.478332">
        <ele>1004.412</ele>
        <time>2021-05-27T21:27:10Z</time>
      </trkpt>
      <trkpt lat="42.336617" lon="2.478301">
        <ele>1003.832</ele>
        <time>2021-05-27T21:27:12Z</time>
      </trkpt>
      <trkpt lat="42.336622" lon="2.478265">
        <ele>1002.905</ele>
        <time>2021-05-27T21:27:14Z</time>
      </trkpt>
      <trkpt lat="42.336632" lon="2.478234">
        <ele>1002.508</ele>
        <time>2021-05-27T21:27:16Z</time>
      </trkpt>
      <trkpt lat="42.336643" lon="2.478197">
        <ele>1001.988</ele>
        <time>2021-05-27T21:27:18Z</time>
      </trkpt>
      <trkpt lat="42.336653" lon="2.478167">
        <ele>1001.545</ele>
        <time>2021-05-27T21:27:20Z</time>
      </trkpt>
      <trkpt lat="42.336664" lon="2.478136">
        <ele>1001.213</ele>
        <time>2021-05-27T21:27:22Z</time>
      </trkpt>
      <trkpt lat="42.336668" lon="2.478099">
        <ele>1000.463</ele>
        <time>2021-05-27T21:27:24Z</time>
      </trkpt>
      <trkpt lat="42.336683" lon="2.478067">
        <ele>1000.570</ele>
        <time>2021-05-27T21:27:26Z</time>
      </trkpt>
      <trkpt lat="42.336700" lon="2.478044">
        <ele>1001.035</ele>
        <time>2021-05-27T21:27:28Z</time>
      </trkpt>
      <trkpt lat="42.336716" lon="2.478022">
        <ele>1001.498</ele>
        <time>2021-05-27T21:27:30Z</time>
      </trkpt>
      <trkpt lat="42.336730" lon="2.477993">
        <ele>1001.384</ele>
        <time>2021-05-27T21:27:32Z</time>
      </trkpt>
      <trkpt lat="42.336750" lon="2.477976">
        <ele>1002.175</ele>
        <time>2021-05-27T21:27:34Z</time>
      </trkpt>
      <trkpt lat="42.336770" lon="2.477946">
        <ele>1002.328</ele>
        <time>2021-05-27T21:27:36Z</time>
      </trkpt>
      <trkpt lat="42.336794" lon="2.477918">
        <ele>1002.820</ele>
        <time>2021-05-27T21:27:38Z</time>
      </trkpt>
      <trkpt lat="42.336816" lon="2.477892">
        <ele>1003.208</ele>
        <time>2021-05-27T21:27:40Z</time>
      </trkpt>
      <trkpt lat="42.336832" lon="2.477860">
        <ele>1002.974</ele>
        <time>2021-05-27T21:27:42Z</time>
      </trkpt>
      <trkpt lat="42.336852" lon="2.477836">
        <ele>1003.141</ele>
        <time>2021-05-27T21:27:44Z</time>
      </trkpt>
      <trkpt lat="42.336870" lon="2.477812">
        <ele>1003.279</ele>
        <time>2021-05-27T21:27:46Z</time>
      </trkpt>
      <trkpt lat="42.336883" lon="2.477783">
        <ele>1002.719</ele>
        <time>2021-05-27T21:27:48Z</time>
      </trkpt>
      <trkpt lat="42.336900" lon="2.477758">
        <ele>1002.756</ele>
        <time>2021-05-27T21:27:50Z</time>
      </trkpt>
      <trkpt lat="42.336915" lon="2.477734">
        <ele>1002.751</ele>
        <time>2021-05-27T21:27:52Z</time>
      </trkpt>
      <trkpt lat="42.336934" lon="2.477715">
        <ele>1003.154</ele>
        <time>2021-05-27T21:27:54Z</time>
      </trkpt>
      <trkpt lat="42.336950" lon="2.477691">
        <ele>1003.590</ele>
        <time>2021-05-27T21:27:56Z</time>
      </trkpt>
      <trkpt lat="42.336970" lon="2.477672">
        <ele>1004.916</ele>
        <time>2021-05-27T21:27:58Z</time>
      </trkpt>
      <trkpt lat="42.337038" lon="2.477588">
        <ele>1007.676</ele>
        <time>2021-05-27T21:28:04Z</time>
      </trkpt>
      <trkpt lat="42.337121" lon="2.477510">
        <ele>1009.413</ele>
        <time>2021-05-27T21:28:12Z</time>
      </trkpt>
      <trkpt lat="42.337191" lon="2.477428">
        <ele>1011.108</ele>
        <time>2021-05-27T21:28:20Z</time>
      </trkpt>
      <trkpt lat="42.337224" lon="2.477323">
        <ele>1009.818</ele>
        <time>2021-05-27T21:28:27Z</time>
      </trkpt>
      <trkpt lat="42.337238" lon="2.477299">
        <ele>1010.365</ele>
        <time>2021-05-27T21:28:30Z</time>
      </trkpt>
      <trkpt lat="42.337249" lon="2.477277">
        <ele>1010.633</ele>
        <time>2021-05-27T21:28:32Z</time>
      </trkpt>
      <trkpt lat="42.337258" lon="2.477243">
        <ele>1010.393</ele>
        <time>2021-05-27T21:28:35Z</time>
      </trkpt>
      <trkpt lat="42.337266" lon="2.477220">
        <ele>1010.250</ele>
        <time>2021-05-27T21:28:37Z</time>
      </trkpt>
      <trkpt lat="42.337280" lon="2.477190">
        <ele>1011.195</ele>
        <time>2021-05-27T21:28:40Z</time>
      </trkpt>
      <trkpt lat="42.337293" lon="2.477161">
        <ele>1011.818</ele>
        <time>2021-05-27T21:28:43Z</time>
      </trkpt>
      <trkpt lat="42.337302" lon="2.477136">
        <ele>1012.284</ele>
        <time>2021-05-27T21:28:46Z</time>
      </trkpt>
      <trkpt lat="42.337310" lon="2.477110">
        <ele>1012.514</ele>
        <time>2021-05-27T21:28:49Z</time>
      </trkpt>
      <trkpt lat="42.337314" lon="2.477085">
        <ele>1012.554</ele>
        <time>2021-05-27T21:28:52Z</time>
      </trkpt>
      <trkpt lat="42.337332" lon="2.477069">
        <ele>1013.809</ele>
        <time>2021-05-27T21:28:55Z</time>
      </trkpt>
      <trkpt lat="42.337343" lon="2.477038">
        <ele>1014.208</ele>
        <time>2021-05-27T21:28:58Z</time>
      </trkpt>
      <trkpt lat="42.337350" lon="2.477013">
        <ele>1014.488</ele>
        <time>2021-05-27T21:29:01Z</time>
      </trkpt>
      <trkpt lat="42.337359" lon="2.476986">
        <ele>1014.685</ele>
        <time>2021-05-27T21:29:04Z</time>
      </trkpt>
      <trkpt lat="42.337367" lon="2.476954">
        <ele>1014.763</ele>
        <time>2021-05-27T21:29:07Z</time>
      </trkpt>
      <trkpt lat="42.337378" lon="2.476936">
        <ele>1015.433</ele>
        <time>2021-05-27T21:29:09Z</time>
      </trkpt>
      <trkpt lat="42.337393" lon="2.476911">
        <ele>1016.320</ele>
        <time>2021-05-27T21:29:12Z</time>
      </trkpt>
      <trkpt lat="42.337408" lon="2.476895">
        <ele>1017.395</ele>
        <time>2021-05-27T21:29:14Z</time>
      </trkpt>
      <trkpt lat="42.337429" lon="2.476887">
        <ele>1018.958</ele>
        <time>2021-05-27T21:29:16Z</time>
      </trkpt>
      <trkpt lat="42.337462" lon="2.476861">
        <ele>1021.074</ele>
        <time>2021-05-27T21:29:19Z</time>
      </trkpt>
      <trkpt lat="42.337489" lon="2.476844">
        <ele>1022.653</ele>
        <time>2021-05-27T21:29:21Z</time>
      </trkpt>
      <trkpt lat="42.337507" lon="2.476824">
        <ele>1023.404</ele>
        <time>2021-05-27T21:29:23Z</time>
      </trkpt>
      <trkpt lat="42.337527" lon="2.476807">
        <ele>1024.214</ele>
        <time>2021-05-27T21:29:25Z</time>
      </trkpt>
      <trkpt lat="42.337543" lon="2.476785">
        <ele>1024.608</ele>
        <time>2021-05-27T21:29:27Z</time>
      </trkpt>
      <trkpt lat="42.337562" lon="2.476758">
        <ele>1024.982</ele>
        <time>2021-05-27T21:29:29Z</time>
      </trkpt>
      <trkpt lat="42.337577" lon="2.476731">
        <ele>1025.029</ele>
        <time>2021-05-27T21:29:31Z</time>
      </trkpt>
      <trkpt lat="42.337590" lon="2.476708">
        <ele>1024.967</ele>
        <time>2021-05-27T21:29:33Z</time>
      </trkpt>
      <trkpt lat="42.337604" lon="2.476680">
        <ele>1024.737</ele>
        <time>2021-05-27T21:29:35Z</time>
      </trkpt>
      <trkpt lat="42.337615" lon="2.476653">
        <ele>1024.234</ele>
        <time>2021-05-27T21:29:37Z</time>
      </trkpt>
      <trkpt lat="42.337630" lon="2.476628">
        <ele>1024.069</ele>
        <time>2021-05-27T21:29:39Z</time>
      </trkpt>
      <trkpt lat="42.337635" lon="2.476603">
        <ele>1023.322</ele>
        <time>2021-05-27T21:29:41Z</time>
      </trkpt>
      <trkpt lat="42.337643" lon="2.476579">
        <ele>1022.728</ele>
        <time>2021-05-27T21:29:43Z</time>
      </trkpt>
      <trkpt lat="42.337655" lon="2.476548">
        <ele>1022.291</ele>
        <time>2021-05-27T21:29:46Z</time>
      </trkpt>
      <trkpt lat="42.337671" lon="2.476519">
        <ele>1021.981</ele>
        <time>2021-05-27T21:29:49Z</time>
      </trkpt>
      <trkpt lat="42.337687" lon="2.476495">
        <ele>1021.819</ele>
        <time>2021-05-27T21:29:51Z</time>
      </trkpt>
      <trkpt lat="42.337701" lon="2.476473">
        <ele>1021.808</ele>
        <time>2021-05-27T21:29:53Z</time>
      </trkpt>
      <trkpt lat="42.337718" lon="2.476455">
        <ele>1022.076</ele>
        <time>2021-05-27T21:29:55Z</time>
      </trkpt>
      <trkpt lat="42.337730" lon="2.476435">
        <ele>1022.053</ele>
        <time>2021-05-27T21:29:57Z</time>
      </trkpt>
      <trkpt lat="42.337739" lon="2.476411">
        <ele>1021.671</ele>
        <time>2021-05-27T21:29:59Z</time>
      </trkpt>
      <trkpt lat="42.337758" lon="2.476391">
        <ele>1021.931</ele>
        <time>2021-05-27T21:30:01Z</time>
      </trkpt>
      <trkpt lat="42.337775" lon="2.476374">
        <ele>1022.418</ele>
        <time>2021-05-27T21:30:03Z</time>
      </trkpt>
      <trkpt lat="42.337790" lon="2.476358">
        <ele>1022.863</ele>
        <time>2021-05-27T21:30:05Z</time>
      </trkpt>
      <trkpt lat="42.337805" lon="2.476344">
        <ele>1023.276</ele>
        <time>2021-05-27T21:30:07Z</time>
      </trkpt>
      <trkpt lat="42.337823" lon="2.476328">
        <ele>1023.782</ele>
        <time>2021-05-27T21:30:09Z</time>
      </trkpt>
      <trkpt lat="42.337839" lon="2.476306">
        <ele>1023.912</ele>
        <time>2021-05-27T21:30:11Z</time>
      </trkpt>
      <trkpt lat="42.337856" lon="2.476287">
        <ele>1024.232</ele>
        <time>2021-05-27T21:30:13Z</time>
      </trkpt>
      <trkpt lat="42.337874" lon="2.476267">
        <ele>1024.505</ele>
        <time>2021-05-27T21:30:15Z</time>
      </trkpt>
      <trkpt lat="42.337893" lon="2.476248">
        <ele>1025.008</ele>
        <time>2021-05-27T21:30:17Z</time>
      </trkpt>
      <trkpt lat="42.337915" lon="2.476229">
        <ele>1025.528</ele>
        <time>2021-05-27T21:30:19Z</time>
      </trkpt>
      <trkpt lat="42.337933" lon="2.476210">
        <ele>1025.955</ele>
        <time>2021-05-27T21:30:21Z</time>
      </trkpt>
      <trkpt lat="42.337951" lon="2.476194">
        <ele>1026.313</ele>
        <time>2021-05-27T21:30:23Z</time>
      </trkpt>
      <trkpt lat="42.337971" lon="2.476176">
        <ele>1026.873</ele>
        <time>2021-05-27T21:30:25Z</time>
      </trkpt>
      <trkpt lat="42.337989" lon="2.476157">
        <ele>1027.120</ele>
        <time>2021-05-27T21:30:27Z</time>
      </trkpt>
      <trkpt lat="42.338005" lon="2.476143">
        <ele>1027.545</ele>
        <time>2021-05-27T21:30:29Z</time>
      </trkpt>
      <trkpt lat="42.338023" lon="2.476127">
        <ele>1027.918</ele>
        <time>2021-05-27T21:30:31Z</time>
      </trkpt>
      <trkpt lat="42.338042" lon="2.476110">
        <ele>1028.344</ele>
        <time>2021-05-27T21:30:33Z</time>
      </trkpt>
      <trkpt lat="42.338060" lon="2.476093">
        <ele>1029.136</ele>
        <time>2021-05-27T21:30:35Z</time>
      </trkpt>
      <trkpt lat="42.338076" lon="2.476075">
        <ele>1029.217</ele>
        <time>2021-05-27T21:30:37Z</time>
      </trkpt>
      <trkpt lat="42.338091" lon="2.476057">
        <ele>1029.218</ele>
        <time>2021-05-27T21:30:39Z</time>
      </trkpt>
      <trkpt lat="42.338110" lon="2.476040">
        <ele>1029.108</ele>
        <time>2021-05-27T21:30:42Z</time>
      </trkpt>
      <trkpt lat="42.338126" lon="2.476026">
        <ele>1028.980</ele>
        <time>2021-05-27T21:30:44Z</time>
      </trkpt>
      <trkpt lat="42.338146" lon="2.476015">
        <ele>1028.717</ele>
        <time>2021-05-27T21:30:46Z</time>
      </trkpt>
      <trkpt lat="42.338169" lon="2.476005">
        <ele>1028.445</ele>
        <time>2021-05-27T21:30:48Z</time>
      </trkpt>
      <trkpt lat="42.338192" lon="2.475998">
        <ele>1028.085</ele>
        <time>2021-05-27T21:30:50Z</time>
      </trkpt>
      <trkpt lat="42.338171" lon="2.475994">
        <ele>1028.372</ele>
        <time>2021-05-27T21:30:55Z</time>
      </trkpt>
      <trkpt lat="42.338137" lon="2.476015">
        <ele>1028.877</ele>
        <time>2021-05-27T21:30:58Z</time>
      </trkpt>
      <trkpt lat="42.338119" lon="2.476046">
        <ele>1029.020</ele>
        <time>2021-05-27T21:31:00Z</time>
      </trkpt>
      <trkpt lat="42.338124" lon="2.476070">
        <ele>1029.066</ele>
        <time>2021-05-27T21:31:03Z</time>
      </trkpt>
      <trkpt lat="42.338143" lon="2.476058">
        <ele>1028.879</ele>
        <time>2021-05-27T21:31:07Z</time>
      </trkpt>
      <trkpt lat="42.338169" lon="2.476064">
        <ele>1028.705</ele>
        <time>2021-05-27T21:31:11Z</time>
      </trkpt>
      <trkpt lat="42.338189" lon="2.476072">
        <ele>1028.725</ele>
        <time>2021-05-27T21:31:13Z</time>
      </trkpt>
      <trkpt lat="42.338208" lon="2.476094">
        <ele>1028.808</ele>
        <time>2021-05-27T21:31:16Z</time>
      </trkpt>
      <trkpt lat="42.338230" lon="2.476107">
        <ele>1028.944</ele>
        <time>2021-05-27T21:31:19Z</time>
      </trkpt>
      <trkpt lat="42.338249" lon="2.476123">
        <ele>1029.431</ele>
        <time>2021-05-27T21:31:33Z</time>
      </trkpt>
      <trkpt lat="42.338266" lon="2.476140">
        <ele>1030.139</ele>
        <time>2021-05-27T21:31:35Z</time>
      </trkpt>
      <trkpt lat="42.338282" lon="2.476158">
        <ele>1030.819</ele>
        <time>2021-05-27T21:31:38Z</time>
      </trkpt>
      <trkpt lat="42.338295" lon="2.476179">
        <ele>1031.616</ele>
        <time>2021-05-27T21:31:41Z</time>
      </trkpt>
      <trkpt lat="42.338301" lon="2.476204">
        <ele>1032.691</ele>
        <time>2021-05-27T21:31:45Z</time>
      </trkpt>
      <trkpt lat="42.338310" lon="2.476231">
        <ele>1033.734</ele>
        <time>2021-05-27T21:31:48Z</time>
      </trkpt>
      <trkpt lat="42.338335" lon="2.476249">
        <ele>1034.440</ele>
        <time>2021-05-27T21:31:51Z</time>
      </trkpt>
      <trkpt lat="42.338383" lon="2.476300">
        <ele>1035.034</ele>
        <time>2021-05-27T21:31:55Z</time>
      </trkpt>
      <trkpt lat="42.338459" lon="2.476388">
        <ele>1035.955</ele>
        <time>2021-05-27T21:32:01Z</time>
      </trkpt>
      <trkpt lat="42.338546" lon="2.476444">
        <ele>1035.710</ele>
        <time>2021-05-27T21:32:08Z</time>
      </trkpt>
      <trkpt lat="42.338623" lon="2.476520">
        <ele>1037.108</ele>
        <time>2021-05-27T21:32:16Z</time>
      </trkpt>
      <trkpt lat="42.338713" lon="2.476586">
        <ele>1039.160</ele>
        <time>2021-05-27T21:32:23Z</time>
      </trkpt>
      <trkpt lat="42.338784" lon="2.476664">
        <ele>1040.867</ele>
        <time>2021-05-27T21:32:32Z</time>
      </trkpt>
      <trkpt lat="42.338869" lon="2.476733">
        <ele>1041.645</ele>
        <time>2021-05-27T21:32:39Z</time>
      </trkpt>
      <trkpt lat="42.338930" lon="2.476827">
        <ele>1044.465</ele>
        <time>2021-05-27T21:32:48Z</time>
      </trkpt>
      <trkpt lat="42.338939" lon="2.476848">
        <ele>1045.132</ele>
        <time>2021-05-27T21:32:50Z</time>
      </trkpt>
      <trkpt lat="42.338955" lon="2.476872">
        <ele>1046.097</ele>
        <time>2021-05-27T21:32:53Z</time>
      </trkpt>
      <trkpt lat="42.338971" lon="2.476889">
        <ele>1046.680</ele>
        <time>2021-05-27T21:32:56Z</time>
      </trkpt>
      <trkpt lat="42.338985" lon="2.476908">
        <ele>1047.216</ele>
        <time>2021-05-27T21:33:00Z</time>
      </trkpt>
      <trkpt lat="42.339058" lon="2.476951">
        <ele>1048.832</ele>
        <time>2021-05-27T21:33:14Z</time>
      </trkpt>
      <trkpt lat="42.339067" lon="2.476977">
        <ele>1049.592</ele>
        <time>2021-05-27T21:33:28Z</time>
      </trkpt>
      <trkpt lat="42.339081" lon="2.476994">
        <ele>1050.011</ele>
        <time>2021-05-27T21:33:31Z</time>
      </trkpt>
      <trkpt lat="42.339094" lon="2.477022">
        <ele>1050.608</ele>
        <time>2021-05-27T21:33:34Z</time>
      </trkpt>
      <trkpt lat="42.339102" lon="2.477044">
        <ele>1051.110</ele>
        <time>2021-05-27T21:33:36Z</time>
      </trkpt>
      <trkpt lat="42.339117" lon="2.477072">
        <ele>1051.757</ele>
        <time>2021-05-27T21:33:39Z</time>
      </trkpt>
      <trkpt lat="42.339133" lon="2.477093">
        <ele>1052.025</ele>
        <time>2021-05-27T21:33:42Z</time>
      </trkpt>
      <trkpt lat="42.339149" lon="2.477119">
        <ele>1052.485</ele>
        <time>2021-05-27T21:33:45Z</time>
      </trkpt>
      <trkpt lat="42.339158" lon="2.477142">
        <ele>1052.752</ele>
        <time>2021-05-27T21:33:47Z</time>
      </trkpt>
      <trkpt lat="42.339161" lon="2.477167">
        <ele>1053.177</ele>
        <time>2021-05-27T21:33:49Z</time>
      </trkpt>
      <trkpt lat="42.339164" lon="2.477204">
        <ele>1053.750</ele>
        <time>2021-05-27T21:33:52Z</time>
      </trkpt>
      <trkpt lat="42.339167" lon="2.477236">
        <ele>1054.296</ele>
        <time>2021-05-27T21:33:54Z</time>
      </trkpt>
      <trkpt lat="42.339192" lon="2.477297">
        <ele>1055.265</ele>
        <time>2021-05-27T21:33:58Z</time>
      </trkpt>
      <trkpt lat="42.339211" lon="2.477380">
        <ele>1056.468</ele>
        <time>2021-05-27T21:34:03Z</time>
      </trkpt>
      <trkpt lat="42.339218" lon="2.477404">
        <ele>1056.714</ele>
        <time>2021-05-27T21:34:05Z</time>
      </trkpt>
      <trkpt lat="42.339231" lon="2.477429">
        <ele>1056.908</ele>
        <time>2021-05-27T21:34:07Z</time>
      </trkpt>
      <trkpt lat="42.339243" lon="2.477455">
        <ele>1057.043</ele>
        <time>2021-05-27T21:34:09Z</time>
      </trkpt>
      <trkpt lat="42.339250" lon="2.477484">
        <ele>1057.370</ele>
        <time>2021-05-27T21:34:11Z</time>
      </trkpt>
      <trkpt lat="42.339257" lon="2.477515">
        <ele>1057.568</ele>
        <time>2021-05-27T21:34:13Z</time>
      </trkpt>
      <trkpt lat="42.339260" lon="2.477541">
        <ele>1057.748</ele>
        <time>2021-05-27T21:34:15Z</time>
      </trkpt>
      <trkpt lat="42.339259" lon="2.477575">
        <ele>1058.025</ele>
        <time>2021-05-27T21:34:17Z</time>
      </trkpt>
      <trkpt lat="42.339262" lon="2.477621">
        <ele>1058.380</ele>
        <time>2021-05-27T21:34:19Z</time>
      </trkpt>
      <trkpt lat="42.339268" lon="2.477649">
        <ele>1058.333</ele>
        <time>2021-05-27T21:34:23Z</time>
      </trkpt>
      <trkpt lat="42.339282" lon="2.477670">
        <ele>1058.179</ele>
        <time>2021-05-27T21:34:42Z</time>
      </trkpt>
      <trkpt lat="42.339296" lon="2.477694">
        <ele>1057.846</ele>
        <time>2021-05-27T21:34:44Z</time>
      </trkpt>
      <trkpt lat="42.339312" lon="2.477749">
        <ele>1057.688</ele>
        <time>2021-05-27T21:34:47Z</time>
      </trkpt>
      <trkpt lat="42.339318" lon="2.477781">
        <ele>1057.616</ele>
        <time>2021-05-27T21:34:49Z</time>
      </trkpt>
      <trkpt lat="42.339324" lon="2.477812">
        <ele>1057.908</ele>
        <time>2021-05-27T21:34:51Z</time>
      </trkpt>
      <trkpt lat="42.339331" lon="2.477843">
        <ele>1058.151</ele>
        <time>2021-05-27T21:34:53Z</time>
      </trkpt>
      <trkpt lat="42.339339" lon="2.477879">
        <ele>1058.318</ele>
        <time>2021-05-27T21:34:55Z</time>
      </trkpt>
      <trkpt lat="42.339344" lon="2.477914">
        <ele>1058.686</ele>
        <time>2021-05-27T21:34:57Z</time>
      </trkpt>
      <trkpt lat="42.339347" lon="2.477945">
        <ele>1058.946</ele>
        <time>2021-05-27T21:34:59Z</time>
      </trkpt>
      <trkpt lat="42.339357" lon="2.477974">
        <ele>1058.973</ele>
        <time>2021-05-27T21:35:01Z</time>
      </trkpt>
      <trkpt lat="42.339364" lon="2.478005">
        <ele>1059.178</ele>
        <time>2021-05-27T21:35:04Z</time>
      </trkpt>
      <trkpt lat="42.339374" lon="2.478030">
        <ele>1059.041</ele>
        <time>2021-05-27T21:35:07Z</time>
      </trkpt>
      <trkpt lat="42.339381" lon="2.478060">
        <ele>1059.197</ele>
        <time>2021-05-27T21:35:10Z</time>
      </trkpt>
      <trkpt lat="42.339387" lon="2.478084">
        <ele>1059.342</ele>
        <time>2021-05-27T21:35:12Z</time>
      </trkpt>
      <trkpt lat="42.339391" lon="2.478114">
        <ele>1059.822</ele>
        <time>2021-05-27T21:35:15Z</time>
      </trkpt>
      <trkpt lat="42.339392" lon="2.478256">
        <ele>1062.914</ele>
        <time>2021-05-27T21:35:25Z</time>
      </trkpt>
      <trkpt lat="42.339418" lon="2.478374">
        <ele>1064.408</ele>
        <time>2021-05-27T21:35:31Z</time>
      </trkpt>
      <trkpt lat="42.339489" lon="2.478455">
        <ele>1063.911</ele>
        <time>2021-05-27T21:35:40Z</time>
      </trkpt>
      <trkpt lat="42.339569" lon="2.478516">
        <ele>1063.668</ele>
        <time>2021-05-27T21:35:49Z</time>
      </trkpt>
      <trkpt lat="42.339633" lon="2.478607">
        <ele>1064.896</ele>
        <time>2021-05-27T21:35:58Z</time>
      </trkpt>
      <trkpt lat="42.339677" lon="2.478737">
        <ele>1069.016</ele>
        <time>2021-05-27T21:36:06Z</time>
      </trkpt>
      <trkpt lat="42.339749" lon="2.478815">
        <ele>1070.953</ele>
        <time>2021-05-27T21:36:17Z</time>
      </trkpt>
      <trkpt lat="42.339838" lon="2.478835">
        <ele>1071.148</ele>
        <time>2021-05-27T21:36:26Z</time>
      </trkpt>
      <trkpt lat="42.339923" lon="2.478829">
        <ele>1070.361</ele>
        <time>2021-05-27T21:36:36Z</time>
      </trkpt>
      <trkpt lat="42.339947" lon="2.478834">
        <ele>1070.427</ele>
        <time>2021-05-27T21:36:38Z</time>
      </trkpt>
      <trkpt lat="42.339982" lon="2.478840">
        <ele>1070.445</ele>
        <time>2021-05-27T21:36:40Z</time>
      </trkpt>
      <trkpt lat="42.340060" lon="2.478922">
        <ele>1073.647</ele>
        <time>2021-05-27T21:36:51Z</time>
      </trkpt>
      <trkpt lat="42.340139" lon="2.478929">
        <ele>1074.211</ele>
        <time>2021-05-27T21:36:56Z</time>
      </trkpt>
      <trkpt lat="42.340168" lon="2.478931">
        <ele>1074.408</ele>
        <time>2021-05-27T21:36:58Z</time>
      </trkpt>
      <trkpt lat="42.340193" lon="2.478942">
        <ele>1074.911</ele>
        <time>2021-05-27T21:37:00Z</time>
      </trkpt>
      <trkpt lat="42.340221" lon="2.478957">
        <ele>1075.758</ele>
        <time>2021-05-27T21:37:03Z</time>
      </trkpt>
      <trkpt lat="42.340243" lon="2.478967">
        <ele>1076.246</ele>
        <time>2021-05-27T21:37:05Z</time>
      </trkpt>
      <trkpt lat="42.340261" lon="2.478980">
        <ele>1076.986</ele>
        <time>2021-05-27T21:37:12Z</time>
      </trkpt>
      <trkpt lat="42.340287" lon="2.479044">
        <ele>1079.733</ele>
        <time>2021-05-27T21:37:23Z</time>
      </trkpt>
      <trkpt lat="42.340270" lon="2.479056">
        <ele>1080.298</ele>
        <time>2021-05-27T21:37:26Z</time>
      </trkpt>
      <trkpt lat="42.340250" lon="2.479065">
        <ele>1080.481</ele>
        <time>2021-05-27T21:37:29Z</time>
      </trkpt>
      <trkpt lat="42.340230" lon="2.479096">
        <ele>1081.667</ele>
        <time>2021-05-27T21:37:33Z</time>
      </trkpt>
      <trkpt lat="42.340213" lon="2.479110">
        <ele>1082.153</ele>
        <time>2021-05-27T21:37:35Z</time>
      </trkpt>
      <trkpt lat="42.340205" lon="2.479139">
        <ele>1083.304</ele>
        <time>2021-05-27T21:37:38Z</time>
      </trkpt>
      <trkpt lat="42.340227" lon="2.479157">
        <ele>1084.214</ele>
        <time>2021-05-27T21:37:41Z</time>
      </trkpt>
      <trkpt lat="42.340245" lon="2.479181">
        <ele>1085.308</ele>
        <time>2021-05-27T21:37:44Z</time>
      </trkpt>
      <trkpt lat="42.340270" lon="2.479195">
        <ele>1086.182</ele>
        <time>2021-05-27T21:37:47Z</time>
      </trkpt>
      <trkpt lat="42.340289" lon="2.479200">
        <ele>1086.389</ele>
        <time>2021-05-27T21:37:49Z</time>
      </trkpt>
      <trkpt lat="42.340306" lon="2.479217">
        <ele>1086.937</ele>
        <time>2021-05-27T21:37:52Z</time>
      </trkpt>
      <trkpt lat="42.340324" lon="2.479234">
        <ele>1087.587</ele>
        <time>2021-05-27T21:37:55Z</time>
      </trkpt>
      <trkpt lat="42.340343" lon="2.479247">
        <ele>1087.994</ele>
        <time>2021-05-27T21:37:59Z</time>
      </trkpt>
      <trkpt lat="42.340362" lon="2.479265">
        <ele>1088.549</ele>
        <time>2021-05-27T21:38:03Z</time>
      </trkpt>
      <trkpt lat="42.340385" lon="2.479279">
        <ele>1088.962</ele>
        <time>2021-05-27T21:38:06Z</time>
      </trkpt>
      <trkpt lat="42.340403" lon="2.479296">
        <ele>1089.518</ele>
        <time>2021-05-27T21:38:09Z</time>
      </trkpt>
      <trkpt lat="42.340419" lon="2.479326">
        <ele>1090.561</ele>
        <time>2021-05-27T21:38:12Z</time>
      </trkpt>
      <trkpt lat="42.340422" lon="2.479350">
        <ele>1091.421</ele>
        <time>2021-05-27T21:38:15Z</time>
      </trkpt>
      <trkpt lat="42.340422" lon="2.479378">
        <ele>1092.513</ele>
        <time>2021-05-27T21:38:19Z</time>
      </trkpt>
      <trkpt lat="42.340423" lon="2.479409">
        <ele>1093.608</ele>
        <time>2021-05-27T21:38:23Z</time>
      </trkpt>
      <trkpt lat="42.340431" lon="2.479432">
        <ele>1094.443</ele>
        <time>2021-05-27T21:38:26Z</time>
      </trkpt>
      <trkpt lat="42.340442" lon="2.479459">
        <ele>1095.450</ele>
        <time>2021-05-27T21:38:29Z</time>
      </trkpt>
      <trkpt lat="42.340461" lon="2.479475">
        <ele>1095.818</ele>
        <time>2021-05-27T21:38:32Z</time>
      </trkpt>
      <trkpt lat="42.340476" lon="2.479495">
        <ele>1096.488</ele>
        <time>2021-05-27T21:38:35Z</time>
      </trkpt>
      <trkpt lat="42.340476" lon="2.479520">
        <ele>1097.335</ele>
        <time>2021-05-27T21:38:37Z</time>
      </trkpt>
      <trkpt lat="42.340486" lon="2.479548">
        <ele>1098.110</ele>
        <time>2021-05-27T21:38:40Z</time>
      </trkpt>
      <trkpt lat="42.340500" lon="2.479573">
        <ele>1098.833</ele>
        <time>2021-05-27T21:38:43Z</time>
      </trkpt>
      <trkpt lat="42.340514" lon="2.479596">
        <ele>1099.569</ele>
        <time>2021-05-27T21:38:46Z</time>
      </trkpt>
      <trkpt lat="42.340534" lon="2.479623">
        <ele>1100.142</ele>
        <time>2021-05-27T21:38:49Z</time>
      </trkpt>
      <trkpt lat="42.340554" lon="2.479647">
        <ele>1100.622</ele>
        <time>2021-05-27T21:38:52Z</time>
      </trkpt>
      <trkpt lat="42.340563" lon="2.479675">
        <ele>1101.414</ele>
        <time>2021-05-27T21:38:55Z</time>
      </trkpt>
      <trkpt lat="42.340569" lon="2.479706">
        <ele>1102.408</ele>
        <time>2021-05-27T21:38:58Z</time>
      </trkpt>
      <trkpt lat="42.340579" lon="2.479740">
        <ele>1103.621</ele>
        <time>2021-05-27T21:39:01Z</time>
      </trkpt>
      <trkpt lat="42.340595" lon="2.479766">
        <ele>1104.458</ele>
        <time>2021-05-27T21:39:04Z</time>
      </trkpt>
      <trkpt lat="42.340600" lon="2.479803">
        <ele>1105.786</ele>
        <time>2021-05-27T21:39:08Z</time>
      </trkpt>
      <trkpt lat="42.340603" lon="2.479833">
        <ele>1106.886</ele>
        <time>2021-05-27T21:39:12Z</time>
      </trkpt>
      <trkpt lat="42.340605" lon="2.479859">
        <ele>1107.713</ele>
        <time>2021-05-27T21:39:15Z</time>
      </trkpt>
      <trkpt lat="42.340594" lon="2.479888">
        <ele>1108.858</ele>
        <time>2021-05-27T21:39:19Z</time>
      </trkpt>
      <trkpt lat="42.340604" lon="2.479920">
        <ele>1109.931</ele>
        <time>2021-05-27T21:39:24Z</time>
      </trkpt>
      <trkpt lat="42.340619" lon="2.479950">
        <ele>1111.037</ele>
        <time>2021-05-27T21:39:27Z</time>
      </trkpt>
      <trkpt lat="42.340630" lon="2.479972">
        <ele>1111.743</ele>
        <time>2021-05-27T21:39:30Z</time>
      </trkpt>
      <trkpt lat="42.340613" lon="2.479987">
        <ele>1112.364</ele>
        <time>2021-05-27T21:39:33Z</time>
      </trkpt>
      <trkpt lat="42.340589" lon="2.479986">
        <ele>1112.410</ele>
        <time>2021-05-27T21:39:36Z</time>
      </trkpt>
      <trkpt lat="42.340576" lon="2.480018">
        <ele>1113.508</ele>
        <time>2021-05-27T21:39:39Z</time>
      </trkpt>
      <trkpt lat="42.340581" lon="2.480051">
        <ele>1114.681</ele>
        <time>2021-05-27T21:39:42Z</time>
      </trkpt>
      <trkpt lat="42.340592" lon="2.480084">
        <ele>1115.698</ele>
        <time>2021-05-27T21:39:46Z</time>
      </trkpt>
      <trkpt lat="42.340613" lon="2.480094">
        <ele>1115.996</ele>
        <time>2021-05-27T21:39:48Z</time>
      </trkpt>
      <trkpt lat="42.340636" lon="2.480105">
        <ele>1116.216</ele>
        <time>2021-05-27T21:39:50Z</time>
      </trkpt>
      <trkpt lat="42.340653" lon="2.480124">
        <ele>1116.833</ele>
        <time>2021-05-27T21:39:52Z</time>
      </trkpt>
      <trkpt lat="42.340643" lon="2.480144">
        <ele>1117.598</ele>
        <time>2021-05-27T21:39:56Z</time>
      </trkpt>
      <trkpt lat="42.340651" lon="2.480175">
        <ele>1118.591</ele>
        <time>2021-05-27T21:40:00Z</time>
      </trkpt>
      <trkpt lat="42.340666" lon="2.480188">
        <ele>1119.077</ele>
        <time>2021-05-27T21:40:02Z</time>
      </trkpt>
      <trkpt lat="42.340678" lon="2.480213">
        <ele>1119.817</ele>
        <time>2021-05-27T21:40:05Z</time>
      </trkpt>
      <trkpt lat="42.340694" lon="2.480240">
        <ele>1120.787</ele>
        <time>2021-05-27T21:40:08Z</time>
      </trkpt>
      <trkpt lat="42.340715" lon="2.480257">
        <ele>1121.315</ele>
        <time>2021-05-27T21:40:11Z</time>
      </trkpt>
      <trkpt lat="42.340731" lon="2.480272">
        <ele>1121.808</ele>
        <time>2021-05-27T21:40:14Z</time>
      </trkpt>
      <trkpt lat="42.340749" lon="2.480291">
        <ele>1122.328</ele>
        <time>2021-05-27T21:40:17Z</time>
      </trkpt>
      <trkpt lat="42.340758" lon="2.480317">
        <ele>1122.755</ele>
        <time>2021-05-27T21:40:20Z</time>
      </trkpt>
      <trkpt lat="42.340762" lon="2.480349">
        <ele>1123.323</ele>
        <time>2021-05-27T21:40:25Z</time>
      </trkpt>
      <trkpt lat="42.340771" lon="2.480381">
        <ele>1123.913</ele>
        <time>2021-05-27T21:40:27Z</time>
      </trkpt>
      <trkpt lat="42.340786" lon="2.480403">
        <ele>1124.330</ele>
        <time>2021-05-27T21:40:29Z</time>
      </trkpt>
      <trkpt lat="42.340803" lon="2.480419">
        <ele>1124.655</ele>
        <time>2021-05-27T21:40:31Z</time>
      </trkpt>
      <trkpt lat="42.340814" lon="2.480456">
        <ele>1125.378</ele>
        <time>2021-05-27T21:40:34Z</time>
      </trkpt>
      <trkpt lat="42.340824" lon="2.480479">
        <ele>1125.664</ele>
        <time>2021-05-27T21:40:36Z</time>
      </trkpt>
      <trkpt lat="42.340832" lon="2.480508">
        <ele>1126.152</ele>
        <time>2021-05-27T21:40:39Z</time>
      </trkpt>
      <trkpt lat="42.340835" lon="2.480536">
        <ele>1126.753</ele>
        <time>2021-05-27T21:40:43Z</time>
      </trkpt>
      <trkpt lat="42.340836" lon="2.480563">
        <ele>1127.108</ele>
        <time>2021-05-27T21:40:44Z</time>
      </trkpt>
      <trkpt lat="42.340835" lon="2.480597">
        <ele>1127.508</ele>
        <time>2021-05-27T21:40:46Z</time>
      </trkpt>
      <trkpt lat="42.340840" lon="2.480621">
        <ele>1127.822</ele>
        <time>2021-05-27T21:40:48Z</time>
      </trkpt>
      <trkpt lat="42.340842" lon="2.480654">
        <ele>1128.229</ele>
        <time>2021-05-27T21:40:50Z</time>
      </trkpt>
      <trkpt lat="42.340850" lon="2.480682">
        <ele>1128.617</ele>
        <time>2021-05-27T21:40:52Z</time>
      </trkpt>
      <trkpt lat="42.340863" lon="2.480716">
        <ele>1129.067</ele>
        <time>2021-05-27T21:40:55Z</time>
      </trkpt>
      <trkpt lat="42.340878" lon="2.480740">
        <ele>1129.454</ele>
        <time>2021-05-27T21:40:57Z</time>
      </trkpt>
      <trkpt lat="42.340891" lon="2.480763">
        <ele>1129.849</ele>
        <time>2021-05-27T21:40:59Z</time>
      </trkpt>
      <trkpt lat="42.340911" lon="2.480800">
        <ele>1130.332</ele>
        <time>2021-05-27T21:41:02Z</time>
      </trkpt>
      <trkpt lat="42.340920" lon="2.480831">
        <ele>1130.618</ele>
        <time>2021-05-27T21:41:04Z</time>
      </trkpt>
      <trkpt lat="42.340924" lon="2.480859">
        <ele>1130.729</ele>
        <time>2021-05-27T21:41:06Z</time>
      </trkpt>
      <trkpt lat="42.340926" lon="2.480892">
        <ele>1130.700</ele>
        <time>2021-05-27T21:41:08Z</time>
      </trkpt>
      <trkpt lat="42.340927" lon="2.480925">
        <ele>1130.720</ele>
        <time>2021-05-27T21:41:10Z</time>
      </trkpt>
      <trkpt lat="42.340936" lon="2.480952">
        <ele>1130.708</ele>
        <time>2021-05-27T21:41:12Z</time>
      </trkpt>
      <trkpt lat="42.340935" lon="2.480988">
        <ele>1130.719</ele>
        <time>2021-05-27T21:41:15Z</time>
      </trkpt>
      <trkpt lat="42.340922" lon="2.481014">
        <ele>1130.716</ele>
        <time>2021-05-27T21:41:18Z</time>
      </trkpt>
      <trkpt lat="42.340911" lon="2.481034">
        <ele>1130.794</ele>
        <time>2021-05-27T21:41:41Z</time>
      </trkpt>
      <trkpt lat="42.340928" lon="2.481041">
        <ele>1130.734</ele>
        <time>2021-05-27T21:42:01Z</time>
      </trkpt>
      <trkpt lat="42.340949" lon="2.481021">
        <ele>1130.761</ele>
        <time>2021-05-27T21:42:03Z</time>
      </trkpt>
      <trkpt lat="42.340969" lon="2.481001">
        <ele>1130.786</ele>
        <time>2021-05-27T21:42:05Z</time>
      </trkpt>
      <trkpt lat="42.340986" lon="2.480986">
        <ele>1130.769</ele>
        <time>2021-05-27T21:42:07Z</time>
      </trkpt>
      <trkpt lat="42.341011" lon="2.480988">
        <ele>1130.895</ele>
        <time>2021-05-27T21:42:48Z</time>
      </trkpt>
      <trkpt lat="42.341033" lon="2.480989">
        <ele>1130.885</ele>
        <time>2021-05-27T21:42:50Z</time>
      </trkpt>
      <trkpt lat="42.341051" lon="2.480985">
        <ele>1130.889</ele>
        <time>2021-05-27T21:47:07Z</time>
      </trkpt>
      <trkpt lat="42.341051" lon="2.481010">
        <ele>1130.717</ele>
        <time>2021-05-27T21:47:21Z</time>
      </trkpt>
      <trkpt lat="42.341044" lon="2.481039">
        <ele>1130.608</ele>
        <time>2021-05-27T21:47:23Z</time>
      </trkpt>
      <trkpt lat="42.341038" lon="2.481074">
        <ele>1130.445</ele>
        <time>2021-05-27T21:47:25Z</time>
      </trkpt>
      <trkpt lat="42.341042" lon="2.481098">
        <ele>1130.372</ele>
        <time>2021-05-27T21:48:09Z</time>
      </trkpt>
      <trkpt lat="42.341055" lon="2.481120">
        <ele>1130.140</ele>
        <time>2021-05-27T21:49:22Z</time>
      </trkpt>
      <trkpt lat="42.341068" lon="2.481151">
        <ele>1129.750</ele>
        <time>2021-05-27T21:49:39Z</time>
      </trkpt>
      <trkpt lat="42.341072" lon="2.481183">
        <ele>1129.327</ele>
        <time>2021-05-27T21:49:41Z</time>
      </trkpt>
      <trkpt lat="42.341074" lon="2.481209">
        <ele>1129.052</ele>
        <time>2021-05-27T21:49:43Z</time>
      </trkpt>
      <trkpt lat="42.341078" lon="2.481233">
        <ele>1128.645</ele>
        <time>2021-05-27T21:49:45Z</time>
      </trkpt>
      <trkpt lat="42.341078" lon="2.481265">
        <ele>1128.261</ele>
        <time>2021-05-27T21:49:48Z</time>
      </trkpt>
      <trkpt lat="42.341074" lon="2.481294">
        <ele>1127.951</ele>
        <time>2021-05-27T21:49:50Z</time>
      </trkpt>
      <trkpt lat="42.341073" lon="2.481323">
        <ele>1127.601</ele>
        <time>2021-05-27T21:49:52Z</time>
      </trkpt>
      <trkpt lat="42.341077" lon="2.481358">
        <ele>1127.111</ele>
        <time>2021-05-27T21:49:54Z</time>
      </trkpt>
      <trkpt lat="42.341084" lon="2.481390">
        <ele>1126.608</ele>
        <time>2021-05-27T21:49:56Z</time>
      </trkpt>
      <trkpt lat="42.341093" lon="2.481412">
        <ele>1126.342</ele>
        <time>2021-05-27T21:49:58Z</time>
      </trkpt>
      <trkpt lat="42.341102" lon="2.481443">
        <ele>1126.029</ele>
        <time>2021-05-27T21:50:01Z</time>
      </trkpt>
      <trkpt lat="42.341111" lon="2.481465">
        <ele>1125.717</ele>
        <time>2021-05-27T21:50:11Z</time>
      </trkpt>
      <trkpt lat="42.341130" lon="2.481487">
        <ele>1125.217</ele>
        <time>2021-05-27T21:50:13Z</time>
      </trkpt>
      <trkpt lat="42.341154" lon="2.481497">
        <ele>1124.564</ele>
        <time>2021-05-27T21:50:16Z</time>
      </trkpt>
      <trkpt lat="42.341169" lon="2.481511">
        <ele>1124.029</ele>
        <time>2021-05-27T21:50:18Z</time>
      </trkpt>
      <trkpt lat="42.341202" lon="2.481518">
        <ele>1123.152</ele>
        <time>2021-05-27T21:50:21Z</time>
      </trkpt>
      <trkpt lat="42.341226" lon="2.481500">
        <ele>1122.658</ele>
        <time>2021-05-27T21:50:23Z</time>
      </trkpt>
      <trkpt lat="42.341251" lon="2.481474">
        <ele>1122.215</ele>
        <time>2021-05-27T21:50:25Z</time>
      </trkpt>
      <trkpt lat="42.341273" lon="2.481458">
        <ele>1121.865</ele>
        <time>2021-05-27T21:50:27Z</time>
      </trkpt>
      <trkpt lat="42.341293" lon="2.481455">
        <ele>1121.411</ele>
        <time>2021-05-27T21:50:29Z</time>
      </trkpt>
      <trkpt lat="42.341317" lon="2.481446">
        <ele>1120.908</ele>
        <time>2021-05-27T21:50:31Z</time>
      </trkpt>
      <trkpt lat="42.341343" lon="2.481463">
        <ele>1120.118</ele>
        <time>2021-05-27T21:50:35Z</time>
      </trkpt>
      <trkpt lat="42.341366" lon="2.481482">
        <ele>1119.245</ele>
        <time>2021-05-27T21:50:37Z</time>
      </trkpt>
      <trkpt lat="42.341392" lon="2.481493">
        <ele>1118.523</ele>
        <time>2021-05-27T21:50:39Z</time>
      </trkpt>
      <trkpt lat="42.341417" lon="2.481499">
        <ele>1118.443</ele>
        <time>2021-05-27T21:50:41Z</time>
      </trkpt>
      <trkpt lat="42.341440" lon="2.481509">
        <ele>1118.240</ele>
        <time>2021-05-27T21:50:43Z</time>
      </trkpt>
      <trkpt lat="42.341460" lon="2.481537">
        <ele>1117.775</ele>
        <time>2021-05-27T21:50:45Z</time>
      </trkpt>
      <trkpt lat="42.341485" lon="2.481571">
        <ele>1116.968</ele>
        <time>2021-05-27T21:50:47Z</time>
      </trkpt>
      <trkpt lat="42.341504" lon="2.481591">
        <ele>1116.414</ele>
        <time>2021-05-27T21:50:49Z</time>
      </trkpt>
      <trkpt lat="42.341521" lon="2.481615">
        <ele>1115.842</ele>
        <time>2021-05-27T21:50:51Z</time>
      </trkpt>
      <trkpt lat="42.341539" lon="2.481646">
        <ele>1114.922</ele>
        <time>2021-05-27T21:50:53Z</time>
      </trkpt>
      <trkpt lat="42.341614" lon="2.481744">
        <ele>1112.414</ele>
        <time>2021-05-27T21:51:00Z</time>
      </trkpt>
      <trkpt lat="42.341669" lon="2.481870">
        <ele>1109.408</ele>
        <time>2021-05-27T21:51:05Z</time>
      </trkpt>
      <trkpt lat="42.341737" lon="2.481976">
        <ele>1107.981</ele>
        <time>2021-05-27T21:51:10Z</time>
      </trkpt>
      <trkpt lat="42.341794" lon="2.482092">
        <ele>1106.818</ele>
        <time>2021-05-27T21:51:17Z</time>
      </trkpt>
      <trkpt lat="42.341869" lon="2.482184">
        <ele>1104.946</ele>
        <time>2021-05-27T21:51:22Z</time>
      </trkpt>
      <trkpt lat="42.341957" lon="2.482311">
        <ele>1103.126</ele>
        <time>2021-05-27T21:51:29Z</time>
      </trkpt>
      <trkpt lat="42.342041" lon="2.482358">
        <ele>1101.813</ele>
        <time>2021-05-27T21:51:34Z</time>
      </trkpt>
      <trkpt lat="42.342131" lon="2.482413">
        <ele>1100.178</ele>
        <time>2021-05-27T21:51:40Z</time>
      </trkpt>
      <trkpt lat="42.342180" lon="2.482419">
        <ele>1099.171</ele>
        <time>2021-05-27T21:51:43Z</time>
      </trkpt>
      <trkpt lat="42.342209" lon="2.482426">
        <ele>1098.537</ele>
        <time>2021-05-27T21:51:45Z</time>
      </trkpt>
      <trkpt lat="42.342236" lon="2.482447">
        <ele>1098.133</ele>
        <time>2021-05-27T21:51:47Z</time>
      </trkpt>
      <trkpt lat="42.342340" lon="2.482516">
        <ele>1096.723</ele>
        <time>2021-05-27T21:51:53Z</time>
      </trkpt>
      <trkpt lat="42.342419" lon="2.482578">
        <ele>1095.815</ele>
        <time>2021-05-27T21:51:58Z</time>
      </trkpt>
      <trkpt lat="42.342506" lon="2.482651">
        <ele>1094.508</ele>
        <time>2021-05-27T21:52:04Z</time>
      </trkpt>
      <trkpt lat="42.342570" lon="2.482706">
        <ele>1094.220</ele>
        <time>2021-05-27T21:52:10Z</time>
      </trkpt>
      <trkpt lat="42.342593" lon="2.482726">
        <ele>1094.037</ele>
        <time>2021-05-27T21:52:12Z</time>
      </trkpt>
      <trkpt lat="42.342612" lon="2.482750">
        <ele>1093.815</ele>
        <time>2021-05-27T21:52:14Z</time>
      </trkpt>
      <trkpt lat="42.342616" lon="2.482778">
        <ele>1093.695</ele>
        <time>2021-05-27T21:52:16Z</time>
      </trkpt>
      <trkpt lat="42.342635" lon="2.482794">
        <ele>1093.482</ele>
        <time>2021-05-27T21:52:18Z</time>
      </trkpt>
      <trkpt lat="42.342649" lon="2.482818">
        <ele>1093.277</ele>
        <time>2021-05-27T21:52:22Z</time>
      </trkpt>
      <trkpt lat="42.342664" lon="2.482845">
        <ele>1092.890</ele>
        <time>2021-05-27T21:52:24Z</time>
      </trkpt>
      <trkpt lat="42.342681" lon="2.482871">
        <ele>1092.526</ele>
        <time>2021-05-27T21:52:28Z</time>
      </trkpt>
      <trkpt lat="42.342701" lon="2.482885">
        <ele>1092.226</ele>
        <time>2021-05-27T21:52:30Z</time>
      </trkpt>
      <trkpt lat="42.342727" lon="2.482895">
        <ele>1091.847</ele>
        <time>2021-05-27T21:52:33Z</time>
      </trkpt>
      <trkpt lat="42.342737" lon="2.482921">
        <ele>1091.411</ele>
        <time>2021-05-27T21:52:35Z</time>
      </trkpt>
      <trkpt lat="42.342747" lon="2.482944">
        <ele>1091.008</ele>
        <time>2021-05-27T21:52:36Z</time>
      </trkpt>
      <trkpt lat="42.342748" lon="2.482972">
        <ele>1090.619</ele>
        <time>2021-05-27T21:52:38Z</time>
      </trkpt>
      <trkpt lat="42.342752" lon="2.483010">
        <ele>1090.126</ele>
        <time>2021-05-27T21:52:41Z</time>
      </trkpt>
      <trkpt lat="42.342775" lon="2.483068">
        <ele>1089.014</ele>
        <time>2021-05-27T21:52:44Z</time>
      </trkpt>
      <trkpt lat="42.342791" lon="2.483083">
        <ele>1088.854</ele>
        <time>2021-05-27T21:52:45Z</time>
      </trkpt>
      <trkpt lat="42.342813" lon="2.483105">
        <ele>1088.781</ele>
        <time>2021-05-27T21:52:47Z</time>
      </trkpt>
      <trkpt lat="42.342833" lon="2.483132">
        <ele>1088.516</ele>
        <time>2021-05-27T21:52:49Z</time>
      </trkpt>
      <trkpt lat="42.342916" lon="2.483213">
        <ele>1087.579</ele>
        <time>2021-05-27T21:52:56Z</time>
      </trkpt>
      <trkpt lat="42.343018" lon="2.483264">
        <ele>1086.455</ele>
        <time>2021-05-27T21:53:04Z</time>
      </trkpt>
      <trkpt lat="42.343056" lon="2.483293">
        <ele>1085.767</ele>
        <time>2021-05-27T21:53:07Z</time>
      </trkpt>
      <trkpt lat="42.343081" lon="2.483309">
        <ele>1085.981</ele>
        <time>2021-05-27T21:53:09Z</time>
      </trkpt>
      <trkpt lat="42.343099" lon="2.483322">
        <ele>1086.019</ele>
        <time>2021-05-27T21:53:11Z</time>
      </trkpt>
      <trkpt lat="42.343101" lon="2.483356">
        <ele>1085.608</ele>
        <time>2021-05-27T21:53:13Z</time>
      </trkpt>
      <trkpt lat="42.343105" lon="2.483399">
        <ele>1085.283</ele>
        <time>2021-05-27T21:53:15Z</time>
      </trkpt>
      <trkpt lat="42.343115" lon="2.483438">
        <ele>1084.970</ele>
        <time>2021-05-27T21:53:17Z</time>
      </trkpt>
      <trkpt lat="42.343122" lon="2.483478">
        <ele>1084.658</ele>
        <time>2021-05-27T21:53:19Z</time>
      </trkpt>
      <trkpt lat="42.343136" lon="2.483502">
        <ele>1084.668</ele>
        <time>2021-05-27T21:53:21Z</time>
      </trkpt>
      <trkpt lat="42.343154" lon="2.483517">
        <ele>1084.875</ele>
        <time>2021-05-27T21:53:22Z</time>
      </trkpt>
      <trkpt lat="42.343167" lon="2.483537">
        <ele>1084.840</ele>
        <time>2021-05-27T21:53:25Z</time>
      </trkpt>
      <trkpt lat="42.343166" lon="2.483566">
        <ele>1084.543</ele>
        <time>2021-05-27T21:53:27Z</time>
      </trkpt>
      <trkpt lat="42.343165" lon="2.483614">
        <ele>1083.999</ele>
        <time>2021-05-27T21:53:32Z</time>
      </trkpt>
      <trkpt lat="42.343170" lon="2.483645">
        <ele>1083.618</ele>
        <time>2021-05-27T21:53:35Z</time>
      </trkpt>
      <trkpt lat="42.343172" lon="2.483674">
        <ele>1083.298</ele>
        <time>2021-05-27T21:53:37Z</time>
      </trkpt>
      <trkpt lat="42.343174" lon="2.483708">
        <ele>1082.717</ele>
        <time>2021-05-27T21:53:39Z</time>
      </trkpt>
      <trkpt lat="42.343198" lon="2.483731">
        <ele>1082.808</ele>
        <time>2021-05-27T21:53:42Z</time>
      </trkpt>
      <trkpt lat="42.343216" lon="2.483756">
        <ele>1082.828</ele>
        <time>2021-05-27T21:53:45Z</time>
      </trkpt>
      <trkpt lat="42.343228" lon="2.483784">
        <ele>1082.685</ele>
        <time>2021-05-27T21:53:47Z</time>
      </trkpt>
      <trkpt lat="42.343233" lon="2.483816">
        <ele>1082.263</ele>
        <time>2021-05-27T21:53:49Z</time>
      </trkpt>
      <trkpt lat="42.343244" lon="2.483842">
        <ele>1082.133</ele>
        <time>2021-05-27T21:53:51Z</time>
      </trkpt>
      <trkpt lat="42.343264" lon="2.483880">
        <ele>1081.930</ele>
        <time>2021-05-27T21:53:53Z</time>
      </trkpt>
      <trkpt lat="42.343281" lon="2.483896">
        <ele>1081.925</ele>
        <time>2021-05-27T21:53:54Z</time>
      </trkpt>
      <trkpt lat="42.343308" lon="2.483942">
        <ele>1081.648</ele>
        <time>2021-05-27T21:53:56Z</time>
      </trkpt>
      <trkpt lat="42.343333" lon="2.483972">
        <ele>1081.554</ele>
        <time>2021-05-27T21:53:58Z</time>
      </trkpt>
      <trkpt lat="42.343410" lon="2.484077">
        <ele>1080.587</ele>
        <time>2021-05-27T21:54:03Z</time>
      </trkpt>
      <trkpt lat="42.343484" lon="2.484166">
        <ele>1079.642</ele>
        <time>2021-05-27T21:54:08Z</time>
      </trkpt>
      <trkpt lat="42.343511" lon="2.484201">
        <ele>1079.126</ele>
        <time>2021-05-27T21:54:12Z</time>
      </trkpt>
      <trkpt lat="42.343532" lon="2.484223">
        <ele>1078.708</ele>
        <time>2021-05-27T21:54:15Z</time>
      </trkpt>
      <trkpt lat="42.343528" lon="2.484247">
        <ele>1078.155</ele>
        <time>2021-05-27T21:54:18Z</time>
      </trkpt>
      <trkpt lat="42.343537" lon="2.484281">
        <ele>1077.382</ele>
        <time>2021-05-27T21:54:21Z</time>
      </trkpt>
      <trkpt lat="42.343556" lon="2.484318">
        <ele>1076.630</ele>
        <time>2021-05-27T21:54:23Z</time>
      </trkpt>
      <trkpt lat="42.343586" lon="2.484344">
        <ele>1076.370</ele>
        <time>2021-05-27T21:54:25Z</time>
      </trkpt>
      <trkpt lat="42.343600" lon="2.484366">
        <ele>1075.917</ele>
        <time>2021-05-27T21:54:26Z</time>
      </trkpt>
      <trkpt lat="42.343612" lon="2.484391">
        <ele>1075.422</ele>
        <time>2021-05-27T21:54:27Z</time>
      </trkpt>
      <trkpt lat="42.343623" lon="2.484412">
        <ele>1075.285</ele>
        <time>2021-05-27T21:54:28Z</time>
      </trkpt>
      <trkpt lat="42.343634" lon="2.484446">
        <ele>1074.691</ele>
        <time>2021-05-27T21:54:30Z</time>
      </trkpt>
      <trkpt lat="42.343638" lon="2.484478">
        <ele>1074.183</ele>
        <time>2021-05-27T21:54:32Z</time>
      </trkpt>
      <trkpt lat="42.343657" lon="2.484518">
        <ele>1073.825</ele>
        <time>2021-05-27T21:54:34Z</time>
      </trkpt>
      <trkpt lat="42.343673" lon="2.484546">
        <ele>1073.717</ele>
        <time>2021-05-27T21:54:36Z</time>
      </trkpt>
      <trkpt lat="42.343695" lon="2.484563">
        <ele>1074.008</ele>
        <time>2021-05-27T21:54:37Z</time>
      </trkpt>
      <trkpt lat="42.343709" lon="2.484582">
        <ele>1074.085</ele>
        <time>2021-05-27T21:54:38Z</time>
      </trkpt>
      <trkpt lat="42.343712" lon="2.484621">
        <ele>1073.362</ele>
        <time>2021-05-27T21:54:40Z</time>
      </trkpt>
      <trkpt lat="42.343728" lon="2.484650">
        <ele>1073.260</ele>
        <time>2021-05-27T21:54:42Z</time>
      </trkpt>
      <trkpt lat="42.343739" lon="2.484684">
        <ele>1072.970</ele>
        <time>2021-05-27T21:54:44Z</time>
      </trkpt>
      <trkpt lat="42.343756" lon="2.484708">
        <ele>1073.027</ele>
        <time>2021-05-27T21:54:46Z</time>
      </trkpt>
      <trkpt lat="42.343771" lon="2.484740">
        <ele>1072.952</ele>
        <time>2021-05-27T21:54:48Z</time>
      </trkpt>
      <trkpt lat="42.343784" lon="2.484777">
        <ele>1072.645</ele>
        <time>2021-05-27T21:54:50Z</time>
      </trkpt>
      <trkpt lat="42.343797" lon="2.484800">
        <ele>1072.591</ele>
        <time>2021-05-27T21:54:51Z</time>
      </trkpt>
      <trkpt lat="42.343810" lon="2.484827">
        <ele>1072.415</ele>
        <time>2021-05-27T21:54:52Z</time>
      </trkpt>
      <trkpt lat="42.343813" lon="2.484853">
        <ele>1072.065</ele>
        <time>2021-05-27T21:54:53Z</time>
      </trkpt>
      <trkpt lat="42.343830" lon="2.484886">
        <ele>1071.811</ele>
        <time>2021-05-27T21:54:55Z</time>
      </trkpt>
      <trkpt lat="42.343873" lon="2.485007">
        <ele>1070.508</ele>
        <time>2021-05-27T21:55:01Z</time>
      </trkpt>
      <trkpt lat="42.343914" lon="2.485117">
        <ele>1069.368</ele>
        <time>2021-05-27T21:55:05Z</time>
      </trkpt>
      <trkpt lat="42.343965" lon="2.485214">
        <ele>1068.985</ele>
        <time>2021-05-27T21:55:10Z</time>
      </trkpt>
      <trkpt lat="42.343985" lon="2.485237">
        <ele>1069.073</ele>
        <time>2021-05-27T21:55:12Z</time>
      </trkpt>
      <trkpt lat="42.344008" lon="2.485316">
        <ele>1067.693</ele>
        <time>2021-05-27T21:55:19Z</time>
      </trkpt>
      <trkpt lat="42.344018" lon="2.485352">
        <ele>1066.830</ele>
        <time>2021-05-27T21:55:21Z</time>
      </trkpt>
      <trkpt lat="42.344029" lon="2.485383">
        <ele>1066.145</ele>
        <time>2021-05-27T21:55:23Z</time>
      </trkpt>
      <trkpt lat="42.344090" lon="2.485475">
        <ele>1064.888</ele>
        <time>2021-05-27T21:55:28Z</time>
      </trkpt>
      <trkpt lat="42.344128" lon="2.485583">
        <ele>1062.364</ele>
        <time>2021-05-27T21:55:33Z</time>
      </trkpt>
      <trkpt lat="42.344140" lon="2.485606">
        <ele>1061.939</ele>
        <time>2021-05-27T21:55:34Z</time>
      </trkpt>
      <trkpt lat="42.344151" lon="2.485635">
        <ele>1061.401</ele>
        <time>2021-05-27T21:55:36Z</time>
      </trkpt>
      <trkpt lat="42.344170" lon="2.485665">
        <ele>1060.921</ele>
        <time>2021-05-27T21:55:38Z</time>
      </trkpt>
      <trkpt lat="42.344180" lon="2.485694">
        <ele>1060.408</ele>
        <time>2021-05-27T21:55:40Z</time>
      </trkpt>
      <trkpt lat="42.344238" lon="2.485793">
        <ele>1059.240</ele>
        <time>2021-05-27T21:55:45Z</time>
      </trkpt>
      <trkpt lat="42.344297" lon="2.485899">
        <ele>1057.587</ele>
        <time>2021-05-27T21:55:53Z</time>
      </trkpt>
      <trkpt lat="42.344323" lon="2.485916">
        <ele>1057.695</ele>
        <time>2021-05-27T21:55:56Z</time>
      </trkpt>
      <trkpt lat="42.344346" lon="2.485941">
        <ele>1057.395</ele>
        <time>2021-05-27T21:55:57Z</time>
      </trkpt>
      <trkpt lat="42.344365" lon="2.485971">
        <ele>1056.772</ele>
        <time>2021-05-27T21:55:59Z</time>
      </trkpt>
      <trkpt lat="42.344385" lon="2.485999">
        <ele>1056.167</ele>
        <time>2021-05-27T21:56:01Z</time>
      </trkpt>
      <trkpt lat="42.344403" lon="2.486028">
        <ele>1055.440</ele>
        <time>2021-05-27T21:56:03Z</time>
      </trkpt>
      <trkpt lat="42.344429" lon="2.486041">
        <ele>1055.596</ele>
        <time>2021-05-27T21:56:05Z</time>
      </trkpt>
      <trkpt lat="42.344454" lon="2.486037">
        <ele>1056.164</ele>
        <time>2021-05-27T21:56:07Z</time>
      </trkpt>
      <trkpt lat="42.344476" lon="2.486059">
        <ele>1055.606</ele>
        <time>2021-05-27T21:56:09Z</time>
      </trkpt>
      <trkpt lat="42.344494" lon="2.486074">
        <ele>1055.316</ele>
        <time>2021-05-27T21:56:11Z</time>
      </trkpt>
      <trkpt lat="42.344506" lon="2.486100">
        <ele>1054.508</ele>
        <time>2021-05-27T21:56:13Z</time>
      </trkpt>
      <trkpt lat="42.344519" lon="2.486127">
        <ele>1053.913</ele>
        <time>2021-05-27T21:56:15Z</time>
      </trkpt>
      <trkpt lat="42.344590" lon="2.486222">
        <ele>1052.430</ele>
        <time>2021-05-27T21:56:21Z</time>
      </trkpt>
      <trkpt lat="42.344639" lon="2.486334">
        <ele>1050.488</ele>
        <time>2021-05-27T21:56:27Z</time>
      </trkpt>
      <trkpt lat="42.344720" lon="2.486425">
        <ele>1050.368</ele>
        <time>2021-05-27T21:56:33Z</time>
      </trkpt>
      <trkpt lat="42.344806" lon="2.486484">
        <ele>1051.695</ele>
        <time>2021-05-27T21:56:38Z</time>
      </trkpt>
      <trkpt lat="42.344867" lon="2.486584">
        <ele>1051.380</ele>
        <time>2021-05-27T21:56:46Z</time>
      </trkpt>
      <trkpt lat="42.344869" lon="2.486612">
        <ele>1050.883</ele>
        <time>2021-05-27T21:56:48Z</time>
      </trkpt>
      <trkpt lat="42.344881" lon="2.486646">
        <ele>1050.439</ele>
        <time>2021-05-27T21:56:50Z</time>
      </trkpt>
      <trkpt lat="42.344871" lon="2.486668">
        <ele>1049.746</ele>
        <time>2021-05-27T21:56:53Z</time>
      </trkpt>
      <trkpt lat="42.344876" lon="2.486692">
        <ele>1049.588</ele>
        <time>2021-05-27T21:56:55Z</time>
      </trkpt>
      <trkpt lat="42.344899" lon="2.486710">
        <ele>1049.716</ele>
        <time>2021-05-27T21:56:57Z</time>
      </trkpt>
      <trkpt lat="42.344909" lon="2.486733">
        <ele>1049.608</ele>
        <time>2021-05-27T21:56:59Z</time>
      </trkpt>
      <trkpt lat="42.344920" lon="2.486760">
        <ele>1049.451</ele>
        <time>2021-05-27T21:57:01Z</time>
      </trkpt>
      <trkpt lat="42.344924" lon="2.486792">
        <ele>1049.048</ele>
        <time>2021-05-27T21:57:03Z</time>
      </trkpt>
      <trkpt lat="42.344939" lon="2.486826">
        <ele>1048.756</ele>
        <time>2021-05-27T21:57:06Z</time>
      </trkpt>
      <trkpt lat="42.344955" lon="2.486854">
        <ele>1048.646</ele>
        <time>2021-05-27T21:57:09Z</time>
      </trkpt>
      <trkpt lat="42.344987" lon="2.486872">
        <ele>1049.063</ele>
        <time>2021-05-27T21:57:12Z</time>
      </trkpt>
      <trkpt lat="42.344994" lon="2.486902">
        <ele>1048.668</ele>
        <time>2021-05-27T21:57:16Z</time>
      </trkpt>
      <trkpt lat="42.345001" lon="2.486925">
        <ele>1048.451</ele>
        <time>2021-05-27T21:57:18Z</time>
      </trkpt>
      <trkpt lat="42.345015" lon="2.486956">
        <ele>1047.817</ele>
        <time>2021-05-27T21:57:21Z</time>
      </trkpt>
      <trkpt lat="42.345024" lon="2.486981">
        <ele>1047.178</ele>
        <time>2021-05-27T21:57:23Z</time>
      </trkpt>
      <trkpt lat="42.345039" lon="2.487037">
        <ele>1045.733</ele>
        <time>2021-05-27T21:57:28Z</time>
      </trkpt>
      <trkpt lat="42.345056" lon="2.487099">
        <ele>1044.026</ele>
        <time>2021-05-27T21:57:33Z</time>
      </trkpt>
      <trkpt lat="42.345045" lon="2.487140">
        <ele>1042.908</ele>
        <time>2021-05-27T21:57:35Z</time>
      </trkpt>
      <trkpt lat="42.345091" lon="2.487190">
        <ele>1041.344</ele>
        <time>2021-05-27T21:57:41Z</time>
      </trkpt>
      <trkpt lat="42.345095" lon="2.487218">
        <ele>1040.451</ele>
        <time>2021-05-27T21:57:43Z</time>
      </trkpt>
      <trkpt lat="42.345110" lon="2.487244">
        <ele>1039.569</ele>
        <time>2021-05-27T21:57:46Z</time>
      </trkpt>
      <trkpt lat="42.345143" lon="2.487273">
        <ele>1038.389</ele>
        <time>2021-05-27T21:57:48Z</time>
      </trkpt>
      <trkpt lat="42.345164" lon="2.487290">
        <ele>1037.696</ele>
        <time>2021-05-27T21:57:51Z</time>
      </trkpt>
      <trkpt lat="42.345192" lon="2.487325">
        <ele>1036.311</ele>
        <time>2021-05-27T21:57:54Z</time>
      </trkpt>
      <trkpt lat="42.345252" lon="2.487377">
        <ele>1034.274</ele>
        <time>2021-05-27T21:58:00Z</time>
      </trkpt>
      <trkpt lat="42.345272" lon="2.487393">
        <ele>1033.510</ele>
        <time>2021-05-27T21:58:02Z</time>
      </trkpt>
      <trkpt lat="42.345293" lon="2.487413">
        <ele>1032.961</ele>
        <time>2021-05-27T21:58:05Z</time>
      </trkpt>
      <trkpt lat="42.345369" lon="2.487486">
        <ele>1030.821</ele>
        <time>2021-05-27T21:58:11Z</time>
      </trkpt>
      <trkpt lat="42.345451" lon="2.487513">
        <ele>1030.213</ele>
        <time>2021-05-27T21:58:16Z</time>
      </trkpt>
      <trkpt lat="42.345492" lon="2.487531">
        <ele>1029.708</ele>
        <time>2021-05-27T21:58:19Z</time>
      </trkpt>
      <trkpt lat="42.345519" lon="2.487547">
        <ele>1029.233</ele>
        <time>2021-05-27T21:58:21Z</time>
      </trkpt>
      <trkpt lat="42.345597" lon="2.487586">
        <ele>1029.340</ele>
        <time>2021-05-27T21:58:27Z</time>
      </trkpt>
      <trkpt lat="42.345636" lon="2.487594">
        <ele>1030.478</ele>
        <time>2021-05-27T21:58:31Z</time>
      </trkpt>
      <trkpt lat="42.345715" lon="2.487662">
        <ele>1030.668</ele>
        <time>2021-05-27T21:58:37Z</time>
      </trkpt>
      <trkpt lat="42.345798" lon="2.487744">
        <ele>1030.285</ele>
        <time>2021-05-27T21:58:43Z</time>
      </trkpt>
      <trkpt lat="42.345810" lon="2.487770">
        <ele>1029.580</ele>
        <time>2021-05-27T21:58:45Z</time>
      </trkpt>
      <trkpt lat="42.345822" lon="2.487802">
        <ele>1028.593</ele>
        <time>2021-05-27T21:58:47Z</time>
      </trkpt>
      <trkpt lat="42.345847" lon="2.487825">
        <ele>1028.339</ele>
        <time>2021-05-27T21:58:49Z</time>
      </trkpt>
      <trkpt lat="42.345866" lon="2.487847">
        <ele>1028.131</ele>
        <time>2021-05-27T21:58:51Z</time>
      </trkpt>
      <trkpt lat="42.345883" lon="2.487872">
        <ele>1027.761</ele>
        <time>2021-05-27T21:58:53Z</time>
      </trkpt>
      <trkpt lat="42.345898" lon="2.487895">
        <ele>1027.307</ele>
        <time>2021-05-27T21:58:55Z</time>
      </trkpt>
      <trkpt lat="42.345922" lon="2.487930">
        <ele>1026.708</ele>
        <time>2021-05-27T21:58:58Z</time>
      </trkpt>
      <trkpt lat="42.345965" lon="2.488033">
        <ele>1024.150</ele>
        <time>2021-05-27T21:59:05Z</time>
      </trkpt>
      <trkpt lat="42.346019" lon="2.488139">
        <ele>1023.057</ele>
        <time>2021-05-27T21:59:11Z</time>
      </trkpt>
      <trkpt lat="42.346038" lon="2.488168">
        <ele>1022.965</ele>
        <time>2021-05-27T21:59:13Z</time>
      </trkpt>
      <trkpt lat="42.346080" lon="2.488239">
        <ele>1022.215</ele>
        <time>2021-05-27T21:59:17Z</time>
      </trkpt>
      <trkpt lat="42.346091" lon="2.488269">
        <ele>1021.542</ele>
        <time>2021-05-27T21:59:19Z</time>
      </trkpt>
      <trkpt lat="42.346102" lon="2.488294">
        <ele>1021.117</ele>
        <time>2021-05-27T21:59:21Z</time>
      </trkpt>
      <trkpt lat="42.346114" lon="2.488316">
        <ele>1020.760</ele>
        <time>2021-05-27T21:59:23Z</time>
      </trkpt>
      <trkpt lat="42.346130" lon="2.488342">
        <ele>1020.346</ele>
        <time>2021-05-27T21:59:25Z</time>
      </trkpt>
      <trkpt lat="42.346145" lon="2.488359">
        <ele>1020.218</ele>
        <time>2021-05-27T21:59:27Z</time>
      </trkpt>
      <trkpt lat="42.346165" lon="2.488386">
        <ele>1020.098</ele>
        <time>2021-05-27T21:59:30Z</time>
      </trkpt>
      <trkpt lat="42.346180" lon="2.488413">
        <ele>1019.717</ele>
        <time>2021-05-27T21:59:32Z</time>
      </trkpt>
      <trkpt lat="42.346182" lon="2.488444">
        <ele>1018.908</ele>
        <time>2021-05-27T21:59:34Z</time>
      </trkpt>
      <trkpt lat="42.346195" lon="2.488467">
        <ele>1018.638</ele>
        <time>2021-05-27T21:59:36Z</time>
      </trkpt>
      <trkpt lat="42.346216" lon="2.488484">
        <ele>1018.715</ele>
        <time>2021-05-27T21:59:38Z</time>
      </trkpt>
      <trkpt lat="42.346238" lon="2.488490">
        <ele>1019.143</ele>
        <time>2021-05-27T21:59:40Z</time>
      </trkpt>
      <trkpt lat="42.346283" lon="2.488484">
        <ele>1020.643</ele>
        <time>2021-05-27T21:59:43Z</time>
      </trkpt>
      <trkpt lat="42.346311" lon="2.488473">
        <ele>1021.710</ele>
        <time>2021-05-27T21:59:45Z</time>
      </trkpt>
      <trkpt lat="42.346336" lon="2.488481">
        <ele>1022.255</ele>
        <time>2021-05-27T21:59:47Z</time>
      </trkpt>
      <trkpt lat="42.346403" lon="2.488532">
        <ele>1022.668</ele>
        <time>2021-05-27T21:59:53Z</time>
      </trkpt>
      <trkpt lat="42.346412" lon="2.488555">
        <ele>1022.224</ele>
        <time>2021-05-27T21:59:55Z</time>
      </trkpt>
      <trkpt lat="42.346398" lon="2.488585">
        <ele>1021.056</ele>
        <time>2021-05-27T21:59:57Z</time>
      </trkpt>
      <trkpt lat="42.346383" lon="2.488599">
        <ele>1020.259</ele>
        <time>2021-05-27T21:59:59Z</time>
      </trkpt>
      <trkpt lat="42.346357" lon="2.488627">
        <ele>1019.114</ele>
        <time>2021-05-27T22:00:02Z</time>
      </trkpt>
      <trkpt lat="42.346351" lon="2.488660">
        <ele>1018.908</ele>
        <time>2021-05-27T22:00:05Z</time>
      </trkpt>
      <trkpt lat="42.346343" lon="2.488684">
        <ele>1018.622</ele>
        <time>2021-05-27T22:00:07Z</time>
      </trkpt>
      <trkpt lat="42.346334" lon="2.488712">
        <ele>1018.319</ele>
        <time>2021-05-27T22:00:09Z</time>
      </trkpt>
      <trkpt lat="42.346328" lon="2.488746">
        <ele>1018.017</ele>
        <time>2021-05-27T22:00:11Z</time>
      </trkpt>
      <trkpt lat="42.346319" lon="2.488772">
        <ele>1017.737</ele>
        <time>2021-05-27T22:00:13Z</time>
      </trkpt>
      <trkpt lat="42.346309" lon="2.488805">
        <ele>1017.354</ele>
        <time>2021-05-27T22:00:15Z</time>
      </trkpt>
      <trkpt lat="42.346304" lon="2.488968">
        <ele>1017.049</ele>
        <time>2021-05-27T22:00:25Z</time>
      </trkpt>
      <trkpt lat="42.346295" lon="2.489049">
        <ele>1016.842</ele>
        <time>2021-05-27T22:00:28Z</time>
      </trkpt>
      <trkpt lat="42.346292" lon="2.489078">
        <ele>1016.738</ele>
        <time>2021-05-27T22:00:29Z</time>
      </trkpt>
      <trkpt lat="42.346286" lon="2.489122">
        <ele>1016.693</ele>
        <time>2021-05-27T22:00:31Z</time>
      </trkpt>
      <trkpt lat="42.346276" lon="2.489148">
        <ele>1016.365</ele>
        <time>2021-05-27T22:00:32Z</time>
      </trkpt>
      <trkpt lat="42.346267" lon="2.489170">
        <ele>1016.021</ele>
        <time>2021-05-27T22:00:33Z</time>
      </trkpt>
      <trkpt lat="42.346269" lon="2.489214">
        <ele>1015.608</ele>
        <time>2021-05-27T22:00:35Z</time>
      </trkpt>
      <trkpt lat="42.346281" lon="2.489253">
        <ele>1015.686</ele>
        <time>2021-05-27T22:00:37Z</time>
      </trkpt>
      <trkpt lat="42.346292" lon="2.489310">
        <ele>1015.393</ele>
        <time>2021-05-27T22:00:40Z</time>
      </trkpt>
      <trkpt lat="42.346301" lon="2.489362">
        <ele>1015.011</ele>
        <time>2021-05-27T22:00:42Z</time>
      </trkpt>
      <trkpt lat="42.346306" lon="2.489393">
        <ele>1014.971</ele>
        <time>2021-05-27T22:00:43Z</time>
      </trkpt>
      <trkpt lat="42.346341" lon="2.489506">
        <ele>1014.318</ele>
        <time>2021-05-27T22:00:47Z</time>
      </trkpt>
      <trkpt lat="42.346368" lon="2.489628">
        <ele>1013.023</ele>
        <time>2021-05-27T22:00:51Z</time>
      </trkpt>
      <trkpt lat="42.346394" lon="2.489762">
        <ele>1011.086</ele>
        <time>2021-05-27T22:00:56Z</time>
      </trkpt>
      <trkpt lat="42.346414" lon="2.489817">
        <ele>1009.962</ele>
        <time>2021-05-27T22:00:59Z</time>
      </trkpt>
      <trkpt lat="42.346466" lon="2.489921">
        <ele>1008.276</ele>
        <time>2021-05-27T22:01:04Z</time>
      </trkpt>
      <trkpt lat="42.346499" lon="2.490013">
        <ele>1006.490</ele>
        <time>2021-05-27T22:01:09Z</time>
      </trkpt>
      <trkpt lat="42.346545" lon="2.490082">
        <ele>1005.219</ele>
        <time>2021-05-27T22:01:13Z</time>
      </trkpt>
      <trkpt lat="42.346558" lon="2.490114">
        <ele>1004.508</ele>
        <time>2021-05-27T22:01:15Z</time>
      </trkpt>
      <trkpt lat="42.346584" lon="2.490152">
        <ele>1003.884</ele>
        <time>2021-05-27T22:01:18Z</time>
      </trkpt>
      <trkpt lat="42.346607" lon="2.490179">
        <ele>1003.381</ele>
        <time>2021-05-27T22:01:20Z</time>
      </trkpt>
      <trkpt lat="42.346616" lon="2.490205">
        <ele>1002.689</ele>
        <time>2021-05-27T22:01:22Z</time>
      </trkpt>
      <trkpt lat="42.346639" lon="2.490234">
        <ele>1002.039</ele>
        <time>2021-05-27T22:01:24Z</time>
      </trkpt>
      <trkpt lat="42.346670" lon="2.490259">
        <ele>1001.736</ele>
        <time>2021-05-27T22:01:26Z</time>
      </trkpt>
      <trkpt lat="42.346702" lon="2.490278">
        <ele>1001.221</ele>
        <time>2021-05-27T22:01:28Z</time>
      </trkpt>
      <trkpt lat="42.346725" lon="2.490288">
        <ele>1001.144</ele>
        <time>2021-05-27T22:01:30Z</time>
      </trkpt>
      <trkpt lat="42.346737" lon="2.490321">
        <ele>1000.290</ele>
        <time>2021-05-27T22:01:32Z</time>
      </trkpt>
      <trkpt lat="42.346753" lon="2.490341">
        <ele>999.744</ele>
        <time>2021-05-27T22:01:37Z</time>
      </trkpt>
      <trkpt lat="42.346774" lon="2.490369">
        <ele>999.005</ele>
        <time>2021-05-27T22:01:40Z</time>
      </trkpt>
      <trkpt lat="42.346791" lon="2.490394">
        <ele>998.415</ele>
        <time>2021-05-27T22:01:42Z</time>
      </trkpt>
      <trkpt lat="42.346846" lon="2.490406">
        <ele>998.308</ele>
        <time>2021-05-27T22:01:45Z</time>
      </trkpt>
      <trkpt lat="42.346881" lon="2.490441">
        <ele>997.431</ele>
        <time>2021-05-27T22:01:48Z</time>
      </trkpt>
      <trkpt lat="42.346907" lon="2.490463">
        <ele>996.838</ele>
        <time>2021-05-27T22:01:50Z</time>
      </trkpt>
      <trkpt lat="42.346930" lon="2.490482">
        <ele>996.396</ele>
        <time>2021-05-27T22:01:53Z</time>
      </trkpt>
      <trkpt lat="42.346956" lon="2.490497">
        <ele>996.176</ele>
        <time>2021-05-27T22:01:54Z</time>
      </trkpt>
      <trkpt lat="42.346982" lon="2.490516">
        <ele>996.013</ele>
        <time>2021-05-27T22:01:56Z</time>
      </trkpt>
      <trkpt lat="42.347017" lon="2.490541">
        <ele>995.898</ele>
        <time>2021-05-27T22:01:58Z</time>
      </trkpt>
      <trkpt lat="42.347039" lon="2.490556">
        <ele>995.731</ele>
        <time>2021-05-27T22:01:59Z</time>
      </trkpt>
      <trkpt lat="42.347061" lon="2.490575">
        <ele>995.517</ele>
        <time>2021-05-27T22:02:00Z</time>
      </trkpt>
      <trkpt lat="42.347083" lon="2.490582">
        <ele>995.759</ele>
        <time>2021-05-27T22:02:01Z</time>
      </trkpt>
      <trkpt lat="42.347106" lon="2.490586">
        <ele>996.003</ele>
        <time>2021-05-27T22:02:02Z</time>
      </trkpt>
      <trkpt lat="42.347130" lon="2.490593">
        <ele>996.223</ele>
        <time>2021-05-27T22:02:03Z</time>
      </trkpt>
      <trkpt lat="42.347148" lon="2.490600">
        <ele>996.308</ele>
        <time>2021-05-27T22:02:04Z</time>
      </trkpt>
      <trkpt lat="42.347175" lon="2.490630">
        <ele>995.882</ele>
        <time>2021-05-27T22:02:06Z</time>
      </trkpt>
      <trkpt lat="42.347190" lon="2.490647">
        <ele>995.529</ele>
        <time>2021-05-27T22:02:07Z</time>
      </trkpt>
      <trkpt lat="42.347215" lon="2.490678">
        <ele>994.977</ele>
        <time>2021-05-27T22:02:09Z</time>
      </trkpt>
      <trkpt lat="42.347247" lon="2.490716">
        <ele>994.237</ele>
        <time>2021-05-27T22:02:11Z</time>
      </trkpt>
      <trkpt lat="42.347299" lon="2.490775">
        <ele>993.114</ele>
        <time>2021-05-27T22:02:14Z</time>
      </trkpt>
      <trkpt lat="42.347332" lon="2.490810">
        <ele>992.429</ele>
        <time>2021-05-27T22:02:17Z</time>
      </trkpt>
      <trkpt lat="42.347355" lon="2.490838">
        <ele>991.882</ele>
        <time>2021-05-27T22:02:19Z</time>
      </trkpt>
      <trkpt lat="42.347375" lon="2.490861">
        <ele>991.358</ele>
        <time>2021-05-27T22:02:21Z</time>
      </trkpt>
      <trkpt lat="42.347392" lon="2.490882">
        <ele>990.878</ele>
        <time>2021-05-27T22:02:23Z</time>
      </trkpt>
      <trkpt lat="42.347409" lon="2.490899">
        <ele>990.533</ele>
        <time>2021-05-27T22:02:25Z</time>
      </trkpt>
      <trkpt lat="42.347428" lon="2.490903">
        <ele>990.626</ele>
        <time>2021-05-27T22:02:26Z</time>
      </trkpt>
      <trkpt lat="42.347447" lon="2.490901">
        <ele>990.908</ele>
        <time>2021-05-27T22:02:27Z</time>
      </trkpt>
      <trkpt lat="42.347551" lon="2.490958">
        <ele>990.124</ele>
        <time>2021-05-27T22:02:34Z</time>
      </trkpt>
      <trkpt lat="42.347616" lon="2.491046">
        <ele>987.961</ele>
        <time>2021-05-27T22:02:43Z</time>
      </trkpt>
      <trkpt lat="42.347628" lon="2.491066">
        <ele>987.489</ele>
        <time>2021-05-27T22:02:45Z</time>
      </trkpt>
      <trkpt lat="42.347641" lon="2.491086">
        <ele>986.999</ele>
        <time>2021-05-27T22:02:47Z</time>
      </trkpt>
      <trkpt lat="42.347665" lon="2.491108">
        <ele>986.566</ele>
        <time>2021-05-27T22:02:49Z</time>
      </trkpt>
      <trkpt lat="42.347684" lon="2.491117">
        <ele>986.591</ele>
        <time>2021-05-27T22:02:50Z</time>
      </trkpt>
      <trkpt lat="42.347717" lon="2.491121">
        <ele>986.854</ele>
        <time>2021-05-27T22:02:53Z</time>
      </trkpt>
      <trkpt lat="42.347734" lon="2.491144">
        <ele>986.310</ele>
        <time>2021-05-27T22:02:55Z</time>
      </trkpt>
      <trkpt lat="42.347752" lon="2.491161">
        <ele>985.996</ele>
        <time>2021-05-27T22:02:57Z</time>
      </trkpt>
      <trkpt lat="42.347765" lon="2.491177">
        <ele>985.531</ele>
        <time>2021-05-27T22:02:59Z</time>
      </trkpt>
      <trkpt lat="42.347795" lon="2.491191">
        <ele>985.124</ele>
        <time>2021-05-27T22:03:02Z</time>
      </trkpt>
      <trkpt lat="42.347824" lon="2.491201">
        <ele>984.808</ele>
        <time>2021-05-27T22:03:04Z</time>
      </trkpt>
      <trkpt lat="42.347843" lon="2.491216">
        <ele>984.386</ele>
        <time>2021-05-27T22:03:06Z</time>
      </trkpt>
      <trkpt lat="42.347864" lon="2.491237">
        <ele>983.693</ele>
        <time>2021-05-27T22:03:08Z</time>
      </trkpt>
      <trkpt lat="42.347880" lon="2.491262">
        <ele>982.841</ele>
        <time>2021-05-27T22:03:10Z</time>
      </trkpt>
      <trkpt lat="42.347883" lon="2.491289">
        <ele>981.941</ele>
        <time>2021-05-27T22:03:12Z</time>
      </trkpt>
      <trkpt lat="42.347898" lon="2.491301">
        <ele>981.698</ele>
        <time>2021-05-27T22:03:15Z</time>
      </trkpt>
      <trkpt lat="42.347919" lon="2.491312">
        <ele>981.453</ele>
        <time>2021-05-27T22:03:18Z</time>
      </trkpt>
      <trkpt lat="42.347938" lon="2.491317">
        <ele>981.346</ele>
        <time>2021-05-27T22:03:20Z</time>
      </trkpt>
      <trkpt lat="42.347956" lon="2.491320">
        <ele>981.312</ele>
        <time>2021-05-27T22:03:22Z</time>
      </trkpt>
      <trkpt lat="42.347978" lon="2.491304">
        <ele>981.893</ele>
        <time>2021-05-27T22:03:25Z</time>
      </trkpt>
      <trkpt lat="42.347996" lon="2.491293">
        <ele>982.265</ele>
        <time>2021-05-27T22:03:27Z</time>
      </trkpt>
      <trkpt lat="42.348013" lon="2.491281">
        <ele>982.621</ele>
        <time>2021-05-27T22:03:29Z</time>
      </trkpt>
      <trkpt lat="42.348031" lon="2.491251">
        <ele>983.408</ele>
        <time>2021-05-27T22:03:31Z</time>
      </trkpt>
      <trkpt lat="42.348045" lon="2.491233">
        <ele>983.976</ele>
        <time>2021-05-27T22:03:32Z</time>
      </trkpt>
      <trkpt lat="42.348098" lon="2.491186">
        <ele>984.983</ele>
        <time>2021-05-27T22:03:38Z</time>
      </trkpt>
      <trkpt lat="42.348122" lon="2.491197">
        <ele>984.521</ele>
        <time>2021-05-27T22:03:42Z</time>
      </trkpt>
      <trkpt lat="42.348141" lon="2.491219">
        <ele>984.011</ele>
        <time>2021-05-27T22:03:45Z</time>
      </trkpt>
      <trkpt lat="42.348160" lon="2.491235">
        <ele>983.688</ele>
        <time>2021-05-27T22:03:47Z</time>
      </trkpt>
      <trkpt lat="42.348165" lon="2.491261">
        <ele>983.173</ele>
        <time>2021-05-27T22:03:49Z</time>
      </trkpt>
      <trkpt lat="42.348170" lon="2.491288">
        <ele>982.676</ele>
        <time>2021-05-27T22:03:51Z</time>
      </trkpt>
      <trkpt lat="42.348172" lon="2.491314">
        <ele>982.222</ele>
        <time>2021-05-27T22:03:54Z</time>
      </trkpt>
      <trkpt lat="42.348159" lon="2.491337">
        <ele>981.778</ele>
        <time>2021-05-27T22:03:56Z</time>
      </trkpt>
      <trkpt lat="42.348151" lon="2.491368">
        <ele>981.133</ele>
        <time>2021-05-27T22:03:58Z</time>
      </trkpt>
      <trkpt lat="42.348147" lon="2.491410">
        <ele>980.226</ele>
        <time>2021-05-27T22:04:00Z</time>
      </trkpt>
      <trkpt lat="42.348151" lon="2.491446">
        <ele>979.408</ele>
        <time>2021-05-27T22:04:02Z</time>
      </trkpt>
      <trkpt lat="42.348159" lon="2.491477">
        <ele>978.814</ele>
        <time>2021-05-27T22:04:04Z</time>
      </trkpt>
      <trkpt lat="42.348152" lon="2.491508">
        <ele>978.011</ele>
        <time>2021-05-27T22:04:06Z</time>
      </trkpt>
      <trkpt lat="42.348148" lon="2.491533">
        <ele>977.419</ele>
        <time>2021-05-27T22:04:08Z</time>
      </trkpt>
      <trkpt lat="42.348153" lon="2.491562">
        <ele>976.899</ele>
        <time>2021-05-27T22:04:10Z</time>
      </trkpt>
      <trkpt lat="42.348163" lon="2.491596">
        <ele>976.366</ele>
        <time>2021-05-27T22:04:12Z</time>
      </trkpt>
      <trkpt lat="42.348165" lon="2.491621">
        <ele>975.791</ele>
        <time>2021-05-27T22:04:13Z</time>
      </trkpt>
      <trkpt lat="42.348172" lon="2.491667">
        <ele>974.954</ele>
        <time>2021-05-27T22:04:15Z</time>
      </trkpt>
      <trkpt lat="42.348176" lon="2.491696">
        <ele>974.620</ele>
        <time>2021-05-27T22:04:16Z</time>
      </trkpt>
      <trkpt lat="42.348183" lon="2.491720">
        <ele>974.443</ele>
        <time>2021-05-27T22:04:17Z</time>
      </trkpt>
      <trkpt lat="42.348189" lon="2.491744">
        <ele>974.264</ele>
        <time>2021-05-27T22:04:18Z</time>
      </trkpt>
      <trkpt lat="42.348181" lon="2.491781">
        <ele>973.510</ele>
        <time>2021-05-27T22:04:20Z</time>
      </trkpt>
      <trkpt lat="42.348181" lon="2.491811">
        <ele>973.108</ele>
        <time>2021-05-27T22:04:22Z</time>
      </trkpt>
      <trkpt lat="42.348195" lon="2.491848">
        <ele>972.921</ele>
        <time>2021-05-27T22:04:24Z</time>
      </trkpt>
      <trkpt lat="42.348195" lon="2.491890">
        <ele>972.388</ele>
        <time>2021-05-27T22:04:26Z</time>
      </trkpt>
      <trkpt lat="42.348190" lon="2.491928">
        <ele>971.666</ele>
        <time>2021-05-27T22:04:28Z</time>
      </trkpt>
      <trkpt lat="42.348195" lon="2.491962">
        <ele>971.316</ele>
        <time>2021-05-27T22:04:30Z</time>
      </trkpt>
      <trkpt lat="42.348207" lon="2.492000">
        <ele>971.283</ele>
        <time>2021-05-27T22:04:32Z</time>
      </trkpt>
      <trkpt lat="42.348223" lon="2.492030">
        <ele>971.268</ele>
        <time>2021-05-27T22:04:34Z</time>
      </trkpt>
      <trkpt lat="42.348232" lon="2.492061">
        <ele>971.061</ele>
        <time>2021-05-27T22:04:36Z</time>
      </trkpt>
      <trkpt lat="42.348244" lon="2.492104">
        <ele>970.637</ele>
        <time>2021-05-27T22:04:38Z</time>
      </trkpt>
      <trkpt lat="42.348256" lon="2.492133">
        <ele>970.484</ele>
        <time>2021-05-27T22:04:40Z</time>
      </trkpt>
      <trkpt lat="42.348262" lon="2.492160">
        <ele>970.107</ele>
        <time>2021-05-27T22:04:42Z</time>
      </trkpt>
      <trkpt lat="42.348257" lon="2.492194">
        <ele>969.617</ele>
        <time>2021-05-27T22:04:44Z</time>
      </trkpt>
      <trkpt lat="42.348312" lon="2.492321">
        <ele>968.508</ele>
        <time>2021-05-27T22:04:50Z</time>
      </trkpt>
      <trkpt lat="42.348336" lon="2.492359">
        <ele>968.145</ele>
        <time>2021-05-27T22:04:52Z</time>
      </trkpt>
      <trkpt lat="42.348353" lon="2.492386">
        <ele>968.162</ele>
        <time>2021-05-27T22:04:54Z</time>
      </trkpt>
      <trkpt lat="42.348359" lon="2.492415">
        <ele>967.860</ele>
        <time>2021-05-27T22:04:56Z</time>
      </trkpt>
      <trkpt lat="42.348363" lon="2.492450">
        <ele>967.440</ele>
        <time>2021-05-27T22:04:58Z</time>
      </trkpt>
      <trkpt lat="42.348361" lon="2.492477">
        <ele>966.947</ele>
        <time>2021-05-27T22:05:00Z</time>
      </trkpt>
      <trkpt lat="42.348372" lon="2.492512">
        <ele>966.722</ele>
        <time>2021-05-27T22:05:02Z</time>
      </trkpt>
      <trkpt lat="42.348385" lon="2.492547">
        <ele>966.425</ele>
        <time>2021-05-27T22:05:04Z</time>
      </trkpt>
      <trkpt lat="42.348394" lon="2.492569">
        <ele>966.331</ele>
        <time>2021-05-27T22:05:05Z</time>
      </trkpt>
      <trkpt lat="42.348404" lon="2.492592">
        <ele>966.262</ele>
        <time>2021-05-27T22:05:06Z</time>
      </trkpt>
      <trkpt lat="42.348414" lon="2.492626">
        <ele>965.983</ele>
        <time>2021-05-27T22:05:08Z</time>
      </trkpt>
      <trkpt lat="42.348417" lon="2.492658">
        <ele>965.511</ele>
        <time>2021-05-27T22:05:10Z</time>
      </trkpt>
      <trkpt lat="42.348432" lon="2.492687">
        <ele>965.408</ele>
        <time>2021-05-27T22:05:12Z</time>
      </trkpt>
      <trkpt lat="42.348441" lon="2.492725">
        <ele>965.173</ele>
        <time>2021-05-27T22:05:14Z</time>
      </trkpt>
      <trkpt lat="42.348457" lon="2.492759">
        <ele>964.950</ele>
        <time>2021-05-27T22:05:16Z</time>
      </trkpt>
      <trkpt lat="42.348470" lon="2.492794">
        <ele>964.828</ele>
        <time>2021-05-27T22:05:18Z</time>
      </trkpt>
      <trkpt lat="42.348475" lon="2.492841">
        <ele>964.618</ele>
        <time>2021-05-27T22:05:20Z</time>
      </trkpt>
      <trkpt lat="42.348479" lon="2.492868">
        <ele>964.575</ele>
        <time>2021-05-27T22:05:21Z</time>
      </trkpt>
      <trkpt lat="42.348486" lon="2.492914">
        <ele>964.340</ele>
        <time>2021-05-27T22:05:23Z</time>
      </trkpt>
      <trkpt lat="42.348491" lon="2.492939">
        <ele>964.223</ele>
        <time>2021-05-27T22:05:24Z</time>
      </trkpt>
      <trkpt lat="42.348493" lon="2.492963">
        <ele>964.189</ele>
        <time>2021-05-27T22:05:25Z</time>
      </trkpt>
      <trkpt lat="42.348500" lon="2.492987">
        <ele>964.131</ele>
        <time>2021-05-27T22:05:26Z</time>
      </trkpt>
      <trkpt lat="42.348505" lon="2.493013">
        <ele>964.061</ele>
        <time>2021-05-27T22:05:27Z</time>
      </trkpt>
      <trkpt lat="42.348506" lon="2.493052">
        <ele>963.807</ele>
        <time>2021-05-27T22:05:29Z</time>
      </trkpt>
      <trkpt lat="42.348504" lon="2.493098">
        <ele>963.208</ele>
        <time>2021-05-27T22:05:31Z</time>
      </trkpt>
      <trkpt lat="42.348505" lon="2.493129">
        <ele>962.970</ele>
        <time>2021-05-27T22:05:32Z</time>
      </trkpt>
      <trkpt lat="42.348514" lon="2.493169">
        <ele>962.747</ele>
        <time>2021-05-27T22:05:34Z</time>
      </trkpt>
      <trkpt lat="42.348520" lon="2.493214">
        <ele>962.365</ele>
        <time>2021-05-27T22:05:36Z</time>
      </trkpt>
      <trkpt lat="42.348523" lon="2.493258">
        <ele>961.985</ele>
        <time>2021-05-27T22:05:38Z</time>
      </trkpt>
      <trkpt lat="42.348531" lon="2.493283">
        <ele>961.842</ele>
        <time>2021-05-27T22:05:39Z</time>
      </trkpt>
      <trkpt lat="42.348541" lon="2.493303">
        <ele>961.887</ele>
        <time>2021-05-27T22:05:40Z</time>
      </trkpt>
      <trkpt lat="42.348559" lon="2.493339">
        <ele>961.880</ele>
        <time>2021-05-27T22:05:42Z</time>
      </trkpt>
      <trkpt lat="42.348562" lon="2.493366">
        <ele>961.646</ele>
        <time>2021-05-27T22:05:43Z</time>
      </trkpt>
      <trkpt lat="42.348564" lon="2.493396">
        <ele>961.364</ele>
        <time>2021-05-27T22:05:44Z</time>
      </trkpt>
      <trkpt lat="42.348568" lon="2.493423">
        <ele>961.106</ele>
        <time>2021-05-27T22:05:45Z</time>
      </trkpt>
      <trkpt lat="42.348574" lon="2.493449">
        <ele>961.016</ele>
        <time>2021-05-27T22:05:46Z</time>
      </trkpt>
      <trkpt lat="42.348578" lon="2.493477">
        <ele>960.808</ele>
        <time>2021-05-27T22:05:47Z</time>
      </trkpt>
      <trkpt lat="42.348581" lon="2.493505">
        <ele>960.643</ele>
        <time>2021-05-27T22:05:48Z</time>
      </trkpt>
      <trkpt lat="42.348590" lon="2.493528">
        <ele>960.520</ele>
        <time>2021-05-27T22:05:49Z</time>
      </trkpt>
      <trkpt lat="42.348599" lon="2.493551">
        <ele>960.478</ele>
        <time>2021-05-27T22:05:50Z</time>
      </trkpt>
      <trkpt lat="42.348613" lon="2.493576">
        <ele>960.478</ele>
        <time>2021-05-27T22:05:51Z</time>
      </trkpt>
      <trkpt lat="42.348625" lon="2.493597">
        <ele>960.465</ele>
        <time>2021-05-27T22:05:52Z</time>
      </trkpt>
      <trkpt lat="42.348640" lon="2.493618">
        <ele>960.430</ele>
        <time>2021-05-27T22:05:53Z</time>
      </trkpt>
      <trkpt lat="42.348650" lon="2.493641">
        <ele>960.463</ele>
        <time>2021-05-27T22:05:54Z</time>
      </trkpt>
      <trkpt lat="42.348660" lon="2.493666">
        <ele>960.399</ele>
        <time>2021-05-27T22:05:55Z</time>
      </trkpt>
      <trkpt lat="42.348668" lon="2.493692">
        <ele>960.145</ele>
        <time>2021-05-27T22:05:56Z</time>
      </trkpt>
      <trkpt lat="42.348679" lon="2.493717">
        <ele>960.147</ele>
        <time>2021-05-27T22:05:57Z</time>
      </trkpt>
      <trkpt lat="42.348688" lon="2.493741">
        <ele>960.011</ele>
        <time>2021-05-27T22:05:58Z</time>
      </trkpt>
      <trkpt lat="42.348699" lon="2.493763">
        <ele>959.908</ele>
        <time>2021-05-27T22:05:59Z</time>
      </trkpt>
      <trkpt lat="42.348712" lon="2.493785">
        <ele>959.911</ele>
        <time>2021-05-27T22:06:00Z</time>
      </trkpt>
      <trkpt lat="42.348720" lon="2.493812">
        <ele>959.828</ele>
        <time>2021-05-27T22:06:01Z</time>
      </trkpt>
      <trkpt lat="42.348722" lon="2.493837">
        <ele>959.666</ele>
        <time>2021-05-27T22:06:02Z</time>
      </trkpt>
      <trkpt lat="42.348727" lon="2.493866">
        <ele>959.396</ele>
        <time>2021-05-27T22:06:03Z</time>
      </trkpt>
      <trkpt lat="42.348738" lon="2.493895">
        <ele>959.273</ele>
        <time>2021-05-27T22:06:04Z</time>
      </trkpt>
      <trkpt lat="42.348754" lon="2.493933">
        <ele>959.328</ele>
        <time>2021-05-27T22:06:06Z</time>
      </trkpt>
      <trkpt lat="42.348765" lon="2.493971">
        <ele>959.241</ele>
        <time>2021-05-27T22:06:08Z</time>
      </trkpt>
      <trkpt lat="42.348779" lon="2.494003">
        <ele>959.297</ele>
        <time>2021-05-27T22:06:10Z</time>
      </trkpt>
      <trkpt lat="42.348793" lon="2.494023">
        <ele>959.366</ele>
        <time>2021-05-27T22:06:11Z</time>
      </trkpt>
      <trkpt lat="42.348802" lon="2.494046">
        <ele>959.329</ele>
        <time>2021-05-27T22:06:12Z</time>
      </trkpt>
      <trkpt lat="42.348817" lon="2.494080">
        <ele>959.321</ele>
        <time>2021-05-27T22:06:14Z</time>
      </trkpt>
      <trkpt lat="42.348870" lon="2.494215">
        <ele>959.008</ele>
        <time>2021-05-27T22:06:19Z</time>
      </trkpt>
      <trkpt lat="42.348932" lon="2.494319">
        <ele>958.353</ele>
        <time>2021-05-27T22:06:25Z</time>
      </trkpt>
      <trkpt lat="42.348965" lon="2.494334">
        <ele>958.540</ele>
        <time>2021-05-27T22:06:27Z</time>
      </trkpt>
      <trkpt lat="42.348987" lon="2.494344">
        <ele>958.648</ele>
        <time>2021-05-27T22:06:29Z</time>
      </trkpt>
      <trkpt lat="42.349013" lon="2.494361">
        <ele>958.728</ele>
        <time>2021-05-27T22:06:31Z</time>
      </trkpt>
      <trkpt lat="42.349034" lon="2.494373">
        <ele>958.985</ele>
        <time>2021-05-27T22:06:33Z</time>
      </trkpt>
      <trkpt lat="42.349070" lon="2.494435">
        <ele>958.760</ele>
        <time>2021-05-27T22:06:41Z</time>
      </trkpt>
      <trkpt lat="42.349074" lon="2.494463">
        <ele>958.513</ele>
        <time>2021-05-27T22:06:43Z</time>
      </trkpt>
      <trkpt lat="42.349051" lon="2.494471">
        <ele>958.129</ele>
        <time>2021-05-27T22:06:45Z</time>
      </trkpt>
      <trkpt lat="42.349033" lon="2.494493">
        <ele>957.758</ele>
        <time>2021-05-27T22:06:49Z</time>
      </trkpt>
      <trkpt lat="42.349018" lon="2.494510">
        <ele>957.452</ele>
        <time>2021-05-27T22:06:51Z</time>
      </trkpt>
      <trkpt lat="42.349000" lon="2.494528">
        <ele>957.017</ele>
        <time>2021-05-27T22:06:54Z</time>
      </trkpt>
      <trkpt lat="42.348997" lon="2.494566">
        <ele>956.708</ele>
        <time>2021-05-27T22:06:56Z</time>
      </trkpt>
      <trkpt lat="42.349012" lon="2.494606">
        <ele>956.682</ele>
        <time>2021-05-27T22:06:58Z</time>
      </trkpt>
      <trkpt lat="42.349021" lon="2.494628">
        <ele>956.679</ele>
        <time>2021-05-27T22:06:59Z</time>
      </trkpt>
      <trkpt lat="42.349046" lon="2.494664">
        <ele>956.737</ele>
        <time>2021-05-27T22:07:01Z</time>
      </trkpt>
      <trkpt lat="42.349065" lon="2.494697">
        <ele>956.727</ele>
        <time>2021-05-27T22:07:03Z</time>
      </trkpt>
      <trkpt lat="42.349088" lon="2.494731">
        <ele>956.894</ele>
        <time>2021-05-27T22:07:05Z</time>
      </trkpt>
      <trkpt lat="42.349092" lon="2.494756">
        <ele>956.589</ele>
        <time>2021-05-27T22:07:06Z</time>
      </trkpt>
      <trkpt lat="42.349108" lon="2.494796">
        <ele>956.162</ele>
        <time>2021-05-27T22:07:08Z</time>
      </trkpt>
      <trkpt lat="42.349119" lon="2.494826">
        <ele>955.988</ele>
        <time>2021-05-27T22:07:09Z</time>
      </trkpt>
      <trkpt lat="42.349127" lon="2.494853">
        <ele>955.617</ele>
        <time>2021-05-27T22:07:10Z</time>
      </trkpt>
      <trkpt lat="42.349143" lon="2.494886">
        <ele>955.487</ele>
        <time>2021-05-27T22:07:12Z</time>
      </trkpt>
      <trkpt lat="42.349144" lon="2.494919">
        <ele>954.915</ele>
        <time>2021-05-27T22:07:14Z</time>
      </trkpt>
      <trkpt lat="42.349147" lon="2.494951">
        <ele>954.508</ele>
        <time>2021-05-27T22:07:16Z</time>
      </trkpt>
      <trkpt lat="42.349166" lon="2.494997">
        <ele>954.058</ele>
        <time>2021-05-27T22:07:18Z</time>
      </trkpt>
      <trkpt lat="42.349182" lon="2.495019">
        <ele>953.995</ele>
        <time>2021-05-27T22:07:19Z</time>
      </trkpt>
      <trkpt lat="42.349193" lon="2.495039">
        <ele>953.893</ele>
        <time>2021-05-27T22:07:20Z</time>
      </trkpt>
      <trkpt lat="42.349202" lon="2.495065">
        <ele>953.693</ele>
        <time>2021-05-27T22:07:21Z</time>
      </trkpt>
      <trkpt lat="42.349207" lon="2.495089">
        <ele>953.360</ele>
        <time>2021-05-27T22:07:22Z</time>
      </trkpt>
      <trkpt lat="42.349222" lon="2.495134">
        <ele>952.965</ele>
        <time>2021-05-27T22:07:24Z</time>
      </trkpt>
      <trkpt lat="42.349236" lon="2.495160">
        <ele>952.748</ele>
        <time>2021-05-27T22:07:25Z</time>
      </trkpt>
      <trkpt lat="42.349253" lon="2.495205">
        <ele>952.394</ele>
        <time>2021-05-27T22:07:27Z</time>
      </trkpt>
      <trkpt lat="42.349264" lon="2.495233">
        <ele>952.079</ele>
        <time>2021-05-27T22:07:28Z</time>
      </trkpt>
      <trkpt lat="42.349274" lon="2.495258">
        <ele>951.805</ele>
        <time>2021-05-27T22:07:29Z</time>
      </trkpt>
      <trkpt lat="42.349284" lon="2.495286">
        <ele>951.625</ele>
        <time>2021-05-27T22:07:30Z</time>
      </trkpt>
      <trkpt lat="42.349298" lon="2.495312">
        <ele>951.408</ele>
        <time>2021-05-27T22:07:31Z</time>
      </trkpt>
      <trkpt lat="42.349311" lon="2.495329">
        <ele>951.324</ele>
        <time>2021-05-27T22:07:32Z</time>
      </trkpt>
      <trkpt lat="42.349325" lon="2.495348">
        <ele>951.291</ele>
        <time>2021-05-27T22:07:33Z</time>
      </trkpt>
      <trkpt lat="42.349344" lon="2.495365">
        <ele>951.249</ele>
        <time>2021-05-27T22:07:34Z</time>
      </trkpt>
      <trkpt lat="42.349362" lon="2.495398">
        <ele>950.969</ele>
        <time>2021-05-27T22:07:36Z</time>
      </trkpt>
      <trkpt lat="42.349361" lon="2.495422">
        <ele>950.526</ele>
        <time>2021-05-27T22:07:37Z</time>
      </trkpt>
      <trkpt lat="42.349371" lon="2.495452">
        <ele>950.131</ele>
        <time>2021-05-27T22:07:39Z</time>
      </trkpt>
      <trkpt lat="42.349402" lon="2.495474">
        <ele>950.124</ele>
        <time>2021-05-27T22:07:41Z</time>
      </trkpt>
      <trkpt lat="42.349420" lon="2.495491">
        <ele>949.910</ele>
        <time>2021-05-27T22:07:43Z</time>
      </trkpt>
      <trkpt lat="42.349446" lon="2.495505">
        <ele>949.949</ele>
        <time>2021-05-27T22:07:45Z</time>
      </trkpt>
      <trkpt lat="42.349469" lon="2.495529">
        <ele>950.002</ele>
        <time>2021-05-27T22:07:47Z</time>
      </trkpt>
      <trkpt lat="42.349482" lon="2.495553">
        <ele>949.922</ele>
        <time>2021-05-27T22:07:49Z</time>
      </trkpt>
      <trkpt lat="42.349491" lon="2.495588">
        <ele>949.408</ele>
        <time>2021-05-27T22:07:51Z</time>
      </trkpt>
      <trkpt lat="42.349503" lon="2.495621">
        <ele>949.171</ele>
        <time>2021-05-27T22:07:53Z</time>
      </trkpt>
      <trkpt lat="42.349518" lon="2.495666">
        <ele>948.688</ele>
        <time>2021-05-27T22:07:55Z</time>
      </trkpt>
      <trkpt lat="42.349533" lon="2.495693">
        <ele>948.466</ele>
        <time>2021-05-27T22:07:56Z</time>
      </trkpt>
      <trkpt lat="42.349545" lon="2.495716">
        <ele>948.326</ele>
        <time>2021-05-27T22:07:57Z</time>
      </trkpt>
      <trkpt lat="42.349565" lon="2.495749">
        <ele>948.113</ele>
        <time>2021-05-27T22:07:59Z</time>
      </trkpt>
      <trkpt lat="42.349580" lon="2.495763">
        <ele>948.248</ele>
        <time>2021-05-27T22:08:00Z</time>
      </trkpt>
      <trkpt lat="42.349597" lon="2.495782">
        <ele>948.211</ele>
        <time>2021-05-27T22:08:01Z</time>
      </trkpt>
      <trkpt lat="42.349616" lon="2.495809">
        <ele>948.187</ele>
        <time>2021-05-27T22:08:03Z</time>
      </trkpt>
      <trkpt lat="42.349634" lon="2.495833">
        <ele>948.165</ele>
        <time>2021-05-27T22:08:05Z</time>
      </trkpt>
      <trkpt lat="42.349650" lon="2.495848">
        <ele>948.268</ele>
        <time>2021-05-27T22:08:07Z</time>
      </trkpt>
      <trkpt lat="42.349650" lon="2.495876">
        <ele>947.714</ele>
        <time>2021-05-27T22:08:09Z</time>
      </trkpt>
      <trkpt lat="42.349645" lon="2.495916">
        <ele>946.808</ele>
        <time>2021-05-27T22:08:11Z</time>
      </trkpt>
      <trkpt lat="42.349655" lon="2.495954">
        <ele>946.433</ele>
        <time>2021-05-27T22:08:13Z</time>
      </trkpt>
      <trkpt lat="42.349670" lon="2.496010">
        <ele>945.950</ele>
        <time>2021-05-27T22:08:16Z</time>
      </trkpt>
      <trkpt lat="42.349675" lon="2.496034">
        <ele>945.648</ele>
        <time>2021-05-27T22:08:18Z</time>
      </trkpt>
      <trkpt lat="42.349677" lon="2.496085">
        <ele>944.858</ele>
        <time>2021-05-27T22:08:20Z</time>
      </trkpt>
      <trkpt lat="42.349684" lon="2.496118">
        <ele>944.615</ele>
        <time>2021-05-27T22:08:22Z</time>
      </trkpt>
      <trkpt lat="42.349697" lon="2.496145">
        <ele>944.820</ele>
        <time>2021-05-27T22:08:24Z</time>
      </trkpt>
      <trkpt lat="42.349704" lon="2.496176">
        <ele>944.863</ele>
        <time>2021-05-27T22:08:26Z</time>
      </trkpt>
      <trkpt lat="42.349704" lon="2.496209">
        <ele>944.699</ele>
        <time>2021-05-27T22:08:28Z</time>
      </trkpt>
      <trkpt lat="42.349704" lon="2.496235">
        <ele>944.482</ele>
        <time>2021-05-27T22:08:29Z</time>
      </trkpt>
      <trkpt lat="42.349709" lon="2.496266">
        <ele>944.443</ele>
        <time>2021-05-27T22:08:31Z</time>
      </trkpt>
      <trkpt lat="42.349720" lon="2.496292">
        <ele>944.617</ele>
        <time>2021-05-27T22:08:33Z</time>
      </trkpt>
      <trkpt lat="42.349734" lon="2.496324">
        <ele>944.808</ele>
        <time>2021-05-27T22:08:35Z</time>
      </trkpt>
      <trkpt lat="42.349757" lon="2.496361">
        <ele>945.195</ele>
        <time>2021-05-27T22:08:37Z</time>
      </trkpt>
      <trkpt lat="42.349773" lon="2.496395">
        <ele>945.292</ele>
        <time>2021-05-27T22:08:39Z</time>
      </trkpt>
      <trkpt lat="42.349780" lon="2.496421">
        <ele>945.170</ele>
        <time>2021-05-27T22:08:41Z</time>
      </trkpt>
      <trkpt lat="42.349783" lon="2.496458">
        <ele>944.890</ele>
        <time>2021-05-27T22:08:43Z</time>
      </trkpt>
      <trkpt lat="42.349794" lon="2.496494">
        <ele>944.737</ele>
        <time>2021-05-27T22:08:45Z</time>
      </trkpt>
      <trkpt lat="42.349796" lon="2.496534">
        <ele>944.322</ele>
        <time>2021-05-27T22:08:47Z</time>
      </trkpt>
      <trkpt lat="42.349784" lon="2.496569">
        <ele>943.665</ele>
        <time>2021-05-27T22:08:49Z</time>
      </trkpt>
      <trkpt lat="42.349779" lon="2.496611">
        <ele>943.091</ele>
        <time>2021-05-27T22:08:51Z</time>
      </trkpt>
      <trkpt lat="42.349779" lon="2.496640">
        <ele>942.789</ele>
        <time>2021-05-27T22:08:52Z</time>
      </trkpt>
      <trkpt lat="42.349773" lon="2.496680">
        <ele>942.006</ele>
        <time>2021-05-27T22:08:54Z</time>
      </trkpt>
      <trkpt lat="42.349767" lon="2.496731">
        <ele>940.926</ele>
        <time>2021-05-27T22:08:56Z</time>
      </trkpt>
      <trkpt lat="42.349770" lon="2.496757">
        <ele>940.408</ele>
        <time>2021-05-27T22:08:57Z</time>
      </trkpt>
      <trkpt lat="42.349791" lon="2.496797">
        <ele>940.345</ele>
        <time>2021-05-27T22:08:59Z</time>
      </trkpt>
      <trkpt lat="42.349805" lon="2.496818">
        <ele>940.372</ele>
        <time>2021-05-27T22:09:00Z</time>
      </trkpt>
      <trkpt lat="42.349813" lon="2.496845">
        <ele>940.190</ele>
        <time>2021-05-27T22:09:01Z</time>
      </trkpt>
      <trkpt lat="42.349826" lon="2.496874">
        <ele>940.030</ele>
        <time>2021-05-27T22:09:02Z</time>
      </trkpt>
      <trkpt lat="42.349842" lon="2.496895">
        <ele>940.187</ele>
        <time>2021-05-27T22:09:03Z</time>
      </trkpt>
      <trkpt lat="42.349854" lon="2.496913">
        <ele>940.382</ele>
        <time>2021-05-27T22:09:04Z</time>
      </trkpt>
      <trkpt lat="42.349865" lon="2.496940">
        <ele>940.255</ele>
        <time>2021-05-27T22:09:05Z</time>
      </trkpt>
      <trkpt lat="42.349865" lon="2.496966">
        <ele>939.981</ele>
        <time>2021-05-27T22:09:06Z</time>
      </trkpt>
      <trkpt lat="42.349867" lon="2.496992">
        <ele>939.788</ele>
        <time>2021-05-27T22:09:07Z</time>
      </trkpt>
      <trkpt lat="42.349872" lon="2.497029">
        <ele>939.524</ele>
        <time>2021-05-27T22:09:09Z</time>
      </trkpt>
      <trkpt lat="42.349872" lon="2.497059">
        <ele>939.226</ele>
        <time>2021-05-27T22:09:13Z</time>
      </trkpt>
      <trkpt lat="42.349864" lon="2.497087">
        <ele>938.608</ele>
        <time>2021-05-27T22:09:14Z</time>
      </trkpt>
      <trkpt lat="42.349851" lon="2.497123">
        <ele>937.725</ele>
        <time>2021-05-27T22:09:16Z</time>
      </trkpt>
      <trkpt lat="42.349848" lon="2.497154">
        <ele>937.292</ele>
        <time>2021-05-27T22:09:19Z</time>
      </trkpt>
      <trkpt lat="42.349863" lon="2.497172">
        <ele>937.680</ele>
        <time>2021-05-27T22:09:21Z</time>
      </trkpt>
      <trkpt lat="42.349859" lon="2.497205">
        <ele>937.160</ele>
        <time>2021-05-27T22:09:24Z</time>
      </trkpt>
      <trkpt lat="42.349869" lon="2.497240">
        <ele>937.127</ele>
        <time>2021-05-27T22:09:27Z</time>
      </trkpt>
      <trkpt lat="42.349876" lon="2.497280">
        <ele>937.082</ele>
        <time>2021-05-27T22:09:29Z</time>
      </trkpt>
      <trkpt lat="42.349880" lon="2.497318">
        <ele>936.895</ele>
        <time>2021-05-27T22:09:31Z</time>
      </trkpt>
      <trkpt lat="42.349878" lon="2.497343">
        <ele>936.451</ele>
        <time>2021-05-27T22:09:32Z</time>
      </trkpt>
      <trkpt lat="42.349875" lon="2.497370">
        <ele>936.094</ele>
        <time>2021-05-27T22:09:33Z</time>
      </trkpt>
      <trkpt lat="42.349875" lon="2.497397">
        <ele>935.757</ele>
        <time>2021-05-27T22:09:34Z</time>
      </trkpt>
      <trkpt lat="42.349881" lon="2.497441">
        <ele>935.522</ele>
        <time>2021-05-27T22:09:36Z</time>
      </trkpt>
      <trkpt lat="42.349885" lon="2.497469">
        <ele>935.408</ele>
        <time>2021-05-27T22:09:37Z</time>
      </trkpt>
      <trkpt lat="42.349896" lon="2.497502">
        <ele>935.536</ele>
        <time>2021-05-27T22:09:39Z</time>
      </trkpt>
      <trkpt lat="42.349905" lon="2.497533">
        <ele>935.413</ele>
        <time>2021-05-27T22:09:41Z</time>
      </trkpt>
      <trkpt lat="42.349919" lon="2.497577">
        <ele>935.441</ele>
        <time>2021-05-27T22:09:43Z</time>
      </trkpt>
      <trkpt lat="42.349928" lon="2.497636">
        <ele>935.071</ele>
        <time>2021-05-27T22:09:45Z</time>
      </trkpt>
      <trkpt lat="42.349934" lon="2.497669">
        <ele>934.938</ele>
        <time>2021-05-27T22:09:46Z</time>
      </trkpt>
      <trkpt lat="42.349935" lon="2.497695">
        <ele>934.673</ele>
        <time>2021-05-27T22:09:47Z</time>
      </trkpt>
      <trkpt lat="42.349951" lon="2.497743">
        <ele>934.876</ele>
        <time>2021-05-27T22:09:49Z</time>
      </trkpt>
      <trkpt lat="42.349956" lon="2.497767">
        <ele>934.862</ele>
        <time>2021-05-27T22:09:50Z</time>
      </trkpt>
      <trkpt lat="42.349964" lon="2.497793">
        <ele>935.065</ele>
        <time>2021-05-27T22:09:51Z</time>
      </trkpt>
      <trkpt lat="42.349973" lon="2.497816">
        <ele>935.368</ele>
        <time>2021-05-27T22:09:52Z</time>
      </trkpt>
      <trkpt lat="42.349984" lon="2.497841">
        <ele>935.814</ele>
        <time>2021-05-27T22:09:53Z</time>
      </trkpt>
      <trkpt lat="42.349999" lon="2.497864">
        <ele>936.308</ele>
        <time>2021-05-27T22:09:54Z</time>
      </trkpt>
      <trkpt lat="42.350012" lon="2.497889">
        <ele>936.643</ele>
        <time>2021-05-27T22:09:55Z</time>
      </trkpt>
      <trkpt lat="42.350023" lon="2.497915">
        <ele>936.760</ele>
        <time>2021-05-27T22:09:56Z</time>
      </trkpt>
      <trkpt lat="42.350056" lon="2.498005">
        <ele>937.068</ele>
        <time>2021-05-27T22:10:00Z</time>
      </trkpt>
      <trkpt lat="42.350068" lon="2.498042">
        <ele>937.188</ele>
        <time>2021-05-27T22:10:02Z</time>
      </trkpt>
      <trkpt lat="42.350081" lon="2.498061">
        <ele>937.355</ele>
        <time>2021-05-27T22:10:04Z</time>
      </trkpt>
      <trkpt lat="42.350086" lon="2.498094">
        <ele>937.070</ele>
        <time>2021-05-27T22:10:06Z</time>
      </trkpt>
      <trkpt lat="42.350078" lon="2.498136">
        <ele>936.253</ele>
        <time>2021-05-27T22:10:08Z</time>
      </trkpt>
      <trkpt lat="42.350075" lon="2.498168">
        <ele>935.799</ele>
        <time>2021-05-27T22:10:10Z</time>
      </trkpt>
      <trkpt lat="42.350076" lon="2.498202">
        <ele>935.328</ele>
        <time>2021-05-27T22:10:12Z</time>
      </trkpt>
      <trkpt lat="42.350080" lon="2.498245">
        <ele>934.989</ele>
        <time>2021-05-27T22:10:14Z</time>
      </trkpt>
      <trkpt lat="42.350092" lon="2.498282">
        <ele>934.717</ele>
        <time>2021-05-27T22:10:16Z</time>
      </trkpt>
      <trkpt lat="42.350101" lon="2.498314">
        <ele>934.408</ele>
        <time>2021-05-27T22:10:18Z</time>
      </trkpt>
      <trkpt lat="42.350117" lon="2.498344">
        <ele>934.449</ele>
        <time>2021-05-27T22:10:20Z</time>
      </trkpt>
      <trkpt lat="42.350130" lon="2.498381">
        <ele>934.266</ele>
        <time>2021-05-27T22:10:22Z</time>
      </trkpt>
      <trkpt lat="42.350144" lon="2.498428">
        <ele>933.954</ele>
        <time>2021-05-27T22:10:24Z</time>
      </trkpt>
      <trkpt lat="42.350149" lon="2.498457">
        <ele>933.664</ele>
        <time>2021-05-27T22:10:25Z</time>
      </trkpt>
      <trkpt lat="42.350177" lon="2.498560">
        <ele>932.941</ele>
        <time>2021-05-27T22:10:29Z</time>
      </trkpt>
      <trkpt lat="42.350181" lon="2.498584">
        <ele>932.666</ele>
        <time>2021-05-27T22:10:30Z</time>
      </trkpt>
      <trkpt lat="42.350187" lon="2.498625">
        <ele>932.239</ele>
        <time>2021-05-27T22:10:32Z</time>
      </trkpt>
      <trkpt lat="42.350199" lon="2.498660">
        <ele>932.145</ele>
        <time>2021-05-27T22:10:34Z</time>
      </trkpt>
      <trkpt lat="42.350203" lon="2.498698">
        <ele>931.757</ele>
        <time>2021-05-27T22:10:36Z</time>
      </trkpt>
      <trkpt lat="42.350212" lon="2.498730">
        <ele>931.500</ele>
        <time>2021-05-27T22:10:38Z</time>
      </trkpt>
      <trkpt lat="42.350218" lon="2.498756">
        <ele>931.420</ele>
        <time>2021-05-27T22:10:40Z</time>
      </trkpt>
      <trkpt lat="42.350217" lon="2.498791">
        <ele>931.008</ele>
        <time>2021-05-27T22:10:42Z</time>
      </trkpt>
      <trkpt lat="42.350232" lon="2.498825">
        <ele>930.982</ele>
        <time>2021-05-27T22:10:44Z</time>
      </trkpt>
      <trkpt lat="42.350250" lon="2.498858">
        <ele>930.839</ele>
        <time>2021-05-27T22:10:46Z</time>
      </trkpt>
      <trkpt lat="42.350263" lon="2.498877">
        <ele>930.977</ele>
        <time>2021-05-27T22:10:47Z</time>
      </trkpt>
      <trkpt lat="42.350284" lon="2.498916">
        <ele>930.967</ele>
        <time>2021-05-27T22:10:49Z</time>
      </trkpt>
      <trkpt lat="42.350294" lon="2.498939">
        <ele>930.914</ele>
        <time>2021-05-27T22:10:50Z</time>
      </trkpt>
      <trkpt lat="42.350309" lon="2.498983">
        <ele>930.819</ele>
        <time>2021-05-27T22:10:52Z</time>
      </trkpt>
      <trkpt lat="42.350317" lon="2.499007">
        <ele>930.872</ele>
        <time>2021-05-27T22:10:53Z</time>
      </trkpt>
      <trkpt lat="42.350327" lon="2.499029">
        <ele>930.888</ele>
        <time>2021-05-27T22:10:54Z</time>
      </trkpt>
      <trkpt lat="42.350333" lon="2.499053">
        <ele>930.718</ele>
        <time>2021-05-27T22:10:55Z</time>
      </trkpt>
      <trkpt lat="42.350339" lon="2.499080">
        <ele>930.598</ele>
        <time>2021-05-27T22:10:56Z</time>
      </trkpt>
      <trkpt lat="42.350346" lon="2.499106">
        <ele>930.417</ele>
        <time>2021-05-27T22:10:57Z</time>
      </trkpt>
      <trkpt lat="42.350355" lon="2.499126">
        <ele>930.408</ele>
        <time>2021-05-27T22:10:58Z</time>
      </trkpt>
      <trkpt lat="42.350375" lon="2.499173">
        <ele>930.448</ele>
        <time>2021-05-27T22:11:00Z</time>
      </trkpt>
      <trkpt lat="42.350386" lon="2.499195">
        <ele>930.485</ele>
        <time>2021-05-27T22:11:01Z</time>
      </trkpt>
      <trkpt lat="42.350411" lon="2.499233">
        <ele>930.523</ele>
        <time>2021-05-27T22:11:03Z</time>
      </trkpt>
      <trkpt lat="42.350432" lon="2.499267">
        <ele>930.643</ele>
        <time>2021-05-27T22:11:05Z</time>
      </trkpt>
      <trkpt lat="42.350439" lon="2.499291">
        <ele>930.580</ele>
        <time>2021-05-27T22:11:06Z</time>
      </trkpt>
      <trkpt lat="42.350448" lon="2.499315">
        <ele>930.485</ele>
        <time>2021-05-27T22:11:07Z</time>
      </trkpt>
      <trkpt lat="42.350458" lon="2.499337">
        <ele>930.348</ele>
        <time>2021-05-27T22:11:08Z</time>
      </trkpt>
      <trkpt lat="42.350490" lon="2.499480">
        <ele>929.214</ele>
        <time>2021-05-27T22:11:13Z</time>
      </trkpt>
      <trkpt lat="42.350542" lon="2.499601">
        <ele>929.081</ele>
        <time>2021-05-27T22:11:18Z</time>
      </trkpt>
      <trkpt lat="42.350560" lon="2.499653">
        <ele>928.961</ele>
        <time>2021-05-27T22:11:20Z</time>
      </trkpt>
      <trkpt lat="42.350603" lon="2.499781">
        <ele>928.917</ele>
        <time>2021-05-27T22:11:25Z</time>
      </trkpt>
      <trkpt lat="42.350619" lon="2.499836">
        <ele>928.808</ele>
        <time>2021-05-27T22:11:27Z</time>
      </trkpt>
      <trkpt lat="42.350627" lon="2.499862">
        <ele>928.885</ele>
        <time>2021-05-27T22:11:28Z</time>
      </trkpt>
      <trkpt lat="42.350635" lon="2.499884">
        <ele>928.882</ele>
        <time>2021-05-27T22:11:29Z</time>
      </trkpt>
      <trkpt lat="42.350647" lon="2.499926">
        <ele>928.870</ele>
        <time>2021-05-27T22:11:31Z</time>
      </trkpt>
      <trkpt lat="42.350666" lon="2.499971">
        <ele>928.980</ele>
        <time>2021-05-27T22:11:33Z</time>
      </trkpt>
      <trkpt lat="42.350677" lon="2.499998">
        <ele>929.037</ele>
        <time>2021-05-27T22:11:34Z</time>
      </trkpt>
      <trkpt lat="42.350690" lon="2.500040">
        <ele>928.872</ele>
        <time>2021-05-27T22:11:36Z</time>
      </trkpt>
      <trkpt lat="42.350697" lon="2.500066">
        <ele>928.675</ele>
        <time>2021-05-27T22:11:37Z</time>
      </trkpt>
      <trkpt lat="42.350705" lon="2.500092">
        <ele>928.571</ele>
        <time>2021-05-27T22:11:38Z</time>
      </trkpt>
      <trkpt lat="42.350718" lon="2.500114">
        <ele>928.632</ele>
        <time>2021-05-27T22:11:39Z</time>
      </trkpt>
      <trkpt lat="42.350729" lon="2.500139">
        <ele>928.592</ele>
        <time>2021-05-27T22:11:40Z</time>
      </trkpt>
      <trkpt lat="42.350738" lon="2.500164">
        <ele>928.411</ele>
        <time>2021-05-27T22:11:41Z</time>
      </trkpt>
      <trkpt lat="42.350756" lon="2.500205">
        <ele>928.208</ele>
        <time>2021-05-27T22:11:43Z</time>
      </trkpt>
      <trkpt lat="42.350774" lon="2.500246">
        <ele>928.080</ele>
        <time>2021-05-27T22:11:45Z</time>
      </trkpt>
      <trkpt lat="42.350814" lon="2.500320">
        <ele>928.137</ele>
        <time>2021-05-27T22:11:48Z</time>
      </trkpt>
      <trkpt lat="42.350838" lon="2.500360">
        <ele>928.385</ele>
        <time>2021-05-27T22:11:50Z</time>
      </trkpt>
      <trkpt lat="42.350852" lon="2.500379">
        <ele>928.845</ele>
        <time>2021-05-27T22:11:51Z</time>
      </trkpt>
      <trkpt lat="42.350866" lon="2.500427">
        <ele>928.922</ele>
        <time>2021-05-27T22:11:53Z</time>
      </trkpt>
      <trkpt lat="42.350873" lon="2.500453">
        <ele>928.997</ele>
        <time>2021-05-27T22:11:54Z</time>
      </trkpt>
      <trkpt lat="42.350882" lon="2.500474">
        <ele>929.130</ele>
        <time>2021-05-27T22:11:55Z</time>
      </trkpt>
      <trkpt lat="42.350890" lon="2.500496">
        <ele>929.256</ele>
        <time>2021-05-27T22:11:56Z</time>
      </trkpt>
      <trkpt lat="42.350897" lon="2.500519">
        <ele>929.232</ele>
        <time>2021-05-27T22:11:57Z</time>
      </trkpt>
      <trkpt lat="42.350902" lon="2.500547">
        <ele>929.192</ele>
        <time>2021-05-27T22:11:58Z</time>
      </trkpt>
      <trkpt lat="42.350906" lon="2.500573">
        <ele>928.911</ele>
        <time>2021-05-27T22:11:59Z</time>
      </trkpt>
      <trkpt lat="42.350917" lon="2.500618">
        <ele>928.808</ele>
        <time>2021-05-27T22:12:01Z</time>
      </trkpt>
      <trkpt lat="42.350920" lon="2.500646">
        <ele>928.660</ele>
        <time>2021-05-27T22:12:02Z</time>
      </trkpt>
      <trkpt lat="42.350932" lon="2.500689">
        <ele>928.527</ele>
        <time>2021-05-27T22:12:04Z</time>
      </trkpt>
      <trkpt lat="42.350942" lon="2.500732">
        <ele>928.385</ele>
        <time>2021-05-27T22:12:06Z</time>
      </trkpt>
      <trkpt lat="42.350947" lon="2.500759">
        <ele>928.155</ele>
        <time>2021-05-27T22:12:07Z</time>
      </trkpt>
      <trkpt lat="42.350955" lon="2.500785">
        <ele>928.192</ele>
        <time>2021-05-27T22:12:08Z</time>
      </trkpt>
      <trkpt lat="42.350970" lon="2.500819">
        <ele>928.127</ele>
        <time>2021-05-27T22:12:10Z</time>
      </trkpt>
      <trkpt lat="42.350979" lon="2.500857">
        <ele>927.930</ele>
        <time>2021-05-27T22:12:12Z</time>
      </trkpt>
      <trkpt lat="42.350982" lon="2.500897">
        <ele>927.336</ele>
        <time>2021-05-27T22:12:14Z</time>
      </trkpt>
      <trkpt lat="42.350997" lon="2.500931">
        <ele>927.384</ele>
        <time>2021-05-27T22:12:16Z</time>
      </trkpt>
      <trkpt lat="42.351013" lon="2.500968">
        <ele>927.207</ele>
        <time>2021-05-27T22:12:18Z</time>
      </trkpt>
      <trkpt lat="42.351026" lon="2.501005">
        <ele>927.017</ele>
        <time>2021-05-27T22:12:20Z</time>
      </trkpt>
      <trkpt lat="42.351042" lon="2.501045">
        <ele>926.908</ele>
        <time>2021-05-27T22:12:22Z</time>
      </trkpt>
      <trkpt lat="42.351054" lon="2.501089">
        <ele>926.585</ele>
        <time>2021-05-27T22:12:24Z</time>
      </trkpt>
      <trkpt lat="42.351067" lon="2.501129">
        <ele>926.332</ele>
        <time>2021-05-27T22:12:26Z</time>
      </trkpt>
      <trkpt lat="42.351079" lon="2.501159">
        <ele>926.390</ele>
        <time>2021-05-27T22:12:28Z</time>
      </trkpt>
      <trkpt lat="42.351092" lon="2.501199">
        <ele>926.130</ele>
        <time>2021-05-27T22:12:30Z</time>
      </trkpt>
      <trkpt lat="42.351098" lon="2.501230">
        <ele>925.977</ele>
        <time>2021-05-27T22:12:32Z</time>
      </trkpt>
      <trkpt lat="42.351108" lon="2.501252">
        <ele>925.912</ele>
        <time>2021-05-27T22:12:34Z</time>
      </trkpt>
      <trkpt lat="42.351121" lon="2.501275">
        <ele>926.285</ele>
        <time>2021-05-27T22:12:36Z</time>
      </trkpt>
      <trkpt lat="42.351137" lon="2.501294">
        <ele>927.071</ele>
        <time>2021-05-27T22:12:38Z</time>
      </trkpt>
      <trkpt lat="42.351154" lon="2.501306">
        <ele>927.877</ele>
        <time>2021-05-27T22:12:40Z</time>
      </trkpt>
      <trkpt lat="42.351163" lon="2.501329">
        <ele>928.061</ele>
        <time>2021-05-27T22:12:53Z</time>
      </trkpt>
      <trkpt lat="42.351172" lon="2.501355">
        <ele>928.227</ele>
        <time>2021-05-27T22:12:55Z</time>
      </trkpt>
      <trkpt lat="42.351180" lon="2.501395">
        <ele>928.108</ele>
        <time>2021-05-27T22:12:57Z</time>
      </trkpt>
      <trkpt lat="42.351189" lon="2.501438">
        <ele>927.894</ele>
        <time>2021-05-27T22:12:59Z</time>
      </trkpt>
      <trkpt lat="42.351197" lon="2.501476">
        <ele>927.691</ele>
        <time>2021-05-27T22:13:01Z</time>
      </trkpt>
      <trkpt lat="42.351211" lon="2.501495">
        <ele>928.199</ele>
        <time>2021-05-27T22:13:02Z</time>
      </trkpt>
      <trkpt lat="42.351228" lon="2.501525">
        <ele>928.549</ele>
        <time>2021-05-27T22:13:04Z</time>
      </trkpt>
      <trkpt lat="42.351236" lon="2.501566">
        <ele>928.246</ele>
        <time>2021-05-27T22:13:06Z</time>
      </trkpt>
      <trkpt lat="42.351235" lon="2.501592">
        <ele>927.681</ele>
        <time>2021-05-27T22:13:07Z</time>
      </trkpt>
      <trkpt lat="42.351238" lon="2.501618">
        <ele>927.314</ele>
        <time>2021-05-27T22:13:08Z</time>
      </trkpt>
      <trkpt lat="42.351248" lon="2.501641">
        <ele>927.450</ele>
        <time>2021-05-27T22:13:09Z</time>
      </trkpt>
      <trkpt lat="42.351256" lon="2.501663">
        <ele>927.454</ele>
        <time>2021-05-27T22:13:10Z</time>
      </trkpt>
      <trkpt lat="42.351267" lon="2.501682">
        <ele>927.456</ele>
        <time>2021-05-27T22:13:11Z</time>
      </trkpt>
      <trkpt lat="42.351290" lon="2.501713">
        <ele>927.511</ele>
        <time>2021-05-27T22:13:13Z</time>
      </trkpt>
      <trkpt lat="42.351311" lon="2.501734">
        <ele>927.908</ele>
        <time>2021-05-27T22:13:15Z</time>
      </trkpt>
      <trkpt lat="42.351327" lon="2.501763">
        <ele>927.722</ele>
        <time>2021-05-27T22:13:17Z</time>
      </trkpt>
      <trkpt lat="42.351337" lon="2.501792">
        <ele>927.179</ele>
        <time>2021-05-27T22:13:20Z</time>
      </trkpt>
      <trkpt lat="42.351330" lon="2.501830">
        <ele>925.317</ele>
        <time>2021-05-27T22:13:23Z</time>
      </trkpt>
      <trkpt lat="42.351340" lon="2.501857">
        <ele>924.837</ele>
        <time>2021-05-27T22:13:25Z</time>
      </trkpt>
      <trkpt lat="42.351366" lon="2.501874">
        <ele>925.534</ele>
        <time>2021-05-27T22:13:27Z</time>
      </trkpt>
      <trkpt lat="42.351374" lon="2.501912">
        <ele>924.589</ele>
        <time>2021-05-27T22:13:29Z</time>
      </trkpt>
      <trkpt lat="42.351386" lon="2.501944">
        <ele>923.952</ele>
        <time>2021-05-27T22:13:31Z</time>
      </trkpt>
      <trkpt lat="42.351390" lon="2.501979">
        <ele>922.838</ele>
        <time>2021-05-27T22:13:33Z</time>
      </trkpt>
      <trkpt lat="42.351396" lon="2.502021">
        <ele>921.473</ele>
        <time>2021-05-27T22:13:35Z</time>
      </trkpt>
      <trkpt lat="42.351404" lon="2.502046">
        <ele>920.785</ele>
        <time>2021-05-27T22:13:36Z</time>
      </trkpt>
      <trkpt lat="42.351416" lon="2.502067">
        <ele>920.313</ele>
        <time>2021-05-27T22:13:37Z</time>
      </trkpt>
      <trkpt lat="42.351436" lon="2.502098">
        <ele>919.608</ele>
        <time>2021-05-27T22:13:39Z</time>
      </trkpt>
      <trkpt lat="42.351458" lon="2.502117">
        <ele>919.564</ele>
        <time>2021-05-27T22:13:41Z</time>
      </trkpt>
      <trkpt lat="42.351480" lon="2.502134">
        <ele>919.471</ele>
        <time>2021-05-27T22:13:43Z</time>
      </trkpt>
      <trkpt lat="42.351487" lon="2.502157">
        <ele>918.669</ele>
        <time>2021-05-27T22:13:45Z</time>
      </trkpt>
      <trkpt lat="42.351481" lon="2.502183">
        <ele>917.569</ele>
        <time>2021-05-27T22:13:47Z</time>
      </trkpt>
      <trkpt lat="42.351475" lon="2.502209">
        <ele>916.496</ele>
        <time>2021-05-27T22:13:49Z</time>
      </trkpt>
      <trkpt lat="42.351463" lon="2.502239">
        <ele>915.171</ele>
        <time>2021-05-27T22:13:51Z</time>
      </trkpt>
      <trkpt lat="42.351452" lon="2.502264">
        <ele>914.284</ele>
        <time>2021-05-27T22:13:53Z</time>
      </trkpt>
      <trkpt lat="42.351448" lon="2.502299">
        <ele>913.240</ele>
        <time>2021-05-27T22:13:55Z</time>
      </trkpt>
      <trkpt lat="42.351453" lon="2.502332">
        <ele>912.468</ele>
        <time>2021-05-27T22:13:57Z</time>
      </trkpt>
      <trkpt lat="42.351478" lon="2.502346">
        <ele>912.542</ele>
        <time>2021-05-27T22:13:59Z</time>
      </trkpt>
      <trkpt lat="42.351500" lon="2.502368">
        <ele>912.326</ele>
        <time>2021-05-27T22:14:01Z</time>
      </trkpt>
      <trkpt lat="42.351527" lon="2.502386">
        <ele>912.308</ele>
        <time>2021-05-27T22:14:03Z</time>
      </trkpt>
      <trkpt lat="42.351558" lon="2.502401">
        <ele>912.493</ele>
        <time>2021-05-27T22:14:05Z</time>
      </trkpt>
      <trkpt lat="42.351577" lon="2.502416">
        <ele>912.220</ele>
        <time>2021-05-27T22:14:07Z</time>
      </trkpt>
      <trkpt lat="42.351596" lon="2.502424">
        <ele>912.318</ele>
        <time>2021-05-27T22:14:09Z</time>
      </trkpt>
      <trkpt lat="42.351616" lon="2.502432">
        <ele>912.438</ele>
        <time>2021-05-27T22:14:11Z</time>
      </trkpt>
      <trkpt lat="42.351640" lon="2.502452">
        <ele>912.115</ele>
        <time>2021-05-27T22:14:13Z</time>
      </trkpt>
      <trkpt lat="42.351656" lon="2.502472">
        <ele>911.750</ele>
        <time>2021-05-27T22:14:15Z</time>
      </trkpt>
      <trkpt lat="42.351677" lon="2.502485">
        <ele>911.393</ele>
        <time>2021-05-27T22:14:17Z</time>
      </trkpt>
      <trkpt lat="42.351698" lon="2.502489">
        <ele>910.949</ele>
        <time>2021-05-27T22:14:19Z</time>
      </trkpt>
      <trkpt lat="42.351716" lon="2.502492">
        <ele>910.678</ele>
        <time>2021-05-27T22:14:21Z</time>
      </trkpt>
      <trkpt lat="42.351737" lon="2.502510">
        <ele>909.633</ele>
        <time>2021-05-27T22:14:23Z</time>
      </trkpt>
      <trkpt lat="42.351761" lon="2.502519">
        <ele>909.026</ele>
        <time>2021-05-27T22:14:25Z</time>
      </trkpt>
      <trkpt lat="42.351787" lon="2.502524">
        <ele>908.408</ele>
        <time>2021-05-27T22:14:27Z</time>
      </trkpt>
      <trkpt lat="42.351814" lon="2.502514">
        <ele>908.434</ele>
        <time>2021-05-27T22:14:29Z</time>
      </trkpt>
      <trkpt lat="42.351842" lon="2.502499">
        <ele>908.521</ele>
        <time>2021-05-27T22:14:31Z</time>
      </trkpt>
      <trkpt lat="42.351872" lon="2.502498">
        <ele>908.189</ele>
        <time>2021-05-27T22:14:33Z</time>
      </trkpt>
      <trkpt lat="42.351891" lon="2.502505">
        <ele>907.639</ele>
        <time>2021-05-27T22:14:34Z</time>
      </trkpt>
      <trkpt lat="42.351915" lon="2.502515">
        <ele>907.036</ele>
        <time>2021-05-27T22:14:36Z</time>
      </trkpt>
      <trkpt lat="42.351948" lon="2.502515">
        <ele>906.641</ele>
        <time>2021-05-27T22:14:38Z</time>
      </trkpt>
      <trkpt lat="42.351974" lon="2.502509">
        <ele>906.834</ele>
        <time>2021-05-27T22:14:40Z</time>
      </trkpt>
      <trkpt lat="42.351999" lon="2.502503">
        <ele>906.970</ele>
        <time>2021-05-27T22:14:41Z</time>
      </trkpt>
      <trkpt lat="42.352018" lon="2.502497">
        <ele>907.151</ele>
        <time>2021-05-27T22:14:42Z</time>
      </trkpt>
      <trkpt lat="42.352041" lon="2.502495">
        <ele>907.101</ele>
        <time>2021-05-27T22:14:44Z</time>
      </trkpt>
      <trkpt lat="42.352062" lon="2.502494">
        <ele>907.211</ele>
        <time>2021-05-27T22:14:46Z</time>
      </trkpt>
      <trkpt lat="42.352089" lon="2.502491">
        <ele>907.208</ele>
        <time>2021-05-27T22:14:48Z</time>
      </trkpt>
      <trkpt lat="42.352114" lon="2.502505">
        <ele>906.952</ele>
        <time>2021-05-27T22:14:51Z</time>
      </trkpt>
      <trkpt lat="42.352130" lon="2.502528">
        <ele>906.779</ele>
        <time>2021-05-27T22:14:53Z</time>
      </trkpt>
      <trkpt lat="42.352139" lon="2.502553">
        <ele>906.427</ele>
        <time>2021-05-27T22:14:55Z</time>
      </trkpt>
      <trkpt lat="42.352142" lon="2.502586">
        <ele>906.157</ele>
        <time>2021-05-27T22:14:58Z</time>
      </trkpt>
      <trkpt lat="42.352145" lon="2.502612">
        <ele>905.854</ele>
        <time>2021-05-27T22:15:00Z</time>
      </trkpt>
      <trkpt lat="42.352147" lon="2.502640">
        <ele>905.599</ele>
        <time>2021-05-27T22:15:02Z</time>
      </trkpt>
      <trkpt lat="42.352156" lon="2.502663">
        <ele>905.492</ele>
        <time>2021-05-27T22:15:04Z</time>
      </trkpt>
      <trkpt lat="42.352170" lon="2.502689">
        <ele>905.418</ele>
        <time>2021-05-27T22:15:07Z</time>
      </trkpt>
      <trkpt lat="42.352186" lon="2.502710">
        <ele>905.668</ele>
        <time>2021-05-27T22:15:09Z</time>
      </trkpt>
      <trkpt lat="42.352197" lon="2.502740">
        <ele>905.642</ele>
        <time>2021-05-27T22:15:12Z</time>
      </trkpt>
      <trkpt lat="42.352219" lon="2.502752">
        <ele>906.026</ele>
        <time>2021-05-27T22:15:15Z</time>
      </trkpt>
      <trkpt lat="42.352240" lon="2.502744">
        <ele>906.708</ele>
        <time>2021-05-27T22:15:22Z</time>
      </trkpt>
      <trkpt lat="42.352250" lon="2.502766">
        <ele>906.953</ele>
        <time>2021-05-27T22:15:36Z</time>
      </trkpt>
      <trkpt lat="42.352264" lon="2.502784">
        <ele>907.390</ele>
        <time>2021-05-27T22:15:39Z</time>
      </trkpt>
      <trkpt lat="42.352284" lon="2.502793">
        <ele>907.998</ele>
        <time>2021-05-27T22:15:42Z</time>
      </trkpt>
      <trkpt lat="42.352289" lon="2.502821">
        <ele>908.038</ele>
        <time>2021-05-27T22:15:48Z</time>
      </trkpt>
      <trkpt lat="42.352301" lon="2.502852">
        <ele>908.285</ele>
        <time>2021-05-27T22:15:51Z</time>
      </trkpt>
      <trkpt lat="42.352304" lon="2.502883">
        <ele>908.270</ele>
        <time>2021-05-27T22:15:53Z</time>
      </trkpt>
      <trkpt lat="42.352301" lon="2.502907">
        <ele>908.083</ele>
        <time>2021-05-27T22:15:55Z</time>
      </trkpt>
      <trkpt lat="42.352305" lon="2.502943">
        <ele>907.929</ele>
        <time>2021-05-27T22:15:58Z</time>
      </trkpt>
      <trkpt lat="42.352306" lon="2.502971">
        <ele>907.863</ele>
        <time>2021-05-27T22:16:00Z</time>
      </trkpt>
      <trkpt lat="42.352308" lon="2.503002">
        <ele>907.744</ele>
        <time>2021-05-27T22:16:02Z</time>
      </trkpt>
      <trkpt lat="42.352306" lon="2.503037">
        <ele>907.518</ele>
        <time>2021-05-27T22:16:04Z</time>
      </trkpt>
      <trkpt lat="42.352306" lon="2.503077">
        <ele>907.208</ele>
        <time>2021-05-27T22:16:06Z</time>
      </trkpt>
      <trkpt lat="42.352305" lon="2.503113">
        <ele>906.973</ele>
        <time>2021-05-27T22:16:08Z</time>
      </trkpt>
      <trkpt lat="42.352318" lon="2.503150">
        <ele>907.030</ele>
        <time>2021-05-27T22:16:10Z</time>
      </trkpt>
      <trkpt lat="42.352323" lon="2.503193">
        <ele>906.768</ele>
        <time>2021-05-27T22:16:12Z</time>
      </trkpt>
      <trkpt lat="42.352323" lon="2.503232">
        <ele>906.448</ele>
        <time>2021-05-27T22:16:14Z</time>
      </trkpt>
      <trkpt lat="42.352328" lon="2.503267">
        <ele>906.225</ele>
        <time>2021-05-27T22:16:16Z</time>
      </trkpt>
      <trkpt lat="42.352327" lon="2.503301">
        <ele>905.960</ele>
        <time>2021-05-27T22:16:18Z</time>
      </trkpt>
      <trkpt lat="42.352324" lon="2.503332">
        <ele>905.633</ele>
        <time>2021-05-27T22:16:20Z</time>
      </trkpt>
      <trkpt lat="42.352326" lon="2.503371">
        <ele>905.249</ele>
        <time>2021-05-27T22:16:22Z</time>
      </trkpt>
      <trkpt lat="42.352327" lon="2.503411">
        <ele>904.862</ele>
        <time>2021-05-27T22:16:24Z</time>
      </trkpt>
      <trkpt lat="42.352329" lon="2.503436">
        <ele>904.683</ele>
        <time>2021-05-27T22:16:25Z</time>
      </trkpt>
      <trkpt lat="42.352331" lon="2.503476">
        <ele>904.211</ele>
        <time>2021-05-27T22:16:27Z</time>
      </trkpt>
      <trkpt lat="42.352328" lon="2.503500">
        <ele>903.908</ele>
        <time>2021-05-27T22:16:29Z</time>
      </trkpt>
      <trkpt lat="42.352336" lon="2.503529">
        <ele>903.843</ele>
        <time>2021-05-27T22:16:31Z</time>
      </trkpt>
      <trkpt lat="42.352339" lon="2.503556">
        <ele>903.580</ele>
        <time>2021-05-27T22:16:33Z</time>
      </trkpt>
      <trkpt lat="42.352348" lon="2.503583">
        <ele>903.518</ele>
        <time>2021-05-27T22:16:35Z</time>
      </trkpt>
      <trkpt lat="42.352366" lon="2.503605">
        <ele>903.788</ele>
        <time>2021-05-27T22:16:37Z</time>
      </trkpt>
      <trkpt lat="42.352376" lon="2.503630">
        <ele>903.775</ele>
        <time>2021-05-27T22:16:39Z</time>
      </trkpt>
      <trkpt lat="42.352369" lon="2.503662">
        <ele>903.110</ele>
        <time>2021-05-27T22:16:41Z</time>
      </trkpt>
      <trkpt lat="42.352378" lon="2.503697">
        <ele>903.073</ele>
        <time>2021-05-27T22:16:44Z</time>
      </trkpt>
      <trkpt lat="42.352372" lon="2.503726">
        <ele>902.559</ele>
        <time>2021-05-27T22:16:46Z</time>
      </trkpt>
      <trkpt lat="42.352374" lon="2.503753">
        <ele>902.397</ele>
        <time>2021-05-27T22:16:48Z</time>
      </trkpt>
      <trkpt lat="42.352374" lon="2.503786">
        <ele>901.923</ele>
        <time>2021-05-27T22:16:51Z</time>
      </trkpt>
      <trkpt lat="42.352376" lon="2.503819">
        <ele>901.625</ele>
        <time>2021-05-27T22:16:53Z</time>
      </trkpt>
      <trkpt lat="42.352385" lon="2.503861">
        <ele>901.408</ele>
        <time>2021-05-27T22:16:55Z</time>
      </trkpt>
      <trkpt lat="42.352401" lon="2.503902">
        <ele>901.556</ele>
        <time>2021-05-27T22:16:57Z</time>
      </trkpt>
      <trkpt lat="42.352413" lon="2.503951">
        <ele>901.783</ele>
        <time>2021-05-27T22:16:59Z</time>
      </trkpt>
      <trkpt lat="42.352419" lon="2.503981">
        <ele>901.921</ele>
        <time>2021-05-27T22:17:00Z</time>
      </trkpt>
      <trkpt lat="42.352421" lon="2.504012">
        <ele>901.991</ele>
        <time>2021-05-27T22:17:01Z</time>
      </trkpt>
      <trkpt lat="42.352426" lon="2.504044">
        <ele>902.088</ele>
        <time>2021-05-27T22:17:02Z</time>
      </trkpt>
      <trkpt lat="42.352432" lon="2.504075">
        <ele>902.193</ele>
        <time>2021-05-27T22:17:03Z</time>
      </trkpt>
      <trkpt lat="42.352433" lon="2.504100">
        <ele>902.146</ele>
        <time>2021-05-27T22:17:04Z</time>
      </trkpt>
      <trkpt lat="42.352432" lon="2.504149">
        <ele>902.122</ele>
        <time>2021-05-27T22:17:06Z</time>
      </trkpt>
      <trkpt lat="42.352432" lon="2.504174">
        <ele>902.191</ele>
        <time>2021-05-27T22:17:07Z</time>
      </trkpt>
      <trkpt lat="42.352426" lon="2.504219">
        <ele>902.081</ele>
        <time>2021-05-27T22:17:09Z</time>
      </trkpt>
      <trkpt lat="42.352425" lon="2.504261">
        <ele>902.219</ele>
        <time>2021-05-27T22:17:11Z</time>
      </trkpt>
      <trkpt lat="42.352421" lon="2.504302">
        <ele>902.108</ele>
        <time>2021-05-27T22:17:13Z</time>
      </trkpt>
      <trkpt lat="42.352413" lon="2.504345">
        <ele>902.056</ele>
        <time>2021-05-27T22:17:15Z</time>
      </trkpt>
      <trkpt lat="42.352399" lon="2.504382">
        <ele>901.513</ele>
        <time>2021-05-27T22:17:17Z</time>
      </trkpt>
      <trkpt lat="42.352406" lon="2.504419">
        <ele>901.941</ele>
        <time>2021-05-27T22:17:19Z</time>
      </trkpt>
      <trkpt lat="42.352406" lon="2.504451">
        <ele>901.951</ele>
        <time>2021-05-27T22:17:21Z</time>
      </trkpt>
      <trkpt lat="42.352403" lon="2.504487">
        <ele>901.628</ele>
        <time>2021-05-27T22:17:23Z</time>
      </trkpt>
      <trkpt lat="42.352390" lon="2.504526">
        <ele>900.843</ele>
        <time>2021-05-27T22:17:25Z</time>
      </trkpt>
      <trkpt lat="42.352383" lon="2.504549">
        <ele>900.416</ele>
        <time>2021-05-27T22:17:26Z</time>
      </trkpt>
      <trkpt lat="42.352377" lon="2.504577">
        <ele>899.932</ele>
        <time>2021-05-27T22:17:27Z</time>
      </trkpt>
      <trkpt lat="42.352373" lon="2.504603">
        <ele>899.541</ele>
        <time>2021-05-27T22:17:28Z</time>
      </trkpt>
      <trkpt lat="42.352365" lon="2.504629">
        <ele>898.981</ele>
        <time>2021-05-27T22:17:29Z</time>
      </trkpt>
      <trkpt lat="42.352357" lon="2.504657">
        <ele>898.209</ele>
        <time>2021-05-27T22:17:30Z</time>
      </trkpt>
      <trkpt lat="42.352353" lon="2.504687">
        <ele>897.808</ele>
        <time>2021-05-27T22:17:31Z</time>
      </trkpt>
      <trkpt lat="42.352349" lon="2.504718">
        <ele>897.211</ele>
        <time>2021-05-27T22:17:32Z</time>
      </trkpt>
      <trkpt lat="42.352346" lon="2.504747">
        <ele>896.928</ele>
        <time>2021-05-27T22:17:33Z</time>
      </trkpt>
      <trkpt lat="42.352350" lon="2.504778">
        <ele>897.186</ele>
        <time>2021-05-27T22:17:34Z</time>
      </trkpt>
      <trkpt lat="42.352362" lon="2.504808">
        <ele>897.716</ele>
        <time>2021-05-27T22:17:35Z</time>
      </trkpt>
      <trkpt lat="42.352373" lon="2.504833">
        <ele>898.473</ele>
        <time>2021-05-27T22:17:36Z</time>
      </trkpt>
      <trkpt lat="42.352377" lon="2.504858">
        <ele>898.538</ele>
        <time>2021-05-27T22:17:37Z</time>
      </trkpt>
      <trkpt lat="42.352373" lon="2.504883">
        <ele>898.241</ele>
        <time>2021-05-27T22:17:38Z</time>
      </trkpt>
      <trkpt lat="42.352361" lon="2.504931">
        <ele>897.237</ele>
        <time>2021-05-27T22:17:40Z</time>
      </trkpt>
      <trkpt lat="42.352357" lon="2.504956">
        <ele>896.919</ele>
        <time>2021-05-27T22:17:41Z</time>
      </trkpt>
      <trkpt lat="42.352355" lon="2.504983">
        <ele>896.709</ele>
        <time>2021-05-27T22:17:42Z</time>
      </trkpt>
      <trkpt lat="42.352355" lon="2.505011">
        <ele>896.619</ele>
        <time>2021-05-27T22:17:43Z</time>
      </trkpt>
      <trkpt lat="42.352356" lon="2.505041">
        <ele>896.708</ele>
        <time>2021-05-27T22:17:44Z</time>
      </trkpt>
      <trkpt lat="42.352353" lon="2.505070">
        <ele>896.568</ele>
        <time>2021-05-27T22:17:45Z</time>
      </trkpt>
      <trkpt lat="42.352357" lon="2.505095">
        <ele>896.885</ele>
        <time>2021-05-27T22:17:46Z</time>
      </trkpt>
      <trkpt lat="42.352365" lon="2.505119">
        <ele>897.243</ele>
        <time>2021-05-27T22:17:47Z</time>
      </trkpt>
      <trkpt lat="42.352378" lon="2.505162">
        <ele>898.033</ele>
        <time>2021-05-27T22:17:49Z</time>
      </trkpt>
      <trkpt lat="42.352387" lon="2.505189">
        <ele>898.450</ele>
        <time>2021-05-27T22:17:50Z</time>
      </trkpt>
      <trkpt lat="42.352393" lon="2.505221">
        <ele>898.765</ele>
        <time>2021-05-27T22:17:51Z</time>
      </trkpt>
      <trkpt lat="42.352403" lon="2.505250">
        <ele>899.268</ele>
        <time>2021-05-27T22:17:52Z</time>
      </trkpt>
      <trkpt lat="42.352403" lon="2.505278">
        <ele>899.124</ele>
        <time>2021-05-27T22:17:53Z</time>
      </trkpt>
      <trkpt lat="42.352408" lon="2.505303">
        <ele>899.248</ele>
        <time>2021-05-27T22:17:54Z</time>
      </trkpt>
      <trkpt lat="42.352413" lon="2.505333">
        <ele>899.261</ele>
        <time>2021-05-27T22:17:55Z</time>
      </trkpt>
      <trkpt lat="42.352416" lon="2.505367">
        <ele>899.117</ele>
        <time>2021-05-27T22:17:56Z</time>
      </trkpt>
      <trkpt lat="42.352424" lon="2.505415">
        <ele>899.208</ele>
        <time>2021-05-27T22:17:58Z</time>
      </trkpt>
      <trkpt lat="42.352431" lon="2.505457">
        <ele>899.231</ele>
        <time>2021-05-27T22:18:00Z</time>
      </trkpt>
      <trkpt lat="42.352437" lon="2.505497">
        <ele>899.298</ele>
        <time>2021-05-27T22:18:02Z</time>
      </trkpt>
      <trkpt lat="42.352455" lon="2.505518">
        <ele>900.046</ele>
        <time>2021-05-27T22:18:04Z</time>
      </trkpt>
      <trkpt lat="42.352460" lon="2.505551">
        <ele>900.036</ele>
        <time>2021-05-27T22:18:07Z</time>
      </trkpt>
      <trkpt lat="42.352467" lon="2.505579">
        <ele>900.253</ele>
        <time>2021-05-27T22:18:09Z</time>
      </trkpt>
      <trkpt lat="42.352480" lon="2.505635">
        <ele>900.768</ele>
        <time>2021-05-27T22:18:13Z</time>
      </trkpt>
      <trkpt lat="42.352484" lon="2.505674">
        <ele>900.791</ele>
        <time>2021-05-27T22:18:15Z</time>
      </trkpt>
      <trkpt lat="42.352484" lon="2.505707">
        <ele>900.697</ele>
        <time>2021-05-27T22:18:17Z</time>
      </trkpt>
      <trkpt lat="42.352480" lon="2.505739">
        <ele>900.259</ele>
        <time>2021-05-27T22:18:19Z</time>
      </trkpt>
      <trkpt lat="42.352473" lon="2.505785">
        <ele>899.703</ele>
        <time>2021-05-27T22:18:21Z</time>
      </trkpt>
      <trkpt lat="42.352477" lon="2.505809">
        <ele>899.823</ele>
        <time>2021-05-27T22:18:22Z</time>
      </trkpt>
      <trkpt lat="42.352486" lon="2.505851">
        <ele>899.908</ele>
        <time>2021-05-27T22:18:24Z</time>
      </trkpt>
      <trkpt lat="42.352487" lon="2.505891">
        <ele>899.442</ele>
        <time>2021-05-27T22:18:26Z</time>
      </trkpt>
      <trkpt lat="42.352484" lon="2.505917">
        <ele>898.979</ele>
        <time>2021-05-27T22:18:28Z</time>
      </trkpt>
      <trkpt lat="42.352475" lon="2.505957">
        <ele>897.847</ele>
        <time>2021-05-27T22:18:30Z</time>
      </trkpt>
      <trkpt lat="42.352494" lon="2.505984">
        <ele>898.577</ele>
        <time>2021-05-27T22:18:32Z</time>
      </trkpt>
      <trkpt lat="42.352513" lon="2.506021">
        <ele>898.944</ele>
        <time>2021-05-27T22:18:34Z</time>
      </trkpt>
      <trkpt lat="42.352516" lon="2.506054">
        <ele>898.519</ele>
        <time>2021-05-27T22:18:36Z</time>
      </trkpt>
      <trkpt lat="42.352509" lon="2.506080">
        <ele>897.822</ele>
        <time>2021-05-27T22:18:41Z</time>
      </trkpt>
      <trkpt lat="42.352515" lon="2.506104">
        <ele>897.868</ele>
        <time>2021-05-27T22:18:43Z</time>
      </trkpt>
      <trkpt lat="42.352520" lon="2.506139">
        <ele>897.181</ele>
        <time>2021-05-27T22:18:46Z</time>
      </trkpt>
      <trkpt lat="42.352530" lon="2.506176">
        <ele>896.561</ele>
        <time>2021-05-27T22:18:49Z</time>
      </trkpt>
      <trkpt lat="42.352544" lon="2.506194">
        <ele>896.617</ele>
        <time>2021-05-27T22:18:54Z</time>
      </trkpt>
      <trkpt lat="42.352529" lon="2.506211">
        <ele>895.408</ele>
        <time>2021-05-27T22:18:56Z</time>
      </trkpt>
      <trkpt lat="42.352541" lon="2.506230">
        <ele>895.425</ele>
        <time>2021-05-27T22:19:00Z</time>
      </trkpt>
      <trkpt lat="42.352551" lon="2.506251">
        <ele>895.372</ele>
        <time>2021-05-27T22:19:04Z</time>
      </trkpt>
      <trkpt lat="42.352568" lon="2.506271">
        <ele>895.540</ele>
        <time>2021-05-27T22:19:08Z</time>
      </trkpt>
      <trkpt lat="42.352583" lon="2.506294">
        <ele>895.550</ele>
        <time>2021-05-27T22:19:11Z</time>
      </trkpt>
      <trkpt lat="42.352598" lon="2.506314">
        <ele>895.667</ele>
        <time>2021-05-27T22:19:15Z</time>
      </trkpt>
      <trkpt lat="42.352608" lon="2.506335">
        <ele>895.562</ele>
        <time>2021-05-27T22:19:17Z</time>
      </trkpt>
      <trkpt lat="42.352620" lon="2.506358">
        <ele>895.525</ele>
        <time>2021-05-27T22:19:19Z</time>
      </trkpt>
      <trkpt lat="42.352633" lon="2.506378">
        <ele>895.511</ele>
        <time>2021-05-27T22:19:21Z</time>
      </trkpt>
      <trkpt lat="42.352643" lon="2.506401">
        <ele>895.452</ele>
        <time>2021-05-27T22:19:24Z</time>
      </trkpt>
      <trkpt lat="42.352644" lon="2.506429">
        <ele>894.753</ele>
        <time>2021-05-27T22:19:26Z</time>
      </trkpt>
      <trkpt lat="42.352651" lon="2.506465">
        <ele>894.008</ele>
        <time>2021-05-27T22:19:28Z</time>
      </trkpt>
      <trkpt lat="42.352664" lon="2.506500">
        <ele>893.608</ele>
        <time>2021-05-27T22:19:30Z</time>
      </trkpt>
      <trkpt lat="42.352681" lon="2.506536">
        <ele>893.442</ele>
        <time>2021-05-27T22:19:32Z</time>
      </trkpt>
      <trkpt lat="42.352700" lon="2.506569">
        <ele>893.479</ele>
        <time>2021-05-27T22:19:34Z</time>
      </trkpt>
      <trkpt lat="42.352711" lon="2.506588">
        <ele>893.397</ele>
        <time>2021-05-27T22:19:35Z</time>
      </trkpt>
      <trkpt lat="42.352735" lon="2.506611">
        <ele>893.797</ele>
        <time>2021-05-27T22:19:37Z</time>
      </trkpt>
      <trkpt lat="42.352756" lon="2.506631">
        <ele>894.134</ele>
        <time>2021-05-27T22:19:39Z</time>
      </trkpt>
      <trkpt lat="42.352774" lon="2.506651">
        <ele>894.349</ele>
        <time>2021-05-27T22:19:41Z</time>
      </trkpt>
      <trkpt lat="42.352793" lon="2.506674">
        <ele>894.542</ele>
        <time>2021-05-27T22:19:43Z</time>
      </trkpt>
      <trkpt lat="42.352813" lon="2.506695">
        <ele>894.928</ele>
        <time>2021-05-27T22:19:45Z</time>
      </trkpt>
      <trkpt lat="42.352835" lon="2.506729">
        <ele>894.981</ele>
        <time>2021-05-27T22:19:47Z</time>
      </trkpt>
      <trkpt lat="42.352847" lon="2.506769">
        <ele>894.261</ele>
        <time>2021-05-27T22:19:49Z</time>
      </trkpt>
      <trkpt lat="42.352861" lon="2.506794">
        <ele>894.117</ele>
        <time>2021-05-27T22:19:50Z</time>
      </trkpt>
      <trkpt lat="42.352872" lon="2.506815">
        <ele>893.908</ele>
        <time>2021-05-27T22:19:51Z</time>
      </trkpt>
      <trkpt lat="42.352888" lon="2.506835">
        <ele>894.195</ele>
        <time>2021-05-27T22:19:52Z</time>
      </trkpt>
      <trkpt lat="42.352901" lon="2.506857">
        <ele>894.062</ele>
        <time>2021-05-27T22:19:53Z</time>
      </trkpt>
      <trkpt lat="42.352916" lon="2.506878">
        <ele>894.160</ele>
        <time>2021-05-27T22:19:54Z</time>
      </trkpt>
      <trkpt lat="42.352929" lon="2.506898">
        <ele>894.120</ele>
        <time>2021-05-27T22:19:55Z</time>
      </trkpt>
      <trkpt lat="42.352940" lon="2.506919">
        <ele>894.037</ele>
        <time>2021-05-27T22:19:56Z</time>
      </trkpt>
      <trkpt lat="42.352951" lon="2.506943">
        <ele>893.872</ele>
        <time>2021-05-27T22:19:57Z</time>
      </trkpt>
      <trkpt lat="42.352964" lon="2.506967">
        <ele>894.035</ele>
        <time>2021-05-27T22:19:58Z</time>
      </trkpt>
      <trkpt lat="42.352972" lon="2.506996">
        <ele>893.891</ele>
        <time>2021-05-27T22:19:59Z</time>
      </trkpt>
      <trkpt lat="42.352977" lon="2.507028">
        <ele>893.539</ele>
        <time>2021-05-27T22:20:00Z</time>
      </trkpt>
      <trkpt lat="42.352981" lon="2.507058">
        <ele>893.101</ele>
        <time>2021-05-27T22:20:01Z</time>
      </trkpt>
      <trkpt lat="42.352983" lon="2.507089">
        <ele>892.621</ele>
        <time>2021-05-27T22:20:02Z</time>
      </trkpt>
      <trkpt lat="42.352987" lon="2.507115">
        <ele>892.308</ele>
        <time>2021-05-27T22:20:03Z</time>
      </trkpt>
      <trkpt lat="42.352993" lon="2.507140">
        <ele>892.290</ele>
        <time>2021-05-27T22:20:04Z</time>
      </trkpt>
      <trkpt lat="42.353002" lon="2.507165">
        <ele>892.237</ele>
        <time>2021-05-27T22:20:05Z</time>
      </trkpt>
      <trkpt lat="42.353010" lon="2.507192">
        <ele>892.175</ele>
        <time>2021-05-27T22:20:06Z</time>
      </trkpt>
      <trkpt lat="42.353016" lon="2.507221">
        <ele>891.925</ele>
        <time>2021-05-27T22:20:07Z</time>
      </trkpt>
      <trkpt lat="42.353024" lon="2.507248">
        <ele>891.812</ele>
        <time>2021-05-27T22:20:08Z</time>
      </trkpt>
      <trkpt lat="42.353033" lon="2.507275">
        <ele>891.887</ele>
        <time>2021-05-27T22:20:09Z</time>
      </trkpt>
      <trkpt lat="42.353037" lon="2.507300">
        <ele>891.650</ele>
        <time>2021-05-27T22:20:10Z</time>
      </trkpt>
      <trkpt lat="42.353051" lon="2.507342">
        <ele>891.646</ele>
        <time>2021-05-27T22:20:12Z</time>
      </trkpt>
      <trkpt lat="42.353066" lon="2.507376">
        <ele>891.892</ele>
        <time>2021-05-27T22:20:14Z</time>
      </trkpt>
      <trkpt lat="42.353078" lon="2.507410">
        <ele>891.973</ele>
        <time>2021-05-27T22:20:16Z</time>
      </trkpt>
      <trkpt lat="42.353088" lon="2.507460">
        <ele>891.420</ele>
        <time>2021-05-27T22:20:18Z</time>
      </trkpt>
      <trkpt lat="42.353094" lon="2.507484">
        <ele>891.308</ele>
        <time>2021-05-27T22:20:19Z</time>
      </trkpt>
      <trkpt lat="42.353105" lon="2.507532">
        <ele>890.656</ele>
        <time>2021-05-27T22:20:21Z</time>
      </trkpt>
      <trkpt lat="42.353114" lon="2.507561">
        <ele>890.363</ele>
        <time>2021-05-27T22:20:22Z</time>
      </trkpt>
      <trkpt lat="42.353122" lon="2.507591">
        <ele>889.951</ele>
        <time>2021-05-27T22:20:23Z</time>
      </trkpt>
      <trkpt lat="42.353127" lon="2.507620">
        <ele>889.451</ele>
        <time>2021-05-27T22:20:24Z</time>
      </trkpt>
      <trkpt lat="42.353129" lon="2.507652">
        <ele>888.658</ele>
        <time>2021-05-27T22:20:25Z</time>
      </trkpt>
      <trkpt lat="42.353134" lon="2.507680">
        <ele>888.143</ele>
        <time>2021-05-27T22:20:26Z</time>
      </trkpt>
      <trkpt lat="42.353144" lon="2.507708">
        <ele>887.756</ele>
        <time>2021-05-27T22:20:27Z</time>
      </trkpt>
      <trkpt lat="42.353154" lon="2.507731">
        <ele>887.612</ele>
        <time>2021-05-27T22:20:28Z</time>
      </trkpt>
      <trkpt lat="42.353174" lon="2.507767">
        <ele>887.421</ele>
        <time>2021-05-27T22:20:30Z</time>
      </trkpt>
      <trkpt lat="42.353201" lon="2.507794">
        <ele>887.841</ele>
        <time>2021-05-27T22:20:32Z</time>
      </trkpt>
      <trkpt lat="42.353223" lon="2.507830">
        <ele>887.705</ele>
        <time>2021-05-27T22:20:34Z</time>
      </trkpt>
      <trkpt lat="42.353239" lon="2.507847">
        <ele>887.908</ele>
        <time>2021-05-27T22:20:35Z</time>
      </trkpt>
      <trkpt lat="42.353258" lon="2.507867">
        <ele>888.239</ele>
        <time>2021-05-27T22:20:36Z</time>
      </trkpt>
      <trkpt lat="42.353278" lon="2.507888">
        <ele>888.476</ele>
        <time>2021-05-27T22:20:37Z</time>
      </trkpt>
      <trkpt lat="42.353299" lon="2.507910">
        <ele>888.714</ele>
        <time>2021-05-27T22:20:38Z</time>
      </trkpt>
      <trkpt lat="42.353317" lon="2.507927">
        <ele>889.024</ele>
        <time>2021-05-27T22:20:39Z</time>
      </trkpt>
      <trkpt lat="42.353335" lon="2.507958">
        <ele>888.931</ele>
        <time>2021-05-27T22:20:40Z</time>
      </trkpt>
      <trkpt lat="42.353395" lon="2.508073">
        <ele>887.946</ele>
        <time>2021-05-27T22:20:44Z</time>
      </trkpt>
      <trkpt lat="42.353418" lon="2.508111">
        <ele>887.579</ele>
        <time>2021-05-27T22:20:46Z</time>
      </trkpt>
      <trkpt lat="42.353430" lon="2.508134">
        <ele>887.235</ele>
        <time>2021-05-27T22:20:47Z</time>
      </trkpt>
      <trkpt lat="42.353447" lon="2.508145">
        <ele>887.594</ele>
        <time>2021-05-27T22:20:48Z</time>
      </trkpt>
      <trkpt lat="42.353478" lon="2.508169">
        <ele>887.857</ele>
        <time>2021-05-27T22:20:50Z</time>
      </trkpt>
      <trkpt lat="42.353492" lon="2.508186">
        <ele>887.822</ele>
        <time>2021-05-27T22:20:51Z</time>
      </trkpt>
      <trkpt lat="42.353521" lon="2.508216">
        <ele>887.808</ele>
        <time>2021-05-27T22:20:53Z</time>
      </trkpt>
      <trkpt lat="42.353538" lon="2.508231">
        <ele>888.016</ele>
        <time>2021-05-27T22:20:54Z</time>
      </trkpt>
      <trkpt lat="42.353557" lon="2.508251">
        <ele>888.083</ele>
        <time>2021-05-27T22:20:55Z</time>
      </trkpt>
      <trkpt lat="42.353576" lon="2.508267">
        <ele>888.151</ele>
        <time>2021-05-27T22:20:56Z</time>
      </trkpt>
      <trkpt lat="42.353630" lon="2.508304">
        <ele>888.461</ele>
        <time>2021-05-27T22:20:59Z</time>
      </trkpt>
      <trkpt lat="42.353655" lon="2.508327">
        <ele>887.938</ele>
        <time>2021-05-27T22:21:01Z</time>
      </trkpt>
      <trkpt lat="42.353691" lon="2.508356">
        <ele>887.143</ele>
        <time>2021-05-27T22:21:04Z</time>
      </trkpt>
      <trkpt lat="42.353748" lon="2.508384">
        <ele>887.056</ele>
        <time>2021-05-27T22:21:08Z</time>
      </trkpt>
      <trkpt lat="42.353777" lon="2.508382">
        <ele>887.672</ele>
        <time>2021-05-27T22:21:10Z</time>
      </trkpt>
      <trkpt lat="42.353795" lon="2.508387">
        <ele>887.734</ele>
        <time>2021-05-27T22:21:12Z</time>
      </trkpt>
      <trkpt lat="42.353899" lon="2.508423">
        <ele>888.855</ele>
        <time>2021-05-27T22:21:20Z</time>
      </trkpt>
      <trkpt lat="42.353999" lon="2.508444">
        <ele>892.310</ele>
        <time>2021-05-27T22:21:26Z</time>
      </trkpt>
      <trkpt lat="42.354037" lon="2.508524">
        <ele>893.308</ele>
        <time>2021-05-27T22:21:33Z</time>
      </trkpt>
      <trkpt lat="42.354042" lon="2.508581">
        <ele>893.180</ele>
        <time>2021-05-27T22:21:41Z</time>
      </trkpt>
      <trkpt lat="42.354038" lon="2.508615">
        <ele>892.797</ele>
        <time>2021-05-27T22:21:44Z</time>
      </trkpt>
      <trkpt lat="42.354032" lon="2.508651">
        <ele>892.675</ele>
        <time>2021-05-27T22:21:48Z</time>
      </trkpt>
      <trkpt lat="42.354030" lon="2.508681">
        <ele>892.885</ele>
        <time>2021-05-27T22:21:50Z</time>
      </trkpt>
      <trkpt lat="42.354020" lon="2.508709">
        <ele>892.462</ele>
        <time>2021-05-27T22:21:53Z</time>
      </trkpt>
      <trkpt lat="42.354016" lon="2.508735">
        <ele>892.457</ele>
        <time>2021-05-27T22:21:54Z</time>
      </trkpt>
      <trkpt lat="42.354005" lon="2.508761">
        <ele>891.940</ele>
        <time>2021-05-27T22:21:56Z</time>
      </trkpt>
      <trkpt lat="42.353996" lon="2.508784">
        <ele>891.636</ele>
        <time>2021-05-27T22:21:58Z</time>
      </trkpt>
      <trkpt lat="42.353973" lon="2.508813">
        <ele>890.472</ele>
        <time>2021-05-27T22:22:00Z</time>
      </trkpt>
      <trkpt lat="42.353951" lon="2.508830">
        <ele>889.213</ele>
        <time>2021-05-27T22:22:02Z</time>
      </trkpt>
      <trkpt lat="42.353926" lon="2.508853">
        <ele>887.914</ele>
        <time>2021-05-27T22:22:05Z</time>
      </trkpt>
      <trkpt lat="42.353907" lon="2.508865">
        <ele>886.908</ele>
        <time>2021-05-27T22:22:08Z</time>
      </trkpt>
      <trkpt lat="42.353888" lon="2.508885">
        <ele>885.934</ele>
        <time>2021-05-27T22:22:11Z</time>
      </trkpt>
      <trkpt lat="42.353872" lon="2.508917">
        <ele>884.961</ele>
        <time>2021-05-27T22:22:13Z</time>
      </trkpt>
      <trkpt lat="42.353863" lon="2.508957">
        <ele>884.679</ele>
        <time>2021-05-27T22:22:15Z</time>
      </trkpt>
      <trkpt lat="42.353854" lon="2.509000">
        <ele>884.239</ele>
        <time>2021-05-27T22:22:17Z</time>
      </trkpt>
      <trkpt lat="42.353849" lon="2.509024">
        <ele>884.026</ele>
        <time>2021-05-27T22:22:18Z</time>
      </trkpt>
      <trkpt lat="42.353844" lon="2.509073">
        <ele>884.051</ele>
        <time>2021-05-27T22:22:20Z</time>
      </trkpt>
      <trkpt lat="42.353843" lon="2.509098">
        <ele>884.184</ele>
        <time>2021-05-27T22:22:21Z</time>
      </trkpt>
      <trkpt lat="42.353844" lon="2.509143">
        <ele>884.630</ele>
        <time>2021-05-27T22:22:23Z</time>
      </trkpt>
      <trkpt lat="42.353844" lon="2.509188">
        <ele>884.691</ele>
        <time>2021-05-27T22:22:25Z</time>
      </trkpt>
      <trkpt lat="42.353842" lon="2.509214">
        <ele>884.281</ele>
        <time>2021-05-27T22:22:26Z</time>
      </trkpt>
      <trkpt lat="42.353844" lon="2.509242">
        <ele>884.119</ele>
        <time>2021-05-27T22:22:27Z</time>
      </trkpt>
      <trkpt lat="42.353850" lon="2.509270">
        <ele>884.308</ele>
        <time>2021-05-27T22:22:28Z</time>
      </trkpt>
      <trkpt lat="42.353857" lon="2.509319">
        <ele>884.516</ele>
        <time>2021-05-27T22:22:30Z</time>
      </trkpt>
      <trkpt lat="42.353865" lon="2.509349">
        <ele>884.983</ele>
        <time>2021-05-27T22:22:31Z</time>
      </trkpt>
      <trkpt lat="42.353871" lon="2.509375">
        <ele>885.261</ele>
        <time>2021-05-27T22:22:32Z</time>
      </trkpt>
      <trkpt lat="42.353886" lon="2.509419">
        <ele>886.031</ele>
        <time>2021-05-27T22:22:34Z</time>
      </trkpt>
      <trkpt lat="42.353893" lon="2.509444">
        <ele>886.338</ele>
        <time>2021-05-27T22:22:35Z</time>
      </trkpt>
      <trkpt lat="42.353908" lon="2.509492">
        <ele>886.753</ele>
        <time>2021-05-27T22:22:37Z</time>
      </trkpt>
      <trkpt lat="42.353912" lon="2.509517">
        <ele>886.656</ele>
        <time>2021-05-27T22:22:38Z</time>
      </trkpt>
      <trkpt lat="42.353918" lon="2.509560">
        <ele>886.412</ele>
        <time>2021-05-27T22:22:40Z</time>
      </trkpt>
      <trkpt lat="42.353938" lon="2.509705">
        <ele>885.348</ele>
        <time>2021-05-27T22:22:45Z</time>
      </trkpt>
      <trkpt lat="42.353996" lon="2.509827">
        <ele>885.261</ele>
        <time>2021-05-27T22:22:49Z</time>
      </trkpt>
      <trkpt lat="42.354025" lon="2.509916">
        <ele>884.117</ele>
        <time>2021-05-27T22:22:52Z</time>
      </trkpt>
      <trkpt lat="42.354036" lon="2.509939">
        <ele>883.908</ele>
        <time>2021-05-27T22:22:53Z</time>
      </trkpt>
      <trkpt lat="42.354041" lon="2.509983">
        <ele>882.841</ele>
        <time>2021-05-27T22:22:55Z</time>
      </trkpt>
      <trkpt lat="42.354044" lon="2.510010">
        <ele>882.138</ele>
        <time>2021-05-27T22:22:56Z</time>
      </trkpt>
      <trkpt lat="42.354048" lon="2.510056">
        <ele>880.856</ele>
        <time>2021-05-27T22:22:58Z</time>
      </trkpt>
      <trkpt lat="42.354054" lon="2.510101">
        <ele>879.776</ele>
        <time>2021-05-27T22:23:00Z</time>
      </trkpt>
      <trkpt lat="42.354058" lon="2.510143">
        <ele>878.633</ele>
        <time>2021-05-27T22:23:02Z</time>
      </trkpt>
      <trkpt lat="42.354061" lon="2.510190">
        <ele>877.358</ele>
        <time>2021-05-27T22:23:04Z</time>
      </trkpt>
      <trkpt lat="42.354064" lon="2.510214">
        <ele>876.781</ele>
        <time>2021-05-27T22:23:05Z</time>
      </trkpt>
      <trkpt lat="42.354075" lon="2.510251">
        <ele>876.217</ele>
        <time>2021-05-27T22:23:07Z</time>
      </trkpt>
      <trkpt lat="42.354085" lon="2.510296">
        <ele>875.754</ele>
        <time>2021-05-27T22:23:09Z</time>
      </trkpt>
      <trkpt lat="42.354089" lon="2.510339">
        <ele>875.356</ele>
        <time>2021-05-27T22:23:11Z</time>
      </trkpt>
      <trkpt lat="42.354093" lon="2.510366">
        <ele>875.111</ele>
        <time>2021-05-27T22:23:12Z</time>
      </trkpt>
      <trkpt lat="42.354100" lon="2.510390">
        <ele>875.208</ele>
        <time>2021-05-27T22:23:13Z</time>
      </trkpt>
      <trkpt lat="42.354100" lon="2.510415">
        <ele>874.832</ele>
        <time>2021-05-27T22:23:14Z</time>
      </trkpt>
      <trkpt lat="42.354099" lon="2.510440">
        <ele>874.489</ele>
        <time>2021-05-27T22:23:15Z</time>
      </trkpt>
      <trkpt lat="42.354094" lon="2.510483">
        <ele>873.497</ele>
        <time>2021-05-27T22:23:17Z</time>
      </trkpt>
      <trkpt lat="42.354093" lon="2.510510">
        <ele>872.967</ele>
        <time>2021-05-27T22:23:18Z</time>
      </trkpt>
      <trkpt lat="42.354093" lon="2.510534">
        <ele>872.624</ele>
        <time>2021-05-27T22:23:19Z</time>
      </trkpt>
      <trkpt lat="42.354091" lon="2.510559">
        <ele>872.159</ele>
        <time>2021-05-27T22:23:20Z</time>
      </trkpt>
      <trkpt lat="42.354086" lon="2.510611">
        <ele>871.142</ele>
        <time>2021-05-27T22:23:22Z</time>
      </trkpt>
      <trkpt lat="42.354086" lon="2.510653">
        <ele>870.638</ele>
        <time>2021-05-27T22:23:24Z</time>
      </trkpt>
      <trkpt lat="42.354087" lon="2.510703">
        <ele>870.181</ele>
        <time>2021-05-27T22:23:26Z</time>
      </trkpt>
      <trkpt lat="42.354090" lon="2.510730">
        <ele>870.061</ele>
        <time>2021-05-27T22:23:27Z</time>
      </trkpt>
      <trkpt lat="42.354097" lon="2.510770">
        <ele>870.017</ele>
        <time>2021-05-27T22:23:29Z</time>
      </trkpt>
      <trkpt lat="42.354088" lon="2.510811">
        <ele>868.908</ele>
        <time>2021-05-27T22:23:31Z</time>
      </trkpt>
      <trkpt lat="42.354089" lon="2.510944">
        <ele>866.165</ele>
        <time>2021-05-27T22:23:38Z</time>
      </trkpt>
      <trkpt lat="42.354132" lon="2.511072">
        <ele>866.372</ele>
        <time>2021-05-27T22:23:44Z</time>
      </trkpt>
      <trkpt lat="42.354136" lon="2.511206">
        <ele>862.640</ele>
        <time>2021-05-27T22:23:50Z</time>
      </trkpt>
      <trkpt lat="42.354184" lon="2.511317">
        <ele>862.510</ele>
        <time>2021-05-27T22:23:56Z</time>
      </trkpt>
      <trkpt lat="42.354223" lon="2.511446">
        <ele>860.697</ele>
        <time>2021-05-27T22:24:03Z</time>
      </trkpt>
      <trkpt lat="42.354233" lon="2.511581">
        <ele>856.242</ele>
        <time>2021-05-27T22:24:09Z</time>
      </trkpt>
      <trkpt lat="42.354229" lon="2.511709">
        <ele>851.535</ele>
        <time>2021-05-27T22:24:14Z</time>
      </trkpt>
      <trkpt lat="42.354252" lon="2.511832">
        <ele>848.981</ele>
        <time>2021-05-27T22:24:20Z</time>
      </trkpt>
      <trkpt lat="42.354308" lon="2.511942">
        <ele>848.229</ele>
        <time>2021-05-27T22:24:26Z</time>
      </trkpt>
      <trkpt lat="42.354325" lon="2.512072">
        <ele>844.000</ele>
        <time>2021-05-27T22:24:33Z</time>
      </trkpt>
      <trkpt lat="42.354373" lon="2.512175">
        <ele>841.720</ele>
        <time>2021-05-27T22:24:40Z</time>
      </trkpt>
      <trkpt lat="42.354415" lon="2.512295">
        <ele>838.708</ele>
        <time>2021-05-27T22:24:55Z</time>
      </trkpt>
      <trkpt lat="42.354458" lon="2.512403">
        <ele>836.149</ele>
        <time>2021-05-27T22:25:01Z</time>
      </trkpt>
      <trkpt lat="42.354544" lon="2.512472">
        <ele>837.616</ele>
        <time>2021-05-27T22:25:10Z</time>
      </trkpt>
      <trkpt lat="42.354631" lon="2.512505">
        <ele>840.664</ele>
        <time>2021-05-27T22:25:33Z</time>
      </trkpt>
      <trkpt lat="42.354660" lon="2.512644">
        <ele>837.434</ele>
        <time>2021-05-27T22:25:41Z</time>
      </trkpt>
      <trkpt lat="42.354688" lon="2.512783">
        <ele>833.741</ele>
        <time>2021-05-27T22:25:48Z</time>
      </trkpt>
      <trkpt lat="42.354687" lon="2.512906">
        <ele>829.836</ele>
        <time>2021-05-27T22:25:53Z</time>
      </trkpt>
      <trkpt lat="42.354736" lon="2.513018">
        <ele>827.199</ele>
        <time>2021-05-27T22:25:58Z</time>
      </trkpt>
      <trkpt lat="42.354771" lon="2.513154">
        <ele>825.315</ele>
        <time>2021-05-27T22:26:04Z</time>
      </trkpt>
      <trkpt lat="42.354789" lon="2.513180">
        <ele>825.594</ele>
        <time>2021-05-27T22:26:06Z</time>
      </trkpt>
      <trkpt lat="42.354804" lon="2.513211">
        <ele>825.357</ele>
        <time>2021-05-27T22:26:08Z</time>
      </trkpt>
      <trkpt lat="42.354822" lon="2.513240">
        <ele>825.322</ele>
        <time>2021-05-27T22:26:10Z</time>
      </trkpt>
      <trkpt lat="42.354842" lon="2.513280">
        <ele>824.908</ele>
        <time>2021-05-27T22:26:12Z</time>
      </trkpt>
      <trkpt lat="42.354851" lon="2.513303">
        <ele>824.686</ele>
        <time>2021-05-27T22:26:13Z</time>
      </trkpt>
      <trkpt lat="42.354859" lon="2.513327">
        <ele>824.163</ele>
        <time>2021-05-27T22:26:14Z</time>
      </trkpt>
      <trkpt lat="42.354866" lon="2.513351">
        <ele>824.071</ele>
        <time>2021-05-27T22:26:15Z</time>
      </trkpt>
      <trkpt lat="42.354880" lon="2.513369">
        <ele>824.291</ele>
        <time>2021-05-27T22:26:16Z</time>
      </trkpt>
      <trkpt lat="42.354890" lon="2.513393">
        <ele>824.298</ele>
        <time>2021-05-27T22:26:17Z</time>
      </trkpt>
      <trkpt lat="42.354893" lon="2.513436">
        <ele>823.873</ele>
        <time>2021-05-27T22:26:19Z</time>
      </trkpt>
      <trkpt lat="42.354891" lon="2.513463">
        <ele>823.576</ele>
        <time>2021-05-27T22:26:20Z</time>
      </trkpt>
      <trkpt lat="42.354916" lon="2.513526">
        <ele>822.842</ele>
        <time>2021-05-27T22:26:23Z</time>
      </trkpt>
      <trkpt lat="42.354935" lon="2.513543">
        <ele>822.444</ele>
        <time>2021-05-27T22:26:24Z</time>
      </trkpt>
      <trkpt lat="42.354948" lon="2.513565">
        <ele>821.905</ele>
        <time>2021-05-27T22:26:25Z</time>
      </trkpt>
      <trkpt lat="42.354964" lon="2.513581">
        <ele>821.315</ele>
        <time>2021-05-27T22:26:26Z</time>
      </trkpt>
      <trkpt lat="42.354982" lon="2.513600">
        <ele>820.608</ele>
        <time>2021-05-27T22:26:27Z</time>
      </trkpt>
      <trkpt lat="42.354994" lon="2.513623">
        <ele>820.041</ele>
        <time>2021-05-27T22:26:28Z</time>
      </trkpt>
      <trkpt lat="42.355010" lon="2.513654">
        <ele>819.928</ele>
        <time>2021-05-27T22:26:30Z</time>
      </trkpt>
      <trkpt lat="42.355021" lon="2.513686">
        <ele>820.016</ele>
        <time>2021-05-27T22:26:32Z</time>
      </trkpt>
      <trkpt lat="42.355036" lon="2.513719">
        <ele>820.236</ele>
        <time>2021-05-27T22:26:34Z</time>
      </trkpt>
      <trkpt lat="42.355046" lon="2.513739">
        <ele>820.353</ele>
        <time>2021-05-27T22:26:35Z</time>
      </trkpt>
      <trkpt lat="42.355065" lon="2.513801">
        <ele>820.148</ele>
        <time>2021-05-27T22:26:38Z</time>
      </trkpt>
      <trkpt lat="42.355079" lon="2.513848">
        <ele>819.931</ele>
        <time>2021-05-27T22:26:40Z</time>
      </trkpt>
      <trkpt lat="42.355086" lon="2.513870">
        <ele>819.877</ele>
        <time>2021-05-27T22:26:41Z</time>
      </trkpt>
      <trkpt lat="42.355094" lon="2.513910">
        <ele>819.598</ele>
        <time>2021-05-27T22:26:43Z</time>
      </trkpt>
      <trkpt lat="42.355102" lon="2.513949">
        <ele>819.315</ele>
        <time>2021-05-27T22:26:45Z</time>
      </trkpt>
      <trkpt lat="42.355106" lon="2.513982">
        <ele>819.126</ele>
        <time>2021-05-27T22:26:47Z</time>
      </trkpt>
      <trkpt lat="42.355110" lon="2.514020">
        <ele>818.808</ele>
        <time>2021-05-27T22:26:49Z</time>
      </trkpt>
      <trkpt lat="42.355111" lon="2.514059">
        <ele>818.376</ele>
        <time>2021-05-27T22:26:51Z</time>
      </trkpt>
      <trkpt lat="42.355117" lon="2.514169">
        <ele>817.233</ele>
        <time>2021-05-27T22:26:57Z</time>
      </trkpt>
      <trkpt lat="42.355117" lon="2.514206">
        <ele>817.051</ele>
        <time>2021-05-27T22:26:59Z</time>
      </trkpt>
      <trkpt lat="42.355123" lon="2.514243">
        <ele>817.191</ele>
        <time>2021-05-27T22:27:01Z</time>
      </trkpt>
      <trkpt lat="42.355124" lon="2.514281">
        <ele>817.088</ele>
        <time>2021-05-27T22:27:03Z</time>
      </trkpt>
      <trkpt lat="42.355136" lon="2.514306">
        <ele>817.423</ele>
        <time>2021-05-27T22:27:05Z</time>
      </trkpt>
      <trkpt lat="42.355157" lon="2.514302">
        <ele>818.296</ele>
        <time>2021-05-27T22:27:08Z</time>
      </trkpt>
      <trkpt lat="42.355180" lon="2.514282">
        <ele>819.222</ele>
        <time>2021-05-27T22:27:22Z</time>
      </trkpt>
      <trkpt lat="42.355199" lon="2.514282">
        <ele>819.919</ele>
        <time>2021-05-27T22:27:39Z</time>
      </trkpt>
      <trkpt lat="42.355209" lon="2.514316">
        <ele>820.309</ele>
        <time>2021-05-27T22:27:42Z</time>
      </trkpt>
      <trkpt lat="42.355211" lon="2.514348">
        <ele>820.319</ele>
        <time>2021-05-27T22:27:44Z</time>
      </trkpt>
      <trkpt lat="42.355208" lon="2.514373">
        <ele>820.108</ele>
        <time>2021-05-27T22:27:46Z</time>
      </trkpt>
      <trkpt lat="42.355212" lon="2.514401">
        <ele>820.268</ele>
        <time>2021-05-27T22:27:48Z</time>
      </trkpt>
      <trkpt lat="42.355203" lon="2.514429">
        <ele>819.815</ele>
        <time>2021-05-27T22:27:50Z</time>
      </trkpt>
      <trkpt lat="42.355182" lon="2.514455">
        <ele>819.153</ele>
        <time>2021-05-27T22:27:52Z</time>
      </trkpt>
      <trkpt lat="42.355164" lon="2.514472">
        <ele>818.733</ele>
        <time>2021-05-27T22:27:54Z</time>
      </trkpt>
      <trkpt lat="42.355131" lon="2.514518">
        <ele>818.190</ele>
        <time>2021-05-27T22:27:58Z</time>
      </trkpt>
      <trkpt lat="42.355127" lon="2.514548">
        <ele>818.495</ele>
        <time>2021-05-27T22:28:00Z</time>
      </trkpt>
      <trkpt lat="42.355115" lon="2.514572">
        <ele>818.268</ele>
        <time>2021-05-27T22:28:02Z</time>
      </trkpt>
      <trkpt lat="42.355102" lon="2.514597">
        <ele>817.934</ele>
        <time>2021-05-27T22:28:04Z</time>
      </trkpt>
      <trkpt lat="42.355086" lon="2.514617">
        <ele>817.336</ele>
        <time>2021-05-27T22:28:06Z</time>
      </trkpt>
      <trkpt lat="42.355074" lon="2.514639">
        <ele>816.917</ele>
        <time>2021-05-27T22:28:08Z</time>
      </trkpt>
      <trkpt lat="42.355058" lon="2.514661">
        <ele>816.218</ele>
        <time>2021-05-27T22:28:11Z</time>
      </trkpt>
      <trkpt lat="42.355046" lon="2.514679">
        <ele>815.708</ele>
        <time>2021-05-27T22:28:13Z</time>
      </trkpt>
      <trkpt lat="42.355038" lon="2.514715">
        <ele>815.560</ele>
        <time>2021-05-27T22:28:16Z</time>
      </trkpt>
      <trkpt lat="42.355036" lon="2.514743">
        <ele>815.527</ele>
        <time>2021-05-27T22:28:18Z</time>
      </trkpt>
      <trkpt lat="42.355034" lon="2.514771">
        <ele>815.345</ele>
        <time>2021-05-27T22:28:20Z</time>
      </trkpt>
      <trkpt lat="42.355036" lon="2.514799">
        <ele>815.435</ele>
        <time>2021-05-27T22:28:22Z</time>
      </trkpt>
      <trkpt lat="42.355036" lon="2.514831">
        <ele>815.492</ele>
        <time>2021-05-27T22:28:25Z</time>
      </trkpt>
      <trkpt lat="42.355035" lon="2.514859">
        <ele>815.317</ele>
        <time>2021-05-27T22:28:27Z</time>
      </trkpt>
      <trkpt lat="42.355035" lon="2.514887">
        <ele>815.370</ele>
        <time>2021-05-27T22:28:29Z</time>
      </trkpt>
      <trkpt lat="42.355038" lon="2.514925">
        <ele>815.546</ele>
        <time>2021-05-27T22:28:32Z</time>
      </trkpt>
      <trkpt lat="42.355042" lon="2.514959">
        <ele>815.748</ele>
        <time>2021-05-27T22:28:34Z</time>
      </trkpt>
      <trkpt lat="42.355048" lon="2.514986">
        <ele>816.161</ele>
        <time>2021-05-27T22:28:36Z</time>
      </trkpt>
      <trkpt lat="42.355049" lon="2.515022">
        <ele>815.817</ele>
        <time>2021-05-27T22:28:38Z</time>
      </trkpt>
      <trkpt lat="42.355055" lon="2.515058">
        <ele>815.708</ele>
        <time>2021-05-27T22:28:40Z</time>
      </trkpt>
      <trkpt lat="42.355061" lon="2.515084">
        <ele>815.781</ele>
        <time>2021-05-27T22:28:42Z</time>
      </trkpt>
      <trkpt lat="42.355064" lon="2.515109">
        <ele>815.558</ele>
        <time>2021-05-27T22:28:44Z</time>
      </trkpt>
      <trkpt lat="42.355075" lon="2.515160">
        <ele>815.466</ele>
        <time>2021-05-27T22:28:47Z</time>
      </trkpt>
      <trkpt lat="42.355088" lon="2.515185">
        <ele>815.826</ele>
        <time>2021-05-27T22:28:49Z</time>
      </trkpt>
      <trkpt lat="42.355096" lon="2.515218">
        <ele>815.823</ele>
        <time>2021-05-27T22:28:51Z</time>
      </trkpt>
      <trkpt lat="42.355106" lon="2.515248">
        <ele>816.068</ele>
        <time>2021-05-27T22:28:53Z</time>
      </trkpt>
      <trkpt lat="42.355116" lon="2.515280">
        <ele>816.151</ele>
        <time>2021-05-27T22:28:55Z</time>
      </trkpt>
      <trkpt lat="42.355127" lon="2.515310">
        <ele>816.357</ele>
        <time>2021-05-27T22:28:57Z</time>
      </trkpt>
      <trkpt lat="42.355134" lon="2.515336">
        <ele>816.371</ele>
        <time>2021-05-27T22:28:59Z</time>
      </trkpt>
      <trkpt lat="42.355146" lon="2.515358">
        <ele>816.641</ele>
        <time>2021-05-27T22:29:01Z</time>
      </trkpt>
      <trkpt lat="42.355161" lon="2.515391">
        <ele>816.915</ele>
        <time>2021-05-27T22:29:04Z</time>
      </trkpt>
      <trkpt lat="42.355168" lon="2.515426">
        <ele>816.708</ele>
        <time>2021-05-27T22:29:06Z</time>
      </trkpt>
      <trkpt lat="42.355181" lon="2.515458">
        <ele>816.984</ele>
        <time>2021-05-27T22:29:08Z</time>
      </trkpt>
      <trkpt lat="42.355201" lon="2.515491">
        <ele>817.391</ele>
        <time>2021-05-27T22:29:10Z</time>
      </trkpt>
      <trkpt lat="42.355207" lon="2.515524">
        <ele>817.039</ele>
        <time>2021-05-27T22:29:12Z</time>
      </trkpt>
      <trkpt lat="42.355215" lon="2.515554">
        <ele>816.929</ele>
        <time>2021-05-27T22:29:14Z</time>
      </trkpt>
      <trkpt lat="42.355222" lon="2.515579">
        <ele>816.766</ele>
        <time>2021-05-27T22:29:16Z</time>
      </trkpt>
      <trkpt lat="42.355234" lon="2.515606">
        <ele>816.871</ele>
        <time>2021-05-27T22:29:19Z</time>
      </trkpt>
      <trkpt lat="42.355244" lon="2.515629">
        <ele>816.844</ele>
        <time>2021-05-27T22:29:21Z</time>
      </trkpt>
      <trkpt lat="42.355258" lon="2.515657">
        <ele>816.990</ele>
        <time>2021-05-27T22:29:23Z</time>
      </trkpt>
      <trkpt lat="42.355277" lon="2.515691">
        <ele>817.024</ele>
        <time>2021-05-27T22:29:26Z</time>
      </trkpt>
      <trkpt lat="42.355300" lon="2.515713">
        <ele>817.004</ele>
        <time>2021-05-27T22:29:27Z</time>
      </trkpt>
      <trkpt lat="42.355321" lon="2.515728">
        <ele>817.014</ele>
        <time>2021-05-27T22:29:29Z</time>
      </trkpt>
      <trkpt lat="42.355337" lon="2.515762">
        <ele>816.508</ele>
        <time>2021-05-27T22:29:31Z</time>
      </trkpt>
      <trkpt lat="42.355360" lon="2.515786">
        <ele>816.369</ele>
        <time>2021-05-27T22:29:33Z</time>
      </trkpt>
      <trkpt lat="42.355386" lon="2.515804">
        <ele>816.356</ele>
        <time>2021-05-27T22:29:35Z</time>
      </trkpt>
      <trkpt lat="42.355410" lon="2.515816">
        <ele>816.374</ele>
        <time>2021-05-27T22:29:37Z</time>
      </trkpt>
      <trkpt lat="42.355428" lon="2.515840">
        <ele>815.954</ele>
        <time>2021-05-27T22:29:44Z</time>
      </trkpt>
      <trkpt lat="42.355466" lon="2.515860">
        <ele>815.771</ele>
        <time>2021-05-27T22:29:48Z</time>
      </trkpt>
      <trkpt lat="42.355455" lon="2.515881">
        <ele>814.956</ele>
        <time>2021-05-27T22:29:53Z</time>
      </trkpt>
      <trkpt lat="42.355437" lon="2.515905">
        <ele>813.999</ele>
        <time>2021-05-27T22:29:55Z</time>
      </trkpt>
      <trkpt lat="42.355421" lon="2.515919">
        <ele>813.335</ele>
        <time>2021-05-27T22:29:57Z</time>
      </trkpt>
      <trkpt lat="42.355453" lon="2.515921">
        <ele>813.462</ele>
        <time>2021-05-27T22:30:00Z</time>
      </trkpt>
      <trkpt lat="42.355475" lon="2.515913">
        <ele>813.983</ele>
        <time>2021-05-27T22:30:02Z</time>
      </trkpt>
      <trkpt lat="42.355493" lon="2.515916">
        <ele>813.911</ele>
        <time>2021-05-27T22:30:04Z</time>
      </trkpt>
      <trkpt lat="42.355519" lon="2.515922">
        <ele>813.908</ele>
        <time>2021-05-27T22:30:07Z</time>
      </trkpt>
      <trkpt lat="42.355598" lon="2.515981">
        <ele>811.543</ele>
        <time>2021-05-27T22:30:16Z</time>
      </trkpt>
      <trkpt lat="42.355675" lon="2.516043">
        <ele>808.540</ele>
        <time>2021-05-27T22:30:24Z</time>
      </trkpt>
      <trkpt lat="42.355760" lon="2.516105">
        <ele>805.588</ele>
        <time>2021-05-27T22:30:32Z</time>
      </trkpt>
      <trkpt lat="42.355802" lon="2.516140">
        <ele>804.358</ele>
        <time>2021-05-27T22:30:37Z</time>
      </trkpt>
      <trkpt lat="42.355822" lon="2.516160">
        <ele>803.655</ele>
        <time>2021-05-27T22:30:39Z</time>
      </trkpt>
      <trkpt lat="42.355841" lon="2.516186">
        <ele>802.840</ele>
        <time>2021-05-27T22:30:41Z</time>
      </trkpt>
      <trkpt lat="42.355933" lon="2.516225">
        <ele>801.783</ele>
        <time>2021-05-27T22:30:50Z</time>
      </trkpt>
      <trkpt lat="42.356014" lon="2.516288">
        <ele>799.959</ele>
        <time>2021-05-27T22:30:57Z</time>
      </trkpt>
      <trkpt lat="42.356087" lon="2.516361">
        <ele>797.865</ele>
        <time>2021-05-27T22:31:05Z</time>
      </trkpt>
      <trkpt lat="42.356119" lon="2.516396">
        <ele>796.868</ele>
        <time>2021-05-27T22:31:09Z</time>
      </trkpt>
      <trkpt lat="42.356136" lon="2.516413">
        <ele>796.314</ele>
        <time>2021-05-27T22:31:11Z</time>
      </trkpt>
      <trkpt lat="42.356163" lon="2.516437">
        <ele>795.508</ele>
        <time>2021-05-27T22:31:14Z</time>
      </trkpt>
      <trkpt lat="42.356187" lon="2.516456">
        <ele>794.843</ele>
        <time>2021-05-27T22:31:17Z</time>
      </trkpt>
      <trkpt lat="42.356216" lon="2.516468">
        <ele>794.370</ele>
        <time>2021-05-27T22:31:18Z</time>
      </trkpt>
      <trkpt lat="42.356236" lon="2.516491">
        <ele>793.538</ele>
        <time>2021-05-27T22:31:20Z</time>
      </trkpt>
      <trkpt lat="42.356260" lon="2.516516">
        <ele>792.518</ele>
        <time>2021-05-27T22:31:23Z</time>
      </trkpt>
      <trkpt lat="42.356309" lon="2.516568">
        <ele>790.435</ele>
        <time>2021-05-27T22:31:28Z</time>
      </trkpt>
      <trkpt lat="42.356312" lon="2.516629">
        <ele>788.450</ele>
        <time>2021-05-27T22:31:32Z</time>
      </trkpt>
      <trkpt lat="42.356327" lon="2.516656">
        <ele>787.283</ele>
        <time>2021-05-27T22:31:34Z</time>
      </trkpt>
      <trkpt lat="42.356347" lon="2.516695">
        <ele>786.389</ele>
        <time>2021-05-27T22:31:36Z</time>
      </trkpt>
      <trkpt lat="42.356355" lon="2.516722">
        <ele>785.933</ele>
        <time>2021-05-27T22:31:38Z</time>
      </trkpt>
      <trkpt lat="42.356375" lon="2.516715">
        <ele>785.723</ele>
        <time>2021-05-27T22:31:41Z</time>
      </trkpt>
      <trkpt lat="42.356394" lon="2.516711">
        <ele>785.515</ele>
        <time>2021-05-27T22:31:43Z</time>
      </trkpt>
      <trkpt lat="42.356413" lon="2.516730">
        <ele>785.408</ele>
        <time>2021-05-27T22:31:45Z</time>
      </trkpt>
      <trkpt lat="42.356434" lon="2.516760">
        <ele>785.010</ele>
        <time>2021-05-27T22:31:47Z</time>
      </trkpt>
      <trkpt lat="42.356447" lon="2.516803">
        <ele>784.437</ele>
        <time>2021-05-27T22:31:49Z</time>
      </trkpt>
      <trkpt lat="42.356457" lon="2.516845">
        <ele>783.855</ele>
        <time>2021-05-27T22:31:51Z</time>
      </trkpt>
      <trkpt lat="42.356470" lon="2.516880">
        <ele>783.215</ele>
        <time>2021-05-27T22:31:53Z</time>
      </trkpt>
      <trkpt lat="42.356483" lon="2.516911">
        <ele>782.512</ele>
        <time>2021-05-27T22:31:55Z</time>
      </trkpt>
      <trkpt lat="42.356496" lon="2.516934">
        <ele>782.087</ele>
        <time>2021-05-27T22:31:57Z</time>
      </trkpt>
      <trkpt lat="42.356514" lon="2.516952">
        <ele>781.740</ele>
        <time>2021-05-27T22:31:59Z</time>
      </trkpt>
      <trkpt lat="42.356536" lon="2.516971">
        <ele>781.786</ele>
        <time>2021-05-27T22:32:02Z</time>
      </trkpt>
      <trkpt lat="42.356549" lon="2.516988">
        <ele>781.715</ele>
        <time>2021-05-27T22:32:04Z</time>
      </trkpt>
      <trkpt lat="42.356566" lon="2.517009">
        <ele>781.765</ele>
        <time>2021-05-27T22:32:06Z</time>
      </trkpt>
      <trkpt lat="42.356581" lon="2.517038">
        <ele>781.711</ele>
        <time>2021-05-27T22:32:08Z</time>
      </trkpt>
      <trkpt lat="42.356601" lon="2.517064">
        <ele>781.508</ele>
        <time>2021-05-27T22:32:10Z</time>
      </trkpt>
      <trkpt lat="42.356614" lon="2.517092">
        <ele>781.548</ele>
        <time>2021-05-27T22:32:12Z</time>
      </trkpt>
      <trkpt lat="42.356628" lon="2.517116">
        <ele>781.435</ele>
        <time>2021-05-27T22:32:14Z</time>
      </trkpt>
      <trkpt lat="42.356646" lon="2.517135">
        <ele>781.163</ele>
        <time>2021-05-27T22:32:18Z</time>
      </trkpt>
      <trkpt lat="42.356658" lon="2.517156">
        <ele>781.043</ele>
        <time>2021-05-27T22:32:23Z</time>
      </trkpt>
      <trkpt lat="42.356760" lon="2.517184">
        <ele>780.620</ele>
        <time>2021-05-27T22:32:33Z</time>
      </trkpt>
      <trkpt lat="42.356863" lon="2.517211">
        <ele>779.835</ele>
        <time>2021-05-27T22:32:37Z</time>
      </trkpt>
      <trkpt lat="42.356994" lon="2.517166">
        <ele>780.748</ele>
        <time>2021-05-27T22:32:40Z</time>
      </trkpt>
      <trkpt lat="42.357099" lon="2.517123">
        <ele>782.734</ele>
        <time>2021-05-27T22:32:43Z</time>
      </trkpt>
      <trkpt lat="42.357124" lon="2.517109">
        <ele>783.335</ele>
        <time>2021-05-27T22:32:44Z</time>
      </trkpt>
      <trkpt lat="42.357142" lon="2.517099">
        <ele>783.886</ele>
        <time>2021-05-27T22:32:45Z</time>
      </trkpt>
      <trkpt lat="42.357162" lon="2.517092">
        <ele>784.214</ele>
        <time>2021-05-27T22:32:47Z</time>
      </trkpt>
      <trkpt lat="42.357183" lon="2.517101">
        <ele>784.008</ele>
        <time>2021-05-27T22:32:50Z</time>
      </trkpt>
      <trkpt lat="42.357201" lon="2.517099">
        <ele>784.350</ele>
        <time>2021-05-27T22:32:58Z</time>
      </trkpt>
      <trkpt lat="42.357228" lon="2.517108">
        <ele>784.157</ele>
        <time>2021-05-27T22:33:00Z</time>
      </trkpt>
      <trkpt lat="42.357246" lon="2.517124">
        <ele>783.435</ele>
        <time>2021-05-27T22:33:02Z</time>
      </trkpt>
      <trkpt lat="42.357265" lon="2.517141">
        <ele>782.745</ele>
        <time>2021-05-27T22:33:04Z</time>
      </trkpt>
      <trkpt lat="42.357273" lon="2.517178">
        <ele>781.452</ele>
        <time>2021-05-27T22:33:07Z</time>
      </trkpt>
      <trkpt lat="42.357281" lon="2.517213">
        <ele>780.327</ele>
        <time>2021-05-27T22:33:09Z</time>
      </trkpt>
      <trkpt lat="42.357291" lon="2.517244">
        <ele>780.690</ele>
        <time>2021-05-27T22:33:11Z</time>
      </trkpt>
      <trkpt lat="42.357300" lon="2.517273">
        <ele>781.476</ele>
        <time>2021-05-27T22:33:13Z</time>
      </trkpt>
      <trkpt lat="42.357310" lon="2.517307">
        <ele>782.375</ele>
        <time>2021-05-27T22:33:15Z</time>
      </trkpt>
      <trkpt lat="42.357322" lon="2.517340">
        <ele>783.328</ele>
        <time>2021-05-27T22:33:17Z</time>
      </trkpt>
      <trkpt lat="42.357339" lon="2.517365">
        <ele>784.220</ele>
        <time>2021-05-27T22:33:19Z</time>
      </trkpt>
      <trkpt lat="42.357359" lon="2.517383">
        <ele>784.908</ele>
        <time>2021-05-27T22:33:21Z</time>
      </trkpt>
      <trkpt lat="42.357383" lon="2.517385">
        <ele>785.234</ele>
        <time>2021-05-27T22:33:23Z</time>
      </trkpt>
      <trkpt lat="42.357414" lon="2.517373">
        <ele>785.181</ele>
        <time>2021-05-27T22:33:26Z</time>
      </trkpt>
      <trkpt lat="42.357440" lon="2.517378">
        <ele>785.689</ele>
        <time>2021-05-27T22:33:28Z</time>
      </trkpt>
      <trkpt lat="42.357471" lon="2.517371">
        <ele>785.669</ele>
        <time>2021-05-27T22:33:30Z</time>
      </trkpt>
      <trkpt lat="42.357489" lon="2.517365">
        <ele>785.626</ele>
        <time>2021-05-27T22:33:31Z</time>
      </trkpt>
      <trkpt lat="42.357517" lon="2.517362">
        <ele>785.541</ele>
        <time>2021-05-27T22:33:33Z</time>
      </trkpt>
      <trkpt lat="42.357570" lon="2.517354">
        <ele>785.254</ele>
        <time>2021-05-27T22:33:36Z</time>
      </trkpt>
      <trkpt lat="42.357588" lon="2.517348">
        <ele>785.080</ele>
        <time>2021-05-27T22:33:37Z</time>
      </trkpt>
      <trkpt lat="42.357617" lon="2.517343">
        <ele>784.711</ele>
        <time>2021-05-27T22:33:39Z</time>
      </trkpt>
      <trkpt lat="42.357640" lon="2.517334">
        <ele>784.321</ele>
        <time>2021-05-27T22:33:41Z</time>
      </trkpt>
      <trkpt lat="42.357664" lon="2.517334">
        <ele>784.303</ele>
        <time>2021-05-27T22:33:43Z</time>
      </trkpt>
      <trkpt lat="42.357688" lon="2.517337">
        <ele>784.408</ele>
        <time>2021-05-27T22:33:45Z</time>
      </trkpt>
      <trkpt lat="42.357711" lon="2.517333">
        <ele>784.238</ele>
        <time>2021-05-27T22:33:47Z</time>
      </trkpt>
      <trkpt lat="42.357776" lon="2.517331">
        <ele>784.175</ele>
        <time>2021-05-27T22:33:52Z</time>
      </trkpt>
      <trkpt lat="42.357803" lon="2.517320">
        <ele>783.353</ele>
        <time>2021-05-27T22:33:54Z</time>
      </trkpt>
      <trkpt lat="42.357903" lon="2.517339">
        <ele>782.833</ele>
        <time>2021-05-27T22:34:01Z</time>
      </trkpt>
      <trkpt lat="42.357947" lon="2.517354">
        <ele>782.810</ele>
        <time>2021-05-27T22:34:04Z</time>
      </trkpt>
      <trkpt lat="42.357964" lon="2.517364">
        <ele>782.995</ele>
        <time>2021-05-27T22:34:05Z</time>
      </trkpt>
      <trkpt lat="42.357994" lon="2.517381">
        <ele>783.118</ele>
        <time>2021-05-27T22:34:07Z</time>
      </trkpt>
      <trkpt lat="42.358023" lon="2.517398">
        <ele>783.224</ele>
        <time>2021-05-27T22:34:09Z</time>
      </trkpt>
      <trkpt lat="42.358046" lon="2.517413">
        <ele>783.333</ele>
        <time>2021-05-27T22:34:11Z</time>
      </trkpt>
      <trkpt lat="42.358072" lon="2.517449">
        <ele>783.923</ele>
        <time>2021-05-27T22:34:13Z</time>
      </trkpt>
      <trkpt lat="42.358091" lon="2.517457">
        <ele>783.615</ele>
        <time>2021-05-27T22:34:15Z</time>
      </trkpt>
      <trkpt lat="42.358112" lon="2.517466">
        <ele>783.308</ele>
        <time>2021-05-27T22:34:17Z</time>
      </trkpt>
      <trkpt lat="42.358136" lon="2.517485">
        <ele>783.220</ele>
        <time>2021-05-27T22:34:19Z</time>
      </trkpt>
      <trkpt lat="42.358211" lon="2.517561">
        <ele>783.717</ele>
        <time>2021-05-27T22:34:24Z</time>
      </trkpt>
      <trkpt lat="42.358287" lon="2.517651">
        <ele>784.045</ele>
        <time>2021-05-27T22:34:33Z</time>
      </trkpt>
      <trkpt lat="42.358304" lon="2.517673">
        <ele>784.175</ele>
        <time>2021-05-27T22:34:35Z</time>
      </trkpt>
      <trkpt lat="42.358331" lon="2.517703">
        <ele>783.922</ele>
        <time>2021-05-27T22:34:38Z</time>
      </trkpt>
      <trkpt lat="42.358347" lon="2.517717">
        <ele>783.857</ele>
        <time>2021-05-27T22:34:40Z</time>
      </trkpt>
      <trkpt lat="42.358409" lon="2.517798">
        <ele>783.590</ele>
        <time>2021-05-27T22:34:47Z</time>
      </trkpt>
      <trkpt lat="42.358421" lon="2.517820">
        <ele>783.436</ele>
        <time>2021-05-27T22:34:49Z</time>
      </trkpt>
      <trkpt lat="42.358440" lon="2.517844">
        <ele>783.294</ele>
        <time>2021-05-27T22:34:51Z</time>
      </trkpt>
      <trkpt lat="42.358479" lon="2.517961">
        <ele>783.857</ele>
        <time>2021-05-27T22:34:59Z</time>
      </trkpt>
      <trkpt lat="42.358514" lon="2.518078">
        <ele>784.522</ele>
        <time>2021-05-27T22:35:06Z</time>
      </trkpt>
      <trkpt lat="42.358552" lon="2.518189">
        <ele>785.308</ele>
        <time>2021-05-27T22:35:14Z</time>
      </trkpt>
      <trkpt lat="42.358603" lon="2.518305">
        <ele>785.786</ele>
        <time>2021-05-27T22:35:23Z</time>
      </trkpt>
      <trkpt lat="42.358658" lon="2.518404">
        <ele>786.653</ele>
        <time>2021-05-27T22:35:32Z</time>
      </trkpt>
      <trkpt lat="42.358738" lon="2.518482">
        <ele>786.171</ele>
        <time>2021-05-27T22:35:40Z</time>
      </trkpt>
      <trkpt lat="42.358828" lon="2.518545">
        <ele>784.861</ele>
        <time>2021-05-27T22:35:46Z</time>
      </trkpt>
      <trkpt lat="42.358924" lon="2.518565">
        <ele>782.078</ele>
        <time>2021-05-27T22:35:53Z</time>
      </trkpt>
      <trkpt lat="42.359015" lon="2.518586">
        <ele>779.753</ele>
        <time>2021-05-27T22:36:01Z</time>
      </trkpt>
      <trkpt lat="42.359109" lon="2.518643">
        <ele>778.656</ele>
        <time>2021-05-27T22:36:09Z</time>
      </trkpt>
      <trkpt lat="42.359193" lon="2.518693">
        <ele>777.922</ele>
        <time>2021-05-27T22:36:19Z</time>
      </trkpt>
      <trkpt lat="42.359265" lon="2.518740">
        <ele>777.243</ele>
        <time>2021-05-27T22:36:25Z</time>
      </trkpt>
      <trkpt lat="42.359284" lon="2.518764">
        <ele>777.364</ele>
        <time>2021-05-27T22:36:27Z</time>
      </trkpt>
      <trkpt lat="42.359296" lon="2.518792">
        <ele>777.810</ele>
        <time>2021-05-27T22:36:29Z</time>
      </trkpt>
      <trkpt lat="42.359338" lon="2.518857">
        <ele>777.808</ele>
        <time>2021-05-27T22:36:34Z</time>
      </trkpt>
      <trkpt lat="42.359347" lon="2.518981">
        <ele>779.491</ele>
        <time>2021-05-27T22:36:43Z</time>
      </trkpt>
      <trkpt lat="42.359354" lon="2.519112">
        <ele>780.678</ele>
        <time>2021-05-27T22:36:51Z</time>
      </trkpt>
      <trkpt lat="42.359345" lon="2.519242">
        <ele>781.056</ele>
        <time>2021-05-27T22:36:58Z</time>
      </trkpt>
      <trkpt lat="42.359340" lon="2.519365">
        <ele>780.156</ele>
        <time>2021-05-27T22:37:05Z</time>
      </trkpt>
      <trkpt lat="42.359331" lon="2.519497">
        <ele>779.373</ele>
        <time>2021-05-27T22:37:10Z</time>
      </trkpt>
      <trkpt lat="42.359331" lon="2.519545">
        <ele>779.048</ele>
        <time>2021-05-27T22:37:13Z</time>
      </trkpt>
      <trkpt lat="42.359329" lon="2.519581">
        <ele>778.811</ele>
        <time>2021-05-27T22:37:15Z</time>
      </trkpt>
      <trkpt lat="42.359319" lon="2.519637">
        <ele>778.967</ele>
        <time>2021-05-27T22:37:18Z</time>
      </trkpt>
      <trkpt lat="42.359317" lon="2.519762">
        <ele>778.185</ele>
        <time>2021-05-27T22:37:25Z</time>
      </trkpt>
      <trkpt lat="42.359318" lon="2.519796">
        <ele>777.789</ele>
        <time>2021-05-27T22:37:27Z</time>
      </trkpt>
      <trkpt lat="42.359317" lon="2.519824">
        <ele>777.517</ele>
        <time>2021-05-27T22:37:29Z</time>
      </trkpt>
      <trkpt lat="42.359314" lon="2.519887">
        <ele>777.108</ele>
        <time>2021-05-27T22:37:33Z</time>
      </trkpt>
      <trkpt lat="42.359319" lon="2.519912">
        <ele>776.625</ele>
        <time>2021-05-27T22:37:35Z</time>
      </trkpt>
      <trkpt lat="42.359318" lon="2.519940">
        <ele>776.412</ele>
        <time>2021-05-27T22:37:37Z</time>
      </trkpt>
      <trkpt lat="42.359319" lon="2.519968">
        <ele>776.250</ele>
        <time>2021-05-27T22:37:39Z</time>
      </trkpt>
      <trkpt lat="42.359319" lon="2.519999">
        <ele>775.920</ele>
        <time>2021-05-27T22:37:41Z</time>
      </trkpt>
      <trkpt lat="42.359324" lon="2.520025">
        <ele>775.427</ele>
        <time>2021-05-27T22:37:43Z</time>
      </trkpt>
      <trkpt lat="42.359316" lon="2.520060">
        <ele>775.592</ele>
        <time>2021-05-27T22:37:45Z</time>
      </trkpt>
      <trkpt lat="42.359305" lon="2.520088">
        <ele>775.725</ele>
        <time>2021-05-27T22:37:47Z</time>
      </trkpt>
      <trkpt lat="42.359266" lon="2.520206">
        <ele>776.021</ele>
        <time>2021-05-27T22:37:55Z</time>
      </trkpt>
      <trkpt lat="42.359261" lon="2.520271">
        <ele>775.437</ele>
        <time>2021-05-27T22:37:59Z</time>
      </trkpt>
      <trkpt lat="42.359247" lon="2.520297">
        <ele>775.649</ele>
        <time>2021-05-27T22:38:01Z</time>
      </trkpt>
      <trkpt lat="42.359235" lon="2.520332">
        <ele>775.613</ele>
        <time>2021-05-27T22:38:03Z</time>
      </trkpt>
      <trkpt lat="42.359220" lon="2.520367">
        <ele>775.708</ele>
        <time>2021-05-27T22:38:05Z</time>
      </trkpt>
      <trkpt lat="42.359204" lon="2.520406">
        <ele>775.820</ele>
        <time>2021-05-27T22:38:07Z</time>
      </trkpt>
      <trkpt lat="42.359193" lon="2.520445">
        <ele>775.787</ele>
        <time>2021-05-27T22:38:09Z</time>
      </trkpt>
      <trkpt lat="42.359176" lon="2.520467">
        <ele>775.895</ele>
        <time>2021-05-27T22:38:10Z</time>
      </trkpt>
      <trkpt lat="42.359164" lon="2.520503">
        <ele>775.795</ele>
        <time>2021-05-27T22:38:12Z</time>
      </trkpt>
      <trkpt lat="42.359163" lon="2.520542">
        <ele>775.472</ele>
        <time>2021-05-27T22:38:14Z</time>
      </trkpt>
      <trkpt lat="42.359170" lon="2.520606">
        <ele>775.077</ele>
        <time>2021-05-27T22:38:17Z</time>
      </trkpt>
      <trkpt lat="42.359178" lon="2.520645">
        <ele>774.920</ele>
        <time>2021-05-27T22:38:19Z</time>
      </trkpt>
      <trkpt lat="42.359196" lon="2.520686">
        <ele>775.066</ele>
        <time>2021-05-27T22:38:21Z</time>
      </trkpt>
      <trkpt lat="42.359222" lon="2.520716">
        <ele>775.127</ele>
        <time>2021-05-27T22:38:23Z</time>
      </trkpt>
      <trkpt lat="42.359251" lon="2.520737">
        <ele>775.468</ele>
        <time>2021-05-27T22:38:25Z</time>
      </trkpt>
      <trkpt lat="42.359270" lon="2.520762">
        <ele>775.714</ele>
        <time>2021-05-27T22:38:27Z</time>
      </trkpt>
      <trkpt lat="42.359294" lon="2.520783">
        <ele>776.208</ele>
        <time>2021-05-27T22:38:29Z</time>
      </trkpt>
      <trkpt lat="42.359314" lon="2.520801">
        <ele>776.639</ele>
        <time>2021-05-27T22:38:31Z</time>
      </trkpt>
      <trkpt lat="42.359334" lon="2.520814">
        <ele>777.146</ele>
        <time>2021-05-27T22:38:33Z</time>
      </trkpt>
      <trkpt lat="42.359362" lon="2.520812">
        <ele>777.494</ele>
        <time>2021-05-27T22:38:35Z</time>
      </trkpt>
      <trkpt lat="42.359395" lon="2.520808">
        <ele>777.754</ele>
        <time>2021-05-27T22:38:37Z</time>
      </trkpt>
      <trkpt lat="42.359412" lon="2.520799">
        <ele>777.751</ele>
        <time>2021-05-27T22:38:38Z</time>
      </trkpt>
      <trkpt lat="42.359449" lon="2.520780">
        <ele>777.776</ele>
        <time>2021-05-27T22:38:40Z</time>
      </trkpt>
      <trkpt lat="42.359475" lon="2.520768">
        <ele>778.539</ele>
        <time>2021-05-27T22:38:42Z</time>
      </trkpt>
      <trkpt lat="42.359506" lon="2.520752">
        <ele>779.475</ele>
        <time>2021-05-27T22:38:44Z</time>
      </trkpt>
      <trkpt lat="42.359525" lon="2.520732">
        <ele>779.666</ele>
        <time>2021-05-27T22:38:46Z</time>
      </trkpt>
      <trkpt lat="42.359547" lon="2.520707">
        <ele>779.829</ele>
        <time>2021-05-27T22:38:48Z</time>
      </trkpt>
      <trkpt lat="42.359565" lon="2.520678">
        <ele>779.721</ele>
        <time>2021-05-27T22:38:50Z</time>
      </trkpt>
      <trkpt lat="42.359582" lon="2.520646">
        <ele>779.408</ele>
        <time>2021-05-27T22:38:52Z</time>
      </trkpt>
      <trkpt lat="42.359593" lon="2.520615">
        <ele>778.833</ele>
        <time>2021-05-27T22:38:54Z</time>
      </trkpt>
      <trkpt lat="42.359608" lon="2.520587">
        <ele>778.510</ele>
        <time>2021-05-27T22:38:56Z</time>
      </trkpt>
      <trkpt lat="42.359618" lon="2.520561">
        <ele>778.198</ele>
        <time>2021-05-27T22:38:58Z</time>
      </trkpt>
      <trkpt lat="42.359628" lon="2.520533">
        <ele>777.888</ele>
        <time>2021-05-27T22:39:00Z</time>
      </trkpt>
      <trkpt lat="42.359637" lon="2.520503">
        <ele>777.555</ele>
        <time>2021-05-27T22:39:02Z</time>
      </trkpt>
      <trkpt lat="42.359650" lon="2.520476">
        <ele>777.450</ele>
        <time>2021-05-27T22:39:04Z</time>
      </trkpt>
      <trkpt lat="42.359663" lon="2.520447">
        <ele>777.113</ele>
        <time>2021-05-27T22:39:06Z</time>
      </trkpt>
      <trkpt lat="42.359675" lon="2.520421">
        <ele>776.839</ele>
        <time>2021-05-27T22:39:08Z</time>
      </trkpt>
      <trkpt lat="42.359687" lon="2.520396">
        <ele>776.569</ele>
        <time>2021-05-27T22:39:10Z</time>
      </trkpt>
      <trkpt lat="42.359696" lon="2.520368">
        <ele>776.004</ele>
        <time>2021-05-27T22:39:12Z</time>
      </trkpt>
      <trkpt lat="42.359707" lon="2.520339">
        <ele>775.524</ele>
        <time>2021-05-27T22:39:14Z</time>
      </trkpt>
      <trkpt lat="42.359720" lon="2.520312">
        <ele>774.908</ele>
        <time>2021-05-27T22:39:16Z</time>
      </trkpt>
      <trkpt lat="42.359732" lon="2.520283">
        <ele>774.693</ele>
        <time>2021-05-27T22:39:18Z</time>
      </trkpt>
      <trkpt lat="42.359742" lon="2.520251">
        <ele>774.530</ele>
        <time>2021-05-27T22:39:20Z</time>
      </trkpt>
      <trkpt lat="42.359754" lon="2.520220">
        <ele>774.678</ele>
        <time>2021-05-27T22:39:22Z</time>
      </trkpt>
      <trkpt lat="42.359764" lon="2.520191">
        <ele>774.618</ele>
        <time>2021-05-27T22:39:24Z</time>
      </trkpt>
      <trkpt lat="42.359775" lon="2.520165">
        <ele>774.695</ele>
        <time>2021-05-27T22:39:26Z</time>
      </trkpt>
      <trkpt lat="42.359788" lon="2.520139">
        <ele>774.740</ele>
        <time>2021-05-27T22:39:28Z</time>
      </trkpt>
      <trkpt lat="42.359803" lon="2.520114">
        <ele>774.993</ele>
        <time>2021-05-27T22:39:30Z</time>
      </trkpt>
      <trkpt lat="42.359816" lon="2.520086">
        <ele>774.929</ele>
        <time>2021-05-27T22:39:32Z</time>
      </trkpt>
      <trkpt lat="42.359828" lon="2.520058">
        <ele>774.999</ele>
        <time>2021-05-27T22:39:34Z</time>
      </trkpt>
      <trkpt lat="42.359840" lon="2.520031">
        <ele>774.807</ele>
        <time>2021-05-27T22:39:36Z</time>
      </trkpt>
      <trkpt lat="42.359852" lon="2.520002">
        <ele>774.727</ele>
        <time>2021-05-27T22:39:38Z</time>
      </trkpt>
      <trkpt lat="42.359865" lon="2.519975">
        <ele>774.808</ele>
        <time>2021-05-27T22:39:40Z</time>
      </trkpt>
      <trkpt lat="42.359876" lon="2.519949">
        <ele>774.886</ele>
        <time>2021-05-27T22:39:42Z</time>
      </trkpt>
      <trkpt lat="42.359888" lon="2.519922">
        <ele>774.833</ele>
        <time>2021-05-27T22:39:44Z</time>
      </trkpt>
      <trkpt lat="42.359902" lon="2.519897">
        <ele>774.921</ele>
        <time>2021-05-27T22:39:46Z</time>
      </trkpt>
      <trkpt lat="42.359917" lon="2.519873">
        <ele>775.071</ele>
        <time>2021-05-27T22:39:48Z</time>
      </trkpt>
      <trkpt lat="42.359930" lon="2.519848">
        <ele>774.998</ele>
        <time>2021-05-27T22:39:50Z</time>
      </trkpt>
      <trkpt lat="42.359947" lon="2.519826">
        <ele>774.933</ele>
        <time>2021-05-27T22:39:52Z</time>
      </trkpt>
      <trkpt lat="42.359963" lon="2.519807">
        <ele>775.076</ele>
        <time>2021-05-27T22:39:54Z</time>
      </trkpt>
      <trkpt lat="42.359983" lon="2.519792">
        <ele>775.122</ele>
        <time>2021-05-27T22:39:56Z</time>
      </trkpt>
      <trkpt lat="42.360003" lon="2.519776">
        <ele>775.233</ele>
        <time>2021-05-27T22:39:58Z</time>
      </trkpt>
      <trkpt lat="42.360022" lon="2.519760">
        <ele>775.423</ele>
        <time>2021-05-27T22:40:00Z</time>
      </trkpt>
      <trkpt lat="42.360042" lon="2.519745">
        <ele>775.515</ele>
        <time>2021-05-27T22:40:02Z</time>
      </trkpt>
      <trkpt lat="42.360064" lon="2.519727">
        <ele>775.708</ele>
        <time>2021-05-27T22:40:04Z</time>
      </trkpt>
      <trkpt lat="42.360087" lon="2.519714">
        <ele>776.020</ele>
        <time>2021-05-27T22:40:06Z</time>
      </trkpt>
      <trkpt lat="42.360109" lon="2.519699">
        <ele>776.387</ele>
        <time>2021-05-27T22:40:08Z</time>
      </trkpt>
      <trkpt lat="42.360126" lon="2.519687">
        <ele>776.445</ele>
        <time>2021-05-27T22:40:10Z</time>
      </trkpt>
      <trkpt lat="42.360152" lon="2.519677">
        <ele>776.835</ele>
        <time>2021-05-27T22:40:12Z</time>
      </trkpt>
      <trkpt lat="42.360177" lon="2.519671">
        <ele>777.362</ele>
        <time>2021-05-27T22:40:14Z</time>
      </trkpt>
      <trkpt lat="42.360200" lon="2.519667">
        <ele>777.887</ele>
        <time>2021-05-27T22:40:17Z</time>
      </trkpt>
      <trkpt lat="42.360195" lon="2.519634">
        <ele>776.920</ele>
        <time>2021-05-27T22:40:24Z</time>
      </trkpt>
      <trkpt lat="42.360160" lon="2.519592">
        <ele>775.146</ele>
        <time>2021-05-27T22:40:45Z</time>
      </trkpt>
      <trkpt lat="42.360195" lon="2.519577">
        <ele>775.688</ele>
        <time>2021-05-27T22:40:50Z</time>
      </trkpt>
      <trkpt lat="42.360223" lon="2.519579">
        <ele>776.224</ele>
        <time>2021-05-27T22:40:52Z</time>
      </trkpt>
      <trkpt lat="42.360249" lon="2.519572">
        <ele>776.626</ele>
        <time>2021-05-27T22:40:54Z</time>
      </trkpt>
      <trkpt lat="42.360277" lon="2.519568">
        <ele>777.108</ele>
        <time>2021-05-27T22:40:56Z</time>
      </trkpt>
      <trkpt lat="42.360300" lon="2.519559">
        <ele>777.295</ele>
        <time>2021-05-27T22:40:58Z</time>
      </trkpt>
      <trkpt lat="42.360327" lon="2.519554">
        <ele>777.542</ele>
        <time>2021-05-27T22:41:00Z</time>
      </trkpt>
      <trkpt lat="42.360351" lon="2.519556">
        <ele>778.080</ele>
        <time>2021-05-27T22:41:02Z</time>
      </trkpt>
      <trkpt lat="42.360372" lon="2.519561">
        <ele>778.410</ele>
        <time>2021-05-27T22:41:04Z</time>
      </trkpt>
      <trkpt lat="42.360391" lon="2.519546">
        <ele>778.367</ele>
        <time>2021-05-27T22:41:06Z</time>
      </trkpt>
      <trkpt lat="42.360413" lon="2.519535">
        <ele>778.472</ele>
        <time>2021-05-27T22:41:08Z</time>
      </trkpt>
      <trkpt lat="42.360439" lon="2.519521">
        <ele>778.425</ele>
        <time>2021-05-27T22:41:13Z</time>
      </trkpt>
      <trkpt lat="42.360464" lon="2.519510">
        <ele>778.551</ele>
        <time>2021-05-27T22:41:15Z</time>
      </trkpt>
      <trkpt lat="42.360488" lon="2.519499">
        <ele>778.697</ele>
        <time>2021-05-27T22:41:17Z</time>
      </trkpt>
      <trkpt lat="42.360510" lon="2.519493">
        <ele>778.723</ele>
        <time>2021-05-27T22:41:19Z</time>
      </trkpt>
      <trkpt lat="42.360536" lon="2.519484">
        <ele>778.825</ele>
        <time>2021-05-27T22:41:22Z</time>
      </trkpt>
      <trkpt lat="42.360557" lon="2.519479">
        <ele>779.008</ele>
        <time>2021-05-27T22:41:26Z</time>
      </trkpt>
      <trkpt lat="42.360580" lon="2.519477">
        <ele>779.366</ele>
        <time>2021-05-27T22:41:28Z</time>
      </trkpt>
      <trkpt lat="42.360601" lon="2.519477">
        <ele>779.693</ele>
        <time>2021-05-27T22:41:30Z</time>
      </trkpt>
      <trkpt lat="42.360623" lon="2.519473">
        <ele>779.811</ele>
        <time>2021-05-27T22:41:32Z</time>
      </trkpt>
      <trkpt lat="42.360650" lon="2.519474">
        <ele>780.281</ele>
        <time>2021-05-27T22:41:34Z</time>
      </trkpt>
      <trkpt lat="42.360670" lon="2.519473">
        <ele>780.578</ele>
        <time>2021-05-27T22:41:36Z</time>
      </trkpt>
      <trkpt lat="42.360700" lon="2.519473">
        <ele>781.073</ele>
        <time>2021-05-27T22:41:39Z</time>
      </trkpt>
      <trkpt lat="42.360730" lon="2.519469">
        <ele>781.326</ele>
        <time>2021-05-27T22:41:41Z</time>
      </trkpt>
      <trkpt lat="42.360748" lon="2.519466">
        <ele>781.452</ele>
        <time>2021-05-27T22:41:43Z</time>
      </trkpt>
      <trkpt lat="42.360755" lon="2.519442">
        <ele>780.878</ele>
        <time>2021-05-27T22:41:49Z</time>
      </trkpt>
      <trkpt lat="42.360763" lon="2.519413">
        <ele>780.233</ele>
        <time>2021-05-27T22:43:22Z</time>
      </trkpt>
      <trkpt lat="42.360762" lon="2.519388">
        <ele>779.526</ele>
        <time>2021-05-27T22:43:26Z</time>
      </trkpt>
      <trkpt lat="42.360726" lon="2.519297">
        <ele>776.708</ele>
        <time>2021-05-27T22:43:37Z</time>
      </trkpt>
      <trkpt lat="42.360686" lon="2.519275">
        <ele>775.644</ele>
        <time>2021-05-27T22:44:01Z</time>
      </trkpt>
      <trkpt lat="42.360703" lon="2.519262">
        <ele>775.541</ele>
        <time>2021-05-27T22:44:05Z</time>
      </trkpt>
      <trkpt lat="42.360717" lon="2.519242">
        <ele>775.249</ele>
        <time>2021-05-27T22:44:09Z</time>
      </trkpt>
      <trkpt lat="42.360722" lon="2.519211">
        <ele>774.589</ele>
        <time>2021-05-27T22:44:16Z</time>
      </trkpt>
      <trkpt lat="42.360726" lon="2.519182">
        <ele>773.836</ele>
        <time>2021-05-27T22:44:19Z</time>
      </trkpt>
      <trkpt lat="42.360740" lon="2.519152">
        <ele>773.191</ele>
        <time>2021-05-27T22:44:23Z</time>
      </trkpt>
      <trkpt lat="42.360760" lon="2.519140">
        <ele>773.074</ele>
        <time>2021-05-27T22:44:26Z</time>
      </trkpt>
      <trkpt lat="42.360770" lon="2.519173">
        <ele>774.260</ele>
        <time>2021-05-27T22:44:36Z</time>
      </trkpt>
      <trkpt lat="42.360791" lon="2.519160">
        <ele>774.259</ele>
        <time>2021-05-27T22:44:38Z</time>
      </trkpt>
      <trkpt lat="42.360811" lon="2.519145">
        <ele>773.903</ele>
        <time>2021-05-27T22:44:40Z</time>
      </trkpt>
      <trkpt lat="42.360886" lon="2.519059">
        <ele>771.523</ele>
        <time>2021-05-27T22:44:47Z</time>
      </trkpt>
      <trkpt lat="42.360953" lon="2.518973">
        <ele>768.908</ele>
        <time>2021-05-27T22:44:53Z</time>
      </trkpt>
      <trkpt lat="42.360998" lon="2.518944">
        <ele>768.262</ele>
        <time>2021-05-27T22:44:57Z</time>
      </trkpt>
      <trkpt lat="42.361054" lon="2.518961">
        <ele>769.279</ele>
        <time>2021-05-27T22:45:02Z</time>
      </trkpt>
      <trkpt lat="42.361078" lon="2.518967">
        <ele>769.617</ele>
        <time>2021-05-27T22:45:05Z</time>
      </trkpt>
      <trkpt lat="42.361096" lon="2.518955">
        <ele>769.387</ele>
        <time>2021-05-27T22:45:07Z</time>
      </trkpt>
      <trkpt lat="42.361122" lon="2.518944">
        <ele>769.094</ele>
        <time>2021-05-27T22:45:10Z</time>
      </trkpt>
      <trkpt lat="42.361155" lon="2.518943">
        <ele>769.199</ele>
        <time>2021-05-27T22:45:13Z</time>
      </trkpt>
      <trkpt lat="42.361203" lon="2.518939">
        <ele>769.222</ele>
        <time>2021-05-27T22:45:17Z</time>
      </trkpt>
      <trkpt lat="42.361304" lon="2.518938">
        <ele>769.668</ele>
        <time>2021-05-27T22:45:23Z</time>
      </trkpt>
      <trkpt lat="42.361322" lon="2.518929">
        <ele>769.342</ele>
        <time>2021-05-27T22:45:24Z</time>
      </trkpt>
      <trkpt lat="42.361350" lon="2.518916">
        <ele>768.922</ele>
        <time>2021-05-27T22:45:26Z</time>
      </trkpt>
      <trkpt lat="42.361365" lon="2.518902">
        <ele>768.414</ele>
        <time>2021-05-27T22:45:27Z</time>
      </trkpt>
      <trkpt lat="42.361382" lon="2.518889">
        <ele>768.008</ele>
        <time>2021-05-27T22:45:28Z</time>
      </trkpt>
      <trkpt lat="42.361402" lon="2.518874">
        <ele>767.691</ele>
        <time>2021-05-27T22:45:29Z</time>
      </trkpt>
      <trkpt lat="42.361422" lon="2.518860">
        <ele>767.368</ele>
        <time>2021-05-27T22:45:30Z</time>
      </trkpt>
      <trkpt lat="42.361455" lon="2.518840">
        <ele>766.846</ele>
        <time>2021-05-27T22:45:32Z</time>
      </trkpt>
      <trkpt lat="42.361484" lon="2.518820">
        <ele>766.366</ele>
        <time>2021-05-27T22:45:34Z</time>
      </trkpt>
      <trkpt lat="42.361498" lon="2.518803">
        <ele>765.833</ele>
        <time>2021-05-27T22:45:35Z</time>
      </trkpt>
      <trkpt lat="42.361518" lon="2.518786">
        <ele>765.338</ele>
        <time>2021-05-27T22:45:36Z</time>
      </trkpt>
      <trkpt lat="42.361557" lon="2.518752">
        <ele>764.211</ele>
        <time>2021-05-27T22:45:38Z</time>
      </trkpt>
      <trkpt lat="42.361573" lon="2.518738">
        <ele>763.717</ele>
        <time>2021-05-27T22:45:39Z</time>
      </trkpt>
      <trkpt lat="42.361595" lon="2.518705">
        <ele>762.555</ele>
        <time>2021-05-27T22:45:41Z</time>
      </trkpt>
      <trkpt lat="42.361604" lon="2.518669">
        <ele>761.207</ele>
        <time>2021-05-27T22:45:43Z</time>
      </trkpt>
      <trkpt lat="42.361608" lon="2.518640">
        <ele>760.117</ele>
        <time>2021-05-27T22:45:45Z</time>
      </trkpt>
      <trkpt lat="42.361611" lon="2.518611">
        <ele>759.008</ele>
        <time>2021-05-27T22:45:47Z</time>
      </trkpt>
      <trkpt lat="42.361616" lon="2.518578">
        <ele>759.322</ele>
        <time>2021-05-27T22:45:49Z</time>
      </trkpt>
      <trkpt lat="42.361627" lon="2.518556">
        <ele>759.579</ele>
        <time>2021-05-27T22:45:51Z</time>
      </trkpt>
      <trkpt lat="42.361632" lon="2.518529">
        <ele>759.747</ele>
        <time>2021-05-27T22:45:53Z</time>
      </trkpt>
      <trkpt lat="42.361635" lon="2.518499">
        <ele>759.917</ele>
        <time>2021-05-27T22:45:55Z</time>
      </trkpt>
      <trkpt lat="42.361645" lon="2.518471">
        <ele>760.144</ele>
        <time>2021-05-27T22:45:57Z</time>
      </trkpt>
      <trkpt lat="42.361652" lon="2.518440">
        <ele>760.339</ele>
        <time>2021-05-27T22:45:59Z</time>
      </trkpt>
      <trkpt lat="42.361663" lon="2.518410">
        <ele>760.582</ele>
        <time>2021-05-27T22:46:01Z</time>
      </trkpt>
      <trkpt lat="42.361684" lon="2.518391">
        <ele>760.568</ele>
        <time>2021-05-27T22:46:03Z</time>
      </trkpt>
      <trkpt lat="42.361707" lon="2.518374">
        <ele>760.565</ele>
        <time>2021-05-27T22:46:05Z</time>
      </trkpt>
      <trkpt lat="42.361735" lon="2.518363">
        <ele>760.368</ele>
        <time>2021-05-27T22:46:07Z</time>
      </trkpt>
      <trkpt lat="42.361755" lon="2.518355">
        <ele>760.314</ele>
        <time>2021-05-27T22:46:09Z</time>
      </trkpt>
      <trkpt lat="42.361775" lon="2.518360">
        <ele>760.108</ele>
        <time>2021-05-27T22:46:11Z</time>
      </trkpt>
      <trkpt lat="42.361798" lon="2.518356">
        <ele>760.023</ele>
        <time>2021-05-27T22:46:13Z</time>
      </trkpt>
      <trkpt lat="42.361817" lon="2.518346">
        <ele>759.950</ele>
        <time>2021-05-27T22:46:15Z</time>
      </trkpt>
      <trkpt lat="42.361833" lon="2.518354">
        <ele>759.798</ele>
        <time>2021-05-27T22:46:17Z</time>
      </trkpt>
      <trkpt lat="42.361926" lon="2.518332">
        <ele>759.258</ele>
        <time>2021-05-27T22:46:22Z</time>
      </trkpt>
      <trkpt lat="42.362022" lon="2.518282">
        <ele>759.235</ele>
        <time>2021-05-27T22:46:28Z</time>
      </trkpt>
      <trkpt lat="42.362113" lon="2.518249">
        <ele>758.420</ele>
        <time>2021-05-27T22:46:35Z</time>
      </trkpt>
      <trkpt lat="42.362191" lon="2.518177">
        <ele>758.583</ele>
        <time>2021-05-27T22:46:46Z</time>
      </trkpt>
      <trkpt lat="42.362266" lon="2.518084">
        <ele>758.739</ele>
        <time>2021-05-27T22:46:56Z</time>
      </trkpt>
      <trkpt lat="42.362355" lon="2.518044">
        <ele>758.211</ele>
        <time>2021-05-27T22:47:03Z</time>
      </trkpt>
      <trkpt lat="42.362436" lon="2.517983">
        <ele>759.421</ele>
        <time>2021-05-27T22:47:16Z</time>
      </trkpt>
      <trkpt lat="42.362511" lon="2.517903">
        <ele>761.403</ele>
        <time>2021-05-27T22:47:23Z</time>
      </trkpt>
      <trkpt lat="42.362605" lon="2.517876">
        <ele>760.608</ele>
        <time>2021-05-27T22:47:32Z</time>
      </trkpt>
      <trkpt lat="42.362704" lon="2.517860">
        <ele>759.238</ele>
        <time>2021-05-27T22:47:39Z</time>
      </trkpt>
      <trkpt lat="42.362792" lon="2.517818">
        <ele>758.645</ele>
        <time>2021-05-27T22:47:47Z</time>
      </trkpt>
      <trkpt lat="42.362855" lon="2.517721">
        <ele>760.143</ele>
        <time>2021-05-27T22:47:56Z</time>
      </trkpt>
      <trkpt lat="42.362933" lon="2.517620">
        <ele>761.153</ele>
        <time>2021-05-27T22:48:02Z</time>
      </trkpt>
      <trkpt lat="42.363003" lon="2.517541">
        <ele>761.410</ele>
        <time>2021-05-27T22:48:05Z</time>
      </trkpt>
      <trkpt lat="42.363093" lon="2.517563">
        <ele>759.725</ele>
        <time>2021-05-27T22:48:16Z</time>
      </trkpt>
      <trkpt lat="42.363160" lon="2.517604">
        <ele>759.028</ele>
        <time>2021-05-27T22:48:22Z</time>
      </trkpt>
      <trkpt lat="42.363194" lon="2.517596">
        <ele>759.394</ele>
        <time>2021-05-27T22:48:24Z</time>
      </trkpt>
      <trkpt lat="42.363228" lon="2.517588">
        <ele>759.566</ele>
        <time>2021-05-27T22:48:26Z</time>
      </trkpt>
      <trkpt lat="42.363248" lon="2.517583">
        <ele>759.729</ele>
        <time>2021-05-27T22:48:29Z</time>
      </trkpt>
      <trkpt lat="42.363270" lon="2.517581">
        <ele>759.821</ele>
        <time>2021-05-27T22:48:31Z</time>
      </trkpt>
      <trkpt lat="42.363297" lon="2.517568">
        <ele>760.208</ele>
        <time>2021-05-27T22:48:34Z</time>
      </trkpt>
      <trkpt lat="42.363317" lon="2.517552">
        <ele>760.673</ele>
        <time>2021-05-27T22:48:36Z</time>
      </trkpt>
      <trkpt lat="42.363333" lon="2.517540">
        <ele>761.050</ele>
        <time>2021-05-27T22:48:38Z</time>
      </trkpt>
      <trkpt lat="42.363354" lon="2.517530">
        <ele>761.028</ele>
        <time>2021-05-27T22:48:40Z</time>
      </trkpt>
      <trkpt lat="42.363370" lon="2.517511">
        <ele>761.358</ele>
        <time>2021-05-27T22:48:42Z</time>
      </trkpt>
      <trkpt lat="42.363386" lon="2.517494">
        <ele>761.545</ele>
        <time>2021-05-27T22:48:44Z</time>
      </trkpt>
      <trkpt lat="42.363399" lon="2.517470">
        <ele>761.930</ele>
        <time>2021-05-27T22:48:46Z</time>
      </trkpt>
      <trkpt lat="42.363418" lon="2.517450">
        <ele>762.073</ele>
        <time>2021-05-27T22:48:48Z</time>
      </trkpt>
      <trkpt lat="42.363432" lon="2.517433">
        <ele>762.229</ele>
        <time>2021-05-27T22:48:50Z</time>
      </trkpt>
      <trkpt lat="42.363447" lon="2.517416">
        <ele>762.456</ele>
        <time>2021-05-27T22:48:52Z</time>
      </trkpt>
      <trkpt lat="42.363460" lon="2.517397">
        <ele>762.759</ele>
        <time>2021-05-27T22:48:54Z</time>
      </trkpt>
      <trkpt lat="42.363478" lon="2.517382">
        <ele>762.814</ele>
        <time>2021-05-27T22:48:57Z</time>
      </trkpt>
      <trkpt lat="42.363498" lon="2.517360">
        <ele>763.008</ele>
        <time>2021-05-27T22:48:59Z</time>
      </trkpt>
      <trkpt lat="42.363498" lon="2.517329">
        <ele>763.752</ele>
        <time>2021-05-27T22:49:01Z</time>
      </trkpt>
      <trkpt lat="42.363488" lon="2.517299">
        <ele>764.479</ele>
        <time>2021-05-27T22:49:03Z</time>
      </trkpt>
      <trkpt lat="42.363472" lon="2.517278">
        <ele>764.967</ele>
        <time>2021-05-27T22:49:05Z</time>
      </trkpt>
      <trkpt lat="42.363447" lon="2.517262">
        <ele>765.467</ele>
        <time>2021-05-27T22:49:08Z</time>
      </trkpt>
      <trkpt lat="42.363429" lon="2.517257">
        <ele>765.624</ele>
        <time>2021-05-27T22:49:10Z</time>
      </trkpt>
      <trkpt lat="42.363409" lon="2.517257">
        <ele>765.829</ele>
        <time>2021-05-27T22:49:13Z</time>
      </trkpt>
      <trkpt lat="42.363391" lon="2.517265">
        <ele>765.882</ele>
        <time>2021-05-27T22:49:15Z</time>
      </trkpt>
      <trkpt lat="42.363373" lon="2.517270">
        <ele>765.848</ele>
        <time>2021-05-27T22:49:17Z</time>
      </trkpt>
      <trkpt lat="42.363354" lon="2.517274">
        <ele>765.914</ele>
        <time>2021-05-27T22:49:19Z</time>
      </trkpt>
      <trkpt lat="42.363335" lon="2.517271">
        <ele>766.154</ele>
        <time>2021-05-27T22:49:21Z</time>
      </trkpt>
      <trkpt lat="42.363311" lon="2.517256">
        <ele>766.309</ele>
        <time>2021-05-27T22:49:24Z</time>
      </trkpt>
      <trkpt lat="42.363293" lon="2.517242">
        <ele>766.508</ele>
        <time>2021-05-27T22:49:26Z</time>
      </trkpt>
      <trkpt lat="42.363279" lon="2.517223">
        <ele>766.888</ele>
        <time>2021-05-27T22:49:28Z</time>
      </trkpt>
      <trkpt lat="42.363269" lon="2.517188">
        <ele>767.845</ele>
        <time>2021-05-27T22:49:31Z</time>
      </trkpt>
      <trkpt lat="42.363263" lon="2.517155">
        <ele>768.823</ele>
        <time>2021-05-27T22:49:33Z</time>
      </trkpt>
      <trkpt lat="42.363260" lon="2.517119">
        <ele>769.923</ele>
        <time>2021-05-27T22:49:35Z</time>
      </trkpt>
      <trkpt lat="42.363260" lon="2.517083">
        <ele>771.030</ele>
        <time>2021-05-27T22:49:37Z</time>
      </trkpt>
      <trkpt lat="42.363262" lon="2.517049">
        <ele>772.025</ele>
        <time>2021-05-27T22:49:39Z</time>
      </trkpt>
      <trkpt lat="42.363266" lon="2.517024">
        <ele>772.848</ele>
        <time>2021-05-27T22:49:41Z</time>
      </trkpt>
      <trkpt lat="42.363282" lon="2.517004">
        <ele>773.644</ele>
        <time>2021-05-27T22:49:45Z</time>
      </trkpt>
      <trkpt lat="42.363293" lon="2.517039">
        <ele>772.678</ele>
        <time>2021-05-27T22:49:52Z</time>
      </trkpt>
      <trkpt lat="42.363312" lon="2.517020">
        <ele>773.433</ele>
        <time>2021-05-27T22:49:57Z</time>
      </trkpt>
      <trkpt lat="42.363333" lon="2.517016">
        <ele>773.726</ele>
        <time>2021-05-27T22:50:00Z</time>
      </trkpt>
      <trkpt lat="42.363351" lon="2.517009">
        <ele>773.808</ele>
        <time>2021-05-27T22:50:04Z</time>
      </trkpt>
      <trkpt lat="42.363366" lon="2.516992">
        <ele>774.224</ele>
        <time>2021-05-27T22:50:08Z</time>
      </trkpt>
      <trkpt lat="42.363407" lon="2.516970">
        <ele>774.621</ele>
        <time>2021-05-27T22:50:13Z</time>
      </trkpt>
      <trkpt lat="42.363428" lon="2.516954">
        <ele>775.019</ele>
        <time>2021-05-27T22:50:16Z</time>
      </trkpt>
      <trkpt lat="42.363450" lon="2.516931">
        <ele>775.699</ele>
        <time>2021-05-27T22:50:19Z</time>
      </trkpt>
      <trkpt lat="42.363470" lon="2.516914">
        <ele>776.056</ele>
        <time>2021-05-27T22:50:21Z</time>
      </trkpt>
      <trkpt lat="42.363490" lon="2.516904">
        <ele>776.261</ele>
        <time>2021-05-27T22:50:24Z</time>
      </trkpt>
      <trkpt lat="42.363510" lon="2.516892">
        <ele>776.464</ele>
        <time>2021-05-27T22:50:27Z</time>
      </trkpt>
      <trkpt lat="42.363534" lon="2.516883">
        <ele>776.550</ele>
        <time>2021-05-27T22:50:30Z</time>
      </trkpt>
      <trkpt lat="42.363557" lon="2.516868">
        <ele>776.918</ele>
        <time>2021-05-27T22:50:44Z</time>
      </trkpt>
      <trkpt lat="42.363572" lon="2.516841">
        <ele>777.698</ele>
        <time>2021-05-27T22:50:47Z</time>
      </trkpt>
      <trkpt lat="42.363587" lon="2.516823">
        <ele>778.117</ele>
        <time>2021-05-27T22:50:49Z</time>
      </trkpt>
      <trkpt lat="42.363626" lon="2.516711">
        <ele>781.208</ele>
        <time>2021-05-27T22:50:58Z</time>
      </trkpt>
      <trkpt lat="42.363685" lon="2.516609">
        <ele>783.168</ele>
        <time>2021-05-27T22:51:07Z</time>
      </trkpt>
      <trkpt lat="42.363741" lon="2.516509">
        <ele>785.075</ele>
        <time>2021-05-27T22:51:14Z</time>
      </trkpt>
      <trkpt lat="42.363828" lon="2.516443">
        <ele>785.423</ele>
        <time>2021-05-27T22:51:21Z</time>
      </trkpt>
      <trkpt lat="42.363917" lon="2.516392">
        <ele>785.353</ele>
        <time>2021-05-27T22:51:28Z</time>
      </trkpt>
      <trkpt lat="42.364009" lon="2.516353">
        <ele>784.890</ele>
        <time>2021-05-27T22:51:36Z</time>
      </trkpt>
      <trkpt lat="42.364078" lon="2.516258">
        <ele>786.965</ele>
        <time>2021-05-27T22:51:44Z</time>
      </trkpt>
      <trkpt lat="42.364163" lon="2.516197">
        <ele>787.778</ele>
        <time>2021-05-27T22:51:54Z</time>
      </trkpt>
      <trkpt lat="42.364215" lon="2.516097">
        <ele>791.014</ele>
        <time>2021-05-27T22:52:00Z</time>
      </trkpt>
      <trkpt lat="42.364300" lon="2.516045">
        <ele>792.252</ele>
        <time>2021-05-27T22:52:08Z</time>
      </trkpt>
      <trkpt lat="42.364389" lon="2.516024">
        <ele>792.253</ele>
        <time>2021-05-27T22:52:15Z</time>
      </trkpt>
      <trkpt lat="42.364483" lon="2.516035">
        <ele>791.708</ele>
        <time>2021-05-27T22:52:33Z</time>
      </trkpt>
      <trkpt lat="42.364581" lon="2.516055">
        <ele>792.008</ele>
        <time>2021-05-27T22:52:41Z</time>
      </trkpt>
      <trkpt lat="42.364678" lon="2.516049">
        <ele>793.452</ele>
        <time>2021-05-27T22:52:48Z</time>
      </trkpt>
      <trkpt lat="42.364752" lon="2.516000">
        <ele>795.719</ele>
        <time>2021-05-27T22:53:00Z</time>
      </trkpt>
      <trkpt lat="42.364781" lon="2.515964">
        <ele>796.857</ele>
        <time>2021-05-27T22:53:12Z</time>
      </trkpt>
      <trkpt lat="42.364751" lon="2.515846">
        <ele>802.867</ele>
        <time>2021-05-27T22:53:27Z</time>
      </trkpt>
      <trkpt lat="42.364696" lon="2.515747">
        <ele>806.754</ele>
        <time>2021-05-27T22:53:38Z</time>
      </trkpt>
      <trkpt lat="42.364669" lon="2.515629">
        <ele>810.489</ele>
        <time>2021-05-27T22:53:49Z</time>
      </trkpt>
      <trkpt lat="42.364757" lon="2.515676">
        <ele>809.052</ele>
        <time>2021-05-27T22:54:18Z</time>
      </trkpt>
      <trkpt lat="42.364783" lon="2.515678">
        <ele>808.418</ele>
        <time>2021-05-27T22:54:21Z</time>
      </trkpt>
      <trkpt lat="42.364802" lon="2.515660">
        <ele>808.749</ele>
        <time>2021-05-27T22:54:23Z</time>
      </trkpt>
      <trkpt lat="42.364878" lon="2.515576">
        <ele>810.402</ele>
        <time>2021-05-27T22:54:40Z</time>
      </trkpt>
      <trkpt lat="42.364925" lon="2.515459">
        <ele>813.822</ele>
        <time>2021-05-27T22:54:55Z</time>
      </trkpt>
      <trkpt lat="42.364970" lon="2.515342">
        <ele>817.208</ele>
        <time>2021-05-27T22:55:04Z</time>
      </trkpt>
      <trkpt lat="42.365043" lon="2.515255">
        <ele>818.311</ele>
        <time>2021-05-27T22:55:15Z</time>
      </trkpt>
      <trkpt lat="42.365104" lon="2.515147">
        <ele>820.118</ele>
        <time>2021-05-27T22:55:24Z</time>
      </trkpt>
      <trkpt lat="42.365157" lon="2.515034">
        <ele>822.686</ele>
        <time>2021-05-27T22:55:33Z</time>
      </trkpt>
      <trkpt lat="42.365185" lon="2.514911">
        <ele>826.256</ele>
        <time>2021-05-27T22:55:46Z</time>
      </trkpt>
      <trkpt lat="42.365268" lon="2.514862">
        <ele>825.333</ele>
        <time>2021-05-27T22:55:54Z</time>
      </trkpt>
      <trkpt lat="42.365300" lon="2.514744">
        <ele>828.488</ele>
        <time>2021-05-27T22:56:02Z</time>
      </trkpt>
      <trkpt lat="42.365332" lon="2.514624">
        <ele>831.781</ele>
        <time>2021-05-27T22:56:10Z</time>
      </trkpt>
      <trkpt lat="42.365388" lon="2.514516">
        <ele>833.097</ele>
        <time>2021-05-27T22:56:20Z</time>
      </trkpt>
      <trkpt lat="42.365431" lon="2.514390">
        <ele>834.743</ele>
        <time>2021-05-27T22:56:30Z</time>
      </trkpt>
      <trkpt lat="42.365465" lon="2.514259">
        <ele>836.564</ele>
        <time>2021-05-27T22:56:40Z</time>
      </trkpt>
      <trkpt lat="42.365514" lon="2.514147">
        <ele>836.810</ele>
        <time>2021-05-27T22:56:54Z</time>
      </trkpt>
      <trkpt lat="42.365539" lon="2.514023">
        <ele>839.008</ele>
        <time>2021-05-27T22:57:09Z</time>
      </trkpt>
      <trkpt lat="42.365531" lon="2.513997">
        <ele>840.141</ele>
        <time>2021-05-27T22:57:13Z</time>
      </trkpt>
      <trkpt lat="42.365577" lon="2.513886">
        <ele>842.058</ele>
        <time>2021-05-27T22:57:25Z</time>
      </trkpt>
      <trkpt lat="42.365615" lon="2.513772">
        <ele>847.026</ele>
        <time>2021-05-27T22:57:38Z</time>
      </trkpt>
      <trkpt lat="42.365705" lon="2.513780">
        <ele>846.626</ele>
        <time>2021-05-27T22:57:51Z</time>
      </trkpt>
      <trkpt lat="42.365780" lon="2.513862">
        <ele>842.593</ele>
        <time>2021-05-27T22:58:00Z</time>
      </trkpt>
      <trkpt lat="42.365875" lon="2.513924">
        <ele>840.028</ele>
        <time>2021-05-27T22:58:08Z</time>
      </trkpt>
      <trkpt lat="42.365972" lon="2.513951">
        <ele>841.031</ele>
        <time>2021-05-27T22:58:14Z</time>
      </trkpt>
      <trkpt lat="42.366067" lon="2.513974">
        <ele>842.537</ele>
        <time>2021-05-27T22:58:19Z</time>
      </trkpt>
      <trkpt lat="42.366171" lon="2.513962">
        <ele>844.214</ele>
        <time>2021-05-27T22:58:24Z</time>
      </trkpt>
      <trkpt lat="42.366262" lon="2.513927">
        <ele>845.454</ele>
        <time>2021-05-27T22:58:29Z</time>
      </trkpt>
      <trkpt lat="42.366341" lon="2.513861">
        <ele>847.209</ele>
        <time>2021-05-27T22:58:35Z</time>
      </trkpt>
      <trkpt lat="42.366405" lon="2.513771">
        <ele>849.008</ele>
        <time>2021-05-27T22:58:40Z</time>
      </trkpt>
      <trkpt lat="42.366451" lon="2.513661">
        <ele>850.988</ele>
        <time>2021-05-27T22:58:49Z</time>
      </trkpt>
      <trkpt lat="42.366451" lon="2.513530">
        <ele>854.525</ele>
        <time>2021-05-27T22:58:56Z</time>
      </trkpt>
      <trkpt lat="42.366498" lon="2.513416">
        <ele>856.543</ele>
        <time>2021-05-27T22:59:03Z</time>
      </trkpt>
      <trkpt lat="42.366585" lon="2.513349">
        <ele>855.933</ele>
        <time>2021-05-27T22:59:08Z</time>
      </trkpt>
      <trkpt lat="42.366663" lon="2.513276">
        <ele>856.290</ele>
        <time>2021-05-27T22:59:14Z</time>
      </trkpt>
      <trkpt lat="42.366750" lon="2.513228">
        <ele>856.955</ele>
        <time>2021-05-27T22:59:23Z</time>
      </trkpt>
      <trkpt lat="42.366849" lon="2.513205">
        <ele>856.738</ele>
        <time>2021-05-27T22:59:30Z</time>
      </trkpt>
      <trkpt lat="42.366951" lon="2.513202">
        <ele>855.784</ele>
        <time>2021-05-27T22:59:39Z</time>
      </trkpt>
      <trkpt lat="42.367021" lon="2.513114">
        <ele>858.771</ele>
        <time>2021-05-27T22:59:49Z</time>
      </trkpt>
      <trkpt lat="42.367121" lon="2.513071">
        <ele>859.841</ele>
        <time>2021-05-27T23:00:00Z</time>
      </trkpt>
      <trkpt lat="42.367238" lon="2.513066">
        <ele>859.815</ele>
        <time>2021-05-27T23:00:07Z</time>
      </trkpt>
      <trkpt lat="42.367313" lon="2.512999">
        <ele>863.208</ele>
        <time>2021-05-27T23:00:16Z</time>
      </trkpt>
      <trkpt lat="42.367360" lon="2.512967">
        <ele>864.714</ele>
        <time>2021-05-27T23:00:22Z</time>
      </trkpt>
      <trkpt lat="42.367432" lon="2.512883">
        <ele>867.571</ele>
        <time>2021-05-27T23:00:37Z</time>
      </trkpt>
      <trkpt lat="42.367451" lon="2.512890">
        <ele>867.369</ele>
        <time>2021-05-27T23:00:38Z</time>
      </trkpt>
      <trkpt lat="42.367460" lon="2.512862">
        <ele>868.079</ele>
        <time>2021-05-27T23:00:41Z</time>
      </trkpt>
      <trkpt lat="42.367473" lon="2.512838">
        <ele>868.636</ele>
        <time>2021-05-27T23:00:46Z</time>
      </trkpt>
      <trkpt lat="42.367540" lon="2.512745">
        <ele>870.131</ele>
        <time>2021-05-27T23:00:56Z</time>
      </trkpt>
      <trkpt lat="42.367546" lon="2.512721">
        <ele>870.234</ele>
        <time>2021-05-27T23:00:58Z</time>
      </trkpt>
      <trkpt lat="42.367563" lon="2.512695">
        <ele>870.340</ele>
        <time>2021-05-27T23:01:01Z</time>
      </trkpt>
      <trkpt lat="42.367578" lon="2.512673">
        <ele>870.227</ele>
        <time>2021-05-27T23:01:04Z</time>
      </trkpt>
      <trkpt lat="42.367583" lon="2.512649">
        <ele>870.368</ele>
        <time>2021-05-27T23:01:07Z</time>
      </trkpt>
      <trkpt lat="42.367590" lon="2.512622">
        <ele>870.314</ele>
        <time>2021-05-27T23:01:09Z</time>
      </trkpt>
      <trkpt lat="42.367587" lon="2.512591">
        <ele>870.608</ele>
        <time>2021-05-27T23:01:11Z</time>
      </trkpt>
      <trkpt lat="42.367592" lon="2.512558">
        <ele>870.739</ele>
        <time>2021-05-27T23:01:13Z</time>
      </trkpt>
      <trkpt lat="42.367606" lon="2.512529">
        <ele>870.496</ele>
        <time>2021-05-27T23:01:15Z</time>
      </trkpt>
      <trkpt lat="42.367608" lon="2.512494">
        <ele>870.564</ele>
        <time>2021-05-27T23:01:17Z</time>
      </trkpt>
      <trkpt lat="42.367605" lon="2.512469">
        <ele>870.464</ele>
        <time>2021-05-27T23:01:18Z</time>
      </trkpt>
      <trkpt lat="42.367598" lon="2.512422">
        <ele>870.311</ele>
        <time>2021-05-27T23:01:20Z</time>
      </trkpt>
      <trkpt lat="42.367601" lon="2.512373">
        <ele>869.956</ele>
        <time>2021-05-27T23:01:22Z</time>
      </trkpt>
      <trkpt lat="42.367617" lon="2.512246">
        <ele>868.369</ele>
        <time>2021-05-27T23:01:27Z</time>
      </trkpt>
      <trkpt lat="42.367618" lon="2.512090">
        <ele>865.785</ele>
        <time>2021-05-27T23:01:31Z</time>
      </trkpt>
      <trkpt lat="42.367567" lon="2.511952">
        <ele>866.341</ele>
        <time>2021-05-27T23:01:35Z</time>
      </trkpt>
      <trkpt lat="42.367534" lon="2.511822">
        <ele>866.181</ele>
        <time>2021-05-27T23:01:40Z</time>
      </trkpt>
      <trkpt lat="42.367487" lon="2.511709">
        <ele>867.509</ele>
        <time>2021-05-27T23:01:44Z</time>
      </trkpt>
      <trkpt lat="42.367425" lon="2.511600">
        <ele>869.508</ele>
        <time>2021-05-27T23:01:48Z</time>
      </trkpt>
      <trkpt lat="42.367369" lon="2.511473">
        <ele>870.161</ele>
        <time>2021-05-27T23:01:53Z</time>
      </trkpt>
      <trkpt lat="42.367335" lon="2.511336">
        <ele>869.018</ele>
        <time>2021-05-27T23:01:58Z</time>
      </trkpt>
      <trkpt lat="42.367315" lon="2.511192">
        <ele>866.926</ele>
        <time>2021-05-27T23:02:03Z</time>
      </trkpt>
      <trkpt lat="42.367284" lon="2.511058">
        <ele>866.386</ele>
        <time>2021-05-27T23:02:08Z</time>
      </trkpt>
      <trkpt lat="42.367242" lon="2.510930">
        <ele>867.213</ele>
        <time>2021-05-27T23:02:13Z</time>
      </trkpt>
      <trkpt lat="42.367212" lon="2.510827">
        <ele>867.558</ele>
        <time>2021-05-27T23:02:18Z</time>
      </trkpt>
      <trkpt lat="42.367200" lon="2.510798">
        <ele>867.791</ele>
        <time>2021-05-27T23:02:20Z</time>
      </trkpt>
      <trkpt lat="42.367169" lon="2.510736">
        <ele>868.247</ele>
        <time>2021-05-27T23:02:24Z</time>
      </trkpt>
      <trkpt lat="42.367138" lon="2.510677">
        <ele>868.736</ele>
        <time>2021-05-27T23:02:28Z</time>
      </trkpt>
      <trkpt lat="42.367121" lon="2.510655">
        <ele>869.217</ele>
        <time>2021-05-27T23:02:30Z</time>
      </trkpt>
      <trkpt lat="42.367100" lon="2.510636">
        <ele>870.018</ele>
        <time>2021-05-27T23:02:32Z</time>
      </trkpt>
      <trkpt lat="42.367083" lon="2.510616">
        <ele>870.508</ele>
        <time>2021-05-27T23:02:35Z</time>
      </trkpt>
      <trkpt lat="42.367076" lon="2.510590">
        <ele>870.320</ele>
        <time>2021-05-27T23:02:37Z</time>
      </trkpt>
      <trkpt lat="42.367065" lon="2.510568">
        <ele>870.467</ele>
        <time>2021-05-27T23:02:39Z</time>
      </trkpt>
      <trkpt lat="42.367049" lon="2.510551">
        <ele>870.865</ele>
        <time>2021-05-27T23:02:41Z</time>
      </trkpt>
      <trkpt lat="42.367036" lon="2.510531">
        <ele>870.895</ele>
        <time>2021-05-27T23:02:43Z</time>
      </trkpt>
      <trkpt lat="42.367027" lon="2.510510">
        <ele>870.422</ele>
        <time>2021-05-27T23:02:44Z</time>
      </trkpt>
      <trkpt lat="42.367015" lon="2.510485">
        <ele>870.137</ele>
        <time>2021-05-27T23:02:45Z</time>
      </trkpt>
      <trkpt lat="42.367004" lon="2.510459">
        <ele>869.720</ele>
        <time>2021-05-27T23:02:46Z</time>
      </trkpt>
      <trkpt lat="42.366987" lon="2.510437">
        <ele>869.966</ele>
        <time>2021-05-27T23:02:47Z</time>
      </trkpt>
      <trkpt lat="42.366969" lon="2.510416">
        <ele>870.133</ele>
        <time>2021-05-27T23:02:48Z</time>
      </trkpt>
      <trkpt lat="42.366953" lon="2.510394">
        <ele>870.123</ele>
        <time>2021-05-27T23:02:49Z</time>
      </trkpt>
      <trkpt lat="42.366942" lon="2.510370">
        <ele>869.815</ele>
        <time>2021-05-27T23:02:50Z</time>
      </trkpt>
      <trkpt lat="42.366927" lon="2.510353">
        <ele>869.908</ele>
        <time>2021-05-27T23:02:51Z</time>
      </trkpt>
      <trkpt lat="42.366910" lon="2.510337">
        <ele>870.220</ele>
        <time>2021-05-27T23:02:52Z</time>
      </trkpt>
      <trkpt lat="42.366894" lon="2.510313">
        <ele>870.197</ele>
        <time>2021-05-27T23:02:53Z</time>
      </trkpt>
      <trkpt lat="42.366876" lon="2.510298">
        <ele>870.545</ele>
        <time>2021-05-27T23:02:54Z</time>
      </trkpt>
      <trkpt lat="42.366861" lon="2.510283">
        <ele>870.775</ele>
        <time>2021-05-27T23:02:55Z</time>
      </trkpt>
      <trkpt lat="42.366833" lon="2.510255">
        <ele>871.142</ele>
        <time>2021-05-27T23:02:57Z</time>
      </trkpt>
      <trkpt lat="42.366765" lon="2.510139">
        <ele>870.897</ele>
        <time>2021-05-27T23:03:04Z</time>
      </trkpt>
      <trkpt lat="42.366720" lon="2.510030">
        <ele>870.180</ele>
        <time>2021-05-27T23:03:08Z</time>
      </trkpt>
      <trkpt lat="42.366697" lon="2.509928">
        <ele>869.156</ele>
        <time>2021-05-27T23:03:12Z</time>
      </trkpt>
      <trkpt lat="42.366677" lon="2.509812">
        <ele>868.086</ele>
        <time>2021-05-27T23:03:17Z</time>
      </trkpt>
      <trkpt lat="42.366632" lon="2.509699">
        <ele>868.560</ele>
        <time>2021-05-27T23:03:22Z</time>
      </trkpt>
      <trkpt lat="42.366578" lon="2.509590">
        <ele>869.126</ele>
        <time>2021-05-27T23:03:25Z</time>
      </trkpt>
      <trkpt lat="42.366537" lon="2.509468">
        <ele>868.908</ele>
        <time>2021-05-27T23:03:30Z</time>
      </trkpt>
      <trkpt lat="42.366507" lon="2.509353">
        <ele>868.265</ele>
        <time>2021-05-27T23:03:35Z</time>
      </trkpt>
      <trkpt lat="42.366461" lon="2.509286">
        <ele>870.162</ele>
        <time>2021-05-27T23:03:39Z</time>
      </trkpt>
      <trkpt lat="42.366447" lon="2.509258">
        <ele>870.550</ele>
        <time>2021-05-27T23:03:41Z</time>
      </trkpt>
      <trkpt lat="42.366416" lon="2.509211">
        <ele>871.880</ele>
        <time>2021-05-27T23:03:44Z</time>
      </trkpt>
      <trkpt lat="42.366383" lon="2.509093">
        <ele>871.297</ele>
        <time>2021-05-27T23:03:52Z</time>
      </trkpt>
      <trkpt lat="42.366323" lon="2.508951">
        <ele>871.132</ele>
        <time>2021-05-27T23:04:00Z</time>
      </trkpt>
      <trkpt lat="42.366274" lon="2.508849">
        <ele>872.445</ele>
        <time>2021-05-27T23:04:07Z</time>
      </trkpt>
      <trkpt lat="42.366218" lon="2.508736">
        <ele>874.711</ele>
        <time>2021-05-27T23:04:16Z</time>
      </trkpt>
      <trkpt lat="42.366165" lon="2.508635">
        <ele>876.814</ele>
        <time>2021-05-27T23:04:27Z</time>
      </trkpt>
      <trkpt lat="42.366129" lon="2.508520">
        <ele>877.654</ele>
        <time>2021-05-27T23:04:37Z</time>
      </trkpt>
      <trkpt lat="42.366092" lon="2.508402">
        <ele>877.909</ele>
        <time>2021-05-27T23:04:46Z</time>
      </trkpt>
      <trkpt lat="42.366064" lon="2.508336">
        <ele>878.408</ele>
        <time>2021-05-27T23:04:51Z</time>
      </trkpt>
      <trkpt lat="42.366009" lon="2.508235">
        <ele>879.918</ele>
        <time>2021-05-27T23:05:00Z</time>
      </trkpt>
      <trkpt lat="42.365943" lon="2.508123">
        <ele>881.965</ele>
        <time>2021-05-27T23:05:09Z</time>
      </trkpt>
      <trkpt lat="42.365904" lon="2.508007">
        <ele>882.453</ele>
        <time>2021-05-27T23:05:17Z</time>
      </trkpt>
      <trkpt lat="42.365835" lon="2.507902">
        <ele>884.793</ele>
        <time>2021-05-27T23:05:27Z</time>
      </trkpt>
      <trkpt lat="42.365769" lon="2.507806">
        <ele>886.610</ele>
        <time>2021-05-27T23:05:36Z</time>
      </trkpt>
      <trkpt lat="42.365698" lon="2.507717">
        <ele>888.715</ele>
        <time>2021-05-27T23:05:45Z</time>
      </trkpt>
      <trkpt lat="42.365631" lon="2.507630">
        <ele>890.858</ele>
        <time>2021-05-27T23:05:55Z</time>
      </trkpt>
      <trkpt lat="42.365562" lon="2.507531">
        <ele>893.134</ele>
        <time>2021-05-27T23:06:04Z</time>
      </trkpt>
      <trkpt lat="42.365511" lon="2.507426">
        <ele>893.528</ele>
        <time>2021-05-27T23:06:11Z</time>
      </trkpt>
      <trkpt lat="42.365472" lon="2.507313">
        <ele>893.189</ele>
        <time>2021-05-27T23:06:19Z</time>
      </trkpt>
      <trkpt lat="42.365433" lon="2.507200">
        <ele>892.617</ele>
        <time>2021-05-27T23:06:26Z</time>
      </trkpt>
      <trkpt lat="42.365361" lon="2.507100">
        <ele>893.708</ele>
        <time>2021-05-27T23:06:33Z</time>
      </trkpt>
      <trkpt lat="42.365312" lon="2.506993">
        <ele>893.579</ele>
        <time>2021-05-27T23:06:38Z</time>
      </trkpt>
      <trkpt lat="42.365247" lon="2.506898">
        <ele>894.416</ele>
        <time>2021-05-27T23:06:44Z</time>
      </trkpt>
      <trkpt lat="42.365175" lon="2.506808">
        <ele>895.624</ele>
        <time>2021-05-27T23:06:51Z</time>
      </trkpt>
      <trkpt lat="42.365099" lon="2.506725">
        <ele>896.694</ele>
        <time>2021-05-27T23:06:56Z</time>
      </trkpt>
      <trkpt lat="42.365021" lon="2.506633">
        <ele>896.941</ele>
        <time>2021-05-27T23:07:02Z</time>
      </trkpt>
      <trkpt lat="42.364944" lon="2.506563">
        <ele>897.536</ele>
        <time>2021-05-27T23:07:08Z</time>
      </trkpt>
      <trkpt lat="42.364861" lon="2.506480">
        <ele>897.669</ele>
        <time>2021-05-27T23:07:16Z</time>
      </trkpt>
      <trkpt lat="42.364788" lon="2.506410">
        <ele>897.515</ele>
        <time>2021-05-27T23:07:24Z</time>
      </trkpt>
      <trkpt lat="42.364695" lon="2.506362">
        <ele>898.743</ele>
        <time>2021-05-27T23:07:32Z</time>
      </trkpt>
      <trkpt lat="42.364606" lon="2.506302">
        <ele>899.164</ele>
        <time>2021-05-27T23:07:40Z</time>
      </trkpt>
      <trkpt lat="42.364506" lon="2.506308">
        <ele>902.710</ele>
        <time>2021-05-27T23:07:53Z</time>
      </trkpt>
      <trkpt lat="42.364425" lon="2.506254">
        <ele>904.008</ele>
        <time>2021-05-27T23:08:07Z</time>
      </trkpt>
      <trkpt lat="42.364364" lon="2.506180">
        <ele>905.341</ele>
        <time>2021-05-27T23:08:18Z</time>
      </trkpt>
      <trkpt lat="42.364295" lon="2.506091">
        <ele>907.298</ele>
        <time>2021-05-27T23:08:36Z</time>
      </trkpt>
      <trkpt lat="42.364261" lon="2.505966">
        <ele>906.266</ele>
        <time>2021-05-27T23:08:48Z</time>
      </trkpt>
      <trkpt lat="42.364221" lon="2.505848">
        <ele>905.716</ele>
        <time>2021-05-27T23:08:57Z</time>
      </trkpt>
      <trkpt lat="42.364145" lon="2.505781">
        <ele>911.573</ele>
        <time>2021-05-27T23:09:16Z</time>
      </trkpt>
      <trkpt lat="42.364160" lon="2.505657">
        <ele>913.178</ele>
        <time>2021-05-27T23:09:32Z</time>
      </trkpt>
      <trkpt lat="42.364229" lon="2.505573">
        <ele>911.481</ele>
        <time>2021-05-27T23:09:38Z</time>
      </trkpt>
      <trkpt lat="42.364321" lon="2.505529">
        <ele>908.477</ele>
        <time>2021-05-27T23:09:43Z</time>
      </trkpt>
      <trkpt lat="42.364377" lon="2.505412">
        <ele>910.569</ele>
        <time>2021-05-27T23:09:49Z</time>
      </trkpt>
      <trkpt lat="42.364387" lon="2.505289">
        <ele>915.004</ele>
        <time>2021-05-27T23:09:57Z</time>
      </trkpt>
      <trkpt lat="42.364391" lon="2.505162">
        <ele>917.224</ele>
        <time>2021-05-27T23:10:07Z</time>
      </trkpt>
      <trkpt lat="42.364410" lon="2.505030">
        <ele>918.008</ele>
        <time>2021-05-27T23:10:18Z</time>
      </trkpt>
      <trkpt lat="42.364438" lon="2.504909">
        <ele>917.473</ele>
        <time>2021-05-27T23:10:27Z</time>
      </trkpt>
      <trkpt lat="42.364444" lon="2.504784">
        <ele>918.490</ele>
        <time>2021-05-27T23:10:36Z</time>
      </trkpt>
      <trkpt lat="42.364438" lon="2.504643">
        <ele>920.358</ele>
        <time>2021-05-27T23:10:47Z</time>
      </trkpt>
      <trkpt lat="42.364456" lon="2.504519">
        <ele>920.418</ele>
        <time>2021-05-27T23:10:55Z</time>
      </trkpt>
      <trkpt lat="42.364497" lon="2.504390">
        <ele>919.215</ele>
        <time>2021-05-27T23:11:04Z</time>
      </trkpt>
      <trkpt lat="42.364511" lon="2.504258">
        <ele>920.390</ele>
        <time>2021-05-27T23:11:10Z</time>
      </trkpt>
      <trkpt lat="42.364473" lon="2.504139">
        <ele>924.683</ele>
        <time>2021-05-27T23:11:17Z</time>
      </trkpt>
      <trkpt lat="42.364527" lon="2.504017">
        <ele>923.399</ele>
        <time>2021-05-27T23:11:23Z</time>
      </trkpt>
      <trkpt lat="42.364577" lon="2.503901">
        <ele>922.245</ele>
        <time>2021-05-27T23:11:28Z</time>
      </trkpt>
      <trkpt lat="42.364636" lon="2.503792">
        <ele>920.947</ele>
        <time>2021-05-27T23:11:33Z</time>
      </trkpt>
      <trkpt lat="42.364669" lon="2.503655">
        <ele>922.211</ele>
        <time>2021-05-27T23:11:39Z</time>
      </trkpt>
      <trkpt lat="42.364681" lon="2.503508">
        <ele>924.308</ele>
        <time>2021-05-27T23:11:43Z</time>
      </trkpt>
      <trkpt lat="42.364701" lon="2.503389">
        <ele>925.221</ele>
        <time>2021-05-27T23:11:48Z</time>
      </trkpt>
      <trkpt lat="42.364671" lon="2.503251">
        <ele>929.358</ele>
        <time>2021-05-27T23:11:55Z</time>
      </trkpt>
      <trkpt lat="42.364695" lon="2.503133">
        <ele>930.036</ele>
        <time>2021-05-27T23:12:04Z</time>
      </trkpt>
      <trkpt lat="42.364717" lon="2.503014">
        <ele>931.016</ele>
        <time>2021-05-27T23:12:11Z</time>
      </trkpt>
      <trkpt lat="42.364742" lon="2.502893">
        <ele>932.053</ele>
        <time>2021-05-27T23:12:22Z</time>
      </trkpt>
      <trkpt lat="42.364783" lon="2.502779">
        <ele>932.428</ele>
        <time>2021-05-27T23:12:33Z</time>
      </trkpt>
      <trkpt lat="42.364749" lon="2.502660">
        <ele>936.131</ele>
        <time>2021-05-27T23:12:41Z</time>
      </trkpt>
      <trkpt lat="42.364798" lon="2.502556">
        <ele>936.487</ele>
        <time>2021-05-27T23:12:48Z</time>
      </trkpt>
      <trkpt lat="42.364873" lon="2.502478">
        <ele>935.842</ele>
        <time>2021-05-27T23:12:54Z</time>
      </trkpt>
      <trkpt lat="42.364905" lon="2.502360">
        <ele>938.922</ele>
        <time>2021-05-27T23:13:03Z</time>
      </trkpt>
      <trkpt lat="42.364886" lon="2.502223">
        <ele>944.014</ele>
        <time>2021-05-27T23:13:11Z</time>
      </trkpt>
      <trkpt lat="42.364954" lon="2.502123">
        <ele>946.008</ele>
        <time>2021-05-27T23:13:31Z</time>
      </trkpt>
      <trkpt lat="42.365008" lon="2.502017">
        <ele>948.541</ele>
        <time>2021-05-27T23:13:44Z</time>
      </trkpt>
      <trkpt lat="42.365062" lon="2.501909">
        <ele>951.128</ele>
        <time>2021-05-27T23:13:53Z</time>
      </trkpt>
      <trkpt lat="42.365151" lon="2.501859">
        <ele>951.096</ele>
        <time>2021-05-27T23:14:03Z</time>
      </trkpt>
      <trkpt lat="42.365225" lon="2.501785">
        <ele>951.466</ele>
        <time>2021-05-27T23:14:14Z</time>
      </trkpt>
      <trkpt lat="42.365296" lon="2.501690">
        <ele>951.923</ele>
        <time>2021-05-27T23:14:26Z</time>
      </trkpt>
      <trkpt lat="42.365291" lon="2.501633">
        <ele>952.718</ele>
        <time>2021-05-27T23:14:30Z</time>
      </trkpt>
      <trkpt lat="42.365285" lon="2.501610">
        <ele>953.111</ele>
        <time>2021-05-27T23:14:33Z</time>
      </trkpt>
      <trkpt lat="42.365281" lon="2.501581">
        <ele>953.527</ele>
        <time>2021-05-27T23:14:39Z</time>
      </trkpt>
      <trkpt lat="42.365267" lon="2.501606">
        <ele>953.766</ele>
        <time>2021-05-27T23:14:46Z</time>
      </trkpt>
      <trkpt lat="42.365287" lon="2.501631">
        <ele>952.929</ele>
        <time>2021-05-27T23:14:49Z</time>
      </trkpt>
      <trkpt lat="42.365290" lon="2.501658">
        <ele>952.621</ele>
        <time>2021-05-27T23:14:54Z</time>
      </trkpt>
      <trkpt lat="42.365304" lon="2.501631">
        <ele>952.308</ele>
        <time>2021-05-27T23:15:10Z</time>
      </trkpt>
      <trkpt lat="42.365317" lon="2.501597">
        <ele>951.973</ele>
        <time>2021-05-27T23:15:12Z</time>
      </trkpt>
      <trkpt lat="42.365312" lon="2.501562">
        <ele>952.330</ele>
        <time>2021-05-27T23:15:14Z</time>
      </trkpt>
      <trkpt lat="42.365296" lon="2.501464">
        <ele>953.668</ele>
        <time>2021-05-27T23:15:19Z</time>
      </trkpt>
      <trkpt lat="42.365288" lon="2.501424">
        <ele>954.358</ele>
        <time>2021-05-27T23:15:21Z</time>
      </trkpt>
      <trkpt lat="42.365280" lon="2.501385">
        <ele>954.865</ele>
        <time>2021-05-27T23:15:23Z</time>
      </trkpt>
      <trkpt lat="42.365268" lon="2.501350">
        <ele>954.550</ele>
        <time>2021-05-27T23:15:25Z</time>
      </trkpt>
      <trkpt lat="42.365251" lon="2.501314">
        <ele>954.363</ele>
        <time>2021-05-27T23:15:27Z</time>
      </trkpt>
      <trkpt lat="42.365236" lon="2.501291">
        <ele>954.339</ele>
        <time>2021-05-27T23:15:29Z</time>
      </trkpt>
      <trkpt lat="42.365224" lon="2.501261">
        <ele>954.141</ele>
        <time>2021-05-27T23:15:32Z</time>
      </trkpt>
      <trkpt lat="42.365208" lon="2.501239">
        <ele>954.381</ele>
        <time>2021-05-27T23:15:35Z</time>
      </trkpt>
      <trkpt lat="42.365184" lon="2.501217">
        <ele>954.809</ele>
        <time>2021-05-27T23:15:37Z</time>
      </trkpt>
      <trkpt lat="42.365163" lon="2.501193">
        <ele>955.208</ele>
        <time>2021-05-27T23:15:39Z</time>
      </trkpt>
      <trkpt lat="42.365143" lon="2.501173">
        <ele>955.791</ele>
        <time>2021-05-27T23:15:41Z</time>
      </trkpt>
      <trkpt lat="42.365122" lon="2.501160">
        <ele>956.438</ele>
        <time>2021-05-27T23:15:43Z</time>
      </trkpt>
      <trkpt lat="42.365099" lon="2.501145">
        <ele>957.176</ele>
        <time>2021-05-27T23:15:45Z</time>
      </trkpt>
      <trkpt lat="42.365082" lon="2.501120">
        <ele>957.686</ele>
        <time>2021-05-27T23:15:47Z</time>
      </trkpt>
      <trkpt lat="42.365060" lon="2.501094">
        <ele>957.913</ele>
        <time>2021-05-27T23:15:49Z</time>
      </trkpt>
      <trkpt lat="42.365032" lon="2.501077">
        <ele>958.548</ele>
        <time>2021-05-27T23:15:51Z</time>
      </trkpt>
      <trkpt lat="42.365008" lon="2.501058">
        <ele>958.961</ele>
        <time>2021-05-27T23:15:53Z</time>
      </trkpt>
      <trkpt lat="42.364981" lon="2.501040">
        <ele>959.267</ele>
        <time>2021-05-27T23:15:55Z</time>
      </trkpt>
      <trkpt lat="42.364956" lon="2.501025">
        <ele>959.513</ele>
        <time>2021-05-27T23:15:57Z</time>
      </trkpt>
      <trkpt lat="42.364930" lon="2.501000">
        <ele>959.543</ele>
        <time>2021-05-27T23:15:59Z</time>
      </trkpt>
      <trkpt lat="42.364900" lon="2.500971">
        <ele>959.507</ele>
        <time>2021-05-27T23:16:01Z</time>
      </trkpt>
      <trkpt lat="42.364884" lon="2.500957">
        <ele>959.608</ele>
        <time>2021-05-27T23:16:02Z</time>
      </trkpt>
      <trkpt lat="42.364858" lon="2.500943">
        <ele>960.168</ele>
        <time>2021-05-27T23:16:04Z</time>
      </trkpt>
      <trkpt lat="42.364772" lon="2.500876">
        <ele>961.255</ele>
        <time>2021-05-27T23:16:10Z</time>
      </trkpt>
      <trkpt lat="42.364710" lon="2.500786">
        <ele>961.073</ele>
        <time>2021-05-27T23:16:16Z</time>
      </trkpt>
      <trkpt lat="42.364656" lon="2.500686">
        <ele>960.093</ele>
        <time>2021-05-27T23:16:22Z</time>
      </trkpt>
      <trkpt lat="42.364600" lon="2.500575">
        <ele>959.340</ele>
        <time>2021-05-27T23:16:26Z</time>
      </trkpt>
      <trkpt lat="42.364531" lon="2.500465">
        <ele>960.125</ele>
        <time>2021-05-27T23:16:31Z</time>
      </trkpt>
      <trkpt lat="42.364482" lon="2.500350">
        <ele>960.418</ele>
        <time>2021-05-27T23:16:36Z</time>
      </trkpt>
      <trkpt lat="42.364425" lon="2.500245">
        <ele>962.044</ele>
        <time>2021-05-27T23:16:40Z</time>
      </trkpt>
      <trkpt lat="42.364410" lon="2.500108">
        <ele>962.713</ele>
        <time>2021-05-27T23:16:46Z</time>
      </trkpt>
      <trkpt lat="42.364426" lon="2.499985">
        <ele>961.643</ele>
        <time>2021-05-27T23:16:54Z</time>
      </trkpt>
      <trkpt lat="42.364421" lon="2.499859">
        <ele>959.407</ele>
        <time>2021-05-27T23:17:03Z</time>
      </trkpt>
      <trkpt lat="42.364401" lon="2.499816">
        <ele>959.308</ele>
        <time>2021-05-27T23:17:06Z</time>
      </trkpt>
      <trkpt lat="42.364385" lon="2.499787">
        <ele>959.328</ele>
        <time>2021-05-27T23:17:08Z</time>
      </trkpt>
      <trkpt lat="42.364364" lon="2.499753">
        <ele>959.325</ele>
        <time>2021-05-27T23:17:10Z</time>
      </trkpt>
      <trkpt lat="42.364339" lon="2.499726">
        <ele>959.563</ele>
        <time>2021-05-27T23:17:12Z</time>
      </trkpt>
      <trkpt lat="42.364257" lon="2.499663">
        <ele>960.543</ele>
        <time>2021-05-27T23:17:22Z</time>
      </trkpt>
      <trkpt lat="42.364207" lon="2.499561">
        <ele>959.590</ele>
        <time>2021-05-27T23:17:30Z</time>
      </trkpt>
      <trkpt lat="42.364152" lon="2.499445">
        <ele>958.695</ele>
        <time>2021-05-27T23:17:35Z</time>
      </trkpt>
      <trkpt lat="42.364162" lon="2.499319">
        <ele>962.328</ele>
        <time>2021-05-27T23:17:45Z</time>
      </trkpt>
      <trkpt lat="42.364247" lon="2.499234">
        <ele>961.084</ele>
        <time>2021-05-27T23:17:55Z</time>
      </trkpt>
      <trkpt lat="42.364321" lon="2.499138">
        <ele>960.412</ele>
        <time>2021-05-27T23:18:06Z</time>
      </trkpt>
      <trkpt lat="42.364406" lon="2.499050">
        <ele>959.932</ele>
        <time>2021-05-27T23:18:14Z</time>
      </trkpt>
      <trkpt lat="42.364481" lon="2.498947">
        <ele>961.205</ele>
        <time>2021-05-27T23:18:20Z</time>
      </trkpt>
      <trkpt lat="42.364573" lon="2.498871">
        <ele>960.708</ele>
        <time>2021-05-27T23:18:26Z</time>
      </trkpt>
      <trkpt lat="42.364633" lon="2.498773">
        <ele>960.378</ele>
        <time>2021-05-27T23:18:31Z</time>
      </trkpt>
      <trkpt lat="42.364693" lon="2.498651">
        <ele>960.355</ele>
        <time>2021-05-27T23:18:37Z</time>
      </trkpt>
      <trkpt lat="42.364720" lon="2.498509">
        <ele>960.883</ele>
        <time>2021-05-27T23:18:42Z</time>
      </trkpt>
      <trkpt lat="42.364747" lon="2.498359">
        <ele>961.443</ele>
        <time>2021-05-27T23:18:47Z</time>
      </trkpt>
      <trkpt lat="42.364765" lon="2.498226">
        <ele>960.860</ele>
        <time>2021-05-27T23:18:53Z</time>
      </trkpt>
      <trkpt lat="42.364801" lon="2.498100">
        <ele>958.955</ele>
        <time>2021-05-27T23:18:59Z</time>
      </trkpt>
      <trkpt lat="42.364883" lon="2.498010">
        <ele>955.198</ele>
        <time>2021-05-27T23:19:05Z</time>
      </trkpt>
      <trkpt lat="42.364917" lon="2.497947">
        <ele>953.744</ele>
        <time>2021-05-27T23:19:09Z</time>
      </trkpt>
      <trkpt lat="42.364953" lon="2.497834">
        <ele>952.234</ele>
        <time>2021-05-27T23:19:16Z</time>
      </trkpt>
      <trkpt lat="42.364960" lon="2.497691">
        <ele>952.255</ele>
        <time>2021-05-27T23:19:23Z</time>
      </trkpt>
      <trkpt lat="42.364974" lon="2.497562">
        <ele>952.110</ele>
        <time>2021-05-27T23:19:28Z</time>
      </trkpt>
      <trkpt lat="42.364996" lon="2.497441">
        <ele>951.608</ele>
        <time>2021-05-27T23:19:33Z</time>
      </trkpt>
      <trkpt lat="42.365019" lon="2.497309">
        <ele>951.640</ele>
        <time>2021-05-27T23:19:38Z</time>
      </trkpt>
      <trkpt lat="42.365028" lon="2.497166">
        <ele>952.387</ele>
        <time>2021-05-27T23:19:43Z</time>
      </trkpt>
      <trkpt lat="42.365060" lon="2.497033">
        <ele>951.775</ele>
        <time>2021-05-27T23:19:48Z</time>
      </trkpt>
      <trkpt lat="42.365059" lon="2.496899">
        <ele>952.765</ele>
        <time>2021-05-27T23:19:54Z</time>
      </trkpt>
      <trkpt lat="42.365075" lon="2.496768">
        <ele>953.122</ele>
        <time>2021-05-27T23:20:04Z</time>
      </trkpt>
      <trkpt lat="42.365115" lon="2.496655">
        <ele>951.987</ele>
        <time>2021-05-27T23:20:13Z</time>
      </trkpt>
      <trkpt lat="42.365129" lon="2.496520">
        <ele>951.970</ele>
        <time>2021-05-27T23:20:20Z</time>
      </trkpt>
      <trkpt lat="42.365185" lon="2.496414">
        <ele>948.686</ele>
        <time>2021-05-27T23:20:29Z</time>
      </trkpt>
      <trkpt lat="42.365197" lon="2.496336">
        <ele>947.748</ele>
        <time>2021-05-27T23:20:35Z</time>
      </trkpt>
      <trkpt lat="42.365204" lon="2.496310">
        <ele>947.261</ele>
        <time>2021-05-27T23:20:37Z</time>
      </trkpt>
      <trkpt lat="42.365213" lon="2.496278">
        <ele>946.517</ele>
        <time>2021-05-27T23:20:39Z</time>
      </trkpt>
      <trkpt lat="42.365208" lon="2.496246">
        <ele>946.808</ele>
        <time>2021-05-27T23:20:41Z</time>
      </trkpt>
      <trkpt lat="42.365196" lon="2.496205">
        <ele>947.671</ele>
        <time>2021-05-27T23:20:43Z</time>
      </trkpt>
      <trkpt lat="42.365199" lon="2.496181">
        <ele>947.368</ele>
        <time>2021-05-27T23:20:45Z</time>
      </trkpt>
      <trkpt lat="42.365198" lon="2.496156">
        <ele>947.436</ele>
        <time>2021-05-27T23:20:47Z</time>
      </trkpt>
      <trkpt lat="42.365183" lon="2.496029">
        <ele>948.516</ele>
        <time>2021-05-27T23:20:55Z</time>
      </trkpt>
      <trkpt lat="42.365151" lon="2.495904">
        <ele>951.343</ele>
        <time>2021-05-27T23:21:01Z</time>
      </trkpt>
      <trkpt lat="42.365188" lon="2.495791">
        <ele>948.458</ele>
        <time>2021-05-27T23:21:07Z</time>
      </trkpt>
      <trkpt lat="42.365224" lon="2.495677">
        <ele>946.361</ele>
        <time>2021-05-27T23:21:12Z</time>
      </trkpt>
      <trkpt lat="42.365222" lon="2.495539">
        <ele>947.877</ele>
        <time>2021-05-27T23:21:18Z</time>
      </trkpt>
      <trkpt lat="42.365209" lon="2.495415">
        <ele>950.199</ele>
        <time>2021-05-27T23:21:23Z</time>
      </trkpt>
      <trkpt lat="42.365256" lon="2.495305">
        <ele>947.407</ele>
        <time>2021-05-27T23:21:28Z</time>
      </trkpt>
      <trkpt lat="42.365289" lon="2.495185">
        <ele>946.927</ele>
        <time>2021-05-27T23:21:34Z</time>
      </trkpt>
      <trkpt lat="42.365325" lon="2.495044">
        <ele>947.008</ele>
        <time>2021-05-27T23:21:40Z</time>
      </trkpt>
      <trkpt lat="42.365360" lon="2.494926">
        <ele>947.096</ele>
        <time>2021-05-27T23:21:45Z</time>
      </trkpt>
      <trkpt lat="42.365362" lon="2.494782">
        <ele>949.973</ele>
        <time>2021-05-27T23:21:51Z</time>
      </trkpt>
      <trkpt lat="42.365386" lon="2.494655">
        <ele>951.091</ele>
        <time>2021-05-27T23:21:57Z</time>
      </trkpt>
      <trkpt lat="42.365391" lon="2.494524">
        <ele>953.531</ele>
        <time>2021-05-27T23:22:02Z</time>
      </trkpt>
      <trkpt lat="42.365381" lon="2.494396">
        <ele>956.828</ele>
        <time>2021-05-27T23:22:07Z</time>
      </trkpt>
      <trkpt lat="42.365430" lon="2.494279">
        <ele>955.623</ele>
        <time>2021-05-27T23:22:13Z</time>
      </trkpt>
      <trkpt lat="42.365473" lon="2.494165">
        <ele>954.716</ele>
        <time>2021-05-27T23:22:19Z</time>
      </trkpt>
      <trkpt lat="42.365516" lon="2.494054">
        <ele>953.382</ele>
        <time>2021-05-27T23:22:28Z</time>
      </trkpt>
      <trkpt lat="42.365513" lon="2.493918">
        <ele>955.465</ele>
        <time>2021-05-27T23:22:41Z</time>
      </trkpt>
      <trkpt lat="42.365523" lon="2.493895">
        <ele>955.068</ele>
        <time>2021-05-27T23:22:43Z</time>
      </trkpt>
      <trkpt lat="42.365537" lon="2.493877">
        <ele>954.014</ele>
        <time>2021-05-27T23:22:45Z</time>
      </trkpt>
      <trkpt lat="42.365548" lon="2.493857">
        <ele>952.908</ele>
        <time>2021-05-27T23:22:47Z</time>
      </trkpt>
      <trkpt lat="42.365540" lon="2.493823">
        <ele>952.873</ele>
        <time>2021-05-27T23:22:50Z</time>
      </trkpt>
      <trkpt lat="42.365559" lon="2.493828">
        <ele>951.730</ele>
        <time>2021-05-27T23:22:56Z</time>
      </trkpt>
      <trkpt lat="42.365633" lon="2.493782">
        <ele>947.768</ele>
        <time>2021-05-27T23:23:12Z</time>
      </trkpt>
      <trkpt lat="42.365633" lon="2.493725">
        <ele>947.048</ele>
        <time>2021-05-27T23:23:16Z</time>
      </trkpt>
      <trkpt lat="42.365614" lon="2.493691">
        <ele>947.295</ele>
        <time>2021-05-27T23:23:18Z</time>
      </trkpt>
      <trkpt lat="42.365600" lon="2.493661">
        <ele>947.310</ele>
        <time>2021-05-27T23:23:20Z</time>
      </trkpt>
      <trkpt lat="42.365595" lon="2.493630">
        <ele>947.073</ele>
        <time>2021-05-27T23:23:22Z</time>
      </trkpt>
      <trkpt lat="42.365565" lon="2.493556">
        <ele>946.129</ele>
        <time>2021-05-27T23:23:26Z</time>
      </trkpt>
      <trkpt lat="42.365558" lon="2.493526">
        <ele>945.563</ele>
        <time>2021-05-27T23:23:29Z</time>
      </trkpt>
      <trkpt lat="42.365585" lon="2.493391">
        <ele>940.244</ele>
        <time>2021-05-27T23:23:39Z</time>
      </trkpt>
      <trkpt lat="42.365573" lon="2.493260">
        <ele>936.818</ele>
        <time>2021-05-27T23:23:45Z</time>
      </trkpt>
      <trkpt lat="42.365561" lon="2.493135">
        <ele>933.408</ele>
        <time>2021-05-27T23:23:51Z</time>
      </trkpt>
      <trkpt lat="42.365519" lon="2.493015">
        <ele>932.793</ele>
        <time>2021-05-27T23:23:56Z</time>
      </trkpt>
      <trkpt lat="42.365430" lon="2.492907">
        <ele>936.250</ele>
        <time>2021-05-27T23:24:01Z</time>
      </trkpt>
      <trkpt lat="42.365353" lon="2.492810">
        <ele>938.318</ele>
        <time>2021-05-27T23:24:05Z</time>
      </trkpt>
      <trkpt lat="42.365297" lon="2.492707">
        <ele>939.488</ele>
        <time>2021-05-27T23:24:16Z</time>
      </trkpt>
      <trkpt lat="42.365200" lon="2.492660">
        <ele>941.385</ele>
        <time>2021-05-27T23:24:21Z</time>
      </trkpt>
      <trkpt lat="42.365100" lon="2.492622">
        <ele>943.160</ele>
        <time>2021-05-27T23:24:28Z</time>
      </trkpt>
      <trkpt lat="42.365056" lon="2.492513">
        <ele>941.333</ele>
        <time>2021-05-27T23:24:35Z</time>
      </trkpt>
      <trkpt lat="42.365066" lon="2.492379">
        <ele>945.069</ele>
        <time>2021-05-27T23:24:42Z</time>
      </trkpt>
      <trkpt lat="42.365035" lon="2.492251">
        <ele>949.371</ele>
        <time>2021-05-27T23:24:51Z</time>
      </trkpt>
      <trkpt lat="42.365029" lon="2.492122">
        <ele>956.741</ele>
        <time>2021-05-27T23:24:58Z</time>
      </trkpt>
      <trkpt lat="42.365120" lon="2.492133">
        <ele>956.515</ele>
        <time>2021-05-27T23:25:38Z</time>
      </trkpt>
      <trkpt lat="42.365084" lon="2.491998">
        <ele>964.908</ele>
        <time>2021-05-27T23:25:53Z</time>
      </trkpt>
      <trkpt lat="42.365102" lon="2.492129">
        <ele>956.784</ele>
        <time>2021-05-27T23:26:25Z</time>
      </trkpt>
      <trkpt lat="42.365192" lon="2.492179">
        <ele>954.141</ele>
        <time>2021-05-27T23:26:35Z</time>
      </trkpt>
      <trkpt lat="42.365282" lon="2.492174">
        <ele>955.029</ele>
        <time>2021-05-27T23:26:45Z</time>
      </trkpt>
      <trkpt lat="42.365349" lon="2.492054">
        <ele>963.039</ele>
        <time>2021-05-27T23:26:50Z</time>
      </trkpt>
      <trkpt lat="42.365440" lon="2.492031">
        <ele>965.076</ele>
        <time>2021-05-27T23:26:58Z</time>
      </trkpt>
      <trkpt lat="42.365516" lon="2.491960">
        <ele>968.411</ele>
        <time>2021-05-27T23:27:15Z</time>
      </trkpt>
      <trkpt lat="42.365603" lon="2.491927">
        <ele>972.064</ele>
        <time>2021-05-27T23:27:22Z</time>
      </trkpt>
      <trkpt lat="42.365610" lon="2.491794">
        <ele>977.160</ele>
        <time>2021-05-27T23:27:30Z</time>
      </trkpt>
      <trkpt lat="42.365684" lon="2.491710">
        <ele>983.519</ele>
        <time>2021-05-27T23:27:40Z</time>
      </trkpt>
      <trkpt lat="42.365751" lon="2.491619">
        <ele>990.109</ele>
        <time>2021-05-27T23:27:50Z</time>
      </trkpt>
      <trkpt lat="42.365815" lon="2.491519">
        <ele>997.119</ele>
        <time>2021-05-27T23:28:03Z</time>
      </trkpt>
      <trkpt lat="42.365862" lon="2.491640">
        <ele>994.808</ele>
        <time>2021-05-27T23:28:16Z</time>
      </trkpt>
      <trkpt lat="42.365896" lon="2.491771">
        <ele>992.118</ele>
        <time>2021-05-27T23:28:21Z</time>
      </trkpt>
      <trkpt lat="42.365951" lon="2.491880">
        <ele>991.055</ele>
        <time>2021-05-27T23:28:29Z</time>
      </trkpt>
      <trkpt lat="42.366025" lon="2.491948">
        <ele>991.833</ele>
        <time>2021-05-27T23:28:36Z</time>
      </trkpt>
      <trkpt lat="42.366119" lon="2.491986">
        <ele>993.983</ele>
        <time>2021-05-27T23:28:46Z</time>
      </trkpt>
      <trkpt lat="42.366203" lon="2.492036">
        <ele>993.060</ele>
        <time>2021-05-27T23:28:57Z</time>
      </trkpt>
      <trkpt lat="42.366285" lon="2.492093">
        <ele>991.765</ele>
        <time>2021-05-27T23:29:05Z</time>
      </trkpt>
      <trkpt lat="42.366378" lon="2.492033">
        <ele>997.048</ele>
        <time>2021-05-27T23:29:13Z</time>
      </trkpt>
      <trkpt lat="42.366455" lon="2.492117">
        <ele>994.334</ele>
        <time>2021-05-27T23:29:21Z</time>
      </trkpt>
      <trkpt lat="42.366528" lon="2.492207">
        <ele>990.962</ele>
        <time>2021-05-27T23:29:32Z</time>
      </trkpt>
      <trkpt lat="42.366625" lon="2.492236">
        <ele>991.383</ele>
        <time>2021-05-27T23:29:41Z</time>
      </trkpt>
      <trkpt lat="42.366720" lon="2.492219">
        <ele>994.911</ele>
        <time>2021-05-27T23:29:50Z</time>
      </trkpt>
      <trkpt lat="42.366821" lon="2.492229">
        <ele>997.608</ele>
        <time>2021-05-27T23:30:02Z</time>
      </trkpt>
      <trkpt lat="42.366919" lon="2.492247">
        <ele>999.913</ele>
        <time>2021-05-27T23:30:08Z</time>
      </trkpt>
      <trkpt lat="42.367017" lon="2.492280">
        <ele>1001.560</ele>
        <time>2021-05-27T23:30:13Z</time>
      </trkpt>
      <trkpt lat="42.367100" lon="2.492338">
        <ele>1001.788</ele>
        <time>2021-05-27T23:30:21Z</time>
      </trkpt>
      <trkpt lat="42.367182" lon="2.492395">
        <ele>1002.188</ele>
        <time>2021-05-27T23:30:29Z</time>
      </trkpt>
      <trkpt lat="42.367276" lon="2.492399">
        <ele>1004.815</ele>
        <time>2021-05-27T23:30:40Z</time>
      </trkpt>
      <trkpt lat="42.367374" lon="2.492421">
        <ele>1006.610</ele>
        <time>2021-05-27T23:30:49Z</time>
      </trkpt>
      <trkpt lat="42.367473" lon="2.492437">
        <ele>1008.773</ele>
        <time>2021-05-27T23:31:00Z</time>
      </trkpt>
      <trkpt lat="42.367563" lon="2.492496">
        <ele>1007.259</ele>
        <time>2021-05-27T23:31:09Z</time>
      </trkpt>
      <trkpt lat="42.367652" lon="2.492516">
        <ele>1006.422</ele>
        <time>2021-05-27T23:31:16Z</time>
      </trkpt>
      <trkpt lat="42.367688" lon="2.492633">
        <ele>1001.562</ele>
        <time>2021-05-27T23:31:25Z</time>
      </trkpt>
      <trkpt lat="42.367718" lon="2.492710">
        <ele>998.008</ele>
        <time>2021-05-27T23:31:30Z</time>
      </trkpt>
      <trkpt lat="42.367652" lon="2.492802">
        <ele>995.508</ele>
        <time>2021-05-27T23:31:37Z</time>
      </trkpt>
      <trkpt lat="42.367668" lon="2.492730">
        <ele>997.919</ele>
        <time>2021-05-27T23:31:47Z</time>
      </trkpt>
      <trkpt lat="42.367733" lon="2.492640">
        <ele>1000.976</ele>
        <time>2021-05-27T23:31:58Z</time>
      </trkpt>
      <trkpt lat="42.367821" lon="2.492597">
        <ele>1001.834</ele>
        <time>2021-05-27T23:32:05Z</time>
      </trkpt>
      <trkpt lat="42.367915" lon="2.492558">
        <ele>1002.074</ele>
        <time>2021-05-27T23:32:12Z</time>
      </trkpt>
      <trkpt lat="42.368002" lon="2.492514">
        <ele>1002.481</ele>
        <time>2021-05-27T23:32:21Z</time>
      </trkpt>
      <trkpt lat="42.368083" lon="2.492463">
        <ele>1003.856</ele>
        <time>2021-05-27T23:32:29Z</time>
      </trkpt>
      <trkpt lat="42.368174" lon="2.492412">
        <ele>1005.319</ele>
        <time>2021-05-27T23:32:42Z</time>
      </trkpt>
      <trkpt lat="42.368258" lon="2.492350">
        <ele>1007.195</ele>
        <time>2021-05-27T23:32:49Z</time>
      </trkpt>
      <trkpt lat="42.368336" lon="2.492269">
        <ele>1009.598</ele>
        <time>2021-05-27T23:32:57Z</time>
      </trkpt>
      <trkpt lat="42.368394" lon="2.492171">
        <ele>1012.415</ele>
        <time>2021-05-27T23:33:06Z</time>
      </trkpt>
      <trkpt lat="42.368459" lon="2.492071">
        <ele>1015.326</ele>
        <time>2021-05-27T23:33:21Z</time>
      </trkpt>
      <trkpt lat="42.368523" lon="2.491984">
        <ele>1017.808</ele>
        <time>2021-05-27T23:33:34Z</time>
      </trkpt>
      <trkpt lat="42.368574" lon="2.491882">
        <ele>1021.336</ele>
        <time>2021-05-27T23:33:42Z</time>
      </trkpt>
      <trkpt lat="42.368656" lon="2.491809">
        <ele>1021.783</ele>
        <time>2021-05-27T23:33:53Z</time>
      </trkpt>
      <trkpt lat="42.368729" lon="2.491734">
        <ele>1021.961</ele>
        <time>2021-05-27T23:34:04Z</time>
      </trkpt>
      <trkpt lat="42.368776" lon="2.491623">
        <ele>1023.911</ele>
        <time>2021-05-27T23:34:16Z</time>
      </trkpt>
      <trkpt lat="42.368766" lon="2.491560">
        <ele>1026.258</ele>
        <time>2021-05-27T23:34:29Z</time>
      </trkpt>
      <trkpt lat="42.368789" lon="2.491547">
        <ele>1025.213</ele>
        <time>2021-05-27T23:34:43Z</time>
      </trkpt>
      <trkpt lat="42.368812" lon="2.491519">
        <ele>1024.786</ele>
        <time>2021-05-27T23:34:46Z</time>
      </trkpt>
      <trkpt lat="42.368715" lon="2.491590">
        <ele>1028.142</ele>
        <time>2021-05-27T23:35:15Z</time>
      </trkpt>
      <trkpt lat="42.368682" lon="2.491630">
        <ele>1028.684</ele>
        <time>2021-05-27T23:35:20Z</time>
      </trkpt>
      <trkpt lat="42.368662" lon="2.491644">
        <ele>1029.207</ele>
        <time>2021-05-27T23:35:26Z</time>
      </trkpt>
      <trkpt lat="42.368638" lon="2.491653">
        <ele>1030.117</ele>
        <time>2021-05-27T23:35:38Z</time>
      </trkpt>
      <trkpt lat="42.368547" lon="2.491642">
        <ele>1033.708</ele>
        <time>2021-05-27T23:35:47Z</time>
      </trkpt>
      <trkpt lat="42.368643" lon="2.491650">
        <ele>1030.045</ele>
        <time>2021-05-27T23:36:00Z</time>
      </trkpt>
      <trkpt lat="42.368732" lon="2.491617">
        <ele>1026.422</ele>
        <time>2021-05-27T23:36:04Z</time>
      </trkpt>
      <trkpt lat="42.368810" lon="2.491531">
        <ele>1024.520</ele>
        <time>2021-05-27T23:36:11Z</time>
      </trkpt>
      <trkpt lat="42.368853" lon="2.491404">
        <ele>1025.080</ele>
        <time>2021-05-27T23:36:16Z</time>
      </trkpt>
      <trkpt lat="42.368912" lon="2.491304">
        <ele>1022.467</ele>
        <time>2021-05-27T23:36:20Z</time>
      </trkpt>
      <trkpt lat="42.368928" lon="2.491164">
        <ele>1023.172</ele>
        <time>2021-05-27T23:36:26Z</time>
      </trkpt>
      <trkpt lat="42.368948" lon="2.491037">
        <ele>1022.265</ele>
        <time>2021-05-27T23:36:31Z</time>
      </trkpt>
      <trkpt lat="42.368944" lon="2.490905">
        <ele>1022.341</ele>
        <time>2021-05-27T23:36:37Z</time>
      </trkpt>
      <trkpt lat="42.368951" lon="2.490865">
        <ele>1021.714</ele>
        <time>2021-05-27T23:36:39Z</time>
      </trkpt>
      <trkpt lat="42.368967" lon="2.490849">
        <ele>1020.354</ele>
        <time>2021-05-27T23:36:40Z</time>
      </trkpt>
      <trkpt lat="42.368948" lon="2.490723">
        <ele>1020.009</ele>
        <time>2021-05-27T23:36:48Z</time>
      </trkpt>
      <trkpt lat="42.368910" lon="2.490603">
        <ele>1021.108</ele>
        <time>2021-05-27T23:36:56Z</time>
      </trkpt>
      <trkpt lat="42.368896" lon="2.490519">
        <ele>1020.648</ele>
        <time>2021-05-27T23:37:01Z</time>
      </trkpt>
      <trkpt lat="42.368907" lon="2.490395">
        <ele>1017.135</ele>
        <time>2021-05-27T23:37:07Z</time>
      </trkpt>
      <trkpt lat="42.368906" lon="2.490309">
        <ele>1015.493</ele>
        <time>2021-05-27T23:37:11Z</time>
      </trkpt>
      <trkpt lat="42.368911" lon="2.490271">
        <ele>1014.343</ele>
        <time>2021-05-27T23:37:13Z</time>
      </trkpt>
      <trkpt lat="42.368928" lon="2.490241">
        <ele>1012.580</ele>
        <time>2021-05-27T23:37:15Z</time>
      </trkpt>
      <trkpt lat="42.368920" lon="2.490104">
        <ele>1010.395</ele>
        <time>2021-05-27T23:37:21Z</time>
      </trkpt>
      <trkpt lat="42.368935" lon="2.489974">
        <ele>1007.028</ele>
        <time>2021-05-27T23:37:28Z</time>
      </trkpt>
      <trkpt lat="42.368929" lon="2.489842">
        <ele>1005.534</ele>
        <time>2021-05-27T23:37:34Z</time>
      </trkpt>
      <trkpt lat="42.368915" lon="2.489704">
        <ele>1004.341</ele>
        <time>2021-05-27T23:37:42Z</time>
      </trkpt>
      <trkpt lat="42.368937" lon="2.489697">
        <ele>1003.081</ele>
        <time>2021-05-27T23:37:47Z</time>
      </trkpt>
      <trkpt lat="42.368958" lon="2.489719">
        <ele>1002.209</ele>
        <time>2021-05-27T23:37:50Z</time>
      </trkpt>
      <trkpt lat="42.369001" lon="2.489841">
        <ele>1001.508</ele>
        <time>2021-05-27T23:37:58Z</time>
      </trkpt>
      <trkpt lat="42.369020" lon="2.489964">
        <ele>1002.081</ele>
        <time>2021-05-27T23:38:05Z</time>
      </trkpt>
      <trkpt lat="42.369100" lon="2.489902">
        <ele>996.748</ele>
        <time>2021-05-27T23:38:14Z</time>
      </trkpt>
      <trkpt lat="42.369113" lon="2.489773">
        <ele>994.526</ele>
        <time>2021-05-27T23:38:21Z</time>
      </trkpt>
      <trkpt lat="42.369080" lon="2.489650">
        <ele>994.986</ele>
        <time>2021-05-27T23:38:28Z</time>
      </trkpt>
      <trkpt lat="42.369055" lon="2.489521">
        <ele>994.713</ele>
        <time>2021-05-27T23:38:36Z</time>
      </trkpt>
      <trkpt lat="42.369006" lon="2.489393">
        <ele>995.028</ele>
        <time>2021-05-27T23:38:43Z</time>
      </trkpt>
      <trkpt lat="42.368959" lon="2.489246">
        <ele>994.421</ele>
        <time>2021-05-27T23:38:52Z</time>
      </trkpt>
      <trkpt lat="42.368898" lon="2.489128">
        <ele>994.467</ele>
        <time>2021-05-27T23:38:59Z</time>
      </trkpt>
      <trkpt lat="42.368827" lon="2.489046">
        <ele>994.227</ele>
        <time>2021-05-27T23:39:05Z</time>
      </trkpt>
      <trkpt lat="42.368803" lon="2.488928">
        <ele>991.368</ele>
        <time>2021-05-27T23:39:11Z</time>
      </trkpt>
      <trkpt lat="42.368786" lon="2.488807">
        <ele>987.614</ele>
        <time>2021-05-27T23:39:17Z</time>
      </trkpt>
      <trkpt lat="42.368741" lon="2.488695">
        <ele>985.008</ele>
        <time>2021-05-27T23:39:22Z</time>
      </trkpt>
      <trkpt lat="42.368662" lon="2.488613">
        <ele>985.119</ele>
        <time>2021-05-27T23:39:27Z</time>
      </trkpt>
      <trkpt lat="42.368586" lon="2.488526">
        <ele>985.536</ele>
        <time>2021-05-27T23:39:37Z</time>
      </trkpt>
      <trkpt lat="42.368524" lon="2.488427">
        <ele>984.684</ele>
        <time>2021-05-27T23:39:43Z</time>
      </trkpt>
      <trkpt lat="42.368556" lon="2.488549">
        <ele>987.464</ele>
        <time>2021-05-27T23:40:01Z</time>
      </trkpt>
      <trkpt lat="42.368632" lon="2.488655">
        <ele>987.871</ele>
        <time>2021-05-27T23:40:06Z</time>
      </trkpt>
      <trkpt lat="42.368702" lon="2.488736">
        <ele>988.036</ele>
        <time>2021-05-27T23:40:12Z</time>
      </trkpt>
      <trkpt lat="42.368787" lon="2.488780">
        <ele>986.539</ele>
        <time>2021-05-27T23:40:17Z</time>
      </trkpt>
      <trkpt lat="42.368885" lon="2.488764">
        <ele>982.255</ele>
        <time>2021-05-27T23:40:23Z</time>
      </trkpt>
      <trkpt lat="42.368979" lon="2.488794">
        <ele>979.964</ele>
        <time>2021-05-27T23:40:32Z</time>
      </trkpt>
      <trkpt lat="42.369081" lon="2.488841">
        <ele>977.706</ele>
        <time>2021-05-27T23:40:38Z</time>
      </trkpt>
      <trkpt lat="42.369163" lon="2.488919">
        <ele>977.016</ele>
        <time>2021-05-27T23:40:46Z</time>
      </trkpt>
      <trkpt lat="42.369248" lon="2.488975">
        <ele>974.508</ele>
        <time>2021-05-27T23:40:52Z</time>
      </trkpt>
      <trkpt lat="42.369336" lon="2.489006">
        <ele>970.963</ele>
        <time>2021-05-27T23:40:57Z</time>
      </trkpt>
      <trkpt lat="42.369438" lon="2.489073">
        <ele>967.360</ele>
        <time>2021-05-27T23:41:04Z</time>
      </trkpt>
      <trkpt lat="42.369489" lon="2.489199">
        <ele>966.878</ele>
        <time>2021-05-27T23:41:10Z</time>
      </trkpt>
      <trkpt lat="42.369533" lon="2.489308">
        <ele>965.398</ele>
        <time>2021-05-27T23:41:17Z</time>
      </trkpt>
      <trkpt lat="42.369578" lon="2.489434">
        <ele>963.785</ele>
        <time>2021-05-27T23:41:23Z</time>
      </trkpt>
      <trkpt lat="42.369571" lon="2.489559">
        <ele>964.920</ele>
        <time>2021-05-27T23:41:29Z</time>
      </trkpt>
      <trkpt lat="42.369642" lon="2.489451">
        <ele>959.973</ele>
        <time>2021-05-27T23:41:39Z</time>
      </trkpt>
      <trkpt lat="42.369706" lon="2.489347">
        <ele>955.379</ele>
        <time>2021-05-27T23:41:46Z</time>
      </trkpt>
      <trkpt lat="42.369754" lon="2.489230">
        <ele>951.617</ele>
        <time>2021-05-27T23:41:54Z</time>
      </trkpt>
      <trkpt lat="42.369770" lon="2.489099">
        <ele>949.487</ele>
        <time>2021-05-27T23:42:01Z</time>
      </trkpt>
      <trkpt lat="42.369731" lon="2.488972">
        <ele>949.815</ele>
        <time>2021-05-27T23:42:08Z</time>
      </trkpt>
      <trkpt lat="42.369695" lon="2.488857">
        <ele>949.808</ele>
        <time>2021-05-27T23:42:13Z</time>
      </trkpt>
      <trkpt lat="42.369698" lon="2.488728">
        <ele>947.228</ele>
        <time>2021-05-27T23:42:19Z</time>
      </trkpt>
      <trkpt lat="42.369667" lon="2.488602">
        <ele>946.315</ele>
        <time>2021-05-27T23:42:27Z</time>
      </trkpt>
      <trkpt lat="42.369748" lon="2.488689">
        <ele>944.793</ele>
        <time>2021-05-27T23:42:46Z</time>
      </trkpt>
      <trkpt lat="42.369835" lon="2.488644">
        <ele>941.933</ele>
        <time>2021-05-27T23:43:00Z</time>
      </trkpt>
      <trkpt lat="42.369857" lon="2.488518">
        <ele>941.140</ele>
        <time>2021-05-27T23:43:06Z</time>
      </trkpt>
      <trkpt lat="42.369869" lon="2.488392">
        <ele>940.955</ele>
        <time>2021-05-27T23:43:18Z</time>
      </trkpt>
      <trkpt lat="42.369904" lon="2.488268">
        <ele>940.578</ele>
        <time>2021-05-27T23:43:25Z</time>
      </trkpt>
      <trkpt lat="42.369944" lon="2.488139">
        <ele>940.414</ele>
        <time>2021-05-27T23:43:31Z</time>
      </trkpt>
      <trkpt lat="42.370015" lon="2.488059">
        <ele>940.064</ele>
        <time>2021-05-27T23:43:39Z</time>
      </trkpt>
      <trkpt lat="42.370087" lon="2.488138">
        <ele>939.806</ele>
        <time>2021-05-27T23:43:53Z</time>
      </trkpt>
      <trkpt lat="42.370136" lon="2.488268">
        <ele>939.016</ele>
        <time>2021-05-27T23:43:59Z</time>
      </trkpt>
      <trkpt lat="42.370165" lon="2.488398">
        <ele>937.908</ele>
        <time>2021-05-27T23:44:04Z</time>
      </trkpt>
      <trkpt lat="42.370205" lon="2.488514">
        <ele>936.763</ele>
        <time>2021-05-27T23:44:10Z</time>
      </trkpt>
      <trkpt lat="42.370297" lon="2.488538">
        <ele>936.070</ele>
        <time>2021-05-27T23:44:18Z</time>
      </trkpt>
      <trkpt lat="42.370363" lon="2.488627">
        <ele>936.128</ele>
        <time>2021-05-27T23:44:25Z</time>
      </trkpt>
      <trkpt lat="42.370460" lon="2.488635">
        <ele>937.618</ele>
        <time>2021-05-27T23:44:46Z</time>
      </trkpt>
      <trkpt lat="42.370524" lon="2.488532">
        <ele>938.945</ele>
        <time>2021-05-27T23:44:50Z</time>
      </trkpt>
      <trkpt lat="42.370554" lon="2.488417">
        <ele>939.750</ele>
        <time>2021-05-27T23:45:00Z</time>
      </trkpt>
      <trkpt lat="42.370589" lon="2.488532">
        <ele>940.693</ele>
        <time>2021-05-27T23:45:11Z</time>
      </trkpt>
      <trkpt lat="42.370634" lon="2.488641">
        <ele>942.579</ele>
        <time>2021-05-27T23:45:21Z</time>
      </trkpt>
      <trkpt lat="42.370674" lon="2.488761">
        <ele>944.652</ele>
        <time>2021-05-27T23:45:31Z</time>
      </trkpt>
      <trkpt lat="42.370696" lon="2.488883">
        <ele>946.153</ele>
        <time>2021-05-27T23:45:38Z</time>
      </trkpt>
      <trkpt lat="42.370685" lon="2.489007">
        <ele>945.508</ele>
        <time>2021-05-27T23:45:49Z</time>
      </trkpt>
      <trkpt lat="42.370670" lon="2.489062">
        <ele>944.508</ele>
        <time>2021-05-27T23:45:54Z</time>
      </trkpt>
      <trkpt lat="42.370678" lon="2.489085">
        <ele>945.082</ele>
        <time>2021-05-27T23:45:59Z</time>
      </trkpt>
      <trkpt lat="42.370684" lon="2.489111">
        <ele>945.479</ele>
        <time>2021-05-27T23:46:01Z</time>
      </trkpt>
      <trkpt lat="42.370691" lon="2.489139">
        <ele>945.817</ele>
        <time>2021-05-27T23:46:03Z</time>
      </trkpt>
      <trkpt lat="42.370738" lon="2.489254">
        <ele>948.487</ele>
        <time>2021-05-27T23:46:11Z</time>
      </trkpt>
      <trkpt lat="42.370802" lon="2.489347">
        <ele>952.214</ele>
        <time>2021-05-27T23:46:21Z</time>
      </trkpt>
      <trkpt lat="42.370840" lon="2.489464">
        <ele>954.299</ele>
        <time>2021-05-27T23:46:29Z</time>
      </trkpt>
      <trkpt lat="42.370840" lon="2.489490">
        <ele>953.922</ele>
        <time>2021-05-27T23:46:31Z</time>
      </trkpt>
      <trkpt lat="42.370851" lon="2.489513">
        <ele>954.328</ele>
        <time>2021-05-27T23:46:37Z</time>
      </trkpt>
      <trkpt lat="42.370917" lon="2.489611">
        <ele>957.423</ele>
        <time>2021-05-27T23:46:49Z</time>
      </trkpt>
      <trkpt lat="42.370953" lon="2.489723">
        <ele>958.883</ele>
        <time>2021-05-27T23:46:58Z</time>
      </trkpt>
      <trkpt lat="42.371004" lon="2.489832">
        <ele>961.811</ele>
        <time>2021-05-27T23:47:11Z</time>
      </trkpt>
      <trkpt lat="42.371080" lon="2.489900">
        <ele>966.808</ele>
        <time>2021-05-27T23:47:22Z</time>
      </trkpt>
      <trkpt lat="42.371104" lon="2.490018">
        <ele>968.989</ele>
        <time>2021-05-27T23:47:36Z</time>
      </trkpt>
      <trkpt lat="42.371134" lon="2.490137">
        <ele>973.686</ele>
        <time>2021-05-27T23:47:51Z</time>
      </trkpt>
      <trkpt lat="42.371048" lon="2.490207">
        <ele>968.824</ele>
        <time>2021-05-27T23:48:08Z</time>
      </trkpt>
      <trkpt lat="42.371044" lon="2.490249">
        <ele>969.364</ele>
        <time>2021-05-27T23:48:12Z</time>
      </trkpt>
      <trkpt lat="42.371026" lon="2.490283">
        <ele>968.711</ele>
        <time>2021-05-27T23:48:15Z</time>
      </trkpt>
      <trkpt lat="42.371016" lon="2.490310">
        <ele>968.746</ele>
        <time>2021-05-27T23:48:18Z</time>
      </trkpt>
      <trkpt lat="42.371010" lon="2.490339">
        <ele>969.169</ele>
        <time>2021-05-27T23:48:22Z</time>
      </trkpt>
      <trkpt lat="42.370987" lon="2.490378">
        <ele>968.575</ele>
        <time>2021-05-27T23:48:31Z</time>
      </trkpt>
      <trkpt lat="42.370987" lon="2.490419">
        <ele>969.724</ele>
        <time>2021-05-27T23:48:35Z</time>
      </trkpt>
      <trkpt lat="42.370960" lon="2.490539">
        <ele>971.104</ele>
        <time>2021-05-27T23:48:44Z</time>
      </trkpt>
      <trkpt lat="42.370950" lon="2.490587">
        <ele>971.614</ele>
        <time>2021-05-27T23:48:47Z</time>
      </trkpt>
      <trkpt lat="42.370947" lon="2.490613">
        <ele>972.008</ele>
        <time>2021-05-27T23:48:48Z</time>
      </trkpt>
      <trkpt lat="42.370945" lon="2.490643">
        <ele>972.579</ele>
        <time>2021-05-27T23:48:49Z</time>
      </trkpt>
      <trkpt lat="42.370937" lon="2.490684">
        <ele>972.986</ele>
        <time>2021-05-27T23:48:51Z</time>
      </trkpt>
      <trkpt lat="42.370932" lon="2.490729">
        <ele>973.684</ele>
        <time>2021-05-27T23:48:53Z</time>
      </trkpt>
      <trkpt lat="42.370937" lon="2.490863">
        <ele>977.054</ele>
        <time>2021-05-27T23:48:59Z</time>
      </trkpt>
      <trkpt lat="42.370939" lon="2.490997">
        <ele>979.391</ele>
        <time>2021-05-27T23:49:04Z</time>
      </trkpt>
      <trkpt lat="42.370924" lon="2.491134">
        <ele>980.276</ele>
        <time>2021-05-27T23:49:09Z</time>
      </trkpt>
      <trkpt lat="42.370910" lon="2.491263">
        <ele>979.419</ele>
        <time>2021-05-27T23:49:18Z</time>
      </trkpt>
      <trkpt lat="42.370914" lon="2.491306">
        <ele>979.755</ele>
        <time>2021-05-27T23:49:22Z</time>
      </trkpt>
      <trkpt lat="42.370925" lon="2.491337">
        <ele>980.318</ele>
        <time>2021-05-27T23:49:25Z</time>
      </trkpt>
      <trkpt lat="42.370930" lon="2.491365">
        <ele>980.598</ele>
        <time>2021-05-27T23:49:28Z</time>
      </trkpt>
      <trkpt lat="42.370938" lon="2.491399">
        <ele>980.717</ele>
        <time>2021-05-27T23:49:32Z</time>
      </trkpt>
      <trkpt lat="42.370951" lon="2.491418">
        <ele>980.808</ele>
        <time>2021-05-27T23:49:35Z</time>
      </trkpt>
      <trkpt lat="42.370964" lon="2.491447">
        <ele>980.788</ele>
        <time>2021-05-27T23:49:38Z</time>
      </trkpt>
      <trkpt lat="42.370978" lon="2.491476">
        <ele>980.555</ele>
        <time>2021-05-27T23:49:41Z</time>
      </trkpt>
      <trkpt lat="42.370992" lon="2.491508">
        <ele>980.223</ele>
        <time>2021-05-27T23:49:44Z</time>
      </trkpt>
      <trkpt lat="42.371009" lon="2.491524">
        <ele>980.373</ele>
        <time>2021-05-27T23:49:46Z</time>
      </trkpt>
      <trkpt lat="42.371035" lon="2.491512">
        <ele>981.530</ele>
        <time>2021-05-27T23:49:50Z</time>
      </trkpt>
      <trkpt lat="42.371053" lon="2.491498">
        <ele>982.635</ele>
        <time>2021-05-27T23:49:52Z</time>
      </trkpt>
      <trkpt lat="42.371076" lon="2.491497">
        <ele>983.568</ele>
        <time>2021-05-27T23:49:56Z</time>
      </trkpt>
      <trkpt lat="42.371093" lon="2.491477">
        <ele>984.874</ele>
        <time>2021-05-27T23:50:00Z</time>
      </trkpt>
      <trkpt lat="42.371069" lon="2.491445">
        <ele>985.118</ele>
        <time>2021-05-27T23:50:05Z</time>
      </trkpt>
      <trkpt lat="42.371061" lon="2.491419">
        <ele>985.698</ele>
        <time>2021-05-27T23:50:09Z</time>
      </trkpt>
      <trkpt lat="42.371067" lon="2.491386">
        <ele>987.017</ele>
        <time>2021-05-27T23:50:14Z</time>
      </trkpt>
      <trkpt lat="42.371085" lon="2.491389">
        <ele>987.808</ele>
        <time>2021-05-27T23:50:18Z</time>
      </trkpt>
      <trkpt lat="42.371104" lon="2.491410">
        <ele>987.888</ele>
        <time>2021-05-27T23:50:22Z</time>
      </trkpt>
      <trkpt lat="42.371122" lon="2.491410">
        <ele>988.085</ele>
        <time>2021-05-27T23:50:24Z</time>
      </trkpt>
      <trkpt lat="42.371142" lon="2.491423">
        <ele>987.363</ele>
        <time>2021-05-27T23:50:27Z</time>
      </trkpt>
      <trkpt lat="42.371162" lon="2.491418">
        <ele>987.223</ele>
        <time>2021-05-27T23:50:32Z</time>
      </trkpt>
      <trkpt lat="42.371183" lon="2.491399">
        <ele>987.820</ele>
        <time>2021-05-27T23:50:35Z</time>
      </trkpt>
      <trkpt lat="42.371204" lon="2.491373">
        <ele>988.475</ele>
        <time>2021-05-27T23:50:38Z</time>
      </trkpt>
      <trkpt lat="42.371280" lon="2.491286">
        <ele>990.598</ele>
        <time>2021-05-27T23:50:45Z</time>
      </trkpt>
      <trkpt lat="42.371358" lon="2.491209">
        <ele>993.544</ele>
        <time>2021-05-27T23:50:56Z</time>
      </trkpt>
      <trkpt lat="42.371418" lon="2.491107">
        <ele>997.221</ele>
        <time>2021-05-27T23:51:06Z</time>
      </trkpt>
      <trkpt lat="42.371505" lon="2.491053">
        <ele>995.941</ele>
        <time>2021-05-27T23:51:19Z</time>
      </trkpt>
      <trkpt lat="42.371591" lon="2.491018">
        <ele>995.005</ele>
        <time>2021-05-27T23:51:25Z</time>
      </trkpt>
      <trkpt lat="42.371605" lon="2.490995">
        <ele>995.508</ele>
        <time>2021-05-27T23:51:28Z</time>
      </trkpt>
      <trkpt lat="42.371626" lon="2.490978">
        <ele>995.889</ele>
        <time>2021-05-27T23:51:31Z</time>
      </trkpt>
      <trkpt lat="42.371660" lon="2.490936">
        <ele>997.066</ele>
        <time>2021-05-27T23:51:35Z</time>
      </trkpt>
      <trkpt lat="42.371715" lon="2.490878">
        <ele>997.884</ele>
        <time>2021-05-27T23:51:46Z</time>
      </trkpt>
      <trkpt lat="42.371737" lon="2.490851">
        <ele>998.354</ele>
        <time>2021-05-27T23:51:50Z</time>
      </trkpt>
      <trkpt lat="42.371755" lon="2.490806">
        <ele>999.271</ele>
        <time>2021-05-27T23:51:55Z</time>
      </trkpt>
      <trkpt lat="42.371752" lon="2.490778">
        <ele>1000.136</ele>
        <time>2021-05-27T23:51:58Z</time>
      </trkpt>
      <trkpt lat="42.371768" lon="2.490766">
        <ele>1000.179</ele>
        <time>2021-05-27T23:52:01Z</time>
      </trkpt>
      <trkpt lat="42.371772" lon="2.490738">
        <ele>1000.945</ele>
        <time>2021-05-27T23:52:04Z</time>
      </trkpt>
      <trkpt lat="42.371797" lon="2.490683">
        <ele>1002.275</ele>
        <time>2021-05-27T23:52:10Z</time>
      </trkpt>
      <trkpt lat="42.371830" lon="2.490567">
        <ele>1006.228</ele>
        <time>2021-05-27T23:52:18Z</time>
      </trkpt>
      <trkpt lat="42.371848" lon="2.490512">
        <ele>1007.620</ele>
        <time>2021-05-27T23:52:24Z</time>
      </trkpt>
      <trkpt lat="42.371887" lon="2.490389">
        <ele>1011.208</ele>
        <time>2021-05-27T23:52:39Z</time>
      </trkpt>
      <trkpt lat="42.371940" lon="2.490283">
        <ele>1015.734</ele>
        <time>2021-05-27T23:52:56Z</time>
      </trkpt>
      <trkpt lat="42.371974" lon="2.490260">
        <ele>1017.281</ele>
        <time>2021-05-27T23:53:04Z</time>
      </trkpt>
      <trkpt lat="42.371990" lon="2.490279">
        <ele>1017.499</ele>
        <time>2021-05-27T23:53:07Z</time>
      </trkpt>
      <trkpt lat="42.372040" lon="2.490162">
        <ele>1021.369</ele>
        <time>2021-05-27T23:53:21Z</time>
      </trkpt>
      <trkpt lat="42.372055" lon="2.490039">
        <ele>1024.446</ele>
        <time>2021-05-27T23:53:32Z</time>
      </trkpt>
      <trkpt lat="42.372058" lon="2.489911">
        <ele>1026.311</ele>
        <time>2021-05-27T23:53:46Z</time>
      </trkpt>
      <trkpt lat="42.372046" lon="2.489788">
        <ele>1027.174</ele>
        <time>2021-05-27T23:53:59Z</time>
      </trkpt>
      <trkpt lat="42.372026" lon="2.489657">
        <ele>1027.250</ele>
        <time>2021-05-27T23:54:13Z</time>
      </trkpt>
      <trkpt lat="42.372065" lon="2.489542">
        <ele>1030.288</ele>
        <time>2021-05-27T23:54:27Z</time>
      </trkpt>
      <trkpt lat="42.372103" lon="2.489421">
        <ele>1033.324</ele>
        <time>2021-05-27T23:54:35Z</time>
      </trkpt>
      <trkpt lat="42.372097" lon="2.489359">
        <ele>1033.326</ele>
        <time>2021-05-27T23:54:40Z</time>
      </trkpt>
      <trkpt lat="42.372103" lon="2.489324">
        <ele>1033.808</ele>
        <time>2021-05-27T23:54:43Z</time>
      </trkpt>
      <trkpt lat="42.372146" lon="2.489207">
        <ele>1037.145</ele>
        <time>2021-05-27T23:54:54Z</time>
      </trkpt>
      <trkpt lat="42.372151" lon="2.489182">
        <ele>1037.532</ele>
        <time>2021-05-27T23:54:57Z</time>
      </trkpt>
      <trkpt lat="42.372159" lon="2.489159">
        <ele>1038.130</ele>
        <time>2021-05-27T23:55:02Z</time>
      </trkpt>
      <trkpt lat="42.372163" lon="2.489135">
        <ele>1038.260</ele>
        <time>2021-05-27T23:55:04Z</time>
      </trkpt>
      <trkpt lat="42.372168" lon="2.489109">
        <ele>1038.327</ele>
        <time>2021-05-27T23:55:07Z</time>
      </trkpt>
      <trkpt lat="42.372209" lon="2.488997">
        <ele>1040.022</ele>
        <time>2021-05-27T23:55:21Z</time>
      </trkpt>
      <trkpt lat="42.372259" lon="2.488909">
        <ele>1042.075</ele>
        <time>2021-05-27T23:55:29Z</time>
      </trkpt>
      <trkpt lat="42.372273" lon="2.488890">
        <ele>1042.661</ele>
        <time>2021-05-27T23:55:31Z</time>
      </trkpt>
      <trkpt lat="42.372286" lon="2.488861">
        <ele>1042.875</ele>
        <time>2021-05-27T23:55:34Z</time>
      </trkpt>
      <trkpt lat="42.372295" lon="2.488839">
        <ele>1042.928</ele>
        <time>2021-05-27T23:55:37Z</time>
      </trkpt>
      <trkpt lat="42.372299" lon="2.488806">
        <ele>1042.620</ele>
        <time>2021-05-27T23:55:39Z</time>
      </trkpt>
      <trkpt lat="42.372311" lon="2.488784">
        <ele>1042.708</ele>
        <time>2021-05-27T23:55:42Z</time>
      </trkpt>
      <trkpt lat="42.372326" lon="2.488760">
        <ele>1043.044</ele>
        <time>2021-05-27T23:55:45Z</time>
      </trkpt>
      <trkpt lat="42.372340" lon="2.488740">
        <ele>1043.241</ele>
        <time>2021-05-27T23:55:48Z</time>
      </trkpt>
      <trkpt lat="42.372360" lon="2.488727">
        <ele>1043.839</ele>
        <time>2021-05-27T23:55:51Z</time>
      </trkpt>
      <trkpt lat="42.372379" lon="2.488730">
        <ele>1044.659</ele>
        <time>2021-05-27T23:55:54Z</time>
      </trkpt>
      <trkpt lat="42.372376" lon="2.488759">
        <ele>1045.176</ele>
        <time>2021-05-27T23:55:58Z</time>
      </trkpt>
      <trkpt lat="42.372368" lon="2.488783">
        <ele>1045.251</ele>
        <time>2021-05-27T23:56:01Z</time>
      </trkpt>
      <trkpt lat="42.372357" lon="2.488806">
        <ele>1045.254</ele>
        <time>2021-05-27T23:56:03Z</time>
      </trkpt>
      <trkpt lat="42.372368" lon="2.488827">
        <ele>1046.160</ele>
        <time>2021-05-27T23:56:06Z</time>
      </trkpt>
      <trkpt lat="42.372380" lon="2.488845">
        <ele>1047.098</ele>
        <time>2021-05-27T23:56:11Z</time>
      </trkpt>
      <trkpt lat="42.372401" lon="2.488846">
        <ele>1048.015</ele>
        <time>2021-05-27T23:56:17Z</time>
      </trkpt>
      <trkpt lat="42.372418" lon="2.488858">
        <ele>1049.126</ele>
        <time>2021-05-27T23:56:20Z</time>
      </trkpt>
      <trkpt lat="42.372436" lon="2.488870">
        <ele>1050.308</ele>
        <time>2021-05-27T23:56:24Z</time>
      </trkpt>
      <trkpt lat="42.372439" lon="2.488901">
        <ele>1051.166</ele>
        <time>2021-05-27T23:56:28Z</time>
      </trkpt>
      <trkpt lat="42.372431" lon="2.488923">
        <ele>1051.033</ele>
        <time>2021-05-27T23:56:32Z</time>
      </trkpt>
      <trkpt lat="42.372425" lon="2.488957">
        <ele>1051.211</ele>
        <time>2021-05-27T23:56:34Z</time>
      </trkpt>
      <trkpt lat="42.372429" lon="2.488981">
        <ele>1051.831</ele>
        <time>2021-05-27T23:56:36Z</time>
      </trkpt>
      <trkpt lat="42.372433" lon="2.489007">
        <ele>1052.468</ele>
        <time>2021-05-27T23:56:39Z</time>
      </trkpt>
      <trkpt lat="42.372438" lon="2.489037">
        <ele>1053.273</ele>
        <time>2021-05-27T23:56:43Z</time>
      </trkpt>
      <trkpt lat="42.372441" lon="2.489072">
        <ele>1053.976</ele>
        <time>2021-05-27T23:56:47Z</time>
      </trkpt>
      <trkpt lat="42.372443" lon="2.489097">
        <ele>1054.412</ele>
        <time>2021-05-27T23:56:49Z</time>
      </trkpt>
      <trkpt lat="42.372448" lon="2.489120">
        <ele>1055.193</ele>
        <time>2021-05-27T23:56:51Z</time>
      </trkpt>
      <trkpt lat="42.372451" lon="2.489149">
        <ele>1055.765</ele>
        <time>2021-05-27T23:56:53Z</time>
      </trkpt>
      <trkpt lat="42.372453" lon="2.489175">
        <ele>1056.121</ele>
        <time>2021-05-27T23:56:56Z</time>
      </trkpt>
      <trkpt lat="42.372459" lon="2.489204">
        <ele>1056.308</ele>
        <time>2021-05-27T23:57:00Z</time>
      </trkpt>
      <trkpt lat="42.372461" lon="2.489237">
        <ele>1056.356</ele>
        <time>2021-05-27T23:57:01Z</time>
      </trkpt>
      <trkpt lat="42.372465" lon="2.489263">
        <ele>1056.583</ele>
        <time>2021-05-27T23:57:03Z</time>
      </trkpt>
      <trkpt lat="42.372467" lon="2.489291">
        <ele>1056.591</ele>
        <time>2021-05-27T23:57:05Z</time>
      </trkpt>
      <trkpt lat="42.372469" lon="2.489324">
        <ele>1056.591</ele>
        <time>2021-05-27T23:57:07Z</time>
      </trkpt>
      <trkpt lat="42.372469" lon="2.489353">
        <ele>1056.458</ele>
        <time>2021-05-27T23:57:09Z</time>
      </trkpt>
      <trkpt lat="42.372468" lon="2.489383">
        <ele>1056.273</ele>
        <time>2021-05-27T23:57:12Z</time>
      </trkpt>
      <trkpt lat="42.372473" lon="2.489414">
        <ele>1056.416</ele>
        <time>2021-05-27T23:57:13Z</time>
      </trkpt>
      <trkpt lat="42.372477" lon="2.489443">
        <ele>1056.532</ele>
        <time>2021-05-27T23:57:16Z</time>
      </trkpt>
      <trkpt lat="42.372485" lon="2.489476">
        <ele>1056.535</ele>
        <time>2021-05-27T23:57:19Z</time>
      </trkpt>
      <trkpt lat="42.372493" lon="2.489507">
        <ele>1056.486</ele>
        <time>2021-05-27T23:57:22Z</time>
      </trkpt>
      <trkpt lat="42.372502" lon="2.489529">
        <ele>1056.514</ele>
        <time>2021-05-27T23:57:24Z</time>
      </trkpt>
      <trkpt lat="42.372510" lon="2.489553">
        <ele>1056.408</ele>
        <time>2021-05-27T23:57:26Z</time>
      </trkpt>
      <trkpt lat="42.372525" lon="2.489575">
        <ele>1056.570</ele>
        <time>2021-05-27T23:57:28Z</time>
      </trkpt>
      <trkpt lat="42.372538" lon="2.489597">
        <ele>1056.537</ele>
        <time>2021-05-27T23:57:31Z</time>
      </trkpt>
      <trkpt lat="42.372552" lon="2.489621">
        <ele>1056.575</ele>
        <time>2021-05-27T23:57:32Z</time>
      </trkpt>
      <trkpt lat="42.372567" lon="2.489644">
        <ele>1056.655</ele>
        <time>2021-05-27T23:57:34Z</time>
      </trkpt>
      <trkpt lat="42.372585" lon="2.489665">
        <ele>1056.872</ele>
        <time>2021-05-27T23:57:36Z</time>
      </trkpt>
      <trkpt lat="42.372601" lon="2.489684">
        <ele>1057.067</ele>
        <time>2021-05-27T23:57:38Z</time>
      </trkpt>
      <trkpt lat="42.372615" lon="2.489704">
        <ele>1057.170</ele>
        <time>2021-05-27T23:57:40Z</time>
      </trkpt>
      <trkpt lat="42.372626" lon="2.489724">
        <ele>1057.076</ele>
        <time>2021-05-27T23:57:42Z</time>
      </trkpt>
      <trkpt lat="42.372638" lon="2.489746">
        <ele>1056.756</ele>
        <time>2021-05-27T23:57:44Z</time>
      </trkpt>
      <trkpt lat="42.372658" lon="2.489770">
        <ele>1056.659</ele>
        <time>2021-05-27T23:57:46Z</time>
      </trkpt>
      <trkpt lat="42.372676" lon="2.489780">
        <ele>1056.814</ele>
        <time>2021-05-27T23:57:48Z</time>
      </trkpt>
      <trkpt lat="42.372737" lon="2.489828">
        <ele>1057.308</ele>
        <time>2021-05-27T23:57:55Z</time>
      </trkpt>
      <trkpt lat="42.372758" lon="2.489845">
        <ele>1057.412</ele>
        <time>2021-05-27T23:57:57Z</time>
      </trkpt>
      <trkpt lat="42.372772" lon="2.489862">
        <ele>1057.369</ele>
        <time>2021-05-27T23:57:59Z</time>
      </trkpt>
      <trkpt lat="42.372793" lon="2.489871">
        <ele>1057.657</ele>
        <time>2021-05-27T23:58:02Z</time>
      </trkpt>
      <trkpt lat="42.372814" lon="2.489875">
        <ele>1057.957</ele>
        <time>2021-05-27T23:58:06Z</time>
      </trkpt>
      <trkpt lat="42.372831" lon="2.489898">
        <ele>1057.554</ele>
        <time>2021-05-27T23:58:07Z</time>
      </trkpt>
      <trkpt lat="42.372845" lon="2.489919">
        <ele>1057.139</ele>
        <time>2021-05-27T23:58:09Z</time>
      </trkpt>
      <trkpt lat="42.372867" lon="2.489935">
        <ele>1057.062</ele>
        <time>2021-05-27T23:58:11Z</time>
      </trkpt>
      <trkpt lat="42.372889" lon="2.489949">
        <ele>1056.918</ele>
        <time>2021-05-27T23:58:13Z</time>
      </trkpt>
      <trkpt lat="42.372906" lon="2.489958">
        <ele>1056.961</ele>
        <time>2021-05-27T23:58:14Z</time>
      </trkpt>
      <trkpt lat="42.372923" lon="2.489969">
        <ele>1056.921</ele>
        <time>2021-05-27T23:58:15Z</time>
      </trkpt>
      <trkpt lat="42.372940" lon="2.489980">
        <ele>1056.713</ele>
        <time>2021-05-27T23:58:16Z</time>
      </trkpt>
      <trkpt lat="42.372957" lon="2.489992">
        <ele>1056.608</ele>
        <time>2021-05-27T23:58:17Z</time>
      </trkpt>
      <trkpt lat="42.372988" lon="2.490003">
        <ele>1056.783</ele>
        <time>2021-05-27T23:58:19Z</time>
      </trkpt>
      <trkpt lat="42.373020" lon="2.490014">
        <ele>1056.820</ele>
        <time>2021-05-27T23:58:21Z</time>
      </trkpt>
      <trkpt lat="42.373042" lon="2.490019">
        <ele>1056.958</ele>
        <time>2021-05-27T23:58:23Z</time>
      </trkpt>
      <trkpt lat="42.373060" lon="2.490017">
        <ele>1057.398</ele>
        <time>2021-05-27T23:58:25Z</time>
      </trkpt>
      <trkpt lat="42.373080" lon="2.490016">
        <ele>1057.785</ele>
        <time>2021-05-27T23:58:27Z</time>
      </trkpt>
      <trkpt lat="42.373103" lon="2.490017">
        <ele>1058.140</ele>
        <time>2021-05-27T23:58:29Z</time>
      </trkpt>
      <trkpt lat="42.373125" lon="2.490019">
        <ele>1058.483</ele>
        <time>2021-05-27T23:58:31Z</time>
      </trkpt>
      <trkpt lat="42.373143" lon="2.490019">
        <ele>1058.719</ele>
        <time>2021-05-27T23:58:33Z</time>
      </trkpt>
      <trkpt lat="42.373170" lon="2.490009">
        <ele>1059.734</ele>
        <time>2021-05-27T23:58:36Z</time>
      </trkpt>
      <trkpt lat="42.373241" lon="2.490008">
        <ele>1061.055</ele>
        <time>2021-05-27T23:58:42Z</time>
      </trkpt>
      <trkpt lat="42.373264" lon="2.490001">
        <ele>1061.710</ele>
        <time>2021-05-27T23:58:44Z</time>
      </trkpt>
      <trkpt lat="42.373286" lon="2.490000">
        <ele>1062.108</ele>
        <time>2021-05-27T23:58:47Z</time>
      </trkpt>
      <trkpt lat="42.373316" lon="2.489999">
        <ele>1062.740</ele>
        <time>2021-05-27T23:58:49Z</time>
      </trkpt>
      <trkpt lat="42.373337" lon="2.489999">
        <ele>1063.267</ele>
        <time>2021-05-27T23:58:52Z</time>
      </trkpt>
      <trkpt lat="42.373362" lon="2.489996">
        <ele>1064.045</ele>
        <time>2021-05-27T23:58:54Z</time>
      </trkpt>
      <trkpt lat="42.373382" lon="2.489992">
        <ele>1064.845</ele>
        <time>2021-05-27T23:58:57Z</time>
      </trkpt>
      <trkpt lat="42.373404" lon="2.489995">
        <ele>1065.322</ele>
        <time>2021-05-27T23:59:00Z</time>
      </trkpt>
      <trkpt lat="42.373427" lon="2.489995">
        <ele>1065.947</ele>
        <time>2021-05-27T23:59:03Z</time>
      </trkpt>
      <trkpt lat="42.373452" lon="2.489991">
        <ele>1066.830</ele>
        <time>2021-05-27T23:59:06Z</time>
      </trkpt>
      <trkpt lat="42.373470" lon="2.489985">
        <ele>1067.656</ele>
        <time>2021-05-27T23:59:10Z</time>
      </trkpt>
      <trkpt lat="42.373457" lon="2.489960">
        <ele>1068.581</ele>
        <time>2021-05-27T23:59:14Z</time>
      </trkpt>
      <trkpt lat="42.373438" lon="2.489942">
        <ele>1068.861</ele>
        <time>2021-05-27T23:59:17Z</time>
      </trkpt>
      <trkpt lat="42.373452" lon="2.489972">
        <ele>1067.817</ele>
        <time>2021-05-27T23:59:23Z</time>
      </trkpt>
      <trkpt lat="42.373484" lon="2.490000">
        <ele>1067.308</ele>
        <time>2021-05-27T23:59:26Z</time>
      </trkpt>
      <trkpt lat="42.373503" lon="2.490009">
        <ele>1067.525</ele>
        <time>2021-05-27T23:59:28Z</time>
      </trkpt>
      <trkpt lat="42.373525" lon="2.490019">
        <ele>1067.782</ele>
        <time>2021-05-27T23:59:30Z</time>
      </trkpt>
      <trkpt lat="42.373549" lon="2.490036">
        <ele>1067.650</ele>
        <time>2021-05-27T23:59:32Z</time>
      </trkpt>
      <trkpt lat="42.373576" lon="2.490056">
        <ele>1067.520</ele>
        <time>2021-05-27T23:59:34Z</time>
      </trkpt>
      <trkpt lat="42.373600" lon="2.490071">
        <ele>1067.667</ele>
        <time>2021-05-27T23:59:36Z</time>
      </trkpt>
      <trkpt lat="42.373632" lon="2.490098">
        <ele>1067.462</ele>
        <time>2021-05-27T23:59:38Z</time>
      </trkpt>
      <trkpt lat="42.373647" lon="2.490113">
        <ele>1067.325</ele>
        <time>2021-05-27T23:59:39Z</time>
      </trkpt>
      <trkpt lat="42.373677" lon="2.490137">
        <ele>1067.261</ele>
        <time>2021-05-27T23:59:41Z</time>
      </trkpt>
      <trkpt lat="42.373706" lon="2.490158">
        <ele>1067.342</ele>
        <time>2021-05-27T23:59:43Z</time>
      </trkpt>
      <trkpt lat="42.373734" lon="2.490181">
        <ele>1067.322</ele>
        <time>2021-05-27T23:59:45Z</time>
      </trkpt>
      <trkpt lat="42.373762" lon="2.490199">
        <ele>1067.514</ele>
        <time>2021-05-27T23:59:47Z</time>
      </trkpt>
      <trkpt lat="42.373780" lon="2.490215">
        <ele>1067.508</ele>
        <time>2021-05-27T23:59:49Z</time>
      </trkpt>
      <trkpt lat="42.373803" lon="2.490237">
        <ele>1067.561</ele>
        <time>2021-05-27T23:59:51Z</time>
      </trkpt>
      <trkpt lat="42.373826" lon="2.490255">
        <ele>1067.658</ele>
        <time>2021-05-27T23:59:53Z</time>
      </trkpt>
      <trkpt lat="42.373851" lon="2.490272">
        <ele>1067.866</ele>
        <time>2021-05-27T23:59:55Z</time>
      </trkpt>
      <trkpt lat="42.373872" lon="2.490287">
        <ele>1068.036</ele>
        <time>2021-05-27T23:59:57Z</time>
      </trkpt>
      <trkpt lat="42.373924" lon="2.490308">
        <ele>1068.733</ele>
        <time>2021-05-28T00:00:02Z</time>
      </trkpt>
      <trkpt lat="42.373967" lon="2.490337">
        <ele>1068.858</ele>
        <time>2021-05-28T00:00:06Z</time>
      </trkpt>
      <trkpt lat="42.373987" lon="2.490354">
        <ele>1068.721</ele>
        <time>2021-05-28T00:00:08Z</time>
      </trkpt>
      <trkpt lat="42.374004" lon="2.490373">
        <ele>1068.557</ele>
        <time>2021-05-28T00:00:10Z</time>
      </trkpt>
      <trkpt lat="42.374028" lon="2.490389">
        <ele>1068.665</ele>
        <time>2021-05-28T00:00:12Z</time>
      </trkpt>
      <trkpt lat="42.374051" lon="2.490403">
        <ele>1068.868</ele>
        <time>2021-05-28T00:00:14Z</time>
      </trkpt>
      <trkpt lat="42.374073" lon="2.490415">
        <ele>1069.014</ele>
        <time>2021-05-28T00:00:16Z</time>
      </trkpt>
      <trkpt lat="42.374095" lon="2.490429">
        <ele>1069.208</ele>
        <time>2021-05-28T00:00:18Z</time>
      </trkpt>
      <trkpt lat="42.374111" lon="2.490450">
        <ele>1068.923</ele>
        <time>2021-05-28T00:00:20Z</time>
      </trkpt>
      <trkpt lat="42.374128" lon="2.490468">
        <ele>1068.870</ele>
        <time>2021-05-28T00:00:22Z</time>
      </trkpt>
      <trkpt lat="42.374148" lon="2.490485">
        <ele>1068.958</ele>
        <time>2021-05-28T00:00:24Z</time>
      </trkpt>
      <trkpt lat="42.374170" lon="2.490501">
        <ele>1069.088</ele>
        <time>2021-05-28T00:00:26Z</time>
      </trkpt>
      <trkpt lat="42.374191" lon="2.490512">
        <ele>1069.245</ele>
        <time>2021-05-28T00:00:28Z</time>
      </trkpt>
      <trkpt lat="42.374212" lon="2.490516">
        <ele>1069.630</ele>
        <time>2021-05-28T00:00:30Z</time>
      </trkpt>
      <trkpt lat="42.374238" lon="2.490518">
        <ele>1070.263</ele>
        <time>2021-05-28T00:00:32Z</time>
      </trkpt>
      <trkpt lat="42.374259" lon="2.490534">
        <ele>1070.139</ele>
        <time>2021-05-28T00:00:34Z</time>
      </trkpt>
      <trkpt lat="42.374276" lon="2.490550">
        <ele>1070.068</ele>
        <time>2021-05-28T00:00:36Z</time>
      </trkpt>
      <trkpt lat="42.374291" lon="2.490533">
        <ele>1071.042</ele>
        <time>2021-05-28T00:00:39Z</time>
      </trkpt>
      <trkpt lat="42.374310" lon="2.490521">
        <ele>1071.926</ele>
        <time>2021-05-28T00:00:42Z</time>
      </trkpt>
      <trkpt lat="42.374331" lon="2.490528">
        <ele>1072.208</ele>
        <time>2021-05-28T00:00:45Z</time>
      </trkpt>
      <trkpt lat="42.374349" lon="2.490539">
        <ele>1072.233</ele>
        <time>2021-05-28T00:00:48Z</time>
      </trkpt>
      <trkpt lat="42.374366" lon="2.490550">
        <ele>1072.240</ele>
        <time>2021-05-28T00:00:50Z</time>
      </trkpt>
      <trkpt lat="42.374389" lon="2.490564">
        <ele>1072.328</ele>
        <time>2021-05-28T00:00:53Z</time>
      </trkpt>
      <trkpt lat="42.374415" lon="2.490563">
        <ele>1073.098</ele>
        <time>2021-05-28T00:00:56Z</time>
      </trkpt>
      <trkpt lat="42.374438" lon="2.490556">
        <ele>1073.815</ele>
        <time>2021-05-28T00:00:59Z</time>
      </trkpt>
      <trkpt lat="42.374457" lon="2.490551">
        <ele>1074.610</ele>
        <time>2021-05-28T00:01:02Z</time>
      </trkpt>
      <trkpt lat="42.374476" lon="2.490550">
        <ele>1075.243</ele>
        <time>2021-05-28T00:01:07Z</time>
      </trkpt>
      <trkpt lat="42.374500" lon="2.490551">
        <ele>1076.089</ele>
        <time>2021-05-28T00:01:10Z</time>
      </trkpt>
      <trkpt lat="42.374518" lon="2.490546">
        <ele>1076.882</ele>
        <time>2021-05-28T00:01:14Z</time>
      </trkpt>
      <trkpt lat="42.374529" lon="2.490526">
        <ele>1077.943</ele>
        <time>2021-05-28T00:01:16Z</time>
      </trkpt>
      <trkpt lat="42.374551" lon="2.490516">
        <ele>1079.017</ele>
        <time>2021-05-28T00:01:20Z</time>
      </trkpt>
      <trkpt lat="42.374575" lon="2.490515">
        <ele>1079.808</ele>
        <time>2021-05-28T00:01:24Z</time>
      </trkpt>
      <trkpt lat="42.374590" lon="2.490497">
        <ele>1080.965</ele>
        <time>2021-05-28T00:01:28Z</time>
      </trkpt>
      <trkpt lat="42.374605" lon="2.490483">
        <ele>1081.922</ele>
        <time>2021-05-28T00:01:33Z</time>
      </trkpt>
      <trkpt lat="42.374619" lon="2.490468">
        <ele>1082.980</ele>
        <time>2021-05-28T00:01:36Z</time>
      </trkpt>
      <trkpt lat="42.374636" lon="2.490474">
        <ele>1083.230</ele>
        <time>2021-05-28T00:01:41Z</time>
      </trkpt>
      <trkpt lat="42.374655" lon="2.490476">
        <ele>1083.887</ele>
        <time>2021-05-28T00:01:43Z</time>
      </trkpt>
      <trkpt lat="42.374676" lon="2.490481">
        <ele>1084.242</ele>
        <time>2021-05-28T00:01:46Z</time>
      </trkpt>
      <trkpt lat="42.374693" lon="2.490472">
        <ele>1085.175</ele>
        <time>2021-05-28T00:01:49Z</time>
      </trkpt>
      <trkpt lat="42.374693" lon="2.490442">
        <ele>1086.291</ele>
        <time>2021-05-28T00:01:52Z</time>
      </trkpt>
      <trkpt lat="42.374695" lon="2.490416">
        <ele>1087.291</ele>
        <time>2021-05-28T00:01:55Z</time>
      </trkpt>
      <trkpt lat="42.374709" lon="2.490394">
        <ele>1088.481</ele>
        <time>2021-05-28T00:01:58Z</time>
      </trkpt>
      <trkpt lat="42.374727" lon="2.490383">
        <ele>1089.319</ele>
        <time>2021-05-28T00:02:01Z</time>
      </trkpt>
      <trkpt lat="42.374748" lon="2.490377">
        <ele>1089.708</ele>
        <time>2021-05-28T00:02:04Z</time>
      </trkpt>
      <trkpt lat="42.374768" lon="2.490377">
        <ele>1089.986</ele>
        <time>2021-05-28T00:02:06Z</time>
      </trkpt>
      <trkpt lat="42.374789" lon="2.490376">
        <ele>1090.143</ele>
        <time>2021-05-28T00:02:09Z</time>
      </trkpt>
      <trkpt lat="42.374807" lon="2.490380">
        <ele>1090.131</ele>
        <time>2021-05-28T00:02:11Z</time>
      </trkpt>
      <trkpt lat="42.374829" lon="2.490372">
        <ele>1090.631</ele>
        <time>2021-05-28T00:02:14Z</time>
      </trkpt>
      <trkpt lat="42.374853" lon="2.490369">
        <ele>1091.058</ele>
        <time>2021-05-28T00:02:17Z</time>
      </trkpt>
      <trkpt lat="42.374874" lon="2.490372">
        <ele>1091.173</ele>
        <time>2021-05-28T00:02:20Z</time>
      </trkpt>
      <trkpt lat="42.374896" lon="2.490367">
        <ele>1091.546</ele>
        <time>2021-05-28T00:02:23Z</time>
      </trkpt>
      <trkpt lat="42.374918" lon="2.490354">
        <ele>1092.212</ele>
        <time>2021-05-28T00:02:26Z</time>
      </trkpt>
      <trkpt lat="42.374936" lon="2.490347">
        <ele>1092.631</ele>
        <time>2021-05-28T00:02:28Z</time>
      </trkpt>
      <trkpt lat="42.374956" lon="2.490338">
        <ele>1093.261</ele>
        <time>2021-05-28T00:02:31Z</time>
      </trkpt>
      <trkpt lat="42.374978" lon="2.490323">
        <ele>1094.007</ele>
        <time>2021-05-28T00:02:35Z</time>
      </trkpt>
      <trkpt lat="42.374998" lon="2.490320">
        <ele>1094.308</ele>
        <time>2021-05-28T00:02:38Z</time>
      </trkpt>
      <trkpt lat="42.375017" lon="2.490312">
        <ele>1094.590</ele>
        <time>2021-05-28T00:02:41Z</time>
      </trkpt>
      <trkpt lat="42.375024" lon="2.490287">
        <ele>1095.447</ele>
        <time>2021-05-28T00:02:45Z</time>
      </trkpt>
      <trkpt lat="42.375040" lon="2.490276">
        <ele>1095.675</ele>
        <time>2021-05-28T00:02:47Z</time>
      </trkpt>
      <trkpt lat="42.375057" lon="2.490268">
        <ele>1095.835</ele>
        <time>2021-05-28T00:02:49Z</time>
      </trkpt>
      <trkpt lat="42.375071" lon="2.490251">
        <ele>1096.322</ele>
        <time>2021-05-28T00:02:52Z</time>
      </trkpt>
      <trkpt lat="42.375089" lon="2.490242">
        <ele>1096.587</ele>
        <time>2021-05-28T00:02:54Z</time>
      </trkpt>
      <trkpt lat="42.375109" lon="2.490238">
        <ele>1096.520</ele>
        <time>2021-05-28T00:02:57Z</time>
      </trkpt>
      <trkpt lat="42.375134" lon="2.490219">
        <ele>1097.156</ele>
        <time>2021-05-28T00:03:00Z</time>
      </trkpt>
      <trkpt lat="42.375147" lon="2.490198">
        <ele>1097.979</ele>
        <time>2021-05-28T00:03:03Z</time>
      </trkpt>
      <trkpt lat="42.375165" lon="2.490184">
        <ele>1098.305</ele>
        <time>2021-05-28T00:03:06Z</time>
      </trkpt>
      <trkpt lat="42.375187" lon="2.490175">
        <ele>1098.525</ele>
        <time>2021-05-28T00:03:08Z</time>
      </trkpt>
      <trkpt lat="42.375211" lon="2.490164">
        <ele>1098.808</ele>
        <time>2021-05-28T00:03:11Z</time>
      </trkpt>
      <trkpt lat="42.375229" lon="2.490154">
        <ele>1099.244</ele>
        <time>2021-05-28T00:03:13Z</time>
      </trkpt>
      <trkpt lat="42.375249" lon="2.490148">
        <ele>1099.381</ele>
        <time>2021-05-28T00:03:16Z</time>
      </trkpt>
      <trkpt lat="42.375270" lon="2.490138">
        <ele>1099.679</ele>
        <time>2021-05-28T00:03:17Z</time>
      </trkpt>
      <trkpt lat="42.375292" lon="2.490125">
        <ele>1100.159</ele>
        <time>2021-05-28T00:03:19Z</time>
      </trkpt>
      <trkpt lat="42.375313" lon="2.490112">
        <ele>1100.776</ele>
        <time>2021-05-28T00:03:21Z</time>
      </trkpt>
      <trkpt lat="42.375333" lon="2.490097">
        <ele>1101.381</ele>
        <time>2021-05-28T00:03:23Z</time>
      </trkpt>
      <trkpt lat="42.375349" lon="2.490085">
        <ele>1101.814</ele>
        <time>2021-05-28T00:03:25Z</time>
      </trkpt>
      <trkpt lat="42.375369" lon="2.490072">
        <ele>1102.420</ele>
        <time>2021-05-28T00:03:27Z</time>
      </trkpt>
      <trkpt lat="42.375390" lon="2.490059">
        <ele>1102.994</ele>
        <time>2021-05-28T00:03:29Z</time>
      </trkpt>
      <trkpt lat="42.375409" lon="2.490048">
        <ele>1103.457</ele>
        <time>2021-05-28T00:03:31Z</time>
      </trkpt>
      <trkpt lat="42.375428" lon="2.490046">
        <ele>1103.422</ele>
        <time>2021-05-28T00:03:33Z</time>
      </trkpt>
      <trkpt lat="42.375446" lon="2.490043">
        <ele>1103.508</ele>
        <time>2021-05-28T00:03:35Z</time>
      </trkpt>
      <trkpt lat="42.375468" lon="2.490033">
        <ele>1103.976</ele>
        <time>2021-05-28T00:03:37Z</time>
      </trkpt>
      <trkpt lat="42.375490" lon="2.490011">
        <ele>1104.863</ele>
        <time>2021-05-28T00:03:39Z</time>
      </trkpt>
      <trkpt lat="42.375505" lon="2.489995">
        <ele>1105.461</ele>
        <time>2021-05-28T00:03:41Z</time>
      </trkpt>
      <trkpt lat="42.375527" lon="2.489983">
        <ele>1105.721</ele>
        <time>2021-05-28T00:03:43Z</time>
      </trkpt>
      <trkpt lat="42.375619" lon="2.489963">
        <ele>1107.048</ele>
        <time>2021-05-28T00:03:51Z</time>
      </trkpt>
      <trkpt lat="42.375640" lon="2.489964">
        <ele>1107.243</ele>
        <time>2021-05-28T00:03:55Z</time>
      </trkpt>
      <trkpt lat="42.375669" lon="2.489968">
        <ele>1107.426</ele>
        <time>2021-05-28T00:03:57Z</time>
      </trkpt>
      <trkpt lat="42.375696" lon="2.489973">
        <ele>1107.582</ele>
        <time>2021-05-28T00:03:59Z</time>
      </trkpt>
      <trkpt lat="42.375723" lon="2.489983">
        <ele>1107.592</ele>
        <time>2021-05-28T00:04:01Z</time>
      </trkpt>
      <trkpt lat="42.375750" lon="2.489990">
        <ele>1107.573</ele>
        <time>2021-05-28T00:04:03Z</time>
      </trkpt>
      <trkpt lat="42.375777" lon="2.489988">
        <ele>1107.920</ele>
        <time>2021-05-28T00:04:06Z</time>
      </trkpt>
      <trkpt lat="42.375800" lon="2.489994">
        <ele>1107.908</ele>
        <time>2021-05-28T00:04:08Z</time>
      </trkpt>
      <trkpt lat="42.375822" lon="2.490005">
        <ele>1107.756</ele>
        <time>2021-05-28T00:04:10Z</time>
      </trkpt>
      <trkpt lat="42.375842" lon="2.490012">
        <ele>1107.733</ele>
        <time>2021-05-28T00:04:12Z</time>
      </trkpt>
      <trkpt lat="42.375867" lon="2.490028">
        <ele>1107.651</ele>
        <time>2021-05-28T00:04:15Z</time>
      </trkpt>
      <trkpt lat="42.375884" lon="2.490037">
        <ele>1107.651</ele>
        <time>2021-05-28T00:04:17Z</time>
      </trkpt>
      <trkpt lat="42.375911" lon="2.490056">
        <ele>1107.418</ele>
        <time>2021-05-28T00:04:20Z</time>
      </trkpt>
      <trkpt lat="42.375935" lon="2.490054">
        <ele>1107.953</ele>
        <time>2021-05-28T00:04:22Z</time>
      </trkpt>
      <trkpt lat="42.375961" lon="2.490046">
        <ele>1108.686</ele>
        <time>2021-05-28T00:04:24Z</time>
      </trkpt>
      <trkpt lat="42.375983" lon="2.490055">
        <ele>1108.732</ele>
        <time>2021-05-28T00:04:26Z</time>
      </trkpt>
      <trkpt lat="42.376003" lon="2.490065">
        <ele>1108.773</ele>
        <time>2021-05-28T00:04:28Z</time>
      </trkpt>
      <trkpt lat="42.376030" lon="2.490068">
        <ele>1109.185</ele>
        <time>2021-05-28T00:04:30Z</time>
      </trkpt>
      <trkpt lat="42.376051" lon="2.490080">
        <ele>1109.013</ele>
        <time>2021-05-28T00:04:32Z</time>
      </trkpt>
      <trkpt lat="42.376070" lon="2.490094">
        <ele>1108.908</ele>
        <time>2021-05-28T00:04:34Z</time>
      </trkpt>
      <trkpt lat="42.376090" lon="2.490101">
        <ele>1109.034</ele>
        <time>2021-05-28T00:04:36Z</time>
      </trkpt>
      <trkpt lat="42.376109" lon="2.490108">
        <ele>1109.111</ele>
        <time>2021-05-28T00:04:38Z</time>
      </trkpt>
      <trkpt lat="42.376126" lon="2.490118">
        <ele>1109.189</ele>
        <time>2021-05-28T00:04:40Z</time>
      </trkpt>
      <trkpt lat="42.376151" lon="2.490130">
        <ele>1109.159</ele>
        <time>2021-05-28T00:04:43Z</time>
      </trkpt>
      <trkpt lat="42.376172" lon="2.490139">
        <ele>1109.256</ele>
        <time>2021-05-28T00:04:45Z</time>
      </trkpt>
      <trkpt lat="42.376192" lon="2.490148">
        <ele>1109.241</ele>
        <time>2021-05-28T00:04:47Z</time>
      </trkpt>
      <trkpt lat="42.376209" lon="2.490161">
        <ele>1109.114</ele>
        <time>2021-05-28T00:04:49Z</time>
      </trkpt>
      <trkpt lat="42.376230" lon="2.490167">
        <ele>1109.270</ele>
        <time>2021-05-28T00:04:51Z</time>
      </trkpt>
      <trkpt lat="42.376251" lon="2.490175">
        <ele>1109.371</ele>
        <time>2021-05-28T00:04:53Z</time>
      </trkpt>
      <trkpt lat="42.376271" lon="2.490183">
        <ele>1109.341</ele>
        <time>2021-05-28T00:04:55Z</time>
      </trkpt>
      <trkpt lat="42.376293" lon="2.490190">
        <ele>1109.415</ele>
        <time>2021-05-28T00:04:57Z</time>
      </trkpt>
      <trkpt lat="42.376316" lon="2.490193">
        <ele>1109.708</ele>
        <time>2021-05-28T00:04:59Z</time>
      </trkpt>
      <trkpt lat="42.376337" lon="2.490196">
        <ele>1109.914</ele>
        <time>2021-05-28T00:05:01Z</time>
      </trkpt>
      <trkpt lat="42.376357" lon="2.490198">
        <ele>1110.231</ele>
        <time>2021-05-28T00:05:03Z</time>
      </trkpt>
      <trkpt lat="42.376379" lon="2.490203">
        <ele>1110.329</ele>
        <time>2021-05-28T00:05:05Z</time>
      </trkpt>
      <trkpt lat="42.376400" lon="2.490204">
        <ele>1110.749</ele>
        <time>2021-05-28T00:05:07Z</time>
      </trkpt>
      <trkpt lat="42.376418" lon="2.490211">
        <ele>1110.996</ele>
        <time>2021-05-28T00:05:09Z</time>
      </trkpt>
      <trkpt lat="42.376437" lon="2.490215">
        <ele>1111.281</ele>
        <time>2021-05-28T00:05:11Z</time>
      </trkpt>
      <trkpt lat="42.376459" lon="2.490214">
        <ele>1111.834</ele>
        <time>2021-05-28T00:05:13Z</time>
      </trkpt>
      <trkpt lat="42.376481" lon="2.490213">
        <ele>1112.430</ele>
        <time>2021-05-28T00:05:15Z</time>
      </trkpt>
      <trkpt lat="42.376504" lon="2.490216">
        <ele>1112.845</ele>
        <time>2021-05-28T00:05:17Z</time>
      </trkpt>
      <trkpt lat="42.376525" lon="2.490219">
        <ele>1113.247</ele>
        <time>2021-05-28T00:05:19Z</time>
      </trkpt>
      <trkpt lat="42.376545" lon="2.490228">
        <ele>1113.311</ele>
        <time>2021-05-28T00:05:21Z</time>
      </trkpt>
      <trkpt lat="42.376566" lon="2.490231">
        <ele>1113.708</ele>
        <time>2021-05-28T00:05:23Z</time>
      </trkpt>
      <trkpt lat="42.376585" lon="2.490235">
        <ele>1113.991</ele>
        <time>2021-05-28T00:05:25Z</time>
      </trkpt>
      <trkpt lat="42.376602" lon="2.490244">
        <ele>1114.048</ele>
        <time>2021-05-28T00:05:27Z</time>
      </trkpt>
      <trkpt lat="42.376622" lon="2.490259">
        <ele>1113.816</ele>
        <time>2021-05-28T00:05:29Z</time>
      </trkpt>
      <trkpt lat="42.376642" lon="2.490269">
        <ele>1113.856</ele>
        <time>2021-05-28T00:05:31Z</time>
      </trkpt>
      <trkpt lat="42.376662" lon="2.490274">
        <ele>1114.173</ele>
        <time>2021-05-28T00:05:33Z</time>
      </trkpt>
      <trkpt lat="42.376683" lon="2.490277">
        <ele>1114.488</ele>
        <time>2021-05-28T00:05:35Z</time>
      </trkpt>
      <trkpt lat="42.376704" lon="2.490286">
        <ele>1114.391</ele>
        <time>2021-05-28T00:05:37Z</time>
      </trkpt>
      <trkpt lat="42.376724" lon="2.490297">
        <ele>1114.257</ele>
        <time>2021-05-28T00:05:39Z</time>
      </trkpt>
      <trkpt lat="42.376745" lon="2.490300">
        <ele>1114.536</ele>
        <time>2021-05-28T00:05:41Z</time>
      </trkpt>
      <trkpt lat="42.376773" lon="2.490298">
        <ele>1115.217</ele>
        <time>2021-05-28T00:05:44Z</time>
      </trkpt>
      <trkpt lat="42.376795" lon="2.490302">
        <ele>1115.518</ele>
        <time>2021-05-28T00:05:46Z</time>
      </trkpt>
      <trkpt lat="42.376815" lon="2.490305">
        <ele>1115.808</ele>
        <time>2021-05-28T00:05:48Z</time>
      </trkpt>
      <trkpt lat="42.376835" lon="2.490306">
        <ele>1116.340</ele>
        <time>2021-05-28T00:05:50Z</time>
      </trkpt>
      <trkpt lat="42.376854" lon="2.490319">
        <ele>1116.147</ele>
        <time>2021-05-28T00:05:52Z</time>
      </trkpt>
      <trkpt lat="42.376877" lon="2.490327">
        <ele>1116.245</ele>
        <time>2021-05-28T00:05:54Z</time>
      </trkpt>
      <trkpt lat="42.376898" lon="2.490326">
        <ele>1116.845</ele>
        <time>2021-05-28T00:05:56Z</time>
      </trkpt>
      <trkpt lat="42.376920" lon="2.490330">
        <ele>1117.212</ele>
        <time>2021-05-28T00:05:58Z</time>
      </trkpt>
      <trkpt lat="42.376939" lon="2.490339">
        <ele>1117.247</ele>
        <time>2021-05-28T00:06:00Z</time>
      </trkpt>
      <trkpt lat="42.376959" lon="2.490350">
        <ele>1117.290</ele>
        <time>2021-05-28T00:06:02Z</time>
      </trkpt>
      <trkpt lat="42.376975" lon="2.490362">
        <ele>1117.136</ele>
        <time>2021-05-28T00:06:04Z</time>
      </trkpt>
      <trkpt lat="42.376992" lon="2.490370">
        <ele>1117.149</ele>
        <time>2021-05-28T00:06:06Z</time>
      </trkpt>
      <trkpt lat="42.377017" lon="2.490385">
        <ele>1117.002</ele>
        <time>2021-05-28T00:06:09Z</time>
      </trkpt>
      <trkpt lat="42.377035" lon="2.490398">
        <ele>1116.922</ele>
        <time>2021-05-28T00:06:11Z</time>
      </trkpt>
      <trkpt lat="42.377058" lon="2.490413">
        <ele>1116.808</ele>
        <time>2021-05-28T00:06:14Z</time>
      </trkpt>
      <trkpt lat="42.377075" lon="2.490425">
        <ele>1116.741</ele>
        <time>2021-05-28T00:06:16Z</time>
      </trkpt>
      <trkpt lat="42.377093" lon="2.490436">
        <ele>1116.788</ele>
        <time>2021-05-28T00:06:18Z</time>
      </trkpt>
      <trkpt lat="42.377120" lon="2.490445">
        <ele>1116.966</ele>
        <time>2021-05-28T00:06:21Z</time>
      </trkpt>
      <trkpt lat="42.377141" lon="2.490446">
        <ele>1117.486</ele>
        <time>2021-05-28T00:06:23Z</time>
      </trkpt>
      <trkpt lat="42.377162" lon="2.490454">
        <ele>1117.643</ele>
        <time>2021-05-28T00:06:25Z</time>
      </trkpt>
      <trkpt lat="42.377182" lon="2.490466">
        <ele>1117.658</ele>
        <time>2021-05-28T00:06:27Z</time>
      </trkpt>
      <trkpt lat="42.377204" lon="2.490479">
        <ele>1117.621</ele>
        <time>2021-05-28T00:06:29Z</time>
      </trkpt>
      <trkpt lat="42.377230" lon="2.490483">
        <ele>1118.087</ele>
        <time>2021-05-28T00:06:31Z</time>
      </trkpt>
      <trkpt lat="42.377252" lon="2.490482">
        <ele>1118.254</ele>
        <time>2021-05-28T00:06:33Z</time>
      </trkpt>
      <trkpt lat="42.377275" lon="2.490480">
        <ele>1118.656</ele>
        <time>2021-05-28T00:06:35Z</time>
      </trkpt>
      <trkpt lat="42.377297" lon="2.490480">
        <ele>1118.811</ele>
        <time>2021-05-28T00:06:37Z</time>
      </trkpt>
      <trkpt lat="42.377316" lon="2.490482">
        <ele>1118.908</ele>
        <time>2021-05-28T00:06:39Z</time>
      </trkpt>
      <trkpt lat="42.377334" lon="2.490482">
        <ele>1119.122</ele>
        <time>2021-05-28T00:06:41Z</time>
      </trkpt>
      <trkpt lat="42.377354" lon="2.490481">
        <ele>1119.419</ele>
        <time>2021-05-28T00:06:43Z</time>
      </trkpt>
      <trkpt lat="42.377374" lon="2.490480">
        <ele>1119.687</ele>
        <time>2021-05-28T00:06:45Z</time>
      </trkpt>
      <trkpt lat="42.377399" lon="2.490480">
        <ele>1119.997</ele>
        <time>2021-05-28T00:06:47Z</time>
      </trkpt>
      <trkpt lat="42.377424" lon="2.490480">
        <ele>1120.224</ele>
        <time>2021-05-28T00:06:49Z</time>
      </trkpt>
      <trkpt lat="42.377449" lon="2.490480">
        <ele>1120.419</ele>
        <time>2021-05-28T00:06:51Z</time>
      </trkpt>
      <trkpt lat="42.377471" lon="2.490475">
        <ele>1120.952</ele>
        <time>2021-05-28T00:06:53Z</time>
      </trkpt>
      <trkpt lat="42.377501" lon="2.490475">
        <ele>1121.258</ele>
        <time>2021-05-28T00:06:56Z</time>
      </trkpt>
      <trkpt lat="42.377523" lon="2.490477">
        <ele>1120.814</ele>
        <time>2021-05-28T00:06:58Z</time>
      </trkpt>
      <trkpt lat="42.377543" lon="2.490484">
        <ele>1120.354</ele>
        <time>2021-05-28T00:07:00Z</time>
      </trkpt>
      <trkpt lat="42.377571" lon="2.490484">
        <ele>1120.009</ele>
        <time>2021-05-28T00:07:05Z</time>
      </trkpt>
      <trkpt lat="42.377593" lon="2.490474">
        <ele>1120.208</ele>
        <time>2021-05-28T00:07:07Z</time>
      </trkpt>
      <trkpt lat="42.377614" lon="2.490469">
        <ele>1120.238</ele>
        <time>2021-05-28T00:07:09Z</time>
      </trkpt>
      <trkpt lat="42.377633" lon="2.490469">
        <ele>1120.095</ele>
        <time>2021-05-28T00:07:11Z</time>
      </trkpt>
      <trkpt lat="42.377656" lon="2.490456">
        <ele>1120.333</ele>
        <time>2021-05-28T00:07:13Z</time>
      </trkpt>
      <trkpt lat="42.377677" lon="2.490450">
        <ele>1120.423</ele>
        <time>2021-05-28T00:07:15Z</time>
      </trkpt>
      <trkpt lat="42.377700" lon="2.490426">
        <ele>1121.350</ele>
        <time>2021-05-28T00:07:20Z</time>
      </trkpt>
      <trkpt lat="42.377722" lon="2.490406">
        <ele>1122.085</ele>
        <time>2021-05-28T00:07:22Z</time>
      </trkpt>
      <trkpt lat="42.377741" lon="2.490387">
        <ele>1122.838</ele>
        <time>2021-05-28T00:07:24Z</time>
      </trkpt>
      <trkpt lat="42.377762" lon="2.490379">
        <ele>1123.074</ele>
        <time>2021-05-28T00:07:26Z</time>
      </trkpt>
      <trkpt lat="42.377779" lon="2.490367">
        <ele>1123.531</ele>
        <time>2021-05-28T00:07:28Z</time>
      </trkpt>
      <trkpt lat="42.377798" lon="2.490368">
        <ele>1123.561</ele>
        <time>2021-05-28T00:07:30Z</time>
      </trkpt>
      <trkpt lat="42.377820" lon="2.490373">
        <ele>1123.307</ele>
        <time>2021-05-28T00:07:32Z</time>
      </trkpt>
      <trkpt lat="42.377853" lon="2.490375">
        <ele>1123.208</ele>
        <time>2021-05-28T00:07:35Z</time>
      </trkpt>
      <trkpt lat="42.377880" lon="2.490377">
        <ele>1123.240</ele>
        <time>2021-05-28T00:07:37Z</time>
      </trkpt>
      <trkpt lat="42.377943" lon="2.490369">
        <ele>1123.677</ele>
        <time>2021-05-28T00:07:42Z</time>
      </trkpt>
      <trkpt lat="42.377963" lon="2.490377">
        <ele>1123.355</ele>
        <time>2021-05-28T00:07:44Z</time>
      </trkpt>
      <trkpt lat="42.377983" lon="2.490381">
        <ele>1123.245</ele>
        <time>2021-05-28T00:07:46Z</time>
      </trkpt>
      <trkpt lat="42.378001" lon="2.490386">
        <ele>1123.032</ele>
        <time>2021-05-28T00:07:48Z</time>
      </trkpt>
      <trkpt lat="42.378027" lon="2.490385">
        <ele>1123.127</ele>
        <time>2021-05-28T00:07:50Z</time>
      </trkpt>
      <trkpt lat="42.378053" lon="2.490383">
        <ele>1123.210</ele>
        <time>2021-05-28T00:07:52Z</time>
      </trkpt>
      <trkpt lat="42.378076" lon="2.490383">
        <ele>1124.166</ele>
        <time>2021-05-28T00:07:54Z</time>
      </trkpt>
      <trkpt lat="42.378095" lon="2.490375">
        <ele>1125.182</ele>
        <time>2021-05-28T00:07:56Z</time>
      </trkpt>
      <trkpt lat="42.378117" lon="2.490358">
        <ele>1126.543</ele>
        <time>2021-05-28T00:07:59Z</time>
      </trkpt>
      <trkpt lat="42.378141" lon="2.490345">
        <ele>1127.717</ele>
        <time>2021-05-28T00:08:02Z</time>
      </trkpt>
      <trkpt lat="42.378184" lon="2.490311">
        <ele>1130.008</ele>
        <time>2021-05-28T00:08:07Z</time>
      </trkpt>
      <trkpt lat="42.378224" lon="2.490295">
        <ele>1131.645</ele>
        <time>2021-05-28T00:08:11Z</time>
      </trkpt>
      <trkpt lat="42.378319" lon="2.490264">
        <ele>1135.162</ele>
        <time>2021-05-28T00:08:21Z</time>
      </trkpt>
      <trkpt lat="42.378406" lon="2.490217">
        <ele>1140.750</ele>
        <time>2021-05-28T00:08:30Z</time>
      </trkpt>
      <trkpt lat="42.378498" lon="2.490252">
        <ele>1144.890</ele>
        <time>2021-05-28T00:08:39Z</time>
      </trkpt>
      <trkpt lat="42.378524" lon="2.490271">
        <ele>1146.057</ele>
        <time>2021-05-28T00:08:44Z</time>
      </trkpt>
      <trkpt lat="42.378538" lon="2.490292">
        <ele>1147.092</ele>
        <time>2021-05-28T00:08:49Z</time>
      </trkpt>
      <trkpt lat="42.378555" lon="2.490245">
        <ele>1147.975</ele>
        <time>2021-05-28T00:09:05Z</time>
      </trkpt>
      <trkpt lat="42.378508" lon="2.490243">
        <ele>1145.481</ele>
        <time>2021-05-28T00:09:09Z</time>
      </trkpt>
      <trkpt lat="42.378460" lon="2.490332">
        <ele>1142.673</ele>
        <time>2021-05-28T00:09:19Z</time>
      </trkpt>
      <trkpt lat="42.378452" lon="2.490358">
        <ele>1142.385</ele>
        <time>2021-05-28T00:09:21Z</time>
      </trkpt>
      <trkpt lat="42.378438" lon="2.490384">
        <ele>1141.513</ele>
        <time>2021-05-28T00:09:24Z</time>
      </trkpt>
      <trkpt lat="42.378424" lon="2.490413">
        <ele>1140.708</ele>
        <time>2021-05-28T00:09:26Z</time>
      </trkpt>
      <trkpt lat="42.378418" lon="2.490444">
        <ele>1140.464</ele>
        <time>2021-05-28T00:09:28Z</time>
      </trkpt>
      <trkpt lat="42.378401" lon="2.490467">
        <ele>1139.251</ele>
        <time>2021-05-28T00:09:31Z</time>
      </trkpt>
      <trkpt lat="42.378389" lon="2.490497">
        <ele>1138.459</ele>
        <time>2021-05-28T00:09:34Z</time>
      </trkpt>
      <trkpt lat="42.378386" lon="2.490530">
        <ele>1138.289</ele>
        <time>2021-05-28T00:09:37Z</time>
      </trkpt>
      <trkpt lat="42.378391" lon="2.490557">
        <ele>1138.656</ele>
        <time>2021-05-28T00:09:39Z</time>
      </trkpt>
      <trkpt lat="42.378393" lon="2.490591">
        <ele>1138.961</ele>
        <time>2021-05-28T00:09:41Z</time>
      </trkpt>
      <trkpt lat="42.378395" lon="2.490624">
        <ele>1139.274</ele>
        <time>2021-05-28T00:09:43Z</time>
      </trkpt>
      <trkpt lat="42.378396" lon="2.490657">
        <ele>1139.410</ele>
        <time>2021-05-28T00:09:45Z</time>
      </trkpt>
      <trkpt lat="42.378398" lon="2.490692">
        <ele>1139.674</ele>
        <time>2021-05-28T00:09:48Z</time>
      </trkpt>
      <trkpt lat="42.378409" lon="2.490735">
        <ele>1140.656</ele>
        <time>2021-05-28T00:09:50Z</time>
      </trkpt>
      <trkpt lat="42.378419" lon="2.490768">
        <ele>1141.421</ele>
        <time>2021-05-28T00:09:52Z</time>
      </trkpt>
      <trkpt lat="42.378427" lon="2.490798">
        <ele>1142.008</ele>
        <time>2021-05-28T00:09:54Z</time>
      </trkpt>
      <trkpt lat="42.378434" lon="2.490827">
        <ele>1142.584</ele>
        <time>2021-05-28T00:09:56Z</time>
      </trkpt>
      <trkpt lat="42.378441" lon="2.490864">
        <ele>1142.421</ele>
        <time>2021-05-28T00:09:59Z</time>
      </trkpt>
      <trkpt lat="42.378447" lon="2.490901">
        <ele>1142.079</ele>
        <time>2021-05-28T00:10:02Z</time>
      </trkpt>
      <trkpt lat="42.378456" lon="2.490938">
        <ele>1141.919</ele>
        <time>2021-05-28T00:10:05Z</time>
      </trkpt>
      <trkpt lat="42.378470" lon="2.490970">
        <ele>1142.296</ele>
        <time>2021-05-28T00:10:08Z</time>
      </trkpt>
      <trkpt lat="42.378474" lon="2.490997">
        <ele>1141.911</ele>
        <time>2021-05-28T00:10:10Z</time>
      </trkpt>
      <trkpt lat="42.378482" lon="2.491020">
        <ele>1141.934</ele>
        <time>2021-05-28T00:10:12Z</time>
      </trkpt>
      <trkpt lat="42.378487" lon="2.491053">
        <ele>1141.670</ele>
        <time>2021-05-28T00:10:14Z</time>
      </trkpt>
      <trkpt lat="42.378499" lon="2.491084">
        <ele>1141.733</ele>
        <time>2021-05-28T00:10:16Z</time>
      </trkpt>
      <trkpt lat="42.378515" lon="2.491113">
        <ele>1142.123</ele>
        <time>2021-05-28T00:10:18Z</time>
      </trkpt>
      <trkpt lat="42.378532" lon="2.491143">
        <ele>1142.715</ele>
        <time>2021-05-28T00:10:21Z</time>
      </trkpt>
      <trkpt lat="42.378546" lon="2.491166">
        <ele>1143.208</ele>
        <time>2021-05-28T00:10:23Z</time>
      </trkpt>
      <trkpt lat="42.378557" lon="2.491186">
        <ele>1143.630</ele>
        <time>2021-05-28T00:10:25Z</time>
      </trkpt>
      <trkpt lat="42.378572" lon="2.491212">
        <ele>1144.277</ele>
        <time>2021-05-28T00:10:28Z</time>
      </trkpt>
      <trkpt lat="42.378590" lon="2.491231">
        <ele>1145.055</ele>
        <time>2021-05-28T00:10:31Z</time>
      </trkpt>
      <trkpt lat="42.378604" lon="2.491250">
        <ele>1145.645</ele>
        <time>2021-05-28T00:10:33Z</time>
      </trkpt>
      <trkpt lat="42.378650" lon="2.491322">
        <ele>1147.382</ele>
        <time>2021-05-28T00:10:37Z</time>
      </trkpt>
      <trkpt lat="42.378680" lon="2.491355">
        <ele>1148.857</ele>
        <time>2021-05-28T00:10:40Z</time>
      </trkpt>
      <trkpt lat="42.378692" lon="2.491376">
        <ele>1149.430</ele>
        <time>2021-05-28T00:10:43Z</time>
      </trkpt>
      <trkpt lat="42.378706" lon="2.491391">
        <ele>1150.286</ele>
        <time>2021-05-28T00:10:45Z</time>
      </trkpt>
      <trkpt lat="42.378709" lon="2.491418">
        <ele>1150.524</ele>
        <time>2021-05-28T00:10:48Z</time>
      </trkpt>
      <trkpt lat="42.378708" lon="2.491451">
        <ele>1150.704</ele>
        <time>2021-05-28T00:10:52Z</time>
      </trkpt>
      <trkpt lat="42.378694" lon="2.491478">
        <ele>1150.014</ele>
        <time>2021-05-28T00:10:56Z</time>
      </trkpt>
      <trkpt lat="42.378684" lon="2.491506">
        <ele>1149.708</ele>
        <time>2021-05-28T00:10:59Z</time>
      </trkpt>
      <trkpt lat="42.378669" lon="2.491530">
        <ele>1149.029</ele>
        <time>2021-05-28T00:11:02Z</time>
      </trkpt>
      <trkpt lat="42.378662" lon="2.491560">
        <ele>1148.816</ele>
        <time>2021-05-28T00:11:05Z</time>
      </trkpt>
      <trkpt lat="42.378656" lon="2.491586">
        <ele>1148.724</ele>
        <time>2021-05-28T00:11:07Z</time>
      </trkpt>
      <trkpt lat="42.378651" lon="2.491622">
        <ele>1148.734</ele>
        <time>2021-05-28T00:11:11Z</time>
      </trkpt>
      <trkpt lat="42.378650" lon="2.491649">
        <ele>1148.981</ele>
        <time>2021-05-28T00:11:12Z</time>
      </trkpt>
      <trkpt lat="42.378646" lon="2.491674">
        <ele>1149.096</ele>
        <time>2021-05-28T00:11:14Z</time>
      </trkpt>
      <trkpt lat="42.378644" lon="2.491702">
        <ele>1149.369</ele>
        <time>2021-05-28T00:11:16Z</time>
      </trkpt>
      <trkpt lat="42.378637" lon="2.491729">
        <ele>1149.345</ele>
        <time>2021-05-28T00:11:18Z</time>
      </trkpt>
      <trkpt lat="42.378630" lon="2.491754">
        <ele>1149.365</ele>
        <time>2021-05-28T00:11:20Z</time>
      </trkpt>
      <trkpt lat="42.378626" lon="2.491780">
        <ele>1149.468</ele>
        <time>2021-05-28T00:11:22Z</time>
      </trkpt>
      <trkpt lat="42.378621" lon="2.491803">
        <ele>1149.514</ele>
        <time>2021-05-28T00:11:24Z</time>
      </trkpt>
      <trkpt lat="42.378615" lon="2.491827">
        <ele>1149.508</ele>
        <time>2021-05-28T00:11:26Z</time>
      </trkpt>
      <trkpt lat="42.378611" lon="2.491851">
        <ele>1149.633</ele>
        <time>2021-05-28T00:11:28Z</time>
      </trkpt>
      <trkpt lat="42.378606" lon="2.491877">
        <ele>1149.880</ele>
        <time>2021-05-28T00:11:30Z</time>
      </trkpt>
      <trkpt lat="42.378606" lon="2.491907">
        <ele>1150.218</ele>
        <time>2021-05-28T00:11:35Z</time>
      </trkpt>
      <trkpt lat="42.378602" lon="2.491936">
        <ele>1150.458</ele>
        <time>2021-05-28T00:11:37Z</time>
      </trkpt>
      <trkpt lat="42.378596" lon="2.491961">
        <ele>1150.615</ele>
        <time>2021-05-28T00:11:39Z</time>
      </trkpt>
      <trkpt lat="42.378592" lon="2.491989">
        <ele>1151.130</ele>
        <time>2021-05-28T00:11:41Z</time>
      </trkpt>
      <trkpt lat="42.378577" lon="2.492028">
        <ele>1151.373</ele>
        <time>2021-05-28T00:11:44Z</time>
      </trkpt>
      <trkpt lat="42.378568" lon="2.492050">
        <ele>1151.449</ele>
        <time>2021-05-28T00:11:46Z</time>
      </trkpt>
      <trkpt lat="42.378556" lon="2.492078">
        <ele>1151.631</ele>
        <time>2021-05-28T00:11:48Z</time>
      </trkpt>
      <trkpt lat="42.378547" lon="2.492109">
        <ele>1152.061</ele>
        <time>2021-05-28T00:11:51Z</time>
      </trkpt>
      <trkpt lat="42.378536" lon="2.492135">
        <ele>1152.307</ele>
        <time>2021-05-28T00:11:53Z</time>
      </trkpt>
      <trkpt lat="42.378533" lon="2.492160">
        <ele>1152.808</ele>
        <time>2021-05-28T00:11:55Z</time>
      </trkpt>
      <trkpt lat="42.378524" lon="2.492184">
        <ele>1153.140</ele>
        <time>2021-05-28T00:11:58Z</time>
      </trkpt>
      <trkpt lat="42.378504" lon="2.492202">
        <ele>1153.077</ele>
        <time>2021-05-28T00:12:01Z</time>
      </trkpt>
      <trkpt lat="42.378488" lon="2.492220">
        <ele>1152.985</ele>
        <time>2021-05-28T00:12:04Z</time>
      </trkpt>
      <trkpt lat="42.378481" lon="2.492243">
        <ele>1153.655</ele>
        <time>2021-05-28T00:12:06Z</time>
      </trkpt>
      <trkpt lat="42.378467" lon="2.492269">
        <ele>1154.142</ele>
        <time>2021-05-28T00:12:09Z</time>
      </trkpt>
      <trkpt lat="42.378455" lon="2.492290">
        <ele>1154.597</ele>
        <time>2021-05-28T00:12:12Z</time>
      </trkpt>
      <trkpt lat="42.378434" lon="2.492298">
        <ele>1154.240</ele>
        <time>2021-05-28T00:12:15Z</time>
      </trkpt>
      <trkpt lat="42.378418" lon="2.492313">
        <ele>1154.426</ele>
        <time>2021-05-28T00:12:17Z</time>
      </trkpt>
      <trkpt lat="42.378403" lon="2.492330">
        <ele>1154.682</ele>
        <time>2021-05-28T00:12:19Z</time>
      </trkpt>
      <trkpt lat="42.378384" lon="2.492343">
        <ele>1154.643</ele>
        <time>2021-05-28T00:12:22Z</time>
      </trkpt>
      <trkpt lat="42.378364" lon="2.492356">
        <ele>1154.617</ele>
        <time>2021-05-28T00:12:25Z</time>
      </trkpt>
      <trkpt lat="42.378340" lon="2.492362">
        <ele>1154.208</ele>
        <time>2021-05-28T00:12:28Z</time>
      </trkpt>
      <trkpt lat="42.378318" lon="2.492375">
        <ele>1154.175</ele>
        <time>2021-05-28T00:12:31Z</time>
      </trkpt>
      <trkpt lat="42.378296" lon="2.492392">
        <ele>1154.282</ele>
        <time>2021-05-28T00:12:34Z</time>
      </trkpt>
      <trkpt lat="42.378275" lon="2.492402">
        <ele>1154.050</ele>
        <time>2021-05-28T00:12:37Z</time>
      </trkpt>
      <trkpt lat="42.378254" lon="2.492411">
        <ele>1153.880</ele>
        <time>2021-05-28T00:12:40Z</time>
      </trkpt>
      <trkpt lat="42.378230" lon="2.492422">
        <ele>1153.537</ele>
        <time>2021-05-28T00:12:43Z</time>
      </trkpt>
      <trkpt lat="42.378216" lon="2.492450">
        <ele>1154.472</ele>
        <time>2021-05-28T00:12:46Z</time>
      </trkpt>
      <trkpt lat="42.378198" lon="2.492474">
        <ele>1154.965</ele>
        <time>2021-05-28T00:12:49Z</time>
      </trkpt>
      <trkpt lat="42.378177" lon="2.492488">
        <ele>1155.091</ele>
        <time>2021-05-28T00:12:52Z</time>
      </trkpt>
      <trkpt lat="42.378157" lon="2.492497">
        <ele>1154.811</ele>
        <time>2021-05-28T00:12:54Z</time>
      </trkpt>
      <trkpt lat="42.378134" lon="2.492500">
        <ele>1154.321</ele>
        <time>2021-05-28T00:12:56Z</time>
      </trkpt>
      <trkpt lat="42.378116" lon="2.492510">
        <ele>1154.203</ele>
        <time>2021-05-28T00:12:58Z</time>
      </trkpt>
      <trkpt lat="42.378098" lon="2.492523">
        <ele>1154.208</ele>
        <time>2021-05-28T00:13:00Z</time>
      </trkpt>
      <trkpt lat="42.378079" lon="2.492547">
        <ele>1154.748</ele>
        <time>2021-05-28T00:13:03Z</time>
      </trkpt>
      <trkpt lat="42.378058" lon="2.492569">
        <ele>1155.035</ele>
        <time>2021-05-28T00:13:06Z</time>
      </trkpt>
      <trkpt lat="42.378037" lon="2.492591">
        <ele>1155.493</ele>
        <time>2021-05-28T00:13:09Z</time>
      </trkpt>
      <trkpt lat="42.378021" lon="2.492610">
        <ele>1155.873</ele>
        <time>2021-05-28T00:13:11Z</time>
      </trkpt>
      <trkpt lat="42.378009" lon="2.492635">
        <ele>1156.590</ele>
        <time>2021-05-28T00:13:16Z</time>
      </trkpt>
      <trkpt lat="42.378001" lon="2.492659">
        <ele>1157.335</ele>
        <time>2021-05-28T00:13:21Z</time>
      </trkpt>
      <trkpt lat="42.377989" lon="2.492680">
        <ele>1157.998</ele>
        <time>2021-05-28T00:13:24Z</time>
      </trkpt>
      <trkpt lat="42.377975" lon="2.492699">
        <ele>1158.324</ele>
        <time>2021-05-28T00:13:25Z</time>
      </trkpt>
      <trkpt lat="42.377961" lon="2.492726">
        <ele>1159.066</ele>
        <time>2021-05-28T00:13:27Z</time>
      </trkpt>
      <trkpt lat="42.377942" lon="2.492748">
        <ele>1159.429</ele>
        <time>2021-05-28T00:13:29Z</time>
      </trkpt>
      <trkpt lat="42.377924" lon="2.492770">
        <ele>1159.921</ele>
        <time>2021-05-28T00:13:31Z</time>
      </trkpt>
      <trkpt lat="42.377916" lon="2.492791">
        <ele>1160.308</ele>
        <time>2021-05-28T00:13:33Z</time>
      </trkpt>
      <trkpt lat="42.377908" lon="2.492815">
        <ele>1160.633</ele>
        <time>2021-05-28T00:13:35Z</time>
      </trkpt>
      <trkpt lat="42.377900" lon="2.492843">
        <ele>1161.070</ele>
        <time>2021-05-28T00:13:37Z</time>
      </trkpt>
      <trkpt lat="42.377887" lon="2.492870">
        <ele>1161.268</ele>
        <time>2021-05-28T00:13:39Z</time>
      </trkpt>
      <trkpt lat="42.377875" lon="2.492894">
        <ele>1161.388</ele>
        <time>2021-05-28T00:13:41Z</time>
      </trkpt>
      <trkpt lat="42.377860" lon="2.492924">
        <ele>1161.555</ele>
        <time>2021-05-28T00:13:43Z</time>
      </trkpt>
      <trkpt lat="42.377851" lon="2.492952">
        <ele>1161.710</ele>
        <time>2021-05-28T00:13:45Z</time>
      </trkpt>
      <trkpt lat="42.377844" lon="2.492985">
        <ele>1162.253</ele>
        <time>2021-05-28T00:13:47Z</time>
      </trkpt>
      <trkpt lat="42.377839" lon="2.493011">
        <ele>1162.599</ele>
        <time>2021-05-28T00:13:49Z</time>
      </trkpt>
      <trkpt lat="42.377836" lon="2.493039">
        <ele>1163.018</ele>
        <time>2021-05-28T00:13:51Z</time>
      </trkpt>
      <trkpt lat="42.377836" lon="2.493065">
        <ele>1163.398</ele>
        <time>2021-05-28T00:13:53Z</time>
      </trkpt>
      <trkpt lat="42.377833" lon="2.493089">
        <ele>1163.217</ele>
        <time>2021-05-28T00:13:55Z</time>
      </trkpt>
      <trkpt lat="42.377828" lon="2.493112">
        <ele>1162.908</ele>
        <time>2021-05-28T00:13:57Z</time>
      </trkpt>
      <trkpt lat="42.377828" lon="2.493137">
        <ele>1162.988</ele>
        <time>2021-05-28T00:13:59Z</time>
      </trkpt>
      <trkpt lat="42.377827" lon="2.493172">
        <ele>1162.825</ele>
        <time>2021-05-28T00:14:02Z</time>
      </trkpt>
      <trkpt lat="42.377827" lon="2.493199">
        <ele>1162.883</ele>
        <time>2021-05-28T00:14:04Z</time>
      </trkpt>
      <trkpt lat="42.377829" lon="2.493224">
        <ele>1162.923</ele>
        <time>2021-05-28T00:14:06Z</time>
      </trkpt>
      <trkpt lat="42.377831" lon="2.493259">
        <ele>1162.950</ele>
        <time>2021-05-28T00:14:09Z</time>
      </trkpt>
      <trkpt lat="42.377838" lon="2.493291">
        <ele>1163.325</ele>
        <time>2021-05-28T00:14:12Z</time>
      </trkpt>
      <trkpt lat="42.377840" lon="2.493317">
        <ele>1163.458</ele>
        <time>2021-05-28T00:14:14Z</time>
      </trkpt>
      <trkpt lat="42.377844" lon="2.493342">
        <ele>1163.554</ele>
        <time>2021-05-28T00:14:16Z</time>
      </trkpt>
      <trkpt lat="42.377847" lon="2.493370">
        <ele>1163.424</ele>
        <time>2021-05-28T00:14:18Z</time>
      </trkpt>
      <trkpt lat="42.377852" lon="2.493394">
        <ele>1163.404</ele>
        <time>2021-05-28T00:14:20Z</time>
      </trkpt>
      <trkpt lat="42.377860" lon="2.493428">
        <ele>1163.514</ele>
        <time>2021-05-28T00:14:23Z</time>
      </trkpt>
      <trkpt lat="42.377866" lon="2.493451">
        <ele>1163.608</ele>
        <time>2021-05-28T00:14:25Z</time>
      </trkpt>
      <trkpt lat="42.377878" lon="2.493480">
        <ele>1164.079</ele>
        <time>2021-05-28T00:14:28Z</time>
      </trkpt>
      <trkpt lat="42.377892" lon="2.493507">
        <ele>1164.526</ele>
        <time>2021-05-28T00:14:31Z</time>
      </trkpt>
      <trkpt lat="42.377904" lon="2.493530">
        <ele>1165.084</ele>
        <time>2021-05-28T00:14:34Z</time>
      </trkpt>
      <trkpt lat="42.377917" lon="2.493555">
        <ele>1165.544</ele>
        <time>2021-05-28T00:14:37Z</time>
      </trkpt>
      <trkpt lat="42.377924" lon="2.493582">
        <ele>1165.731</ele>
        <time>2021-05-28T00:14:39Z</time>
      </trkpt>
      <trkpt lat="42.377934" lon="2.493604">
        <ele>1166.186</ele>
        <time>2021-05-28T00:14:41Z</time>
      </trkpt>
      <trkpt lat="42.377943" lon="2.493631">
        <ele>1166.119</ele>
        <time>2021-05-28T00:14:43Z</time>
      </trkpt>
      <trkpt lat="42.377952" lon="2.493659">
        <ele>1166.195</ele>
        <time>2021-05-28T00:14:45Z</time>
      </trkpt>
      <trkpt lat="42.377964" lon="2.493687">
        <ele>1166.277</ele>
        <time>2021-05-28T00:14:47Z</time>
      </trkpt>
      <trkpt lat="42.377970" lon="2.493720">
        <ele>1165.861</ele>
        <time>2021-05-28T00:14:50Z</time>
      </trkpt>
      <trkpt lat="42.377983" lon="2.493747">
        <ele>1166.027</ele>
        <time>2021-05-28T00:14:53Z</time>
      </trkpt>
      <trkpt lat="42.377993" lon="2.493769">
        <ele>1166.108</ele>
        <time>2021-05-28T00:14:55Z</time>
      </trkpt>
      <trkpt lat="42.378006" lon="2.493795">
        <ele>1166.344</ele>
        <time>2021-05-28T00:14:57Z</time>
      </trkpt>
      <trkpt lat="42.378021" lon="2.493823">
        <ele>1166.561</ele>
        <time>2021-05-28T00:14:59Z</time>
      </trkpt>
      <trkpt lat="42.378031" lon="2.493858">
        <ele>1166.359</ele>
        <time>2021-05-28T00:15:01Z</time>
      </trkpt>
      <trkpt lat="42.378047" lon="2.493888">
        <ele>1166.659</ele>
        <time>2021-05-28T00:15:03Z</time>
      </trkpt>
      <trkpt lat="42.378062" lon="2.493914">
        <ele>1166.926</ele>
        <time>2021-05-28T00:15:05Z</time>
      </trkpt>
      <trkpt lat="42.378071" lon="2.493938">
        <ele>1167.081</ele>
        <time>2021-05-28T00:15:07Z</time>
      </trkpt>
      <trkpt lat="42.378085" lon="2.493968">
        <ele>1167.294</ele>
        <time>2021-05-28T00:15:10Z</time>
      </trkpt>
      <trkpt lat="42.378096" lon="2.493987">
        <ele>1167.420</ele>
        <time>2021-05-28T00:15:12Z</time>
      </trkpt>
      <trkpt lat="42.378112" lon="2.494012">
        <ele>1167.895</ele>
        <time>2021-05-28T00:15:15Z</time>
      </trkpt>
      <trkpt lat="42.378131" lon="2.494027">
        <ele>1168.649</ele>
        <time>2021-05-28T00:15:18Z</time>
      </trkpt>
      <trkpt lat="42.378152" lon="2.494048">
        <ele>1169.323</ele>
        <time>2021-05-28T00:15:21Z</time>
      </trkpt>
      <trkpt lat="42.378170" lon="2.494069">
        <ele>1169.908</ele>
        <time>2021-05-28T00:15:24Z</time>
      </trkpt>
      <trkpt lat="42.378188" lon="2.494087">
        <ele>1170.646</ele>
        <time>2021-05-28T00:15:27Z</time>
      </trkpt>
      <trkpt lat="42.378201" lon="2.494107">
        <ele>1170.923</ele>
        <time>2021-05-28T00:15:31Z</time>
      </trkpt>
      <trkpt lat="42.378214" lon="2.494127">
        <ele>1171.341</ele>
        <time>2021-05-28T00:15:33Z</time>
      </trkpt>
      <trkpt lat="42.378222" lon="2.494149">
        <ele>1171.351</ele>
        <time>2021-05-28T00:15:35Z</time>
      </trkpt>
      <trkpt lat="42.378238" lon="2.494181">
        <ele>1171.598</ele>
        <time>2021-05-28T00:15:38Z</time>
      </trkpt>
      <trkpt lat="42.378251" lon="2.494213">
        <ele>1171.373</ele>
        <time>2021-05-28T00:15:40Z</time>
      </trkpt>
      <trkpt lat="42.378269" lon="2.494234">
        <ele>1171.896</ele>
        <time>2021-05-28T00:15:42Z</time>
      </trkpt>
      <trkpt lat="42.378282" lon="2.494254">
        <ele>1172.012</ele>
        <time>2021-05-28T00:15:44Z</time>
      </trkpt>
      <trkpt lat="42.378301" lon="2.494281">
        <ele>1172.323</ele>
        <time>2021-05-28T00:15:47Z</time>
      </trkpt>
      <trkpt lat="42.378323" lon="2.494303">
        <ele>1173.083</ele>
        <time>2021-05-28T00:15:50Z</time>
      </trkpt>
      <trkpt lat="42.378335" lon="2.494325">
        <ele>1173.111</ele>
        <time>2021-05-28T00:15:52Z</time>
      </trkpt>
      <trkpt lat="42.378353" lon="2.494343">
        <ele>1173.508</ele>
        <time>2021-05-28T00:15:54Z</time>
      </trkpt>
      <trkpt lat="42.378370" lon="2.494359">
        <ele>1173.999</ele>
        <time>2021-05-28T00:15:56Z</time>
      </trkpt>
      <trkpt lat="42.378385" lon="2.494375">
        <ele>1174.266</ele>
        <time>2021-05-28T00:15:58Z</time>
      </trkpt>
      <trkpt lat="42.378400" lon="2.494401">
        <ele>1174.374</ele>
        <time>2021-05-28T00:16:01Z</time>
      </trkpt>
      <trkpt lat="42.378411" lon="2.494422">
        <ele>1174.274</ele>
        <time>2021-05-28T00:16:03Z</time>
      </trkpt>
      <trkpt lat="42.378423" lon="2.494444">
        <ele>1174.221</ele>
        <time>2021-05-28T00:16:05Z</time>
      </trkpt>
      <trkpt lat="42.378438" lon="2.494462">
        <ele>1174.486</ele>
        <time>2021-05-28T00:16:07Z</time>
      </trkpt>
      <trkpt lat="42.378458" lon="2.494479">
        <ele>1174.879</ele>
        <time>2021-05-28T00:16:10Z</time>
      </trkpt>
      <trkpt lat="42.378475" lon="2.494493">
        <ele>1175.115</ele>
        <time>2021-05-28T00:16:13Z</time>
      </trkpt>
      <trkpt lat="42.378492" lon="2.494513">
        <ele>1175.341</ele>
        <time>2021-05-28T00:16:18Z</time>
      </trkpt>
      <trkpt lat="42.378511" lon="2.494520">
        <ele>1176.081</ele>
        <time>2021-05-28T00:16:22Z</time>
      </trkpt>
      <trkpt lat="42.378529" lon="2.494532">
        <ele>1176.409</ele>
        <time>2021-05-28T00:16:24Z</time>
      </trkpt>
      <trkpt lat="42.378548" lon="2.494550">
        <ele>1176.708</ele>
        <time>2021-05-28T00:16:27Z</time>
      </trkpt>
      <trkpt lat="42.378567" lon="2.494576">
        <ele>1176.781</ele>
        <time>2021-05-28T00:16:30Z</time>
      </trkpt>
      <trkpt lat="42.378585" lon="2.494609">
        <ele>1176.548</ele>
        <time>2021-05-28T00:16:32Z</time>
      </trkpt>
      <trkpt lat="42.378608" lon="2.494628">
        <ele>1176.946</ele>
        <time>2021-05-28T00:16:34Z</time>
      </trkpt>
      <trkpt lat="42.378635" lon="2.494656">
        <ele>1177.296</ele>
        <time>2021-05-28T00:16:36Z</time>
      </trkpt>
      <trkpt lat="42.378660" lon="2.494679">
        <ele>1177.583</ele>
        <time>2021-05-28T00:16:38Z</time>
      </trkpt>
      <trkpt lat="42.378670" lon="2.494711">
        <ele>1176.968</ele>
        <time>2021-05-28T00:16:40Z</time>
      </trkpt>
      <trkpt lat="42.378682" lon="2.494742">
        <ele>1176.551</ele>
        <time>2021-05-28T00:16:42Z</time>
      </trkpt>
      <trkpt lat="42.378699" lon="2.494755">
        <ele>1176.947</ele>
        <time>2021-05-28T00:16:44Z</time>
      </trkpt>
      <trkpt lat="42.378721" lon="2.494774">
        <ele>1177.371</ele>
        <time>2021-05-28T00:16:47Z</time>
      </trkpt>
      <trkpt lat="42.378740" lon="2.494800">
        <ele>1177.341</ele>
        <time>2021-05-28T00:16:50Z</time>
      </trkpt>
      <trkpt lat="42.378756" lon="2.494810">
        <ele>1177.715</ele>
        <time>2021-05-28T00:16:52Z</time>
      </trkpt>
      <trkpt lat="42.378777" lon="2.494827">
        <ele>1178.108</ele>
        <time>2021-05-28T00:16:55Z</time>
      </trkpt>
      <trkpt lat="42.378793" lon="2.494840">
        <ele>1178.514</ele>
        <time>2021-05-28T00:16:58Z</time>
      </trkpt>
      <trkpt lat="42.378810" lon="2.494851">
        <ele>1178.911</ele>
        <time>2021-05-28T00:17:00Z</time>
      </trkpt>
      <trkpt lat="42.378825" lon="2.494865">
        <ele>1179.199</ele>
        <time>2021-05-28T00:17:02Z</time>
      </trkpt>
      <trkpt lat="42.378842" lon="2.494876">
        <ele>1179.519</ele>
        <time>2021-05-28T00:17:04Z</time>
      </trkpt>
      <trkpt lat="42.378852" lon="2.494901">
        <ele>1179.336</ele>
        <time>2021-05-28T00:17:06Z</time>
      </trkpt>
      <trkpt lat="42.378866" lon="2.494917">
        <ele>1179.451</ele>
        <time>2021-05-28T00:17:08Z</time>
      </trkpt>
      <trkpt lat="42.378880" lon="2.494933">
        <ele>1179.554</ele>
        <time>2021-05-28T00:17:10Z</time>
      </trkpt>
      <trkpt lat="42.378901" lon="2.494952">
        <ele>1179.940</ele>
        <time>2021-05-28T00:17:13Z</time>
      </trkpt>
      <trkpt lat="42.378919" lon="2.494979">
        <ele>1179.829</ele>
        <time>2021-05-28T00:17:16Z</time>
      </trkpt>
      <trkpt lat="42.378934" lon="2.494998">
        <ele>1179.800</ele>
        <time>2021-05-28T00:17:18Z</time>
      </trkpt>
      <trkpt lat="42.378946" lon="2.495022">
        <ele>1179.620</ele>
        <time>2021-05-28T00:17:20Z</time>
      </trkpt>
      <trkpt lat="42.378962" lon="2.495038">
        <ele>1179.808</ele>
        <time>2021-05-28T00:17:22Z</time>
      </trkpt>
      <trkpt lat="42.378981" lon="2.495048">
        <ele>1180.389</ele>
        <time>2021-05-28T00:17:24Z</time>
      </trkpt>
      <trkpt lat="42.379002" lon="2.495067">
        <ele>1180.546</ele>
        <time>2021-05-28T00:17:27Z</time>
      </trkpt>
      <trkpt lat="42.379018" lon="2.495084">
        <ele>1180.774</ele>
        <time>2021-05-28T00:17:29Z</time>
      </trkpt>
      <trkpt lat="42.379036" lon="2.495099">
        <ele>1181.024</ele>
        <time>2021-05-28T00:17:31Z</time>
      </trkpt>
      <trkpt lat="42.379052" lon="2.495119">
        <ele>1181.061</ele>
        <time>2021-05-28T00:17:33Z</time>
      </trkpt>
      <trkpt lat="42.379069" lon="2.495137">
        <ele>1181.246</ele>
        <time>2021-05-28T00:17:35Z</time>
      </trkpt>
      <trkpt lat="42.379087" lon="2.495153">
        <ele>1181.449</ele>
        <time>2021-05-28T00:17:37Z</time>
      </trkpt>
      <trkpt lat="42.379108" lon="2.495164">
        <ele>1182.085</ele>
        <time>2021-05-28T00:17:39Z</time>
      </trkpt>
      <trkpt lat="42.379128" lon="2.495178">
        <ele>1182.375</ele>
        <time>2021-05-28T00:17:41Z</time>
      </trkpt>
      <trkpt lat="42.379146" lon="2.495193">
        <ele>1182.628</ele>
        <time>2021-05-28T00:17:43Z</time>
      </trkpt>
      <trkpt lat="42.379165" lon="2.495200">
        <ele>1183.220</ele>
        <time>2021-05-28T00:17:45Z</time>
      </trkpt>
      <trkpt lat="42.379186" lon="2.495206">
        <ele>1184.008</ele>
        <time>2021-05-28T00:17:47Z</time>
      </trkpt>
      <trkpt lat="42.379203" lon="2.495218">
        <ele>1184.424</ele>
        <time>2021-05-28T00:17:49Z</time>
      </trkpt>
      <trkpt lat="42.379219" lon="2.495238">
        <ele>1184.641</ele>
        <time>2021-05-28T00:17:51Z</time>
      </trkpt>
      <trkpt lat="42.379233" lon="2.495254">
        <ele>1184.839</ele>
        <time>2021-05-28T00:17:53Z</time>
      </trkpt>
      <trkpt lat="42.379248" lon="2.495270">
        <ele>1185.069</ele>
        <time>2021-05-28T00:17:55Z</time>
      </trkpt>
      <trkpt lat="42.379264" lon="2.495291">
        <ele>1185.486</ele>
        <time>2021-05-28T00:17:58Z</time>
      </trkpt>
      <trkpt lat="42.379280" lon="2.495318">
        <ele>1185.831</ele>
        <time>2021-05-28T00:18:01Z</time>
      </trkpt>
      <trkpt lat="42.379286" lon="2.495343">
        <ele>1185.774</ele>
        <time>2021-05-28T00:18:03Z</time>
      </trkpt>
      <trkpt lat="42.379291" lon="2.495373">
        <ele>1185.640</ele>
        <time>2021-05-28T00:18:05Z</time>
      </trkpt>
      <trkpt lat="42.379298" lon="2.495395">
        <ele>1185.738</ele>
        <time>2021-05-28T00:18:07Z</time>
      </trkpt>
      <trkpt lat="42.379310" lon="2.495425">
        <ele>1185.970</ele>
        <time>2021-05-28T00:18:10Z</time>
      </trkpt>
      <trkpt lat="42.379323" lon="2.495454">
        <ele>1186.117</ele>
        <time>2021-05-28T00:18:13Z</time>
      </trkpt>
      <trkpt lat="42.379336" lon="2.495488">
        <ele>1186.408</ele>
        <time>2021-05-28T00:18:16Z</time>
      </trkpt>
      <trkpt lat="42.379342" lon="2.495511">
        <ele>1186.430</ele>
        <time>2021-05-28T00:18:18Z</time>
      </trkpt>
      <trkpt lat="42.379348" lon="2.495535">
        <ele>1186.427</ele>
        <time>2021-05-28T00:18:20Z</time>
      </trkpt>
      <trkpt lat="42.379360" lon="2.495568">
        <ele>1186.635</ele>
        <time>2021-05-28T00:18:23Z</time>
      </trkpt>
      <trkpt lat="42.379368" lon="2.495593">
        <ele>1186.645</ele>
        <time>2021-05-28T00:18:25Z</time>
      </trkpt>
      <trkpt lat="42.379379" lon="2.495619">
        <ele>1186.842</ele>
        <time>2021-05-28T00:18:27Z</time>
      </trkpt>
      <trkpt lat="42.379393" lon="2.495638">
        <ele>1187.287</ele>
        <time>2021-05-28T00:18:29Z</time>
      </trkpt>
      <trkpt lat="42.379406" lon="2.495659">
        <ele>1187.640</ele>
        <time>2021-05-28T00:18:31Z</time>
      </trkpt>
      <trkpt lat="42.379416" lon="2.495681">
        <ele>1187.846</ele>
        <time>2021-05-28T00:18:33Z</time>
      </trkpt>
      <trkpt lat="42.379426" lon="2.495704">
        <ele>1187.964</ele>
        <time>2021-05-28T00:18:35Z</time>
      </trkpt>
      <trkpt lat="42.379443" lon="2.495730">
        <ele>1188.406</ele>
        <time>2021-05-28T00:18:37Z</time>
      </trkpt>
      <trkpt lat="42.379458" lon="2.495752">
        <ele>1188.616</ele>
        <time>2021-05-28T00:18:39Z</time>
      </trkpt>
      <trkpt lat="42.379467" lon="2.495775">
        <ele>1188.608</ele>
        <time>2021-05-28T00:18:41Z</time>
      </trkpt>
      <trkpt lat="42.379476" lon="2.495805">
        <ele>1188.483</ele>
        <time>2021-05-28T00:18:43Z</time>
      </trkpt>
      <trkpt lat="42.379484" lon="2.495830">
        <ele>1188.380</ele>
        <time>2021-05-28T00:18:45Z</time>
      </trkpt>
      <trkpt lat="42.379496" lon="2.495855">
        <ele>1188.548</ele>
        <time>2021-05-28T00:18:47Z</time>
      </trkpt>
      <trkpt lat="42.379508" lon="2.495881">
        <ele>1188.618</ele>
        <time>2021-05-28T00:18:49Z</time>
      </trkpt>
      <trkpt lat="42.379520" lon="2.495904">
        <ele>1188.875</ele>
        <time>2021-05-28T00:18:51Z</time>
      </trkpt>
      <trkpt lat="42.379529" lon="2.495928">
        <ele>1188.850</ele>
        <time>2021-05-28T00:18:53Z</time>
      </trkpt>
      <trkpt lat="42.379538" lon="2.495950">
        <ele>1188.933</ele>
        <time>2021-05-28T00:18:55Z</time>
      </trkpt>
      <trkpt lat="42.379550" lon="2.495972">
        <ele>1189.129</ele>
        <time>2021-05-28T00:18:57Z</time>
      </trkpt>
      <trkpt lat="42.379562" lon="2.495995">
        <ele>1189.373</ele>
        <time>2021-05-28T00:18:59Z</time>
      </trkpt>
      <trkpt lat="42.379576" lon="2.496027">
        <ele>1189.585</ele>
        <time>2021-05-28T00:19:02Z</time>
      </trkpt>
      <trkpt lat="42.379587" lon="2.496050">
        <ele>1189.713</ele>
        <time>2021-05-28T00:19:04Z</time>
      </trkpt>
      <trkpt lat="42.379595" lon="2.496075">
        <ele>1189.708</ele>
        <time>2021-05-28T00:19:06Z</time>
      </trkpt>
      <trkpt lat="42.379603" lon="2.496100">
        <ele>1189.814</ele>
        <time>2021-05-28T00:19:08Z</time>
      </trkpt>
      <trkpt lat="42.379613" lon="2.496123">
        <ele>1189.931</ele>
        <time>2021-05-28T00:19:10Z</time>
      </trkpt>
      <trkpt lat="42.379623" lon="2.496145">
        <ele>1190.199</ele>
        <time>2021-05-28T00:19:12Z</time>
      </trkpt>
      <trkpt lat="42.379633" lon="2.496170">
        <ele>1190.229</ele>
        <time>2021-05-28T00:19:14Z</time>
      </trkpt>
      <trkpt lat="42.379641" lon="2.496197">
        <ele>1190.346</ele>
        <time>2021-05-28T00:19:16Z</time>
      </trkpt>
      <trkpt lat="42.379649" lon="2.496224">
        <ele>1190.321</ele>
        <time>2021-05-28T00:19:18Z</time>
      </trkpt>
      <trkpt lat="42.379657" lon="2.496252">
        <ele>1190.494</ele>
        <time>2021-05-28T00:19:20Z</time>
      </trkpt>
      <trkpt lat="42.379668" lon="2.496277">
        <ele>1190.610</ele>
        <time>2021-05-28T00:19:22Z</time>
      </trkpt>
      <trkpt lat="42.379678" lon="2.496301">
        <ele>1190.813</ele>
        <time>2021-05-28T00:19:24Z</time>
      </trkpt>
      <trkpt lat="42.379689" lon="2.496328">
        <ele>1191.143</ele>
        <time>2021-05-28T00:19:26Z</time>
      </trkpt>
      <trkpt lat="42.379701" lon="2.496351">
        <ele>1191.407</ele>
        <time>2021-05-28T00:19:28Z</time>
      </trkpt>
      <trkpt lat="42.379712" lon="2.496375">
        <ele>1191.708</ele>
        <time>2021-05-28T00:19:30Z</time>
      </trkpt>
      <trkpt lat="42.379726" lon="2.496396">
        <ele>1192.088</ele>
        <time>2021-05-28T00:19:32Z</time>
      </trkpt>
      <trkpt lat="42.379739" lon="2.496417">
        <ele>1192.065</ele>
        <time>2021-05-28T00:19:34Z</time>
      </trkpt>
      <trkpt lat="42.379755" lon="2.496436">
        <ele>1192.193</ele>
        <time>2021-05-28T00:19:36Z</time>
      </trkpt>
      <trkpt lat="42.379771" lon="2.496454">
        <ele>1192.223</ele>
        <time>2021-05-28T00:19:38Z</time>
      </trkpt>
      <trkpt lat="42.379787" lon="2.496473">
        <ele>1192.340</ele>
        <time>2021-05-28T00:19:40Z</time>
      </trkpt>
      <trkpt lat="42.379805" lon="2.496489">
        <ele>1192.525</ele>
        <time>2021-05-28T00:19:42Z</time>
      </trkpt>
      <trkpt lat="42.379821" lon="2.496507">
        <ele>1192.638</ele>
        <time>2021-05-28T00:19:44Z</time>
      </trkpt>
      <trkpt lat="42.379836" lon="2.496522">
        <ele>1192.764</ele>
        <time>2021-05-28T00:19:46Z</time>
      </trkpt>
      <trkpt lat="42.379850" lon="2.496540">
        <ele>1192.982</ele>
        <time>2021-05-28T00:19:48Z</time>
      </trkpt>
      <trkpt lat="42.379866" lon="2.496556">
        <ele>1193.143</ele>
        <time>2021-05-28T00:19:50Z</time>
      </trkpt>
      <trkpt lat="42.379880" lon="2.496571">
        <ele>1193.217</ele>
        <time>2021-05-28T00:19:52Z</time>
      </trkpt>
      <trkpt lat="42.379894" lon="2.496589">
        <ele>1193.408</ele>
        <time>2021-05-28T00:19:54Z</time>
      </trkpt>
      <trkpt lat="42.379909" lon="2.496606">
        <ele>1193.675</ele>
        <time>2021-05-28T00:19:56Z</time>
      </trkpt>
      <trkpt lat="42.379924" lon="2.496622">
        <ele>1193.892</ele>
        <time>2021-05-28T00:19:58Z</time>
      </trkpt>
      <trkpt lat="42.379942" lon="2.496635">
        <ele>1194.170</ele>
        <time>2021-05-28T00:20:00Z</time>
      </trkpt>
      <trkpt lat="42.379963" lon="2.496645">
        <ele>1194.470</ele>
        <time>2021-05-28T00:20:02Z</time>
      </trkpt>
      <trkpt lat="42.379976" lon="2.496663">
        <ele>1194.687</ele>
        <time>2021-05-28T00:20:04Z</time>
      </trkpt>
      <trkpt lat="42.379997" lon="2.496681">
        <ele>1195.122</ele>
        <time>2021-05-28T00:20:07Z</time>
      </trkpt>
      <trkpt lat="42.380015" lon="2.496690">
        <ele>1195.095</ele>
        <time>2021-05-28T00:20:09Z</time>
      </trkpt>
      <trkpt lat="42.380039" lon="2.496701">
        <ele>1194.791</ele>
        <time>2021-05-28T00:20:12Z</time>
      </trkpt>
      <trkpt lat="42.380061" lon="2.496718">
        <ele>1194.553</ele>
        <time>2021-05-28T00:20:15Z</time>
      </trkpt>
      <trkpt lat="42.380082" lon="2.496731">
        <ele>1194.404</ele>
        <time>2021-05-28T00:20:18Z</time>
      </trkpt>
      <trkpt lat="42.380100" lon="2.496722">
        <ele>1193.914</ele>
        <time>2021-05-28T00:20:39Z</time>
      </trkpt>
      <trkpt lat="42.380130" lon="2.496727">
        <ele>1193.508</ele>
        <time>2021-05-28T00:20:42Z</time>
      </trkpt>
      <trkpt lat="42.380151" lon="2.496734">
        <ele>1193.382</ele>
        <time>2021-05-28T00:20:44Z</time>
      </trkpt>
      <trkpt lat="42.380171" lon="2.496739">
        <ele>1193.029</ele>
        <time>2021-05-28T00:20:46Z</time>
      </trkpt>
      <trkpt lat="42.380186" lon="2.496758">
        <ele>1193.167</ele>
        <time>2021-05-28T00:20:48Z</time>
      </trkpt>
      <trkpt lat="42.380197" lon="2.496778">
        <ele>1193.277</ele>
        <time>2021-05-28T00:20:50Z</time>
      </trkpt>
      <trkpt lat="42.380208" lon="2.496799">
        <ele>1193.474</ele>
        <time>2021-05-28T00:20:52Z</time>
      </trkpt>
      <trkpt lat="42.380224" lon="2.496816">
        <ele>1193.479</ele>
        <time>2021-05-28T00:20:54Z</time>
      </trkpt>
      <trkpt lat="42.380240" lon="2.496835">
        <ele>1193.562</ele>
        <time>2021-05-28T00:20:56Z</time>
      </trkpt>
      <trkpt lat="42.380256" lon="2.496851">
        <ele>1193.658</ele>
        <time>2021-05-28T00:20:58Z</time>
      </trkpt>
      <trkpt lat="42.380273" lon="2.496866">
        <ele>1193.678</ele>
        <time>2021-05-28T00:21:00Z</time>
      </trkpt>
      <trkpt lat="42.380290" lon="2.496879">
        <ele>1193.533</ele>
        <time>2021-05-28T00:21:02Z</time>
      </trkpt>
      <trkpt lat="42.380307" lon="2.496889">
        <ele>1193.126</ele>
        <time>2021-05-28T00:21:04Z</time>
      </trkpt>
      <trkpt lat="42.380325" lon="2.496899">
        <ele>1192.808</ele>
        <time>2021-05-28T00:21:06Z</time>
      </trkpt>
      <trkpt lat="42.380342" lon="2.496911">
        <ele>1192.594</ele>
        <time>2021-05-28T00:21:08Z</time>
      </trkpt>
      <trkpt lat="42.380359" lon="2.496921">
        <ele>1192.241</ele>
        <time>2021-05-28T00:21:10Z</time>
      </trkpt>
      <trkpt lat="42.380377" lon="2.496932">
        <ele>1191.999</ele>
        <time>2021-05-28T00:21:12Z</time>
      </trkpt>
      <trkpt lat="42.380392" lon="2.496951">
        <ele>1191.819</ele>
        <time>2021-05-28T00:21:14Z</time>
      </trkpt>
      <trkpt lat="42.380412" lon="2.496967">
        <ele>1191.516</ele>
        <time>2021-05-28T00:21:16Z</time>
      </trkpt>
      <trkpt lat="42.380432" lon="2.496984">
        <ele>1191.261</ele>
        <time>2021-05-28T00:21:18Z</time>
      </trkpt>
      <trkpt lat="42.380450" lon="2.496998">
        <ele>1190.944</ele>
        <time>2021-05-28T00:21:20Z</time>
      </trkpt>
      <trkpt lat="42.380468" lon="2.497013">
        <ele>1190.720</ele>
        <time>2021-05-28T00:21:22Z</time>
      </trkpt>
      <trkpt lat="42.380484" lon="2.497029">
        <ele>1190.517</ele>
        <time>2021-05-28T00:21:24Z</time>
      </trkpt>
      <trkpt lat="42.380461" lon="2.497017">
        <ele>1190.987</ele>
        <time>2021-05-28T00:22:04Z</time>
      </trkpt>
      <trkpt lat="42.380443" lon="2.496996">
        <ele>1191.115</ele>
        <time>2021-05-28T00:22:06Z</time>
      </trkpt>
      <trkpt lat="42.380420" lon="2.496971">
        <ele>1191.308</ele>
        <time>2021-05-28T00:22:08Z</time>
      </trkpt>
      <trkpt lat="42.380392" lon="2.496958">
        <ele>1191.978</ele>
        <time>2021-05-28T00:22:10Z</time>
      </trkpt>
      <trkpt lat="42.380367" lon="2.496948">
        <ele>1192.545</ele>
        <time>2021-05-28T00:22:12Z</time>
      </trkpt>
      <trkpt lat="42.380343" lon="2.496933">
        <ele>1192.913</ele>
        <time>2021-05-28T00:22:14Z</time>
      </trkpt>
      <trkpt lat="42.380321" lon="2.496909">
        <ele>1193.153</ele>
        <time>2021-05-28T00:22:16Z</time>
      </trkpt>
      <trkpt lat="42.380302" lon="2.496887">
        <ele>1193.260</ele>
        <time>2021-05-28T00:22:18Z</time>
      </trkpt>
      <trkpt lat="42.380284" lon="2.496868">
        <ele>1193.465</ele>
        <time>2021-05-28T00:22:20Z</time>
      </trkpt>
      <trkpt lat="42.380266" lon="2.496845">
        <ele>1193.448</ele>
        <time>2021-05-28T00:22:22Z</time>
      </trkpt>
      <trkpt lat="42.380248" lon="2.496824">
        <ele>1193.284</ele>
        <time>2021-05-28T00:22:24Z</time>
      </trkpt>
      <trkpt lat="42.380232" lon="2.496807">
        <ele>1193.211</ele>
        <time>2021-05-28T00:22:26Z</time>
      </trkpt>
      <trkpt lat="42.380214" lon="2.496780">
        <ele>1193.021</ele>
        <time>2021-05-28T00:22:29Z</time>
      </trkpt>
      <trkpt lat="42.380199" lon="2.496760">
        <ele>1192.903</ele>
        <time>2021-05-28T00:22:31Z</time>
      </trkpt>
      <trkpt lat="42.380186" lon="2.496738">
        <ele>1192.808</ele>
        <time>2021-05-28T00:22:33Z</time>
      </trkpt>
      <trkpt lat="42.380171" lon="2.496713">
        <ele>1192.658</ele>
        <time>2021-05-28T00:22:35Z</time>
      </trkpt>
      <trkpt lat="42.380160" lon="2.496691">
        <ele>1192.575</ele>
        <time>2021-05-28T00:22:37Z</time>
      </trkpt>
      <trkpt lat="42.380145" lon="2.496669">
        <ele>1192.473</ele>
        <time>2021-05-28T00:22:40Z</time>
      </trkpt>
      <trkpt lat="42.380144" lon="2.496642">
        <ele>1192.283</ele>
        <time>2021-05-28T00:22:44Z</time>
      </trkpt>
      <trkpt lat="42.380158" lon="2.496625">
        <ele>1191.830</ele>
        <time>2021-05-28T00:22:47Z</time>
      </trkpt>
      <trkpt lat="42.380177" lon="2.496624">
        <ele>1191.435</ele>
        <time>2021-05-28T00:23:01Z</time>
      </trkpt>
      <trkpt lat="42.380161" lon="2.496652">
        <ele>1192.028</ele>
        <time>2021-05-28T00:23:27Z</time>
      </trkpt>
      <trkpt lat="42.380145" lon="2.496668">
        <ele>1192.494</ele>
        <time>2021-05-28T00:23:29Z</time>
      </trkpt>
      <trkpt lat="42.380128" lon="2.496681">
        <ele>1192.976</ele>
        <time>2021-05-28T00:23:31Z</time>
      </trkpt>
      <trkpt lat="42.380112" lon="2.496694">
        <ele>1193.490</ele>
        <time>2021-05-28T00:23:33Z</time>
      </trkpt>
      <trkpt lat="42.380093" lon="2.496705">
        <ele>1193.819</ele>
        <time>2021-05-28T00:23:36Z</time>
      </trkpt>
      <trkpt lat="42.380080" lon="2.496723">
        <ele>1194.308</ele>
        <time>2021-05-28T00:23:54Z</time>
      </trkpt>
      <trkpt lat="42.380073" lon="2.496713">
        <ele>1194.314</ele>
        <time>2021-05-28T00:24:13Z</time>
      </trkpt>
      <trkpt lat="42.380124" lon="2.496747">
        <ele>1193.963</ele>
        <time>2021-05-28T07:05:35Z</time>
      </trkpt>
      <trkpt lat="42.380131" lon="2.496730">
        <ele>1193.544</ele>
        <time>2021-05-28T07:05:36Z</time>
      </trkpt>
      <trkpt lat="42.380138" lon="2.496702">
        <ele>1193.018</ele>
        <time>2021-05-28T07:05:39Z</time>
      </trkpt>
      <trkpt lat="42.380147" lon="2.496676">
        <ele>1192.508</ele>
        <time>2021-05-28T07:05:42Z</time>
      </trkpt>
      <trkpt lat="42.380157" lon="2.496654">
        <ele>1192.133</ele>
        <time>2021-05-28T07:05:45Z</time>
      </trkpt>
      <trkpt lat="42.380172" lon="2.496631">
        <ele>1191.570</ele>
        <time>2021-05-28T07:05:55Z</time>
      </trkpt>
      <trkpt lat="42.380192" lon="2.496615">
        <ele>1191.011</ele>
        <time>2021-05-28T07:06:52Z</time>
      </trkpt>
      <trkpt lat="42.380206" lon="2.496598">
        <ele>1190.530</ele>
        <time>2021-05-28T07:07:40Z</time>
      </trkpt>
      <trkpt lat="42.380204" lon="2.496569">
        <ele>1190.287</ele>
        <time>2021-05-28T07:07:43Z</time>
      </trkpt>
      <trkpt lat="42.380200" lon="2.496535">
        <ele>1189.932</ele>
        <time>2021-05-28T07:07:46Z</time>
      </trkpt>
      <trkpt lat="42.380201" lon="2.496497">
        <ele>1189.449</ele>
        <time>2021-05-28T07:07:49Z</time>
      </trkpt>
      <trkpt lat="42.380207" lon="2.496467">
        <ele>1188.977</ele>
        <time>2021-05-28T07:07:51Z</time>
      </trkpt>
      <trkpt lat="42.380216" lon="2.496443">
        <ele>1188.443</ele>
        <time>2021-05-28T07:07:53Z</time>
      </trkpt>
      <trkpt lat="42.380228" lon="2.496418">
        <ele>1187.864</ele>
        <time>2021-05-28T07:07:56Z</time>
      </trkpt>
      <trkpt lat="42.380239" lon="2.496396">
        <ele>1187.210</ele>
        <time>2021-05-28T07:07:59Z</time>
      </trkpt>
      <trkpt lat="42.380248" lon="2.496374">
        <ele>1187.008</ele>
        <time>2021-05-28T07:08:02Z</time>
      </trkpt>
      <trkpt lat="42.380263" lon="2.496357">
        <ele>1186.681</ele>
        <time>2021-05-28T07:08:05Z</time>
      </trkpt>
      <trkpt lat="42.380281" lon="2.496352">
        <ele>1186.138</ele>
        <time>2021-05-28T07:08:08Z</time>
      </trkpt>
      <trkpt lat="42.380292" lon="2.496332">
        <ele>1185.989</ele>
        <time>2021-05-28T07:08:12Z</time>
      </trkpt>
      <trkpt lat="42.380310" lon="2.496311">
        <ele>1185.488</ele>
        <time>2021-05-28T07:08:15Z</time>
      </trkpt>
      <trkpt lat="42.380328" lon="2.496302">
        <ele>1184.895</ele>
        <time>2021-05-28T07:08:17Z</time>
      </trkpt>
      <trkpt lat="42.380343" lon="2.496280">
        <ele>1184.370</ele>
        <time>2021-05-28T07:08:19Z</time>
      </trkpt>
      <trkpt lat="42.380360" lon="2.496253">
        <ele>1183.987</ele>
        <time>2021-05-28T07:08:21Z</time>
      </trkpt>
      <trkpt lat="42.380381" lon="2.496229">
        <ele>1183.275</ele>
        <time>2021-05-28T07:08:23Z</time>
      </trkpt>
      <trkpt lat="42.380398" lon="2.496201">
        <ele>1182.738</ele>
        <time>2021-05-28T07:08:25Z</time>
      </trkpt>
      <trkpt lat="42.380412" lon="2.496175">
        <ele>1182.370</ele>
        <time>2021-05-28T07:08:27Z</time>
      </trkpt>
      <trkpt lat="42.380432" lon="2.496152">
        <ele>1181.717</ele>
        <time>2021-05-28T07:08:29Z</time>
      </trkpt>
      <trkpt lat="42.380444" lon="2.496132">
        <ele>1181.308</ele>
        <time>2021-05-28T07:08:34Z</time>
      </trkpt>
      <trkpt lat="42.380461" lon="2.496113">
        <ele>1180.720</ele>
        <time>2021-05-28T07:08:36Z</time>
      </trkpt>
      <trkpt lat="42.380474" lon="2.496096">
        <ele>1180.517</ele>
        <time>2021-05-28T07:08:37Z</time>
      </trkpt>
      <trkpt lat="42.380488" lon="2.496079">
        <ele>1180.328</ele>
        <time>2021-05-28T07:08:39Z</time>
      </trkpt>
      <trkpt lat="42.380507" lon="2.496062">
        <ele>1179.847</ele>
        <time>2021-05-28T07:08:41Z</time>
      </trkpt>
      <trkpt lat="42.380529" lon="2.496035">
        <ele>1179.464</ele>
        <time>2021-05-28T07:08:43Z</time>
      </trkpt>
      <trkpt lat="42.380549" lon="2.496016">
        <ele>1179.069</ele>
        <time>2021-05-28T07:08:46Z</time>
      </trkpt>
      <trkpt lat="42.380566" lon="2.495997">
        <ele>1178.646</ele>
        <time>2021-05-28T07:08:49Z</time>
      </trkpt>
      <trkpt lat="42.380590" lon="2.495982">
        <ele>1177.994</ele>
        <time>2021-05-28T07:08:51Z</time>
      </trkpt>
      <trkpt lat="42.380613" lon="2.495955">
        <ele>1177.434</ele>
        <time>2021-05-28T07:08:53Z</time>
      </trkpt>
      <trkpt lat="42.380639" lon="2.495930">
        <ele>1176.955</ele>
        <time>2021-05-28T07:08:55Z</time>
      </trkpt>
      <trkpt lat="42.380662" lon="2.495905">
        <ele>1176.410</ele>
        <time>2021-05-28T07:08:57Z</time>
      </trkpt>
      <trkpt lat="42.380681" lon="2.495886">
        <ele>1176.008</ele>
        <time>2021-05-28T07:08:59Z</time>
      </trkpt>
      <trkpt lat="42.380700" lon="2.495866">
        <ele>1175.680</ele>
        <time>2021-05-28T07:09:01Z</time>
      </trkpt>
      <trkpt lat="42.380714" lon="2.495839">
        <ele>1175.617</ele>
        <time>2021-05-28T07:09:03Z</time>
      </trkpt>
      <trkpt lat="42.380728" lon="2.495819">
        <ele>1175.468</ele>
        <time>2021-05-28T07:09:05Z</time>
      </trkpt>
      <trkpt lat="42.380746" lon="2.495800">
        <ele>1175.077</ele>
        <time>2021-05-28T07:09:08Z</time>
      </trkpt>
      <trkpt lat="42.380761" lon="2.495769">
        <ele>1174.914</ele>
        <time>2021-05-28T07:09:11Z</time>
      </trkpt>
      <trkpt lat="42.380772" lon="2.495747">
        <ele>1174.759</ele>
        <time>2021-05-28T07:09:13Z</time>
      </trkpt>
      <trkpt lat="42.380786" lon="2.495719">
        <ele>1174.676</ele>
        <time>2021-05-28T07:09:15Z</time>
      </trkpt>
      <trkpt lat="42.380793" lon="2.495694">
        <ele>1174.724</ele>
        <time>2021-05-28T07:09:17Z</time>
      </trkpt>
      <trkpt lat="42.380801" lon="2.495655">
        <ele>1174.996</ele>
        <time>2021-05-28T07:09:19Z</time>
      </trkpt>
      <trkpt lat="42.380806" lon="2.495624">
        <ele>1175.231</ele>
        <time>2021-05-28T07:09:21Z</time>
      </trkpt>
      <trkpt lat="42.380814" lon="2.495589">
        <ele>1175.324</ele>
        <time>2021-05-28T07:09:23Z</time>
      </trkpt>
      <trkpt lat="42.380826" lon="2.495550">
        <ele>1175.308</ele>
        <time>2021-05-28T07:09:25Z</time>
      </trkpt>
      <trkpt lat="42.380831" lon="2.495514">
        <ele>1175.036</ele>
        <time>2021-05-28T07:09:27Z</time>
      </trkpt>
      <trkpt lat="42.380840" lon="2.495468">
        <ele>1174.323</ele>
        <time>2021-05-28T07:09:29Z</time>
      </trkpt>
      <trkpt lat="42.380851" lon="2.495426">
        <ele>1173.644</ele>
        <time>2021-05-28T07:09:31Z</time>
      </trkpt>
      <trkpt lat="42.380858" lon="2.495391">
        <ele>1173.293</ele>
        <time>2021-05-28T07:09:33Z</time>
      </trkpt>
      <trkpt lat="42.380860" lon="2.495360">
        <ele>1173.040</ele>
        <time>2021-05-28T07:09:35Z</time>
      </trkpt>
      <trkpt lat="42.380868" lon="2.495328">
        <ele>1172.415</ele>
        <time>2021-05-28T07:09:37Z</time>
      </trkpt>
      <trkpt lat="42.380868" lon="2.495293">
        <ele>1172.362</ele>
        <time>2021-05-28T07:09:39Z</time>
      </trkpt>
      <trkpt lat="42.380872" lon="2.495262">
        <ele>1172.020</ele>
        <time>2021-05-28T07:09:41Z</time>
      </trkpt>
      <trkpt lat="42.380873" lon="2.495226">
        <ele>1171.737</ele>
        <time>2021-05-28T07:09:43Z</time>
      </trkpt>
      <trkpt lat="42.380876" lon="2.495190">
        <ele>1171.349</ele>
        <time>2021-05-28T07:09:45Z</time>
      </trkpt>
      <trkpt lat="42.380873" lon="2.495159">
        <ele>1171.313</ele>
        <time>2021-05-28T07:09:47Z</time>
      </trkpt>
      <trkpt lat="42.380869" lon="2.495134">
        <ele>1171.308</ele>
        <time>2021-05-28T07:09:49Z</time>
      </trkpt>
      <trkpt lat="42.380870" lon="2.495100">
        <ele>1171.010</ele>
        <time>2021-05-28T07:09:51Z</time>
      </trkpt>
      <trkpt lat="42.380865" lon="2.495062">
        <ele>1171.037</ele>
        <time>2021-05-28T07:09:53Z</time>
      </trkpt>
      <trkpt lat="42.380865" lon="2.495025">
        <ele>1170.828</ele>
        <time>2021-05-28T07:09:55Z</time>
      </trkpt>
      <trkpt lat="42.380865" lon="2.494990">
        <ele>1170.717</ele>
        <time>2021-05-28T07:09:57Z</time>
      </trkpt>
      <trkpt lat="42.380859" lon="2.494951">
        <ele>1171.174</ele>
        <time>2021-05-28T07:09:59Z</time>
      </trkpt>
      <trkpt lat="42.380859" lon="2.494899">
        <ele>1171.429</ele>
        <time>2021-05-28T07:10:02Z</time>
      </trkpt>
      <trkpt lat="42.380852" lon="2.494872">
        <ele>1171.786</ele>
        <time>2021-05-28T07:10:04Z</time>
      </trkpt>
      <trkpt lat="42.380842" lon="2.494836">
        <ele>1172.354</ele>
        <time>2021-05-28T07:10:07Z</time>
      </trkpt>
      <trkpt lat="42.380840" lon="2.494804">
        <ele>1172.545</ele>
        <time>2021-05-28T07:10:09Z</time>
      </trkpt>
      <trkpt lat="42.380840" lon="2.494764">
        <ele>1172.647</ele>
        <time>2021-05-28T07:10:11Z</time>
      </trkpt>
      <trkpt lat="42.380822" lon="2.494631">
        <ele>1174.411</ele>
        <time>2021-05-28T07:10:17Z</time>
      </trkpt>
      <trkpt lat="42.380801" lon="2.494500">
        <ele>1176.308</ele>
        <time>2021-05-28T07:10:25Z</time>
      </trkpt>
      <trkpt lat="42.380822" lon="2.494444">
        <ele>1176.351</ele>
        <time>2021-05-28T07:10:31Z</time>
      </trkpt>
      <trkpt lat="42.380835" lon="2.494406">
        <ele>1176.518</ele>
        <time>2021-05-28T07:10:36Z</time>
      </trkpt>
      <trkpt lat="42.380824" lon="2.494385">
        <ele>1177.139</ele>
        <time>2021-05-28T07:10:38Z</time>
      </trkpt>
      <trkpt lat="42.380838" lon="2.494367">
        <ele>1177.158</ele>
        <time>2021-05-28T07:10:40Z</time>
      </trkpt>
      <trkpt lat="42.380862" lon="2.494353">
        <ele>1177.275</ele>
        <time>2021-05-28T07:10:42Z</time>
      </trkpt>
      <trkpt lat="42.380882" lon="2.494362">
        <ele>1176.970</ele>
        <time>2021-05-28T07:10:46Z</time>
      </trkpt>
      <trkpt lat="42.380897" lon="2.494379">
        <ele>1176.527</ele>
        <time>2021-05-28T07:10:48Z</time>
      </trkpt>
      <trkpt lat="42.380912" lon="2.494394">
        <ele>1176.195</ele>
        <time>2021-05-28T07:10:50Z</time>
      </trkpt>
      <trkpt lat="42.380928" lon="2.494414">
        <ele>1175.616</ele>
        <time>2021-05-28T07:10:53Z</time>
      </trkpt>
      <trkpt lat="42.380946" lon="2.494431">
        <ele>1175.176</ele>
        <time>2021-05-28T07:11:00Z</time>
      </trkpt>
      <trkpt lat="42.380936" lon="2.494461">
        <ele>1174.613</ele>
        <time>2021-05-28T07:11:03Z</time>
      </trkpt>
      <trkpt lat="42.380932" lon="2.494488">
        <ele>1174.108</ele>
        <time>2021-05-28T07:11:10Z</time>
      </trkpt>
      <trkpt lat="42.380930" lon="2.494517">
        <ele>1173.618</ele>
        <time>2021-05-28T07:11:15Z</time>
      </trkpt>
      <trkpt lat="42.380952" lon="2.494548">
        <ele>1172.665</ele>
        <time>2021-05-28T07:11:18Z</time>
      </trkpt>
      <trkpt lat="42.380970" lon="2.494570">
        <ele>1171.856</ele>
        <time>2021-05-28T07:11:21Z</time>
      </trkpt>
      <trkpt lat="42.380988" lon="2.494587">
        <ele>1171.125</ele>
        <time>2021-05-28T07:11:24Z</time>
      </trkpt>
      <trkpt lat="42.381005" lon="2.494601">
        <ele>1170.412</ele>
        <time>2021-05-28T07:11:28Z</time>
      </trkpt>
      <trkpt lat="42.381026" lon="2.494604">
        <ele>1169.827</ele>
        <time>2021-05-28T07:11:32Z</time>
      </trkpt>
      <trkpt lat="42.381125" lon="2.494651">
        <ele>1166.534</ele>
        <time>2021-05-28T07:11:40Z</time>
      </trkpt>
      <trkpt lat="42.381175" lon="2.494664">
        <ele>1166.692</ele>
        <time>2021-05-28T07:11:43Z</time>
      </trkpt>
      <trkpt lat="42.381194" lon="2.494672">
        <ele>1166.684</ele>
        <time>2021-05-28T07:11:46Z</time>
      </trkpt>
      <trkpt lat="42.381216" lon="2.494687">
        <ele>1166.307</ele>
        <time>2021-05-28T07:11:49Z</time>
      </trkpt>
      <trkpt lat="42.381239" lon="2.494703">
        <ele>1166.017</ele>
        <time>2021-05-28T07:11:52Z</time>
      </trkpt>
      <trkpt lat="42.381256" lon="2.494716">
        <ele>1165.808</ele>
        <time>2021-05-28T07:11:55Z</time>
      </trkpt>
      <trkpt lat="42.381275" lon="2.494728">
        <ele>1165.675</ele>
        <time>2021-05-28T07:11:57Z</time>
      </trkpt>
      <trkpt lat="42.381291" lon="2.494740">
        <ele>1165.452</ele>
        <time>2021-05-28T07:11:59Z</time>
      </trkpt>
      <trkpt lat="42.381309" lon="2.494756">
        <ele>1165.153</ele>
        <time>2021-05-28T07:12:02Z</time>
      </trkpt>
      <trkpt lat="42.381332" lon="2.494775">
        <ele>1164.792</ele>
        <time>2021-05-28T07:12:05Z</time>
      </trkpt>
      <trkpt lat="42.381363" lon="2.494793">
        <ele>1164.399</ele>
        <time>2021-05-28T07:12:08Z</time>
      </trkpt>
      <trkpt lat="42.381390" lon="2.494810">
        <ele>1163.914</ele>
        <time>2021-05-28T07:12:11Z</time>
      </trkpt>
      <trkpt lat="42.381407" lon="2.494820">
        <ele>1163.791</ele>
        <time>2021-05-28T07:12:13Z</time>
      </trkpt>
      <trkpt lat="42.381432" lon="2.494827">
        <ele>1163.889</ele>
        <time>2021-05-28T07:12:15Z</time>
      </trkpt>
      <trkpt lat="42.381494" lon="2.494852">
        <ele>1163.855</ele>
        <time>2021-05-28T07:12:20Z</time>
      </trkpt>
      <trkpt lat="42.381537" lon="2.494877">
        <ele>1163.607</ele>
        <time>2021-05-28T07:12:25Z</time>
      </trkpt>
      <trkpt lat="42.381568" lon="2.494890">
        <ele>1163.517</ele>
        <time>2021-05-28T07:12:28Z</time>
      </trkpt>
      <trkpt lat="42.381629" lon="2.494912">
        <ele>1163.608</ele>
        <time>2021-05-28T07:12:35Z</time>
      </trkpt>
      <trkpt lat="42.381655" lon="2.494920">
        <ele>1163.772</ele>
        <time>2021-05-28T07:12:38Z</time>
      </trkpt>
      <trkpt lat="42.381682" lon="2.494927">
        <ele>1164.159</ele>
        <time>2021-05-28T07:12:41Z</time>
      </trkpt>
      <trkpt lat="42.381724" lon="2.494956">
        <ele>1164.430</ele>
        <time>2021-05-28T07:12:48Z</time>
      </trkpt>
      <trkpt lat="42.381738" lon="2.494975">
        <ele>1164.239</ele>
        <time>2021-05-28T07:12:50Z</time>
      </trkpt>
      <trkpt lat="42.381742" lon="2.495003">
        <ele>1163.426</ele>
        <time>2021-05-28T07:12:53Z</time>
      </trkpt>
      <trkpt lat="42.381760" lon="2.495033">
        <ele>1163.131</ele>
        <time>2021-05-28T07:12:57Z</time>
      </trkpt>
      <trkpt lat="42.381780" lon="2.495057">
        <ele>1163.088</ele>
        <time>2021-05-28T07:13:00Z</time>
      </trkpt>
      <trkpt lat="42.381794" lon="2.495082">
        <ele>1162.836</ele>
        <time>2021-05-28T07:13:02Z</time>
      </trkpt>
      <trkpt lat="42.381808" lon="2.495101">
        <ele>1162.738</ele>
        <time>2021-05-28T07:13:04Z</time>
      </trkpt>
      <trkpt lat="42.381823" lon="2.495120">
        <ele>1162.670</ele>
        <time>2021-05-28T07:13:06Z</time>
      </trkpt>
      <trkpt lat="42.381845" lon="2.495136">
        <ele>1162.917</ele>
        <time>2021-05-28T07:13:09Z</time>
      </trkpt>
      <trkpt lat="42.381865" lon="2.495162">
        <ele>1162.808</ele>
        <time>2021-05-28T07:13:12Z</time>
      </trkpt>
      <trkpt lat="42.381881" lon="2.495180">
        <ele>1162.870</ele>
        <time>2021-05-28T07:13:14Z</time>
      </trkpt>
      <trkpt lat="42.381899" lon="2.495188">
        <ele>1163.177</ele>
        <time>2021-05-28T07:13:16Z</time>
      </trkpt>
      <trkpt lat="42.381918" lon="2.495204">
        <ele>1163.388</ele>
        <time>2021-05-28T07:13:19Z</time>
      </trkpt>
      <trkpt lat="42.381931" lon="2.495225">
        <ele>1163.177</ele>
        <time>2021-05-28T07:13:21Z</time>
      </trkpt>
      <trkpt lat="42.381940" lon="2.495247">
        <ele>1162.754</ele>
        <time>2021-05-28T07:13:23Z</time>
      </trkpt>
      <trkpt lat="42.381953" lon="2.495268">
        <ele>1162.449</ele>
        <time>2021-05-28T07:13:25Z</time>
      </trkpt>
      <trkpt lat="42.381964" lon="2.495291">
        <ele>1161.976</ele>
        <time>2021-05-28T07:13:27Z</time>
      </trkpt>
      <trkpt lat="42.381980" lon="2.495319">
        <ele>1161.364</ele>
        <time>2021-05-28T07:13:29Z</time>
      </trkpt>
      <trkpt lat="42.381994" lon="2.495341">
        <ele>1160.816</ele>
        <time>2021-05-28T07:13:31Z</time>
      </trkpt>
      <trkpt lat="42.382006" lon="2.495373">
        <ele>1160.076</ele>
        <time>2021-05-28T07:13:34Z</time>
      </trkpt>
      <trkpt lat="42.382019" lon="2.495392">
        <ele>1159.613</ele>
        <time>2021-05-28T07:13:36Z</time>
      </trkpt>
      <trkpt lat="42.382036" lon="2.495416">
        <ele>1159.208</ele>
        <time>2021-05-28T07:13:39Z</time>
      </trkpt>
      <trkpt lat="42.382057" lon="2.495435">
        <ele>1158.958</ele>
        <time>2021-05-28T07:13:42Z</time>
      </trkpt>
      <trkpt lat="42.382073" lon="2.495455">
        <ele>1158.665</ele>
        <time>2021-05-28T07:13:45Z</time>
      </trkpt>
      <trkpt lat="42.382091" lon="2.495454">
        <ele>1158.926</ele>
        <time>2021-05-28T07:13:58Z</time>
      </trkpt>
      <trkpt lat="42.382106" lon="2.495468">
        <ele>1158.715</ele>
        <time>2021-05-28T07:14:00Z</time>
      </trkpt>
      <trkpt lat="42.382124" lon="2.495471">
        <ele>1159.052</ele>
        <time>2021-05-28T07:14:02Z</time>
      </trkpt>
      <trkpt lat="42.382145" lon="2.495487">
        <ele>1158.897</ele>
        <time>2021-05-28T07:14:05Z</time>
      </trkpt>
      <trkpt lat="42.382164" lon="2.495515">
        <ele>1158.354</ele>
        <time>2021-05-28T07:14:08Z</time>
      </trkpt>
      <trkpt lat="42.382176" lon="2.495539">
        <ele>1157.732</ele>
        <time>2021-05-28T07:14:10Z</time>
      </trkpt>
      <trkpt lat="42.382191" lon="2.495563">
        <ele>1157.168</ele>
        <time>2021-05-28T07:14:12Z</time>
      </trkpt>
      <trkpt lat="42.382214" lon="2.495583">
        <ele>1156.842</ele>
        <time>2021-05-28T07:14:14Z</time>
      </trkpt>
      <trkpt lat="42.382231" lon="2.495594">
        <ele>1156.526</ele>
        <time>2021-05-28T07:14:15Z</time>
      </trkpt>
      <trkpt lat="42.382248" lon="2.495606">
        <ele>1156.208</ele>
        <time>2021-05-28T07:14:16Z</time>
      </trkpt>
      <trkpt lat="42.382277" lon="2.495623">
        <ele>1155.833</ele>
        <time>2021-05-28T07:14:18Z</time>
      </trkpt>
      <trkpt lat="42.382305" lon="2.495635">
        <ele>1155.560</ele>
        <time>2021-05-28T07:14:20Z</time>
      </trkpt>
      <trkpt lat="42.382326" lon="2.495658">
        <ele>1154.811</ele>
        <time>2021-05-28T07:14:22Z</time>
      </trkpt>
      <trkpt lat="42.382348" lon="2.495678">
        <ele>1154.370</ele>
        <time>2021-05-28T07:14:24Z</time>
      </trkpt>
      <trkpt lat="42.382371" lon="2.495707">
        <ele>1153.457</ele>
        <time>2021-05-28T07:14:26Z</time>
      </trkpt>
      <trkpt lat="42.382447" lon="2.495759">
        <ele>1152.282</ele>
        <time>2021-05-28T07:14:30Z</time>
      </trkpt>
      <trkpt lat="42.382538" lon="2.495787">
        <ele>1151.719</ele>
        <time>2021-05-28T07:14:36Z</time>
      </trkpt>
      <trkpt lat="42.382562" lon="2.495795">
        <ele>1151.427</ele>
        <time>2021-05-28T07:14:38Z</time>
      </trkpt>
      <trkpt lat="42.382588" lon="2.495808">
        <ele>1150.929</ele>
        <time>2021-05-28T07:14:40Z</time>
      </trkpt>
      <trkpt lat="42.382609" lon="2.495814">
        <ele>1150.700</ele>
        <time>2021-05-28T07:14:42Z</time>
      </trkpt>
      <trkpt lat="42.382627" lon="2.495821">
        <ele>1150.420</ele>
        <time>2021-05-28T07:14:45Z</time>
      </trkpt>
      <trkpt lat="42.382645" lon="2.495833">
        <ele>1150.008</ele>
        <time>2021-05-28T07:14:48Z</time>
      </trkpt>
      <trkpt lat="42.382663" lon="2.495841">
        <ele>1149.779</ele>
        <time>2021-05-28T07:14:50Z</time>
      </trkpt>
      <trkpt lat="42.382686" lon="2.495852">
        <ele>1149.276</ele>
        <time>2021-05-28T07:14:53Z</time>
      </trkpt>
      <trkpt lat="42.382706" lon="2.495855">
        <ele>1149.147</ele>
        <time>2021-05-28T07:14:55Z</time>
      </trkpt>
      <trkpt lat="42.382730" lon="2.495848">
        <ele>1149.436</ele>
        <time>2021-05-28T07:14:57Z</time>
      </trkpt>
      <trkpt lat="42.382750" lon="2.495847">
        <ele>1149.583</ele>
        <time>2021-05-28T07:14:59Z</time>
      </trkpt>
      <trkpt lat="42.382772" lon="2.495853">
        <ele>1149.228</ele>
        <time>2021-05-28T07:15:02Z</time>
      </trkpt>
      <trkpt lat="42.382792" lon="2.495857">
        <ele>1149.035</ele>
        <time>2021-05-28T07:15:04Z</time>
      </trkpt>
      <trkpt lat="42.382815" lon="2.495857">
        <ele>1148.843</ele>
        <time>2021-05-28T07:15:06Z</time>
      </trkpt>
      <trkpt lat="42.382843" lon="2.495866">
        <ele>1148.322</ele>
        <time>2021-05-28T07:15:08Z</time>
      </trkpt>
      <trkpt lat="42.382863" lon="2.495870">
        <ele>1148.062</ele>
        <time>2021-05-28T07:15:09Z</time>
      </trkpt>
      <trkpt lat="42.382882" lon="2.495876">
        <ele>1147.608</ele>
        <time>2021-05-28T07:15:10Z</time>
      </trkpt>
      <trkpt lat="42.382901" lon="2.495882">
        <ele>1147.308</ele>
        <time>2021-05-28T07:15:11Z</time>
      </trkpt>
      <trkpt lat="42.382922" lon="2.495883">
        <ele>1147.189</ele>
        <time>2021-05-28T07:15:12Z</time>
      </trkpt>
      <trkpt lat="42.382941" lon="2.495884">
        <ele>1146.946</ele>
        <time>2021-05-28T07:15:13Z</time>
      </trkpt>
      <trkpt lat="42.382960" lon="2.495888">
        <ele>1146.747</ele>
        <time>2021-05-28T07:15:14Z</time>
      </trkpt>
      <trkpt lat="42.382992" lon="2.495897">
        <ele>1146.136</ele>
        <time>2021-05-28T07:15:16Z</time>
      </trkpt>
      <trkpt lat="42.383024" lon="2.495901">
        <ele>1145.823</ele>
        <time>2021-05-28T07:15:18Z</time>
      </trkpt>
      <trkpt lat="42.383119" lon="2.495887">
        <ele>1144.328</ele>
        <time>2021-05-28T07:15:22Z</time>
      </trkpt>
      <trkpt lat="42.383218" lon="2.495868">
        <ele>1142.295</ele>
        <time>2021-05-28T07:15:27Z</time>
      </trkpt>
      <trkpt lat="42.383252" lon="2.495872">
        <ele>1141.143</ele>
        <time>2021-05-28T07:15:29Z</time>
      </trkpt>
      <trkpt lat="42.383283" lon="2.495870">
        <ele>1140.398</ele>
        <time>2021-05-28T07:15:31Z</time>
      </trkpt>
      <trkpt lat="42.383308" lon="2.495869">
        <ele>1139.715</ele>
        <time>2021-05-28T07:15:33Z</time>
      </trkpt>
      <trkpt lat="42.383336" lon="2.495863">
        <ele>1139.026</ele>
        <time>2021-05-28T07:15:35Z</time>
      </trkpt>
      <trkpt lat="42.383354" lon="2.495858">
        <ele>1138.408</ele>
        <time>2021-05-28T07:15:37Z</time>
      </trkpt>
      <trkpt lat="42.383374" lon="2.495848">
        <ele>1137.846</ele>
        <time>2021-05-28T07:15:39Z</time>
      </trkpt>
      <trkpt lat="42.383399" lon="2.495838">
        <ele>1137.033</ele>
        <time>2021-05-28T07:15:41Z</time>
      </trkpt>
      <trkpt lat="42.383421" lon="2.495828">
        <ele>1136.374</ele>
        <time>2021-05-28T07:15:43Z</time>
      </trkpt>
      <trkpt lat="42.383434" lon="2.495811">
        <ele>1136.283</ele>
        <time>2021-05-28T07:15:45Z</time>
      </trkpt>
      <trkpt lat="42.383456" lon="2.495789">
        <ele>1135.730</ele>
        <time>2021-05-28T07:15:48Z</time>
      </trkpt>
      <trkpt lat="42.383477" lon="2.495767">
        <ele>1135.375</ele>
        <time>2021-05-28T07:15:50Z</time>
      </trkpt>
      <trkpt lat="42.383500" lon="2.495743">
        <ele>1134.992</ele>
        <time>2021-05-28T07:15:52Z</time>
      </trkpt>
      <trkpt lat="42.383519" lon="2.495721">
        <ele>1134.570</ele>
        <time>2021-05-28T07:15:54Z</time>
      </trkpt>
      <trkpt lat="42.383533" lon="2.495698">
        <ele>1134.444</ele>
        <time>2021-05-28T07:15:56Z</time>
      </trkpt>
      <trkpt lat="42.383553" lon="2.495675">
        <ele>1134.005</ele>
        <time>2021-05-28T07:15:58Z</time>
      </trkpt>
      <trkpt lat="42.383573" lon="2.495653">
        <ele>1133.615</ele>
        <time>2021-05-28T07:16:00Z</time>
      </trkpt>
      <trkpt lat="42.383585" lon="2.495627">
        <ele>1133.708</ele>
        <time>2021-05-28T07:16:02Z</time>
      </trkpt>
      <trkpt lat="42.383661" lon="2.495527">
        <ele>1132.921</ele>
        <time>2021-05-28T07:16:10Z</time>
      </trkpt>
      <trkpt lat="42.383717" lon="2.495405">
        <ele>1134.048</ele>
        <time>2021-05-28T07:16:16Z</time>
      </trkpt>
      <trkpt lat="42.383759" lon="2.495287">
        <ele>1135.449</ele>
        <time>2021-05-28T07:16:23Z</time>
      </trkpt>
      <trkpt lat="42.383839" lon="2.495192">
        <ele>1135.098</ele>
        <time>2021-05-28T07:16:28Z</time>
      </trkpt>
      <trkpt lat="42.383924" lon="2.495116">
        <ele>1134.795</ele>
        <time>2021-05-28T07:16:33Z</time>
      </trkpt>
      <trkpt lat="42.384025" lon="2.495095">
        <ele>1134.130</ele>
        <time>2021-05-28T07:16:43Z</time>
      </trkpt>
      <trkpt lat="42.384118" lon="2.495105">
        <ele>1132.887</ele>
        <time>2021-05-28T07:16:50Z</time>
      </trkpt>
      <trkpt lat="42.384209" lon="2.495115">
        <ele>1131.965</ele>
        <time>2021-05-28T07:17:01Z</time>
      </trkpt>
      <trkpt lat="42.384299" lon="2.495146">
        <ele>1131.083</ele>
        <time>2021-05-28T07:17:09Z</time>
      </trkpt>
      <trkpt lat="42.384395" lon="2.495133">
        <ele>1131.625</ele>
        <time>2021-05-28T07:17:14Z</time>
      </trkpt>
      <trkpt lat="42.384488" lon="2.495134">
        <ele>1133.117</ele>
        <time>2021-05-28T07:17:19Z</time>
      </trkpt>
      <trkpt lat="42.384584" lon="2.495143">
        <ele>1135.908</ele>
        <time>2021-05-28T07:17:24Z</time>
      </trkpt>
      <trkpt lat="42.384670" lon="2.495183">
        <ele>1137.445</ele>
        <time>2021-05-28T07:17:39Z</time>
      </trkpt>
      <trkpt lat="42.384699" lon="2.495310">
        <ele>1134.332</ele>
        <time>2021-05-28T07:17:45Z</time>
      </trkpt>
      <trkpt lat="42.384747" lon="2.495413">
        <ele>1132.373</ele>
        <time>2021-05-28T07:17:51Z</time>
      </trkpt>
      <trkpt lat="42.384803" lon="2.495533">
        <ele>1129.372</ele>
        <time>2021-05-28T07:17:57Z</time>
      </trkpt>
      <trkpt lat="42.384877" lon="2.495631">
        <ele>1126.719</ele>
        <time>2021-05-28T07:18:02Z</time>
      </trkpt>
      <trkpt lat="42.384962" lon="2.495678">
        <ele>1125.884</ele>
        <time>2021-05-28T07:18:07Z</time>
      </trkpt>
      <trkpt lat="42.385052" lon="2.495699">
        <ele>1124.381</ele>
        <time>2021-05-28T07:18:12Z</time>
      </trkpt>
      <trkpt lat="42.385145" lon="2.495703">
        <ele>1122.339</ele>
        <time>2021-05-28T07:18:16Z</time>
      </trkpt>
      <trkpt lat="42.385191" lon="2.495698">
        <ele>1121.642</ele>
        <time>2021-05-28T07:18:18Z</time>
      </trkpt>
      <trkpt lat="42.385211" lon="2.495693">
        <ele>1121.422</ele>
        <time>2021-05-28T07:18:19Z</time>
      </trkpt>
      <trkpt lat="42.385246" lon="2.495678">
        <ele>1121.214</ele>
        <time>2021-05-28T07:18:21Z</time>
      </trkpt>
      <trkpt lat="42.385276" lon="2.495675">
        <ele>1120.708</ele>
        <time>2021-05-28T07:18:23Z</time>
      </trkpt>
      <trkpt lat="42.385296" lon="2.495672">
        <ele>1120.331</ele>
        <time>2021-05-28T07:18:24Z</time>
      </trkpt>
      <trkpt lat="42.385322" lon="2.495667">
        <ele>1119.778</ele>
        <time>2021-05-28T07:18:25Z</time>
      </trkpt>
      <trkpt lat="42.385347" lon="2.495661">
        <ele>1119.289</ele>
        <time>2021-05-28T07:18:26Z</time>
      </trkpt>
      <trkpt lat="42.385368" lon="2.495659">
        <ele>1118.728</ele>
        <time>2021-05-28T07:18:27Z</time>
      </trkpt>
      <trkpt lat="42.385390" lon="2.495651">
        <ele>1118.355</ele>
        <time>2021-05-28T07:18:28Z</time>
      </trkpt>
      <trkpt lat="42.385414" lon="2.495638">
        <ele>1118.120</ele>
        <time>2021-05-28T07:18:29Z</time>
      </trkpt>
      <trkpt lat="42.385449" lon="2.495616">
        <ele>1117.967</ele>
        <time>2021-05-28T07:18:31Z</time>
      </trkpt>
      <trkpt lat="42.385470" lon="2.495609">
        <ele>1117.525</ele>
        <time>2021-05-28T07:18:32Z</time>
      </trkpt>
      <trkpt lat="42.385489" lon="2.495597">
        <ele>1117.471</ele>
        <time>2021-05-28T07:18:33Z</time>
      </trkpt>
      <trkpt lat="42.385526" lon="2.495571">
        <ele>1117.341</ele>
        <time>2021-05-28T07:18:35Z</time>
      </trkpt>
      <trkpt lat="42.385543" lon="2.495553">
        <ele>1117.515</ele>
        <time>2021-05-28T07:18:36Z</time>
      </trkpt>
      <trkpt lat="42.385576" lon="2.495531">
        <ele>1117.308</ele>
        <time>2021-05-28T07:18:38Z</time>
      </trkpt>
      <trkpt lat="42.385626" lon="2.495516">
        <ele>1116.444</ele>
        <time>2021-05-28T07:18:40Z</time>
      </trkpt>
      <trkpt lat="42.385654" lon="2.495509">
        <ele>1115.811</ele>
        <time>2021-05-28T07:18:41Z</time>
      </trkpt>
      <trkpt lat="42.385678" lon="2.495501">
        <ele>1115.452</ele>
        <time>2021-05-28T07:18:42Z</time>
      </trkpt>
      <trkpt lat="42.385701" lon="2.495493">
        <ele>1115.191</ele>
        <time>2021-05-28T07:18:43Z</time>
      </trkpt>
      <trkpt lat="42.385720" lon="2.495486">
        <ele>1114.838</ele>
        <time>2021-05-28T07:18:44Z</time>
      </trkpt>
      <trkpt lat="42.385743" lon="2.495472">
        <ele>1114.633</ele>
        <time>2021-05-28T07:18:45Z</time>
      </trkpt>
      <trkpt lat="42.385769" lon="2.495447">
        <ele>1114.840</ele>
        <time>2021-05-28T07:18:46Z</time>
      </trkpt>
      <trkpt lat="42.385788" lon="2.495430">
        <ele>1114.818</ele>
        <time>2021-05-28T07:18:47Z</time>
      </trkpt>
      <trkpt lat="42.385803" lon="2.495413">
        <ele>1115.055</ele>
        <time>2021-05-28T07:18:48Z</time>
      </trkpt>
      <trkpt lat="42.385837" lon="2.495388">
        <ele>1115.007</ele>
        <time>2021-05-28T07:18:50Z</time>
      </trkpt>
      <trkpt lat="42.385867" lon="2.495373">
        <ele>1115.217</ele>
        <time>2021-05-28T07:18:52Z</time>
      </trkpt>
      <trkpt lat="42.385895" lon="2.495365">
        <ele>1115.208</ele>
        <time>2021-05-28T07:18:54Z</time>
      </trkpt>
      <trkpt lat="42.385915" lon="2.495362">
        <ele>1115.122</ele>
        <time>2021-05-28T07:18:55Z</time>
      </trkpt>
      <trkpt lat="42.385942" lon="2.495359">
        <ele>1114.989</ele>
        <time>2021-05-28T07:18:56Z</time>
      </trkpt>
      <trkpt lat="42.385970" lon="2.495351">
        <ele>1114.960</ele>
        <time>2021-05-28T07:18:57Z</time>
      </trkpt>
      <trkpt lat="42.385991" lon="2.495347">
        <ele>1114.889</ele>
        <time>2021-05-28T07:18:58Z</time>
      </trkpt>
      <trkpt lat="42.386014" lon="2.495339">
        <ele>1114.876</ele>
        <time>2021-05-28T07:18:59Z</time>
      </trkpt>
      <trkpt lat="42.386040" lon="2.495332">
        <ele>1114.891</ele>
        <time>2021-05-28T07:19:00Z</time>
      </trkpt>
      <trkpt lat="42.386060" lon="2.495329">
        <ele>1114.728</ele>
        <time>2021-05-28T07:19:01Z</time>
      </trkpt>
      <trkpt lat="42.386084" lon="2.495317">
        <ele>1114.926</ele>
        <time>2021-05-28T07:19:02Z</time>
      </trkpt>
      <trkpt lat="42.386107" lon="2.495310">
        <ele>1114.961</ele>
        <time>2021-05-28T07:19:03Z</time>
      </trkpt>
      <trkpt lat="42.386128" lon="2.495308">
        <ele>1115.021</ele>
        <time>2021-05-28T07:19:04Z</time>
      </trkpt>
      <trkpt lat="42.386147" lon="2.495307">
        <ele>1115.113</ele>
        <time>2021-05-28T07:19:05Z</time>
      </trkpt>
      <trkpt lat="42.386169" lon="2.495305">
        <ele>1115.208</ele>
        <time>2021-05-28T07:19:06Z</time>
      </trkpt>
      <trkpt lat="42.386196" lon="2.495298">
        <ele>1115.653</ele>
        <time>2021-05-28T07:19:07Z</time>
      </trkpt>
      <trkpt lat="42.386225" lon="2.495290">
        <ele>1116.080</ele>
        <time>2021-05-28T07:19:08Z</time>
      </trkpt>
      <trkpt lat="42.386299" lon="2.495267">
        <ele>1117.081</ele>
        <time>2021-05-28T07:19:11Z</time>
      </trkpt>
      <trkpt lat="42.386364" lon="2.495263">
        <ele>1117.390</ele>
        <time>2021-05-28T07:19:13Z</time>
      </trkpt>
      <trkpt lat="42.386435" lon="2.495255">
        <ele>1116.947</ele>
        <time>2021-05-28T07:19:16Z</time>
      </trkpt>
      <trkpt lat="42.386460" lon="2.495236">
        <ele>1116.962</ele>
        <time>2021-05-28T07:19:17Z</time>
      </trkpt>
      <trkpt lat="42.386484" lon="2.495230">
        <ele>1116.779</ele>
        <time>2021-05-28T07:19:18Z</time>
      </trkpt>
      <trkpt lat="42.386512" lon="2.495218">
        <ele>1116.477</ele>
        <time>2021-05-28T07:19:19Z</time>
      </trkpt>
      <trkpt lat="42.386533" lon="2.495211">
        <ele>1116.262</ele>
        <time>2021-05-28T07:19:20Z</time>
      </trkpt>
      <trkpt lat="42.386553" lon="2.495198">
        <ele>1116.183</ele>
        <time>2021-05-28T07:19:21Z</time>
      </trkpt>
      <trkpt lat="42.386575" lon="2.495187">
        <ele>1116.011</ele>
        <time>2021-05-28T07:19:22Z</time>
      </trkpt>
      <trkpt lat="42.386599" lon="2.495174">
        <ele>1115.708</ele>
        <time>2021-05-28T07:19:23Z</time>
      </trkpt>
      <trkpt lat="42.386620" lon="2.495165">
        <ele>1115.573</ele>
        <time>2021-05-28T07:19:24Z</time>
      </trkpt>
      <trkpt lat="42.386640" lon="2.495154">
        <ele>1115.380</ele>
        <time>2021-05-28T07:19:25Z</time>
      </trkpt>
      <trkpt lat="42.386657" lon="2.495146">
        <ele>1115.161</ele>
        <time>2021-05-28T07:19:26Z</time>
      </trkpt>
      <trkpt lat="42.386673" lon="2.495134">
        <ele>1114.920</ele>
        <time>2021-05-28T07:19:27Z</time>
      </trkpt>
      <trkpt lat="42.386691" lon="2.495115">
        <ele>1114.667</ele>
        <time>2021-05-28T07:19:28Z</time>
      </trkpt>
      <trkpt lat="42.386707" lon="2.495099">
        <ele>1114.322</ele>
        <time>2021-05-28T07:19:29Z</time>
      </trkpt>
      <trkpt lat="42.386723" lon="2.495081">
        <ele>1114.159</ele>
        <time>2021-05-28T07:19:30Z</time>
      </trkpt>
      <trkpt lat="42.386752" lon="2.495038">
        <ele>1113.747</ele>
        <time>2021-05-28T07:19:32Z</time>
      </trkpt>
      <trkpt lat="42.386778" lon="2.495007">
        <ele>1113.384</ele>
        <time>2021-05-28T07:19:34Z</time>
      </trkpt>
      <trkpt lat="42.386802" lon="2.494976">
        <ele>1112.907</ele>
        <time>2021-05-28T07:19:36Z</time>
      </trkpt>
      <trkpt lat="42.386817" lon="2.494961">
        <ele>1112.617</ele>
        <time>2021-05-28T07:19:37Z</time>
      </trkpt>
      <trkpt lat="42.386829" lon="2.494942">
        <ele>1112.508</ele>
        <time>2021-05-28T07:19:38Z</time>
      </trkpt>
      <trkpt lat="42.386851" lon="2.494905">
        <ele>1112.245</ele>
        <time>2021-05-28T07:19:40Z</time>
      </trkpt>
      <trkpt lat="42.386863" lon="2.494881">
        <ele>1112.082</ele>
        <time>2021-05-28T07:19:41Z</time>
      </trkpt>
      <trkpt lat="42.386877" lon="2.494857">
        <ele>1111.923</ele>
        <time>2021-05-28T07:19:42Z</time>
      </trkpt>
      <trkpt lat="42.386891" lon="2.494831">
        <ele>1111.732</ele>
        <time>2021-05-28T07:19:43Z</time>
      </trkpt>
      <trkpt lat="42.386899" lon="2.494809">
        <ele>1111.699</ele>
        <time>2021-05-28T07:19:44Z</time>
      </trkpt>
      <trkpt lat="42.386910" lon="2.494788">
        <ele>1111.514</ele>
        <time>2021-05-28T07:19:45Z</time>
      </trkpt>
      <trkpt lat="42.386925" lon="2.494765">
        <ele>1111.211</ele>
        <time>2021-05-28T07:19:46Z</time>
      </trkpt>
      <trkpt lat="42.386937" lon="2.494741">
        <ele>1111.179</ele>
        <time>2021-05-28T07:19:47Z</time>
      </trkpt>
      <trkpt lat="42.386954" lon="2.494711">
        <ele>1110.775</ele>
        <time>2021-05-28T07:19:48Z</time>
      </trkpt>
      <trkpt lat="42.386967" lon="2.494679">
        <ele>1110.528</ele>
        <time>2021-05-28T07:19:49Z</time>
      </trkpt>
      <trkpt lat="42.386977" lon="2.494647">
        <ele>1110.420</ele>
        <time>2021-05-28T07:19:50Z</time>
      </trkpt>
      <trkpt lat="42.386991" lon="2.494615">
        <ele>1110.208</ele>
        <time>2021-05-28T07:19:51Z</time>
      </trkpt>
      <trkpt lat="42.387004" lon="2.494587">
        <ele>1109.964</ele>
        <time>2021-05-28T07:19:52Z</time>
      </trkpt>
      <trkpt lat="42.387017" lon="2.494561">
        <ele>1109.721</ele>
        <time>2021-05-28T07:19:53Z</time>
      </trkpt>
      <trkpt lat="42.387026" lon="2.494540">
        <ele>1109.682</ele>
        <time>2021-05-28T07:19:54Z</time>
      </trkpt>
      <trkpt lat="42.387036" lon="2.494516">
        <ele>1109.471</ele>
        <time>2021-05-28T07:19:55Z</time>
      </trkpt>
      <trkpt lat="42.387051" lon="2.494488">
        <ele>1109.268</ele>
        <time>2021-05-28T07:19:56Z</time>
      </trkpt>
      <trkpt lat="42.387064" lon="2.494461">
        <ele>1109.033</ele>
        <time>2021-05-28T07:19:57Z</time>
      </trkpt>
      <trkpt lat="42.387076" lon="2.494436">
        <ele>1108.880</ele>
        <time>2021-05-28T07:19:58Z</time>
      </trkpt>
      <trkpt lat="42.387088" lon="2.494417">
        <ele>1108.588</ele>
        <time>2021-05-28T07:19:59Z</time>
      </trkpt>
      <trkpt lat="42.387100" lon="2.494377">
        <ele>1108.491</ele>
        <time>2021-05-28T07:20:01Z</time>
      </trkpt>
      <trkpt lat="42.387106" lon="2.494353">
        <ele>1108.481</ele>
        <time>2021-05-28T07:20:02Z</time>
      </trkpt>
      <trkpt lat="42.387111" lon="2.494324">
        <ele>1108.519</ele>
        <time>2021-05-28T07:20:03Z</time>
      </trkpt>
      <trkpt lat="42.387123" lon="2.494299">
        <ele>1108.308</ele>
        <time>2021-05-28T07:20:04Z</time>
      </trkpt>
      <trkpt lat="42.387131" lon="2.494272">
        <ele>1108.236</ele>
        <time>2021-05-28T07:20:05Z</time>
      </trkpt>
      <trkpt lat="42.387140" lon="2.494244">
        <ele>1108.173</ele>
        <time>2021-05-28T07:20:06Z</time>
      </trkpt>
      <trkpt lat="42.387150" lon="2.494215">
        <ele>1108.034</ele>
        <time>2021-05-28T07:20:07Z</time>
      </trkpt>
      <trkpt lat="42.387162" lon="2.494188">
        <ele>1107.853</ele>
        <time>2021-05-28T07:20:08Z</time>
      </trkpt>
      <trkpt lat="42.387171" lon="2.494150">
        <ele>1107.710</ele>
        <time>2021-05-28T07:20:10Z</time>
      </trkpt>
      <trkpt lat="42.387167" lon="2.494110">
        <ele>1108.095</ele>
        <time>2021-05-28T07:20:12Z</time>
      </trkpt>
      <trkpt lat="42.387163" lon="2.494081">
        <ele>1108.332</ele>
        <time>2021-05-28T07:20:13Z</time>
      </trkpt>
      <trkpt lat="42.387160" lon="2.494051">
        <ele>1108.570</ele>
        <time>2021-05-28T07:20:14Z</time>
      </trkpt>
      <trkpt lat="42.387159" lon="2.494027">
        <ele>1108.774</ele>
        <time>2021-05-28T07:20:15Z</time>
      </trkpt>
      <trkpt lat="42.387152" lon="2.493989">
        <ele>1109.156</ele>
        <time>2021-05-28T07:20:17Z</time>
      </trkpt>
      <trkpt lat="42.387146" lon="2.493860">
        <ele>1110.021</ele>
        <time>2021-05-28T07:20:23Z</time>
      </trkpt>
      <trkpt lat="42.387174" lon="2.493780">
        <ele>1109.808</ele>
        <time>2021-05-28T07:20:27Z</time>
      </trkpt>
      <trkpt lat="42.387194" lon="2.493765">
        <ele>1109.394</ele>
        <time>2021-05-28T07:20:29Z</time>
      </trkpt>
      <trkpt lat="42.387214" lon="2.493758">
        <ele>1108.781</ele>
        <time>2021-05-28T07:20:31Z</time>
      </trkpt>
      <trkpt lat="42.387245" lon="2.493742">
        <ele>1107.792</ele>
        <time>2021-05-28T07:20:33Z</time>
      </trkpt>
      <trkpt lat="42.387279" lon="2.493726">
        <ele>1106.781</ele>
        <time>2021-05-28T07:20:35Z</time>
      </trkpt>
      <trkpt lat="42.387296" lon="2.493713">
        <ele>1106.388</ele>
        <time>2021-05-28T07:20:36Z</time>
      </trkpt>
      <trkpt lat="42.387314" lon="2.493702">
        <ele>1105.883</ele>
        <time>2021-05-28T07:20:37Z</time>
      </trkpt>
      <trkpt lat="42.387333" lon="2.493700">
        <ele>1105.250</ele>
        <time>2021-05-28T07:20:38Z</time>
      </trkpt>
      <trkpt lat="42.387351" lon="2.493694">
        <ele>1104.768</ele>
        <time>2021-05-28T07:20:39Z</time>
      </trkpt>
      <trkpt lat="42.387374" lon="2.493681">
        <ele>1104.211</ele>
        <time>2021-05-28T07:20:40Z</time>
      </trkpt>
      <trkpt lat="42.387395" lon="2.493672">
        <ele>1103.721</ele>
        <time>2021-05-28T07:20:41Z</time>
      </trkpt>
      <trkpt lat="42.387416" lon="2.493666">
        <ele>1103.103</ele>
        <time>2021-05-28T07:20:42Z</time>
      </trkpt>
      <trkpt lat="42.387435" lon="2.493657">
        <ele>1102.708</ele>
        <time>2021-05-28T07:20:43Z</time>
      </trkpt>
      <trkpt lat="42.387458" lon="2.493644">
        <ele>1102.488</ele>
        <time>2021-05-28T07:20:44Z</time>
      </trkpt>
      <trkpt lat="42.387488" lon="2.493627">
        <ele>1101.965</ele>
        <time>2021-05-28T07:20:45Z</time>
      </trkpt>
      <trkpt lat="42.387515" lon="2.493609">
        <ele>1101.746</ele>
        <time>2021-05-28T07:20:46Z</time>
      </trkpt>
      <trkpt lat="42.387553" lon="2.493577">
        <ele>1101.465</ele>
        <time>2021-05-28T07:20:47Z</time>
      </trkpt>
      <trkpt lat="42.387585" lon="2.493549">
        <ele>1101.182</ele>
        <time>2021-05-28T07:20:48Z</time>
      </trkpt>
      <trkpt lat="42.387608" lon="2.493532">
        <ele>1100.917</ele>
        <time>2021-05-28T07:20:49Z</time>
      </trkpt>
      <trkpt lat="42.387624" lon="2.493516">
        <ele>1100.854</ele>
        <time>2021-05-28T07:20:50Z</time>
      </trkpt>
      <trkpt lat="42.387640" lon="2.493500">
        <ele>1100.792</ele>
        <time>2021-05-28T07:20:51Z</time>
      </trkpt>
      <trkpt lat="42.387662" lon="2.493470">
        <ele>1100.735</ele>
        <time>2021-05-28T07:20:53Z</time>
      </trkpt>
      <trkpt lat="42.387676" lon="2.493452">
        <ele>1100.686</ele>
        <time>2021-05-28T07:20:54Z</time>
      </trkpt>
      <trkpt lat="42.387699" lon="2.493418">
        <ele>1100.714</ele>
        <time>2021-05-28T07:20:56Z</time>
      </trkpt>
      <trkpt lat="42.387711" lon="2.493398">
        <ele>1100.708</ele>
        <time>2021-05-28T07:20:57Z</time>
      </trkpt>
      <trkpt lat="42.387724" lon="2.493367">
        <ele>1100.930</ele>
        <time>2021-05-28T07:20:58Z</time>
      </trkpt>
      <trkpt lat="42.387735" lon="2.493340">
        <ele>1101.147</ele>
        <time>2021-05-28T07:20:59Z</time>
      </trkpt>
      <trkpt lat="42.387744" lon="2.493318">
        <ele>1101.298</ele>
        <time>2021-05-28T07:21:00Z</time>
      </trkpt>
      <trkpt lat="42.387756" lon="2.493278">
        <ele>1101.467</ele>
        <time>2021-05-28T07:21:02Z</time>
      </trkpt>
      <trkpt lat="42.387767" lon="2.493255">
        <ele>1101.444</ele>
        <time>2021-05-28T07:21:03Z</time>
      </trkpt>
      <trkpt lat="42.387782" lon="2.493229">
        <ele>1101.389</ele>
        <time>2021-05-28T07:21:04Z</time>
      </trkpt>
      <trkpt lat="42.387794" lon="2.493208">
        <ele>1101.126</ele>
        <time>2021-05-28T07:21:05Z</time>
      </trkpt>
      <trkpt lat="42.387800" lon="2.493184">
        <ele>1101.194</ele>
        <time>2021-05-28T07:21:06Z</time>
      </trkpt>
      <trkpt lat="42.387808" lon="2.493161">
        <ele>1101.088</ele>
        <time>2021-05-28T07:21:07Z</time>
      </trkpt>
      <trkpt lat="42.387821" lon="2.493134">
        <ele>1100.824</ele>
        <time>2021-05-28T07:21:08Z</time>
      </trkpt>
      <trkpt lat="42.387833" lon="2.493108">
        <ele>1100.526</ele>
        <time>2021-05-28T07:21:09Z</time>
      </trkpt>
      <trkpt lat="42.387845" lon="2.493079">
        <ele>1100.308</ele>
        <time>2021-05-28T07:21:10Z</time>
      </trkpt>
      <trkpt lat="42.387874" lon="2.493013">
        <ele>1099.655</ele>
        <time>2021-05-28T07:21:12Z</time>
      </trkpt>
      <trkpt lat="42.387888" lon="2.492983">
        <ele>1099.212</ele>
        <time>2021-05-28T07:21:13Z</time>
      </trkpt>
      <trkpt lat="42.387903" lon="2.492957">
        <ele>1098.823</ele>
        <time>2021-05-28T07:21:14Z</time>
      </trkpt>
      <trkpt lat="42.387914" lon="2.492932">
        <ele>1098.512</ele>
        <time>2021-05-28T07:21:15Z</time>
      </trkpt>
      <trkpt lat="42.387932" lon="2.492898">
        <ele>1097.959</ele>
        <time>2021-05-28T07:21:17Z</time>
      </trkpt>
      <trkpt lat="42.387946" lon="2.492880">
        <ele>1097.454</ele>
        <time>2021-05-28T07:21:18Z</time>
      </trkpt>
      <trkpt lat="42.387959" lon="2.492862">
        <ele>1097.011</ele>
        <time>2021-05-28T07:21:19Z</time>
      </trkpt>
      <trkpt lat="42.387976" lon="2.492839">
        <ele>1096.379</ele>
        <time>2021-05-28T07:21:21Z</time>
      </trkpt>
      <trkpt lat="42.387988" lon="2.492810">
        <ele>1096.178</ele>
        <time>2021-05-28T07:21:23Z</time>
      </trkpt>
      <trkpt lat="42.388008" lon="2.492766">
        <ele>1095.533</ele>
        <time>2021-05-28T07:21:26Z</time>
      </trkpt>
      <trkpt lat="42.388024" lon="2.492732">
        <ele>1095.126</ele>
        <time>2021-05-28T07:21:28Z</time>
      </trkpt>
      <trkpt lat="42.388058" lon="2.492655">
        <ele>1094.208</ele>
        <time>2021-05-28T07:21:33Z</time>
      </trkpt>
      <trkpt lat="42.388070" lon="2.492624">
        <ele>1094.144</ele>
        <time>2021-05-28T07:21:35Z</time>
      </trkpt>
      <trkpt lat="42.388080" lon="2.492596">
        <ele>1094.181</ele>
        <time>2021-05-28T07:21:37Z</time>
      </trkpt>
      <trkpt lat="42.388100" lon="2.492584">
        <ele>1093.552</ele>
        <time>2021-05-28T07:21:40Z</time>
      </trkpt>
      <trkpt lat="42.388116" lon="2.492566">
        <ele>1093.271</ele>
        <time>2021-05-28T07:21:42Z</time>
      </trkpt>
      <trkpt lat="42.388138" lon="2.492544">
        <ele>1092.718</ele>
        <time>2021-05-28T07:21:45Z</time>
      </trkpt>
      <trkpt lat="42.388164" lon="2.492532">
        <ele>1092.023</ele>
        <time>2021-05-28T07:21:48Z</time>
      </trkpt>
      <trkpt lat="42.388182" lon="2.492531">
        <ele>1091.480</ele>
        <time>2021-05-28T07:21:50Z</time>
      </trkpt>
      <trkpt lat="42.388210" lon="2.492511">
        <ele>1090.868</ele>
        <time>2021-05-28T07:21:52Z</time>
      </trkpt>
      <trkpt lat="42.388228" lon="2.492495">
        <ele>1090.656</ele>
        <time>2021-05-28T07:21:54Z</time>
      </trkpt>
      <trkpt lat="42.388242" lon="2.492470">
        <ele>1090.959</ele>
        <time>2021-05-28T07:21:56Z</time>
      </trkpt>
      <trkpt lat="42.388281" lon="2.492410">
        <ele>1091.614</ele>
        <time>2021-05-28T07:22:00Z</time>
      </trkpt>
      <trkpt lat="42.388318" lon="2.492386">
        <ele>1091.208</ele>
        <time>2021-05-28T07:22:03Z</time>
      </trkpt>
      <trkpt lat="42.388356" lon="2.492373">
        <ele>1090.952</ele>
        <time>2021-05-28T07:22:05Z</time>
      </trkpt>
      <trkpt lat="42.388377" lon="2.492360">
        <ele>1091.149</ele>
        <time>2021-05-28T07:22:06Z</time>
      </trkpt>
      <trkpt lat="42.388398" lon="2.492345">
        <ele>1091.580</ele>
        <time>2021-05-28T07:22:07Z</time>
      </trkpt>
      <trkpt lat="42.388422" lon="2.492331">
        <ele>1091.799</ele>
        <time>2021-05-28T07:22:08Z</time>
      </trkpt>
      <trkpt lat="42.388440" lon="2.492324">
        <ele>1091.896</ele>
        <time>2021-05-28T07:22:09Z</time>
      </trkpt>
      <trkpt lat="42.388498" lon="2.492309">
        <ele>1091.841</ele>
        <time>2021-05-28T07:22:12Z</time>
      </trkpt>
      <trkpt lat="42.388547" lon="2.492317">
        <ele>1091.168</ele>
        <time>2021-05-28T07:22:15Z</time>
      </trkpt>
      <trkpt lat="42.388569" lon="2.492319">
        <ele>1090.926</ele>
        <time>2021-05-28T07:22:16Z</time>
      </trkpt>
      <trkpt lat="42.388605" lon="2.492314">
        <ele>1090.717</ele>
        <time>2021-05-28T07:22:18Z</time>
      </trkpt>
      <trkpt lat="42.388642" lon="2.492304">
        <ele>1090.787</ele>
        <time>2021-05-28T07:22:20Z</time>
      </trkpt>
      <trkpt lat="42.388692" lon="2.492288">
        <ele>1090.515</ele>
        <time>2021-05-28T07:22:23Z</time>
      </trkpt>
      <trkpt lat="42.388716" lon="2.492287">
        <ele>1090.208</ele>
        <time>2021-05-28T07:22:25Z</time>
      </trkpt>
      <trkpt lat="42.388737" lon="2.492282">
        <ele>1090.158</ele>
        <time>2021-05-28T07:22:28Z</time>
      </trkpt>
      <trkpt lat="42.388759" lon="2.492266">
        <ele>1090.215</ele>
        <time>2021-05-28T07:22:30Z</time>
      </trkpt>
      <trkpt lat="42.388828" lon="2.492161">
        <ele>1091.376</ele>
        <time>2021-05-28T07:22:42Z</time>
      </trkpt>
      <trkpt lat="42.388915" lon="2.492097">
        <ele>1090.365</ele>
        <time>2021-05-28T07:22:49Z</time>
      </trkpt>
      <trkpt lat="42.388973" lon="2.492001">
        <ele>1090.152</ele>
        <time>2021-05-28T07:22:55Z</time>
      </trkpt>
      <trkpt lat="42.389041" lon="2.491920">
        <ele>1089.787</ele>
        <time>2021-05-28T07:23:03Z</time>
      </trkpt>
      <trkpt lat="42.389123" lon="2.491868">
        <ele>1088.854</ele>
        <time>2021-05-28T07:23:09Z</time>
      </trkpt>
      <trkpt lat="42.389143" lon="2.491864">
        <ele>1088.352</ele>
        <time>2021-05-28T07:23:11Z</time>
      </trkpt>
      <trkpt lat="42.389161" lon="2.491886">
        <ele>1087.145</ele>
        <time>2021-05-28T07:23:15Z</time>
      </trkpt>
      <trkpt lat="42.389177" lon="2.491909">
        <ele>1086.147</ele>
        <time>2021-05-28T07:23:17Z</time>
      </trkpt>
      <trkpt lat="42.389198" lon="2.491934">
        <ele>1085.211</ele>
        <time>2021-05-28T07:23:19Z</time>
      </trkpt>
      <trkpt lat="42.389220" lon="2.491952">
        <ele>1084.608</ele>
        <time>2021-05-28T07:23:21Z</time>
      </trkpt>
      <trkpt lat="42.389243" lon="2.491969">
        <ele>1083.931</ele>
        <time>2021-05-28T07:23:23Z</time>
      </trkpt>
      <trkpt lat="42.389276" lon="2.491981">
        <ele>1083.488</ele>
        <time>2021-05-28T07:23:25Z</time>
      </trkpt>
      <trkpt lat="42.389311" lon="2.491999">
        <ele>1082.689</ele>
        <time>2021-05-28T07:23:27Z</time>
      </trkpt>
      <trkpt lat="42.389329" lon="2.492008">
        <ele>1082.218</ele>
        <time>2021-05-28T07:23:28Z</time>
      </trkpt>
      <trkpt lat="42.389361" lon="2.492024">
        <ele>1081.435</ele>
        <time>2021-05-28T07:23:30Z</time>
      </trkpt>
      <trkpt lat="42.389379" lon="2.492036">
        <ele>1080.860</ele>
        <time>2021-05-28T07:23:32Z</time>
      </trkpt>
      <trkpt lat="42.389406" lon="2.492036">
        <ele>1080.727</ele>
        <time>2021-05-28T07:23:34Z</time>
      </trkpt>
      <trkpt lat="42.389425" lon="2.492032">
        <ele>1080.735</ele>
        <time>2021-05-28T07:23:36Z</time>
      </trkpt>
      <trkpt lat="42.389445" lon="2.492034">
        <ele>1080.424</ele>
        <time>2021-05-28T07:23:38Z</time>
      </trkpt>
      <trkpt lat="42.389473" lon="2.492034">
        <ele>1079.704</ele>
        <time>2021-05-28T07:23:40Z</time>
      </trkpt>
      <trkpt lat="42.389508" lon="2.492023">
        <ele>1079.114</ele>
        <time>2021-05-28T07:23:42Z</time>
      </trkpt>
      <trkpt lat="42.389529" lon="2.492018">
        <ele>1078.708</ele>
        <time>2021-05-28T07:23:43Z</time>
      </trkpt>
      <trkpt lat="42.389549" lon="2.492008">
        <ele>1078.489</ele>
        <time>2021-05-28T07:23:44Z</time>
      </trkpt>
      <trkpt lat="42.389578" lon="2.491987">
        <ele>1078.376</ele>
        <time>2021-05-28T07:23:46Z</time>
      </trkpt>
      <trkpt lat="42.389591" lon="2.491966">
        <ele>1078.677</ele>
        <time>2021-05-28T07:23:48Z</time>
      </trkpt>
      <trkpt lat="42.389615" lon="2.491957">
        <ele>1078.166</ele>
        <time>2021-05-28T07:23:50Z</time>
      </trkpt>
      <trkpt lat="42.389633" lon="2.491950">
        <ele>1077.743</ele>
        <time>2021-05-28T07:23:51Z</time>
      </trkpt>
      <trkpt lat="42.389656" lon="2.491937">
        <ele>1077.468</ele>
        <time>2021-05-28T07:23:52Z</time>
      </trkpt>
      <trkpt lat="42.389677" lon="2.491925">
        <ele>1077.255</ele>
        <time>2021-05-28T07:23:53Z</time>
      </trkpt>
      <trkpt lat="42.389692" lon="2.491912">
        <ele>1077.123</ele>
        <time>2021-05-28T07:23:54Z</time>
      </trkpt>
      <trkpt lat="42.389709" lon="2.491895">
        <ele>1077.296</ele>
        <time>2021-05-28T07:23:55Z</time>
      </trkpt>
      <trkpt lat="42.389725" lon="2.491877">
        <ele>1077.431</ele>
        <time>2021-05-28T07:23:56Z</time>
      </trkpt>
      <trkpt lat="42.389738" lon="2.491858">
        <ele>1077.824</ele>
        <time>2021-05-28T07:23:57Z</time>
      </trkpt>
      <trkpt lat="42.389756" lon="2.491837">
        <ele>1078.308</ele>
        <time>2021-05-28T07:23:58Z</time>
      </trkpt>
      <trkpt lat="42.389771" lon="2.491823">
        <ele>1078.676</ele>
        <time>2021-05-28T07:23:59Z</time>
      </trkpt>
      <trkpt lat="42.389785" lon="2.491801">
        <ele>1079.273</ele>
        <time>2021-05-28T07:24:00Z</time>
      </trkpt>
      <trkpt lat="42.389800" lon="2.491785">
        <ele>1079.574</ele>
        <time>2021-05-28T07:24:01Z</time>
      </trkpt>
      <trkpt lat="42.389818" lon="2.491767">
        <ele>1079.953</ele>
        <time>2021-05-28T07:24:02Z</time>
      </trkpt>
      <trkpt lat="42.389837" lon="2.491752">
        <ele>1080.140</ele>
        <time>2021-05-28T07:24:03Z</time>
      </trkpt>
      <trkpt lat="42.389866" lon="2.491732">
        <ele>1080.565</ele>
        <time>2021-05-28T07:24:05Z</time>
      </trkpt>
      <trkpt lat="42.389892" lon="2.491718">
        <ele>1080.622</ele>
        <time>2021-05-28T07:24:07Z</time>
      </trkpt>
      <trkpt lat="42.389926" lon="2.491707">
        <ele>1080.580</ele>
        <time>2021-05-28T07:24:09Z</time>
      </trkpt>
      <trkpt lat="42.389949" lon="2.491700">
        <ele>1080.437</ele>
        <time>2021-05-28T07:24:10Z</time>
      </trkpt>
      <trkpt lat="42.389966" lon="2.491693">
        <ele>1080.549</ele>
        <time>2021-05-28T07:24:11Z</time>
      </trkpt>
      <trkpt lat="42.389987" lon="2.491685">
        <ele>1080.513</ele>
        <time>2021-05-28T07:24:13Z</time>
      </trkpt>
      <trkpt lat="42.390038" lon="2.491688">
        <ele>1079.508</ele>
        <time>2021-05-28T07:24:17Z</time>
      </trkpt>
      <trkpt lat="42.390059" lon="2.491682">
        <ele>1079.380</ele>
        <time>2021-05-28T07:24:18Z</time>
      </trkpt>
      <trkpt lat="42.390091" lon="2.491661">
        <ele>1079.687</ele>
        <time>2021-05-28T07:24:20Z</time>
      </trkpt>
      <trkpt lat="42.390114" lon="2.491646">
        <ele>1079.628</ele>
        <time>2021-05-28T07:24:22Z</time>
      </trkpt>
      <trkpt lat="42.390124" lon="2.491624">
        <ele>1080.267</ele>
        <time>2021-05-28T07:24:25Z</time>
      </trkpt>
      <trkpt lat="42.390136" lon="2.491605">
        <ele>1080.714</ele>
        <time>2021-05-28T07:24:26Z</time>
      </trkpt>
      <trkpt lat="42.390153" lon="2.491582">
        <ele>1081.289</ele>
        <time>2021-05-28T07:24:29Z</time>
      </trkpt>
      <trkpt lat="42.390170" lon="2.491572">
        <ele>1081.286</ele>
        <time>2021-05-28T07:24:31Z</time>
      </trkpt>
      <trkpt lat="42.390192" lon="2.491557">
        <ele>1081.454</ele>
        <time>2021-05-28T07:24:33Z</time>
      </trkpt>
      <trkpt lat="42.390212" lon="2.491543">
        <ele>1081.539</ele>
        <time>2021-05-28T07:24:35Z</time>
      </trkpt>
      <trkpt lat="42.390238" lon="2.491538">
        <ele>1081.301</ele>
        <time>2021-05-28T07:24:37Z</time>
      </trkpt>
      <trkpt lat="42.390264" lon="2.491526">
        <ele>1081.321</ele>
        <time>2021-05-28T07:24:39Z</time>
      </trkpt>
      <trkpt lat="42.390292" lon="2.491522">
        <ele>1080.808</ele>
        <time>2021-05-28T07:24:41Z</time>
      </trkpt>
      <trkpt lat="42.390321" lon="2.491503">
        <ele>1080.890</ele>
        <time>2021-05-28T07:24:43Z</time>
      </trkpt>
      <trkpt lat="42.390341" lon="2.491492">
        <ele>1080.637</ele>
        <time>2021-05-28T07:24:44Z</time>
      </trkpt>
      <trkpt lat="42.390370" lon="2.491472">
        <ele>1080.638</ele>
        <time>2021-05-28T07:24:46Z</time>
      </trkpt>
      <trkpt lat="42.390392" lon="2.491452">
        <ele>1080.697</ele>
        <time>2021-05-28T07:24:48Z</time>
      </trkpt>
      <trkpt lat="42.390421" lon="2.491443">
        <ele>1080.154</ele>
        <time>2021-05-28T07:24:50Z</time>
      </trkpt>
      <trkpt lat="42.390439" lon="2.491424">
        <ele>1080.229</ele>
        <time>2021-05-28T07:24:52Z</time>
      </trkpt>
      <trkpt lat="42.390463" lon="2.491411">
        <ele>1080.046</ele>
        <time>2021-05-28T07:24:55Z</time>
      </trkpt>
      <trkpt lat="42.390484" lon="2.491387">
        <ele>1080.114</ele>
        <time>2021-05-28T07:25:00Z</time>
      </trkpt>
      <trkpt lat="42.390507" lon="2.491380">
        <ele>1079.671</ele>
        <time>2021-05-28T07:25:03Z</time>
      </trkpt>
      <trkpt lat="42.390529" lon="2.491371">
        <ele>1079.341</ele>
        <time>2021-05-28T07:25:06Z</time>
      </trkpt>
      <trkpt lat="42.390545" lon="2.491361">
        <ele>1079.115</ele>
        <time>2021-05-28T07:25:08Z</time>
      </trkpt>
      <trkpt lat="42.390567" lon="2.491356">
        <ele>1078.808</ele>
        <time>2021-05-28T07:25:11Z</time>
      </trkpt>
      <trkpt lat="42.390586" lon="2.491363">
        <ele>1078.214</ele>
        <time>2021-05-28T07:25:13Z</time>
      </trkpt>
      <trkpt lat="42.390619" lon="2.491371">
        <ele>1077.481</ele>
        <time>2021-05-28T07:25:15Z</time>
      </trkpt>
      <trkpt lat="42.390642" lon="2.491348">
        <ele>1077.792</ele>
        <time>2021-05-28T07:25:17Z</time>
      </trkpt>
      <trkpt lat="42.390661" lon="2.491336">
        <ele>1077.891</ele>
        <time>2021-05-28T07:25:19Z</time>
      </trkpt>
      <trkpt lat="42.390687" lon="2.491321">
        <ele>1077.838</ele>
        <time>2021-05-28T07:25:22Z</time>
      </trkpt>
      <trkpt lat="42.390715" lon="2.491301">
        <ele>1078.053</ele>
        <time>2021-05-28T07:25:24Z</time>
      </trkpt>
      <trkpt lat="42.390740" lon="2.491285">
        <ele>1078.280</ele>
        <time>2021-05-28T07:25:26Z</time>
      </trkpt>
      <trkpt lat="42.390767" lon="2.491267">
        <ele>1078.418</ele>
        <time>2021-05-28T07:25:28Z</time>
      </trkpt>
      <trkpt lat="42.390789" lon="2.491249">
        <ele>1078.766</ele>
        <time>2021-05-28T07:25:30Z</time>
      </trkpt>
      <trkpt lat="42.390806" lon="2.491238">
        <ele>1078.829</ele>
        <time>2021-05-28T07:25:31Z</time>
      </trkpt>
      <trkpt lat="42.390824" lon="2.491227">
        <ele>1079.021</ele>
        <time>2021-05-28T07:25:32Z</time>
      </trkpt>
      <trkpt lat="42.390857" lon="2.491216">
        <ele>1078.908</ele>
        <time>2021-05-28T07:25:34Z</time>
      </trkpt>
      <trkpt lat="42.390875" lon="2.491211">
        <ele>1078.973</ele>
        <time>2021-05-28T07:25:35Z</time>
      </trkpt>
      <trkpt lat="42.390908" lon="2.491194">
        <ele>1079.060</ele>
        <time>2021-05-28T07:25:37Z</time>
      </trkpt>
      <trkpt lat="42.390939" lon="2.491176">
        <ele>1079.251</ele>
        <time>2021-05-28T07:25:39Z</time>
      </trkpt>
      <trkpt lat="42.390955" lon="2.491166">
        <ele>1079.460</ele>
        <time>2021-05-28T07:25:40Z</time>
      </trkpt>
      <trkpt lat="42.390982" lon="2.491161">
        <ele>1079.297</ele>
        <time>2021-05-28T07:25:42Z</time>
      </trkpt>
      <trkpt lat="42.391009" lon="2.491161">
        <ele>1078.842</ele>
        <time>2021-05-28T07:25:44Z</time>
      </trkpt>
      <trkpt lat="42.391039" lon="2.491151">
        <ele>1078.779</ele>
        <time>2021-05-28T07:25:46Z</time>
      </trkpt>
      <trkpt lat="42.391069" lon="2.491135">
        <ele>1078.877</ele>
        <time>2021-05-28T07:25:48Z</time>
      </trkpt>
      <trkpt lat="42.391088" lon="2.491126">
        <ele>1078.819</ele>
        <time>2021-05-28T07:25:49Z</time>
      </trkpt>
      <trkpt lat="42.391141" lon="2.491096">
        <ele>1079.109</ele>
        <time>2021-05-28T07:25:52Z</time>
      </trkpt>
      <trkpt lat="42.391175" lon="2.491077">
        <ele>1079.219</ele>
        <time>2021-05-28T07:25:54Z</time>
      </trkpt>
      <trkpt lat="42.391192" lon="2.491069">
        <ele>1079.308</ele>
        <time>2021-05-28T07:25:55Z</time>
      </trkpt>
      <trkpt lat="42.391210" lon="2.491063">
        <ele>1079.278</ele>
        <time>2021-05-28T07:25:56Z</time>
      </trkpt>
      <trkpt lat="42.391231" lon="2.491057">
        <ele>1079.145</ele>
        <time>2021-05-28T07:25:57Z</time>
      </trkpt>
      <trkpt lat="42.391250" lon="2.491050">
        <ele>1079.056</ele>
        <time>2021-05-28T07:25:58Z</time>
      </trkpt>
      <trkpt lat="42.391279" lon="2.491041">
        <ele>1078.915</ele>
        <time>2021-05-28T07:26:00Z</time>
      </trkpt>
      <trkpt lat="42.391303" lon="2.491030">
        <ele>1078.972</ele>
        <time>2021-05-28T07:26:02Z</time>
      </trkpt>
      <trkpt lat="42.391330" lon="2.491022">
        <ele>1078.737</ele>
        <time>2021-05-28T07:26:04Z</time>
      </trkpt>
      <trkpt lat="42.391358" lon="2.491019">
        <ele>1078.484</ele>
        <time>2021-05-28T07:26:06Z</time>
      </trkpt>
      <trkpt lat="42.391381" lon="2.491020">
        <ele>1078.122</ele>
        <time>2021-05-28T07:26:09Z</time>
      </trkpt>
      <trkpt lat="42.391402" lon="2.491011">
        <ele>1078.068</ele>
        <time>2021-05-28T07:26:11Z</time>
      </trkpt>
      <trkpt lat="42.391425" lon="2.490992">
        <ele>1078.142</ele>
        <time>2021-05-28T07:26:13Z</time>
      </trkpt>
      <trkpt lat="42.391446" lon="2.490988">
        <ele>1077.926</ele>
        <time>2021-05-28T07:26:15Z</time>
      </trkpt>
      <trkpt lat="42.391468" lon="2.490990">
        <ele>1077.508</ele>
        <time>2021-05-28T07:26:18Z</time>
      </trkpt>
      <trkpt lat="42.391487" lon="2.490962">
        <ele>1077.833</ele>
        <time>2021-05-28T07:26:24Z</time>
      </trkpt>
      <trkpt lat="42.391506" lon="2.490944">
        <ele>1077.890</ele>
        <time>2021-05-28T07:26:26Z</time>
      </trkpt>
      <trkpt lat="42.391528" lon="2.490933">
        <ele>1077.741</ele>
        <time>2021-05-28T07:26:28Z</time>
      </trkpt>
      <trkpt lat="42.391554" lon="2.490929">
        <ele>1077.440</ele>
        <time>2021-05-28T07:26:30Z</time>
      </trkpt>
      <trkpt lat="42.391581" lon="2.490932">
        <ele>1076.927</ele>
        <time>2021-05-28T07:26:32Z</time>
      </trkpt>
      <trkpt lat="42.391609" lon="2.490935">
        <ele>1076.492</ele>
        <time>2021-05-28T07:26:34Z</time>
      </trkpt>
      <trkpt lat="42.391634" lon="2.490933">
        <ele>1076.189</ele>
        <time>2021-05-28T07:26:36Z</time>
      </trkpt>
      <trkpt lat="42.391657" lon="2.490931">
        <ele>1075.767</ele>
        <time>2021-05-28T07:26:38Z</time>
      </trkpt>
      <trkpt lat="42.391685" lon="2.490926">
        <ele>1075.435</ele>
        <time>2021-05-28T07:26:40Z</time>
      </trkpt>
      <trkpt lat="42.391711" lon="2.490913">
        <ele>1075.386</ele>
        <time>2021-05-28T07:26:42Z</time>
      </trkpt>
      <trkpt lat="42.391738" lon="2.490906">
        <ele>1075.014</ele>
        <time>2021-05-28T07:26:44Z</time>
      </trkpt>
      <trkpt lat="42.391771" lon="2.490901">
        <ele>1074.608</ele>
        <time>2021-05-28T07:26:46Z</time>
      </trkpt>
      <trkpt lat="42.391790" lon="2.490897">
        <ele>1074.420</ele>
        <time>2021-05-28T07:26:47Z</time>
      </trkpt>
      <trkpt lat="42.391827" lon="2.490886">
        <ele>1074.017</ele>
        <time>2021-05-28T07:26:49Z</time>
      </trkpt>
      <trkpt lat="42.391848" lon="2.490881">
        <ele>1073.868</ele>
        <time>2021-05-28T07:26:50Z</time>
      </trkpt>
      <trkpt lat="42.391866" lon="2.490875">
        <ele>1073.657</ele>
        <time>2021-05-28T07:26:51Z</time>
      </trkpt>
      <trkpt lat="42.391887" lon="2.490871">
        <ele>1073.424</ele>
        <time>2021-05-28T07:26:52Z</time>
      </trkpt>
      <trkpt lat="42.391922" lon="2.490872">
        <ele>1072.969</ele>
        <time>2021-05-28T07:26:54Z</time>
      </trkpt>
      <trkpt lat="42.391944" lon="2.490865">
        <ele>1072.796</ele>
        <time>2021-05-28T07:26:55Z</time>
      </trkpt>
      <trkpt lat="42.391965" lon="2.490859">
        <ele>1072.414</ele>
        <time>2021-05-28T07:26:56Z</time>
      </trkpt>
      <trkpt lat="42.391986" lon="2.490852">
        <ele>1072.022</ele>
        <time>2021-05-28T07:26:57Z</time>
      </trkpt>
      <trkpt lat="42.392004" lon="2.490846">
        <ele>1071.862</ele>
        <time>2021-05-28T07:26:58Z</time>
      </trkpt>
      <trkpt lat="42.392023" lon="2.490843">
        <ele>1071.508</ele>
        <time>2021-05-28T07:26:59Z</time>
      </trkpt>
      <trkpt lat="42.392059" lon="2.490843">
        <ele>1070.808</ele>
        <time>2021-05-28T07:27:01Z</time>
      </trkpt>
      <trkpt lat="42.392088" lon="2.490854">
        <ele>1070.289</ele>
        <time>2021-05-28T07:27:03Z</time>
      </trkpt>
      <trkpt lat="42.392117" lon="2.490851">
        <ele>1069.716</ele>
        <time>2021-05-28T07:27:05Z</time>
      </trkpt>
      <trkpt lat="42.392135" lon="2.490837">
        <ele>1069.577</ele>
        <time>2021-05-28T07:27:06Z</time>
      </trkpt>
      <trkpt lat="42.392169" lon="2.490821">
        <ele>1069.116</ele>
        <time>2021-05-28T07:27:08Z</time>
      </trkpt>
      <trkpt lat="42.392200" lon="2.490816">
        <ele>1068.633</ele>
        <time>2021-05-28T07:27:10Z</time>
      </trkpt>
      <trkpt lat="42.392221" lon="2.490796">
        <ele>1068.438</ele>
        <time>2021-05-28T07:27:12Z</time>
      </trkpt>
      <trkpt lat="42.392246" lon="2.490785">
        <ele>1068.015</ele>
        <time>2021-05-28T07:27:17Z</time>
      </trkpt>
      <trkpt lat="42.392264" lon="2.490759">
        <ele>1067.963</ele>
        <time>2021-05-28T07:27:19Z</time>
      </trkpt>
      <trkpt lat="42.392286" lon="2.490728">
        <ele>1067.829</ele>
        <time>2021-05-28T07:27:21Z</time>
      </trkpt>
      <trkpt lat="42.392315" lon="2.490697">
        <ele>1067.500</ele>
        <time>2021-05-28T07:27:23Z</time>
      </trkpt>
      <trkpt lat="42.392339" lon="2.490665">
        <ele>1067.320</ele>
        <time>2021-05-28T07:27:25Z</time>
      </trkpt>
      <trkpt lat="42.392353" lon="2.490626">
        <ele>1067.408</ele>
        <time>2021-05-28T07:27:27Z</time>
      </trkpt>
      <trkpt lat="42.392366" lon="2.490576">
        <ele>1067.789</ele>
        <time>2021-05-28T07:27:29Z</time>
      </trkpt>
      <trkpt lat="42.392375" lon="2.490550">
        <ele>1067.726</ele>
        <time>2021-05-28T07:27:30Z</time>
      </trkpt>
      <trkpt lat="42.392386" lon="2.490523">
        <ele>1067.767</ele>
        <time>2021-05-28T07:27:31Z</time>
      </trkpt>
      <trkpt lat="42.392393" lon="2.490498">
        <ele>1067.886</ele>
        <time>2021-05-28T07:27:32Z</time>
      </trkpt>
      <trkpt lat="42.392398" lon="2.490474">
        <ele>1067.953</ele>
        <time>2021-05-28T07:27:33Z</time>
      </trkpt>
      <trkpt lat="42.392406" lon="2.490450">
        <ele>1067.948</ele>
        <time>2021-05-28T07:27:34Z</time>
      </trkpt>
      <trkpt lat="42.392415" lon="2.490426">
        <ele>1067.925</ele>
        <time>2021-05-28T07:27:35Z</time>
      </trkpt>
      <trkpt lat="42.392425" lon="2.490397">
        <ele>1067.913</ele>
        <time>2021-05-28T07:27:36Z</time>
      </trkpt>
      <trkpt lat="42.392436" lon="2.490371">
        <ele>1067.935</ele>
        <time>2021-05-28T07:27:37Z</time>
      </trkpt>
      <trkpt lat="42.392450" lon="2.490346">
        <ele>1067.786</ele>
        <time>2021-05-28T07:27:38Z</time>
      </trkpt>
      <trkpt lat="42.392463" lon="2.490324">
        <ele>1067.614</ele>
        <time>2021-05-28T07:27:39Z</time>
      </trkpt>
      <trkpt lat="42.392472" lon="2.490300">
        <ele>1067.508</ele>
        <time>2021-05-28T07:27:40Z</time>
      </trkpt>
      <trkpt lat="42.392479" lon="2.490277">
        <ele>1067.550</ele>
        <time>2021-05-28T07:27:41Z</time>
      </trkpt>
      <trkpt lat="42.392488" lon="2.490254">
        <ele>1067.697</ele>
        <time>2021-05-28T07:27:42Z</time>
      </trkpt>
      <trkpt lat="42.392497" lon="2.490231">
        <ele>1067.638</ele>
        <time>2021-05-28T07:27:43Z</time>
      </trkpt>
      <trkpt lat="42.392515" lon="2.490196">
        <ele>1067.557</ele>
        <time>2021-05-28T07:27:45Z</time>
      </trkpt>
      <trkpt lat="42.392533" lon="2.490159">
        <ele>1067.564</ele>
        <time>2021-05-28T07:27:47Z</time>
      </trkpt>
      <trkpt lat="42.392553" lon="2.490128">
        <ele>1067.359</ele>
        <time>2021-05-28T07:27:49Z</time>
      </trkpt>
      <trkpt lat="42.392573" lon="2.490101">
        <ele>1067.186</ele>
        <time>2021-05-28T07:27:51Z</time>
      </trkpt>
      <trkpt lat="42.392593" lon="2.490081">
        <ele>1066.864</ele>
        <time>2021-05-28T07:27:53Z</time>
      </trkpt>
      <trkpt lat="42.392612" lon="2.490075">
        <ele>1066.493</ele>
        <time>2021-05-28T07:27:57Z</time>
      </trkpt>
      <trkpt lat="42.392633" lon="2.490056">
        <ele>1066.065</ele>
        <time>2021-05-28T07:28:00Z</time>
      </trkpt>
      <trkpt lat="42.392653" lon="2.490054">
        <ele>1065.621</ele>
        <time>2021-05-28T07:28:02Z</time>
      </trkpt>
      <trkpt lat="42.392675" lon="2.490048">
        <ele>1065.108</ele>
        <time>2021-05-28T07:28:04Z</time>
      </trkpt>
      <trkpt lat="42.392699" lon="2.490044">
        <ele>1064.526</ele>
        <time>2021-05-28T07:28:06Z</time>
      </trkpt>
      <trkpt lat="42.392723" lon="2.490046">
        <ele>1063.973</ele>
        <time>2021-05-28T07:28:08Z</time>
      </trkpt>
      <trkpt lat="42.392754" lon="2.490044">
        <ele>1063.184</ele>
        <time>2021-05-28T07:28:10Z</time>
      </trkpt>
      <trkpt lat="42.392783" lon="2.490036">
        <ele>1062.433</ele>
        <time>2021-05-28T07:28:12Z</time>
      </trkpt>
      <trkpt lat="42.392814" lon="2.490021">
        <ele>1061.390</ele>
        <time>2021-05-28T07:28:14Z</time>
      </trkpt>
      <trkpt lat="42.392844" lon="2.490011">
        <ele>1060.225</ele>
        <time>2021-05-28T07:28:16Z</time>
      </trkpt>
      <trkpt lat="42.392875" lon="2.490000">
        <ele>1059.242</ele>
        <time>2021-05-28T07:28:18Z</time>
      </trkpt>
      <trkpt lat="42.392893" lon="2.490001">
        <ele>1058.430</ele>
        <time>2021-05-28T07:28:25Z</time>
      </trkpt>
      <trkpt lat="42.392913" lon="2.489997">
        <ele>1057.766</ele>
        <time>2021-05-28T07:28:27Z</time>
      </trkpt>
      <trkpt lat="42.392933" lon="2.489991">
        <ele>1057.029</ele>
        <time>2021-05-28T07:28:29Z</time>
      </trkpt>
      <trkpt lat="42.392951" lon="2.490010">
        <ele>1056.021</ele>
        <time>2021-05-28T07:28:34Z</time>
      </trkpt>
      <trkpt lat="42.392978" lon="2.490004">
        <ele>1055.008</ele>
        <time>2021-05-28T07:28:37Z</time>
      </trkpt>
      <trkpt lat="42.392999" lon="2.490000">
        <ele>1054.243</ele>
        <time>2021-05-28T07:28:39Z</time>
      </trkpt>
      <trkpt lat="42.393017" lon="2.489993">
        <ele>1053.660</ele>
        <time>2021-05-28T07:28:41Z</time>
      </trkpt>
      <trkpt lat="42.393048" lon="2.489965">
        <ele>1052.831</ele>
        <time>2021-05-28T07:28:43Z</time>
      </trkpt>
      <trkpt lat="42.393062" lon="2.489942">
        <ele>1052.610</ele>
        <time>2021-05-28T07:28:44Z</time>
      </trkpt>
      <trkpt lat="42.393072" lon="2.489917">
        <ele>1052.727</ele>
        <time>2021-05-28T07:28:45Z</time>
      </trkpt>
      <trkpt lat="42.393081" lon="2.489890">
        <ele>1052.812</ele>
        <time>2021-05-28T07:28:46Z</time>
      </trkpt>
      <trkpt lat="42.393095" lon="2.489863">
        <ele>1052.729</ele>
        <time>2021-05-28T07:28:47Z</time>
      </trkpt>
      <trkpt lat="42.393106" lon="2.489838">
        <ele>1052.757</ele>
        <time>2021-05-28T07:28:48Z</time>
      </trkpt>
      <trkpt lat="42.393116" lon="2.489817">
        <ele>1052.612</ele>
        <time>2021-05-28T07:28:49Z</time>
      </trkpt>
      <trkpt lat="42.393131" lon="2.489799">
        <ele>1052.332</ele>
        <time>2021-05-28T07:28:50Z</time>
      </trkpt>
      <trkpt lat="42.393148" lon="2.489779">
        <ele>1052.005</ele>
        <time>2021-05-28T07:28:51Z</time>
      </trkpt>
      <trkpt lat="42.393163" lon="2.489763">
        <ele>1051.708</ele>
        <time>2021-05-28T07:28:52Z</time>
      </trkpt>
      <trkpt lat="42.393178" lon="2.489749">
        <ele>1051.368</ele>
        <time>2021-05-28T07:28:53Z</time>
      </trkpt>
      <trkpt lat="42.393192" lon="2.489732">
        <ele>1051.085</ele>
        <time>2021-05-28T07:28:54Z</time>
      </trkpt>
      <trkpt lat="42.393207" lon="2.489712">
        <ele>1050.676</ele>
        <time>2021-05-28T07:28:55Z</time>
      </trkpt>
      <trkpt lat="42.393221" lon="2.489692">
        <ele>1050.325</ele>
        <time>2021-05-28T07:28:56Z</time>
      </trkpt>
      <trkpt lat="42.393250" lon="2.489666">
        <ele>1049.522</ele>
        <time>2021-05-28T07:28:58Z</time>
      </trkpt>
      <trkpt lat="42.393265" lon="2.489652">
        <ele>1049.027</ele>
        <time>2021-05-28T07:28:59Z</time>
      </trkpt>
      <trkpt lat="42.393280" lon="2.489635">
        <ele>1048.664</ele>
        <time>2021-05-28T07:29:00Z</time>
      </trkpt>
      <trkpt lat="42.393295" lon="2.489619">
        <ele>1048.282</ele>
        <time>2021-05-28T07:29:01Z</time>
      </trkpt>
      <trkpt lat="42.393312" lon="2.489605">
        <ele>1047.628</ele>
        <time>2021-05-28T07:29:02Z</time>
      </trkpt>
      <trkpt lat="42.393329" lon="2.489589">
        <ele>1047.189</ele>
        <time>2021-05-28T07:29:03Z</time>
      </trkpt>
      <trkpt lat="42.393347" lon="2.489576">
        <ele>1046.717</ele>
        <time>2021-05-28T07:29:04Z</time>
      </trkpt>
      <trkpt lat="42.393365" lon="2.489569">
        <ele>1046.208</ele>
        <time>2021-05-28T07:29:05Z</time>
      </trkpt>
      <trkpt lat="42.393383" lon="2.489561">
        <ele>1045.869</ele>
        <time>2021-05-28T07:29:06Z</time>
      </trkpt>
      <trkpt lat="42.393400" lon="2.489548">
        <ele>1045.416</ele>
        <time>2021-05-28T07:29:07Z</time>
      </trkpt>
      <trkpt lat="42.393417" lon="2.489531">
        <ele>1045.157</ele>
        <time>2021-05-28T07:29:08Z</time>
      </trkpt>
      <trkpt lat="42.393433" lon="2.489517">
        <ele>1044.786</ele>
        <time>2021-05-28T07:29:09Z</time>
      </trkpt>
      <trkpt lat="42.393451" lon="2.489503">
        <ele>1044.353</ele>
        <time>2021-05-28T07:29:10Z</time>
      </trkpt>
      <trkpt lat="42.393468" lon="2.489489">
        <ele>1043.978</ele>
        <time>2021-05-28T07:29:11Z</time>
      </trkpt>
      <trkpt lat="42.393487" lon="2.489475">
        <ele>1043.495</ele>
        <time>2021-05-28T07:29:12Z</time>
      </trkpt>
      <trkpt lat="42.393503" lon="2.489463">
        <ele>1043.093</ele>
        <time>2021-05-28T07:29:13Z</time>
      </trkpt>
      <trkpt lat="42.393522" lon="2.489451">
        <ele>1042.531</ele>
        <time>2021-05-28T07:29:14Z</time>
      </trkpt>
      <trkpt lat="42.393544" lon="2.489439">
        <ele>1042.061</ele>
        <time>2021-05-28T07:29:15Z</time>
      </trkpt>
      <trkpt lat="42.393564" lon="2.489428">
        <ele>1041.407</ele>
        <time>2021-05-28T07:29:16Z</time>
      </trkpt>
      <trkpt lat="42.393583" lon="2.489418">
        <ele>1040.908</ele>
        <time>2021-05-28T07:29:17Z</time>
      </trkpt>
      <trkpt lat="42.393602" lon="2.489407">
        <ele>1040.480</ele>
        <time>2021-05-28T07:29:18Z</time>
      </trkpt>
      <trkpt lat="42.393619" lon="2.489397">
        <ele>1040.057</ele>
        <time>2021-05-28T07:29:19Z</time>
      </trkpt>
      <trkpt lat="42.393637" lon="2.489375">
        <ele>1039.638</ele>
        <time>2021-05-28T07:29:57Z</time>
      </trkpt>
      <trkpt lat="42.393661" lon="2.489364">
        <ele>1039.017</ele>
        <time>2021-05-28T07:29:59Z</time>
      </trkpt>
      <trkpt lat="42.393683" lon="2.489351">
        <ele>1038.424</ele>
        <time>2021-05-28T07:30:01Z</time>
      </trkpt>
      <trkpt lat="42.393706" lon="2.489339">
        <ele>1037.959</ele>
        <time>2021-05-28T07:30:03Z</time>
      </trkpt>
      <trkpt lat="42.393729" lon="2.489333">
        <ele>1037.316</ele>
        <time>2021-05-28T07:30:05Z</time>
      </trkpt>
      <trkpt lat="42.393750" lon="2.489325">
        <ele>1036.754</ele>
        <time>2021-05-28T07:30:07Z</time>
      </trkpt>
      <trkpt lat="42.393770" lon="2.489318">
        <ele>1036.217</ele>
        <time>2021-05-28T07:30:09Z</time>
      </trkpt>
      <trkpt lat="42.393791" lon="2.489308">
        <ele>1035.687</ele>
        <time>2021-05-28T07:30:11Z</time>
      </trkpt>
      <trkpt lat="42.393809" lon="2.489290">
        <ele>1035.215</ele>
        <time>2021-05-28T07:30:42Z</time>
      </trkpt>
      <trkpt lat="42.393829" lon="2.489270">
        <ele>1034.608</ele>
        <time>2021-05-28T07:30:44Z</time>
      </trkpt>
      <trkpt lat="42.393845" lon="2.489252">
        <ele>1034.258</ele>
        <time>2021-05-28T07:31:15Z</time>
      </trkpt>
      <trkpt lat="42.393869" lon="2.489227">
        <ele>1033.665</ele>
        <time>2021-05-28T07:31:17Z</time>
      </trkpt>
      <trkpt lat="42.393890" lon="2.489194">
        <ele>1033.096</ele>
        <time>2021-05-28T07:31:19Z</time>
      </trkpt>
      <trkpt lat="42.393907" lon="2.489174">
        <ele>1032.545</ele>
        <time>2021-05-28T07:31:38Z</time>
      </trkpt>
      <trkpt lat="42.393920" lon="2.489157">
        <ele>1032.112</ele>
        <time>2021-05-28T07:31:40Z</time>
      </trkpt>
      <trkpt lat="42.393932" lon="2.489138">
        <ele>1031.847</ele>
        <time>2021-05-28T07:32:10Z</time>
      </trkpt>
      <trkpt lat="42.393948" lon="2.489114">
        <ele>1031.334</ele>
        <time>2021-05-28T07:33:03Z</time>
      </trkpt>
      <trkpt lat="42.393977" lon="2.489064">
        <ele>1030.532</ele>
        <time>2021-05-28T07:33:06Z</time>
      </trkpt>
      <trkpt lat="42.393993" lon="2.489046">
        <ele>1030.036</ele>
        <time>2021-05-28T07:33:07Z</time>
      </trkpt>
      <trkpt lat="42.394006" lon="2.489026">
        <ele>1029.617</ele>
        <time>2021-05-28T07:33:08Z</time>
      </trkpt>
      <trkpt lat="42.394020" lon="2.489004">
        <ele>1029.218</ele>
        <time>2021-05-28T07:33:09Z</time>
      </trkpt>
      <trkpt lat="42.394032" lon="2.488984">
        <ele>1028.908</ele>
        <time>2021-05-28T07:33:10Z</time>
      </trkpt>
      <trkpt lat="42.394052" lon="2.488970">
        <ele>1028.390</ele>
        <time>2021-05-28T07:33:12Z</time>
      </trkpt>
      <trkpt lat="42.394064" lon="2.488950">
        <ele>1028.027</ele>
        <time>2021-05-28T07:33:34Z</time>
      </trkpt>
      <trkpt lat="42.394080" lon="2.488917">
        <ele>1027.548</ele>
        <time>2021-05-28T07:33:36Z</time>
      </trkpt>
      <trkpt lat="42.394100" lon="2.488895">
        <ele>1026.947</ele>
        <time>2021-05-28T07:33:38Z</time>
      </trkpt>
      <trkpt lat="42.394127" lon="2.488870">
        <ele>1026.294</ele>
        <time>2021-05-28T07:33:40Z</time>
      </trkpt>
      <trkpt lat="42.394143" lon="2.488853">
        <ele>1025.719</ele>
        <time>2021-05-28T07:33:41Z</time>
      </trkpt>
      <trkpt lat="42.394157" lon="2.488837">
        <ele>1025.346</ele>
        <time>2021-05-28T07:33:42Z</time>
      </trkpt>
      <trkpt lat="42.394176" lon="2.488804">
        <ele>1024.764</ele>
        <time>2021-05-28T07:33:44Z</time>
      </trkpt>
      <trkpt lat="42.394171" lon="2.488779">
        <ele>1024.859</ele>
        <time>2021-05-28T07:33:50Z</time>
      </trkpt>
      <trkpt lat="42.394202" lon="2.488778">
        <ele>1023.703</ele>
        <time>2021-05-28T07:33:55Z</time>
      </trkpt>
      <trkpt lat="42.394226" lon="2.488741">
        <ele>1022.923</ele>
        <time>2021-05-28T07:33:57Z</time>
      </trkpt>
      <trkpt lat="42.394238" lon="2.488721">
        <ele>1022.408</ele>
        <time>2021-05-28T07:33:58Z</time>
      </trkpt>
      <trkpt lat="42.394253" lon="2.488697">
        <ele>1021.922</ele>
        <time>2021-05-28T07:33:59Z</time>
      </trkpt>
      <trkpt lat="42.394269" lon="2.488672">
        <ele>1021.349</ele>
        <time>2021-05-28T07:34:00Z</time>
      </trkpt>
      <trkpt lat="42.394280" lon="2.488645">
        <ele>1020.970</ele>
        <time>2021-05-28T07:34:01Z</time>
      </trkpt>
      <trkpt lat="42.394291" lon="2.488618">
        <ele>1020.559</ele>
        <time>2021-05-28T07:34:02Z</time>
      </trkpt>
      <trkpt lat="42.394296" lon="2.488593">
        <ele>1020.316</ele>
        <time>2021-05-28T07:34:03Z</time>
      </trkpt>
      <trkpt lat="42.394303" lon="2.488553">
        <ele>1020.171</ele>
        <time>2021-05-28T07:34:05Z</time>
      </trkpt>
      <trkpt lat="42.394308" lon="2.488506">
        <ele>1019.988</ele>
        <time>2021-05-28T07:34:07Z</time>
      </trkpt>
      <trkpt lat="42.394314" lon="2.488476">
        <ele>1019.726</ele>
        <time>2021-05-28T07:34:09Z</time>
      </trkpt>
      <trkpt lat="42.394325" lon="2.488449">
        <ele>1019.336</ele>
        <time>2021-05-28T07:34:11Z</time>
      </trkpt>
      <trkpt lat="42.394343" lon="2.488442">
        <ele>1018.717</ele>
        <time>2021-05-28T07:34:13Z</time>
      </trkpt>
      <trkpt lat="42.394355" lon="2.488417">
        <ele>1018.218</ele>
        <time>2021-05-28T07:34:17Z</time>
      </trkpt>
      <trkpt lat="42.394365" lon="2.488395">
        <ele>1017.908</ele>
        <time>2021-05-28T07:34:18Z</time>
      </trkpt>
      <trkpt lat="42.394371" lon="2.488351">
        <ele>1017.680</ele>
        <time>2021-05-28T07:34:20Z</time>
      </trkpt>
      <trkpt lat="42.394372" lon="2.488326">
        <ele>1017.637</ele>
        <time>2021-05-28T07:34:21Z</time>
      </trkpt>
      <trkpt lat="42.394378" lon="2.488301">
        <ele>1017.258</ele>
        <time>2021-05-28T07:34:22Z</time>
      </trkpt>
      <trkpt lat="42.394378" lon="2.488262">
        <ele>1016.947</ele>
        <time>2021-05-28T07:34:24Z</time>
      </trkpt>
      <trkpt lat="42.394375" lon="2.488225">
        <ele>1016.824</ele>
        <time>2021-05-28T07:34:26Z</time>
      </trkpt>
      <trkpt lat="42.394378" lon="2.488176">
        <ele>1016.489</ele>
        <time>2021-05-28T07:34:28Z</time>
      </trkpt>
      <trkpt lat="42.394377" lon="2.488150">
        <ele>1016.376</ele>
        <time>2021-05-28T07:34:29Z</time>
      </trkpt>
      <trkpt lat="42.394378" lon="2.488120">
        <ele>1016.094</ele>
        <time>2021-05-28T07:34:30Z</time>
      </trkpt>
      <trkpt lat="42.394384" lon="2.488079">
        <ele>1015.594</ele>
        <time>2021-05-28T07:34:32Z</time>
      </trkpt>
      <trkpt lat="42.394399" lon="2.488053">
        <ele>1014.857</ele>
        <time>2021-05-28T07:34:34Z</time>
      </trkpt>
      <trkpt lat="42.394416" lon="2.488025">
        <ele>1014.122</ele>
        <time>2021-05-28T07:34:36Z</time>
      </trkpt>
      <trkpt lat="42.394430" lon="2.488009">
        <ele>1013.608</ele>
        <time>2021-05-28T07:34:37Z</time>
      </trkpt>
      <trkpt lat="42.394453" lon="2.487998">
        <ele>1012.616</ele>
        <time>2021-05-28T07:34:39Z</time>
      </trkpt>
      <trkpt lat="42.394475" lon="2.487985">
        <ele>1011.793</ele>
        <time>2021-05-28T07:34:41Z</time>
      </trkpt>
      <trkpt lat="42.394494" lon="2.487974">
        <ele>1010.844</ele>
        <time>2021-05-28T07:34:44Z</time>
      </trkpt>
      <trkpt lat="42.394520" lon="2.487967">
        <ele>1009.643</ele>
        <time>2021-05-28T07:34:45Z</time>
      </trkpt>
      <trkpt lat="42.394539" lon="2.487946">
        <ele>1008.880</ele>
        <time>2021-05-28T07:34:47Z</time>
      </trkpt>
      <trkpt lat="42.394561" lon="2.487920">
        <ele>1007.885</ele>
        <time>2021-05-28T07:34:49Z</time>
      </trkpt>
      <trkpt lat="42.394569" lon="2.487885">
        <ele>1007.362</ele>
        <time>2021-05-28T07:34:51Z</time>
      </trkpt>
      <trkpt lat="42.394582" lon="2.487865">
        <ele>1006.750</ele>
        <time>2021-05-28T07:34:53Z</time>
      </trkpt>
      <trkpt lat="42.394602" lon="2.487833">
        <ele>1005.712</ele>
        <time>2021-05-28T07:34:55Z</time>
      </trkpt>
      <trkpt lat="42.394613" lon="2.487802">
        <ele>1005.232</ele>
        <time>2021-05-28T07:34:57Z</time>
      </trkpt>
      <trkpt lat="42.394624" lon="2.487770">
        <ele>1004.605</ele>
        <time>2021-05-28T07:34:59Z</time>
      </trkpt>
      <trkpt lat="42.394642" lon="2.487737">
        <ele>1003.908</ele>
        <time>2021-05-28T07:35:01Z</time>
      </trkpt>
      <trkpt lat="42.394658" lon="2.487719">
        <ele>1003.238</ele>
        <time>2021-05-28T07:35:02Z</time>
      </trkpt>
      <trkpt lat="42.394688" lon="2.487689">
        <ele>1001.945</ele>
        <time>2021-05-28T07:35:04Z</time>
      </trkpt>
      <trkpt lat="42.394709" lon="2.487667">
        <ele>1001.076</ele>
        <time>2021-05-28T07:35:05Z</time>
      </trkpt>
      <trkpt lat="42.394720" lon="2.487644">
        <ele>1000.635</ele>
        <time>2021-05-28T07:35:06Z</time>
      </trkpt>
      <trkpt lat="42.394724" lon="2.487604">
        <ele>1000.652</ele>
        <time>2021-05-28T07:35:08Z</time>
      </trkpt>
      <trkpt lat="42.394729" lon="2.487571">
        <ele>1000.577</ele>
        <time>2021-05-28T07:35:10Z</time>
      </trkpt>
      <trkpt lat="42.394739" lon="2.487547">
        <ele>1000.374</ele>
        <time>2021-05-28T07:35:12Z</time>
      </trkpt>
      <trkpt lat="42.394754" lon="2.487531">
        <ele>1000.082</ele>
        <time>2021-05-28T07:35:14Z</time>
      </trkpt>
      <trkpt lat="42.394771" lon="2.487513">
        <ele>999.559</ele>
        <time>2021-05-28T07:35:16Z</time>
      </trkpt>
      <trkpt lat="42.394789" lon="2.487491">
        <ele>999.103</ele>
        <time>2021-05-28T07:35:18Z</time>
      </trkpt>
      <trkpt lat="42.394816" lon="2.487464">
        <ele>998.423</ele>
        <time>2021-05-28T07:35:20Z</time>
      </trkpt>
      <trkpt lat="42.394842" lon="2.487458">
        <ele>997.608</ele>
        <time>2021-05-28T07:35:22Z</time>
      </trkpt>
      <trkpt lat="42.394871" lon="2.487446">
        <ele>996.892</ele>
        <time>2021-05-28T07:35:24Z</time>
      </trkpt>
      <trkpt lat="42.394891" lon="2.487413">
        <ele>996.379</ele>
        <time>2021-05-28T07:35:26Z</time>
      </trkpt>
      <trkpt lat="42.394901" lon="2.487392">
        <ele>996.030</ele>
        <time>2021-05-28T07:35:27Z</time>
      </trkpt>
      <trkpt lat="42.394913" lon="2.487371">
        <ele>995.769</ele>
        <time>2021-05-28T07:35:28Z</time>
      </trkpt>
      <trkpt lat="42.394927" lon="2.487347">
        <ele>995.276</ele>
        <time>2021-05-28T07:35:29Z</time>
      </trkpt>
      <trkpt lat="42.394948" lon="2.487310">
        <ele>994.621</ele>
        <time>2021-05-28T07:35:31Z</time>
      </trkpt>
      <trkpt lat="42.394965" lon="2.487289">
        <ele>994.148</ele>
        <time>2021-05-28T07:35:32Z</time>
      </trkpt>
      <trkpt lat="42.394980" lon="2.487272">
        <ele>993.636</ele>
        <time>2021-05-28T07:35:33Z</time>
      </trkpt>
      <trkpt lat="42.394994" lon="2.487256">
        <ele>993.227</ele>
        <time>2021-05-28T07:35:34Z</time>
      </trkpt>
      <trkpt lat="42.395009" lon="2.487236">
        <ele>992.768</ele>
        <time>2021-05-28T07:35:37Z</time>
      </trkpt>
      <trkpt lat="42.395026" lon="2.487209">
        <ele>992.314</ele>
        <time>2021-05-28T07:35:39Z</time>
      </trkpt>
      <trkpt lat="42.395045" lon="2.487198">
        <ele>991.808</ele>
        <time>2021-05-28T07:35:42Z</time>
      </trkpt>
      <trkpt lat="42.395075" lon="2.487190">
        <ele>990.949</ele>
        <time>2021-05-28T07:35:45Z</time>
      </trkpt>
      <trkpt lat="42.395092" lon="2.487182">
        <ele>990.456</ele>
        <time>2021-05-28T07:35:46Z</time>
      </trkpt>
      <trkpt lat="42.395113" lon="2.487169">
        <ele>989.987</ele>
        <time>2021-05-28T07:35:47Z</time>
      </trkpt>
      <trkpt lat="42.395132" lon="2.487154">
        <ele>989.366</ele>
        <time>2021-05-28T07:35:48Z</time>
      </trkpt>
      <trkpt lat="42.395154" lon="2.487131">
        <ele>988.753</ele>
        <time>2021-05-28T07:35:49Z</time>
      </trkpt>
      <trkpt lat="42.395180" lon="2.487107">
        <ele>988.038</ele>
        <time>2021-05-28T07:35:50Z</time>
      </trkpt>
      <trkpt lat="42.395206" lon="2.487084">
        <ele>987.215</ele>
        <time>2021-05-28T07:35:51Z</time>
      </trkpt>
      <trkpt lat="42.395226" lon="2.487059">
        <ele>986.653</ele>
        <time>2021-05-28T07:35:52Z</time>
      </trkpt>
      <trkpt lat="42.395244" lon="2.487031">
        <ele>986.182</ele>
        <time>2021-05-28T07:35:53Z</time>
      </trkpt>
      <trkpt lat="42.395258" lon="2.487010">
        <ele>985.643</ele>
        <time>2021-05-28T07:35:54Z</time>
      </trkpt>
      <trkpt lat="42.395271" lon="2.486990">
        <ele>985.217</ele>
        <time>2021-05-28T07:35:55Z</time>
      </trkpt>
      <trkpt lat="42.395287" lon="2.486971">
        <ele>984.708</ele>
        <time>2021-05-28T07:35:56Z</time>
      </trkpt>
      <trkpt lat="42.395300" lon="2.486954">
        <ele>984.235</ele>
        <time>2021-05-28T07:35:57Z</time>
      </trkpt>
      <trkpt lat="42.395313" lon="2.486931">
        <ele>983.792</ele>
        <time>2021-05-28T07:35:58Z</time>
      </trkpt>
      <trkpt lat="42.395329" lon="2.486891">
        <ele>983.093</ele>
        <time>2021-05-28T07:36:00Z</time>
      </trkpt>
      <trkpt lat="42.395342" lon="2.486871">
        <ele>982.452</ele>
        <time>2021-05-28T07:36:01Z</time>
      </trkpt>
      <trkpt lat="42.395360" lon="2.486847">
        <ele>981.769</ele>
        <time>2021-05-28T07:36:03Z</time>
      </trkpt>
      <trkpt lat="42.395377" lon="2.486836">
        <ele>981.074</ele>
        <time>2021-05-28T07:36:04Z</time>
      </trkpt>
      <trkpt lat="42.395394" lon="2.486809">
        <ele>980.321</ele>
        <time>2021-05-28T07:36:06Z</time>
      </trkpt>
      <trkpt lat="42.395404" lon="2.486787">
        <ele>979.959</ele>
        <time>2021-05-28T07:36:07Z</time>
      </trkpt>
      <trkpt lat="42.395423" lon="2.486768">
        <ele>979.182</ele>
        <time>2021-05-28T07:36:10Z</time>
      </trkpt>
      <trkpt lat="42.395449" lon="2.486753">
        <ele>978.143</ele>
        <time>2021-05-28T07:36:13Z</time>
      </trkpt>
      <trkpt lat="42.395467" lon="2.486720">
        <ele>977.417</ele>
        <time>2021-05-28T07:36:15Z</time>
      </trkpt>
      <trkpt lat="42.395480" lon="2.486698">
        <ele>976.808</ele>
        <time>2021-05-28T07:36:16Z</time>
      </trkpt>
      <trkpt lat="42.395491" lon="2.486677">
        <ele>976.465</ele>
        <time>2021-05-28T07:36:17Z</time>
      </trkpt>
      <trkpt lat="42.395503" lon="2.486657">
        <ele>975.932</ele>
        <time>2021-05-28T07:36:18Z</time>
      </trkpt>
      <trkpt lat="42.395514" lon="2.486637">
        <ele>975.483</ele>
        <time>2021-05-28T07:36:19Z</time>
      </trkpt>
      <trkpt lat="42.395529" lon="2.486616">
        <ele>974.872</ele>
        <time>2021-05-28T07:36:20Z</time>
      </trkpt>
      <trkpt lat="42.395540" lon="2.486593">
        <ele>974.329</ele>
        <time>2021-05-28T07:36:21Z</time>
      </trkpt>
      <trkpt lat="42.395547" lon="2.486569">
        <ele>974.044</ele>
        <time>2021-05-28T07:36:22Z</time>
      </trkpt>
      <trkpt lat="42.395562" lon="2.486537">
        <ele>973.351</ele>
        <time>2021-05-28T07:36:24Z</time>
      </trkpt>
      <trkpt lat="42.395583" lon="2.486499">
        <ele>972.499</ele>
        <time>2021-05-28T07:36:26Z</time>
      </trkpt>
      <trkpt lat="42.395591" lon="2.486477">
        <ele>972.122</ele>
        <time>2021-05-28T07:36:27Z</time>
      </trkpt>
      <trkpt lat="42.395598" lon="2.486432">
        <ele>971.762</ele>
        <time>2021-05-28T07:36:29Z</time>
      </trkpt>
      <trkpt lat="42.395607" lon="2.486407">
        <ele>971.208</ele>
        <time>2021-05-28T07:36:30Z</time>
      </trkpt>
      <trkpt lat="42.395615" lon="2.486381">
        <ele>970.808</ele>
        <time>2021-05-28T07:36:31Z</time>
      </trkpt>
      <trkpt lat="42.395631" lon="2.486338">
        <ele>970.169</ele>
        <time>2021-05-28T07:36:33Z</time>
      </trkpt>
      <trkpt lat="42.395635" lon="2.486292">
        <ele>969.886</ele>
        <time>2021-05-28T07:36:35Z</time>
      </trkpt>
      <trkpt lat="42.395641" lon="2.486265">
        <ele>969.547</ele>
        <time>2021-05-28T07:36:36Z</time>
      </trkpt>
      <trkpt lat="42.395647" lon="2.486241">
        <ele>969.226</ele>
        <time>2021-05-28T07:36:37Z</time>
      </trkpt>
      <trkpt lat="42.395640" lon="2.486195">
        <ele>969.343</ele>
        <time>2021-05-28T07:36:39Z</time>
      </trkpt>
      <trkpt lat="42.395649" lon="2.486155">
        <ele>968.828</ele>
        <time>2021-05-28T07:36:41Z</time>
      </trkpt>
      <trkpt lat="42.395656" lon="2.486127">
        <ele>968.415</ele>
        <time>2021-05-28T07:36:42Z</time>
      </trkpt>
      <trkpt lat="42.395650" lon="2.486100">
        <ele>968.613</ele>
        <time>2021-05-28T07:36:43Z</time>
      </trkpt>
      <trkpt lat="42.395646" lon="2.486074">
        <ele>968.726</ele>
        <time>2021-05-28T07:36:44Z</time>
      </trkpt>
      <trkpt lat="42.395639" lon="2.486049">
        <ele>969.047</ele>
        <time>2021-05-28T07:36:45Z</time>
      </trkpt>
      <trkpt lat="42.395630" lon="2.486025">
        <ele>969.311</ele>
        <time>2021-05-28T07:36:46Z</time>
      </trkpt>
      <trkpt lat="42.395629" lon="2.485967">
        <ele>969.408</ele>
        <time>2021-05-28T07:36:48Z</time>
      </trkpt>
      <trkpt lat="42.395634" lon="2.485937">
        <ele>969.299</ele>
        <time>2021-05-28T07:36:49Z</time>
      </trkpt>
      <trkpt lat="42.395644" lon="2.485899">
        <ele>968.846</ele>
        <time>2021-05-28T07:36:51Z</time>
      </trkpt>
      <trkpt lat="42.395656" lon="2.485868">
        <ele>968.477</ele>
        <time>2021-05-28T07:36:53Z</time>
      </trkpt>
      <trkpt lat="42.395677" lon="2.485841">
        <ele>967.646</ele>
        <time>2021-05-28T07:36:55Z</time>
      </trkpt>
      <trkpt lat="42.395691" lon="2.485823">
        <ele>967.263</ele>
        <time>2021-05-28T07:36:56Z</time>
      </trkpt>
      <trkpt lat="42.395710" lon="2.485790">
        <ele>966.738</ele>
        <time>2021-05-28T07:36:58Z</time>
      </trkpt>
      <trkpt lat="42.395725" lon="2.485756">
        <ele>966.335</ele>
        <time>2021-05-28T07:37:00Z</time>
      </trkpt>
      <trkpt lat="42.395732" lon="2.485729">
        <ele>966.243</ele>
        <time>2021-05-28T07:37:02Z</time>
      </trkpt>
      <trkpt lat="42.395760" lon="2.485694">
        <ele>965.345</ele>
        <time>2021-05-28T07:37:04Z</time>
      </trkpt>
      <trkpt lat="42.395788" lon="2.485659">
        <ele>964.447</ele>
        <time>2021-05-28T07:37:06Z</time>
      </trkpt>
      <trkpt lat="42.395815" lon="2.485634">
        <ele>963.411</ele>
        <time>2021-05-28T07:37:08Z</time>
      </trkpt>
      <trkpt lat="42.395832" lon="2.485620">
        <ele>962.808</ele>
        <time>2021-05-28T07:37:09Z</time>
      </trkpt>
      <trkpt lat="42.395856" lon="2.485602">
        <ele>961.711</ele>
        <time>2021-05-28T07:37:11Z</time>
      </trkpt>
      <trkpt lat="42.395874" lon="2.485575">
        <ele>960.938</ele>
        <time>2021-05-28T07:37:13Z</time>
      </trkpt>
      <trkpt lat="42.395896" lon="2.485538">
        <ele>960.059</ele>
        <time>2021-05-28T07:37:15Z</time>
      </trkpt>
      <trkpt lat="42.395926" lon="2.485505">
        <ele>958.818</ele>
        <time>2021-05-28T07:37:17Z</time>
      </trkpt>
      <trkpt lat="42.395944" lon="2.485488">
        <ele>958.145</ele>
        <time>2021-05-28T07:37:18Z</time>
      </trkpt>
      <trkpt lat="42.395969" lon="2.485461">
        <ele>957.270</ele>
        <time>2021-05-28T07:37:20Z</time>
      </trkpt>
      <trkpt lat="42.395995" lon="2.485428">
        <ele>956.317</ele>
        <time>2021-05-28T07:37:22Z</time>
      </trkpt>
      <trkpt lat="42.396003" lon="2.485405">
        <ele>956.215</ele>
        <time>2021-05-28T07:37:23Z</time>
      </trkpt>
      <trkpt lat="42.396017" lon="2.485366">
        <ele>956.046</ele>
        <time>2021-05-28T07:37:25Z</time>
      </trkpt>
      <trkpt lat="42.396031" lon="2.485332">
        <ele>955.888</ele>
        <time>2021-05-28T07:37:27Z</time>
      </trkpt>
      <trkpt lat="42.396043" lon="2.485297">
        <ele>955.716</ele>
        <time>2021-05-28T07:37:29Z</time>
      </trkpt>
      <trkpt lat="42.396056" lon="2.485261">
        <ele>955.508</ele>
        <time>2021-05-28T07:37:31Z</time>
      </trkpt>
      <trkpt lat="42.396075" lon="2.485221">
        <ele>955.191</ele>
        <time>2021-05-28T07:37:33Z</time>
      </trkpt>
      <trkpt lat="42.396091" lon="2.485199">
        <ele>954.778</ele>
        <time>2021-05-28T07:37:35Z</time>
      </trkpt>
      <trkpt lat="42.396114" lon="2.485204">
        <ele>953.729</ele>
        <time>2021-05-28T07:37:40Z</time>
      </trkpt>
      <trkpt lat="42.396134" lon="2.485208">
        <ele>952.778</ele>
        <time>2021-05-28T07:37:44Z</time>
      </trkpt>
      <trkpt lat="42.396157" lon="2.485197">
        <ele>951.755</ele>
        <time>2021-05-28T07:37:47Z</time>
      </trkpt>
      <trkpt lat="42.396216" lon="2.485099">
        <ele>949.860</ele>
        <time>2021-05-28T07:37:53Z</time>
      </trkpt>
      <trkpt lat="42.396243" lon="2.485052">
        <ele>948.977</ele>
        <time>2021-05-28T07:37:55Z</time>
      </trkpt>
      <trkpt lat="42.396263" lon="2.485028">
        <ele>948.125</ele>
        <time>2021-05-28T07:37:57Z</time>
      </trkpt>
      <trkpt lat="42.396280" lon="2.484986">
        <ele>947.515</ele>
        <time>2021-05-28T07:37:59Z</time>
      </trkpt>
      <trkpt lat="42.396296" lon="2.484960">
        <ele>946.865</ele>
        <time>2021-05-28T07:38:01Z</time>
      </trkpt>
      <trkpt lat="42.396315" lon="2.484966">
        <ele>945.811</ele>
        <time>2021-05-28T07:38:03Z</time>
      </trkpt>
      <trkpt lat="42.396336" lon="2.484968">
        <ele>944.808</ele>
        <time>2021-05-28T07:38:05Z</time>
      </trkpt>
      <trkpt lat="42.396365" lon="2.484961">
        <ele>943.458</ele>
        <time>2021-05-28T07:38:07Z</time>
      </trkpt>
      <trkpt lat="42.396383" lon="2.484946">
        <ele>942.795</ele>
        <time>2021-05-28T07:38:08Z</time>
      </trkpt>
      <trkpt lat="42.396400" lon="2.484927">
        <ele>942.296</ele>
        <time>2021-05-28T07:38:09Z</time>
      </trkpt>
      <trkpt lat="42.396409" lon="2.484889">
        <ele>942.145</ele>
        <time>2021-05-28T07:38:11Z</time>
      </trkpt>
      <trkpt lat="42.396420" lon="2.484852">
        <ele>942.132</ele>
        <time>2021-05-28T07:38:13Z</time>
      </trkpt>
      <trkpt lat="42.396435" lon="2.484831">
        <ele>941.787</ele>
        <time>2021-05-28T07:38:15Z</time>
      </trkpt>
      <trkpt lat="42.396455" lon="2.484821">
        <ele>941.114</ele>
        <time>2021-05-28T07:38:17Z</time>
      </trkpt>
      <trkpt lat="42.396480" lon="2.484844">
        <ele>940.212</ele>
        <time>2021-05-28T07:38:19Z</time>
      </trkpt>
      <trkpt lat="42.396502" lon="2.484860">
        <ele>939.337</ele>
        <time>2021-05-28T07:38:21Z</time>
      </trkpt>
      <trkpt lat="42.396517" lon="2.484880">
        <ele>938.749</ele>
        <time>2021-05-28T07:38:23Z</time>
      </trkpt>
      <trkpt lat="42.396545" lon="2.484883">
        <ele>937.813</ele>
        <time>2021-05-28T07:38:25Z</time>
      </trkpt>
      <trkpt lat="42.396570" lon="2.484887">
        <ele>936.908</ele>
        <time>2021-05-28T07:38:27Z</time>
      </trkpt>
      <trkpt lat="42.396599" lon="2.484876">
        <ele>936.160</ele>
        <time>2021-05-28T07:38:29Z</time>
      </trkpt>
      <trkpt lat="42.396628" lon="2.484848">
        <ele>935.387</ele>
        <time>2021-05-28T07:38:31Z</time>
      </trkpt>
      <trkpt lat="42.396644" lon="2.484806">
        <ele>935.178</ele>
        <time>2021-05-28T07:38:33Z</time>
      </trkpt>
      <trkpt lat="42.396655" lon="2.484786">
        <ele>934.957</ele>
        <time>2021-05-28T07:38:34Z</time>
      </trkpt>
      <trkpt lat="42.396665" lon="2.484762">
        <ele>934.864</ele>
        <time>2021-05-28T07:38:35Z</time>
      </trkpt>
      <trkpt lat="42.396672" lon="2.484736">
        <ele>934.779</ele>
        <time>2021-05-28T07:38:36Z</time>
      </trkpt>
      <trkpt lat="42.396679" lon="2.484712">
        <ele>934.576</ele>
        <time>2021-05-28T07:38:37Z</time>
      </trkpt>
      <trkpt lat="42.396685" lon="2.484687">
        <ele>934.184</ele>
        <time>2021-05-28T07:38:38Z</time>
      </trkpt>
      <trkpt lat="42.396694" lon="2.484664">
        <ele>933.679</ele>
        <time>2021-05-28T07:38:39Z</time>
      </trkpt>
      <trkpt lat="42.396705" lon="2.484623">
        <ele>932.905</ele>
        <time>2021-05-28T07:38:41Z</time>
      </trkpt>
      <trkpt lat="42.396710" lon="2.484583">
        <ele>932.325</ele>
        <time>2021-05-28T07:38:43Z</time>
      </trkpt>
      <trkpt lat="42.396717" lon="2.484536">
        <ele>931.708</ele>
        <time>2021-05-28T07:38:45Z</time>
      </trkpt>
      <trkpt lat="42.396721" lon="2.484510">
        <ele>931.334</ele>
        <time>2021-05-28T07:38:46Z</time>
      </trkpt>
      <trkpt lat="42.396714" lon="2.484478">
        <ele>931.121</ele>
        <time>2021-05-28T07:38:48Z</time>
      </trkpt>
      <trkpt lat="42.396696" lon="2.484446">
        <ele>931.342</ele>
        <time>2021-05-28T07:38:50Z</time>
      </trkpt>
      <trkpt lat="42.396677" lon="2.484425">
        <ele>931.591</ele>
        <time>2021-05-28T07:38:52Z</time>
      </trkpt>
      <trkpt lat="42.396658" lon="2.484402">
        <ele>931.778</ele>
        <time>2021-05-28T07:38:54Z</time>
      </trkpt>
      <trkpt lat="42.396637" lon="2.484378">
        <ele>932.033</ele>
        <time>2021-05-28T07:38:56Z</time>
      </trkpt>
      <trkpt lat="42.396628" lon="2.484352">
        <ele>931.920</ele>
        <time>2021-05-28T07:38:58Z</time>
      </trkpt>
      <trkpt lat="42.396643" lon="2.484326">
        <ele>931.198</ele>
        <time>2021-05-28T07:39:00Z</time>
      </trkpt>
      <trkpt lat="42.396675" lon="2.484295">
        <ele>929.717</ele>
        <time>2021-05-28T07:39:02Z</time>
      </trkpt>
      <trkpt lat="42.396679" lon="2.484257">
        <ele>929.087</ele>
        <time>2021-05-28T07:39:04Z</time>
      </trkpt>
      <trkpt lat="42.396675" lon="2.484232">
        <ele>928.815</ele>
        <time>2021-05-28T07:39:05Z</time>
      </trkpt>
      <trkpt lat="42.396672" lon="2.484197">
        <ele>928.308</ele>
        <time>2021-05-28T07:39:07Z</time>
      </trkpt>
      <trkpt lat="42.396665" lon="2.484153">
        <ele>927.948</ele>
        <time>2021-05-28T07:39:10Z</time>
      </trkpt>
      <trkpt lat="42.396653" lon="2.484132">
        <ele>928.115</ele>
        <time>2021-05-28T07:39:12Z</time>
      </trkpt>
      <trkpt lat="42.396651" lon="2.484103">
        <ele>927.826</ele>
        <time>2021-05-28T07:39:15Z</time>
      </trkpt>
      <trkpt lat="42.396657" lon="2.484079">
        <ele>927.385</ele>
        <time>2021-05-28T07:39:17Z</time>
      </trkpt>
      <trkpt lat="42.396667" lon="2.484055">
        <ele>926.832</ele>
        <time>2021-05-28T07:39:19Z</time>
      </trkpt>
      <trkpt lat="42.396680" lon="2.484034">
        <ele>926.337</ele>
        <time>2021-05-28T07:39:21Z</time>
      </trkpt>
      <trkpt lat="42.396687" lon="2.484011">
        <ele>925.884</ele>
        <time>2021-05-28T07:39:24Z</time>
      </trkpt>
      <trkpt lat="42.396692" lon="2.483985">
        <ele>925.472</ele>
        <time>2021-05-28T07:39:26Z</time>
      </trkpt>
      <trkpt lat="42.396716" lon="2.483936">
        <ele>924.368</ele>
        <time>2021-05-28T07:39:29Z</time>
      </trkpt>
      <trkpt lat="42.396727" lon="2.483915">
        <ele>923.842</ele>
        <time>2021-05-28T07:39:30Z</time>
      </trkpt>
      <trkpt lat="42.396736" lon="2.483889">
        <ele>923.326</ele>
        <time>2021-05-28T07:39:31Z</time>
      </trkpt>
      <trkpt lat="42.396747" lon="2.483845">
        <ele>922.308</ele>
        <time>2021-05-28T07:39:33Z</time>
      </trkpt>
      <trkpt lat="42.396749" lon="2.483821">
        <ele>921.963</ele>
        <time>2021-05-28T07:39:34Z</time>
      </trkpt>
      <trkpt lat="42.396757" lon="2.483785">
        <ele>921.160</ele>
        <time>2021-05-28T07:39:36Z</time>
      </trkpt>
      <trkpt lat="42.396760" lon="2.483748">
        <ele>920.481</ele>
        <time>2021-05-28T07:39:38Z</time>
      </trkpt>
      <trkpt lat="42.396762" lon="2.483708">
        <ele>919.810</ele>
        <time>2021-05-28T07:39:40Z</time>
      </trkpt>
      <trkpt lat="42.396776" lon="2.483677">
        <ele>918.987</ele>
        <time>2021-05-28T07:39:42Z</time>
      </trkpt>
      <trkpt lat="42.396792" lon="2.483642">
        <ele>917.922</ele>
        <time>2021-05-28T07:39:44Z</time>
      </trkpt>
      <trkpt lat="42.396797" lon="2.483603">
        <ele>917.129</ele>
        <time>2021-05-28T07:39:46Z</time>
      </trkpt>
      <trkpt lat="42.396806" lon="2.483574">
        <ele>916.547</ele>
        <time>2021-05-28T07:39:48Z</time>
      </trkpt>
      <trkpt lat="42.396808" lon="2.483542">
        <ele>915.992</ele>
        <time>2021-05-28T07:39:50Z</time>
      </trkpt>
      <trkpt lat="42.396811" lon="2.483506">
        <ele>915.373</ele>
        <time>2021-05-28T07:39:52Z</time>
      </trkpt>
      <trkpt lat="42.396816" lon="2.483477">
        <ele>914.820</ele>
        <time>2021-05-28T07:39:54Z</time>
      </trkpt>
      <trkpt lat="42.396826" lon="2.483446">
        <ele>914.008</ele>
        <time>2021-05-28T07:39:57Z</time>
      </trkpt>
      <trkpt lat="42.396828" lon="2.483393">
        <ele>913.236</ele>
        <time>2021-05-28T07:39:59Z</time>
      </trkpt>
      <trkpt lat="42.396823" lon="2.483368">
        <ele>913.053</ele>
        <time>2021-05-28T07:40:00Z</time>
      </trkpt>
      <trkpt lat="42.396804" lon="2.483326">
        <ele>912.964</ele>
        <time>2021-05-28T07:40:02Z</time>
      </trkpt>
      <trkpt lat="42.396797" lon="2.483298">
        <ele>912.663</ele>
        <time>2021-05-28T07:40:03Z</time>
      </trkpt>
      <trkpt lat="42.396796" lon="2.483269">
        <ele>912.180</ele>
        <time>2021-05-28T07:40:04Z</time>
      </trkpt>
      <trkpt lat="42.396792" lon="2.483241">
        <ele>911.725</ele>
        <time>2021-05-28T07:40:05Z</time>
      </trkpt>
      <trkpt lat="42.396784" lon="2.483188">
        <ele>911.092</ele>
        <time>2021-05-28T07:40:07Z</time>
      </trkpt>
      <trkpt lat="42.396780" lon="2.483159">
        <ele>910.620</ele>
        <time>2021-05-28T07:40:08Z</time>
      </trkpt>
      <trkpt lat="42.396778" lon="2.483134">
        <ele>910.279</ele>
        <time>2021-05-28T07:40:09Z</time>
      </trkpt>
      <trkpt lat="42.396777" lon="2.483107">
        <ele>909.705</ele>
        <time>2021-05-28T07:40:10Z</time>
      </trkpt>
      <trkpt lat="42.396780" lon="2.483078">
        <ele>909.125</ele>
        <time>2021-05-28T07:40:11Z</time>
      </trkpt>
      <trkpt lat="42.396779" lon="2.483034">
        <ele>908.508</ele>
        <time>2021-05-28T07:40:13Z</time>
      </trkpt>
      <trkpt lat="42.396780" lon="2.482986">
        <ele>907.764</ele>
        <time>2021-05-28T07:40:15Z</time>
      </trkpt>
      <trkpt lat="42.396779" lon="2.482946">
        <ele>907.271</ele>
        <time>2021-05-28T07:40:17Z</time>
      </trkpt>
      <trkpt lat="42.396786" lon="2.482907">
        <ele>906.442</ele>
        <time>2021-05-28T07:40:19Z</time>
      </trkpt>
      <trkpt lat="42.396802" lon="2.482865">
        <ele>905.411</ele>
        <time>2021-05-28T07:40:21Z</time>
      </trkpt>
      <trkpt lat="42.396802" lon="2.482835">
        <ele>904.988</ele>
        <time>2021-05-28T07:40:22Z</time>
      </trkpt>
      <trkpt lat="42.396801" lon="2.482808">
        <ele>904.633</ele>
        <time>2021-05-28T07:40:23Z</time>
      </trkpt>
      <trkpt lat="42.396802" lon="2.482783">
        <ele>904.270</ele>
        <time>2021-05-28T07:40:24Z</time>
      </trkpt>
      <trkpt lat="42.396802" lon="2.482758">
        <ele>903.878</ele>
        <time>2021-05-28T07:40:25Z</time>
      </trkpt>
      <trkpt lat="42.396806" lon="2.482733">
        <ele>903.359</ele>
        <time>2021-05-28T07:40:26Z</time>
      </trkpt>
      <trkpt lat="42.396815" lon="2.482695">
        <ele>902.603</ele>
        <time>2021-05-28T07:40:28Z</time>
      </trkpt>
      <trkpt lat="42.396825" lon="2.482666">
        <ele>901.923</ele>
        <time>2021-05-28T07:40:30Z</time>
      </trkpt>
      <trkpt lat="42.396825" lon="2.482627">
        <ele>901.308</ele>
        <time>2021-05-28T07:40:32Z</time>
      </trkpt>
      <trkpt lat="42.396816" lon="2.482587">
        <ele>901.042</ele>
        <time>2021-05-28T07:40:34Z</time>
      </trkpt>
      <trkpt lat="42.396812" lon="2.482562">
        <ele>900.769</ele>
        <time>2021-05-28T07:40:36Z</time>
      </trkpt>
      <trkpt lat="42.396802" lon="2.482524">
        <ele>900.470</ele>
        <time>2021-05-28T07:40:39Z</time>
      </trkpt>
      <trkpt lat="42.396790" lon="2.482489">
        <ele>900.279</ele>
        <time>2021-05-28T07:40:41Z</time>
      </trkpt>
      <trkpt lat="42.396783" lon="2.482449">
        <ele>899.966</ele>
        <time>2021-05-28T07:40:43Z</time>
      </trkpt>
      <trkpt lat="42.396770" lon="2.482407">
        <ele>899.731</ele>
        <time>2021-05-28T07:40:45Z</time>
      </trkpt>
      <trkpt lat="42.396749" lon="2.482369">
        <ele>899.648</ele>
        <time>2021-05-28T07:40:47Z</time>
      </trkpt>
      <trkpt lat="42.396736" lon="2.482351">
        <ele>899.666</ele>
        <time>2021-05-28T07:40:48Z</time>
      </trkpt>
      <trkpt lat="42.396722" lon="2.482335">
        <ele>899.755</ele>
        <time>2021-05-28T07:40:49Z</time>
      </trkpt>
      <trkpt lat="42.396694" lon="2.482302">
        <ele>899.707</ele>
        <time>2021-05-28T07:40:51Z</time>
      </trkpt>
      <trkpt lat="42.396674" lon="2.482270">
        <ele>899.617</ele>
        <time>2021-05-28T07:40:53Z</time>
      </trkpt>
      <trkpt lat="42.396675" lon="2.482236">
        <ele>899.108</ele>
        <time>2021-05-28T07:40:55Z</time>
      </trkpt>
      <trkpt lat="42.396693" lon="2.482208">
        <ele>898.552</ele>
        <time>2021-05-28T07:40:57Z</time>
      </trkpt>
      <trkpt lat="42.396705" lon="2.482182">
        <ele>898.049</ele>
        <time>2021-05-28T07:40:59Z</time>
      </trkpt>
      <trkpt lat="42.396723" lon="2.482183">
        <ele>897.810</ele>
        <time>2021-05-28T07:41:01Z</time>
      </trkpt>
      <trkpt lat="42.396750" lon="2.482175">
        <ele>897.329</ele>
        <time>2021-05-28T07:41:03Z</time>
      </trkpt>
      <trkpt lat="42.396769" lon="2.482149">
        <ele>896.886</ele>
        <time>2021-05-28T07:41:05Z</time>
      </trkpt>
      <trkpt lat="42.396786" lon="2.482127">
        <ele>896.421</ele>
        <time>2021-05-28T07:41:07Z</time>
      </trkpt>
      <trkpt lat="42.396805" lon="2.482106">
        <ele>896.038</ele>
        <time>2021-05-28T07:41:17Z</time>
      </trkpt>
      <trkpt lat="42.396829" lon="2.482095">
        <ele>895.686</ele>
        <time>2021-05-28T07:41:19Z</time>
      </trkpt>
      <trkpt lat="42.396852" lon="2.482079">
        <ele>895.118</ele>
        <time>2021-05-28T07:41:21Z</time>
      </trkpt>
      <trkpt lat="42.396867" lon="2.482054">
        <ele>894.798</ele>
        <time>2021-05-28T07:41:23Z</time>
      </trkpt>
      <trkpt lat="42.396876" lon="2.482031">
        <ele>894.417</ele>
        <time>2021-05-28T07:41:25Z</time>
      </trkpt>
      <trkpt lat="42.396880" lon="2.482006">
        <ele>894.208</ele>
        <time>2021-05-28T07:41:27Z</time>
      </trkpt>
      <trkpt lat="42.396867" lon="2.481985">
        <ele>894.238</ele>
        <time>2021-05-28T07:41:30Z</time>
      </trkpt>
      <trkpt lat="42.396880" lon="2.481968">
        <ele>893.925</ele>
        <time>2021-05-28T07:41:35Z</time>
      </trkpt>
      <trkpt lat="42.396894" lon="2.481950">
        <ele>893.666</ele>
        <time>2021-05-28T07:41:37Z</time>
      </trkpt>
      <trkpt lat="42.396916" lon="2.481925">
        <ele>893.285</ele>
        <time>2021-05-28T07:41:39Z</time>
      </trkpt>
      <trkpt lat="42.396932" lon="2.481895">
        <ele>892.832</ele>
        <time>2021-05-28T07:41:42Z</time>
      </trkpt>
      <trkpt lat="42.396941" lon="2.481869">
        <ele>892.557</ele>
        <time>2021-05-28T07:41:43Z</time>
      </trkpt>
      <trkpt lat="42.396956" lon="2.481839">
        <ele>892.054</ele>
        <time>2021-05-28T07:41:45Z</time>
      </trkpt>
      <trkpt lat="42.396975" lon="2.481817">
        <ele>891.512</ele>
        <time>2021-05-28T07:41:47Z</time>
      </trkpt>
      <trkpt lat="42.397000" lon="2.481789">
        <ele>890.888</ele>
        <time>2021-05-28T07:41:49Z</time>
      </trkpt>
      <trkpt lat="42.397009" lon="2.481762">
        <ele>890.424</ele>
        <time>2021-05-28T07:41:51Z</time>
      </trkpt>
      <trkpt lat="42.397019" lon="2.481739">
        <ele>890.026</ele>
        <time>2021-05-28T07:41:53Z</time>
      </trkpt>
      <trkpt lat="42.397028" lon="2.481711">
        <ele>889.608</ele>
        <time>2021-05-28T07:41:55Z</time>
      </trkpt>
      <trkpt lat="42.397048" lon="2.481687">
        <ele>888.965</ele>
        <time>2021-05-28T07:42:02Z</time>
      </trkpt>
      <trkpt lat="42.397064" lon="2.481673">
        <ele>888.542</ele>
        <time>2021-05-28T07:42:04Z</time>
      </trkpt>
      <trkpt lat="42.397071" lon="2.481650">
        <ele>888.043</ele>
        <time>2021-05-28T07:42:08Z</time>
      </trkpt>
      <trkpt lat="42.397090" lon="2.481642">
        <ele>887.482</ele>
        <time>2021-05-28T07:42:20Z</time>
      </trkpt>
      <trkpt lat="42.397109" lon="2.481628">
        <ele>886.749</ele>
        <time>2021-05-28T07:42:23Z</time>
      </trkpt>
      <trkpt lat="42.397087" lon="2.481611">
        <ele>886.974</ele>
        <time>2021-05-28T07:42:26Z</time>
      </trkpt>
      <trkpt lat="42.397066" lon="2.481603">
        <ele>887.311</ele>
        <time>2021-05-28T07:42:30Z</time>
      </trkpt>
      <trkpt lat="42.397045" lon="2.481588">
        <ele>887.549</ele>
        <time>2021-05-28T07:42:32Z</time>
      </trkpt>
      <trkpt lat="42.397018" lon="2.481566">
        <ele>887.869</ele>
        <time>2021-05-28T07:42:34Z</time>
      </trkpt>
      <trkpt lat="42.397001" lon="2.481530">
        <ele>887.604</ele>
        <time>2021-05-28T07:42:36Z</time>
      </trkpt>
      <trkpt lat="42.397014" lon="2.481505">
        <ele>886.924</ele>
        <time>2021-05-28T07:42:38Z</time>
      </trkpt>
      <trkpt lat="42.397040" lon="2.481500">
        <ele>886.108</ele>
        <time>2021-05-28T07:42:40Z</time>
      </trkpt>
      <trkpt lat="42.397070" lon="2.481494">
        <ele>885.233</ele>
        <time>2021-05-28T07:42:42Z</time>
      </trkpt>
      <trkpt lat="42.397091" lon="2.481481">
        <ele>884.540</ele>
        <time>2021-05-28T07:42:44Z</time>
      </trkpt>
      <trkpt lat="42.397112" lon="2.481477">
        <ele>883.881</ele>
        <time>2021-05-28T07:42:46Z</time>
      </trkpt>
      <trkpt lat="42.397135" lon="2.481465">
        <ele>883.090</ele>
        <time>2021-05-28T07:42:49Z</time>
      </trkpt>
      <trkpt lat="42.397154" lon="2.481475">
        <ele>882.737</ele>
        <time>2021-05-28T07:42:51Z</time>
      </trkpt>
      <trkpt lat="42.397171" lon="2.481469">
        <ele>882.172</ele>
        <time>2021-05-28T07:42:52Z</time>
      </trkpt>
      <trkpt lat="42.397181" lon="2.481423">
        <ele>880.969</ele>
        <time>2021-05-28T07:42:54Z</time>
      </trkpt>
      <trkpt lat="42.397172" lon="2.481390">
        <ele>880.577</ele>
        <time>2021-05-28T07:42:56Z</time>
      </trkpt>
      <trkpt lat="42.397183" lon="2.481361">
        <ele>879.561</ele>
        <time>2021-05-28T07:42:58Z</time>
      </trkpt>
      <trkpt lat="42.397201" lon="2.481358">
        <ele>878.921</ele>
        <time>2021-05-28T07:43:00Z</time>
      </trkpt>
      <trkpt lat="42.397219" lon="2.481351">
        <ele>878.313</ele>
        <time>2021-05-28T07:43:02Z</time>
      </trkpt>
      <trkpt lat="42.397242" lon="2.481342">
        <ele>877.408</ele>
        <time>2021-05-28T07:43:04Z</time>
      </trkpt>
      <trkpt lat="42.397243" lon="2.481304">
        <ele>876.623</ele>
        <time>2021-05-28T07:43:06Z</time>
      </trkpt>
      <trkpt lat="42.397227" lon="2.481277">
        <ele>876.410</ele>
        <time>2021-05-28T07:43:08Z</time>
      </trkpt>
      <trkpt lat="42.397210" lon="2.481248">
        <ele>876.381</ele>
        <time>2021-05-28T07:43:10Z</time>
      </trkpt>
      <trkpt lat="42.397198" lon="2.481225">
        <ele>876.180</ele>
        <time>2021-05-28T07:43:12Z</time>
      </trkpt>
      <trkpt lat="42.397206" lon="2.481197">
        <ele>875.337</ele>
        <time>2021-05-28T07:43:15Z</time>
      </trkpt>
      <trkpt lat="42.397227" lon="2.481184">
        <ele>874.482</ele>
        <time>2021-05-28T07:43:17Z</time>
      </trkpt>
      <trkpt lat="42.397257" lon="2.481192">
        <ele>873.799</ele>
        <time>2021-05-28T07:43:19Z</time>
      </trkpt>
      <trkpt lat="42.397274" lon="2.481206">
        <ele>873.667</ele>
        <time>2021-05-28T07:43:20Z</time>
      </trkpt>
      <trkpt lat="42.397305" lon="2.481213">
        <ele>872.848</ele>
        <time>2021-05-28T07:43:22Z</time>
      </trkpt>
      <trkpt lat="42.397331" lon="2.481187">
        <ele>871.561</ele>
        <time>2021-05-28T07:43:24Z</time>
      </trkpt>
      <trkpt lat="42.397327" lon="2.481142">
        <ele>870.617</ele>
        <time>2021-05-28T07:43:26Z</time>
      </trkpt>
      <trkpt lat="42.397309" lon="2.481117">
        <ele>870.608</ele>
        <time>2021-05-28T07:43:28Z</time>
      </trkpt>
      <trkpt lat="42.397296" lon="2.481092">
        <ele>870.361</ele>
        <time>2021-05-28T07:43:30Z</time>
      </trkpt>
      <trkpt lat="42.397309" lon="2.481063">
        <ele>869.078</ele>
        <time>2021-05-28T07:43:32Z</time>
      </trkpt>
      <trkpt lat="42.397327" lon="2.481054">
        <ele>868.219</ele>
        <time>2021-05-28T07:43:33Z</time>
      </trkpt>
      <trkpt lat="42.397382" lon="2.481025">
        <ele>865.868</ele>
        <time>2021-05-28T07:43:36Z</time>
      </trkpt>
      <trkpt lat="42.397410" lon="2.481009">
        <ele>864.575</ele>
        <time>2021-05-28T07:43:38Z</time>
      </trkpt>
      <trkpt lat="42.397431" lon="2.480991">
        <ele>863.480</ele>
        <time>2021-05-28T07:43:40Z</time>
      </trkpt>
      <trkpt lat="42.397449" lon="2.480979">
        <ele>862.697</ele>
        <time>2021-05-28T07:43:41Z</time>
      </trkpt>
      <trkpt lat="42.397468" lon="2.480969">
        <ele>861.815</ele>
        <time>2021-05-28T07:43:42Z</time>
      </trkpt>
      <trkpt lat="42.397493" lon="2.480965">
        <ele>861.078</ele>
        <time>2021-05-28T07:43:44Z</time>
      </trkpt>
      <trkpt lat="42.397520" lon="2.480945">
        <ele>859.433</ele>
        <time>2021-05-28T07:43:46Z</time>
      </trkpt>
      <trkpt lat="42.397517" lon="2.480913">
        <ele>858.626</ele>
        <time>2021-05-28T07:43:48Z</time>
      </trkpt>
      <trkpt lat="42.397512" lon="2.480877">
        <ele>857.808</ele>
        <time>2021-05-28T07:43:50Z</time>
      </trkpt>
      <trkpt lat="42.397510" lon="2.480846">
        <ele>857.014</ele>
        <time>2021-05-28T07:43:52Z</time>
      </trkpt>
      <trkpt lat="42.397526" lon="2.480813">
        <ele>855.461</ele>
        <time>2021-05-28T07:43:54Z</time>
      </trkpt>
      <trkpt lat="42.397547" lon="2.480794">
        <ele>854.182</ele>
        <time>2021-05-28T07:43:58Z</time>
      </trkpt>
      <trkpt lat="42.397565" lon="2.480767">
        <ele>852.711</ele>
        <time>2021-05-28T07:44:00Z</time>
      </trkpt>
      <trkpt lat="42.397586" lon="2.480742">
        <ele>851.488</ele>
        <time>2021-05-28T07:44:02Z</time>
      </trkpt>
      <trkpt lat="42.397575" lon="2.480719">
        <ele>851.023</ele>
        <time>2021-05-28T07:44:04Z</time>
      </trkpt>
      <trkpt lat="42.397547" lon="2.480704">
        <ele>851.430</ele>
        <time>2021-05-28T07:44:06Z</time>
      </trkpt>
      <trkpt lat="42.397529" lon="2.480676">
        <ele>851.168</ele>
        <time>2021-05-28T07:44:08Z</time>
      </trkpt>
      <trkpt lat="42.397540" lon="2.480645">
        <ele>849.886</ele>
        <time>2021-05-28T07:44:10Z</time>
      </trkpt>
      <trkpt lat="42.397552" lon="2.480614">
        <ele>848.660</ele>
        <time>2021-05-28T07:44:11Z</time>
      </trkpt>
      <trkpt lat="42.397565" lon="2.480593">
        <ele>847.726</ele>
        <time>2021-05-28T07:44:12Z</time>
      </trkpt>
      <trkpt lat="42.397588" lon="2.480576">
        <ele>846.708</ele>
        <time>2021-05-28T07:44:15Z</time>
      </trkpt>
      <trkpt lat="42.397613" lon="2.480575">
        <ele>846.155</ele>
        <time>2021-05-28T07:44:17Z</time>
      </trkpt>
      <trkpt lat="42.397640" lon="2.480569">
        <ele>845.322</ele>
        <time>2021-05-28T07:44:19Z</time>
      </trkpt>
      <trkpt lat="42.397655" lon="2.480535">
        <ele>844.123</ele>
        <time>2021-05-28T07:44:21Z</time>
      </trkpt>
      <trkpt lat="42.397645" lon="2.480514">
        <ele>843.772</ele>
        <time>2021-05-28T07:44:23Z</time>
      </trkpt>
      <trkpt lat="42.397625" lon="2.480490">
        <ele>843.419</ele>
        <time>2021-05-28T07:44:25Z</time>
      </trkpt>
      <trkpt lat="42.397628" lon="2.480460">
        <ele>842.464</ele>
        <time>2021-05-28T07:44:27Z</time>
      </trkpt>
      <trkpt lat="42.397642" lon="2.480422">
        <ele>841.141</ele>
        <time>2021-05-28T07:44:29Z</time>
      </trkpt>
      <trkpt lat="42.397663" lon="2.480405">
        <ele>840.339</ele>
        <time>2021-05-28T07:44:31Z</time>
      </trkpt>
      <trkpt lat="42.397681" lon="2.480411">
        <ele>840.223</ele>
        <time>2021-05-28T07:44:33Z</time>
      </trkpt>
      <trkpt lat="42.397706" lon="2.480430">
        <ele>840.483</ele>
        <time>2021-05-28T07:44:35Z</time>
      </trkpt>
      <trkpt lat="42.397728" lon="2.480446">
        <ele>840.411</ele>
        <time>2021-05-28T07:44:37Z</time>
      </trkpt>
      <trkpt lat="42.397751" lon="2.480426">
        <ele>839.608</ele>
        <time>2021-05-28T07:44:39Z</time>
      </trkpt>
      <trkpt lat="42.397747" lon="2.480401">
        <ele>839.129</ele>
        <time>2021-05-28T07:44:41Z</time>
      </trkpt>
      <trkpt lat="42.397726" lon="2.480378">
        <ele>838.846</ele>
        <time>2021-05-28T07:44:43Z</time>
      </trkpt>
      <trkpt lat="42.397721" lon="2.480346">
        <ele>838.187</ele>
        <time>2021-05-28T07:44:45Z</time>
      </trkpt>
      <trkpt lat="42.397742" lon="2.480340">
        <ele>837.786</ele>
        <time>2021-05-28T07:44:48Z</time>
      </trkpt>
      <trkpt lat="42.397766" lon="2.480354">
        <ele>837.833</ele>
        <time>2021-05-28T07:44:51Z</time>
      </trkpt>
      <trkpt lat="42.397799" lon="2.480343">
        <ele>836.568</ele>
        <time>2021-05-28T07:44:53Z</time>
      </trkpt>
      <trkpt lat="42.397810" lon="2.480305">
        <ele>835.395</ele>
        <time>2021-05-28T07:44:55Z</time>
      </trkpt>
      <trkpt lat="42.397795" lon="2.480272">
        <ele>835.253</ele>
        <time>2021-05-28T07:44:57Z</time>
      </trkpt>
      <trkpt lat="42.397782" lon="2.480244">
        <ele>835.045</ele>
        <time>2021-05-28T07:44:59Z</time>
      </trkpt>
      <trkpt lat="42.397783" lon="2.480208">
        <ele>834.047</ele>
        <time>2021-05-28T07:45:01Z</time>
      </trkpt>
      <trkpt lat="42.397801" lon="2.480186">
        <ele>832.811</ele>
        <time>2021-05-28T07:45:03Z</time>
      </trkpt>
      <trkpt lat="42.397831" lon="2.480170">
        <ele>831.308</ele>
        <time>2021-05-28T07:45:05Z</time>
      </trkpt>
      <trkpt lat="42.397852" lon="2.480177">
        <ele>830.761</ele>
        <time>2021-05-28T07:45:07Z</time>
      </trkpt>
      <trkpt lat="42.397872" lon="2.480169">
        <ele>829.818</ele>
        <time>2021-05-28T07:45:09Z</time>
      </trkpt>
      <trkpt lat="42.397898" lon="2.480155">
        <ele>828.519</ele>
        <time>2021-05-28T07:45:11Z</time>
      </trkpt>
      <trkpt lat="42.397916" lon="2.480127">
        <ele>827.388</ele>
        <time>2021-05-28T07:45:13Z</time>
      </trkpt>
      <trkpt lat="42.397930" lon="2.480097">
        <ele>826.195</ele>
        <time>2021-05-28T07:45:15Z</time>
      </trkpt>
      <trkpt lat="42.397935" lon="2.480066">
        <ele>825.370</ele>
        <time>2021-05-28T07:45:17Z</time>
      </trkpt>
      <trkpt lat="42.397927" lon="2.480039">
        <ele>825.087</ele>
        <time>2021-05-28T07:45:19Z</time>
      </trkpt>
      <trkpt lat="42.397939" lon="2.480005">
        <ele>823.995</ele>
        <time>2021-05-28T07:45:21Z</time>
      </trkpt>
      <trkpt lat="42.397959" lon="2.479986">
        <ele>822.896</ele>
        <time>2021-05-28T07:45:23Z</time>
      </trkpt>
      <trkpt lat="42.397986" lon="2.479980">
        <ele>821.931</ele>
        <time>2021-05-28T07:45:26Z</time>
      </trkpt>
      <trkpt lat="42.397993" lon="2.479947">
        <ele>821.024</ele>
        <time>2021-05-28T07:45:29Z</time>
      </trkpt>
      <trkpt lat="42.397982" lon="2.479909">
        <ele>820.608</ele>
        <time>2021-05-28T07:45:31Z</time>
      </trkpt>
      <trkpt lat="42.397977" lon="2.479877">
        <ele>820.166</ele>
        <time>2021-05-28T07:45:33Z</time>
      </trkpt>
      <trkpt lat="42.397998" lon="2.479868">
        <ele>819.343</ele>
        <time>2021-05-28T07:45:35Z</time>
      </trkpt>
      <trkpt lat="42.398032" lon="2.479870">
        <ele>818.334</ele>
        <time>2021-05-28T07:45:37Z</time>
      </trkpt>
      <trkpt lat="42.398061" lon="2.479873">
        <ele>817.593</ele>
        <time>2021-05-28T07:45:39Z</time>
      </trkpt>
      <trkpt lat="42.398087" lon="2.479853">
        <ele>816.030</ele>
        <time>2021-05-28T07:45:41Z</time>
      </trkpt>
      <trkpt lat="42.398096" lon="2.479828">
        <ele>815.295</ele>
        <time>2021-05-28T07:45:43Z</time>
      </trkpt>
      <trkpt lat="42.398070" lon="2.479816">
        <ele>816.152</ele>
        <time>2021-05-28T07:45:45Z</time>
      </trkpt>
      <trkpt lat="42.398045" lon="2.479791">
        <ele>816.520</ele>
        <time>2021-05-28T07:45:47Z</time>
      </trkpt>
      <trkpt lat="42.398029" lon="2.479771">
        <ele>816.682</ele>
        <time>2021-05-28T07:45:49Z</time>
      </trkpt>
      <trkpt lat="42.398023" lon="2.479746">
        <ele>816.343</ele>
        <time>2021-05-28T07:45:51Z</time>
      </trkpt>
      <trkpt lat="42.398036" lon="2.479723">
        <ele>815.517</ele>
        <time>2021-05-28T07:45:53Z</time>
      </trkpt>
      <trkpt lat="42.398054" lon="2.479715">
        <ele>814.908</ele>
        <time>2021-05-28T07:45:55Z</time>
      </trkpt>
      <trkpt lat="42.398081" lon="2.479708">
        <ele>813.635</ele>
        <time>2021-05-28T07:45:57Z</time>
      </trkpt>
      <trkpt lat="42.398117" lon="2.479697">
        <ele>811.852</ele>
        <time>2021-05-28T07:45:59Z</time>
      </trkpt>
      <trkpt lat="42.398137" lon="2.479671">
        <ele>810.483</ele>
        <time>2021-05-28T07:46:01Z</time>
      </trkpt>
      <trkpt lat="42.398139" lon="2.479628">
        <ele>809.542</ele>
        <time>2021-05-28T07:46:03Z</time>
      </trkpt>
      <trkpt lat="42.398124" lon="2.479592">
        <ele>809.329</ele>
        <time>2021-05-28T07:46:05Z</time>
      </trkpt>
      <trkpt lat="42.398099" lon="2.479572">
        <ele>810.084</ele>
        <time>2021-05-28T07:46:07Z</time>
      </trkpt>
      <trkpt lat="42.398080" lon="2.479550">
        <ele>810.371</ele>
        <time>2021-05-28T07:46:09Z</time>
      </trkpt>
      <trkpt lat="42.398098" lon="2.479531">
        <ele>809.129</ele>
        <time>2021-05-28T07:46:14Z</time>
      </trkpt>
      <trkpt lat="42.398118" lon="2.479526">
        <ele>808.215</ele>
        <time>2021-05-28T07:46:16Z</time>
      </trkpt>
      <trkpt lat="42.398145" lon="2.479516">
        <ele>806.965</ele>
        <time>2021-05-28T07:46:18Z</time>
      </trkpt>
      <trkpt lat="42.398174" lon="2.479512">
        <ele>805.711</ele>
        <time>2021-05-28T07:46:20Z</time>
      </trkpt>
      <trkpt lat="42.398195" lon="2.479519">
        <ele>805.008</ele>
        <time>2021-05-28T07:46:22Z</time>
      </trkpt>
      <trkpt lat="42.398219" lon="2.479536">
        <ele>804.388</ele>
        <time>2021-05-28T07:46:24Z</time>
      </trkpt>
      <trkpt lat="42.398313" lon="2.479584">
        <ele>801.435</ele>
        <time>2021-05-28T07:46:31Z</time>
      </trkpt>
      <trkpt lat="42.398388" lon="2.479638">
        <ele>799.646</ele>
        <time>2021-05-28T07:46:37Z</time>
      </trkpt>
      <trkpt lat="42.398436" lon="2.479701">
        <ele>799.225</ele>
        <time>2021-05-28T07:46:41Z</time>
      </trkpt>
      <trkpt lat="42.398459" lon="2.479704">
        <ele>798.552</ele>
        <time>2021-05-28T07:46:42Z</time>
      </trkpt>
      <trkpt lat="42.398536" lon="2.479716">
        <ele>796.377</ele>
        <time>2021-05-28T07:46:46Z</time>
      </trkpt>
      <trkpt lat="42.398566" lon="2.479722">
        <ele>795.544</ele>
        <time>2021-05-28T07:46:48Z</time>
      </trkpt>
      <trkpt lat="42.398592" lon="2.479739">
        <ele>795.082</ele>
        <time>2021-05-28T07:46:50Z</time>
      </trkpt>
      <trkpt lat="42.398612" lon="2.479743">
        <ele>794.474</ele>
        <time>2021-05-28T07:46:52Z</time>
      </trkpt>
      <trkpt lat="42.398631" lon="2.479735">
        <ele>793.356</ele>
        <time>2021-05-28T07:46:53Z</time>
      </trkpt>
      <trkpt lat="42.398649" lon="2.479733">
        <ele>792.421</ele>
        <time>2021-05-28T07:46:54Z</time>
      </trkpt>
      <trkpt lat="42.398672" lon="2.479741">
        <ele>791.508</ele>
        <time>2021-05-28T07:46:56Z</time>
      </trkpt>
      <trkpt lat="42.398693" lon="2.479747">
        <ele>790.664</ele>
        <time>2021-05-28T07:46:58Z</time>
      </trkpt>
      <trkpt lat="42.398724" lon="2.479763">
        <ele>789.521</ele>
        <time>2021-05-28T07:47:00Z</time>
      </trkpt>
      <trkpt lat="42.398773" lon="2.479778">
        <ele>787.432</ele>
        <time>2021-05-28T07:47:04Z</time>
      </trkpt>
      <trkpt lat="42.398795" lon="2.479755">
        <ele>785.941</ele>
        <time>2021-05-28T07:47:06Z</time>
      </trkpt>
      <trkpt lat="42.398822" lon="2.479736">
        <ele>784.418</ele>
        <time>2021-05-28T07:47:08Z</time>
      </trkpt>
      <trkpt lat="42.398854" lon="2.479724">
        <ele>782.733</ele>
        <time>2021-05-28T07:47:10Z</time>
      </trkpt>
      <trkpt lat="42.398884" lon="2.479722">
        <ele>781.290</ele>
        <time>2021-05-28T07:47:12Z</time>
      </trkpt>
      <trkpt lat="42.398917" lon="2.479729">
        <ele>779.478</ele>
        <time>2021-05-28T07:47:14Z</time>
      </trkpt>
      <trkpt lat="42.398945" lon="2.479747">
        <ele>777.914</ele>
        <time>2021-05-28T07:47:16Z</time>
      </trkpt>
      <trkpt lat="42.398964" lon="2.479765">
        <ele>777.054</ele>
        <time>2021-05-28T07:47:18Z</time>
      </trkpt>
      <trkpt lat="42.399010" lon="2.479806">
        <ele>774.809</ele>
        <time>2021-05-28T07:47:22Z</time>
      </trkpt>
      <trkpt lat="42.399050" lon="2.479796">
        <ele>772.208</ele>
        <time>2021-05-28T07:47:25Z</time>
      </trkpt>
      <trkpt lat="42.399066" lon="2.479779">
        <ele>771.098</ele>
        <time>2021-05-28T07:47:26Z</time>
      </trkpt>
      <trkpt lat="42.399075" lon="2.479742">
        <ele>769.925</ele>
        <time>2021-05-28T07:47:28Z</time>
      </trkpt>
      <trkpt lat="42.399072" lon="2.479708">
        <ele>769.796</ele>
        <time>2021-05-28T07:47:30Z</time>
      </trkpt>
      <trkpt lat="42.399069" lon="2.479673">
        <ele>769.695</ele>
        <time>2021-05-28T07:47:32Z</time>
      </trkpt>
      <trkpt lat="42.399065" lon="2.479648">
        <ele>769.792</ele>
        <time>2021-05-28T07:47:33Z</time>
      </trkpt>
      <trkpt lat="42.399054" lon="2.479628">
        <ele>770.177</ele>
        <time>2021-05-28T07:47:34Z</time>
      </trkpt>
      <trkpt lat="42.399072" lon="2.479605">
        <ele>768.924</ele>
        <time>2021-05-28T07:47:37Z</time>
      </trkpt>
      <trkpt lat="42.399094" lon="2.479626">
        <ele>767.852</ele>
        <time>2021-05-28T07:47:39Z</time>
      </trkpt>
      <trkpt lat="42.399116" lon="2.479651">
        <ele>766.748</ele>
        <time>2021-05-28T07:47:41Z</time>
      </trkpt>
      <trkpt lat="42.399149" lon="2.479657">
        <ele>764.861</ele>
        <time>2021-05-28T07:47:43Z</time>
      </trkpt>
      <trkpt lat="42.399165" lon="2.479639">
        <ele>763.817</ele>
        <time>2021-05-28T07:47:44Z</time>
      </trkpt>
      <trkpt lat="42.399174" lon="2.479616">
        <ele>763.108</ele>
        <time>2021-05-28T07:47:45Z</time>
      </trkpt>
      <trkpt lat="42.399180" lon="2.479582">
        <ele>762.671</ele>
        <time>2021-05-28T07:47:47Z</time>
      </trkpt>
      <trkpt lat="42.399162" lon="2.479556">
        <ele>763.798</ele>
        <time>2021-05-28T07:47:49Z</time>
      </trkpt>
      <trkpt lat="42.399150" lon="2.479527">
        <ele>764.259</ele>
        <time>2021-05-28T07:47:51Z</time>
      </trkpt>
      <trkpt lat="42.399141" lon="2.479494">
        <ele>764.548</ele>
        <time>2021-05-28T07:47:53Z</time>
      </trkpt>
      <trkpt lat="42.399130" lon="2.479458">
        <ele>764.945</ele>
        <time>2021-05-28T07:47:55Z</time>
      </trkpt>
      <trkpt lat="42.399119" lon="2.479426">
        <ele>765.030</ele>
        <time>2021-05-28T07:47:57Z</time>
      </trkpt>
      <trkpt lat="42.399113" lon="2.479392">
        <ele>764.747</ele>
        <time>2021-05-28T07:47:59Z</time>
      </trkpt>
      <trkpt lat="42.399131" lon="2.479371">
        <ele>763.415</ele>
        <time>2021-05-28T07:48:02Z</time>
      </trkpt>
      <trkpt lat="42.399153" lon="2.479363">
        <ele>762.218</ele>
        <time>2021-05-28T07:48:04Z</time>
      </trkpt>
      <trkpt lat="42.399183" lon="2.479365">
        <ele>760.598</ele>
        <time>2021-05-28T07:48:06Z</time>
      </trkpt>
      <trkpt lat="42.399204" lon="2.479365">
        <ele>759.117</ele>
        <time>2021-05-28T07:48:08Z</time>
      </trkpt>
      <trkpt lat="42.399236" lon="2.479355">
        <ele>756.908</ele>
        <time>2021-05-28T07:48:10Z</time>
      </trkpt>
      <trkpt lat="42.399266" lon="2.479359">
        <ele>755.088</ele>
        <time>2021-05-28T07:48:12Z</time>
      </trkpt>
      <trkpt lat="42.399299" lon="2.479369">
        <ele>753.035</ele>
        <time>2021-05-28T07:48:14Z</time>
      </trkpt>
      <trkpt lat="42.399327" lon="2.479360">
        <ele>751.046</ele>
        <time>2021-05-28T07:48:16Z</time>
      </trkpt>
      <trkpt lat="42.399331" lon="2.479327">
        <ele>750.415</ele>
        <time>2021-05-28T07:48:18Z</time>
      </trkpt>
      <trkpt lat="42.399341" lon="2.479301">
        <ele>749.512</ele>
        <time>2021-05-28T07:48:20Z</time>
      </trkpt>
      <trkpt lat="42.399362" lon="2.479301">
        <ele>748.117</ele>
        <time>2021-05-28T07:48:22Z</time>
      </trkpt>
      <trkpt lat="42.399386" lon="2.479304">
        <ele>746.724</ele>
        <time>2021-05-28T07:48:24Z</time>
      </trkpt>
      <trkpt lat="42.399404" lon="2.479320">
        <ele>745.722</ele>
        <time>2021-05-28T07:48:26Z</time>
      </trkpt>
      <trkpt lat="42.399421" lon="2.479331">
        <ele>744.785</ele>
        <time>2021-05-28T07:48:29Z</time>
      </trkpt>
      <trkpt lat="42.399460" lon="2.479321">
        <ele>742.889</ele>
        <time>2021-05-28T07:48:33Z</time>
      </trkpt>
      <trkpt lat="42.399461" lon="2.479289">
        <ele>742.517</ele>
        <time>2021-05-28T07:48:35Z</time>
      </trkpt>
      <trkpt lat="42.399454" lon="2.479259">
        <ele>742.508</ele>
        <time>2021-05-28T07:48:37Z</time>
      </trkpt>
      <trkpt lat="42.399434" lon="2.479231">
        <ele>743.115</ele>
        <time>2021-05-28T07:48:39Z</time>
      </trkpt>
      <trkpt lat="42.399410" lon="2.479170">
        <ele>744.052</ele>
        <time>2021-05-28T07:48:42Z</time>
      </trkpt>
      <trkpt lat="42.399381" lon="2.479086">
        <ele>744.533</ele>
        <time>2021-05-28T07:48:47Z</time>
      </trkpt>
      <trkpt lat="42.399360" lon="2.479047">
        <ele>745.072</ele>
        <time>2021-05-28T07:48:49Z</time>
      </trkpt>
      <trkpt lat="42.399350" lon="2.479009">
        <ele>744.889</ele>
        <time>2021-05-28T07:48:51Z</time>
      </trkpt>
      <trkpt lat="42.399271" lon="2.478938">
        <ele>746.234</ele>
        <time>2021-05-28T07:48:57Z</time>
      </trkpt>
      <trkpt lat="42.399232" lon="2.478825">
        <ele>746.031</ele>
        <time>2021-05-28T07:49:07Z</time>
      </trkpt>
      <trkpt lat="42.399307" lon="2.478747">
        <ele>744.049</ele>
        <time>2021-05-28T07:49:19Z</time>
      </trkpt>
      <trkpt lat="42.399380" lon="2.478828">
        <ele>742.031</ele>
        <time>2021-05-28T07:49:24Z</time>
      </trkpt>
      <trkpt lat="42.399455" lon="2.478918">
        <ele>740.161</ele>
        <time>2021-05-28T07:49:29Z</time>
      </trkpt>
      <trkpt lat="42.399540" lon="2.478984">
        <ele>739.607</ele>
        <time>2021-05-28T07:49:33Z</time>
      </trkpt>
      <trkpt lat="42.399615" lon="2.479062">
        <ele>738.908</ele>
        <time>2021-05-28T07:49:38Z</time>
      </trkpt>
      <trkpt lat="42.399712" lon="2.479097">
        <ele>737.470</ele>
        <time>2021-05-28T07:49:42Z</time>
      </trkpt>
      <trkpt lat="42.399807" lon="2.479147">
        <ele>737.887</ele>
        <time>2021-05-28T07:49:46Z</time>
      </trkpt>
      <trkpt lat="42.399904" lon="2.479154">
        <ele>738.588</ele>
        <time>2021-05-28T07:49:51Z</time>
      </trkpt>
      <trkpt lat="42.400005" lon="2.479139">
        <ele>739.717</ele>
        <time>2021-05-28T07:49:56Z</time>
      </trkpt>
      <trkpt lat="42.400100" lon="2.479141">
        <ele>741.244</ele>
        <time>2021-05-28T07:50:02Z</time>
      </trkpt>
      <trkpt lat="42.400074" lon="2.479260">
        <ele>738.989</ele>
        <time>2021-05-28T07:50:09Z</time>
      </trkpt>
      <trkpt lat="42.400159" lon="2.479345">
        <ele>738.666</ele>
        <time>2021-05-28T07:50:16Z</time>
      </trkpt>
      <trkpt lat="42.400257" lon="2.479343">
        <ele>739.674</ele>
        <time>2021-05-28T07:50:21Z</time>
      </trkpt>
      <trkpt lat="42.400359" lon="2.479344">
        <ele>741.856</ele>
        <time>2021-05-28T07:50:30Z</time>
      </trkpt>
      <trkpt lat="42.400450" lon="2.479379">
        <ele>743.059</ele>
        <time>2021-05-28T07:50:39Z</time>
      </trkpt>
      <trkpt lat="42.400548" lon="2.479417">
        <ele>743.814</ele>
        <time>2021-05-28T07:50:47Z</time>
      </trkpt>
      <trkpt lat="42.400628" lon="2.479481">
        <ele>744.408</ele>
        <time>2021-05-28T07:50:54Z</time>
      </trkpt>
      <trkpt lat="42.400709" lon="2.479553">
        <ele>745.022</ele>
        <time>2021-05-28T07:51:01Z</time>
      </trkpt>
      <trkpt lat="42.400760" lon="2.479683">
        <ele>743.369</ele>
        <time>2021-05-28T07:51:08Z</time>
      </trkpt>
      <trkpt lat="42.400835" lon="2.479774">
        <ele>742.970</ele>
        <time>2021-05-28T07:51:15Z</time>
      </trkpt>
      <trkpt lat="42.400903" lon="2.479875">
        <ele>741.389</ele>
        <time>2021-05-28T07:51:21Z</time>
      </trkpt>
      <trkpt lat="42.400966" lon="2.479983">
        <ele>739.486</ele>
        <time>2021-05-28T07:51:25Z</time>
      </trkpt>
      <trkpt lat="42.401049" lon="2.480041">
        <ele>738.781</ele>
        <time>2021-05-28T07:51:30Z</time>
      </trkpt>
      <trkpt lat="42.401142" lon="2.480001">
        <ele>739.858</ele>
        <time>2021-05-28T07:51:40Z</time>
      </trkpt>
      <trkpt lat="42.401110" lon="2.480116">
        <ele>737.556</ele>
        <time>2021-05-28T07:51:43Z</time>
      </trkpt>
      <trkpt lat="42.401131" lon="2.480101">
        <ele>737.794</ele>
        <time>2021-05-28T07:51:45Z</time>
      </trkpt>
      <trkpt lat="42.401151" lon="2.480078">
        <ele>738.057</ele>
        <time>2021-05-28T07:51:46Z</time>
      </trkpt>
      <trkpt lat="42.401178" lon="2.480044">
        <ele>738.622</ele>
        <time>2021-05-28T07:51:47Z</time>
      </trkpt>
      <trkpt lat="42.401203" lon="2.480014">
        <ele>739.008</ele>
        <time>2021-05-28T07:51:48Z</time>
      </trkpt>
      <trkpt lat="42.401228" lon="2.479980">
        <ele>739.786</ele>
        <time>2021-05-28T07:51:49Z</time>
      </trkpt>
      <trkpt lat="42.401252" lon="2.479952">
        <ele>740.243</ele>
        <time>2021-05-28T07:51:50Z</time>
      </trkpt>
      <trkpt lat="42.401279" lon="2.479927">
        <ele>740.654</ele>
        <time>2021-05-28T07:51:51Z</time>
      </trkpt>
      <trkpt lat="42.401306" lon="2.479908">
        <ele>740.913</ele>
        <time>2021-05-28T07:51:52Z</time>
      </trkpt>
      <trkpt lat="42.401332" lon="2.479895">
        <ele>741.170</ele>
        <time>2021-05-28T07:51:53Z</time>
      </trkpt>
      <trkpt lat="42.401359" lon="2.479880">
        <ele>741.285</ele>
        <time>2021-05-28T07:51:54Z</time>
      </trkpt>
      <trkpt lat="42.401387" lon="2.479859">
        <ele>741.632</ele>
        <time>2021-05-28T07:51:55Z</time>
      </trkpt>
      <trkpt lat="42.401412" lon="2.479843">
        <ele>741.510</ele>
        <time>2021-05-28T07:51:56Z</time>
      </trkpt>
      <trkpt lat="42.401437" lon="2.479830">
        <ele>741.433</ele>
        <time>2021-05-28T07:51:57Z</time>
      </trkpt>
      <trkpt lat="42.401457" lon="2.479818">
        <ele>741.323</ele>
        <time>2021-05-28T07:51:58Z</time>
      </trkpt>
      <trkpt lat="42.401477" lon="2.479805">
        <ele>741.215</ele>
        <time>2021-05-28T07:51:59Z</time>
      </trkpt>
      <trkpt lat="42.401494" lon="2.479792">
        <ele>741.208</ele>
        <time>2021-05-28T07:52:00Z</time>
      </trkpt>
      <trkpt lat="42.401519" lon="2.479770">
        <ele>741.180</ele>
        <time>2021-05-28T07:52:02Z</time>
      </trkpt>
      <trkpt lat="42.401544" lon="2.479741">
        <ele>741.377</ele>
        <time>2021-05-28T07:52:04Z</time>
      </trkpt>
      <trkpt lat="42.401560" lon="2.479724">
        <ele>741.358</ele>
        <time>2021-05-28T07:52:05Z</time>
      </trkpt>
      <trkpt lat="42.401577" lon="2.479707">
        <ele>741.217</ele>
        <time>2021-05-28T07:52:06Z</time>
      </trkpt>
      <trkpt lat="42.401595" lon="2.479693">
        <ele>741.074</ele>
        <time>2021-05-28T07:52:07Z</time>
      </trkpt>
      <trkpt lat="42.401615" lon="2.479679">
        <ele>740.889</ele>
        <time>2021-05-28T07:52:08Z</time>
      </trkpt>
      <trkpt lat="42.401636" lon="2.479663">
        <ele>740.646</ele>
        <time>2021-05-28T07:52:09Z</time>
      </trkpt>
      <trkpt lat="42.401657" lon="2.479648">
        <ele>740.314</ele>
        <time>2021-05-28T07:52:10Z</time>
      </trkpt>
      <trkpt lat="42.401678" lon="2.479634">
        <ele>740.011</ele>
        <time>2021-05-28T07:52:11Z</time>
      </trkpt>
      <trkpt lat="42.401697" lon="2.479620">
        <ele>739.821</ele>
        <time>2021-05-28T07:52:12Z</time>
      </trkpt>
      <trkpt lat="42.401716" lon="2.479607">
        <ele>739.603</ele>
        <time>2021-05-28T07:52:13Z</time>
      </trkpt>
      <trkpt lat="42.401735" lon="2.479595">
        <ele>739.408</ele>
        <time>2021-05-28T07:52:14Z</time>
      </trkpt>
      <trkpt lat="42.401755" lon="2.479583">
        <ele>739.148</ele>
        <time>2021-05-28T07:52:15Z</time>
      </trkpt>
      <trkpt lat="42.401776" lon="2.479572">
        <ele>738.845</ele>
        <time>2021-05-28T07:52:16Z</time>
      </trkpt>
      <trkpt lat="42.401795" lon="2.479562">
        <ele>738.586</ele>
        <time>2021-05-28T07:52:17Z</time>
      </trkpt>
      <trkpt lat="42.401815" lon="2.479552">
        <ele>738.265</ele>
        <time>2021-05-28T07:52:18Z</time>
      </trkpt>
      <trkpt lat="42.401835" lon="2.479544">
        <ele>737.982</ele>
        <time>2021-05-28T07:52:19Z</time>
      </trkpt>
      <trkpt lat="42.401855" lon="2.479537">
        <ele>737.687</ele>
        <time>2021-05-28T07:52:20Z</time>
      </trkpt>
      <trkpt lat="42.401876" lon="2.479530">
        <ele>737.294</ele>
        <time>2021-05-28T07:52:21Z</time>
      </trkpt>
      <trkpt lat="42.401897" lon="2.479522">
        <ele>736.982</ele>
        <time>2021-05-28T07:52:22Z</time>
      </trkpt>
      <trkpt lat="42.401917" lon="2.479514">
        <ele>736.671</ele>
        <time>2021-05-28T07:52:23Z</time>
      </trkpt>
      <trkpt lat="42.401937" lon="2.479507">
        <ele>736.341</ele>
        <time>2021-05-28T07:52:24Z</time>
      </trkpt>
      <trkpt lat="42.401958" lon="2.479502">
        <ele>735.915</ele>
        <time>2021-05-28T07:52:25Z</time>
      </trkpt>
      <trkpt lat="42.401979" lon="2.479495">
        <ele>735.708</ele>
        <time>2021-05-28T07:52:26Z</time>
      </trkpt>
      <trkpt lat="42.401998" lon="2.479492">
        <ele>735.414</ele>
        <time>2021-05-28T07:52:27Z</time>
      </trkpt>
      <trkpt lat="42.402034" lon="2.479486">
        <ele>734.861</ele>
        <time>2021-05-28T07:52:29Z</time>
      </trkpt>
      <trkpt lat="42.402054" lon="2.479488">
        <ele>734.532</ele>
        <time>2021-05-28T07:52:30Z</time>
      </trkpt>
      <trkpt lat="42.402074" lon="2.479489">
        <ele>734.191</ele>
        <time>2021-05-28T07:52:31Z</time>
      </trkpt>
      <trkpt lat="42.402095" lon="2.479493">
        <ele>733.768</ele>
        <time>2021-05-28T07:52:32Z</time>
      </trkpt>
      <trkpt lat="42.402118" lon="2.479501">
        <ele>733.223</ele>
        <time>2021-05-28T07:52:33Z</time>
      </trkpt>
      <trkpt lat="42.402138" lon="2.479509">
        <ele>732.740</ele>
        <time>2021-05-28T07:52:34Z</time>
      </trkpt>
      <trkpt lat="42.402160" lon="2.479513">
        <ele>732.358</ele>
        <time>2021-05-28T07:52:35Z</time>
      </trkpt>
      <trkpt lat="42.402182" lon="2.479514">
        <ele>731.916</ele>
        <time>2021-05-28T07:52:36Z</time>
      </trkpt>
      <trkpt lat="42.402200" lon="2.479519">
        <ele>731.676</ele>
        <time>2021-05-28T07:52:37Z</time>
      </trkpt>
      <trkpt lat="42.402220" lon="2.479526">
        <ele>731.213</ele>
        <time>2021-05-28T07:52:38Z</time>
      </trkpt>
      <trkpt lat="42.402253" lon="2.479528">
        <ele>730.408</ele>
        <time>2021-05-28T07:52:40Z</time>
      </trkpt>
      <trkpt lat="42.402272" lon="2.479528">
        <ele>729.998</ele>
        <time>2021-05-28T07:52:41Z</time>
      </trkpt>
      <trkpt lat="42.402292" lon="2.479532">
        <ele>729.475</ele>
        <time>2021-05-28T07:52:42Z</time>
      </trkpt>
      <trkpt lat="42.402312" lon="2.479538">
        <ele>728.856</ele>
        <time>2021-05-28T07:52:43Z</time>
      </trkpt>
      <trkpt lat="42.402333" lon="2.479543">
        <ele>728.385</ele>
        <time>2021-05-28T07:52:44Z</time>
      </trkpt>
      <trkpt lat="42.402353" lon="2.479547">
        <ele>727.872</ele>
        <time>2021-05-28T07:52:45Z</time>
      </trkpt>
      <trkpt lat="42.402373" lon="2.479550">
        <ele>727.357</ele>
        <time>2021-05-28T07:52:46Z</time>
      </trkpt>
      <trkpt lat="42.402392" lon="2.479553">
        <ele>726.834</ele>
        <time>2021-05-28T07:52:47Z</time>
      </trkpt>
      <trkpt lat="42.402422" lon="2.479559">
        <ele>726.092</ele>
        <time>2021-05-28T07:52:49Z</time>
      </trkpt>
      <trkpt lat="42.402447" lon="2.479563">
        <ele>725.456</ele>
        <time>2021-05-28T07:52:51Z</time>
      </trkpt>
      <trkpt lat="42.402469" lon="2.479565">
        <ele>724.959</ele>
        <time>2021-05-28T07:52:53Z</time>
      </trkpt>
      <trkpt lat="42.402491" lon="2.479571">
        <ele>724.314</ele>
        <time>2021-05-28T07:52:55Z</time>
      </trkpt>
      <trkpt lat="42.402515" lon="2.479583">
        <ele>723.808</ele>
        <time>2021-05-28T07:52:57Z</time>
      </trkpt>
      <trkpt lat="42.402541" lon="2.479591">
        <ele>723.552</ele>
        <time>2021-05-28T07:52:59Z</time>
      </trkpt>
      <trkpt lat="42.402570" lon="2.479585">
        <ele>723.249</ele>
        <time>2021-05-28T07:53:01Z</time>
      </trkpt>
      <trkpt lat="42.402594" lon="2.479570">
        <ele>723.120</ele>
        <time>2021-05-28T07:53:03Z</time>
      </trkpt>
      <trkpt lat="42.402616" lon="2.479559">
        <ele>722.989</ele>
        <time>2021-05-28T07:53:05Z</time>
      </trkpt>
      <trkpt lat="42.402641" lon="2.479553">
        <ele>722.756</ele>
        <time>2021-05-28T07:53:07Z</time>
      </trkpt>
      <trkpt lat="42.402670" lon="2.479554">
        <ele>722.411</ele>
        <time>2021-05-28T07:53:09Z</time>
      </trkpt>
      <trkpt lat="42.402697" lon="2.479562">
        <ele>722.038</ele>
        <time>2021-05-28T07:53:11Z</time>
      </trkpt>
      <trkpt lat="42.402722" lon="2.479574">
        <ele>721.746</ele>
        <time>2021-05-28T07:53:13Z</time>
      </trkpt>
      <trkpt lat="42.402747" lon="2.479583">
        <ele>721.343</ele>
        <time>2021-05-28T07:53:15Z</time>
      </trkpt>
      <trkpt lat="42.402771" lon="2.479589">
        <ele>721.064</ele>
        <time>2021-05-28T07:53:21Z</time>
      </trkpt>
      <trkpt lat="42.402795" lon="2.479592">
        <ele>721.010</ele>
        <time>2021-05-28T07:53:23Z</time>
      </trkpt>
      <trkpt lat="42.402820" lon="2.479601">
        <ele>721.008</ele>
        <time>2021-05-28T07:53:25Z</time>
      </trkpt>
      <trkpt lat="42.402847" lon="2.479607">
        <ele>721.071</ele>
        <time>2021-05-28T07:53:27Z</time>
      </trkpt>
      <trkpt lat="42.402873" lon="2.479614">
        <ele>721.088</ele>
        <time>2021-05-28T07:53:29Z</time>
      </trkpt>
      <trkpt lat="42.402898" lon="2.479621">
        <ele>721.069</ele>
        <time>2021-05-28T07:53:31Z</time>
      </trkpt>
      <trkpt lat="42.402927" lon="2.479628">
        <ele>721.098</ele>
        <time>2021-05-28T07:53:33Z</time>
      </trkpt>
      <trkpt lat="42.402954" lon="2.479635">
        <ele>721.135</ele>
        <time>2021-05-28T07:53:35Z</time>
      </trkpt>
      <trkpt lat="42.402980" lon="2.479642">
        <ele>721.190</ele>
        <time>2021-05-28T07:53:37Z</time>
      </trkpt>
      <trkpt lat="42.403007" lon="2.479650">
        <ele>721.157</ele>
        <time>2021-05-28T07:53:39Z</time>
      </trkpt>
      <trkpt lat="42.403034" lon="2.479655">
        <ele>721.295</ele>
        <time>2021-05-28T07:53:41Z</time>
      </trkpt>
      <trkpt lat="42.403063" lon="2.479661">
        <ele>721.358</ele>
        <time>2021-05-28T07:53:44Z</time>
      </trkpt>
      <trkpt lat="42.403088" lon="2.479666">
        <ele>721.852</ele>
        <time>2021-05-28T07:53:45Z</time>
      </trkpt>
      <trkpt lat="42.403119" lon="2.479670">
        <ele>722.317</ele>
        <time>2021-05-28T07:53:47Z</time>
      </trkpt>
      <trkpt lat="42.403148" lon="2.479672">
        <ele>722.808</ele>
        <time>2021-05-28T07:53:49Z</time>
      </trkpt>
      <trkpt lat="42.403176" lon="2.479679">
        <ele>723.362</ele>
        <time>2021-05-28T07:53:51Z</time>
      </trkpt>
      <trkpt lat="42.403202" lon="2.479688">
        <ele>723.729</ele>
        <time>2021-05-28T07:53:53Z</time>
      </trkpt>
      <trkpt lat="42.403229" lon="2.479698">
        <ele>724.270</ele>
        <time>2021-05-28T07:53:55Z</time>
      </trkpt>
      <trkpt lat="42.403254" lon="2.479712">
        <ele>724.699</ele>
        <time>2021-05-28T07:53:57Z</time>
      </trkpt>
      <trkpt lat="42.403279" lon="2.479725">
        <ele>725.076</ele>
        <time>2021-05-28T07:53:59Z</time>
      </trkpt>
      <trkpt lat="42.403310" lon="2.479735">
        <ele>725.711</ele>
        <time>2021-05-28T07:54:01Z</time>
      </trkpt>
      <trkpt lat="42.403342" lon="2.479739">
        <ele>726.388</ele>
        <time>2021-05-28T07:54:03Z</time>
      </trkpt>
      <trkpt lat="42.403372" lon="2.479739">
        <ele>727.136</ele>
        <time>2021-05-28T07:54:05Z</time>
      </trkpt>
      <trkpt lat="42.403400" lon="2.479746">
        <ele>727.883</ele>
        <time>2021-05-28T07:54:07Z</time>
      </trkpt>
      <trkpt lat="42.403428" lon="2.479758">
        <ele>728.625</ele>
        <time>2021-05-28T07:54:09Z</time>
      </trkpt>
      <trkpt lat="42.403454" lon="2.479770">
        <ele>729.317</ele>
        <time>2021-05-28T07:54:11Z</time>
      </trkpt>
      <trkpt lat="42.403485" lon="2.479773">
        <ele>730.108</ele>
        <time>2021-05-28T07:54:13Z</time>
      </trkpt>
      <trkpt lat="42.403511" lon="2.479777">
        <ele>730.765</ele>
        <time>2021-05-28T07:54:15Z</time>
      </trkpt>
      <trkpt lat="42.403540" lon="2.479779">
        <ele>731.552</ele>
        <time>2021-05-28T07:54:17Z</time>
      </trkpt>
      <trkpt lat="42.403566" lon="2.479783">
        <ele>732.143</ele>
        <time>2021-05-28T07:54:19Z</time>
      </trkpt>
      <trkpt lat="42.403664" lon="2.479788">
        <ele>734.512</ele>
        <time>2021-05-28T07:54:25Z</time>
      </trkpt>
      <trkpt lat="42.403722" lon="2.479894">
        <ele>736.269</ele>
        <time>2021-05-28T07:54:31Z</time>
      </trkpt>
      <trkpt lat="42.403747" lon="2.479915">
        <ele>736.874</ele>
        <time>2021-05-28T07:54:33Z</time>
      </trkpt>
      <trkpt lat="42.403823" lon="2.479982">
        <ele>738.611</ele>
        <time>2021-05-28T07:54:40Z</time>
      </trkpt>
      <trkpt lat="42.403851" lon="2.479986">
        <ele>739.249</ele>
        <time>2021-05-28T07:54:42Z</time>
      </trkpt>
      <trkpt lat="42.403874" lon="2.480002">
        <ele>739.763</ele>
        <time>2021-05-28T07:54:44Z</time>
      </trkpt>
      <trkpt lat="42.403906" lon="2.479995">
        <ele>740.344</ele>
        <time>2021-05-28T07:54:46Z</time>
      </trkpt>
      <trkpt lat="42.403924" lon="2.479996">
        <ele>740.618</ele>
        <time>2021-05-28T07:54:47Z</time>
      </trkpt>
      <trkpt lat="42.403944" lon="2.479996">
        <ele>741.008</ele>
        <time>2021-05-28T07:54:48Z</time>
      </trkpt>
      <trkpt lat="42.403972" lon="2.479996">
        <ele>741.593</ele>
        <time>2021-05-28T07:54:50Z</time>
      </trkpt>
      <trkpt lat="42.403990" lon="2.479989">
        <ele>741.810</ele>
        <time>2021-05-28T07:54:52Z</time>
      </trkpt>
      <trkpt lat="42.404018" lon="2.479960">
        <ele>742.321</ele>
        <time>2021-05-28T07:54:55Z</time>
      </trkpt>
      <trkpt lat="42.404030" lon="2.479932">
        <ele>742.530</ele>
        <time>2021-05-28T07:54:56Z</time>
      </trkpt>
      <trkpt lat="42.404040" lon="2.479876">
        <ele>742.737</ele>
        <time>2021-05-28T07:55:00Z</time>
      </trkpt>
      <trkpt lat="42.404048" lon="2.479849">
        <ele>742.942</ele>
        <time>2021-05-28T07:55:02Z</time>
      </trkpt>
      <trkpt lat="42.404032" lon="2.479825">
        <ele>742.679</ele>
        <time>2021-05-28T07:55:07Z</time>
      </trkpt>
      <trkpt lat="42.404027" lon="2.479691">
        <ele>742.437</ele>
        <time>2021-05-28T07:55:15Z</time>
      </trkpt>
      <trkpt lat="42.404007" lon="2.479549">
        <ele>741.829</ele>
        <time>2021-05-28T07:55:21Z</time>
      </trkpt>
      <trkpt lat="42.403955" lon="2.479426">
        <ele>740.400</ele>
        <time>2021-05-28T07:55:26Z</time>
      </trkpt>
      <trkpt lat="42.403914" lon="2.479315">
        <ele>739.120</ele>
        <time>2021-05-28T07:55:33Z</time>
      </trkpt>
      <trkpt lat="42.403912" lon="2.479285">
        <ele>739.008</ele>
        <time>2021-05-28T07:55:35Z</time>
      </trkpt>
      <trkpt lat="42.403914" lon="2.479252">
        <ele>738.979</ele>
        <time>2021-05-28T07:55:37Z</time>
      </trkpt>
      <trkpt lat="42.403963" lon="2.479143">
        <ele>739.926</ele>
        <time>2021-05-28T07:55:43Z</time>
      </trkpt>
      <trkpt lat="42.403970" lon="2.478935">
        <ele>740.057</ele>
        <time>2021-05-28T08:00:09Z</time>
      </trkpt>
      <trkpt lat="42.404032" lon="2.478831">
        <ele>741.446</ele>
        <time>2021-05-28T08:00:14Z</time>
      </trkpt>
      <trkpt lat="42.403972" lon="2.478729">
        <ele>739.383</ele>
        <time>2021-05-28T08:00:21Z</time>
      </trkpt>
      <trkpt lat="42.403917" lon="2.478615">
        <ele>736.948</ele>
        <time>2021-05-28T08:00:28Z</time>
      </trkpt>
      <trkpt lat="42.404014" lon="2.478606">
        <ele>740.025</ele>
        <time>2021-05-28T08:00:47Z</time>
      </trkpt>
      <trkpt lat="42.404030" lon="2.478478">
        <ele>739.683</ele>
        <time>2021-05-28T08:02:53Z</time>
      </trkpt>
      <trkpt lat="42.404113" lon="2.478427">
        <ele>741.916</ele>
        <time>2021-05-28T08:02:58Z</time>
      </trkpt>
      <trkpt lat="42.404177" lon="2.478515">
        <ele>744.676</ele>
        <time>2021-05-28T08:03:25Z</time>
      </trkpt>
      <trkpt lat="42.404162" lon="2.478498">
        <ele>744.013</ele>
        <time>2021-05-28T08:03:37Z</time>
      </trkpt>
      <trkpt lat="42.404157" lon="2.478473">
        <ele>743.708</ele>
        <time>2021-05-28T08:04:08Z</time>
      </trkpt>
      <trkpt lat="42.404169" lon="2.478448">
        <ele>743.928</ele>
        <time>2021-05-28T08:04:18Z</time>
      </trkpt>
      <trkpt lat="42.404192" lon="2.478427">
        <ele>744.315</ele>
        <time>2021-05-28T08:04:20Z</time>
      </trkpt>
      <trkpt lat="42.404265" lon="2.478341">
        <ele>745.536</ele>
        <time>2021-05-28T08:04:28Z</time>
      </trkpt>
      <trkpt lat="42.404309" lon="2.478226">
        <ele>743.945</ele>
        <time>2021-05-28T08:04:34Z</time>
      </trkpt>
      <trkpt lat="42.404342" lon="2.478095">
        <ele>741.292</ele>
        <time>2021-05-28T08:04:39Z</time>
      </trkpt>
      <trkpt lat="42.404331" lon="2.477969">
        <ele>739.217</ele>
        <time>2021-05-28T08:04:42Z</time>
      </trkpt>
      <trkpt lat="42.404314" lon="2.477831">
        <ele>737.724</ele>
        <time>2021-05-28T08:04:45Z</time>
      </trkpt>
      <trkpt lat="42.404368" lon="2.477913">
        <ele>739.592</ele>
        <time>2021-05-28T08:05:03Z</time>
      </trkpt>
      <trkpt lat="42.404378" lon="2.477939">
        <ele>739.917</ele>
        <time>2021-05-28T08:05:06Z</time>
      </trkpt>
      <trkpt lat="42.404470" lon="2.477994">
        <ele>741.687</ele>
        <time>2021-05-28T08:05:18Z</time>
      </trkpt>
      <trkpt lat="42.404564" lon="2.477976">
        <ele>741.815</ele>
        <time>2021-05-28T08:05:27Z</time>
      </trkpt>
      <trkpt lat="42.404650" lon="2.478029">
        <ele>742.008</ele>
        <time>2021-05-28T08:05:33Z</time>
      </trkpt>
      <trkpt lat="42.404741" lon="2.478041">
        <ele>742.188</ele>
        <time>2021-05-28T08:05:38Z</time>
      </trkpt>
      <trkpt lat="42.404825" lon="2.478089">
        <ele>743.575</ele>
        <time>2021-05-28T08:05:44Z</time>
      </trkpt>
      <trkpt lat="42.404841" lon="2.478104">
        <ele>744.116</ele>
        <time>2021-05-28T08:05:45Z</time>
      </trkpt>
      <trkpt lat="42.404930" lon="2.478157">
        <ele>746.135</ele>
        <time>2021-05-28T08:05:52Z</time>
      </trkpt>
      <trkpt lat="42.404963" lon="2.478178">
        <ele>746.952</ele>
        <time>2021-05-28T08:05:57Z</time>
      </trkpt>
      <trkpt lat="42.404950" lon="2.478144">
        <ele>745.717</ele>
        <time>2021-05-28T08:06:07Z</time>
      </trkpt>
      <trkpt lat="42.404923" lon="2.478135">
        <ele>745.464</ele>
        <time>2021-05-28T08:06:10Z</time>
      </trkpt>
      <trkpt lat="42.404899" lon="2.478140">
        <ele>745.582</ele>
        <time>2021-05-28T08:06:12Z</time>
      </trkpt>
      <trkpt lat="42.404876" lon="2.478133">
        <ele>745.269</ele>
        <time>2021-05-28T08:06:14Z</time>
      </trkpt>
      <trkpt lat="42.404847" lon="2.478124">
        <ele>744.804</ele>
        <time>2021-05-28T08:06:16Z</time>
      </trkpt>
      <trkpt lat="42.404788" lon="2.478112">
        <ele>744.224</ele>
        <time>2021-05-28T08:06:19Z</time>
      </trkpt>
      <trkpt lat="42.404769" lon="2.478104">
        <ele>743.908</ele>
        <time>2021-05-28T08:06:20Z</time>
      </trkpt>
      <trkpt lat="42.404747" lon="2.478095">
        <ele>743.523</ele>
        <time>2021-05-28T08:06:21Z</time>
      </trkpt>
      <trkpt lat="42.404731" lon="2.478082">
        <ele>743.040</ele>
        <time>2021-05-28T08:06:22Z</time>
      </trkpt>
      <trkpt lat="42.404707" lon="2.478076">
        <ele>742.731</ele>
        <time>2021-05-28T08:06:23Z</time>
      </trkpt>
      <trkpt lat="42.404597" lon="2.478040">
        <ele>742.040</ele>
        <time>2021-05-28T08:06:28Z</time>
      </trkpt>
      <trkpt lat="42.404507" lon="2.478026">
        <ele>741.937</ele>
        <time>2021-05-28T08:06:32Z</time>
      </trkpt>
      <trkpt lat="42.404406" lon="2.478001">
        <ele>740.912</ele>
        <time>2021-05-28T08:06:37Z</time>
      </trkpt>
      <trkpt lat="42.404303" lon="2.478020">
        <ele>739.199</ele>
        <time>2021-05-28T08:06:42Z</time>
      </trkpt>
      <trkpt lat="42.404222" lon="2.478075">
        <ele>738.447</ele>
        <time>2021-05-28T08:06:54Z</time>
      </trkpt>
      <trkpt lat="42.404146" lon="2.478172">
        <ele>739.084</ele>
        <time>2021-05-28T08:07:00Z</time>
      </trkpt>
      <trkpt lat="42.404114" lon="2.478287">
        <ele>740.407</ele>
        <time>2021-05-28T08:07:04Z</time>
      </trkpt>
      <trkpt lat="42.404117" lon="2.478431">
        <ele>742.117</ele>
        <time>2021-05-28T08:07:09Z</time>
      </trkpt>
      <trkpt lat="42.404103" lon="2.478557">
        <ele>742.508</ele>
        <time>2021-05-28T08:07:14Z</time>
      </trkpt>
      <trkpt lat="42.404075" lon="2.478694">
        <ele>742.275</ele>
        <time>2021-05-28T08:07:22Z</time>
      </trkpt>
      <trkpt lat="42.404171" lon="2.478724">
        <ele>745.182</ele>
        <time>2021-05-28T08:07:35Z</time>
      </trkpt>
      <trkpt lat="42.404258" lon="2.478768">
        <ele>747.653</ele>
        <time>2021-05-28T08:07:43Z</time>
      </trkpt>
      <trkpt lat="42.404330" lon="2.478848">
        <ele>749.762</ele>
        <time>2021-05-28T08:07:53Z</time>
      </trkpt>
      <trkpt lat="42.404354" lon="2.478976">
        <ele>750.279</ele>
        <time>2021-05-28T08:08:03Z</time>
      </trkpt>
      <trkpt lat="42.404344" lon="2.479100">
        <ele>749.684</ele>
        <time>2021-05-28T08:08:10Z</time>
      </trkpt>
      <trkpt lat="42.404319" lon="2.479225">
        <ele>748.711</ele>
        <time>2021-05-28T08:08:17Z</time>
      </trkpt>
      <trkpt lat="42.404304" lon="2.479358">
        <ele>748.119</ele>
        <time>2021-05-28T08:08:27Z</time>
      </trkpt>
      <trkpt lat="42.404270" lon="2.479481">
        <ele>747.264</ele>
        <time>2021-05-28T08:08:36Z</time>
      </trkpt>
      <trkpt lat="42.404193" lon="2.479580">
        <ele>745.506</ele>
        <time>2021-05-28T08:08:44Z</time>
      </trkpt>
      <trkpt lat="42.404174" lon="2.479702">
        <ele>745.116</ele>
        <time>2021-05-28T08:08:49Z</time>
      </trkpt>
      <trkpt lat="42.404123" lon="2.479825">
        <ele>744.208</ele>
        <time>2021-05-28T08:08:54Z</time>
      </trkpt>
      <trkpt lat="42.404109" lon="2.479864">
        <ele>744.033</ele>
        <time>2021-05-28T08:08:56Z</time>
      </trkpt>
      <trkpt lat="42.404098" lon="2.479886">
        <ele>743.840</ele>
        <time>2021-05-28T08:08:57Z</time>
      </trkpt>
      <trkpt lat="42.404190" lon="2.479883">
        <ele>745.491</ele>
        <time>2021-05-28T08:09:05Z</time>
      </trkpt>
      <trkpt lat="42.404261" lon="2.479807">
        <ele>746.730</ele>
        <time>2021-05-28T08:09:13Z</time>
      </trkpt>
      <trkpt lat="42.404352" lon="2.479794">
        <ele>748.317</ele>
        <time>2021-05-28T08:09:17Z</time>
      </trkpt>
      <trkpt lat="42.404386" lon="2.479794">
        <ele>748.922</ele>
        <time>2021-05-28T08:09:19Z</time>
      </trkpt>
      <trkpt lat="42.404412" lon="2.479783">
        <ele>749.419</ele>
        <time>2021-05-28T08:09:20Z</time>
      </trkpt>
      <trkpt lat="42.404444" lon="2.479766">
        <ele>750.037</ele>
        <time>2021-05-28T08:09:22Z</time>
      </trkpt>
      <trkpt lat="42.404467" lon="2.479753">
        <ele>750.646</ele>
        <time>2021-05-28T08:09:24Z</time>
      </trkpt>
      <trkpt lat="42.404493" lon="2.479730">
        <ele>751.488</ele>
        <time>2021-05-28T08:09:26Z</time>
      </trkpt>
      <trkpt lat="42.404514" lon="2.479717">
        <ele>752.016</ele>
        <time>2021-05-28T08:09:28Z</time>
      </trkpt>
      <trkpt lat="42.404535" lon="2.479698">
        <ele>752.708</ele>
        <time>2021-05-28T08:09:31Z</time>
      </trkpt>
      <trkpt lat="42.404553" lon="2.479673">
        <ele>753.361</ele>
        <time>2021-05-28T08:09:34Z</time>
      </trkpt>
      <trkpt lat="42.404563" lon="2.479652">
        <ele>753.748</ele>
        <time>2021-05-28T08:09:36Z</time>
      </trkpt>
      <trkpt lat="42.404570" lon="2.479625">
        <ele>754.079</ele>
        <time>2021-05-28T08:09:38Z</time>
      </trkpt>
      <trkpt lat="42.404580" lon="2.479603">
        <ele>754.388</ele>
        <time>2021-05-28T08:09:40Z</time>
      </trkpt>
      <trkpt lat="42.404581" lon="2.479571">
        <ele>754.585</ele>
        <time>2021-05-28T08:09:43Z</time>
      </trkpt>
      <trkpt lat="42.404587" lon="2.479545">
        <ele>754.710</ele>
        <time>2021-05-28T08:09:46Z</time>
      </trkpt>
      <trkpt lat="42.404598" lon="2.479524">
        <ele>755.187</ele>
        <time>2021-05-28T08:09:48Z</time>
      </trkpt>
      <trkpt lat="42.404600" lon="2.479498">
        <ele>755.375</ele>
        <time>2021-05-28T08:09:50Z</time>
      </trkpt>
      <trkpt lat="42.404611" lon="2.479474">
        <ele>755.796</ele>
        <time>2021-05-28T08:09:52Z</time>
      </trkpt>
      <trkpt lat="42.404612" lon="2.479442">
        <ele>755.831</ele>
        <time>2021-05-28T08:09:54Z</time>
      </trkpt>
      <trkpt lat="42.404617" lon="2.479405">
        <ele>756.024</ele>
        <time>2021-05-28T08:09:56Z</time>
      </trkpt>
      <trkpt lat="42.404627" lon="2.479379">
        <ele>756.308</ele>
        <time>2021-05-28T08:09:58Z</time>
      </trkpt>
      <trkpt lat="42.404634" lon="2.479354">
        <ele>756.696</ele>
        <time>2021-05-28T08:10:00Z</time>
      </trkpt>
      <trkpt lat="42.404639" lon="2.479330">
        <ele>756.713</ele>
        <time>2021-05-28T08:10:02Z</time>
      </trkpt>
      <trkpt lat="42.404657" lon="2.479316">
        <ele>757.224</ele>
        <time>2021-05-28T08:10:04Z</time>
      </trkpt>
      <trkpt lat="42.404675" lon="2.479294">
        <ele>757.723</ele>
        <time>2021-05-28T08:10:06Z</time>
      </trkpt>
      <trkpt lat="42.404684" lon="2.479265">
        <ele>758.030</ele>
        <time>2021-05-28T08:10:08Z</time>
      </trkpt>
      <trkpt lat="42.404694" lon="2.479241">
        <ele>758.345</ele>
        <time>2021-05-28T08:10:10Z</time>
      </trkpt>
      <trkpt lat="42.404705" lon="2.479217">
        <ele>758.632</ele>
        <time>2021-05-28T08:10:12Z</time>
      </trkpt>
      <trkpt lat="42.404715" lon="2.479192">
        <ele>758.890</ele>
        <time>2021-05-28T08:10:14Z</time>
      </trkpt>
      <trkpt lat="42.404734" lon="2.479171">
        <ele>759.177</ele>
        <time>2021-05-28T08:10:16Z</time>
      </trkpt>
      <trkpt lat="42.404750" lon="2.479166">
        <ele>759.261</ele>
        <time>2021-05-28T08:10:18Z</time>
      </trkpt>
      <trkpt lat="42.404778" lon="2.479172">
        <ele>759.427</ele>
        <time>2021-05-28T08:10:21Z</time>
      </trkpt>
      <trkpt lat="42.404796" lon="2.479182">
        <ele>759.508</ele>
        <time>2021-05-28T08:10:23Z</time>
      </trkpt>
      <trkpt lat="42.404809" lon="2.479161">
        <ele>759.614</ele>
        <time>2021-05-28T08:10:27Z</time>
      </trkpt>
      <trkpt lat="42.404803" lon="2.479132">
        <ele>759.621</ele>
        <time>2021-05-28T08:10:29Z</time>
      </trkpt>
      <trkpt lat="42.404805" lon="2.479106">
        <ele>759.722</ele>
        <time>2021-05-28T08:10:31Z</time>
      </trkpt>
      <trkpt lat="42.404810" lon="2.479075">
        <ele>759.861</ele>
        <time>2021-05-28T08:10:33Z</time>
      </trkpt>
      <trkpt lat="42.404822" lon="2.479045">
        <ele>759.878</ele>
        <time>2021-05-28T08:10:35Z</time>
      </trkpt>
      <trkpt lat="42.404835" lon="2.479009">
        <ele>759.963</ele>
        <time>2021-05-28T08:10:37Z</time>
      </trkpt>
      <trkpt lat="42.404848" lon="2.478978">
        <ele>760.080</ele>
        <time>2021-05-28T08:10:39Z</time>
      </trkpt>
      <trkpt lat="42.404852" lon="2.478942">
        <ele>760.028</ele>
        <time>2021-05-28T08:10:41Z</time>
      </trkpt>
      <trkpt lat="42.404864" lon="2.478911">
        <ele>760.061</ele>
        <time>2021-05-28T08:10:43Z</time>
      </trkpt>
      <trkpt lat="42.404875" lon="2.478876">
        <ele>760.021</ele>
        <time>2021-05-28T08:10:45Z</time>
      </trkpt>
      <trkpt lat="42.404890" lon="2.478849">
        <ele>759.913</ele>
        <time>2021-05-28T08:10:47Z</time>
      </trkpt>
      <trkpt lat="42.404903" lon="2.478819">
        <ele>759.708</ele>
        <time>2021-05-28T08:10:49Z</time>
      </trkpt>
      <trkpt lat="42.404918" lon="2.478793">
        <ele>759.763</ele>
        <time>2021-05-28T08:10:51Z</time>
      </trkpt>
      <trkpt lat="42.404935" lon="2.478767">
        <ele>759.630</ele>
        <time>2021-05-28T08:10:53Z</time>
      </trkpt>
      <trkpt lat="42.404943" lon="2.478736">
        <ele>759.521</ele>
        <time>2021-05-28T08:10:55Z</time>
      </trkpt>
      <trkpt lat="42.404956" lon="2.478702">
        <ele>759.350</ele>
        <time>2021-05-28T08:10:57Z</time>
      </trkpt>
      <trkpt lat="42.404973" lon="2.478677">
        <ele>759.257</ele>
        <time>2021-05-28T08:10:59Z</time>
      </trkpt>
      <trkpt lat="42.404986" lon="2.478647">
        <ele>759.192</ele>
        <time>2021-05-28T08:11:01Z</time>
      </trkpt>
      <trkpt lat="42.405043" lon="2.478543">
        <ele>757.279</ele>
        <time>2021-05-28T08:11:08Z</time>
      </trkpt>
      <trkpt lat="42.405108" lon="2.478439">
        <ele>754.427</ele>
        <time>2021-05-28T08:11:16Z</time>
      </trkpt>
      <trkpt lat="42.405124" lon="2.478386">
        <ele>753.021</ele>
        <time>2021-05-28T08:11:19Z</time>
      </trkpt>
      <trkpt lat="42.405149" lon="2.478367">
        <ele>752.441</ele>
        <time>2021-05-28T08:11:21Z</time>
      </trkpt>
      <trkpt lat="42.405178" lon="2.478344">
        <ele>751.705</ele>
        <time>2021-05-28T08:11:22Z</time>
      </trkpt>
      <trkpt lat="42.405193" lon="2.478322">
        <ele>751.108</ele>
        <time>2021-05-28T08:11:24Z</time>
      </trkpt>
      <trkpt lat="42.405198" lon="2.478298">
        <ele>750.759</ele>
        <time>2021-05-28T08:11:26Z</time>
      </trkpt>
      <trkpt lat="42.405212" lon="2.478278">
        <ele>750.466</ele>
        <time>2021-05-28T08:11:28Z</time>
      </trkpt>
      <trkpt lat="42.405211" lon="2.478250">
        <ele>749.997</ele>
        <time>2021-05-28T08:11:31Z</time>
      </trkpt>
      <trkpt lat="42.405173" lon="2.478234">
        <ele>749.546</ele>
        <time>2021-05-28T08:11:40Z</time>
      </trkpt>
      <trkpt lat="42.405148" lon="2.478232">
        <ele>749.433</ele>
        <time>2021-05-28T08:11:42Z</time>
      </trkpt>
      <trkpt lat="42.405129" lon="2.478248">
        <ele>749.698</ele>
        <time>2021-05-28T08:11:44Z</time>
      </trkpt>
      <trkpt lat="42.405118" lon="2.478273">
        <ele>750.295</ele>
        <time>2021-05-28T08:11:45Z</time>
      </trkpt>
      <trkpt lat="42.405106" lon="2.478293">
        <ele>750.653</ele>
        <time>2021-05-28T08:11:46Z</time>
      </trkpt>
      <trkpt lat="42.405078" lon="2.478317">
        <ele>751.332</ele>
        <time>2021-05-28T08:11:48Z</time>
      </trkpt>
      <trkpt lat="42.405012" lon="2.478408">
        <ele>753.992</ele>
        <time>2021-05-28T08:11:55Z</time>
      </trkpt>
      <trkpt lat="42.404995" lon="2.478544">
        <ele>757.311</ele>
        <time>2021-05-28T08:12:04Z</time>
      </trkpt>
      <trkpt lat="42.404975" lon="2.478665">
        <ele>759.208</ele>
        <time>2021-05-28T08:12:13Z</time>
      </trkpt>
      <trkpt lat="42.404888" lon="2.478713">
        <ele>759.430</ele>
        <time>2021-05-28T08:12:19Z</time>
      </trkpt>
      <trkpt lat="42.404864" lon="2.478731">
        <ele>759.497</ele>
        <time>2021-05-28T08:12:21Z</time>
      </trkpt>
      <trkpt lat="42.404850" lon="2.478751">
        <ele>759.518</ele>
        <time>2021-05-28T08:12:23Z</time>
      </trkpt>
      <trkpt lat="42.404848" lon="2.478778">
        <ele>759.637</ele>
        <time>2021-05-28T08:12:25Z</time>
      </trkpt>
      <trkpt lat="42.404847" lon="2.478809">
        <ele>759.774</ele>
        <time>2021-05-28T08:12:27Z</time>
      </trkpt>
      <trkpt lat="42.404847" lon="2.478843">
        <ele>759.899</ele>
        <time>2021-05-28T08:12:29Z</time>
      </trkpt>
      <trkpt lat="42.404842" lon="2.478873">
        <ele>759.986</ele>
        <time>2021-05-28T08:12:31Z</time>
      </trkpt>
      <trkpt lat="42.404834" lon="2.478900">
        <ele>760.064</ele>
        <time>2021-05-28T08:12:33Z</time>
      </trkpt>
      <trkpt lat="42.404820" lon="2.478925">
        <ele>760.023</ele>
        <time>2021-05-28T08:12:35Z</time>
      </trkpt>
      <trkpt lat="42.404806" lon="2.478954">
        <ele>759.983</ele>
        <time>2021-05-28T08:12:37Z</time>
      </trkpt>
      <trkpt lat="42.404795" lon="2.478987">
        <ele>759.811</ele>
        <time>2021-05-28T08:12:39Z</time>
      </trkpt>
      <trkpt lat="42.404779" lon="2.479018">
        <ele>759.708</ele>
        <time>2021-05-28T08:12:41Z</time>
      </trkpt>
      <trkpt lat="42.404773" lon="2.479053">
        <ele>759.669</ele>
        <time>2021-05-28T08:12:44Z</time>
      </trkpt>
      <trkpt lat="42.404770" lon="2.479095">
        <ele>759.566</ele>
        <time>2021-05-28T08:12:45Z</time>
      </trkpt>
      <trkpt lat="42.404776" lon="2.479132">
        <ele>759.567</ele>
        <time>2021-05-28T08:12:47Z</time>
      </trkpt>
      <trkpt lat="42.404790" lon="2.479160">
        <ele>759.566</ele>
        <time>2021-05-28T08:12:49Z</time>
      </trkpt>
      <trkpt lat="42.404807" lon="2.479181">
        <ele>759.693</ele>
        <time>2021-05-28T08:12:51Z</time>
      </trkpt>
      <trkpt lat="42.404829" lon="2.479196">
        <ele>759.838</ele>
        <time>2021-05-28T08:12:53Z</time>
      </trkpt>
      <trkpt lat="42.404848" lon="2.479204">
        <ele>760.075</ele>
        <time>2021-05-28T08:12:55Z</time>
      </trkpt>
      <trkpt lat="42.404866" lon="2.479211">
        <ele>760.193</ele>
        <time>2021-05-28T08:12:57Z</time>
      </trkpt>
      <trkpt lat="42.404886" lon="2.479222">
        <ele>760.344</ele>
        <time>2021-05-28T08:12:59Z</time>
      </trkpt>
      <trkpt lat="42.404904" lon="2.479234">
        <ele>760.505</ele>
        <time>2021-05-28T08:13:01Z</time>
      </trkpt>
      <trkpt lat="42.404922" lon="2.479251">
        <ele>760.715</ele>
        <time>2021-05-28T08:13:03Z</time>
      </trkpt>
      <trkpt lat="42.404941" lon="2.479269">
        <ele>760.908</ele>
        <time>2021-05-28T08:13:05Z</time>
      </trkpt>
      <trkpt lat="42.404963" lon="2.479282">
        <ele>761.121</ele>
        <time>2021-05-28T08:13:07Z</time>
      </trkpt>
      <trkpt lat="42.404983" lon="2.479296">
        <ele>761.318</ele>
        <time>2021-05-28T08:13:09Z</time>
      </trkpt>
      <trkpt lat="42.405004" lon="2.479311">
        <ele>761.659</ele>
        <time>2021-05-28T08:13:11Z</time>
      </trkpt>
      <trkpt lat="42.405024" lon="2.479326">
        <ele>762.028</ele>
        <time>2021-05-28T08:13:13Z</time>
      </trkpt>
      <trkpt lat="42.405042" lon="2.479345">
        <ele>762.315</ele>
        <time>2021-05-28T08:13:15Z</time>
      </trkpt>
      <trkpt lat="42.405068" lon="2.479361">
        <ele>762.910</ele>
        <time>2021-05-28T08:13:17Z</time>
      </trkpt>
      <trkpt lat="42.405091" lon="2.479374">
        <ele>763.387</ele>
        <time>2021-05-28T08:13:19Z</time>
      </trkpt>
      <trkpt lat="42.405112" lon="2.479387">
        <ele>763.725</ele>
        <time>2021-05-28T08:13:21Z</time>
      </trkpt>
      <trkpt lat="42.405129" lon="2.479398">
        <ele>764.151</ele>
        <time>2021-05-28T08:13:23Z</time>
      </trkpt>
      <trkpt lat="42.405150" lon="2.479422">
        <ele>764.601</ele>
        <time>2021-05-28T08:13:26Z</time>
      </trkpt>
      <trkpt lat="42.405166" lon="2.479439">
        <ele>765.011</ele>
        <time>2021-05-28T08:13:28Z</time>
      </trkpt>
      <trkpt lat="42.405182" lon="2.479450">
        <ele>765.308</ele>
        <time>2021-05-28T08:13:30Z</time>
      </trkpt>
      <trkpt lat="42.405200" lon="2.479465">
        <ele>765.772</ele>
        <time>2021-05-28T08:13:32Z</time>
      </trkpt>
      <trkpt lat="42.405219" lon="2.479482">
        <ele>766.249</ele>
        <time>2021-05-28T08:13:34Z</time>
      </trkpt>
      <trkpt lat="42.405239" lon="2.479484">
        <ele>766.670</ele>
        <time>2021-05-28T08:13:36Z</time>
      </trkpt>
      <trkpt lat="42.405260" lon="2.479469">
        <ele>766.989</ele>
        <time>2021-05-28T08:13:38Z</time>
      </trkpt>
      <trkpt lat="42.405272" lon="2.479441">
        <ele>766.986</ele>
        <time>2021-05-28T08:13:40Z</time>
      </trkpt>
      <trkpt lat="42.405279" lon="2.479412">
        <ele>766.831</ele>
        <time>2021-05-28T08:13:42Z</time>
      </trkpt>
      <trkpt lat="42.405287" lon="2.479384">
        <ele>766.828</ele>
        <time>2021-05-28T08:13:44Z</time>
      </trkpt>
      <trkpt lat="42.405296" lon="2.479358">
        <ele>766.876</ele>
        <time>2021-05-28T08:13:46Z</time>
      </trkpt>
      <trkpt lat="42.405301" lon="2.479328">
        <ele>766.615</ele>
        <time>2021-05-28T08:13:48Z</time>
      </trkpt>
      <trkpt lat="42.405309" lon="2.479300">
        <ele>766.665</ele>
        <time>2021-05-28T08:13:50Z</time>
      </trkpt>
      <trkpt lat="42.405317" lon="2.479277">
        <ele>766.611</ele>
        <time>2021-05-28T08:13:52Z</time>
      </trkpt>
      <trkpt lat="42.405325" lon="2.479252">
        <ele>766.508</ele>
        <time>2021-05-28T08:13:54Z</time>
      </trkpt>
      <trkpt lat="42.405336" lon="2.479231">
        <ele>766.698</ele>
        <time>2021-05-28T08:13:56Z</time>
      </trkpt>
      <trkpt lat="42.405353" lon="2.479218">
        <ele>766.865</ele>
        <time>2021-05-28T08:13:58Z</time>
      </trkpt>
      <trkpt lat="42.405372" lon="2.479214">
        <ele>767.186</ele>
        <time>2021-05-28T08:14:00Z</time>
      </trkpt>
      <trkpt lat="42.405392" lon="2.479216">
        <ele>767.555</ele>
        <time>2021-05-28T08:14:02Z</time>
      </trkpt>
      <trkpt lat="42.405417" lon="2.479211">
        <ele>767.932</ele>
        <time>2021-05-28T08:14:05Z</time>
      </trkpt>
      <trkpt lat="42.405432" lon="2.479196">
        <ele>768.037</ele>
        <time>2021-05-28T08:14:07Z</time>
      </trkpt>
      <trkpt lat="42.405448" lon="2.479183">
        <ele>768.214</ele>
        <time>2021-05-28T08:14:09Z</time>
      </trkpt>
      <trkpt lat="42.405470" lon="2.479175">
        <ele>768.522</ele>
        <time>2021-05-28T08:14:12Z</time>
      </trkpt>
      <trkpt lat="42.405488" lon="2.479155">
        <ele>768.616</ele>
        <time>2021-05-28T08:14:26Z</time>
      </trkpt>
      <trkpt lat="42.405511" lon="2.479140">
        <ele>768.876</ele>
        <time>2021-05-28T08:14:29Z</time>
      </trkpt>
      <trkpt lat="42.405533" lon="2.479136">
        <ele>769.213</ele>
        <time>2021-05-28T08:14:31Z</time>
      </trkpt>
      <trkpt lat="42.405552" lon="2.479124">
        <ele>769.308</ele>
        <time>2021-05-28T08:14:33Z</time>
      </trkpt>
      <trkpt lat="42.405603" lon="2.479100">
        <ele>769.948</ele>
        <time>2021-05-28T08:14:38Z</time>
      </trkpt>
      <trkpt lat="42.405634" lon="2.479108">
        <ele>770.765</ele>
        <time>2021-05-28T08:14:40Z</time>
      </trkpt>
      <trkpt lat="42.405661" lon="2.479107">
        <ele>771.286</ele>
        <time>2021-05-28T08:14:42Z</time>
      </trkpt>
      <trkpt lat="42.405749" lon="2.479082">
        <ele>772.345</ele>
        <time>2021-05-28T08:14:50Z</time>
      </trkpt>
      <trkpt lat="42.405833" lon="2.479083">
        <ele>773.952</ele>
        <time>2021-05-28T08:14:57Z</time>
      </trkpt>
      <trkpt lat="42.405860" lon="2.479090">
        <ele>774.797</ele>
        <time>2021-05-28T08:14:59Z</time>
      </trkpt>
      <trkpt lat="42.405882" lon="2.479089">
        <ele>775.254</ele>
        <time>2021-05-28T08:15:01Z</time>
      </trkpt>
      <trkpt lat="42.405906" lon="2.479088">
        <ele>775.862</ele>
        <time>2021-05-28T08:15:03Z</time>
      </trkpt>
      <trkpt lat="42.405927" lon="2.479092">
        <ele>776.434</ele>
        <time>2021-05-28T08:15:05Z</time>
      </trkpt>
      <trkpt lat="42.405953" lon="2.479098">
        <ele>777.255</ele>
        <time>2021-05-28T08:15:07Z</time>
      </trkpt>
      <trkpt lat="42.405977" lon="2.479094">
        <ele>777.710</ele>
        <time>2021-05-28T08:15:09Z</time>
      </trkpt>
      <trkpt lat="42.406001" lon="2.479092">
        <ele>778.208</ele>
        <time>2021-05-28T08:15:11Z</time>
      </trkpt>
      <trkpt lat="42.406029" lon="2.479076">
        <ele>778.470</ele>
        <time>2021-05-28T08:15:14Z</time>
      </trkpt>
      <trkpt lat="42.406052" lon="2.479068">
        <ele>778.767</ele>
        <time>2021-05-28T08:15:16Z</time>
      </trkpt>
      <trkpt lat="42.406153" lon="2.479072">
        <ele>781.228</ele>
        <time>2021-05-28T08:15:25Z</time>
      </trkpt>
      <trkpt lat="42.406244" lon="2.479077">
        <ele>783.327</ele>
        <time>2021-05-28T08:15:36Z</time>
      </trkpt>
      <trkpt lat="42.406337" lon="2.479073">
        <ele>785.254</ele>
        <time>2021-05-28T08:15:44Z</time>
      </trkpt>
      <trkpt lat="42.406441" lon="2.479073">
        <ele>788.089</ele>
        <time>2021-05-28T08:15:52Z</time>
      </trkpt>
      <trkpt lat="42.406537" lon="2.479059">
        <ele>790.746</ele>
        <time>2021-05-28T08:16:01Z</time>
      </trkpt>
      <trkpt lat="42.406593" lon="2.479036">
        <ele>791.864</ele>
        <time>2021-05-28T08:16:08Z</time>
      </trkpt>
      <trkpt lat="42.406625" lon="2.479026">
        <ele>792.571</ele>
        <time>2021-05-28T08:16:11Z</time>
      </trkpt>
      <trkpt lat="42.406646" lon="2.479013">
        <ele>792.841</ele>
        <time>2021-05-28T08:16:14Z</time>
      </trkpt>
      <trkpt lat="42.406668" lon="2.479011">
        <ele>793.415</ele>
        <time>2021-05-28T08:16:17Z</time>
      </trkpt>
      <trkpt lat="42.406687" lon="2.479007">
        <ele>793.808</ele>
        <time>2021-05-28T08:16:18Z</time>
      </trkpt>
      <trkpt lat="42.406706" lon="2.479005">
        <ele>794.354</ele>
        <time>2021-05-28T08:16:20Z</time>
      </trkpt>
      <trkpt lat="42.406734" lon="2.478999">
        <ele>794.991</ele>
        <time>2021-05-28T08:16:23Z</time>
      </trkpt>
      <trkpt lat="42.406750" lon="2.478980">
        <ele>794.772</ele>
        <time>2021-05-28T08:16:26Z</time>
      </trkpt>
      <trkpt lat="42.406793" lon="2.479015">
        <ele>797.261</ele>
        <time>2021-05-28T08:16:36Z</time>
      </trkpt>
      <trkpt lat="42.406871" lon="2.478995">
        <ele>798.788</ele>
        <time>2021-05-28T08:16:46Z</time>
      </trkpt>
      <trkpt lat="42.406918" lon="2.478985">
        <ele>799.733</ele>
        <time>2021-05-28T08:16:53Z</time>
      </trkpt>
      <trkpt lat="42.406982" lon="2.478997">
        <ele>801.810</ele>
        <time>2021-05-28T08:16:59Z</time>
      </trkpt>
      <trkpt lat="42.407013" lon="2.479015">
        <ele>803.378</ele>
        <time>2021-05-28T08:17:06Z</time>
      </trkpt>
      <trkpt lat="42.407034" lon="2.479042">
        <ele>804.844</ele>
        <time>2021-05-28T08:17:11Z</time>
      </trkpt>
      <trkpt lat="42.407127" lon="2.479064">
        <ele>807.905</ele>
        <time>2021-05-28T08:17:26Z</time>
      </trkpt>
      <trkpt lat="42.407225" lon="2.479092">
        <ele>811.415</ele>
        <time>2021-05-28T08:17:37Z</time>
      </trkpt>
      <trkpt lat="42.407296" lon="2.479080">
        <ele>812.608</ele>
        <time>2021-05-28T08:17:48Z</time>
      </trkpt>
      <trkpt lat="42.407315" lon="2.479074">
        <ele>812.841</ele>
        <time>2021-05-28T08:17:51Z</time>
      </trkpt>
      <trkpt lat="42.407337" lon="2.479060">
        <ele>812.858</ele>
        <time>2021-05-28T08:17:55Z</time>
      </trkpt>
      <trkpt lat="42.407396" lon="2.479041">
        <ele>813.529</ele>
        <time>2021-05-28T08:18:04Z</time>
      </trkpt>
      <trkpt lat="42.407424" lon="2.479043">
        <ele>814.218</ele>
        <time>2021-05-28T08:18:08Z</time>
      </trkpt>
      <trkpt lat="42.407508" lon="2.479089">
        <ele>817.775</ele>
        <time>2021-05-28T08:18:22Z</time>
      </trkpt>
      <trkpt lat="42.407513" lon="2.479123">
        <ele>818.950</ele>
        <time>2021-05-28T08:18:25Z</time>
      </trkpt>
      <trkpt lat="42.407530" lon="2.479133">
        <ele>819.767</ele>
        <time>2021-05-28T08:18:27Z</time>
      </trkpt>
      <trkpt lat="42.407567" lon="2.479122">
        <ele>820.355</ele>
        <time>2021-05-28T08:18:33Z</time>
      </trkpt>
      <trkpt lat="42.407614" lon="2.479128">
        <ele>821.774</ele>
        <time>2021-05-28T08:18:39Z</time>
      </trkpt>
      <trkpt lat="42.407656" lon="2.479125">
        <ele>822.756</ele>
        <time>2021-05-28T08:18:46Z</time>
      </trkpt>
      <trkpt lat="42.407678" lon="2.479129">
        <ele>823.421</ele>
        <time>2021-05-28T08:18:48Z</time>
      </trkpt>
      <trkpt lat="42.407690" lon="2.479148">
        <ele>824.208</ele>
        <time>2021-05-28T08:19:02Z</time>
      </trkpt>
      <trkpt lat="42.407711" lon="2.479156">
        <ele>825.024</ele>
        <time>2021-05-28T08:19:05Z</time>
      </trkpt>
      <trkpt lat="42.407729" lon="2.479164">
        <ele>825.791</ele>
        <time>2021-05-28T08:19:08Z</time>
      </trkpt>
      <trkpt lat="42.407830" lon="2.479183">
        <ele>829.232</ele>
        <time>2021-05-28T08:19:23Z</time>
      </trkpt>
      <trkpt lat="42.407865" lon="2.479180">
        <ele>830.381</ele>
        <time>2021-05-28T08:19:28Z</time>
      </trkpt>
      <trkpt lat="42.407883" lon="2.479177">
        <ele>830.748</ele>
        <time>2021-05-28T08:19:36Z</time>
      </trkpt>
      <trkpt lat="42.407906" lon="2.479180">
        <ele>831.623</ele>
        <time>2021-05-28T08:19:39Z</time>
      </trkpt>
      <trkpt lat="42.407925" lon="2.479178">
        <ele>832.130</ele>
        <time>2021-05-28T08:19:43Z</time>
      </trkpt>
      <trkpt lat="42.407943" lon="2.479183">
        <ele>832.838</ele>
        <time>2021-05-28T08:19:47Z</time>
      </trkpt>
      <trkpt lat="42.407969" lon="2.479180">
        <ele>833.618</ele>
        <time>2021-05-28T08:19:50Z</time>
      </trkpt>
      <trkpt lat="42.407991" lon="2.479191">
        <ele>834.698</ele>
        <time>2021-05-28T08:19:55Z</time>
      </trkpt>
      <trkpt lat="42.408010" lon="2.479201">
        <ele>835.517</ele>
        <time>2021-05-28T08:19:57Z</time>
      </trkpt>
      <trkpt lat="42.408030" lon="2.479211">
        <ele>836.308</ele>
        <time>2021-05-28T08:20:00Z</time>
      </trkpt>
      <trkpt lat="42.408050" lon="2.479212">
        <ele>837.058</ele>
        <time>2021-05-28T08:20:02Z</time>
      </trkpt>
      <trkpt lat="42.408070" lon="2.479216">
        <ele>837.585</ele>
        <time>2021-05-28T08:20:06Z</time>
      </trkpt>
      <trkpt lat="42.408088" lon="2.479214">
        <ele>837.866</ele>
        <time>2021-05-28T08:20:09Z</time>
      </trkpt>
      <trkpt lat="42.408110" lon="2.479208">
        <ele>838.075</ele>
        <time>2021-05-28T08:20:14Z</time>
      </trkpt>
      <trkpt lat="42.408135" lon="2.479208">
        <ele>838.462</ele>
        <time>2021-05-28T08:20:19Z</time>
      </trkpt>
      <trkpt lat="42.408154" lon="2.479210">
        <ele>838.817</ele>
        <time>2021-05-28T08:20:22Z</time>
      </trkpt>
      <trkpt lat="42.408175" lon="2.479196">
        <ele>838.864</ele>
        <time>2021-05-28T08:20:26Z</time>
      </trkpt>
      <trkpt lat="42.408196" lon="2.479207">
        <ele>839.532</ele>
        <time>2021-05-28T08:20:29Z</time>
      </trkpt>
      <trkpt lat="42.408212" lon="2.479222">
        <ele>840.199</ele>
        <time>2021-05-28T08:20:31Z</time>
      </trkpt>
      <trkpt lat="42.408233" lon="2.479225">
        <ele>840.507</ele>
        <time>2021-05-28T08:20:34Z</time>
      </trkpt>
      <trkpt lat="42.408255" lon="2.479224">
        <ele>840.927</ele>
        <time>2021-05-28T08:20:38Z</time>
      </trkpt>
      <trkpt lat="42.408278" lon="2.479226">
        <ele>841.308</ele>
        <time>2021-05-28T08:20:42Z</time>
      </trkpt>
      <trkpt lat="42.408303" lon="2.479232">
        <ele>841.986</ele>
        <time>2021-05-28T08:20:45Z</time>
      </trkpt>
      <trkpt lat="42.408325" lon="2.479233">
        <ele>842.343</ele>
        <time>2021-05-28T08:20:48Z</time>
      </trkpt>
      <trkpt lat="42.408340" lon="2.479246">
        <ele>842.844</ele>
        <time>2021-05-28T08:20:50Z</time>
      </trkpt>
      <trkpt lat="42.408366" lon="2.479263">
        <ele>843.623</ele>
        <time>2021-05-28T08:20:57Z</time>
      </trkpt>
      <trkpt lat="42.408390" lon="2.479276">
        <ele>844.210</ele>
        <time>2021-05-28T08:21:00Z</time>
      </trkpt>
      <trkpt lat="42.408409" lon="2.479286">
        <ele>844.765</ele>
        <time>2021-05-28T08:21:02Z</time>
      </trkpt>
      <trkpt lat="42.408430" lon="2.479307">
        <ele>845.412</ele>
        <time>2021-05-28T08:21:05Z</time>
      </trkpt>
      <trkpt lat="42.408444" lon="2.479325">
        <ele>846.080</ele>
        <time>2021-05-28T08:21:08Z</time>
      </trkpt>
      <trkpt lat="42.408461" lon="2.479337">
        <ele>846.413</ele>
        <time>2021-05-28T08:21:11Z</time>
      </trkpt>
      <trkpt lat="42.408482" lon="2.479357">
        <ele>847.143</ele>
        <time>2021-05-28T08:21:14Z</time>
      </trkpt>
      <trkpt lat="42.408497" lon="2.479372">
        <ele>847.507</ele>
        <time>2021-05-28T08:21:17Z</time>
      </trkpt>
      <trkpt lat="42.408513" lon="2.479386">
        <ele>848.008</ele>
        <time>2021-05-28T08:21:19Z</time>
      </trkpt>
      <trkpt lat="42.408531" lon="2.479402">
        <ele>848.428</ele>
        <time>2021-05-28T08:21:22Z</time>
      </trkpt>
      <trkpt lat="42.408548" lon="2.479418">
        <ele>848.935</ele>
        <time>2021-05-28T08:21:25Z</time>
      </trkpt>
      <trkpt lat="42.408566" lon="2.479435">
        <ele>849.446</ele>
        <time>2021-05-28T08:21:28Z</time>
      </trkpt>
      <trkpt lat="42.408585" lon="2.479451">
        <ele>849.825</ele>
        <time>2021-05-28T08:21:38Z</time>
      </trkpt>
      <trkpt lat="42.408606" lon="2.479462">
        <ele>850.322</ele>
        <time>2021-05-28T08:21:41Z</time>
      </trkpt>
      <trkpt lat="42.408627" lon="2.479480">
        <ele>850.947</ele>
        <time>2021-05-28T08:21:44Z</time>
      </trkpt>
      <trkpt lat="42.408650" lon="2.479491">
        <ele>851.524</ele>
        <time>2021-05-28T08:21:47Z</time>
      </trkpt>
      <trkpt lat="42.408670" lon="2.479500">
        <ele>852.082</ele>
        <time>2021-05-28T08:21:49Z</time>
      </trkpt>
      <trkpt lat="42.408685" lon="2.479517">
        <ele>852.664</ele>
        <time>2021-05-28T08:21:51Z</time>
      </trkpt>
      <trkpt lat="42.408704" lon="2.479546">
        <ele>853.406</ele>
        <time>2021-05-28T08:21:54Z</time>
      </trkpt>
      <trkpt lat="42.408721" lon="2.479560">
        <ele>853.916</ele>
        <time>2021-05-28T08:21:56Z</time>
      </trkpt>
      <trkpt lat="42.408741" lon="2.479566">
        <ele>854.308</ele>
        <time>2021-05-28T08:21:58Z</time>
      </trkpt>
      <trkpt lat="42.408762" lon="2.479584">
        <ele>855.053</ele>
        <time>2021-05-28T08:22:02Z</time>
      </trkpt>
      <trkpt lat="42.408786" lon="2.479594">
        <ele>855.560</ele>
        <time>2021-05-28T08:22:05Z</time>
      </trkpt>
      <trkpt lat="42.408803" lon="2.479609">
        <ele>856.091</ele>
        <time>2021-05-28T08:22:07Z</time>
      </trkpt>
      <trkpt lat="42.408823" lon="2.479629">
        <ele>856.640</ele>
        <time>2021-05-28T08:22:09Z</time>
      </trkpt>
      <trkpt lat="42.408848" lon="2.479651">
        <ele>857.377</ele>
        <time>2021-05-28T08:22:12Z</time>
      </trkpt>
      <trkpt lat="42.408865" lon="2.479659">
        <ele>857.742</ele>
        <time>2021-05-28T08:22:14Z</time>
      </trkpt>
      <trkpt lat="42.408883" lon="2.479652">
        <ele>857.939</ele>
        <time>2021-05-28T08:22:16Z</time>
      </trkpt>
      <trkpt lat="42.408901" lon="2.479641">
        <ele>858.067</ele>
        <time>2021-05-28T08:22:18Z</time>
      </trkpt>
      <trkpt lat="42.408922" lon="2.479642">
        <ele>858.478</ele>
        <time>2021-05-28T08:22:21Z</time>
      </trkpt>
      <trkpt lat="42.408948" lon="2.479649">
        <ele>859.033</ele>
        <time>2021-05-28T08:22:24Z</time>
      </trkpt>
      <trkpt lat="42.408964" lon="2.479657">
        <ele>859.326</ele>
        <time>2021-05-28T08:22:26Z</time>
      </trkpt>
      <trkpt lat="42.408988" lon="2.479675">
        <ele>859.908</ele>
        <time>2021-05-28T08:22:29Z</time>
      </trkpt>
      <trkpt lat="42.409018" lon="2.479683">
        <ele>860.594</ele>
        <time>2021-05-28T08:22:32Z</time>
      </trkpt>
      <trkpt lat="42.409036" lon="2.479690">
        <ele>860.871</ele>
        <time>2021-05-28T08:22:34Z</time>
      </trkpt>
      <trkpt lat="42.409060" lon="2.479690">
        <ele>861.262</ele>
        <time>2021-05-28T08:22:36Z</time>
      </trkpt>
      <trkpt lat="42.409079" lon="2.479687">
        <ele>861.581</ele>
        <time>2021-05-28T08:22:38Z</time>
      </trkpt>
      <trkpt lat="42.409098" lon="2.479689">
        <ele>861.828</ele>
        <time>2021-05-28T08:22:40Z</time>
      </trkpt>
      <trkpt lat="42.409122" lon="2.479690">
        <ele>862.253</ele>
        <time>2021-05-28T08:22:42Z</time>
      </trkpt>
      <trkpt lat="42.409142" lon="2.479690">
        <ele>862.570</ele>
        <time>2021-05-28T08:22:44Z</time>
      </trkpt>
      <trkpt lat="42.409164" lon="2.479686">
        <ele>862.828</ele>
        <time>2021-05-28T08:22:46Z</time>
      </trkpt>
      <trkpt lat="42.409183" lon="2.479684">
        <ele>863.093</ele>
        <time>2021-05-28T08:22:48Z</time>
      </trkpt>
      <trkpt lat="42.409203" lon="2.479678">
        <ele>863.265</ele>
        <time>2021-05-28T08:22:50Z</time>
      </trkpt>
      <trkpt lat="42.409223" lon="2.479668">
        <ele>863.421</ele>
        <time>2021-05-28T08:22:52Z</time>
      </trkpt>
      <trkpt lat="42.409243" lon="2.479657">
        <ele>863.608</ele>
        <time>2021-05-28T08:22:54Z</time>
      </trkpt>
      <trkpt lat="42.409262" lon="2.479650">
        <ele>863.926</ele>
        <time>2021-05-28T08:22:56Z</time>
      </trkpt>
      <trkpt lat="42.409284" lon="2.479643">
        <ele>864.283</ele>
        <time>2021-05-28T08:22:59Z</time>
      </trkpt>
      <trkpt lat="42.409303" lon="2.479648">
        <ele>864.424</ele>
        <time>2021-05-28T08:23:01Z</time>
      </trkpt>
      <trkpt lat="42.409320" lon="2.479659">
        <ele>864.533</ele>
        <time>2021-05-28T08:23:06Z</time>
      </trkpt>
      <trkpt lat="42.409346" lon="2.479673">
        <ele>864.760</ele>
        <time>2021-05-28T08:23:09Z</time>
      </trkpt>
      <trkpt lat="42.409367" lon="2.479667">
        <ele>865.065</ele>
        <time>2021-05-28T08:23:11Z</time>
      </trkpt>
      <trkpt lat="42.409390" lon="2.479654">
        <ele>865.472</ele>
        <time>2021-05-28T08:23:14Z</time>
      </trkpt>
      <trkpt lat="42.409412" lon="2.479652">
        <ele>865.670</ele>
        <time>2021-05-28T08:23:16Z</time>
      </trkpt>
      <trkpt lat="42.409434" lon="2.479662">
        <ele>865.817</ele>
        <time>2021-05-28T08:23:19Z</time>
      </trkpt>
      <trkpt lat="42.409453" lon="2.479680">
        <ele>865.787</ele>
        <time>2021-05-28T08:23:22Z</time>
      </trkpt>
      <trkpt lat="42.409478" lon="2.479679">
        <ele>865.815</ele>
        <time>2021-05-28T08:23:25Z</time>
      </trkpt>
      <trkpt lat="42.409503" lon="2.479667">
        <ele>866.108</ele>
        <time>2021-05-28T08:23:28Z</time>
      </trkpt>
      <trkpt lat="42.409522" lon="2.479658">
        <ele>866.438</ele>
        <time>2021-05-28T08:23:30Z</time>
      </trkpt>
      <trkpt lat="42.409544" lon="2.479649">
        <ele>866.735</ele>
        <time>2021-05-28T08:23:32Z</time>
      </trkpt>
      <trkpt lat="42.409568" lon="2.479639">
        <ele>867.016</ele>
        <time>2021-05-28T08:23:34Z</time>
      </trkpt>
      <trkpt lat="42.409587" lon="2.479627">
        <ele>867.455</ele>
        <time>2021-05-28T08:23:36Z</time>
      </trkpt>
      <trkpt lat="42.409606" lon="2.479616">
        <ele>867.892</ele>
        <time>2021-05-28T08:23:38Z</time>
      </trkpt>
      <trkpt lat="42.409625" lon="2.479605">
        <ele>868.217</ele>
        <time>2021-05-28T08:23:40Z</time>
      </trkpt>
      <trkpt lat="42.409646" lon="2.479593">
        <ele>868.624</ele>
        <time>2021-05-28T08:23:42Z</time>
      </trkpt>
      <trkpt lat="42.409663" lon="2.479579">
        <ele>869.182</ele>
        <time>2021-05-28T08:23:44Z</time>
      </trkpt>
      <trkpt lat="42.409679" lon="2.479566">
        <ele>869.599</ele>
        <time>2021-05-28T08:23:46Z</time>
      </trkpt>
      <trkpt lat="42.409695" lon="2.479553">
        <ele>870.007</ele>
        <time>2021-05-28T08:23:48Z</time>
      </trkpt>
      <trkpt lat="42.409710" lon="2.479538">
        <ele>870.527</ele>
        <time>2021-05-28T08:23:50Z</time>
      </trkpt>
      <trkpt lat="42.409731" lon="2.479528">
        <ele>871.108</ele>
        <time>2021-05-28T08:23:52Z</time>
      </trkpt>
      <trkpt lat="42.409754" lon="2.479519">
        <ele>871.966</ele>
        <time>2021-05-28T08:23:54Z</time>
      </trkpt>
      <trkpt lat="42.409778" lon="2.479509">
        <ele>872.753</ele>
        <time>2021-05-28T08:23:56Z</time>
      </trkpt>
      <trkpt lat="42.409799" lon="2.479500">
        <ele>873.574</ele>
        <time>2021-05-28T08:23:58Z</time>
      </trkpt>
      <trkpt lat="42.409819" lon="2.479499">
        <ele>874.033</ele>
        <time>2021-05-28T08:24:00Z</time>
      </trkpt>
      <trkpt lat="42.409842" lon="2.479498">
        <ele>874.630</ele>
        <time>2021-05-28T08:24:02Z</time>
      </trkpt>
      <trkpt lat="42.409862" lon="2.479499">
        <ele>875.025</ele>
        <time>2021-05-28T08:24:04Z</time>
      </trkpt>
      <trkpt lat="42.409882" lon="2.479506">
        <ele>875.332</ele>
        <time>2021-05-28T08:24:06Z</time>
      </trkpt>
      <trkpt lat="42.409904" lon="2.479518">
        <ele>875.690</ele>
        <time>2021-05-28T08:24:08Z</time>
      </trkpt>
      <trkpt lat="42.409924" lon="2.479534">
        <ele>875.628</ele>
        <time>2021-05-28T08:24:10Z</time>
      </trkpt>
      <trkpt lat="42.409943" lon="2.479554">
        <ele>875.589</ele>
        <time>2021-05-28T08:24:13Z</time>
      </trkpt>
      <trkpt lat="42.409968" lon="2.479574">
        <ele>875.517</ele>
        <time>2021-05-28T08:24:16Z</time>
      </trkpt>
      <trkpt lat="42.409988" lon="2.479587">
        <ele>875.608</ele>
        <time>2021-05-28T08:24:18Z</time>
      </trkpt>
      <trkpt lat="42.410012" lon="2.479598">
        <ele>875.979</ele>
        <time>2021-05-28T08:24:20Z</time>
      </trkpt>
      <trkpt lat="42.410032" lon="2.479610">
        <ele>876.126</ele>
        <time>2021-05-28T08:24:22Z</time>
      </trkpt>
      <trkpt lat="42.410055" lon="2.479623">
        <ele>876.497</ele>
        <time>2021-05-28T08:24:24Z</time>
      </trkpt>
      <trkpt lat="42.410077" lon="2.479639">
        <ele>876.666</ele>
        <time>2021-05-28T08:24:26Z</time>
      </trkpt>
      <trkpt lat="42.410097" lon="2.479655">
        <ele>876.863</ele>
        <time>2021-05-28T08:24:28Z</time>
      </trkpt>
      <trkpt lat="42.410120" lon="2.479671">
        <ele>877.168</ele>
        <time>2021-05-28T08:24:30Z</time>
      </trkpt>
      <trkpt lat="42.410141" lon="2.479685">
        <ele>877.415</ele>
        <time>2021-05-28T08:24:32Z</time>
      </trkpt>
      <trkpt lat="42.410160" lon="2.479698">
        <ele>877.773</ele>
        <time>2021-05-28T08:24:34Z</time>
      </trkpt>
      <trkpt lat="42.410180" lon="2.479709">
        <ele>878.143</ele>
        <time>2021-05-28T08:24:36Z</time>
      </trkpt>
      <trkpt lat="42.410195" lon="2.479724">
        <ele>878.364</ele>
        <time>2021-05-28T08:24:38Z</time>
      </trkpt>
      <trkpt lat="42.410215" lon="2.479743">
        <ele>878.410</ele>
        <time>2021-05-28T08:24:40Z</time>
      </trkpt>
      <trkpt lat="42.410232" lon="2.479761">
        <ele>878.408</ele>
        <time>2021-05-28T08:24:42Z</time>
      </trkpt>
      <trkpt lat="42.410248" lon="2.479775">
        <ele>878.531</ele>
        <time>2021-05-28T08:24:44Z</time>
      </trkpt>
      <trkpt lat="42.410266" lon="2.479788">
        <ele>878.778</ele>
        <time>2021-05-28T08:24:46Z</time>
      </trkpt>
      <trkpt lat="42.410282" lon="2.479806">
        <ele>878.789</ele>
        <time>2021-05-28T08:24:48Z</time>
      </trkpt>
      <trkpt lat="42.410297" lon="2.479819">
        <ele>878.818</ele>
        <time>2021-05-28T08:24:50Z</time>
      </trkpt>
      <trkpt lat="42.410313" lon="2.479834">
        <ele>878.835</ele>
        <time>2021-05-28T08:24:52Z</time>
      </trkpt>
      <trkpt lat="42.410325" lon="2.479851">
        <ele>878.750</ele>
        <time>2021-05-28T08:24:54Z</time>
      </trkpt>
      <trkpt lat="42.410342" lon="2.479862">
        <ele>878.847</ele>
        <time>2021-05-28T08:24:56Z</time>
      </trkpt>
      <trkpt lat="42.410359" lon="2.479872">
        <ele>879.045</ele>
        <time>2021-05-28T08:24:58Z</time>
      </trkpt>
      <trkpt lat="42.410378" lon="2.479876">
        <ele>879.565</ele>
        <time>2021-05-28T08:25:00Z</time>
      </trkpt>
      <trkpt lat="42.410398" lon="2.479887">
        <ele>879.768</ele>
        <time>2021-05-28T08:25:02Z</time>
      </trkpt>
      <trkpt lat="42.410418" lon="2.479901">
        <ele>879.914</ele>
        <time>2021-05-28T08:25:04Z</time>
      </trkpt>
      <trkpt lat="42.410436" lon="2.479916">
        <ele>880.008</ele>
        <time>2021-05-28T08:25:06Z</time>
      </trkpt>
      <trkpt lat="42.410455" lon="2.479929">
        <ele>880.113</ele>
        <time>2021-05-28T08:25:08Z</time>
      </trkpt>
      <trkpt lat="42.410474" lon="2.479935">
        <ele>880.590</ele>
        <time>2021-05-28T08:25:10Z</time>
      </trkpt>
      <trkpt lat="42.410496" lon="2.479942">
        <ele>881.081</ele>
        <time>2021-05-28T08:25:12Z</time>
      </trkpt>
      <trkpt lat="42.410514" lon="2.479952">
        <ele>881.260</ele>
        <time>2021-05-28T08:25:14Z</time>
      </trkpt>
      <trkpt lat="42.410534" lon="2.479959">
        <ele>881.657</ele>
        <time>2021-05-28T08:25:16Z</time>
      </trkpt>
      <trkpt lat="42.410553" lon="2.479966">
        <ele>881.982</ele>
        <time>2021-05-28T08:25:18Z</time>
      </trkpt>
      <trkpt lat="42.410576" lon="2.479975">
        <ele>881.979</ele>
        <time>2021-05-28T08:25:20Z</time>
      </trkpt>
      <trkpt lat="42.410593" lon="2.479994">
        <ele>881.447</ele>
        <time>2021-05-28T08:25:22Z</time>
      </trkpt>
      <trkpt lat="42.410615" lon="2.479996">
        <ele>881.557</ele>
        <time>2021-05-28T08:25:24Z</time>
      </trkpt>
      <trkpt lat="42.410634" lon="2.480000">
        <ele>881.600</ele>
        <time>2021-05-28T08:25:26Z</time>
      </trkpt>
      <trkpt lat="42.410652" lon="2.480006">
        <ele>881.620</ele>
        <time>2021-05-28T08:25:28Z</time>
      </trkpt>
      <trkpt lat="42.410681" lon="2.480010">
        <ele>881.808</ele>
        <time>2021-05-28T08:25:31Z</time>
      </trkpt>
      <trkpt lat="42.410702" lon="2.480017">
        <ele>881.972</ele>
        <time>2021-05-28T08:25:34Z</time>
      </trkpt>
      <trkpt lat="42.410720" lon="2.480028">
        <ele>882.019</ele>
        <time>2021-05-28T08:25:36Z</time>
      </trkpt>
      <trkpt lat="42.410741" lon="2.480038">
        <ele>882.150</ele>
        <time>2021-05-28T08:25:38Z</time>
      </trkpt>
      <trkpt lat="42.410761" lon="2.480047">
        <ele>882.239</ele>
        <time>2021-05-28T08:25:40Z</time>
      </trkpt>
      <trkpt lat="42.410783" lon="2.480046">
        <ele>882.496</ele>
        <time>2021-05-28T08:25:42Z</time>
      </trkpt>
      <trkpt lat="42.410811" lon="2.480056">
        <ele>882.641</ele>
        <time>2021-05-28T08:25:44Z</time>
      </trkpt>
      <trkpt lat="42.410836" lon="2.480055">
        <ele>882.948</ele>
        <time>2021-05-28T08:25:46Z</time>
      </trkpt>
      <trkpt lat="42.410927" lon="2.480058">
        <ele>885.036</ele>
        <time>2021-05-28T08:25:54Z</time>
      </trkpt>
      <trkpt lat="42.411008" lon="2.480114">
        <ele>887.192</ele>
        <time>2021-05-28T08:26:03Z</time>
      </trkpt>
      <trkpt lat="42.411101" lon="2.480077">
        <ele>889.373</ele>
        <time>2021-05-28T08:26:12Z</time>
      </trkpt>
      <trkpt lat="42.411175" lon="2.480113">
        <ele>890.320</ele>
        <time>2021-05-28T08:26:21Z</time>
      </trkpt>
      <trkpt lat="42.411160" lon="2.480128">
        <ele>890.308</ele>
        <time>2021-05-28T08:26:24Z</time>
      </trkpt>
      <trkpt lat="42.411131" lon="2.480118">
        <ele>890.066</ele>
        <time>2021-05-28T08:26:32Z</time>
      </trkpt>
      <trkpt lat="42.411124" lon="2.480092">
        <ele>889.843</ele>
        <time>2021-05-28T08:26:37Z</time>
      </trkpt>
      <trkpt lat="42.411107" lon="2.480078">
        <ele>889.514</ele>
        <time>2021-05-28T08:26:42Z</time>
      </trkpt>
      <trkpt lat="42.411094" lon="2.480057">
        <ele>889.013</ele>
        <time>2021-05-28T08:27:00Z</time>
      </trkpt>
      <trkpt lat="42.411091" lon="2.480084">
        <ele>889.130</ele>
        <time>2021-05-28T08:27:24Z</time>
      </trkpt>
      <trkpt lat="42.411071" lon="2.480109">
        <ele>888.755</ele>
        <time>2021-05-28T08:27:35Z</time>
      </trkpt>
      <trkpt lat="42.411055" lon="2.480095">
        <ele>888.342</ele>
        <time>2021-05-28T08:27:48Z</time>
      </trkpt>
      <trkpt lat="42.411040" lon="2.480080">
        <ele>887.880</ele>
        <time>2021-05-28T08:28:09Z</time>
      </trkpt>
      <trkpt lat="42.411042" lon="2.480055">
        <ele>887.833</ele>
        <time>2021-05-28T08:28:28Z</time>
      </trkpt>
      <trkpt lat="42.411066" lon="2.480058">
        <ele>888.323</ele>
        <time>2021-05-28T08:29:17Z</time>
      </trkpt>
      <trkpt lat="42.411157" lon="2.480024">
        <ele>889.515</ele>
        <time>2021-05-28T08:29:41Z</time>
      </trkpt>
      <trkpt lat="42.411175" lon="2.480009">
        <ele>889.508</ele>
        <time>2021-05-28T08:29:47Z</time>
      </trkpt>
      <trkpt lat="42.411091" lon="2.480071">
        <ele>889.020</ele>
        <time>2021-05-28T08:30:15Z</time>
      </trkpt>
      <trkpt lat="42.411071" lon="2.480052">
        <ele>888.437</ele>
        <time>2021-05-28T08:30:20Z</time>
      </trkpt>
      <trkpt lat="42.411066" lon="2.480085">
        <ele>888.518</ele>
        <time>2021-05-28T08:30:26Z</time>
      </trkpt>
      <trkpt lat="42.411053" lon="2.480104">
        <ele>888.317</ele>
        <time>2021-05-28T08:30:32Z</time>
      </trkpt>
      <trkpt lat="42.411052" lon="2.480131">
        <ele>888.414</ele>
        <time>2021-05-28T08:30:53Z</time>
      </trkpt>
      <trkpt lat="42.411073" lon="2.480123">
        <ele>888.999</ele>
        <time>2021-05-28T08:31:03Z</time>
      </trkpt>
      <trkpt lat="42.411081" lon="2.480100">
        <ele>889.096</ele>
        <time>2021-05-28T08:31:06Z</time>
      </trkpt>
      <trkpt lat="42.411073" lon="2.480070">
        <ele>888.694</ele>
        <time>2021-05-28T08:31:17Z</time>
      </trkpt>
      <trkpt lat="42.411051" lon="2.480070">
        <ele>888.093</ele>
        <time>2021-05-28T08:31:24Z</time>
      </trkpt>
      <trkpt lat="42.411033" lon="2.480088">
        <ele>887.765</ele>
        <time>2021-05-28T08:31:27Z</time>
      </trkpt>
      <trkpt lat="42.411016" lon="2.480104">
        <ele>887.321</ele>
        <time>2021-05-28T08:31:29Z</time>
      </trkpt>
      <trkpt lat="42.411002" lon="2.480130">
        <ele>887.008</ele>
        <time>2021-05-28T08:31:32Z</time>
      </trkpt>
      <trkpt lat="42.410986" lon="2.480151">
        <ele>886.646</ele>
        <time>2021-05-28T08:31:35Z</time>
      </trkpt>
      <trkpt lat="42.410966" lon="2.480176">
        <ele>886.123</ele>
        <time>2021-05-28T08:31:38Z</time>
      </trkpt>
      <trkpt lat="42.410946" lon="2.480202">
        <ele>885.654</ele>
        <time>2021-05-28T08:31:40Z</time>
      </trkpt>
      <trkpt lat="42.410939" lon="2.480229">
        <ele>885.463</ele>
        <time>2021-05-28T08:31:42Z</time>
      </trkpt>
      <trkpt lat="42.410925" lon="2.480252">
        <ele>885.070</ele>
        <time>2021-05-28T08:31:44Z</time>
      </trkpt>
      <trkpt lat="42.410915" lon="2.480287">
        <ele>884.955</ele>
        <time>2021-05-28T08:31:46Z</time>
      </trkpt>
      <trkpt lat="42.410904" lon="2.480322">
        <ele>885.682</ele>
        <time>2021-05-28T08:31:48Z</time>
      </trkpt>
      <trkpt lat="42.410885" lon="2.480373">
        <ele>886.620</ele>
        <time>2021-05-28T08:31:51Z</time>
      </trkpt>
      <trkpt lat="42.410872" lon="2.480398">
        <ele>887.089</ele>
        <time>2021-05-28T08:31:53Z</time>
      </trkpt>
      <trkpt lat="42.410854" lon="2.480418">
        <ele>887.106</ele>
        <time>2021-05-28T08:31:55Z</time>
      </trkpt>
      <trkpt lat="42.410842" lon="2.480436">
        <ele>887.426</ele>
        <time>2021-05-28T08:31:57Z</time>
      </trkpt>
      <trkpt lat="42.410829" lon="2.480456">
        <ele>887.708</ele>
        <time>2021-05-28T08:32:00Z</time>
      </trkpt>
      <trkpt lat="42.410826" lon="2.480482">
        <ele>888.415</ele>
        <time>2021-05-28T08:32:03Z</time>
      </trkpt>
      <trkpt lat="42.410818" lon="2.480511">
        <ele>889.282</ele>
        <time>2021-05-28T08:32:04Z</time>
      </trkpt>
      <trkpt lat="42.410813" lon="2.480546">
        <ele>890.223</ele>
        <time>2021-05-28T08:32:07Z</time>
      </trkpt>
      <trkpt lat="42.410803" lon="2.480578">
        <ele>890.762</ele>
        <time>2021-05-28T08:32:09Z</time>
      </trkpt>
      <trkpt lat="42.410802" lon="2.480603">
        <ele>891.179</ele>
        <time>2021-05-28T08:32:11Z</time>
      </trkpt>
      <trkpt lat="42.410796" lon="2.480629">
        <ele>891.564</ele>
        <time>2021-05-28T08:32:13Z</time>
      </trkpt>
      <trkpt lat="42.410784" lon="2.480653">
        <ele>891.651</ele>
        <time>2021-05-28T08:32:15Z</time>
      </trkpt>
      <trkpt lat="42.410772" lon="2.480680">
        <ele>891.999</ele>
        <time>2021-05-28T08:32:17Z</time>
      </trkpt>
      <trkpt lat="42.410764" lon="2.480711">
        <ele>892.346</ele>
        <time>2021-05-28T08:32:20Z</time>
      </trkpt>
      <trkpt lat="42.410763" lon="2.480740">
        <ele>892.988</ele>
        <time>2021-05-28T08:32:22Z</time>
      </trkpt>
      <trkpt lat="42.410768" lon="2.480770">
        <ele>893.616</ele>
        <time>2021-05-28T08:32:24Z</time>
      </trkpt>
      <trkpt lat="42.410761" lon="2.480798">
        <ele>894.008</ele>
        <time>2021-05-28T08:32:26Z</time>
      </trkpt>
      <trkpt lat="42.410756" lon="2.480829">
        <ele>894.571</ele>
        <time>2021-05-28T08:32:28Z</time>
      </trkpt>
      <trkpt lat="42.410754" lon="2.480861">
        <ele>895.268</ele>
        <time>2021-05-28T08:32:31Z</time>
      </trkpt>
      <trkpt lat="42.410754" lon="2.480896">
        <ele>896.189</ele>
        <time>2021-05-28T08:32:34Z</time>
      </trkpt>
      <trkpt lat="42.410758" lon="2.480931">
        <ele>897.088</ele>
        <time>2021-05-28T08:32:36Z</time>
      </trkpt>
      <trkpt lat="42.410755" lon="2.480964">
        <ele>897.835</ele>
        <time>2021-05-28T08:32:38Z</time>
      </trkpt>
      <trkpt lat="42.410751" lon="2.480991">
        <ele>898.320</ele>
        <time>2021-05-28T08:32:40Z</time>
      </trkpt>
      <trkpt lat="42.410747" lon="2.481024">
        <ele>899.087</ele>
        <time>2021-05-28T08:32:42Z</time>
      </trkpt>
      <trkpt lat="42.410742" lon="2.481051">
        <ele>899.695</ele>
        <time>2021-05-28T08:32:44Z</time>
      </trkpt>
      <trkpt lat="42.410741" lon="2.481076">
        <ele>900.226</ele>
        <time>2021-05-28T08:32:46Z</time>
      </trkpt>
      <trkpt lat="42.410747" lon="2.481110">
        <ele>901.147</ele>
        <time>2021-05-28T08:32:49Z</time>
      </trkpt>
      <trkpt lat="42.410734" lon="2.481148">
        <ele>901.811</ele>
        <time>2021-05-28T08:32:52Z</time>
      </trkpt>
      <trkpt lat="42.410731" lon="2.481174">
        <ele>902.408</ele>
        <time>2021-05-28T08:32:54Z</time>
      </trkpt>
      <trkpt lat="42.410733" lon="2.481200">
        <ele>903.189</ele>
        <time>2021-05-28T08:32:57Z</time>
      </trkpt>
      <trkpt lat="42.410715" lon="2.481218">
        <ele>903.116</ele>
        <time>2021-05-28T08:33:00Z</time>
      </trkpt>
      <trkpt lat="42.410717" lon="2.481253">
        <ele>904.197</ele>
        <time>2021-05-28T08:33:03Z</time>
      </trkpt>
      <trkpt lat="42.410711" lon="2.481283">
        <ele>904.746</ele>
        <time>2021-05-28T08:33:05Z</time>
      </trkpt>
      <trkpt lat="42.410703" lon="2.481309">
        <ele>905.223</ele>
        <time>2021-05-28T08:33:07Z</time>
      </trkpt>
      <trkpt lat="42.410695" lon="2.481341">
        <ele>905.818</ele>
        <time>2021-05-28T08:33:11Z</time>
      </trkpt>
      <trkpt lat="42.410686" lon="2.481372">
        <ele>906.435</ele>
        <time>2021-05-28T08:33:14Z</time>
      </trkpt>
      <trkpt lat="42.410693" lon="2.481405">
        <ele>907.353</ele>
        <time>2021-05-28T08:33:17Z</time>
      </trkpt>
      <trkpt lat="42.410694" lon="2.481431">
        <ele>907.764</ele>
        <time>2021-05-28T08:33:20Z</time>
      </trkpt>
      <trkpt lat="42.410688" lon="2.481456">
        <ele>908.106</ele>
        <time>2021-05-28T08:33:21Z</time>
      </trkpt>
      <trkpt lat="42.410678" lon="2.481485">
        <ele>908.416</ele>
        <time>2021-05-28T08:33:23Z</time>
      </trkpt>
      <trkpt lat="42.410674" lon="2.481517">
        <ele>908.908</ele>
        <time>2021-05-28T08:33:25Z</time>
      </trkpt>
      <trkpt lat="42.410667" lon="2.481547">
        <ele>909.483</ele>
        <time>2021-05-28T08:33:28Z</time>
      </trkpt>
      <trkpt lat="42.410664" lon="2.481574">
        <ele>909.830</ele>
        <time>2021-05-28T08:33:30Z</time>
      </trkpt>
      <trkpt lat="42.410658" lon="2.481606">
        <ele>910.311</ele>
        <time>2021-05-28T08:33:32Z</time>
      </trkpt>
      <trkpt lat="42.410665" lon="2.481632">
        <ele>910.950</ele>
        <time>2021-05-28T08:33:34Z</time>
      </trkpt>
      <trkpt lat="42.410660" lon="2.481681">
        <ele>911.657</ele>
        <time>2021-05-28T08:33:38Z</time>
      </trkpt>
      <trkpt lat="42.410657" lon="2.481718">
        <ele>911.852</ele>
        <time>2021-05-28T08:33:40Z</time>
      </trkpt>
      <trkpt lat="42.410660" lon="2.481746">
        <ele>912.139</ele>
        <time>2021-05-28T08:33:42Z</time>
      </trkpt>
      <trkpt lat="42.410671" lon="2.481772">
        <ele>912.547</ele>
        <time>2021-05-28T08:33:44Z</time>
      </trkpt>
      <trkpt lat="42.410676" lon="2.481801">
        <ele>912.888</ele>
        <time>2021-05-28T08:33:46Z</time>
      </trkpt>
      <trkpt lat="42.410682" lon="2.481835">
        <ele>913.324</ele>
        <time>2021-05-28T08:33:48Z</time>
      </trkpt>
      <trkpt lat="42.410684" lon="2.481869">
        <ele>913.626</ele>
        <time>2021-05-28T08:33:50Z</time>
      </trkpt>
      <trkpt lat="42.410683" lon="2.481899">
        <ele>913.808</ele>
        <time>2021-05-28T08:33:52Z</time>
      </trkpt>
      <trkpt lat="42.410686" lon="2.481933">
        <ele>914.285</ele>
        <time>2021-05-28T08:33:54Z</time>
      </trkpt>
      <trkpt lat="42.410690" lon="2.481965">
        <ele>914.522</ele>
        <time>2021-05-28T08:33:56Z</time>
      </trkpt>
      <trkpt lat="42.410692" lon="2.481993">
        <ele>914.713</ele>
        <time>2021-05-28T08:33:58Z</time>
      </trkpt>
      <trkpt lat="42.410701" lon="2.482018">
        <ele>915.182</ele>
        <time>2021-05-28T08:34:00Z</time>
      </trkpt>
      <trkpt lat="42.410711" lon="2.482043">
        <ele>915.569</ele>
        <time>2021-05-28T08:34:02Z</time>
      </trkpt>
      <trkpt lat="42.410719" lon="2.482074">
        <ele>915.994</ele>
        <time>2021-05-28T08:34:04Z</time>
      </trkpt>
      <trkpt lat="42.410729" lon="2.482096">
        <ele>916.381</ele>
        <time>2021-05-28T08:34:06Z</time>
      </trkpt>
      <trkpt lat="42.410738" lon="2.482116">
        <ele>916.689</ele>
        <time>2021-05-28T08:34:08Z</time>
      </trkpt>
      <trkpt lat="42.410758" lon="2.482136">
        <ele>917.339</ele>
        <time>2021-05-28T08:34:11Z</time>
      </trkpt>
      <trkpt lat="42.410775" lon="2.482164">
        <ele>917.901</ele>
        <time>2021-05-28T08:34:14Z</time>
      </trkpt>
      <trkpt lat="42.410787" lon="2.482190">
        <ele>918.521</ele>
        <time>2021-05-28T08:34:16Z</time>
      </trkpt>
      <trkpt lat="42.410800" lon="2.482211">
        <ele>919.008</ele>
        <time>2021-05-28T08:34:18Z</time>
      </trkpt>
      <trkpt lat="42.410817" lon="2.482226">
        <ele>919.520</ele>
        <time>2021-05-28T08:34:20Z</time>
      </trkpt>
      <trkpt lat="42.410835" lon="2.482241">
        <ele>919.987</ele>
        <time>2021-05-28T08:34:23Z</time>
      </trkpt>
      <trkpt lat="42.410851" lon="2.482255">
        <ele>920.258</ele>
        <time>2021-05-28T08:34:25Z</time>
      </trkpt>
      <trkpt lat="42.410865" lon="2.482276">
        <ele>920.347</ele>
        <time>2021-05-28T08:34:27Z</time>
      </trkpt>
      <trkpt lat="42.410881" lon="2.482289">
        <ele>920.664</ele>
        <time>2021-05-28T08:34:29Z</time>
      </trkpt>
      <trkpt lat="42.410898" lon="2.482305">
        <ele>920.939</ele>
        <time>2021-05-28T08:34:31Z</time>
      </trkpt>
      <trkpt lat="42.410909" lon="2.482341">
        <ele>920.986</ele>
        <time>2021-05-28T08:34:33Z</time>
      </trkpt>
      <trkpt lat="42.410916" lon="2.482371">
        <ele>920.944</ele>
        <time>2021-05-28T08:34:35Z</time>
      </trkpt>
      <trkpt lat="42.410930" lon="2.482396">
        <ele>921.149</ele>
        <time>2021-05-28T08:34:37Z</time>
      </trkpt>
      <trkpt lat="42.410946" lon="2.482413">
        <ele>921.302</ele>
        <time>2021-05-28T08:34:39Z</time>
      </trkpt>
      <trkpt lat="42.410964" lon="2.482419">
        <ele>921.722</ele>
        <time>2021-05-28T08:34:41Z</time>
      </trkpt>
      <trkpt lat="42.410990" lon="2.482428">
        <ele>922.308</ele>
        <time>2021-05-28T08:34:44Z</time>
      </trkpt>
      <trkpt lat="42.411010" lon="2.482436">
        <ele>922.871</ele>
        <time>2021-05-28T08:34:46Z</time>
      </trkpt>
      <trkpt lat="42.411031" lon="2.482441">
        <ele>923.368</ele>
        <time>2021-05-28T08:34:48Z</time>
      </trkpt>
      <trkpt lat="42.411054" lon="2.482441">
        <ele>923.889</ele>
        <time>2021-05-28T08:34:50Z</time>
      </trkpt>
      <trkpt lat="42.411073" lon="2.482444">
        <ele>924.328</ele>
        <time>2021-05-28T08:34:52Z</time>
      </trkpt>
      <trkpt lat="42.411096" lon="2.482441">
        <ele>924.855</ele>
        <time>2021-05-28T08:34:54Z</time>
      </trkpt>
      <trkpt lat="42.411117" lon="2.482444">
        <ele>925.310</ele>
        <time>2021-05-28T08:34:56Z</time>
      </trkpt>
      <trkpt lat="42.411137" lon="2.482463">
        <ele>925.737</ele>
        <time>2021-05-28T08:34:59Z</time>
      </trkpt>
      <trkpt lat="42.411148" lon="2.482487">
        <ele>925.895</ele>
        <time>2021-05-28T08:35:01Z</time>
      </trkpt>
      <trkpt lat="42.411165" lon="2.482511">
        <ele>926.155</ele>
        <time>2021-05-28T08:35:03Z</time>
      </trkpt>
      <trkpt lat="42.411191" lon="2.482530">
        <ele>926.507</ele>
        <time>2021-05-28T08:35:05Z</time>
      </trkpt>
      <trkpt lat="42.411214" lon="2.482541">
        <ele>927.017</ele>
        <time>2021-05-28T08:35:07Z</time>
      </trkpt>
      <trkpt lat="42.411233" lon="2.482563">
        <ele>927.408</ele>
        <time>2021-05-28T08:35:09Z</time>
      </trkpt>
      <trkpt lat="42.411250" lon="2.482582">
        <ele>927.742</ele>
        <time>2021-05-28T08:35:11Z</time>
      </trkpt>
      <trkpt lat="42.411269" lon="2.482599">
        <ele>928.259</ele>
        <time>2021-05-28T08:35:13Z</time>
      </trkpt>
      <trkpt lat="42.411289" lon="2.482618">
        <ele>928.770</ele>
        <time>2021-05-28T08:35:15Z</time>
      </trkpt>
      <trkpt lat="42.411306" lon="2.482641">
        <ele>929.119</ele>
        <time>2021-05-28T08:35:17Z</time>
      </trkpt>
      <trkpt lat="42.411319" lon="2.482669">
        <ele>929.586</ele>
        <time>2021-05-28T08:35:19Z</time>
      </trkpt>
      <trkpt lat="42.411332" lon="2.482701">
        <ele>929.971</ele>
        <time>2021-05-28T08:35:21Z</time>
      </trkpt>
      <trkpt lat="42.411349" lon="2.482724">
        <ele>930.558</ele>
        <time>2021-05-28T08:35:23Z</time>
      </trkpt>
      <trkpt lat="42.411360" lon="2.482747">
        <ele>930.986</ele>
        <time>2021-05-28T08:35:25Z</time>
      </trkpt>
      <trkpt lat="42.411371" lon="2.482772">
        <ele>931.334</ele>
        <time>2021-05-28T08:35:27Z</time>
      </trkpt>
      <trkpt lat="42.411386" lon="2.482797">
        <ele>931.855</ele>
        <time>2021-05-28T08:35:29Z</time>
      </trkpt>
      <trkpt lat="42.411409" lon="2.482817">
        <ele>932.510</ele>
        <time>2021-05-28T08:35:32Z</time>
      </trkpt>
      <trkpt lat="42.411420" lon="2.482841">
        <ele>932.708</ele>
        <time>2021-05-28T08:35:35Z</time>
      </trkpt>
      <trkpt lat="42.411421" lon="2.482875">
        <ele>932.590</ele>
        <time>2021-05-28T08:35:37Z</time>
      </trkpt>
      <trkpt lat="42.411430" lon="2.482901">
        <ele>932.727</ele>
        <time>2021-05-28T08:35:39Z</time>
      </trkpt>
      <trkpt lat="42.411439" lon="2.482922">
        <ele>933.028</ele>
        <time>2021-05-28T08:35:41Z</time>
      </trkpt>
      <trkpt lat="42.411451" lon="2.482942">
        <ele>933.367</ele>
        <time>2021-05-28T08:35:43Z</time>
      </trkpt>
      <trkpt lat="42.411469" lon="2.482963">
        <ele>933.974</ele>
        <time>2021-05-28T08:35:45Z</time>
      </trkpt>
      <trkpt lat="42.411488" lon="2.482987">
        <ele>934.619</ele>
        <time>2021-05-28T08:35:47Z</time>
      </trkpt>
      <trkpt lat="42.411505" lon="2.483010">
        <ele>935.236</ele>
        <time>2021-05-28T08:35:49Z</time>
      </trkpt>
      <trkpt lat="42.411514" lon="2.483040">
        <ele>935.594</ele>
        <time>2021-05-28T08:35:51Z</time>
      </trkpt>
      <trkpt lat="42.411530" lon="2.483068">
        <ele>936.042</ele>
        <time>2021-05-28T08:35:53Z</time>
      </trkpt>
      <trkpt lat="42.411546" lon="2.483101">
        <ele>936.422</ele>
        <time>2021-05-28T08:35:55Z</time>
      </trkpt>
      <trkpt lat="42.411564" lon="2.483130">
        <ele>936.914</ele>
        <time>2021-05-28T08:35:57Z</time>
      </trkpt>
      <trkpt lat="42.411582" lon="2.483151">
        <ele>937.408</ele>
        <time>2021-05-28T08:35:59Z</time>
      </trkpt>
      <trkpt lat="42.411599" lon="2.483166">
        <ele>938.061</ele>
        <time>2021-05-28T08:36:01Z</time>
      </trkpt>
      <trkpt lat="42.411614" lon="2.483184">
        <ele>938.478</ele>
        <time>2021-05-28T08:36:03Z</time>
      </trkpt>
      <trkpt lat="42.411628" lon="2.483209">
        <ele>938.749</ele>
        <time>2021-05-28T08:36:05Z</time>
      </trkpt>
      <trkpt lat="42.411640" lon="2.483235">
        <ele>939.028</ele>
        <time>2021-05-28T08:36:07Z</time>
      </trkpt>
      <trkpt lat="42.411651" lon="2.483264">
        <ele>939.165</ele>
        <time>2021-05-28T08:36:09Z</time>
      </trkpt>
      <trkpt lat="42.411665" lon="2.483294">
        <ele>939.470</ele>
        <time>2021-05-28T08:36:11Z</time>
      </trkpt>
      <trkpt lat="42.411679" lon="2.483323">
        <ele>939.537</ele>
        <time>2021-05-28T08:36:13Z</time>
      </trkpt>
      <trkpt lat="42.411694" lon="2.483351">
        <ele>939.535</ele>
        <time>2021-05-28T08:36:15Z</time>
      </trkpt>
      <trkpt lat="42.411714" lon="2.483372">
        <ele>939.638</ele>
        <time>2021-05-28T08:36:17Z</time>
      </trkpt>
      <trkpt lat="42.411733" lon="2.483391">
        <ele>939.870</ele>
        <time>2021-05-28T08:36:19Z</time>
      </trkpt>
      <trkpt lat="42.411753" lon="2.483403">
        <ele>940.117</ele>
        <time>2021-05-28T08:36:21Z</time>
      </trkpt>
      <trkpt lat="42.411771" lon="2.483420">
        <ele>940.208</ele>
        <time>2021-05-28T08:36:23Z</time>
      </trkpt>
      <trkpt lat="42.411791" lon="2.483437">
        <ele>940.440</ele>
        <time>2021-05-28T08:36:25Z</time>
      </trkpt>
      <trkpt lat="42.411809" lon="2.483450">
        <ele>940.617</ele>
        <time>2021-05-28T08:36:27Z</time>
      </trkpt>
      <trkpt lat="42.411825" lon="2.483467">
        <ele>940.628</ele>
        <time>2021-05-28T08:36:29Z</time>
      </trkpt>
      <trkpt lat="42.411841" lon="2.483491">
        <ele>940.517</ele>
        <time>2021-05-28T08:36:31Z</time>
      </trkpt>
      <trkpt lat="42.411856" lon="2.483515">
        <ele>940.384</ele>
        <time>2021-05-28T08:36:33Z</time>
      </trkpt>
      <trkpt lat="42.411874" lon="2.483537">
        <ele>940.239</ele>
        <time>2021-05-28T08:36:35Z</time>
      </trkpt>
      <trkpt lat="42.411891" lon="2.483556">
        <ele>940.266</ele>
        <time>2021-05-28T08:36:37Z</time>
      </trkpt>
      <trkpt lat="42.411910" lon="2.483573">
        <ele>940.274</ele>
        <time>2021-05-28T08:36:39Z</time>
      </trkpt>
      <trkpt lat="42.411928" lon="2.483584">
        <ele>940.366</ele>
        <time>2021-05-28T08:36:41Z</time>
      </trkpt>
      <trkpt lat="42.411952" lon="2.483596">
        <ele>940.429</ele>
        <time>2021-05-28T08:36:44Z</time>
      </trkpt>
      <trkpt lat="42.411975" lon="2.483618">
        <ele>940.021</ele>
        <time>2021-05-28T08:36:47Z</time>
      </trkpt>
      <trkpt lat="42.411996" lon="2.483625">
        <ele>939.808</ele>
        <time>2021-05-28T08:36:49Z</time>
      </trkpt>
      <trkpt lat="42.412017" lon="2.483627">
        <ele>939.993</ele>
        <time>2021-05-28T08:36:51Z</time>
      </trkpt>
      <trkpt lat="42.412043" lon="2.483632">
        <ele>939.920</ele>
        <time>2021-05-28T08:36:53Z</time>
      </trkpt>
      <trkpt lat="42.412072" lon="2.483628">
        <ele>940.291</ele>
        <time>2021-05-28T08:36:55Z</time>
      </trkpt>
      <trkpt lat="42.412106" lon="2.483630">
        <ele>940.490</ele>
        <time>2021-05-28T08:36:57Z</time>
      </trkpt>
      <trkpt lat="42.412141" lon="2.483642">
        <ele>940.117</ele>
        <time>2021-05-28T08:36:59Z</time>
      </trkpt>
      <trkpt lat="42.412160" lon="2.483645">
        <ele>940.012</ele>
        <time>2021-05-28T08:37:00Z</time>
      </trkpt>
      <trkpt lat="42.412179" lon="2.483647">
        <ele>940.169</ele>
        <time>2021-05-28T08:37:01Z</time>
      </trkpt>
      <trkpt lat="42.412200" lon="2.483651">
        <ele>940.037</ele>
        <time>2021-05-28T08:37:02Z</time>
      </trkpt>
      <trkpt lat="42.412219" lon="2.483652">
        <ele>940.153</ele>
        <time>2021-05-28T08:37:03Z</time>
      </trkpt>
      <trkpt lat="42.412239" lon="2.483651">
        <ele>940.104</ele>
        <time>2021-05-28T08:37:04Z</time>
      </trkpt>
      <trkpt lat="42.412260" lon="2.483651">
        <ele>940.114</ele>
        <time>2021-05-28T08:37:05Z</time>
      </trkpt>
      <trkpt lat="42.412282" lon="2.483649">
        <ele>940.208</ele>
        <time>2021-05-28T08:37:06Z</time>
      </trkpt>
      <trkpt lat="42.412300" lon="2.483644">
        <ele>940.582</ele>
        <time>2021-05-28T08:37:07Z</time>
      </trkpt>
      <trkpt lat="42.412318" lon="2.483642">
        <ele>940.649</ele>
        <time>2021-05-28T08:37:08Z</time>
      </trkpt>
      <trkpt lat="42.412350" lon="2.483646">
        <ele>940.470</ele>
        <time>2021-05-28T08:37:10Z</time>
      </trkpt>
      <trkpt lat="42.412369" lon="2.483648">
        <ele>940.329</ele>
        <time>2021-05-28T08:37:11Z</time>
      </trkpt>
      <trkpt lat="42.412405" lon="2.483657">
        <ele>939.956</ele>
        <time>2021-05-28T08:37:13Z</time>
      </trkpt>
      <trkpt lat="42.412441" lon="2.483661">
        <ele>939.791</ele>
        <time>2021-05-28T08:37:15Z</time>
      </trkpt>
      <trkpt lat="42.412460" lon="2.483658">
        <ele>939.858</ele>
        <time>2021-05-28T08:37:16Z</time>
      </trkpt>
      <trkpt lat="42.412489" lon="2.483649">
        <ele>940.216</ele>
        <time>2021-05-28T08:37:18Z</time>
      </trkpt>
      <trkpt lat="42.412520" lon="2.483644">
        <ele>940.614</ele>
        <time>2021-05-28T08:37:20Z</time>
      </trkpt>
      <trkpt lat="42.412554" lon="2.483639">
        <ele>941.054</ele>
        <time>2021-05-28T08:37:22Z</time>
      </trkpt>
      <trkpt lat="42.412587" lon="2.483640">
        <ele>941.109</ele>
        <time>2021-05-28T08:37:24Z</time>
      </trkpt>
      <trkpt lat="42.412618" lon="2.483634">
        <ele>941.508</ele>
        <time>2021-05-28T08:37:26Z</time>
      </trkpt>
      <trkpt lat="42.412649" lon="2.483627">
        <ele>941.938</ele>
        <time>2021-05-28T08:37:28Z</time>
      </trkpt>
      <trkpt lat="42.412667" lon="2.483618">
        <ele>942.365</ele>
        <time>2021-05-28T08:37:29Z</time>
      </trkpt>
      <trkpt lat="42.412703" lon="2.483604">
        <ele>943.166</ele>
        <time>2021-05-28T08:37:31Z</time>
      </trkpt>
      <trkpt lat="42.412724" lon="2.483578">
        <ele>944.435</ele>
        <time>2021-05-28T08:37:33Z</time>
      </trkpt>
      <trkpt lat="42.412741" lon="2.483559">
        <ele>945.422</ele>
        <time>2021-05-28T08:37:35Z</time>
      </trkpt>
      <trkpt lat="42.412794" lon="2.483542">
        <ele>946.587</ele>
        <time>2021-05-28T08:37:39Z</time>
      </trkpt>
      <trkpt lat="42.412838" lon="2.483550">
        <ele>946.214</ele>
        <time>2021-05-28T08:37:41Z</time>
      </trkpt>
      <trkpt lat="42.412868" lon="2.483548">
        <ele>946.342</ele>
        <time>2021-05-28T08:37:43Z</time>
      </trkpt>
      <trkpt lat="42.412895" lon="2.483546">
        <ele>946.487</ele>
        <time>2021-05-28T08:37:45Z</time>
      </trkpt>
      <trkpt lat="42.412927" lon="2.483544">
        <ele>946.542</ele>
        <time>2021-05-28T08:37:47Z</time>
      </trkpt>
      <trkpt lat="42.412947" lon="2.483536">
        <ele>946.926</ele>
        <time>2021-05-28T08:37:49Z</time>
      </trkpt>
      <trkpt lat="42.412965" lon="2.483522">
        <ele>947.508</ele>
        <time>2021-05-28T08:37:51Z</time>
      </trkpt>
      <trkpt lat="42.412991" lon="2.483513">
        <ele>947.935</ele>
        <time>2021-05-28T08:37:53Z</time>
      </trkpt>
      <trkpt lat="42.413010" lon="2.483505">
        <ele>948.242</ele>
        <time>2021-05-28T08:37:55Z</time>
      </trkpt>
      <trkpt lat="42.413037" lon="2.483495">
        <ele>948.623</ele>
        <time>2021-05-28T08:37:58Z</time>
      </trkpt>
      <trkpt lat="42.413120" lon="2.483432">
        <ele>952.492</ele>
        <time>2021-05-28T08:38:05Z</time>
      </trkpt>
      <trkpt lat="42.413148" lon="2.483429">
        <ele>953.099</ele>
        <time>2021-05-28T08:38:08Z</time>
      </trkpt>
      <trkpt lat="42.413182" lon="2.483429">
        <ele>953.784</ele>
        <time>2021-05-28T08:38:10Z</time>
      </trkpt>
      <trkpt lat="42.413205" lon="2.483422">
        <ele>954.361</ele>
        <time>2021-05-28T08:38:12Z</time>
      </trkpt>
      <trkpt lat="42.413297" lon="2.483408">
        <ele>956.189</ele>
        <time>2021-05-28T08:38:19Z</time>
      </trkpt>
      <trkpt lat="42.413389" lon="2.483406">
        <ele>958.141</ele>
        <time>2021-05-28T08:38:25Z</time>
      </trkpt>
      <trkpt lat="42.413468" lon="2.483467">
        <ele>960.481</ele>
        <time>2021-05-28T08:38:33Z</time>
      </trkpt>
      <trkpt lat="42.413471" lon="2.483589">
        <ele>960.909</ele>
        <time>2021-05-28T08:38:43Z</time>
      </trkpt>
      <trkpt lat="42.413459" lon="2.483630">
        <ele>961.008</ele>
        <time>2021-05-28T08:38:47Z</time>
      </trkpt>
      <trkpt lat="42.413449" lon="2.483654">
        <ele>961.291</ele>
        <time>2021-05-28T08:38:50Z</time>
      </trkpt>
      <trkpt lat="42.413436" lon="2.483696">
        <ele>961.648</ele>
        <time>2021-05-28T08:38:54Z</time>
      </trkpt>
      <trkpt lat="42.413426" lon="2.483720">
        <ele>961.849</ele>
        <time>2021-05-28T08:38:56Z</time>
      </trkpt>
      <trkpt lat="42.413411" lon="2.483748">
        <ele>961.978</ele>
        <time>2021-05-28T08:38:58Z</time>
      </trkpt>
      <trkpt lat="42.413399" lon="2.483767">
        <ele>961.965</ele>
        <time>2021-05-28T08:39:00Z</time>
      </trkpt>
      <trkpt lat="42.413392" lon="2.483800">
        <ele>962.310</ele>
        <time>2021-05-28T08:39:02Z</time>
      </trkpt>
      <trkpt lat="42.413396" lon="2.483824">
        <ele>963.077</ele>
        <time>2021-05-28T08:39:04Z</time>
      </trkpt>
      <trkpt lat="42.413411" lon="2.483854">
        <ele>964.355</ele>
        <time>2021-05-28T08:39:07Z</time>
      </trkpt>
      <trkpt lat="42.413410" lon="2.483880">
        <ele>964.852</ele>
        <time>2021-05-28T08:39:09Z</time>
      </trkpt>
      <trkpt lat="42.413405" lon="2.483907">
        <ele>965.253</ele>
        <time>2021-05-28T08:39:11Z</time>
      </trkpt>
      <trkpt lat="42.413399" lon="2.483938">
        <ele>965.608</ele>
        <time>2021-05-28T08:39:13Z</time>
      </trkpt>
      <trkpt lat="42.413393" lon="2.483966">
        <ele>966.008</ele>
        <time>2021-05-28T08:39:15Z</time>
      </trkpt>
      <trkpt lat="42.413394" lon="2.483990">
        <ele>966.542</ele>
        <time>2021-05-28T08:39:17Z</time>
      </trkpt>
      <trkpt lat="42.413395" lon="2.484025">
        <ele>967.389</ele>
        <time>2021-05-28T08:39:20Z</time>
      </trkpt>
      <trkpt lat="42.413394" lon="2.484056">
        <ele>967.910</ele>
        <time>2021-05-28T08:39:22Z</time>
      </trkpt>
      <trkpt lat="42.413389" lon="2.484088">
        <ele>968.429</ele>
        <time>2021-05-28T08:39:25Z</time>
      </trkpt>
      <trkpt lat="42.413385" lon="2.484116">
        <ele>968.856</ele>
        <time>2021-05-28T08:39:27Z</time>
      </trkpt>
      <trkpt lat="42.413383" lon="2.484143">
        <ele>969.371</ele>
        <time>2021-05-28T08:39:29Z</time>
      </trkpt>
      <trkpt lat="42.413387" lon="2.484180">
        <ele>970.238</ele>
        <time>2021-05-28T08:39:31Z</time>
      </trkpt>
      <trkpt lat="42.413381" lon="2.484308">
        <ele>972.286</ele>
        <time>2021-05-28T08:39:39Z</time>
      </trkpt>
      <trkpt lat="42.413376" lon="2.484340">
        <ele>972.634</ele>
        <time>2021-05-28T08:39:41Z</time>
      </trkpt>
      <trkpt lat="42.413373" lon="2.484375">
        <ele>973.155</ele>
        <time>2021-05-28T08:39:43Z</time>
      </trkpt>
      <trkpt lat="42.413369" lon="2.484402">
        <ele>973.410</ele>
        <time>2021-05-28T08:39:45Z</time>
      </trkpt>
      <trkpt lat="42.413362" lon="2.484433">
        <ele>973.708</ele>
        <time>2021-05-28T08:39:48Z</time>
      </trkpt>
      <trkpt lat="42.413358" lon="2.484462">
        <ele>974.190</ele>
        <time>2021-05-28T08:39:50Z</time>
      </trkpt>
      <trkpt lat="42.413352" lon="2.484486">
        <ele>974.257</ele>
        <time>2021-05-28T08:39:52Z</time>
      </trkpt>
      <trkpt lat="42.413348" lon="2.484509">
        <ele>974.478</ele>
        <time>2021-05-28T08:39:54Z</time>
      </trkpt>
      <trkpt lat="42.413344" lon="2.484541">
        <ele>974.787</ele>
        <time>2021-05-28T08:39:56Z</time>
      </trkpt>
      <trkpt lat="42.413343" lon="2.484567">
        <ele>975.124</ele>
        <time>2021-05-28T08:39:58Z</time>
      </trkpt>
      <trkpt lat="42.413337" lon="2.484594">
        <ele>975.319</ele>
        <time>2021-05-28T08:40:00Z</time>
      </trkpt>
      <trkpt lat="42.413329" lon="2.484626">
        <ele>975.456</ele>
        <time>2021-05-28T08:40:02Z</time>
      </trkpt>
      <trkpt lat="42.413328" lon="2.484669">
        <ele>976.074</ele>
        <time>2021-05-28T08:40:04Z</time>
      </trkpt>
      <trkpt lat="42.413324" lon="2.484753">
        <ele>977.261</ele>
        <time>2021-05-28T08:40:08Z</time>
      </trkpt>
      <trkpt lat="42.413314" lon="2.484803">
        <ele>977.721</ele>
        <time>2021-05-28T08:40:11Z</time>
      </trkpt>
      <trkpt lat="42.413310" lon="2.484834">
        <ele>978.113</ele>
        <time>2021-05-28T08:40:13Z</time>
      </trkpt>
      <trkpt lat="42.413306" lon="2.484862">
        <ele>978.408</ele>
        <time>2021-05-28T08:40:15Z</time>
      </trkpt>
      <trkpt lat="42.413305" lon="2.484887">
        <ele>978.823</ele>
        <time>2021-05-28T08:40:17Z</time>
      </trkpt>
      <trkpt lat="42.413301" lon="2.484912">
        <ele>979.140</ele>
        <time>2021-05-28T08:40:19Z</time>
      </trkpt>
      <trkpt lat="42.413300" lon="2.484946">
        <ele>979.781</ele>
        <time>2021-05-28T08:40:22Z</time>
      </trkpt>
      <trkpt lat="42.413294" lon="2.484976">
        <ele>980.030</ele>
        <time>2021-05-28T08:40:25Z</time>
      </trkpt>
      <trkpt lat="42.413287" lon="2.485007">
        <ele>980.367</ele>
        <time>2021-05-28T08:40:28Z</time>
      </trkpt>
      <trkpt lat="42.413290" lon="2.485037">
        <ele>980.812</ele>
        <time>2021-05-28T08:40:31Z</time>
      </trkpt>
      <trkpt lat="42.413288" lon="2.485105">
        <ele>981.769</ele>
        <time>2021-05-28T08:40:35Z</time>
      </trkpt>
      <trkpt lat="42.413294" lon="2.485131">
        <ele>982.367</ele>
        <time>2021-05-28T08:40:37Z</time>
      </trkpt>
      <trkpt lat="42.413293" lon="2.485159">
        <ele>982.785</ele>
        <time>2021-05-28T08:40:39Z</time>
      </trkpt>
      <trkpt lat="42.413292" lon="2.485219">
        <ele>983.589</ele>
        <time>2021-05-28T08:40:43Z</time>
      </trkpt>
      <trkpt lat="42.413310" lon="2.485340">
        <ele>986.017</ele>
        <time>2021-05-28T08:40:55Z</time>
      </trkpt>
      <trkpt lat="42.413318" lon="2.485466">
        <ele>988.108</ele>
        <time>2021-05-28T08:41:06Z</time>
      </trkpt>
      <trkpt lat="42.413323" lon="2.485492">
        <ele>988.725</ele>
        <time>2021-05-28T08:41:08Z</time>
      </trkpt>
      <trkpt lat="42.413326" lon="2.485518">
        <ele>989.222</ele>
        <time>2021-05-28T08:41:10Z</time>
      </trkpt>
      <trkpt lat="42.413330" lon="2.485564">
        <ele>990.083</ele>
        <time>2021-05-28T08:41:15Z</time>
      </trkpt>
      <trkpt lat="42.413328" lon="2.485597">
        <ele>990.232</ele>
        <time>2021-05-28T08:41:18Z</time>
      </trkpt>
      <trkpt lat="42.413325" lon="2.485621">
        <ele>990.499</ele>
        <time>2021-05-28T08:41:20Z</time>
      </trkpt>
      <trkpt lat="42.413334" lon="2.485645">
        <ele>991.044</ele>
        <time>2021-05-28T08:41:24Z</time>
      </trkpt>
      <trkpt lat="42.413338" lon="2.485671">
        <ele>991.461</ele>
        <time>2021-05-28T08:41:27Z</time>
      </trkpt>
      <trkpt lat="42.413340" lon="2.485704">
        <ele>991.949</ele>
        <time>2021-05-28T08:41:30Z</time>
      </trkpt>
      <trkpt lat="42.413339" lon="2.485731">
        <ele>992.182</ele>
        <time>2021-05-28T08:41:33Z</time>
      </trkpt>
      <trkpt lat="42.413344" lon="2.485763">
        <ele>992.743</ele>
        <time>2021-05-28T08:41:35Z</time>
      </trkpt>
      <trkpt lat="42.413349" lon="2.485792">
        <ele>993.217</ele>
        <time>2021-05-28T08:41:37Z</time>
      </trkpt>
      <trkpt lat="42.413354" lon="2.485818">
        <ele>993.708</ele>
        <time>2021-05-28T08:41:39Z</time>
      </trkpt>
      <trkpt lat="42.413354" lon="2.485845">
        <ele>993.985</ele>
        <time>2021-05-28T08:41:41Z</time>
      </trkpt>
      <trkpt lat="42.413357" lon="2.485871">
        <ele>994.232</ele>
        <time>2021-05-28T08:41:43Z</time>
      </trkpt>
      <trkpt lat="42.413364" lon="2.485896">
        <ele>994.743</ele>
        <time>2021-05-28T08:41:45Z</time>
      </trkpt>
      <trkpt lat="42.413373" lon="2.485928">
        <ele>995.372</ele>
        <time>2021-05-28T08:41:48Z</time>
      </trkpt>
      <trkpt lat="42.413379" lon="2.485952">
        <ele>995.789</ele>
        <time>2021-05-28T08:41:50Z</time>
      </trkpt>
      <trkpt lat="42.413389" lon="2.485972">
        <ele>996.284</ele>
        <time>2021-05-28T08:41:52Z</time>
      </trkpt>
      <trkpt lat="42.413395" lon="2.486007">
        <ele>996.791</ele>
        <time>2021-05-28T08:41:55Z</time>
      </trkpt>
      <trkpt lat="42.413400" lon="2.486033">
        <ele>997.189</ele>
        <time>2021-05-28T08:41:57Z</time>
      </trkpt>
      <trkpt lat="42.413403" lon="2.486061">
        <ele>997.419</ele>
        <time>2021-05-28T08:41:59Z</time>
      </trkpt>
      <trkpt lat="42.413410" lon="2.486087">
        <ele>997.909</ele>
        <time>2021-05-28T08:42:01Z</time>
      </trkpt>
      <trkpt lat="42.413419" lon="2.486113">
        <ele>998.419</ele>
        <time>2021-05-28T08:42:03Z</time>
      </trkpt>
      <trkpt lat="42.413427" lon="2.486138">
        <ele>998.608</ele>
        <time>2021-05-28T08:42:05Z</time>
      </trkpt>
      <trkpt lat="42.413439" lon="2.486166">
        <ele>998.988</ele>
        <time>2021-05-28T08:42:07Z</time>
      </trkpt>
      <trkpt lat="42.413445" lon="2.486189">
        <ele>999.065</ele>
        <time>2021-05-28T08:42:09Z</time>
      </trkpt>
      <trkpt lat="42.413445" lon="2.486217">
        <ele>998.926</ele>
        <time>2021-05-28T08:42:11Z</time>
      </trkpt>
      <trkpt lat="42.413451" lon="2.486244">
        <ele>999.075</ele>
        <time>2021-05-28T08:42:13Z</time>
      </trkpt>
      <trkpt lat="42.413460" lon="2.486275">
        <ele>999.232</ele>
        <time>2021-05-28T08:42:16Z</time>
      </trkpt>
      <trkpt lat="42.413467" lon="2.486302">
        <ele>999.397</ele>
        <time>2021-05-28T08:42:18Z</time>
      </trkpt>
      <trkpt lat="42.413482" lon="2.486326">
        <ele>999.744</ele>
        <time>2021-05-28T08:42:20Z</time>
      </trkpt>
      <trkpt lat="42.413496" lon="2.486349">
        <ele>1000.112</ele>
        <time>2021-05-28T08:42:22Z</time>
      </trkpt>
      <trkpt lat="42.413508" lon="2.486376">
        <ele>1000.463</ele>
        <time>2021-05-28T08:42:24Z</time>
      </trkpt>
      <trkpt lat="42.413519" lon="2.486403">
        <ele>1000.344</ele>
        <time>2021-05-28T08:42:26Z</time>
      </trkpt>
      <trkpt lat="42.413532" lon="2.486429">
        <ele>1000.218</ele>
        <time>2021-05-28T08:42:28Z</time>
      </trkpt>
      <trkpt lat="42.413548" lon="2.486445">
        <ele>1000.408</ele>
        <time>2021-05-28T08:42:30Z</time>
      </trkpt>
      <trkpt lat="42.413566" lon="2.486436">
        <ele>1001.213</ele>
        <time>2021-05-28T08:42:33Z</time>
      </trkpt>
      <trkpt lat="42.413582" lon="2.486408">
        <ele>1002.510</ele>
        <time>2021-05-28T08:42:36Z</time>
      </trkpt>
      <trkpt lat="42.413588" lon="2.486373">
        <ele>1003.331</ele>
        <time>2021-05-28T08:42:39Z</time>
      </trkpt>
      <trkpt lat="42.413599" lon="2.486350">
        <ele>1003.890</ele>
        <time>2021-05-28T08:42:41Z</time>
      </trkpt>
      <trkpt lat="42.413611" lon="2.486328">
        <ele>1004.497</ele>
        <time>2021-05-28T08:42:43Z</time>
      </trkpt>
      <trkpt lat="42.413632" lon="2.486317">
        <ele>1005.452</ele>
        <time>2021-05-28T08:42:46Z</time>
      </trkpt>
      <trkpt lat="42.413650" lon="2.486325">
        <ele>1006.089</ele>
        <time>2021-05-28T08:42:48Z</time>
      </trkpt>
      <trkpt lat="42.413668" lon="2.486336">
        <ele>1006.767</ele>
        <time>2021-05-28T08:42:50Z</time>
      </trkpt>
      <trkpt lat="42.413685" lon="2.486347">
        <ele>1007.399</ele>
        <time>2021-05-28T08:42:53Z</time>
      </trkpt>
      <trkpt lat="42.413706" lon="2.486362">
        <ele>1008.007</ele>
        <time>2021-05-28T08:42:56Z</time>
      </trkpt>
      <trkpt lat="42.413717" lon="2.486382">
        <ele>1008.327</ele>
        <time>2021-05-28T08:42:59Z</time>
      </trkpt>
      <trkpt lat="42.413737" lon="2.486389">
        <ele>1009.008</ele>
        <time>2021-05-28T08:43:02Z</time>
      </trkpt>
      <trkpt lat="42.413751" lon="2.486408">
        <ele>1009.136</ele>
        <time>2021-05-28T08:43:05Z</time>
      </trkpt>
      <trkpt lat="42.413757" lon="2.486434">
        <ele>1008.683</ele>
        <time>2021-05-28T08:43:07Z</time>
      </trkpt>
      <trkpt lat="42.413771" lon="2.486457">
        <ele>1008.674</ele>
        <time>2021-05-28T08:43:09Z</time>
      </trkpt>
      <trkpt lat="42.413785" lon="2.486475">
        <ele>1008.773</ele>
        <time>2021-05-28T08:43:11Z</time>
      </trkpt>
      <trkpt lat="42.413808" lon="2.486487">
        <ele>1009.360</ele>
        <time>2021-05-28T08:43:14Z</time>
      </trkpt>
      <trkpt lat="42.413831" lon="2.486497">
        <ele>1010.095</ele>
        <time>2021-05-28T08:43:17Z</time>
      </trkpt>
      <trkpt lat="42.413854" lon="2.486509">
        <ele>1010.622</ele>
        <time>2021-05-28T08:43:20Z</time>
      </trkpt>
      <trkpt lat="42.413876" lon="2.486517">
        <ele>1011.370</ele>
        <time>2021-05-28T08:43:23Z</time>
      </trkpt>
      <trkpt lat="42.413901" lon="2.486522">
        <ele>1012.127</ele>
        <time>2021-05-28T08:43:27Z</time>
      </trkpt>
      <trkpt lat="42.413924" lon="2.486526">
        <ele>1013.068</ele>
        <time>2021-05-28T08:43:30Z</time>
      </trkpt>
      <trkpt lat="42.413948" lon="2.486540">
        <ele>1013.614</ele>
        <time>2021-05-28T08:43:33Z</time>
      </trkpt>
      <trkpt lat="42.413969" lon="2.486559">
        <ele>1014.008</ele>
        <time>2021-05-28T08:43:36Z</time>
      </trkpt>
      <trkpt lat="42.413984" lon="2.486574">
        <ele>1014.259</ele>
        <time>2021-05-28T08:43:38Z</time>
      </trkpt>
      <trkpt lat="42.414007" lon="2.486578">
        <ele>1015.096</ele>
        <time>2021-05-28T08:43:41Z</time>
      </trkpt>
      <trkpt lat="42.414025" lon="2.486573">
        <ele>1015.967</ele>
        <time>2021-05-28T08:43:44Z</time>
      </trkpt>
      <trkpt lat="42.414045" lon="2.486569">
        <ele>1016.896</ele>
        <time>2021-05-28T08:43:47Z</time>
      </trkpt>
      <trkpt lat="42.414066" lon="2.486551">
        <ele>1018.293</ele>
        <time>2021-05-28T08:43:50Z</time>
      </trkpt>
      <trkpt lat="42.414087" lon="2.486550">
        <ele>1019.178</ele>
        <time>2021-05-28T08:43:54Z</time>
      </trkpt>
      <trkpt lat="42.414104" lon="2.486563">
        <ele>1019.465</ele>
        <time>2021-05-28T08:43:57Z</time>
      </trkpt>
      <trkpt lat="42.414121" lon="2.486588">
        <ele>1019.483</ele>
        <time>2021-05-28T08:44:00Z</time>
      </trkpt>
      <trkpt lat="42.414140" lon="2.486599">
        <ele>1019.943</ele>
        <time>2021-05-28T08:44:02Z</time>
      </trkpt>
      <trkpt lat="42.414157" lon="2.486609">
        <ele>1020.364</ele>
        <time>2021-05-28T08:44:04Z</time>
      </trkpt>
      <trkpt lat="42.414180" lon="2.486627">
        <ele>1020.810</ele>
        <time>2021-05-28T08:44:07Z</time>
      </trkpt>
      <trkpt lat="42.414197" lon="2.486644">
        <ele>1021.108</ele>
        <time>2021-05-28T08:44:09Z</time>
      </trkpt>
      <trkpt lat="42.414215" lon="2.486658">
        <ele>1021.511</ele>
        <time>2021-05-28T08:44:11Z</time>
      </trkpt>
      <trkpt lat="42.414232" lon="2.486669">
        <ele>1022.028</ele>
        <time>2021-05-28T08:44:13Z</time>
      </trkpt>
      <trkpt lat="42.414250" lon="2.486682">
        <ele>1022.349</ele>
        <time>2021-05-28T08:44:16Z</time>
      </trkpt>
      <trkpt lat="42.414270" lon="2.486706">
        <ele>1022.428</ele>
        <time>2021-05-28T08:44:19Z</time>
      </trkpt>
      <trkpt lat="42.414283" lon="2.486729">
        <ele>1022.145</ele>
        <time>2021-05-28T08:44:21Z</time>
      </trkpt>
      <trkpt lat="42.414298" lon="2.486743">
        <ele>1022.320</ele>
        <time>2021-05-28T08:44:23Z</time>
      </trkpt>
      <trkpt lat="42.414320" lon="2.486755">
        <ele>1022.867</ele>
        <time>2021-05-28T08:44:27Z</time>
      </trkpt>
      <trkpt lat="42.414344" lon="2.486770">
        <ele>1023.365</ele>
        <time>2021-05-28T08:44:30Z</time>
      </trkpt>
      <trkpt lat="42.414364" lon="2.486788">
        <ele>1023.697</ele>
        <time>2021-05-28T08:44:32Z</time>
      </trkpt>
      <trkpt lat="42.414384" lon="2.486801">
        <ele>1024.023</ele>
        <time>2021-05-28T08:44:34Z</time>
      </trkpt>
      <trkpt lat="42.414401" lon="2.486822">
        <ele>1023.925</ele>
        <time>2021-05-28T08:44:37Z</time>
      </trkpt>
      <trkpt lat="42.414422" lon="2.486843">
        <ele>1024.008</ele>
        <time>2021-05-28T08:44:40Z</time>
      </trkpt>
      <trkpt lat="42.414446" lon="2.486865">
        <ele>1024.286</ele>
        <time>2021-05-28T08:44:43Z</time>
      </trkpt>
      <trkpt lat="42.414464" lon="2.486880">
        <ele>1024.693</ele>
        <time>2021-05-28T08:44:45Z</time>
      </trkpt>
      <trkpt lat="42.414481" lon="2.486893">
        <ele>1025.074</ele>
        <time>2021-05-28T08:44:47Z</time>
      </trkpt>
      <trkpt lat="42.414496" lon="2.486914">
        <ele>1024.983</ele>
        <time>2021-05-28T08:44:49Z</time>
      </trkpt>
      <trkpt lat="42.414514" lon="2.486934">
        <ele>1025.250</ele>
        <time>2021-05-28T08:44:51Z</time>
      </trkpt>
      <trkpt lat="42.414528" lon="2.486952">
        <ele>1025.215</ele>
        <time>2021-05-28T08:44:53Z</time>
      </trkpt>
      <trkpt lat="42.414545" lon="2.486968">
        <ele>1025.512</ele>
        <time>2021-05-28T08:44:55Z</time>
      </trkpt>
      <trkpt lat="42.414563" lon="2.486979">
        <ele>1026.040</ele>
        <time>2021-05-28T08:44:57Z</time>
      </trkpt>
      <trkpt lat="42.414585" lon="2.486996">
        <ele>1026.626</ele>
        <time>2021-05-28T08:44:59Z</time>
      </trkpt>
      <trkpt lat="42.414608" lon="2.487013">
        <ele>1027.247</ele>
        <time>2021-05-28T08:45:01Z</time>
      </trkpt>
      <trkpt lat="42.414624" lon="2.487026">
        <ele>1027.611</ele>
        <time>2021-05-28T08:45:03Z</time>
      </trkpt>
      <trkpt lat="42.414646" lon="2.487045">
        <ele>1028.108</ele>
        <time>2021-05-28T08:45:06Z</time>
      </trkpt>
      <trkpt lat="42.414663" lon="2.487065">
        <ele>1028.349</ele>
        <time>2021-05-28T08:45:08Z</time>
      </trkpt>
      <trkpt lat="42.414690" lon="2.487096">
        <ele>1028.726</ele>
        <time>2021-05-28T08:45:11Z</time>
      </trkpt>
      <trkpt lat="42.414707" lon="2.487118">
        <ele>1028.977</ele>
        <time>2021-05-28T08:45:13Z</time>
      </trkpt>
      <trkpt lat="42.414733" lon="2.487126">
        <ele>1030.156</ele>
        <time>2021-05-28T08:45:18Z</time>
      </trkpt>
      <trkpt lat="42.414758" lon="2.487138">
        <ele>1031.183</ele>
        <time>2021-05-28T08:45:21Z</time>
      </trkpt>
      <trkpt lat="42.414774" lon="2.487158">
        <ele>1031.328</ele>
        <time>2021-05-28T08:45:24Z</time>
      </trkpt>
      <trkpt lat="42.414799" lon="2.487156">
        <ele>1032.735</ele>
        <time>2021-05-28T08:45:26Z</time>
      </trkpt>
      <trkpt lat="42.414851" lon="2.487097">
        <ele>1037.793</ele>
        <time>2021-05-28T08:45:37Z</time>
      </trkpt>
      <trkpt lat="42.414867" lon="2.487074">
        <ele>1039.479</ele>
        <time>2021-05-28T08:45:40Z</time>
      </trkpt>
      <trkpt lat="42.414885" lon="2.487085">
        <ele>1040.005</ele>
        <time>2021-05-28T08:45:43Z</time>
      </trkpt>
      <trkpt lat="42.414903" lon="2.487103">
        <ele>1040.425</ele>
        <time>2021-05-28T08:45:49Z</time>
      </trkpt>
      <trkpt lat="42.414921" lon="2.487112">
        <ele>1041.108</ele>
        <time>2021-05-28T08:45:52Z</time>
      </trkpt>
      <trkpt lat="42.414941" lon="2.487123">
        <ele>1041.914</ele>
        <time>2021-05-28T08:45:55Z</time>
      </trkpt>
      <trkpt lat="42.414960" lon="2.487138">
        <ele>1042.511</ele>
        <time>2021-05-28T08:45:59Z</time>
      </trkpt>
      <trkpt lat="42.414968" lon="2.487160">
        <ele>1042.272</ele>
        <time>2021-05-28T08:46:03Z</time>
      </trkpt>
      <trkpt lat="42.414986" lon="2.487167">
        <ele>1043.041</ele>
        <time>2021-05-28T08:46:06Z</time>
      </trkpt>
      <trkpt lat="42.415005" lon="2.487172">
        <ele>1043.918</ele>
        <time>2021-05-28T08:46:09Z</time>
      </trkpt>
      <trkpt lat="42.415037" lon="2.487195">
        <ele>1045.023</ele>
        <time>2021-05-28T08:46:15Z</time>
      </trkpt>
      <trkpt lat="42.415054" lon="2.487205">
        <ele>1045.750</ele>
        <time>2021-05-28T08:46:17Z</time>
      </trkpt>
      <trkpt lat="42.415082" lon="2.487202">
        <ele>1047.498</ele>
        <time>2021-05-28T08:46:20Z</time>
      </trkpt>
      <trkpt lat="42.415109" lon="2.487199">
        <ele>1049.062</ele>
        <time>2021-05-28T08:46:25Z</time>
      </trkpt>
      <trkpt lat="42.415132" lon="2.487204">
        <ele>1050.283</ele>
        <time>2021-05-28T08:46:30Z</time>
      </trkpt>
      <trkpt lat="42.415164" lon="2.487241">
        <ele>1050.911</ele>
        <time>2021-05-28T08:46:34Z</time>
      </trkpt>
      <trkpt lat="42.415178" lon="2.487264">
        <ele>1051.108</ele>
        <time>2021-05-28T08:46:36Z</time>
      </trkpt>
      <trkpt lat="42.415197" lon="2.487309">
        <ele>1050.913</ele>
        <time>2021-05-28T08:46:40Z</time>
      </trkpt>
      <trkpt lat="42.415234" lon="2.487425">
        <ele>1049.820</ele>
        <time>2021-05-28T08:46:50Z</time>
      </trkpt>
      <trkpt lat="42.415281" lon="2.487536">
        <ele>1049.781</ele>
        <time>2021-05-28T08:46:59Z</time>
      </trkpt>
      <trkpt lat="42.415287" lon="2.487576">
        <ele>1049.590</ele>
        <time>2021-05-28T08:47:03Z</time>
      </trkpt>
      <trkpt lat="42.415297" lon="2.487621">
        <ele>1049.597</ele>
        <time>2021-05-28T08:47:07Z</time>
      </trkpt>
      <trkpt lat="42.415306" lon="2.487645">
        <ele>1049.782</ele>
        <time>2021-05-28T08:47:09Z</time>
      </trkpt>
      <trkpt lat="42.415313" lon="2.487669">
        <ele>1049.999</ele>
        <time>2021-05-28T08:47:11Z</time>
      </trkpt>
      <trkpt lat="42.415313" lon="2.487701">
        <ele>1049.487</ele>
        <time>2021-05-28T08:47:13Z</time>
      </trkpt>
      <trkpt lat="42.415310" lon="2.487731">
        <ele>1048.828</ele>
        <time>2021-05-28T08:47:15Z</time>
      </trkpt>
      <trkpt lat="42.415315" lon="2.487761">
        <ele>1048.889</ele>
        <time>2021-05-28T08:47:17Z</time>
      </trkpt>
      <trkpt lat="42.415326" lon="2.487781">
        <ele>1049.417</ele>
        <time>2021-05-28T08:47:19Z</time>
      </trkpt>
      <trkpt lat="42.415341" lon="2.487853">
        <ele>1051.608</ele>
        <time>2021-05-28T08:47:26Z</time>
      </trkpt>
      <trkpt lat="42.415350" lon="2.487884">
        <ele>1052.789</ele>
        <time>2021-05-28T08:47:28Z</time>
      </trkpt>
      <trkpt lat="42.415358" lon="2.487915">
        <ele>1053.786</ele>
        <time>2021-05-28T08:47:31Z</time>
      </trkpt>
      <trkpt lat="42.415361" lon="2.487961">
        <ele>1054.717</ele>
        <time>2021-05-28T08:47:35Z</time>
      </trkpt>
      <trkpt lat="42.415383" lon="2.488031">
        <ele>1056.946</ele>
        <time>2021-05-28T08:47:44Z</time>
      </trkpt>
      <trkpt lat="42.415379" lon="2.488065">
        <ele>1057.413</ele>
        <time>2021-05-28T08:47:46Z</time>
      </trkpt>
      <trkpt lat="42.415376" lon="2.488095">
        <ele>1058.358</ele>
        <time>2021-05-28T08:47:48Z</time>
      </trkpt>
      <trkpt lat="42.415286" lon="2.488127">
        <ele>1055.285</ele>
        <time>2021-05-28T08:48:00Z</time>
      </trkpt>
      <trkpt lat="42.415270" lon="2.488155">
        <ele>1055.723</ele>
        <time>2021-05-28T08:48:03Z</time>
      </trkpt>
      <trkpt lat="42.415255" lon="2.488171">
        <ele>1055.842</ele>
        <time>2021-05-28T08:48:05Z</time>
      </trkpt>
      <trkpt lat="42.415239" lon="2.488194">
        <ele>1056.222</ele>
        <time>2021-05-28T08:48:07Z</time>
      </trkpt>
      <trkpt lat="42.415226" lon="2.488216">
        <ele>1056.614</ele>
        <time>2021-05-28T08:48:09Z</time>
      </trkpt>
      <trkpt lat="42.415214" lon="2.488242">
        <ele>1057.208</ele>
        <time>2021-05-28T08:48:12Z</time>
      </trkpt>
      <trkpt lat="42.415200" lon="2.488266">
        <ele>1057.681</ele>
        <time>2021-05-28T08:48:13Z</time>
      </trkpt>
      <trkpt lat="42.415191" lon="2.488290">
        <ele>1058.228</ele>
        <time>2021-05-28T08:48:15Z</time>
      </trkpt>
      <trkpt lat="42.415182" lon="2.488316">
        <ele>1058.959</ele>
        <time>2021-05-28T08:48:17Z</time>
      </trkpt>
      <trkpt lat="42.415175" lon="2.488345">
        <ele>1059.798</ele>
        <time>2021-05-28T08:48:20Z</time>
      </trkpt>
      <trkpt lat="42.415154" lon="2.488378">
        <ele>1060.265</ele>
        <time>2021-05-28T08:48:24Z</time>
      </trkpt>
      <trkpt lat="42.415143" lon="2.488422">
        <ele>1061.510</ele>
        <time>2021-05-28T08:48:27Z</time>
      </trkpt>
      <trkpt lat="42.415138" lon="2.488452">
        <ele>1062.517</ele>
        <time>2021-05-28T08:48:30Z</time>
      </trkpt>
      <trkpt lat="42.415121" lon="2.488475">
        <ele>1062.715</ele>
        <time>2021-05-28T08:48:33Z</time>
      </trkpt>
      <trkpt lat="42.415112" lon="2.488502">
        <ele>1063.334</ele>
        <time>2021-05-28T08:48:36Z</time>
      </trkpt>
      <trkpt lat="42.415117" lon="2.488535">
        <ele>1064.855</ele>
        <time>2021-05-28T08:48:40Z</time>
      </trkpt>
      <trkpt lat="42.415119" lon="2.488566">
        <ele>1066.010</ele>
        <time>2021-05-28T08:48:43Z</time>
      </trkpt>
      <trkpt lat="42.415065" lon="2.488673">
        <ele>1067.608</ele>
        <time>2021-05-28T08:48:53Z</time>
      </trkpt>
      <trkpt lat="42.415055" lon="2.488702">
        <ele>1068.240</ele>
        <time>2021-05-28T08:48:57Z</time>
      </trkpt>
      <trkpt lat="42.415048" lon="2.488725">
        <ele>1068.797</ele>
        <time>2021-05-28T08:48:59Z</time>
      </trkpt>
      <trkpt lat="42.415044" lon="2.488750">
        <ele>1069.348</ele>
        <time>2021-05-28T08:49:01Z</time>
      </trkpt>
      <trkpt lat="42.415054" lon="2.488772">
        <ele>1070.517</ele>
        <time>2021-05-28T08:49:04Z</time>
      </trkpt>
      <trkpt lat="42.415073" lon="2.488766">
        <ele>1071.184</ele>
        <time>2021-05-28T08:49:07Z</time>
      </trkpt>
      <trkpt lat="42.415092" lon="2.488765">
        <ele>1071.889</ele>
        <time>2021-05-28T08:49:10Z</time>
      </trkpt>
      <trkpt lat="42.415114" lon="2.488762">
        <ele>1072.626</ele>
        <time>2021-05-28T08:49:13Z</time>
      </trkpt>
      <trkpt lat="42.415133" lon="2.488744">
        <ele>1072.874</ele>
        <time>2021-05-28T08:49:15Z</time>
      </trkpt>
      <trkpt lat="42.415164" lon="2.488714">
        <ele>1073.021</ele>
        <time>2021-05-28T08:49:18Z</time>
      </trkpt>
      <trkpt lat="42.415255" lon="2.488662">
        <ele>1074.941</ele>
        <time>2021-05-28T08:49:26Z</time>
      </trkpt>
      <trkpt lat="42.415356" lon="2.488629">
        <ele>1077.205</ele>
        <time>2021-05-28T08:49:35Z</time>
      </trkpt>
      <trkpt lat="42.415451" lon="2.488595">
        <ele>1079.008</ele>
        <time>2021-05-28T08:49:43Z</time>
      </trkpt>
      <trkpt lat="42.415542" lon="2.488570">
        <ele>1080.999</ele>
        <time>2021-05-28T08:49:55Z</time>
      </trkpt>
      <trkpt lat="42.415626" lon="2.488523">
        <ele>1081.126</ele>
        <time>2021-05-28T08:50:09Z</time>
      </trkpt>
      <trkpt lat="42.415716" lon="2.488528">
        <ele>1083.327</ele>
        <time>2021-05-28T08:50:20Z</time>
      </trkpt>
      <trkpt lat="42.415809" lon="2.488513">
        <ele>1084.986</ele>
        <time>2021-05-28T08:50:31Z</time>
      </trkpt>
      <trkpt lat="42.415903" lon="2.488504">
        <ele>1086.013</ele>
        <time>2021-05-28T08:50:40Z</time>
      </trkpt>
      <trkpt lat="42.415979" lon="2.488439">
        <ele>1085.338</ele>
        <time>2021-05-28T08:50:50Z</time>
      </trkpt>
      <trkpt lat="42.416029" lon="2.488441">
        <ele>1086.255</ele>
        <time>2021-05-28T08:50:58Z</time>
      </trkpt>
      <trkpt lat="42.416047" lon="2.488443">
        <ele>1086.523</ele>
        <time>2021-05-28T08:51:00Z</time>
      </trkpt>
      <trkpt lat="42.416060" lon="2.488463">
        <ele>1087.176</ele>
        <time>2021-05-28T08:51:03Z</time>
      </trkpt>
      <trkpt lat="42.416077" lon="2.488471">
        <ele>1087.590</ele>
        <time>2021-05-28T08:51:07Z</time>
      </trkpt>
      <trkpt lat="42.416097" lon="2.488481">
        <ele>1087.919</ele>
        <time>2021-05-28T08:51:10Z</time>
      </trkpt>
      <trkpt lat="42.416116" lon="2.488491">
        <ele>1088.408</ele>
        <time>2021-05-28T08:51:13Z</time>
      </trkpt>
      <trkpt lat="42.416138" lon="2.488510">
        <ele>1089.034</ele>
        <time>2021-05-28T08:51:16Z</time>
      </trkpt>
      <trkpt lat="42.416154" lon="2.488523">
        <ele>1089.491</ele>
        <time>2021-05-28T08:51:18Z</time>
      </trkpt>
      <trkpt lat="42.416176" lon="2.488535">
        <ele>1089.982</ele>
        <time>2021-05-28T08:51:22Z</time>
      </trkpt>
      <trkpt lat="42.416195" lon="2.488544">
        <ele>1090.221</ele>
        <time>2021-05-28T08:51:24Z</time>
      </trkpt>
      <trkpt lat="42.416212" lon="2.488556">
        <ele>1090.698</ele>
        <time>2021-05-28T08:51:26Z</time>
      </trkpt>
      <trkpt lat="42.416231" lon="2.488568">
        <ele>1090.943</ele>
        <time>2021-05-28T08:51:29Z</time>
      </trkpt>
      <trkpt lat="42.416249" lon="2.488585">
        <ele>1091.330</ele>
        <time>2021-05-28T08:51:32Z</time>
      </trkpt>
      <trkpt lat="42.416269" lon="2.488602">
        <ele>1091.618</ele>
        <time>2021-05-28T08:51:35Z</time>
      </trkpt>
      <trkpt lat="42.416288" lon="2.488625">
        <ele>1092.281</ele>
        <time>2021-05-28T08:51:38Z</time>
      </trkpt>
      <trkpt lat="42.416302" lon="2.488643">
        <ele>1092.661</ele>
        <time>2021-05-28T08:51:40Z</time>
      </trkpt>
      <trkpt lat="42.416324" lon="2.488663">
        <ele>1093.217</ele>
        <time>2021-05-28T08:51:43Z</time>
      </trkpt>
      <trkpt lat="42.416344" lon="2.488686">
        <ele>1093.708</ele>
        <time>2021-05-28T08:51:46Z</time>
      </trkpt>
      <trkpt lat="42.416359" lon="2.488701">
        <ele>1094.125</ele>
        <time>2021-05-28T08:51:48Z</time>
      </trkpt>
      <trkpt lat="42.416381" lon="2.488719">
        <ele>1094.552</ele>
        <time>2021-05-28T08:51:51Z</time>
      </trkpt>
      <trkpt lat="42.416399" lon="2.488731">
        <ele>1094.973</ele>
        <time>2021-05-28T08:51:53Z</time>
      </trkpt>
      <trkpt lat="42.416419" lon="2.488749">
        <ele>1095.692</ele>
        <time>2021-05-28T08:51:56Z</time>
      </trkpt>
      <trkpt lat="42.416439" lon="2.488765">
        <ele>1096.259</ele>
        <time>2021-05-28T08:51:59Z</time>
      </trkpt>
      <trkpt lat="42.416456" lon="2.488781">
        <ele>1096.774</ele>
        <time>2021-05-28T08:52:02Z</time>
      </trkpt>
      <trkpt lat="42.416475" lon="2.488791">
        <ele>1097.241</ele>
        <time>2021-05-28T08:52:08Z</time>
      </trkpt>
      <trkpt lat="42.416489" lon="2.488809">
        <ele>1097.629</ele>
        <time>2021-05-28T08:52:11Z</time>
      </trkpt>
      <trkpt lat="42.416514" lon="2.488824">
        <ele>1098.274</ele>
        <time>2021-05-28T08:52:14Z</time>
      </trkpt>
      <trkpt lat="42.416541" lon="2.488833">
        <ele>1098.756</ele>
        <time>2021-05-28T08:52:17Z</time>
      </trkpt>
      <trkpt lat="42.416557" lon="2.488843">
        <ele>1099.121</ele>
        <time>2021-05-28T08:52:19Z</time>
      </trkpt>
      <trkpt lat="42.416574" lon="2.488856">
        <ele>1099.408</ele>
        <time>2021-05-28T08:52:21Z</time>
      </trkpt>
      <trkpt lat="42.416595" lon="2.488870">
        <ele>1099.814</ele>
        <time>2021-05-28T08:52:23Z</time>
      </trkpt>
      <trkpt lat="42.416613" lon="2.488886">
        <ele>1100.241</ele>
        <time>2021-05-28T08:52:25Z</time>
      </trkpt>
      <trkpt lat="42.416632" lon="2.488906">
        <ele>1100.652</ele>
        <time>2021-05-28T08:52:28Z</time>
      </trkpt>
      <trkpt lat="42.416647" lon="2.488926">
        <ele>1101.061</ele>
        <time>2021-05-28T08:52:29Z</time>
      </trkpt>
      <trkpt lat="42.416666" lon="2.488937">
        <ele>1101.398</ele>
        <time>2021-05-28T08:52:31Z</time>
      </trkpt>
      <trkpt lat="42.416683" lon="2.488949">
        <ele>1101.673</ele>
        <time>2021-05-28T08:52:33Z</time>
      </trkpt>
      <trkpt lat="42.416701" lon="2.488959">
        <ele>1101.980</ele>
        <time>2021-05-28T08:52:35Z</time>
      </trkpt>
      <trkpt lat="42.416721" lon="2.488970">
        <ele>1102.278</ele>
        <time>2021-05-28T08:52:37Z</time>
      </trkpt>
      <trkpt lat="42.416741" lon="2.488980">
        <ele>1102.595</ele>
        <time>2021-05-28T08:52:39Z</time>
      </trkpt>
      <trkpt lat="42.416757" lon="2.488997">
        <ele>1102.749</ele>
        <time>2021-05-28T08:52:41Z</time>
      </trkpt>
      <trkpt lat="42.416772" lon="2.489017">
        <ele>1102.923</ele>
        <time>2021-05-28T08:52:43Z</time>
      </trkpt>
      <trkpt lat="42.416786" lon="2.489032">
        <ele>1103.108</ele>
        <time>2021-05-28T08:52:45Z</time>
      </trkpt>
      <trkpt lat="42.416805" lon="2.489055">
        <ele>1103.366</ele>
        <time>2021-05-28T08:52:48Z</time>
      </trkpt>
      <trkpt lat="42.416821" lon="2.489071">
        <ele>1103.463</ele>
        <time>2021-05-28T08:52:50Z</time>
      </trkpt>
      <trkpt lat="42.416835" lon="2.489095">
        <ele>1103.624</ele>
        <time>2021-05-28T08:52:52Z</time>
      </trkpt>
      <trkpt lat="42.416850" lon="2.489112">
        <ele>1103.773</ele>
        <time>2021-05-28T08:52:54Z</time>
      </trkpt>
      <trkpt lat="42.416868" lon="2.489139">
        <ele>1103.710</ele>
        <time>2021-05-28T08:52:57Z</time>
      </trkpt>
      <trkpt lat="42.416884" lon="2.489156">
        <ele>1103.885</ele>
        <time>2021-05-28T08:52:59Z</time>
      </trkpt>
      <trkpt lat="42.416900" lon="2.489177">
        <ele>1103.912</ele>
        <time>2021-05-28T08:53:01Z</time>
      </trkpt>
      <trkpt lat="42.416916" lon="2.489197">
        <ele>1104.040</ele>
        <time>2021-05-28T08:53:03Z</time>
      </trkpt>
      <trkpt lat="42.416935" lon="2.489206">
        <ele>1104.192</ele>
        <time>2021-05-28T08:53:05Z</time>
      </trkpt>
      <trkpt lat="42.416954" lon="2.489212">
        <ele>1104.273</ele>
        <time>2021-05-28T08:53:07Z</time>
      </trkpt>
      <trkpt lat="42.416973" lon="2.489221">
        <ele>1104.220</ele>
        <time>2021-05-28T08:53:09Z</time>
      </trkpt>
      <trkpt lat="42.416994" lon="2.489230">
        <ele>1104.308</ele>
        <time>2021-05-28T08:53:11Z</time>
      </trkpt>
      <trkpt lat="42.417014" lon="2.489242">
        <ele>1104.376</ele>
        <time>2021-05-28T08:53:13Z</time>
      </trkpt>
      <trkpt lat="42.417034" lon="2.489246">
        <ele>1104.333</ele>
        <time>2021-05-28T08:53:15Z</time>
      </trkpt>
      <trkpt lat="42.417056" lon="2.489246">
        <ele>1104.314</ele>
        <time>2021-05-28T08:53:17Z</time>
      </trkpt>
      <trkpt lat="42.417077" lon="2.489250">
        <ele>1104.393</ele>
        <time>2021-05-28T08:53:19Z</time>
      </trkpt>
      <trkpt lat="42.417095" lon="2.489267">
        <ele>1104.380</ele>
        <time>2021-05-28T08:53:21Z</time>
      </trkpt>
      <trkpt lat="42.417109" lon="2.489287">
        <ele>1104.325</ele>
        <time>2021-05-28T08:53:23Z</time>
      </trkpt>
      <trkpt lat="42.417133" lon="2.489300">
        <ele>1104.232</ele>
        <time>2021-05-28T08:53:25Z</time>
      </trkpt>
      <trkpt lat="42.417158" lon="2.489305">
        <ele>1104.130</ele>
        <time>2021-05-28T08:53:27Z</time>
      </trkpt>
      <trkpt lat="42.417187" lon="2.489304">
        <ele>1104.191</ele>
        <time>2021-05-28T08:53:29Z</time>
      </trkpt>
      <trkpt lat="42.417213" lon="2.489293">
        <ele>1104.181</ele>
        <time>2021-05-28T08:53:31Z</time>
      </trkpt>
      <trkpt lat="42.417238" lon="2.489283">
        <ele>1103.919</ele>
        <time>2021-05-28T08:53:33Z</time>
      </trkpt>
      <trkpt lat="42.417264" lon="2.489273">
        <ele>1103.508</ele>
        <time>2021-05-28T08:53:35Z</time>
      </trkpt>
      <trkpt lat="42.417290" lon="2.489261">
        <ele>1103.226</ele>
        <time>2021-05-28T08:53:37Z</time>
      </trkpt>
      <trkpt lat="42.417324" lon="2.489244">
        <ele>1102.893</ele>
        <time>2021-05-28T08:53:39Z</time>
      </trkpt>
      <trkpt lat="42.417343" lon="2.489233">
        <ele>1102.674</ele>
        <time>2021-05-28T08:53:40Z</time>
      </trkpt>
      <trkpt lat="42.417359" lon="2.489219">
        <ele>1102.523</ele>
        <time>2021-05-28T08:53:41Z</time>
      </trkpt>
      <trkpt lat="42.417375" lon="2.489202">
        <ele>1102.450</ele>
        <time>2021-05-28T08:53:42Z</time>
      </trkpt>
      <trkpt lat="42.417391" lon="2.489186">
        <ele>1102.385</ele>
        <time>2021-05-28T08:53:43Z</time>
      </trkpt>
      <trkpt lat="42.417406" lon="2.489172">
        <ele>1102.352</ele>
        <time>2021-05-28T08:53:44Z</time>
      </trkpt>
      <trkpt lat="42.417419" lon="2.489152">
        <ele>1102.350</ele>
        <time>2021-05-28T08:53:45Z</time>
      </trkpt>
      <trkpt lat="42.417432" lon="2.489132">
        <ele>1102.484</ele>
        <time>2021-05-28T08:53:46Z</time>
      </trkpt>
      <trkpt lat="42.417444" lon="2.489113">
        <ele>1102.507</ele>
        <time>2021-05-28T08:53:47Z</time>
      </trkpt>
      <trkpt lat="42.417457" lon="2.489094">
        <ele>1102.617</ele>
        <time>2021-05-28T08:53:48Z</time>
      </trkpt>
      <trkpt lat="42.417470" lon="2.489075">
        <ele>1102.708</ele>
        <time>2021-05-28T08:53:49Z</time>
      </trkpt>
      <trkpt lat="42.417492" lon="2.489042">
        <ele>1102.925</ele>
        <time>2021-05-28T08:53:51Z</time>
      </trkpt>
      <trkpt lat="42.417511" lon="2.489009">
        <ele>1103.022</ele>
        <time>2021-05-28T08:53:53Z</time>
      </trkpt>
      <trkpt lat="42.417535" lon="2.488972">
        <ele>1103.183</ele>
        <time>2021-05-28T08:53:55Z</time>
      </trkpt>
      <trkpt lat="42.417549" lon="2.488951">
        <ele>1103.142</ele>
        <time>2021-05-28T08:53:56Z</time>
      </trkpt>
      <trkpt lat="42.417563" lon="2.488933">
        <ele>1103.269</ele>
        <time>2021-05-28T08:53:57Z</time>
      </trkpt>
      <trkpt lat="42.417576" lon="2.488914">
        <ele>1103.224</ele>
        <time>2021-05-28T08:53:58Z</time>
      </trkpt>
      <trkpt lat="42.417591" lon="2.488896">
        <ele>1103.251</ele>
        <time>2021-05-28T08:53:59Z</time>
      </trkpt>
      <trkpt lat="42.417605" lon="2.488879">
        <ele>1103.379</ele>
        <time>2021-05-28T08:54:00Z</time>
      </trkpt>
      <trkpt lat="42.417621" lon="2.488861">
        <ele>1103.362</ele>
        <time>2021-05-28T08:54:01Z</time>
      </trkpt>
      <trkpt lat="42.417636" lon="2.488844">
        <ele>1103.483</ele>
        <time>2021-05-28T08:54:02Z</time>
      </trkpt>
      <trkpt lat="42.417668" lon="2.488817">
        <ele>1103.311</ele>
        <time>2021-05-28T08:54:04Z</time>
      </trkpt>
      <trkpt lat="42.417686" lon="2.488802">
        <ele>1103.308</ele>
        <time>2021-05-28T08:54:05Z</time>
      </trkpt>
      <trkpt lat="42.417703" lon="2.488788">
        <ele>1103.323</ele>
        <time>2021-05-28T08:54:06Z</time>
      </trkpt>
      <trkpt lat="42.417720" lon="2.488775">
        <ele>1103.330</ele>
        <time>2021-05-28T08:54:07Z</time>
      </trkpt>
      <trkpt lat="42.417739" lon="2.488760">
        <ele>1103.481</ele>
        <time>2021-05-28T08:54:08Z</time>
      </trkpt>
      <trkpt lat="42.417760" lon="2.488745">
        <ele>1103.450</ele>
        <time>2021-05-28T08:54:09Z</time>
      </trkpt>
      <trkpt lat="42.417778" lon="2.488731">
        <ele>1103.427</ele>
        <time>2021-05-28T08:54:10Z</time>
      </trkpt>
      <trkpt lat="42.417796" lon="2.488715">
        <ele>1103.792</ele>
        <time>2021-05-28T08:54:11Z</time>
      </trkpt>
      <trkpt lat="42.417815" lon="2.488701">
        <ele>1104.039</ele>
        <time>2021-05-28T08:54:12Z</time>
      </trkpt>
      <trkpt lat="42.417833" lon="2.488688">
        <ele>1104.367</ele>
        <time>2021-05-28T08:54:13Z</time>
      </trkpt>
      <trkpt lat="42.417850" lon="2.488675">
        <ele>1104.636</ele>
        <time>2021-05-28T08:54:14Z</time>
      </trkpt>
      <trkpt lat="42.417868" lon="2.488661">
        <ele>1104.917</ele>
        <time>2021-05-28T08:54:15Z</time>
      </trkpt>
      <trkpt lat="42.417887" lon="2.488648">
        <ele>1105.218</ele>
        <time>2021-05-28T08:54:16Z</time>
      </trkpt>
      <trkpt lat="42.417919" lon="2.488627">
        <ele>1105.608</ele>
        <time>2021-05-28T08:54:18Z</time>
      </trkpt>
      <trkpt lat="42.417936" lon="2.488616">
        <ele>1105.940</ele>
        <time>2021-05-28T08:54:19Z</time>
      </trkpt>
      <trkpt lat="42.417966" lon="2.488594">
        <ele>1106.317</ele>
        <time>2021-05-28T08:54:21Z</time>
      </trkpt>
      <trkpt lat="42.417990" lon="2.488577">
        <ele>1106.778</ele>
        <time>2021-05-28T08:54:23Z</time>
      </trkpt>
      <trkpt lat="42.418008" lon="2.488566">
        <ele>1106.927</ele>
        <time>2021-05-28T08:54:25Z</time>
      </trkpt>
      <trkpt lat="42.418035" lon="2.488561">
        <ele>1107.134</ele>
        <time>2021-05-28T08:54:27Z</time>
      </trkpt>
      <trkpt lat="42.418058" lon="2.488557">
        <ele>1107.279</ele>
        <time>2021-05-28T08:54:29Z</time>
      </trkpt>
      <trkpt lat="42.418084" lon="2.488563">
        <ele>1107.526</ele>
        <time>2021-05-28T08:54:31Z</time>
      </trkpt>
      <trkpt lat="42.418103" lon="2.488580">
        <ele>1107.564</ele>
        <time>2021-05-28T08:54:34Z</time>
      </trkpt>
      <trkpt lat="42.418126" lon="2.488572">
        <ele>1108.057</ele>
        <time>2021-05-28T08:54:39Z</time>
      </trkpt>
      <trkpt lat="42.418143" lon="2.488552">
        <ele>1108.700</ele>
        <time>2021-05-28T08:54:46Z</time>
      </trkpt>
      <trkpt lat="42.418174" lon="2.488565">
        <ele>1109.020</ele>
        <time>2021-05-28T08:54:49Z</time>
      </trkpt>
      <trkpt lat="42.418205" lon="2.488585">
        <ele>1109.208</ele>
        <time>2021-05-28T08:54:52Z</time>
      </trkpt>
      <trkpt lat="42.418227" lon="2.488606">
        <ele>1109.212</ele>
        <time>2021-05-28T08:54:54Z</time>
      </trkpt>
      <trkpt lat="42.418249" lon="2.488628">
        <ele>1109.189</ele>
        <time>2021-05-28T08:54:56Z</time>
      </trkpt>
      <trkpt lat="42.418271" lon="2.488645">
        <ele>1109.120</ele>
        <time>2021-05-28T08:54:58Z</time>
      </trkpt>
      <trkpt lat="42.418296" lon="2.488661">
        <ele>1109.269</ele>
        <time>2021-05-28T08:55:00Z</time>
      </trkpt>
      <trkpt lat="42.418319" lon="2.488678">
        <ele>1109.386</ele>
        <time>2021-05-28T08:55:02Z</time>
      </trkpt>
      <trkpt lat="42.418346" lon="2.488701">
        <ele>1109.281</ele>
        <time>2021-05-28T08:55:04Z</time>
      </trkpt>
      <trkpt lat="42.418371" lon="2.488718">
        <ele>1109.018</ele>
        <time>2021-05-28T08:55:06Z</time>
      </trkpt>
      <trkpt lat="42.418396" lon="2.488727">
        <ele>1108.916</ele>
        <time>2021-05-28T08:55:08Z</time>
      </trkpt>
      <trkpt lat="42.418424" lon="2.488741">
        <ele>1108.822</ele>
        <time>2021-05-28T08:55:10Z</time>
      </trkpt>
      <trkpt lat="42.418451" lon="2.488749">
        <ele>1108.962</ele>
        <time>2021-05-28T08:55:12Z</time>
      </trkpt>
      <trkpt lat="42.418473" lon="2.488754">
        <ele>1108.908</ele>
        <time>2021-05-28T08:55:14Z</time>
      </trkpt>
      <trkpt lat="42.418494" lon="2.488759">
        <ele>1109.008</ele>
        <time>2021-05-28T08:55:16Z</time>
      </trkpt>
      <trkpt lat="42.418518" lon="2.488762">
        <ele>1109.169</ele>
        <time>2021-05-28T08:55:18Z</time>
      </trkpt>
      <trkpt lat="42.418539" lon="2.488761">
        <ele>1109.296</ele>
        <time>2021-05-28T08:55:20Z</time>
      </trkpt>
      <trkpt lat="42.418564" lon="2.488758">
        <ele>1109.577</ele>
        <time>2021-05-28T08:55:22Z</time>
      </trkpt>
      <trkpt lat="42.418590" lon="2.488755">
        <ele>1109.756</ele>
        <time>2021-05-28T08:55:24Z</time>
      </trkpt>
      <trkpt lat="42.418617" lon="2.488754">
        <ele>1109.923</ele>
        <time>2021-05-28T08:55:26Z</time>
      </trkpt>
      <trkpt lat="42.418649" lon="2.488744">
        <ele>1110.118</ele>
        <time>2021-05-28T08:55:28Z</time>
      </trkpt>
      <trkpt lat="42.418678" lon="2.488733">
        <ele>1110.365</ele>
        <time>2021-05-28T08:55:30Z</time>
      </trkpt>
      <trkpt lat="42.418706" lon="2.488720">
        <ele>1110.563</ele>
        <time>2021-05-28T08:55:32Z</time>
      </trkpt>
      <trkpt lat="42.418735" lon="2.488711">
        <ele>1110.715</ele>
        <time>2021-05-28T08:55:34Z</time>
      </trkpt>
      <trkpt lat="42.418768" lon="2.488700">
        <ele>1110.965</ele>
        <time>2021-05-28T08:55:36Z</time>
      </trkpt>
      <trkpt lat="42.418787" lon="2.488695">
        <ele>1111.011</ele>
        <time>2021-05-28T08:55:37Z</time>
      </trkpt>
      <trkpt lat="42.418815" lon="2.488688">
        <ele>1111.108</ele>
        <time>2021-05-28T08:55:39Z</time>
      </trkpt>
      <trkpt lat="42.418844" lon="2.488678">
        <ele>1111.498</ele>
        <time>2021-05-28T08:55:41Z</time>
      </trkpt>
      <trkpt lat="42.418867" lon="2.488668">
        <ele>1111.625</ele>
        <time>2021-05-28T08:55:43Z</time>
      </trkpt>
      <trkpt lat="42.418894" lon="2.488657">
        <ele>1111.866</ele>
        <time>2021-05-28T08:55:45Z</time>
      </trkpt>
      <trkpt lat="42.418915" lon="2.488652">
        <ele>1112.095</ele>
        <time>2021-05-28T08:55:47Z</time>
      </trkpt>
      <trkpt lat="42.418935" lon="2.488648">
        <ele>1112.072</ele>
        <time>2021-05-28T08:55:49Z</time>
      </trkpt>
      <trkpt lat="42.418962" lon="2.488643">
        <ele>1112.267</ele>
        <time>2021-05-28T08:55:51Z</time>
      </trkpt>
      <trkpt lat="42.418989" lon="2.488629">
        <ele>1112.534</ele>
        <time>2021-05-28T08:55:53Z</time>
      </trkpt>
      <trkpt lat="42.419012" lon="2.488619">
        <ele>1112.882</ele>
        <time>2021-05-28T08:55:55Z</time>
      </trkpt>
      <trkpt lat="42.419034" lon="2.488609">
        <ele>1113.146</ele>
        <time>2021-05-28T08:55:57Z</time>
      </trkpt>
      <trkpt lat="42.419054" lon="2.488598">
        <ele>1113.388</ele>
        <time>2021-05-28T08:55:59Z</time>
      </trkpt>
      <trkpt lat="42.419076" lon="2.488586">
        <ele>1113.616</ele>
        <time>2021-05-28T08:56:01Z</time>
      </trkpt>
      <trkpt lat="42.419096" lon="2.488572">
        <ele>1114.008</ele>
        <time>2021-05-28T08:56:03Z</time>
      </trkpt>
      <trkpt lat="42.419118" lon="2.488560">
        <ele>1114.311</ele>
        <time>2021-05-28T08:56:05Z</time>
      </trkpt>
      <trkpt lat="42.419142" lon="2.488548">
        <ele>1114.658</ele>
        <time>2021-05-28T08:56:07Z</time>
      </trkpt>
      <trkpt lat="42.419163" lon="2.488537">
        <ele>1114.989</ele>
        <time>2021-05-28T08:56:09Z</time>
      </trkpt>
      <trkpt lat="42.419186" lon="2.488526">
        <ele>1115.158</ele>
        <time>2021-05-28T08:56:11Z</time>
      </trkpt>
      <trkpt lat="42.419208" lon="2.488513">
        <ele>1115.375</ele>
        <time>2021-05-28T08:56:13Z</time>
      </trkpt>
      <trkpt lat="42.419233" lon="2.488500">
        <ele>1115.680</ele>
        <time>2021-05-28T08:56:15Z</time>
      </trkpt>
      <trkpt lat="42.419259" lon="2.488487">
        <ele>1115.867</ele>
        <time>2021-05-28T08:56:17Z</time>
      </trkpt>
      <trkpt lat="42.419282" lon="2.488475">
        <ele>1116.035</ele>
        <time>2021-05-28T08:56:19Z</time>
      </trkpt>
      <trkpt lat="42.419304" lon="2.488461">
        <ele>1116.326</ele>
        <time>2021-05-28T08:56:21Z</time>
      </trkpt>
      <trkpt lat="42.419323" lon="2.488448">
        <ele>1116.547</ele>
        <time>2021-05-28T08:56:23Z</time>
      </trkpt>
      <trkpt lat="42.419346" lon="2.488430">
        <ele>1116.911</ele>
        <time>2021-05-28T08:56:25Z</time>
      </trkpt>
      <trkpt lat="42.419365" lon="2.488415">
        <ele>1117.208</ele>
        <time>2021-05-28T08:56:27Z</time>
      </trkpt>
      <trkpt lat="42.419382" lon="2.488401">
        <ele>1117.539</ele>
        <time>2021-05-28T08:56:29Z</time>
      </trkpt>
      <trkpt lat="42.419408" lon="2.488385">
        <ele>1117.816</ele>
        <time>2021-05-28T08:56:31Z</time>
      </trkpt>
      <trkpt lat="42.419426" lon="2.488370">
        <ele>1118.177</ele>
        <time>2021-05-28T08:56:33Z</time>
      </trkpt>
      <trkpt lat="42.419451" lon="2.488349">
        <ele>1118.646</ele>
        <time>2021-05-28T08:56:36Z</time>
      </trkpt>
      <trkpt lat="42.419470" lon="2.488338">
        <ele>1118.823</ele>
        <time>2021-05-28T08:56:38Z</time>
      </trkpt>
      <trkpt lat="42.419494" lon="2.488319">
        <ele>1119.318</ele>
        <time>2021-05-28T08:56:41Z</time>
      </trkpt>
      <trkpt lat="42.419514" lon="2.488308">
        <ele>1119.525</ele>
        <time>2021-05-28T08:56:43Z</time>
      </trkpt>
      <trkpt lat="42.419534" lon="2.488295">
        <ele>1119.933</ele>
        <time>2021-05-28T08:56:45Z</time>
      </trkpt>
      <trkpt lat="42.419555" lon="2.488283">
        <ele>1120.227</ele>
        <time>2021-05-28T08:56:47Z</time>
      </trkpt>
      <trkpt lat="42.419576" lon="2.488270">
        <ele>1120.568</ele>
        <time>2021-05-28T08:56:49Z</time>
      </trkpt>
      <trkpt lat="42.419598" lon="2.488255">
        <ele>1120.814</ele>
        <time>2021-05-28T08:56:51Z</time>
      </trkpt>
      <trkpt lat="42.419623" lon="2.488241">
        <ele>1121.108</ele>
        <time>2021-05-28T08:56:54Z</time>
      </trkpt>
      <trkpt lat="42.419644" lon="2.488224">
        <ele>1121.549</ele>
        <time>2021-05-28T08:56:56Z</time>
      </trkpt>
      <trkpt lat="42.419668" lon="2.488215">
        <ele>1121.736</ele>
        <time>2021-05-28T08:56:58Z</time>
      </trkpt>
      <trkpt lat="42.419691" lon="2.488214">
        <ele>1121.637</ele>
        <time>2021-05-28T08:57:00Z</time>
      </trkpt>
      <trkpt lat="42.419710" lon="2.488202">
        <ele>1121.866</ele>
        <time>2021-05-28T08:57:02Z</time>
      </trkpt>
      <trkpt lat="42.419733" lon="2.488187">
        <ele>1122.273</ele>
        <time>2021-05-28T08:57:04Z</time>
      </trkpt>
      <trkpt lat="42.419750" lon="2.488170">
        <ele>1122.628</ele>
        <time>2021-05-28T08:57:06Z</time>
      </trkpt>
      <trkpt lat="42.419770" lon="2.488153">
        <ele>1123.015</ele>
        <time>2021-05-28T08:57:08Z</time>
      </trkpt>
      <trkpt lat="42.419790" lon="2.488139">
        <ele>1123.313</ele>
        <time>2021-05-28T08:57:10Z</time>
      </trkpt>
      <trkpt lat="42.419810" lon="2.488124">
        <ele>1123.624</ele>
        <time>2021-05-28T08:57:12Z</time>
      </trkpt>
      <trkpt lat="42.419832" lon="2.488113">
        <ele>1123.704</ele>
        <time>2021-05-28T08:57:14Z</time>
      </trkpt>
      <trkpt lat="42.419862" lon="2.488108">
        <ele>1123.714</ele>
        <time>2021-05-28T08:57:16Z</time>
      </trkpt>
      <trkpt lat="42.419888" lon="2.488105">
        <ele>1123.608</ele>
        <time>2021-05-28T08:57:18Z</time>
      </trkpt>
      <trkpt lat="42.419915" lon="2.488088">
        <ele>1123.869</ele>
        <time>2021-05-28T08:57:20Z</time>
      </trkpt>
      <trkpt lat="42.419936" lon="2.488083">
        <ele>1123.826</ele>
        <time>2021-05-28T08:57:22Z</time>
      </trkpt>
      <trkpt lat="42.419962" lon="2.488073">
        <ele>1123.987</ele>
        <time>2021-05-28T08:57:24Z</time>
      </trkpt>
      <trkpt lat="42.419982" lon="2.488060">
        <ele>1124.036</ele>
        <time>2021-05-28T08:57:26Z</time>
      </trkpt>
      <trkpt lat="42.420003" lon="2.488051">
        <ele>1124.133</ele>
        <time>2021-05-28T08:57:28Z</time>
      </trkpt>
      <trkpt lat="42.420023" lon="2.488035">
        <ele>1124.528</ele>
        <time>2021-05-28T08:57:30Z</time>
      </trkpt>
      <trkpt lat="42.420051" lon="2.488024">
        <ele>1124.715</ele>
        <time>2021-05-28T08:57:32Z</time>
      </trkpt>
      <trkpt lat="42.420080" lon="2.488011">
        <ele>1124.913</ele>
        <time>2021-05-28T08:57:34Z</time>
      </trkpt>
      <trkpt lat="42.420105" lon="2.487999">
        <ele>1125.227</ele>
        <time>2021-05-28T08:57:36Z</time>
      </trkpt>
      <trkpt lat="42.420133" lon="2.487982">
        <ele>1125.568</ele>
        <time>2021-05-28T08:57:38Z</time>
      </trkpt>
      <trkpt lat="42.420161" lon="2.487972">
        <ele>1125.714</ele>
        <time>2021-05-28T08:57:40Z</time>
      </trkpt>
      <trkpt lat="42.420192" lon="2.487954">
        <ele>1126.008</ele>
        <time>2021-05-28T08:57:42Z</time>
      </trkpt>
      <trkpt lat="42.420209" lon="2.487944">
        <ele>1126.279</ele>
        <time>2021-05-28T08:57:43Z</time>
      </trkpt>
      <trkpt lat="42.420234" lon="2.487932">
        <ele>1126.326</ele>
        <time>2021-05-28T08:57:45Z</time>
      </trkpt>
      <trkpt lat="42.420251" lon="2.487921">
        <ele>1126.597</ele>
        <time>2021-05-28T08:57:46Z</time>
      </trkpt>
      <trkpt lat="42.420278" lon="2.487898">
        <ele>1127.086</ele>
        <time>2021-05-28T08:57:48Z</time>
      </trkpt>
      <trkpt lat="42.420306" lon="2.487878">
        <ele>1127.373</ele>
        <time>2021-05-28T08:57:50Z</time>
      </trkpt>
      <trkpt lat="42.420334" lon="2.487852">
        <ele>1127.858</ele>
        <time>2021-05-28T08:57:52Z</time>
      </trkpt>
      <trkpt lat="42.420364" lon="2.487827">
        <ele>1128.225</ele>
        <time>2021-05-28T08:57:54Z</time>
      </trkpt>
      <trkpt lat="42.420392" lon="2.487810">
        <ele>1128.413</ele>
        <time>2021-05-28T08:57:56Z</time>
      </trkpt>
      <trkpt lat="42.420422" lon="2.487783">
        <ele>1128.882</ele>
        <time>2021-05-28T08:57:58Z</time>
      </trkpt>
      <trkpt lat="42.420436" lon="2.487770">
        <ele>1129.043</ele>
        <time>2021-05-28T08:57:59Z</time>
      </trkpt>
      <trkpt lat="42.420464" lon="2.487744">
        <ele>1129.417</ele>
        <time>2021-05-28T08:58:01Z</time>
      </trkpt>
      <trkpt lat="42.420494" lon="2.487722">
        <ele>1129.708</ele>
        <time>2021-05-28T08:58:03Z</time>
      </trkpt>
      <trkpt lat="42.420512" lon="2.487709">
        <ele>1129.845</ele>
        <time>2021-05-28T08:58:04Z</time>
      </trkpt>
      <trkpt lat="42.420529" lon="2.487695">
        <ele>1130.072</ele>
        <time>2021-05-28T08:58:05Z</time>
      </trkpt>
      <trkpt lat="42.420558" lon="2.487677">
        <ele>1130.233</ele>
        <time>2021-05-28T08:58:07Z</time>
      </trkpt>
      <trkpt lat="42.420584" lon="2.487657">
        <ele>1130.532</ele>
        <time>2021-05-28T08:58:09Z</time>
      </trkpt>
      <trkpt lat="42.420609" lon="2.487641">
        <ele>1130.849</ele>
        <time>2021-05-28T08:58:11Z</time>
      </trkpt>
      <trkpt lat="42.420633" lon="2.487619">
        <ele>1131.274</ele>
        <time>2021-05-28T08:58:13Z</time>
      </trkpt>
      <trkpt lat="42.420661" lon="2.487599">
        <ele>1131.571</ele>
        <time>2021-05-28T08:58:15Z</time>
      </trkpt>
      <trkpt lat="42.420681" lon="2.487587">
        <ele>1131.789</ele>
        <time>2021-05-28T08:58:16Z</time>
      </trkpt>
      <trkpt lat="42.420705" lon="2.487573">
        <ele>1131.992</ele>
        <time>2021-05-28T08:58:18Z</time>
      </trkpt>
      <trkpt lat="42.420726" lon="2.487563">
        <ele>1132.073</ele>
        <time>2021-05-28T08:58:20Z</time>
      </trkpt>
      <trkpt lat="42.420749" lon="2.487546">
        <ele>1132.320</ele>
        <time>2021-05-28T08:58:22Z</time>
      </trkpt>
      <trkpt lat="42.420772" lon="2.487528">
        <ele>1132.608</ele>
        <time>2021-05-28T08:58:24Z</time>
      </trkpt>
      <trkpt lat="42.420797" lon="2.487513">
        <ele>1132.876</ele>
        <time>2021-05-28T08:58:26Z</time>
      </trkpt>
      <trkpt lat="42.420818" lon="2.487498">
        <ele>1133.133</ele>
        <time>2021-05-28T08:58:28Z</time>
      </trkpt>
      <trkpt lat="42.420846" lon="2.487486">
        <ele>1133.334</ele>
        <time>2021-05-28T08:58:30Z</time>
      </trkpt>
      <trkpt lat="42.420871" lon="2.487477">
        <ele>1133.543</ele>
        <time>2021-05-28T08:58:32Z</time>
      </trkpt>
      <trkpt lat="42.420888" lon="2.487456">
        <ele>1134.070</ele>
        <time>2021-05-28T08:58:34Z</time>
      </trkpt>
      <trkpt lat="42.420908" lon="2.487441">
        <ele>1134.355</ele>
        <time>2021-05-28T08:58:36Z</time>
      </trkpt>
      <trkpt lat="42.420931" lon="2.487426">
        <ele>1134.712</ele>
        <time>2021-05-28T08:58:38Z</time>
      </trkpt>
      <trkpt lat="42.420955" lon="2.487413">
        <ele>1135.040</ele>
        <time>2021-05-28T08:58:40Z</time>
      </trkpt>
      <trkpt lat="42.420982" lon="2.487403">
        <ele>1135.397</ele>
        <time>2021-05-28T08:58:42Z</time>
      </trkpt>
      <trkpt lat="42.421009" lon="2.487394">
        <ele>1135.523</ele>
        <time>2021-05-28T08:58:44Z</time>
      </trkpt>
      <trkpt lat="42.421035" lon="2.487382">
        <ele>1135.925</ele>
        <time>2021-05-28T08:58:46Z</time>
      </trkpt>
      <trkpt lat="42.421061" lon="2.487373">
        <ele>1136.108</ele>
        <time>2021-05-28T08:58:48Z</time>
      </trkpt>
      <trkpt lat="42.421086" lon="2.487357">
        <ele>1136.616</ele>
        <time>2021-05-28T08:58:50Z</time>
      </trkpt>
      <trkpt lat="42.421108" lon="2.487342">
        <ele>1137.013</ele>
        <time>2021-05-28T08:58:52Z</time>
      </trkpt>
      <trkpt lat="42.421129" lon="2.487336">
        <ele>1137.174</ele>
        <time>2021-05-28T08:58:54Z</time>
      </trkpt>
      <trkpt lat="42.421161" lon="2.487331">
        <ele>1137.383</ele>
        <time>2021-05-28T08:58:56Z</time>
      </trkpt>
      <trkpt lat="42.421186" lon="2.487322">
        <ele>1137.570</ele>
        <time>2021-05-28T08:58:58Z</time>
      </trkpt>
      <trkpt lat="42.421210" lon="2.487316">
        <ele>1137.695</ele>
        <time>2021-05-28T08:59:00Z</time>
      </trkpt>
      <trkpt lat="42.421232" lon="2.487307">
        <ele>1137.962</ele>
        <time>2021-05-28T08:59:02Z</time>
      </trkpt>
      <trkpt lat="42.421256" lon="2.487297">
        <ele>1138.130</ele>
        <time>2021-05-28T08:59:04Z</time>
      </trkpt>
      <trkpt lat="42.421282" lon="2.487286">
        <ele>1138.451</ele>
        <time>2021-05-28T08:59:06Z</time>
      </trkpt>
      <trkpt lat="42.421308" lon="2.487278">
        <ele>1138.601</ele>
        <time>2021-05-28T08:59:08Z</time>
      </trkpt>
      <trkpt lat="42.421334" lon="2.487276">
        <ele>1138.611</ele>
        <time>2021-05-28T08:59:10Z</time>
      </trkpt>
      <trkpt lat="42.421355" lon="2.487271">
        <ele>1138.808</ele>
        <time>2021-05-28T08:59:12Z</time>
      </trkpt>
      <trkpt lat="42.421379" lon="2.487263">
        <ele>1139.092</ele>
        <time>2021-05-28T08:59:14Z</time>
      </trkpt>
      <trkpt lat="42.421405" lon="2.487256">
        <ele>1139.159</ele>
        <time>2021-05-28T08:59:16Z</time>
      </trkpt>
      <trkpt lat="42.421430" lon="2.487247">
        <ele>1139.260</ele>
        <time>2021-05-28T08:59:18Z</time>
      </trkpt>
      <trkpt lat="42.421458" lon="2.487243">
        <ele>1139.239</ele>
        <time>2021-05-28T08:59:20Z</time>
      </trkpt>
      <trkpt lat="42.421482" lon="2.487231">
        <ele>1139.476</ele>
        <time>2021-05-28T08:59:22Z</time>
      </trkpt>
      <trkpt lat="42.421505" lon="2.487220">
        <ele>1139.621</ele>
        <time>2021-05-28T08:59:24Z</time>
      </trkpt>
      <trkpt lat="42.421527" lon="2.487212">
        <ele>1139.848</ele>
        <time>2021-05-28T08:59:26Z</time>
      </trkpt>
      <trkpt lat="42.421548" lon="2.487204">
        <ele>1140.036</ele>
        <time>2021-05-28T08:59:28Z</time>
      </trkpt>
      <trkpt lat="42.421573" lon="2.487192">
        <ele>1140.317</ele>
        <time>2021-05-28T08:59:30Z</time>
      </trkpt>
      <trkpt lat="42.421589" lon="2.487183">
        <ele>1140.587</ele>
        <time>2021-05-28T08:59:31Z</time>
      </trkpt>
      <trkpt lat="42.421609" lon="2.487172">
        <ele>1140.815</ele>
        <time>2021-05-28T08:59:32Z</time>
      </trkpt>
      <trkpt lat="42.421626" lon="2.487162">
        <ele>1141.108</ele>
        <time>2021-05-28T08:59:33Z</time>
      </trkpt>
      <trkpt lat="42.421644" lon="2.487151">
        <ele>1141.418</ele>
        <time>2021-05-28T08:59:34Z</time>
      </trkpt>
      <trkpt lat="42.421674" lon="2.487131">
        <ele>1141.975</ele>
        <time>2021-05-28T08:59:36Z</time>
      </trkpt>
      <trkpt lat="42.421690" lon="2.487114">
        <ele>1142.486</ele>
        <time>2021-05-28T08:59:37Z</time>
      </trkpt>
      <trkpt lat="42.421718" lon="2.487089">
        <ele>1143.055</ele>
        <time>2021-05-28T08:59:39Z</time>
      </trkpt>
      <trkpt lat="42.421744" lon="2.487073">
        <ele>1143.442</ele>
        <time>2021-05-28T08:59:41Z</time>
      </trkpt>
      <trkpt lat="42.421760" lon="2.487063">
        <ele>1143.627</ele>
        <time>2021-05-28T08:59:42Z</time>
      </trkpt>
      <trkpt lat="42.421788" lon="2.487045">
        <ele>1144.034</ele>
        <time>2021-05-28T08:59:44Z</time>
      </trkpt>
      <trkpt lat="42.421815" lon="2.487030">
        <ele>1144.342</ele>
        <time>2021-05-28T08:59:46Z</time>
      </trkpt>
      <trkpt lat="42.421840" lon="2.487014">
        <ele>1144.781</ele>
        <time>2021-05-28T08:59:48Z</time>
      </trkpt>
      <trkpt lat="42.421864" lon="2.486994">
        <ele>1145.161</ele>
        <time>2021-05-28T08:59:50Z</time>
      </trkpt>
      <trkpt lat="42.421884" lon="2.486975">
        <ele>1145.517</ele>
        <time>2021-05-28T08:59:52Z</time>
      </trkpt>
      <trkpt lat="42.421907" lon="2.486953">
        <ele>1146.008</ele>
        <time>2021-05-28T08:59:54Z</time>
      </trkpt>
      <trkpt lat="42.421927" lon="2.486937">
        <ele>1146.335</ele>
        <time>2021-05-28T08:59:56Z</time>
      </trkpt>
      <trkpt lat="42.421947" lon="2.486916">
        <ele>1146.772</ele>
        <time>2021-05-28T08:59:58Z</time>
      </trkpt>
      <trkpt lat="42.421964" lon="2.486892">
        <ele>1147.093</ele>
        <time>2021-05-28T09:00:00Z</time>
      </trkpt>
      <trkpt lat="42.421983" lon="2.486871">
        <ele>1147.252</ele>
        <time>2021-05-28T09:00:02Z</time>
      </trkpt>
      <trkpt lat="42.422006" lon="2.486857">
        <ele>1147.269</ele>
        <time>2021-05-28T09:00:04Z</time>
      </trkpt>
      <trkpt lat="42.422022" lon="2.486839">
        <ele>1147.444</ele>
        <time>2021-05-28T09:00:06Z</time>
      </trkpt>
      <trkpt lat="42.422041" lon="2.486819">
        <ele>1147.631</ele>
        <time>2021-05-28T09:00:08Z</time>
      </trkpt>
      <trkpt lat="42.422064" lon="2.486803">
        <ele>1147.659</ele>
        <time>2021-05-28T09:00:10Z</time>
      </trkpt>
      <trkpt lat="42.422084" lon="2.486784">
        <ele>1147.827</ele>
        <time>2021-05-28T09:00:12Z</time>
      </trkpt>
      <trkpt lat="42.422107" lon="2.486763">
        <ele>1148.068</ele>
        <time>2021-05-28T09:00:14Z</time>
      </trkpt>
      <trkpt lat="42.422130" lon="2.486741">
        <ele>1148.314</ele>
        <time>2021-05-28T09:00:16Z</time>
      </trkpt>
      <trkpt lat="42.422149" lon="2.486728">
        <ele>1148.308</ele>
        <time>2021-05-28T09:00:18Z</time>
      </trkpt>
      <trkpt lat="42.422166" lon="2.486718">
        <ele>1148.439</ele>
        <time>2021-05-28T09:00:20Z</time>
      </trkpt>
      <trkpt lat="42.422189" lon="2.486701">
        <ele>1148.516</ele>
        <time>2021-05-28T09:00:22Z</time>
      </trkpt>
      <trkpt lat="42.422213" lon="2.486681">
        <ele>1148.717</ele>
        <time>2021-05-28T09:00:24Z</time>
      </trkpt>
      <trkpt lat="42.422237" lon="2.486658">
        <ele>1149.076</ele>
        <time>2021-05-28T09:00:26Z</time>
      </trkpt>
      <trkpt lat="42.422256" lon="2.486639">
        <ele>1149.343</ele>
        <time>2021-05-28T09:00:28Z</time>
      </trkpt>
      <trkpt lat="42.422274" lon="2.486624">
        <ele>1149.548</ele>
        <time>2021-05-28T09:00:30Z</time>
      </trkpt>
      <trkpt lat="42.422292" lon="2.486611">
        <ele>1149.685</ele>
        <time>2021-05-28T09:00:32Z</time>
      </trkpt>
      <trkpt lat="42.422310" lon="2.486583">
        <ele>1150.133</ele>
        <time>2021-05-28T09:00:34Z</time>
      </trkpt>
      <trkpt lat="42.422334" lon="2.486569">
        <ele>1150.288</ele>
        <time>2021-05-28T09:00:36Z</time>
      </trkpt>
      <trkpt lat="42.422355" lon="2.486554">
        <ele>1150.324</ele>
        <time>2021-05-28T09:00:38Z</time>
      </trkpt>
      <trkpt lat="42.422378" lon="2.486535">
        <ele>1150.526</ele>
        <time>2021-05-28T09:00:40Z</time>
      </trkpt>
      <trkpt lat="42.422395" lon="2.486512">
        <ele>1151.008</ele>
        <time>2021-05-28T09:00:42Z</time>
      </trkpt>
      <trkpt lat="42.422410" lon="2.486486">
        <ele>1151.595</ele>
        <time>2021-05-28T09:00:44Z</time>
      </trkpt>
      <trkpt lat="42.422410" lon="2.486455">
        <ele>1152.442</ele>
        <time>2021-05-28T09:00:46Z</time>
      </trkpt>
      <trkpt lat="42.422399" lon="2.486432">
        <ele>1153.233</ele>
        <time>2021-05-28T09:00:48Z</time>
      </trkpt>
      <trkpt lat="42.422370" lon="2.486407">
        <ele>1154.322</ele>
        <time>2021-05-28T09:00:50Z</time>
      </trkpt>
      <trkpt lat="42.422354" lon="2.486379">
        <ele>1155.459</ele>
        <time>2021-05-28T09:00:52Z</time>
      </trkpt>
      <trkpt lat="42.422331" lon="2.486364">
        <ele>1156.294</ele>
        <time>2021-05-28T09:00:54Z</time>
      </trkpt>
      <trkpt lat="42.422305" lon="2.486358">
        <ele>1156.761</ele>
        <time>2021-05-28T09:00:56Z</time>
      </trkpt>
      <trkpt lat="42.422280" lon="2.486357">
        <ele>1157.149</ele>
        <time>2021-05-28T09:00:58Z</time>
      </trkpt>
      <trkpt lat="42.422257" lon="2.486348">
        <ele>1157.749</ele>
        <time>2021-05-28T09:01:00Z</time>
      </trkpt>
      <trkpt lat="42.422236" lon="2.486352">
        <ele>1157.902</ele>
        <time>2021-05-28T09:01:02Z</time>
      </trkpt>
      <trkpt lat="42.422216" lon="2.486357">
        <ele>1158.022</ele>
        <time>2021-05-28T09:01:04Z</time>
      </trkpt>
      <trkpt lat="42.422195" lon="2.486356">
        <ele>1158.208</ele>
        <time>2021-05-28T09:01:06Z</time>
      </trkpt>
      <trkpt lat="42.422172" lon="2.486358">
        <ele>1158.471</ele>
        <time>2021-05-28T09:01:08Z</time>
      </trkpt>
      <trkpt lat="42.422153" lon="2.486363">
        <ele>1158.558</ele>
        <time>2021-05-28T09:01:10Z</time>
      </trkpt>
      <trkpt lat="42.422129" lon="2.486364">
        <ele>1158.799</ele>
        <time>2021-05-28T09:01:13Z</time>
      </trkpt>
      <trkpt lat="42.422102" lon="2.486361">
        <ele>1159.198</ele>
        <time>2021-05-28T09:01:15Z</time>
      </trkpt>
      <trkpt lat="42.422082" lon="2.486351">
        <ele>1159.655</ele>
        <time>2021-05-28T09:01:17Z</time>
      </trkpt>
      <trkpt lat="42.422054" lon="2.486340">
        <ele>1160.240</ele>
        <time>2021-05-28T09:01:19Z</time>
      </trkpt>
      <trkpt lat="42.422022" lon="2.486341">
        <ele>1160.567</ele>
        <time>2021-05-28T09:01:21Z</time>
      </trkpt>
      <trkpt lat="42.421992" lon="2.486338">
        <ele>1161.085</ele>
        <time>2021-05-28T09:01:23Z</time>
      </trkpt>
      <trkpt lat="42.421966" lon="2.486320">
        <ele>1161.827</ele>
        <time>2021-05-28T09:01:25Z</time>
      </trkpt>
      <trkpt lat="42.421940" lon="2.486306">
        <ele>1162.468</ele>
        <time>2021-05-28T09:01:27Z</time>
      </trkpt>
      <trkpt lat="42.421913" lon="2.486295">
        <ele>1162.814</ele>
        <time>2021-05-28T09:01:29Z</time>
      </trkpt>
      <trkpt lat="42.421884" lon="2.486281">
        <ele>1163.208</ele>
        <time>2021-05-28T09:01:31Z</time>
      </trkpt>
      <trkpt lat="42.421856" lon="2.486268">
        <ele>1163.789</ele>
        <time>2021-05-28T09:01:33Z</time>
      </trkpt>
      <trkpt lat="42.421832" lon="2.486261">
        <ele>1163.936</ele>
        <time>2021-05-28T09:01:35Z</time>
      </trkpt>
      <trkpt lat="42.421807" lon="2.486253">
        <ele>1164.267</ele>
        <time>2021-05-28T09:01:37Z</time>
      </trkpt>
      <trkpt lat="42.421782" lon="2.486246">
        <ele>1164.476</ele>
        <time>2021-05-28T09:01:39Z</time>
      </trkpt>
      <trkpt lat="42.421758" lon="2.486237">
        <ele>1164.743</ele>
        <time>2021-05-28T09:01:41Z</time>
      </trkpt>
      <trkpt lat="42.421732" lon="2.486226">
        <ele>1165.028</ele>
        <time>2021-05-28T09:01:43Z</time>
      </trkpt>
      <trkpt lat="42.421710" lon="2.486217">
        <ele>1165.325</ele>
        <time>2021-05-28T09:01:45Z</time>
      </trkpt>
      <trkpt lat="42.421686" lon="2.486211">
        <ele>1165.513</ele>
        <time>2021-05-28T09:01:47Z</time>
      </trkpt>
      <trkpt lat="42.421654" lon="2.486195">
        <ele>1165.991</ele>
        <time>2021-05-28T09:01:49Z</time>
      </trkpt>
      <trkpt lat="42.421632" lon="2.486189">
        <ele>1166.081</ele>
        <time>2021-05-28T09:01:51Z</time>
      </trkpt>
      <trkpt lat="42.421613" lon="2.486172">
        <ele>1166.519</ele>
        <time>2021-05-28T09:01:53Z</time>
      </trkpt>
      <trkpt lat="42.421589" lon="2.486155">
        <ele>1166.908</ele>
        <time>2021-05-28T09:01:55Z</time>
      </trkpt>
      <trkpt lat="42.421564" lon="2.486147">
        <ele>1167.186</ele>
        <time>2021-05-28T09:01:57Z</time>
      </trkpt>
      <trkpt lat="42.421539" lon="2.486140">
        <ele>1167.353</ele>
        <time>2021-05-28T09:02:01Z</time>
      </trkpt>
      <trkpt lat="42.421517" lon="2.486131">
        <ele>1167.564</ele>
        <time>2021-05-28T09:02:03Z</time>
      </trkpt>
      <trkpt lat="42.421494" lon="2.486121">
        <ele>1167.863</ele>
        <time>2021-05-28T09:02:05Z</time>
      </trkpt>
      <trkpt lat="42.421471" lon="2.486107">
        <ele>1168.120</ele>
        <time>2021-05-28T09:02:07Z</time>
      </trkpt>
      <trkpt lat="42.421445" lon="2.486098">
        <ele>1168.365</ele>
        <time>2021-05-28T09:02:09Z</time>
      </trkpt>
      <trkpt lat="42.421418" lon="2.486082">
        <ele>1168.722</ele>
        <time>2021-05-28T09:02:12Z</time>
      </trkpt>
      <trkpt lat="42.421390" lon="2.486066">
        <ele>1169.150</ele>
        <time>2021-05-28T09:02:14Z</time>
      </trkpt>
      <trkpt lat="42.421365" lon="2.486044">
        <ele>1169.679</ele>
        <time>2021-05-28T09:02:16Z</time>
      </trkpt>
      <trkpt lat="42.421341" lon="2.486019">
        <ele>1170.105</ele>
        <time>2021-05-28T09:02:18Z</time>
      </trkpt>
      <trkpt lat="42.421323" lon="2.485998">
        <ele>1170.525</ele>
        <time>2021-05-28T09:02:20Z</time>
      </trkpt>
      <trkpt lat="42.421301" lon="2.485974">
        <ele>1171.008</ele>
        <time>2021-05-28T09:02:22Z</time>
      </trkpt>
      <trkpt lat="42.421278" lon="2.485947">
        <ele>1171.544</ele>
        <time>2021-05-28T09:02:24Z</time>
      </trkpt>
      <trkpt lat="42.421259" lon="2.485925">
        <ele>1171.941</ele>
        <time>2021-05-28T09:02:26Z</time>
      </trkpt>
      <trkpt lat="42.421243" lon="2.485907">
        <ele>1172.262</ele>
        <time>2021-05-28T09:02:28Z</time>
      </trkpt>
      <trkpt lat="42.421226" lon="2.485888">
        <ele>1172.641</ele>
        <time>2021-05-28T09:02:30Z</time>
      </trkpt>
      <trkpt lat="42.421206" lon="2.485864">
        <ele>1173.018</ele>
        <time>2021-05-28T09:02:33Z</time>
      </trkpt>
      <trkpt lat="42.421193" lon="2.485839">
        <ele>1173.553</ele>
        <time>2021-05-28T09:02:35Z</time>
      </trkpt>
      <trkpt lat="42.421176" lon="2.485822">
        <ele>1173.820</ele>
        <time>2021-05-28T09:02:37Z</time>
      </trkpt>
      <trkpt lat="42.421158" lon="2.485808">
        <ele>1174.048</ele>
        <time>2021-05-28T09:02:39Z</time>
      </trkpt>
      <trkpt lat="42.421135" lon="2.485789">
        <ele>1174.316</ele>
        <time>2021-05-28T09:02:41Z</time>
      </trkpt>
      <trkpt lat="42.421121" lon="2.485770">
        <ele>1174.776</ele>
        <time>2021-05-28T09:02:43Z</time>
      </trkpt>
      <trkpt lat="42.421105" lon="2.485753">
        <ele>1175.013</ele>
        <time>2021-05-28T09:02:45Z</time>
      </trkpt>
      <trkpt lat="42.421087" lon="2.485735">
        <ele>1175.308</ele>
        <time>2021-05-28T09:02:47Z</time>
      </trkpt>
      <trkpt lat="42.421069" lon="2.485718">
        <ele>1175.568</ele>
        <time>2021-05-28T09:02:49Z</time>
      </trkpt>
      <trkpt lat="42.421046" lon="2.485697">
        <ele>1175.915</ele>
        <time>2021-05-28T09:02:51Z</time>
      </trkpt>
      <trkpt lat="42.421022" lon="2.485671">
        <ele>1176.356</ele>
        <time>2021-05-28T09:02:53Z</time>
      </trkpt>
      <trkpt lat="42.421002" lon="2.485652">
        <ele>1176.525</ele>
        <time>2021-05-28T09:02:55Z</time>
      </trkpt>
      <trkpt lat="42.420977" lon="2.485632">
        <ele>1176.812</ele>
        <time>2021-05-28T09:02:57Z</time>
      </trkpt>
      <trkpt lat="42.420954" lon="2.485616">
        <ele>1176.917</ele>
        <time>2021-05-28T09:02:59Z</time>
      </trkpt>
      <trkpt lat="42.420938" lon="2.485597">
        <ele>1177.264</ele>
        <time>2021-05-28T09:03:01Z</time>
      </trkpt>
      <trkpt lat="42.420916" lon="2.485578">
        <ele>1177.442</ele>
        <time>2021-05-28T09:03:03Z</time>
      </trkpt>
      <trkpt lat="42.420890" lon="2.485559">
        <ele>1177.577</ele>
        <time>2021-05-28T09:03:05Z</time>
      </trkpt>
      <trkpt lat="42.420869" lon="2.485540">
        <ele>1177.761</ele>
        <time>2021-05-28T09:03:07Z</time>
      </trkpt>
      <trkpt lat="42.420851" lon="2.485526">
        <ele>1177.727</ele>
        <time>2021-05-28T09:03:09Z</time>
      </trkpt>
      <trkpt lat="42.420838" lon="2.485508">
        <ele>1177.908</ele>
        <time>2021-05-28T09:03:11Z</time>
      </trkpt>
      <trkpt lat="42.420817" lon="2.485488">
        <ele>1178.044</ele>
        <time>2021-05-28T09:03:13Z</time>
      </trkpt>
      <trkpt lat="42.420801" lon="2.485468">
        <ele>1178.241</ele>
        <time>2021-05-28T09:03:15Z</time>
      </trkpt>
      <trkpt lat="42.420783" lon="2.485448">
        <ele>1178.492</ele>
        <time>2021-05-28T09:03:17Z</time>
      </trkpt>
      <trkpt lat="42.420764" lon="2.485429">
        <ele>1178.511</ele>
        <time>2021-05-28T09:03:19Z</time>
      </trkpt>
      <trkpt lat="42.420752" lon="2.485406">
        <ele>1178.898</ele>
        <time>2021-05-28T09:03:21Z</time>
      </trkpt>
      <trkpt lat="42.420740" lon="2.485383">
        <ele>1179.113</ele>
        <time>2021-05-28T09:03:23Z</time>
      </trkpt>
      <trkpt lat="42.420726" lon="2.485361">
        <ele>1179.320</ele>
        <time>2021-05-28T09:03:25Z</time>
      </trkpt>
      <trkpt lat="42.420711" lon="2.485335">
        <ele>1179.688</ele>
        <time>2021-05-28T09:03:27Z</time>
      </trkpt>
      <trkpt lat="42.420701" lon="2.485310">
        <ele>1180.068</ele>
        <time>2021-05-28T09:03:29Z</time>
      </trkpt>
      <trkpt lat="42.420691" lon="2.485281">
        <ele>1180.442</ele>
        <time>2021-05-28T09:03:31Z</time>
      </trkpt>
      <trkpt lat="42.420679" lon="2.485249">
        <ele>1180.726</ele>
        <time>2021-05-28T09:03:33Z</time>
      </trkpt>
      <trkpt lat="42.420671" lon="2.485215">
        <ele>1181.008</ele>
        <time>2021-05-28T09:03:35Z</time>
      </trkpt>
      <trkpt lat="42.420663" lon="2.485188">
        <ele>1181.313</ele>
        <time>2021-05-28T09:03:37Z</time>
      </trkpt>
      <trkpt lat="42.420655" lon="2.485163">
        <ele>1181.550</ele>
        <time>2021-05-28T09:03:39Z</time>
      </trkpt>
      <trkpt lat="42.420656" lon="2.485131">
        <ele>1181.931</ele>
        <time>2021-05-28T09:03:41Z</time>
      </trkpt>
      <trkpt lat="42.420658" lon="2.485098">
        <ele>1182.360</ele>
        <time>2021-05-28T09:03:43Z</time>
      </trkpt>
      <trkpt lat="42.420660" lon="2.485066">
        <ele>1182.747</ele>
        <time>2021-05-28T09:03:45Z</time>
      </trkpt>
      <trkpt lat="42.420662" lon="2.485034">
        <ele>1183.162</ele>
        <time>2021-05-28T09:03:47Z</time>
      </trkpt>
      <trkpt lat="42.420666" lon="2.485003">
        <ele>1183.629</ele>
        <time>2021-05-28T09:03:49Z</time>
      </trkpt>
      <trkpt lat="42.420669" lon="2.484974">
        <ele>1183.917</ele>
        <time>2021-05-28T09:03:51Z</time>
      </trkpt>
      <trkpt lat="42.420676" lon="2.484947">
        <ele>1184.258</ele>
        <time>2021-05-28T09:03:53Z</time>
      </trkpt>
      <trkpt lat="42.420683" lon="2.484911">
        <ele>1184.652</ele>
        <time>2021-05-28T09:03:55Z</time>
      </trkpt>
      <trkpt lat="42.420682" lon="2.484876">
        <ele>1184.917</ele>
        <time>2021-05-28T09:03:57Z</time>
      </trkpt>
      <trkpt lat="42.420682" lon="2.484845">
        <ele>1185.208</ele>
        <time>2021-05-28T09:03:59Z</time>
      </trkpt>
      <trkpt lat="42.420684" lon="2.484809">
        <ele>1185.522</ele>
        <time>2021-05-28T09:04:02Z</time>
      </trkpt>
      <trkpt lat="42.420694" lon="2.484787">
        <ele>1185.949</ele>
        <time>2021-05-28T09:04:04Z</time>
      </trkpt>
      <trkpt lat="42.420704" lon="2.484762">
        <ele>1186.370</ele>
        <time>2021-05-28T09:04:06Z</time>
      </trkpt>
      <trkpt lat="42.420716" lon="2.484737">
        <ele>1186.869</ele>
        <time>2021-05-28T09:04:08Z</time>
      </trkpt>
      <trkpt lat="42.420731" lon="2.484717">
        <ele>1187.226</ele>
        <time>2021-05-28T09:04:10Z</time>
      </trkpt>
      <trkpt lat="42.420739" lon="2.484688">
        <ele>1187.381</ele>
        <time>2021-05-28T09:04:12Z</time>
      </trkpt>
      <trkpt lat="42.420747" lon="2.484653">
        <ele>1187.498</ele>
        <time>2021-05-28T09:04:14Z</time>
      </trkpt>
      <trkpt lat="42.420756" lon="2.484624">
        <ele>1187.526</ele>
        <time>2021-05-28T09:04:16Z</time>
      </trkpt>
      <trkpt lat="42.420773" lon="2.484598">
        <ele>1187.819</ele>
        <time>2021-05-28T09:04:18Z</time>
      </trkpt>
      <trkpt lat="42.420786" lon="2.484573">
        <ele>1188.109</ele>
        <time>2021-05-28T09:04:20Z</time>
      </trkpt>
      <trkpt lat="42.420812" lon="2.484544">
        <ele>1188.619</ele>
        <time>2021-05-28T09:04:23Z</time>
      </trkpt>
      <trkpt lat="42.420830" lon="2.484523">
        <ele>1188.908</ele>
        <time>2021-05-28T09:04:25Z</time>
      </trkpt>
      <trkpt lat="42.420853" lon="2.484501">
        <ele>1189.638</ele>
        <time>2021-05-28T09:04:27Z</time>
      </trkpt>
      <trkpt lat="42.420876" lon="2.484480">
        <ele>1190.235</ele>
        <time>2021-05-28T09:04:29Z</time>
      </trkpt>
      <trkpt lat="42.420893" lon="2.484452">
        <ele>1190.756</ele>
        <time>2021-05-28T09:04:31Z</time>
      </trkpt>
      <trkpt lat="42.420910" lon="2.484435">
        <ele>1191.295</ele>
        <time>2021-05-28T09:04:33Z</time>
      </trkpt>
      <trkpt lat="42.420928" lon="2.484417">
        <ele>1191.662</ele>
        <time>2021-05-28T09:04:35Z</time>
      </trkpt>
      <trkpt lat="42.420949" lon="2.484391">
        <ele>1192.197</ele>
        <time>2021-05-28T09:04:37Z</time>
      </trkpt>
      <trkpt lat="42.420967" lon="2.484370">
        <ele>1192.514</ele>
        <time>2021-05-28T09:04:39Z</time>
      </trkpt>
      <trkpt lat="42.420982" lon="2.484348">
        <ele>1192.782</ele>
        <time>2021-05-28T09:04:41Z</time>
      </trkpt>
      <trkpt lat="42.421005" lon="2.484324">
        <ele>1193.284</ele>
        <time>2021-05-28T09:04:43Z</time>
      </trkpt>
      <trkpt lat="42.421024" lon="2.484296">
        <ele>1193.607</ele>
        <time>2021-05-28T09:04:45Z</time>
      </trkpt>
      <trkpt lat="42.421041" lon="2.484269">
        <ele>1193.917</ele>
        <time>2021-05-28T09:04:47Z</time>
      </trkpt>
      <trkpt lat="42.421053" lon="2.484245">
        <ele>1194.008</ele>
        <time>2021-05-28T09:04:49Z</time>
      </trkpt>
      <trkpt lat="42.421072" lon="2.484215">
        <ele>1194.335</ele>
        <time>2021-05-28T09:04:51Z</time>
      </trkpt>
      <trkpt lat="42.421090" lon="2.484193">
        <ele>1194.732</ele>
        <time>2021-05-28T09:04:53Z</time>
      </trkpt>
      <trkpt lat="42.421102" lon="2.484171">
        <ele>1194.853</ele>
        <time>2021-05-28T09:04:55Z</time>
      </trkpt>
      <trkpt lat="42.421116" lon="2.484145">
        <ele>1195.072</ele>
        <time>2021-05-28T09:04:58Z</time>
      </trkpt>
      <trkpt lat="42.421133" lon="2.484119">
        <ele>1195.429</ele>
        <time>2021-05-28T09:05:00Z</time>
      </trkpt>
      <trkpt lat="42.421180" lon="2.484043">
        <ele>1196.234</ele>
        <time>2021-05-28T09:05:05Z</time>
      </trkpt>
      <trkpt lat="42.421198" lon="2.484016">
        <ele>1196.681</ele>
        <time>2021-05-28T09:05:07Z</time>
      </trkpt>
      <trkpt lat="42.421212" lon="2.484000">
        <ele>1196.939</ele>
        <time>2021-05-28T09:05:08Z</time>
      </trkpt>
      <trkpt lat="42.421226" lon="2.483983">
        <ele>1197.125</ele>
        <time>2021-05-28T09:05:09Z</time>
      </trkpt>
      <trkpt lat="42.421240" lon="2.483952">
        <ele>1197.326</ele>
        <time>2021-05-28T09:05:11Z</time>
      </trkpt>
      <trkpt lat="42.421255" lon="2.483919">
        <ele>1197.408</ele>
        <time>2021-05-28T09:05:13Z</time>
      </trkpt>
      <trkpt lat="42.421257" lon="2.483879">
        <ele>1197.208</ele>
        <time>2021-05-28T09:05:15Z</time>
      </trkpt>
      <trkpt lat="42.421260" lon="2.483852">
        <ele>1197.319</ele>
        <time>2021-05-28T09:05:17Z</time>
      </trkpt>
      <trkpt lat="42.421256" lon="2.483827">
        <ele>1197.266</ele>
        <time>2021-05-28T09:05:19Z</time>
      </trkpt>
      <trkpt lat="42.421275" lon="2.483820">
        <ele>1197.757</ele>
        <time>2021-05-28T09:05:23Z</time>
      </trkpt>
      <trkpt lat="42.421297" lon="2.483816">
        <ele>1198.466</ele>
        <time>2021-05-28T09:05:28Z</time>
      </trkpt>
      <trkpt lat="42.421315" lon="2.483815">
        <ele>1198.993</ele>
        <time>2021-05-28T09:05:30Z</time>
      </trkpt>
      <trkpt lat="42.421335" lon="2.483814">
        <ele>1199.438</ele>
        <time>2021-05-28T09:05:32Z</time>
      </trkpt>
      <trkpt lat="42.421360" lon="2.483815">
        <ele>1200.215</ele>
        <time>2021-05-28T09:05:35Z</time>
      </trkpt>
      <trkpt lat="42.421381" lon="2.483813">
        <ele>1200.893</ele>
        <time>2021-05-28T09:05:38Z</time>
      </trkpt>
      <trkpt lat="42.421404" lon="2.483811">
        <ele>1201.331</ele>
        <time>2021-05-28T09:05:41Z</time>
      </trkpt>
      <trkpt lat="42.421425" lon="2.483812">
        <ele>1201.861</ele>
        <time>2021-05-28T09:05:44Z</time>
      </trkpt>
      <trkpt lat="42.421405" lon="2.483805">
        <ele>1201.307</ele>
        <time>2021-05-28T09:05:52Z</time>
      </trkpt>
      <trkpt lat="42.421381" lon="2.483799">
        <ele>1200.808</ele>
        <time>2021-05-28T09:05:54Z</time>
      </trkpt>
      <trkpt lat="42.421356" lon="2.483790">
        <ele>1200.120</ele>
        <time>2021-05-28T09:05:56Z</time>
      </trkpt>
      <trkpt lat="42.421327" lon="2.483789">
        <ele>1199.267</ele>
        <time>2021-05-28T09:05:58Z</time>
      </trkpt>
      <trkpt lat="42.421301" lon="2.483790">
        <ele>1198.518</ele>
        <time>2021-05-28T09:06:00Z</time>
      </trkpt>
      <trkpt lat="42.421280" lon="2.483786">
        <ele>1197.977</ele>
        <time>2021-05-28T09:06:02Z</time>
      </trkpt>
      <trkpt lat="42.421255" lon="2.483794">
        <ele>1197.114</ele>
        <time>2021-05-28T09:06:04Z</time>
      </trkpt>
      <trkpt lat="42.421218" lon="2.483792">
        <ele>1196.159</ele>
        <time>2021-05-28T09:06:07Z</time>
      </trkpt>
      <trkpt lat="42.421184" lon="2.483785">
        <ele>1195.126</ele>
        <time>2021-05-28T09:06:10Z</time>
      </trkpt>
      <trkpt lat="42.421208" lon="2.483790">
        <ele>1195.824</ele>
        <time>2021-05-28T09:06:15Z</time>
      </trkpt>
      <trkpt lat="42.421240" lon="2.483798">
        <ele>1196.773</ele>
        <time>2021-05-28T09:06:19Z</time>
      </trkpt>
      <trkpt lat="42.421272" lon="2.483814">
        <ele>1197.685</ele>
        <time>2021-05-28T09:06:22Z</time>
      </trkpt>
      <trkpt lat="42.421291" lon="2.483837">
        <ele>1198.213</ele>
        <time>2021-05-28T09:06:25Z</time>
      </trkpt>
      <trkpt lat="42.421280" lon="2.483814">
        <ele>1197.908</ele>
        <time>2021-05-28T09:06:33Z</time>
      </trkpt>
      <trkpt lat="42.421277" lon="2.483781">
        <ele>1197.824</ele>
        <time>2021-05-28T09:06:44Z</time>
      </trkpt>
      <trkpt lat="42.421268" lon="2.483745">
        <ele>1197.571</ele>
        <time>2021-05-28T09:06:46Z</time>
      </trkpt>
      <trkpt lat="42.421263" lon="2.483709">
        <ele>1197.432</ele>
        <time>2021-05-28T09:06:48Z</time>
      </trkpt>
      <trkpt lat="42.421261" lon="2.483668">
        <ele>1197.381</ele>
        <time>2021-05-28T09:06:50Z</time>
      </trkpt>
      <trkpt lat="42.421258" lon="2.483621">
        <ele>1197.228</ele>
        <time>2021-05-28T09:06:52Z</time>
      </trkpt>
      <trkpt lat="42.421258" lon="2.483572">
        <ele>1197.483</ele>
        <time>2021-05-28T09:06:54Z</time>
      </trkpt>
      <trkpt lat="42.421251" lon="2.483549">
        <ele>1197.460</ele>
        <time>2021-05-28T09:06:55Z</time>
      </trkpt>
      <trkpt lat="42.421248" lon="2.483522">
        <ele>1197.468</ele>
        <time>2021-05-28T09:06:56Z</time>
      </trkpt>
      <trkpt lat="42.421246" lon="2.483495">
        <ele>1197.575</ele>
        <time>2021-05-28T09:06:57Z</time>
      </trkpt>
      <trkpt lat="42.421244" lon="2.483466">
        <ele>1197.628</ele>
        <time>2021-05-28T09:06:58Z</time>
      </trkpt>
      <trkpt lat="42.421242" lon="2.483440">
        <ele>1197.720</ele>
        <time>2021-05-28T09:06:59Z</time>
      </trkpt>
      <trkpt lat="42.421235" lon="2.483410">
        <ele>1197.708</ele>
        <time>2021-05-28T09:07:00Z</time>
      </trkpt>
      <trkpt lat="42.421227" lon="2.483384">
        <ele>1197.634</ele>
        <time>2021-05-28T09:07:01Z</time>
      </trkpt>
      <trkpt lat="42.421224" lon="2.483357">
        <ele>1197.711</ele>
        <time>2021-05-28T09:07:02Z</time>
      </trkpt>
      <trkpt lat="42.421221" lon="2.483329">
        <ele>1197.852</ele>
        <time>2021-05-28T09:07:03Z</time>
      </trkpt>
      <trkpt lat="42.421218" lon="2.483298">
        <ele>1197.941</ele>
        <time>2021-05-28T09:07:04Z</time>
      </trkpt>
      <trkpt lat="42.421217" lon="2.483268">
        <ele>1198.068</ele>
        <time>2021-05-28T09:07:05Z</time>
      </trkpt>
      <trkpt lat="42.421213" lon="2.483239">
        <ele>1198.013</ele>
        <time>2021-05-28T09:07:06Z</time>
      </trkpt>
      <trkpt lat="42.421206" lon="2.483212">
        <ele>1198.010</ele>
        <time>2021-05-28T09:07:07Z</time>
      </trkpt>
      <trkpt lat="42.421201" lon="2.483183">
        <ele>1198.068</ele>
        <time>2021-05-28T09:07:08Z</time>
      </trkpt>
      <trkpt lat="42.421198" lon="2.483153">
        <ele>1198.089</ele>
        <time>2021-05-28T09:07:09Z</time>
      </trkpt>
      <trkpt lat="42.421193" lon="2.483123">
        <ele>1198.006</ele>
        <time>2021-05-28T09:07:10Z</time>
      </trkpt>
      <trkpt lat="42.421190" lon="2.483094">
        <ele>1198.126</ele>
        <time>2021-05-28T09:07:11Z</time>
      </trkpt>
      <trkpt lat="42.421186" lon="2.483068">
        <ele>1198.108</ele>
        <time>2021-05-28T09:07:12Z</time>
      </trkpt>
      <trkpt lat="42.421174" lon="2.483036">
        <ele>1198.075</ele>
        <time>2021-05-28T09:07:13Z</time>
      </trkpt>
      <trkpt lat="42.421169" lon="2.483010">
        <ele>1198.042</ele>
        <time>2021-05-28T09:07:14Z</time>
      </trkpt>
      <trkpt lat="42.421165" lon="2.482984">
        <ele>1198.123</ele>
        <time>2021-05-28T09:07:15Z</time>
      </trkpt>
      <trkpt lat="42.421159" lon="2.482960">
        <ele>1198.132</ele>
        <time>2021-05-28T09:07:16Z</time>
      </trkpt>
      <trkpt lat="42.421153" lon="2.482929">
        <ele>1198.149</ele>
        <time>2021-05-28T09:07:18Z</time>
      </trkpt>
      <trkpt lat="42.421167" lon="2.482949">
        <ele>1198.454</ele>
        <time>2021-05-28T09:07:25Z</time>
      </trkpt>
      <trkpt lat="42.421165" lon="2.482977">
        <ele>1198.171</ele>
        <time>2021-05-28T09:07:27Z</time>
      </trkpt>
      <trkpt lat="42.421173" lon="2.483009">
        <ele>1198.179</ele>
        <time>2021-05-28T09:07:29Z</time>
      </trkpt>
      <trkpt lat="42.421191" lon="2.483017">
        <ele>1198.693</ele>
        <time>2021-05-28T09:07:31Z</time>
      </trkpt>
      <trkpt lat="42.421211" lon="2.483037">
        <ele>1199.065</ele>
        <time>2021-05-28T09:07:34Z</time>
      </trkpt>
      <trkpt lat="42.421234" lon="2.483062">
        <ele>1199.521</ele>
        <time>2021-05-28T09:07:37Z</time>
      </trkpt>
      <trkpt lat="42.421254" lon="2.483074">
        <ele>1200.008</ele>
        <time>2021-05-28T09:07:39Z</time>
      </trkpt>
      <trkpt lat="42.421271" lon="2.483108">
        <ele>1200.366</ele>
        <time>2021-05-28T09:07:42Z</time>
      </trkpt>
      <trkpt lat="42.421292" lon="2.483134">
        <ele>1200.783</ele>
        <time>2021-05-28T09:07:44Z</time>
      </trkpt>
      <trkpt lat="42.421303" lon="2.483154">
        <ele>1200.944</ele>
        <time>2021-05-28T09:07:46Z</time>
      </trkpt>
      <trkpt lat="42.421320" lon="2.483177">
        <ele>1201.223</ele>
        <time>2021-05-28T09:07:48Z</time>
      </trkpt>
      <trkpt lat="42.421330" lon="2.483204">
        <ele>1201.350</ele>
        <time>2021-05-28T09:07:50Z</time>
      </trkpt>
      <trkpt lat="42.421340" lon="2.483235">
        <ele>1201.435</ele>
        <time>2021-05-28T09:07:52Z</time>
      </trkpt>
      <trkpt lat="42.421353" lon="2.483259">
        <ele>1201.622</ele>
        <time>2021-05-28T09:07:54Z</time>
      </trkpt>
      <trkpt lat="42.421375" lon="2.483281">
        <ele>1202.040</ele>
        <time>2021-05-28T09:07:56Z</time>
      </trkpt>
      <trkpt lat="42.421393" lon="2.483297">
        <ele>1202.347</ele>
        <time>2021-05-28T09:08:00Z</time>
      </trkpt>
      <trkpt lat="42.421409" lon="2.483314">
        <ele>1202.629</ele>
        <time>2021-05-28T09:08:02Z</time>
      </trkpt>
      <trkpt lat="42.421425" lon="2.483339">
        <ele>1202.821</ele>
        <time>2021-05-28T09:08:04Z</time>
      </trkpt>
      <trkpt lat="42.421440" lon="2.483362">
        <ele>1203.008</ele>
        <time>2021-05-28T09:08:06Z</time>
      </trkpt>
      <trkpt lat="42.421460" lon="2.483383">
        <ele>1203.451</ele>
        <time>2021-05-28T09:08:08Z</time>
      </trkpt>
      <trkpt lat="42.421478" lon="2.483411">
        <ele>1203.648</ele>
        <time>2021-05-28T09:08:11Z</time>
      </trkpt>
      <trkpt lat="42.421501" lon="2.483431">
        <ele>1204.189</ele>
        <time>2021-05-28T09:08:14Z</time>
      </trkpt>
      <trkpt lat="42.421516" lon="2.483445">
        <ele>1204.338</ele>
        <time>2021-05-28T09:08:16Z</time>
      </trkpt>
      <trkpt lat="42.421534" lon="2.483453">
        <ele>1204.775</ele>
        <time>2021-05-28T09:08:18Z</time>
      </trkpt>
      <trkpt lat="42.421557" lon="2.483473">
        <ele>1205.120</ele>
        <time>2021-05-28T09:08:21Z</time>
      </trkpt>
      <trkpt lat="42.421572" lon="2.483486">
        <ele>1205.427</ele>
        <time>2021-05-28T09:08:23Z</time>
      </trkpt>
      <trkpt lat="42.421591" lon="2.483493">
        <ele>1205.845</ele>
        <time>2021-05-28T09:08:25Z</time>
      </trkpt>
      <trkpt lat="42.421613" lon="2.483517">
        <ele>1206.228</ele>
        <time>2021-05-28T09:08:28Z</time>
      </trkpt>
      <trkpt lat="42.421628" lon="2.483530">
        <ele>1206.589</ele>
        <time>2021-05-28T09:08:30Z</time>
      </trkpt>
      <trkpt lat="42.421650" lon="2.483551">
        <ele>1206.917</ele>
        <time>2021-05-28T09:08:33Z</time>
      </trkpt>
      <trkpt lat="42.421667" lon="2.483565">
        <ele>1207.208</ele>
        <time>2021-05-28T09:08:35Z</time>
      </trkpt>
      <trkpt lat="42.421687" lon="2.483576">
        <ele>1207.539</ele>
        <time>2021-05-28T09:08:38Z</time>
      </trkpt>
      <trkpt lat="42.421707" lon="2.483590">
        <ele>1207.876</ele>
        <time>2021-05-28T09:08:41Z</time>
      </trkpt>
      <trkpt lat="42.421729" lon="2.483606">
        <ele>1208.137</ele>
        <time>2021-05-28T09:08:44Z</time>
      </trkpt>
      <trkpt lat="42.421748" lon="2.483610">
        <ele>1208.596</ele>
        <time>2021-05-28T09:08:46Z</time>
      </trkpt>
      <trkpt lat="42.421765" lon="2.483602">
        <ele>1208.893</ele>
        <time>2021-05-28T09:08:50Z</time>
      </trkpt>
      <trkpt lat="42.421791" lon="2.483583">
        <ele>1209.478</ele>
        <time>2021-05-28T09:08:53Z</time>
      </trkpt>
      <trkpt lat="42.421811" lon="2.483581">
        <ele>1209.875</ele>
        <time>2021-05-28T09:08:55Z</time>
      </trkpt>
      <trkpt lat="42.421831" lon="2.483594">
        <ele>1210.163</ele>
        <time>2021-05-28T09:08:57Z</time>
      </trkpt>
      <trkpt lat="42.421844" lon="2.483633">
        <ele>1210.182</ele>
        <time>2021-05-28T09:09:00Z</time>
      </trkpt>
      <trkpt lat="42.421864" lon="2.483653">
        <ele>1210.443</ele>
        <time>2021-05-28T09:09:02Z</time>
      </trkpt>
      <trkpt lat="42.421874" lon="2.483681">
        <ele>1210.517</ele>
        <time>2021-05-28T09:09:06Z</time>
      </trkpt>
      <trkpt lat="42.421901" lon="2.483700">
        <ele>1210.908</ele>
        <time>2021-05-28T09:09:08Z</time>
      </trkpt>
      <trkpt lat="42.421923" lon="2.483694">
        <ele>1211.315</ele>
        <time>2021-05-28T09:09:10Z</time>
      </trkpt>
      <trkpt lat="42.421944" lon="2.483683">
        <ele>1211.762</ele>
        <time>2021-05-28T09:09:12Z</time>
      </trkpt>
      <trkpt lat="42.421968" lon="2.483679">
        <ele>1212.373</ele>
        <time>2021-05-28T09:09:14Z</time>
      </trkpt>
      <trkpt lat="42.421990" lon="2.483670">
        <ele>1212.912</ele>
        <time>2021-05-28T09:09:16Z</time>
      </trkpt>
      <trkpt lat="42.422019" lon="2.483666">
        <ele>1213.699</ele>
        <time>2021-05-28T09:09:18Z</time>
      </trkpt>
      <trkpt lat="42.422047" lon="2.483662">
        <ele>1214.324</ele>
        <time>2021-05-28T09:09:20Z</time>
      </trkpt>
      <trkpt lat="42.422069" lon="2.483662">
        <ele>1214.851</ele>
        <time>2021-05-28T09:09:22Z</time>
      </trkpt>
      <trkpt lat="42.422096" lon="2.483661">
        <ele>1215.419</ele>
        <time>2021-05-28T09:09:25Z</time>
      </trkpt>
      <trkpt lat="42.422116" lon="2.483656">
        <ele>1216.082</ele>
        <time>2021-05-28T09:09:27Z</time>
      </trkpt>
      <trkpt lat="42.422140" lon="2.483649">
        <ele>1216.643</ele>
        <time>2021-05-28T09:09:29Z</time>
      </trkpt>
      <trkpt lat="42.422163" lon="2.483643">
        <ele>1217.217</ele>
        <time>2021-05-28T09:09:31Z</time>
      </trkpt>
      <trkpt lat="42.422182" lon="2.483638">
        <ele>1217.708</ele>
        <time>2021-05-28T09:09:33Z</time>
      </trkpt>
      <trkpt lat="42.422200" lon="2.483630">
        <ele>1218.255</ele>
        <time>2021-05-28T09:09:35Z</time>
      </trkpt>
      <trkpt lat="42.422223" lon="2.483620">
        <ele>1218.992</ele>
        <time>2021-05-28T09:09:40Z</time>
      </trkpt>
      <trkpt lat="42.422248" lon="2.483606">
        <ele>1219.373</ele>
        <time>2021-05-28T09:09:43Z</time>
      </trkpt>
      <trkpt lat="42.422271" lon="2.483598">
        <ele>1219.692</ele>
        <time>2021-05-28T09:09:46Z</time>
      </trkpt>
      <trkpt lat="42.422290" lon="2.483597">
        <ele>1219.849</ele>
        <time>2021-05-28T09:09:48Z</time>
      </trkpt>
      <trkpt lat="42.422309" lon="2.483594">
        <ele>1220.184</ele>
        <time>2021-05-28T09:09:50Z</time>
      </trkpt>
      <trkpt lat="42.422333" lon="2.483598">
        <ele>1220.331</ele>
        <time>2021-05-28T09:09:53Z</time>
      </trkpt>
      <trkpt lat="42.422332" lon="2.483632">
        <ele>1220.089</ele>
        <time>2021-05-28T09:09:59Z</time>
      </trkpt>
      <trkpt lat="42.422335" lon="2.483656">
        <ele>1219.775</ele>
        <time>2021-05-28T09:10:01Z</time>
      </trkpt>
      <trkpt lat="42.422347" lon="2.483679">
        <ele>1219.628</ele>
        <time>2021-05-28T09:10:05Z</time>
      </trkpt>
      <trkpt lat="42.422358" lon="2.483701">
        <ele>1219.520</ele>
        <time>2021-05-28T09:10:07Z</time>
      </trkpt>
      <trkpt lat="42.422370" lon="2.483727">
        <ele>1219.308</ele>
        <time>2021-05-28T09:10:10Z</time>
      </trkpt>
      <trkpt lat="42.422381" lon="2.483749">
        <ele>1219.244</ele>
        <time>2021-05-28T09:10:13Z</time>
      </trkpt>
      <trkpt lat="42.422397" lon="2.483771">
        <ele>1219.251</ele>
        <time>2021-05-28T09:10:15Z</time>
      </trkpt>
      <trkpt lat="42.422412" lon="2.483789">
        <ele>1219.122</ele>
        <time>2021-05-28T09:10:18Z</time>
      </trkpt>
      <trkpt lat="42.422427" lon="2.483806">
        <ele>1219.151</ele>
        <time>2021-05-28T09:10:20Z</time>
      </trkpt>
      <trkpt lat="42.422438" lon="2.483831">
        <ele>1219.048</ele>
        <time>2021-05-28T09:10:22Z</time>
      </trkpt>
      <trkpt lat="42.422454" lon="2.483880">
        <ele>1218.653</ele>
        <time>2021-05-28T09:10:25Z</time>
      </trkpt>
      <trkpt lat="42.422473" lon="2.483892">
        <ele>1218.780</ele>
        <time>2021-05-28T09:10:35Z</time>
      </trkpt>
      <trkpt lat="42.422471" lon="2.483928">
        <ele>1218.078</ele>
        <time>2021-05-28T09:10:38Z</time>
      </trkpt>
      <trkpt lat="42.422466" lon="2.483961">
        <ele>1217.437</ele>
        <time>2021-05-28T09:10:41Z</time>
      </trkpt>
      <trkpt lat="42.422487" lon="2.484002">
        <ele>1216.949</ele>
        <time>2021-05-28T09:10:44Z</time>
      </trkpt>
      <trkpt lat="42.422508" lon="2.484010">
        <ele>1216.713</ele>
        <time>2021-05-28T09:10:46Z</time>
      </trkpt>
      <trkpt lat="42.422534" lon="2.484053">
        <ele>1215.708</ele>
        <time>2021-05-28T09:10:50Z</time>
      </trkpt>
      <trkpt lat="42.422546" lon="2.484074">
        <ele>1215.160</ele>
        <time>2021-05-28T09:10:52Z</time>
      </trkpt>
      <trkpt lat="42.422562" lon="2.484098">
        <ele>1214.527</ele>
        <time>2021-05-28T09:10:54Z</time>
      </trkpt>
      <trkpt lat="42.422576" lon="2.484122">
        <ele>1213.858</ele>
        <time>2021-05-28T09:10:56Z</time>
      </trkpt>
      <trkpt lat="42.422600" lon="2.484137">
        <ele>1213.217</ele>
        <time>2021-05-28T09:10:58Z</time>
      </trkpt>
      <trkpt lat="42.422631" lon="2.484136">
        <ele>1212.844</ele>
        <time>2021-05-28T09:11:00Z</time>
      </trkpt>
      <trkpt lat="42.422662" lon="2.484141">
        <ele>1212.229</ele>
        <time>2021-05-28T09:11:02Z</time>
      </trkpt>
      <trkpt lat="42.422756" lon="2.484126">
        <ele>1211.356</ele>
        <time>2021-05-28T09:11:09Z</time>
      </trkpt>
      <trkpt lat="42.422774" lon="2.484119">
        <ele>1211.364</ele>
        <time>2021-05-28T09:11:10Z</time>
      </trkpt>
      <trkpt lat="42.422809" lon="2.484109">
        <ele>1211.736</ele>
        <time>2021-05-28T09:11:12Z</time>
      </trkpt>
      <trkpt lat="42.422835" lon="2.484098">
        <ele>1212.117</ele>
        <time>2021-05-28T09:11:14Z</time>
      </trkpt>
      <trkpt lat="42.422856" lon="2.484082">
        <ele>1212.618</ele>
        <time>2021-05-28T09:11:16Z</time>
      </trkpt>
      <trkpt lat="42.422882" lon="2.484079">
        <ele>1212.808</ele>
        <time>2021-05-28T09:11:18Z</time>
      </trkpt>
      <trkpt lat="42.422908" lon="2.484076">
        <ele>1213.150</ele>
        <time>2021-05-28T09:11:20Z</time>
      </trkpt>
      <trkpt lat="42.422933" lon="2.484072">
        <ele>1213.347</ele>
        <time>2021-05-28T09:11:22Z</time>
      </trkpt>
      <trkpt lat="42.422956" lon="2.484074">
        <ele>1213.458</ele>
        <time>2021-05-28T09:11:24Z</time>
      </trkpt>
      <trkpt lat="42.422977" lon="2.484078">
        <ele>1213.417</ele>
        <time>2021-05-28T09:11:26Z</time>
      </trkpt>
      <trkpt lat="42.423002" lon="2.484079">
        <ele>1213.644</ele>
        <time>2021-05-28T09:11:28Z</time>
      </trkpt>
      <trkpt lat="42.423026" lon="2.484083">
        <ele>1213.619</ele>
        <time>2021-05-28T09:11:30Z</time>
      </trkpt>
      <trkpt lat="42.423117" lon="2.484124">
        <ele>1212.426</ele>
        <time>2021-05-28T09:11:37Z</time>
      </trkpt>
      <trkpt lat="42.423136" lon="2.484123">
        <ele>1212.274</ele>
        <time>2021-05-28T09:11:39Z</time>
      </trkpt>
      <trkpt lat="42.423163" lon="2.484113">
        <ele>1212.232</ele>
        <time>2021-05-28T09:11:42Z</time>
      </trkpt>
      <trkpt lat="42.423253" lon="2.484121">
        <ele>1211.292</ele>
        <time>2021-05-28T09:11:52Z</time>
      </trkpt>
      <trkpt lat="42.423270" lon="2.484130">
        <ele>1210.811</ele>
        <time>2021-05-28T09:11:54Z</time>
      </trkpt>
      <trkpt lat="42.423294" lon="2.484124">
        <ele>1210.708</ele>
        <time>2021-05-28T09:11:57Z</time>
      </trkpt>
      <trkpt lat="42.423316" lon="2.484120">
        <ele>1210.740</ele>
        <time>2021-05-28T09:12:00Z</time>
      </trkpt>
      <trkpt lat="42.423340" lon="2.484126">
        <ele>1210.317</ele>
        <time>2021-05-28T09:12:04Z</time>
      </trkpt>
      <trkpt lat="42.423362" lon="2.484123">
        <ele>1210.278</ele>
        <time>2021-05-28T09:12:07Z</time>
      </trkpt>
      <trkpt lat="42.423374" lon="2.484092">
        <ele>1211.227</ele>
        <time>2021-05-28T09:12:13Z</time>
      </trkpt>
      <trkpt lat="42.423440" lon="2.484094">
        <ele>1210.754</ele>
        <time>2021-05-28T09:12:21Z</time>
      </trkpt>
      <trkpt lat="42.423473" lon="2.484077">
        <ele>1211.169</ele>
        <time>2021-05-28T09:12:31Z</time>
      </trkpt>
      <trkpt lat="42.423444" lon="2.484090">
        <ele>1210.856</ele>
        <time>2021-05-28T09:12:42Z</time>
      </trkpt>
      <trkpt lat="42.423442" lon="2.484025">
        <ele>1213.034</ele>
        <time>2021-05-28T09:12:53Z</time>
      </trkpt>
      <trkpt lat="42.423458" lon="2.483989">
        <ele>1214.184</ele>
        <time>2021-05-28T09:12:58Z</time>
      </trkpt>
      <trkpt lat="42.423435" lon="2.483995">
        <ele>1214.107</ele>
        <time>2021-05-28T09:13:01Z</time>
      </trkpt>
      <trkpt lat="42.423415" lon="2.483986">
        <ele>1214.517</ele>
        <time>2021-05-28T09:13:03Z</time>
      </trkpt>
      <trkpt lat="42.423407" lon="2.483962">
        <ele>1215.308</ele>
        <time>2021-05-28T09:13:13Z</time>
      </trkpt>
      <trkpt lat="42.423430" lon="2.483941">
        <ele>1215.945</ele>
        <time>2021-05-28T09:13:19Z</time>
      </trkpt>
      <trkpt lat="42.423452" lon="2.483924">
        <ele>1216.432</ele>
        <time>2021-05-28T09:13:22Z</time>
      </trkpt>
      <trkpt lat="42.423497" lon="2.483902">
        <ele>1217.013</ele>
        <time>2021-05-28T09:13:28Z</time>
      </trkpt>
      <trkpt lat="42.423517" lon="2.483895">
        <ele>1217.192</ele>
        <time>2021-05-28T09:13:30Z</time>
      </trkpt>
      <trkpt lat="42.423556" lon="2.483904">
        <ele>1216.789</ele>
        <time>2021-05-28T09:13:35Z</time>
      </trkpt>
      <trkpt lat="42.423595" lon="2.483869">
        <ele>1217.944</ele>
        <time>2021-05-28T09:13:41Z</time>
      </trkpt>
      <trkpt lat="42.423612" lon="2.483850">
        <ele>1218.791</ele>
        <time>2021-05-28T09:13:44Z</time>
      </trkpt>
      <trkpt lat="42.423627" lon="2.483829">
        <ele>1220.019</ele>
        <time>2021-05-28T09:13:48Z</time>
      </trkpt>
      <trkpt lat="42.423643" lon="2.483810">
        <ele>1221.229</ele>
        <time>2021-05-28T09:13:53Z</time>
      </trkpt>
      <trkpt lat="42.423661" lon="2.483792">
        <ele>1222.300</ele>
        <time>2021-05-28T09:13:57Z</time>
      </trkpt>
      <trkpt lat="42.423682" lon="2.483763">
        <ele>1223.920</ele>
        <time>2021-05-28T09:14:02Z</time>
      </trkpt>
      <trkpt lat="42.423697" lon="2.483743">
        <ele>1225.008</ele>
        <time>2021-05-28T09:14:05Z</time>
      </trkpt>
      <trkpt lat="42.423722" lon="2.483742">
        <ele>1225.549</ele>
        <time>2021-05-28T09:14:10Z</time>
      </trkpt>
      <trkpt lat="42.423743" lon="2.483727">
        <ele>1226.496</ele>
        <time>2021-05-28T09:14:16Z</time>
      </trkpt>
      <trkpt lat="42.423762" lon="2.483724">
        <ele>1226.927</ele>
        <time>2021-05-28T09:14:20Z</time>
      </trkpt>
      <trkpt lat="42.423796" lon="2.483682">
        <ele>1228.816</ele>
        <time>2021-05-28T09:14:34Z</time>
      </trkpt>
      <trkpt lat="42.423813" lon="2.483670">
        <ele>1229.423</ele>
        <time>2021-05-28T09:14:37Z</time>
      </trkpt>
      <trkpt lat="42.423836" lon="2.483653">
        <ele>1230.228</ele>
        <time>2021-05-28T09:14:40Z</time>
      </trkpt>
      <trkpt lat="42.423847" lon="2.483631">
        <ele>1231.035</ele>
        <time>2021-05-28T09:14:44Z</time>
      </trkpt>
      <trkpt lat="42.423900" lon="2.483611">
        <ele>1232.593</ele>
        <time>2021-05-28T09:14:53Z</time>
      </trkpt>
      <trkpt lat="42.423905" lon="2.483581">
        <ele>1233.861</ele>
        <time>2021-05-28T09:14:58Z</time>
      </trkpt>
      <trkpt lat="42.423864" lon="2.483535">
        <ele>1234.521</ele>
        <time>2021-05-28T09:15:04Z</time>
      </trkpt>
      <trkpt lat="42.423894" lon="2.483517">
        <ele>1235.613</ele>
        <time>2021-05-28T09:15:12Z</time>
      </trkpt>
      <trkpt lat="42.423924" lon="2.483413">
        <ele>1240.308</ele>
        <time>2021-05-28T09:15:29Z</time>
      </trkpt>
      <trkpt lat="42.423945" lon="2.483433">
        <ele>1240.353</ele>
        <time>2021-05-28T09:15:43Z</time>
      </trkpt>
      <trkpt lat="42.423962" lon="2.483448">
        <ele>1240.450</ele>
        <time>2021-05-28T09:15:47Z</time>
      </trkpt>
      <trkpt lat="42.423984" lon="2.483433">
        <ele>1241.651</ele>
        <time>2021-05-28T09:15:52Z</time>
      </trkpt>
      <trkpt lat="42.424030" lon="2.483545">
        <ele>1240.010</ele>
        <time>2021-05-28T09:16:08Z</time>
      </trkpt>
      <trkpt lat="42.424096" lon="2.483568">
        <ele>1242.017</ele>
        <time>2021-05-28T09:16:18Z</time>
      </trkpt>
      <trkpt lat="42.424120" lon="2.483643">
        <ele>1241.052</ele>
        <time>2021-05-28T09:16:27Z</time>
      </trkpt>
      <trkpt lat="42.424176" lon="2.483667">
        <ele>1242.489</ele>
        <time>2021-05-28T09:16:35Z</time>
      </trkpt>
      <trkpt lat="42.424201" lon="2.483706">
        <ele>1241.817</ele>
        <time>2021-05-28T09:16:40Z</time>
      </trkpt>
      <trkpt lat="42.424221" lon="2.483730">
        <ele>1241.616</ele>
        <time>2021-05-28T09:16:44Z</time>
      </trkpt>
      <trkpt lat="42.424246" lon="2.483757">
        <ele>1241.476</ele>
        <time>2021-05-28T09:16:47Z</time>
      </trkpt>
      <trkpt lat="42.424264" lon="2.483750">
        <ele>1242.113</ele>
        <time>2021-05-28T09:16:49Z</time>
      </trkpt>
      <trkpt lat="42.424290" lon="2.483755">
        <ele>1242.708</ele>
        <time>2021-05-28T09:16:52Z</time>
      </trkpt>
      <trkpt lat="42.424317" lon="2.483757">
        <ele>1243.358</ele>
        <time>2021-05-28T09:16:55Z</time>
      </trkpt>
      <trkpt lat="42.424368" lon="2.483803">
        <ele>1243.445</ele>
        <time>2021-05-28T09:17:01Z</time>
      </trkpt>
      <trkpt lat="42.424388" lon="2.483814">
        <ele>1243.676</ele>
        <time>2021-05-28T09:17:04Z</time>
      </trkpt>
      <trkpt lat="42.424454" lon="2.483781">
        <ele>1246.355</ele>
        <time>2021-05-28T09:17:11Z</time>
      </trkpt>
      <trkpt lat="42.424473" lon="2.483769">
        <ele>1247.022</ele>
        <time>2021-05-28T09:17:16Z</time>
      </trkpt>
      <trkpt lat="42.424558" lon="2.483814">
        <ele>1247.337</ele>
        <time>2021-05-28T09:17:29Z</time>
      </trkpt>
      <trkpt lat="42.424583" lon="2.483800">
        <ele>1248.254</ele>
        <time>2021-05-28T09:17:33Z</time>
      </trkpt>
      <trkpt lat="42.424607" lon="2.483808">
        <ele>1248.442</ele>
        <time>2021-05-28T09:17:37Z</time>
      </trkpt>
      <trkpt lat="42.424624" lon="2.483791">
        <ele>1249.376</ele>
        <time>2021-05-28T09:17:40Z</time>
      </trkpt>
      <trkpt lat="42.424717" lon="2.483772">
        <ele>1251.790</ele>
        <time>2021-05-28T09:17:51Z</time>
      </trkpt>
      <trkpt lat="42.424775" lon="2.483758">
        <ele>1253.519</ele>
        <time>2021-05-28T09:18:01Z</time>
      </trkpt>
      <trkpt lat="42.424811" lon="2.483744">
        <ele>1254.808</ele>
        <time>2021-05-28T09:18:09Z</time>
      </trkpt>
      <trkpt lat="42.424844" lon="2.483691">
        <ele>1257.284</ele>
        <time>2021-05-28T09:18:17Z</time>
      </trkpt>
      <trkpt lat="42.424862" lon="2.483698">
        <ele>1257.441</ele>
        <time>2021-05-28T09:18:21Z</time>
      </trkpt>
      <trkpt lat="42.424882" lon="2.483693">
        <ele>1258.092</ele>
        <time>2021-05-28T09:18:24Z</time>
      </trkpt>
      <trkpt lat="42.424905" lon="2.483697">
        <ele>1258.481</ele>
        <time>2021-05-28T09:18:27Z</time>
      </trkpt>
      <trkpt lat="42.424926" lon="2.483701">
        <ele>1258.748</ele>
        <time>2021-05-28T09:18:31Z</time>
      </trkpt>
      <trkpt lat="42.424946" lon="2.483702">
        <ele>1259.233</ele>
        <time>2021-05-28T09:18:35Z</time>
      </trkpt>
      <trkpt lat="42.425034" lon="2.483681">
        <ele>1261.530</ele>
        <time>2021-05-28T09:18:46Z</time>
      </trkpt>
      <trkpt lat="42.425124" lon="2.483686">
        <ele>1262.698</ele>
        <time>2021-05-28T09:18:57Z</time>
      </trkpt>
      <trkpt lat="42.425141" lon="2.483662">
        <ele>1263.694</ele>
        <time>2021-05-28T09:19:01Z</time>
      </trkpt>
      <trkpt lat="42.425157" lon="2.483645">
        <ele>1264.357</ele>
        <time>2021-05-28T09:19:03Z</time>
      </trkpt>
      <trkpt lat="42.425175" lon="2.483650">
        <ele>1264.422</ele>
        <time>2021-05-28T09:19:06Z</time>
      </trkpt>
      <trkpt lat="42.425193" lon="2.483661">
        <ele>1264.308</ele>
        <time>2021-05-28T09:19:09Z</time>
      </trkpt>
      <trkpt lat="42.425214" lon="2.483670">
        <ele>1264.436</ele>
        <time>2021-05-28T09:19:13Z</time>
      </trkpt>
      <trkpt lat="42.425237" lon="2.483660">
        <ele>1265.013</ele>
        <time>2021-05-28T09:19:19Z</time>
      </trkpt>
      <trkpt lat="42.425259" lon="2.483654">
        <ele>1265.524</ele>
        <time>2021-05-28T09:19:22Z</time>
      </trkpt>
      <trkpt lat="42.425296" lon="2.483626">
        <ele>1266.663</ele>
        <time>2021-05-28T09:19:29Z</time>
      </trkpt>
      <trkpt lat="42.425379" lon="2.483638">
        <ele>1266.130</ele>
        <time>2021-05-28T09:19:45Z</time>
      </trkpt>
      <trkpt lat="42.425402" lon="2.483651">
        <ele>1265.685</ele>
        <time>2021-05-28T09:19:50Z</time>
      </trkpt>
      <trkpt lat="42.425427" lon="2.483647">
        <ele>1265.712</ele>
        <time>2021-05-28T09:19:53Z</time>
      </trkpt>
      <trkpt lat="42.425452" lon="2.483639">
        <ele>1265.960</ele>
        <time>2021-05-28T09:19:55Z</time>
      </trkpt>
      <trkpt lat="42.425473" lon="2.483640">
        <ele>1265.926</ele>
        <time>2021-05-28T09:19:58Z</time>
      </trkpt>
      <trkpt lat="42.425500" lon="2.483628">
        <ele>1266.347</ele>
        <time>2021-05-28T09:20:01Z</time>
      </trkpt>
      <trkpt lat="42.425518" lon="2.483602">
        <ele>1267.311</ele>
        <time>2021-05-28T09:20:04Z</time>
      </trkpt>
      <trkpt lat="42.425536" lon="2.483592">
        <ele>1267.708</ele>
        <time>2021-05-28T09:20:07Z</time>
      </trkpt>
      <trkpt lat="42.425588" lon="2.483546">
        <ele>1269.089</ele>
        <time>2021-05-28T09:20:13Z</time>
      </trkpt>
      <trkpt lat="42.425596" lon="2.483571">
        <ele>1267.996</ele>
        <time>2021-05-28T09:20:21Z</time>
      </trkpt>
      <trkpt lat="42.425611" lon="2.483597">
        <ele>1266.887</ele>
        <time>2021-05-28T09:20:24Z</time>
      </trkpt>
      <trkpt lat="42.425623" lon="2.483620">
        <ele>1265.616</ele>
        <time>2021-05-28T09:20:26Z</time>
      </trkpt>
      <trkpt lat="42.425644" lon="2.483630">
        <ele>1264.983</ele>
        <time>2021-05-28T09:20:29Z</time>
      </trkpt>
      <trkpt lat="42.425663" lon="2.483615">
        <ele>1265.348</ele>
        <time>2021-05-28T09:20:32Z</time>
      </trkpt>
      <trkpt lat="42.425682" lon="2.483593">
        <ele>1266.045</ele>
        <time>2021-05-28T09:20:34Z</time>
      </trkpt>
      <trkpt lat="42.425701" lon="2.483585">
        <ele>1266.053</ele>
        <time>2021-05-28T09:20:38Z</time>
      </trkpt>
      <trkpt lat="42.425718" lon="2.483579">
        <ele>1266.188</ele>
        <time>2021-05-28T09:20:40Z</time>
      </trkpt>
      <trkpt lat="42.425740" lon="2.483570">
        <ele>1266.224</ele>
        <time>2021-05-28T09:20:42Z</time>
      </trkpt>
      <trkpt lat="42.425758" lon="2.483563">
        <ele>1266.326</ele>
        <time>2021-05-28T09:20:44Z</time>
      </trkpt>
      <trkpt lat="42.425775" lon="2.483565">
        <ele>1266.008</ele>
        <time>2021-05-28T09:20:47Z</time>
      </trkpt>
      <trkpt lat="42.425794" lon="2.483559">
        <ele>1266.155</ele>
        <time>2021-05-28T09:20:50Z</time>
      </trkpt>
      <trkpt lat="42.425817" lon="2.483557">
        <ele>1265.912</ele>
        <time>2021-05-28T09:20:53Z</time>
      </trkpt>
      <trkpt lat="42.425835" lon="2.483551">
        <ele>1266.083</ele>
        <time>2021-05-28T09:20:55Z</time>
      </trkpt>
      <trkpt lat="42.425855" lon="2.483563">
        <ele>1265.042</ele>
        <time>2021-05-28T09:20:58Z</time>
      </trkpt>
      <trkpt lat="42.425876" lon="2.483545">
        <ele>1265.499</ele>
        <time>2021-05-28T09:21:05Z</time>
      </trkpt>
      <trkpt lat="42.425893" lon="2.483529">
        <ele>1265.824</ele>
        <time>2021-05-28T09:21:08Z</time>
      </trkpt>
      <trkpt lat="42.425972" lon="2.483455">
        <ele>1267.941</ele>
        <time>2021-05-28T09:21:19Z</time>
      </trkpt>
      <trkpt lat="42.425998" lon="2.483444">
        <ele>1267.949</ele>
        <time>2021-05-28T09:21:22Z</time>
      </trkpt>
      <trkpt lat="42.426020" lon="2.483433">
        <ele>1267.944</ele>
        <time>2021-05-28T09:21:24Z</time>
      </trkpt>
      <trkpt lat="42.426047" lon="2.483432">
        <ele>1267.405</ele>
        <time>2021-05-28T09:21:27Z</time>
      </trkpt>
      <trkpt lat="42.426071" lon="2.483421">
        <ele>1267.415</ele>
        <time>2021-05-28T09:21:30Z</time>
      </trkpt>
      <trkpt lat="42.426101" lon="2.483371">
        <ele>1269.308</ele>
        <time>2021-05-28T09:21:37Z</time>
      </trkpt>
      <trkpt lat="42.426120" lon="2.483356">
        <ele>1269.711</ele>
        <time>2021-05-28T09:21:41Z</time>
      </trkpt>
      <trkpt lat="42.426139" lon="2.483357">
        <ele>1269.288</ele>
        <time>2021-05-28T09:21:43Z</time>
      </trkpt>
      <trkpt lat="42.426157" lon="2.483347">
        <ele>1269.339</ele>
        <time>2021-05-28T09:21:46Z</time>
      </trkpt>
      <trkpt lat="42.426176" lon="2.483336">
        <ele>1269.558</ele>
        <time>2021-05-28T09:21:50Z</time>
      </trkpt>
      <trkpt lat="42.426197" lon="2.483320">
        <ele>1269.845</ele>
        <time>2021-05-28T09:21:54Z</time>
      </trkpt>
      <trkpt lat="42.426216" lon="2.483305">
        <ele>1270.180</ele>
        <time>2021-05-28T09:21:59Z</time>
      </trkpt>
      <trkpt lat="42.426235" lon="2.483312">
        <ele>1269.457</ele>
        <time>2021-05-28T09:22:03Z</time>
      </trkpt>
      <trkpt lat="42.426250" lon="2.483298">
        <ele>1269.865</ele>
        <time>2021-05-28T09:22:06Z</time>
      </trkpt>
      <trkpt lat="42.426253" lon="2.483272">
        <ele>1271.032</ele>
        <time>2021-05-28T09:22:09Z</time>
      </trkpt>
      <trkpt lat="42.426262" lon="2.483246">
        <ele>1272.292</ele>
        <time>2021-05-28T09:22:13Z</time>
      </trkpt>
      <trkpt lat="42.426283" lon="2.483241">
        <ele>1272.011</ele>
        <time>2021-05-28T09:22:16Z</time>
      </trkpt>
      <trkpt lat="42.426330" lon="2.483212">
        <ele>1272.608</ele>
        <time>2021-05-28T09:22:22Z</time>
      </trkpt>
      <trkpt lat="42.426357" lon="2.483203">
        <ele>1272.610</ele>
        <time>2021-05-28T09:22:25Z</time>
      </trkpt>
      <trkpt lat="42.426376" lon="2.483197">
        <ele>1272.667</ele>
        <time>2021-05-28T09:22:27Z</time>
      </trkpt>
      <trkpt lat="42.426391" lon="2.483183">
        <ele>1273.168</ele>
        <time>2021-05-28T09:22:29Z</time>
      </trkpt>
      <trkpt lat="42.426411" lon="2.483180">
        <ele>1272.897</ele>
        <time>2021-05-28T09:22:32Z</time>
      </trkpt>
      <trkpt lat="42.426434" lon="2.483155">
        <ele>1273.844</ele>
        <time>2021-05-28T09:22:35Z</time>
      </trkpt>
      <trkpt lat="42.426465" lon="2.483131">
        <ele>1274.529</ele>
        <time>2021-05-28T09:22:38Z</time>
      </trkpt>
      <trkpt lat="42.426489" lon="2.483115">
        <ele>1274.976</ele>
        <time>2021-05-28T09:22:41Z</time>
      </trkpt>
      <trkpt lat="42.426500" lon="2.483095">
        <ele>1275.894</ele>
        <time>2021-05-28T09:22:43Z</time>
      </trkpt>
      <trkpt lat="42.426535" lon="2.483056">
        <ele>1277.359</ele>
        <time>2021-05-28T09:22:49Z</time>
      </trkpt>
      <trkpt lat="42.426550" lon="2.483039">
        <ele>1277.803</ele>
        <time>2021-05-28T09:22:51Z</time>
      </trkpt>
      <trkpt lat="42.426574" lon="2.483031">
        <ele>1277.823</ele>
        <time>2021-05-28T09:22:55Z</time>
      </trkpt>
      <trkpt lat="42.426592" lon="2.483020">
        <ele>1278.008</ele>
        <time>2021-05-28T09:22:57Z</time>
      </trkpt>
      <trkpt lat="42.426617" lon="2.483014">
        <ele>1277.862</ele>
        <time>2021-05-28T09:22:59Z</time>
      </trkpt>
      <trkpt lat="42.426642" lon="2.483002">
        <ele>1277.999</ele>
        <time>2021-05-28T09:23:01Z</time>
      </trkpt>
      <trkpt lat="42.426661" lon="2.482992">
        <ele>1278.170</ele>
        <time>2021-05-28T09:23:03Z</time>
      </trkpt>
      <trkpt lat="42.426684" lon="2.482969">
        <ele>1278.689</ele>
        <time>2021-05-28T09:23:06Z</time>
      </trkpt>
      <trkpt lat="42.426715" lon="2.482952">
        <ele>1278.636</ele>
        <time>2021-05-28T09:23:10Z</time>
      </trkpt>
      <trkpt lat="42.426738" lon="2.482950">
        <ele>1278.291</ele>
        <time>2021-05-28T09:23:13Z</time>
      </trkpt>
      <trkpt lat="42.426758" lon="2.482944">
        <ele>1278.038</ele>
        <time>2021-05-28T09:23:18Z</time>
      </trkpt>
      <trkpt lat="42.426842" lon="2.482885">
        <ele>1279.176</ele>
        <time>2021-05-28T09:23:29Z</time>
      </trkpt>
      <trkpt lat="42.426861" lon="2.482884">
        <ele>1278.768</ele>
        <time>2021-05-28T09:23:34Z</time>
      </trkpt>
      <trkpt lat="42.426881" lon="2.482867">
        <ele>1279.242</ele>
        <time>2021-05-28T09:23:37Z</time>
      </trkpt>
      <trkpt lat="42.426900" lon="2.482852">
        <ele>1279.726</ele>
        <time>2021-05-28T09:23:40Z</time>
      </trkpt>
      <trkpt lat="42.426973" lon="2.482817">
        <ele>1279.908</ele>
        <time>2021-05-28T09:23:50Z</time>
      </trkpt>
      <trkpt lat="42.426998" lon="2.482813">
        <ele>1279.523</ele>
        <time>2021-05-28T09:23:52Z</time>
      </trkpt>
      <trkpt lat="42.427018" lon="2.482806">
        <ele>1279.350</ele>
        <time>2021-05-28T09:23:54Z</time>
      </trkpt>
      <trkpt lat="42.427047" lon="2.482796">
        <ele>1279.021</ele>
        <time>2021-05-28T09:23:57Z</time>
      </trkpt>
      <trkpt lat="42.427063" lon="2.482785">
        <ele>1279.230</ele>
        <time>2021-05-28T09:23:59Z</time>
      </trkpt>
      <trkpt lat="42.427080" lon="2.482769">
        <ele>1279.517</ele>
        <time>2021-05-28T09:24:03Z</time>
      </trkpt>
      <trkpt lat="42.427090" lon="2.482746">
        <ele>1280.312</ele>
        <time>2021-05-28T09:24:05Z</time>
      </trkpt>
      <trkpt lat="42.427113" lon="2.482741">
        <ele>1279.939</ele>
        <time>2021-05-28T09:24:08Z</time>
      </trkpt>
      <trkpt lat="42.427198" lon="2.482686">
        <ele>1280.387</ele>
        <time>2021-05-28T09:24:20Z</time>
      </trkpt>
      <trkpt lat="42.427263" lon="2.482601">
        <ele>1282.537</ele>
        <time>2021-05-28T09:24:32Z</time>
      </trkpt>
      <trkpt lat="42.427328" lon="2.482606">
        <ele>1280.049</ele>
        <time>2021-05-28T09:24:40Z</time>
      </trkpt>
      <trkpt lat="42.427348" lon="2.482608">
        <ele>1279.213</ele>
        <time>2021-05-28T09:24:44Z</time>
      </trkpt>
      <trkpt lat="42.427368" lon="2.482595">
        <ele>1279.108</ele>
        <time>2021-05-28T09:24:48Z</time>
      </trkpt>
      <trkpt lat="42.427384" lon="2.482607">
        <ele>1278.030</ele>
        <time>2021-05-28T09:24:54Z</time>
      </trkpt>
      <trkpt lat="42.427404" lon="2.482609">
        <ele>1277.297</ele>
        <time>2021-05-28T09:24:58Z</time>
      </trkpt>
      <trkpt lat="42.427424" lon="2.482619">
        <ele>1276.028</ele>
        <time>2021-05-28T09:25:01Z</time>
      </trkpt>
      <trkpt lat="42.427440" lon="2.482634">
        <ele>1274.837</ele>
        <time>2021-05-28T09:25:04Z</time>
      </trkpt>
      <trkpt lat="42.427466" lon="2.482638">
        <ele>1273.714</ele>
        <time>2021-05-28T09:25:07Z</time>
      </trkpt>
      <trkpt lat="42.427490" lon="2.482630">
        <ele>1273.349</ele>
        <time>2021-05-28T09:25:10Z</time>
      </trkpt>
      <trkpt lat="42.427508" lon="2.482621">
        <ele>1273.056</ele>
        <time>2021-05-28T09:25:13Z</time>
      </trkpt>
      <trkpt lat="42.427531" lon="2.482621">
        <ele>1272.194</ele>
        <time>2021-05-28T09:25:16Z</time>
      </trkpt>
      <trkpt lat="42.427557" lon="2.482632">
        <ele>1270.729</ele>
        <time>2021-05-28T09:25:19Z</time>
      </trkpt>
      <trkpt lat="42.427581" lon="2.482637">
        <ele>1269.500</ele>
        <time>2021-05-28T09:25:22Z</time>
      </trkpt>
      <trkpt lat="42.427605" lon="2.482638">
        <ele>1268.620</ele>
        <time>2021-05-28T09:25:25Z</time>
      </trkpt>
      <trkpt lat="42.427617" lon="2.482618">
        <ele>1269.008</ele>
        <time>2021-05-28T09:25:28Z</time>
      </trkpt>
      <trkpt lat="42.427624" lon="2.482595">
        <ele>1269.799</ele>
        <time>2021-05-28T09:25:33Z</time>
      </trkpt>
      <trkpt lat="42.427646" lon="2.482585">
        <ele>1269.216</ele>
        <time>2021-05-28T09:25:37Z</time>
      </trkpt>
      <trkpt lat="42.427670" lon="2.482572">
        <ele>1268.837</ele>
        <time>2021-05-28T09:25:40Z</time>
      </trkpt>
      <trkpt lat="42.427693" lon="2.482557">
        <ele>1268.426</ele>
        <time>2021-05-28T09:25:44Z</time>
      </trkpt>
      <trkpt lat="42.427713" lon="2.482550">
        <ele>1267.933</ele>
        <time>2021-05-28T09:25:46Z</time>
      </trkpt>
      <trkpt lat="42.427734" lon="2.482529">
        <ele>1267.828</ele>
        <time>2021-05-28T09:25:48Z</time>
      </trkpt>
      <trkpt lat="42.427755" lon="2.482512">
        <ele>1267.515</ele>
        <time>2021-05-28T09:25:50Z</time>
      </trkpt>
      <trkpt lat="42.427776" lon="2.482504">
        <ele>1266.993</ele>
        <time>2021-05-28T09:25:52Z</time>
      </trkpt>
      <trkpt lat="42.427809" lon="2.482462">
        <ele>1266.933</ele>
        <time>2021-05-28T09:25:55Z</time>
      </trkpt>
      <trkpt lat="42.427827" lon="2.482462">
        <ele>1266.023</ele>
        <time>2021-05-28T09:25:58Z</time>
      </trkpt>
      <trkpt lat="42.427844" lon="2.482451">
        <ele>1265.615</ele>
        <time>2021-05-28T09:26:00Z</time>
      </trkpt>
      <trkpt lat="42.427865" lon="2.482434">
        <ele>1265.208</ele>
        <time>2021-05-28T09:26:03Z</time>
      </trkpt>
      <trkpt lat="42.427887" lon="2.482419">
        <ele>1264.730</ele>
        <time>2021-05-28T09:26:05Z</time>
      </trkpt>
      <trkpt lat="42.427900" lon="2.482391">
        <ele>1265.067</ele>
        <time>2021-05-28T09:26:07Z</time>
      </trkpt>
      <trkpt lat="42.427917" lon="2.482377">
        <ele>1264.738</ele>
        <time>2021-05-28T09:26:10Z</time>
      </trkpt>
      <trkpt lat="42.427934" lon="2.482365">
        <ele>1264.367</ele>
        <time>2021-05-28T09:26:12Z</time>
      </trkpt>
      <trkpt lat="42.427940" lon="2.482340">
        <ele>1264.864</ele>
        <time>2021-05-28T09:26:14Z</time>
      </trkpt>
      <trkpt lat="42.427974" lon="2.482262">
        <ele>1265.849</ele>
        <time>2021-05-28T09:26:20Z</time>
      </trkpt>
      <trkpt lat="42.427993" lon="2.482255">
        <ele>1265.156</ele>
        <time>2021-05-28T09:26:22Z</time>
      </trkpt>
      <trkpt lat="42.428012" lon="2.482233">
        <ele>1264.884</ele>
        <time>2021-05-28T09:26:25Z</time>
      </trkpt>
      <trkpt lat="42.428045" lon="2.482194">
        <ele>1264.472</ele>
        <time>2021-05-28T09:26:31Z</time>
      </trkpt>
      <trkpt lat="42.428069" lon="2.482177">
        <ele>1263.613</ele>
        <time>2021-05-28T09:26:33Z</time>
      </trkpt>
      <trkpt lat="42.428090" lon="2.482165">
        <ele>1262.814</ele>
        <time>2021-05-28T09:26:35Z</time>
      </trkpt>
      <trkpt lat="42.428114" lon="2.482148">
        <ele>1262.008</ele>
        <time>2021-05-28T09:26:37Z</time>
      </trkpt>
      <trkpt lat="42.428133" lon="2.482132">
        <ele>1261.544</ele>
        <time>2021-05-28T09:26:39Z</time>
      </trkpt>
      <trkpt lat="42.428149" lon="2.482111">
        <ele>1261.491</ele>
        <time>2021-05-28T09:26:41Z</time>
      </trkpt>
      <trkpt lat="42.428168" lon="2.482088">
        <ele>1261.292</ele>
        <time>2021-05-28T09:26:44Z</time>
      </trkpt>
      <trkpt lat="42.428191" lon="2.482074">
        <ele>1260.551</ele>
        <time>2021-05-28T09:26:47Z</time>
      </trkpt>
      <trkpt lat="42.428215" lon="2.482066">
        <ele>1259.698</ele>
        <time>2021-05-28T09:26:52Z</time>
      </trkpt>
      <trkpt lat="42.428233" lon="2.482061">
        <ele>1258.953</ele>
        <time>2021-05-28T09:26:54Z</time>
      </trkpt>
      <trkpt lat="42.428253" lon="2.482057">
        <ele>1258.180</ele>
        <time>2021-05-28T09:26:56Z</time>
      </trkpt>
      <trkpt lat="42.428272" lon="2.482050">
        <ele>1257.418</ele>
        <time>2021-05-28T09:26:58Z</time>
      </trkpt>
      <trkpt lat="42.428297" lon="2.482042">
        <ele>1256.584</ele>
        <time>2021-05-28T09:27:01Z</time>
      </trkpt>
      <trkpt lat="42.428314" lon="2.482024">
        <ele>1256.507</ele>
        <time>2021-05-28T09:27:03Z</time>
      </trkpt>
      <trkpt lat="42.428367" lon="2.481949">
        <ele>1257.017</ele>
        <time>2021-05-28T09:27:09Z</time>
      </trkpt>
      <trkpt lat="42.428369" lon="2.481917">
        <ele>1258.108</ele>
        <time>2021-05-28T09:27:12Z</time>
      </trkpt>
      <trkpt lat="42.428356" lon="2.481901">
        <ele>1259.485</ele>
        <time>2021-05-28T09:27:24Z</time>
      </trkpt>
      <trkpt lat="42.428336" lon="2.481894">
        <ele>1260.712</ele>
        <time>2021-05-28T09:27:31Z</time>
      </trkpt>
      <trkpt lat="42.428340" lon="2.481865">
        <ele>1261.583</ele>
        <time>2021-05-28T09:27:37Z</time>
      </trkpt>
      <trkpt lat="42.428327" lon="2.481841">
        <ele>1263.042</ele>
        <time>2021-05-28T09:27:41Z</time>
      </trkpt>
      <trkpt lat="42.428346" lon="2.481827">
        <ele>1262.679</ele>
        <time>2021-05-28T09:27:49Z</time>
      </trkpt>
      <trkpt lat="42.428344" lon="2.481855">
        <ele>1261.784</ele>
        <time>2021-05-28T09:28:03Z</time>
      </trkpt>
      <trkpt lat="42.428328" lon="2.481866">
        <ele>1262.111</ele>
        <time>2021-05-28T09:28:36Z</time>
      </trkpt>
      <trkpt lat="42.428306" lon="2.481865">
        <ele>1263.039</ele>
        <time>2021-05-28T09:28:43Z</time>
      </trkpt>
      <trkpt lat="42.428300" lon="2.481888">
        <ele>1262.545</ele>
        <time>2021-05-28T09:28:54Z</time>
      </trkpt>
      <trkpt lat="42.428304" lon="2.481862">
        <ele>1263.247</ele>
        <time>2021-05-28T09:29:06Z</time>
      </trkpt>
      <trkpt lat="42.428286" lon="2.481859">
        <ele>1264.111</ele>
        <time>2021-05-28T09:29:12Z</time>
      </trkpt>
      <trkpt lat="42.428268" lon="2.481850">
        <ele>1265.208</ele>
        <time>2021-05-28T09:29:42Z</time>
      </trkpt>
      <trkpt lat="42.428287" lon="2.481842">
        <ele>1264.771</ele>
        <time>2021-05-28T09:30:19Z</time>
      </trkpt>
      <trkpt lat="42.428269" lon="2.481827">
        <ele>1266.088</ele>
        <time>2021-05-28T09:30:38Z</time>
      </trkpt>
      <trkpt lat="42.428298" lon="2.481787">
        <ele>1266.229</ele>
        <time>2021-05-28T09:30:57Z</time>
      </trkpt>
      <trkpt lat="42.428299" lon="2.481857">
        <ele>1263.628</ele>
        <time>2021-05-28T09:31:46Z</time>
      </trkpt>
      <trkpt lat="42.428303" lon="2.481882">
        <ele>1262.615</ele>
        <time>2021-05-28T09:31:55Z</time>
      </trkpt>
      <trkpt lat="42.428309" lon="2.481856">
        <ele>1263.250</ele>
        <time>2021-05-28T09:32:55Z</time>
      </trkpt>
      <trkpt lat="42.428331" lon="2.481848">
        <ele>1262.697</ele>
        <time>2021-05-28T09:33:00Z</time>
      </trkpt>
      <trkpt lat="42.428353" lon="2.481848">
        <ele>1261.475</ele>
        <time>2021-05-28T09:33:04Z</time>
      </trkpt>
      <trkpt lat="42.428365" lon="2.481819">
        <ele>1261.948</ele>
        <time>2021-05-28T09:34:06Z</time>
      </trkpt>
      <trkpt lat="42.428372" lon="2.481764">
        <ele>1263.561</ele>
        <time>2021-05-28T09:34:25Z</time>
      </trkpt>
      <trkpt lat="42.428379" lon="2.481818">
        <ele>1261.217</ele>
        <time>2021-05-28T09:34:43Z</time>
      </trkpt>
      <trkpt lat="42.428463" lon="2.481763">
        <ele>1258.808</ele>
        <time>2021-05-28T09:35:15Z</time>
      </trkpt>
      <trkpt lat="42.428483" lon="2.481760">
        <ele>1257.961</ele>
        <time>2021-05-28T09:35:19Z</time>
      </trkpt>
      <trkpt lat="42.428445" lon="2.481779">
        <ele>1259.238</ele>
        <time>2021-05-28T09:35:28Z</time>
      </trkpt>
      <trkpt lat="42.428366" lon="2.481846">
        <ele>1260.849</ele>
        <time>2021-05-28T09:35:37Z</time>
      </trkpt>
      <trkpt lat="42.428335" lon="2.481866">
        <ele>1261.778</ele>
        <time>2021-05-28T09:35:49Z</time>
      </trkpt>
      <trkpt lat="42.428348" lon="2.481884">
        <ele>1260.485</ele>
        <time>2021-05-28T09:35:51Z</time>
      </trkpt>
      <trkpt lat="42.428368" lon="2.481889">
        <ele>1259.180</ele>
        <time>2021-05-28T09:35:53Z</time>
      </trkpt>
      <trkpt lat="42.428387" lon="2.481885">
        <ele>1258.397</ele>
        <time>2021-05-28T09:35:57Z</time>
      </trkpt>
      <trkpt lat="42.428407" lon="2.481885">
        <ele>1257.265</ele>
        <time>2021-05-28T09:36:00Z</time>
      </trkpt>
      <trkpt lat="42.428429" lon="2.481876">
        <ele>1256.444</ele>
        <time>2021-05-28T09:36:03Z</time>
      </trkpt>
      <trkpt lat="42.428446" lon="2.481867">
        <ele>1255.805</ele>
        <time>2021-05-28T09:36:05Z</time>
      </trkpt>
      <trkpt lat="42.428466" lon="2.481858">
        <ele>1255.115</ele>
        <time>2021-05-28T09:36:08Z</time>
      </trkpt>
      <trkpt lat="42.428483" lon="2.481830">
        <ele>1255.308</ele>
        <time>2021-05-28T09:36:15Z</time>
      </trkpt>
      <trkpt lat="42.428500" lon="2.481803">
        <ele>1255.481</ele>
        <time>2021-05-28T09:36:19Z</time>
      </trkpt>
      <trkpt lat="42.428492" lon="2.481778">
        <ele>1256.828</ele>
        <time>2021-05-28T09:36:24Z</time>
      </trkpt>
      <trkpt lat="42.428480" lon="2.481753">
        <ele>1258.349</ele>
        <time>2021-05-28T09:36:30Z</time>
      </trkpt>
      <trkpt lat="42.428478" lon="2.481728">
        <ele>1259.498</ele>
        <time>2021-05-28T09:36:34Z</time>
      </trkpt>
      <trkpt lat="42.428482" lon="2.481701">
        <ele>1260.225</ele>
        <time>2021-05-28T09:36:41Z</time>
      </trkpt>
      <trkpt lat="42.428459" lon="2.481697">
        <ele>1261.550</ele>
        <time>2021-05-28T09:36:47Z</time>
      </trkpt>
      <trkpt lat="42.428434" lon="2.481702">
        <ele>1262.657</ele>
        <time>2021-05-28T09:36:49Z</time>
      </trkpt>
      <trkpt lat="42.428439" lon="2.481678">
        <ele>1263.375</ele>
        <time>2021-05-28T09:37:06Z</time>
      </trkpt>
      <trkpt lat="42.428425" lon="2.481649">
        <ele>1265.048</ele>
        <time>2021-05-28T09:37:13Z</time>
      </trkpt>
      <trkpt lat="42.428406" lon="2.481628">
        <ele>1266.861</ele>
        <time>2021-05-28T09:37:17Z</time>
      </trkpt>
      <trkpt lat="42.428430" lon="2.481622">
        <ele>1265.817</ele>
        <time>2021-05-28T09:37:25Z</time>
      </trkpt>
      <trkpt lat="42.428450" lon="2.481619">
        <ele>1264.908</ele>
        <time>2021-05-28T09:37:30Z</time>
      </trkpt>
      <trkpt lat="42.428472" lon="2.481613">
        <ele>1264.021</ele>
        <time>2021-05-28T09:37:34Z</time>
      </trkpt>
      <trkpt lat="42.428487" lon="2.481597">
        <ele>1263.968</ele>
        <time>2021-05-28T09:37:37Z</time>
      </trkpt>
      <trkpt lat="42.428476" lon="2.481570">
        <ele>1265.529</ele>
        <time>2021-05-28T09:37:41Z</time>
      </trkpt>
      <trkpt lat="42.428484" lon="2.481545">
        <ele>1266.058</ele>
        <time>2021-05-28T09:37:51Z</time>
      </trkpt>
      <trkpt lat="42.428504" lon="2.481534">
        <ele>1265.565</ele>
        <time>2021-05-28T09:37:56Z</time>
      </trkpt>
      <trkpt lat="42.428483" lon="2.481535">
        <ele>1266.590</ele>
        <time>2021-05-28T09:38:00Z</time>
      </trkpt>
      <trkpt lat="42.428493" lon="2.481512">
        <ele>1266.827</ele>
        <time>2021-05-28T09:38:06Z</time>
      </trkpt>
      <trkpt lat="42.428514" lon="2.481473">
        <ele>1267.385</ele>
        <time>2021-05-28T09:38:11Z</time>
      </trkpt>
      <trkpt lat="42.428493" lon="2.481380">
        <ele>1271.928</ele>
        <time>2021-05-28T09:38:25Z</time>
      </trkpt>
      <trkpt lat="42.428499" lon="2.481350">
        <ele>1272.789</ele>
        <time>2021-05-28T09:38:33Z</time>
      </trkpt>
      <trkpt lat="42.428535" lon="2.481297">
        <ele>1273.017</ele>
        <time>2021-05-28T09:38:41Z</time>
      </trkpt>
      <trkpt lat="42.428554" lon="2.481265">
        <ele>1273.208</ele>
        <time>2021-05-28T09:38:44Z</time>
      </trkpt>
      <trkpt lat="42.428558" lon="2.481240">
        <ele>1273.959</ele>
        <time>2021-05-28T09:38:48Z</time>
      </trkpt>
      <trkpt lat="42.428538" lon="2.481122">
        <ele>1279.336</ele>
        <time>2021-05-28T09:39:29Z</time>
      </trkpt>
      <trkpt lat="42.428586" lon="2.481051">
        <ele>1279.627</ele>
        <time>2021-05-28T09:39:47Z</time>
      </trkpt>
      <trkpt lat="42.428584" lon="2.480928">
        <ele>1284.686</ele>
        <time>2021-05-28T09:40:22Z</time>
      </trkpt>
      <trkpt lat="42.428493" lon="2.480892">
        <ele>1290.333</ele>
        <time>2021-05-28T09:40:44Z</time>
      </trkpt>
      <trkpt lat="42.428433" lon="2.480802">
        <ele>1296.538</ele>
        <time>2021-05-28T09:41:20Z</time>
      </trkpt>
      <trkpt lat="42.428378" lon="2.480830">
        <ele>1298.075</ele>
        <time>2021-05-28T09:41:40Z</time>
      </trkpt>
      <trkpt lat="42.428397" lon="2.480772">
        <ele>1299.473</ele>
        <time>2021-05-28T09:42:23Z</time>
      </trkpt>
      <trkpt lat="42.428415" lon="2.480730">
        <ele>1300.239</ele>
        <time>2021-05-28T09:42:34Z</time>
      </trkpt>
      <trkpt lat="42.428396" lon="2.480731">
        <ele>1301.001</ele>
        <time>2021-05-28T09:42:38Z</time>
      </trkpt>
      <trkpt lat="42.428381" lon="2.480746">
        <ele>1301.221</ele>
        <time>2021-05-28T09:42:43Z</time>
      </trkpt>
      <trkpt lat="42.428335" lon="2.480733">
        <ele>1303.908</ele>
        <time>2021-05-28T09:42:58Z</time>
      </trkpt>
      <trkpt lat="42.428307" lon="2.480773">
        <ele>1303.950</ele>
        <time>2021-05-28T09:43:05Z</time>
      </trkpt>
      <trkpt lat="42.428291" lon="2.480785">
        <ele>1304.447</ele>
        <time>2021-05-28T09:43:07Z</time>
      </trkpt>
      <trkpt lat="42.428263" lon="2.480809">
        <ele>1305.018</ele>
        <time>2021-05-28T09:43:18Z</time>
      </trkpt>
      <trkpt lat="42.428245" lon="2.480829">
        <ele>1305.357</ele>
        <time>2021-05-28T09:43:22Z</time>
      </trkpt>
      <trkpt lat="42.428225" lon="2.480831">
        <ele>1306.394</ele>
        <time>2021-05-28T09:43:30Z</time>
      </trkpt>
      <trkpt lat="42.428232" lon="2.480803">
        <ele>1307.189</ele>
        <time>2021-05-28T09:43:37Z</time>
      </trkpt>
      <trkpt lat="42.428231" lon="2.480772">
        <ele>1308.476</ele>
        <time>2021-05-28T09:43:52Z</time>
      </trkpt>
      <trkpt lat="42.428239" lon="2.480714">
        <ele>1310.374</ele>
        <time>2021-05-28T09:44:06Z</time>
      </trkpt>
      <trkpt lat="42.428203" lon="2.480625">
        <ele>1316.162</ele>
        <time>2021-05-28T09:44:31Z</time>
      </trkpt>
      <trkpt lat="42.428195" lon="2.480601">
        <ele>1317.683</ele>
        <time>2021-05-28T09:44:38Z</time>
      </trkpt>
      <trkpt lat="42.428154" lon="2.480612">
        <ele>1319.611</ele>
        <time>2021-05-28T09:44:46Z</time>
      </trkpt>
      <trkpt lat="42.428189" lon="2.480582">
        <ele>1318.708</ele>
        <time>2021-05-28T09:44:57Z</time>
      </trkpt>
      <trkpt lat="42.428169" lon="2.480586">
        <ele>1319.863</ele>
        <time>2021-05-28T09:45:03Z</time>
      </trkpt>
      <trkpt lat="42.428150" lon="2.480598">
        <ele>1320.410</ele>
        <time>2021-05-28T09:45:06Z</time>
      </trkpt>
      <trkpt lat="42.428125" lon="2.480595">
        <ele>1322.171</ele>
        <time>2021-05-28T09:45:10Z</time>
      </trkpt>
      <trkpt lat="42.428089" lon="2.480632">
        <ele>1322.730</ele>
        <time>2021-05-28T09:45:23Z</time>
      </trkpt>
      <trkpt lat="42.428065" lon="2.480641">
        <ele>1323.737</ele>
        <time>2021-05-28T09:45:28Z</time>
      </trkpt>
      <trkpt lat="42.428047" lon="2.480620">
        <ele>1325.762</ele>
        <time>2021-05-28T09:45:39Z</time>
      </trkpt>
      <trkpt lat="42.428026" lon="2.480620">
        <ele>1326.869</ele>
        <time>2021-05-28T09:45:54Z</time>
      </trkpt>
      <trkpt lat="42.428018" lon="2.480597">
        <ele>1328.327</ele>
        <time>2021-05-28T09:46:04Z</time>
      </trkpt>
      <trkpt lat="42.428028" lon="2.480551">
        <ele>1329.786</ele>
        <time>2021-05-28T09:46:29Z</time>
      </trkpt>
      <trkpt lat="42.427960" lon="2.480558">
        <ele>1333.160</ele>
        <time>2021-05-28T09:46:41Z</time>
      </trkpt>
      <trkpt lat="42.427934" lon="2.480586">
        <ele>1333.326</ele>
        <time>2021-05-28T09:46:49Z</time>
      </trkpt>
      <trkpt lat="42.427918" lon="2.480607">
        <ele>1333.308</ele>
        <time>2021-05-28T09:46:52Z</time>
      </trkpt>
      <trkpt lat="42.427888" lon="2.480616">
        <ele>1334.615</ele>
        <time>2021-05-28T09:46:57Z</time>
      </trkpt>
      <trkpt lat="42.427861" lon="2.480542">
        <ele>1339.152</ele>
        <time>2021-05-28T09:47:19Z</time>
      </trkpt>
      <trkpt lat="42.427842" lon="2.480545">
        <ele>1340.023</ele>
        <time>2021-05-28T09:47:23Z</time>
      </trkpt>
      <trkpt lat="42.427826" lon="2.480559">
        <ele>1340.392</ele>
        <time>2021-05-28T09:47:38Z</time>
      </trkpt>
      <trkpt lat="42.427809" lon="2.480570">
        <ele>1340.799</ele>
        <time>2021-05-28T09:47:45Z</time>
      </trkpt>
      <trkpt lat="42.427796" lon="2.480589">
        <ele>1340.764</ele>
        <time>2021-05-28T09:47:53Z</time>
      </trkpt>
      <trkpt lat="42.427786" lon="2.480611">
        <ele>1340.441</ele>
        <time>2021-05-28T09:47:59Z</time>
      </trkpt>
      <trkpt lat="42.427765" lon="2.480635">
        <ele>1340.669</ele>
        <time>2021-05-28T09:48:03Z</time>
      </trkpt>
      <trkpt lat="42.427750" lon="2.480649">
        <ele>1340.936</ele>
        <time>2021-05-28T09:48:08Z</time>
      </trkpt>
      <trkpt lat="42.427732" lon="2.480651">
        <ele>1341.917</ele>
        <time>2021-05-28T09:48:12Z</time>
      </trkpt>
      <trkpt lat="42.427716" lon="2.480669">
        <ele>1342.118</ele>
        <time>2021-05-28T09:48:30Z</time>
      </trkpt>
      <trkpt lat="42.427703" lon="2.480691">
        <ele>1341.908</ele>
        <time>2021-05-28T09:48:36Z</time>
      </trkpt>
      <trkpt lat="42.427685" lon="2.480709">
        <ele>1342.350</ele>
        <time>2021-05-28T09:48:39Z</time>
      </trkpt>
      <trkpt lat="42.427667" lon="2.480720">
        <ele>1342.967</ele>
        <time>2021-05-28T09:48:42Z</time>
      </trkpt>
      <trkpt lat="42.427645" lon="2.480719">
        <ele>1344.218</ele>
        <time>2021-05-28T09:48:48Z</time>
      </trkpt>
      <trkpt lat="42.427625" lon="2.480716">
        <ele>1345.427</ele>
        <time>2021-05-28T09:48:54Z</time>
      </trkpt>
      <trkpt lat="42.427607" lon="2.480719">
        <ele>1346.474</ele>
        <time>2021-05-28T09:49:00Z</time>
      </trkpt>
      <trkpt lat="42.427590" lon="2.480733">
        <ele>1346.829</ele>
        <time>2021-05-28T09:49:05Z</time>
      </trkpt>
      <trkpt lat="42.427522" lon="2.480762">
        <ele>1349.686</ele>
        <time>2021-05-28T09:49:16Z</time>
      </trkpt>
      <trkpt lat="42.427508" lon="2.480777">
        <ele>1349.854</ele>
        <time>2021-05-28T09:49:19Z</time>
      </trkpt>
      <trkpt lat="42.427489" lon="2.480785">
        <ele>1350.488</ele>
        <time>2021-05-28T09:49:25Z</time>
      </trkpt>
      <trkpt lat="42.427463" lon="2.480792">
        <ele>1351.324</ele>
        <time>2021-05-28T09:49:28Z</time>
      </trkpt>
      <trkpt lat="42.427442" lon="2.480801">
        <ele>1351.926</ele>
        <time>2021-05-28T09:49:31Z</time>
      </trkpt>
      <trkpt lat="42.427422" lon="2.480807">
        <ele>1352.608</ele>
        <time>2021-05-28T09:49:34Z</time>
      </trkpt>
      <trkpt lat="42.427402" lon="2.480801">
        <ele>1353.865</ele>
        <time>2021-05-28T09:49:39Z</time>
      </trkpt>
      <trkpt lat="42.427384" lon="2.480805">
        <ele>1354.572</ele>
        <time>2021-05-28T09:49:42Z</time>
      </trkpt>
      <trkpt lat="42.427374" lon="2.480826">
        <ele>1354.243</ele>
        <time>2021-05-28T09:49:47Z</time>
      </trkpt>
      <trkpt lat="42.427354" lon="2.480834">
        <ele>1354.812</ele>
        <time>2021-05-28T09:49:53Z</time>
      </trkpt>
      <trkpt lat="42.427332" lon="2.480828">
        <ele>1356.099</ele>
        <time>2021-05-28T09:49:59Z</time>
      </trkpt>
      <trkpt lat="42.427319" lon="2.480845">
        <ele>1356.094</ele>
        <time>2021-05-28T09:50:01Z</time>
      </trkpt>
      <trkpt lat="42.427297" lon="2.480845">
        <ele>1357.131</ele>
        <time>2021-05-28T09:50:07Z</time>
      </trkpt>
      <trkpt lat="42.427278" lon="2.480847">
        <ele>1357.939</ele>
        <time>2021-05-28T09:50:10Z</time>
      </trkpt>
      <trkpt lat="42.427257" lon="2.480845">
        <ele>1358.957</ele>
        <time>2021-05-28T09:50:13Z</time>
      </trkpt>
      <trkpt lat="42.427242" lon="2.480872">
        <ele>1358.700</ele>
        <time>2021-05-28T09:50:15Z</time>
      </trkpt>
      <trkpt lat="42.427233" lon="2.480893">
        <ele>1358.320</ele>
        <time>2021-05-28T09:50:19Z</time>
      </trkpt>
      <trkpt lat="42.427216" lon="2.480908">
        <ele>1358.408</ele>
        <time>2021-05-28T09:50:23Z</time>
      </trkpt>
      <trkpt lat="42.427204" lon="2.480934">
        <ele>1357.652</ele>
        <time>2021-05-28T09:50:27Z</time>
      </trkpt>
      <trkpt lat="42.427202" lon="2.480959">
        <ele>1356.879</ele>
        <time>2021-05-28T09:50:36Z</time>
      </trkpt>
      <trkpt lat="42.427182" lon="2.480969">
        <ele>1356.880</ele>
        <time>2021-05-28T09:50:40Z</time>
      </trkpt>
      <trkpt lat="42.427167" lon="2.480951">
        <ele>1357.679</ele>
        <time>2021-05-28T09:50:44Z</time>
      </trkpt>
      <trkpt lat="42.427157" lon="2.480928">
        <ele>1358.526</ele>
        <time>2021-05-28T09:50:47Z</time>
      </trkpt>
      <trkpt lat="42.427137" lon="2.480931">
        <ele>1358.791</ele>
        <time>2021-05-28T09:50:51Z</time>
      </trkpt>
      <trkpt lat="42.427120" lon="2.480920">
        <ele>1359.338</ele>
        <time>2021-05-28T09:50:55Z</time>
      </trkpt>
      <trkpt lat="42.427119" lon="2.480945">
        <ele>1358.586</ele>
        <time>2021-05-28T09:51:13Z</time>
      </trkpt>
      <trkpt lat="42.427123" lon="2.480971">
        <ele>1357.641</ele>
        <time>2021-05-28T09:51:17Z</time>
      </trkpt>
      <trkpt lat="42.427120" lon="2.480997">
        <ele>1356.981</ele>
        <time>2021-05-28T09:51:20Z</time>
      </trkpt>
      <trkpt lat="42.427114" lon="2.481027">
        <ele>1356.009</ele>
        <time>2021-05-28T09:51:25Z</time>
      </trkpt>
      <trkpt lat="42.427106" lon="2.481004">
        <ele>1356.908</ele>
        <time>2021-05-28T09:51:55Z</time>
      </trkpt>
      <trkpt lat="42.427096" lon="2.480981">
        <ele>1357.851</ele>
        <time>2021-05-28T09:52:06Z</time>
      </trkpt>
      <trkpt lat="42.427077" lon="2.480975">
        <ele>1358.328</ele>
        <time>2021-05-28T09:52:11Z</time>
      </trkpt>
      <trkpt lat="42.427054" lon="2.480986">
        <ele>1358.399</ele>
        <time>2021-05-28T09:52:16Z</time>
      </trkpt>
      <trkpt lat="42.427038" lon="2.480998">
        <ele>1358.238</ele>
        <time>2021-05-28T09:52:21Z</time>
      </trkpt>
      <trkpt lat="42.427015" lon="2.481000">
        <ele>1358.615</ele>
        <time>2021-05-28T09:52:25Z</time>
      </trkpt>
      <trkpt lat="42.426997" lon="2.481010">
        <ele>1358.650</ele>
        <time>2021-05-28T09:52:31Z</time>
      </trkpt>
      <trkpt lat="42.426982" lon="2.481035">
        <ele>1358.257</ele>
        <time>2021-05-28T09:52:36Z</time>
      </trkpt>
      <trkpt lat="42.426966" lon="2.481049">
        <ele>1358.275</ele>
        <time>2021-05-28T09:52:38Z</time>
      </trkpt>
      <trkpt lat="42.426938" lon="2.481044">
        <ele>1358.691</ele>
        <time>2021-05-28T09:52:41Z</time>
      </trkpt>
      <trkpt lat="42.426913" lon="2.481026">
        <ele>1358.581</ele>
        <time>2021-05-28T09:52:43Z</time>
      </trkpt>
      <trkpt lat="42.426897" lon="2.481009">
        <ele>1358.719</ele>
        <time>2021-05-28T09:52:47Z</time>
      </trkpt>
      <trkpt lat="42.426903" lon="2.481036">
        <ele>1358.108</ele>
        <time>2021-05-28T09:52:53Z</time>
      </trkpt>
      <trkpt lat="42.426910" lon="2.481068">
        <ele>1357.486</ele>
        <time>2021-05-28T09:52:55Z</time>
      </trkpt>
      <trkpt lat="42.426905" lon="2.481094">
        <ele>1356.643</ele>
        <time>2021-05-28T09:52:57Z</time>
      </trkpt>
      <trkpt lat="42.426884" lon="2.481102">
        <ele>1355.944</ele>
        <time>2021-05-28T09:53:01Z</time>
      </trkpt>
      <trkpt lat="42.426853" lon="2.481084">
        <ele>1355.813</ele>
        <time>2021-05-28T09:53:04Z</time>
      </trkpt>
      <trkpt lat="42.426826" lon="2.481078">
        <ele>1355.420</ele>
        <time>2021-05-28T09:53:08Z</time>
      </trkpt>
      <trkpt lat="42.426800" lon="2.481078">
        <ele>1354.815</ele>
        <time>2021-05-28T09:53:12Z</time>
      </trkpt>
      <trkpt lat="42.426780" lon="2.481071">
        <ele>1354.672</ele>
        <time>2021-05-28T09:53:15Z</time>
      </trkpt>
      <trkpt lat="42.426756" lon="2.481068">
        <ele>1354.220</ele>
        <time>2021-05-28T09:53:18Z</time>
      </trkpt>
      <trkpt lat="42.426736" lon="2.481069">
        <ele>1353.876</ele>
        <time>2021-05-28T09:53:21Z</time>
      </trkpt>
      <trkpt lat="42.426713" lon="2.481066">
        <ele>1353.490</ele>
        <time>2021-05-28T09:53:24Z</time>
      </trkpt>
      <trkpt lat="42.426693" lon="2.481064">
        <ele>1353.119</ele>
        <time>2021-05-28T09:53:27Z</time>
      </trkpt>
      <trkpt lat="42.426677" lon="2.481075">
        <ele>1352.408</ele>
        <time>2021-05-28T09:53:50Z</time>
      </trkpt>
      <trkpt lat="42.426695" lon="2.481076">
        <ele>1352.734</ele>
        <time>2021-05-28T09:54:31Z</time>
      </trkpt>
      <trkpt lat="42.426732" lon="2.481067">
        <ele>1353.881</ele>
        <time>2021-05-28T09:54:40Z</time>
      </trkpt>
      <trkpt lat="42.426747" lon="2.481052">
        <ele>1354.532</ele>
        <time>2021-05-28T09:54:54Z</time>
      </trkpt>
      <trkpt lat="42.426754" lon="2.481029">
        <ele>1355.451</ele>
        <time>2021-05-28T09:55:05Z</time>
      </trkpt>
      <trkpt lat="42.426739" lon="2.481043">
        <ele>1354.638</ele>
        <time>2021-05-28T09:55:14Z</time>
      </trkpt>
      <trkpt lat="42.426756" lon="2.481056">
        <ele>1354.623</ele>
        <time>2021-05-28T09:55:25Z</time>
      </trkpt>
      <trkpt lat="42.426746" lon="2.481115">
        <ele>1352.630</ele>
        <time>2021-05-28T09:55:39Z</time>
      </trkpt>
      <trkpt lat="42.426770" lon="2.481084">
        <ele>1354.028</ele>
        <time>2021-05-28T09:55:42Z</time>
      </trkpt>
      <trkpt lat="42.426793" lon="2.481088">
        <ele>1354.441</ele>
        <time>2021-05-28T09:56:20Z</time>
      </trkpt>
      <trkpt lat="42.426773" lon="2.481093">
        <ele>1353.881</ele>
        <time>2021-05-28T09:56:51Z</time>
      </trkpt>
      <trkpt lat="42.426761" lon="2.481124">
        <ele>1352.709</ele>
        <time>2021-05-28T09:57:49Z</time>
      </trkpt>
      <trkpt lat="42.426750" lon="2.481149">
        <ele>1351.708</ele>
        <time>2021-05-28T09:57:59Z</time>
      </trkpt>
      <trkpt lat="42.426726" lon="2.481189">
        <ele>1350.151</ele>
        <time>2021-05-28T09:58:05Z</time>
      </trkpt>
      <trkpt lat="42.426732" lon="2.481263">
        <ele>1348.238</ele>
        <time>2021-05-28T09:58:19Z</time>
      </trkpt>
      <trkpt lat="42.426738" lon="2.481238">
        <ele>1349.019</ele>
        <time>2021-05-28T09:58:22Z</time>
      </trkpt>
      <trkpt lat="42.426737" lon="2.481209">
        <ele>1349.868</ele>
        <time>2021-05-28T09:58:26Z</time>
      </trkpt>
      <trkpt lat="42.426729" lon="2.481184">
        <ele>1350.365</ele>
        <time>2021-05-28T09:58:36Z</time>
      </trkpt>
      <trkpt lat="42.426736" lon="2.481155">
        <ele>1351.340</ele>
        <time>2021-05-28T09:58:51Z</time>
      </trkpt>
      <trkpt lat="42.426752" lon="2.481134">
        <ele>1352.267</ele>
        <time>2021-05-28T09:59:22Z</time>
      </trkpt>
      <trkpt lat="42.426749" lon="2.481107">
        <ele>1352.975</ele>
        <time>2021-05-28T09:59:34Z</time>
      </trkpt>
      <trkpt lat="42.426760" lon="2.481076">
        <ele>1354.114</ele>
        <time>2021-05-28T09:59:42Z</time>
      </trkpt>
      <trkpt lat="42.426771" lon="2.481050">
        <ele>1355.154</ele>
        <time>2021-05-28T09:59:51Z</time>
      </trkpt>
      <trkpt lat="42.426747" lon="2.481029">
        <ele>1355.209</ele>
        <time>2021-05-28T10:00:19Z</time>
      </trkpt>
      <trkpt lat="42.426728" lon="2.481020">
        <ele>1355.108</ele>
        <time>2021-05-28T10:00:22Z</time>
      </trkpt>
      <trkpt lat="42.426743" lon="2.481006">
        <ele>1355.898</ele>
        <time>2021-05-28T10:02:08Z</time>
      </trkpt>
      <trkpt lat="42.426743" lon="2.481034">
        <ele>1355.055</ele>
        <time>2021-05-28T10:04:17Z</time>
      </trkpt>
      <trkpt lat="42.426735" lon="2.481055">
        <ele>1354.276</ele>
        <time>2021-05-28T10:04:32Z</time>
      </trkpt>
      <trkpt lat="42.426716" lon="2.481040">
        <ele>1354.385</ele>
        <time>2021-05-28T10:06:50Z</time>
      </trkpt>
      <trkpt lat="42.426695" lon="2.481052">
        <ele>1353.532</ele>
        <time>2021-05-28T10:06:52Z</time>
      </trkpt>
      <trkpt lat="42.426673" lon="2.481057">
        <ele>1352.937</ele>
        <time>2021-05-28T10:06:58Z</time>
      </trkpt>
      <trkpt lat="42.426657" lon="2.481043">
        <ele>1353.064</ele>
        <time>2021-05-28T10:07:03Z</time>
      </trkpt>
      <trkpt lat="42.426657" lon="2.481076">
        <ele>1352.072</ele>
        <time>2021-05-28T10:07:23Z</time>
      </trkpt>
      <trkpt lat="42.426643" lon="2.481058">
        <ele>1352.384</ele>
        <time>2021-05-28T10:07:29Z</time>
      </trkpt>
      <trkpt lat="42.426619" lon="2.481061">
        <ele>1351.707</ele>
        <time>2021-05-28T10:07:32Z</time>
      </trkpt>
      <trkpt lat="42.426608" lon="2.481090">
        <ele>1350.617</ele>
        <time>2021-05-28T10:07:34Z</time>
      </trkpt>
      <trkpt lat="42.426585" lon="2.481098">
        <ele>1349.908</ele>
        <time>2021-05-28T10:07:38Z</time>
      </trkpt>
      <trkpt lat="42.426557" lon="2.481080">
        <ele>1349.985</ele>
        <time>2021-05-28T10:07:39Z</time>
      </trkpt>
      <trkpt lat="42.426541" lon="2.481104">
        <ele>1348.962</ele>
        <time>2021-05-28T10:08:00Z</time>
      </trkpt>
      <trkpt lat="42.426523" lon="2.481122">
        <ele>1348.143</ele>
        <time>2021-05-28T10:08:02Z</time>
      </trkpt>
      <trkpt lat="42.426503" lon="2.481136">
        <ele>1347.412</ele>
        <time>2021-05-28T10:08:06Z</time>
      </trkpt>
      <trkpt lat="42.426484" lon="2.481131">
        <ele>1347.249</ele>
        <time>2021-05-28T10:08:10Z</time>
      </trkpt>
      <trkpt lat="42.426466" lon="2.481103">
        <ele>1347.664</ele>
        <time>2021-05-28T10:08:12Z</time>
      </trkpt>
      <trkpt lat="42.426439" lon="2.481110">
        <ele>1346.951</ele>
        <time>2021-05-28T10:08:17Z</time>
      </trkpt>
      <trkpt lat="42.426420" lon="2.481129">
        <ele>1346.139</ele>
        <time>2021-05-28T10:08:20Z</time>
      </trkpt>
      <trkpt lat="42.426405" lon="2.481151">
        <ele>1345.377</ele>
        <time>2021-05-28T10:08:21Z</time>
      </trkpt>
      <trkpt lat="42.426385" lon="2.481167">
        <ele>1344.561</ele>
        <time>2021-05-28T10:08:25Z</time>
      </trkpt>
      <trkpt lat="42.426302" lon="2.481213">
        <ele>1341.927</ele>
        <time>2021-05-28T10:08:35Z</time>
      </trkpt>
      <trkpt lat="42.426268" lon="2.481228">
        <ele>1340.908</ele>
        <time>2021-05-28T10:08:52Z</time>
      </trkpt>
      <trkpt lat="42.426247" lon="2.481218">
        <ele>1340.834</ele>
        <time>2021-05-28T10:09:02Z</time>
      </trkpt>
      <trkpt lat="42.426239" lon="2.481195">
        <ele>1341.241</ele>
        <time>2021-05-28T10:09:07Z</time>
      </trkpt>
      <trkpt lat="42.426244" lon="2.481168">
        <ele>1342.092</ele>
        <time>2021-05-28T10:09:09Z</time>
      </trkpt>
      <trkpt lat="42.426231" lon="2.481112">
        <ele>1343.151</ele>
        <time>2021-05-28T10:09:13Z</time>
      </trkpt>
      <trkpt lat="42.426213" lon="2.481096">
        <ele>1343.268</ele>
        <time>2021-05-28T10:09:15Z</time>
      </trkpt>
      <trkpt lat="42.426189" lon="2.481071">
        <ele>1343.493</ele>
        <time>2021-05-28T10:09:18Z</time>
      </trkpt>
      <trkpt lat="42.426177" lon="2.481037">
        <ele>1344.110</ele>
        <time>2021-05-28T10:09:20Z</time>
      </trkpt>
      <trkpt lat="42.426171" lon="2.481004">
        <ele>1344.818</ele>
        <time>2021-05-28T10:09:21Z</time>
      </trkpt>
      <trkpt lat="42.426161" lon="2.480976">
        <ele>1345.317</ele>
        <time>2021-05-28T10:09:39Z</time>
      </trkpt>
      <trkpt lat="42.426152" lon="2.480945">
        <ele>1345.987</ele>
        <time>2021-05-28T10:09:43Z</time>
      </trkpt>
      <trkpt lat="42.426149" lon="2.480917">
        <ele>1346.615</ele>
        <time>2021-05-28T10:09:45Z</time>
      </trkpt>
      <trkpt lat="42.426136" lon="2.480896">
        <ele>1346.908</ele>
        <time>2021-05-28T10:09:48Z</time>
      </trkpt>
      <trkpt lat="42.426135" lon="2.480865">
        <ele>1347.678</ele>
        <time>2021-05-28T10:09:53Z</time>
      </trkpt>
      <trkpt lat="42.426118" lon="2.480847">
        <ele>1347.885</ele>
        <time>2021-05-28T10:09:57Z</time>
      </trkpt>
      <trkpt lat="42.426117" lon="2.480821">
        <ele>1348.466</ele>
        <time>2021-05-28T10:10:00Z</time>
      </trkpt>
      <trkpt lat="42.426113" lon="2.480788">
        <ele>1349.245</ele>
        <time>2021-05-28T10:10:03Z</time>
      </trkpt>
      <trkpt lat="42.426110" lon="2.480763">
        <ele>1349.762</ele>
        <time>2021-05-28T10:10:06Z</time>
      </trkpt>
      <trkpt lat="42.426091" lon="2.480744">
        <ele>1349.897</ele>
        <time>2021-05-28T10:10:09Z</time>
      </trkpt>
      <trkpt lat="42.426075" lon="2.480717">
        <ele>1350.184</ele>
        <time>2021-05-28T10:10:15Z</time>
      </trkpt>
      <trkpt lat="42.426062" lon="2.480684">
        <ele>1350.612</ele>
        <time>2021-05-28T10:10:18Z</time>
      </trkpt>
      <trkpt lat="42.426049" lon="2.480658">
        <ele>1350.947</ele>
        <time>2021-05-28T10:10:20Z</time>
      </trkpt>
      <trkpt lat="42.426036" lon="2.480637">
        <ele>1351.129</ele>
        <time>2021-05-28T10:10:22Z</time>
      </trkpt>
      <trkpt lat="42.426025" lon="2.480611">
        <ele>1351.521</ele>
        <time>2021-05-28T10:10:24Z</time>
      </trkpt>
      <trkpt lat="42.426020" lon="2.480587">
        <ele>1351.908</ele>
        <time>2021-05-28T10:10:38Z</time>
      </trkpt>
      <trkpt lat="42.426040" lon="2.480566">
        <ele>1353.021</ele>
        <time>2021-05-28T10:10:41Z</time>
      </trkpt>
      <trkpt lat="42.426055" lon="2.480545">
        <ele>1353.838</ele>
        <time>2021-05-28T10:10:43Z</time>
      </trkpt>
      <trkpt lat="42.426072" lon="2.480532">
        <ele>1354.569</ele>
        <time>2021-05-28T10:10:46Z</time>
      </trkpt>
      <trkpt lat="42.426088" lon="2.480513">
        <ele>1355.348</ele>
        <time>2021-05-28T10:10:49Z</time>
      </trkpt>
      <trkpt lat="42.426103" lon="2.480492">
        <ele>1356.245</ele>
        <time>2021-05-28T10:10:52Z</time>
      </trkpt>
      <trkpt lat="42.426128" lon="2.480477">
        <ele>1357.090</ele>
        <time>2021-05-28T10:10:55Z</time>
      </trkpt>
      <trkpt lat="42.426145" lon="2.480455">
        <ele>1357.847</ele>
        <time>2021-05-28T10:10:58Z</time>
      </trkpt>
      <trkpt lat="42.426153" lon="2.480430">
        <ele>1358.535</ele>
        <time>2021-05-28T10:11:02Z</time>
      </trkpt>
      <trkpt lat="42.426162" lon="2.480405">
        <ele>1359.323</ele>
        <time>2021-05-28T10:11:41Z</time>
      </trkpt>
      <trkpt lat="42.426180" lon="2.480388">
        <ele>1360.083</ele>
        <time>2021-05-28T10:11:44Z</time>
      </trkpt>
      <trkpt lat="42.426195" lon="2.480366">
        <ele>1360.811</ele>
        <time>2021-05-28T10:11:49Z</time>
      </trkpt>
      <trkpt lat="42.426214" lon="2.480348">
        <ele>1361.608</ele>
        <time>2021-05-28T10:11:52Z</time>
      </trkpt>
      <trkpt lat="42.426234" lon="2.480336">
        <ele>1362.389</ele>
        <time>2021-05-28T10:11:55Z</time>
      </trkpt>
      <trkpt lat="42.426258" lon="2.480316">
        <ele>1363.356</ele>
        <time>2021-05-28T10:11:58Z</time>
      </trkpt>
      <trkpt lat="42.426278" lon="2.480299">
        <ele>1364.127</ele>
        <time>2021-05-28T10:12:01Z</time>
      </trkpt>
      <trkpt lat="42.426294" lon="2.480282">
        <ele>1364.846</ele>
        <time>2021-05-28T10:12:03Z</time>
      </trkpt>
      <trkpt lat="42.426312" lon="2.480272">
        <ele>1365.593</ele>
        <time>2021-05-28T10:12:05Z</time>
      </trkpt>
      <trkpt lat="42.426331" lon="2.480251">
        <ele>1366.378</ele>
        <time>2021-05-28T10:12:08Z</time>
      </trkpt>
      <trkpt lat="42.426351" lon="2.480230">
        <ele>1367.245</ele>
        <time>2021-05-28T10:12:09Z</time>
      </trkpt>
      <trkpt lat="42.426369" lon="2.480206">
        <ele>1368.183</ele>
        <time>2021-05-28T10:12:11Z</time>
      </trkpt>
      <trkpt lat="42.426385" lon="2.480188">
        <ele>1368.949</ele>
        <time>2021-05-28T10:12:13Z</time>
      </trkpt>
      <trkpt lat="42.426403" lon="2.480174">
        <ele>1369.502</ele>
        <time>2021-05-28T10:12:15Z</time>
      </trkpt>
      <trkpt lat="42.426421" lon="2.480155">
        <ele>1370.222</ele>
        <time>2021-05-28T10:12:17Z</time>
      </trkpt>
      <trkpt lat="42.426439" lon="2.480145">
        <ele>1370.708</ele>
        <time>2021-05-28T10:12:19Z</time>
      </trkpt>
      <trkpt lat="42.426448" lon="2.480113">
        <ele>1371.591</ele>
        <time>2021-05-28T10:12:22Z</time>
      </trkpt>
      <trkpt lat="42.426450" lon="2.480089">
        <ele>1372.078</ele>
        <time>2021-05-28T10:12:25Z</time>
      </trkpt>
      <trkpt lat="42.426462" lon="2.480065">
        <ele>1372.759</ele>
        <time>2021-05-28T10:12:28Z</time>
      </trkpt>
      <trkpt lat="42.426468" lon="2.480035">
        <ele>1373.448</ele>
        <time>2021-05-28T10:12:32Z</time>
      </trkpt>
      <trkpt lat="42.426485" lon="2.480007">
        <ele>1374.245</ele>
        <time>2021-05-28T10:12:34Z</time>
      </trkpt>
      <trkpt lat="42.426496" lon="2.479984">
        <ele>1374.920</ele>
        <time>2021-05-28T10:12:37Z</time>
      </trkpt>
      <trkpt lat="42.426510" lon="2.479963">
        <ele>1375.547</ele>
        <time>2021-05-28T10:12:40Z</time>
      </trkpt>
      <trkpt lat="42.426526" lon="2.479947">
        <ele>1376.165</ele>
        <time>2021-05-28T10:12:44Z</time>
      </trkpt>
      <trkpt lat="42.426540" lon="2.479928">
        <ele>1376.776</ele>
        <time>2021-05-28T10:12:47Z</time>
      </trkpt>
      <trkpt lat="42.426556" lon="2.479915">
        <ele>1377.290</ele>
        <time>2021-05-28T10:12:49Z</time>
      </trkpt>
      <trkpt lat="42.426578" lon="2.479898">
        <ele>1377.919</ele>
        <time>2021-05-28T10:12:51Z</time>
      </trkpt>
      <trkpt lat="42.426596" lon="2.479889">
        <ele>1378.408</ele>
        <time>2021-05-28T10:12:53Z</time>
      </trkpt>
      <trkpt lat="42.426606" lon="2.479869">
        <ele>1379.024</ele>
        <time>2021-05-28T10:12:57Z</time>
      </trkpt>
      <trkpt lat="42.426617" lon="2.479845">
        <ele>1379.691</ele>
        <time>2021-05-28T10:12:59Z</time>
      </trkpt>
      <trkpt lat="42.426628" lon="2.479821">
        <ele>1380.372</ele>
        <time>2021-05-28T10:13:03Z</time>
      </trkpt>
      <trkpt lat="42.426638" lon="2.479801">
        <ele>1380.921</ele>
        <time>2021-05-28T10:13:05Z</time>
      </trkpt>
      <trkpt lat="42.426653" lon="2.479781">
        <ele>1381.588</ele>
        <time>2021-05-28T10:13:08Z</time>
      </trkpt>
      <trkpt lat="42.426673" lon="2.479750">
        <ele>1382.573</ele>
        <time>2021-05-28T10:13:11Z</time>
      </trkpt>
      <trkpt lat="42.426688" lon="2.479730">
        <ele>1383.220</ele>
        <time>2021-05-28T10:13:13Z</time>
      </trkpt>
      <trkpt lat="42.426700" lon="2.479705">
        <ele>1384.068</ele>
        <time>2021-05-28T10:13:17Z</time>
      </trkpt>
      <trkpt lat="42.426714" lon="2.479687">
        <ele>1384.688</ele>
        <time>2021-05-28T10:13:21Z</time>
      </trkpt>
      <trkpt lat="42.426726" lon="2.479666">
        <ele>1385.224</ele>
        <time>2021-05-28T10:13:24Z</time>
      </trkpt>
      <trkpt lat="42.426748" lon="2.479649">
        <ele>1386.026</ele>
        <time>2021-05-28T10:13:28Z</time>
      </trkpt>
      <trkpt lat="42.426767" lon="2.479638">
        <ele>1386.508</ele>
        <time>2021-05-28T10:13:30Z</time>
      </trkpt>
      <trkpt lat="42.426782" lon="2.479619">
        <ele>1387.285</ele>
        <time>2021-05-28T10:13:34Z</time>
      </trkpt>
      <trkpt lat="42.426795" lon="2.479597">
        <ele>1387.852</ele>
        <time>2021-05-28T10:13:37Z</time>
      </trkpt>
      <trkpt lat="42.426806" lon="2.479571">
        <ele>1388.523</ele>
        <time>2021-05-28T10:13:41Z</time>
      </trkpt>
      <trkpt lat="42.426817" lon="2.479550">
        <ele>1389.122</ele>
        <time>2021-05-28T10:13:45Z</time>
      </trkpt>
      <trkpt lat="42.426824" lon="2.479523">
        <ele>1389.769</ele>
        <time>2021-05-28T10:13:47Z</time>
      </trkpt>
      <trkpt lat="42.426834" lon="2.479495">
        <ele>1390.494</ele>
        <time>2021-05-28T10:13:50Z</time>
      </trkpt>
      <trkpt lat="42.426848" lon="2.479465">
        <ele>1391.221</ele>
        <time>2021-05-28T10:13:53Z</time>
      </trkpt>
      <trkpt lat="42.426857" lon="2.479442">
        <ele>1391.779</ele>
        <time>2021-05-28T10:13:56Z</time>
      </trkpt>
      <trkpt lat="42.426869" lon="2.479417">
        <ele>1391.758</ele>
        <time>2021-05-28T10:14:00Z</time>
      </trkpt>
      <trkpt lat="42.426874" lon="2.479393">
        <ele>1391.652</ele>
        <time>2021-05-28T10:16:34Z</time>
      </trkpt>
      <trkpt lat="42.426888" lon="2.479370">
        <ele>1391.617</ele>
        <time>2021-05-28T10:18:37Z</time>
      </trkpt>
      <trkpt lat="42.426904" lon="2.479343">
        <ele>1391.608</ele>
        <time>2021-05-28T10:18:39Z</time>
      </trkpt>
      <trkpt lat="42.426911" lon="2.479321">
        <ele>1391.672</ele>
        <time>2021-05-28T10:18:43Z</time>
      </trkpt>
      <trkpt lat="42.426924" lon="2.479303">
        <ele>1391.779</ele>
        <time>2021-05-28T10:19:12Z</time>
      </trkpt>
      <trkpt lat="42.426936" lon="2.479278">
        <ele>1391.770</ele>
        <time>2021-05-28T10:19:15Z</time>
      </trkpt>
      <trkpt lat="42.426950" lon="2.479253">
        <ele>1391.899</ele>
        <time>2021-05-28T10:19:18Z</time>
      </trkpt>
      <trkpt lat="42.426963" lon="2.479225">
        <ele>1392.076</ele>
        <time>2021-05-28T10:19:19Z</time>
      </trkpt>
      <trkpt lat="42.426976" lon="2.479197">
        <ele>1392.271</ele>
        <time>2021-05-28T10:19:21Z</time>
      </trkpt>
      <trkpt lat="42.426990" lon="2.479176">
        <ele>1392.518</ele>
        <time>2021-05-28T10:19:23Z</time>
      </trkpt>
      <trkpt lat="42.427006" lon="2.479155">
        <ele>1392.796</ele>
        <time>2021-05-28T10:19:25Z</time>
      </trkpt>
      <trkpt lat="42.427028" lon="2.479136">
        <ele>1393.018</ele>
        <time>2021-05-28T10:19:27Z</time>
      </trkpt>
      <trkpt lat="42.427045" lon="2.479117">
        <ele>1393.198</ele>
        <time>2021-05-28T10:19:29Z</time>
      </trkpt>
      <trkpt lat="42.427062" lon="2.479103">
        <ele>1393.317</ele>
        <time>2021-05-28T10:19:31Z</time>
      </trkpt>
      <trkpt lat="42.427080" lon="2.479085">
        <ele>1393.508</ele>
        <time>2021-05-28T10:19:33Z</time>
      </trkpt>
      <trkpt lat="42.427095" lon="2.479067">
        <ele>1393.688</ele>
        <time>2021-05-28T10:19:35Z</time>
      </trkpt>
      <trkpt lat="42.427107" lon="2.479045">
        <ele>1393.545</ele>
        <time>2021-05-28T10:19:37Z</time>
      </trkpt>
      <trkpt lat="42.427120" lon="2.479022">
        <ele>1393.466</ele>
        <time>2021-05-28T10:19:39Z</time>
      </trkpt>
      <trkpt lat="42.427136" lon="2.478997">
        <ele>1393.415</ele>
        <time>2021-05-28T10:19:41Z</time>
      </trkpt>
      <trkpt lat="42.427154" lon="2.478974">
        <ele>1393.562</ele>
        <time>2021-05-28T10:19:43Z</time>
      </trkpt>
      <trkpt lat="42.427173" lon="2.478957">
        <ele>1393.727</ele>
        <time>2021-05-28T10:19:46Z</time>
      </trkpt>
      <trkpt lat="42.427195" lon="2.478941">
        <ele>1394.214</ele>
        <time>2021-05-28T10:19:49Z</time>
      </trkpt>
      <trkpt lat="42.427216" lon="2.478924">
        <ele>1394.572</ele>
        <time>2021-05-28T10:19:52Z</time>
      </trkpt>
      <trkpt lat="42.427232" lon="2.478906">
        <ele>1394.731</ele>
        <time>2021-05-28T10:19:54Z</time>
      </trkpt>
      <trkpt lat="42.427246" lon="2.478890">
        <ele>1394.961</ele>
        <time>2021-05-28T10:19:56Z</time>
      </trkpt>
      <trkpt lat="42.427268" lon="2.478870">
        <ele>1395.107</ele>
        <time>2021-05-28T10:19:59Z</time>
      </trkpt>
      <trkpt lat="42.427285" lon="2.478860">
        <ele>1395.508</ele>
        <time>2021-05-28T10:20:01Z</time>
      </trkpt>
      <trkpt lat="42.427303" lon="2.478852">
        <ele>1395.940</ele>
        <time>2021-05-28T10:20:03Z</time>
      </trkpt>
      <trkpt lat="42.427320" lon="2.478841">
        <ele>1396.367</ele>
        <time>2021-05-28T10:20:05Z</time>
      </trkpt>
      <trkpt lat="42.427331" lon="2.478820">
        <ele>1396.148</ele>
        <time>2021-05-28T10:20:07Z</time>
      </trkpt>
      <trkpt lat="42.427344" lon="2.478798">
        <ele>1396.167</ele>
        <time>2021-05-28T10:20:09Z</time>
      </trkpt>
      <trkpt lat="42.427361" lon="2.478781">
        <ele>1396.324</ele>
        <time>2021-05-28T10:20:11Z</time>
      </trkpt>
      <trkpt lat="42.427382" lon="2.478764">
        <ele>1396.749</ele>
        <time>2021-05-28T10:20:14Z</time>
      </trkpt>
      <trkpt lat="42.427399" lon="2.478750">
        <ele>1397.096</ele>
        <time>2021-05-28T10:20:17Z</time>
      </trkpt>
      <trkpt lat="42.427413" lon="2.478732">
        <ele>1397.184</ele>
        <time>2021-05-28T10:20:19Z</time>
      </trkpt>
      <trkpt lat="42.427426" lon="2.478709">
        <ele>1397.123</ele>
        <time>2021-05-28T10:20:22Z</time>
      </trkpt>
      <trkpt lat="42.427446" lon="2.478689">
        <ele>1397.583</ele>
        <time>2021-05-28T10:20:26Z</time>
      </trkpt>
      <trkpt lat="42.427462" lon="2.478667">
        <ele>1397.611</ele>
        <time>2021-05-28T10:20:29Z</time>
      </trkpt>
      <trkpt lat="42.427480" lon="2.478655">
        <ele>1398.108</ele>
        <time>2021-05-28T10:20:33Z</time>
      </trkpt>
      <trkpt lat="42.427503" lon="2.478637">
        <ele>1398.689</ele>
        <time>2021-05-28T10:20:36Z</time>
      </trkpt>
      <trkpt lat="42.427520" lon="2.478626">
        <ele>1398.986</ele>
        <time>2021-05-28T10:20:38Z</time>
      </trkpt>
      <trkpt lat="42.427534" lon="2.478607">
        <ele>1399.077</ele>
        <time>2021-05-28T10:20:41Z</time>
      </trkpt>
      <trkpt lat="42.427557" lon="2.478587">
        <ele>1399.356</ele>
        <time>2021-05-28T10:20:43Z</time>
      </trkpt>
      <trkpt lat="42.427573" lon="2.478562">
        <ele>1399.263</ele>
        <time>2021-05-28T10:20:45Z</time>
      </trkpt>
      <trkpt lat="42.427587" lon="2.478541">
        <ele>1399.258</ele>
        <time>2021-05-28T10:20:47Z</time>
      </trkpt>
      <trkpt lat="42.427594" lon="2.478512">
        <ele>1398.815</ele>
        <time>2021-05-28T10:20:49Z</time>
      </trkpt>
      <trkpt lat="42.427612" lon="2.478482">
        <ele>1398.863</ele>
        <time>2021-05-28T10:20:51Z</time>
      </trkpt>
      <trkpt lat="42.427630" lon="2.478455">
        <ele>1398.849</ele>
        <time>2021-05-28T10:20:53Z</time>
      </trkpt>
      <trkpt lat="42.427646" lon="2.478434">
        <ele>1398.902</ele>
        <time>2021-05-28T10:20:55Z</time>
      </trkpt>
      <trkpt lat="42.427656" lon="2.478412">
        <ele>1398.822</ele>
        <time>2021-05-28T10:20:57Z</time>
      </trkpt>
      <trkpt lat="42.427672" lon="2.478399">
        <ele>1399.208</ele>
        <time>2021-05-28T10:20:59Z</time>
      </trkpt>
      <trkpt lat="42.427686" lon="2.478379">
        <ele>1399.371</ele>
        <time>2021-05-28T10:21:01Z</time>
      </trkpt>
      <trkpt lat="42.427696" lon="2.478358">
        <ele>1399.328</ele>
        <time>2021-05-28T10:21:03Z</time>
      </trkpt>
      <trkpt lat="42.427712" lon="2.478331">
        <ele>1399.399</ele>
        <time>2021-05-28T10:21:06Z</time>
      </trkpt>
      <trkpt lat="42.427728" lon="2.478304">
        <ele>1399.428</ele>
        <time>2021-05-28T10:21:08Z</time>
      </trkpt>
      <trkpt lat="42.427744" lon="2.478278">
        <ele>1399.445</ele>
        <time>2021-05-28T10:21:10Z</time>
      </trkpt>
      <trkpt lat="42.427760" lon="2.478257">
        <ele>1399.670</ele>
        <time>2021-05-28T10:21:12Z</time>
      </trkpt>
      <trkpt lat="42.427773" lon="2.478234">
        <ele>1399.797</ele>
        <time>2021-05-28T10:21:14Z</time>
      </trkpt>
      <trkpt lat="42.427782" lon="2.478205">
        <ele>1399.295</ele>
        <time>2021-05-28T10:21:16Z</time>
      </trkpt>
      <trkpt lat="42.427792" lon="2.478180">
        <ele>1398.744</ele>
        <time>2021-05-28T10:21:18Z</time>
      </trkpt>
      <trkpt lat="42.427803" lon="2.478158">
        <ele>1398.305</ele>
        <time>2021-05-28T10:21:20Z</time>
      </trkpt>
      <trkpt lat="42.427823" lon="2.478139">
        <ele>1398.115</ele>
        <time>2021-05-28T10:21:23Z</time>
      </trkpt>
      <trkpt lat="42.427840" lon="2.478123">
        <ele>1398.008</ele>
        <time>2021-05-28T10:21:25Z</time>
      </trkpt>
      <trkpt lat="42.427856" lon="2.478099">
        <ele>1397.821</ele>
        <time>2021-05-28T10:21:27Z</time>
      </trkpt>
      <trkpt lat="42.427876" lon="2.478075">
        <ele>1397.798</ele>
        <time>2021-05-28T10:21:30Z</time>
      </trkpt>
      <trkpt lat="42.427897" lon="2.478056">
        <ele>1397.749</ele>
        <time>2021-05-28T10:21:33Z</time>
      </trkpt>
      <trkpt lat="42.427912" lon="2.478034">
        <ele>1397.788</ele>
        <time>2021-05-28T10:21:36Z</time>
      </trkpt>
      <trkpt lat="42.427929" lon="2.478018">
        <ele>1397.865</ele>
        <time>2021-05-28T10:21:38Z</time>
      </trkpt>
      <trkpt lat="42.427951" lon="2.478007">
        <ele>1398.120</ele>
        <time>2021-05-28T10:21:40Z</time>
      </trkpt>
      <trkpt lat="42.427972" lon="2.477999">
        <ele>1398.447</ele>
        <time>2021-05-28T10:21:42Z</time>
      </trkpt>
      <trkpt lat="42.427989" lon="2.477988">
        <ele>1398.725</ele>
        <time>2021-05-28T10:21:44Z</time>
      </trkpt>
      <trkpt lat="42.428015" lon="2.477979">
        <ele>1399.245</ele>
        <time>2021-05-28T10:21:47Z</time>
      </trkpt>
      <trkpt lat="42.428040" lon="2.477969">
        <ele>1399.747</ele>
        <time>2021-05-28T10:21:51Z</time>
      </trkpt>
      <trkpt lat="42.428068" lon="2.477959">
        <ele>1399.911</ele>
        <time>2021-05-28T10:21:54Z</time>
      </trkpt>
      <trkpt lat="42.428090" lon="2.477935">
        <ele>1399.908</ele>
        <time>2021-05-28T10:21:57Z</time>
      </trkpt>
      <trkpt lat="42.428112" lon="2.477913">
        <ele>1399.961</ele>
        <time>2021-05-28T10:21:59Z</time>
      </trkpt>
      <trkpt lat="42.428126" lon="2.477889">
        <ele>1400.068</ele>
        <time>2021-05-28T10:22:01Z</time>
      </trkpt>
      <trkpt lat="42.428139" lon="2.477864">
        <ele>1400.139</ele>
        <time>2021-05-28T10:22:03Z</time>
      </trkpt>
      <trkpt lat="42.428158" lon="2.477845">
        <ele>1400.378</ele>
        <time>2021-05-28T10:22:05Z</time>
      </trkpt>
      <trkpt lat="42.428174" lon="2.477821">
        <ele>1400.555</ele>
        <time>2021-05-28T10:22:07Z</time>
      </trkpt>
      <trkpt lat="42.428186" lon="2.477797">
        <ele>1400.860</ele>
        <time>2021-05-28T10:22:09Z</time>
      </trkpt>
      <trkpt lat="42.428197" lon="2.477776">
        <ele>1401.047</ele>
        <time>2021-05-28T10:22:11Z</time>
      </trkpt>
      <trkpt lat="42.428207" lon="2.477754">
        <ele>1401.285</ele>
        <time>2021-05-28T10:22:13Z</time>
      </trkpt>
      <trkpt lat="42.428221" lon="2.477731">
        <ele>1401.441</ele>
        <time>2021-05-28T10:22:15Z</time>
      </trkpt>
      <trkpt lat="42.428238" lon="2.477707">
        <ele>1401.781</ele>
        <time>2021-05-28T10:22:17Z</time>
      </trkpt>
      <trkpt lat="42.428261" lon="2.477684">
        <ele>1402.209</ele>
        <time>2021-05-28T10:22:19Z</time>
      </trkpt>
      <trkpt lat="42.428277" lon="2.477664">
        <ele>1402.708</ele>
        <time>2021-05-28T10:22:21Z</time>
      </trkpt>
      <trkpt lat="42.428294" lon="2.477643">
        <ele>1403.221</ele>
        <time>2021-05-28T10:22:23Z</time>
      </trkpt>
      <trkpt lat="42.428313" lon="2.477621">
        <ele>1403.848</ele>
        <time>2021-05-28T10:22:25Z</time>
      </trkpt>
      <trkpt lat="42.428332" lon="2.477601">
        <ele>1404.589</ele>
        <time>2021-05-28T10:22:27Z</time>
      </trkpt>
      <trkpt lat="42.428347" lon="2.477576">
        <ele>1404.718</ele>
        <time>2021-05-28T10:22:29Z</time>
      </trkpt>
      <trkpt lat="42.428360" lon="2.477553">
        <ele>1404.825</ele>
        <time>2021-05-28T10:22:31Z</time>
      </trkpt>
      <trkpt lat="42.428371" lon="2.477534">
        <ele>1405.020</ele>
        <time>2021-05-28T10:22:34Z</time>
      </trkpt>
      <trkpt lat="42.428387" lon="2.477508">
        <ele>1405.377</ele>
        <time>2021-05-28T10:22:36Z</time>
      </trkpt>
      <trkpt lat="42.428405" lon="2.477486">
        <ele>1405.225</ele>
        <time>2021-05-28T10:22:39Z</time>
      </trkpt>
      <trkpt lat="42.428423" lon="2.477460">
        <ele>1405.153</ele>
        <time>2021-05-28T10:22:42Z</time>
      </trkpt>
      <trkpt lat="42.428434" lon="2.477440">
        <ele>1405.104</ele>
        <time>2021-05-28T10:22:44Z</time>
      </trkpt>
      <trkpt lat="42.428450" lon="2.477414">
        <ele>1405.214</ele>
        <time>2021-05-28T10:22:47Z</time>
      </trkpt>
      <trkpt lat="42.428471" lon="2.477392">
        <ele>1405.308</ele>
        <time>2021-05-28T10:22:50Z</time>
      </trkpt>
      <trkpt lat="42.428487" lon="2.477376">
        <ele>1405.452</ele>
        <time>2021-05-28T10:22:52Z</time>
      </trkpt>
      <trkpt lat="42.428501" lon="2.477360">
        <ele>1405.639</ele>
        <time>2021-05-28T10:22:54Z</time>
      </trkpt>
      <trkpt lat="42.428522" lon="2.477339">
        <ele>1406.020</ele>
        <time>2021-05-28T10:22:57Z</time>
      </trkpt>
      <trkpt lat="42.428539" lon="2.477318">
        <ele>1406.329</ele>
        <time>2021-05-28T10:23:00Z</time>
      </trkpt>
      <trkpt lat="42.428552" lon="2.477296">
        <ele>1406.886</ele>
        <time>2021-05-28T10:23:03Z</time>
      </trkpt>
      <trkpt lat="42.428554" lon="2.477269">
        <ele>1407.211</ele>
        <time>2021-05-28T10:23:08Z</time>
      </trkpt>
      <trkpt lat="42.428562" lon="2.477247">
        <ele>1407.768</ele>
        <time>2021-05-28T10:23:22Z</time>
      </trkpt>
      <trkpt lat="42.428567" lon="2.477221">
        <ele>1408.296</ele>
        <time>2021-05-28T10:23:59Z</time>
      </trkpt>
      <trkpt lat="42.428574" lon="2.477189">
        <ele>1408.443</ele>
        <time>2021-05-28T10:24:02Z</time>
      </trkpt>
      <trkpt lat="42.428579" lon="2.477154">
        <ele>1408.564</ele>
        <time>2021-05-28T10:24:05Z</time>
      </trkpt>
      <trkpt lat="42.428579" lon="2.477126">
        <ele>1408.510</ele>
        <time>2021-05-28T10:24:07Z</time>
      </trkpt>
      <trkpt lat="42.428588" lon="2.477098">
        <ele>1408.808</ele>
        <time>2021-05-28T10:24:09Z</time>
      </trkpt>
      <trkpt lat="42.428598" lon="2.477068">
        <ele>1409.221</ele>
        <time>2021-05-28T10:24:11Z</time>
      </trkpt>
      <trkpt lat="42.428608" lon="2.477032">
        <ele>1409.648</ele>
        <time>2021-05-28T10:24:14Z</time>
      </trkpt>
      <trkpt lat="42.428615" lon="2.477003">
        <ele>1409.849</ele>
        <time>2021-05-28T10:24:16Z</time>
      </trkpt>
      <trkpt lat="42.428622" lon="2.476973">
        <ele>1409.918</ele>
        <time>2021-05-28T10:24:18Z</time>
      </trkpt>
      <trkpt lat="42.428625" lon="2.476943">
        <ele>1410.145</ele>
        <time>2021-05-28T10:24:20Z</time>
      </trkpt>
      <trkpt lat="42.428626" lon="2.476907">
        <ele>1410.020</ele>
        <time>2021-05-28T10:24:23Z</time>
      </trkpt>
      <trkpt lat="42.428627" lon="2.476870">
        <ele>1410.057</ele>
        <time>2021-05-28T10:24:25Z</time>
      </trkpt>
      <trkpt lat="42.428655" lon="2.476806">
        <ele>1410.415</ele>
        <time>2021-05-28T10:24:28Z</time>
      </trkpt>
      <trkpt lat="42.428671" lon="2.476788">
        <ele>1410.715</ele>
        <time>2021-05-28T10:24:29Z</time>
      </trkpt>
      <trkpt lat="42.428704" lon="2.476753">
        <ele>1411.665</ele>
        <time>2021-05-28T10:24:31Z</time>
      </trkpt>
      <trkpt lat="42.428718" lon="2.476735">
        <ele>1412.011</ele>
        <time>2021-05-28T10:24:32Z</time>
      </trkpt>
      <trkpt lat="42.428734" lon="2.476715">
        <ele>1412.608</ele>
        <time>2021-05-28T10:24:33Z</time>
      </trkpt>
      <trkpt lat="42.428750" lon="2.476693">
        <ele>1413.338</ele>
        <time>2021-05-28T10:24:34Z</time>
      </trkpt>
      <trkpt lat="42.428763" lon="2.476674">
        <ele>1413.835</ele>
        <time>2021-05-28T10:24:35Z</time>
      </trkpt>
      <trkpt lat="42.428769" lon="2.476632">
        <ele>1414.186</ele>
        <time>2021-05-28T10:24:37Z</time>
      </trkpt>
      <trkpt lat="42.428775" lon="2.476599">
        <ele>1414.315</ele>
        <time>2021-05-28T10:24:39Z</time>
      </trkpt>
      <trkpt lat="42.428780" lon="2.476563">
        <ele>1414.432</ele>
        <time>2021-05-28T10:24:41Z</time>
      </trkpt>
      <trkpt lat="42.428794" lon="2.476534">
        <ele>1414.977</ele>
        <time>2021-05-28T10:24:43Z</time>
      </trkpt>
      <trkpt lat="42.428804" lon="2.476488">
        <ele>1415.344</ele>
        <time>2021-05-28T10:24:45Z</time>
      </trkpt>
      <trkpt lat="42.428813" lon="2.476464">
        <ele>1415.712</ele>
        <time>2021-05-28T10:24:46Z</time>
      </trkpt>
      <trkpt lat="42.428824" lon="2.476443">
        <ele>1416.189</ele>
        <time>2021-05-28T10:24:47Z</time>
      </trkpt>
      <trkpt lat="42.428840" lon="2.476401">
        <ele>1416.906</ele>
        <time>2021-05-28T10:24:49Z</time>
      </trkpt>
      <trkpt lat="42.428854" lon="2.476368">
        <ele>1417.426</ele>
        <time>2021-05-28T10:24:51Z</time>
      </trkpt>
      <trkpt lat="42.428868" lon="2.476328">
        <ele>1417.808</ele>
        <time>2021-05-28T10:24:54Z</time>
      </trkpt>
      <trkpt lat="42.428876" lon="2.476306">
        <ele>1418.135</ele>
        <time>2021-05-28T10:24:55Z</time>
      </trkpt>
      <trkpt lat="42.428887" lon="2.476278">
        <ele>1418.532</ele>
        <time>2021-05-28T10:24:56Z</time>
      </trkpt>
      <trkpt lat="42.428892" lon="2.476236">
        <ele>1418.533</ele>
        <time>2021-05-28T10:24:58Z</time>
      </trkpt>
      <trkpt lat="42.428900" lon="2.476207">
        <ele>1418.632</ele>
        <time>2021-05-28T10:24:59Z</time>
      </trkpt>
      <trkpt lat="42.428911" lon="2.476185">
        <ele>1418.829</ele>
        <time>2021-05-28T10:25:00Z</time>
      </trkpt>
      <trkpt lat="42.428934" lon="2.476145">
        <ele>1419.434</ele>
        <time>2021-05-28T10:25:02Z</time>
      </trkpt>
      <trkpt lat="42.428946" lon="2.476124">
        <ele>1419.821</ele>
        <time>2021-05-28T10:25:03Z</time>
      </trkpt>
      <trkpt lat="42.428961" lon="2.476099">
        <ele>1420.289</ele>
        <time>2021-05-28T10:25:04Z</time>
      </trkpt>
      <trkpt lat="42.429009" lon="2.475978">
        <ele>1421.446</ele>
        <time>2021-05-28T10:25:09Z</time>
      </trkpt>
      <trkpt lat="42.429034" lon="2.475847">
        <ele>1422.488</ele>
        <time>2021-05-28T10:25:15Z</time>
      </trkpt>
      <trkpt lat="42.429073" lon="2.475733">
        <ele>1423.116</ele>
        <time>2021-05-28T10:25:22Z</time>
      </trkpt>
      <trkpt lat="42.429089" lon="2.475701">
        <ele>1423.708</ele>
        <time>2021-05-28T10:25:25Z</time>
      </trkpt>
      <trkpt lat="42.429090" lon="2.475669">
        <ele>1423.241</ele>
        <time>2021-05-28T10:25:26Z</time>
      </trkpt>
      <trkpt lat="42.429096" lon="2.475629">
        <ele>1422.928</ele>
        <time>2021-05-28T10:25:28Z</time>
      </trkpt>
      <trkpt lat="42.429108" lon="2.475591">
        <ele>1423.239</ele>
        <time>2021-05-28T10:25:30Z</time>
      </trkpt>
      <trkpt lat="42.429123" lon="2.475558">
        <ele>1423.798</ele>
        <time>2021-05-28T10:25:32Z</time>
      </trkpt>
      <trkpt lat="42.429141" lon="2.475533">
        <ele>1424.645</ele>
        <time>2021-05-28T10:25:34Z</time>
      </trkpt>
      <trkpt lat="42.429161" lon="2.475505">
        <ele>1425.570</ele>
        <time>2021-05-28T10:25:36Z</time>
      </trkpt>
      <trkpt lat="42.429175" lon="2.475476">
        <ele>1425.847</ele>
        <time>2021-05-28T10:25:38Z</time>
      </trkpt>
      <trkpt lat="42.429184" lon="2.475452">
        <ele>1425.845</ele>
        <time>2021-05-28T10:25:40Z</time>
      </trkpt>
      <trkpt lat="42.429229" lon="2.475339">
        <ele>1426.564</ele>
        <time>2021-05-28T10:25:49Z</time>
      </trkpt>
      <trkpt lat="42.429287" lon="2.475240">
        <ele>1429.006</ele>
        <time>2021-05-28T10:25:59Z</time>
      </trkpt>
      <trkpt lat="42.429344" lon="2.475116">
        <ele>1431.216</ele>
        <time>2021-05-28T10:26:06Z</time>
      </trkpt>
      <trkpt lat="42.429408" lon="2.475016">
        <ele>1434.508</ele>
        <time>2021-05-28T10:26:13Z</time>
      </trkpt>
      <trkpt lat="42.429425" lon="2.474945">
        <ele>1434.943</ele>
        <time>2021-05-28T10:26:17Z</time>
      </trkpt>
      <trkpt lat="42.429420" lon="2.474909">
        <ele>1434.210</ele>
        <time>2021-05-28T10:26:19Z</time>
      </trkpt>
      <trkpt lat="42.429428" lon="2.474873">
        <ele>1434.481</ele>
        <time>2021-05-28T10:26:21Z</time>
      </trkpt>
      <trkpt lat="42.429424" lon="2.474806">
        <ele>1433.430</ele>
        <time>2021-05-28T10:26:25Z</time>
      </trkpt>
      <trkpt lat="42.429428" lon="2.474747">
        <ele>1433.047</ele>
        <time>2021-05-28T10:26:30Z</time>
      </trkpt>
      <trkpt lat="42.429436" lon="2.474617">
        <ele>1432.232</ele>
        <time>2021-05-28T10:26:36Z</time>
      </trkpt>
      <trkpt lat="42.429426" lon="2.474578">
        <ele>1431.119</ele>
        <time>2021-05-28T10:26:38Z</time>
      </trkpt>
      <trkpt lat="42.429432" lon="2.474552">
        <ele>1431.327</ele>
        <time>2021-05-28T10:26:41Z</time>
      </trkpt>
      <trkpt lat="42.429446" lon="2.474532">
        <ele>1432.096</ele>
        <time>2021-05-28T10:26:43Z</time>
      </trkpt>
      <trkpt lat="42.429457" lon="2.474502">
        <ele>1432.331</ele>
        <time>2021-05-28T10:26:45Z</time>
      </trkpt>
      <trkpt lat="42.429467" lon="2.474475">
        <ele>1432.524</ele>
        <time>2021-05-28T10:26:47Z</time>
      </trkpt>
      <trkpt lat="42.429477" lon="2.474444">
        <ele>1432.808</ele>
        <time>2021-05-28T10:26:49Z</time>
      </trkpt>
      <trkpt lat="42.429476" lon="2.474416">
        <ele>1432.326</ele>
        <time>2021-05-28T10:26:51Z</time>
      </trkpt>
      <trkpt lat="42.429485" lon="2.474333">
        <ele>1431.743</ele>
        <time>2021-05-28T10:26:55Z</time>
      </trkpt>
      <trkpt lat="42.429487" lon="2.474309">
        <ele>1431.574</ele>
        <time>2021-05-28T10:26:56Z</time>
      </trkpt>
      <trkpt lat="42.429510" lon="2.474187">
        <ele>1431.373</ele>
        <time>2021-05-28T10:27:02Z</time>
      </trkpt>
      <trkpt lat="42.429513" lon="2.474055">
        <ele>1430.140</ele>
        <time>2021-05-28T10:27:10Z</time>
      </trkpt>
      <trkpt lat="42.429505" lon="2.473931">
        <ele>1428.395</ele>
        <time>2021-05-28T10:27:16Z</time>
      </trkpt>
      <trkpt lat="42.429494" lon="2.473807">
        <ele>1426.332</ele>
        <time>2021-05-28T10:27:24Z</time>
      </trkpt>
      <trkpt lat="42.429525" lon="2.473692">
        <ele>1427.190</ele>
        <time>2021-05-28T10:27:29Z</time>
      </trkpt>
      <trkpt lat="42.429567" lon="2.473569">
        <ele>1428.782</ele>
        <time>2021-05-28T10:27:36Z</time>
      </trkpt>
      <trkpt lat="42.429576" lon="2.473461">
        <ele>1428.743</ele>
        <time>2021-05-28T10:27:41Z</time>
      </trkpt>
      <trkpt lat="42.429551" lon="2.473334">
        <ele>1426.317</ele>
        <time>2021-05-28T10:27:49Z</time>
      </trkpt>
      <trkpt lat="42.429519" lon="2.473220">
        <ele>1424.908</ele>
        <time>2021-05-28T10:27:58Z</time>
      </trkpt>
      <trkpt lat="42.429519" lon="2.473093">
        <ele>1425.895</ele>
        <time>2021-05-28T10:28:08Z</time>
      </trkpt>
      <trkpt lat="42.429490" lon="2.472976">
        <ele>1424.972</ele>
        <time>2021-05-28T10:28:16Z</time>
      </trkpt>
      <trkpt lat="42.429482" lon="2.472850">
        <ele>1425.683</ele>
        <time>2021-05-28T10:28:23Z</time>
      </trkpt>
      <trkpt lat="42.429470" lon="2.472724">
        <ele>1426.062</ele>
        <time>2021-05-28T10:28:33Z</time>
      </trkpt>
      <trkpt lat="42.429440" lon="2.472605">
        <ele>1425.089</ele>
        <time>2021-05-28T10:28:41Z</time>
      </trkpt>
      <trkpt lat="42.429393" lon="2.472489">
        <ele>1423.124</ele>
        <time>2021-05-28T10:28:48Z</time>
      </trkpt>
      <trkpt lat="42.429369" lon="2.472363">
        <ele>1422.161</ele>
        <time>2021-05-28T10:28:57Z</time>
      </trkpt>
      <trkpt lat="42.429377" lon="2.472233">
        <ele>1423.169</ele>
        <time>2021-05-28T10:29:08Z</time>
      </trkpt>
      <trkpt lat="42.429370" lon="2.472110">
        <ele>1422.376</ele>
        <time>2021-05-28T10:29:15Z</time>
      </trkpt>
      <trkpt lat="42.429384" lon="2.471971">
        <ele>1422.790</ele>
        <time>2021-05-28T10:29:22Z</time>
      </trkpt>
      <trkpt lat="42.429395" lon="2.471849">
        <ele>1423.419</ele>
        <time>2021-05-28T10:29:28Z</time>
      </trkpt>
      <trkpt lat="42.429390" lon="2.471781">
        <ele>1423.008</ele>
        <time>2021-05-28T10:29:31Z</time>
      </trkpt>
      <trkpt lat="42.429378" lon="2.471750">
        <ele>1422.024</ele>
        <time>2021-05-28T10:29:33Z</time>
      </trkpt>
      <trkpt lat="42.429369" lon="2.471720">
        <ele>1421.391</ele>
        <time>2021-05-28T10:29:35Z</time>
      </trkpt>
      <trkpt lat="42.429378" lon="2.471597">
        <ele>1422.022</ele>
        <time>2021-05-28T10:29:41Z</time>
      </trkpt>
      <trkpt lat="42.429379" lon="2.471473">
        <ele>1422.261</ele>
        <time>2021-05-28T10:29:50Z</time>
      </trkpt>
      <trkpt lat="42.429390" lon="2.471350">
        <ele>1423.288</ele>
        <time>2021-05-28T10:29:55Z</time>
      </trkpt>
      <trkpt lat="42.429396" lon="2.471308">
        <ele>1423.993</ele>
        <time>2021-05-28T10:29:57Z</time>
      </trkpt>
      <trkpt lat="42.429384" lon="2.471276">
        <ele>1423.170</ele>
        <time>2021-05-28T10:29:59Z</time>
      </trkpt>
      <trkpt lat="42.429374" lon="2.471246">
        <ele>1422.668</ele>
        <time>2021-05-28T10:30:01Z</time>
      </trkpt>
      <trkpt lat="42.429369" lon="2.471215">
        <ele>1422.478</ele>
        <time>2021-05-28T10:30:03Z</time>
      </trkpt>
      <trkpt lat="42.429350" lon="2.471082">
        <ele>1421.733</ele>
        <time>2021-05-28T10:30:11Z</time>
      </trkpt>
      <trkpt lat="42.429350" lon="2.470995">
        <ele>1422.226</ele>
        <time>2021-05-28T10:30:15Z</time>
      </trkpt>
      <trkpt lat="42.429357" lon="2.470953">
        <ele>1423.008</ele>
        <time>2021-05-28T10:30:17Z</time>
      </trkpt>
      <trkpt lat="42.429352" lon="2.470912">
        <ele>1422.974</ele>
        <time>2021-05-28T10:30:19Z</time>
      </trkpt>
      <trkpt lat="42.429348" lon="2.470840">
        <ele>1423.071</ele>
        <time>2021-05-28T10:30:23Z</time>
      </trkpt>
      <trkpt lat="42.429347" lon="2.470801">
        <ele>1422.472</ele>
        <time>2021-05-28T10:30:25Z</time>
      </trkpt>
      <trkpt lat="42.429351" lon="2.470762">
        <ele>1422.121</ele>
        <time>2021-05-28T10:30:28Z</time>
      </trkpt>
      <trkpt lat="42.429355" lon="2.470728">
        <ele>1421.828</ele>
        <time>2021-05-28T10:30:30Z</time>
      </trkpt>
      <trkpt lat="42.429363" lon="2.470697">
        <ele>1421.963</ele>
        <time>2021-05-28T10:30:32Z</time>
      </trkpt>
      <trkpt lat="42.429361" lon="2.470669">
        <ele>1421.310</ele>
        <time>2021-05-28T10:30:35Z</time>
      </trkpt>
      <trkpt lat="42.429355" lon="2.470544">
        <ele>1418.958</ele>
        <time>2021-05-28T10:30:45Z</time>
      </trkpt>
      <trkpt lat="42.429292" lon="2.470427">
        <ele>1413.849</ele>
        <time>2021-05-28T10:30:52Z</time>
      </trkpt>
      <trkpt lat="42.429232" lon="2.470315">
        <ele>1409.402</ele>
        <time>2021-05-28T10:30:59Z</time>
      </trkpt>
      <trkpt lat="42.429192" lon="2.470189">
        <ele>1409.322</ele>
        <time>2021-05-28T10:31:08Z</time>
      </trkpt>
      <trkpt lat="42.429172" lon="2.470069">
        <ele>1411.408</ele>
        <time>2021-05-28T10:31:15Z</time>
      </trkpt>
      <trkpt lat="42.429119" lon="2.469963">
        <ele>1412.071</ele>
        <time>2021-05-28T10:31:25Z</time>
      </trkpt>
      <trkpt lat="42.429051" lon="2.469866">
        <ele>1412.118</ele>
        <time>2021-05-28T10:31:34Z</time>
      </trkpt>
      <trkpt lat="42.429003" lon="2.469762">
        <ele>1413.259</ele>
        <time>2021-05-28T10:31:40Z</time>
      </trkpt>
      <trkpt lat="42.428958" lon="2.469640">
        <ele>1413.788</ele>
        <time>2021-05-28T10:31:51Z</time>
      </trkpt>
      <trkpt lat="42.428922" lon="2.469521">
        <ele>1413.895</ele>
        <time>2021-05-28T10:31:59Z</time>
      </trkpt>
      <trkpt lat="42.428914" lon="2.469414">
        <ele>1415.260</ele>
        <time>2021-05-28T10:32:05Z</time>
      </trkpt>
      <trkpt lat="42.428906" lon="2.469371">
        <ele>1415.227</ele>
        <time>2021-05-28T10:32:07Z</time>
      </trkpt>
      <trkpt lat="42.428889" lon="2.469334">
        <ele>1414.625</ele>
        <time>2021-05-28T10:32:09Z</time>
      </trkpt>
      <trkpt lat="42.428877" lon="2.469314">
        <ele>1414.072</ele>
        <time>2021-05-28T10:32:10Z</time>
      </trkpt>
      <trkpt lat="42.428869" lon="2.469282">
        <ele>1413.913</ele>
        <time>2021-05-28T10:32:12Z</time>
      </trkpt>
      <trkpt lat="42.428867" lon="2.469252">
        <ele>1414.214</ele>
        <time>2021-05-28T10:32:14Z</time>
      </trkpt>
      <trkpt lat="42.428858" lon="2.469227">
        <ele>1414.008</ele>
        <time>2021-05-28T10:32:16Z</time>
      </trkpt>
      <trkpt lat="42.428788" lon="2.469147">
        <ele>1410.454</ele>
        <time>2021-05-28T10:32:31Z</time>
      </trkpt>
      <trkpt lat="42.428709" lon="2.469072">
        <ele>1406.671</ele>
        <time>2021-05-28T10:32:38Z</time>
      </trkpt>
      <trkpt lat="42.428681" lon="2.468953">
        <ele>1407.442</ele>
        <time>2021-05-28T10:32:47Z</time>
      </trkpt>
      <trkpt lat="42.428602" lon="2.468877">
        <ele>1405.581</ele>
        <time>2021-05-28T10:32:58Z</time>
      </trkpt>
      <trkpt lat="42.428564" lon="2.468996">
        <ele>1402.438</ele>
        <time>2021-05-28T10:33:14Z</time>
      </trkpt>
      <trkpt lat="42.428468" lon="2.469019">
        <ele>1401.693</ele>
        <time>2021-05-28T10:33:20Z</time>
      </trkpt>
      <trkpt lat="42.428390" lon="2.469090">
        <ele>1398.340</ele>
        <time>2021-05-28T10:33:28Z</time>
      </trkpt>
      <trkpt lat="42.428297" lon="2.469135">
        <ele>1396.938</ele>
        <time>2021-05-28T10:33:34Z</time>
      </trkpt>
      <trkpt lat="42.428205" lon="2.469173">
        <ele>1398.319</ele>
        <time>2021-05-28T10:33:41Z</time>
      </trkpt>
      <trkpt lat="42.428112" lon="2.469226">
        <ele>1399.509</ele>
        <time>2021-05-28T10:33:49Z</time>
      </trkpt>
      <trkpt lat="42.428028" lon="2.469276">
        <ele>1400.219</ele>
        <time>2021-05-28T10:33:56Z</time>
      </trkpt>
      <trkpt lat="42.427938" lon="2.469325">
        <ele>1400.308</ele>
        <time>2021-05-28T10:34:03Z</time>
      </trkpt>
      <trkpt lat="42.427846" lon="2.469383">
        <ele>1400.438</ele>
        <time>2021-05-28T10:34:07Z</time>
      </trkpt>
      <trkpt lat="42.427755" lon="2.469423">
        <ele>1401.015</ele>
        <time>2021-05-28T10:34:18Z</time>
      </trkpt>
      <trkpt lat="42.427663" lon="2.469469">
        <ele>1399.966</ele>
        <time>2021-05-28T10:34:28Z</time>
      </trkpt>
      <trkpt lat="42.427570" lon="2.469540">
        <ele>1397.065</ele>
        <time>2021-05-28T10:34:38Z</time>
      </trkpt>
      <trkpt lat="42.427472" lon="2.469584">
        <ele>1395.922</ele>
        <time>2021-05-28T10:34:45Z</time>
      </trkpt>
      <trkpt lat="42.427379" lon="2.469615">
        <ele>1395.847</ele>
        <time>2021-05-28T10:34:51Z</time>
      </trkpt>
      <trkpt lat="42.427283" lon="2.469666">
        <ele>1394.864</ele>
        <time>2021-05-28T10:34:58Z</time>
      </trkpt>
      <trkpt lat="42.427193" lon="2.469707">
        <ele>1394.432</ele>
        <time>2021-05-28T10:35:05Z</time>
      </trkpt>
      <trkpt lat="42.427122" lon="2.469783">
        <ele>1392.153</ele>
        <time>2021-05-28T10:35:13Z</time>
      </trkpt>
      <trkpt lat="42.427039" lon="2.469833">
        <ele>1391.004</ele>
        <time>2021-05-28T10:35:22Z</time>
      </trkpt>
      <trkpt lat="42.426943" lon="2.469886">
        <ele>1389.614</ele>
        <time>2021-05-28T10:35:31Z</time>
      </trkpt>
      <trkpt lat="42.426846" lon="2.469899">
        <ele>1391.008</ele>
        <time>2021-05-28T10:35:39Z</time>
      </trkpt>
      <trkpt lat="42.426755" lon="2.469931">
        <ele>1391.442</ele>
        <time>2021-05-28T10:35:47Z</time>
      </trkpt>
      <trkpt lat="42.426664" lon="2.469939">
        <ele>1393.159</ele>
        <time>2021-05-28T10:35:57Z</time>
      </trkpt>
      <trkpt lat="42.426580" lon="2.469990">
        <ele>1392.670</ele>
        <time>2021-05-28T10:36:06Z</time>
      </trkpt>
      <trkpt lat="42.426481" lon="2.470020">
        <ele>1393.719</ele>
        <time>2021-05-28T10:36:13Z</time>
      </trkpt>
      <trkpt lat="42.426398" lon="2.470070">
        <ele>1393.566</ele>
        <time>2021-05-28T10:36:18Z</time>
      </trkpt>
      <trkpt lat="42.426295" lon="2.470088">
        <ele>1394.391</ele>
        <time>2021-05-28T10:36:22Z</time>
      </trkpt>
      <trkpt lat="42.426186" lon="2.470080">
        <ele>1396.288</ele>
        <time>2021-05-28T10:36:26Z</time>
      </trkpt>
      <trkpt lat="42.426165" lon="2.470073">
        <ele>1396.716</ele>
        <time>2021-05-28T10:36:27Z</time>
      </trkpt>
      <trkpt lat="42.426073" lon="2.470062">
        <ele>1397.824</ele>
        <time>2021-05-28T10:36:32Z</time>
      </trkpt>
      <trkpt lat="42.426051" lon="2.470057">
        <ele>1398.004</ele>
        <time>2021-05-28T10:36:33Z</time>
      </trkpt>
      <trkpt lat="42.426023" lon="2.470049">
        <ele>1398.214</ele>
        <time>2021-05-28T10:36:35Z</time>
      </trkpt>
      <trkpt lat="42.426003" lon="2.470025">
        <ele>1398.608</ele>
        <time>2021-05-28T10:36:38Z</time>
      </trkpt>
      <trkpt lat="42.426002" lon="2.469994">
        <ele>1399.039</ele>
        <time>2021-05-28T10:36:40Z</time>
      </trkpt>
      <trkpt lat="42.426008" lon="2.469963">
        <ele>1399.076</ele>
        <time>2021-05-28T10:36:41Z</time>
      </trkpt>
      <trkpt lat="42.426017" lon="2.469938">
        <ele>1399.197</ele>
        <time>2021-05-28T10:36:42Z</time>
      </trkpt>
      <trkpt lat="42.426029" lon="2.469904">
        <ele>1399.256</ele>
        <time>2021-05-28T10:36:44Z</time>
      </trkpt>
      <trkpt lat="42.426042" lon="2.469868">
        <ele>1399.523</ele>
        <time>2021-05-28T10:36:46Z</time>
      </trkpt>
      <trkpt lat="42.426054" lon="2.469819">
        <ele>1399.918</ele>
        <time>2021-05-28T10:36:48Z</time>
      </trkpt>
      <trkpt lat="42.426061" lon="2.469794">
        <ele>1400.255</ele>
        <time>2021-05-28T10:36:49Z</time>
      </trkpt>
      <trkpt lat="42.426071" lon="2.469772">
        <ele>1400.523</ele>
        <time>2021-05-28T10:36:50Z</time>
      </trkpt>
      <trkpt lat="42.426080" lon="2.469732">
        <ele>1401.013</ele>
        <time>2021-05-28T10:36:52Z</time>
      </trkpt>
      <trkpt lat="42.426088" lon="2.469708">
        <ele>1401.443</ele>
        <time>2021-05-28T10:36:53Z</time>
      </trkpt>
      <trkpt lat="42.426085" lon="2.469680">
        <ele>1401.307</ele>
        <time>2021-05-28T10:36:54Z</time>
      </trkpt>
      <trkpt lat="42.426084" lon="2.469652">
        <ele>1401.308</ele>
        <time>2021-05-28T10:36:55Z</time>
      </trkpt>
      <trkpt lat="42.426081" lon="2.469627">
        <ele>1401.238</ele>
        <time>2021-05-28T10:36:56Z</time>
      </trkpt>
      <trkpt lat="42.426083" lon="2.469599">
        <ele>1401.325</ele>
        <time>2021-05-28T10:36:57Z</time>
      </trkpt>
      <trkpt lat="42.426072" lon="2.469562">
        <ele>1400.936</ele>
        <time>2021-05-28T10:36:59Z</time>
      </trkpt>
      <trkpt lat="42.426067" lon="2.469538">
        <ele>1400.765</ele>
        <time>2021-05-28T10:37:00Z</time>
      </trkpt>
      <trkpt lat="42.426065" lon="2.469496">
        <ele>1400.572</ele>
        <time>2021-05-28T10:37:02Z</time>
      </trkpt>
      <trkpt lat="42.426062" lon="2.469470">
        <ele>1400.497</ele>
        <time>2021-05-28T10:37:03Z</time>
      </trkpt>
      <trkpt lat="42.426065" lon="2.469445">
        <ele>1400.554</ele>
        <time>2021-05-28T10:37:04Z</time>
      </trkpt>
      <trkpt lat="42.426067" lon="2.469418">
        <ele>1400.482</ele>
        <time>2021-05-28T10:37:05Z</time>
      </trkpt>
      <trkpt lat="42.426074" lon="2.469392">
        <ele>1400.554</ele>
        <time>2021-05-28T10:37:06Z</time>
      </trkpt>
      <trkpt lat="42.426077" lon="2.469365">
        <ele>1400.556</ele>
        <time>2021-05-28T10:37:07Z</time>
      </trkpt>
      <trkpt lat="42.426081" lon="2.469337">
        <ele>1400.511</ele>
        <time>2021-05-28T10:37:08Z</time>
      </trkpt>
      <trkpt lat="42.426075" lon="2.469295">
        <ele>1399.808</ele>
        <time>2021-05-28T10:37:10Z</time>
      </trkpt>
      <trkpt lat="42.426064" lon="2.469243">
        <ele>1398.612</ele>
        <time>2021-05-28T10:37:13Z</time>
      </trkpt>
      <trkpt lat="42.426064" lon="2.469201">
        <ele>1398.319</ele>
        <time>2021-05-28T10:37:15Z</time>
      </trkpt>
      <trkpt lat="42.426073" lon="2.469165">
        <ele>1398.520</ele>
        <time>2021-05-28T10:37:17Z</time>
      </trkpt>
      <trkpt lat="42.426083" lon="2.469119">
        <ele>1398.869</ele>
        <time>2021-05-28T10:37:19Z</time>
      </trkpt>
      <trkpt lat="42.426085" lon="2.469065">
        <ele>1398.586</ele>
        <time>2021-05-28T10:37:21Z</time>
      </trkpt>
      <trkpt lat="42.426086" lon="2.469022">
        <ele>1398.221</ele>
        <time>2021-05-28T10:37:23Z</time>
      </trkpt>
      <trkpt lat="42.426089" lon="2.468982">
        <ele>1398.148</ele>
        <time>2021-05-28T10:37:25Z</time>
      </trkpt>
      <trkpt lat="42.426092" lon="2.468936">
        <ele>1398.036</ele>
        <time>2021-05-28T10:37:27Z</time>
      </trkpt>
      <trkpt lat="42.426097" lon="2.468904">
        <ele>1398.158</ele>
        <time>2021-05-28T10:37:29Z</time>
      </trkpt>
      <trkpt lat="42.426083" lon="2.468868">
        <ele>1396.852</ele>
        <time>2021-05-28T10:37:31Z</time>
      </trkpt>
      <trkpt lat="42.426075" lon="2.468833">
        <ele>1396.017</ele>
        <time>2021-05-28T10:37:33Z</time>
      </trkpt>
      <trkpt lat="42.426068" lon="2.468789">
        <ele>1395.108</ele>
        <time>2021-05-28T10:37:35Z</time>
      </trkpt>
      <trkpt lat="42.426060" lon="2.468750">
        <ele>1394.282</ele>
        <time>2021-05-28T10:37:37Z</time>
      </trkpt>
      <trkpt lat="42.426056" lon="2.468718">
        <ele>1393.799</ele>
        <time>2021-05-28T10:37:39Z</time>
      </trkpt>
      <trkpt lat="42.426058" lon="2.468691">
        <ele>1393.640</ele>
        <time>2021-05-28T10:37:41Z</time>
      </trkpt>
      <trkpt lat="42.426054" lon="2.468661">
        <ele>1393.169</ele>
        <time>2021-05-28T10:37:43Z</time>
      </trkpt>
      <trkpt lat="42.426046" lon="2.468622">
        <ele>1392.226</ele>
        <time>2021-05-28T10:37:45Z</time>
      </trkpt>
      <trkpt lat="42.426042" lon="2.468595">
        <ele>1391.651</ele>
        <time>2021-05-28T10:37:46Z</time>
      </trkpt>
      <trkpt lat="42.426037" lon="2.468549">
        <ele>1390.838</ele>
        <time>2021-05-28T10:37:48Z</time>
      </trkpt>
      <trkpt lat="42.426028" lon="2.468521">
        <ele>1389.986</ele>
        <time>2021-05-28T10:37:50Z</time>
      </trkpt>
      <trkpt lat="42.426009" lon="2.468495">
        <ele>1388.383</ele>
        <time>2021-05-28T10:37:52Z</time>
      </trkpt>
      <trkpt lat="42.425999" lon="2.468470">
        <ele>1387.425</ele>
        <time>2021-05-28T10:37:53Z</time>
      </trkpt>
      <trkpt lat="42.425986" lon="2.468448">
        <ele>1386.317</ele>
        <time>2021-05-28T10:37:54Z</time>
      </trkpt>
      <trkpt lat="42.425973" lon="2.468409">
        <ele>1385.108</ele>
        <time>2021-05-28T10:37:56Z</time>
      </trkpt>
      <trkpt lat="42.425984" lon="2.468362">
        <ele>1385.545</ele>
        <time>2021-05-28T10:37:58Z</time>
      </trkpt>
      <trkpt lat="42.425994" lon="2.468339">
        <ele>1386.062</ele>
        <time>2021-05-28T10:37:59Z</time>
      </trkpt>
      <trkpt lat="42.426010" lon="2.468262">
        <ele>1386.473</ele>
        <time>2021-05-28T10:38:02Z</time>
      </trkpt>
      <trkpt lat="42.426008" lon="2.468237">
        <ele>1386.092</ele>
        <time>2021-05-28T10:38:03Z</time>
      </trkpt>
      <trkpt lat="42.426009" lon="2.468208">
        <ele>1385.859</ele>
        <time>2021-05-28T10:38:04Z</time>
      </trkpt>
      <trkpt lat="42.426004" lon="2.468166">
        <ele>1385.184</ele>
        <time>2021-05-28T10:38:06Z</time>
      </trkpt>
      <trkpt lat="42.426000" lon="2.468093">
        <ele>1384.261</ele>
        <time>2021-05-28T10:38:08Z</time>
      </trkpt>
      <trkpt lat="42.426016" lon="2.467966">
        <ele>1384.389</ele>
        <time>2021-05-28T10:38:14Z</time>
      </trkpt>
      <trkpt lat="42.426010" lon="2.467925">
        <ele>1383.799</ele>
        <time>2021-05-28T10:38:16Z</time>
      </trkpt>
      <trkpt lat="42.426006" lon="2.467801">
        <ele>1382.707</ele>
        <time>2021-05-28T10:38:23Z</time>
      </trkpt>
      <trkpt lat="42.426004" lon="2.467726">
        <ele>1382.427</ele>
        <time>2021-05-28T10:38:28Z</time>
      </trkpt>
      <trkpt lat="42.426007" lon="2.467662">
        <ele>1382.508</ele>
        <time>2021-05-28T10:38:31Z</time>
      </trkpt>
      <trkpt lat="42.426000" lon="2.467623">
        <ele>1382.026</ele>
        <time>2021-05-28T10:38:33Z</time>
      </trkpt>
      <trkpt lat="42.425984" lon="2.467586">
        <ele>1380.943</ele>
        <time>2021-05-28T10:38:35Z</time>
      </trkpt>
      <trkpt lat="42.425966" lon="2.467546">
        <ele>1379.754</ele>
        <time>2021-05-28T10:38:37Z</time>
      </trkpt>
      <trkpt lat="42.425951" lon="2.467504">
        <ele>1378.683</ele>
        <time>2021-05-28T10:38:39Z</time>
      </trkpt>
      <trkpt lat="42.425949" lon="2.467461">
        <ele>1378.540</ele>
        <time>2021-05-28T10:38:41Z</time>
      </trkpt>
      <trkpt lat="42.425939" lon="2.467422">
        <ele>1377.835</ele>
        <time>2021-05-28T10:38:43Z</time>
      </trkpt>
      <trkpt lat="42.425922" lon="2.467387">
        <ele>1376.722</ele>
        <time>2021-05-28T10:38:45Z</time>
      </trkpt>
      <trkpt lat="42.425919" lon="2.467354">
        <ele>1376.610</ele>
        <time>2021-05-28T10:38:47Z</time>
      </trkpt>
      <trkpt lat="42.425907" lon="2.467316">
        <ele>1375.885</ele>
        <time>2021-05-28T10:38:49Z</time>
      </trkpt>
      <trkpt lat="42.425894" lon="2.467277">
        <ele>1374.989</ele>
        <time>2021-05-28T10:38:51Z</time>
      </trkpt>
      <trkpt lat="42.425882" lon="2.467241">
        <ele>1374.217</ele>
        <time>2021-05-28T10:38:53Z</time>
      </trkpt>
      <trkpt lat="42.425868" lon="2.467206">
        <ele>1373.508</ele>
        <time>2021-05-28T10:38:55Z</time>
      </trkpt>
      <trkpt lat="42.425847" lon="2.467179">
        <ele>1372.535</ele>
        <time>2021-05-28T10:38:57Z</time>
      </trkpt>
      <trkpt lat="42.425832" lon="2.467154">
        <ele>1371.962</ele>
        <time>2021-05-28T10:38:59Z</time>
      </trkpt>
      <trkpt lat="42.425824" lon="2.467117">
        <ele>1371.973</ele>
        <time>2021-05-28T10:39:01Z</time>
      </trkpt>
      <trkpt lat="42.425806" lon="2.467102">
        <ele>1371.022</ele>
        <time>2021-05-28T10:39:03Z</time>
      </trkpt>
      <trkpt lat="42.425781" lon="2.467088">
        <ele>1369.569</ele>
        <time>2021-05-28T10:39:05Z</time>
      </trkpt>
      <trkpt lat="42.425758" lon="2.467068">
        <ele>1368.324</ele>
        <time>2021-05-28T10:39:07Z</time>
      </trkpt>
      <trkpt lat="42.425746" lon="2.467028">
        <ele>1368.131</ele>
        <time>2021-05-28T10:39:09Z</time>
      </trkpt>
      <trkpt lat="42.425737" lon="2.466990">
        <ele>1368.129</ele>
        <time>2021-05-28T10:39:11Z</time>
      </trkpt>
      <trkpt lat="42.425716" lon="2.466951">
        <ele>1367.346</ele>
        <time>2021-05-28T10:39:13Z</time>
      </trkpt>
      <trkpt lat="42.425682" lon="2.466892">
        <ele>1366.088</ele>
        <time>2021-05-28T10:39:16Z</time>
      </trkpt>
      <trkpt lat="42.425606" lon="2.466791">
        <ele>1362.616</ele>
        <time>2021-05-28T10:39:22Z</time>
      </trkpt>
      <trkpt lat="42.425558" lon="2.466685">
        <ele>1360.908</ele>
        <time>2021-05-28T10:39:28Z</time>
      </trkpt>
      <trkpt lat="42.425490" lon="2.466599">
        <ele>1358.561</ele>
        <time>2021-05-28T10:39:35Z</time>
      </trkpt>
      <trkpt lat="42.425438" lon="2.466480">
        <ele>1357.838</ele>
        <time>2021-05-28T10:39:42Z</time>
      </trkpt>
      <trkpt lat="42.425368" lon="2.466391">
        <ele>1355.529</ele>
        <time>2021-05-28T10:39:49Z</time>
      </trkpt>
      <trkpt lat="42.425294" lon="2.466295">
        <ele>1352.778</ele>
        <time>2021-05-28T10:39:56Z</time>
      </trkpt>
      <trkpt lat="42.425229" lon="2.466196">
        <ele>1350.895</ele>
        <time>2021-05-28T10:40:02Z</time>
      </trkpt>
      <trkpt lat="42.425185" lon="2.466073">
        <ele>1350.530</ele>
        <time>2021-05-28T10:40:06Z</time>
      </trkpt>
      <trkpt lat="42.425167" lon="2.466025">
        <ele>1350.347</ele>
        <time>2021-05-28T10:40:08Z</time>
      </trkpt>
      <trkpt lat="42.425157" lon="2.466003">
        <ele>1350.085</ele>
        <time>2021-05-28T10:40:09Z</time>
      </trkpt>
      <trkpt lat="42.425133" lon="2.465943">
        <ele>1349.658</ele>
        <time>2021-05-28T10:40:12Z</time>
      </trkpt>
      <trkpt lat="42.425120" lon="2.465909">
        <ele>1349.452</ele>
        <time>2021-05-28T10:40:14Z</time>
      </trkpt>
      <trkpt lat="42.425104" lon="2.465878">
        <ele>1349.017</ele>
        <time>2021-05-28T10:40:16Z</time>
      </trkpt>
      <trkpt lat="42.425098" lon="2.465847">
        <ele>1349.108</ele>
        <time>2021-05-28T10:40:18Z</time>
      </trkpt>
      <trkpt lat="42.425097" lon="2.465823">
        <ele>1349.392</ele>
        <time>2021-05-28T10:40:20Z</time>
      </trkpt>
      <trkpt lat="42.425087" lon="2.465789">
        <ele>1349.039</ele>
        <time>2021-05-28T10:40:23Z</time>
      </trkpt>
      <trkpt lat="42.425076" lon="2.465765">
        <ele>1348.660</ele>
        <time>2021-05-28T10:40:25Z</time>
      </trkpt>
      <trkpt lat="42.425069" lon="2.465737">
        <ele>1348.359</ele>
        <time>2021-05-28T10:40:27Z</time>
      </trkpt>
      <trkpt lat="42.425061" lon="2.465701">
        <ele>1348.146</ele>
        <time>2021-05-28T10:40:29Z</time>
      </trkpt>
      <trkpt lat="42.425056" lon="2.465671">
        <ele>1348.061</ele>
        <time>2021-05-28T10:40:31Z</time>
      </trkpt>
      <trkpt lat="42.425053" lon="2.465643">
        <ele>1347.918</ele>
        <time>2021-05-28T10:40:33Z</time>
      </trkpt>
      <trkpt lat="42.425043" lon="2.465614">
        <ele>1347.596</ele>
        <time>2021-05-28T10:40:35Z</time>
      </trkpt>
      <trkpt lat="42.425026" lon="2.465586">
        <ele>1346.522</ele>
        <time>2021-05-28T10:40:37Z</time>
      </trkpt>
      <trkpt lat="42.425017" lon="2.465555">
        <ele>1346.162</ele>
        <time>2021-05-28T10:40:39Z</time>
      </trkpt>
      <trkpt lat="42.425023" lon="2.465532">
        <ele>1346.308</ele>
        <time>2021-05-28T10:40:41Z</time>
      </trkpt>
      <trkpt lat="42.425023" lon="2.465500">
        <ele>1346.108</ele>
        <time>2021-05-28T10:40:43Z</time>
      </trkpt>
      <trkpt lat="42.425016" lon="2.465472">
        <ele>1345.539</ele>
        <time>2021-05-28T10:40:45Z</time>
      </trkpt>
      <trkpt lat="42.425008" lon="2.465442">
        <ele>1344.746</ele>
        <time>2021-05-28T10:40:48Z</time>
      </trkpt>
      <trkpt lat="42.425004" lon="2.465405">
        <ele>1344.247</ele>
        <time>2021-05-28T10:40:50Z</time>
      </trkpt>
      <trkpt lat="42.425003" lon="2.465366">
        <ele>1343.896</ele>
        <time>2021-05-28T10:40:52Z</time>
      </trkpt>
      <trkpt lat="42.425001" lon="2.465334">
        <ele>1343.513</ele>
        <time>2021-05-28T10:40:54Z</time>
      </trkpt>
      <trkpt lat="42.424997" lon="2.465306">
        <ele>1343.028</ele>
        <time>2021-05-28T10:40:56Z</time>
      </trkpt>
      <trkpt lat="42.424997" lon="2.465278">
        <ele>1342.825</ele>
        <time>2021-05-28T10:40:58Z</time>
      </trkpt>
      <trkpt lat="42.425004" lon="2.465247">
        <ele>1342.963</ele>
        <time>2021-05-28T10:41:00Z</time>
      </trkpt>
      <trkpt lat="42.425011" lon="2.465212">
        <ele>1343.035</ele>
        <time>2021-05-28T10:41:02Z</time>
      </trkpt>
      <trkpt lat="42.425016" lon="2.465178">
        <ele>1343.086</ele>
        <time>2021-05-28T10:41:04Z</time>
      </trkpt>
      <trkpt lat="42.425014" lon="2.465140">
        <ele>1342.414</ele>
        <time>2021-05-28T10:41:06Z</time>
      </trkpt>
      <trkpt lat="42.425020" lon="2.465099">
        <ele>1342.308</ele>
        <time>2021-05-28T10:41:08Z</time>
      </trkpt>
      <trkpt lat="42.425021" lon="2.465068">
        <ele>1342.070</ele>
        <time>2021-05-28T10:41:10Z</time>
      </trkpt>
      <trkpt lat="42.425023" lon="2.465034">
        <ele>1341.727</ele>
        <time>2021-05-28T10:41:12Z</time>
      </trkpt>
      <trkpt lat="42.425031" lon="2.465000">
        <ele>1341.828</ele>
        <time>2021-05-28T10:41:14Z</time>
      </trkpt>
      <trkpt lat="42.425037" lon="2.464964">
        <ele>1341.437</ele>
        <time>2021-05-28T10:41:16Z</time>
      </trkpt>
      <trkpt lat="42.425039" lon="2.464925">
        <ele>1340.674</ele>
        <time>2021-05-28T10:41:18Z</time>
      </trkpt>
      <trkpt lat="42.425043" lon="2.464890">
        <ele>1340.119</ele>
        <time>2021-05-28T10:41:20Z</time>
      </trkpt>
      <trkpt lat="42.425054" lon="2.464855">
        <ele>1340.046</ele>
        <time>2021-05-28T10:41:22Z</time>
      </trkpt>
      <trkpt lat="42.425061" lon="2.464829">
        <ele>1339.874</ele>
        <time>2021-05-28T10:41:24Z</time>
      </trkpt>
      <trkpt lat="42.425070" lon="2.464806">
        <ele>1339.895</ele>
        <time>2021-05-28T10:41:26Z</time>
      </trkpt>
      <trkpt lat="42.425073" lon="2.464775">
        <ele>1339.349</ele>
        <time>2021-05-28T10:41:28Z</time>
      </trkpt>
      <trkpt lat="42.425077" lon="2.464738">
        <ele>1338.823</ele>
        <time>2021-05-28T10:41:30Z</time>
      </trkpt>
      <trkpt lat="42.425087" lon="2.464701">
        <ele>1338.608</ele>
        <time>2021-05-28T10:41:32Z</time>
      </trkpt>
      <trkpt lat="42.425091" lon="2.464672">
        <ele>1338.226</ele>
        <time>2021-05-28T10:41:34Z</time>
      </trkpt>
      <trkpt lat="42.425092" lon="2.464644">
        <ele>1337.773</ele>
        <time>2021-05-28T10:41:36Z</time>
      </trkpt>
      <trkpt lat="42.425096" lon="2.464613">
        <ele>1337.384</ele>
        <time>2021-05-28T10:41:38Z</time>
      </trkpt>
      <trkpt lat="42.425099" lon="2.464581">
        <ele>1336.883</ele>
        <time>2021-05-28T10:41:40Z</time>
      </trkpt>
      <trkpt lat="42.425104" lon="2.464549">
        <ele>1336.440</ele>
        <time>2021-05-28T10:41:42Z</time>
      </trkpt>
      <trkpt lat="42.425111" lon="2.464517">
        <ele>1336.165</ele>
        <time>2021-05-28T10:41:44Z</time>
      </trkpt>
      <trkpt lat="42.425114" lon="2.464480">
        <ele>1335.532</ele>
        <time>2021-05-28T10:41:46Z</time>
      </trkpt>
      <trkpt lat="42.425111" lon="2.464446">
        <ele>1334.660</ele>
        <time>2021-05-28T10:41:48Z</time>
      </trkpt>
      <trkpt lat="42.425114" lon="2.464414">
        <ele>1334.127</ele>
        <time>2021-05-28T10:41:50Z</time>
      </trkpt>
      <trkpt lat="42.425116" lon="2.464386">
        <ele>1333.668</ele>
        <time>2021-05-28T10:41:53Z</time>
      </trkpt>
      <trkpt lat="42.425121" lon="2.464357">
        <ele>1333.214</ele>
        <time>2021-05-28T10:41:54Z</time>
      </trkpt>
      <trkpt lat="42.425125" lon="2.464325">
        <ele>1332.708</ele>
        <time>2021-05-28T10:41:56Z</time>
      </trkpt>
      <trkpt lat="42.425133" lon="2.464293">
        <ele>1332.479</ele>
        <time>2021-05-28T10:41:58Z</time>
      </trkpt>
      <trkpt lat="42.425139" lon="2.464266">
        <ele>1332.236</ele>
        <time>2021-05-28T10:42:00Z</time>
      </trkpt>
      <trkpt lat="42.425146" lon="2.464230">
        <ele>1331.767</ele>
        <time>2021-05-28T10:42:02Z</time>
      </trkpt>
      <trkpt lat="42.425151" lon="2.464197">
        <ele>1331.396</ele>
        <time>2021-05-28T10:42:04Z</time>
      </trkpt>
      <trkpt lat="42.425152" lon="2.464168">
        <ele>1330.713</ele>
        <time>2021-05-28T10:42:06Z</time>
      </trkpt>
      <trkpt lat="42.425155" lon="2.464137">
        <ele>1330.278</ele>
        <time>2021-05-28T10:42:08Z</time>
      </trkpt>
      <trkpt lat="42.425146" lon="2.464100">
        <ele>1328.965</ele>
        <time>2021-05-28T10:42:10Z</time>
      </trkpt>
      <trkpt lat="42.425145" lon="2.464068">
        <ele>1328.253</ele>
        <time>2021-05-28T10:42:12Z</time>
      </trkpt>
      <trkpt lat="42.425146" lon="2.464038">
        <ele>1327.618</ele>
        <time>2021-05-28T10:42:14Z</time>
      </trkpt>
      <trkpt lat="42.425148" lon="2.464004">
        <ele>1327.098</ele>
        <time>2021-05-28T10:42:16Z</time>
      </trkpt>
      <trkpt lat="42.425152" lon="2.463972">
        <ele>1326.517</ele>
        <time>2021-05-28T10:42:18Z</time>
      </trkpt>
      <trkpt lat="42.425159" lon="2.463943">
        <ele>1326.308</ele>
        <time>2021-05-28T10:42:20Z</time>
      </trkpt>
      <trkpt lat="42.425166" lon="2.463912">
        <ele>1326.028</ele>
        <time>2021-05-28T10:42:22Z</time>
      </trkpt>
      <trkpt lat="42.425171" lon="2.463875">
        <ele>1325.555</ele>
        <time>2021-05-28T10:42:24Z</time>
      </trkpt>
      <trkpt lat="42.425178" lon="2.463844">
        <ele>1325.236</ele>
        <time>2021-05-28T10:42:26Z</time>
      </trkpt>
      <trkpt lat="42.425185" lon="2.463816">
        <ele>1325.015</ele>
        <time>2021-05-28T10:42:28Z</time>
      </trkpt>
      <trkpt lat="42.425182" lon="2.463789">
        <ele>1324.282</ele>
        <time>2021-05-28T10:42:30Z</time>
      </trkpt>
      <trkpt lat="42.425186" lon="2.463752">
        <ele>1323.657</ele>
        <time>2021-05-28T10:42:32Z</time>
      </trkpt>
      <trkpt lat="42.425188" lon="2.463726">
        <ele>1323.124</ele>
        <time>2021-05-28T10:42:33Z</time>
      </trkpt>
      <trkpt lat="42.425195" lon="2.463683">
        <ele>1322.692</ele>
        <time>2021-05-28T10:42:35Z</time>
      </trkpt>
      <trkpt lat="42.425205" lon="2.463644">
        <ele>1322.311</ele>
        <time>2021-05-28T10:42:37Z</time>
      </trkpt>
      <trkpt lat="42.425218" lon="2.463607">
        <ele>1322.221</ele>
        <time>2021-05-28T10:42:39Z</time>
      </trkpt>
      <trkpt lat="42.425222" lon="2.463583">
        <ele>1321.803</ele>
        <time>2021-05-28T10:42:40Z</time>
      </trkpt>
      <trkpt lat="42.425232" lon="2.463539">
        <ele>1321.108</ele>
        <time>2021-05-28T10:42:42Z</time>
      </trkpt>
      <trkpt lat="42.425249" lon="2.463500">
        <ele>1321.078</ele>
        <time>2021-05-28T10:42:44Z</time>
      </trkpt>
      <trkpt lat="42.425266" lon="2.463469">
        <ele>1321.245</ele>
        <time>2021-05-28T10:42:46Z</time>
      </trkpt>
      <trkpt lat="42.425285" lon="2.463445">
        <ele>1321.616</ele>
        <time>2021-05-28T10:42:48Z</time>
      </trkpt>
      <trkpt lat="42.425311" lon="2.463403">
        <ele>1321.615</ele>
        <time>2021-05-28T10:42:50Z</time>
      </trkpt>
      <trkpt lat="42.425315" lon="2.463377">
        <ele>1321.032</ele>
        <time>2021-05-28T10:42:51Z</time>
      </trkpt>
      <trkpt lat="42.425325" lon="2.463343">
        <ele>1320.587</ele>
        <time>2021-05-28T10:42:53Z</time>
      </trkpt>
      <trkpt lat="42.425351" lon="2.463289">
        <ele>1319.534</ele>
        <time>2021-05-28T10:42:56Z</time>
      </trkpt>
      <trkpt lat="42.425371" lon="2.463250">
        <ele>1318.822</ele>
        <time>2021-05-28T10:42:58Z</time>
      </trkpt>
      <trkpt lat="42.425385" lon="2.463213">
        <ele>1317.894</ele>
        <time>2021-05-28T10:43:00Z</time>
      </trkpt>
      <trkpt lat="42.425404" lon="2.463180">
        <ele>1317.357</ele>
        <time>2021-05-28T10:43:02Z</time>
      </trkpt>
      <trkpt lat="42.425424" lon="2.463164">
        <ele>1317.522</ele>
        <time>2021-05-28T10:43:04Z</time>
      </trkpt>
      <trkpt lat="42.425445" lon="2.463135">
        <ele>1317.308</ele>
        <time>2021-05-28T10:43:06Z</time>
      </trkpt>
      <trkpt lat="42.425465" lon="2.463096">
        <ele>1316.536</ele>
        <time>2021-05-28T10:43:09Z</time>
      </trkpt>
      <trkpt lat="42.425474" lon="2.463072">
        <ele>1315.913</ele>
        <time>2021-05-28T10:43:11Z</time>
      </trkpt>
      <trkpt lat="42.425494" lon="2.463026">
        <ele>1314.994</ele>
        <time>2021-05-28T10:43:12Z</time>
      </trkpt>
      <trkpt lat="42.425512" lon="2.462991">
        <ele>1314.443</ele>
        <time>2021-05-28T10:43:14Z</time>
      </trkpt>
      <trkpt lat="42.425538" lon="2.462952">
        <ele>1314.160</ele>
        <time>2021-05-28T10:43:17Z</time>
      </trkpt>
      <trkpt lat="42.425549" lon="2.462920">
        <ele>1313.325</ele>
        <time>2021-05-28T10:43:20Z</time>
      </trkpt>
      <trkpt lat="42.425573" lon="2.462891">
        <ele>1313.252</ele>
        <time>2021-05-28T10:43:21Z</time>
      </trkpt>
      <trkpt lat="42.425583" lon="2.462870">
        <ele>1312.880</ele>
        <time>2021-05-28T10:43:22Z</time>
      </trkpt>
      <trkpt lat="42.425596" lon="2.462832">
        <ele>1311.897</ele>
        <time>2021-05-28T10:43:24Z</time>
      </trkpt>
      <trkpt lat="42.425601" lon="2.462807">
        <ele>1311.123</ele>
        <time>2021-05-28T10:43:25Z</time>
      </trkpt>
      <trkpt lat="42.425619" lon="2.462769">
        <ele>1310.425</ele>
        <time>2021-05-28T10:43:27Z</time>
      </trkpt>
      <trkpt lat="42.425629" lon="2.462744">
        <ele>1309.808</ele>
        <time>2021-05-28T10:43:28Z</time>
      </trkpt>
      <trkpt lat="42.425641" lon="2.462724">
        <ele>1309.656</ele>
        <time>2021-05-28T10:43:29Z</time>
      </trkpt>
      <trkpt lat="42.425653" lon="2.462703">
        <ele>1309.263</ele>
        <time>2021-05-28T10:43:30Z</time>
      </trkpt>
      <trkpt lat="42.425672" lon="2.462668">
        <ele>1308.714</ele>
        <time>2021-05-28T10:43:32Z</time>
      </trkpt>
      <trkpt lat="42.425694" lon="2.462642">
        <ele>1308.613</ele>
        <time>2021-05-28T10:43:34Z</time>
      </trkpt>
      <trkpt lat="42.425708" lon="2.462621">
        <ele>1308.490</ele>
        <time>2021-05-28T10:43:36Z</time>
      </trkpt>
      <trkpt lat="42.425727" lon="2.462605">
        <ele>1308.615</ele>
        <time>2021-05-28T10:43:38Z</time>
      </trkpt>
      <trkpt lat="42.425746" lon="2.462584">
        <ele>1308.612</ele>
        <time>2021-05-28T10:43:41Z</time>
      </trkpt>
      <trkpt lat="42.425751" lon="2.462557">
        <ele>1307.770</ele>
        <time>2021-05-28T10:43:43Z</time>
      </trkpt>
      <trkpt lat="42.425792" lon="2.462435">
        <ele>1304.383</ele>
        <time>2021-05-28T10:43:51Z</time>
      </trkpt>
      <trkpt lat="42.425820" lon="2.462396">
        <ele>1303.625</ele>
        <time>2021-05-28T10:43:53Z</time>
      </trkpt>
      <trkpt lat="42.425839" lon="2.462383">
        <ele>1303.717</ele>
        <time>2021-05-28T10:43:54Z</time>
      </trkpt>
      <trkpt lat="42.425853" lon="2.462364">
        <ele>1303.208</ele>
        <time>2021-05-28T10:43:55Z</time>
      </trkpt>
      <trkpt lat="42.425863" lon="2.462339">
        <ele>1302.425</ele>
        <time>2021-05-28T10:43:56Z</time>
      </trkpt>
      <trkpt lat="42.425887" lon="2.462308">
        <ele>1301.712</ele>
        <time>2021-05-28T10:43:58Z</time>
      </trkpt>
      <trkpt lat="42.425915" lon="2.462285">
        <ele>1301.543</ele>
        <time>2021-05-28T10:44:00Z</time>
      </trkpt>
      <trkpt lat="42.425942" lon="2.462267">
        <ele>1301.652</ele>
        <time>2021-05-28T10:44:02Z</time>
      </trkpt>
      <trkpt lat="42.425954" lon="2.462243">
        <ele>1300.849</ele>
        <time>2021-05-28T10:44:04Z</time>
      </trkpt>
      <trkpt lat="42.425973" lon="2.462209">
        <ele>1300.154</ele>
        <time>2021-05-28T10:44:06Z</time>
      </trkpt>
      <trkpt lat="42.425992" lon="2.462174">
        <ele>1299.591</ele>
        <time>2021-05-28T10:44:08Z</time>
      </trkpt>
      <trkpt lat="42.426001" lon="2.462148">
        <ele>1298.999</ele>
        <time>2021-05-28T10:44:09Z</time>
      </trkpt>
      <trkpt lat="42.426022" lon="2.462113">
        <ele>1298.396</ele>
        <time>2021-05-28T10:44:11Z</time>
      </trkpt>
      <trkpt lat="42.426036" lon="2.462096">
        <ele>1298.131</ele>
        <time>2021-05-28T10:44:12Z</time>
      </trkpt>
      <trkpt lat="42.426053" lon="2.462086">
        <ele>1298.324</ele>
        <time>2021-05-28T10:44:13Z</time>
      </trkpt>
      <trkpt lat="42.426069" lon="2.462071">
        <ele>1298.308</ele>
        <time>2021-05-28T10:44:14Z</time>
      </trkpt>
      <trkpt lat="42.426086" lon="2.462061">
        <ele>1298.426</ele>
        <time>2021-05-28T10:44:15Z</time>
      </trkpt>
      <trkpt lat="42.426154" lon="2.461979">
        <ele>1297.583</ele>
        <time>2021-05-28T10:44:20Z</time>
      </trkpt>
      <trkpt lat="42.426232" lon="2.461915">
        <ele>1297.464</ele>
        <time>2021-05-28T10:44:26Z</time>
      </trkpt>
      <trkpt lat="42.426293" lon="2.461798">
        <ele>1294.653</ele>
        <time>2021-05-28T10:44:31Z</time>
      </trkpt>
      <trkpt lat="42.426382" lon="2.461733">
        <ele>1293.780</ele>
        <time>2021-05-28T10:44:38Z</time>
      </trkpt>
      <trkpt lat="42.426442" lon="2.461678">
        <ele>1292.655</ele>
        <time>2021-05-28T10:44:44Z</time>
      </trkpt>
      <trkpt lat="42.426466" lon="2.461684">
        <ele>1293.392</ele>
        <time>2021-05-28T10:44:45Z</time>
      </trkpt>
      <trkpt lat="42.426492" lon="2.461683">
        <ele>1293.880</ele>
        <time>2021-05-28T10:44:48Z</time>
      </trkpt>
      <trkpt lat="42.426579" lon="2.461653">
        <ele>1294.843</ele>
        <time>2021-05-28T10:44:58Z</time>
      </trkpt>
      <trkpt lat="42.426672" lon="2.461650">
        <ele>1297.064</ele>
        <time>2021-05-28T10:45:10Z</time>
      </trkpt>
      <trkpt lat="42.426649" lon="2.461599">
        <ele>1295.610</ele>
        <time>2021-05-28T10:46:55Z</time>
      </trkpt>
      <trkpt lat="42.426563" lon="2.461552">
        <ele>1292.208</ele>
        <time>2021-05-28T10:47:05Z</time>
      </trkpt>
      <trkpt lat="42.426535" lon="2.461430">
        <ele>1288.331</ele>
        <time>2021-05-28T10:47:14Z</time>
      </trkpt>
      <trkpt lat="42.426526" lon="2.461376">
        <ele>1286.628</ele>
        <time>2021-05-28T10:47:17Z</time>
      </trkpt>
      <trkpt lat="42.426516" lon="2.461342">
        <ele>1285.299</ele>
        <time>2021-05-28T10:47:19Z</time>
      </trkpt>
      <trkpt lat="42.426507" lon="2.461313">
        <ele>1284.018</ele>
        <time>2021-05-28T10:47:21Z</time>
      </trkpt>
      <trkpt lat="42.426495" lon="2.461284">
        <ele>1282.765</ele>
        <time>2021-05-28T10:47:23Z</time>
      </trkpt>
      <trkpt lat="42.426543" lon="2.461167">
        <ele>1281.250</ele>
        <time>2021-05-28T10:47:35Z</time>
      </trkpt>
      <trkpt lat="42.426631" lon="2.461125">
        <ele>1283.227</ele>
        <time>2021-05-28T10:47:46Z</time>
      </trkpt>
      <trkpt lat="42.426534" lon="2.461095">
        <ele>1279.295</ele>
        <time>2021-05-28T10:47:59Z</time>
      </trkpt>
      <trkpt lat="42.426466" lon="2.461004">
        <ele>1275.833</ele>
        <time>2021-05-28T10:48:07Z</time>
      </trkpt>
      <trkpt lat="42.426400" lon="2.460904">
        <ele>1270.923</ele>
        <time>2021-05-28T10:48:13Z</time>
      </trkpt>
      <trkpt lat="42.426362" lon="2.460790">
        <ele>1268.415</ele>
        <time>2021-05-28T10:48:22Z</time>
      </trkpt>
      <trkpt lat="42.426319" lon="2.460677">
        <ele>1267.708</ele>
        <time>2021-05-28T10:48:29Z</time>
      </trkpt>
      <trkpt lat="42.426290" lon="2.460587">
        <ele>1266.940</ele>
        <time>2021-05-28T10:48:35Z</time>
      </trkpt>
      <trkpt lat="42.426271" lon="2.460558">
        <ele>1265.967</ele>
        <time>2021-05-28T10:48:37Z</time>
      </trkpt>
      <trkpt lat="42.426259" lon="2.460531">
        <ele>1265.568</ele>
        <time>2021-05-28T10:48:39Z</time>
      </trkpt>
      <trkpt lat="42.426250" lon="2.460505">
        <ele>1265.397</ele>
        <time>2021-05-28T10:48:41Z</time>
      </trkpt>
      <trkpt lat="42.426231" lon="2.460483">
        <ele>1264.454</ele>
        <time>2021-05-28T10:48:43Z</time>
      </trkpt>
      <trkpt lat="42.426212" lon="2.460456">
        <ele>1263.599</ele>
        <time>2021-05-28T10:48:45Z</time>
      </trkpt>
      <trkpt lat="42.426198" lon="2.460420">
        <ele>1263.076</ele>
        <time>2021-05-28T10:48:47Z</time>
      </trkpt>
      <trkpt lat="42.426184" lon="2.460388">
        <ele>1262.644</ele>
        <time>2021-05-28T10:48:49Z</time>
      </trkpt>
      <trkpt lat="42.426173" lon="2.460363">
        <ele>1262.298</ele>
        <time>2021-05-28T10:48:51Z</time>
      </trkpt>
      <trkpt lat="42.426166" lon="2.460331">
        <ele>1262.115</ele>
        <time>2021-05-28T10:48:54Z</time>
      </trkpt>
      <trkpt lat="42.426158" lon="2.460306">
        <ele>1262.026</ele>
        <time>2021-05-28T10:48:56Z</time>
      </trkpt>
      <trkpt lat="42.426146" lon="2.460285">
        <ele>1261.408</ele>
        <time>2021-05-28T10:48:58Z</time>
      </trkpt>
      <trkpt lat="42.426130" lon="2.460162">
        <ele>1262.486</ele>
        <time>2021-05-28T10:49:07Z</time>
      </trkpt>
      <trkpt lat="42.426121" lon="2.460117">
        <ele>1262.693</ele>
        <time>2021-05-28T10:49:11Z</time>
      </trkpt>
      <trkpt lat="42.426054" lon="2.460005">
        <ele>1259.634</ele>
        <time>2021-05-28T10:49:18Z</time>
      </trkpt>
      <trkpt lat="42.426041" lon="2.459863">
        <ele>1259.793</ele>
        <time>2021-05-28T10:49:25Z</time>
      </trkpt>
      <trkpt lat="42.426088" lon="2.459740">
        <ele>1263.590</ele>
        <time>2021-05-28T10:49:32Z</time>
      </trkpt>
      <trkpt lat="42.426134" lon="2.459631">
        <ele>1265.485</ele>
        <time>2021-05-28T10:49:38Z</time>
      </trkpt>
      <trkpt lat="42.426182" lon="2.459523">
        <ele>1266.892</ele>
        <time>2021-05-28T10:49:45Z</time>
      </trkpt>
      <trkpt lat="42.426156" lon="2.459399">
        <ele>1265.710</ele>
        <time>2021-05-28T10:49:50Z</time>
      </trkpt>
      <trkpt lat="42.426135" lon="2.459352">
        <ele>1265.941</ele>
        <time>2021-05-28T10:49:52Z</time>
      </trkpt>
      <trkpt lat="42.426116" lon="2.459321">
        <ele>1265.881</ele>
        <time>2021-05-28T10:49:54Z</time>
      </trkpt>
      <trkpt lat="42.426100" lon="2.459298">
        <ele>1265.709</ele>
        <time>2021-05-28T10:49:56Z</time>
      </trkpt>
      <trkpt lat="42.426081" lon="2.459274">
        <ele>1265.608</ele>
        <time>2021-05-28T10:49:58Z</time>
      </trkpt>
      <trkpt lat="42.426056" lon="2.459250">
        <ele>1265.391</ele>
        <time>2021-05-28T10:50:00Z</time>
      </trkpt>
      <trkpt lat="42.426027" lon="2.459237">
        <ele>1264.528</ele>
        <time>2021-05-28T10:50:02Z</time>
      </trkpt>
      <trkpt lat="42.426011" lon="2.459210">
        <ele>1264.769</ele>
        <time>2021-05-28T10:50:04Z</time>
      </trkpt>
      <trkpt lat="42.425991" lon="2.459187">
        <ele>1264.688</ele>
        <time>2021-05-28T10:50:07Z</time>
      </trkpt>
      <trkpt lat="42.425973" lon="2.459159">
        <ele>1264.835</ele>
        <time>2021-05-28T10:50:08Z</time>
      </trkpt>
      <trkpt lat="42.425951" lon="2.459131">
        <ele>1264.730</ele>
        <time>2021-05-28T10:50:10Z</time>
      </trkpt>
      <trkpt lat="42.425934" lon="2.459107">
        <ele>1264.727</ele>
        <time>2021-05-28T10:50:12Z</time>
      </trkpt>
      <trkpt lat="42.425921" lon="2.459077">
        <ele>1265.095</ele>
        <time>2021-05-28T10:50:14Z</time>
      </trkpt>
      <trkpt lat="42.425908" lon="2.459054">
        <ele>1265.191</ele>
        <time>2021-05-28T10:50:16Z</time>
      </trkpt>
      <trkpt lat="42.425889" lon="2.459027">
        <ele>1265.081</ele>
        <time>2021-05-28T10:50:19Z</time>
      </trkpt>
      <trkpt lat="42.425883" lon="2.458995">
        <ele>1265.619</ele>
        <time>2021-05-28T10:50:21Z</time>
      </trkpt>
      <trkpt lat="42.425871" lon="2.458966">
        <ele>1265.808</ele>
        <time>2021-05-28T10:50:23Z</time>
      </trkpt>
      <trkpt lat="42.425864" lon="2.458938">
        <ele>1266.256</ele>
        <time>2021-05-28T10:50:25Z</time>
      </trkpt>
      <trkpt lat="42.425860" lon="2.458906">
        <ele>1266.943</ele>
        <time>2021-05-28T10:50:27Z</time>
      </trkpt>
      <trkpt lat="42.425857" lon="2.458872">
        <ele>1267.684</ele>
        <time>2021-05-28T10:50:29Z</time>
      </trkpt>
      <trkpt lat="42.425848" lon="2.458832">
        <ele>1268.023</ele>
        <time>2021-05-28T10:50:31Z</time>
      </trkpt>
      <trkpt lat="42.425836" lon="2.458793">
        <ele>1268.290</ele>
        <time>2021-05-28T10:50:33Z</time>
      </trkpt>
      <trkpt lat="42.425825" lon="2.458760">
        <ele>1268.485</ele>
        <time>2021-05-28T10:50:35Z</time>
      </trkpt>
      <trkpt lat="42.425821" lon="2.458729">
        <ele>1268.962</ele>
        <time>2021-05-28T10:50:37Z</time>
      </trkpt>
      <trkpt lat="42.425812" lon="2.458691">
        <ele>1269.390</ele>
        <time>2021-05-28T10:50:39Z</time>
      </trkpt>
      <trkpt lat="42.425807" lon="2.458661">
        <ele>1269.774</ele>
        <time>2021-05-28T10:50:41Z</time>
      </trkpt>
      <trkpt lat="42.425796" lon="2.458624">
        <ele>1270.056</ele>
        <time>2021-05-28T10:50:43Z</time>
      </trkpt>
      <trkpt lat="42.425781" lon="2.458593">
        <ele>1269.921</ele>
        <time>2021-05-28T10:50:45Z</time>
      </trkpt>
      <trkpt lat="42.425767" lon="2.458563">
        <ele>1269.808</ele>
        <time>2021-05-28T10:50:47Z</time>
      </trkpt>
      <trkpt lat="42.425755" lon="2.458531">
        <ele>1269.864</ele>
        <time>2021-05-28T10:50:49Z</time>
      </trkpt>
      <trkpt lat="42.425743" lon="2.458501">
        <ele>1269.841</ele>
        <time>2021-05-28T10:50:51Z</time>
      </trkpt>
      <trkpt lat="42.425732" lon="2.458469">
        <ele>1269.872</ele>
        <time>2021-05-28T10:50:53Z</time>
      </trkpt>
      <trkpt lat="42.425724" lon="2.458439">
        <ele>1270.071</ele>
        <time>2021-05-28T10:50:55Z</time>
      </trkpt>
      <trkpt lat="42.425719" lon="2.458413">
        <ele>1270.298</ele>
        <time>2021-05-28T10:50:57Z</time>
      </trkpt>
      <trkpt lat="42.425716" lon="2.458389">
        <ele>1270.533</ele>
        <time>2021-05-28T10:51:02Z</time>
      </trkpt>
      <trkpt lat="42.425701" lon="2.458338">
        <ele>1270.770</ele>
        <time>2021-05-28T10:51:04Z</time>
      </trkpt>
      <trkpt lat="42.425692" lon="2.458305">
        <ele>1270.848</ele>
        <time>2021-05-28T10:51:06Z</time>
      </trkpt>
      <trkpt lat="42.425681" lon="2.458262">
        <ele>1270.988</ele>
        <time>2021-05-28T10:51:08Z</time>
      </trkpt>
      <trkpt lat="42.425668" lon="2.458219">
        <ele>1270.924</ele>
        <time>2021-05-28T10:51:10Z</time>
      </trkpt>
      <trkpt lat="42.425659" lon="2.458183">
        <ele>1271.026</ele>
        <time>2021-05-28T10:51:12Z</time>
      </trkpt>
      <trkpt lat="42.425640" lon="2.458115">
        <ele>1271.108</ele>
        <time>2021-05-28T10:51:15Z</time>
      </trkpt>
      <trkpt lat="42.425630" lon="2.458072">
        <ele>1271.225</ele>
        <time>2021-05-28T10:51:17Z</time>
      </trkpt>
      <trkpt lat="42.425618" lon="2.457997">
        <ele>1271.942</ele>
        <time>2021-05-28T10:51:20Z</time>
      </trkpt>
      <trkpt lat="42.425610" lon="2.457974">
        <ele>1271.943</ele>
        <time>2021-05-28T10:51:21Z</time>
      </trkpt>
      <trkpt lat="42.425600" lon="2.457934">
        <ele>1272.182</ele>
        <time>2021-05-28T10:51:23Z</time>
      </trkpt>
      <trkpt lat="42.425585" lon="2.457904">
        <ele>1272.049</ele>
        <time>2021-05-28T10:51:25Z</time>
      </trkpt>
      <trkpt lat="42.425570" lon="2.457869">
        <ele>1272.074</ele>
        <time>2021-05-28T10:51:27Z</time>
      </trkpt>
      <trkpt lat="42.425551" lon="2.457841">
        <ele>1271.721</ele>
        <time>2021-05-28T10:51:29Z</time>
      </trkpt>
      <trkpt lat="42.425534" lon="2.457812">
        <ele>1271.799</ele>
        <time>2021-05-28T10:51:31Z</time>
      </trkpt>
      <trkpt lat="42.425517" lon="2.457785">
        <ele>1271.678</ele>
        <time>2021-05-28T10:51:33Z</time>
      </trkpt>
      <trkpt lat="42.425498" lon="2.457755">
        <ele>1271.733</ele>
        <time>2021-05-28T10:51:35Z</time>
      </trkpt>
      <trkpt lat="42.425479" lon="2.457732">
        <ele>1271.626</ele>
        <time>2021-05-28T10:51:37Z</time>
      </trkpt>
      <trkpt lat="42.425459" lon="2.457708">
        <ele>1271.608</ele>
        <time>2021-05-28T10:51:39Z</time>
      </trkpt>
      <trkpt lat="42.425440" lon="2.457681">
        <ele>1271.624</ele>
        <time>2021-05-28T10:51:42Z</time>
      </trkpt>
      <trkpt lat="42.425421" lon="2.457654">
        <ele>1271.711</ele>
        <time>2021-05-28T10:51:43Z</time>
      </trkpt>
      <trkpt lat="42.425403" lon="2.457626">
        <ele>1271.972</ele>
        <time>2021-05-28T10:51:45Z</time>
      </trkpt>
      <trkpt lat="42.425386" lon="2.457597">
        <ele>1272.241</ele>
        <time>2021-05-28T10:51:47Z</time>
      </trkpt>
      <trkpt lat="42.425371" lon="2.457567">
        <ele>1272.688</ele>
        <time>2021-05-28T10:51:49Z</time>
      </trkpt>
      <trkpt lat="42.425355" lon="2.457545">
        <ele>1272.783</ele>
        <time>2021-05-28T10:51:51Z</time>
      </trkpt>
      <trkpt lat="42.425341" lon="2.457524">
        <ele>1272.960</ele>
        <time>2021-05-28T10:51:53Z</time>
      </trkpt>
      <trkpt lat="42.425327" lon="2.457496">
        <ele>1273.358</ele>
        <time>2021-05-28T10:51:55Z</time>
      </trkpt>
      <trkpt lat="42.425313" lon="2.457468">
        <ele>1273.594</ele>
        <time>2021-05-28T10:51:57Z</time>
      </trkpt>
      <trkpt lat="42.425300" lon="2.457438">
        <ele>1273.757</ele>
        <time>2021-05-28T10:51:59Z</time>
      </trkpt>
      <trkpt lat="42.425287" lon="2.457411">
        <ele>1273.822</ele>
        <time>2021-05-28T10:52:01Z</time>
      </trkpt>
      <trkpt lat="42.425272" lon="2.457382">
        <ele>1274.008</ele>
        <time>2021-05-28T10:52:03Z</time>
      </trkpt>
      <trkpt lat="42.425254" lon="2.457354">
        <ele>1274.126</ele>
        <time>2021-05-28T10:52:05Z</time>
      </trkpt>
      <trkpt lat="42.425236" lon="2.457329">
        <ele>1274.173</ele>
        <time>2021-05-28T10:52:07Z</time>
      </trkpt>
      <trkpt lat="42.425224" lon="2.457301">
        <ele>1274.444</ele>
        <time>2021-05-28T10:52:09Z</time>
      </trkpt>
      <trkpt lat="42.425207" lon="2.457272">
        <ele>1274.563</ele>
        <time>2021-05-28T10:52:11Z</time>
      </trkpt>
      <trkpt lat="42.425190" lon="2.457240">
        <ele>1274.830</ele>
        <time>2021-05-28T10:52:13Z</time>
      </trkpt>
      <trkpt lat="42.425169" lon="2.457207">
        <ele>1274.925</ele>
        <time>2021-05-28T10:52:15Z</time>
      </trkpt>
      <trkpt lat="42.425154" lon="2.457179">
        <ele>1274.942</ele>
        <time>2021-05-28T10:52:17Z</time>
      </trkpt>
      <trkpt lat="42.425140" lon="2.457155">
        <ele>1275.020</ele>
        <time>2021-05-28T10:52:20Z</time>
      </trkpt>
      <trkpt lat="42.425124" lon="2.457129">
        <ele>1275.027</ele>
        <time>2021-05-28T10:52:21Z</time>
      </trkpt>
      <trkpt lat="42.425110" lon="2.457096">
        <ele>1275.268</ele>
        <time>2021-05-28T10:52:23Z</time>
      </trkpt>
      <trkpt lat="42.425097" lon="2.457065">
        <ele>1275.414</ele>
        <time>2021-05-28T10:52:25Z</time>
      </trkpt>
      <trkpt lat="42.425083" lon="2.457033">
        <ele>1275.508</ele>
        <time>2021-05-28T10:52:27Z</time>
      </trkpt>
      <trkpt lat="42.425074" lon="2.457001">
        <ele>1275.869</ele>
        <time>2021-05-28T10:52:29Z</time>
      </trkpt>
      <trkpt lat="42.425064" lon="2.456968">
        <ele>1276.086</ele>
        <time>2021-05-28T10:52:31Z</time>
      </trkpt>
      <trkpt lat="42.425058" lon="2.456934">
        <ele>1276.417</ele>
        <time>2021-05-28T10:52:33Z</time>
      </trkpt>
      <trkpt lat="42.425054" lon="2.456902">
        <ele>1276.776</ele>
        <time>2021-05-28T10:52:35Z</time>
      </trkpt>
      <trkpt lat="42.425051" lon="2.456871">
        <ele>1276.983</ele>
        <time>2021-05-28T10:52:37Z</time>
      </trkpt>
      <trkpt lat="42.425047" lon="2.456838">
        <ele>1277.278</ele>
        <time>2021-05-28T10:52:39Z</time>
      </trkpt>
      <trkpt lat="42.425049" lon="2.456805">
        <ele>1277.795</ele>
        <time>2021-05-28T10:52:41Z</time>
      </trkpt>
      <trkpt lat="42.425054" lon="2.456770">
        <ele>1278.223</ele>
        <time>2021-05-28T10:52:43Z</time>
      </trkpt>
      <trkpt lat="42.425056" lon="2.456734">
        <ele>1278.688</ele>
        <time>2021-05-28T10:52:45Z</time>
      </trkpt>
      <trkpt lat="42.425058" lon="2.456701">
        <ele>1279.124</ele>
        <time>2021-05-28T10:52:47Z</time>
      </trkpt>
      <trkpt lat="42.425061" lon="2.456669">
        <ele>1279.526</ele>
        <time>2021-05-28T10:52:49Z</time>
      </trkpt>
      <trkpt lat="42.425068" lon="2.456641">
        <ele>1279.608</ele>
        <time>2021-05-28T10:52:51Z</time>
      </trkpt>
      <trkpt lat="42.425080" lon="2.456615">
        <ele>1279.995</ele>
        <time>2021-05-28T10:52:53Z</time>
      </trkpt>
      <trkpt lat="42.425093" lon="2.456588">
        <ele>1280.192</ele>
        <time>2021-05-28T10:52:55Z</time>
      </trkpt>
      <trkpt lat="42.425108" lon="2.456556">
        <ele>1280.363</ele>
        <time>2021-05-28T10:52:58Z</time>
      </trkpt>
      <trkpt lat="42.425125" lon="2.456526">
        <ele>1280.542</ele>
        <time>2021-05-28T10:52:59Z</time>
      </trkpt>
      <trkpt lat="42.425144" lon="2.456502">
        <ele>1280.789</ele>
        <time>2021-05-28T10:53:01Z</time>
      </trkpt>
      <trkpt lat="42.425164" lon="2.456479">
        <ele>1280.934</ele>
        <time>2021-05-28T10:53:03Z</time>
      </trkpt>
      <trkpt lat="42.425179" lon="2.456459">
        <ele>1281.161</ele>
        <time>2021-05-28T10:53:05Z</time>
      </trkpt>
      <trkpt lat="42.425197" lon="2.456442">
        <ele>1281.269</ele>
        <time>2021-05-28T10:53:07Z</time>
      </trkpt>
      <trkpt lat="42.425222" lon="2.456420">
        <ele>1281.531</ele>
        <time>2021-05-28T10:53:09Z</time>
      </trkpt>
      <trkpt lat="42.425247" lon="2.456404">
        <ele>1281.761</ele>
        <time>2021-05-28T10:53:11Z</time>
      </trkpt>
      <trkpt lat="42.425275" lon="2.456393">
        <ele>1282.007</ele>
        <time>2021-05-28T10:53:13Z</time>
      </trkpt>
      <trkpt lat="42.425300" lon="2.456389">
        <ele>1282.608</ele>
        <time>2021-05-28T10:53:15Z</time>
      </trkpt>
      <trkpt lat="42.425326" lon="2.456388">
        <ele>1283.260</ele>
        <time>2021-05-28T10:53:17Z</time>
      </trkpt>
      <trkpt lat="42.425356" lon="2.456385">
        <ele>1283.937</ele>
        <time>2021-05-28T10:53:19Z</time>
      </trkpt>
      <trkpt lat="42.425381" lon="2.456378">
        <ele>1284.448</ele>
        <time>2021-05-28T10:53:21Z</time>
      </trkpt>
      <trkpt lat="42.425405" lon="2.456376">
        <ele>1285.057</ele>
        <time>2021-05-28T10:53:23Z</time>
      </trkpt>
      <trkpt lat="42.425433" lon="2.456368">
        <ele>1285.554</ele>
        <time>2021-05-28T10:53:25Z</time>
      </trkpt>
      <trkpt lat="42.425463" lon="2.456361">
        <ele>1286.139</ele>
        <time>2021-05-28T10:53:27Z</time>
      </trkpt>
      <trkpt lat="42.425487" lon="2.456348">
        <ele>1286.596</ele>
        <time>2021-05-28T10:53:29Z</time>
      </trkpt>
      <trkpt lat="42.425512" lon="2.456335">
        <ele>1286.824</ele>
        <time>2021-05-28T10:53:31Z</time>
      </trkpt>
      <trkpt lat="42.425540" lon="2.456324">
        <ele>1287.235</ele>
        <time>2021-05-28T10:53:33Z</time>
      </trkpt>
      <trkpt lat="42.425565" lon="2.456315">
        <ele>1287.686</ele>
        <time>2021-05-28T10:53:35Z</time>
      </trkpt>
      <trkpt lat="42.425590" lon="2.456305">
        <ele>1287.814</ele>
        <time>2021-05-28T10:53:37Z</time>
      </trkpt>
      <trkpt lat="42.425617" lon="2.456294">
        <ele>1288.108</ele>
        <time>2021-05-28T10:53:39Z</time>
      </trkpt>
      <trkpt lat="42.425644" lon="2.456289">
        <ele>1288.410</ele>
        <time>2021-05-28T10:53:41Z</time>
      </trkpt>
      <trkpt lat="42.425670" lon="2.456281">
        <ele>1288.747</ele>
        <time>2021-05-28T10:53:43Z</time>
      </trkpt>
      <trkpt lat="42.425691" lon="2.456261">
        <ele>1288.558</ele>
        <time>2021-05-28T10:53:45Z</time>
      </trkpt>
      <trkpt lat="42.425717" lon="2.456256">
        <ele>1288.817</ele>
        <time>2021-05-28T10:53:47Z</time>
      </trkpt>
      <trkpt lat="42.425742" lon="2.456248">
        <ele>1289.094</ele>
        <time>2021-05-28T10:53:49Z</time>
      </trkpt>
      <trkpt lat="42.425767" lon="2.456240">
        <ele>1289.149</ele>
        <time>2021-05-28T10:53:51Z</time>
      </trkpt>
      <trkpt lat="42.425789" lon="2.456227">
        <ele>1289.126</ele>
        <time>2021-05-28T10:53:53Z</time>
      </trkpt>
      <trkpt lat="42.425818" lon="2.456222">
        <ele>1289.454</ele>
        <time>2021-05-28T10:53:55Z</time>
      </trkpt>
      <trkpt lat="42.425846" lon="2.456213">
        <ele>1289.421</ele>
        <time>2021-05-28T10:53:57Z</time>
      </trkpt>
      <trkpt lat="42.425869" lon="2.456207">
        <ele>1289.341</ele>
        <time>2021-05-28T10:53:59Z</time>
      </trkpt>
      <trkpt lat="42.425896" lon="2.456207">
        <ele>1289.505</ele>
        <time>2021-05-28T10:54:01Z</time>
      </trkpt>
      <trkpt lat="42.425921" lon="2.456202">
        <ele>1289.508</ele>
        <time>2021-05-28T10:54:03Z</time>
      </trkpt>
      <trkpt lat="42.425946" lon="2.456200">
        <ele>1289.519</ele>
        <time>2021-05-28T10:54:05Z</time>
      </trkpt>
      <trkpt lat="42.425973" lon="2.456198">
        <ele>1289.626</ele>
        <time>2021-05-28T10:54:07Z</time>
      </trkpt>
      <trkpt lat="42.426000" lon="2.456196">
        <ele>1289.787</ele>
        <time>2021-05-28T10:54:09Z</time>
      </trkpt>
      <trkpt lat="42.426024" lon="2.456203">
        <ele>1290.146</ele>
        <time>2021-05-28T10:54:11Z</time>
      </trkpt>
      <trkpt lat="42.426052" lon="2.456216">
        <ele>1290.873</ele>
        <time>2021-05-28T10:54:14Z</time>
      </trkpt>
      <trkpt lat="42.426081" lon="2.456222">
        <ele>1291.258</ele>
        <time>2021-05-28T10:54:15Z</time>
      </trkpt>
      <trkpt lat="42.426100" lon="2.456228">
        <ele>1291.675</ele>
        <time>2021-05-28T10:54:16Z</time>
      </trkpt>
      <trkpt lat="42.426124" lon="2.456237">
        <ele>1292.023</ele>
        <time>2021-05-28T10:54:18Z</time>
      </trkpt>
      <trkpt lat="42.426147" lon="2.456237">
        <ele>1292.124</ele>
        <time>2021-05-28T10:54:20Z</time>
      </trkpt>
      <trkpt lat="42.426238" lon="2.456266">
        <ele>1293.604</ele>
        <time>2021-05-28T10:54:27Z</time>
      </trkpt>
      <trkpt lat="42.426282" lon="2.456290">
        <ele>1294.714</ele>
        <time>2021-05-28T10:54:30Z</time>
      </trkpt>
      <trkpt lat="42.426312" lon="2.456300">
        <ele>1295.208</ele>
        <time>2021-05-28T10:54:32Z</time>
      </trkpt>
      <trkpt lat="42.426331" lon="2.456309">
        <ele>1295.689</ele>
        <time>2021-05-28T10:54:34Z</time>
      </trkpt>
      <trkpt lat="42.426358" lon="2.456310">
        <ele>1295.826</ele>
        <time>2021-05-28T10:54:36Z</time>
      </trkpt>
      <trkpt lat="42.426389" lon="2.456308">
        <ele>1295.817</ele>
        <time>2021-05-28T10:54:38Z</time>
      </trkpt>
      <trkpt lat="42.426413" lon="2.456312">
        <ele>1296.036</ele>
        <time>2021-05-28T10:54:40Z</time>
      </trkpt>
      <trkpt lat="42.426438" lon="2.456320">
        <ele>1296.413</ele>
        <time>2021-05-28T10:54:42Z</time>
      </trkpt>
      <trkpt lat="42.426471" lon="2.456324">
        <ele>1296.718</ele>
        <time>2021-05-28T10:54:44Z</time>
      </trkpt>
      <trkpt lat="42.426493" lon="2.456327">
        <ele>1296.925</ele>
        <time>2021-05-28T10:54:46Z</time>
      </trkpt>
      <trkpt lat="42.426513" lon="2.456333">
        <ele>1297.273</ele>
        <time>2021-05-28T10:54:48Z</time>
      </trkpt>
      <trkpt lat="42.426541" lon="2.456338">
        <ele>1297.518</ele>
        <time>2021-05-28T10:54:50Z</time>
      </trkpt>
      <trkpt lat="42.426630" lon="2.456331">
        <ele>1297.698</ele>
        <time>2021-05-28T10:54:59Z</time>
      </trkpt>
      <trkpt lat="42.426730" lon="2.456334">
        <ele>1297.817</ele>
        <time>2021-05-28T10:55:04Z</time>
      </trkpt>
      <trkpt lat="42.426764" lon="2.456336">
        <ele>1297.908</ele>
        <time>2021-05-28T10:55:06Z</time>
      </trkpt>
      <trkpt lat="42.426790" lon="2.456339">
        <ele>1298.018</ele>
        <time>2021-05-28T10:55:09Z</time>
      </trkpt>
      <trkpt lat="42.426841" lon="2.456345">
        <ele>1298.385</ele>
        <time>2021-05-28T10:55:13Z</time>
      </trkpt>
      <trkpt lat="42.426863" lon="2.456353">
        <ele>1298.656</ele>
        <time>2021-05-28T10:55:15Z</time>
      </trkpt>
      <trkpt lat="42.426892" lon="2.456363">
        <ele>1299.015</ele>
        <time>2021-05-28T10:55:18Z</time>
      </trkpt>
      <trkpt lat="42.426917" lon="2.456367">
        <ele>1299.192</ele>
        <time>2021-05-28T10:55:19Z</time>
      </trkpt>
      <trkpt lat="42.426951" lon="2.456380">
        <ele>1299.787</ele>
        <time>2021-05-28T10:55:21Z</time>
      </trkpt>
      <trkpt lat="42.426974" lon="2.456392">
        <ele>1300.634</ele>
        <time>2021-05-28T10:55:23Z</time>
      </trkpt>
      <trkpt lat="42.426997" lon="2.456398">
        <ele>1301.252</ele>
        <time>2021-05-28T10:55:25Z</time>
      </trkpt>
      <trkpt lat="42.427022" lon="2.456396">
        <ele>1301.466</ele>
        <time>2021-05-28T10:55:27Z</time>
      </trkpt>
      <trkpt lat="42.427043" lon="2.456411">
        <ele>1302.429</ele>
        <time>2021-05-28T10:55:30Z</time>
      </trkpt>
      <trkpt lat="42.427061" lon="2.456409">
        <ele>1302.621</ele>
        <time>2021-05-28T10:55:32Z</time>
      </trkpt>
      <trkpt lat="42.427090" lon="2.456402">
        <ele>1302.708</ele>
        <time>2021-05-28T10:55:34Z</time>
      </trkpt>
      <trkpt lat="42.427141" lon="2.456394">
        <ele>1303.043</ele>
        <time>2021-05-28T10:55:37Z</time>
      </trkpt>
      <trkpt lat="42.427173" lon="2.456385">
        <ele>1303.150</ele>
        <time>2021-05-28T10:55:39Z</time>
      </trkpt>
      <trkpt lat="42.427202" lon="2.456377">
        <ele>1303.261</ele>
        <time>2021-05-28T10:55:41Z</time>
      </trkpt>
      <trkpt lat="42.427230" lon="2.456374">
        <ele>1303.690</ele>
        <time>2021-05-28T10:55:43Z</time>
      </trkpt>
      <trkpt lat="42.427262" lon="2.456371">
        <ele>1304.397</ele>
        <time>2021-05-28T10:55:45Z</time>
      </trkpt>
      <trkpt lat="42.427295" lon="2.456367">
        <ele>1304.932</ele>
        <time>2021-05-28T10:55:47Z</time>
      </trkpt>
      <trkpt lat="42.427325" lon="2.456363">
        <ele>1305.579</ele>
        <time>2021-05-28T10:55:49Z</time>
      </trkpt>
      <trkpt lat="42.427346" lon="2.456353">
        <ele>1305.647</ele>
        <time>2021-05-28T10:55:51Z</time>
      </trkpt>
      <trkpt lat="42.427375" lon="2.456348">
        <ele>1306.235</ele>
        <time>2021-05-28T10:55:53Z</time>
      </trkpt>
      <trkpt lat="42.427401" lon="2.456350">
        <ele>1306.986</ele>
        <time>2021-05-28T10:55:55Z</time>
      </trkpt>
      <trkpt lat="42.427429" lon="2.456341">
        <ele>1307.214</ele>
        <time>2021-05-28T10:55:57Z</time>
      </trkpt>
      <trkpt lat="42.427461" lon="2.456339">
        <ele>1307.908</ele>
        <time>2021-05-28T10:55:59Z</time>
      </trkpt>
      <trkpt lat="42.427492" lon="2.456335">
        <ele>1308.520</ele>
        <time>2021-05-28T10:56:01Z</time>
      </trkpt>
      <trkpt lat="42.427520" lon="2.456327">
        <ele>1308.647</ele>
        <time>2021-05-28T10:56:03Z</time>
      </trkpt>
      <trkpt lat="42.427551" lon="2.456319">
        <ele>1308.798</ele>
        <time>2021-05-28T10:56:05Z</time>
      </trkpt>
      <trkpt lat="42.427580" lon="2.456313">
        <ele>1308.997</ele>
        <time>2021-05-28T10:56:07Z</time>
      </trkpt>
      <trkpt lat="42.427609" lon="2.456312">
        <ele>1309.234</ele>
        <time>2021-05-28T10:56:09Z</time>
      </trkpt>
      <trkpt lat="42.427638" lon="2.456309">
        <ele>1309.539</ele>
        <time>2021-05-28T10:56:11Z</time>
      </trkpt>
      <trkpt lat="42.427666" lon="2.456303">
        <ele>1309.736</ele>
        <time>2021-05-28T10:56:13Z</time>
      </trkpt>
      <trkpt lat="42.427691" lon="2.456296">
        <ele>1309.774</ele>
        <time>2021-05-28T10:56:15Z</time>
      </trkpt>
      <trkpt lat="42.427718" lon="2.456287">
        <ele>1309.731</ele>
        <time>2021-05-28T10:56:17Z</time>
      </trkpt>
      <trkpt lat="42.427748" lon="2.456285">
        <ele>1310.161</ele>
        <time>2021-05-28T10:56:19Z</time>
      </trkpt>
      <trkpt lat="42.427777" lon="2.456283">
        <ele>1310.407</ele>
        <time>2021-05-28T10:56:21Z</time>
      </trkpt>
      <trkpt lat="42.427802" lon="2.456276">
        <ele>1310.608</ele>
        <time>2021-05-28T10:56:23Z</time>
      </trkpt>
      <trkpt lat="42.427830" lon="2.456268">
        <ele>1310.810</ele>
        <time>2021-05-28T10:56:25Z</time>
      </trkpt>
      <trkpt lat="42.427857" lon="2.456263">
        <ele>1311.157</ele>
        <time>2021-05-28T10:56:27Z</time>
      </trkpt>
      <trkpt lat="42.427892" lon="2.456255">
        <ele>1311.588</ele>
        <time>2021-05-28T10:56:29Z</time>
      </trkpt>
      <trkpt lat="42.427915" lon="2.456246">
        <ele>1311.577</ele>
        <time>2021-05-28T10:56:30Z</time>
      </trkpt>
      <trkpt lat="42.427939" lon="2.456240">
        <ele>1311.734</ele>
        <time>2021-05-28T10:56:31Z</time>
      </trkpt>
      <trkpt lat="42.427962" lon="2.456233">
        <ele>1311.979</ele>
        <time>2021-05-28T10:56:32Z</time>
      </trkpt>
      <trkpt lat="42.427982" lon="2.456222">
        <ele>1311.856</ele>
        <time>2021-05-28T10:56:33Z</time>
      </trkpt>
      <trkpt lat="42.428001" lon="2.456216">
        <ele>1311.974</ele>
        <time>2021-05-28T10:56:34Z</time>
      </trkpt>
      <trkpt lat="42.428034" lon="2.456205">
        <ele>1312.099</ele>
        <time>2021-05-28T10:56:36Z</time>
      </trkpt>
      <trkpt lat="42.428052" lon="2.456197">
        <ele>1312.007</ele>
        <time>2021-05-28T10:56:37Z</time>
      </trkpt>
      <trkpt lat="42.428071" lon="2.456192">
        <ele>1312.127</ele>
        <time>2021-05-28T10:56:38Z</time>
      </trkpt>
      <trkpt lat="42.428170" lon="2.456161">
        <ele>1312.708</ele>
        <time>2021-05-28T10:56:44Z</time>
      </trkpt>
      <trkpt lat="42.428272" lon="2.456141">
        <ele>1313.926</ele>
        <time>2021-05-28T10:56:49Z</time>
      </trkpt>
      <trkpt lat="42.428370" lon="2.456092">
        <ele>1315.223</ele>
        <time>2021-05-28T10:56:53Z</time>
      </trkpt>
      <trkpt lat="42.428456" lon="2.456019">
        <ele>1317.224</ele>
        <time>2021-05-28T10:56:57Z</time>
      </trkpt>
      <trkpt lat="42.428498" lon="2.455898">
        <ele>1315.433</ele>
        <time>2021-05-28T10:57:02Z</time>
      </trkpt>
      <trkpt lat="42.428520" lon="2.455850">
        <ele>1314.940</ele>
        <time>2021-05-28T10:57:04Z</time>
      </trkpt>
      <trkpt lat="42.428544" lon="2.455801">
        <ele>1314.285</ele>
        <time>2021-05-28T10:57:06Z</time>
      </trkpt>
      <trkpt lat="42.428555" lon="2.455772">
        <ele>1313.522</ele>
        <time>2021-05-28T10:57:07Z</time>
      </trkpt>
      <trkpt lat="42.428567" lon="2.455746">
        <ele>1312.970</ele>
        <time>2021-05-28T10:57:08Z</time>
      </trkpt>
      <trkpt lat="42.428575" lon="2.455718">
        <ele>1312.063</ele>
        <time>2021-05-28T10:57:09Z</time>
      </trkpt>
      <trkpt lat="42.428586" lon="2.455693">
        <ele>1311.344</ele>
        <time>2021-05-28T10:57:10Z</time>
      </trkpt>
      <trkpt lat="42.428598" lon="2.455669">
        <ele>1310.818</ele>
        <time>2021-05-28T10:57:11Z</time>
      </trkpt>
      <trkpt lat="42.428608" lon="2.455647">
        <ele>1310.208</ele>
        <time>2021-05-28T10:57:12Z</time>
      </trkpt>
      <trkpt lat="42.428632" lon="2.455607">
        <ele>1309.013</ele>
        <time>2021-05-28T10:57:14Z</time>
      </trkpt>
      <trkpt lat="42.428646" lon="2.455588">
        <ele>1308.520</ele>
        <time>2021-05-28T10:57:15Z</time>
      </trkpt>
      <trkpt lat="42.428677" lon="2.455557">
        <ele>1308.061</ele>
        <time>2021-05-28T10:57:17Z</time>
      </trkpt>
      <trkpt lat="42.428693" lon="2.455543">
        <ele>1307.890</ele>
        <time>2021-05-28T10:57:18Z</time>
      </trkpt>
      <trkpt lat="42.428712" lon="2.455530">
        <ele>1307.847</ele>
        <time>2021-05-28T10:57:19Z</time>
      </trkpt>
      <trkpt lat="42.428730" lon="2.455515">
        <ele>1307.612</ele>
        <time>2021-05-28T10:57:20Z</time>
      </trkpt>
      <trkpt lat="42.428745" lon="2.455501">
        <ele>1307.469</ele>
        <time>2021-05-28T10:57:21Z</time>
      </trkpt>
      <trkpt lat="42.428833" lon="2.455429">
        <ele>1306.697</ele>
        <time>2021-05-28T10:57:26Z</time>
      </trkpt>
      <trkpt lat="42.428919" lon="2.455365">
        <ele>1305.914</ele>
        <time>2021-05-28T10:57:31Z</time>
      </trkpt>
      <trkpt lat="42.429002" lon="2.455294">
        <ele>1304.654</ele>
        <time>2021-05-28T10:57:36Z</time>
      </trkpt>
      <trkpt lat="42.429047" lon="2.455264">
        <ele>1304.309</ele>
        <time>2021-05-28T10:57:38Z</time>
      </trkpt>
      <trkpt lat="42.429084" lon="2.455234">
        <ele>1303.908</ele>
        <time>2021-05-28T10:57:40Z</time>
      </trkpt>
      <trkpt lat="42.429171" lon="2.455170">
        <ele>1303.028</ele>
        <time>2021-05-28T10:57:45Z</time>
      </trkpt>
      <trkpt lat="42.429262" lon="2.455109">
        <ele>1301.755</ele>
        <time>2021-05-28T10:57:50Z</time>
      </trkpt>
      <trkpt lat="42.429349" lon="2.455069">
        <ele>1301.236</ele>
        <time>2021-05-28T10:57:54Z</time>
      </trkpt>
      <trkpt lat="42.429450" lon="2.455020">
        <ele>1300.255</ele>
        <time>2021-05-28T10:57:59Z</time>
      </trkpt>
      <trkpt lat="42.429548" lon="2.454986">
        <ele>1299.952</ele>
        <time>2021-05-28T10:58:04Z</time>
      </trkpt>
      <trkpt lat="42.429653" lon="2.454936">
        <ele>1299.177</ele>
        <time>2021-05-28T10:58:10Z</time>
      </trkpt>
      <trkpt lat="42.429760" lon="2.454910">
        <ele>1298.914</ele>
        <time>2021-05-28T10:58:15Z</time>
      </trkpt>
      <trkpt lat="42.429855" lon="2.454876">
        <ele>1297.762</ele>
        <time>2021-05-28T10:58:19Z</time>
      </trkpt>
      <trkpt lat="42.429945" lon="2.454812">
        <ele>1295.085</ele>
        <time>2021-05-28T10:58:25Z</time>
      </trkpt>
      <trkpt lat="42.429977" lon="2.454796">
        <ele>1294.489</ele>
        <time>2021-05-28T10:58:27Z</time>
      </trkpt>
      <trkpt lat="42.430076" lon="2.454766">
        <ele>1293.017</ele>
        <time>2021-05-28T10:58:33Z</time>
      </trkpt>
      <trkpt lat="42.430162" lon="2.454736">
        <ele>1291.608</ele>
        <time>2021-05-28T10:58:38Z</time>
      </trkpt>
      <trkpt lat="42.430199" lon="2.454730">
        <ele>1291.495</ele>
        <time>2021-05-28T10:58:40Z</time>
      </trkpt>
      <trkpt lat="42.430220" lon="2.454728">
        <ele>1291.342</ele>
        <time>2021-05-28T10:58:41Z</time>
      </trkpt>
      <trkpt lat="42.430242" lon="2.454724">
        <ele>1291.163</ele>
        <time>2021-05-28T10:58:42Z</time>
      </trkpt>
      <trkpt lat="42.430260" lon="2.454721">
        <ele>1291.072</ele>
        <time>2021-05-28T10:58:43Z</time>
      </trkpt>
      <trkpt lat="42.430281" lon="2.454718">
        <ele>1290.879</ele>
        <time>2021-05-28T10:58:44Z</time>
      </trkpt>
      <trkpt lat="42.430301" lon="2.454716">
        <ele>1290.724</ele>
        <time>2021-05-28T10:58:45Z</time>
      </trkpt>
      <trkpt lat="42.430319" lon="2.454714">
        <ele>1290.641</ele>
        <time>2021-05-28T10:58:46Z</time>
      </trkpt>
      <trkpt lat="42.430339" lon="2.454712">
        <ele>1290.469</ele>
        <time>2021-05-28T10:58:47Z</time>
      </trkpt>
      <trkpt lat="42.430362" lon="2.454713">
        <ele>1290.477</ele>
        <time>2021-05-28T10:58:48Z</time>
      </trkpt>
      <trkpt lat="42.430382" lon="2.454713">
        <ele>1290.361</ele>
        <time>2021-05-28T10:58:49Z</time>
      </trkpt>
      <trkpt lat="42.430400" lon="2.454712">
        <ele>1290.227</ele>
        <time>2021-05-28T10:58:50Z</time>
      </trkpt>
      <trkpt lat="42.430421" lon="2.454712">
        <ele>1290.108</ele>
        <time>2021-05-28T10:58:51Z</time>
      </trkpt>
      <trkpt lat="42.430439" lon="2.454714">
        <ele>1290.154</ele>
        <time>2021-05-28T10:58:52Z</time>
      </trkpt>
      <trkpt lat="42.430474" lon="2.454720">
        <ele>1290.251</ele>
        <time>2021-05-28T10:58:54Z</time>
      </trkpt>
      <trkpt lat="42.430493" lon="2.454721">
        <ele>1290.252</ele>
        <time>2021-05-28T10:58:55Z</time>
      </trkpt>
      <trkpt lat="42.430511" lon="2.454723">
        <ele>1290.211</ele>
        <time>2021-05-28T10:58:56Z</time>
      </trkpt>
      <trkpt lat="42.430529" lon="2.454730">
        <ele>1290.488</ele>
        <time>2021-05-28T10:58:57Z</time>
      </trkpt>
      <trkpt lat="42.430565" lon="2.454738">
        <ele>1290.673</ele>
        <time>2021-05-28T10:58:59Z</time>
      </trkpt>
      <trkpt lat="42.430583" lon="2.454743">
        <ele>1290.670</ele>
        <time>2021-05-28T10:59:00Z</time>
      </trkpt>
      <trkpt lat="42.430605" lon="2.454749">
        <ele>1290.628</ele>
        <time>2021-05-28T10:59:01Z</time>
      </trkpt>
      <trkpt lat="42.430625" lon="2.454752">
        <ele>1290.562</ele>
        <time>2021-05-28T10:59:02Z</time>
      </trkpt>
      <trkpt lat="42.430643" lon="2.454757">
        <ele>1290.583</ele>
        <time>2021-05-28T10:59:03Z</time>
      </trkpt>
      <trkpt lat="42.430679" lon="2.454764">
        <ele>1290.311</ele>
        <time>2021-05-28T10:59:05Z</time>
      </trkpt>
      <trkpt lat="42.430717" lon="2.454772">
        <ele>1290.208</ele>
        <time>2021-05-28T10:59:07Z</time>
      </trkpt>
      <trkpt lat="42.430743" lon="2.454777">
        <ele>1290.193</ele>
        <time>2021-05-28T10:59:09Z</time>
      </trkpt>
      <trkpt lat="42.430777" lon="2.454791">
        <ele>1290.290</ele>
        <time>2021-05-28T10:59:11Z</time>
      </trkpt>
      <trkpt lat="42.430799" lon="2.454801">
        <ele>1290.381</ele>
        <time>2021-05-28T10:59:12Z</time>
      </trkpt>
      <trkpt lat="42.430816" lon="2.454815">
        <ele>1290.620</ele>
        <time>2021-05-28T10:59:13Z</time>
      </trkpt>
      <trkpt lat="42.430840" lon="2.454841">
        <ele>1291.197</ele>
        <time>2021-05-28T10:59:15Z</time>
      </trkpt>
      <trkpt lat="42.430938" lon="2.454917">
        <ele>1291.942</ele>
        <time>2021-05-28T10:59:21Z</time>
      </trkpt>
      <trkpt lat="42.431035" lon="2.454967">
        <ele>1291.599</ele>
        <time>2021-05-28T10:59:25Z</time>
      </trkpt>
      <trkpt lat="42.431121" lon="2.455031">
        <ele>1292.237</ele>
        <time>2021-05-28T10:59:30Z</time>
      </trkpt>
      <trkpt lat="42.431223" lon="2.455077">
        <ele>1292.384</ele>
        <time>2021-05-28T10:59:35Z</time>
      </trkpt>
      <trkpt lat="42.431308" lon="2.455149">
        <ele>1293.907</ele>
        <time>2021-05-28T10:59:40Z</time>
      </trkpt>
      <trkpt lat="42.431420" lon="2.455175">
        <ele>1293.517</ele>
        <time>2021-05-28T10:59:45Z</time>
      </trkpt>
      <trkpt lat="42.431521" lon="2.455201">
        <ele>1294.408</ele>
        <time>2021-05-28T10:59:50Z</time>
      </trkpt>
      <trkpt lat="42.431631" lon="2.455192">
        <ele>1293.865</ele>
        <time>2021-05-28T10:59:55Z</time>
      </trkpt>
      <trkpt lat="42.431722" lon="2.455186">
        <ele>1293.022</ele>
        <time>2021-05-28T11:00:00Z</time>
      </trkpt>
      <trkpt lat="42.431819" lon="2.455187">
        <ele>1292.593</ele>
        <time>2021-05-28T11:00:04Z</time>
      </trkpt>
      <trkpt lat="42.431913" lon="2.455178">
        <ele>1291.582</ele>
        <time>2021-05-28T11:00:09Z</time>
      </trkpt>
      <trkpt lat="42.432003" lon="2.455168">
        <ele>1290.139</ele>
        <time>2021-05-28T11:00:14Z</time>
      </trkpt>
      <trkpt lat="42.432098" lon="2.455169">
        <ele>1289.074</ele>
        <time>2021-05-28T11:00:19Z</time>
      </trkpt>
      <trkpt lat="42.432198" lon="2.455167">
        <ele>1287.711</ele>
        <time>2021-05-28T11:00:25Z</time>
      </trkpt>
      <trkpt lat="42.432298" lon="2.455204">
        <ele>1287.639</ele>
        <time>2021-05-28T11:00:32Z</time>
      </trkpt>
      <trkpt lat="42.432361" lon="2.455223">
        <ele>1287.157</ele>
        <time>2021-05-28T11:00:36Z</time>
      </trkpt>
      <trkpt lat="42.432390" lon="2.455230">
        <ele>1286.900</ele>
        <time>2021-05-28T11:00:38Z</time>
      </trkpt>
      <trkpt lat="42.432483" lon="2.455256">
        <ele>1286.220</ele>
        <time>2021-05-28T11:00:43Z</time>
      </trkpt>
      <trkpt lat="42.432579" lon="2.455320">
        <ele>1286.708</ele>
        <time>2021-05-28T11:00:48Z</time>
      </trkpt>
      <trkpt lat="42.432670" lon="2.455382">
        <ele>1286.842</ele>
        <time>2021-05-28T11:00:52Z</time>
      </trkpt>
      <trkpt lat="42.432763" lon="2.455435">
        <ele>1286.129</ele>
        <time>2021-05-28T11:00:57Z</time>
      </trkpt>
      <trkpt lat="42.432855" lon="2.455498">
        <ele>1287.820</ele>
        <time>2021-05-28T11:01:01Z</time>
      </trkpt>
      <trkpt lat="42.432950" lon="2.455543">
        <ele>1288.879</ele>
        <time>2021-05-28T11:01:07Z</time>
      </trkpt>
      <trkpt lat="42.433060" lon="2.455524">
        <ele>1286.326</ele>
        <time>2021-05-28T11:01:12Z</time>
      </trkpt>
      <trkpt lat="42.433162" lon="2.455501">
        <ele>1284.261</ele>
        <time>2021-05-28T11:01:16Z</time>
      </trkpt>
      <trkpt lat="42.433257" lon="2.455511">
        <ele>1284.068</ele>
        <time>2021-05-28T11:01:21Z</time>
      </trkpt>
      <trkpt lat="42.433357" lon="2.455529">
        <ele>1284.146</ele>
        <time>2021-05-28T11:01:26Z</time>
      </trkpt>
      <trkpt lat="42.433456" lon="2.455538">
        <ele>1282.811</ele>
        <time>2021-05-28T11:01:31Z</time>
      </trkpt>
      <trkpt lat="42.433556" lon="2.455563">
        <ele>1282.421</ele>
        <time>2021-05-28T11:01:36Z</time>
      </trkpt>
      <trkpt lat="42.433649" lon="2.455581">
        <ele>1281.603</ele>
        <time>2021-05-28T11:01:42Z</time>
      </trkpt>
      <trkpt lat="42.433735" lon="2.455620">
        <ele>1281.908</ele>
        <time>2021-05-28T11:01:47Z</time>
      </trkpt>
      <trkpt lat="42.433826" lon="2.455676">
        <ele>1283.088</ele>
        <time>2021-05-28T11:01:53Z</time>
      </trkpt>
      <trkpt lat="42.433910" lon="2.455722">
        <ele>1283.295</ele>
        <time>2021-05-28T11:01:57Z</time>
      </trkpt>
      <trkpt lat="42.433996" lon="2.455771">
        <ele>1282.336</ele>
        <time>2021-05-28T11:02:01Z</time>
      </trkpt>
      <trkpt lat="42.434087" lon="2.455839">
        <ele>1281.765</ele>
        <time>2021-05-28T11:02:06Z</time>
      </trkpt>
      <trkpt lat="42.434167" lon="2.455911">
        <ele>1281.172</ele>
        <time>2021-05-28T11:02:11Z</time>
      </trkpt>
      <trkpt lat="42.434237" lon="2.456020">
        <ele>1280.937</ele>
        <time>2021-05-28T11:02:17Z</time>
      </trkpt>
      <trkpt lat="42.434297" lon="2.456116">
        <ele>1280.794</ele>
        <time>2021-05-28T11:02:22Z</time>
      </trkpt>
      <trkpt lat="42.434355" lon="2.456225">
        <ele>1280.422</ele>
        <time>2021-05-28T11:02:28Z</time>
      </trkpt>
      <trkpt lat="42.434408" lon="2.456341">
        <ele>1280.753</ele>
        <time>2021-05-28T11:02:34Z</time>
      </trkpt>
      <trkpt lat="42.434455" lon="2.456467">
        <ele>1282.104</ele>
        <time>2021-05-28T11:02:40Z</time>
      </trkpt>
      <trkpt lat="42.434486" lon="2.456596">
        <ele>1285.014</ele>
        <time>2021-05-28T11:02:45Z</time>
      </trkpt>
      <trkpt lat="42.434532" lon="2.456705">
        <ele>1286.908</ele>
        <time>2021-05-28T11:02:51Z</time>
      </trkpt>
      <trkpt lat="42.434586" lon="2.456821">
        <ele>1290.292</ele>
        <time>2021-05-28T11:02:59Z</time>
      </trkpt>
      <trkpt lat="42.434639" lon="2.456933">
        <ele>1294.389</ele>
        <time>2021-05-28T11:03:08Z</time>
      </trkpt>
      <trkpt lat="42.434730" lon="2.456973">
        <ele>1293.480</ele>
        <time>2021-05-28T11:03:16Z</time>
      </trkpt>
      <trkpt lat="42.434819" lon="2.457009">
        <ele>1292.999</ele>
        <time>2021-05-28T11:03:22Z</time>
      </trkpt>
      <trkpt lat="42.434895" lon="2.457087">
        <ele>1295.246</ele>
        <time>2021-05-28T11:03:28Z</time>
      </trkpt>
      <trkpt lat="42.434981" lon="2.457141">
        <ele>1295.931</ele>
        <time>2021-05-28T11:03:34Z</time>
      </trkpt>
      <trkpt lat="42.435076" lon="2.457206">
        <ele>1297.448</ele>
        <time>2021-05-28T11:03:40Z</time>
      </trkpt>
      <trkpt lat="42.435161" lon="2.457253">
        <ele>1298.016</ele>
        <time>2021-05-28T11:03:44Z</time>
      </trkpt>
      <trkpt lat="42.435249" lon="2.457300">
        <ele>1298.364</ele>
        <time>2021-05-28T11:03:48Z</time>
      </trkpt>
      <trkpt lat="42.435335" lon="2.457351">
        <ele>1298.106</ele>
        <time>2021-05-28T11:03:53Z</time>
      </trkpt>
      <trkpt lat="42.435420" lon="2.457416">
        <ele>1298.316</ele>
        <time>2021-05-28T11:03:59Z</time>
      </trkpt>
      <trkpt lat="42.435512" lon="2.457471">
        <ele>1298.008</ele>
        <time>2021-05-28T11:04:04Z</time>
      </trkpt>
      <trkpt lat="42.435594" lon="2.457551">
        <ele>1297.263</ele>
        <time>2021-05-28T11:04:10Z</time>
      </trkpt>
      <trkpt lat="42.435654" lon="2.457648">
        <ele>1296.090</ele>
        <time>2021-05-28T11:04:15Z</time>
      </trkpt>
      <trkpt lat="42.435713" lon="2.457757">
        <ele>1294.951</ele>
        <time>2021-05-28T11:04:21Z</time>
      </trkpt>
      <trkpt lat="42.435736" lon="2.457888">
        <ele>1295.570</ele>
        <time>2021-05-28T11:04:26Z</time>
      </trkpt>
      <trkpt lat="42.435795" lon="2.457999">
        <ele>1293.597</ele>
        <time>2021-05-28T11:04:31Z</time>
      </trkpt>
      <trkpt lat="42.435867" lon="2.458092">
        <ele>1289.812</ele>
        <time>2021-05-28T11:04:35Z</time>
      </trkpt>
      <trkpt lat="42.435893" lon="2.458232">
        <ele>1288.929</ele>
        <time>2021-05-28T11:04:40Z</time>
      </trkpt>
      <trkpt lat="42.435887" lon="2.458374">
        <ele>1290.567</ele>
        <time>2021-05-28T11:04:46Z</time>
      </trkpt>
      <trkpt lat="42.435876" lon="2.458498">
        <ele>1293.046</ele>
        <time>2021-05-28T11:04:51Z</time>
      </trkpt>
      <trkpt lat="42.435869" lon="2.458620">
        <ele>1295.488</ele>
        <time>2021-05-28T11:04:56Z</time>
      </trkpt>
      <trkpt lat="42.435865" lon="2.458765">
        <ele>1302.516</ele>
        <time>2021-05-28T11:05:01Z</time>
      </trkpt>
      <trkpt lat="42.435976" lon="2.458813">
        <ele>1305.908</ele>
        <time>2021-05-28T11:05:07Z</time>
      </trkpt>
      <trkpt lat="42.436092" lon="2.458813">
        <ele>1307.221</ele>
        <time>2021-05-28T11:05:11Z</time>
      </trkpt>
      <trkpt lat="42.436175" lon="2.458765">
        <ele>1305.378</ele>
        <time>2021-05-28T11:05:25Z</time>
      </trkpt>
      <trkpt lat="42.436268" lon="2.458743">
        <ele>1305.419</ele>
        <time>2021-05-28T11:05:32Z</time>
      </trkpt>
      <trkpt lat="42.436361" lon="2.458712">
        <ele>1305.078</ele>
        <time>2021-05-28T11:05:43Z</time>
      </trkpt>
      <trkpt lat="42.436465" lon="2.458690">
        <ele>1306.075</ele>
        <time>2021-05-28T11:05:49Z</time>
      </trkpt>
      <trkpt lat="42.436552" lon="2.458654">
        <ele>1306.240</ele>
        <time>2021-05-28T11:05:54Z</time>
      </trkpt>
      <trkpt lat="42.436641" lon="2.458636">
        <ele>1307.567</ele>
        <time>2021-05-28T11:05:58Z</time>
      </trkpt>
      <trkpt lat="42.436733" lon="2.458591">
        <ele>1308.255</ele>
        <time>2021-05-28T11:06:05Z</time>
      </trkpt>
      <trkpt lat="42.436820" lon="2.458541">
        <ele>1308.648</ele>
        <time>2021-05-28T11:06:12Z</time>
      </trkpt>
      <trkpt lat="42.436907" lon="2.458505">
        <ele>1309.961</ele>
        <time>2021-05-28T11:06:20Z</time>
      </trkpt>
      <trkpt lat="42.436999" lon="2.458463">
        <ele>1311.017</ele>
        <time>2021-05-28T11:06:26Z</time>
      </trkpt>
      <trkpt lat="42.437090" lon="2.458430">
        <ele>1312.608</ele>
        <time>2021-05-28T11:06:32Z</time>
      </trkpt>
      <trkpt lat="42.437173" lon="2.458375">
        <ele>1313.131</ele>
        <time>2021-05-28T11:06:37Z</time>
      </trkpt>
      <trkpt lat="42.437265" lon="2.458308">
        <ele>1312.798</ele>
        <time>2021-05-28T11:06:42Z</time>
      </trkpt>
      <trkpt lat="42.437342" lon="2.458243">
        <ele>1311.389</ele>
        <time>2021-05-28T11:06:49Z</time>
      </trkpt>
      <trkpt lat="42.437438" lon="2.458190">
        <ele>1311.278</ele>
        <time>2021-05-28T11:06:55Z</time>
      </trkpt>
      <trkpt lat="42.437536" lon="2.458196">
        <ele>1312.465</ele>
        <time>2021-05-28T11:07:02Z</time>
      </trkpt>
      <trkpt lat="42.437630" lon="2.458232">
        <ele>1312.130</ele>
        <time>2021-05-28T11:07:08Z</time>
      </trkpt>
      <trkpt lat="42.437716" lon="2.458287">
        <ele>1313.077</ele>
        <time>2021-05-28T11:07:12Z</time>
      </trkpt>
      <trkpt lat="42.437803" lon="2.458330">
        <ele>1313.015</ele>
        <time>2021-05-28T11:07:16Z</time>
      </trkpt>
      <trkpt lat="42.437889" lon="2.458385">
        <ele>1312.717</ele>
        <time>2021-05-28T11:07:21Z</time>
      </trkpt>
      <trkpt lat="42.437977" lon="2.458443">
        <ele>1312.687</ele>
        <time>2021-05-28T11:07:26Z</time>
      </trkpt>
      <trkpt lat="42.438064" lon="2.458488">
        <ele>1311.915</ele>
        <time>2021-05-28T11:07:30Z</time>
      </trkpt>
      <trkpt lat="42.438162" lon="2.458550">
        <ele>1311.308</ele>
        <time>2021-05-28T11:07:35Z</time>
      </trkpt>
      <trkpt lat="42.438238" lon="2.458618">
        <ele>1311.778</ele>
        <time>2021-05-28T11:07:40Z</time>
      </trkpt>
      <trkpt lat="42.438326" lon="2.458683">
        <ele>1311.165</ele>
        <time>2021-05-28T11:07:45Z</time>
      </trkpt>
      <trkpt lat="42.438411" lon="2.458759">
        <ele>1309.946</ele>
        <time>2021-05-28T11:07:50Z</time>
      </trkpt>
      <trkpt lat="42.438499" lon="2.458833">
        <ele>1308.475</ele>
        <time>2021-05-28T11:07:55Z</time>
      </trkpt>
      <trkpt lat="42.438578" lon="2.458899">
        <ele>1307.082</ele>
        <time>2021-05-28T11:07:59Z</time>
      </trkpt>
      <trkpt lat="42.438660" lon="2.458973">
        <ele>1305.057</ele>
        <time>2021-05-28T11:08:03Z</time>
      </trkpt>
      <trkpt lat="42.438738" lon="2.459066">
        <ele>1303.764</ele>
        <time>2021-05-28T11:08:08Z</time>
      </trkpt>
      <trkpt lat="42.438799" lon="2.459178">
        <ele>1304.342</ele>
        <time>2021-05-28T11:08:13Z</time>
      </trkpt>
      <trkpt lat="42.438841" lon="2.459286">
        <ele>1306.215</ele>
        <time>2021-05-28T11:08:17Z</time>
      </trkpt>
      <trkpt lat="42.438900" lon="2.459384">
        <ele>1307.265</ele>
        <time>2021-05-28T11:08:22Z</time>
      </trkpt>
      <trkpt lat="42.438952" lon="2.459492">
        <ele>1309.711</ele>
        <time>2021-05-28T11:08:26Z</time>
      </trkpt>
      <trkpt lat="42.439023" lon="2.459587">
        <ele>1311.108</ele>
        <time>2021-05-28T11:08:31Z</time>
      </trkpt>
      <trkpt lat="42.439112" lon="2.459667">
        <ele>1311.478</ele>
        <time>2021-05-28T11:08:36Z</time>
      </trkpt>
      <trkpt lat="42.439207" lon="2.459725">
        <ele>1310.825</ele>
        <time>2021-05-28T11:08:41Z</time>
      </trkpt>
      <trkpt lat="42.439304" lon="2.459777">
        <ele>1309.876</ele>
        <time>2021-05-28T11:08:47Z</time>
      </trkpt>
      <trkpt lat="42.439397" lon="2.459841">
        <ele>1309.635</ele>
        <time>2021-05-28T11:08:53Z</time>
      </trkpt>
      <trkpt lat="42.439469" lon="2.459917">
        <ele>1310.232</ele>
        <time>2021-05-28T11:08:57Z</time>
      </trkpt>
      <trkpt lat="42.439528" lon="2.460036">
        <ele>1312.537</ele>
        <time>2021-05-28T11:09:02Z</time>
      </trkpt>
      <trkpt lat="42.439607" lon="2.460116">
        <ele>1312.194</ele>
        <time>2021-05-28T11:09:07Z</time>
      </trkpt>
      <trkpt lat="42.439680" lon="2.460206">
        <ele>1312.762</ele>
        <time>2021-05-28T11:09:12Z</time>
      </trkpt>
      <trkpt lat="42.439770" lon="2.460270">
        <ele>1310.988</ele>
        <time>2021-05-28T11:09:17Z</time>
      </trkpt>
      <trkpt lat="42.439792" lon="2.460277">
        <ele>1309.924</ele>
        <time>2021-05-28T11:09:18Z</time>
      </trkpt>
      <trkpt lat="42.439874" lon="2.460327">
        <ele>1306.926</ele>
        <time>2021-05-28T11:09:22Z</time>
      </trkpt>
      <trkpt lat="42.439908" lon="2.460349">
        <ele>1305.808</ele>
        <time>2021-05-28T11:09:24Z</time>
      </trkpt>
      <trkpt lat="42.439929" lon="2.460362">
        <ele>1305.035</ele>
        <time>2021-05-28T11:09:25Z</time>
      </trkpt>
      <trkpt lat="42.439945" lon="2.460377">
        <ele>1304.722</ele>
        <time>2021-05-28T11:09:26Z</time>
      </trkpt>
      <trkpt lat="42.440005" lon="2.460448">
        <ele>1303.863</ele>
        <time>2021-05-28T11:09:30Z</time>
      </trkpt>
      <trkpt lat="42.440024" lon="2.460467">
        <ele>1303.512</ele>
        <time>2021-05-28T11:09:31Z</time>
      </trkpt>
      <trkpt lat="42.440052" lon="2.460498">
        <ele>1303.019</ele>
        <time>2021-05-28T11:09:33Z</time>
      </trkpt>
      <trkpt lat="42.440066" lon="2.460513">
        <ele>1302.754</ele>
        <time>2021-05-28T11:09:34Z</time>
      </trkpt>
      <trkpt lat="42.440096" lon="2.460546">
        <ele>1302.121</ele>
        <time>2021-05-28T11:09:36Z</time>
      </trkpt>
      <trkpt lat="42.440112" lon="2.460561">
        <ele>1301.799</ele>
        <time>2021-05-28T11:09:37Z</time>
      </trkpt>
      <trkpt lat="42.440130" lon="2.460576">
        <ele>1301.049</ele>
        <time>2021-05-28T11:09:38Z</time>
      </trkpt>
      <trkpt lat="42.440204" lon="2.460687">
        <ele>1299.602</ele>
        <time>2021-05-28T11:09:43Z</time>
      </trkpt>
      <trkpt lat="42.440267" lon="2.460795">
        <ele>1298.722</ele>
        <time>2021-05-28T11:09:48Z</time>
      </trkpt>
      <trkpt lat="42.440315" lon="2.460908">
        <ele>1299.308</ele>
        <time>2021-05-28T11:09:53Z</time>
      </trkpt>
      <trkpt lat="42.440377" lon="2.461020">
        <ele>1299.581</ele>
        <time>2021-05-28T11:09:58Z</time>
      </trkpt>
      <trkpt lat="42.440452" lon="2.461114">
        <ele>1299.088</ele>
        <time>2021-05-28T11:10:03Z</time>
      </trkpt>
      <trkpt lat="42.440522" lon="2.461232">
        <ele>1299.389</ele>
        <time>2021-05-28T11:10:08Z</time>
      </trkpt>
      <trkpt lat="42.440607" lon="2.461315">
        <ele>1298.498</ele>
        <time>2021-05-28T11:10:14Z</time>
      </trkpt>
      <trkpt lat="42.440695" lon="2.461376">
        <ele>1295.815</ele>
        <time>2021-05-28T11:10:20Z</time>
      </trkpt>
      <trkpt lat="42.440723" lon="2.461468">
        <ele>1296.110</ele>
        <time>2021-05-28T11:10:24Z</time>
      </trkpt>
      <trkpt lat="42.440730" lon="2.461510">
        <ele>1296.437</ele>
        <time>2021-05-28T11:10:26Z</time>
      </trkpt>
      <trkpt lat="42.440735" lon="2.461534">
        <ele>1296.685</ele>
        <time>2021-05-28T11:10:27Z</time>
      </trkpt>
      <trkpt lat="42.440742" lon="2.461558">
        <ele>1296.691</ele>
        <time>2021-05-28T11:10:28Z</time>
      </trkpt>
      <trkpt lat="42.440742" lon="2.461582">
        <ele>1296.981</ele>
        <time>2021-05-28T11:10:29Z</time>
      </trkpt>
      <trkpt lat="42.440739" lon="2.461611">
        <ele>1297.619</ele>
        <time>2021-05-28T11:10:30Z</time>
      </trkpt>
      <trkpt lat="42.440741" lon="2.461635">
        <ele>1297.808</ele>
        <time>2021-05-28T11:10:31Z</time>
      </trkpt>
      <trkpt lat="42.440753" lon="2.461656">
        <ele>1297.596</ele>
        <time>2021-05-28T11:10:32Z</time>
      </trkpt>
      <trkpt lat="42.440765" lon="2.461677">
        <ele>1297.053</ele>
        <time>2021-05-28T11:10:33Z</time>
      </trkpt>
      <trkpt lat="42.440813" lon="2.461783">
        <ele>1295.134</ele>
        <time>2021-05-28T11:10:38Z</time>
      </trkpt>
      <trkpt lat="42.440865" lon="2.461906">
        <ele>1292.633</ele>
        <time>2021-05-28T11:10:43Z</time>
      </trkpt>
      <trkpt lat="42.440906" lon="2.462020">
        <ele>1291.620</ele>
        <time>2021-05-28T11:10:48Z</time>
      </trkpt>
      <trkpt lat="42.440919" lon="2.462149">
        <ele>1292.995</ele>
        <time>2021-05-28T11:10:53Z</time>
      </trkpt>
      <trkpt lat="42.440964" lon="2.462277">
        <ele>1292.122</ele>
        <time>2021-05-28T11:10:58Z</time>
      </trkpt>
      <trkpt lat="42.440990" lon="2.462395">
        <ele>1292.770</ele>
        <time>2021-05-28T11:11:02Z</time>
      </trkpt>
      <trkpt lat="42.441038" lon="2.462522">
        <ele>1292.259</ele>
        <time>2021-05-28T11:11:08Z</time>
      </trkpt>
      <trkpt lat="42.441109" lon="2.462599">
        <ele>1289.603</ele>
        <time>2021-05-28T11:11:12Z</time>
      </trkpt>
      <trkpt lat="42.441177" lon="2.462698">
        <ele>1287.223</ele>
        <time>2021-05-28T11:11:17Z</time>
      </trkpt>
      <trkpt lat="42.441241" lon="2.462795">
        <ele>1285.008</ele>
        <time>2021-05-28T11:11:21Z</time>
      </trkpt>
      <trkpt lat="42.441300" lon="2.462893">
        <ele>1283.312</ele>
        <time>2021-05-28T11:11:26Z</time>
      </trkpt>
      <trkpt lat="42.441341" lon="2.463017">
        <ele>1283.969</ele>
        <time>2021-05-28T11:11:31Z</time>
      </trkpt>
      <trkpt lat="42.441389" lon="2.463134">
        <ele>1284.030</ele>
        <time>2021-05-28T11:11:36Z</time>
      </trkpt>
      <trkpt lat="42.441386" lon="2.463263">
        <ele>1287.439</ele>
        <time>2021-05-28T11:11:41Z</time>
      </trkpt>
      <trkpt lat="42.441427" lon="2.463400">
        <ele>1289.596</ele>
        <time>2021-05-28T11:11:47Z</time>
      </trkpt>
      <trkpt lat="42.441493" lon="2.463498">
        <ele>1290.131</ele>
        <time>2021-05-28T11:11:52Z</time>
      </trkpt>
      <trkpt lat="42.441553" lon="2.463602">
        <ele>1291.568</ele>
        <time>2021-05-28T11:12:02Z</time>
      </trkpt>
      <trkpt lat="42.441621" lon="2.463700">
        <ele>1293.546</ele>
        <time>2021-05-28T11:12:13Z</time>
      </trkpt>
      <trkpt lat="42.441700" lon="2.463789">
        <ele>1294.496</ele>
        <time>2021-05-28T11:12:25Z</time>
      </trkpt>
      <trkpt lat="42.441764" lon="2.463878">
        <ele>1295.931</ele>
        <time>2021-05-28T11:12:32Z</time>
      </trkpt>
      <trkpt lat="42.441847" lon="2.463955">
        <ele>1295.524</ele>
        <time>2021-05-28T11:12:41Z</time>
      </trkpt>
      <trkpt lat="42.441904" lon="2.464058">
        <ele>1297.308</ele>
        <time>2021-05-28T11:12:50Z</time>
      </trkpt>
      <trkpt lat="42.441985" lon="2.464126">
        <ele>1296.736</ele>
        <time>2021-05-28T11:12:57Z</time>
      </trkpt>
      <trkpt lat="42.442055" lon="2.464208">
        <ele>1297.013</ele>
        <time>2021-05-28T11:13:07Z</time>
      </trkpt>
      <trkpt lat="42.442132" lon="2.464283">
        <ele>1296.284</ele>
        <time>2021-05-28T11:13:18Z</time>
      </trkpt>
      <trkpt lat="42.442212" lon="2.464359">
        <ele>1295.083</ele>
        <time>2021-05-28T11:13:25Z</time>
      </trkpt>
      <trkpt lat="42.442295" lon="2.464427">
        <ele>1293.980</ele>
        <time>2021-05-28T11:13:31Z</time>
      </trkpt>
      <trkpt lat="42.442372" lon="2.464491">
        <ele>1292.715</ele>
        <time>2021-05-28T11:13:39Z</time>
      </trkpt>
      <trkpt lat="42.442397" lon="2.464616">
        <ele>1294.532</ele>
        <time>2021-05-28T11:13:47Z</time>
      </trkpt>
      <trkpt lat="42.442432" lon="2.464740">
        <ele>1295.590</ele>
        <time>2021-05-28T11:13:53Z</time>
      </trkpt>
      <trkpt lat="42.442481" lon="2.464873">
        <ele>1295.188</ele>
        <time>2021-05-28T11:13:58Z</time>
      </trkpt>
      <trkpt lat="42.442541" lon="2.464989">
        <ele>1293.824</ele>
        <time>2021-05-28T11:14:02Z</time>
      </trkpt>
      <trkpt lat="42.442585" lon="2.465138">
        <ele>1292.826</ele>
        <time>2021-05-28T11:14:08Z</time>
      </trkpt>
      <trkpt lat="42.442642" lon="2.465270">
        <ele>1290.308</ele>
        <time>2021-05-28T11:14:12Z</time>
      </trkpt>
      <trkpt lat="42.442677" lon="2.465390">
        <ele>1290.195</ele>
        <time>2021-05-28T11:14:17Z</time>
      </trkpt>
      <trkpt lat="42.442653" lon="2.465509">
        <ele>1293.252</ele>
        <time>2021-05-28T11:14:22Z</time>
      </trkpt>
      <trkpt lat="42.442677" lon="2.465636">
        <ele>1294.933</ele>
        <time>2021-05-28T11:14:28Z</time>
      </trkpt>
      <trkpt lat="42.442672" lon="2.465765">
        <ele>1298.072</ele>
        <time>2021-05-28T11:14:34Z</time>
      </trkpt>
      <trkpt lat="42.442627" lon="2.465885">
        <ele>1301.129</ele>
        <time>2021-05-28T11:14:43Z</time>
      </trkpt>
      <trkpt lat="42.442728" lon="2.465868">
        <ele>1301.094</ele>
        <time>2021-05-28T11:15:17Z</time>
      </trkpt>
      <trkpt lat="42.442812" lon="2.465802">
        <ele>1298.821</ele>
        <time>2021-05-28T11:15:23Z</time>
      </trkpt>
      <trkpt lat="42.442922" lon="2.465802">
        <ele>1298.879</ele>
        <time>2021-05-28T11:15:30Z</time>
      </trkpt>
      <trkpt lat="42.443017" lon="2.465822">
        <ele>1299.637</ele>
        <time>2021-05-28T11:15:39Z</time>
      </trkpt>
      <trkpt lat="42.443104" lon="2.465870">
        <ele>1300.049</ele>
        <time>2021-05-28T11:15:44Z</time>
      </trkpt>
      <trkpt lat="42.443192" lon="2.465903">
        <ele>1298.813</ele>
        <time>2021-05-28T11:15:55Z</time>
      </trkpt>
      <trkpt lat="42.443280" lon="2.465943">
        <ele>1297.908</ele>
        <time>2021-05-28T11:16:00Z</time>
      </trkpt>
      <trkpt lat="42.443353" lon="2.466016">
        <ele>1298.940</ele>
        <time>2021-05-28T11:16:05Z</time>
      </trkpt>
      <trkpt lat="42.443400" lon="2.466122">
        <ele>1301.977</ele>
        <time>2021-05-28T11:16:14Z</time>
      </trkpt>
      <trkpt lat="42.443459" lon="2.466219">
        <ele>1304.128</ele>
        <time>2021-05-28T11:16:19Z</time>
      </trkpt>
      <trkpt lat="42.443539" lon="2.466161">
        <ele>1301.757</ele>
        <time>2021-05-28T11:16:29Z</time>
      </trkpt>
      <trkpt lat="42.443637" lon="2.466148">
        <ele>1302.574</ele>
        <time>2021-05-28T11:16:37Z</time>
      </trkpt>
      <trkpt lat="42.443541" lon="2.466203">
        <ele>1302.669</ele>
        <time>2021-05-28T11:16:49Z</time>
      </trkpt>
      <trkpt lat="42.443578" lon="2.466092">
        <ele>1299.946</ele>
        <time>2021-05-28T11:16:59Z</time>
      </trkpt>
      <trkpt lat="42.443604" lon="2.465963">
        <ele>1297.814</ele>
        <time>2021-05-28T11:17:04Z</time>
      </trkpt>
      <trkpt lat="42.443664" lon="2.465861">
        <ele>1299.913</ele>
        <time>2021-05-28T11:17:10Z</time>
      </trkpt>
      <trkpt lat="42.443715" lon="2.465753">
        <ele>1301.143</ele>
        <time>2021-05-28T11:17:17Z</time>
      </trkpt>
      <trkpt lat="42.443754" lon="2.465635">
        <ele>1301.007</ele>
        <time>2021-05-28T11:17:24Z</time>
      </trkpt>
      <trkpt lat="42.443776" lon="2.465494">
        <ele>1299.008</ele>
        <time>2021-05-28T11:17:29Z</time>
      </trkpt>
      <trkpt lat="42.443832" lon="2.465390">
        <ele>1299.748</ele>
        <time>2021-05-28T11:17:35Z</time>
      </trkpt>
      <trkpt lat="42.443878" lon="2.465276">
        <ele>1299.485</ele>
        <time>2021-05-28T11:17:40Z</time>
      </trkpt>
      <trkpt lat="42.443949" lon="2.465176">
        <ele>1299.556</ele>
        <time>2021-05-28T11:17:46Z</time>
      </trkpt>
      <trkpt lat="42.444005" lon="2.465055">
        <ele>1297.915</ele>
        <time>2021-05-28T11:17:53Z</time>
      </trkpt>
      <trkpt lat="42.444108" lon="2.465022">
        <ele>1300.632</ele>
        <time>2021-05-28T11:18:00Z</time>
      </trkpt>
      <trkpt lat="42.444191" lon="2.464955">
        <ele>1300.467</ele>
        <time>2021-05-28T11:18:08Z</time>
      </trkpt>
      <trkpt lat="42.444287" lon="2.464934">
        <ele>1301.064</ele>
        <time>2021-05-28T11:18:20Z</time>
      </trkpt>
      <trkpt lat="42.444385" lon="2.464927">
        <ele>1302.212</ele>
        <time>2021-05-28T11:18:24Z</time>
      </trkpt>
      <trkpt lat="42.444474" lon="2.464904">
        <ele>1302.545</ele>
        <time>2021-05-28T11:18:30Z</time>
      </trkpt>
      <trkpt lat="42.444587" lon="2.464854">
        <ele>1301.847</ele>
        <time>2021-05-28T11:18:36Z</time>
      </trkpt>
      <trkpt lat="42.444688" lon="2.464824">
        <ele>1301.711</ele>
        <time>2021-05-28T11:18:40Z</time>
      </trkpt>
      <trkpt lat="42.444767" lon="2.464762">
        <ele>1300.008</ele>
        <time>2021-05-28T11:18:45Z</time>
      </trkpt>
      <trkpt lat="42.444857" lon="2.464716">
        <ele>1299.341</ele>
        <time>2021-05-28T11:18:53Z</time>
      </trkpt>
      <trkpt lat="42.444963" lon="2.464707">
        <ele>1300.148</ele>
        <time>2021-05-28T11:19:00Z</time>
      </trkpt>
      <trkpt lat="42.445062" lon="2.464674">
        <ele>1299.879</ele>
        <time>2021-05-28T11:19:05Z</time>
      </trkpt>
      <trkpt lat="42.445161" lon="2.464694">
        <ele>1301.138</ele>
        <time>2021-05-28T11:19:12Z</time>
      </trkpt>
      <trkpt lat="42.445231" lon="2.464772">
        <ele>1303.935</ele>
        <time>2021-05-28T11:19:20Z</time>
      </trkpt>
      <trkpt lat="42.445322" lon="2.464775">
        <ele>1303.240</ele>
        <time>2021-05-28T11:19:29Z</time>
      </trkpt>
      <trkpt lat="42.445397" lon="2.464878">
        <ele>1303.967</ele>
        <time>2021-05-28T11:19:43Z</time>
      </trkpt>
      <trkpt lat="42.445427" lon="2.465001">
        <ele>1306.385</ele>
        <time>2021-05-28T11:19:50Z</time>
      </trkpt>
      <trkpt lat="42.445422" lon="2.465132">
        <ele>1309.284</ele>
        <time>2021-05-28T11:19:58Z</time>
      </trkpt>
      <trkpt lat="42.445465" lon="2.465249">
        <ele>1310.707</ele>
        <time>2021-05-28T11:20:06Z</time>
      </trkpt>
      <trkpt lat="42.445498" lon="2.465374">
        <ele>1311.417</ele>
        <time>2021-05-28T11:20:15Z</time>
      </trkpt>
      <trkpt lat="42.445564" lon="2.465471">
        <ele>1309.408</ele>
        <time>2021-05-28T11:20:23Z</time>
      </trkpt>
      <trkpt lat="42.445589" lon="2.465598">
        <ele>1310.865</ele>
        <time>2021-05-28T11:20:30Z</time>
      </trkpt>
      <trkpt lat="42.445598" lon="2.465721">
        <ele>1315.582</ele>
        <time>2021-05-28T11:20:38Z</time>
      </trkpt>
      <trkpt lat="42.445656" lon="2.465830">
        <ele>1318.363</ele>
        <time>2021-05-28T11:20:43Z</time>
      </trkpt>
      <trkpt lat="42.445724" lon="2.465923">
        <ele>1319.992</ele>
        <time>2021-05-28T11:20:49Z</time>
      </trkpt>
      <trkpt lat="42.445806" lon="2.465989">
        <ele>1319.859</ele>
        <time>2021-05-28T11:20:56Z</time>
      </trkpt>
      <trkpt lat="42.445891" lon="2.466045">
        <ele>1323.894</ele>
        <time>2021-05-28T11:21:00Z</time>
      </trkpt>
      <trkpt lat="42.445952" lon="2.466148">
        <ele>1330.491</ele>
        <time>2021-05-28T11:21:13Z</time>
      </trkpt>
      <trkpt lat="42.446048" lon="2.466182">
        <ele>1336.449</ele>
        <time>2021-05-28T11:21:25Z</time>
      </trkpt>
      <trkpt lat="42.446033" lon="2.466060">
        <ele>1331.764</ele>
        <time>2021-05-28T11:21:45Z</time>
      </trkpt>
      <trkpt lat="42.446069" lon="2.465943">
        <ele>1328.706</ele>
        <time>2021-05-28T11:21:55Z</time>
      </trkpt>
      <trkpt lat="42.446168" lon="2.465966">
        <ele>1331.216</ele>
        <time>2021-05-28T11:22:07Z</time>
      </trkpt>
      <trkpt lat="42.446233" lon="2.466070">
        <ele>1335.308</ele>
        <time>2021-05-28T11:22:32Z</time>
      </trkpt>
      <trkpt lat="42.446323" lon="2.466036">
        <ele>1333.043</ele>
        <time>2021-05-28T11:22:44Z</time>
      </trkpt>
      <trkpt lat="42.446344" lon="2.466158">
        <ele>1338.560</ele>
        <time>2021-05-28T11:22:56Z</time>
      </trkpt>
      <trkpt lat="42.446269" lon="2.466236">
        <ele>1341.851</ele>
        <time>2021-05-28T11:23:12Z</time>
      </trkpt>
      <trkpt lat="42.446305" lon="2.466348">
        <ele>1346.750</ele>
        <time>2021-05-28T11:23:29Z</time>
      </trkpt>
      <trkpt lat="42.446387" lon="2.466425">
        <ele>1351.417</ele>
        <time>2021-05-28T11:23:41Z</time>
      </trkpt>
      <trkpt lat="42.446477" lon="2.466456">
        <ele>1348.912</ele>
        <time>2021-05-28T11:23:48Z</time>
      </trkpt>
      <trkpt lat="42.446569" lon="2.466491">
        <ele>1346.329</ele>
        <time>2021-05-28T11:23:56Z</time>
      </trkpt>
      <trkpt lat="42.446628" lon="2.466608">
        <ele>1348.327</ele>
        <time>2021-05-28T11:24:03Z</time>
      </trkpt>
      <trkpt lat="42.446697" lon="2.466689">
        <ele>1348.324</ele>
        <time>2021-05-28T11:24:08Z</time>
      </trkpt>
      <trkpt lat="42.446773" lon="2.466790">
        <ele>1348.504</ele>
        <time>2021-05-28T11:24:16Z</time>
      </trkpt>
      <trkpt lat="42.446824" lon="2.466905">
        <ele>1350.914</ele>
        <time>2021-05-28T11:24:22Z</time>
      </trkpt>
      <trkpt lat="42.446908" lon="2.466983">
        <ele>1350.608</ele>
        <time>2021-05-28T11:24:30Z</time>
      </trkpt>
      <trkpt lat="42.446976" lon="2.467090">
        <ele>1354.149</ele>
        <time>2021-05-28T11:24:38Z</time>
      </trkpt>
      <trkpt lat="42.447054" lon="2.467167">
        <ele>1356.566</ele>
        <time>2021-05-28T11:24:53Z</time>
      </trkpt>
      <trkpt lat="42.447148" lon="2.467087">
        <ele>1352.667</ele>
        <time>2021-05-28T11:25:08Z</time>
      </trkpt>
      <trkpt lat="42.447226" lon="2.467000">
        <ele>1350.486</ele>
        <time>2021-05-28T11:25:13Z</time>
      </trkpt>
      <trkpt lat="42.447273" lon="2.466888">
        <ele>1351.553</ele>
        <time>2021-05-28T11:25:23Z</time>
      </trkpt>
      <trkpt lat="42.447337" lon="2.466793">
        <ele>1353.588</ele>
        <time>2021-05-28T11:25:34Z</time>
      </trkpt>
      <trkpt lat="42.447434" lon="2.466759">
        <ele>1357.775</ele>
        <time>2021-05-28T11:25:40Z</time>
      </trkpt>
      <trkpt lat="42.447514" lon="2.466703">
        <ele>1358.963</ele>
        <time>2021-05-28T11:25:44Z</time>
      </trkpt>
      <trkpt lat="42.447609" lon="2.466659">
        <ele>1355.462</ele>
        <time>2021-05-28T11:25:49Z</time>
      </trkpt>
      <trkpt lat="42.447700" lon="2.466723">
        <ele>1355.983</ele>
        <time>2021-05-28T11:25:56Z</time>
      </trkpt>
      <trkpt lat="42.447799" lon="2.466733">
        <ele>1355.811</ele>
        <time>2021-05-28T11:26:05Z</time>
      </trkpt>
      <trkpt lat="42.447891" lon="2.466721">
        <ele>1359.208</ele>
        <time>2021-05-28T11:26:30Z</time>
      </trkpt>
      <trkpt lat="42.447984" lon="2.466761">
        <ele>1364.523</ele>
        <time>2021-05-28T11:26:37Z</time>
      </trkpt>
      <trkpt lat="42.448046" lon="2.466672">
        <ele>1364.730</ele>
        <time>2021-05-28T11:26:59Z</time>
      </trkpt>
      <trkpt lat="42.448085" lon="2.466553">
        <ele>1364.611</ele>
        <time>2021-05-28T11:27:22Z</time>
      </trkpt>
      <trkpt lat="42.448093" lon="2.466422">
        <ele>1362.560</ele>
        <time>2021-05-28T11:27:31Z</time>
      </trkpt>
      <trkpt lat="42.448181" lon="2.466383">
        <ele>1366.297</ele>
        <time>2021-05-28T11:27:45Z</time>
      </trkpt>
      <trkpt lat="42.448260" lon="2.466308">
        <ele>1368.212</ele>
        <time>2021-05-28T11:27:56Z</time>
      </trkpt>
      <trkpt lat="42.448325" lon="2.466220">
        <ele>1368.889</ele>
        <time>2021-05-28T11:28:01Z</time>
      </trkpt>
      <trkpt lat="42.448419" lon="2.466167">
        <ele>1370.327</ele>
        <time>2021-05-28T11:28:12Z</time>
      </trkpt>
      <trkpt lat="42.448513" lon="2.466190">
        <ele>1374.087</ele>
        <time>2021-05-28T11:28:21Z</time>
      </trkpt>
      <trkpt lat="42.448618" lon="2.466175">
        <ele>1376.642</ele>
        <time>2021-05-28T11:28:28Z</time>
      </trkpt>
      <trkpt lat="42.448700" lon="2.466114">
        <ele>1375.726</ele>
        <time>2021-05-28T11:28:33Z</time>
      </trkpt>
      <trkpt lat="42.448796" lon="2.466118">
        <ele>1377.608</ele>
        <time>2021-05-28T11:28:42Z</time>
      </trkpt>
      <trkpt lat="42.448889" lon="2.466120">
        <ele>1379.375</ele>
        <time>2021-05-28T11:28:53Z</time>
      </trkpt>
      <trkpt lat="42.448985" lon="2.466123">
        <ele>1379.782</ele>
        <time>2021-05-28T11:29:00Z</time>
      </trkpt>
      <trkpt lat="42.449063" lon="2.466190">
        <ele>1382.213</ele>
        <time>2021-05-28T11:29:08Z</time>
      </trkpt>
      <trkpt lat="42.449153" lon="2.466223">
        <ele>1383.652</ele>
        <time>2021-05-28T11:29:21Z</time>
      </trkpt>
      <trkpt lat="42.449234" lon="2.466289">
        <ele>1384.579</ele>
        <time>2021-05-28T11:29:27Z</time>
      </trkpt>
      <trkpt lat="42.449307" lon="2.466362">
        <ele>1386.024</ele>
        <time>2021-05-28T11:29:34Z</time>
      </trkpt>
      <trkpt lat="42.449214" lon="2.466373">
        <ele>1387.811</ele>
        <time>2021-05-28T11:29:45Z</time>
      </trkpt>
      <trkpt lat="42.449133" lon="2.466427">
        <ele>1390.159</ele>
        <time>2021-05-28T11:29:53Z</time>
      </trkpt>
      <trkpt lat="42.449044" lon="2.466457">
        <ele>1390.825</ele>
        <time>2021-05-28T11:29:59Z</time>
      </trkpt>
      <trkpt lat="42.448956" lon="2.466522">
        <ele>1392.626</ele>
        <time>2021-05-28T11:30:05Z</time>
      </trkpt>
      <trkpt lat="42.449040" lon="2.466606">
        <ele>1395.608</ele>
        <time>2021-05-28T11:30:15Z</time>
      </trkpt>
      <trkpt lat="42.449133" lon="2.466642">
        <ele>1397.108</ele>
        <time>2021-05-28T11:30:23Z</time>
      </trkpt>
      <trkpt lat="42.449215" lon="2.466707">
        <ele>1399.719</ele>
        <time>2021-05-28T11:30:32Z</time>
      </trkpt>
      <trkpt lat="42.449302" lon="2.466741">
        <ele>1401.096</ele>
        <time>2021-05-28T11:30:41Z</time>
      </trkpt>
      <trkpt lat="42.449389" lon="2.466773">
        <ele>1402.097</ele>
        <time>2021-05-28T11:30:47Z</time>
      </trkpt>
      <trkpt lat="42.449479" lon="2.466809">
        <ele>1402.766</ele>
        <time>2021-05-28T11:30:56Z</time>
      </trkpt>
      <trkpt lat="42.449564" lon="2.466854">
        <ele>1403.533</ele>
        <time>2021-05-28T11:31:06Z</time>
      </trkpt>
      <trkpt lat="42.449658" lon="2.466882">
        <ele>1403.758</ele>
        <time>2021-05-28T11:31:13Z</time>
      </trkpt>
      <trkpt lat="42.449747" lon="2.466909">
        <ele>1404.355</ele>
        <time>2021-05-28T11:31:20Z</time>
      </trkpt>
      <trkpt lat="42.449836" lon="2.466925">
        <ele>1405.133</ele>
        <time>2021-05-28T11:31:30Z</time>
      </trkpt>
      <trkpt lat="42.449928" lon="2.466969">
        <ele>1407.176</ele>
        <time>2021-05-28T11:31:38Z</time>
      </trkpt>
      <trkpt lat="42.450022" lon="2.466979">
        <ele>1407.890</ele>
        <time>2021-05-28T11:31:47Z</time>
      </trkpt>
      <trkpt lat="42.450120" lon="2.467015">
        <ele>1410.119</ele>
        <time>2021-05-28T11:31:54Z</time>
      </trkpt>
      <trkpt lat="42.450212" lon="2.467074">
        <ele>1413.208</ele>
        <time>2021-05-28T11:32:02Z</time>
      </trkpt>
      <trkpt lat="42.450315" lon="2.467079">
        <ele>1414.184</ele>
        <time>2021-05-28T11:32:10Z</time>
      </trkpt>
      <trkpt lat="42.450412" lon="2.467040">
        <ele>1413.351</ele>
        <time>2021-05-28T11:32:18Z</time>
      </trkpt>
      <trkpt lat="42.450500" lon="2.467080">
        <ele>1415.832</ele>
        <time>2021-05-28T11:32:27Z</time>
      </trkpt>
      <trkpt lat="42.450591" lon="2.467100">
        <ele>1417.621</ele>
        <time>2021-05-28T11:32:34Z</time>
      </trkpt>
      <trkpt lat="42.450690" lon="2.467112">
        <ele>1419.298</ele>
        <time>2021-05-28T11:32:41Z</time>
      </trkpt>
      <trkpt lat="42.450787" lon="2.467126">
        <ele>1420.743</ele>
        <time>2021-05-28T11:32:47Z</time>
      </trkpt>
      <trkpt lat="42.450877" lon="2.467152">
        <ele>1422.780</ele>
        <time>2021-05-28T11:32:54Z</time>
      </trkpt>
      <trkpt lat="42.450979" lon="2.467119">
        <ele>1422.528</ele>
        <time>2021-05-28T11:33:09Z</time>
      </trkpt>
      <trkpt lat="42.451081" lon="2.467089">
        <ele>1422.442</ele>
        <time>2021-05-28T11:33:22Z</time>
      </trkpt>
      <trkpt lat="42.451178" lon="2.467089">
        <ele>1423.922</ele>
        <time>2021-05-28T11:33:29Z</time>
      </trkpt>
      <trkpt lat="42.451275" lon="2.467044">
        <ele>1423.914</ele>
        <time>2021-05-28T11:33:41Z</time>
      </trkpt>
      <trkpt lat="42.451373" lon="2.467020">
        <ele>1424.708</ele>
        <time>2021-05-28T11:33:50Z</time>
      </trkpt>
      <trkpt lat="42.451464" lon="2.467042">
        <ele>1427.261</ele>
        <time>2021-05-28T11:34:02Z</time>
      </trkpt>
      <trkpt lat="42.451559" lon="2.467038">
        <ele>1428.848</ele>
        <time>2021-05-28T11:34:12Z</time>
      </trkpt>
      <trkpt lat="42.451648" lon="2.467081">
        <ele>1432.129</ele>
        <time>2021-05-28T11:34:16Z</time>
      </trkpt>
      <trkpt lat="42.451733" lon="2.467124">
        <ele>1435.698</ele>
        <time>2021-05-28T11:34:22Z</time>
      </trkpt>
      <trkpt lat="42.451825" lon="2.467122">
        <ele>1437.645</ele>
        <time>2021-05-28T11:34:32Z</time>
      </trkpt>
      <trkpt lat="42.451912" lon="2.467087">
        <ele>1438.030</ele>
        <time>2021-05-28T11:34:42Z</time>
      </trkpt>
      <trkpt lat="42.452006" lon="2.467063">
        <ele>1438.967</ele>
        <time>2021-05-28T11:34:53Z</time>
      </trkpt>
      <trkpt lat="42.452104" lon="2.467087">
        <ele>1442.145</ele>
        <time>2021-05-28T11:35:02Z</time>
      </trkpt>
      <trkpt lat="42.452197" lon="2.467092">
        <ele>1444.493</ele>
        <time>2021-05-28T11:35:11Z</time>
      </trkpt>
      <trkpt lat="42.452295" lon="2.467087">
        <ele>1445.865</ele>
        <time>2021-05-28T11:35:25Z</time>
      </trkpt>
      <trkpt lat="42.452390" lon="2.467061">
        <ele>1446.221</ele>
        <time>2021-05-28T11:35:34Z</time>
      </trkpt>
      <trkpt lat="42.452488" lon="2.467073">
        <ele>1448.408</ele>
        <time>2021-05-28T11:35:44Z</time>
      </trkpt>
      <trkpt lat="42.452578" lon="2.467087">
        <ele>1450.076</ele>
        <time>2021-05-28T11:35:53Z</time>
      </trkpt>
      <trkpt lat="42.452668" lon="2.467069">
        <ele>1450.393</ele>
        <time>2021-05-28T11:36:03Z</time>
      </trkpt>
      <trkpt lat="42.452737" lon="2.467153">
        <ele>1454.144</ele>
        <time>2021-05-28T11:36:25Z</time>
      </trkpt>
      <trkpt lat="42.452723" lon="2.467171">
        <ele>1454.733</ele>
        <time>2021-05-28T11:36:37Z</time>
      </trkpt>
      <trkpt lat="42.452790" lon="2.467074">
        <ele>1452.010</ele>
        <time>2021-05-28T11:37:13Z</time>
      </trkpt>
      <trkpt lat="42.452877" lon="2.467012">
        <ele>1452.495</ele>
        <time>2021-05-28T11:37:19Z</time>
      </trkpt>
      <trkpt lat="42.452949" lon="2.466938">
        <ele>1451.772</ele>
        <time>2021-05-28T11:37:31Z</time>
      </trkpt>
      <trkpt lat="42.453038" lon="2.466887">
        <ele>1452.820</ele>
        <time>2021-05-28T11:37:41Z</time>
      </trkpt>
      <trkpt lat="42.453130" lon="2.466872">
        <ele>1455.377</ele>
        <time>2021-05-28T11:37:49Z</time>
      </trkpt>
      <trkpt lat="42.453208" lon="2.466934">
        <ele>1459.661</ele>
        <time>2021-05-28T11:37:56Z</time>
      </trkpt>
      <trkpt lat="42.453302" lon="2.466893">
        <ele>1461.327</ele>
        <time>2021-05-28T11:38:04Z</time>
      </trkpt>
      <trkpt lat="42.453379" lon="2.466810">
        <ele>1459.708</ele>
        <time>2021-05-28T11:38:12Z</time>
      </trkpt>
      <trkpt lat="42.453471" lon="2.466775">
        <ele>1458.874</ele>
        <time>2021-05-28T11:38:21Z</time>
      </trkpt>
      <trkpt lat="42.453550" lon="2.466851">
        <ele>1461.241</ele>
        <time>2021-05-28T11:38:27Z</time>
      </trkpt>
      <trkpt lat="42.453616" lon="2.466935">
        <ele>1464.032</ele>
        <time>2021-05-28T11:38:36Z</time>
      </trkpt>
      <trkpt lat="42.453682" lon="2.467029">
        <ele>1470.231</ele>
        <time>2021-05-28T11:38:47Z</time>
      </trkpt>
      <trkpt lat="42.453738" lon="2.467130">
        <ele>1474.958</ele>
        <time>2021-05-28T11:38:55Z</time>
      </trkpt>
      <trkpt lat="42.453781" lon="2.467019">
        <ele>1473.593</ele>
        <time>2021-05-28T11:39:14Z</time>
      </trkpt>
      <trkpt lat="42.453782" lon="2.466871">
        <ele>1471.080</ele>
        <time>2021-05-28T11:39:27Z</time>
      </trkpt>
      <trkpt lat="42.453806" lon="2.466752">
        <ele>1471.038</ele>
        <time>2021-05-28T11:39:37Z</time>
      </trkpt>
      <trkpt lat="42.453830" lon="2.466630">
        <ele>1471.719</ele>
        <time>2021-05-28T11:39:44Z</time>
      </trkpt>
      <trkpt lat="42.453906" lon="2.466546">
        <ele>1476.709</ele>
        <time>2021-05-28T11:39:51Z</time>
      </trkpt>
      <trkpt lat="42.453955" lon="2.466442">
        <ele>1479.419</ele>
        <time>2021-05-28T11:40:00Z</time>
      </trkpt>
      <trkpt lat="42.453966" lon="2.466318">
        <ele>1478.608</ele>
        <time>2021-05-28T11:40:12Z</time>
      </trkpt>
      <trkpt lat="42.454061" lon="2.466271">
        <ele>1483.688</ele>
        <time>2021-05-28T11:40:20Z</time>
      </trkpt>
      <trkpt lat="42.454151" lon="2.466254">
        <ele>1488.685</ele>
        <time>2021-05-28T11:40:31Z</time>
      </trkpt>
      <trkpt lat="42.454233" lon="2.466192">
        <ele>1491.816</ele>
        <time>2021-05-28T11:40:44Z</time>
      </trkpt>
      <trkpt lat="42.454310" lon="2.466121">
        <ele>1493.915</ele>
        <time>2021-05-28T11:40:56Z</time>
      </trkpt>
      <trkpt lat="42.454399" lon="2.466070">
        <ele>1496.392</ele>
        <time>2021-05-28T11:41:14Z</time>
      </trkpt>
      <trkpt lat="42.454487" lon="2.466018">
        <ele>1497.747</ele>
        <time>2021-05-28T11:41:24Z</time>
      </trkpt>
      <trkpt lat="42.454580" lon="2.466007">
        <ele>1500.444</ele>
        <time>2021-05-28T11:41:37Z</time>
      </trkpt>
      <trkpt lat="42.454682" lon="2.465981">
        <ele>1502.652</ele>
        <time>2021-05-28T11:41:47Z</time>
      </trkpt>
      <trkpt lat="42.454783" lon="2.466001">
        <ele>1505.966</ele>
        <time>2021-05-28T11:41:54Z</time>
      </trkpt>
      <trkpt lat="42.454876" lon="2.465965">
        <ele>1506.029</ele>
        <time>2021-05-28T11:42:04Z</time>
      </trkpt>
      <trkpt lat="42.454966" lon="2.465943">
        <ele>1506.721</ele>
        <time>2021-05-28T11:42:13Z</time>
      </trkpt>
      <trkpt lat="42.455053" lon="2.465898">
        <ele>1506.508</ele>
        <time>2021-05-28T11:42:21Z</time>
      </trkpt>
      <trkpt lat="42.455162" lon="2.465915">
        <ele>1509.233</ele>
        <time>2021-05-28T11:42:30Z</time>
      </trkpt>
      <trkpt lat="42.455252" lon="2.465921">
        <ele>1511.010</ele>
        <time>2021-05-28T11:42:40Z</time>
      </trkpt>
      <trkpt lat="42.455353" lon="2.465934">
        <ele>1514.181</ele>
        <time>2021-05-28T11:42:59Z</time>
      </trkpt>
      <trkpt lat="42.455431" lon="2.466000">
        <ele>1518.750</ele>
        <time>2021-05-28T11:43:08Z</time>
      </trkpt>
      <trkpt lat="42.455521" lon="2.466030">
        <ele>1522.217</ele>
        <time>2021-05-28T11:43:20Z</time>
      </trkpt>
      <trkpt lat="42.455598" lon="2.465966">
        <ele>1522.272</ele>
        <time>2021-05-28T11:43:31Z</time>
      </trkpt>
      <trkpt lat="42.455694" lon="2.465913">
        <ele>1523.449</ele>
        <time>2021-05-28T11:43:42Z</time>
      </trkpt>
      <trkpt lat="42.455781" lon="2.465886">
        <ele>1525.217</ele>
        <time>2021-05-28T11:43:52Z</time>
      </trkpt>
      <trkpt lat="42.455854" lon="2.465813">
        <ele>1525.269</ele>
        <time>2021-05-28T11:44:01Z</time>
      </trkpt>
      <trkpt lat="42.455946" lon="2.465789">
        <ele>1527.804</ele>
        <time>2021-05-28T11:44:07Z</time>
      </trkpt>
      <trkpt lat="42.456038" lon="2.465802">
        <ele>1531.524</ele>
        <time>2021-05-28T11:44:20Z</time>
      </trkpt>
      <trkpt lat="42.456118" lon="2.465743">
        <ele>1533.008</ele>
        <time>2021-05-28T11:44:34Z</time>
      </trkpt>
      <trkpt lat="42.456205" lon="2.465697">
        <ele>1535.193</ele>
        <time>2021-05-28T11:44:43Z</time>
      </trkpt>
      <trkpt lat="42.456289" lon="2.465626">
        <ele>1536.340</ele>
        <time>2021-05-28T11:44:53Z</time>
      </trkpt>
      <trkpt lat="42.456338" lon="2.465523">
        <ele>1535.211</ele>
        <time>2021-05-28T11:45:03Z</time>
      </trkpt>
      <trkpt lat="42.456428" lon="2.465462">
        <ele>1536.640</ele>
        <time>2021-05-28T11:45:11Z</time>
      </trkpt>
      <trkpt lat="42.456522" lon="2.465476">
        <ele>1540.167</ele>
        <time>2021-05-28T11:45:24Z</time>
      </trkpt>
      <trkpt lat="42.456613" lon="2.465408">
        <ele>1540.512</ele>
        <time>2021-05-28T11:45:33Z</time>
      </trkpt>
      <trkpt lat="42.456714" lon="2.465404">
        <ele>1544.159</ele>
        <time>2021-05-28T11:45:39Z</time>
      </trkpt>
      <trkpt lat="42.456803" lon="2.465371">
        <ele>1546.727</ele>
        <time>2021-05-28T11:45:49Z</time>
      </trkpt>
      <trkpt lat="42.456890" lon="2.465324">
        <ele>1548.654</ele>
        <time>2021-05-28T11:45:56Z</time>
      </trkpt>
      <trkpt lat="42.456959" lon="2.465223">
        <ele>1548.056</ele>
        <time>2021-05-28T11:46:04Z</time>
      </trkpt>
      <trkpt lat="42.457021" lon="2.465134">
        <ele>1548.011</ele>
        <time>2021-05-28T11:46:14Z</time>
      </trkpt>
      <trkpt lat="42.456952" lon="2.465027">
        <ele>1542.108</ele>
        <time>2021-05-28T11:46:30Z</time>
      </trkpt>
      <trkpt lat="42.456968" lon="2.465148">
        <ele>1546.222</ele>
        <time>2021-05-28T11:47:44Z</time>
      </trkpt>
      <trkpt lat="42.456955" lon="2.465270">
        <ele>1549.249</ele>
        <time>2021-05-28T11:48:04Z</time>
      </trkpt>
      <trkpt lat="42.456994" lon="2.465246">
        <ele>1549.910</ele>
        <time>2021-05-28T11:48:09Z</time>
      </trkpt>
      <trkpt lat="42.456967" lon="2.465130">
        <ele>1545.749</ele>
        <time>2021-05-28T11:48:37Z</time>
      </trkpt>
      <trkpt lat="42.456907" lon="2.465058">
        <ele>1541.146</ele>
        <time>2021-05-28T11:48:51Z</time>
      </trkpt>
      <trkpt lat="42.456849" lon="2.464953">
        <ele>1538.781</ele>
        <time>2021-05-28T11:50:13Z</time>
      </trkpt>
      <trkpt lat="42.456822" lon="2.464829">
        <ele>1542.088</ele>
        <time>2021-05-28T11:50:28Z</time>
      </trkpt>
      <trkpt lat="42.456814" lon="2.464698">
        <ele>1546.596</ele>
        <time>2021-05-28T11:50:38Z</time>
      </trkpt>
      <trkpt lat="42.456773" lon="2.464586">
        <ele>1548.716</ele>
        <time>2021-05-28T11:50:51Z</time>
      </trkpt>
      <trkpt lat="42.456692" lon="2.464512">
        <ele>1546.976</ele>
        <time>2021-05-28T11:51:05Z</time>
      </trkpt>
      <trkpt lat="42.456645" lon="2.464402">
        <ele>1548.713</ele>
        <time>2021-05-28T11:51:15Z</time>
      </trkpt>
      <trkpt lat="42.456563" lon="2.464324">
        <ele>1548.408</ele>
        <time>2021-05-28T11:51:23Z</time>
      </trkpt>
      <trkpt lat="42.456507" lon="2.464219">
        <ele>1550.978</ele>
        <time>2021-05-28T11:51:32Z</time>
      </trkpt>
      <trkpt lat="42.456454" lon="2.464117">
        <ele>1553.095</ele>
        <time>2021-05-28T11:51:38Z</time>
      </trkpt>
      <trkpt lat="42.456422" lon="2.463997">
        <ele>1555.886</ele>
        <time>2021-05-28T11:51:48Z</time>
      </trkpt>
      <trkpt lat="42.456385" lon="2.463876">
        <ele>1558.355</ele>
        <time>2021-05-28T11:51:57Z</time>
      </trkpt>
      <trkpt lat="42.456341" lon="2.463769">
        <ele>1560.132</ele>
        <time>2021-05-28T11:52:12Z</time>
      </trkpt>
      <trkpt lat="42.456280" lon="2.463671">
        <ele>1560.727</ele>
        <time>2021-05-28T11:52:20Z</time>
      </trkpt>
      <trkpt lat="42.456241" lon="2.463555">
        <ele>1562.844</ele>
        <time>2021-05-28T11:52:31Z</time>
      </trkpt>
      <trkpt lat="42.456159" lon="2.463462">
        <ele>1561.692</ele>
        <time>2021-05-28T11:52:40Z</time>
      </trkpt>
      <trkpt lat="42.456106" lon="2.463349">
        <ele>1562.369</ele>
        <time>2021-05-28T11:52:48Z</time>
      </trkpt>
      <trkpt lat="42.456054" lon="2.463229">
        <ele>1563.904</ele>
        <time>2021-05-28T11:52:57Z</time>
      </trkpt>
      <trkpt lat="42.455986" lon="2.463125">
        <ele>1563.824</ele>
        <time>2021-05-28T11:53:04Z</time>
      </trkpt>
      <trkpt lat="42.455942" lon="2.463015">
        <ele>1564.508</ele>
        <time>2021-05-28T11:53:08Z</time>
      </trkpt>
      <trkpt lat="42.455933" lon="2.462890">
        <ele>1567.083</ele>
        <time>2021-05-28T11:53:16Z</time>
      </trkpt>
      <trkpt lat="42.455876" lon="2.462792">
        <ele>1566.190</ele>
        <time>2021-05-28T11:53:25Z</time>
      </trkpt>
      <trkpt lat="42.455889" lon="2.462666">
        <ele>1567.611</ele>
        <time>2021-05-28T11:53:35Z</time>
      </trkpt>
      <trkpt lat="42.455921" lon="2.462550">
        <ele>1569.980</ele>
        <time>2021-05-28T11:53:43Z</time>
      </trkpt>
      <trkpt lat="42.455963" lon="2.462435">
        <ele>1571.357</ele>
        <time>2021-05-28T11:53:53Z</time>
      </trkpt>
      <trkpt lat="42.456029" lon="2.462319">
        <ele>1572.742</ele>
        <time>2021-05-28T11:54:01Z</time>
      </trkpt>
      <trkpt lat="42.456093" lon="2.462222">
        <ele>1574.179</ele>
        <time>2021-05-28T11:54:09Z</time>
      </trkpt>
      <trkpt lat="42.456139" lon="2.462117">
        <ele>1573.767</ele>
        <time>2021-05-28T11:54:16Z</time>
      </trkpt>
      <trkpt lat="42.456188" lon="2.462003">
        <ele>1572.187</ele>
        <time>2021-05-28T11:54:25Z</time>
      </trkpt>
      <trkpt lat="42.456278" lon="2.462016">
        <ele>1572.642</ele>
        <time>2021-05-28T11:54:35Z</time>
      </trkpt>
      <trkpt lat="42.456377" lon="2.462040">
        <ele>1573.726</ele>
        <time>2021-05-28T11:54:41Z</time>
      </trkpt>
      <trkpt lat="42.456468" lon="2.462048">
        <ele>1574.608</ele>
        <time>2021-05-28T11:54:48Z</time>
      </trkpt>
      <trkpt lat="42.456558" lon="2.462049">
        <ele>1575.415</ele>
        <time>2021-05-28T11:54:53Z</time>
      </trkpt>
      <trkpt lat="42.456659" lon="2.462017">
        <ele>1574.662</ele>
        <time>2021-05-28T11:54:59Z</time>
      </trkpt>
      <trkpt lat="42.456750" lon="2.461993">
        <ele>1575.273</ele>
        <time>2021-05-28T11:55:05Z</time>
      </trkpt>
      <trkpt lat="42.456845" lon="2.461929">
        <ele>1574.192</ele>
        <time>2021-05-28T11:55:13Z</time>
      </trkpt>
      <trkpt lat="42.456934" lon="2.461881">
        <ele>1573.669</ele>
        <time>2021-05-28T11:55:19Z</time>
      </trkpt>
      <trkpt lat="42.457026" lon="2.461821">
        <ele>1573.834</ele>
        <time>2021-05-28T11:55:28Z</time>
      </trkpt>
      <trkpt lat="42.457102" lon="2.461753">
        <ele>1573.461</ele>
        <time>2021-05-28T11:55:35Z</time>
      </trkpt>
      <trkpt lat="42.457188" lon="2.461685">
        <ele>1573.569</ele>
        <time>2021-05-28T11:55:41Z</time>
      </trkpt>
      <trkpt lat="42.457286" lon="2.461622">
        <ele>1574.111</ele>
        <time>2021-05-28T11:55:47Z</time>
      </trkpt>
      <trkpt lat="42.457371" lon="2.461550">
        <ele>1573.921</ele>
        <time>2021-05-28T11:55:52Z</time>
      </trkpt>
      <trkpt lat="42.457475" lon="2.461505">
        <ele>1576.003</ele>
        <time>2021-05-28T11:56:03Z</time>
      </trkpt>
      <trkpt lat="42.457563" lon="2.461435">
        <ele>1576.008</ele>
        <time>2021-05-28T11:56:10Z</time>
      </trkpt>
      <trkpt lat="42.457650" lon="2.461401">
        <ele>1577.388</ele>
        <time>2021-05-28T11:56:17Z</time>
      </trkpt>
      <trkpt lat="42.457719" lon="2.461306">
        <ele>1575.845</ele>
        <time>2021-05-28T11:56:21Z</time>
      </trkpt>
      <trkpt lat="42.457802" lon="2.461240">
        <ele>1575.976</ele>
        <time>2021-05-28T11:56:26Z</time>
      </trkpt>
      <trkpt lat="42.457886" lon="2.461194">
        <ele>1577.125</ele>
        <time>2021-05-28T11:56:33Z</time>
      </trkpt>
      <trkpt lat="42.457976" lon="2.461135">
        <ele>1578.092</ele>
        <time>2021-05-28T11:56:39Z</time>
      </trkpt>
      <trkpt lat="42.458060" lon="2.461074">
        <ele>1578.797</ele>
        <time>2021-05-28T11:56:45Z</time>
      </trkpt>
      <trkpt lat="42.458138" lon="2.461007">
        <ele>1578.824</ele>
        <time>2021-05-28T11:56:53Z</time>
      </trkpt>
      <trkpt lat="42.458222" lon="2.460920">
        <ele>1578.462</ele>
        <time>2021-05-28T11:56:59Z</time>
      </trkpt>
      <trkpt lat="42.458312" lon="2.460849">
        <ele>1578.957</ele>
        <time>2021-05-28T11:57:05Z</time>
      </trkpt>
      <trkpt lat="42.458414" lon="2.460826">
        <ele>1581.000</ele>
        <time>2021-05-28T11:57:11Z</time>
      </trkpt>
      <trkpt lat="42.458509" lon="2.460765">
        <ele>1581.420</ele>
        <time>2021-05-28T11:57:19Z</time>
      </trkpt>
      <trkpt lat="42.458595" lon="2.460701">
        <ele>1581.308</ele>
        <time>2021-05-28T11:57:26Z</time>
      </trkpt>
      <trkpt lat="42.458670" lon="2.460631">
        <ele>1579.742</ele>
        <time>2021-05-28T11:57:33Z</time>
      </trkpt>
      <trkpt lat="42.458760" lon="2.460575">
        <ele>1578.449</ele>
        <time>2021-05-28T11:57:41Z</time>
      </trkpt>
      <trkpt lat="42.458855" lon="2.460570">
        <ele>1579.370</ele>
        <time>2021-05-28T11:57:48Z</time>
      </trkpt>
      <trkpt lat="42.458955" lon="2.460558">
        <ele>1579.869</ele>
        <time>2021-05-28T11:57:55Z</time>
      </trkpt>
      <trkpt lat="42.459037" lon="2.460494">
        <ele>1578.686</ele>
        <time>2021-05-28T11:58:02Z</time>
      </trkpt>
      <trkpt lat="42.459067" lon="2.460373">
        <ele>1575.511</ele>
        <time>2021-05-28T11:58:13Z</time>
      </trkpt>
      <trkpt lat="42.459098" lon="2.460252">
        <ele>1574.268</ele>
        <time>2021-05-28T11:58:36Z</time>
      </trkpt>
      <trkpt lat="42.459052" lon="2.460125">
        <ele>1572.296</ele>
        <time>2021-05-28T11:58:51Z</time>
      </trkpt>
      <trkpt lat="42.459050" lon="2.460003">
        <ele>1572.287</ele>
        <time>2021-05-28T11:58:59Z</time>
      </trkpt>
      <trkpt lat="42.459034" lon="2.459881">
        <ele>1572.542</ele>
        <time>2021-05-28T11:59:06Z</time>
      </trkpt>
      <trkpt lat="42.459021" lon="2.459760">
        <ele>1573.026</ele>
        <time>2021-05-28T11:59:15Z</time>
      </trkpt>
      <trkpt lat="42.458997" lon="2.459632">
        <ele>1573.508</ele>
        <time>2021-05-28T11:59:27Z</time>
      </trkpt>
      <trkpt lat="42.458944" lon="2.459518">
        <ele>1572.145</ele>
        <time>2021-05-28T11:59:41Z</time>
      </trkpt>
      <trkpt lat="42.458978" lon="2.459395">
        <ele>1576.872</ele>
        <time>2021-05-28T11:59:53Z</time>
      </trkpt>
      <trkpt lat="42.459031" lon="2.459280">
        <ele>1581.273</ele>
        <time>2021-05-28T12:00:04Z</time>
      </trkpt>
      <trkpt lat="42.459058" lon="2.459161">
        <ele>1583.252</ele>
        <time>2021-05-28T12:00:15Z</time>
      </trkpt>
      <trkpt lat="42.459146" lon="2.459108">
        <ele>1585.589</ele>
        <time>2021-05-28T12:00:22Z</time>
      </trkpt>
      <trkpt lat="42.459229" lon="2.459040">
        <ele>1586.064</ele>
        <time>2021-05-28T12:00:32Z</time>
      </trkpt>
      <trkpt lat="42.459326" lon="2.458996">
        <ele>1587.391</ele>
        <time>2021-05-28T12:00:39Z</time>
      </trkpt>
      <trkpt lat="42.459413" lon="2.458954">
        <ele>1588.359</ele>
        <time>2021-05-28T12:00:45Z</time>
      </trkpt>
      <trkpt lat="42.459494" lon="2.458870">
        <ele>1587.417</ele>
        <time>2021-05-28T12:00:50Z</time>
      </trkpt>
      <trkpt lat="42.459581" lon="2.458835">
        <ele>1588.187</ele>
        <time>2021-05-28T12:00:57Z</time>
      </trkpt>
      <trkpt lat="42.459674" lon="2.458804">
        <ele>1589.115</ele>
        <time>2021-05-28T12:01:05Z</time>
      </trkpt>
      <trkpt lat="42.459768" lon="2.458782">
        <ele>1590.908</ele>
        <time>2021-05-28T12:01:13Z</time>
      </trkpt>
      <trkpt lat="42.459863" lon="2.458749">
        <ele>1592.588</ele>
        <time>2021-05-28T12:01:19Z</time>
      </trkpt>
      <trkpt lat="42.459947" lon="2.458682">
        <ele>1592.395</ele>
        <time>2021-05-28T12:01:30Z</time>
      </trkpt>
      <trkpt lat="42.460034" lon="2.458612">
        <ele>1592.016</ele>
        <time>2021-05-28T12:01:35Z</time>
      </trkpt>
      <trkpt lat="42.460115" lon="2.458546">
        <ele>1592.335</ele>
        <time>2021-05-28T12:01:43Z</time>
      </trkpt>
      <trkpt lat="42.460181" lon="2.458460">
        <ele>1591.722</ele>
        <time>2021-05-28T12:01:51Z</time>
      </trkpt>
      <trkpt lat="42.460262" lon="2.458400">
        <ele>1592.497</ele>
        <time>2021-05-28T12:01:58Z</time>
      </trkpt>
      <trkpt lat="42.460330" lon="2.458295">
        <ele>1591.344</ele>
        <time>2021-05-28T12:02:07Z</time>
      </trkpt>
      <trkpt lat="42.460362" lon="2.458178">
        <ele>1589.532</ele>
        <time>2021-05-28T12:02:15Z</time>
      </trkpt>
      <trkpt lat="42.460465" lon="2.458154">
        <ele>1591.284</ele>
        <time>2021-05-28T12:02:44Z</time>
      </trkpt>
      <trkpt lat="42.460547" lon="2.458083">
        <ele>1591.407</ele>
        <time>2021-05-28T12:02:50Z</time>
      </trkpt>
      <trkpt lat="42.460602" lon="2.457968">
        <ele>1591.317</ele>
        <time>2021-05-28T12:02:58Z</time>
      </trkpt>
      <trkpt lat="42.460661" lon="2.457860">
        <ele>1591.408</ele>
        <time>2021-05-28T12:03:08Z</time>
      </trkpt>
      <trkpt lat="42.460765" lon="2.457846">
        <ele>1594.425</ele>
        <time>2021-05-28T12:03:13Z</time>
      </trkpt>
      <trkpt lat="42.460857" lon="2.457818">
        <ele>1596.222</ele>
        <time>2021-05-28T12:03:22Z</time>
      </trkpt>
      <trkpt lat="42.460927" lon="2.457742">
        <ele>1594.513</ele>
        <time>2021-05-28T12:03:44Z</time>
      </trkpt>
      <trkpt lat="42.461025" lon="2.457721">
        <ele>1594.432</ele>
        <time>2021-05-28T12:03:54Z</time>
      </trkpt>
      <trkpt lat="42.461115" lon="2.457727">
        <ele>1595.699</ele>
        <time>2021-05-28T12:04:06Z</time>
      </trkpt>
      <trkpt lat="42.461187" lon="2.457816">
        <ele>1598.824</ele>
        <time>2021-05-28T12:04:23Z</time>
      </trkpt>
      <trkpt lat="42.461238" lon="2.457709">
        <ele>1592.061</ele>
        <time>2021-05-28T12:05:04Z</time>
      </trkpt>
      <trkpt lat="42.461324" lon="2.457666">
        <ele>1587.879</ele>
        <time>2021-05-28T12:05:20Z</time>
      </trkpt>
      <trkpt lat="42.461418" lon="2.457682">
        <ele>1587.141</ele>
        <time>2021-05-28T12:05:25Z</time>
      </trkpt>
      <trkpt lat="42.461511" lon="2.457689">
        <ele>1586.081</ele>
        <time>2021-05-28T12:05:31Z</time>
      </trkpt>
      <trkpt lat="42.461596" lon="2.457732">
        <ele>1585.509</ele>
        <time>2021-05-28T12:05:38Z</time>
      </trkpt>
      <trkpt lat="42.461679" lon="2.457782">
        <ele>1584.808</ele>
        <time>2021-05-28T12:05:45Z</time>
      </trkpt>
      <trkpt lat="42.461752" lon="2.457864">
        <ele>1591.011</ele>
        <time>2021-05-28T12:05:54Z</time>
      </trkpt>
      <trkpt lat="42.461847" lon="2.457884">
        <ele>1594.148</ele>
        <time>2021-05-28T12:06:04Z</time>
      </trkpt>
      <trkpt lat="42.461879" lon="2.457768">
        <ele>1593.349</ele>
        <time>2021-05-28T12:06:19Z</time>
      </trkpt>
      <trkpt lat="42.461868" lon="2.457632">
        <ele>1594.828</ele>
        <time>2021-05-28T12:06:27Z</time>
      </trkpt>
      <trkpt lat="42.461832" lon="2.457501">
        <ele>1594.345</ele>
        <time>2021-05-28T12:06:35Z</time>
      </trkpt>
      <trkpt lat="42.461810" lon="2.457376">
        <ele>1595.750</ele>
        <time>2021-05-28T12:06:43Z</time>
      </trkpt>
      <trkpt lat="42.461782" lon="2.457258">
        <ele>1596.617</ele>
        <time>2021-05-28T12:06:55Z</time>
      </trkpt>
      <trkpt lat="42.461752" lon="2.457137">
        <ele>1595.625</ele>
        <time>2021-05-28T12:07:07Z</time>
      </trkpt>
      <trkpt lat="42.461810" lon="2.457038">
        <ele>1598.638</ele>
        <time>2021-05-28T12:07:16Z</time>
      </trkpt>
      <trkpt lat="42.461855" lon="2.456928">
        <ele>1600.270</ele>
        <time>2021-05-28T12:07:23Z</time>
      </trkpt>
      <trkpt lat="42.461884" lon="2.456807">
        <ele>1601.917</ele>
        <time>2021-05-28T12:07:30Z</time>
      </trkpt>
      <trkpt lat="42.461814" lon="2.456699">
        <ele>1599.208</ele>
        <time>2021-05-28T12:07:36Z</time>
      </trkpt>
      <trkpt lat="42.461767" lon="2.456581">
        <ele>1599.080</ele>
        <time>2021-05-28T12:07:43Z</time>
      </trkpt>
      <trkpt lat="42.461704" lon="2.456484">
        <ele>1598.477</ele>
        <time>2021-05-28T12:07:51Z</time>
      </trkpt>
      <trkpt lat="42.461700" lon="2.456355">
        <ele>1600.618</ele>
        <time>2021-05-28T12:08:00Z</time>
      </trkpt>
      <trkpt lat="42.461740" lon="2.456236">
        <ele>1603.447</ele>
        <time>2021-05-28T12:08:08Z</time>
      </trkpt>
      <trkpt lat="42.461772" lon="2.456144">
        <ele>1605.824</ele>
        <time>2021-05-28T12:08:15Z</time>
      </trkpt>
      <trkpt lat="42.461790" lon="2.456112">
        <ele>1606.919</ele>
        <time>2021-05-28T12:08:19Z</time>
      </trkpt>
      <trkpt lat="42.461801" lon="2.456080">
        <ele>1607.566</ele>
        <time>2021-05-28T12:08:22Z</time>
      </trkpt>
      <trkpt lat="42.461802" lon="2.455988">
        <ele>1608.254</ele>
        <time>2021-05-28T12:08:26Z</time>
      </trkpt>
      <trkpt lat="42.461790" lon="2.455957">
        <ele>1607.991</ele>
        <time>2021-05-28T12:08:28Z</time>
      </trkpt>
      <trkpt lat="42.461787" lon="2.455827">
        <ele>1608.781</ele>
        <time>2021-05-28T12:08:39Z</time>
      </trkpt>
      <trkpt lat="42.461835" lon="2.455942">
        <ele>1610.019</ele>
        <time>2021-05-28T12:08:57Z</time>
      </trkpt>
      <trkpt lat="42.461867" lon="2.456053">
        <ele>1610.408</ele>
        <time>2021-05-28T12:09:04Z</time>
      </trkpt>
      <trkpt lat="42.461885" lon="2.456081">
        <ele>1610.916</ele>
        <time>2021-05-28T12:09:06Z</time>
      </trkpt>
      <trkpt lat="42.461898" lon="2.456107">
        <ele>1611.253</ele>
        <time>2021-05-28T12:09:08Z</time>
      </trkpt>
      <trkpt lat="42.461911" lon="2.456126">
        <ele>1611.534</ele>
        <time>2021-05-28T12:09:10Z</time>
      </trkpt>
      <trkpt lat="42.461921" lon="2.456147">
        <ele>1611.633</ele>
        <time>2021-05-28T12:09:12Z</time>
      </trkpt>
      <trkpt lat="42.461986" lon="2.456245">
        <ele>1613.320</ele>
        <time>2021-05-28T12:09:22Z</time>
      </trkpt>
      <trkpt lat="42.462035" lon="2.456354">
        <ele>1614.495</ele>
        <time>2021-05-28T12:09:29Z</time>
      </trkpt>
      <trkpt lat="42.462103" lon="2.456447">
        <ele>1616.662</ele>
        <time>2021-05-28T12:09:38Z</time>
      </trkpt>
      <trkpt lat="42.462159" lon="2.456555">
        <ele>1617.790</ele>
        <time>2021-05-28T12:09:48Z</time>
      </trkpt>
      <trkpt lat="42.462219" lon="2.456649">
        <ele>1619.258</ele>
        <time>2021-05-28T12:09:54Z</time>
      </trkpt>
      <trkpt lat="42.462271" lon="2.456750">
        <ele>1620.952</ele>
        <time>2021-05-28T12:10:06Z</time>
      </trkpt>
      <trkpt lat="42.462324" lon="2.456854">
        <ele>1622.517</ele>
        <time>2021-05-28T12:10:14Z</time>
      </trkpt>
      <trkpt lat="42.462367" lon="2.456964">
        <ele>1623.508</ele>
        <time>2021-05-28T12:10:22Z</time>
      </trkpt>
      <trkpt lat="42.462431" lon="2.457060">
        <ele>1627.222</ele>
        <time>2021-05-28T12:10:32Z</time>
      </trkpt>
      <trkpt lat="42.462449" lon="2.457187">
        <ele>1628.869</ele>
        <time>2021-05-28T12:10:43Z</time>
      </trkpt>
      <trkpt lat="42.462411" lon="2.457308">
        <ele>1627.290</ele>
        <time>2021-05-28T12:10:54Z</time>
      </trkpt>
      <trkpt lat="42.462455" lon="2.457417">
        <ele>1628.919</ele>
        <time>2021-05-28T12:11:03Z</time>
      </trkpt>
      <trkpt lat="42.462498" lon="2.457525">
        <ele>1630.616</ele>
        <time>2021-05-28T12:11:09Z</time>
      </trkpt>
      <trkpt lat="42.462572" lon="2.457595">
        <ele>1634.051</ele>
        <time>2021-05-28T12:11:20Z</time>
      </trkpt>
      <trkpt lat="42.462628" lon="2.457692">
        <ele>1636.078</ele>
        <time>2021-05-28T12:11:31Z</time>
      </trkpt>
      <trkpt lat="42.462687" lon="2.457790">
        <ele>1638.046</ele>
        <time>2021-05-28T12:11:39Z</time>
      </trkpt>
      <trkpt lat="42.462735" lon="2.457896">
        <ele>1639.588</ele>
        <time>2021-05-28T12:11:45Z</time>
      </trkpt>
      <trkpt lat="42.462730" lon="2.458028">
        <ele>1638.024</ele>
        <time>2021-05-28T12:11:54Z</time>
      </trkpt>
      <trkpt lat="42.462753" lon="2.458154">
        <ele>1638.426</ele>
        <time>2021-05-28T12:12:05Z</time>
      </trkpt>
      <trkpt lat="42.462791" lon="2.458271">
        <ele>1639.908</ele>
        <time>2021-05-28T12:12:14Z</time>
      </trkpt>
      <trkpt lat="42.462851" lon="2.458369">
        <ele>1642.265</ele>
        <time>2021-05-28T12:12:21Z</time>
      </trkpt>
      <trkpt lat="42.462918" lon="2.458458">
        <ele>1644.572</ele>
        <time>2021-05-28T12:12:30Z</time>
      </trkpt>
      <trkpt lat="42.463008" lon="2.458433">
        <ele>1649.523</ele>
        <time>2021-05-28T12:12:38Z</time>
      </trkpt>
      <trkpt lat="42.463018" lon="2.458296">
        <ele>1651.552</ele>
        <time>2021-05-28T12:12:45Z</time>
      </trkpt>
      <trkpt lat="42.463009" lon="2.458173">
        <ele>1652.299</ele>
        <time>2021-05-28T12:12:52Z</time>
      </trkpt>
      <trkpt lat="42.462994" lon="2.458036">
        <ele>1652.814</ele>
        <time>2021-05-28T12:13:00Z</time>
      </trkpt>
      <trkpt lat="42.462950" lon="2.457919">
        <ele>1652.031</ele>
        <time>2021-05-28T12:13:08Z</time>
      </trkpt>
      <trkpt lat="42.462931" lon="2.457794">
        <ele>1652.729</ele>
        <time>2021-05-28T12:13:17Z</time>
      </trkpt>
      <trkpt lat="42.462883" lon="2.457665">
        <ele>1650.248</ele>
        <time>2021-05-28T12:13:26Z</time>
      </trkpt>
      <trkpt lat="42.462910" lon="2.457538">
        <ele>1651.761</ele>
        <time>2021-05-28T12:13:34Z</time>
      </trkpt>
      <trkpt lat="42.463012" lon="2.457521">
        <ele>1655.617</ele>
        <time>2021-05-28T12:13:43Z</time>
      </trkpt>
      <trkpt lat="42.463102" lon="2.457530">
        <ele>1659.208</ele>
        <time>2021-05-28T12:13:50Z</time>
      </trkpt>
      <trkpt lat="42.463187" lon="2.457458">
        <ele>1661.991</ele>
        <time>2021-05-28T12:14:05Z</time>
      </trkpt>
      <trkpt lat="42.463241" lon="2.457360">
        <ele>1664.958</ele>
        <time>2021-05-28T12:14:12Z</time>
      </trkpt>
      <trkpt lat="42.463206" lon="2.457234">
        <ele>1664.189</ele>
        <time>2021-05-28T12:14:21Z</time>
      </trkpt>
      <trkpt lat="42.463159" lon="2.457114">
        <ele>1664.548</ele>
        <time>2021-05-28T12:14:29Z</time>
      </trkpt>
      <trkpt lat="42.463089" lon="2.457026">
        <ele>1662.815</ele>
        <time>2021-05-28T12:14:37Z</time>
      </trkpt>
      <trkpt lat="42.463017" lon="2.456931">
        <ele>1660.920</ele>
        <time>2021-05-28T12:14:45Z</time>
      </trkpt>
      <trkpt lat="42.462996" lon="2.456799">
        <ele>1662.567</ele>
        <time>2021-05-28T12:14:55Z</time>
      </trkpt>
      <trkpt lat="42.462990" lon="2.456678">
        <ele>1664.785</ele>
        <time>2021-05-28T12:15:03Z</time>
      </trkpt>
      <trkpt lat="42.462999" lon="2.456556">
        <ele>1667.245</ele>
        <time>2021-05-28T12:15:10Z</time>
      </trkpt>
      <trkpt lat="42.462959" lon="2.456424">
        <ele>1666.947</ele>
        <time>2021-05-28T12:15:17Z</time>
      </trkpt>
      <trkpt lat="42.462943" lon="2.456280">
        <ele>1668.611</ele>
        <time>2021-05-28T12:15:23Z</time>
      </trkpt>
      <trkpt lat="42.462901" lon="2.456155">
        <ele>1668.808</ele>
        <time>2021-05-28T12:15:29Z</time>
      </trkpt>
      <trkpt lat="42.462927" lon="2.456028">
        <ele>1672.611</ele>
        <time>2021-05-28T12:15:39Z</time>
      </trkpt>
      <trkpt lat="42.462949" lon="2.455895">
        <ele>1676.398</ele>
        <time>2021-05-28T12:15:55Z</time>
      </trkpt>
      <trkpt lat="42.462967" lon="2.455769">
        <ele>1679.689</ele>
        <time>2021-05-28T12:16:06Z</time>
      </trkpt>
      <trkpt lat="42.462941" lon="2.455645">
        <ele>1680.058</ele>
        <time>2021-05-28T12:16:18Z</time>
      </trkpt>
      <trkpt lat="42.462941" lon="2.455509">
        <ele>1682.145</ele>
        <time>2021-05-28T12:16:27Z</time>
      </trkpt>
      <trkpt lat="42.462917" lon="2.455378">
        <ele>1682.610</ele>
        <time>2021-05-28T12:16:37Z</time>
      </trkpt>
      <trkpt lat="42.462866" lon="2.455264">
        <ele>1680.987</ele>
        <time>2021-05-28T12:16:45Z</time>
      </trkpt>
      <trkpt lat="42.462852" lon="2.455138">
        <ele>1681.825</ele>
        <time>2021-05-28T12:16:55Z</time>
      </trkpt>
      <trkpt lat="42.462855" lon="2.455002">
        <ele>1684.045</ele>
        <time>2021-05-28T12:17:04Z</time>
      </trkpt>
      <trkpt lat="42.462869" lon="2.454880">
        <ele>1686.347</ele>
        <time>2021-05-28T12:17:12Z</time>
      </trkpt>
      <trkpt lat="42.462882" lon="2.454756">
        <ele>1688.711</ele>
        <time>2021-05-28T12:17:22Z</time>
      </trkpt>
      <trkpt lat="42.462857" lon="2.454627">
        <ele>1688.808</ele>
        <time>2021-05-28T12:17:32Z</time>
      </trkpt>
      <trkpt lat="42.462845" lon="2.454506">
        <ele>1689.791</ele>
        <time>2021-05-28T12:17:40Z</time>
      </trkpt>
      <trkpt lat="42.462843" lon="2.454382">
        <ele>1691.648</ele>
        <time>2021-05-28T12:17:49Z</time>
      </trkpt>
      <trkpt lat="42.462820" lon="2.454260">
        <ele>1692.329</ele>
        <time>2021-05-28T12:17:58Z</time>
      </trkpt>
      <trkpt lat="42.462798" lon="2.454133">
        <ele>1693.168</ele>
        <time>2021-05-28T12:18:05Z</time>
      </trkpt>
      <trkpt lat="42.462786" lon="2.454010">
        <ele>1694.415</ele>
        <time>2021-05-28T12:18:14Z</time>
      </trkpt>
      <trkpt lat="42.462814" lon="2.453881">
        <ele>1698.710</ele>
        <time>2021-05-28T12:18:26Z</time>
      </trkpt>
      <trkpt lat="42.462803" lon="2.453748">
        <ele>1699.977</ele>
        <time>2021-05-28T12:18:33Z</time>
      </trkpt>
      <trkpt lat="42.462770" lon="2.453625">
        <ele>1699.395</ele>
        <time>2021-05-28T12:18:40Z</time>
      </trkpt>
      <trkpt lat="42.462810" lon="2.453516">
        <ele>1702.426</ele>
        <time>2021-05-28T12:18:51Z</time>
      </trkpt>
      <trkpt lat="42.462836" lon="2.453492">
        <ele>1704.447</ele>
        <time>2021-05-28T12:18:55Z</time>
      </trkpt>
      <trkpt lat="42.462891" lon="2.453385">
        <ele>1708.611</ele>
        <time>2021-05-28T12:19:03Z</time>
      </trkpt>
      <trkpt lat="42.462896" lon="2.453253">
        <ele>1708.608</ele>
        <time>2021-05-28T12:19:10Z</time>
      </trkpt>
      <trkpt lat="42.462868" lon="2.453122">
        <ele>1706.139</ele>
        <time>2021-05-28T12:19:20Z</time>
      </trkpt>
      <trkpt lat="42.462835" lon="2.453085">
        <ele>1703.856</ele>
        <time>2021-05-28T12:19:24Z</time>
      </trkpt>
      <trkpt lat="42.462821" lon="2.453066">
        <ele>1702.827</ele>
        <time>2021-05-28T12:19:26Z</time>
      </trkpt>
      <trkpt lat="42.462806" lon="2.453051">
        <ele>1702.026</ele>
        <time>2021-05-28T12:19:28Z</time>
      </trkpt>
      <trkpt lat="42.462810" lon="2.453075">
        <ele>1702.153</ele>
        <time>2021-05-28T12:19:39Z</time>
      </trkpt>
      <trkpt lat="42.462801" lon="2.453050">
        <ele>1701.718</ele>
        <time>2021-05-28T12:19:44Z</time>
      </trkpt>
      <trkpt lat="42.462791" lon="2.453029">
        <ele>1701.735</ele>
        <time>2021-05-28T12:19:46Z</time>
      </trkpt>
      <trkpt lat="42.462749" lon="2.452961">
        <ele>1701.663</ele>
        <time>2021-05-28T12:19:50Z</time>
      </trkpt>
      <trkpt lat="42.462733" lon="2.452835">
        <ele>1704.899</ele>
        <time>2021-05-28T12:20:00Z</time>
      </trkpt>
      <trkpt lat="42.462682" lon="2.452725">
        <ele>1705.707</ele>
        <time>2021-05-28T12:20:09Z</time>
      </trkpt>
      <trkpt lat="42.462662" lon="2.452599">
        <ele>1708.927</ele>
        <time>2021-05-28T12:20:18Z</time>
      </trkpt>
      <trkpt lat="42.462617" lon="2.452477">
        <ele>1710.408</ele>
        <time>2021-05-28T12:20:25Z</time>
      </trkpt>
      <trkpt lat="42.462565" lon="2.452371">
        <ele>1710.616</ele>
        <time>2021-05-28T12:20:32Z</time>
      </trkpt>
      <trkpt lat="42.462518" lon="2.452258">
        <ele>1711.183</ele>
        <time>2021-05-28T12:20:39Z</time>
      </trkpt>
      <trkpt lat="42.462492" lon="2.452130">
        <ele>1712.964</ele>
        <time>2021-05-28T12:20:45Z</time>
      </trkpt>
      <trkpt lat="42.462479" lon="2.451998">
        <ele>1715.463</ele>
        <time>2021-05-28T12:20:52Z</time>
      </trkpt>
      <trkpt lat="42.462457" lon="2.451909">
        <ele>1716.220</ele>
        <time>2021-05-28T12:20:58Z</time>
      </trkpt>
      <trkpt lat="42.462457" lon="2.451876">
        <ele>1716.855</ele>
        <time>2021-05-28T12:21:00Z</time>
      </trkpt>
      <trkpt lat="42.462443" lon="2.451822">
        <ele>1717.182</ele>
        <time>2021-05-28T12:21:03Z</time>
      </trkpt>
      <trkpt lat="42.462418" lon="2.451767">
        <ele>1716.890</ele>
        <time>2021-05-28T12:21:07Z</time>
      </trkpt>
      <trkpt lat="42.462381" lon="2.451639">
        <ele>1717.747</ele>
        <time>2021-05-28T12:21:16Z</time>
      </trkpt>
      <trkpt lat="42.462379" lon="2.451607">
        <ele>1718.429</ele>
        <time>2021-05-28T12:21:18Z</time>
      </trkpt>
      <trkpt lat="42.462334" lon="2.451505">
        <ele>1718.821</ele>
        <time>2021-05-28T12:21:26Z</time>
      </trkpt>
      <trkpt lat="42.462316" lon="2.451484">
        <ele>1718.508</ele>
        <time>2021-05-28T12:21:28Z</time>
      </trkpt>
      <trkpt lat="42.462278" lon="2.451458">
        <ele>1717.571</ele>
        <time>2021-05-28T12:21:31Z</time>
      </trkpt>
      <trkpt lat="42.462253" lon="2.451452">
        <ele>1716.698</ele>
        <time>2021-05-28T12:21:33Z</time>
      </trkpt>
      <trkpt lat="42.462231" lon="2.451436">
        <ele>1716.079</ele>
        <time>2021-05-28T12:21:35Z</time>
      </trkpt>
      <trkpt lat="42.462212" lon="2.451418">
        <ele>1716.118</ele>
        <time>2021-05-28T12:21:37Z</time>
      </trkpt>
      <trkpt lat="42.462197" lon="2.451401">
        <ele>1716.585</ele>
        <time>2021-05-28T12:21:39Z</time>
      </trkpt>
      <trkpt lat="42.462182" lon="2.451383">
        <ele>1716.960</ele>
        <time>2021-05-28T12:21:41Z</time>
      </trkpt>
      <trkpt lat="42.462170" lon="2.451360">
        <ele>1717.557</ele>
        <time>2021-05-28T12:21:43Z</time>
      </trkpt>
      <trkpt lat="42.462154" lon="2.451338">
        <ele>1718.075</ele>
        <time>2021-05-28T12:21:45Z</time>
      </trkpt>
      <trkpt lat="42.462136" lon="2.451319">
        <ele>1718.391</ele>
        <time>2021-05-28T12:21:47Z</time>
      </trkpt>
      <trkpt lat="42.462116" lon="2.451299">
        <ele>1718.781</ele>
        <time>2021-05-28T12:21:49Z</time>
      </trkpt>
      <trkpt lat="42.462095" lon="2.451280">
        <ele>1718.919</ele>
        <time>2021-05-28T12:21:51Z</time>
      </trkpt>
      <trkpt lat="42.462077" lon="2.451259">
        <ele>1719.208</ele>
        <time>2021-05-28T12:21:53Z</time>
      </trkpt>
      <trkpt lat="42.462058" lon="2.451241">
        <ele>1719.316</ele>
        <time>2021-05-28T12:21:55Z</time>
      </trkpt>
      <trkpt lat="42.462042" lon="2.451219">
        <ele>1719.693</ele>
        <time>2021-05-28T12:21:57Z</time>
      </trkpt>
      <trkpt lat="42.462024" lon="2.451197">
        <ele>1719.824</ele>
        <time>2021-05-28T12:21:59Z</time>
      </trkpt>
      <trkpt lat="42.462004" lon="2.451171">
        <ele>1720.063</ele>
        <time>2021-05-28T12:22:01Z</time>
      </trkpt>
      <trkpt lat="42.461986" lon="2.451152">
        <ele>1720.160</ele>
        <time>2021-05-28T12:22:03Z</time>
      </trkpt>
      <trkpt lat="42.461963" lon="2.451129">
        <ele>1720.115</ele>
        <time>2021-05-28T12:22:06Z</time>
      </trkpt>
      <trkpt lat="42.461944" lon="2.451116">
        <ele>1719.942</ele>
        <time>2021-05-28T12:22:08Z</time>
      </trkpt>
      <trkpt lat="42.461927" lon="2.451104">
        <ele>1720.410</ele>
        <time>2021-05-28T12:22:10Z</time>
      </trkpt>
      <trkpt lat="42.461908" lon="2.451092">
        <ele>1720.958</ele>
        <time>2021-05-28T12:22:15Z</time>
      </trkpt>
      <trkpt lat="42.461889" lon="2.451075">
        <ele>1721.552</ele>
        <time>2021-05-28T12:22:24Z</time>
      </trkpt>
      <trkpt lat="42.461866" lon="2.451065">
        <ele>1722.117</ele>
        <time>2021-05-28T12:22:26Z</time>
      </trkpt>
      <trkpt lat="42.461842" lon="2.451053">
        <ele>1722.708</ele>
        <time>2021-05-28T12:22:28Z</time>
      </trkpt>
      <trkpt lat="42.461817" lon="2.451036">
        <ele>1723.442</ele>
        <time>2021-05-28T12:22:30Z</time>
      </trkpt>
      <trkpt lat="42.461791" lon="2.451025">
        <ele>1724.049</ele>
        <time>2021-05-28T12:22:32Z</time>
      </trkpt>
      <trkpt lat="42.461765" lon="2.451020">
        <ele>1724.540</ele>
        <time>2021-05-28T12:22:34Z</time>
      </trkpt>
      <trkpt lat="42.461737" lon="2.451013">
        <ele>1725.159</ele>
        <time>2021-05-28T12:22:36Z</time>
      </trkpt>
      <trkpt lat="42.461694" lon="2.450993">
        <ele>1726.276</ele>
        <time>2021-05-28T12:22:39Z</time>
      </trkpt>
      <trkpt lat="42.461676" lon="2.450985">
        <ele>1726.691</ele>
        <time>2021-05-28T12:22:40Z</time>
      </trkpt>
      <trkpt lat="42.461657" lon="2.450976">
        <ele>1727.128</ele>
        <time>2021-05-28T12:22:41Z</time>
      </trkpt>
      <trkpt lat="42.461636" lon="2.450964">
        <ele>1727.486</ele>
        <time>2021-05-28T12:22:42Z</time>
      </trkpt>
      <trkpt lat="42.461604" lon="2.450956">
        <ele>1727.915</ele>
        <time>2021-05-28T12:22:44Z</time>
      </trkpt>
      <trkpt lat="42.461572" lon="2.450950">
        <ele>1728.265</ele>
        <time>2021-05-28T12:22:46Z</time>
      </trkpt>
      <trkpt lat="42.461544" lon="2.450935">
        <ele>1728.611</ele>
        <time>2021-05-28T12:22:48Z</time>
      </trkpt>
      <trkpt lat="42.461528" lon="2.450924">
        <ele>1728.808</ele>
        <time>2021-05-28T12:22:49Z</time>
      </trkpt>
      <trkpt lat="42.461511" lon="2.450912">
        <ele>1729.118</ele>
        <time>2021-05-28T12:22:50Z</time>
      </trkpt>
      <trkpt lat="42.461493" lon="2.450902">
        <ele>1729.365</ele>
        <time>2021-05-28T12:22:51Z</time>
      </trkpt>
      <trkpt lat="42.461461" lon="2.450886">
        <ele>1729.556</ele>
        <time>2021-05-28T12:22:53Z</time>
      </trkpt>
      <trkpt lat="42.461437" lon="2.450861">
        <ele>1729.865</ele>
        <time>2021-05-28T12:22:55Z</time>
      </trkpt>
      <trkpt lat="42.461415" lon="2.450835">
        <ele>1729.972</ele>
        <time>2021-05-28T12:22:57Z</time>
      </trkpt>
      <trkpt lat="42.461395" lon="2.450810">
        <ele>1730.157</ele>
        <time>2021-05-28T12:22:59Z</time>
      </trkpt>
      <trkpt lat="42.461377" lon="2.450785">
        <ele>1730.274</ele>
        <time>2021-05-28T12:23:01Z</time>
      </trkpt>
      <trkpt lat="42.461353" lon="2.450744">
        <ele>1730.532</ele>
        <time>2021-05-28T12:23:03Z</time>
      </trkpt>
      <trkpt lat="42.461339" lon="2.450703">
        <ele>1730.643</ele>
        <time>2021-05-28T12:23:05Z</time>
      </trkpt>
      <trkpt lat="42.461331" lon="2.450661">
        <ele>1730.864</ele>
        <time>2021-05-28T12:23:07Z</time>
      </trkpt>
      <trkpt lat="42.461325" lon="2.450638">
        <ele>1730.910</ele>
        <time>2021-05-28T12:23:08Z</time>
      </trkpt>
      <trkpt lat="42.461312" lon="2.450597">
        <ele>1731.108</ele>
        <time>2021-05-28T12:23:11Z</time>
      </trkpt>
      <trkpt lat="42.461288" lon="2.450531">
        <ele>1731.721</ele>
        <time>2021-05-28T12:23:13Z</time>
      </trkpt>
      <trkpt lat="42.461274" lon="2.450490">
        <ele>1732.268</ele>
        <time>2021-05-28T12:23:15Z</time>
      </trkpt>
      <trkpt lat="42.461265" lon="2.450467">
        <ele>1732.439</ele>
        <time>2021-05-28T12:23:16Z</time>
      </trkpt>
      <trkpt lat="42.461257" lon="2.450424">
        <ele>1732.978</ele>
        <time>2021-05-28T12:23:18Z</time>
      </trkpt>
      <trkpt lat="42.461248" lon="2.450387">
        <ele>1733.375</ele>
        <time>2021-05-28T12:23:20Z</time>
      </trkpt>
      <trkpt lat="42.461238" lon="2.450341">
        <ele>1733.870</ele>
        <time>2021-05-28T12:23:22Z</time>
      </trkpt>
      <trkpt lat="42.461226" lon="2.450296">
        <ele>1734.267</ele>
        <time>2021-05-28T12:23:24Z</time>
      </trkpt>
      <trkpt lat="42.461218" lon="2.450255">
        <ele>1734.565</ele>
        <time>2021-05-28T12:23:26Z</time>
      </trkpt>
      <trkpt lat="42.461212" lon="2.450232">
        <ele>1734.693</ele>
        <time>2021-05-28T12:23:27Z</time>
      </trkpt>
      <trkpt lat="42.461203" lon="2.450194">
        <ele>1734.765</ele>
        <time>2021-05-28T12:23:29Z</time>
      </trkpt>
      <trkpt lat="42.461193" lon="2.450157">
        <ele>1734.921</ele>
        <time>2021-05-28T12:23:31Z</time>
      </trkpt>
      <trkpt lat="42.461179" lon="2.450111">
        <ele>1735.008</ele>
        <time>2021-05-28T12:23:33Z</time>
      </trkpt>
      <trkpt lat="42.461171" lon="2.450089">
        <ele>1735.086</ele>
        <time>2021-05-28T12:23:34Z</time>
      </trkpt>
      <trkpt lat="42.461163" lon="2.450052">
        <ele>1735.273</ele>
        <time>2021-05-28T12:23:36Z</time>
      </trkpt>
      <trkpt lat="42.461150" lon="2.450022">
        <ele>1735.254</ele>
        <time>2021-05-28T12:23:38Z</time>
      </trkpt>
      <trkpt lat="42.461131" lon="2.449999">
        <ele>1735.153</ele>
        <time>2021-05-28T12:23:40Z</time>
      </trkpt>
      <trkpt lat="42.461114" lon="2.449979">
        <ele>1735.160</ele>
        <time>2021-05-28T12:23:42Z</time>
      </trkpt>
      <trkpt lat="42.461096" lon="2.449974">
        <ele>1735.255</ele>
        <time>2021-05-28T12:23:44Z</time>
      </trkpt>
      <trkpt lat="42.461075" lon="2.449977">
        <ele>1735.452</ele>
        <time>2021-05-28T12:23:46Z</time>
      </trkpt>
      <trkpt lat="42.461055" lon="2.449980">
        <ele>1735.570</ele>
        <time>2021-05-28T12:23:48Z</time>
      </trkpt>
      <trkpt lat="42.461028" lon="2.449989">
        <ele>1735.799</ele>
        <time>2021-05-28T12:23:50Z</time>
      </trkpt>
      <trkpt lat="42.461009" lon="2.449995">
        <ele>1735.807</ele>
        <time>2021-05-28T12:23:52Z</time>
      </trkpt>
      <trkpt lat="42.460992" lon="2.450005">
        <ele>1735.827</ele>
        <time>2021-05-28T12:23:54Z</time>
      </trkpt>
      <trkpt lat="42.460973" lon="2.450019">
        <ele>1735.908</ele>
        <time>2021-05-28T12:23:56Z</time>
      </trkpt>
      <trkpt lat="42.460945" lon="2.450029">
        <ele>1736.016</ele>
        <time>2021-05-28T12:23:59Z</time>
      </trkpt>
      <trkpt lat="42.460923" lon="2.450042">
        <ele>1736.183</ele>
        <time>2021-05-28T12:24:01Z</time>
      </trkpt>
      <trkpt lat="42.460906" lon="2.450060">
        <ele>1736.144</ele>
        <time>2021-05-28T12:24:03Z</time>
      </trkpt>
      <trkpt lat="42.460888" lon="2.450078">
        <ele>1736.183</ele>
        <time>2021-05-28T12:24:05Z</time>
      </trkpt>
      <trkpt lat="42.460865" lon="2.450095">
        <ele>1736.120</ele>
        <time>2021-05-28T12:24:07Z</time>
      </trkpt>
      <trkpt lat="42.460846" lon="2.450101">
        <ele>1736.265</ele>
        <time>2021-05-28T12:24:10Z</time>
      </trkpt>
      <trkpt lat="42.460826" lon="2.450108">
        <ele>1736.312</ele>
        <time>2021-05-28T12:24:11Z</time>
      </trkpt>
      <trkpt lat="42.460807" lon="2.450111">
        <ele>1736.340</ele>
        <time>2021-05-28T12:24:13Z</time>
      </trkpt>
      <trkpt lat="42.460787" lon="2.450107">
        <ele>1736.494</ele>
        <time>2021-05-28T12:24:15Z</time>
      </trkpt>
      <trkpt lat="42.460769" lon="2.450098">
        <ele>1736.657</ele>
        <time>2021-05-28T12:24:17Z</time>
      </trkpt>
      <trkpt lat="42.460755" lon="2.450073">
        <ele>1736.922</ele>
        <time>2021-05-28T12:24:19Z</time>
      </trkpt>
      <trkpt lat="42.460738" lon="2.450049">
        <ele>1737.208</ele>
        <time>2021-05-28T12:24:21Z</time>
      </trkpt>
      <trkpt lat="42.460720" lon="2.450024">
        <ele>1737.676</ele>
        <time>2021-05-28T12:24:23Z</time>
      </trkpt>
      <trkpt lat="42.460703" lon="2.450003">
        <ele>1737.993</ele>
        <time>2021-05-28T12:24:25Z</time>
      </trkpt>
      <trkpt lat="42.460684" lon="2.449978">
        <ele>1738.354</ele>
        <time>2021-05-28T12:24:27Z</time>
      </trkpt>
      <trkpt lat="42.460663" lon="2.449956">
        <ele>1738.643</ele>
        <time>2021-05-28T12:24:29Z</time>
      </trkpt>
      <trkpt lat="42.460646" lon="2.449934">
        <ele>1738.910</ele>
        <time>2021-05-28T12:24:31Z</time>
      </trkpt>
      <trkpt lat="42.460627" lon="2.449916">
        <ele>1739.255</ele>
        <time>2021-05-28T12:24:33Z</time>
      </trkpt>
      <trkpt lat="42.460612" lon="2.449897">
        <ele>1739.432</ele>
        <time>2021-05-28T12:24:35Z</time>
      </trkpt>
      <trkpt lat="42.460594" lon="2.449875">
        <ele>1739.710</ele>
        <time>2021-05-28T12:24:37Z</time>
      </trkpt>
      <trkpt lat="42.460577" lon="2.449853">
        <ele>1739.978</ele>
        <time>2021-05-28T12:24:39Z</time>
      </trkpt>
      <trkpt lat="42.460560" lon="2.449832">
        <ele>1740.233</ele>
        <time>2021-05-28T12:24:41Z</time>
      </trkpt>
      <trkpt lat="42.460543" lon="2.449811">
        <ele>1740.426</ele>
        <time>2021-05-28T12:24:43Z</time>
      </trkpt>
      <trkpt lat="42.460530" lon="2.449788">
        <ele>1740.608</ele>
        <time>2021-05-28T12:24:45Z</time>
      </trkpt>
      <trkpt lat="42.460518" lon="2.449760">
        <ele>1740.834</ele>
        <time>2021-05-28T12:24:47Z</time>
      </trkpt>
      <trkpt lat="42.460504" lon="2.449736">
        <ele>1741.131</ele>
        <time>2021-05-28T12:24:49Z</time>
      </trkpt>
      <trkpt lat="42.460494" lon="2.449712">
        <ele>1741.362</ele>
        <time>2021-05-28T12:24:51Z</time>
      </trkpt>
      <trkpt lat="42.460483" lon="2.449684">
        <ele>1741.671</ele>
        <time>2021-05-28T12:24:53Z</time>
      </trkpt>
      <trkpt lat="42.460469" lon="2.449654">
        <ele>1741.968</ele>
        <time>2021-05-28T12:24:55Z</time>
      </trkpt>
      <trkpt lat="42.460453" lon="2.449628">
        <ele>1742.283</ele>
        <time>2021-05-28T12:24:58Z</time>
      </trkpt>
      <trkpt lat="42.460441" lon="2.449601">
        <ele>1742.520</ele>
        <time>2021-05-28T12:24:59Z</time>
      </trkpt>
      <trkpt lat="42.460439" lon="2.449571">
        <ele>1742.738</ele>
        <time>2021-05-28T12:25:01Z</time>
      </trkpt>
      <trkpt lat="42.460431" lon="2.449536">
        <ele>1743.191</ele>
        <time>2021-05-28T12:25:03Z</time>
      </trkpt>
      <trkpt lat="42.460431" lon="2.449502">
        <ele>1743.481</ele>
        <time>2021-05-28T12:25:05Z</time>
      </trkpt>
      <trkpt lat="42.460432" lon="2.449469">
        <ele>1743.719</ele>
        <time>2021-05-28T12:25:07Z</time>
      </trkpt>
      <trkpt lat="42.460435" lon="2.449436">
        <ele>1743.908</ele>
        <time>2021-05-28T12:25:09Z</time>
      </trkpt>
      <trkpt lat="42.460434" lon="2.449399">
        <ele>1744.226</ele>
        <time>2021-05-28T12:25:11Z</time>
      </trkpt>
      <trkpt lat="42.460434" lon="2.449366">
        <ele>1744.423</ele>
        <time>2021-05-28T12:25:13Z</time>
      </trkpt>
      <trkpt lat="42.460440" lon="2.449333">
        <ele>1744.614</ele>
        <time>2021-05-28T12:25:15Z</time>
      </trkpt>
      <trkpt lat="42.460442" lon="2.449299">
        <ele>1744.943</ele>
        <time>2021-05-28T12:25:17Z</time>
      </trkpt>
      <trkpt lat="42.460446" lon="2.449267">
        <ele>1745.160</ele>
        <time>2021-05-28T12:25:19Z</time>
      </trkpt>
      <trkpt lat="42.460451" lon="2.449235">
        <ele>1745.355</ele>
        <time>2021-05-28T12:25:21Z</time>
      </trkpt>
      <trkpt lat="42.460457" lon="2.449201">
        <ele>1745.522</ele>
        <time>2021-05-28T12:25:23Z</time>
      </trkpt>
      <trkpt lat="42.460456" lon="2.449167">
        <ele>1745.710</ele>
        <time>2021-05-28T12:25:25Z</time>
      </trkpt>
      <trkpt lat="42.460451" lon="2.449135">
        <ele>1745.984</ele>
        <time>2021-05-28T12:25:27Z</time>
      </trkpt>
      <trkpt lat="42.460442" lon="2.449099">
        <ele>1746.207</ele>
        <time>2021-05-28T12:25:29Z</time>
      </trkpt>
      <trkpt lat="42.460431" lon="2.449070">
        <ele>1746.417</ele>
        <time>2021-05-28T12:25:31Z</time>
      </trkpt>
      <trkpt lat="42.460421" lon="2.449040">
        <ele>1746.608</ele>
        <time>2021-05-28T12:25:33Z</time>
      </trkpt>
      <trkpt lat="42.460413" lon="2.449009">
        <ele>1746.985</ele>
        <time>2021-05-28T12:25:35Z</time>
      </trkpt>
      <trkpt lat="42.460405" lon="2.448980">
        <ele>1747.192</ele>
        <time>2021-05-28T12:25:37Z</time>
      </trkpt>
      <trkpt lat="42.460395" lon="2.448951">
        <ele>1747.453</ele>
        <time>2021-05-28T12:25:39Z</time>
      </trkpt>
      <trkpt lat="42.460382" lon="2.448922">
        <ele>1747.752</ele>
        <time>2021-05-28T12:25:41Z</time>
      </trkpt>
      <trkpt lat="42.460375" lon="2.448891">
        <ele>1747.949</ele>
        <time>2021-05-28T12:25:43Z</time>
      </trkpt>
      <trkpt lat="42.460366" lon="2.448862">
        <ele>1748.254</ele>
        <time>2021-05-28T12:25:45Z</time>
      </trkpt>
      <trkpt lat="42.460359" lon="2.448833">
        <ele>1748.461</ele>
        <time>2021-05-28T12:25:47Z</time>
      </trkpt>
      <trkpt lat="42.460357" lon="2.448804">
        <ele>1748.529</ele>
        <time>2021-05-28T12:25:49Z</time>
      </trkpt>
      <trkpt lat="42.460355" lon="2.448772">
        <ele>1748.723</ele>
        <time>2021-05-28T12:25:51Z</time>
      </trkpt>
      <trkpt lat="42.460354" lon="2.448741">
        <ele>1748.983</ele>
        <time>2021-05-28T12:25:53Z</time>
      </trkpt>
      <trkpt lat="42.460372" lon="2.448718">
        <ele>1748.811</ele>
        <time>2021-05-28T12:25:56Z</time>
      </trkpt>
      <trkpt lat="42.460397" lon="2.448709">
        <ele>1748.608</ele>
        <time>2021-05-28T12:25:58Z</time>
      </trkpt>
      <trkpt lat="42.460424" lon="2.448692">
        <ele>1748.549</ele>
        <time>2021-05-28T12:26:00Z</time>
      </trkpt>
      <trkpt lat="42.460452" lon="2.448678">
        <ele>1748.496</ele>
        <time>2021-05-28T12:26:02Z</time>
      </trkpt>
      <trkpt lat="42.460477" lon="2.448657">
        <ele>1748.337</ele>
        <time>2021-05-28T12:26:04Z</time>
      </trkpt>
      <trkpt lat="42.460502" lon="2.448634">
        <ele>1748.296</ele>
        <time>2021-05-28T12:26:06Z</time>
      </trkpt>
      <trkpt lat="42.460529" lon="2.448624">
        <ele>1748.133</ele>
        <time>2021-05-28T12:26:08Z</time>
      </trkpt>
      <trkpt lat="42.460552" lon="2.448620">
        <ele>1748.048</ele>
        <time>2021-05-28T12:26:10Z</time>
      </trkpt>
      <trkpt lat="42.460586" lon="2.448613">
        <ele>1748.095</ele>
        <time>2021-05-28T12:26:12Z</time>
      </trkpt>
      <trkpt lat="42.460608" lon="2.448595">
        <ele>1748.183</ele>
        <time>2021-05-28T12:26:14Z</time>
      </trkpt>
      <trkpt lat="42.460629" lon="2.448588">
        <ele>1748.261</ele>
        <time>2021-05-28T12:26:16Z</time>
      </trkpt>
      <trkpt lat="42.460649" lon="2.448569">
        <ele>1748.321</ele>
        <time>2021-05-28T12:26:18Z</time>
      </trkpt>
      <trkpt lat="42.460666" lon="2.448548">
        <ele>1748.513</ele>
        <time>2021-05-28T12:26:21Z</time>
      </trkpt>
      <trkpt lat="42.460681" lon="2.448531">
        <ele>1748.608</ele>
        <time>2021-05-28T12:26:24Z</time>
      </trkpt>
      <trkpt lat="42.460696" lon="2.448514">
        <ele>1748.783</ele>
        <time>2021-05-28T12:26:27Z</time>
      </trkpt>
      <trkpt lat="42.460718" lon="2.448494">
        <ele>1748.840</ele>
        <time>2021-05-28T12:26:30Z</time>
      </trkpt>
      <trkpt lat="42.460737" lon="2.448485">
        <ele>1748.921</ele>
        <time>2021-05-28T12:26:33Z</time>
      </trkpt>
      <trkpt lat="42.460761" lon="2.448468">
        <ele>1749.020</ele>
        <time>2021-05-28T12:26:36Z</time>
      </trkpt>
      <trkpt lat="42.460769" lon="2.448437">
        <ele>1749.327</ele>
        <time>2021-05-28T12:26:39Z</time>
      </trkpt>
      <trkpt lat="42.460785" lon="2.448410">
        <ele>1749.432</ele>
        <time>2021-05-28T12:26:42Z</time>
      </trkpt>
      <trkpt lat="42.460793" lon="2.448383">
        <ele>1749.659</ele>
        <time>2021-05-28T12:26:44Z</time>
      </trkpt>
      <trkpt lat="42.460797" lon="2.448356">
        <ele>1749.867</ele>
        <time>2021-05-28T12:26:46Z</time>
      </trkpt>
      <trkpt lat="42.460799" lon="2.448328">
        <ele>1750.198</ele>
        <time>2021-05-28T12:26:48Z</time>
      </trkpt>
      <trkpt lat="42.460793" lon="2.448298">
        <ele>1750.515</ele>
        <time>2021-05-28T12:26:50Z</time>
      </trkpt>
      <trkpt lat="42.460789" lon="2.448265">
        <ele>1750.926</ele>
        <time>2021-05-28T12:26:53Z</time>
      </trkpt>
      <trkpt lat="42.460809" lon="2.448250">
        <ele>1751.208</ele>
        <time>2021-05-28T12:26:57Z</time>
      </trkpt>
      <trkpt lat="42.460834" lon="2.448234">
        <ele>1751.486</ele>
        <time>2021-05-28T12:27:01Z</time>
      </trkpt>
      <trkpt lat="42.460853" lon="2.448215">
        <ele>1751.743</ele>
        <time>2021-05-28T12:27:03Z</time>
      </trkpt>
      <trkpt lat="42.460872" lon="2.448205">
        <ele>1751.824</ele>
        <time>2021-05-28T12:27:05Z</time>
      </trkpt>
      <trkpt lat="42.460891" lon="2.448199">
        <ele>1751.923</ele>
        <time>2021-05-28T12:27:48Z</time>
      </trkpt>
      <trkpt lat="42.460882" lon="2.448177">
        <ele>1752.350</ele>
        <time>2021-05-28T12:28:15Z</time>
      </trkpt>
      <trkpt lat="42.460864" lon="2.448174">
        <ele>1752.355</ele>
        <time>2021-05-28T12:29:19Z</time>
      </trkpt>
      <trkpt lat="42.460885" lon="2.448185">
        <ele>1752.192</ele>
        <time>2021-05-28T12:29:47Z</time>
      </trkpt>
      <trkpt lat="42.460905" lon="2.448177">
        <ele>1752.350</ele>
        <time>2021-05-28T12:29:50Z</time>
      </trkpt>
      <trkpt lat="42.460923" lon="2.448161">
        <ele>1752.618</ele>
        <time>2021-05-28T12:29:53Z</time>
      </trkpt>
      <trkpt lat="42.460944" lon="2.448156">
        <ele>1752.798</ele>
        <time>2021-05-28T12:29:57Z</time>
      </trkpt>
      <trkpt lat="42.460959" lon="2.448142">
        <ele>1752.917</ele>
        <time>2021-05-28T12:30:02Z</time>
      </trkpt>
      <trkpt lat="42.460989" lon="2.448113">
        <ele>1753.508</ele>
        <time>2021-05-28T12:30:05Z</time>
      </trkpt>
      <trkpt lat="42.461011" lon="2.448100">
        <ele>1753.888</ele>
        <time>2021-05-28T12:30:07Z</time>
      </trkpt>
      <trkpt lat="42.461039" lon="2.448092">
        <ele>1754.075</ele>
        <time>2021-05-28T12:30:09Z</time>
      </trkpt>
      <trkpt lat="42.461065" lon="2.448085">
        <ele>1754.236</ele>
        <time>2021-05-28T12:30:11Z</time>
      </trkpt>
      <trkpt lat="42.461092" lon="2.448089">
        <ele>1754.265</ele>
        <time>2021-05-28T12:30:13Z</time>
      </trkpt>
      <trkpt lat="42.461122" lon="2.448095">
        <ele>1754.572</ele>
        <time>2021-05-28T12:30:15Z</time>
      </trkpt>
      <trkpt lat="42.461142" lon="2.448109">
        <ele>1754.737</ele>
        <time>2021-05-28T12:30:17Z</time>
      </trkpt>
      <trkpt lat="42.461161" lon="2.448116">
        <ele>1755.154</ele>
        <time>2021-05-28T12:30:20Z</time>
      </trkpt>
      <trkpt lat="42.461139" lon="2.448086">
        <ele>1755.132</ele>
        <time>2021-05-28T12:30:24Z</time>
      </trkpt>
      <trkpt lat="42.461114" lon="2.448060">
        <ele>1755.058</ele>
        <time>2021-05-28T12:30:25Z</time>
      </trkpt>
      <trkpt lat="42.461094" lon="2.448041">
        <ele>1755.352</ele>
        <time>2021-05-28T12:30:27Z</time>
      </trkpt>
      <trkpt lat="42.461079" lon="2.448013">
        <ele>1755.917</ele>
        <time>2021-05-28T12:30:29Z</time>
      </trkpt>
      <trkpt lat="42.461064" lon="2.447984">
        <ele>1756.508</ele>
        <time>2021-05-28T12:30:31Z</time>
      </trkpt>
      <trkpt lat="42.461046" lon="2.447957">
        <ele>1757.012</ele>
        <time>2021-05-28T12:30:33Z</time>
      </trkpt>
      <trkpt lat="42.461026" lon="2.447939">
        <ele>1757.229</ele>
        <time>2021-05-28T12:30:35Z</time>
      </trkpt>
      <trkpt lat="42.461001" lon="2.447912">
        <ele>1757.690</ele>
        <time>2021-05-28T12:30:37Z</time>
      </trkpt>
      <trkpt lat="42.460988" lon="2.447884">
        <ele>1758.179</ele>
        <time>2021-05-28T12:30:39Z</time>
      </trkpt>
      <trkpt lat="42.460971" lon="2.447849">
        <ele>1758.616</ele>
        <time>2021-05-28T12:30:41Z</time>
      </trkpt>
      <trkpt lat="42.460958" lon="2.447821">
        <ele>1759.081</ele>
        <time>2021-05-28T12:30:43Z</time>
      </trkpt>
      <trkpt lat="42.460948" lon="2.447793">
        <ele>1759.428</ele>
        <time>2021-05-28T12:30:45Z</time>
      </trkpt>
      <trkpt lat="42.460950" lon="2.447765">
        <ele>1759.956</ele>
        <time>2021-05-28T12:30:47Z</time>
      </trkpt>
      <trkpt lat="42.460953" lon="2.447739">
        <ele>1760.376</ele>
        <time>2021-05-28T12:30:49Z</time>
      </trkpt>
      <trkpt lat="42.460958" lon="2.447703">
        <ele>1760.890</ele>
        <time>2021-05-28T12:30:52Z</time>
      </trkpt>
      <trkpt lat="42.460960" lon="2.447670">
        <ele>1761.319</ele>
        <time>2021-05-28T12:30:55Z</time>
      </trkpt>
      <trkpt lat="42.460953" lon="2.447643">
        <ele>1761.608</ele>
        <time>2021-05-28T12:30:57Z</time>
      </trkpt>
      <trkpt lat="42.460950" lon="2.447618">
        <ele>1761.984</ele>
        <time>2021-05-28T12:30:59Z</time>
      </trkpt>
      <trkpt lat="42.460930" lon="2.447638">
        <ele>1761.331</ele>
        <time>2021-05-28T12:31:02Z</time>
      </trkpt>
      <trkpt lat="42.460919" lon="2.447659">
        <ele>1760.822</ele>
        <time>2021-05-28T12:31:04Z</time>
      </trkpt>
      <trkpt lat="42.460902" lon="2.447684">
        <ele>1760.231</ele>
        <time>2021-05-28T12:31:06Z</time>
      </trkpt>
      <trkpt lat="42.460888" lon="2.447710">
        <ele>1759.668</ele>
        <time>2021-05-28T12:31:08Z</time>
      </trkpt>
      <trkpt lat="42.460866" lon="2.447725">
        <ele>1759.113</ele>
        <time>2021-05-28T12:31:10Z</time>
      </trkpt>
      <trkpt lat="42.460843" lon="2.447735">
        <ele>1758.620</ele>
        <time>2021-05-28T12:31:12Z</time>
      </trkpt>
      <trkpt lat="42.460822" lon="2.447754">
        <ele>1758.178</ele>
        <time>2021-05-28T12:31:14Z</time>
      </trkpt>
      <trkpt lat="42.460813" lon="2.447778">
        <ele>1757.886</ele>
        <time>2021-05-28T12:31:16Z</time>
      </trkpt>
      <trkpt lat="42.460804" lon="2.447812">
        <ele>1757.260</ele>
        <time>2021-05-28T12:31:18Z</time>
      </trkpt>
      <trkpt lat="42.460780" lon="2.447829">
        <ele>1756.826</ele>
        <time>2021-05-28T12:31:20Z</time>
      </trkpt>
      <trkpt lat="42.460774" lon="2.447859">
        <ele>1756.308</ele>
        <time>2021-05-28T12:31:22Z</time>
      </trkpt>
      <trkpt lat="42.460771" lon="2.447891">
        <ele>1755.915</ele>
        <time>2021-05-28T12:31:25Z</time>
      </trkpt>
      <trkpt lat="42.460758" lon="2.447920">
        <ele>1755.462</ele>
        <time>2021-05-28T12:31:28Z</time>
      </trkpt>
      <trkpt lat="42.460733" lon="2.447918">
        <ele>1755.393</ele>
        <time>2021-05-28T12:31:35Z</time>
      </trkpt>
      <trkpt lat="42.460714" lon="2.447916">
        <ele>1755.192</ele>
        <time>2021-05-28T12:31:38Z</time>
      </trkpt>
      <trkpt lat="42.460694" lon="2.447901">
        <ele>1755.239</ele>
        <time>2021-05-28T12:31:49Z</time>
      </trkpt>
      <trkpt lat="42.460644" lon="2.447867">
        <ele>1755.134</ele>
        <time>2021-05-28T12:31:51Z</time>
      </trkpt>
      <trkpt lat="42.460623" lon="2.447856">
        <ele>1755.031</ele>
        <time>2021-05-28T12:31:52Z</time>
      </trkpt>
      <trkpt lat="42.460603" lon="2.447840">
        <ele>1755.079</ele>
        <time>2021-05-28T12:31:53Z</time>
      </trkpt>
      <trkpt lat="42.460582" lon="2.447825">
        <ele>1754.945</ele>
        <time>2021-05-28T12:31:54Z</time>
      </trkpt>
      <trkpt lat="42.460528" lon="2.447789">
        <ele>1754.647</ele>
        <time>2021-05-28T12:31:57Z</time>
      </trkpt>
      <trkpt lat="42.460507" lon="2.447777">
        <ele>1754.511</ele>
        <time>2021-05-28T12:31:58Z</time>
      </trkpt>
      <trkpt lat="42.460485" lon="2.447757">
        <ele>1754.508</ele>
        <time>2021-05-28T12:32:00Z</time>
      </trkpt>
      <trkpt lat="42.460468" lon="2.447746">
        <ele>1754.571</ele>
        <time>2021-05-28T12:32:01Z</time>
      </trkpt>
      <trkpt lat="42.460449" lon="2.447735">
        <ele>1754.438</ele>
        <time>2021-05-28T12:32:02Z</time>
      </trkpt>
      <trkpt lat="42.460431" lon="2.447721">
        <ele>1754.439</ele>
        <time>2021-05-28T12:32:03Z</time>
      </trkpt>
      <trkpt lat="42.460406" lon="2.447690">
        <ele>1754.588</ele>
        <time>2021-05-28T12:32:05Z</time>
      </trkpt>
      <trkpt lat="42.460387" lon="2.447669">
        <ele>1754.515</ele>
        <time>2021-05-28T12:32:06Z</time>
      </trkpt>
      <trkpt lat="42.460368" lon="2.447646">
        <ele>1754.650</ele>
        <time>2021-05-28T12:32:07Z</time>
      </trkpt>
      <trkpt lat="42.460352" lon="2.447622">
        <ele>1754.657</ele>
        <time>2021-05-28T12:32:08Z</time>
      </trkpt>
      <trkpt lat="42.460339" lon="2.447601">
        <ele>1754.755</ele>
        <time>2021-05-28T12:32:09Z</time>
      </trkpt>
      <trkpt lat="42.460328" lon="2.447576">
        <ele>1754.977</ele>
        <time>2021-05-28T12:32:10Z</time>
      </trkpt>
      <trkpt lat="42.460320" lon="2.447554">
        <ele>1755.061</ele>
        <time>2021-05-28T12:32:11Z</time>
      </trkpt>
      <trkpt lat="42.460312" lon="2.447503">
        <ele>1755.527</ele>
        <time>2021-05-28T12:32:13Z</time>
      </trkpt>
      <trkpt lat="42.460306" lon="2.447478">
        <ele>1755.708</ele>
        <time>2021-05-28T12:32:14Z</time>
      </trkpt>
      <trkpt lat="42.460297" lon="2.447431">
        <ele>1756.164</ele>
        <time>2021-05-28T12:32:16Z</time>
      </trkpt>
      <trkpt lat="42.460290" lon="2.447404">
        <ele>1756.391</ele>
        <time>2021-05-28T12:32:17Z</time>
      </trkpt>
      <trkpt lat="42.460282" lon="2.447376">
        <ele>1756.482</ele>
        <time>2021-05-28T12:32:18Z</time>
      </trkpt>
      <trkpt lat="42.460274" lon="2.447351">
        <ele>1756.591</ele>
        <time>2021-05-28T12:32:19Z</time>
      </trkpt>
      <trkpt lat="42.460262" lon="2.447325">
        <ele>1756.218</ele>
        <time>2021-05-28T12:32:20Z</time>
      </trkpt>
      <trkpt lat="42.460253" lon="2.447299">
        <ele>1756.213</ele>
        <time>2021-05-28T12:32:21Z</time>
      </trkpt>
      <trkpt lat="42.460246" lon="2.447277">
        <ele>1756.120</ele>
        <time>2021-05-28T12:32:22Z</time>
      </trkpt>
      <trkpt lat="42.460237" lon="2.447249">
        <ele>1756.168</ele>
        <time>2021-05-28T12:32:23Z</time>
      </trkpt>
      <trkpt lat="42.460230" lon="2.447221">
        <ele>1756.119</ele>
        <time>2021-05-28T12:32:24Z</time>
      </trkpt>
      <trkpt lat="42.460224" lon="2.447188">
        <ele>1756.609</ele>
        <time>2021-05-28T12:32:25Z</time>
      </trkpt>
      <trkpt lat="42.460217" lon="2.447162">
        <ele>1756.819</ele>
        <time>2021-05-28T12:32:26Z</time>
      </trkpt>
      <trkpt lat="42.460211" lon="2.447132">
        <ele>1757.208</ele>
        <time>2021-05-28T12:32:27Z</time>
      </trkpt>
      <trkpt lat="42.460203" lon="2.447099">
        <ele>1757.668</ele>
        <time>2021-05-28T12:32:28Z</time>
      </trkpt>
      <trkpt lat="42.460195" lon="2.447071">
        <ele>1757.915</ele>
        <time>2021-05-28T12:32:29Z</time>
      </trkpt>
      <trkpt lat="42.460183" lon="2.447043">
        <ele>1758.156</ele>
        <time>2021-05-28T12:32:30Z</time>
      </trkpt>
      <trkpt lat="42.460170" lon="2.447020">
        <ele>1758.215</ele>
        <time>2021-05-28T12:32:31Z</time>
      </trkpt>
      <trkpt lat="42.460156" lon="2.446996">
        <ele>1758.312</ele>
        <time>2021-05-28T12:32:32Z</time>
      </trkpt>
      <trkpt lat="42.460138" lon="2.446976">
        <ele>1758.297</ele>
        <time>2021-05-28T12:32:33Z</time>
      </trkpt>
      <trkpt lat="42.460122" lon="2.446958">
        <ele>1758.284</ele>
        <time>2021-05-28T12:32:34Z</time>
      </trkpt>
      <trkpt lat="42.460105" lon="2.446940">
        <ele>1758.172</ele>
        <time>2021-05-28T12:32:35Z</time>
      </trkpt>
      <trkpt lat="42.460088" lon="2.446921">
        <ele>1757.935</ele>
        <time>2021-05-28T12:32:36Z</time>
      </trkpt>
      <trkpt lat="42.460073" lon="2.446901">
        <ele>1757.786</ele>
        <time>2021-05-28T12:32:37Z</time>
      </trkpt>
      <trkpt lat="42.460058" lon="2.446883">
        <ele>1757.614</ele>
        <time>2021-05-28T12:32:38Z</time>
      </trkpt>
      <trkpt lat="42.460040" lon="2.446864">
        <ele>1757.308</ele>
        <time>2021-05-28T12:32:39Z</time>
      </trkpt>
      <trkpt lat="42.460023" lon="2.446842">
        <ele>1757.160</ele>
        <time>2021-05-28T12:32:40Z</time>
      </trkpt>
      <trkpt lat="42.460007" lon="2.446819">
        <ele>1757.057</ele>
        <time>2021-05-28T12:32:41Z</time>
      </trkpt>
      <trkpt lat="42.459997" lon="2.446794">
        <ele>1757.058</ele>
        <time>2021-05-28T12:32:42Z</time>
      </trkpt>
      <trkpt lat="42.459987" lon="2.446771">
        <ele>1756.957</ele>
        <time>2021-05-28T12:32:43Z</time>
      </trkpt>
      <trkpt lat="42.459977" lon="2.446749">
        <ele>1756.984</ele>
        <time>2021-05-28T12:32:44Z</time>
      </trkpt>
      <trkpt lat="42.459966" lon="2.446729">
        <ele>1756.749</ele>
        <time>2021-05-28T12:32:45Z</time>
      </trkpt>
      <trkpt lat="42.459956" lon="2.446681">
        <ele>1757.056</ele>
        <time>2021-05-28T12:32:47Z</time>
      </trkpt>
      <trkpt lat="42.459953" lon="2.446655">
        <ele>1757.214</ele>
        <time>2021-05-28T12:32:48Z</time>
      </trkpt>
      <trkpt lat="42.459950" lon="2.446628">
        <ele>1757.377</ele>
        <time>2021-05-28T12:32:49Z</time>
      </trkpt>
      <trkpt lat="42.459950" lon="2.446601">
        <ele>1757.461</ele>
        <time>2021-05-28T12:32:50Z</time>
      </trkpt>
      <trkpt lat="42.459950" lon="2.446574">
        <ele>1757.627</ele>
        <time>2021-05-28T12:32:51Z</time>
      </trkpt>
      <trkpt lat="42.459946" lon="2.446545">
        <ele>1757.608</ele>
        <time>2021-05-28T12:32:52Z</time>
      </trkpt>
      <trkpt lat="42.459942" lon="2.446519">
        <ele>1757.734</ele>
        <time>2021-05-28T12:32:53Z</time>
      </trkpt>
      <trkpt lat="42.459937" lon="2.446490">
        <ele>1757.721</ele>
        <time>2021-05-28T12:32:54Z</time>
      </trkpt>
      <trkpt lat="42.459934" lon="2.446463">
        <ele>1757.832</ele>
        <time>2021-05-28T12:32:55Z</time>
      </trkpt>
      <trkpt lat="42.459932" lon="2.446436">
        <ele>1758.081</ele>
        <time>2021-05-28T12:32:56Z</time>
      </trkpt>
      <trkpt lat="42.459931" lon="2.446408">
        <ele>1758.118</ele>
        <time>2021-05-28T12:32:57Z</time>
      </trkpt>
      <trkpt lat="42.459930" lon="2.446379">
        <ele>1758.353</ele>
        <time>2021-05-28T12:32:58Z</time>
      </trkpt>
      <trkpt lat="42.459907" lon="2.446342">
        <ele>1757.950</ele>
        <time>2021-05-28T12:33:00Z</time>
      </trkpt>
      <trkpt lat="42.459873" lon="2.446321">
        <ele>1757.228</ele>
        <time>2021-05-28T12:33:02Z</time>
      </trkpt>
      <trkpt lat="42.459851" lon="2.446314">
        <ele>1756.829</ele>
        <time>2021-05-28T12:33:03Z</time>
      </trkpt>
      <trkpt lat="42.459825" lon="2.446312">
        <ele>1756.300</ele>
        <time>2021-05-28T12:33:04Z</time>
      </trkpt>
      <trkpt lat="42.459805" lon="2.446308">
        <ele>1755.920</ele>
        <time>2021-05-28T12:33:05Z</time>
      </trkpt>
      <trkpt lat="42.459710" lon="2.446322">
        <ele>1754.308</ele>
        <time>2021-05-28T12:33:09Z</time>
      </trkpt>
      <trkpt lat="42.459676" lon="2.446362">
        <ele>1754.799</ele>
        <time>2021-05-28T12:33:11Z</time>
      </trkpt>
      <trkpt lat="42.459667" lon="2.446386">
        <ele>1754.686</ele>
        <time>2021-05-28T12:33:12Z</time>
      </trkpt>
      <trkpt lat="42.459652" lon="2.446404">
        <ele>1754.897</ele>
        <time>2021-05-28T12:33:13Z</time>
      </trkpt>
      <trkpt lat="42.459638" lon="2.446426">
        <ele>1754.856</ele>
        <time>2021-05-28T12:33:14Z</time>
      </trkpt>
      <trkpt lat="42.459630" lon="2.446451">
        <ele>1754.753</ele>
        <time>2021-05-28T12:33:15Z</time>
      </trkpt>
      <trkpt lat="42.459621" lon="2.446477">
        <ele>1754.678</ele>
        <time>2021-05-28T12:33:16Z</time>
      </trkpt>
      <trkpt lat="42.459607" lon="2.446503">
        <ele>1754.615</ele>
        <time>2021-05-28T12:33:17Z</time>
      </trkpt>
      <trkpt lat="42.459595" lon="2.446529">
        <ele>1754.643</ele>
        <time>2021-05-28T12:33:18Z</time>
      </trkpt>
      <trkpt lat="42.459580" lon="2.446555">
        <ele>1754.727</ele>
        <time>2021-05-28T12:33:19Z</time>
      </trkpt>
      <trkpt lat="42.459560" lon="2.446608">
        <ele>1754.668</ele>
        <time>2021-05-28T12:33:21Z</time>
      </trkpt>
      <trkpt lat="42.459551" lon="2.446632">
        <ele>1754.614</ele>
        <time>2021-05-28T12:33:22Z</time>
      </trkpt>
      <trkpt lat="42.459543" lon="2.446655">
        <ele>1754.608</ele>
        <time>2021-05-28T12:33:23Z</time>
      </trkpt>
      <trkpt lat="42.459530" lon="2.446677">
        <ele>1754.899</ele>
        <time>2021-05-28T12:33:24Z</time>
      </trkpt>
      <trkpt lat="42.459515" lon="2.446700">
        <ele>1755.156</ele>
        <time>2021-05-28T12:33:25Z</time>
      </trkpt>
      <trkpt lat="42.459503" lon="2.446721">
        <ele>1755.337</ele>
        <time>2021-05-28T12:33:26Z</time>
      </trkpt>
      <trkpt lat="42.459487" lon="2.446743">
        <ele>1755.896</ele>
        <time>2021-05-28T12:33:27Z</time>
      </trkpt>
      <trkpt lat="42.459475" lon="2.446766">
        <ele>1756.033</ele>
        <time>2021-05-28T12:33:28Z</time>
      </trkpt>
      <trkpt lat="42.459459" lon="2.446787">
        <ele>1756.578</ele>
        <time>2021-05-28T12:33:29Z</time>
      </trkpt>
      <trkpt lat="42.459442" lon="2.446807">
        <ele>1757.075</ele>
        <time>2021-05-28T12:33:30Z</time>
      </trkpt>
      <trkpt lat="42.459428" lon="2.446825">
        <ele>1757.143</ele>
        <time>2021-05-28T12:33:31Z</time>
      </trkpt>
      <trkpt lat="42.459412" lon="2.446841">
        <ele>1757.218</ele>
        <time>2021-05-28T12:33:32Z</time>
      </trkpt>
      <trkpt lat="42.459392" lon="2.446853">
        <ele>1757.398</ele>
        <time>2021-05-28T12:33:33Z</time>
      </trkpt>
      <trkpt lat="42.459371" lon="2.446869">
        <ele>1757.517</ele>
        <time>2021-05-28T12:33:34Z</time>
      </trkpt>
      <trkpt lat="42.459354" lon="2.446884">
        <ele>1757.608</ele>
        <time>2021-05-28T12:33:35Z</time>
      </trkpt>
      <trkpt lat="42.459337" lon="2.446900">
        <ele>1757.688</ele>
        <time>2021-05-28T12:33:36Z</time>
      </trkpt>
      <trkpt lat="42.459316" lon="2.446912">
        <ele>1757.735</ele>
        <time>2021-05-28T12:33:37Z</time>
      </trkpt>
      <trkpt lat="42.459301" lon="2.446932">
        <ele>1757.746</ele>
        <time>2021-05-28T12:33:38Z</time>
      </trkpt>
      <trkpt lat="42.459288" lon="2.446950">
        <ele>1757.675</ele>
        <time>2021-05-28T12:33:39Z</time>
      </trkpt>
      <trkpt lat="42.459272" lon="2.446967">
        <ele>1757.642</ele>
        <time>2021-05-28T12:33:40Z</time>
      </trkpt>
      <trkpt lat="42.459256" lon="2.446984">
        <ele>1757.687</ele>
        <time>2021-05-28T12:33:41Z</time>
      </trkpt>
      <trkpt lat="42.459242" lon="2.447002">
        <ele>1757.644</ele>
        <time>2021-05-28T12:33:42Z</time>
      </trkpt>
      <trkpt lat="42.459224" lon="2.447019">
        <ele>1757.672</ele>
        <time>2021-05-28T12:33:43Z</time>
      </trkpt>
      <trkpt lat="42.459203" lon="2.447038">
        <ele>1757.613</ele>
        <time>2021-05-28T12:33:44Z</time>
      </trkpt>
      <trkpt lat="42.459185" lon="2.447056">
        <ele>1757.643</ele>
        <time>2021-05-28T12:33:45Z</time>
      </trkpt>
      <trkpt lat="42.459166" lon="2.447074">
        <ele>1757.607</ele>
        <time>2021-05-28T12:33:46Z</time>
      </trkpt>
      <trkpt lat="42.459152" lon="2.447091">
        <ele>1757.608</ele>
        <time>2021-05-28T12:33:47Z</time>
      </trkpt>
      <trkpt lat="42.459137" lon="2.447111">
        <ele>1757.578</ele>
        <time>2021-05-28T12:33:48Z</time>
      </trkpt>
      <trkpt lat="42.459119" lon="2.447130">
        <ele>1757.565</ele>
        <time>2021-05-28T12:33:49Z</time>
      </trkpt>
      <trkpt lat="42.459103" lon="2.447149">
        <ele>1757.416</ele>
        <time>2021-05-28T12:33:50Z</time>
      </trkpt>
      <trkpt lat="42.459085" lon="2.447171">
        <ele>1757.385</ele>
        <time>2021-05-28T12:33:51Z</time>
      </trkpt>
      <trkpt lat="42.459069" lon="2.447188">
        <ele>1757.292</ele>
        <time>2021-05-28T12:33:52Z</time>
      </trkpt>
      <trkpt lat="42.459051" lon="2.447205">
        <ele>1757.127</ele>
        <time>2021-05-28T12:33:53Z</time>
      </trkpt>
      <trkpt lat="42.459034" lon="2.447220">
        <ele>1757.034</ele>
        <time>2021-05-28T12:33:54Z</time>
      </trkpt>
      <trkpt lat="42.459013" lon="2.447235">
        <ele>1756.962</ele>
        <time>2021-05-28T12:33:55Z</time>
      </trkpt>
      <trkpt lat="42.458991" lon="2.447248">
        <ele>1756.828</ele>
        <time>2021-05-28T12:33:56Z</time>
      </trkpt>
      <trkpt lat="42.458976" lon="2.447264">
        <ele>1756.689</ele>
        <time>2021-05-28T12:33:57Z</time>
      </trkpt>
      <trkpt lat="42.458960" lon="2.447278">
        <ele>1756.317</ele>
        <time>2021-05-28T12:33:58Z</time>
      </trkpt>
      <trkpt lat="42.458941" lon="2.447290">
        <ele>1756.108</ele>
        <time>2021-05-28T12:33:59Z</time>
      </trkpt>
      <trkpt lat="42.458924" lon="2.447304">
        <ele>1755.949</ele>
        <time>2021-05-28T12:34:00Z</time>
      </trkpt>
      <trkpt lat="42.458905" lon="2.447317">
        <ele>1755.696</ele>
        <time>2021-05-28T12:34:01Z</time>
      </trkpt>
      <trkpt lat="42.458885" lon="2.447330">
        <ele>1755.437</ele>
        <time>2021-05-28T12:34:02Z</time>
      </trkpt>
      <trkpt lat="42.458861" lon="2.447366">
        <ele>1755.196</ele>
        <time>2021-05-28T12:34:04Z</time>
      </trkpt>
      <trkpt lat="42.458846" lon="2.447382">
        <ele>1755.113</ele>
        <time>2021-05-28T12:34:05Z</time>
      </trkpt>
      <trkpt lat="42.458828" lon="2.447397">
        <ele>1755.178</ele>
        <time>2021-05-28T12:34:06Z</time>
      </trkpt>
      <trkpt lat="42.458813" lon="2.447416">
        <ele>1755.065</ele>
        <time>2021-05-28T12:34:07Z</time>
      </trkpt>
      <trkpt lat="42.458777" lon="2.447445">
        <ele>1755.253</ele>
        <time>2021-05-28T12:34:09Z</time>
      </trkpt>
      <trkpt lat="42.458756" lon="2.447462">
        <ele>1755.369</ele>
        <time>2021-05-28T12:34:10Z</time>
      </trkpt>
      <trkpt lat="42.458737" lon="2.447480">
        <ele>1755.304</ele>
        <time>2021-05-28T12:34:11Z</time>
      </trkpt>
      <trkpt lat="42.458718" lon="2.447496">
        <ele>1755.424</ele>
        <time>2021-05-28T12:34:12Z</time>
      </trkpt>
      <trkpt lat="42.458704" lon="2.447511">
        <ele>1755.408</ele>
        <time>2021-05-28T12:34:13Z</time>
      </trkpt>
      <trkpt lat="42.458690" lon="2.447529">
        <ele>1755.433</ele>
        <time>2021-05-28T12:34:14Z</time>
      </trkpt>
      <trkpt lat="42.458670" lon="2.447543">
        <ele>1755.610</ele>
        <time>2021-05-28T12:34:15Z</time>
      </trkpt>
      <trkpt lat="42.458653" lon="2.447566">
        <ele>1755.461</ele>
        <time>2021-05-28T12:34:16Z</time>
      </trkpt>
      <trkpt lat="42.458637" lon="2.447586">
        <ele>1755.340</ele>
        <time>2021-05-28T12:34:17Z</time>
      </trkpt>
      <trkpt lat="42.458619" lon="2.447606">
        <ele>1755.237</ele>
        <time>2021-05-28T12:34:18Z</time>
      </trkpt>
      <trkpt lat="42.458590" lon="2.447649">
        <ele>1755.072</ele>
        <time>2021-05-28T12:34:20Z</time>
      </trkpt>
      <trkpt lat="42.458579" lon="2.447669">
        <ele>1755.059</ele>
        <time>2021-05-28T12:34:21Z</time>
      </trkpt>
      <trkpt lat="42.458545" lon="2.447730">
        <ele>1754.867</ele>
        <time>2021-05-28T12:34:24Z</time>
      </trkpt>
      <trkpt lat="42.458518" lon="2.447774">
        <ele>1754.842</ele>
        <time>2021-05-28T12:34:26Z</time>
      </trkpt>
      <trkpt lat="42.458505" lon="2.447793">
        <ele>1755.022</ele>
        <time>2021-05-28T12:34:27Z</time>
      </trkpt>
      <trkpt lat="42.458485" lon="2.447836">
        <ele>1755.214</ele>
        <time>2021-05-28T12:34:29Z</time>
      </trkpt>
      <trkpt lat="42.458471" lon="2.447857">
        <ele>1755.408</ele>
        <time>2021-05-28T12:34:30Z</time>
      </trkpt>
      <trkpt lat="42.458453" lon="2.447899">
        <ele>1755.591</ele>
        <time>2021-05-28T12:34:32Z</time>
      </trkpt>
      <trkpt lat="42.458441" lon="2.447921">
        <ele>1755.788</ele>
        <time>2021-05-28T12:34:33Z</time>
      </trkpt>
      <trkpt lat="42.458429" lon="2.447944">
        <ele>1755.829</ele>
        <time>2021-05-28T12:34:34Z</time>
      </trkpt>
      <trkpt lat="42.458412" lon="2.447964">
        <ele>1756.288</ele>
        <time>2021-05-28T12:34:35Z</time>
      </trkpt>
      <trkpt lat="42.458401" lon="2.447986">
        <ele>1756.315</ele>
        <time>2021-05-28T12:34:36Z</time>
      </trkpt>
      <trkpt lat="42.458386" lon="2.448008">
        <ele>1756.630</ele>
        <time>2021-05-28T12:34:37Z</time>
      </trkpt>
      <trkpt lat="42.458373" lon="2.448028">
        <ele>1756.867</ele>
        <time>2021-05-28T12:34:38Z</time>
      </trkpt>
      <trkpt lat="42.458364" lon="2.448051">
        <ele>1756.915</ele>
        <time>2021-05-28T12:34:39Z</time>
      </trkpt>
      <trkpt lat="42.458356" lon="2.448074">
        <ele>1756.841</ele>
        <time>2021-05-28T12:34:40Z</time>
      </trkpt>
      <trkpt lat="42.458352" lon="2.448100">
        <ele>1756.681</ele>
        <time>2021-05-28T12:34:41Z</time>
      </trkpt>
      <trkpt lat="42.458345" lon="2.448128">
        <ele>1756.509</ele>
        <time>2021-05-28T12:34:42Z</time>
      </trkpt>
      <trkpt lat="42.458338" lon="2.448152">
        <ele>1756.408</ele>
        <time>2021-05-28T12:34:43Z</time>
      </trkpt>
      <trkpt lat="42.458333" lon="2.448177">
        <ele>1756.391</ele>
        <time>2021-05-28T12:34:44Z</time>
      </trkpt>
      <trkpt lat="42.458326" lon="2.448202">
        <ele>1756.158</ele>
        <time>2021-05-28T12:34:45Z</time>
      </trkpt>
      <trkpt lat="42.458321" lon="2.448227">
        <ele>1755.959</ele>
        <time>2021-05-28T12:34:46Z</time>
      </trkpt>
      <trkpt lat="42.458318" lon="2.448254">
        <ele>1755.758</ele>
        <time>2021-05-28T12:34:47Z</time>
      </trkpt>
      <trkpt lat="42.458315" lon="2.448302">
        <ele>1755.115</ele>
        <time>2021-05-28T12:34:49Z</time>
      </trkpt>
      <trkpt lat="42.458310" lon="2.448331">
        <ele>1754.870</ele>
        <time>2021-05-28T12:34:50Z</time>
      </trkpt>
      <trkpt lat="42.458301" lon="2.448357">
        <ele>1754.967</ele>
        <time>2021-05-28T12:34:51Z</time>
      </trkpt>
      <trkpt lat="42.458296" lon="2.448380">
        <ele>1754.845</ele>
        <time>2021-05-28T12:34:52Z</time>
      </trkpt>
      <trkpt lat="42.458291" lon="2.448404">
        <ele>1754.868</ele>
        <time>2021-05-28T12:34:53Z</time>
      </trkpt>
      <trkpt lat="42.458285" lon="2.448428">
        <ele>1754.842</ele>
        <time>2021-05-28T12:34:54Z</time>
      </trkpt>
      <trkpt lat="42.458280" lon="2.448454">
        <ele>1754.726</ele>
        <time>2021-05-28T12:34:55Z</time>
      </trkpt>
      <trkpt lat="42.458259" lon="2.448507">
        <ele>1754.808</ele>
        <time>2021-05-28T12:34:57Z</time>
      </trkpt>
      <trkpt lat="42.458250" lon="2.448533">
        <ele>1754.873</ele>
        <time>2021-05-28T12:34:58Z</time>
      </trkpt>
      <trkpt lat="42.458238" lon="2.448560">
        <ele>1754.920</ele>
        <time>2021-05-28T12:34:59Z</time>
      </trkpt>
      <trkpt lat="42.458227" lon="2.448582">
        <ele>1755.031</ele>
        <time>2021-05-28T12:35:00Z</time>
      </trkpt>
      <trkpt lat="42.458215" lon="2.448606">
        <ele>1755.090</ele>
        <time>2021-05-28T12:35:01Z</time>
      </trkpt>
      <trkpt lat="42.458205" lon="2.448632">
        <ele>1755.067</ele>
        <time>2021-05-28T12:35:02Z</time>
      </trkpt>
      <trkpt lat="42.458193" lon="2.448659">
        <ele>1755.042</ele>
        <time>2021-05-28T12:35:03Z</time>
      </trkpt>
      <trkpt lat="42.458182" lon="2.448685">
        <ele>1755.049</ele>
        <time>2021-05-28T12:35:04Z</time>
      </trkpt>
      <trkpt lat="42.458168" lon="2.448708">
        <ele>1755.177</ele>
        <time>2021-05-28T12:35:05Z</time>
      </trkpt>
      <trkpt lat="42.458155" lon="2.448732">
        <ele>1755.286</ele>
        <time>2021-05-28T12:35:06Z</time>
      </trkpt>
      <trkpt lat="42.458142" lon="2.448754">
        <ele>1755.360</ele>
        <time>2021-05-28T12:35:07Z</time>
      </trkpt>
      <trkpt lat="42.458131" lon="2.448779">
        <ele>1755.326</ele>
        <time>2021-05-28T12:35:08Z</time>
      </trkpt>
      <trkpt lat="42.458119" lon="2.448804">
        <ele>1755.308</ele>
        <time>2021-05-28T12:35:09Z</time>
      </trkpt>
      <trkpt lat="42.458107" lon="2.448829">
        <ele>1755.395</ele>
        <time>2021-05-28T12:35:10Z</time>
      </trkpt>
      <trkpt lat="42.458095" lon="2.448853">
        <ele>1755.462</ele>
        <time>2021-05-28T12:35:11Z</time>
      </trkpt>
      <trkpt lat="42.458083" lon="2.448875">
        <ele>1755.513</ele>
        <time>2021-05-28T12:35:12Z</time>
      </trkpt>
      <trkpt lat="42.458073" lon="2.448898">
        <ele>1755.672</ele>
        <time>2021-05-28T12:35:13Z</time>
      </trkpt>
      <trkpt lat="42.458049" lon="2.448947">
        <ele>1756.289</ele>
        <time>2021-05-28T12:35:15Z</time>
      </trkpt>
      <trkpt lat="42.458036" lon="2.448971">
        <ele>1756.414</ele>
        <time>2021-05-28T12:35:16Z</time>
      </trkpt>
      <trkpt lat="42.458026" lon="2.448995">
        <ele>1756.611</ele>
        <time>2021-05-28T12:35:17Z</time>
      </trkpt>
      <trkpt lat="42.458018" lon="2.449018">
        <ele>1756.839</ele>
        <time>2021-05-28T12:35:18Z</time>
      </trkpt>
      <trkpt lat="42.458007" lon="2.449038">
        <ele>1756.991</ele>
        <time>2021-05-28T12:35:19Z</time>
      </trkpt>
      <trkpt lat="42.457994" lon="2.449061">
        <ele>1757.181</ele>
        <time>2021-05-28T12:35:20Z</time>
      </trkpt>
      <trkpt lat="42.457972" lon="2.449099">
        <ele>1757.419</ele>
        <time>2021-05-28T12:35:22Z</time>
      </trkpt>
      <trkpt lat="42.457959" lon="2.449117">
        <ele>1757.608</ele>
        <time>2021-05-28T12:35:23Z</time>
      </trkpt>
      <trkpt lat="42.457942" lon="2.449136">
        <ele>1757.836</ele>
        <time>2021-05-28T12:35:24Z</time>
      </trkpt>
      <trkpt lat="42.457926" lon="2.449155">
        <ele>1757.923</ele>
        <time>2021-05-28T12:35:25Z</time>
      </trkpt>
      <trkpt lat="42.457910" lon="2.449174">
        <ele>1758.274</ele>
        <time>2021-05-28T12:35:26Z</time>
      </trkpt>
      <trkpt lat="42.457895" lon="2.449191">
        <ele>1758.513</ele>
        <time>2021-05-28T12:35:27Z</time>
      </trkpt>
      <trkpt lat="42.457882" lon="2.449210">
        <ele>1758.910</ele>
        <time>2021-05-28T12:35:28Z</time>
      </trkpt>
      <trkpt lat="42.457868" lon="2.449229">
        <ele>1759.365</ele>
        <time>2021-05-28T12:35:29Z</time>
      </trkpt>
      <trkpt lat="42.457850" lon="2.449271">
        <ele>1760.062</ele>
        <time>2021-05-28T12:35:31Z</time>
      </trkpt>
      <trkpt lat="42.457827" lon="2.449342">
        <ele>1761.130</ele>
        <time>2021-05-28T12:35:34Z</time>
      </trkpt>
      <trkpt lat="42.457818" lon="2.449365">
        <ele>1761.514</ele>
        <time>2021-05-28T12:35:35Z</time>
      </trkpt>
      <trkpt lat="42.457807" lon="2.449390">
        <ele>1761.954</ele>
        <time>2021-05-28T12:35:36Z</time>
      </trkpt>
      <trkpt lat="42.457782" lon="2.449426">
        <ele>1762.709</ele>
        <time>2021-05-28T12:35:38Z</time>
      </trkpt>
      <trkpt lat="42.457769" lon="2.449443">
        <ele>1762.908</ele>
        <time>2021-05-28T12:35:39Z</time>
      </trkpt>
      <trkpt lat="42.457742" lon="2.449468">
        <ele>1762.718</ele>
        <time>2021-05-28T12:35:41Z</time>
      </trkpt>
      <trkpt lat="42.457716" lon="2.449454">
        <ele>1762.265</ele>
        <time>2021-05-28T12:35:43Z</time>
      </trkpt>
      <trkpt lat="42.457699" lon="2.449443">
        <ele>1761.996</ele>
        <time>2021-05-28T12:35:44Z</time>
      </trkpt>
      <trkpt lat="42.457677" lon="2.449428">
        <ele>1761.555</ele>
        <time>2021-05-28T12:35:46Z</time>
      </trkpt>
      <trkpt lat="42.457662" lon="2.449400">
        <ele>1761.212</ele>
        <time>2021-05-28T12:35:49Z</time>
      </trkpt>
      <trkpt lat="42.457663" lon="2.449368">
        <ele>1761.177</ele>
        <time>2021-05-28T12:35:53Z</time>
      </trkpt>
      <trkpt lat="42.457670" lon="2.449340">
        <ele>1761.094</ele>
        <time>2021-05-28T12:35:56Z</time>
      </trkpt>
      <trkpt lat="42.457658" lon="2.449312">
        <ele>1760.972</ele>
        <time>2021-05-28T12:36:05Z</time>
      </trkpt>
      <trkpt lat="42.457643" lon="2.449290">
        <ele>1760.783</ele>
        <time>2021-05-28T12:36:07Z</time>
      </trkpt>
      <trkpt lat="42.457632" lon="2.449263">
        <ele>1760.725</ele>
        <time>2021-05-28T12:36:08Z</time>
      </trkpt>
      <trkpt lat="42.457618" lon="2.449234">
        <ele>1760.617</ele>
        <time>2021-05-28T12:36:10Z</time>
      </trkpt>
      <trkpt lat="42.457604" lon="2.449208">
        <ele>1760.608</ele>
        <time>2021-05-28T12:36:12Z</time>
      </trkpt>
      <trkpt lat="42.457588" lon="2.449186">
        <ele>1760.755</ele>
        <time>2021-05-28T12:36:14Z</time>
      </trkpt>
      <trkpt lat="42.457574" lon="2.449163">
        <ele>1760.872</ele>
        <time>2021-05-28T12:36:16Z</time>
      </trkpt>
      <trkpt lat="42.457561" lon="2.449135">
        <ele>1761.293</ele>
        <time>2021-05-28T12:36:18Z</time>
      </trkpt>
      <trkpt lat="42.457556" lon="2.449109">
        <ele>1761.662</ele>
        <time>2021-05-28T12:36:20Z</time>
      </trkpt>
      <trkpt lat="42.457549" lon="2.449076">
        <ele>1762.169</ele>
        <time>2021-05-28T12:36:22Z</time>
      </trkpt>
      <trkpt lat="42.457539" lon="2.449044">
        <ele>1762.634</ele>
        <time>2021-05-28T12:36:24Z</time>
      </trkpt>
      <trkpt lat="42.457527" lon="2.449021">
        <ele>1762.921</ele>
        <time>2021-05-28T12:36:26Z</time>
      </trkpt>
      <trkpt lat="42.457514" lon="2.449003">
        <ele>1763.399</ele>
        <time>2021-05-28T12:36:28Z</time>
      </trkpt>
      <trkpt lat="42.457501" lon="2.448977">
        <ele>1763.775</ele>
        <time>2021-05-28T12:36:31Z</time>
      </trkpt>
      <trkpt lat="42.457488" lon="2.448950">
        <ele>1764.028</ele>
        <time>2021-05-28T12:36:33Z</time>
      </trkpt>
      <trkpt lat="42.457473" lon="2.448931">
        <ele>1764.220</ele>
        <time>2021-05-28T12:36:35Z</time>
      </trkpt>
      <trkpt lat="42.457452" lon="2.448921">
        <ele>1764.208</ele>
        <time>2021-05-28T12:36:37Z</time>
      </trkpt>
      <trkpt lat="42.457433" lon="2.448910">
        <ele>1764.224</ele>
        <time>2021-05-28T12:36:39Z</time>
      </trkpt>
      <trkpt lat="42.457422" lon="2.448887">
        <ele>1764.581</ele>
        <time>2021-05-28T12:36:42Z</time>
      </trkpt>
      <trkpt lat="42.457407" lon="2.448866">
        <ele>1764.932</ele>
        <time>2021-05-28T12:36:46Z</time>
      </trkpt>
      <trkpt lat="42.457400" lon="2.448833">
        <ele>1765.721</ele>
        <time>2021-05-28T12:36:51Z</time>
      </trkpt>
      <trkpt lat="42.457395" lon="2.448810">
        <ele>1766.368</ele>
        <time>2021-05-28T12:36:53Z</time>
      </trkpt>
      <trkpt lat="42.457383" lon="2.448781">
        <ele>1767.023</ele>
        <time>2021-05-28T12:36:55Z</time>
      </trkpt>
      <trkpt lat="42.457370" lon="2.448759">
        <ele>1767.540</ele>
        <time>2021-05-28T12:36:57Z</time>
      </trkpt>
      <trkpt lat="42.457352" lon="2.448746">
        <ele>1767.848</ele>
        <time>2021-05-28T12:36:59Z</time>
      </trkpt>
      <trkpt lat="42.457338" lon="2.448729">
        <ele>1768.317</ele>
        <time>2021-05-28T12:37:01Z</time>
      </trkpt>
      <trkpt lat="42.457323" lon="2.448709">
        <ele>1768.887</ele>
        <time>2021-05-28T12:37:03Z</time>
      </trkpt>
      <trkpt lat="42.457312" lon="2.448685">
        <ele>1769.515</ele>
        <time>2021-05-28T12:37:05Z</time>
      </trkpt>
      <trkpt lat="42.457318" lon="2.448650">
        <ele>1770.508</ele>
        <time>2021-05-28T12:37:08Z</time>
      </trkpt>
      <trkpt lat="42.457327" lon="2.448618">
        <ele>1771.468</ele>
        <time>2021-05-28T12:37:11Z</time>
      </trkpt>
      <trkpt lat="42.457312" lon="2.448590">
        <ele>1772.315</ele>
        <time>2021-05-28T12:37:14Z</time>
      </trkpt>
      <trkpt lat="42.457295" lon="2.448564">
        <ele>1773.296</ele>
        <time>2021-05-28T12:37:17Z</time>
      </trkpt>
      <trkpt lat="42.457275" lon="2.448551">
        <ele>1773.735</ele>
        <time>2021-05-28T12:37:20Z</time>
      </trkpt>
      <trkpt lat="42.457259" lon="2.448537">
        <ele>1774.212</ele>
        <time>2021-05-28T12:37:22Z</time>
      </trkpt>
      <trkpt lat="42.457251" lon="2.448514">
        <ele>1775.067</ele>
        <time>2021-05-28T12:37:25Z</time>
      </trkpt>
      <trkpt lat="42.457250" lon="2.448481">
        <ele>1776.144</ele>
        <time>2021-05-28T12:37:28Z</time>
      </trkpt>
      <trkpt lat="42.457249" lon="2.448450">
        <ele>1777.152</ele>
        <time>2021-05-28T12:37:31Z</time>
      </trkpt>
      <trkpt lat="42.457239" lon="2.448426">
        <ele>1777.933</ele>
        <time>2021-05-28T12:37:34Z</time>
      </trkpt>
      <trkpt lat="42.457228" lon="2.448393">
        <ele>1779.023</ele>
        <time>2021-05-28T12:37:38Z</time>
      </trkpt>
      <trkpt lat="42.457217" lon="2.448362">
        <ele>1780.015</ele>
        <time>2021-05-28T12:37:40Z</time>
      </trkpt>
      <trkpt lat="42.457204" lon="2.448330">
        <ele>1780.808</ele>
        <time>2021-05-28T12:37:43Z</time>
      </trkpt>
      <trkpt lat="42.457189" lon="2.448310">
        <ele>1781.110</ele>
        <time>2021-05-28T12:37:45Z</time>
      </trkpt>
      <trkpt lat="42.457170" lon="2.448290">
        <ele>1781.347</ele>
        <time>2021-05-28T12:37:48Z</time>
      </trkpt>
      <trkpt lat="42.457159" lon="2.448269">
        <ele>1781.618</ele>
        <time>2021-05-28T12:37:51Z</time>
      </trkpt>
      <trkpt lat="42.457153" lon="2.448246">
        <ele>1782.167</ele>
        <time>2021-05-28T12:37:54Z</time>
      </trkpt>
      <trkpt lat="42.457141" lon="2.448219">
        <ele>1782.714</ele>
        <time>2021-05-28T12:37:57Z</time>
      </trkpt>
      <trkpt lat="42.457125" lon="2.448201">
        <ele>1783.029</ele>
        <time>2021-05-28T12:37:59Z</time>
      </trkpt>
      <trkpt lat="42.457118" lon="2.448167">
        <ele>1783.896</ele>
        <time>2021-05-28T12:38:02Z</time>
      </trkpt>
      <trkpt lat="42.457112" lon="2.448135">
        <ele>1784.574</ele>
        <time>2021-05-28T12:38:06Z</time>
      </trkpt>
      <trkpt lat="42.457101" lon="2.448114">
        <ele>1785.029</ele>
        <time>2021-05-28T12:38:08Z</time>
      </trkpt>
      <trkpt lat="42.457087" lon="2.448099">
        <ele>1785.300</ele>
        <time>2021-05-28T12:38:10Z</time>
      </trkpt>
      <trkpt lat="42.457072" lon="2.448081">
        <ele>1785.820</ele>
        <time>2021-05-28T12:38:12Z</time>
      </trkpt>
      <trkpt lat="42.457055" lon="2.448061">
        <ele>1786.208</ele>
        <time>2021-05-28T12:38:15Z</time>
      </trkpt>
      <trkpt lat="42.457040" lon="2.448039">
        <ele>1786.899</ele>
        <time>2021-05-28T12:38:19Z</time>
      </trkpt>
      <trkpt lat="42.457029" lon="2.448016">
        <ele>1787.436</ele>
        <time>2021-05-28T12:38:23Z</time>
      </trkpt>
      <trkpt lat="42.457023" lon="2.447991">
        <ele>1788.187</ele>
        <time>2021-05-28T12:38:27Z</time>
      </trkpt>
      <trkpt lat="42.457024" lon="2.447956">
        <ele>1789.146</ele>
        <time>2021-05-28T12:38:29Z</time>
      </trkpt>
      <trkpt lat="42.457016" lon="2.447928">
        <ele>1789.823</ele>
        <time>2021-05-28T12:38:33Z</time>
      </trkpt>
      <trkpt lat="42.456998" lon="2.447909">
        <ele>1790.398</ele>
        <time>2021-05-28T12:38:36Z</time>
      </trkpt>
      <trkpt lat="42.456981" lon="2.447886">
        <ele>1790.925</ele>
        <time>2021-05-28T12:38:38Z</time>
      </trkpt>
      <trkpt lat="42.456966" lon="2.447872">
        <ele>1791.333</ele>
        <time>2021-05-28T12:38:40Z</time>
      </trkpt>
      <trkpt lat="42.456957" lon="2.447846">
        <ele>1792.054</ele>
        <time>2021-05-28T12:38:43Z</time>
      </trkpt>
      <trkpt lat="42.456949" lon="2.447819">
        <ele>1792.856</ele>
        <time>2021-05-28T12:38:47Z</time>
      </trkpt>
      <trkpt lat="42.456937" lon="2.447801">
        <ele>1793.111</ele>
        <time>2021-05-28T12:38:51Z</time>
      </trkpt>
      <trkpt lat="42.456923" lon="2.447774">
        <ele>1793.408</ele>
        <time>2021-05-28T12:38:53Z</time>
      </trkpt>
      <trkpt lat="42.456914" lon="2.447745">
        <ele>1794.032</ele>
        <time>2021-05-28T12:38:56Z</time>
      </trkpt>
      <trkpt lat="42.456906" lon="2.447716">
        <ele>1794.679</ele>
        <time>2021-05-28T12:38:59Z</time>
      </trkpt>
      <trkpt lat="42.456888" lon="2.447694">
        <ele>1794.680</ele>
        <time>2021-05-28T12:39:02Z</time>
      </trkpt>
      <trkpt lat="42.456878" lon="2.447671">
        <ele>1795.049</ele>
        <time>2021-05-28T12:39:06Z</time>
      </trkpt>
      <trkpt lat="42.456863" lon="2.447650">
        <ele>1795.216</ele>
        <time>2021-05-28T12:39:09Z</time>
      </trkpt>
      <trkpt lat="42.456855" lon="2.447622">
        <ele>1795.891</ele>
        <time>2021-05-28T12:39:11Z</time>
      </trkpt>
      <trkpt lat="42.456846" lon="2.447593">
        <ele>1796.478</ele>
        <time>2021-05-28T12:39:13Z</time>
      </trkpt>
      <trkpt lat="42.456840" lon="2.447565">
        <ele>1797.026</ele>
        <time>2021-05-28T12:39:16Z</time>
      </trkpt>
      <trkpt lat="42.456830" lon="2.447538">
        <ele>1797.665</ele>
        <time>2021-05-28T12:39:21Z</time>
      </trkpt>
      <trkpt lat="42.456831" lon="2.447512">
        <ele>1798.468</ele>
        <time>2021-05-28T12:39:24Z</time>
      </trkpt>
      <trkpt lat="42.456831" lon="2.447484">
        <ele>1799.314</ele>
        <time>2021-05-28T12:39:28Z</time>
      </trkpt>
      <trkpt lat="42.456825" lon="2.447452">
        <ele>1800.308</ele>
        <time>2021-05-28T12:39:32Z</time>
      </trkpt>
      <trkpt lat="42.456810" lon="2.447431">
        <ele>1800.643</ele>
        <time>2021-05-28T12:39:34Z</time>
      </trkpt>
      <trkpt lat="42.456802" lon="2.447408">
        <ele>1801.250</ele>
        <time>2021-05-28T12:39:36Z</time>
      </trkpt>
      <trkpt lat="42.456786" lon="2.447370">
        <ele>1802.141</ele>
        <time>2021-05-28T12:39:40Z</time>
      </trkpt>
      <trkpt lat="42.456771" lon="2.447352">
        <ele>1802.320</ele>
        <time>2021-05-28T12:39:43Z</time>
      </trkpt>
      <trkpt lat="42.456761" lon="2.447331">
        <ele>1802.887</ele>
        <time>2021-05-28T12:39:47Z</time>
      </trkpt>
      <trkpt lat="42.456750" lon="2.447311">
        <ele>1803.232</ele>
        <time>2021-05-28T12:39:50Z</time>
      </trkpt>
      <trkpt lat="42.456739" lon="2.447286">
        <ele>1803.859</ele>
        <time>2021-05-28T12:39:53Z</time>
      </trkpt>
      <trkpt lat="42.456736" lon="2.447258">
        <ele>1804.747</ele>
        <time>2021-05-28T12:39:55Z</time>
      </trkpt>
      <trkpt lat="42.456722" lon="2.447223">
        <ele>1805.692</ele>
        <time>2021-05-28T12:39:59Z</time>
      </trkpt>
      <trkpt lat="42.456716" lon="2.447190">
        <ele>1806.673</ele>
        <time>2021-05-28T12:40:02Z</time>
      </trkpt>
      <trkpt lat="42.456706" lon="2.447169">
        <ele>1807.020</ele>
        <time>2021-05-28T12:40:04Z</time>
      </trkpt>
      <trkpt lat="42.456685" lon="2.447142">
        <ele>1807.408</ele>
        <time>2021-05-28T12:40:08Z</time>
      </trkpt>
      <trkpt lat="42.456672" lon="2.447121">
        <ele>1807.876</ele>
        <time>2021-05-28T12:40:09Z</time>
      </trkpt>
      <trkpt lat="42.456656" lon="2.447093">
        <ele>1808.223</ele>
        <time>2021-05-28T12:40:12Z</time>
      </trkpt>
      <trkpt lat="42.456647" lon="2.447070">
        <ele>1808.714</ele>
        <time>2021-05-28T12:40:14Z</time>
      </trkpt>
      <trkpt lat="42.456636" lon="2.447041">
        <ele>1809.443</ele>
        <time>2021-05-28T12:40:17Z</time>
      </trkpt>
      <trkpt lat="42.456631" lon="2.447014">
        <ele>1810.270</ele>
        <time>2021-05-28T12:40:20Z</time>
      </trkpt>
      <trkpt lat="42.456619" lon="2.446993">
        <ele>1810.565</ele>
        <time>2021-05-28T12:40:23Z</time>
      </trkpt>
      <trkpt lat="42.456614" lon="2.446968">
        <ele>1811.222</ele>
        <time>2021-05-28T12:40:26Z</time>
      </trkpt>
      <trkpt lat="42.456610" lon="2.446944">
        <ele>1812.090</ele>
        <time>2021-05-28T12:40:29Z</time>
      </trkpt>
      <trkpt lat="42.456598" lon="2.446924">
        <ele>1812.357</ele>
        <time>2021-05-28T12:40:32Z</time>
      </trkpt>
      <trkpt lat="42.456587" lon="2.446902">
        <ele>1812.700</ele>
        <time>2021-05-28T12:40:34Z</time>
      </trkpt>
      <trkpt lat="42.456573" lon="2.446873">
        <ele>1813.320</ele>
        <time>2021-05-28T12:40:38Z</time>
      </trkpt>
      <trkpt lat="42.456563" lon="2.446844">
        <ele>1814.008</ele>
        <time>2021-05-28T12:40:41Z</time>
      </trkpt>
      <trkpt lat="42.456550" lon="2.446819">
        <ele>1814.512</ele>
        <time>2021-05-28T12:40:43Z</time>
      </trkpt>
      <trkpt lat="42.456534" lon="2.446798">
        <ele>1814.729</ele>
        <time>2021-05-28T12:40:46Z</time>
      </trkpt>
      <trkpt lat="42.456520" lon="2.446775">
        <ele>1815.130</ele>
        <time>2021-05-28T12:40:50Z</time>
      </trkpt>
      <trkpt lat="42.456514" lon="2.446742">
        <ele>1816.229</ele>
        <time>2021-05-28T12:40:52Z</time>
      </trkpt>
      <trkpt lat="42.456504" lon="2.446713">
        <ele>1817.026</ele>
        <time>2021-05-28T12:40:55Z</time>
      </trkpt>
      <trkpt lat="42.456498" lon="2.446682">
        <ele>1818.031</ele>
        <time>2021-05-28T12:40:58Z</time>
      </trkpt>
      <trkpt lat="42.456490" lon="2.446653">
        <ele>1818.858</ele>
        <time>2021-05-28T12:41:01Z</time>
      </trkpt>
      <trkpt lat="42.456479" lon="2.446633">
        <ele>1819.296</ele>
        <time>2021-05-28T12:41:04Z</time>
      </trkpt>
      <trkpt lat="42.456469" lon="2.446609">
        <ele>1819.836</ele>
        <time>2021-05-28T12:41:07Z</time>
      </trkpt>
      <trkpt lat="42.456465" lon="2.446586">
        <ele>1820.517</ele>
        <time>2021-05-28T12:41:10Z</time>
      </trkpt>
      <trkpt lat="42.456448" lon="2.446564">
        <ele>1820.818</ele>
        <time>2021-05-28T12:41:13Z</time>
      </trkpt>
      <trkpt lat="42.456433" lon="2.446545">
        <ele>1821.108</ele>
        <time>2021-05-28T12:41:16Z</time>
      </trkpt>
      <trkpt lat="42.456380" lon="2.446459">
        <ele>1823.070</ele>
        <time>2021-05-28T12:41:27Z</time>
      </trkpt>
      <trkpt lat="42.456389" lon="2.446436">
        <ele>1824.137</ele>
        <time>2021-05-28T12:41:29Z</time>
      </trkpt>
      <trkpt lat="42.456397" lon="2.446406">
        <ele>1825.518</ele>
        <time>2021-05-28T12:41:31Z</time>
      </trkpt>
      <trkpt lat="42.456385" lon="2.446381">
        <ele>1826.147</ele>
        <time>2021-05-28T12:41:34Z</time>
      </trkpt>
      <trkpt lat="42.456373" lon="2.446361">
        <ele>1826.314</ele>
        <time>2021-05-28T12:41:37Z</time>
      </trkpt>
      <trkpt lat="42.456360" lon="2.446338">
        <ele>1826.649</ele>
        <time>2021-05-28T12:41:41Z</time>
      </trkpt>
      <trkpt lat="42.456346" lon="2.446322">
        <ele>1826.626</ele>
        <time>2021-05-28T12:41:43Z</time>
      </trkpt>
      <trkpt lat="42.456329" lon="2.446305">
        <ele>1826.774</ele>
        <time>2021-05-28T12:41:45Z</time>
      </trkpt>
      <trkpt lat="42.456323" lon="2.446281">
        <ele>1827.233</ele>
        <time>2021-05-28T12:41:47Z</time>
      </trkpt>
      <trkpt lat="42.456325" lon="2.446250">
        <ele>1828.023</ele>
        <time>2021-05-28T12:41:51Z</time>
      </trkpt>
      <trkpt lat="42.456325" lon="2.446221">
        <ele>1828.815</ele>
        <time>2021-05-28T12:41:55Z</time>
      </trkpt>
      <trkpt lat="42.456333" lon="2.446190">
        <ele>1829.708</ele>
        <time>2021-05-28T12:41:58Z</time>
      </trkpt>
      <trkpt lat="42.456341" lon="2.446165">
        <ele>1830.660</ele>
        <time>2021-05-28T12:42:02Z</time>
      </trkpt>
      <trkpt lat="42.456359" lon="2.446154">
        <ele>1831.357</ele>
        <time>2021-05-28T12:42:03Z</time>
      </trkpt>
      <trkpt lat="42.456382" lon="2.446148">
        <ele>1831.968</ele>
        <time>2021-05-28T12:42:07Z</time>
      </trkpt>
      <trkpt lat="42.456401" lon="2.446139">
        <ele>1832.667</ele>
        <time>2021-05-28T12:42:09Z</time>
      </trkpt>
      <trkpt lat="42.456420" lon="2.446130">
        <ele>1833.364</ele>
        <time>2021-05-28T12:42:11Z</time>
      </trkpt>
      <trkpt lat="42.456442" lon="2.446133">
        <ele>1833.889</ele>
        <time>2021-05-28T12:42:14Z</time>
      </trkpt>
      <trkpt lat="42.456468" lon="2.446132">
        <ele>1834.586</ele>
        <time>2021-05-28T12:42:17Z</time>
      </trkpt>
      <trkpt lat="42.456492" lon="2.446129">
        <ele>1835.164</ele>
        <time>2021-05-28T12:42:20Z</time>
      </trkpt>
      <trkpt lat="42.456511" lon="2.446127">
        <ele>1835.763</ele>
        <time>2021-05-28T12:42:23Z</time>
      </trkpt>
      <trkpt lat="42.456527" lon="2.446115">
        <ele>1836.444</ele>
        <time>2021-05-28T12:42:26Z</time>
      </trkpt>
      <trkpt lat="42.456544" lon="2.446104">
        <ele>1837.018</ele>
        <time>2021-05-28T12:42:27Z</time>
      </trkpt>
      <trkpt lat="42.456568" lon="2.446093">
        <ele>1837.708</ele>
        <time>2021-05-28T12:42:31Z</time>
      </trkpt>
      <trkpt lat="42.456585" lon="2.446079">
        <ele>1838.343</ele>
        <time>2021-05-28T12:42:33Z</time>
      </trkpt>
      <trkpt lat="42.456605" lon="2.446061">
        <ele>1838.940</ele>
        <time>2021-05-28T12:42:35Z</time>
      </trkpt>
      <trkpt lat="42.456622" lon="2.446042">
        <ele>1839.641</ele>
        <time>2021-05-28T12:42:37Z</time>
      </trkpt>
      <trkpt lat="42.456638" lon="2.446024">
        <ele>1840.290</ele>
        <time>2021-05-28T12:42:39Z</time>
      </trkpt>
      <trkpt lat="42.456660" lon="2.446008">
        <ele>1840.947</ele>
        <time>2021-05-28T12:42:42Z</time>
      </trkpt>
      <trkpt lat="42.456679" lon="2.446000">
        <ele>1841.432</ele>
        <time>2021-05-28T12:42:43Z</time>
      </trkpt>
      <trkpt lat="42.456699" lon="2.445990">
        <ele>1841.949</ele>
        <time>2021-05-28T12:42:46Z</time>
      </trkpt>
      <trkpt lat="42.456720" lon="2.445981">
        <ele>1842.517</ele>
        <time>2021-05-28T12:42:49Z</time>
      </trkpt>
      <trkpt lat="42.456743" lon="2.445976">
        <ele>1843.044</ele>
        <time>2021-05-28T12:42:53Z</time>
      </trkpt>
      <trkpt lat="42.456769" lon="2.445964">
        <ele>1843.605</ele>
        <time>2021-05-28T12:42:54Z</time>
      </trkpt>
      <trkpt lat="42.456787" lon="2.445956">
        <ele>1844.115</ele>
        <time>2021-05-28T12:42:56Z</time>
      </trkpt>
      <trkpt lat="42.456805" lon="2.445949">
        <ele>1844.508</ele>
        <time>2021-05-28T12:42:59Z</time>
      </trkpt>
      <trkpt lat="42.456830" lon="2.445943">
        <ele>1845.161</ele>
        <time>2021-05-28T12:43:03Z</time>
      </trkpt>
      <trkpt lat="42.456853" lon="2.445943">
        <ele>1845.658</ele>
        <time>2021-05-28T12:43:07Z</time>
      </trkpt>
      <trkpt lat="42.456871" lon="2.445937">
        <ele>1846.039</ele>
        <time>2021-05-28T12:43:09Z</time>
      </trkpt>
      <trkpt lat="42.456893" lon="2.445924">
        <ele>1846.638</ele>
        <time>2021-05-28T12:43:11Z</time>
      </trkpt>
      <trkpt lat="42.456909" lon="2.445911">
        <ele>1847.275</ele>
        <time>2021-05-28T12:43:12Z</time>
      </trkpt>
      <trkpt lat="42.456929" lon="2.445904">
        <ele>1847.770</ele>
        <time>2021-05-28T12:43:14Z</time>
      </trkpt>
      <trkpt lat="42.456954" lon="2.445884">
        <ele>1848.297</ele>
        <time>2021-05-28T12:43:18Z</time>
      </trkpt>
      <trkpt lat="42.456971" lon="2.445864">
        <ele>1848.385</ele>
        <time>2021-05-28T12:43:20Z</time>
      </trkpt>
      <trkpt lat="42.456991" lon="2.445842">
        <ele>1848.448</ele>
        <time>2021-05-28T12:43:23Z</time>
      </trkpt>
      <trkpt lat="42.457005" lon="2.445819">
        <ele>1848.461</ele>
        <time>2021-05-28T12:43:25Z</time>
      </trkpt>
      <trkpt lat="42.457020" lon="2.445799">
        <ele>1848.317</ele>
        <time>2021-05-28T12:43:27Z</time>
      </trkpt>
      <trkpt lat="42.457023" lon="2.445775">
        <ele>1848.408</ele>
        <time>2021-05-28T12:43:29Z</time>
      </trkpt>
      <trkpt lat="42.457033" lon="2.445745">
        <ele>1848.441</ele>
        <time>2021-05-28T12:43:33Z</time>
      </trkpt>
      <trkpt lat="42.457041" lon="2.445718">
        <ele>1848.538</ele>
        <time>2021-05-28T12:43:35Z</time>
      </trkpt>
      <trkpt lat="42.457062" lon="2.445696">
        <ele>1848.689</ele>
        <time>2021-05-28T12:43:39Z</time>
      </trkpt>
      <trkpt lat="42.457081" lon="2.445682">
        <ele>1848.648</ele>
        <time>2021-05-28T12:43:40Z</time>
      </trkpt>
      <trkpt lat="42.457097" lon="2.445664">
        <ele>1848.765</ele>
        <time>2021-05-28T12:43:42Z</time>
      </trkpt>
      <trkpt lat="42.457121" lon="2.445645">
        <ele>1848.860</ele>
        <time>2021-05-28T12:43:44Z</time>
      </trkpt>
      <trkpt lat="42.457138" lon="2.445625">
        <ele>1849.017</ele>
        <time>2021-05-28T12:43:46Z</time>
      </trkpt>
      <trkpt lat="42.457152" lon="2.445605">
        <ele>1849.235</ele>
        <time>2021-05-28T12:43:48Z</time>
      </trkpt>
      <trkpt lat="42.457165" lon="2.445582">
        <ele>1849.548</ele>
        <time>2021-05-28T12:43:50Z</time>
      </trkpt>
      <trkpt lat="42.457174" lon="2.445551">
        <ele>1849.961</ele>
        <time>2021-05-28T12:43:53Z</time>
      </trkpt>
      <trkpt lat="42.457181" lon="2.445519">
        <ele>1850.517</ele>
        <time>2021-05-28T12:43:56Z</time>
      </trkpt>
      <trkpt lat="42.457196" lon="2.445501">
        <ele>1851.008</ele>
        <time>2021-05-28T12:43:59Z</time>
      </trkpt>
      <trkpt lat="42.457213" lon="2.445473">
        <ele>1851.741</ele>
        <time>2021-05-28T12:44:02Z</time>
      </trkpt>
      <trkpt lat="42.457226" lon="2.445455">
        <ele>1852.198</ele>
        <time>2021-05-28T12:44:03Z</time>
      </trkpt>
      <trkpt lat="42.457241" lon="2.445428">
        <ele>1852.339</ele>
        <time>2021-05-28T12:44:07Z</time>
      </trkpt>
      <trkpt lat="42.457249" lon="2.445402">
        <ele>1852.788</ele>
        <time>2021-05-28T12:44:10Z</time>
      </trkpt>
      <trkpt lat="42.457265" lon="2.445375">
        <ele>1852.935</ele>
        <time>2021-05-28T12:44:13Z</time>
      </trkpt>
      <trkpt lat="42.457268" lon="2.445340">
        <ele>1853.660</ele>
        <time>2021-05-28T12:44:15Z</time>
      </trkpt>
      <trkpt lat="42.457268" lon="2.445311">
        <ele>1854.337</ele>
        <time>2021-05-28T12:44:18Z</time>
      </trkpt>
      <trkpt lat="42.457277" lon="2.445281">
        <ele>1854.765</ele>
        <time>2021-05-28T12:44:21Z</time>
      </trkpt>
      <trkpt lat="42.457287" lon="2.445254">
        <ele>1854.913</ele>
        <time>2021-05-28T12:44:25Z</time>
      </trkpt>
      <trkpt lat="42.457303" lon="2.445224">
        <ele>1855.043</ele>
        <time>2021-05-28T12:44:28Z</time>
      </trkpt>
      <trkpt lat="42.457315" lon="2.445197">
        <ele>1855.307</ele>
        <time>2021-05-28T12:44:32Z</time>
      </trkpt>
      <trkpt lat="42.457328" lon="2.445179">
        <ele>1855.408</ele>
        <time>2021-05-28T12:44:34Z</time>
      </trkpt>
      <trkpt lat="42.457338" lon="2.445158">
        <ele>1855.688</ele>
        <time>2021-05-28T12:44:36Z</time>
      </trkpt>
      <trkpt lat="42.457344" lon="2.445132">
        <ele>1856.075</ele>
        <time>2021-05-28T12:44:37Z</time>
      </trkpt>
      <trkpt lat="42.457348" lon="2.445098">
        <ele>1856.696</ele>
        <time>2021-05-28T12:44:41Z</time>
      </trkpt>
      <trkpt lat="42.457352" lon="2.445074">
        <ele>1857.135</ele>
        <time>2021-05-28T12:44:43Z</time>
      </trkpt>
      <trkpt lat="42.457358" lon="2.445050">
        <ele>1857.592</ele>
        <time>2021-05-28T12:44:45Z</time>
      </trkpt>
      <trkpt lat="42.457377" lon="2.445025">
        <ele>1858.077</ele>
        <time>2021-05-28T12:44:46Z</time>
      </trkpt>
      <trkpt lat="42.457387" lon="2.445000">
        <ele>1858.614</ele>
        <time>2021-05-28T12:44:48Z</time>
      </trkpt>
      <trkpt lat="42.457396" lon="2.444978">
        <ele>1858.982</ele>
        <time>2021-05-28T12:44:50Z</time>
      </trkpt>
      <trkpt lat="42.457404" lon="2.444955">
        <ele>1859.324</ele>
        <time>2021-05-28T12:44:53Z</time>
      </trkpt>
      <trkpt lat="42.457408" lon="2.444929">
        <ele>1859.704</ele>
        <time>2021-05-28T12:44:55Z</time>
      </trkpt>
      <trkpt lat="42.457416" lon="2.444907">
        <ele>1860.114</ele>
        <time>2021-05-28T12:44:57Z</time>
      </trkpt>
      <trkpt lat="42.457435" lon="2.444884">
        <ele>1860.808</ele>
        <time>2021-05-28T12:44:59Z</time>
      </trkpt>
      <trkpt lat="42.457445" lon="2.444862">
        <ele>1861.499</ele>
        <time>2021-05-28T12:45:00Z</time>
      </trkpt>
      <trkpt lat="42.457450" lon="2.444834">
        <ele>1862.046</ele>
        <time>2021-05-28T12:45:03Z</time>
      </trkpt>
      <trkpt lat="42.457459" lon="2.444808">
        <ele>1862.847</ele>
        <time>2021-05-28T12:45:05Z</time>
      </trkpt>
      <trkpt lat="42.457466" lon="2.444784">
        <ele>1863.576</ele>
        <time>2021-05-28T12:45:06Z</time>
      </trkpt>
      <trkpt lat="42.457474" lon="2.444757">
        <ele>1864.343</ele>
        <time>2021-05-28T12:45:09Z</time>
      </trkpt>
      <trkpt lat="42.457487" lon="2.444731">
        <ele>1865.348</ele>
        <time>2021-05-28T12:45:11Z</time>
      </trkpt>
      <trkpt lat="42.457502" lon="2.444714">
        <ele>1866.065</ele>
        <time>2021-05-28T12:45:12Z</time>
      </trkpt>
      <trkpt lat="42.457518" lon="2.444691">
        <ele>1865.733</ele>
        <time>2021-05-28T12:45:14Z</time>
      </trkpt>
      <trkpt lat="42.457530" lon="2.444671">
        <ele>1865.547</ele>
        <time>2021-05-28T12:45:16Z</time>
      </trkpt>
      <trkpt lat="42.457547" lon="2.444646">
        <ele>1865.329</ele>
        <time>2021-05-28T12:45:19Z</time>
      </trkpt>
      <trkpt lat="42.457563" lon="2.444622">
        <ele>1865.221</ele>
        <time>2021-05-28T12:45:22Z</time>
      </trkpt>
      <trkpt lat="42.457584" lon="2.444601">
        <ele>1865.108</ele>
        <time>2021-05-28T12:45:24Z</time>
      </trkpt>
      <trkpt lat="42.457607" lon="2.444585">
        <ele>1865.091</ele>
        <time>2021-05-28T12:45:26Z</time>
      </trkpt>
      <trkpt lat="42.457627" lon="2.444579">
        <ele>1864.978</ele>
        <time>2021-05-28T12:45:28Z</time>
      </trkpt>
      <trkpt lat="42.457649" lon="2.444563">
        <ele>1864.929</ele>
        <time>2021-05-28T12:45:30Z</time>
      </trkpt>
      <trkpt lat="42.457672" lon="2.444549">
        <ele>1865.068</ele>
        <time>2021-05-28T12:45:33Z</time>
      </trkpt>
      <trkpt lat="42.457692" lon="2.444544">
        <ele>1865.075</ele>
        <time>2021-05-28T12:45:35Z</time>
      </trkpt>
      <trkpt lat="42.457713" lon="2.444536">
        <ele>1865.050</ele>
        <time>2021-05-28T12:45:37Z</time>
      </trkpt>
      <trkpt lat="42.457734" lon="2.444526">
        <ele>1865.137</ele>
        <time>2021-05-28T12:45:39Z</time>
      </trkpt>
      <trkpt lat="42.457750" lon="2.444493">
        <ele>1865.885</ele>
        <time>2021-05-28T12:45:43Z</time>
      </trkpt>
      <trkpt lat="42.457768" lon="2.444470">
        <ele>1866.361</ele>
        <time>2021-05-28T12:45:44Z</time>
      </trkpt>
      <trkpt lat="42.457790" lon="2.444458">
        <ele>1866.721</ele>
        <time>2021-05-28T12:45:46Z</time>
      </trkpt>
      <trkpt lat="42.457813" lon="2.444446">
        <ele>1867.113</ele>
        <time>2021-05-28T12:45:48Z</time>
      </trkpt>
      <trkpt lat="42.457836" lon="2.444434">
        <ele>1867.308</ele>
        <time>2021-05-28T12:45:50Z</time>
      </trkpt>
      <trkpt lat="42.457856" lon="2.444422">
        <ele>1867.653</ele>
        <time>2021-05-28T12:45:52Z</time>
      </trkpt>
      <trkpt lat="42.457875" lon="2.444407">
        <ele>1867.910</ele>
        <time>2021-05-28T12:45:54Z</time>
      </trkpt>
      <trkpt lat="42.457895" lon="2.444391">
        <ele>1868.221</ele>
        <time>2021-05-28T12:45:56Z</time>
      </trkpt>
      <trkpt lat="42.457915" lon="2.444375">
        <ele>1868.610</ele>
        <time>2021-05-28T12:45:58Z</time>
      </trkpt>
      <trkpt lat="42.457931" lon="2.444356">
        <ele>1869.077</ele>
        <time>2021-05-28T12:46:00Z</time>
      </trkpt>
      <trkpt lat="42.457948" lon="2.444327">
        <ele>1869.732</ele>
        <time>2021-05-28T12:46:03Z</time>
      </trkpt>
      <trkpt lat="42.457959" lon="2.444303">
        <ele>1870.219</ele>
        <time>2021-05-28T12:46:06Z</time>
      </trkpt>
      <trkpt lat="42.457971" lon="2.444282">
        <ele>1870.787</ele>
        <time>2021-05-28T12:46:07Z</time>
      </trkpt>
      <trkpt lat="42.457984" lon="2.444260">
        <ele>1871.298</ele>
        <time>2021-05-28T12:46:09Z</time>
      </trkpt>
      <trkpt lat="42.457998" lon="2.444234">
        <ele>1871.915</ele>
        <time>2021-05-28T12:46:13Z</time>
      </trkpt>
      <trkpt lat="42.458005" lon="2.444210">
        <ele>1872.426</ele>
        <time>2021-05-28T12:46:14Z</time>
      </trkpt>
      <trkpt lat="42.458022" lon="2.444180">
        <ele>1873.208</ele>
        <time>2021-05-28T12:46:17Z</time>
      </trkpt>
      <trkpt lat="42.458036" lon="2.444153">
        <ele>1873.976</ele>
        <time>2021-05-28T12:46:20Z</time>
      </trkpt>
      <trkpt lat="42.458048" lon="2.444134">
        <ele>1874.343</ele>
        <time>2021-05-28T12:46:22Z</time>
      </trkpt>
      <trkpt lat="42.458059" lon="2.444106">
        <ele>1874.944</ele>
        <time>2021-05-28T12:46:25Z</time>
      </trkpt>
      <trkpt lat="42.458074" lon="2.444087">
        <ele>1875.343</ele>
        <time>2021-05-28T12:46:27Z</time>
      </trkpt>
      <trkpt lat="42.458088" lon="2.444067">
        <ele>1875.840</ele>
        <time>2021-05-28T12:46:29Z</time>
      </trkpt>
      <trkpt lat="42.458103" lon="2.444041">
        <ele>1876.365</ele>
        <time>2021-05-28T12:46:32Z</time>
      </trkpt>
      <trkpt lat="42.458107" lon="2.444006">
        <ele>1876.922</ele>
        <time>2021-05-28T12:46:35Z</time>
      </trkpt>
      <trkpt lat="42.458109" lon="2.443972">
        <ele>1877.410</ele>
        <time>2021-05-28T12:46:38Z</time>
      </trkpt>
      <trkpt lat="42.458114" lon="2.443941">
        <ele>1877.958</ele>
        <time>2021-05-28T12:46:42Z</time>
      </trkpt>
      <trkpt lat="42.458128" lon="2.443925">
        <ele>1878.352</ele>
        <time>2021-05-28T12:46:46Z</time>
      </trkpt>
      <trkpt lat="42.458144" lon="2.443911">
        <ele>1878.617</ele>
        <time>2021-05-28T12:46:47Z</time>
      </trkpt>
      <trkpt lat="42.458163" lon="2.443890">
        <ele>1879.108</ele>
        <time>2021-05-28T12:46:50Z</time>
      </trkpt>
      <trkpt lat="42.458180" lon="2.443871">
        <ele>1879.622</ele>
        <time>2021-05-28T12:46:54Z</time>
      </trkpt>
      <trkpt lat="42.458211" lon="2.443843">
        <ele>1880.399</ele>
        <time>2021-05-28T12:46:57Z</time>
      </trkpt>
      <trkpt lat="42.458227" lon="2.443828">
        <ele>1880.740</ele>
        <time>2021-05-28T12:47:00Z</time>
      </trkpt>
      <trkpt lat="42.458242" lon="2.443801">
        <ele>1881.389</ele>
        <time>2021-05-28T12:47:02Z</time>
      </trkpt>
      <trkpt lat="42.458256" lon="2.443774">
        <ele>1881.976</ele>
        <time>2021-05-28T12:47:06Z</time>
      </trkpt>
      <trkpt lat="42.458270" lon="2.443755">
        <ele>1882.461</ele>
        <time>2021-05-28T12:47:09Z</time>
      </trkpt>
      <trkpt lat="42.458282" lon="2.443728">
        <ele>1883.048</ele>
        <time>2021-05-28T12:47:11Z</time>
      </trkpt>
      <trkpt lat="42.458288" lon="2.443695">
        <ele>1883.746</ele>
        <time>2021-05-28T12:47:15Z</time>
      </trkpt>
      <trkpt lat="42.458298" lon="2.443671">
        <ele>1884.249</ele>
        <time>2021-05-28T12:47:17Z</time>
      </trkpt>
      <trkpt lat="42.458302" lon="2.443645">
        <ele>1884.802</ele>
        <time>2021-05-28T12:47:18Z</time>
      </trkpt>
      <trkpt lat="42.458309" lon="2.443621">
        <ele>1885.322</ele>
        <time>2021-05-28T12:47:21Z</time>
      </trkpt>
      <trkpt lat="42.458321" lon="2.443595">
        <ele>1886.008</ele>
        <time>2021-05-28T12:47:23Z</time>
      </trkpt>
      <trkpt lat="42.458332" lon="2.443577">
        <ele>1886.521</ele>
        <time>2021-05-28T12:47:25Z</time>
      </trkpt>
      <trkpt lat="42.458349" lon="2.443561">
        <ele>1886.598</ele>
        <time>2021-05-28T12:47:26Z</time>
      </trkpt>
      <trkpt lat="42.458364" lon="2.443539">
        <ele>1886.649</ele>
        <time>2021-05-28T12:47:29Z</time>
      </trkpt>
      <trkpt lat="42.458385" lon="2.443514">
        <ele>1886.768</ele>
        <time>2021-05-28T12:47:33Z</time>
      </trkpt>
      <trkpt lat="42.458402" lon="2.443490">
        <ele>1886.865</ele>
        <time>2021-05-28T12:47:36Z</time>
      </trkpt>
      <trkpt lat="42.458412" lon="2.443469">
        <ele>1887.140</ele>
        <time>2021-05-28T12:47:39Z</time>
      </trkpt>
      <trkpt lat="42.458418" lon="2.443442">
        <ele>1887.597</ele>
        <time>2021-05-28T12:47:44Z</time>
      </trkpt>
      <trkpt lat="42.458424" lon="2.443417">
        <ele>1887.825</ele>
        <time>2021-05-28T12:47:46Z</time>
      </trkpt>
      <trkpt lat="42.458438" lon="2.443391">
        <ele>1888.281</ele>
        <time>2021-05-28T12:47:50Z</time>
      </trkpt>
      <trkpt lat="42.458447" lon="2.443354">
        <ele>1888.861</ele>
        <time>2021-05-28T12:47:52Z</time>
      </trkpt>
      <trkpt lat="42.458455" lon="2.443303">
        <ele>1889.617</ele>
        <time>2021-05-28T12:47:54Z</time>
      </trkpt>
      <trkpt lat="42.458460" lon="2.443279">
        <ele>1889.908</ele>
        <time>2021-05-28T12:47:57Z</time>
      </trkpt>
      <trkpt lat="42.458470" lon="2.443258">
        <ele>1890.265</ele>
        <time>2021-05-28T12:47:59Z</time>
      </trkpt>
      <trkpt lat="42.458482" lon="2.443228">
        <ele>1890.782</ele>
        <time>2021-05-28T12:48:02Z</time>
      </trkpt>
      <trkpt lat="42.458502" lon="2.443213">
        <ele>1891.093</ele>
        <time>2021-05-28T12:48:04Z</time>
      </trkpt>
      <trkpt lat="42.458514" lon="2.443195">
        <ele>1891.332</ele>
        <time>2021-05-28T12:48:07Z</time>
      </trkpt>
      <trkpt lat="42.458524" lon="2.443168">
        <ele>1891.979</ele>
        <time>2021-05-28T12:48:10Z</time>
      </trkpt>
      <trkpt lat="42.458536" lon="2.443146">
        <ele>1892.374</ele>
        <time>2021-05-28T12:48:13Z</time>
      </trkpt>
      <trkpt lat="42.458540" lon="2.443119">
        <ele>1892.911</ele>
        <time>2021-05-28T12:48:16Z</time>
      </trkpt>
      <trkpt lat="42.458552" lon="2.443092">
        <ele>1893.629</ele>
        <time>2021-05-28T12:48:19Z</time>
      </trkpt>
      <trkpt lat="42.458560" lon="2.443065">
        <ele>1894.297</ele>
        <time>2021-05-28T12:48:22Z</time>
      </trkpt>
      <trkpt lat="42.458566" lon="2.443037">
        <ele>1894.923</ele>
        <time>2021-05-28T12:48:25Z</time>
      </trkpt>
      <trkpt lat="42.458574" lon="2.443007">
        <ele>1895.625</ele>
        <time>2021-05-28T12:48:28Z</time>
      </trkpt>
      <trkpt lat="42.458583" lon="2.442979">
        <ele>1896.208</ele>
        <time>2021-05-28T12:48:31Z</time>
      </trkpt>
      <trkpt lat="42.458584" lon="2.442948">
        <ele>1896.926</ele>
        <time>2021-05-28T12:48:34Z</time>
      </trkpt>
      <trkpt lat="42.458591" lon="2.442923">
        <ele>1897.543</ele>
        <time>2021-05-28T12:48:36Z</time>
      </trkpt>
      <trkpt lat="42.458599" lon="2.442893">
        <ele>1898.364</ele>
        <time>2021-05-28T12:48:39Z</time>
      </trkpt>
      <trkpt lat="42.458614" lon="2.442864">
        <ele>1899.133</ele>
        <time>2021-05-28T12:48:42Z</time>
      </trkpt>
      <trkpt lat="42.458630" lon="2.442835">
        <ele>1899.350</ele>
        <time>2021-05-28T12:48:45Z</time>
      </trkpt>
      <trkpt lat="42.458644" lon="2.442818">
        <ele>1899.465</ele>
        <time>2021-05-28T12:48:47Z</time>
      </trkpt>
      <trkpt lat="42.458645" lon="2.442793">
        <ele>1899.932</ele>
        <time>2021-05-28T12:48:50Z</time>
      </trkpt>
      <trkpt lat="42.458653" lon="2.442761">
        <ele>1900.330</ele>
        <time>2021-05-28T12:48:53Z</time>
      </trkpt>
      <trkpt lat="42.458663" lon="2.442727">
        <ele>1900.554</ele>
        <time>2021-05-28T12:48:56Z</time>
      </trkpt>
      <trkpt lat="42.458669" lon="2.442698">
        <ele>1900.756</ele>
        <time>2021-05-28T12:48:59Z</time>
      </trkpt>
      <trkpt lat="42.458676" lon="2.442667">
        <ele>1901.011</ele>
        <time>2021-05-28T12:49:02Z</time>
      </trkpt>
      <trkpt lat="42.458675" lon="2.442641">
        <ele>1901.308</ele>
        <time>2021-05-28T12:49:04Z</time>
      </trkpt>
      <trkpt lat="42.458676" lon="2.442611">
        <ele>1901.622</ele>
        <time>2021-05-28T12:49:07Z</time>
      </trkpt>
      <trkpt lat="42.458684" lon="2.442583">
        <ele>1901.989</ele>
        <time>2021-05-28T12:49:10Z</time>
      </trkpt>
      <trkpt lat="42.458694" lon="2.442563">
        <ele>1902.150</ele>
        <time>2021-05-28T12:49:12Z</time>
      </trkpt>
      <trkpt lat="42.458704" lon="2.442537">
        <ele>1902.589</ele>
        <time>2021-05-28T12:49:14Z</time>
      </trkpt>
      <trkpt lat="42.458717" lon="2.442506">
        <ele>1902.986</ele>
        <time>2021-05-28T12:49:16Z</time>
      </trkpt>
      <trkpt lat="42.458723" lon="2.442475">
        <ele>1903.421</ele>
        <time>2021-05-28T12:49:18Z</time>
      </trkpt>
      <trkpt lat="42.458731" lon="2.442446">
        <ele>1903.818</ele>
        <time>2021-05-28T12:49:20Z</time>
      </trkpt>
      <trkpt lat="42.458733" lon="2.442418">
        <ele>1904.386</ele>
        <time>2021-05-28T12:49:22Z</time>
      </trkpt>
      <trkpt lat="42.458744" lon="2.442392">
        <ele>1904.712</ele>
        <time>2021-05-28T12:49:24Z</time>
      </trkpt>
      <trkpt lat="42.458750" lon="2.442366">
        <ele>1905.232</ele>
        <time>2021-05-28T12:49:26Z</time>
      </trkpt>
      <trkpt lat="42.458757" lon="2.442342">
        <ele>1905.605</ele>
        <time>2021-05-28T12:49:28Z</time>
      </trkpt>
      <trkpt lat="42.458765" lon="2.442317">
        <ele>1906.108</ele>
        <time>2021-05-28T12:49:30Z</time>
      </trkpt>
      <trkpt lat="42.458773" lon="2.442290">
        <ele>1906.648</ele>
        <time>2021-05-28T12:49:33Z</time>
      </trkpt>
      <trkpt lat="42.458780" lon="2.442260">
        <ele>1907.235</ele>
        <time>2021-05-28T12:49:35Z</time>
      </trkpt>
      <trkpt lat="42.458784" lon="2.442235">
        <ele>1907.696</ele>
        <time>2021-05-28T12:49:37Z</time>
      </trkpt>
      <trkpt lat="42.458796" lon="2.442204">
        <ele>1908.245</ele>
        <time>2021-05-28T12:49:40Z</time>
      </trkpt>
      <trkpt lat="42.458806" lon="2.442172">
        <ele>1908.612</ele>
        <time>2021-05-28T12:49:42Z</time>
      </trkpt>
      <trkpt lat="42.458821" lon="2.442154">
        <ele>1909.097</ele>
        <time>2021-05-28T12:50:06Z</time>
      </trkpt>
      <trkpt lat="42.458834" lon="2.442127">
        <ele>1909.554</ele>
        <time>2021-05-28T12:50:10Z</time>
      </trkpt>
      <trkpt lat="42.458838" lon="2.442098">
        <ele>1909.992</ele>
        <time>2021-05-28T12:50:12Z</time>
      </trkpt>
      <trkpt lat="42.458850" lon="2.442070">
        <ele>1910.568</ele>
        <time>2021-05-28T12:50:16Z</time>
      </trkpt>
      <trkpt lat="42.458862" lon="2.442043">
        <ele>1911.042</ele>
        <time>2021-05-28T12:50:18Z</time>
      </trkpt>
      <trkpt lat="42.458876" lon="2.442024">
        <ele>1911.626</ele>
        <time>2021-05-28T12:50:22Z</time>
      </trkpt>
      <trkpt lat="42.458880" lon="2.441995">
        <ele>1912.108</ele>
        <time>2021-05-28T12:50:25Z</time>
      </trkpt>
      <trkpt lat="42.458883" lon="2.441969">
        <ele>1912.573</ele>
        <time>2021-05-28T12:50:27Z</time>
      </trkpt>
      <trkpt lat="42.458888" lon="2.441938">
        <ele>1913.160</ele>
        <time>2021-05-28T12:50:31Z</time>
      </trkpt>
      <trkpt lat="42.458895" lon="2.441908">
        <ele>1913.661</ele>
        <time>2021-05-28T12:50:35Z</time>
      </trkpt>
      <trkpt lat="42.458903" lon="2.441885">
        <ele>1914.130</ele>
        <time>2021-05-28T12:50:39Z</time>
      </trkpt>
      <trkpt lat="42.458909" lon="2.441859">
        <ele>1914.677</ele>
        <time>2021-05-28T12:50:41Z</time>
      </trkpt>
      <trkpt lat="42.458924" lon="2.441837">
        <ele>1915.012</ele>
        <time>2021-05-28T12:50:45Z</time>
      </trkpt>
      <trkpt lat="42.458944" lon="2.441825">
        <ele>1915.349</ele>
        <time>2021-05-28T12:50:48Z</time>
      </trkpt>
      <trkpt lat="42.458962" lon="2.441807">
        <ele>1915.777</ele>
        <time>2021-05-28T12:50:55Z</time>
      </trkpt>
      <trkpt lat="42.458969" lon="2.441780">
        <ele>1916.479</ele>
        <time>2021-05-28T12:50:59Z</time>
      </trkpt>
      <trkpt lat="42.458982" lon="2.441756">
        <ele>1917.005</ele>
        <time>2021-05-28T12:51:03Z</time>
      </trkpt>
      <trkpt lat="42.458996" lon="2.441740">
        <ele>1917.425</ele>
        <time>2021-05-28T12:51:19Z</time>
      </trkpt>
      <trkpt lat="42.459014" lon="2.441731">
        <ele>1917.808</ele>
        <time>2021-05-28T12:51:24Z</time>
      </trkpt>
      <trkpt lat="42.459030" lon="2.441714">
        <ele>1918.314</ele>
        <time>2021-05-28T12:51:30Z</time>
      </trkpt>
      <trkpt lat="42.459047" lon="2.441699">
        <ele>1918.911</ele>
        <time>2021-05-28T12:51:35Z</time>
      </trkpt>
      <trkpt lat="42.459061" lon="2.441684">
        <ele>1919.492</ele>
        <time>2021-05-28T12:51:38Z</time>
      </trkpt>
      <trkpt lat="42.459074" lon="2.441666">
        <ele>1920.021</ele>
        <time>2021-05-28T12:51:41Z</time>
      </trkpt>
      <trkpt lat="42.459079" lon="2.441641">
        <ele>1920.888</ele>
        <time>2021-05-28T12:51:44Z</time>
      </trkpt>
      <trkpt lat="42.459093" lon="2.441624">
        <ele>1921.523</ele>
        <time>2021-05-28T12:51:47Z</time>
      </trkpt>
      <trkpt lat="42.459111" lon="2.441611">
        <ele>1922.280</ele>
        <time>2021-05-28T12:51:50Z</time>
      </trkpt>
      <trkpt lat="42.459124" lon="2.441589">
        <ele>1923.168</ele>
        <time>2021-05-28T12:51:54Z</time>
      </trkpt>
      <trkpt lat="42.459137" lon="2.441566">
        <ele>1924.184</ele>
        <time>2021-05-28T12:51:56Z</time>
      </trkpt>
      <trkpt lat="42.459146" lon="2.441533">
        <ele>1925.407</ele>
        <time>2021-05-28T12:52:00Z</time>
      </trkpt>
      <trkpt lat="42.459160" lon="2.441510">
        <ele>1926.517</ele>
        <time>2021-05-28T12:52:03Z</time>
      </trkpt>
      <trkpt lat="42.459177" lon="2.441499">
        <ele>1926.908</ele>
        <time>2021-05-28T12:52:05Z</time>
      </trkpt>
      <trkpt lat="42.459195" lon="2.441478">
        <ele>1927.495</ele>
        <time>2021-05-28T12:52:08Z</time>
      </trkpt>
      <trkpt lat="42.459215" lon="2.441455">
        <ele>1927.942</ele>
        <time>2021-05-28T12:52:10Z</time>
      </trkpt>
      <trkpt lat="42.459224" lon="2.441433">
        <ele>1928.643</ele>
        <time>2021-05-28T12:52:12Z</time>
      </trkpt>
      <trkpt lat="42.459236" lon="2.441406">
        <ele>1929.492</ele>
        <time>2021-05-28T12:52:16Z</time>
      </trkpt>
      <trkpt lat="42.459245" lon="2.441375">
        <ele>1930.329</ele>
        <time>2021-05-28T12:52:18Z</time>
      </trkpt>
      <trkpt lat="42.459258" lon="2.441355">
        <ele>1930.754</ele>
        <time>2021-05-28T12:52:21Z</time>
      </trkpt>
      <trkpt lat="42.459258" lon="2.441328">
        <ele>1931.611</ele>
        <time>2021-05-28T12:52:24Z</time>
      </trkpt>
      <trkpt lat="42.459270" lon="2.441298">
        <ele>1932.469</ele>
        <time>2021-05-28T12:52:27Z</time>
      </trkpt>
      <trkpt lat="42.459282" lon="2.441277">
        <ele>1932.991</ele>
        <time>2021-05-28T12:52:30Z</time>
      </trkpt>
      <trkpt lat="42.459294" lon="2.441253">
        <ele>1933.581</ele>
        <time>2021-05-28T12:52:34Z</time>
      </trkpt>
      <trkpt lat="42.459302" lon="2.441224">
        <ele>1934.419</ele>
        <time>2021-05-28T12:52:36Z</time>
      </trkpt>
      <trkpt lat="42.459312" lon="2.441196">
        <ele>1935.208</ele>
        <time>2021-05-28T12:52:41Z</time>
      </trkpt>
      <trkpt lat="42.459332" lon="2.441173">
        <ele>1935.846</ele>
        <time>2021-05-28T12:52:44Z</time>
      </trkpt>
      <trkpt lat="42.459354" lon="2.441152">
        <ele>1936.373</ele>
        <time>2021-05-28T12:52:46Z</time>
      </trkpt>
      <trkpt lat="42.459361" lon="2.441123">
        <ele>1937.234</ele>
        <time>2021-05-28T12:52:50Z</time>
      </trkpt>
      <trkpt lat="42.459373" lon="2.441100">
        <ele>1937.853</ele>
        <time>2021-05-28T12:52:53Z</time>
      </trkpt>
      <trkpt lat="42.459392" lon="2.441076">
        <ele>1938.330</ele>
        <time>2021-05-28T12:52:56Z</time>
      </trkpt>
      <trkpt lat="42.459407" lon="2.441049">
        <ele>1938.945</ele>
        <time>2021-05-28T12:52:58Z</time>
      </trkpt>
      <trkpt lat="42.459415" lon="2.441025">
        <ele>1939.582</ele>
        <time>2021-05-28T12:53:02Z</time>
      </trkpt>
      <trkpt lat="42.459424" lon="2.440999">
        <ele>1940.260</ele>
        <time>2021-05-28T12:53:05Z</time>
      </trkpt>
      <trkpt lat="42.459437" lon="2.440974">
        <ele>1940.958</ele>
        <time>2021-05-28T12:53:08Z</time>
      </trkpt>
      <trkpt lat="42.459439" lon="2.440949">
        <ele>1941.752</ele>
        <time>2021-05-28T12:53:10Z</time>
      </trkpt>
      <trkpt lat="42.459455" lon="2.440927">
        <ele>1942.217</ele>
        <time>2021-05-28T12:53:13Z</time>
      </trkpt>
      <trkpt lat="42.459455" lon="2.440894">
        <ele>1943.208</ele>
        <time>2021-05-28T12:53:17Z</time>
      </trkpt>
      <trkpt lat="42.459466" lon="2.440874">
        <ele>1943.762</ele>
        <time>2021-05-28T12:53:20Z</time>
      </trkpt>
      <trkpt lat="42.459481" lon="2.440854">
        <ele>1944.179</ele>
        <time>2021-05-28T12:53:23Z</time>
      </trkpt>
      <trkpt lat="42.459493" lon="2.440829">
        <ele>1944.840</ele>
        <time>2021-05-28T12:53:27Z</time>
      </trkpt>
      <trkpt lat="42.459501" lon="2.440802">
        <ele>1945.439</ele>
        <time>2021-05-28T12:53:32Z</time>
      </trkpt>
      <trkpt lat="42.459498" lon="2.440774">
        <ele>1946.236</ele>
        <time>2021-05-28T12:53:35Z</time>
      </trkpt>
      <trkpt lat="42.459499" lon="2.440745">
        <ele>1947.081</ele>
        <time>2021-05-28T12:53:40Z</time>
      </trkpt>
      <trkpt lat="42.459498" lon="2.440719">
        <ele>1947.728</ele>
        <time>2021-05-28T12:53:43Z</time>
      </trkpt>
      <trkpt lat="42.459516" lon="2.440698">
        <ele>1948.196</ele>
        <time>2021-05-28T12:53:45Z</time>
      </trkpt>
      <trkpt lat="42.459531" lon="2.440673">
        <ele>1948.851</ele>
        <time>2021-05-28T12:53:49Z</time>
      </trkpt>
      <trkpt lat="42.459542" lon="2.440651">
        <ele>1949.401</ele>
        <time>2021-05-28T12:53:51Z</time>
      </trkpt>
      <trkpt lat="42.459539" lon="2.440622">
        <ele>1950.211</ele>
        <time>2021-05-28T12:53:55Z</time>
      </trkpt>
      <trkpt lat="42.459556" lon="2.440602">
        <ele>1950.708</ele>
        <time>2021-05-28T12:54:01Z</time>
      </trkpt>
      <trkpt lat="42.459577" lon="2.440597">
        <ele>1950.852</ele>
        <time>2021-05-28T12:54:29Z</time>
      </trkpt>
      <trkpt lat="42.459595" lon="2.440577">
        <ele>1951.419</ele>
        <time>2021-05-28T12:54:32Z</time>
      </trkpt>
      <trkpt lat="42.459614" lon="2.440573">
        <ele>1951.570</ele>
        <time>2021-05-28T12:54:35Z</time>
      </trkpt>
      <trkpt lat="42.459627" lon="2.440551">
        <ele>1952.119</ele>
        <time>2021-05-28T12:54:40Z</time>
      </trkpt>
      <trkpt lat="42.459645" lon="2.440550">
        <ele>1952.286</ele>
        <time>2021-05-28T12:55:24Z</time>
      </trkpt>
      <trkpt lat="42.459654" lon="2.440523">
        <ele>1952.961</ele>
        <time>2021-05-28T12:55:33Z</time>
      </trkpt>
      <trkpt lat="42.459650" lon="2.440489">
        <ele>1953.948</ele>
        <time>2021-05-28T12:56:00Z</time>
      </trkpt>
      <trkpt lat="42.459649" lon="2.440463">
        <ele>1954.686</ele>
        <time>2021-05-28T12:56:03Z</time>
      </trkpt>
      <trkpt lat="42.459655" lon="2.440433">
        <ele>1955.475</ele>
        <time>2021-05-28T12:56:09Z</time>
      </trkpt>
      <trkpt lat="42.459673" lon="2.440410">
        <ele>1956.128</ele>
        <time>2021-05-28T12:56:12Z</time>
      </trkpt>
      <trkpt lat="42.459685" lon="2.440390">
        <ele>1956.720</ele>
        <time>2021-05-28T12:56:16Z</time>
      </trkpt>
      <trkpt lat="42.459700" lon="2.440367">
        <ele>1957.408</ele>
        <time>2021-05-28T12:56:19Z</time>
      </trkpt>
      <trkpt lat="42.459717" lon="2.440352">
        <ele>1957.874</ele>
        <time>2021-05-28T12:56:22Z</time>
      </trkpt>
      <trkpt lat="42.459728" lon="2.440331">
        <ele>1958.531</ele>
        <time>2021-05-28T12:56:26Z</time>
      </trkpt>
      <trkpt lat="42.459723" lon="2.440306">
        <ele>1959.232</ele>
        <time>2021-05-28T12:56:29Z</time>
      </trkpt>
      <trkpt lat="42.459726" lon="2.440280">
        <ele>1960.071</ele>
        <time>2021-05-28T12:56:32Z</time>
      </trkpt>
      <trkpt lat="42.459727" lon="2.440251">
        <ele>1960.848</ele>
        <time>2021-05-28T12:56:35Z</time>
      </trkpt>
      <trkpt lat="42.459727" lon="2.440224">
        <ele>1961.623</ele>
        <time>2021-05-28T12:56:39Z</time>
      </trkpt>
      <trkpt lat="42.459726" lon="2.440195">
        <ele>1962.420</ele>
        <time>2021-05-28T12:56:43Z</time>
      </trkpt>
      <trkpt lat="42.459726" lon="2.440168">
        <ele>1963.218</ele>
        <time>2021-05-28T12:56:47Z</time>
      </trkpt>
      <trkpt lat="42.459707" lon="2.440146">
        <ele>1963.719</ele>
        <time>2021-05-28T12:56:52Z</time>
      </trkpt>
      <trkpt lat="42.459686" lon="2.440133">
        <ele>1963.809</ele>
        <time>2021-05-28T12:56:55Z</time>
      </trkpt>
      <trkpt lat="42.459669" lon="2.440124">
        <ele>1963.919</ele>
        <time>2021-05-28T12:56:58Z</time>
      </trkpt>
      <trkpt lat="42.459654" lon="2.440110">
        <ele>1964.108</ele>
        <time>2021-05-28T12:57:02Z</time>
      </trkpt>
      <trkpt lat="42.459642" lon="2.440088">
        <ele>1964.698</ele>
        <time>2021-05-28T12:57:05Z</time>
      </trkpt>
      <trkpt lat="42.459652" lon="2.440065">
        <ele>1965.345</ele>
        <time>2021-05-28T12:57:08Z</time>
      </trkpt>
      <trkpt lat="42.459661" lon="2.440043">
        <ele>1966.096</ele>
        <time>2021-05-28T12:57:11Z</time>
      </trkpt>
      <trkpt lat="42.459662" lon="2.440017">
        <ele>1966.745</ele>
        <time>2021-05-28T12:57:15Z</time>
      </trkpt>
      <trkpt lat="42.459664" lon="2.439992">
        <ele>1967.492</ele>
        <time>2021-05-28T12:57:17Z</time>
      </trkpt>
      <trkpt lat="42.459666" lon="2.439964">
        <ele>1968.187</ele>
        <time>2021-05-28T12:57:22Z</time>
      </trkpt>
      <trkpt lat="42.459673" lon="2.439940">
        <ele>1968.954</ele>
        <time>2021-05-28T12:57:24Z</time>
      </trkpt>
      <trkpt lat="42.459681" lon="2.439916">
        <ele>1969.652</ele>
        <time>2021-05-28T12:57:29Z</time>
      </trkpt>
      <trkpt lat="42.459691" lon="2.439888">
        <ele>1970.676</ele>
        <time>2021-05-28T12:57:33Z</time>
      </trkpt>
      <trkpt lat="42.459691" lon="2.439854">
        <ele>1971.590</ele>
        <time>2021-05-28T12:57:37Z</time>
      </trkpt>
      <trkpt lat="42.459681" lon="2.439831">
        <ele>1971.919</ele>
        <time>2021-05-28T12:57:39Z</time>
      </trkpt>
      <trkpt lat="42.459677" lon="2.439807">
        <ele>1972.508</ele>
        <time>2021-05-28T12:57:41Z</time>
      </trkpt>
      <trkpt lat="42.459681" lon="2.439783">
        <ele>1973.264</ele>
        <time>2021-05-28T12:57:43Z</time>
      </trkpt>
      <trkpt lat="42.459688" lon="2.439755">
        <ele>1974.151</ele>
        <time>2021-05-28T12:57:45Z</time>
      </trkpt>
      <trkpt lat="42.459694" lon="2.439726">
        <ele>1975.132</ele>
        <time>2021-05-28T12:57:47Z</time>
      </trkpt>
      <trkpt lat="42.459696" lon="2.439694">
        <ele>1976.171</ele>
        <time>2021-05-28T12:57:51Z</time>
      </trkpt>
      <trkpt lat="42.459703" lon="2.439668">
        <ele>1977.168</ele>
        <time>2021-05-28T12:57:54Z</time>
      </trkpt>
      <trkpt lat="42.459714" lon="2.439642">
        <ele>1978.333</ele>
        <time>2021-05-28T12:57:58Z</time>
      </trkpt>
      <trkpt lat="42.459718" lon="2.439615">
        <ele>1979.330</ele>
        <time>2021-05-28T12:58:02Z</time>
      </trkpt>
      <trkpt lat="42.459723" lon="2.439583">
        <ele>1980.568</ele>
        <time>2021-05-28T12:58:07Z</time>
      </trkpt>
      <trkpt lat="42.459730" lon="2.439557">
        <ele>1981.421</ele>
        <time>2021-05-28T12:58:11Z</time>
      </trkpt>
      <trkpt lat="42.459737" lon="2.439528">
        <ele>1982.541</ele>
        <time>2021-05-28T12:58:15Z</time>
      </trkpt>
      <trkpt lat="42.459742" lon="2.439504">
        <ele>1983.305</ele>
        <time>2021-05-28T12:58:18Z</time>
      </trkpt>
      <trkpt lat="42.459767" lon="2.439493">
        <ele>1984.008</ele>
        <time>2021-05-28T12:58:22Z</time>
      </trkpt>
      <trkpt lat="42.459789" lon="2.439483">
        <ele>1984.689</ele>
        <time>2021-05-28T12:58:25Z</time>
      </trkpt>
      <trkpt lat="42.459810" lon="2.439467">
        <ele>1985.556</ele>
        <time>2021-05-28T12:58:29Z</time>
      </trkpt>
      <trkpt lat="42.459824" lon="2.439445">
        <ele>1986.477</ele>
        <time>2021-05-28T12:58:33Z</time>
      </trkpt>
      <trkpt lat="42.459824" lon="2.439416">
        <ele>1987.256</ele>
        <time>2021-05-28T12:58:37Z</time>
      </trkpt>
      <trkpt lat="42.459822" lon="2.439382">
        <ele>1988.083</ele>
        <time>2021-05-28T12:58:40Z</time>
      </trkpt>
      <trkpt lat="42.459833" lon="2.439356">
        <ele>1988.848</ele>
        <time>2021-05-28T12:58:43Z</time>
      </trkpt>
      <trkpt lat="42.459844" lon="2.439335">
        <ele>1989.535</ele>
        <time>2021-05-28T12:58:47Z</time>
      </trkpt>
      <trkpt lat="42.459862" lon="2.439313">
        <ele>1990.393</ele>
        <time>2021-05-28T12:58:50Z</time>
      </trkpt>
      <trkpt lat="42.459875" lon="2.439293">
        <ele>1991.046</ele>
        <time>2021-05-28T12:58:54Z</time>
      </trkpt>
      <trkpt lat="42.459896" lon="2.439278">
        <ele>1991.788</ele>
        <time>2021-05-28T12:58:58Z</time>
      </trkpt>
      <trkpt lat="42.459915" lon="2.439268">
        <ele>1992.216</ele>
        <time>2021-05-28T12:59:01Z</time>
      </trkpt>
      <trkpt lat="42.459932" lon="2.439255">
        <ele>1992.808</ele>
        <time>2021-05-28T12:59:04Z</time>
      </trkpt>
      <trkpt lat="42.459947" lon="2.439241">
        <ele>1993.481</ele>
        <time>2021-05-28T12:59:06Z</time>
      </trkpt>
      <trkpt lat="42.459956" lon="2.439216">
        <ele>1994.118</ele>
        <time>2021-05-28T12:59:10Z</time>
      </trkpt>
      <trkpt lat="42.459962" lon="2.439187">
        <ele>1994.979</ele>
        <time>2021-05-28T12:59:14Z</time>
      </trkpt>
      <trkpt lat="42.459971" lon="2.439162">
        <ele>1995.698</ele>
        <time>2021-05-28T12:59:17Z</time>
      </trkpt>
      <trkpt lat="42.459988" lon="2.439149">
        <ele>1996.125</ele>
        <time>2021-05-28T12:59:20Z</time>
      </trkpt>
      <trkpt lat="42.460003" lon="2.439134">
        <ele>1996.510</ele>
        <time>2021-05-28T12:59:24Z</time>
      </trkpt>
      <trkpt lat="42.460022" lon="2.439128">
        <ele>1996.877</ele>
        <time>2021-05-28T12:59:26Z</time>
      </trkpt>
      <trkpt lat="42.460040" lon="2.439120">
        <ele>1997.265</ele>
        <time>2021-05-28T12:59:28Z</time>
      </trkpt>
      <trkpt lat="42.460064" lon="2.439111">
        <ele>1997.699</ele>
        <time>2021-05-28T12:59:31Z</time>
      </trkpt>
      <trkpt lat="42.460089" lon="2.439108">
        <ele>1997.907</ele>
        <time>2021-05-28T12:59:33Z</time>
      </trkpt>
      <trkpt lat="42.460109" lon="2.439110">
        <ele>1998.227</ele>
        <time>2021-05-28T12:59:35Z</time>
      </trkpt>
      <trkpt lat="42.460127" lon="2.439115">
        <ele>1998.308</ele>
        <time>2021-05-28T12:59:37Z</time>
      </trkpt>
      <trkpt lat="42.460153" lon="2.439123">
        <ele>1998.516</ele>
        <time>2021-05-28T12:59:40Z</time>
      </trkpt>
      <trkpt lat="42.460171" lon="2.439123">
        <ele>1998.723</ele>
        <time>2021-05-28T12:59:42Z</time>
      </trkpt>
      <trkpt lat="42.460194" lon="2.439107">
        <ele>1999.324</ele>
        <time>2021-05-28T12:59:45Z</time>
      </trkpt>
      <trkpt lat="42.460219" lon="2.439103">
        <ele>1999.673</ele>
        <time>2021-05-28T12:59:49Z</time>
      </trkpt>
      <trkpt lat="42.460237" lon="2.439095">
        <ele>2000.030</ele>
        <time>2021-05-28T12:59:51Z</time>
      </trkpt>
      <trkpt lat="42.460257" lon="2.439084">
        <ele>2000.565</ele>
        <time>2021-05-28T12:59:53Z</time>
      </trkpt>
      <trkpt lat="42.460275" lon="2.439075">
        <ele>2000.942</ele>
        <time>2021-05-28T12:59:54Z</time>
      </trkpt>
      <trkpt lat="42.460293" lon="2.439063">
        <ele>2001.490</ele>
        <time>2021-05-28T12:59:57Z</time>
      </trkpt>
      <trkpt lat="42.460310" lon="2.439049">
        <ele>2001.967</ele>
        <time>2021-05-28T12:59:58Z</time>
      </trkpt>
      <trkpt lat="42.460326" lon="2.439036">
        <ele>2002.381</ele>
        <time>2021-05-28T13:00:00Z</time>
      </trkpt>
      <trkpt lat="42.460341" lon="2.439021">
        <ele>2002.819</ele>
        <time>2021-05-28T13:00:03Z</time>
      </trkpt>
      <trkpt lat="42.460355" lon="2.439005">
        <ele>2003.308</ele>
        <time>2021-05-28T13:00:05Z</time>
      </trkpt>
      <trkpt lat="42.460366" lon="2.438975">
        <ele>2004.133</ele>
        <time>2021-05-28T13:00:07Z</time>
      </trkpt>
      <trkpt lat="42.460376" lon="2.438950">
        <ele>2004.710</ele>
        <time>2021-05-28T13:00:10Z</time>
      </trkpt>
      <trkpt lat="42.460393" lon="2.438924">
        <ele>2005.521</ele>
        <time>2021-05-28T13:00:13Z</time>
      </trkpt>
      <trkpt lat="42.460406" lon="2.438897">
        <ele>2006.230</ele>
        <time>2021-05-28T13:00:16Z</time>
      </trkpt>
      <trkpt lat="42.460423" lon="2.438875">
        <ele>2006.867</ele>
        <time>2021-05-28T13:00:19Z</time>
      </trkpt>
      <trkpt lat="42.460437" lon="2.438860">
        <ele>2007.262</ele>
        <time>2021-05-28T13:00:21Z</time>
      </trkpt>
      <trkpt lat="42.460454" lon="2.438846">
        <ele>2007.689</ele>
        <time>2021-05-28T13:00:23Z</time>
      </trkpt>
      <trkpt lat="42.460477" lon="2.438833">
        <ele>2008.087</ele>
        <time>2021-05-28T13:00:26Z</time>
      </trkpt>
      <trkpt lat="42.460494" lon="2.438823">
        <ele>2008.494</ele>
        <time>2021-05-28T13:00:28Z</time>
      </trkpt>
      <trkpt lat="42.460518" lon="2.438813">
        <ele>2008.957</ele>
        <time>2021-05-28T13:00:31Z</time>
      </trkpt>
      <trkpt lat="42.460537" lon="2.438797">
        <ele>2009.422</ele>
        <time>2021-05-28T13:00:34Z</time>
      </trkpt>
      <trkpt lat="42.460555" lon="2.438780">
        <ele>2010.008</ele>
        <time>2021-05-28T13:00:37Z</time>
      </trkpt>
      <trkpt lat="42.460573" lon="2.438769">
        <ele>2010.386</ele>
        <time>2021-05-28T13:00:40Z</time>
      </trkpt>
      <trkpt lat="42.460590" lon="2.438759">
        <ele>2010.693</ele>
        <time>2021-05-28T13:00:44Z</time>
      </trkpt>
      <trkpt lat="42.460597" lon="2.438734">
        <ele>2011.264</ele>
        <time>2021-05-28T13:00:46Z</time>
      </trkpt>
      <trkpt lat="42.460618" lon="2.438722">
        <ele>2011.633</ele>
        <time>2021-05-28T13:00:50Z</time>
      </trkpt>
      <trkpt lat="42.460639" lon="2.438700">
        <ele>2012.240</ele>
        <time>2021-05-28T13:00:54Z</time>
      </trkpt>
      <trkpt lat="42.460658" lon="2.438684">
        <ele>2012.735</ele>
        <time>2021-05-28T13:00:57Z</time>
      </trkpt>
      <trkpt lat="42.460676" lon="2.438669">
        <ele>2013.222</ele>
        <time>2021-05-28T13:00:59Z</time>
      </trkpt>
      <trkpt lat="42.460699" lon="2.438662">
        <ele>2013.520</ele>
        <time>2021-05-28T13:01:04Z</time>
      </trkpt>
      <trkpt lat="42.460717" lon="2.438649">
        <ele>2014.038</ele>
        <time>2021-05-28T13:01:07Z</time>
      </trkpt>
      <trkpt lat="42.460730" lon="2.438628">
        <ele>2014.570</ele>
        <time>2021-05-28T13:01:10Z</time>
      </trkpt>
      <trkpt lat="42.460747" lon="2.438614">
        <ele>2015.017</ele>
        <time>2021-05-28T13:01:12Z</time>
      </trkpt>
      <trkpt lat="42.460766" lon="2.438598">
        <ele>2015.508</ele>
        <time>2021-05-28T13:01:16Z</time>
      </trkpt>
      <trkpt lat="42.460786" lon="2.438592">
        <ele>2015.890</ele>
        <time>2021-05-28T13:01:19Z</time>
      </trkpt>
      <trkpt lat="42.460807" lon="2.438584">
        <ele>2016.267</ele>
        <time>2021-05-28T13:01:21Z</time>
      </trkpt>
      <trkpt lat="42.460821" lon="2.438562">
        <ele>2016.718</ele>
        <time>2021-05-28T13:01:25Z</time>
      </trkpt>
      <trkpt lat="42.460829" lon="2.438534">
        <ele>2017.387</ele>
        <time>2021-05-28T13:01:29Z</time>
      </trkpt>
      <trkpt lat="42.460833" lon="2.438507">
        <ele>2017.944</ele>
        <time>2021-05-28T13:01:31Z</time>
      </trkpt>
      <trkpt lat="42.460848" lon="2.438487">
        <ele>2018.359</ele>
        <time>2021-05-28T13:01:35Z</time>
      </trkpt>
      <trkpt lat="42.460863" lon="2.438464">
        <ele>2018.946</ele>
        <time>2021-05-28T13:01:38Z</time>
      </trkpt>
      <trkpt lat="42.460878" lon="2.438445">
        <ele>2019.324</ele>
        <time>2021-05-28T13:01:40Z</time>
      </trkpt>
      <trkpt lat="42.460898" lon="2.438428">
        <ele>2019.815</ele>
        <time>2021-05-28T13:01:44Z</time>
      </trkpt>
      <trkpt lat="42.460915" lon="2.438408">
        <ele>2020.465</ele>
        <time>2021-05-28T13:01:46Z</time>
      </trkpt>
      <trkpt lat="42.460939" lon="2.438388">
        <ele>2021.011</ele>
        <time>2021-05-28T13:01:50Z</time>
      </trkpt>
      <trkpt lat="42.460954" lon="2.438370">
        <ele>2021.508</ele>
        <time>2021-05-28T13:01:53Z</time>
      </trkpt>
      <trkpt lat="42.460971" lon="2.438349">
        <ele>2022.118</ele>
        <time>2021-05-28T13:01:57Z</time>
      </trkpt>
      <trkpt lat="42.460988" lon="2.438326">
        <ele>2022.845</ele>
        <time>2021-05-28T13:02:01Z</time>
      </trkpt>
      <trkpt lat="42.461002" lon="2.438308">
        <ele>2023.216</ele>
        <time>2021-05-28T13:02:04Z</time>
      </trkpt>
      <trkpt lat="42.461006" lon="2.438278">
        <ele>2023.715</ele>
        <time>2021-05-28T13:02:07Z</time>
      </trkpt>
      <trkpt lat="42.461017" lon="2.438249">
        <ele>2024.362</ele>
        <time>2021-05-28T13:02:11Z</time>
      </trkpt>
      <trkpt lat="42.461033" lon="2.438230">
        <ele>2024.817</ele>
        <time>2021-05-28T13:02:15Z</time>
      </trkpt>
      <trkpt lat="42.461054" lon="2.438216">
        <ele>2025.364</ele>
        <time>2021-05-28T13:02:18Z</time>
      </trkpt>
      <trkpt lat="42.461072" lon="2.438197">
        <ele>2025.912</ele>
        <time>2021-05-28T13:02:21Z</time>
      </trkpt>
      <trkpt lat="42.461089" lon="2.438178">
        <ele>2026.537</ele>
        <time>2021-05-28T13:02:24Z</time>
      </trkpt>
      <trkpt lat="42.461101" lon="2.438152">
        <ele>2027.149</ele>
        <time>2021-05-28T13:02:27Z</time>
      </trkpt>
      <trkpt lat="42.461116" lon="2.438128">
        <ele>2027.713</ele>
        <time>2021-05-28T13:02:30Z</time>
      </trkpt>
      <trkpt lat="42.461122" lon="2.438096">
        <ele>2028.308</ele>
        <time>2021-05-28T13:02:34Z</time>
      </trkpt>
      <trkpt lat="42.461122" lon="2.438067">
        <ele>2028.920</ele>
        <time>2021-05-28T13:02:37Z</time>
      </trkpt>
      <trkpt lat="42.461128" lon="2.438036">
        <ele>2029.377</ele>
        <time>2021-05-28T13:02:40Z</time>
      </trkpt>
      <trkpt lat="42.461132" lon="2.438006">
        <ele>2029.628</ele>
        <time>2021-05-28T13:02:44Z</time>
      </trkpt>
      <trkpt lat="42.461143" lon="2.437979">
        <ele>2029.957</ele>
        <time>2021-05-28T13:02:47Z</time>
      </trkpt>
      <trkpt lat="42.461154" lon="2.437958">
        <ele>2030.244</ele>
        <time>2021-05-28T13:02:49Z</time>
      </trkpt>
      <trkpt lat="42.461166" lon="2.437937">
        <ele>2030.669</ele>
        <time>2021-05-28T13:02:51Z</time>
      </trkpt>
      <trkpt lat="42.461182" lon="2.437909">
        <ele>2031.146</ele>
        <time>2021-05-28T13:02:54Z</time>
      </trkpt>
      <trkpt lat="42.461198" lon="2.437881">
        <ele>2031.794</ele>
        <time>2021-05-28T13:02:57Z</time>
      </trkpt>
      <trkpt lat="42.461208" lon="2.437856">
        <ele>2032.158</ele>
        <time>2021-05-28T13:02:59Z</time>
      </trkpt>
      <trkpt lat="42.461218" lon="2.437836">
        <ele>2032.652</ele>
        <time>2021-05-28T13:03:00Z</time>
      </trkpt>
      <trkpt lat="42.461228" lon="2.437805">
        <ele>2033.217</ele>
        <time>2021-05-28T13:03:04Z</time>
      </trkpt>
      <trkpt lat="42.461243" lon="2.437780">
        <ele>2033.808</ele>
        <time>2021-05-28T13:03:07Z</time>
      </trkpt>
      <trkpt lat="42.461258" lon="2.437758">
        <ele>2034.392</ele>
        <time>2021-05-28T13:03:10Z</time>
      </trkpt>
      <trkpt lat="42.461270" lon="2.437733">
        <ele>2034.899</ele>
        <time>2021-05-28T13:03:13Z</time>
      </trkpt>
      <trkpt lat="42.461278" lon="2.437710">
        <ele>2035.220</ele>
        <time>2021-05-28T13:03:16Z</time>
      </trkpt>
      <trkpt lat="42.461289" lon="2.437680">
        <ele>2035.729</ele>
        <time>2021-05-28T13:03:20Z</time>
      </trkpt>
      <trkpt lat="42.461300" lon="2.437651">
        <ele>2036.336</ele>
        <time>2021-05-28T13:03:23Z</time>
      </trkpt>
      <trkpt lat="42.461316" lon="2.437623">
        <ele>2037.161</ele>
        <time>2021-05-28T13:03:25Z</time>
      </trkpt>
      <trkpt lat="42.461329" lon="2.437602">
        <ele>2037.718</ele>
        <time>2021-05-28T13:03:28Z</time>
      </trkpt>
      <trkpt lat="42.461344" lon="2.437573">
        <ele>2038.556</ele>
        <time>2021-05-28T13:03:30Z</time>
      </trkpt>
      <trkpt lat="42.461359" lon="2.437550">
        <ele>2039.365</ele>
        <time>2021-05-28T13:03:34Z</time>
      </trkpt>
      <trkpt lat="42.461367" lon="2.437522">
        <ele>2039.968</ele>
        <time>2021-05-28T13:03:37Z</time>
      </trkpt>
      <trkpt lat="42.461383" lon="2.437503">
        <ele>2040.714</ele>
        <time>2021-05-28T13:03:39Z</time>
      </trkpt>
      <trkpt lat="42.461405" lon="2.437489">
        <ele>2041.608</ele>
        <time>2021-05-28T13:03:42Z</time>
      </trkpt>
      <trkpt lat="42.461410" lon="2.437454">
        <ele>2042.183</ele>
        <time>2021-05-28T13:03:46Z</time>
      </trkpt>
      <trkpt lat="42.461409" lon="2.437429">
        <ele>2042.440</ele>
        <time>2021-05-28T13:03:47Z</time>
      </trkpt>
      <trkpt lat="42.461414" lon="2.437395">
        <ele>2042.921</ele>
        <time>2021-05-28T13:03:50Z</time>
      </trkpt>
      <trkpt lat="42.461424" lon="2.437361">
        <ele>2043.670</ele>
        <time>2021-05-28T13:03:53Z</time>
      </trkpt>
      <trkpt lat="42.461430" lon="2.437337">
        <ele>2044.197</ele>
        <time>2021-05-28T13:03:55Z</time>
      </trkpt>
      <trkpt lat="42.461432" lon="2.437311">
        <ele>2044.572</ele>
        <time>2021-05-28T13:03:57Z</time>
      </trkpt>
      <trkpt lat="42.461441" lon="2.437275">
        <ele>2045.259</ele>
        <time>2021-05-28T13:04:00Z</time>
      </trkpt>
      <trkpt lat="42.461447" lon="2.437252">
        <ele>2045.797</ele>
        <time>2021-05-28T13:04:02Z</time>
      </trkpt>
      <trkpt lat="42.461453" lon="2.437224">
        <ele>2046.377</ele>
        <time>2021-05-28T13:04:06Z</time>
      </trkpt>
      <trkpt lat="42.461457" lon="2.437191">
        <ele>2046.661</ele>
        <time>2021-05-28T13:04:09Z</time>
      </trkpt>
      <trkpt lat="42.461464" lon="2.437157">
        <ele>2047.127</ele>
        <time>2021-05-28T13:04:11Z</time>
      </trkpt>
      <trkpt lat="42.461474" lon="2.437135">
        <ele>2047.708</ele>
        <time>2021-05-28T13:04:15Z</time>
      </trkpt>
      <trkpt lat="42.461487" lon="2.437111">
        <ele>2048.424</ele>
        <time>2021-05-28T13:04:17Z</time>
      </trkpt>
      <trkpt lat="42.461492" lon="2.437085">
        <ele>2048.871</ele>
        <time>2021-05-28T13:04:20Z</time>
      </trkpt>
      <trkpt lat="42.461503" lon="2.437054">
        <ele>2049.572</ele>
        <time>2021-05-28T13:04:24Z</time>
      </trkpt>
      <trkpt lat="42.461507" lon="2.437028">
        <ele>2049.861</ele>
        <time>2021-05-28T13:04:26Z</time>
      </trkpt>
      <trkpt lat="42.461514" lon="2.437002">
        <ele>2050.498</ele>
        <time>2021-05-28T13:04:28Z</time>
      </trkpt>
      <trkpt lat="42.461525" lon="2.436974">
        <ele>2051.183</ele>
        <time>2021-05-28T13:04:31Z</time>
      </trkpt>
      <trkpt lat="42.461539" lon="2.436944">
        <ele>2052.020</ele>
        <time>2021-05-28T13:04:34Z</time>
      </trkpt>
      <trkpt lat="42.461556" lon="2.436921">
        <ele>2052.888</ele>
        <time>2021-05-28T13:04:37Z</time>
      </trkpt>
      <trkpt lat="42.461573" lon="2.436905">
        <ele>2053.655</ele>
        <time>2021-05-28T13:04:39Z</time>
      </trkpt>
      <trkpt lat="42.461583" lon="2.436876">
        <ele>2054.007</ele>
        <time>2021-05-28T13:04:41Z</time>
      </trkpt>
      <trkpt lat="42.461585" lon="2.436850">
        <ele>2054.117</ele>
        <time>2021-05-28T13:04:44Z</time>
      </trkpt>
      <trkpt lat="42.461592" lon="2.436816">
        <ele>2054.408</ele>
        <time>2021-05-28T13:04:47Z</time>
      </trkpt>
      <trkpt lat="42.461600" lon="2.436790">
        <ele>2054.792</ele>
        <time>2021-05-28T13:04:50Z</time>
      </trkpt>
      <trkpt lat="42.461605" lon="2.436763">
        <ele>2055.049</ele>
        <time>2021-05-28T13:04:53Z</time>
      </trkpt>
      <trkpt lat="42.461619" lon="2.436737">
        <ele>2055.650</ele>
        <time>2021-05-28T13:04:58Z</time>
      </trkpt>
      <trkpt lat="42.461623" lon="2.436706">
        <ele>2055.889</ele>
        <time>2021-05-28T13:05:04Z</time>
      </trkpt>
      <trkpt lat="42.461628" lon="2.436678">
        <ele>2056.196</ele>
        <time>2021-05-28T13:05:06Z</time>
      </trkpt>
      <trkpt lat="42.461640" lon="2.436647">
        <ele>2056.761</ele>
        <time>2021-05-28T13:05:11Z</time>
      </trkpt>
      <trkpt lat="42.461648" lon="2.436623">
        <ele>2057.188</ele>
        <time>2021-05-28T13:05:14Z</time>
      </trkpt>
      <trkpt lat="42.461661" lon="2.436597">
        <ele>2057.756</ele>
        <time>2021-05-28T13:05:20Z</time>
      </trkpt>
      <trkpt lat="42.461671" lon="2.436575">
        <ele>2058.244</ele>
        <time>2021-05-28T13:05:36Z</time>
      </trkpt>
      <trkpt lat="42.461682" lon="2.436552">
        <ele>2058.505</ele>
        <time>2021-05-28T13:05:39Z</time>
      </trkpt>
      <trkpt lat="42.461692" lon="2.436524">
        <ele>2058.915</ele>
        <time>2021-05-28T13:05:42Z</time>
      </trkpt>
      <trkpt lat="42.461702" lon="2.436500">
        <ele>2059.208</ele>
        <time>2021-05-28T13:05:45Z</time>
      </trkpt>
      <trkpt lat="42.461716" lon="2.436478">
        <ele>2059.781</ele>
        <time>2021-05-28T13:06:04Z</time>
      </trkpt>
      <trkpt lat="42.461733" lon="2.436456">
        <ele>2060.218</ele>
        <time>2021-05-28T13:06:07Z</time>
      </trkpt>
      <trkpt lat="42.461742" lon="2.436432">
        <ele>2060.569</ele>
        <time>2021-05-28T13:06:10Z</time>
      </trkpt>
      <trkpt lat="42.461758" lon="2.436411">
        <ele>2061.028</ele>
        <time>2021-05-28T13:06:13Z</time>
      </trkpt>
      <trkpt lat="42.461777" lon="2.436396">
        <ele>2061.655</ele>
        <time>2021-05-28T13:06:17Z</time>
      </trkpt>
      <trkpt lat="42.461791" lon="2.436375">
        <ele>2062.070</ele>
        <time>2021-05-28T13:06:20Z</time>
      </trkpt>
      <trkpt lat="42.461803" lon="2.436351">
        <ele>2062.397</ele>
        <time>2021-05-28T13:06:23Z</time>
      </trkpt>
      <trkpt lat="42.461823" lon="2.436331">
        <ele>2062.925</ele>
        <time>2021-05-28T13:06:27Z</time>
      </trkpt>
      <trkpt lat="42.461838" lon="2.436315">
        <ele>2063.337</ele>
        <time>2021-05-28T13:06:30Z</time>
      </trkpt>
      <trkpt lat="42.461851" lon="2.436295">
        <ele>2063.649</ele>
        <time>2021-05-28T13:06:33Z</time>
      </trkpt>
      <trkpt lat="42.461859" lon="2.436268">
        <ele>2063.813</ele>
        <time>2021-05-28T13:06:36Z</time>
      </trkpt>
      <trkpt lat="42.461874" lon="2.436240">
        <ele>2064.208</ele>
        <time>2021-05-28T13:06:39Z</time>
      </trkpt>
      <trkpt lat="42.461891" lon="2.436224">
        <ele>2064.790</ele>
        <time>2021-05-28T13:06:41Z</time>
      </trkpt>
      <trkpt lat="42.461902" lon="2.436202">
        <ele>2065.047</ele>
        <time>2021-05-28T13:06:45Z</time>
      </trkpt>
      <trkpt lat="42.461919" lon="2.436194">
        <ele>2065.548</ele>
        <time>2021-05-28T13:06:56Z</time>
      </trkpt>
      <trkpt lat="42.461939" lon="2.436172">
        <ele>2066.057</ele>
        <time>2021-05-28T13:06:59Z</time>
      </trkpt>
      <trkpt lat="42.461958" lon="2.436151">
        <ele>2066.664</ele>
        <time>2021-05-28T13:07:01Z</time>
      </trkpt>
      <trkpt lat="42.461973" lon="2.436124">
        <ele>2067.119</ele>
        <time>2021-05-28T13:07:05Z</time>
      </trkpt>
      <trkpt lat="42.461988" lon="2.436105">
        <ele>2067.526</ele>
        <time>2021-05-28T13:07:07Z</time>
      </trkpt>
      <trkpt lat="42.462004" lon="2.436090">
        <ele>2068.034</ele>
        <time>2021-05-28T13:07:09Z</time>
      </trkpt>
      <trkpt lat="42.462015" lon="2.436069">
        <ele>2068.392</ele>
        <time>2021-05-28T13:07:11Z</time>
      </trkpt>
      <trkpt lat="42.462027" lon="2.436038">
        <ele>2068.573</ele>
        <time>2021-05-28T13:07:13Z</time>
      </trkpt>
      <trkpt lat="42.462038" lon="2.436010">
        <ele>2068.820</ele>
        <time>2021-05-28T13:07:17Z</time>
      </trkpt>
      <trkpt lat="42.462050" lon="2.435990">
        <ele>2069.108</ele>
        <time>2021-05-28T13:07:19Z</time>
      </trkpt>
      <trkpt lat="42.462067" lon="2.435956">
        <ele>2069.586</ele>
        <time>2021-05-28T13:07:23Z</time>
      </trkpt>
      <trkpt lat="42.462081" lon="2.435929">
        <ele>2069.963</ele>
        <time>2021-05-28T13:07:25Z</time>
      </trkpt>
      <trkpt lat="42.462092" lon="2.435897">
        <ele>2070.244</ele>
        <time>2021-05-28T13:07:26Z</time>
      </trkpt>
      <trkpt lat="42.462106" lon="2.435875">
        <ele>2070.613</ele>
        <time>2021-05-28T13:07:29Z</time>
      </trkpt>
      <trkpt lat="42.462123" lon="2.435859">
        <ele>2071.240</ele>
        <time>2021-05-28T13:07:30Z</time>
      </trkpt>
      <trkpt lat="42.462137" lon="2.435840">
        <ele>2071.795</ele>
        <time>2021-05-28T13:07:32Z</time>
      </trkpt>
      <trkpt lat="42.462149" lon="2.435817">
        <ele>2072.022</ele>
        <time>2021-05-28T13:07:34Z</time>
      </trkpt>
      <trkpt lat="42.462161" lon="2.435796">
        <ele>2072.330</ele>
        <time>2021-05-28T13:07:37Z</time>
      </trkpt>
      <trkpt lat="42.462175" lon="2.435773">
        <ele>2072.779</ele>
        <time>2021-05-28T13:07:40Z</time>
      </trkpt>
      <trkpt lat="42.462192" lon="2.435749">
        <ele>2073.205</ele>
        <time>2021-05-28T13:07:42Z</time>
      </trkpt>
      <trkpt lat="42.462207" lon="2.435736">
        <ele>2073.725</ele>
        <time>2021-05-28T13:07:44Z</time>
      </trkpt>
      <trkpt lat="42.462225" lon="2.435710">
        <ele>2074.208</ele>
        <time>2021-05-28T13:07:47Z</time>
      </trkpt>
      <trkpt lat="42.462237" lon="2.435691">
        <ele>2074.534</ele>
        <time>2021-05-28T13:07:49Z</time>
      </trkpt>
      <trkpt lat="42.462251" lon="2.435672">
        <ele>2074.891</ele>
        <time>2021-05-28T13:07:51Z</time>
      </trkpt>
      <trkpt lat="42.462272" lon="2.435649">
        <ele>2075.412</ele>
        <time>2021-05-28T13:07:55Z</time>
      </trkpt>
      <trkpt lat="42.462285" lon="2.435631">
        <ele>2075.761</ele>
        <time>2021-05-28T13:07:56Z</time>
      </trkpt>
      <trkpt lat="42.462298" lon="2.435602">
        <ele>2076.048</ele>
        <time>2021-05-28T13:08:00Z</time>
      </trkpt>
      <trkpt lat="42.462312" lon="2.435580">
        <ele>2076.433</ele>
        <time>2021-05-28T13:08:02Z</time>
      </trkpt>
      <trkpt lat="42.462324" lon="2.435560">
        <ele>2076.710</ele>
        <time>2021-05-28T13:08:04Z</time>
      </trkpt>
      <trkpt lat="42.462331" lon="2.435537">
        <ele>2076.878</ele>
        <time>2021-05-28T13:08:06Z</time>
      </trkpt>
      <trkpt lat="42.462344" lon="2.435499">
        <ele>2077.023</ele>
        <time>2021-05-28T13:08:08Z</time>
      </trkpt>
      <trkpt lat="42.462357" lon="2.435478">
        <ele>2077.383</ele>
        <time>2021-05-28T13:08:10Z</time>
      </trkpt>
      <trkpt lat="42.462374" lon="2.435459">
        <ele>2077.811</ele>
        <time>2021-05-28T13:08:14Z</time>
      </trkpt>
      <trkpt lat="42.462395" lon="2.435443">
        <ele>2078.408</ele>
        <time>2021-05-28T13:08:16Z</time>
      </trkpt>
      <trkpt lat="42.462416" lon="2.435436">
        <ele>2079.139</ele>
        <time>2021-05-28T13:08:21Z</time>
      </trkpt>
      <trkpt lat="42.462436" lon="2.435421">
        <ele>2079.726</ele>
        <time>2021-05-28T13:08:24Z</time>
      </trkpt>
      <trkpt lat="42.462451" lon="2.435398">
        <ele>2080.137</ele>
        <time>2021-05-28T13:08:27Z</time>
      </trkpt>
      <trkpt lat="42.462474" lon="2.435372">
        <ele>2080.766</ele>
        <time>2021-05-28T13:08:30Z</time>
      </trkpt>
      <trkpt lat="42.462482" lon="2.435337">
        <ele>2080.813</ele>
        <time>2021-05-28T13:08:34Z</time>
      </trkpt>
      <trkpt lat="42.462497" lon="2.435313">
        <ele>2081.168</ele>
        <time>2021-05-28T13:08:37Z</time>
      </trkpt>
      <trkpt lat="42.462512" lon="2.435287">
        <ele>2081.565</ele>
        <time>2021-05-28T13:08:40Z</time>
      </trkpt>
      <trkpt lat="42.462530" lon="2.435274">
        <ele>2082.123</ele>
        <time>2021-05-28T13:08:42Z</time>
      </trkpt>
      <trkpt lat="42.462547" lon="2.435263">
        <ele>2082.685</ele>
        <time>2021-05-28T13:08:44Z</time>
      </trkpt>
      <trkpt lat="42.462562" lon="2.435250">
        <ele>2083.189</ele>
        <time>2021-05-28T13:08:45Z</time>
      </trkpt>
      <trkpt lat="42.462580" lon="2.435233">
        <ele>2083.617</ele>
        <time>2021-05-28T13:08:49Z</time>
      </trkpt>
      <trkpt lat="42.462596" lon="2.435218">
        <ele>2084.108</ele>
        <time>2021-05-28T13:08:52Z</time>
      </trkpt>
      <trkpt lat="42.462616" lon="2.435207">
        <ele>2084.835</ele>
        <time>2021-05-28T13:08:55Z</time>
      </trkpt>
      <trkpt lat="42.462630" lon="2.435187">
        <ele>2085.262</ele>
        <time>2021-05-28T13:08:57Z</time>
      </trkpt>
      <trkpt lat="42.462643" lon="2.435165">
        <ele>2085.513</ele>
        <time>2021-05-28T13:09:00Z</time>
      </trkpt>
      <trkpt lat="42.462663" lon="2.435155">
        <ele>2086.212</ele>
        <time>2021-05-28T13:09:03Z</time>
      </trkpt>
      <trkpt lat="42.462679" lon="2.435130">
        <ele>2086.789</ele>
        <time>2021-05-28T13:09:07Z</time>
      </trkpt>
      <trkpt lat="42.462700" lon="2.435111">
        <ele>2087.484</ele>
        <time>2021-05-28T13:09:10Z</time>
      </trkpt>
      <trkpt lat="42.462722" lon="2.435093">
        <ele>2088.241</ele>
        <time>2021-05-28T13:09:13Z</time>
      </trkpt>
      <trkpt lat="42.462748" lon="2.435087">
        <ele>2089.259</ele>
        <time>2021-05-28T13:09:16Z</time>
      </trkpt>
      <trkpt lat="42.462767" lon="2.435100">
        <ele>2089.957</ele>
        <time>2021-05-28T13:09:19Z</time>
      </trkpt>
      <trkpt lat="42.462795" lon="2.435105">
        <ele>2090.700</ele>
        <time>2021-05-28T13:09:22Z</time>
      </trkpt>
      <trkpt lat="42.462815" lon="2.435101">
        <ele>2091.120</ele>
        <time>2021-05-28T13:09:24Z</time>
      </trkpt>
      <trkpt lat="42.462835" lon="2.435099">
        <ele>2091.508</ele>
        <time>2021-05-28T13:09:27Z</time>
      </trkpt>
      <trkpt lat="42.462853" lon="2.435091">
        <ele>2091.942</ele>
        <time>2021-05-28T13:09:28Z</time>
      </trkpt>
      <trkpt lat="42.462878" lon="2.435083">
        <ele>2092.439</ele>
        <time>2021-05-28T13:09:32Z</time>
      </trkpt>
      <trkpt lat="42.462900" lon="2.435068">
        <ele>2092.910</ele>
        <time>2021-05-28T13:09:35Z</time>
      </trkpt>
      <trkpt lat="42.462918" lon="2.435058">
        <ele>2093.359</ele>
        <time>2021-05-28T13:09:36Z</time>
      </trkpt>
      <trkpt lat="42.462940" lon="2.435046">
        <ele>2093.966</ele>
        <time>2021-05-28T13:09:38Z</time>
      </trkpt>
      <trkpt lat="42.462959" lon="2.435036">
        <ele>2094.451</ele>
        <time>2021-05-28T13:09:40Z</time>
      </trkpt>
      <trkpt lat="42.462972" lon="2.435004">
        <ele>2094.978</ele>
        <time>2021-05-28T13:09:43Z</time>
      </trkpt>
      <trkpt lat="42.462993" lon="2.434982">
        <ele>2095.326</ele>
        <time>2021-05-28T13:09:46Z</time>
      </trkpt>
      <trkpt lat="42.463016" lon="2.434962">
        <ele>2095.828</ele>
        <time>2021-05-28T13:09:49Z</time>
      </trkpt>
      <trkpt lat="42.463040" lon="2.434954">
        <ele>2096.489</ele>
        <time>2021-05-28T13:09:52Z</time>
      </trkpt>
      <trkpt lat="42.463060" lon="2.434948">
        <ele>2096.917</ele>
        <time>2021-05-28T13:09:55Z</time>
      </trkpt>
      <trkpt lat="42.463085" lon="2.434943">
        <ele>2097.208</ele>
        <time>2021-05-28T13:09:58Z</time>
      </trkpt>
      <trkpt lat="42.463109" lon="2.434927">
        <ele>2097.559</ele>
        <time>2021-05-28T13:10:01Z</time>
      </trkpt>
      <trkpt lat="42.463130" lon="2.434924">
        <ele>2097.836</ele>
        <time>2021-05-28T13:10:04Z</time>
      </trkpt>
      <trkpt lat="42.463150" lon="2.434918">
        <ele>2098.047</ele>
        <time>2021-05-28T13:10:08Z</time>
      </trkpt>
      <trkpt lat="42.463173" lon="2.434900">
        <ele>2098.446</ele>
        <time>2021-05-28T13:10:10Z</time>
      </trkpt>
      <trkpt lat="42.463196" lon="2.434894">
        <ele>2098.733</ele>
        <time>2021-05-28T13:10:13Z</time>
      </trkpt>
      <trkpt lat="42.463215" lon="2.434886">
        <ele>2099.098</ele>
        <time>2021-05-28T13:10:16Z</time>
      </trkpt>
      <trkpt lat="42.463237" lon="2.434882">
        <ele>2099.475</ele>
        <time>2021-05-28T13:10:20Z</time>
      </trkpt>
      <trkpt lat="42.463259" lon="2.434886">
        <ele>2099.713</ele>
        <time>2021-05-28T13:10:23Z</time>
      </trkpt>
      <trkpt lat="42.463279" lon="2.434899">
        <ele>2099.949</ele>
        <time>2021-05-28T13:10:26Z</time>
      </trkpt>
      <trkpt lat="42.463306" lon="2.434891">
        <ele>2100.402</ele>
        <time>2021-05-28T13:10:30Z</time>
      </trkpt>
      <trkpt lat="42.463326" lon="2.434878">
        <ele>2100.822</ele>
        <time>2021-05-28T13:10:33Z</time>
      </trkpt>
      <trkpt lat="42.463341" lon="2.434859">
        <ele>2101.008</ele>
        <time>2021-05-28T13:10:37Z</time>
      </trkpt>
      <trkpt lat="42.463345" lon="2.434823">
        <ele>2101.341</ele>
        <time>2021-05-28T13:10:39Z</time>
      </trkpt>
      <trkpt lat="42.463339" lon="2.434797">
        <ele>2101.598</ele>
        <time>2021-05-28T13:10:41Z</time>
      </trkpt>
      <trkpt lat="42.463344" lon="2.434770">
        <ele>2101.729</ele>
        <time>2021-05-28T13:10:44Z</time>
      </trkpt>
      <trkpt lat="42.463352" lon="2.434744">
        <ele>2102.018</ele>
        <time>2021-05-28T13:10:46Z</time>
      </trkpt>
      <trkpt lat="42.463365" lon="2.434723">
        <ele>2102.225</ele>
        <time>2021-05-28T13:10:47Z</time>
      </trkpt>
      <trkpt lat="42.463380" lon="2.434694">
        <ele>2102.690</ele>
        <time>2021-05-28T13:10:50Z</time>
      </trkpt>
      <trkpt lat="42.463384" lon="2.434669">
        <ele>2102.927</ele>
        <time>2021-05-28T13:10:52Z</time>
      </trkpt>
      <trkpt lat="42.463393" lon="2.434645">
        <ele>2103.215</ele>
        <time>2021-05-28T13:10:55Z</time>
      </trkpt>
      <trkpt lat="42.463402" lon="2.434622">
        <ele>2103.532</ele>
        <time>2021-05-28T13:10:56Z</time>
      </trkpt>
      <trkpt lat="42.463411" lon="2.434596">
        <ele>2103.892</ele>
        <time>2021-05-28T13:10:58Z</time>
      </trkpt>
      <trkpt lat="42.463414" lon="2.434573">
        <ele>2104.111</ele>
        <time>2021-05-28T13:11:00Z</time>
      </trkpt>
      <trkpt lat="42.463419" lon="2.434548">
        <ele>2104.508</ele>
        <time>2021-05-28T13:11:03Z</time>
      </trkpt>
      <trkpt lat="42.463430" lon="2.434529">
        <ele>2104.850</ele>
        <time>2021-05-28T13:11:04Z</time>
      </trkpt>
      <trkpt lat="42.463439" lon="2.434506">
        <ele>2105.277</ele>
        <time>2021-05-28T13:11:06Z</time>
      </trkpt>
      <trkpt lat="42.463451" lon="2.434483">
        <ele>2105.798</ele>
        <time>2021-05-28T13:11:08Z</time>
      </trkpt>
      <trkpt lat="42.463465" lon="2.434453">
        <ele>2106.377</ele>
        <time>2021-05-28T13:11:11Z</time>
      </trkpt>
      <trkpt lat="42.463468" lon="2.434420">
        <ele>2106.754</ele>
        <time>2021-05-28T13:11:15Z</time>
      </trkpt>
      <trkpt lat="42.463468" lon="2.434395">
        <ele>2107.059</ele>
        <time>2021-05-28T13:11:17Z</time>
      </trkpt>
      <trkpt lat="42.463476" lon="2.434365">
        <ele>2107.446</ele>
        <time>2021-05-28T13:11:19Z</time>
      </trkpt>
      <trkpt lat="42.463486" lon="2.434345">
        <ele>2107.974</ele>
        <time>2021-05-28T13:11:21Z</time>
      </trkpt>
      <trkpt lat="42.463496" lon="2.434311">
        <ele>2108.545</ele>
        <time>2021-05-28T13:11:24Z</time>
      </trkpt>
      <trkpt lat="42.463509" lon="2.434291">
        <ele>2109.047</ele>
        <time>2021-05-28T13:11:26Z</time>
      </trkpt>
      <trkpt lat="42.463508" lon="2.434255">
        <ele>2109.411</ele>
        <time>2021-05-28T13:11:29Z</time>
      </trkpt>
      <trkpt lat="42.463502" lon="2.434227">
        <ele>2109.608</ele>
        <time>2021-05-28T13:11:31Z</time>
      </trkpt>
      <trkpt lat="42.463503" lon="2.434191">
        <ele>2110.031</ele>
        <time>2021-05-28T13:11:34Z</time>
      </trkpt>
      <trkpt lat="42.463505" lon="2.434165">
        <ele>2110.388</ele>
        <time>2021-05-28T13:11:36Z</time>
      </trkpt>
      <trkpt lat="42.463499" lon="2.434138">
        <ele>2110.519</ele>
        <time>2021-05-28T13:11:38Z</time>
      </trkpt>
      <trkpt lat="42.463495" lon="2.434108">
        <ele>2110.748</ele>
        <time>2021-05-28T13:11:41Z</time>
      </trkpt>
      <trkpt lat="42.463492" lon="2.434079">
        <ele>2110.915</ele>
        <time>2021-05-28T13:11:43Z</time>
      </trkpt>
      <trkpt lat="42.463494" lon="2.434036">
        <ele>2111.540</ele>
        <time>2021-05-28T13:11:45Z</time>
      </trkpt>
      <trkpt lat="42.463492" lon="2.434007">
        <ele>2111.757</ele>
        <time>2021-05-28T13:11:47Z</time>
      </trkpt>
      <trkpt lat="42.463481" lon="2.433979">
        <ele>2111.735</ele>
        <time>2021-05-28T13:11:49Z</time>
      </trkpt>
      <trkpt lat="42.463476" lon="2.433948">
        <ele>2112.073</ele>
        <time>2021-05-28T13:11:51Z</time>
      </trkpt>
      <trkpt lat="42.463477" lon="2.433923">
        <ele>2112.385</ele>
        <time>2021-05-28T13:11:53Z</time>
      </trkpt>
      <trkpt lat="42.463487" lon="2.433887">
        <ele>2112.913</ele>
        <time>2021-05-28T13:11:56Z</time>
      </trkpt>
      <trkpt lat="42.463496" lon="2.433857">
        <ele>2113.608</ele>
        <time>2021-05-28T13:11:58Z</time>
      </trkpt>
      <trkpt lat="42.463505" lon="2.433830">
        <ele>2114.284</ele>
        <time>2021-05-28T13:12:01Z</time>
      </trkpt>
      <trkpt lat="42.463513" lon="2.433802">
        <ele>2114.891</ele>
        <time>2021-05-28T13:12:02Z</time>
      </trkpt>
      <trkpt lat="42.463518" lon="2.433778">
        <ele>2115.282</ele>
        <time>2021-05-28T13:12:04Z</time>
      </trkpt>
      <trkpt lat="42.463512" lon="2.433742">
        <ele>2115.681</ele>
        <time>2021-05-28T13:12:08Z</time>
      </trkpt>
      <trkpt lat="42.463502" lon="2.433721">
        <ele>2115.748</ele>
        <time>2021-05-28T13:12:10Z</time>
      </trkpt>
      <trkpt lat="42.463496" lon="2.433696">
        <ele>2115.973</ele>
        <time>2021-05-28T13:12:11Z</time>
      </trkpt>
      <trkpt lat="42.463491" lon="2.433672">
        <ele>2116.180</ele>
        <time>2021-05-28T13:12:13Z</time>
      </trkpt>
      <trkpt lat="42.463481" lon="2.433641">
        <ele>2116.318</ele>
        <time>2021-05-28T13:12:16Z</time>
      </trkpt>
      <trkpt lat="42.463478" lon="2.433606">
        <ele>2116.779</ele>
        <time>2021-05-28T13:12:20Z</time>
      </trkpt>
      <trkpt lat="42.463465" lon="2.433575">
        <ele>2116.805</ele>
        <time>2021-05-28T13:12:23Z</time>
      </trkpt>
      <trkpt lat="42.463458" lon="2.433549">
        <ele>2117.025</ele>
        <time>2021-05-28T13:12:24Z</time>
      </trkpt>
      <trkpt lat="42.463450" lon="2.433522">
        <ele>2117.208</ele>
        <time>2021-05-28T13:12:27Z</time>
      </trkpt>
      <trkpt lat="42.463445" lon="2.433495">
        <ele>2117.574</ele>
        <time>2021-05-28T13:12:29Z</time>
      </trkpt>
      <trkpt lat="42.463444" lon="2.433458">
        <ele>2118.051</ele>
        <time>2021-05-28T13:12:31Z</time>
      </trkpt>
      <trkpt lat="42.463441" lon="2.433416">
        <ele>2118.512</ele>
        <time>2021-05-28T13:12:35Z</time>
      </trkpt>
      <trkpt lat="42.463433" lon="2.433383">
        <ele>2118.811</ele>
        <time>2021-05-28T13:12:38Z</time>
      </trkpt>
      <trkpt lat="42.463427" lon="2.433352">
        <ele>2119.178</ele>
        <time>2021-05-28T13:12:42Z</time>
      </trkpt>
      <trkpt lat="42.463421" lon="2.433327">
        <ele>2119.313</ele>
        <time>2021-05-28T13:12:44Z</time>
      </trkpt>
      <trkpt lat="42.463412" lon="2.433304">
        <ele>2119.410</ele>
        <time>2021-05-28T13:12:45Z</time>
      </trkpt>
      <trkpt lat="42.463404" lon="2.433281">
        <ele>2119.518</ele>
        <time>2021-05-28T13:12:48Z</time>
      </trkpt>
      <trkpt lat="42.463395" lon="2.433249">
        <ele>2119.821</ele>
        <time>2021-05-28T13:12:50Z</time>
      </trkpt>
      <trkpt lat="42.463388" lon="2.433225">
        <ele>2119.941</ele>
        <time>2021-05-28T13:12:52Z</time>
      </trkpt>
      <trkpt lat="42.463375" lon="2.433191">
        <ele>2120.105</ele>
        <time>2021-05-28T13:12:55Z</time>
      </trkpt>
      <trkpt lat="42.463375" lon="2.433158">
        <ele>2120.608</ele>
        <time>2021-05-28T13:12:59Z</time>
      </trkpt>
      <trkpt lat="42.463386" lon="2.433132">
        <ele>2121.219</ele>
        <time>2021-05-28T13:13:01Z</time>
      </trkpt>
      <trkpt lat="42.463403" lon="2.433111">
        <ele>2122.086</ele>
        <time>2021-05-28T13:13:06Z</time>
      </trkpt>
      <trkpt lat="42.463424" lon="2.433097">
        <ele>2122.717</ele>
        <time>2021-05-28T13:13:08Z</time>
      </trkpt>
      <trkpt lat="42.463447" lon="2.433092">
        <ele>2123.366</ele>
        <time>2021-05-28T13:13:11Z</time>
      </trkpt>
      <trkpt lat="42.463466" lon="2.433094">
        <ele>2123.893</ele>
        <time>2021-05-28T13:13:13Z</time>
      </trkpt>
      <trkpt lat="42.463489" lon="2.433101">
        <ele>2124.358</ele>
        <time>2021-05-28T13:13:17Z</time>
      </trkpt>
      <trkpt lat="42.463512" lon="2.433109">
        <ele>2124.765</ele>
        <time>2021-05-28T13:13:19Z</time>
      </trkpt>
      <trkpt lat="42.463537" lon="2.433111">
        <ele>2125.333</ele>
        <time>2021-05-28T13:13:22Z</time>
      </trkpt>
      <trkpt lat="42.463560" lon="2.433105">
        <ele>2126.028</ele>
        <time>2021-05-28T13:13:25Z</time>
      </trkpt>
      <trkpt lat="42.463577" lon="2.433093">
        <ele>2126.689</ele>
        <time>2021-05-28T13:13:28Z</time>
      </trkpt>
      <trkpt lat="42.463597" lon="2.433092">
        <ele>2127.117</ele>
        <time>2021-05-28T13:13:29Z</time>
      </trkpt>
      <trkpt lat="42.463625" lon="2.433087">
        <ele>2127.708</ele>
        <time>2021-05-28T13:13:33Z</time>
      </trkpt>
      <trkpt lat="42.463649" lon="2.433092">
        <ele>2127.959</ele>
        <time>2021-05-28T13:13:37Z</time>
      </trkpt>
      <trkpt lat="42.463670" lon="2.433085">
        <ele>2128.226</ele>
        <time>2021-05-28T13:13:39Z</time>
      </trkpt>
      <trkpt lat="42.463693" lon="2.433079">
        <ele>2128.547</ele>
        <time>2021-05-28T13:13:42Z</time>
      </trkpt>
      <trkpt lat="42.463716" lon="2.433064">
        <ele>2129.086</ele>
        <time>2021-05-28T13:13:46Z</time>
      </trkpt>
      <trkpt lat="42.463734" lon="2.433044">
        <ele>2129.693</ele>
        <time>2021-05-28T13:13:48Z</time>
      </trkpt>
      <trkpt lat="42.463757" lon="2.433029">
        <ele>2130.178</ele>
        <time>2021-05-28T13:13:51Z</time>
      </trkpt>
      <trkpt lat="42.463778" lon="2.433011">
        <ele>2130.865</ele>
        <time>2021-05-28T13:13:55Z</time>
      </trkpt>
      <trkpt lat="42.463801" lon="2.433006">
        <ele>2131.123</ele>
        <time>2021-05-28T13:13:57Z</time>
      </trkpt>
      <trkpt lat="42.463819" lon="2.433004">
        <ele>2131.485</ele>
        <time>2021-05-28T13:13:59Z</time>
      </trkpt>
      <trkpt lat="42.463840" lon="2.432994">
        <ele>2131.889</ele>
        <time>2021-05-28T13:14:02Z</time>
      </trkpt>
      <trkpt lat="42.463853" lon="2.432974">
        <ele>2132.417</ele>
        <time>2021-05-28T13:14:06Z</time>
      </trkpt>
      <trkpt lat="42.463867" lon="2.432953">
        <ele>2133.008</ele>
        <time>2021-05-28T13:14:09Z</time>
      </trkpt>
      <trkpt lat="42.463881" lon="2.432930">
        <ele>2133.645</ele>
        <time>2021-05-28T13:14:12Z</time>
      </trkpt>
      <trkpt lat="42.463890" lon="2.432904">
        <ele>2134.382</ele>
        <time>2021-05-28T13:14:14Z</time>
      </trkpt>
      <trkpt lat="42.463900" lon="2.432875">
        <ele>2134.863</ele>
        <time>2021-05-28T13:14:17Z</time>
      </trkpt>
      <trkpt lat="42.463919" lon="2.432860">
        <ele>2135.042</ele>
        <time>2021-05-28T13:14:21Z</time>
      </trkpt>
      <trkpt lat="42.463940" lon="2.432839">
        <ele>2135.379</ele>
        <time>2021-05-28T13:14:24Z</time>
      </trkpt>
      <trkpt lat="42.463951" lon="2.432817">
        <ele>2135.784</ele>
        <time>2021-05-28T13:14:28Z</time>
      </trkpt>
      <trkpt lat="42.463960" lon="2.432794">
        <ele>2136.191</ele>
        <time>2021-05-28T13:14:31Z</time>
      </trkpt>
      <trkpt lat="42.463979" lon="2.432779">
        <ele>2136.339</ele>
        <time>2021-05-28T13:14:33Z</time>
      </trkpt>
      <trkpt lat="42.463997" lon="2.432760">
        <ele>2136.641</ele>
        <time>2021-05-28T13:14:36Z</time>
      </trkpt>
      <trkpt lat="42.464009" lon="2.432739">
        <ele>2136.981</ele>
        <time>2021-05-28T13:14:40Z</time>
      </trkpt>
      <trkpt lat="42.464018" lon="2.432709">
        <ele>2137.409</ele>
        <time>2021-05-28T13:14:44Z</time>
      </trkpt>
      <trkpt lat="42.464014" lon="2.432676">
        <ele>2138.108</ele>
        <time>2021-05-28T13:14:47Z</time>
      </trkpt>
      <trkpt lat="42.464023" lon="2.432641">
        <ele>2138.731</ele>
        <time>2021-05-28T13:14:49Z</time>
      </trkpt>
      <trkpt lat="42.464031" lon="2.432612">
        <ele>2139.338</ele>
        <time>2021-05-28T13:14:52Z</time>
      </trkpt>
      <trkpt lat="42.464047" lon="2.432584">
        <ele>2139.729</ele>
        <time>2021-05-28T13:14:55Z</time>
      </trkpt>
      <trkpt lat="42.464062" lon="2.432556">
        <ele>2140.278</ele>
        <time>2021-05-28T13:14:58Z</time>
      </trkpt>
      <trkpt lat="42.464067" lon="2.432525">
        <ele>2140.975</ele>
        <time>2021-05-28T13:15:01Z</time>
      </trkpt>
      <trkpt lat="42.464085" lon="2.432508">
        <ele>2141.160</ele>
        <time>2021-05-28T13:15:05Z</time>
      </trkpt>
      <trkpt lat="42.464097" lon="2.432478">
        <ele>2141.777</ele>
        <time>2021-05-28T13:15:09Z</time>
      </trkpt>
      <trkpt lat="42.464104" lon="2.432451">
        <ele>2142.225</ele>
        <time>2021-05-28T13:15:12Z</time>
      </trkpt>
      <trkpt lat="42.464118" lon="2.432422">
        <ele>2142.817</ele>
        <time>2021-05-28T13:15:15Z</time>
      </trkpt>
      <trkpt lat="42.464130" lon="2.432400">
        <ele>2143.287</ele>
        <time>2021-05-28T13:15:16Z</time>
      </trkpt>
      <trkpt lat="42.464140" lon="2.432378">
        <ele>2143.715</ele>
        <time>2021-05-28T13:15:18Z</time>
      </trkpt>
      <trkpt lat="42.464147" lon="2.432354">
        <ele>2144.208</ele>
        <time>2021-05-28T13:15:20Z</time>
      </trkpt>
      <trkpt lat="42.464153" lon="2.432330">
        <ele>2144.768</ele>
        <time>2021-05-28T13:15:22Z</time>
      </trkpt>
      <trkpt lat="42.464166" lon="2.432300">
        <ele>2145.365</ele>
        <time>2021-05-28T13:15:25Z</time>
      </trkpt>
      <trkpt lat="42.464184" lon="2.432286">
        <ele>2145.326</ele>
        <time>2021-05-28T13:15:27Z</time>
      </trkpt>
      <trkpt lat="42.464202" lon="2.432265">
        <ele>2145.435</ele>
        <time>2021-05-28T13:15:30Z</time>
      </trkpt>
      <trkpt lat="42.464209" lon="2.432238">
        <ele>2145.962</ele>
        <time>2021-05-28T13:15:33Z</time>
      </trkpt>
      <trkpt lat="42.464223" lon="2.432214">
        <ele>2146.287</ele>
        <time>2021-05-28T13:15:37Z</time>
      </trkpt>
      <trkpt lat="42.464234" lon="2.432189">
        <ele>2146.584</ele>
        <time>2021-05-28T13:15:40Z</time>
      </trkpt>
      <trkpt lat="42.464252" lon="2.432166">
        <ele>2146.752</ele>
        <time>2021-05-28T13:15:44Z</time>
      </trkpt>
      <trkpt lat="42.464264" lon="2.432141">
        <ele>2147.163</ele>
        <time>2021-05-28T13:15:47Z</time>
      </trkpt>
      <trkpt lat="42.464268" lon="2.432113">
        <ele>2147.744</ele>
        <time>2021-05-28T13:15:49Z</time>
      </trkpt>
      <trkpt lat="42.464352" lon="2.432049">
        <ele>2147.818</ele>
        <time>2021-05-28T13:16:00Z</time>
      </trkpt>
      <trkpt lat="42.464414" lon="2.431951">
        <ele>2149.308</ele>
        <time>2021-05-28T13:16:13Z</time>
      </trkpt>
      <trkpt lat="42.464431" lon="2.431929">
        <ele>2149.753</ele>
        <time>2021-05-28T13:16:16Z</time>
      </trkpt>
      <trkpt lat="42.464444" lon="2.431910">
        <ele>2150.130</ele>
        <time>2021-05-28T13:16:20Z</time>
      </trkpt>
      <trkpt lat="42.464455" lon="2.431884">
        <ele>2150.881</ele>
        <time>2021-05-28T13:16:23Z</time>
      </trkpt>
      <trkpt lat="42.464462" lon="2.431858">
        <ele>2151.570</ele>
        <time>2021-05-28T13:16:25Z</time>
      </trkpt>
      <trkpt lat="42.464471" lon="2.431836">
        <ele>2152.017</ele>
        <time>2021-05-28T13:16:28Z</time>
      </trkpt>
      <trkpt lat="42.464486" lon="2.431813">
        <ele>2152.462</ele>
        <time>2021-05-28T13:16:31Z</time>
      </trkpt>
      <trkpt lat="42.464505" lon="2.431803">
        <ele>2152.489</ele>
        <time>2021-05-28T13:16:33Z</time>
      </trkpt>
      <trkpt lat="42.464524" lon="2.431800">
        <ele>2152.117</ele>
        <time>2021-05-28T13:16:34Z</time>
      </trkpt>
      <trkpt lat="42.464541" lon="2.431787">
        <ele>2152.242</ele>
        <time>2021-05-28T13:16:36Z</time>
      </trkpt>
      <trkpt lat="42.464557" lon="2.431761">
        <ele>2152.722</ele>
        <time>2021-05-28T13:16:39Z</time>
      </trkpt>
      <trkpt lat="42.464572" lon="2.431745">
        <ele>2152.814</ele>
        <time>2021-05-28T13:16:41Z</time>
      </trkpt>
      <trkpt lat="42.464587" lon="2.431731">
        <ele>2153.008</ele>
        <time>2021-05-28T13:16:43Z</time>
      </trkpt>
      <trkpt lat="42.464610" lon="2.431714">
        <ele>2153.071</ele>
        <time>2021-05-28T13:16:46Z</time>
      </trkpt>
      <trkpt lat="42.464625" lon="2.431695">
        <ele>2153.258</ele>
        <time>2021-05-28T13:16:49Z</time>
      </trkpt>
      <trkpt lat="42.464644" lon="2.431671">
        <ele>2153.689</ele>
        <time>2021-05-28T13:16:52Z</time>
      </trkpt>
      <trkpt lat="42.464663" lon="2.431652">
        <ele>2153.858</ele>
        <time>2021-05-28T13:16:55Z</time>
      </trkpt>
      <trkpt lat="42.464677" lon="2.431634">
        <ele>2154.085</ele>
        <time>2021-05-28T13:16:57Z</time>
      </trkpt>
      <trkpt lat="42.464687" lon="2.431612">
        <ele>2154.590</ele>
        <time>2021-05-28T13:17:00Z</time>
      </trkpt>
      <trkpt lat="42.464699" lon="2.431583">
        <ele>2155.217</ele>
        <time>2021-05-28T13:17:05Z</time>
      </trkpt>
      <trkpt lat="42.464713" lon="2.431560">
        <ele>2155.755</ele>
        <time>2021-05-28T13:17:08Z</time>
      </trkpt>
      <trkpt lat="42.464730" lon="2.431543">
        <ele>2155.914</ele>
        <time>2021-05-28T13:17:10Z</time>
      </trkpt>
      <trkpt lat="42.464739" lon="2.431513">
        <ele>2156.754</ele>
        <time>2021-05-28T13:17:13Z</time>
      </trkpt>
      <trkpt lat="42.464759" lon="2.431495">
        <ele>2157.009</ele>
        <time>2021-05-28T13:17:16Z</time>
      </trkpt>
      <trkpt lat="42.464777" lon="2.431474">
        <ele>2157.308</ele>
        <time>2021-05-28T13:17:19Z</time>
      </trkpt>
      <trkpt lat="42.464797" lon="2.431454">
        <ele>2157.618</ele>
        <time>2021-05-28T13:17:23Z</time>
      </trkpt>
      <trkpt lat="42.464807" lon="2.431432">
        <ele>2158.165</ele>
        <time>2021-05-28T13:17:26Z</time>
      </trkpt>
      <trkpt lat="42.464819" lon="2.431408">
        <ele>2158.776</ele>
        <time>2021-05-28T13:17:29Z</time>
      </trkpt>
      <trkpt lat="42.464834" lon="2.431394">
        <ele>2158.865</ele>
        <time>2021-05-28T13:17:31Z</time>
      </trkpt>
      <trkpt lat="42.464848" lon="2.431368">
        <ele>2159.322</ele>
        <time>2021-05-28T13:17:33Z</time>
      </trkpt>
      <trkpt lat="42.464853" lon="2.431344">
        <ele>2159.967</ele>
        <time>2021-05-28T13:17:36Z</time>
      </trkpt>
      <trkpt lat="42.464856" lon="2.431309">
        <ele>2160.874</ele>
        <time>2021-05-28T13:17:39Z</time>
      </trkpt>
      <trkpt lat="42.464865" lon="2.431276">
        <ele>2161.582</ele>
        <time>2021-05-28T13:17:41Z</time>
      </trkpt>
      <trkpt lat="42.464874" lon="2.431254">
        <ele>2161.952</ele>
        <time>2021-05-28T13:17:43Z</time>
      </trkpt>
      <trkpt lat="42.464891" lon="2.431222">
        <ele>2162.453</ele>
        <time>2021-05-28T13:17:46Z</time>
      </trkpt>
      <trkpt lat="42.464906" lon="2.431191">
        <ele>2162.908</ele>
        <time>2021-05-28T13:17:50Z</time>
      </trkpt>
      <trkpt lat="42.464925" lon="2.431161">
        <ele>2163.308</ele>
        <time>2021-05-28T13:17:53Z</time>
      </trkpt>
      <trkpt lat="42.464942" lon="2.431142">
        <ele>2163.572</ele>
        <time>2021-05-28T13:17:55Z</time>
      </trkpt>
      <trkpt lat="42.464952" lon="2.431113">
        <ele>2164.039</ele>
        <time>2021-05-28T13:17:58Z</time>
      </trkpt>
      <trkpt lat="42.464960" lon="2.431089">
        <ele>2164.440</ele>
        <time>2021-05-28T13:18:00Z</time>
      </trkpt>
      <trkpt lat="42.464968" lon="2.431056">
        <ele>2165.199</ele>
        <time>2021-05-28T13:18:02Z</time>
      </trkpt>
      <trkpt lat="42.464980" lon="2.431025">
        <ele>2165.686</ele>
        <time>2021-05-28T13:18:06Z</time>
      </trkpt>
      <trkpt lat="42.464989" lon="2.430996">
        <ele>2166.111</ele>
        <time>2021-05-28T13:18:09Z</time>
      </trkpt>
      <trkpt lat="42.464995" lon="2.430964">
        <ele>2166.868</ele>
        <time>2021-05-28T13:18:12Z</time>
      </trkpt>
      <trkpt lat="42.465003" lon="2.430941">
        <ele>2167.216</ele>
        <time>2021-05-28T13:18:14Z</time>
      </trkpt>
      <trkpt lat="42.465015" lon="2.430921">
        <ele>2167.588</ele>
        <time>2021-05-28T13:18:16Z</time>
      </trkpt>
      <trkpt lat="42.465024" lon="2.430900">
        <ele>2167.924</ele>
        <time>2021-05-28T13:18:19Z</time>
      </trkpt>
      <trkpt lat="42.465036" lon="2.430876">
        <ele>2168.326</ele>
        <time>2021-05-28T13:18:20Z</time>
      </trkpt>
      <trkpt lat="42.465050" lon="2.430854">
        <ele>2168.608</ele>
        <time>2021-05-28T13:18:23Z</time>
      </trkpt>
      <trkpt lat="42.465063" lon="2.430835">
        <ele>2168.815</ele>
        <time>2021-05-28T13:18:24Z</time>
      </trkpt>
      <trkpt lat="42.465078" lon="2.430805">
        <ele>2169.142</ele>
        <time>2021-05-28T13:18:27Z</time>
      </trkpt>
      <trkpt lat="42.465092" lon="2.430773">
        <ele>2169.523</ele>
        <time>2021-05-28T13:18:30Z</time>
      </trkpt>
      <trkpt lat="42.465102" lon="2.430750">
        <ele>2169.862</ele>
        <time>2021-05-28T13:18:32Z</time>
      </trkpt>
      <trkpt lat="42.465114" lon="2.430728">
        <ele>2170.049</ele>
        <time>2021-05-28T13:18:34Z</time>
      </trkpt>
      <trkpt lat="42.465124" lon="2.430704">
        <ele>2170.314</ele>
        <time>2021-05-28T13:18:36Z</time>
      </trkpt>
      <trkpt lat="42.465135" lon="2.430683">
        <ele>2170.541</ele>
        <time>2021-05-28T13:18:38Z</time>
      </trkpt>
      <trkpt lat="42.465147" lon="2.430659">
        <ele>2170.859</ele>
        <time>2021-05-28T13:18:40Z</time>
      </trkpt>
      <trkpt lat="42.465156" lon="2.430636">
        <ele>2171.173</ele>
        <time>2021-05-28T13:18:42Z</time>
      </trkpt>
      <trkpt lat="42.465166" lon="2.430613">
        <ele>2171.585</ele>
        <time>2021-05-28T13:18:44Z</time>
      </trkpt>
      <trkpt lat="42.465178" lon="2.430590">
        <ele>2171.713</ele>
        <time>2021-05-28T13:18:46Z</time>
      </trkpt>
      <trkpt lat="42.465189" lon="2.430569">
        <ele>2172.008</ele>
        <time>2021-05-28T13:18:48Z</time>
      </trkpt>
      <trkpt lat="42.465199" lon="2.430546">
        <ele>2172.344</ele>
        <time>2021-05-28T13:18:50Z</time>
      </trkpt>
      <trkpt lat="42.465212" lon="2.430524">
        <ele>2172.491</ele>
        <time>2021-05-28T13:18:52Z</time>
      </trkpt>
      <trkpt lat="42.465222" lon="2.430500">
        <ele>2172.622</ele>
        <time>2021-05-28T13:18:54Z</time>
      </trkpt>
      <trkpt lat="42.465232" lon="2.430476">
        <ele>2172.991</ele>
        <time>2021-05-28T13:18:56Z</time>
      </trkpt>
      <trkpt lat="42.465247" lon="2.430446">
        <ele>2173.118</ele>
        <time>2021-05-28T13:19:00Z</time>
      </trkpt>
      <trkpt lat="42.465257" lon="2.430423">
        <ele>2173.263</ele>
        <time>2021-05-28T13:19:02Z</time>
      </trkpt>
      <trkpt lat="42.465270" lon="2.430402">
        <ele>2173.390</ele>
        <time>2021-05-28T13:19:04Z</time>
      </trkpt>
      <trkpt lat="42.465278" lon="2.430378">
        <ele>2173.668</ele>
        <time>2021-05-28T13:19:06Z</time>
      </trkpt>
      <trkpt lat="42.465285" lon="2.430355">
        <ele>2173.876</ele>
        <time>2021-05-28T13:19:08Z</time>
      </trkpt>
      <trkpt lat="42.465291" lon="2.430324">
        <ele>2174.290</ele>
        <time>2021-05-28T13:19:10Z</time>
      </trkpt>
      <trkpt lat="42.465303" lon="2.430291">
        <ele>2174.519</ele>
        <time>2021-05-28T13:19:13Z</time>
      </trkpt>
      <trkpt lat="42.465318" lon="2.430269">
        <ele>2174.708</ele>
        <time>2021-05-28T13:19:16Z</time>
      </trkpt>
      <trkpt lat="42.465336" lon="2.430248">
        <ele>2174.864</ele>
        <time>2021-05-28T13:19:17Z</time>
      </trkpt>
      <trkpt lat="42.465346" lon="2.430227">
        <ele>2175.091</ele>
        <time>2021-05-28T13:19:19Z</time>
      </trkpt>
      <trkpt lat="42.465351" lon="2.430204">
        <ele>2175.392</ele>
        <time>2021-05-28T13:19:21Z</time>
      </trkpt>
      <trkpt lat="42.465363" lon="2.430180">
        <ele>2175.531</ele>
        <time>2021-05-28T13:19:23Z</time>
      </trkpt>
      <trkpt lat="42.465373" lon="2.430157">
        <ele>2175.788</ele>
        <time>2021-05-28T13:19:25Z</time>
      </trkpt>
      <trkpt lat="42.465386" lon="2.430132">
        <ele>2175.923</ele>
        <time>2021-05-28T13:19:27Z</time>
      </trkpt>
      <trkpt lat="42.465395" lon="2.430106">
        <ele>2176.210</ele>
        <time>2021-05-28T13:19:29Z</time>
      </trkpt>
      <trkpt lat="42.465407" lon="2.430080">
        <ele>2176.558</ele>
        <time>2021-05-28T13:19:31Z</time>
      </trkpt>
      <trkpt lat="42.465419" lon="2.430053">
        <ele>2176.795</ele>
        <time>2021-05-28T13:19:33Z</time>
      </trkpt>
      <trkpt lat="42.465429" lon="2.430027">
        <ele>2177.049</ele>
        <time>2021-05-28T13:19:35Z</time>
      </trkpt>
      <trkpt lat="42.465441" lon="2.430001">
        <ele>2177.223</ele>
        <time>2021-05-28T13:19:37Z</time>
      </trkpt>
      <trkpt lat="42.465452" lon="2.429976">
        <ele>2177.408</ele>
        <time>2021-05-28T13:19:39Z</time>
      </trkpt>
      <trkpt lat="42.465462" lon="2.429955">
        <ele>2177.636</ele>
        <time>2021-05-28T13:19:42Z</time>
      </trkpt>
      <trkpt lat="42.465471" lon="2.429930">
        <ele>2177.843</ele>
        <time>2021-05-28T13:19:43Z</time>
      </trkpt>
      <trkpt lat="42.465480" lon="2.429905">
        <ele>2178.114</ele>
        <time>2021-05-28T13:19:45Z</time>
      </trkpt>
      <trkpt lat="42.465486" lon="2.429877">
        <ele>2178.483</ele>
        <time>2021-05-28T13:19:47Z</time>
      </trkpt>
      <trkpt lat="42.465491" lon="2.429852">
        <ele>2178.790</ele>
        <time>2021-05-28T13:19:49Z</time>
      </trkpt>
      <trkpt lat="42.465504" lon="2.429833">
        <ele>2178.835</ele>
        <time>2021-05-28T13:19:51Z</time>
      </trkpt>
      <trkpt lat="42.465515" lon="2.429812">
        <ele>2179.062</ele>
        <time>2021-05-28T13:19:54Z</time>
      </trkpt>
      <trkpt lat="42.465526" lon="2.429787">
        <ele>2179.340</ele>
        <time>2021-05-28T13:19:55Z</time>
      </trkpt>
      <trkpt lat="42.465535" lon="2.429762">
        <ele>2179.696</ele>
        <time>2021-05-28T13:19:57Z</time>
      </trkpt>
      <trkpt lat="42.465546" lon="2.429740">
        <ele>2179.831</ele>
        <time>2021-05-28T13:19:59Z</time>
      </trkpt>
      <trkpt lat="42.465552" lon="2.429714">
        <ele>2180.124</ele>
        <time>2021-05-28T13:20:01Z</time>
      </trkpt>
      <trkpt lat="42.465561" lon="2.429691">
        <ele>2180.408</ele>
        <time>2021-05-28T13:20:03Z</time>
      </trkpt>
      <trkpt lat="42.465570" lon="2.429664">
        <ele>2180.876</ele>
        <time>2021-05-28T13:20:05Z</time>
      </trkpt>
      <trkpt lat="42.465581" lon="2.429639">
        <ele>2181.253</ele>
        <time>2021-05-28T13:20:07Z</time>
      </trkpt>
      <trkpt lat="42.465591" lon="2.429615">
        <ele>2181.594</ele>
        <time>2021-05-28T13:20:09Z</time>
      </trkpt>
      <trkpt lat="42.465597" lon="2.429584">
        <ele>2182.063</ele>
        <time>2021-05-28T13:20:11Z</time>
      </trkpt>
      <trkpt lat="42.465607" lon="2.429557">
        <ele>2182.480</ele>
        <time>2021-05-28T13:20:14Z</time>
      </trkpt>
      <trkpt lat="42.465619" lon="2.429534">
        <ele>2182.755</ele>
        <time>2021-05-28T13:20:15Z</time>
      </trkpt>
      <trkpt lat="42.465628" lon="2.429509">
        <ele>2183.142</ele>
        <time>2021-05-28T13:20:17Z</time>
      </trkpt>
      <trkpt lat="42.465635" lon="2.429484">
        <ele>2183.480</ele>
        <time>2021-05-28T13:20:19Z</time>
      </trkpt>
      <trkpt lat="42.465637" lon="2.429458">
        <ele>2183.877</ele>
        <time>2021-05-28T13:20:22Z</time>
      </trkpt>
      <trkpt lat="42.465641" lon="2.429433">
        <ele>2184.161</ele>
        <time>2021-05-28T13:20:24Z</time>
      </trkpt>
      <trkpt lat="42.465646" lon="2.429407">
        <ele>2184.427</ele>
        <time>2021-05-28T13:20:25Z</time>
      </trkpt>
      <trkpt lat="42.465656" lon="2.429380">
        <ele>2184.808</ele>
        <time>2021-05-28T13:20:27Z</time>
      </trkpt>
      <trkpt lat="42.465662" lon="2.429357">
        <ele>2185.134</ele>
        <time>2021-05-28T13:20:30Z</time>
      </trkpt>
      <trkpt lat="42.465670" lon="2.429333">
        <ele>2185.461</ele>
        <time>2021-05-28T13:20:31Z</time>
      </trkpt>
      <trkpt lat="42.465679" lon="2.429311">
        <ele>2185.762</ele>
        <time>2021-05-28T13:20:34Z</time>
      </trkpt>
      <trkpt lat="42.465691" lon="2.429288">
        <ele>2186.031</ele>
        <time>2021-05-28T13:20:36Z</time>
      </trkpt>
      <trkpt lat="42.465702" lon="2.429267">
        <ele>2186.368</ele>
        <time>2021-05-28T13:20:37Z</time>
      </trkpt>
      <trkpt lat="42.465714" lon="2.429243">
        <ele>2186.643</ele>
        <time>2021-05-28T13:20:39Z</time>
      </trkpt>
      <trkpt lat="42.465726" lon="2.429221">
        <ele>2186.970</ele>
        <time>2021-05-28T13:20:42Z</time>
      </trkpt>
      <trkpt lat="42.465740" lon="2.429202">
        <ele>2187.218</ele>
        <time>2021-05-28T13:20:44Z</time>
      </trkpt>
      <trkpt lat="42.465754" lon="2.429182">
        <ele>2187.545</ele>
        <time>2021-05-28T13:20:45Z</time>
      </trkpt>
      <trkpt lat="42.465770" lon="2.429163">
        <ele>2187.847</ele>
        <time>2021-05-28T13:20:47Z</time>
      </trkpt>
      <trkpt lat="42.465783" lon="2.429142">
        <ele>2188.111</ele>
        <time>2021-05-28T13:20:50Z</time>
      </trkpt>
      <trkpt lat="42.465796" lon="2.429121">
        <ele>2188.408</ele>
        <time>2021-05-28T13:20:52Z</time>
      </trkpt>
      <trkpt lat="42.465809" lon="2.429100">
        <ele>2188.621</ele>
        <time>2021-05-28T13:20:53Z</time>
      </trkpt>
      <trkpt lat="42.465820" lon="2.429075">
        <ele>2188.948</ele>
        <time>2021-05-28T13:20:55Z</time>
      </trkpt>
      <trkpt lat="42.465831" lon="2.429053">
        <ele>2189.239</ele>
        <time>2021-05-28T13:20:58Z</time>
      </trkpt>
      <trkpt lat="42.465845" lon="2.429033">
        <ele>2189.558</ele>
        <time>2021-05-28T13:21:00Z</time>
      </trkpt>
      <trkpt lat="42.465855" lon="2.429010">
        <ele>2189.885</ele>
        <time>2021-05-28T13:21:01Z</time>
      </trkpt>
      <trkpt lat="42.465869" lon="2.428991">
        <ele>2190.190</ele>
        <time>2021-05-28T13:21:03Z</time>
      </trkpt>
      <trkpt lat="42.465880" lon="2.428971">
        <ele>2190.467</ele>
        <time>2021-05-28T13:21:06Z</time>
      </trkpt>
      <trkpt lat="42.465892" lon="2.428951">
        <ele>2190.795</ele>
        <time>2021-05-28T13:21:08Z</time>
      </trkpt>
      <trkpt lat="42.465902" lon="2.428929">
        <ele>2191.062</ele>
        <time>2021-05-28T13:21:10Z</time>
      </trkpt>
      <trkpt lat="42.465915" lon="2.428912">
        <ele>2191.383</ele>
        <time>2021-05-28T13:21:11Z</time>
      </trkpt>
      <trkpt lat="42.465931" lon="2.428896">
        <ele>2191.611</ele>
        <time>2021-05-28T13:21:14Z</time>
      </trkpt>
      <trkpt lat="42.465947" lon="2.428880">
        <ele>2191.908</ele>
        <time>2021-05-28T13:21:15Z</time>
      </trkpt>
      <trkpt lat="42.465960" lon="2.428863">
        <ele>2192.143</ele>
        <time>2021-05-28T13:21:17Z</time>
      </trkpt>
      <trkpt lat="42.465973" lon="2.428846">
        <ele>2192.340</ele>
        <time>2021-05-28T13:21:19Z</time>
      </trkpt>
      <trkpt lat="42.465987" lon="2.428828">
        <ele>2192.581</ele>
        <time>2021-05-28T13:21:21Z</time>
      </trkpt>
      <trkpt lat="42.466000" lon="2.428808">
        <ele>2192.850</ele>
        <time>2021-05-28T13:21:23Z</time>
      </trkpt>
      <trkpt lat="42.466012" lon="2.428789">
        <ele>2193.057</ele>
        <time>2021-05-28T13:21:26Z</time>
      </trkpt>
      <trkpt lat="42.466022" lon="2.428767">
        <ele>2193.292</ele>
        <time>2021-05-28T13:21:28Z</time>
      </trkpt>
      <trkpt lat="42.466036" lon="2.428736">
        <ele>2193.639</ele>
        <time>2021-05-28T13:21:30Z</time>
      </trkpt>
      <trkpt lat="42.466049" lon="2.428715">
        <ele>2193.837</ele>
        <time>2021-05-28T13:21:33Z</time>
      </trkpt>
      <trkpt lat="42.466062" lon="2.428699">
        <ele>2194.069</ele>
        <time>2021-05-28T13:21:35Z</time>
      </trkpt>
      <trkpt lat="42.466078" lon="2.428680">
        <ele>2194.304</ele>
        <time>2021-05-28T13:21:36Z</time>
      </trkpt>
      <trkpt lat="42.466092" lon="2.428664">
        <ele>2194.524</ele>
        <time>2021-05-28T13:21:39Z</time>
      </trkpt>
      <trkpt lat="42.466108" lon="2.428647">
        <ele>2194.708</ele>
        <time>2021-05-28T13:21:40Z</time>
      </trkpt>
      <trkpt lat="42.466121" lon="2.428628">
        <ele>2195.073</ele>
        <time>2021-05-28T13:21:42Z</time>
      </trkpt>
      <trkpt lat="42.466136" lon="2.428606">
        <ele>2195.350</ele>
        <time>2021-05-28T13:21:44Z</time>
      </trkpt>
      <trkpt lat="42.466152" lon="2.428590">
        <ele>2195.641</ele>
        <time>2021-05-28T13:21:47Z</time>
      </trkpt>
      <trkpt lat="42.466176" lon="2.428567">
        <ele>2196.030</ele>
        <time>2021-05-28T13:21:49Z</time>
      </trkpt>
      <trkpt lat="42.466193" lon="2.428550">
        <ele>2196.357</ele>
        <time>2021-05-28T13:21:51Z</time>
      </trkpt>
      <trkpt lat="42.466209" lon="2.428535">
        <ele>2196.672</ele>
        <time>2021-05-28T13:21:53Z</time>
      </trkpt>
      <trkpt lat="42.466227" lon="2.428512">
        <ele>2197.039</ele>
        <time>2021-05-28T13:21:56Z</time>
      </trkpt>
      <trkpt lat="42.466235" lon="2.428479">
        <ele>2197.347</ele>
        <time>2021-05-28T13:21:59Z</time>
      </trkpt>
      <trkpt lat="42.466251" lon="2.428453">
        <ele>2197.696</ele>
        <time>2021-05-28T13:22:03Z</time>
      </trkpt>
      <trkpt lat="42.466263" lon="2.428422">
        <ele>2198.031</ele>
        <time>2021-05-28T13:22:05Z</time>
      </trkpt>
      <trkpt lat="42.466272" lon="2.428397">
        <ele>2198.324</ele>
        <time>2021-05-28T13:22:08Z</time>
      </trkpt>
      <trkpt lat="42.466286" lon="2.428380">
        <ele>2198.608</ele>
        <time>2021-05-28T13:22:10Z</time>
      </trkpt>
      <trkpt lat="42.466298" lon="2.428359">
        <ele>2198.856</ele>
        <time>2021-05-28T13:22:11Z</time>
      </trkpt>
      <trkpt lat="42.466314" lon="2.428334">
        <ele>2199.223</ele>
        <time>2021-05-28T13:22:15Z</time>
      </trkpt>
      <trkpt lat="42.466332" lon="2.428310">
        <ele>2199.564</ele>
        <time>2021-05-28T13:22:17Z</time>
      </trkpt>
      <trkpt lat="42.466356" lon="2.428292">
        <ele>2199.833</ele>
        <time>2021-05-28T13:22:21Z</time>
      </trkpt>
      <trkpt lat="42.466371" lon="2.428265">
        <ele>2200.190</ele>
        <time>2021-05-28T13:22:23Z</time>
      </trkpt>
      <trkpt lat="42.466384" lon="2.428244">
        <ele>2200.315</ele>
        <time>2021-05-28T13:22:26Z</time>
      </trkpt>
      <trkpt lat="42.466396" lon="2.428223">
        <ele>2200.562</ele>
        <time>2021-05-28T13:22:27Z</time>
      </trkpt>
      <trkpt lat="42.466416" lon="2.428196">
        <ele>2200.930</ele>
        <time>2021-05-28T13:22:33Z</time>
      </trkpt>
      <trkpt lat="42.466435" lon="2.428168">
        <ele>2201.316</ele>
        <time>2021-05-28T13:22:35Z</time>
      </trkpt>
      <trkpt lat="42.466463" lon="2.428139">
        <ele>2201.976</ele>
        <time>2021-05-28T13:22:39Z</time>
      </trkpt>
      <trkpt lat="42.466477" lon="2.428119">
        <ele>2202.213</ele>
        <time>2021-05-28T13:22:42Z</time>
      </trkpt>
      <trkpt lat="42.466491" lon="2.428103">
        <ele>2202.508</ele>
        <time>2021-05-28T13:22:44Z</time>
      </trkpt>
      <trkpt lat="42.466510" lon="2.428081">
        <ele>2203.068</ele>
        <time>2021-05-28T13:22:47Z</time>
      </trkpt>
      <trkpt lat="42.466523" lon="2.428066">
        <ele>2203.335</ele>
        <time>2021-05-28T13:22:49Z</time>
      </trkpt>
      <trkpt lat="42.466544" lon="2.428044">
        <ele>2203.996</ele>
        <time>2021-05-28T13:22:52Z</time>
      </trkpt>
      <trkpt lat="42.466562" lon="2.428018">
        <ele>2204.435</ele>
        <time>2021-05-28T13:22:55Z</time>
      </trkpt>
      <trkpt lat="42.466574" lon="2.428000">
        <ele>2204.792</ele>
        <time>2021-05-28T13:22:57Z</time>
      </trkpt>
      <trkpt lat="42.466587" lon="2.427981">
        <ele>2205.127</ele>
        <time>2021-05-28T13:22:59Z</time>
      </trkpt>
      <trkpt lat="42.466604" lon="2.427962">
        <ele>2205.544</ele>
        <time>2021-05-28T13:23:00Z</time>
      </trkpt>
      <trkpt lat="42.466616" lon="2.427943">
        <ele>2205.972</ele>
        <time>2021-05-28T13:23:02Z</time>
      </trkpt>
      <trkpt lat="42.466627" lon="2.427913">
        <ele>2206.359</ele>
        <time>2021-05-28T13:23:05Z</time>
      </trkpt>
      <trkpt lat="42.466637" lon="2.427890">
        <ele>2206.703</ele>
        <time>2021-05-28T13:23:08Z</time>
      </trkpt>
      <trkpt lat="42.466657" lon="2.427870">
        <ele>2207.223</ele>
        <time>2021-05-28T13:23:11Z</time>
      </trkpt>
      <trkpt lat="42.466674" lon="2.427858">
        <ele>2207.508</ele>
        <time>2021-05-28T13:23:12Z</time>
      </trkpt>
      <trkpt lat="42.466692" lon="2.427848">
        <ele>2207.952</ele>
        <time>2021-05-28T13:23:14Z</time>
      </trkpt>
      <trkpt lat="42.466712" lon="2.427830">
        <ele>2208.319</ele>
        <time>2021-05-28T13:23:17Z</time>
      </trkpt>
      <trkpt lat="42.466729" lon="2.427810">
        <ele>2208.780</ele>
        <time>2021-05-28T13:23:20Z</time>
      </trkpt>
      <trkpt lat="42.466751" lon="2.427790">
        <ele>2209.119</ele>
        <time>2021-05-28T13:23:24Z</time>
      </trkpt>
      <trkpt lat="42.466765" lon="2.427772">
        <ele>2209.596</ele>
        <time>2021-05-28T13:23:26Z</time>
      </trkpt>
      <trkpt lat="42.466779" lon="2.427752">
        <ele>2209.881</ele>
        <time>2021-05-28T13:23:27Z</time>
      </trkpt>
      <trkpt lat="42.466795" lon="2.427736">
        <ele>2210.118</ele>
        <time>2021-05-28T13:23:29Z</time>
      </trkpt>
      <trkpt lat="42.466812" lon="2.427724">
        <ele>2210.586</ele>
        <time>2021-05-28T13:23:31Z</time>
      </trkpt>
      <trkpt lat="42.466829" lon="2.427711">
        <ele>2210.889</ele>
        <time>2021-05-28T13:23:33Z</time>
      </trkpt>
      <trkpt lat="42.466847" lon="2.427703">
        <ele>2211.106</ele>
        <time>2021-05-28T13:23:36Z</time>
      </trkpt>
      <trkpt lat="42.466871" lon="2.427687">
        <ele>2211.626</ele>
        <time>2021-05-28T13:23:39Z</time>
      </trkpt>
      <trkpt lat="42.466898" lon="2.427668">
        <ele>2212.108</ele>
        <time>2021-05-28T13:23:41Z</time>
      </trkpt>
      <trkpt lat="42.466922" lon="2.427655">
        <ele>2212.685</ele>
        <time>2021-05-28T13:23:44Z</time>
      </trkpt>
      <trkpt lat="42.466943" lon="2.427641">
        <ele>2213.082</ele>
        <time>2021-05-28T13:23:48Z</time>
      </trkpt>
      <trkpt lat="42.466965" lon="2.427624">
        <ele>2213.423</ele>
        <time>2021-05-28T13:23:50Z</time>
      </trkpt>
      <trkpt lat="42.466988" lon="2.427610">
        <ele>2213.822</ele>
        <time>2021-05-28T13:23:54Z</time>
      </trkpt>
      <trkpt lat="42.467006" lon="2.427595">
        <ele>2214.129</ele>
        <time>2021-05-28T13:23:56Z</time>
      </trkpt>
      <trkpt lat="42.467018" lon="2.427577">
        <ele>2214.434</ele>
        <time>2021-05-28T13:23:59Z</time>
      </trkpt>
      <trkpt lat="42.467031" lon="2.427560">
        <ele>2214.711</ele>
        <time>2021-05-28T13:24:02Z</time>
      </trkpt>
      <trkpt lat="42.467048" lon="2.427543">
        <ele>2215.119</ele>
        <time>2021-05-28T13:24:05Z</time>
      </trkpt>
      <trkpt lat="42.467059" lon="2.427521">
        <ele>2215.518</ele>
        <time>2021-05-28T13:24:08Z</time>
      </trkpt>
      <trkpt lat="42.467076" lon="2.427502">
        <ele>2215.998</ele>
        <time>2021-05-28T13:24:11Z</time>
      </trkpt>
      <trkpt lat="42.467090" lon="2.427479">
        <ele>2216.217</ele>
        <time>2021-05-28T13:24:14Z</time>
      </trkpt>
      <trkpt lat="42.467109" lon="2.427459">
        <ele>2216.708</ele>
        <time>2021-05-28T13:24:17Z</time>
      </trkpt>
      <trkpt lat="42.467129" lon="2.427446">
        <ele>2217.078</ele>
        <time>2021-05-28T13:24:21Z</time>
      </trkpt>
      <trkpt lat="42.467140" lon="2.427426">
        <ele>2217.335</ele>
        <time>2021-05-28T13:24:22Z</time>
      </trkpt>
      <trkpt lat="42.467161" lon="2.427415">
        <ele>2217.796</ele>
        <time>2021-05-28T13:24:25Z</time>
      </trkpt>
      <trkpt lat="42.467180" lon="2.427398">
        <ele>2218.175</ele>
        <time>2021-05-28T13:24:28Z</time>
      </trkpt>
      <trkpt lat="42.467191" lon="2.427379">
        <ele>2218.412</ele>
        <time>2021-05-28T13:24:30Z</time>
      </trkpt>
      <trkpt lat="42.467205" lon="2.427351">
        <ele>2218.857</ele>
        <time>2021-05-28T13:24:33Z</time>
      </trkpt>
      <trkpt lat="42.467215" lon="2.427322">
        <ele>2219.224</ele>
        <time>2021-05-28T13:24:36Z</time>
      </trkpt>
      <trkpt lat="42.467228" lon="2.427302">
        <ele>2219.562</ele>
        <time>2021-05-28T13:24:38Z</time>
      </trkpt>
      <trkpt lat="42.467244" lon="2.427274">
        <ele>2219.991</ele>
        <time>2021-05-28T13:24:41Z</time>
      </trkpt>
      <trkpt lat="42.467262" lon="2.427252">
        <ele>2220.281</ele>
        <time>2021-05-28T13:24:44Z</time>
      </trkpt>
      <trkpt lat="42.467282" lon="2.427231">
        <ele>2220.619</ele>
        <time>2021-05-28T13:24:47Z</time>
      </trkpt>
      <trkpt lat="42.467302" lon="2.427212">
        <ele>2220.908</ele>
        <time>2021-05-28T13:24:50Z</time>
      </trkpt>
      <trkpt lat="42.467324" lon="2.427196">
        <ele>2221.226</ele>
        <time>2021-05-28T13:24:53Z</time>
      </trkpt>
      <trkpt lat="42.467347" lon="2.427181">
        <ele>2221.673</ele>
        <time>2021-05-28T13:24:56Z</time>
      </trkpt>
      <trkpt lat="42.467369" lon="2.427171">
        <ele>2221.954</ele>
        <time>2021-05-28T13:24:59Z</time>
      </trkpt>
      <trkpt lat="42.467391" lon="2.427155">
        <ele>2222.293</ele>
        <time>2021-05-28T13:25:02Z</time>
      </trkpt>
      <trkpt lat="42.467415" lon="2.427138">
        <ele>2222.690</ele>
        <time>2021-05-28T13:25:05Z</time>
      </trkpt>
      <trkpt lat="42.467430" lon="2.427121">
        <ele>2222.925</ele>
        <time>2021-05-28T13:25:07Z</time>
      </trkpt>
      <trkpt lat="42.467445" lon="2.427106">
        <ele>2223.242</ele>
        <time>2021-05-28T13:25:09Z</time>
      </trkpt>
      <trkpt lat="42.467464" lon="2.427083">
        <ele>2223.580</ele>
        <time>2021-05-28T13:25:12Z</time>
      </trkpt>
      <trkpt lat="42.467483" lon="2.427061">
        <ele>2223.924</ele>
        <time>2021-05-28T13:25:15Z</time>
      </trkpt>
      <trkpt lat="42.467499" lon="2.427045">
        <ele>2224.304</ele>
        <time>2021-05-28T13:25:17Z</time>
      </trkpt>
      <trkpt lat="42.467513" lon="2.427029">
        <ele>2224.614</ele>
        <time>2021-05-28T13:25:19Z</time>
      </trkpt>
      <trkpt lat="42.467526" lon="2.427012">
        <ele>2225.008</ele>
        <time>2021-05-28T13:25:21Z</time>
      </trkpt>
      <trkpt lat="42.467537" lon="2.426992">
        <ele>2225.379</ele>
        <time>2021-05-28T13:25:23Z</time>
      </trkpt>
      <trkpt lat="42.467554" lon="2.426973">
        <ele>2225.846</ele>
        <time>2021-05-28T13:25:25Z</time>
      </trkpt>
      <trkpt lat="42.467570" lon="2.426957">
        <ele>2226.247</ele>
        <time>2021-05-28T13:25:27Z</time>
      </trkpt>
      <trkpt lat="42.467587" lon="2.426941">
        <ele>2226.666</ele>
        <time>2021-05-28T13:25:29Z</time>
      </trkpt>
      <trkpt lat="42.467604" lon="2.426927">
        <ele>2226.973</ele>
        <time>2021-05-28T13:25:31Z</time>
      </trkpt>
      <trkpt lat="42.467624" lon="2.426902">
        <ele>2227.438</ele>
        <time>2021-05-28T13:25:34Z</time>
      </trkpt>
      <trkpt lat="42.467642" lon="2.426894">
        <ele>2227.725</ele>
        <time>2021-05-28T13:25:36Z</time>
      </trkpt>
      <trkpt lat="42.467668" lon="2.426898">
        <ele>2228.223</ele>
        <time>2021-05-28T13:25:39Z</time>
      </trkpt>
      <trkpt lat="42.467693" lon="2.426893">
        <ele>2228.738</ele>
        <time>2021-05-28T13:25:42Z</time>
      </trkpt>
      <trkpt lat="42.467719" lon="2.426886">
        <ele>2229.270</ele>
        <time>2021-05-28T13:25:45Z</time>
      </trkpt>
      <trkpt lat="42.467738" lon="2.426884">
        <ele>2229.517</ele>
        <time>2021-05-28T13:25:47Z</time>
      </trkpt>
      <trkpt lat="42.467758" lon="2.426879">
        <ele>2229.908</ele>
        <time>2021-05-28T13:25:49Z</time>
      </trkpt>
      <trkpt lat="42.467773" lon="2.426862">
        <ele>2230.290</ele>
        <time>2021-05-28T13:25:51Z</time>
      </trkpt>
      <trkpt lat="42.467790" lon="2.426851">
        <ele>2230.537</ele>
        <time>2021-05-28T13:25:53Z</time>
      </trkpt>
      <trkpt lat="42.467806" lon="2.426835">
        <ele>2230.848</ele>
        <time>2021-05-28T13:25:55Z</time>
      </trkpt>
      <trkpt lat="42.467824" lon="2.426810">
        <ele>2231.217</ele>
        <time>2021-05-28T13:25:58Z</time>
      </trkpt>
      <trkpt lat="42.467833" lon="2.426779">
        <ele>2231.544</ele>
        <time>2021-05-28T13:26:01Z</time>
      </trkpt>
      <trkpt lat="42.467853" lon="2.426756">
        <ele>2231.979</ele>
        <time>2021-05-28T13:26:04Z</time>
      </trkpt>
      <trkpt lat="42.467871" lon="2.426732">
        <ele>2232.466</ele>
        <time>2021-05-28T13:26:07Z</time>
      </trkpt>
      <trkpt lat="42.467888" lon="2.426707">
        <ele>2232.884</ele>
        <time>2021-05-28T13:26:10Z</time>
      </trkpt>
      <trkpt lat="42.467906" lon="2.426684">
        <ele>2233.228</ele>
        <time>2021-05-28T13:26:13Z</time>
      </trkpt>
      <trkpt lat="42.467925" lon="2.426664">
        <ele>2233.789</ele>
        <time>2021-05-28T13:26:17Z</time>
      </trkpt>
      <trkpt lat="42.467943" lon="2.426647">
        <ele>2234.017</ele>
        <time>2021-05-28T13:26:20Z</time>
      </trkpt>
      <trkpt lat="42.467969" lon="2.426636">
        <ele>2234.508</ele>
        <time>2021-05-28T13:26:23Z</time>
      </trkpt>
      <trkpt lat="42.467990" lon="2.426627">
        <ele>2234.969</ele>
        <time>2021-05-28T13:26:25Z</time>
      </trkpt>
      <trkpt lat="42.468013" lon="2.426617">
        <ele>2235.446</ele>
        <time>2021-05-28T13:26:28Z</time>
      </trkpt>
      <trkpt lat="42.468033" lon="2.426610">
        <ele>2235.887</ele>
        <time>2021-05-28T13:26:31Z</time>
      </trkpt>
      <trkpt lat="42.468055" lon="2.426595">
        <ele>2236.276</ele>
        <time>2021-05-28T13:26:34Z</time>
      </trkpt>
      <trkpt lat="42.468070" lon="2.426582">
        <ele>2236.643</ele>
        <time>2021-05-28T13:26:36Z</time>
      </trkpt>
      <trkpt lat="42.468088" lon="2.426560">
        <ele>2237.038</ele>
        <time>2021-05-28T13:26:39Z</time>
      </trkpt>
      <trkpt lat="42.468102" lon="2.426537">
        <ele>2237.345</ele>
        <time>2021-05-28T13:26:42Z</time>
      </trkpt>
      <trkpt lat="42.468122" lon="2.426516">
        <ele>2237.743</ele>
        <time>2021-05-28T13:26:45Z</time>
      </trkpt>
      <trkpt lat="42.468142" lon="2.426493">
        <ele>2238.229</ele>
        <time>2021-05-28T13:26:48Z</time>
      </trkpt>
      <trkpt lat="42.468161" lon="2.426474">
        <ele>2238.600</ele>
        <time>2021-05-28T13:26:51Z</time>
      </trkpt>
      <trkpt lat="42.468173" lon="2.426454">
        <ele>2238.920</ele>
        <time>2021-05-28T13:26:53Z</time>
      </trkpt>
      <trkpt lat="42.468191" lon="2.426433">
        <ele>2239.308</ele>
        <time>2021-05-28T13:26:56Z</time>
      </trkpt>
      <trkpt lat="42.468204" lon="2.426412">
        <ele>2239.689</ele>
        <time>2021-05-28T13:26:59Z</time>
      </trkpt>
      <trkpt lat="42.468220" lon="2.426391">
        <ele>2240.076</ele>
        <time>2021-05-28T13:27:02Z</time>
      </trkpt>
      <trkpt lat="42.468242" lon="2.426382">
        <ele>2240.367</ele>
        <time>2021-05-28T13:27:05Z</time>
      </trkpt>
      <trkpt lat="42.468263" lon="2.426370">
        <ele>2240.726</ele>
        <time>2021-05-28T13:27:08Z</time>
      </trkpt>
      <trkpt lat="42.468287" lon="2.426361">
        <ele>2241.113</ele>
        <time>2021-05-28T13:27:11Z</time>
      </trkpt>
      <trkpt lat="42.468311" lon="2.426348">
        <ele>2241.618</ele>
        <time>2021-05-28T13:27:14Z</time>
      </trkpt>
      <trkpt lat="42.468335" lon="2.426343">
        <ele>2242.085</ele>
        <time>2021-05-28T13:27:17Z</time>
      </trkpt>
      <trkpt lat="42.468350" lon="2.426316">
        <ele>2242.453</ele>
        <time>2021-05-28T13:27:21Z</time>
      </trkpt>
      <trkpt lat="42.468364" lon="2.426288">
        <ele>2242.774</ele>
        <time>2021-05-28T13:27:24Z</time>
      </trkpt>
      <trkpt lat="42.468379" lon="2.426267">
        <ele>2243.056</ele>
        <time>2021-05-28T13:27:27Z</time>
      </trkpt>
      <trkpt lat="42.468401" lon="2.426253">
        <ele>2243.521</ele>
        <time>2021-05-28T13:27:30Z</time>
      </trkpt>
      <trkpt lat="42.468422" lon="2.426238">
        <ele>2243.908</ele>
        <time>2021-05-28T13:27:34Z</time>
      </trkpt>
      <trkpt lat="42.468441" lon="2.426227">
        <ele>2244.394</ele>
        <time>2021-05-28T13:27:36Z</time>
      </trkpt>
      <trkpt lat="42.468463" lon="2.426206">
        <ele>2244.831</ele>
        <time>2021-05-28T13:27:39Z</time>
      </trkpt>
      <trkpt lat="42.468485" lon="2.426187">
        <ele>2245.372</ele>
        <time>2021-05-28T13:27:42Z</time>
      </trkpt>
      <trkpt lat="42.468501" lon="2.426168">
        <ele>2245.621</ele>
        <time>2021-05-28T13:27:44Z</time>
      </trkpt>
      <trkpt lat="42.468517" lon="2.426154">
        <ele>2246.028</ele>
        <time>2021-05-28T13:27:46Z</time>
      </trkpt>
      <trkpt lat="42.468544" lon="2.426149">
        <ele>2246.693</ele>
        <time>2021-05-28T13:27:49Z</time>
      </trkpt>
      <trkpt lat="42.468561" lon="2.426127">
        <ele>2246.920</ele>
        <time>2021-05-28T13:27:52Z</time>
      </trkpt>
      <trkpt lat="42.468578" lon="2.426110">
        <ele>2247.368</ele>
        <time>2021-05-28T13:27:55Z</time>
      </trkpt>
      <trkpt lat="42.468597" lon="2.426089">
        <ele>2247.572</ele>
        <time>2021-05-28T13:27:58Z</time>
      </trkpt>
      <trkpt lat="42.468617" lon="2.426067">
        <ele>2247.813</ele>
        <time>2021-05-28T13:28:01Z</time>
      </trkpt>
      <trkpt lat="42.468630" lon="2.426043">
        <ele>2247.914</ele>
        <time>2021-05-28T13:28:04Z</time>
      </trkpt>
      <trkpt lat="42.468642" lon="2.426018">
        <ele>2248.008</ele>
        <time>2021-05-28T13:28:08Z</time>
      </trkpt>
      <trkpt lat="42.468662" lon="2.426000">
        <ele>2248.364</ele>
        <time>2021-05-28T13:28:10Z</time>
      </trkpt>
      <trkpt lat="42.468684" lon="2.425977">
        <ele>2248.641</ele>
        <time>2021-05-28T13:28:13Z</time>
      </trkpt>
      <trkpt lat="42.468703" lon="2.425956">
        <ele>2248.922</ele>
        <time>2021-05-28T13:28:16Z</time>
      </trkpt>
      <trkpt lat="42.468721" lon="2.425935">
        <ele>2249.281</ele>
        <time>2021-05-28T13:28:19Z</time>
      </trkpt>
      <trkpt lat="42.468738" lon="2.425925">
        <ele>2249.658</ele>
        <time>2021-05-28T13:28:21Z</time>
      </trkpt>
      <trkpt lat="42.468761" lon="2.425917">
        <ele>2250.183</ele>
        <time>2021-05-28T13:28:24Z</time>
      </trkpt>
      <trkpt lat="42.468788" lon="2.425909">
        <ele>2250.780</ele>
        <time>2021-05-28T13:28:28Z</time>
      </trkpt>
      <trkpt lat="42.468814" lon="2.425904">
        <ele>2251.228</ele>
        <time>2021-05-28T13:28:30Z</time>
      </trkpt>
      <trkpt lat="42.468832" lon="2.425901">
        <ele>2251.776</ele>
        <time>2021-05-28T13:28:32Z</time>
      </trkpt>
      <trkpt lat="42.468854" lon="2.425896">
        <ele>2252.290</ele>
        <time>2021-05-28T13:28:35Z</time>
      </trkpt>
      <trkpt lat="42.468878" lon="2.425894">
        <ele>2252.719</ele>
        <time>2021-05-28T13:28:38Z</time>
      </trkpt>
      <trkpt lat="42.468901" lon="2.425877">
        <ele>2253.208</ele>
        <time>2021-05-28T13:28:41Z</time>
      </trkpt>
      <trkpt lat="42.468917" lon="2.425864">
        <ele>2253.464</ele>
        <time>2021-05-28T13:28:43Z</time>
      </trkpt>
      <trkpt lat="42.468933" lon="2.425850">
        <ele>2253.691</ele>
        <time>2021-05-28T13:28:45Z</time>
      </trkpt>
      <trkpt lat="42.468950" lon="2.425835">
        <ele>2253.912</ele>
        <time>2021-05-28T13:28:47Z</time>
      </trkpt>
      <trkpt lat="42.468965" lon="2.425817">
        <ele>2254.081</ele>
        <time>2021-05-28T13:28:49Z</time>
      </trkpt>
      <trkpt lat="42.468980" lon="2.425798">
        <ele>2254.138</ele>
        <time>2021-05-28T13:28:51Z</time>
      </trkpt>
      <trkpt lat="42.469000" lon="2.425786">
        <ele>2254.333</ele>
        <time>2021-05-28T13:28:53Z</time>
      </trkpt>
      <trkpt lat="42.469020" lon="2.425773">
        <ele>2254.680</ele>
        <time>2021-05-28T13:28:55Z</time>
      </trkpt>
      <trkpt lat="42.469038" lon="2.425759">
        <ele>2254.878</ele>
        <time>2021-05-28T13:28:57Z</time>
      </trkpt>
      <trkpt lat="42.469060" lon="2.425738">
        <ele>2255.058</ele>
        <time>2021-05-28T13:28:59Z</time>
      </trkpt>
      <trkpt lat="42.469079" lon="2.425720">
        <ele>2255.252</ele>
        <time>2021-05-28T13:29:01Z</time>
      </trkpt>
      <trkpt lat="42.469096" lon="2.425704">
        <ele>2255.417</ele>
        <time>2021-05-28T13:29:04Z</time>
      </trkpt>
      <trkpt lat="42.469111" lon="2.425688">
        <ele>2255.608</ele>
        <time>2021-05-28T13:29:06Z</time>
      </trkpt>
      <trkpt lat="42.469128" lon="2.425677">
        <ele>2255.892</ele>
        <time>2021-05-28T13:29:07Z</time>
      </trkpt>
      <trkpt lat="42.469147" lon="2.425667">
        <ele>2256.169</ele>
        <time>2021-05-28T13:29:09Z</time>
      </trkpt>
      <trkpt lat="42.469164" lon="2.425644">
        <ele>2256.360</ele>
        <time>2021-05-28T13:29:12Z</time>
      </trkpt>
      <trkpt lat="42.469185" lon="2.425621">
        <ele>2256.589</ele>
        <time>2021-05-28T13:29:15Z</time>
      </trkpt>
      <trkpt lat="42.469203" lon="2.425613">
        <ele>2256.786</ele>
        <time>2021-05-28T13:29:17Z</time>
      </trkpt>
      <trkpt lat="42.469221" lon="2.425604">
        <ele>2257.041</ele>
        <time>2021-05-28T13:29:19Z</time>
      </trkpt>
      <trkpt lat="42.469239" lon="2.425595">
        <ele>2257.288</ele>
        <time>2021-05-28T13:29:21Z</time>
      </trkpt>
      <trkpt lat="42.469255" lon="2.425581">
        <ele>2257.456</ele>
        <time>2021-05-28T13:29:24Z</time>
      </trkpt>
      <trkpt lat="42.469271" lon="2.425567">
        <ele>2257.562</ele>
        <time>2021-05-28T13:29:26Z</time>
      </trkpt>
      <trkpt lat="42.469287" lon="2.425552">
        <ele>2257.783</ele>
        <time>2021-05-28T13:29:27Z</time>
      </trkpt>
      <trkpt lat="42.469307" lon="2.425531">
        <ele>2258.011</ele>
        <time>2021-05-28T13:29:30Z</time>
      </trkpt>
      <trkpt lat="42.469329" lon="2.425515">
        <ele>2258.308</ele>
        <time>2021-05-28T13:29:33Z</time>
      </trkpt>
      <trkpt lat="42.469344" lon="2.425503">
        <ele>2258.583</ele>
        <time>2021-05-28T13:29:36Z</time>
      </trkpt>
      <trkpt lat="42.469358" lon="2.425481">
        <ele>2258.740</ele>
        <time>2021-05-28T13:29:39Z</time>
      </trkpt>
      <trkpt lat="42.469369" lon="2.425461">
        <ele>2258.841</ele>
        <time>2021-05-28T13:29:43Z</time>
      </trkpt>
      <trkpt lat="42.469389" lon="2.425438">
        <ele>2259.190</ele>
        <time>2021-05-28T13:29:45Z</time>
      </trkpt>
      <trkpt lat="42.469401" lon="2.425419">
        <ele>2259.327</ele>
        <time>2021-05-28T13:29:47Z</time>
      </trkpt>
      <trkpt lat="42.469417" lon="2.425402">
        <ele>2259.612</ele>
        <time>2021-05-28T13:29:50Z</time>
      </trkpt>
      <trkpt lat="42.469435" lon="2.425381">
        <ele>2259.869</ele>
        <time>2021-05-28T13:29:53Z</time>
      </trkpt>
      <trkpt lat="42.469456" lon="2.425374">
        <ele>2260.237</ele>
        <time>2021-05-28T13:29:56Z</time>
      </trkpt>
      <trkpt lat="42.469475" lon="2.425366">
        <ele>2260.642</ele>
        <time>2021-05-28T13:29:59Z</time>
      </trkpt>
      <trkpt lat="42.469495" lon="2.425353">
        <ele>2260.922</ele>
        <time>2021-05-28T13:30:03Z</time>
      </trkpt>
      <trkpt lat="42.469516" lon="2.425337">
        <ele>2261.314</ele>
        <time>2021-05-28T13:30:05Z</time>
      </trkpt>
      <trkpt lat="42.469532" lon="2.425317">
        <ele>2261.608</ele>
        <time>2021-05-28T13:30:09Z</time>
      </trkpt>
      <trkpt lat="42.469547" lon="2.425300">
        <ele>2261.851</ele>
        <time>2021-05-28T13:30:11Z</time>
      </trkpt>
      <trkpt lat="42.469567" lon="2.425289">
        <ele>2262.268</ele>
        <time>2021-05-28T13:30:15Z</time>
      </trkpt>
      <trkpt lat="42.469590" lon="2.425282">
        <ele>2262.649</ele>
        <time>2021-05-28T13:30:18Z</time>
      </trkpt>
      <trkpt lat="42.469607" lon="2.425269">
        <ele>2262.968</ele>
        <time>2021-05-28T13:30:20Z</time>
      </trkpt>
      <trkpt lat="42.469627" lon="2.425251">
        <ele>2263.365</ele>
        <time>2021-05-28T13:30:23Z</time>
      </trkpt>
      <trkpt lat="42.469650" lon="2.425235">
        <ele>2263.810</ele>
        <time>2021-05-28T13:30:27Z</time>
      </trkpt>
      <trkpt lat="42.469666" lon="2.425224">
        <ele>2264.187</ele>
        <time>2021-05-28T13:30:29Z</time>
      </trkpt>
      <trkpt lat="42.469686" lon="2.425210">
        <ele>2264.675</ele>
        <time>2021-05-28T13:30:32Z</time>
      </trkpt>
      <trkpt lat="42.469707" lon="2.425192">
        <ele>2265.079</ele>
        <time>2021-05-28T13:30:35Z</time>
      </trkpt>
      <trkpt lat="42.469730" lon="2.425176">
        <ele>2265.505</ele>
        <time>2021-05-28T13:30:37Z</time>
      </trkpt>
      <trkpt lat="42.469746" lon="2.425150">
        <ele>2265.925</ele>
        <time>2021-05-28T13:30:40Z</time>
      </trkpt>
      <trkpt lat="42.469764" lon="2.425133">
        <ele>2266.308</ele>
        <time>2021-05-28T13:30:43Z</time>
      </trkpt>
      <trkpt lat="42.469780" lon="2.425117">
        <ele>2266.664</ele>
        <time>2021-05-28T13:30:46Z</time>
      </trkpt>
      <trkpt lat="42.469794" lon="2.425092">
        <ele>2267.031</ele>
        <time>2021-05-28T13:30:50Z</time>
      </trkpt>
      <trkpt lat="42.469800" lon="2.425058">
        <ele>2267.222</ele>
        <time>2021-05-28T13:30:52Z</time>
      </trkpt>
      <trkpt lat="42.469807" lon="2.425035">
        <ele>2267.421</ele>
        <time>2021-05-28T13:30:54Z</time>
      </trkpt>
      <trkpt lat="42.469823" lon="2.425008">
        <ele>2267.838</ele>
        <time>2021-05-28T13:30:57Z</time>
      </trkpt>
      <trkpt lat="42.469840" lon="2.424980">
        <ele>2268.273</ele>
        <time>2021-05-28T13:31:01Z</time>
      </trkpt>
      <trkpt lat="42.469852" lon="2.424954">
        <ele>2268.590</ele>
        <time>2021-05-28T13:31:03Z</time>
      </trkpt>
      <trkpt lat="42.469857" lon="2.424920">
        <ele>2268.718</ele>
        <time>2021-05-28T13:31:06Z</time>
      </trkpt>
      <trkpt lat="42.469858" lon="2.424886">
        <ele>2268.913</ele>
        <time>2021-05-28T13:31:09Z</time>
      </trkpt>
      <trkpt lat="42.469860" lon="2.424858">
        <ele>2269.043</ele>
        <time>2021-05-28T13:31:11Z</time>
      </trkpt>
      <trkpt lat="42.469859" lon="2.424828">
        <ele>2269.107</ele>
        <time>2021-05-28T13:31:13Z</time>
      </trkpt>
      <trkpt lat="42.469860" lon="2.424800">
        <ele>2269.208</ele>
        <time>2021-05-28T13:31:15Z</time>
      </trkpt>
      <trkpt lat="42.469863" lon="2.424775">
        <ele>2269.328</ele>
        <time>2021-05-28T13:31:17Z</time>
      </trkpt>
      <trkpt lat="42.469867" lon="2.424749">
        <ele>2269.515</ele>
        <time>2021-05-28T13:31:19Z</time>
      </trkpt>
      <trkpt lat="42.469876" lon="2.424724">
        <ele>2269.816</ele>
        <time>2021-05-28T13:31:22Z</time>
      </trkpt>
      <trkpt lat="42.469885" lon="2.424692">
        <ele>2270.025</ele>
        <time>2021-05-28T13:31:24Z</time>
      </trkpt>
      <trkpt lat="42.469897" lon="2.424664">
        <ele>2270.242</ele>
        <time>2021-05-28T13:31:27Z</time>
      </trkpt>
      <trkpt lat="42.469904" lon="2.424636">
        <ele>2270.417</ele>
        <time>2021-05-28T13:31:30Z</time>
      </trkpt>
      <trkpt lat="42.469903" lon="2.424599">
        <ele>2270.484</ele>
        <time>2021-05-28T13:31:33Z</time>
      </trkpt>
      <trkpt lat="42.469909" lon="2.424568">
        <ele>2270.592</ele>
        <time>2021-05-28T13:31:36Z</time>
      </trkpt>
      <trkpt lat="42.469915" lon="2.424538">
        <ele>2270.777</ele>
        <time>2021-05-28T13:31:40Z</time>
      </trkpt>
      <trkpt lat="42.469935" lon="2.424517">
        <ele>2271.061</ele>
        <time>2021-05-28T13:31:43Z</time>
      </trkpt>
      <trkpt lat="42.469953" lon="2.424489">
        <ele>2271.327</ele>
        <time>2021-05-28T13:31:45Z</time>
      </trkpt>
      <trkpt lat="42.469966" lon="2.424462">
        <ele>2271.508</ele>
        <time>2021-05-28T13:31:48Z</time>
      </trkpt>
      <trkpt lat="42.469973" lon="2.424440">
        <ele>2271.714</ele>
        <time>2021-05-28T13:31:53Z</time>
      </trkpt>
      <trkpt lat="42.469973" lon="2.424410">
        <ele>2272.011</ele>
        <time>2021-05-28T13:31:59Z</time>
      </trkpt>
      <trkpt lat="42.469982" lon="2.424374">
        <ele>2272.562</ele>
        <time>2021-05-28T13:32:01Z</time>
      </trkpt>
      <trkpt lat="42.469985" lon="2.424340">
        <ele>2272.951</ele>
        <time>2021-05-28T13:32:05Z</time>
      </trkpt>
      <trkpt lat="42.469981" lon="2.424312">
        <ele>2273.238</ele>
        <time>2021-05-28T13:32:07Z</time>
      </trkpt>
      <trkpt lat="42.469966" lon="2.424287">
        <ele>2273.293</ele>
        <time>2021-05-28T13:32:09Z</time>
      </trkpt>
      <trkpt lat="42.469948" lon="2.424271">
        <ele>2273.120</ele>
        <time>2021-05-28T13:32:12Z</time>
      </trkpt>
      <trkpt lat="42.469945" lon="2.424232">
        <ele>2273.538</ele>
        <time>2021-05-28T13:32:14Z</time>
      </trkpt>
      <trkpt lat="42.469955" lon="2.424204">
        <ele>2273.912</ele>
        <time>2021-05-28T13:32:19Z</time>
      </trkpt>
      <trkpt lat="42.469954" lon="2.424176">
        <ele>2274.232</ele>
        <time>2021-05-28T13:32:23Z</time>
      </trkpt>
      <trkpt lat="42.469980" lon="2.424090">
        <ele>2275.505</ele>
        <time>2021-05-28T13:32:31Z</time>
      </trkpt>
      <trkpt lat="42.469980" lon="2.424064">
        <ele>2275.808</ele>
        <time>2021-05-28T13:32:32Z</time>
      </trkpt>
      <trkpt lat="42.469984" lon="2.424033">
        <ele>2276.248</ele>
        <time>2021-05-28T13:32:35Z</time>
      </trkpt>
      <trkpt lat="42.469984" lon="2.424006">
        <ele>2276.585</ele>
        <time>2021-05-28T13:32:37Z</time>
      </trkpt>
      <trkpt lat="42.469979" lon="2.423979">
        <ele>2276.796</ele>
        <time>2021-05-28T13:32:39Z</time>
      </trkpt>
      <trkpt lat="42.469982" lon="2.423946">
        <ele>2277.175</ele>
        <time>2021-05-28T13:32:42Z</time>
      </trkpt>
      <trkpt lat="42.469984" lon="2.423909">
        <ele>2277.562</ele>
        <time>2021-05-28T13:32:45Z</time>
      </trkpt>
      <trkpt lat="42.469980" lon="2.423877">
        <ele>2277.877</ele>
        <time>2021-05-28T13:32:47Z</time>
      </trkpt>
      <trkpt lat="42.469979" lon="2.423849">
        <ele>2278.184</ele>
        <time>2021-05-28T13:32:50Z</time>
      </trkpt>
      <trkpt lat="42.469980" lon="2.423815">
        <ele>2278.452</ele>
        <time>2021-05-28T13:32:51Z</time>
      </trkpt>
      <trkpt lat="42.469985" lon="2.423785">
        <ele>2278.977</ele>
        <time>2021-05-28T13:32:54Z</time>
      </trkpt>
      <trkpt lat="42.469993" lon="2.423754">
        <ele>2279.361</ele>
        <time>2021-05-28T13:32:56Z</time>
      </trkpt>
      <trkpt lat="42.469995" lon="2.423729">
        <ele>2279.627</ele>
        <time>2021-05-28T13:32:58Z</time>
      </trkpt>
      <trkpt lat="42.469985" lon="2.423698">
        <ele>2279.808</ele>
        <time>2021-05-28T13:32:59Z</time>
      </trkpt>
      <trkpt lat="42.469979" lon="2.423668">
        <ele>2280.064</ele>
        <time>2021-05-28T13:33:02Z</time>
      </trkpt>
      <trkpt lat="42.469977" lon="2.423637">
        <ele>2280.311</ele>
        <time>2021-05-28T13:33:04Z</time>
      </trkpt>
      <trkpt lat="42.469970" lon="2.423587">
        <ele>2280.652</ele>
        <time>2021-05-28T13:33:06Z</time>
      </trkpt>
      <trkpt lat="42.469969" lon="2.423553">
        <ele>2280.751</ele>
        <time>2021-05-28T13:33:08Z</time>
      </trkpt>
      <trkpt lat="42.469969" lon="2.423523">
        <ele>2280.898</ele>
        <time>2021-05-28T13:33:10Z</time>
      </trkpt>
      <trkpt lat="42.469970" lon="2.423493">
        <ele>2280.963</ele>
        <time>2021-05-28T13:33:13Z</time>
      </trkpt>
      <trkpt lat="42.469972" lon="2.423461">
        <ele>2281.140</ele>
        <time>2021-05-28T13:33:14Z</time>
      </trkpt>
      <trkpt lat="42.469974" lon="2.423431">
        <ele>2281.218</ele>
        <time>2021-05-28T13:33:16Z</time>
      </trkpt>
      <trkpt lat="42.469974" lon="2.423403">
        <ele>2281.498</ele>
        <time>2021-05-28T13:33:18Z</time>
      </trkpt>
      <trkpt lat="42.469975" lon="2.423375">
        <ele>2281.515</ele>
        <time>2021-05-28T13:33:20Z</time>
      </trkpt>
      <trkpt lat="42.469977" lon="2.423349">
        <ele>2281.626</ele>
        <time>2021-05-28T13:33:22Z</time>
      </trkpt>
      <trkpt lat="42.469980" lon="2.423314">
        <ele>2281.908</ele>
        <time>2021-05-28T13:33:25Z</time>
      </trkpt>
      <trkpt lat="42.469974" lon="2.423291">
        <ele>2281.976</ele>
        <time>2021-05-28T13:33:28Z</time>
      </trkpt>
      <trkpt lat="42.469967" lon="2.423264">
        <ele>2282.083</ele>
        <time>2021-05-28T13:33:30Z</time>
      </trkpt>
      <trkpt lat="42.469972" lon="2.423232">
        <ele>2282.344</ele>
        <time>2021-05-28T13:33:33Z</time>
      </trkpt>
      <trkpt lat="42.469974" lon="2.423197">
        <ele>2282.683</ele>
        <time>2021-05-28T13:33:36Z</time>
      </trkpt>
      <trkpt lat="42.469973" lon="2.423161">
        <ele>2282.970</ele>
        <time>2021-05-28T13:33:39Z</time>
      </trkpt>
      <trkpt lat="42.469972" lon="2.423125">
        <ele>2283.175</ele>
        <time>2021-05-28T13:33:41Z</time>
      </trkpt>
      <trkpt lat="42.469974" lon="2.423095">
        <ele>2283.352</ele>
        <time>2021-05-28T13:33:43Z</time>
      </trkpt>
      <trkpt lat="42.469981" lon="2.423067">
        <ele>2283.690</ele>
        <time>2021-05-28T13:33:45Z</time>
      </trkpt>
      <trkpt lat="42.469985" lon="2.423041">
        <ele>2283.916</ele>
        <time>2021-05-28T13:33:47Z</time>
      </trkpt>
      <trkpt lat="42.469989" lon="2.423013">
        <ele>2284.176</ele>
        <time>2021-05-28T13:33:50Z</time>
      </trkpt>
      <trkpt lat="42.469991" lon="2.422984">
        <ele>2284.413</ele>
        <time>2021-05-28T13:33:51Z</time>
      </trkpt>
      <trkpt lat="42.469998" lon="2.422951">
        <ele>2284.708</ele>
        <time>2021-05-28T13:33:54Z</time>
      </trkpt>
      <trkpt lat="42.470005" lon="2.422921">
        <ele>2285.068</ele>
        <time>2021-05-28T13:33:55Z</time>
      </trkpt>
      <trkpt lat="42.470010" lon="2.422887">
        <ele>2285.465</ele>
        <time>2021-05-28T13:33:57Z</time>
      </trkpt>
      <trkpt lat="42.470016" lon="2.422857">
        <ele>2285.746</ele>
        <time>2021-05-28T13:33:59Z</time>
      </trkpt>
      <trkpt lat="42.470021" lon="2.422826">
        <ele>2286.035</ele>
        <time>2021-05-28T13:34:01Z</time>
      </trkpt>
      <trkpt lat="42.470026" lon="2.422797">
        <ele>2286.212</ele>
        <time>2021-05-28T13:34:03Z</time>
      </trkpt>
      <trkpt lat="42.470032" lon="2.422770">
        <ele>2286.587</ele>
        <time>2021-05-28T13:34:05Z</time>
      </trkpt>
      <trkpt lat="42.470037" lon="2.422743">
        <ele>2286.784</ele>
        <time>2021-05-28T13:34:07Z</time>
      </trkpt>
      <trkpt lat="42.470039" lon="2.422717">
        <ele>2286.832</ele>
        <time>2021-05-28T13:34:09Z</time>
      </trkpt>
      <trkpt lat="42.470042" lon="2.422688">
        <ele>2286.996</ele>
        <time>2021-05-28T13:34:11Z</time>
      </trkpt>
      <trkpt lat="42.470044" lon="2.422661">
        <ele>2287.131</ele>
        <time>2021-05-28T13:34:13Z</time>
      </trkpt>
      <trkpt lat="42.470045" lon="2.422634">
        <ele>2287.224</ele>
        <time>2021-05-28T13:34:15Z</time>
      </trkpt>
      <trkpt lat="42.470045" lon="2.422607">
        <ele>2287.308</ele>
        <time>2021-05-28T13:34:17Z</time>
      </trkpt>
      <trkpt lat="42.470046" lon="2.422580">
        <ele>2287.426</ele>
        <time>2021-05-28T13:34:19Z</time>
      </trkpt>
      <trkpt lat="42.470048" lon="2.422550">
        <ele>2287.563</ele>
        <time>2021-05-28T13:34:21Z</time>
      </trkpt>
      <trkpt lat="42.470048" lon="2.422520">
        <ele>2287.634</ele>
        <time>2021-05-28T13:34:23Z</time>
      </trkpt>
      <trkpt lat="42.470050" lon="2.422491">
        <ele>2287.813</ele>
        <time>2021-05-28T13:34:25Z</time>
      </trkpt>
      <trkpt lat="42.470052" lon="2.422462">
        <ele>2288.070</ele>
        <time>2021-05-28T13:34:27Z</time>
      </trkpt>
      <trkpt lat="42.470054" lon="2.422434">
        <ele>2288.365</ele>
        <time>2021-05-28T13:34:29Z</time>
      </trkpt>
      <trkpt lat="42.470054" lon="2.422406">
        <ele>2288.512</ele>
        <time>2021-05-28T13:34:31Z</time>
      </trkpt>
      <trkpt lat="42.470055" lon="2.422377">
        <ele>2288.770</ele>
        <time>2021-05-28T13:34:33Z</time>
      </trkpt>
      <trkpt lat="42.470059" lon="2.422347">
        <ele>2289.087</ele>
        <time>2021-05-28T13:34:35Z</time>
      </trkpt>
      <trkpt lat="42.470068" lon="2.422319">
        <ele>2289.342</ele>
        <time>2021-05-28T13:34:37Z</time>
      </trkpt>
      <trkpt lat="42.470075" lon="2.422291">
        <ele>2289.626</ele>
        <time>2021-05-28T13:34:39Z</time>
      </trkpt>
      <trkpt lat="42.470080" lon="2.422264">
        <ele>2289.908</ele>
        <time>2021-05-28T13:34:41Z</time>
      </trkpt>
      <trkpt lat="42.470087" lon="2.422235">
        <ele>2290.225</ele>
        <time>2021-05-28T13:34:43Z</time>
      </trkpt>
      <trkpt lat="42.470089" lon="2.422205">
        <ele>2290.232</ele>
        <time>2021-05-28T13:34:45Z</time>
      </trkpt>
      <trkpt lat="42.470092" lon="2.422175">
        <ele>2290.213</ele>
        <time>2021-05-28T13:34:47Z</time>
      </trkpt>
      <trkpt lat="42.470094" lon="2.422144">
        <ele>2290.292</ele>
        <time>2021-05-28T13:34:50Z</time>
      </trkpt>
      <trkpt lat="42.470100" lon="2.422113">
        <ele>2290.229</ele>
        <time>2021-05-28T13:34:52Z</time>
      </trkpt>
      <trkpt lat="42.470104" lon="2.422083">
        <ele>2290.294</ele>
        <time>2021-05-28T13:34:54Z</time>
      </trkpt>
      <trkpt lat="42.470108" lon="2.422053">
        <ele>2290.271</ele>
        <time>2021-05-28T13:34:56Z</time>
      </trkpt>
      <trkpt lat="42.470113" lon="2.422026">
        <ele>2290.279</ele>
        <time>2021-05-28T13:34:58Z</time>
      </trkpt>
      <trkpt lat="42.470121" lon="2.421998">
        <ele>2290.348</ele>
        <time>2021-05-28T13:34:59Z</time>
      </trkpt>
      <trkpt lat="42.470124" lon="2.421968">
        <ele>2290.361</ele>
        <time>2021-05-28T13:35:02Z</time>
      </trkpt>
      <trkpt lat="42.470128" lon="2.421941">
        <ele>2290.317</ele>
        <time>2021-05-28T13:35:04Z</time>
      </trkpt>
      <trkpt lat="42.470133" lon="2.421912">
        <ele>2290.408</ele>
        <time>2021-05-28T13:35:06Z</time>
      </trkpt>
      <trkpt lat="42.470139" lon="2.421884">
        <ele>2290.631</ele>
        <time>2021-05-28T13:35:08Z</time>
      </trkpt>
      <trkpt lat="42.470145" lon="2.421854">
        <ele>2290.878</ele>
        <time>2021-05-28T13:35:09Z</time>
      </trkpt>
      <trkpt lat="42.470150" lon="2.421824">
        <ele>2290.929</ele>
        <time>2021-05-28T13:35:12Z</time>
      </trkpt>
      <trkpt lat="42.470156" lon="2.421795">
        <ele>2291.128</ele>
        <time>2021-05-28T13:35:13Z</time>
      </trkpt>
      <trkpt lat="42.470163" lon="2.421769">
        <ele>2291.385</ele>
        <time>2021-05-28T13:35:15Z</time>
      </trkpt>
      <trkpt lat="42.470167" lon="2.421740">
        <ele>2291.490</ele>
        <time>2021-05-28T13:35:17Z</time>
      </trkpt>
      <trkpt lat="42.470171" lon="2.421711">
        <ele>2291.677</ele>
        <time>2021-05-28T13:35:19Z</time>
      </trkpt>
      <trkpt lat="42.470175" lon="2.421685">
        <ele>2291.725</ele>
        <time>2021-05-28T13:35:21Z</time>
      </trkpt>
      <trkpt lat="42.470183" lon="2.421657">
        <ele>2292.042</ele>
        <time>2021-05-28T13:35:23Z</time>
      </trkpt>
      <trkpt lat="42.470193" lon="2.421629">
        <ele>2292.322</ele>
        <time>2021-05-28T13:35:25Z</time>
      </trkpt>
      <trkpt lat="42.470203" lon="2.421602">
        <ele>2292.714</ele>
        <time>2021-05-28T13:35:27Z</time>
      </trkpt>
      <trkpt lat="42.470207" lon="2.421575">
        <ele>2292.908</ele>
        <time>2021-05-28T13:35:30Z</time>
      </trkpt>
      <trkpt lat="42.470213" lon="2.421543">
        <ele>2293.231</ele>
        <time>2021-05-28T13:35:32Z</time>
      </trkpt>
      <trkpt lat="42.470220" lon="2.421513">
        <ele>2293.488</ele>
        <time>2021-05-28T13:35:33Z</time>
      </trkpt>
      <trkpt lat="42.470227" lon="2.421485">
        <ele>2293.759</ele>
        <time>2021-05-28T13:35:35Z</time>
      </trkpt>
      <trkpt lat="42.470234" lon="2.421458">
        <ele>2293.978</ele>
        <time>2021-05-28T13:35:37Z</time>
      </trkpt>
      <trkpt lat="42.470242" lon="2.421430">
        <ele>2294.275</ele>
        <time>2021-05-28T13:35:40Z</time>
      </trkpt>
      <trkpt lat="42.470251" lon="2.421402">
        <ele>2294.510</ele>
        <time>2021-05-28T13:35:42Z</time>
      </trkpt>
      <trkpt lat="42.470258" lon="2.421375">
        <ele>2294.627</ele>
        <time>2021-05-28T13:35:44Z</time>
      </trkpt>
      <trkpt lat="42.470263" lon="2.421345">
        <ele>2294.765</ele>
        <time>2021-05-28T13:35:45Z</time>
      </trkpt>
      <trkpt lat="42.470273" lon="2.421320">
        <ele>2294.921</ele>
        <time>2021-05-28T13:35:48Z</time>
      </trkpt>
      <trkpt lat="42.470279" lon="2.421291">
        <ele>2295.041</ele>
        <time>2021-05-28T13:35:50Z</time>
      </trkpt>
      <trkpt lat="42.470283" lon="2.421261">
        <ele>2295.105</ele>
        <time>2021-05-28T13:35:52Z</time>
      </trkpt>
      <trkpt lat="42.470289" lon="2.421231">
        <ele>2295.208</ele>
        <time>2021-05-28T13:35:53Z</time>
      </trkpt>
      <trkpt lat="42.470300" lon="2.421208">
        <ele>2295.369</ele>
        <time>2021-05-28T13:35:55Z</time>
      </trkpt>
      <trkpt lat="42.470307" lon="2.421180">
        <ele>2295.426</ele>
        <time>2021-05-28T13:35:58Z</time>
      </trkpt>
      <trkpt lat="42.470310" lon="2.421152">
        <ele>2295.537</ele>
        <time>2021-05-28T13:36:00Z</time>
      </trkpt>
      <trkpt lat="42.470317" lon="2.421127">
        <ele>2295.666</ele>
        <time>2021-05-28T13:36:02Z</time>
      </trkpt>
      <trkpt lat="42.470324" lon="2.421101">
        <ele>2295.633</ele>
        <time>2021-05-28T13:36:03Z</time>
      </trkpt>
      <trkpt lat="42.470330" lon="2.421075">
        <ele>2295.668</ele>
        <time>2021-05-28T13:36:05Z</time>
      </trkpt>
      <trkpt lat="42.470339" lon="2.421052">
        <ele>2295.785</ele>
        <time>2021-05-28T13:36:07Z</time>
      </trkpt>
      <trkpt lat="42.470347" lon="2.421025">
        <ele>2295.713</ele>
        <time>2021-05-28T13:36:10Z</time>
      </trkpt>
      <trkpt lat="42.470352" lon="2.420996">
        <ele>2295.745</ele>
        <time>2021-05-28T13:36:11Z</time>
      </trkpt>
      <trkpt lat="42.470359" lon="2.420969">
        <ele>2295.747</ele>
        <time>2021-05-28T13:36:13Z</time>
      </trkpt>
      <trkpt lat="42.470363" lon="2.420941">
        <ele>2295.611</ele>
        <time>2021-05-28T13:36:16Z</time>
      </trkpt>
      <trkpt lat="42.470367" lon="2.420912">
        <ele>2295.608</ele>
        <time>2021-05-28T13:36:18Z</time>
      </trkpt>
      <trkpt lat="42.470379" lon="2.420888">
        <ele>2295.731</ele>
        <time>2021-05-28T13:36:20Z</time>
      </trkpt>
      <trkpt lat="42.470387" lon="2.420864">
        <ele>2295.768</ele>
        <time>2021-05-28T13:36:22Z</time>
      </trkpt>
      <trkpt lat="42.470392" lon="2.420833">
        <ele>2295.629</ele>
        <time>2021-05-28T13:36:23Z</time>
      </trkpt>
      <trkpt lat="42.470403" lon="2.420808">
        <ele>2295.868</ele>
        <time>2021-05-28T13:36:25Z</time>
      </trkpt>
      <trkpt lat="42.470416" lon="2.420785">
        <ele>2295.915</ele>
        <time>2021-05-28T13:36:28Z</time>
      </trkpt>
      <trkpt lat="42.470431" lon="2.420764">
        <ele>2296.160</ele>
        <time>2021-05-28T13:36:30Z</time>
      </trkpt>
      <trkpt lat="42.470443" lon="2.420744">
        <ele>2296.297</ele>
        <time>2021-05-28T13:36:31Z</time>
      </trkpt>
      <trkpt lat="42.470456" lon="2.420724">
        <ele>2296.485</ele>
        <time>2021-05-28T13:36:33Z</time>
      </trkpt>
      <trkpt lat="42.470464" lon="2.420701">
        <ele>2296.525</ele>
        <time>2021-05-28T13:36:35Z</time>
      </trkpt>
      <trkpt lat="42.470473" lon="2.420678">
        <ele>2296.626</ele>
        <time>2021-05-28T13:36:38Z</time>
      </trkpt>
      <trkpt lat="42.470483" lon="2.420656">
        <ele>2296.808</ele>
        <time>2021-05-28T13:36:40Z</time>
      </trkpt>
      <trkpt lat="42.470491" lon="2.420632">
        <ele>2296.908</ele>
        <time>2021-05-28T13:36:41Z</time>
      </trkpt>
      <trkpt lat="42.470499" lon="2.420605">
        <ele>2297.089</ele>
        <time>2021-05-28T13:36:43Z</time>
      </trkpt>
      <trkpt lat="42.470506" lon="2.420580">
        <ele>2297.116</ele>
        <time>2021-05-28T13:36:45Z</time>
      </trkpt>
      <trkpt lat="42.470517" lon="2.420554">
        <ele>2297.327</ele>
        <time>2021-05-28T13:36:47Z</time>
      </trkpt>
      <trkpt lat="42.470530" lon="2.420529">
        <ele>2297.656</ele>
        <time>2021-05-28T13:36:49Z</time>
      </trkpt>
      <trkpt lat="42.470542" lon="2.420506">
        <ele>2297.973</ele>
        <time>2021-05-28T13:36:51Z</time>
      </trkpt>
      <trkpt lat="42.470555" lon="2.420485">
        <ele>2298.228</ele>
        <time>2021-05-28T13:36:53Z</time>
      </trkpt>
      <trkpt lat="42.470565" lon="2.420459">
        <ele>2298.355</ele>
        <time>2021-05-28T13:36:55Z</time>
      </trkpt>
      <trkpt lat="42.470572" lon="2.420430">
        <ele>2298.483</ele>
        <time>2021-05-28T13:36:57Z</time>
      </trkpt>
      <trkpt lat="42.470584" lon="2.420403">
        <ele>2298.588</ele>
        <time>2021-05-28T13:36:59Z</time>
      </trkpt>
      <trkpt lat="42.470597" lon="2.420375">
        <ele>2298.524</ele>
        <time>2021-05-28T13:37:01Z</time>
      </trkpt>
      <trkpt lat="42.470609" lon="2.420348">
        <ele>2298.526</ele>
        <time>2021-05-28T13:37:03Z</time>
      </trkpt>
      <trkpt lat="42.470622" lon="2.420324">
        <ele>2298.508</ele>
        <time>2021-05-28T13:37:05Z</time>
      </trkpt>
      <trkpt lat="42.470634" lon="2.420296">
        <ele>2298.425</ele>
        <time>2021-05-28T13:37:07Z</time>
      </trkpt>
      <trkpt lat="42.470651" lon="2.420272">
        <ele>2298.382</ele>
        <time>2021-05-28T13:37:09Z</time>
      </trkpt>
      <trkpt lat="42.470662" lon="2.420246">
        <ele>2298.223</ele>
        <time>2021-05-28T13:37:11Z</time>
      </trkpt>
      <trkpt lat="42.470671" lon="2.420218">
        <ele>2298.092</ele>
        <time>2021-05-28T13:37:13Z</time>
      </trkpt>
      <trkpt lat="42.470681" lon="2.420193">
        <ele>2297.939</ele>
        <time>2021-05-28T13:37:15Z</time>
      </trkpt>
      <trkpt lat="42.470690" lon="2.420165">
        <ele>2297.814</ele>
        <time>2021-05-28T13:37:17Z</time>
      </trkpt>
      <trkpt lat="42.470699" lon="2.420139">
        <ele>2297.771</ele>
        <time>2021-05-28T13:37:19Z</time>
      </trkpt>
      <trkpt lat="42.470715" lon="2.420119">
        <ele>2297.689</ele>
        <time>2021-05-28T13:37:21Z</time>
      </trkpt>
      <trkpt lat="42.470727" lon="2.420095">
        <ele>2297.572</ele>
        <time>2021-05-28T13:37:23Z</time>
      </trkpt>
      <trkpt lat="42.470740" lon="2.420073">
        <ele>2297.413</ele>
        <time>2021-05-28T13:37:25Z</time>
      </trkpt>
      <trkpt lat="42.470752" lon="2.420047">
        <ele>2297.314</ele>
        <time>2021-05-28T13:37:27Z</time>
      </trkpt>
      <trkpt lat="42.470763" lon="2.420026">
        <ele>2297.308</ele>
        <time>2021-05-28T13:37:29Z</time>
      </trkpt>
      <trkpt lat="42.470774" lon="2.420000">
        <ele>2297.254</ele>
        <time>2021-05-28T13:37:31Z</time>
      </trkpt>
      <trkpt lat="42.470786" lon="2.419979">
        <ele>2297.121</ele>
        <time>2021-05-28T13:37:33Z</time>
      </trkpt>
      <trkpt lat="42.470797" lon="2.419958">
        <ele>2297.082</ele>
        <time>2021-05-28T13:37:35Z</time>
      </trkpt>
      <trkpt lat="42.470809" lon="2.419935">
        <ele>2296.991</ele>
        <time>2021-05-28T13:37:37Z</time>
      </trkpt>
      <trkpt lat="42.470822" lon="2.419908">
        <ele>2296.758</ele>
        <time>2021-05-28T13:37:39Z</time>
      </trkpt>
      <trkpt lat="42.470836" lon="2.419883">
        <ele>2296.663</ele>
        <time>2021-05-28T13:37:41Z</time>
      </trkpt>
      <trkpt lat="42.470847" lon="2.419856">
        <ele>2296.430</ele>
        <time>2021-05-28T13:37:43Z</time>
      </trkpt>
      <trkpt lat="42.470853" lon="2.419824">
        <ele>2296.228</ele>
        <time>2021-05-28T13:37:45Z</time>
      </trkpt>
      <trkpt lat="42.470860" lon="2.419793">
        <ele>2296.079</ele>
        <time>2021-05-28T13:37:47Z</time>
      </trkpt>
      <trkpt lat="42.470870" lon="2.419766">
        <ele>2295.905</ele>
        <time>2021-05-28T13:37:49Z</time>
      </trkpt>
      <trkpt lat="42.470885" lon="2.419747">
        <ele>2295.725</ele>
        <time>2021-05-28T13:37:51Z</time>
      </trkpt>
      <trkpt lat="42.470900" lon="2.419727">
        <ele>2295.508</ele>
        <time>2021-05-28T13:37:53Z</time>
      </trkpt>
      <trkpt lat="42.470915" lon="2.419706">
        <ele>2295.474</ele>
        <time>2021-05-28T13:37:55Z</time>
      </trkpt>
      <trkpt lat="42.470927" lon="2.419681">
        <ele>2295.381</ele>
        <time>2021-05-28T13:37:58Z</time>
      </trkpt>
      <trkpt lat="42.470934" lon="2.419653">
        <ele>2295.242</ele>
        <time>2021-05-28T13:38:00Z</time>
      </trkpt>
      <trkpt lat="42.470942" lon="2.419624">
        <ele>2295.131</ele>
        <time>2021-05-28T13:38:02Z</time>
      </trkpt>
      <trkpt lat="42.470952" lon="2.419591">
        <ele>2294.978</ele>
        <time>2021-05-28T13:38:04Z</time>
      </trkpt>
      <trkpt lat="42.470965" lon="2.419562">
        <ele>2294.823</ele>
        <time>2021-05-28T13:38:05Z</time>
      </trkpt>
      <trkpt lat="42.470975" lon="2.419534">
        <ele>2294.630</ele>
        <time>2021-05-28T13:38:07Z</time>
      </trkpt>
      <trkpt lat="42.470983" lon="2.419507">
        <ele>2294.518</ele>
        <time>2021-05-28T13:38:09Z</time>
      </trkpt>
      <trkpt lat="42.470993" lon="2.419481">
        <ele>2294.421</ele>
        <time>2021-05-28T13:38:11Z</time>
      </trkpt>
      <trkpt lat="42.470998" lon="2.419454">
        <ele>2294.241</ele>
        <time>2021-05-28T13:38:14Z</time>
      </trkpt>
      <trkpt lat="42.471004" lon="2.419426">
        <ele>2294.205</ele>
        <time>2021-05-28T13:38:16Z</time>
      </trkpt>
      <trkpt lat="42.471009" lon="2.419401">
        <ele>2294.108</ele>
        <time>2021-05-28T13:38:17Z</time>
      </trkpt>
      <trkpt lat="42.471017" lon="2.419370">
        <ele>2294.039</ele>
        <time>2021-05-28T13:38:20Z</time>
      </trkpt>
      <trkpt lat="42.471028" lon="2.419330">
        <ele>2293.956</ele>
        <time>2021-05-28T13:38:22Z</time>
      </trkpt>
      <trkpt lat="42.471041" lon="2.419280">
        <ele>2293.867</ele>
        <time>2021-05-28T13:38:23Z</time>
      </trkpt>
      <trkpt lat="42.471048" lon="2.419256">
        <ele>2293.756</ele>
        <time>2021-05-28T13:38:25Z</time>
      </trkpt>
      <trkpt lat="42.471060" lon="2.419205">
        <ele>2293.643</ele>
        <time>2021-05-28T13:38:26Z</time>
      </trkpt>
      <trkpt lat="42.471069" lon="2.419183">
        <ele>2293.548</ele>
        <time>2021-05-28T13:38:28Z</time>
      </trkpt>
      <trkpt lat="42.471086" lon="2.419136">
        <ele>2293.245</ele>
        <time>2021-05-28T13:38:29Z</time>
      </trkpt>
      <trkpt lat="42.471094" lon="2.419112">
        <ele>2293.063</ele>
        <time>2021-05-28T13:38:30Z</time>
      </trkpt>
      <trkpt lat="42.471102" lon="2.419089">
        <ele>2292.818</ele>
        <time>2021-05-28T13:38:31Z</time>
      </trkpt>
      <trkpt lat="42.471110" lon="2.419065">
        <ele>2292.698</ele>
        <time>2021-05-28T13:38:32Z</time>
      </trkpt>
      <trkpt lat="42.471118" lon="2.419040">
        <ele>2292.517</ele>
        <time>2021-05-28T13:38:33Z</time>
      </trkpt>
      <trkpt lat="42.471141" lon="2.418999">
        <ele>2292.108</ele>
        <time>2021-05-28T13:38:35Z</time>
      </trkpt>
      <trkpt lat="42.471164" lon="2.418963">
        <ele>2291.758</ele>
        <time>2021-05-28T13:38:38Z</time>
      </trkpt>
      <trkpt lat="42.471177" lon="2.418945">
        <ele>2291.525</ele>
        <time>2021-05-28T13:38:39Z</time>
      </trkpt>
      <trkpt lat="42.471195" lon="2.418900">
        <ele>2291.136</ele>
        <time>2021-05-28T13:38:40Z</time>
      </trkpt>
      <trkpt lat="42.471209" lon="2.418857">
        <ele>2290.925</ele>
        <time>2021-05-28T13:38:42Z</time>
      </trkpt>
      <trkpt lat="42.471218" lon="2.418812">
        <ele>2290.772</ele>
        <time>2021-05-28T13:38:44Z</time>
      </trkpt>
      <trkpt lat="42.471227" lon="2.418766">
        <ele>2290.517</ele>
        <time>2021-05-28T13:38:46Z</time>
      </trkpt>
      <trkpt lat="42.471232" lon="2.418727">
        <ele>2290.464</ele>
        <time>2021-05-28T13:38:48Z</time>
      </trkpt>
      <trkpt lat="42.471235" lon="2.418681">
        <ele>2290.232</ele>
        <time>2021-05-28T13:38:50Z</time>
      </trkpt>
      <trkpt lat="42.471244" lon="2.418637">
        <ele>2290.186</ele>
        <time>2021-05-28T13:38:52Z</time>
      </trkpt>
      <trkpt lat="42.471259" lon="2.418607">
        <ele>2289.960</ele>
        <time>2021-05-28T13:38:54Z</time>
      </trkpt>
      <trkpt lat="42.471274" lon="2.418571">
        <ele>2289.726</ele>
        <time>2021-05-28T13:38:56Z</time>
      </trkpt>
      <trkpt lat="42.471283" lon="2.418529">
        <ele>2289.508</ele>
        <time>2021-05-28T13:38:58Z</time>
      </trkpt>
      <trkpt lat="42.471297" lon="2.418491">
        <ele>2289.215</ele>
        <time>2021-05-28T13:39:00Z</time>
      </trkpt>
      <trkpt lat="42.471311" lon="2.418451">
        <ele>2289.092</ele>
        <time>2021-05-28T13:39:02Z</time>
      </trkpt>
      <trkpt lat="42.471318" lon="2.418428">
        <ele>2288.923</ele>
        <time>2021-05-28T13:39:03Z</time>
      </trkpt>
      <trkpt lat="42.471328" lon="2.418383">
        <ele>2288.642</ele>
        <time>2021-05-28T13:39:05Z</time>
      </trkpt>
      <trkpt lat="42.471347" lon="2.418349">
        <ele>2288.499</ele>
        <time>2021-05-28T13:39:07Z</time>
      </trkpt>
      <trkpt lat="42.471364" lon="2.418314">
        <ele>2288.134</ele>
        <time>2021-05-28T13:39:09Z</time>
      </trkpt>
      <trkpt lat="42.471380" lon="2.418273">
        <ele>2287.991</ele>
        <time>2021-05-28T13:39:11Z</time>
      </trkpt>
      <trkpt lat="42.471390" lon="2.418252">
        <ele>2287.719</ele>
        <time>2021-05-28T13:39:12Z</time>
      </trkpt>
      <trkpt lat="42.471408" lon="2.418206">
        <ele>2287.477</ele>
        <time>2021-05-28T13:39:14Z</time>
      </trkpt>
      <trkpt lat="42.471415" lon="2.418183">
        <ele>2287.361</ele>
        <time>2021-05-28T13:39:15Z</time>
      </trkpt>
      <trkpt lat="42.471427" lon="2.418139">
        <ele>2287.027</ele>
        <time>2021-05-28T13:39:17Z</time>
      </trkpt>
      <trkpt lat="42.471440" lon="2.418104">
        <ele>2286.808</ele>
        <time>2021-05-28T13:39:19Z</time>
      </trkpt>
      <trkpt lat="42.471452" lon="2.418067">
        <ele>2286.614</ele>
        <time>2021-05-28T13:39:22Z</time>
      </trkpt>
      <trkpt lat="42.471466" lon="2.418037">
        <ele>2286.471</ele>
        <time>2021-05-28T13:39:24Z</time>
      </trkpt>
      <trkpt lat="42.471482" lon="2.418010">
        <ele>2286.332</ele>
        <time>2021-05-28T13:39:25Z</time>
      </trkpt>
      <trkpt lat="42.471491" lon="2.417979">
        <ele>2286.241</ele>
        <time>2021-05-28T13:39:28Z</time>
      </trkpt>
      <trkpt lat="42.471505" lon="2.417964">
        <ele>2286.028</ele>
        <time>2021-05-28T13:39:46Z</time>
      </trkpt>
      <trkpt lat="42.471522" lon="2.417952">
        <ele>2285.933</ele>
        <time>2021-05-28T13:39:49Z</time>
      </trkpt>
      <trkpt lat="42.471543" lon="2.417947">
        <ele>2285.710</ele>
        <time>2021-05-28T13:41:34Z</time>
      </trkpt>
      <trkpt lat="42.471555" lon="2.417929">
        <ele>2285.578</ele>
        <time>2021-05-28T13:41:36Z</time>
      </trkpt>
      <trkpt lat="42.471564" lon="2.417906">
        <ele>2285.493</ele>
        <time>2021-05-28T13:41:38Z</time>
      </trkpt>
      <trkpt lat="42.471588" lon="2.417888">
        <ele>2285.165</ele>
        <time>2021-05-28T13:41:41Z</time>
      </trkpt>
      <trkpt lat="42.471607" lon="2.417883">
        <ele>2284.921</ele>
        <time>2021-05-28T13:41:44Z</time>
      </trkpt>
      <trkpt lat="42.471629" lon="2.417874">
        <ele>2284.708</ele>
        <time>2021-05-28T13:41:46Z</time>
      </trkpt>
      <trkpt lat="42.471650" lon="2.417850">
        <ele>2284.476</ele>
        <time>2021-05-28T13:41:54Z</time>
      </trkpt>
      <trkpt lat="42.471679" lon="2.417826">
        <ele>2284.153</ele>
        <time>2021-05-28T13:41:56Z</time>
      </trkpt>
      <trkpt lat="42.471709" lon="2.417798">
        <ele>2283.854</ele>
        <time>2021-05-28T13:41:57Z</time>
      </trkpt>
      <trkpt lat="42.471725" lon="2.417783">
        <ele>2283.613</ele>
        <time>2021-05-28T13:41:59Z</time>
      </trkpt>
      <trkpt lat="42.471739" lon="2.417763">
        <ele>2283.530</ele>
        <time>2021-05-28T13:42:00Z</time>
      </trkpt>
      <trkpt lat="42.471767" lon="2.417729">
        <ele>2283.265</ele>
        <time>2021-05-28T13:42:01Z</time>
      </trkpt>
      <trkpt lat="42.471782" lon="2.417714">
        <ele>2283.112</ele>
        <time>2021-05-28T13:42:02Z</time>
      </trkpt>
      <trkpt lat="42.471799" lon="2.417697">
        <ele>2282.970</ele>
        <time>2021-05-28T13:42:03Z</time>
      </trkpt>
      <trkpt lat="42.471832" lon="2.417666">
        <ele>2282.629</ele>
        <time>2021-05-28T13:42:05Z</time>
      </trkpt>
      <trkpt lat="42.471846" lon="2.417651">
        <ele>2282.400</ele>
        <time>2021-05-28T13:42:06Z</time>
      </trkpt>
      <trkpt lat="42.471875" lon="2.417620">
        <ele>2282.120</ele>
        <time>2021-05-28T13:42:08Z</time>
      </trkpt>
      <trkpt lat="42.471901" lon="2.417589">
        <ele>2281.708</ele>
        <time>2021-05-28T13:42:10Z</time>
      </trkpt>
      <trkpt lat="42.471929" lon="2.417562">
        <ele>2281.469</ele>
        <time>2021-05-28T13:42:12Z</time>
      </trkpt>
      <trkpt lat="42.471946" lon="2.417546">
        <ele>2281.226</ele>
        <time>2021-05-28T13:42:14Z</time>
      </trkpt>
      <trkpt lat="42.471973" lon="2.417518">
        <ele>2281.097</ele>
        <time>2021-05-28T13:42:16Z</time>
      </trkpt>
      <trkpt lat="42.472002" lon="2.417493">
        <ele>2280.836</ele>
        <time>2021-05-28T13:42:17Z</time>
      </trkpt>
      <trkpt lat="42.472028" lon="2.417464">
        <ele>2280.753</ele>
        <time>2021-05-28T13:42:19Z</time>
      </trkpt>
      <trkpt lat="42.472042" lon="2.417446">
        <ele>2280.698</ele>
        <time>2021-05-28T13:42:20Z</time>
      </trkpt>
      <trkpt lat="42.472055" lon="2.417427">
        <ele>2280.585</ele>
        <time>2021-05-28T13:42:21Z</time>
      </trkpt>
      <trkpt lat="42.472071" lon="2.417410">
        <ele>2280.493</ele>
        <time>2021-05-28T13:42:22Z</time>
      </trkpt>
      <trkpt lat="42.472102" lon="2.417373">
        <ele>2280.218</ele>
        <time>2021-05-28T13:42:24Z</time>
      </trkpt>
      <trkpt lat="42.472130" lon="2.417350">
        <ele>2280.098</ele>
        <time>2021-05-28T13:42:27Z</time>
      </trkpt>
      <trkpt lat="42.472159" lon="2.417328">
        <ele>2279.717</ele>
        <time>2021-05-28T13:42:29Z</time>
      </trkpt>
      <trkpt lat="42.472184" lon="2.417299">
        <ele>2279.508</ele>
        <time>2021-05-28T13:42:31Z</time>
      </trkpt>
      <trkpt lat="42.472222" lon="2.417277">
        <ele>2279.238</ele>
        <time>2021-05-28T13:42:32Z</time>
      </trkpt>
      <trkpt lat="42.472240" lon="2.417268">
        <ele>2279.065</ele>
        <time>2021-05-28T13:42:33Z</time>
      </trkpt>
      <trkpt lat="42.472271" lon="2.417240">
        <ele>2278.776</ele>
        <time>2021-05-28T13:42:36Z</time>
      </trkpt>
      <trkpt lat="42.472302" lon="2.417223">
        <ele>2278.495</ele>
        <time>2021-05-28T13:42:38Z</time>
      </trkpt>
      <trkpt lat="42.472330" lon="2.417175">
        <ele>2278.222</ele>
        <time>2021-05-28T13:42:40Z</time>
      </trkpt>
      <trkpt lat="42.472340" lon="2.417154">
        <ele>2278.017</ele>
        <time>2021-05-28T13:42:42Z</time>
      </trkpt>
      <trkpt lat="42.472367" lon="2.417117">
        <ele>2277.894</ele>
        <time>2021-05-28T13:42:43Z</time>
      </trkpt>
      <trkpt lat="42.472393" lon="2.417093">
        <ele>2277.532</ele>
        <time>2021-05-28T13:42:45Z</time>
      </trkpt>
      <trkpt lat="42.472407" lon="2.417074">
        <ele>2277.362</ele>
        <time>2021-05-28T13:42:47Z</time>
      </trkpt>
      <trkpt lat="42.472423" lon="2.417052">
        <ele>2277.183</ele>
        <time>2021-05-28T13:42:49Z</time>
      </trkpt>
      <trkpt lat="42.472442" lon="2.417026">
        <ele>2276.911</ele>
        <time>2021-05-28T13:42:51Z</time>
      </trkpt>
      <trkpt lat="42.472458" lon="2.416996">
        <ele>2276.608</ele>
        <time>2021-05-28T13:42:53Z</time>
      </trkpt>
      <trkpt lat="42.472472" lon="2.416968">
        <ele>2276.413</ele>
        <time>2021-05-28T13:42:55Z</time>
      </trkpt>
      <trkpt lat="42.472487" lon="2.416942">
        <ele>2276.280</ele>
        <time>2021-05-28T13:42:57Z</time>
      </trkpt>
      <trkpt lat="42.472502" lon="2.416916">
        <ele>2276.251</ele>
        <time>2021-05-28T13:42:59Z</time>
      </trkpt>
      <trkpt lat="42.472518" lon="2.416889">
        <ele>2276.370</ele>
        <time>2021-05-28T13:43:02Z</time>
      </trkpt>
      <trkpt lat="42.472537" lon="2.416858">
        <ele>2276.377</ele>
        <time>2021-05-28T13:43:04Z</time>
      </trkpt>
      <trkpt lat="42.472570" lon="2.416803">
        <ele>2276.472</ele>
        <time>2021-05-28T13:43:06Z</time>
      </trkpt>
      <trkpt lat="42.472582" lon="2.416780">
        <ele>2276.419</ele>
        <time>2021-05-28T13:43:07Z</time>
      </trkpt>
      <trkpt lat="42.472595" lon="2.416760">
        <ele>2276.417</ele>
        <time>2021-05-28T13:43:08Z</time>
      </trkpt>
      <trkpt lat="42.472611" lon="2.416739">
        <ele>2276.436</ele>
        <time>2021-05-28T13:43:09Z</time>
      </trkpt>
      <trkpt lat="42.472626" lon="2.416717">
        <ele>2276.417</ele>
        <time>2021-05-28T13:43:10Z</time>
      </trkpt>
      <trkpt lat="42.472651" lon="2.416683">
        <ele>2276.318</ele>
        <time>2021-05-28T13:43:13Z</time>
      </trkpt>
      <trkpt lat="42.472665" lon="2.416668">
        <ele>2276.208</ele>
        <time>2021-05-28T13:43:14Z</time>
      </trkpt>
      <trkpt lat="42.472679" lon="2.416649">
        <ele>2276.290</ele>
        <time>2021-05-28T13:43:15Z</time>
      </trkpt>
      <trkpt lat="42.472704" lon="2.416606">
        <ele>2276.217</ele>
        <time>2021-05-28T13:43:16Z</time>
      </trkpt>
      <trkpt lat="42.472716" lon="2.416582">
        <ele>2276.228</ele>
        <time>2021-05-28T13:43:17Z</time>
      </trkpt>
      <trkpt lat="42.472725" lon="2.416555">
        <ele>2276.367</ele>
        <time>2021-05-28T13:43:18Z</time>
      </trkpt>
      <trkpt lat="42.472738" lon="2.416532">
        <ele>2276.374</ele>
        <time>2021-05-28T13:43:20Z</time>
      </trkpt>
      <trkpt lat="42.472751" lon="2.416512">
        <ele>2276.329</ele>
        <time>2021-05-28T13:43:21Z</time>
      </trkpt>
      <trkpt lat="42.472775" lon="2.416473">
        <ele>2276.486</ele>
        <time>2021-05-28T13:43:22Z</time>
      </trkpt>
      <trkpt lat="42.472788" lon="2.416453">
        <ele>2276.454</ele>
        <time>2021-05-28T13:43:23Z</time>
      </trkpt>
      <trkpt lat="42.472802" lon="2.416430">
        <ele>2276.567</ele>
        <time>2021-05-28T13:43:24Z</time>
      </trkpt>
      <trkpt lat="42.472816" lon="2.416407">
        <ele>2276.581</ele>
        <time>2021-05-28T13:43:25Z</time>
      </trkpt>
      <trkpt lat="42.472829" lon="2.416382">
        <ele>2276.519</ele>
        <time>2021-05-28T13:43:26Z</time>
      </trkpt>
      <trkpt lat="42.472841" lon="2.416363">
        <ele>2276.408</ele>
        <time>2021-05-28T13:43:27Z</time>
      </trkpt>
      <trkpt lat="42.472867" lon="2.416322">
        <ele>2276.333</ele>
        <time>2021-05-28T13:43:29Z</time>
      </trkpt>
      <trkpt lat="42.472877" lon="2.416298">
        <ele>2276.350</ele>
        <time>2021-05-28T13:43:30Z</time>
      </trkpt>
      <trkpt lat="42.472885" lon="2.416268">
        <ele>2276.321</ele>
        <time>2021-05-28T13:43:31Z</time>
      </trkpt>
      <trkpt lat="42.472891" lon="2.416237">
        <ele>2276.380</ele>
        <time>2021-05-28T13:43:32Z</time>
      </trkpt>
      <trkpt lat="42.472899" lon="2.416205">
        <ele>2276.477</ele>
        <time>2021-05-28T13:43:33Z</time>
      </trkpt>
      <trkpt lat="42.472907" lon="2.416179">
        <ele>2276.432</ele>
        <time>2021-05-28T13:43:34Z</time>
      </trkpt>
      <trkpt lat="42.472918" lon="2.416157">
        <ele>2276.319</ele>
        <time>2021-05-28T13:43:35Z</time>
      </trkpt>
      <trkpt lat="42.472930" lon="2.416133">
        <ele>2276.327</ele>
        <time>2021-05-28T13:43:36Z</time>
      </trkpt>
      <trkpt lat="42.472940" lon="2.416105">
        <ele>2276.337</ele>
        <time>2021-05-28T13:43:37Z</time>
      </trkpt>
      <trkpt lat="42.472958" lon="2.416058">
        <ele>2276.249</ele>
        <time>2021-05-28T13:43:39Z</time>
      </trkpt>
      <trkpt lat="42.472987" lon="2.416017">
        <ele>2276.113</ele>
        <time>2021-05-28T13:43:41Z</time>
      </trkpt>
      <trkpt lat="42.473001" lon="2.416000">
        <ele>2276.008</ele>
        <time>2021-05-28T13:43:42Z</time>
      </trkpt>
      <trkpt lat="42.473033" lon="2.415968">
        <ele>2275.820</ele>
        <time>2021-05-28T13:43:44Z</time>
      </trkpt>
      <trkpt lat="42.473071" lon="2.415942">
        <ele>2275.527</ele>
        <time>2021-05-28T13:43:46Z</time>
      </trkpt>
      <trkpt lat="42.473090" lon="2.415933">
        <ele>2275.318</ele>
        <time>2021-05-28T13:43:47Z</time>
      </trkpt>
      <trkpt lat="42.473109" lon="2.415924">
        <ele>2275.247</ele>
        <time>2021-05-28T13:43:49Z</time>
      </trkpt>
      <trkpt lat="42.473160" lon="2.415897">
        <ele>2274.994</ele>
        <time>2021-05-28T13:43:51Z</time>
      </trkpt>
      <trkpt lat="42.473180" lon="2.415887">
        <ele>2274.899</ele>
        <time>2021-05-28T13:43:52Z</time>
      </trkpt>
      <trkpt lat="42.473198" lon="2.415874">
        <ele>2274.846</ele>
        <time>2021-05-28T13:43:53Z</time>
      </trkpt>
      <trkpt lat="42.473216" lon="2.415862">
        <ele>2274.754</ele>
        <time>2021-05-28T13:43:54Z</time>
      </trkpt>
      <trkpt lat="42.473228" lon="2.415843">
        <ele>2274.717</ele>
        <time>2021-05-28T13:43:55Z</time>
      </trkpt>
      <trkpt lat="42.473243" lon="2.415825">
        <ele>2274.787</ele>
        <time>2021-05-28T13:43:56Z</time>
      </trkpt>
      <trkpt lat="42.473272" lon="2.415788">
        <ele>2274.615</ele>
        <time>2021-05-28T13:43:58Z</time>
      </trkpt>
      <trkpt lat="42.473287" lon="2.415771">
        <ele>2274.608</ele>
        <time>2021-05-28T13:43:59Z</time>
      </trkpt>
      <trkpt lat="42.473300" lon="2.415753">
        <ele>2274.678</ele>
        <time>2021-05-28T13:44:00Z</time>
      </trkpt>
      <trkpt lat="42.473316" lon="2.415736">
        <ele>2274.555</ele>
        <time>2021-05-28T13:44:01Z</time>
      </trkpt>
      <trkpt lat="42.473332" lon="2.415720">
        <ele>2274.426</ele>
        <time>2021-05-28T13:44:02Z</time>
      </trkpt>
      <trkpt lat="42.473347" lon="2.415704">
        <ele>2274.355</ele>
        <time>2021-05-28T13:44:03Z</time>
      </trkpt>
      <trkpt lat="42.473364" lon="2.415686">
        <ele>2274.232</ele>
        <time>2021-05-28T13:44:04Z</time>
      </trkpt>
      <trkpt lat="42.473392" lon="2.415648">
        <ele>2274.077</ele>
        <time>2021-05-28T13:44:06Z</time>
      </trkpt>
      <trkpt lat="42.473415" lon="2.415612">
        <ele>2273.984</ele>
        <time>2021-05-28T13:44:08Z</time>
      </trkpt>
      <trkpt lat="42.473433" lon="2.415593">
        <ele>2273.872</ele>
        <time>2021-05-28T13:44:09Z</time>
      </trkpt>
      <trkpt lat="42.473448" lon="2.415575">
        <ele>2273.739</ele>
        <time>2021-05-28T13:44:10Z</time>
      </trkpt>
      <trkpt lat="42.473466" lon="2.415562">
        <ele>2273.501</ele>
        <time>2021-05-28T13:44:11Z</time>
      </trkpt>
      <trkpt lat="42.473485" lon="2.415550">
        <ele>2273.421</ele>
        <time>2021-05-28T13:44:12Z</time>
      </trkpt>
      <trkpt lat="42.473565" lon="2.415485">
        <ele>2272.808</ele>
        <time>2021-05-28T13:44:19Z</time>
      </trkpt>
      <trkpt lat="42.473614" lon="2.415442">
        <ele>2272.430</ele>
        <time>2021-05-28T13:44:21Z</time>
      </trkpt>
      <trkpt lat="42.473630" lon="2.415422">
        <ele>2272.367</ele>
        <time>2021-05-28T13:44:22Z</time>
      </trkpt>
      <trkpt lat="42.473646" lon="2.415406">
        <ele>2272.258</ele>
        <time>2021-05-28T13:44:23Z</time>
      </trkpt>
      <trkpt lat="42.473662" lon="2.415389">
        <ele>2272.287</ele>
        <time>2021-05-28T13:44:24Z</time>
      </trkpt>
      <trkpt lat="42.473677" lon="2.415373">
        <ele>2272.184</ele>
        <time>2021-05-28T13:44:25Z</time>
      </trkpt>
      <trkpt lat="42.473691" lon="2.415356">
        <ele>2272.159</ele>
        <time>2021-05-28T13:44:26Z</time>
      </trkpt>
      <trkpt lat="42.473706" lon="2.415335">
        <ele>2272.086</ele>
        <time>2021-05-28T13:44:27Z</time>
      </trkpt>
      <trkpt lat="42.473721" lon="2.415318">
        <ele>2272.074</ele>
        <time>2021-05-28T13:44:28Z</time>
      </trkpt>
      <trkpt lat="42.473735" lon="2.415298">
        <ele>2272.016</ele>
        <time>2021-05-28T13:44:29Z</time>
      </trkpt>
      <trkpt lat="42.473746" lon="2.415279">
        <ele>2272.076</ele>
        <time>2021-05-28T13:44:30Z</time>
      </trkpt>
      <trkpt lat="42.473757" lon="2.415258">
        <ele>2272.113</ele>
        <time>2021-05-28T13:44:31Z</time>
      </trkpt>
      <trkpt lat="42.473782" lon="2.415225">
        <ele>2272.008</ele>
        <time>2021-05-28T13:44:33Z</time>
      </trkpt>
      <trkpt lat="42.473805" lon="2.415197">
        <ele>2272.098</ele>
        <time>2021-05-28T13:44:35Z</time>
      </trkpt>
      <trkpt lat="42.473816" lon="2.415177">
        <ele>2272.015</ele>
        <time>2021-05-28T13:44:37Z</time>
      </trkpt>
      <trkpt lat="42.473829" lon="2.415158">
        <ele>2272.026</ele>
        <time>2021-05-28T13:44:38Z</time>
      </trkpt>
      <trkpt lat="42.473854" lon="2.415119">
        <ele>2271.955</ele>
        <time>2021-05-28T13:44:39Z</time>
      </trkpt>
      <trkpt lat="42.473866" lon="2.415098">
        <ele>2271.982</ele>
        <time>2021-05-28T13:44:40Z</time>
      </trkpt>
      <trkpt lat="42.473878" lon="2.415080">
        <ele>2271.897</ele>
        <time>2021-05-28T13:44:41Z</time>
      </trkpt>
      <trkpt lat="42.473891" lon="2.415059">
        <ele>2271.894</ele>
        <time>2021-05-28T13:44:42Z</time>
      </trkpt>
      <trkpt lat="42.473910" lon="2.415017">
        <ele>2271.762</ele>
        <time>2021-05-28T13:44:44Z</time>
      </trkpt>
      <trkpt lat="42.473929" lon="2.414976">
        <ele>2271.745</ele>
        <time>2021-05-28T13:44:46Z</time>
      </trkpt>
      <trkpt lat="42.473944" lon="2.414929">
        <ele>2271.747</ele>
        <time>2021-05-28T13:44:48Z</time>
      </trkpt>
      <trkpt lat="42.473949" lon="2.414905">
        <ele>2271.711</ele>
        <time>2021-05-28T13:44:49Z</time>
      </trkpt>
      <trkpt lat="42.473952" lon="2.414880">
        <ele>2271.808</ele>
        <time>2021-05-28T13:44:50Z</time>
      </trkpt>
      <trkpt lat="42.473964" lon="2.414836">
        <ele>2271.841</ele>
        <time>2021-05-28T13:44:52Z</time>
      </trkpt>
      <trkpt lat="42.473974" lon="2.414816">
        <ele>2271.788</ele>
        <time>2021-05-28T13:44:53Z</time>
      </trkpt>
      <trkpt lat="42.473991" lon="2.414772">
        <ele>2271.759</ele>
        <time>2021-05-28T13:44:56Z</time>
      </trkpt>
      <trkpt lat="42.473999" lon="2.414749">
        <ele>2271.798</ele>
        <time>2021-05-28T13:44:57Z</time>
      </trkpt>
      <trkpt lat="42.474017" lon="2.414708">
        <ele>2271.685</ele>
        <time>2021-05-28T13:44:58Z</time>
      </trkpt>
      <trkpt lat="42.474036" lon="2.414667">
        <ele>2271.550</ele>
        <time>2021-05-28T13:45:00Z</time>
      </trkpt>
      <trkpt lat="42.474059" lon="2.414627">
        <ele>2271.497</ele>
        <time>2021-05-28T13:45:02Z</time>
      </trkpt>
      <trkpt lat="42.474070" lon="2.414606">
        <ele>2271.375</ele>
        <time>2021-05-28T13:45:04Z</time>
      </trkpt>
      <trkpt lat="42.474083" lon="2.414560">
        <ele>2271.348</ele>
        <time>2021-05-28T13:45:06Z</time>
      </trkpt>
      <trkpt lat="42.474089" lon="2.414537">
        <ele>2271.361</ele>
        <time>2021-05-28T13:45:07Z</time>
      </trkpt>
      <trkpt lat="42.474097" lon="2.414512">
        <ele>2271.317</ele>
        <time>2021-05-28T13:45:08Z</time>
      </trkpt>
      <trkpt lat="42.474109" lon="2.414459">
        <ele>2271.408</ele>
        <time>2021-05-28T13:45:09Z</time>
      </trkpt>
      <trkpt lat="42.474129" lon="2.414420">
        <ele>2271.391</ele>
        <time>2021-05-28T13:45:12Z</time>
      </trkpt>
      <trkpt lat="42.474136" lon="2.414397">
        <ele>2271.268</ele>
        <time>2021-05-28T13:45:13Z</time>
      </trkpt>
      <trkpt lat="42.474148" lon="2.414347">
        <ele>2271.149</ele>
        <time>2021-05-28T13:45:14Z</time>
      </trkpt>
      <trkpt lat="42.474153" lon="2.414323">
        <ele>2271.128</ele>
        <time>2021-05-28T13:45:15Z</time>
      </trkpt>
      <trkpt lat="42.474171" lon="2.414281">
        <ele>2270.935</ele>
        <time>2021-05-28T13:45:17Z</time>
      </trkpt>
      <trkpt lat="42.474182" lon="2.414262">
        <ele>2270.850</ele>
        <time>2021-05-28T13:45:18Z</time>
      </trkpt>
      <trkpt lat="42.474195" lon="2.414245">
        <ele>2270.717</ele>
        <time>2021-05-28T13:45:19Z</time>
      </trkpt>
      <trkpt lat="42.474220" lon="2.414210">
        <ele>2270.415</ele>
        <time>2021-05-28T13:45:21Z</time>
      </trkpt>
      <trkpt lat="42.474235" lon="2.414192">
        <ele>2270.243</ele>
        <time>2021-05-28T13:45:23Z</time>
      </trkpt>
      <trkpt lat="42.474260" lon="2.414154">
        <ele>2270.064</ele>
        <time>2021-05-28T13:45:24Z</time>
      </trkpt>
      <trkpt lat="42.474272" lon="2.414134">
        <ele>2269.910</ele>
        <time>2021-05-28T13:45:26Z</time>
      </trkpt>
      <trkpt lat="42.474288" lon="2.414092">
        <ele>2269.808</ele>
        <time>2021-05-28T13:45:28Z</time>
      </trkpt>
      <trkpt lat="42.474313" lon="2.414057">
        <ele>2269.631</ele>
        <time>2021-05-28T13:45:29Z</time>
      </trkpt>
      <trkpt lat="42.474337" lon="2.414022">
        <ele>2269.588</ele>
        <time>2021-05-28T13:45:32Z</time>
      </trkpt>
      <trkpt lat="42.474349" lon="2.414002">
        <ele>2269.499</ele>
        <time>2021-05-28T13:45:33Z</time>
      </trkpt>
      <trkpt lat="42.474389" lon="2.413949">
        <ele>2269.238</ele>
        <time>2021-05-28T13:45:35Z</time>
      </trkpt>
      <trkpt lat="42.474405" lon="2.413933">
        <ele>2269.135</ele>
        <time>2021-05-28T13:45:36Z</time>
      </trkpt>
      <trkpt lat="42.474418" lon="2.413914">
        <ele>2269.140</ele>
        <time>2021-05-28T13:45:37Z</time>
      </trkpt>
      <trkpt lat="42.474434" lon="2.413899">
        <ele>2269.077</ele>
        <time>2021-05-28T13:45:38Z</time>
      </trkpt>
      <trkpt lat="42.474449" lon="2.413884">
        <ele>2269.015</ele>
        <time>2021-05-28T13:45:39Z</time>
      </trkpt>
      <trkpt lat="42.474471" lon="2.413852">
        <ele>2268.999</ele>
        <time>2021-05-28T13:45:41Z</time>
      </trkpt>
      <trkpt lat="42.474495" lon="2.413822">
        <ele>2268.907</ele>
        <time>2021-05-28T13:45:43Z</time>
      </trkpt>
      <trkpt lat="42.474516" lon="2.413786">
        <ele>2268.827</ele>
        <time>2021-05-28T13:45:45Z</time>
      </trkpt>
      <trkpt lat="42.474531" lon="2.413765">
        <ele>2268.808</ele>
        <time>2021-05-28T13:45:46Z</time>
      </trkpt>
      <trkpt lat="42.474546" lon="2.413751">
        <ele>2268.886</ele>
        <time>2021-05-28T13:45:47Z</time>
      </trkpt>
      <trkpt lat="42.474570" lon="2.413722">
        <ele>2268.853</ele>
        <time>2021-05-28T13:45:49Z</time>
      </trkpt>
      <trkpt lat="42.474600" lon="2.413695">
        <ele>2268.834</ele>
        <time>2021-05-28T13:45:51Z</time>
      </trkpt>
      <trkpt lat="42.474635" lon="2.413642">
        <ele>2268.933</ele>
        <time>2021-05-28T13:45:54Z</time>
      </trkpt>
      <trkpt lat="42.474649" lon="2.413627">
        <ele>2269.050</ele>
        <time>2021-05-28T13:45:55Z</time>
      </trkpt>
      <trkpt lat="42.474678" lon="2.413598">
        <ele>2269.085</ele>
        <time>2021-05-28T13:45:57Z</time>
      </trkpt>
      <trkpt lat="42.474695" lon="2.413584">
        <ele>2269.012</ele>
        <time>2021-05-28T13:45:58Z</time>
      </trkpt>
      <trkpt lat="42.474713" lon="2.413569">
        <ele>2269.030</ele>
        <time>2021-05-28T13:45:59Z</time>
      </trkpt>
      <trkpt lat="42.474728" lon="2.413555">
        <ele>2269.064</ele>
        <time>2021-05-28T13:46:00Z</time>
      </trkpt>
      <trkpt lat="42.474743" lon="2.413539">
        <ele>2269.006</ele>
        <time>2021-05-28T13:46:01Z</time>
      </trkpt>
      <trkpt lat="42.474757" lon="2.413522">
        <ele>2269.016</ele>
        <time>2021-05-28T13:46:02Z</time>
      </trkpt>
      <trkpt lat="42.474770" lon="2.413504">
        <ele>2269.008</ele>
        <time>2021-05-28T13:46:03Z</time>
      </trkpt>
      <trkpt lat="42.474792" lon="2.413472">
        <ele>2269.033</ele>
        <time>2021-05-28T13:46:05Z</time>
      </trkpt>
      <trkpt lat="42.474813" lon="2.413439">
        <ele>2269.020</ele>
        <time>2021-05-28T13:46:07Z</time>
      </trkpt>
      <trkpt lat="42.474835" lon="2.413407">
        <ele>2269.061</ele>
        <time>2021-05-28T13:46:09Z</time>
      </trkpt>
      <trkpt lat="42.474866" lon="2.413381">
        <ele>2269.020</ele>
        <time>2021-05-28T13:46:11Z</time>
      </trkpt>
      <trkpt lat="42.474891" lon="2.413357">
        <ele>2269.087</ele>
        <time>2021-05-28T13:46:14Z</time>
      </trkpt>
      <trkpt lat="42.474920" lon="2.413338">
        <ele>2269.022</ele>
        <time>2021-05-28T13:46:16Z</time>
      </trkpt>
      <trkpt lat="42.474948" lon="2.413309">
        <ele>2268.999</ele>
        <time>2021-05-28T13:46:18Z</time>
      </trkpt>
      <trkpt lat="42.474977" lon="2.413285">
        <ele>2268.827</ele>
        <time>2021-05-28T13:46:19Z</time>
      </trkpt>
      <trkpt lat="42.474993" lon="2.413269">
        <ele>2268.832</ele>
        <time>2021-05-28T13:46:20Z</time>
      </trkpt>
      <trkpt lat="42.475008" lon="2.413254">
        <ele>2268.792</ele>
        <time>2021-05-28T13:46:21Z</time>
      </trkpt>
      <trkpt lat="42.475036" lon="2.413231">
        <ele>2268.811</ele>
        <time>2021-05-28T13:46:23Z</time>
      </trkpt>
      <trkpt lat="42.475053" lon="2.413208">
        <ele>2268.708</ele>
        <time>2021-05-28T13:46:26Z</time>
      </trkpt>
      <trkpt lat="42.475072" lon="2.413183">
        <ele>2268.770</ele>
        <time>2021-05-28T13:46:27Z</time>
      </trkpt>
      <trkpt lat="42.475085" lon="2.413156">
        <ele>2268.737</ele>
        <time>2021-05-28T13:46:30Z</time>
      </trkpt>
      <trkpt lat="42.475097" lon="2.413129">
        <ele>2268.628</ele>
        <time>2021-05-28T13:46:31Z</time>
      </trkpt>
      <trkpt lat="42.475110" lon="2.413097">
        <ele>2268.567</ele>
        <time>2021-05-28T13:46:33Z</time>
      </trkpt>
      <trkpt lat="42.475122" lon="2.413065">
        <ele>2268.564</ele>
        <time>2021-05-28T13:46:35Z</time>
      </trkpt>
      <trkpt lat="42.475127" lon="2.413029">
        <ele>2268.459</ele>
        <time>2021-05-28T13:46:37Z</time>
      </trkpt>
      <trkpt lat="42.475141" lon="2.413003">
        <ele>2268.376</ele>
        <time>2021-05-28T13:46:39Z</time>
      </trkpt>
      <trkpt lat="42.475158" lon="2.412977">
        <ele>2268.384</ele>
        <time>2021-05-28T13:46:41Z</time>
      </trkpt>
      <trkpt lat="42.475170" lon="2.412947">
        <ele>2268.273</ele>
        <time>2021-05-28T13:46:43Z</time>
      </trkpt>
      <trkpt lat="42.475173" lon="2.412915">
        <ele>2268.185</ele>
        <time>2021-05-28T13:46:45Z</time>
      </trkpt>
      <trkpt lat="42.475179" lon="2.412881">
        <ele>2268.013</ele>
        <time>2021-05-28T13:46:47Z</time>
      </trkpt>
      <trkpt lat="42.475187" lon="2.412844">
        <ele>2267.908</ele>
        <time>2021-05-28T13:46:50Z</time>
      </trkpt>
      <trkpt lat="42.475197" lon="2.412811">
        <ele>2267.884</ele>
        <time>2021-05-28T13:46:52Z</time>
      </trkpt>
      <trkpt lat="42.475207" lon="2.412772">
        <ele>2267.721</ele>
        <time>2021-05-28T13:46:53Z</time>
      </trkpt>
      <trkpt lat="42.475222" lon="2.412731">
        <ele>2267.512</ele>
        <time>2021-05-28T13:46:55Z</time>
      </trkpt>
      <trkpt lat="42.475238" lon="2.412688">
        <ele>2267.261</ele>
        <time>2021-05-28T13:46:57Z</time>
      </trkpt>
      <trkpt lat="42.475256" lon="2.412649">
        <ele>2267.028</ele>
        <time>2021-05-28T13:46:59Z</time>
      </trkpt>
      <trkpt lat="42.475274" lon="2.412616">
        <ele>2266.813</ele>
        <time>2021-05-28T13:47:01Z</time>
      </trkpt>
      <trkpt lat="42.475294" lon="2.412593">
        <ele>2266.770</ele>
        <time>2021-05-28T13:47:03Z</time>
      </trkpt>
      <trkpt lat="42.475315" lon="2.412573">
        <ele>2266.788</ele>
        <time>2021-05-28T13:47:05Z</time>
      </trkpt>
      <trkpt lat="42.475334" lon="2.412562">
        <ele>2266.639</ele>
        <time>2021-05-28T13:47:08Z</time>
      </trkpt>
      <trkpt lat="42.475357" lon="2.412550">
        <ele>2266.601</ele>
        <time>2021-05-28T13:47:10Z</time>
      </trkpt>
      <trkpt lat="42.475375" lon="2.412536">
        <ele>2266.621</ele>
        <time>2021-05-28T13:47:11Z</time>
      </trkpt>
      <trkpt lat="42.475394" lon="2.412526">
        <ele>2266.608</ele>
        <time>2021-05-28T13:47:13Z</time>
      </trkpt>
      <trkpt lat="42.475414" lon="2.412510">
        <ele>2266.660</ele>
        <time>2021-05-28T13:47:15Z</time>
      </trkpt>
      <trkpt lat="42.475434" lon="2.412490">
        <ele>2266.527</ele>
        <time>2021-05-28T13:47:17Z</time>
      </trkpt>
      <trkpt lat="42.475453" lon="2.412475">
        <ele>2266.598</ele>
        <time>2021-05-28T13:47:19Z</time>
      </trkpt>
      <trkpt lat="42.475470" lon="2.412464">
        <ele>2266.437</ele>
        <time>2021-05-28T13:47:21Z</time>
      </trkpt>
      <trkpt lat="42.475490" lon="2.412457">
        <ele>2266.544</ele>
        <time>2021-05-28T13:47:24Z</time>
      </trkpt>
      <trkpt lat="42.475509" lon="2.412452">
        <ele>2266.589</ele>
        <time>2021-05-28T13:47:27Z</time>
      </trkpt>
      <trkpt lat="42.475532" lon="2.412433">
        <ele>2266.456</ele>
        <time>2021-05-28T13:47:28Z</time>
      </trkpt>
      <trkpt lat="42.475565" lon="2.412417">
        <ele>2266.314</ele>
        <time>2021-05-28T13:47:30Z</time>
      </trkpt>
      <trkpt lat="42.475598" lon="2.412404">
        <ele>2266.036</ele>
        <time>2021-05-28T13:47:32Z</time>
      </trkpt>
      <trkpt lat="42.475694" lon="2.412351">
        <ele>2264.917</ele>
        <time>2021-05-28T13:47:38Z</time>
      </trkpt>
      <trkpt lat="42.475787" lon="2.412299">
        <ele>2263.918</ele>
        <time>2021-05-28T13:47:43Z</time>
      </trkpt>
      <trkpt lat="42.475865" lon="2.412236">
        <ele>2263.108</ele>
        <time>2021-05-28T13:47:48Z</time>
      </trkpt>
      <trkpt lat="42.475933" lon="2.412190">
        <ele>2262.870</ele>
        <time>2021-05-28T13:47:53Z</time>
      </trkpt>
      <trkpt lat="42.475957" lon="2.412170">
        <ele>2262.747</ele>
        <time>2021-05-28T13:47:55Z</time>
      </trkpt>
      <trkpt lat="42.475982" lon="2.412152">
        <ele>2262.648</ele>
        <time>2021-05-28T13:47:57Z</time>
      </trkpt>
      <trkpt lat="42.476005" lon="2.412139">
        <ele>2262.697</ele>
        <time>2021-05-28T13:47:59Z</time>
      </trkpt>
      <trkpt lat="42.476025" lon="2.412124">
        <ele>2262.524</ele>
        <time>2021-05-28T13:48:01Z</time>
      </trkpt>
      <trkpt lat="42.476046" lon="2.412112">
        <ele>2262.599</ele>
        <time>2021-05-28T13:48:04Z</time>
      </trkpt>
      <trkpt lat="42.476061" lon="2.412093">
        <ele>2262.576</ele>
        <time>2021-05-28T13:48:05Z</time>
      </trkpt>
      <trkpt lat="42.476076" lon="2.412079">
        <ele>2262.464</ele>
        <time>2021-05-28T13:48:07Z</time>
      </trkpt>
      <trkpt lat="42.476068" lon="2.412045">
        <ele>2262.342</ele>
        <time>2021-05-28T13:48:11Z</time>
      </trkpt>
      <trkpt lat="42.476070" lon="2.412010">
        <ele>2262.122</ele>
        <time>2021-05-28T13:48:14Z</time>
      </trkpt>
      <trkpt lat="42.476075" lon="2.411981">
        <ele>2262.014</ele>
        <time>2021-05-28T13:48:16Z</time>
      </trkpt>
      <trkpt lat="42.476080" lon="2.411950">
        <ele>2261.908</ele>
        <time>2021-05-28T13:48:18Z</time>
      </trkpt>
      <trkpt lat="42.476085" lon="2.411918">
        <ele>2261.751</ele>
        <time>2021-05-28T13:48:21Z</time>
      </trkpt>
      <trkpt lat="42.476083" lon="2.411890">
        <ele>2261.528</ele>
        <time>2021-05-28T13:48:23Z</time>
      </trkpt>
      <trkpt lat="42.476085" lon="2.411859">
        <ele>2261.349</ele>
        <time>2021-05-28T13:48:25Z</time>
      </trkpt>
      <trkpt lat="42.476084" lon="2.411825">
        <ele>2261.078</ele>
        <time>2021-05-28T13:48:27Z</time>
      </trkpt>
      <trkpt lat="42.476087" lon="2.411796">
        <ele>2260.835</ele>
        <time>2021-05-28T13:48:29Z</time>
      </trkpt>
      <trkpt lat="42.476087" lon="2.411765">
        <ele>2260.680</ele>
        <time>2021-05-28T13:48:31Z</time>
      </trkpt>
      <trkpt lat="42.476086" lon="2.411730">
        <ele>2260.347</ele>
        <time>2021-05-28T13:48:33Z</time>
      </trkpt>
      <trkpt lat="42.476074" lon="2.411684">
        <ele>2259.965</ele>
        <time>2021-05-28T13:48:35Z</time>
      </trkpt>
      <trkpt lat="42.476067" lon="2.411638">
        <ele>2259.352</ele>
        <time>2021-05-28T13:48:37Z</time>
      </trkpt>
      <trkpt lat="42.476069" lon="2.411595">
        <ele>2258.753</ele>
        <time>2021-05-28T13:48:39Z</time>
      </trkpt>
      <trkpt lat="42.476081" lon="2.411575">
        <ele>2258.508</ele>
        <time>2021-05-28T13:48:40Z</time>
      </trkpt>
      <trkpt lat="42.476094" lon="2.411554">
        <ele>2258.308</ele>
        <time>2021-05-28T13:48:41Z</time>
      </trkpt>
      <trkpt lat="42.476123" lon="2.411516">
        <ele>2257.922</ele>
        <time>2021-05-28T13:48:43Z</time>
      </trkpt>
      <trkpt lat="42.476136" lon="2.411496">
        <ele>2257.779</ele>
        <time>2021-05-28T13:48:44Z</time>
      </trkpt>
      <trkpt lat="42.476147" lon="2.411474">
        <ele>2257.540</ele>
        <time>2021-05-28T13:48:46Z</time>
      </trkpt>
      <trkpt lat="42.476160" lon="2.411434">
        <ele>2257.139</ele>
        <time>2021-05-28T13:48:47Z</time>
      </trkpt>
      <trkpt lat="42.476164" lon="2.411391">
        <ele>2256.676</ele>
        <time>2021-05-28T13:48:49Z</time>
      </trkpt>
      <trkpt lat="42.476177" lon="2.411350">
        <ele>2256.281</ele>
        <time>2021-05-28T13:48:51Z</time>
      </trkpt>
      <trkpt lat="42.476191" lon="2.411334">
        <ele>2256.168</ele>
        <time>2021-05-28T13:48:52Z</time>
      </trkpt>
      <trkpt lat="42.476206" lon="2.411319">
        <ele>2256.016</ele>
        <time>2021-05-28T13:48:53Z</time>
      </trkpt>
      <trkpt lat="42.476220" lon="2.411303">
        <ele>2255.982</ele>
        <time>2021-05-28T13:48:54Z</time>
      </trkpt>
      <trkpt lat="42.476230" lon="2.411283">
        <ele>2255.843</ele>
        <time>2021-05-28T13:48:55Z</time>
      </trkpt>
      <trkpt lat="42.476245" lon="2.411243">
        <ele>2255.317</ele>
        <time>2021-05-28T13:48:57Z</time>
      </trkpt>
      <trkpt lat="42.476254" lon="2.411209">
        <ele>2255.008</ele>
        <time>2021-05-28T13:48:59Z</time>
      </trkpt>
      <trkpt lat="42.476260" lon="2.411164">
        <ele>2254.435</ele>
        <time>2021-05-28T13:49:01Z</time>
      </trkpt>
      <trkpt lat="42.476264" lon="2.411116">
        <ele>2253.762</ele>
        <time>2021-05-28T13:49:03Z</time>
      </trkpt>
      <trkpt lat="42.476267" lon="2.411067">
        <ele>2253.123</ele>
        <time>2021-05-28T13:49:05Z</time>
      </trkpt>
      <trkpt lat="42.476272" lon="2.411042">
        <ele>2252.842</ele>
        <time>2021-05-28T13:49:06Z</time>
      </trkpt>
      <trkpt lat="42.476279" lon="2.411019">
        <ele>2252.629</ele>
        <time>2021-05-28T13:49:07Z</time>
      </trkpt>
      <trkpt lat="42.476292" lon="2.410977">
        <ele>2252.254</ele>
        <time>2021-05-28T13:49:09Z</time>
      </trkpt>
      <trkpt lat="42.476311" lon="2.410941">
        <ele>2251.931</ele>
        <time>2021-05-28T13:49:11Z</time>
      </trkpt>
      <trkpt lat="42.476331" lon="2.410906">
        <ele>2251.679</ele>
        <time>2021-05-28T13:49:13Z</time>
      </trkpt>
      <trkpt lat="42.476345" lon="2.410869">
        <ele>2251.256</ele>
        <time>2021-05-28T13:49:15Z</time>
      </trkpt>
      <trkpt lat="42.476371" lon="2.410838">
        <ele>2250.959</ele>
        <time>2021-05-28T13:49:17Z</time>
      </trkpt>
      <trkpt lat="42.476393" lon="2.410803">
        <ele>2250.614</ele>
        <time>2021-05-28T13:49:19Z</time>
      </trkpt>
      <trkpt lat="42.476412" lon="2.410776">
        <ele>2250.308</ele>
        <time>2021-05-28T13:49:22Z</time>
      </trkpt>
      <trkpt lat="42.476468" lon="2.410732">
        <ele>2250.012</ele>
        <time>2021-05-28T13:49:24Z</time>
      </trkpt>
      <trkpt lat="42.476484" lon="2.410718">
        <ele>2249.949</ele>
        <time>2021-05-28T13:49:25Z</time>
      </trkpt>
      <trkpt lat="42.476500" lon="2.410705">
        <ele>2249.880</ele>
        <time>2021-05-28T13:49:26Z</time>
      </trkpt>
      <trkpt lat="42.476563" lon="2.410601">
        <ele>2248.459</ele>
        <time>2021-05-28T13:49:32Z</time>
      </trkpt>
      <trkpt lat="42.476641" lon="2.410514">
        <ele>2247.436</ele>
        <time>2021-05-28T13:49:40Z</time>
      </trkpt>
      <trkpt lat="42.476659" lon="2.410484">
        <ele>2247.261</ele>
        <time>2021-05-28T13:49:42Z</time>
      </trkpt>
      <trkpt lat="42.476676" lon="2.410425">
        <ele>2246.758</ele>
        <time>2021-05-28T13:49:45Z</time>
      </trkpt>
      <trkpt lat="42.476691" lon="2.410397">
        <ele>2246.536</ele>
        <time>2021-05-28T13:49:46Z</time>
      </trkpt>
      <trkpt lat="42.476711" lon="2.410373">
        <ele>2246.554</ele>
        <time>2021-05-28T13:49:48Z</time>
      </trkpt>
      <trkpt lat="42.476725" lon="2.410348">
        <ele>2246.356</ele>
        <time>2021-05-28T13:49:50Z</time>
      </trkpt>
      <trkpt lat="42.476745" lon="2.410326">
        <ele>2246.311</ele>
        <time>2021-05-28T13:49:52Z</time>
      </trkpt>
      <trkpt lat="42.476764" lon="2.410299">
        <ele>2246.308</ele>
        <time>2021-05-28T13:49:54Z</time>
      </trkpt>
      <trkpt lat="42.476774" lon="2.410260">
        <ele>2245.972</ele>
        <time>2021-05-28T13:49:56Z</time>
      </trkpt>
      <trkpt lat="42.476784" lon="2.410230">
        <ele>2245.789</ele>
        <time>2021-05-28T13:49:59Z</time>
      </trkpt>
      <trkpt lat="42.476792" lon="2.410196">
        <ele>2245.390</ele>
        <time>2021-05-28T13:50:01Z</time>
      </trkpt>
      <trkpt lat="42.476802" lon="2.410169">
        <ele>2245.119</ele>
        <time>2021-05-28T13:50:03Z</time>
      </trkpt>
      <trkpt lat="42.476807" lon="2.410139">
        <ele>2244.866</ele>
        <time>2021-05-28T13:50:05Z</time>
      </trkpt>
      <trkpt lat="42.476823" lon="2.410106">
        <ele>2244.671</ele>
        <time>2021-05-28T13:50:07Z</time>
      </trkpt>
      <trkpt lat="42.476848" lon="2.410070">
        <ele>2244.588</ele>
        <time>2021-05-28T13:50:09Z</time>
      </trkpt>
      <trkpt lat="42.476859" lon="2.410050">
        <ele>2244.496</ele>
        <time>2021-05-28T13:50:10Z</time>
      </trkpt>
      <trkpt lat="42.476872" lon="2.410006">
        <ele>2244.063</ele>
        <time>2021-05-28T13:50:12Z</time>
      </trkpt>
      <trkpt lat="42.476880" lon="2.409982">
        <ele>2243.944</ele>
        <time>2021-05-28T13:50:13Z</time>
      </trkpt>
      <trkpt lat="42.476884" lon="2.409957">
        <ele>2243.618</ele>
        <time>2021-05-28T13:50:14Z</time>
      </trkpt>
      <trkpt lat="42.476893" lon="2.409933">
        <ele>2243.508</ele>
        <time>2021-05-28T13:50:15Z</time>
      </trkpt>
      <trkpt lat="42.476909" lon="2.409892">
        <ele>2243.343</ele>
        <time>2021-05-28T13:50:17Z</time>
      </trkpt>
      <trkpt lat="42.476929" lon="2.409855">
        <ele>2243.260</ele>
        <time>2021-05-28T13:50:19Z</time>
      </trkpt>
      <trkpt lat="42.476950" lon="2.409819">
        <ele>2243.241</ele>
        <time>2021-05-28T13:50:20Z</time>
      </trkpt>
      <trkpt lat="42.476964" lon="2.409773">
        <ele>2242.920</ele>
        <time>2021-05-28T13:50:22Z</time>
      </trkpt>
      <trkpt lat="42.476970" lon="2.409749">
        <ele>2242.867</ele>
        <time>2021-05-28T13:50:23Z</time>
      </trkpt>
      <trkpt lat="42.476977" lon="2.409727">
        <ele>2242.622</ele>
        <time>2021-05-28T13:50:24Z</time>
      </trkpt>
      <trkpt lat="42.476981" lon="2.409702">
        <ele>2242.469</ele>
        <time>2021-05-28T13:50:25Z</time>
      </trkpt>
      <trkpt lat="42.476993" lon="2.409675">
        <ele>2242.267</ele>
        <time>2021-05-28T13:50:28Z</time>
      </trkpt>
      <trkpt lat="42.477007" lon="2.409644">
        <ele>2242.028</ele>
        <time>2021-05-28T13:50:31Z</time>
      </trkpt>
      <trkpt lat="42.477013" lon="2.409613">
        <ele>2241.789</ele>
        <time>2021-05-28T13:50:33Z</time>
      </trkpt>
      <trkpt lat="42.477022" lon="2.409577">
        <ele>2241.317</ele>
        <time>2021-05-28T13:50:34Z</time>
      </trkpt>
      <trkpt lat="42.477035" lon="2.409556">
        <ele>2241.208</ele>
        <time>2021-05-28T13:50:37Z</time>
      </trkpt>
      <trkpt lat="42.477052" lon="2.409536">
        <ele>2241.319</ele>
        <time>2021-05-28T13:50:38Z</time>
      </trkpt>
      <trkpt lat="42.477073" lon="2.409508">
        <ele>2241.266</ele>
        <time>2021-05-28T13:50:41Z</time>
      </trkpt>
      <trkpt lat="42.477087" lon="2.409484">
        <ele>2241.167</ele>
        <time>2021-05-28T13:50:43Z</time>
      </trkpt>
      <trkpt lat="42.477107" lon="2.409468">
        <ele>2241.396</ele>
        <time>2021-05-28T13:50:45Z</time>
      </trkpt>
      <trkpt lat="42.477129" lon="2.409456">
        <ele>2241.543</ele>
        <time>2021-05-28T13:50:47Z</time>
      </trkpt>
      <trkpt lat="42.477145" lon="2.409429">
        <ele>2241.438</ele>
        <time>2021-05-28T13:50:49Z</time>
      </trkpt>
      <trkpt lat="42.477159" lon="2.409402">
        <ele>2241.275</ele>
        <time>2021-05-28T13:50:51Z</time>
      </trkpt>
      <trkpt lat="42.477182" lon="2.409370">
        <ele>2241.293</ele>
        <time>2021-05-28T13:50:53Z</time>
      </trkpt>
      <trkpt lat="42.477211" lon="2.409347">
        <ele>2241.435</ele>
        <time>2021-05-28T13:50:55Z</time>
      </trkpt>
      <trkpt lat="42.477257" lon="2.409334">
        <ele>2242.286</ele>
        <time>2021-05-28T13:50:57Z</time>
      </trkpt>
      <trkpt lat="42.477280" lon="2.409326">
        <ele>2242.714</ele>
        <time>2021-05-28T13:50:59Z</time>
      </trkpt>
      <trkpt lat="42.477304" lon="2.409317">
        <ele>2243.108</ele>
        <time>2021-05-28T13:51:00Z</time>
      </trkpt>
      <trkpt lat="42.477376" lon="2.409249">
        <ele>2243.770</ele>
        <time>2021-05-28T13:51:06Z</time>
      </trkpt>
      <trkpt lat="42.477393" lon="2.409223">
        <ele>2243.617</ele>
        <time>2021-05-28T13:51:08Z</time>
      </trkpt>
      <trkpt lat="42.477415" lon="2.409202">
        <ele>2243.838</ele>
        <time>2021-05-28T13:51:10Z</time>
      </trkpt>
      <trkpt lat="42.477436" lon="2.409176">
        <ele>2243.817</ele>
        <time>2021-05-28T13:51:12Z</time>
      </trkpt>
      <trkpt lat="42.477451" lon="2.409150">
        <ele>2243.694</ele>
        <time>2021-05-28T13:51:14Z</time>
      </trkpt>
      <trkpt lat="42.477465" lon="2.409128">
        <ele>2243.559</ele>
        <time>2021-05-28T13:51:16Z</time>
      </trkpt>
      <trkpt lat="42.477477" lon="2.409104">
        <ele>2243.396</ele>
        <time>2021-05-28T13:51:18Z</time>
      </trkpt>
      <trkpt lat="42.477493" lon="2.409080">
        <ele>2243.354</ele>
        <time>2021-05-28T13:51:20Z</time>
      </trkpt>
      <trkpt lat="42.477508" lon="2.409057">
        <ele>2243.159</ele>
        <time>2021-05-28T13:51:22Z</time>
      </trkpt>
      <trkpt lat="42.477526" lon="2.409031">
        <ele>2242.803</ele>
        <time>2021-05-28T13:51:25Z</time>
      </trkpt>
      <trkpt lat="42.477543" lon="2.409011">
        <ele>2242.723</ele>
        <time>2021-05-28T13:51:27Z</time>
      </trkpt>
      <trkpt lat="42.477560" lon="2.408994">
        <ele>2242.508</ele>
        <time>2021-05-28T13:51:29Z</time>
      </trkpt>
      <trkpt lat="42.477575" lon="2.408965">
        <ele>2242.292</ele>
        <time>2021-05-28T13:51:32Z</time>
      </trkpt>
      <trkpt lat="42.477583" lon="2.408937">
        <ele>2241.839</ele>
        <time>2021-05-28T13:51:35Z</time>
      </trkpt>
      <trkpt lat="42.477596" lon="2.408917">
        <ele>2241.540</ele>
        <time>2021-05-28T13:51:37Z</time>
      </trkpt>
      <trkpt lat="42.477596" lon="2.408888">
        <ele>2241.059</ele>
        <time>2021-05-28T13:51:39Z</time>
      </trkpt>
      <trkpt lat="42.477615" lon="2.408863">
        <ele>2240.456</ele>
        <time>2021-05-28T13:51:41Z</time>
      </trkpt>
      <trkpt lat="42.477629" lon="2.408837">
        <ele>2239.881</ele>
        <time>2021-05-28T13:51:43Z</time>
      </trkpt>
      <trkpt lat="42.477647" lon="2.408814">
        <ele>2239.348</ele>
        <time>2021-05-28T13:51:45Z</time>
      </trkpt>
      <trkpt lat="42.477668" lon="2.408800">
        <ele>2239.186</ele>
        <time>2021-05-28T13:51:47Z</time>
      </trkpt>
      <trkpt lat="42.477694" lon="2.408799">
        <ele>2239.464</ele>
        <time>2021-05-28T13:51:49Z</time>
      </trkpt>
      <trkpt lat="42.477718" lon="2.408811">
        <ele>2240.106</ele>
        <time>2021-05-28T13:51:51Z</time>
      </trkpt>
      <trkpt lat="42.477742" lon="2.408811">
        <ele>2240.316</ele>
        <time>2021-05-28T13:51:54Z</time>
      </trkpt>
      <trkpt lat="42.477761" lon="2.408809">
        <ele>2240.508</ele>
        <time>2021-05-28T13:51:56Z</time>
      </trkpt>
      <trkpt lat="42.477781" lon="2.408804">
        <ele>2240.573</ele>
        <time>2021-05-28T13:51:58Z</time>
      </trkpt>
      <trkpt lat="42.477800" lon="2.408800">
        <ele>2240.360</ele>
        <time>2021-05-28T13:52:00Z</time>
      </trkpt>
      <trkpt lat="42.477827" lon="2.408786">
        <ele>2239.761</ele>
        <time>2021-05-28T13:52:03Z</time>
      </trkpt>
      <trkpt lat="42.477847" lon="2.408786">
        <ele>2239.640</ele>
        <time>2021-05-28T13:52:05Z</time>
      </trkpt>
      <trkpt lat="42.477865" lon="2.408784">
        <ele>2239.497</ele>
        <time>2021-05-28T13:52:07Z</time>
      </trkpt>
      <trkpt lat="42.477884" lon="2.408776">
        <ele>2239.182</ele>
        <time>2021-05-28T13:52:09Z</time>
      </trkpt>
      <trkpt lat="42.477906" lon="2.408761">
        <ele>2238.499</ele>
        <time>2021-05-28T13:52:12Z</time>
      </trkpt>
      <trkpt lat="42.477935" lon="2.408757">
        <ele>2238.167</ele>
        <time>2021-05-28T13:52:14Z</time>
      </trkpt>
      <trkpt lat="42.477955" lon="2.408767">
        <ele>2238.336</ele>
        <time>2021-05-28T13:52:16Z</time>
      </trkpt>
      <trkpt lat="42.477974" lon="2.408765">
        <ele>2238.117</ele>
        <time>2021-05-28T13:52:18Z</time>
      </trkpt>
      <trkpt lat="42.477988" lon="2.408747">
        <ele>2237.418</ele>
        <time>2021-05-28T13:52:21Z</time>
      </trkpt>
      <trkpt lat="42.478002" lon="2.408720">
        <ele>2236.308</ele>
        <time>2021-05-28T13:52:25Z</time>
      </trkpt>
      <trkpt lat="42.478016" lon="2.408692">
        <ele>2235.390</ele>
        <time>2021-05-28T13:52:28Z</time>
      </trkpt>
      <trkpt lat="42.478042" lon="2.408681">
        <ele>2234.637</ele>
        <time>2021-05-28T13:52:31Z</time>
      </trkpt>
      <trkpt lat="42.478062" lon="2.408680">
        <ele>2234.458</ele>
        <time>2021-05-28T13:52:32Z</time>
      </trkpt>
      <trkpt lat="42.478154" lon="2.408680">
        <ele>2233.517</ele>
        <time>2021-05-28T13:52:39Z</time>
      </trkpt>
      <trkpt lat="42.478194" lon="2.408682">
        <ele>2233.264</ele>
        <time>2021-05-28T13:52:43Z</time>
      </trkpt>
      <trkpt lat="42.478212" lon="2.408697">
        <ele>2233.699</ele>
        <time>2021-05-28T13:52:44Z</time>
      </trkpt>
      <trkpt lat="42.478235" lon="2.408706">
        <ele>2233.746</ele>
        <time>2021-05-28T13:52:46Z</time>
      </trkpt>
      <trkpt lat="42.478258" lon="2.408708">
        <ele>2233.634</ele>
        <time>2021-05-28T13:52:49Z</time>
      </trkpt>
      <trkpt lat="42.478264" lon="2.408679">
        <ele>2232.496</ele>
        <time>2021-05-28T13:52:51Z</time>
      </trkpt>
      <trkpt lat="42.478299" lon="2.408605">
        <ele>2229.131</ele>
        <time>2021-05-28T13:53:03Z</time>
      </trkpt>
      <trkpt lat="42.478316" lon="2.408584">
        <ele>2228.124</ele>
        <time>2021-05-28T13:53:06Z</time>
      </trkpt>
      <trkpt lat="42.478326" lon="2.408559">
        <ele>2227.008</ele>
        <time>2021-05-28T13:53:13Z</time>
      </trkpt>
      <trkpt lat="42.478349" lon="2.408560">
        <ele>2226.986</ele>
        <time>2021-05-28T13:53:16Z</time>
      </trkpt>
      <trkpt lat="42.478367" lon="2.408539">
        <ele>2225.933</ele>
        <time>2021-05-28T13:53:22Z</time>
      </trkpt>
      <trkpt lat="42.478385" lon="2.408535">
        <ele>2225.644</ele>
        <time>2021-05-28T13:53:23Z</time>
      </trkpt>
      <trkpt lat="42.478424" lon="2.408533">
        <ele>2225.223</ele>
        <time>2021-05-28T13:53:37Z</time>
      </trkpt>
      <trkpt lat="42.478426" lon="2.408504">
        <ele>2224.030</ele>
        <time>2021-05-28T13:54:16Z</time>
      </trkpt>
      <trkpt lat="42.478433" lon="2.408481">
        <ele>2223.035</ele>
        <time>2021-05-28T13:54:45Z</time>
      </trkpt>
      <trkpt lat="42.478453" lon="2.408477">
        <ele>2222.612</ele>
        <time>2021-05-28T13:54:49Z</time>
      </trkpt>
      <trkpt lat="42.478476" lon="2.408474">
        <ele>2222.330</ele>
        <time>2021-05-28T13:54:53Z</time>
      </trkpt>
      <trkpt lat="42.478495" lon="2.408479">
        <ele>2222.395</ele>
        <time>2021-05-28T13:54:56Z</time>
      </trkpt>
      <trkpt lat="42.478519" lon="2.408485">
        <ele>2222.449</ele>
        <time>2021-05-28T13:55:12Z</time>
      </trkpt>
      <trkpt lat="42.478535" lon="2.408471">
        <ele>2221.623</ele>
        <time>2021-05-28T13:55:15Z</time>
      </trkpt>
      <trkpt lat="42.478558" lon="2.408463">
        <ele>2221.108</ele>
        <time>2021-05-28T13:55:19Z</time>
      </trkpt>
      <trkpt lat="42.478577" lon="2.408466">
        <ele>2221.026</ele>
        <time>2021-05-28T13:55:24Z</time>
      </trkpt>
      <trkpt lat="42.478593" lon="2.408450">
        <ele>2220.223</ele>
        <time>2021-05-28T13:55:28Z</time>
      </trkpt>
      <trkpt lat="42.478612" lon="2.408456">
        <ele>2220.344</ele>
        <time>2021-05-28T13:55:32Z</time>
      </trkpt>
      <trkpt lat="42.478627" lon="2.408437">
        <ele>2219.173</ele>
        <time>2021-05-28T13:55:34Z</time>
      </trkpt>
      <trkpt lat="42.478654" lon="2.408430">
        <ele>2218.250</ele>
        <time>2021-05-28T13:55:40Z</time>
      </trkpt>
      <trkpt lat="42.478676" lon="2.408422">
        <ele>2217.485</ele>
        <time>2021-05-28T13:55:43Z</time>
      </trkpt>
      <trkpt lat="42.478696" lon="2.408407">
        <ele>2216.392</ele>
        <time>2021-05-28T13:55:47Z</time>
      </trkpt>
      <trkpt lat="42.478722" lon="2.408425">
        <ele>2216.450</ele>
        <time>2021-05-28T13:55:50Z</time>
      </trkpt>
      <trkpt lat="42.478741" lon="2.408437">
        <ele>2216.551</ele>
        <time>2021-05-28T13:55:53Z</time>
      </trkpt>
      <trkpt lat="42.478760" lon="2.408438">
        <ele>2216.101</ele>
        <time>2021-05-28T13:55:56Z</time>
      </trkpt>
      <trkpt lat="42.478773" lon="2.408421">
        <ele>2215.111</ele>
        <time>2021-05-28T13:55:58Z</time>
      </trkpt>
      <trkpt lat="42.478783" lon="2.408394">
        <ele>2213.808</ele>
        <time>2021-05-28T13:56:03Z</time>
      </trkpt>
      <trkpt lat="42.478786" lon="2.408367">
        <ele>2212.632</ele>
        <time>2021-05-28T13:56:11Z</time>
      </trkpt>
      <trkpt lat="42.478804" lon="2.408362">
        <ele>2212.029</ele>
        <time>2021-05-28T13:56:15Z</time>
      </trkpt>
      <trkpt lat="42.478824" lon="2.408362">
        <ele>2211.640</ele>
        <time>2021-05-28T13:56:20Z</time>
      </trkpt>
      <trkpt lat="42.478842" lon="2.408372">
        <ele>2211.659</ele>
        <time>2021-05-28T13:56:24Z</time>
      </trkpt>
      <trkpt lat="42.478857" lon="2.408386">
        <ele>2211.846</ele>
        <time>2021-05-28T13:56:26Z</time>
      </trkpt>
      <trkpt lat="42.478906" lon="2.408406">
        <ele>2211.421</ele>
        <time>2021-05-28T13:56:30Z</time>
      </trkpt>
      <trkpt lat="42.478929" lon="2.408397">
        <ele>2210.518</ele>
        <time>2021-05-28T13:56:33Z</time>
      </trkpt>
      <trkpt lat="42.478949" lon="2.408398">
        <ele>2210.056</ele>
        <time>2021-05-28T13:56:35Z</time>
      </trkpt>
      <trkpt lat="42.478976" lon="2.408400">
        <ele>2209.445</ele>
        <time>2021-05-28T13:56:37Z</time>
      </trkpt>
      <trkpt lat="42.478999" lon="2.408402">
        <ele>2208.847</ele>
        <time>2021-05-28T13:56:39Z</time>
      </trkpt>
      <trkpt lat="42.479020" lon="2.408404">
        <ele>2208.411</ele>
        <time>2021-05-28T13:56:41Z</time>
      </trkpt>
      <trkpt lat="42.479042" lon="2.408403">
        <ele>2207.808</ele>
        <time>2021-05-28T13:56:43Z</time>
      </trkpt>
      <trkpt lat="42.479062" lon="2.408405">
        <ele>2207.351</ele>
        <time>2021-05-28T13:56:45Z</time>
      </trkpt>
      <trkpt lat="42.479086" lon="2.408414">
        <ele>2207.058</ele>
        <time>2021-05-28T13:56:47Z</time>
      </trkpt>
      <trkpt lat="42.479108" lon="2.408430">
        <ele>2207.079</ele>
        <time>2021-05-28T13:56:49Z</time>
      </trkpt>
      <trkpt lat="42.479132" lon="2.408443">
        <ele>2206.978</ele>
        <time>2021-05-28T13:56:51Z</time>
      </trkpt>
      <trkpt lat="42.479159" lon="2.408462">
        <ele>2206.895</ele>
        <time>2021-05-28T13:56:53Z</time>
      </trkpt>
      <trkpt lat="42.479181" lon="2.408483">
        <ele>2207.120</ele>
        <time>2021-05-28T13:56:55Z</time>
      </trkpt>
      <trkpt lat="42.479203" lon="2.408495">
        <ele>2207.097</ele>
        <time>2021-05-28T13:56:58Z</time>
      </trkpt>
      <trkpt lat="42.479223" lon="2.408498">
        <ele>2206.685</ele>
        <time>2021-05-28T13:56:59Z</time>
      </trkpt>
      <trkpt lat="42.479245" lon="2.408505">
        <ele>2206.436</ele>
        <time>2021-05-28T13:57:01Z</time>
      </trkpt>
      <trkpt lat="42.479268" lon="2.408512">
        <ele>2206.117</ele>
        <time>2021-05-28T13:57:03Z</time>
      </trkpt>
      <trkpt lat="42.479288" lon="2.408511">
        <ele>2205.618</ele>
        <time>2021-05-28T13:57:05Z</time>
      </trkpt>
      <trkpt lat="42.479309" lon="2.408522">
        <ele>2205.608</ele>
        <time>2021-05-28T13:57:07Z</time>
      </trkpt>
      <trkpt lat="42.479324" lon="2.408557">
        <ele>2206.530</ele>
        <time>2021-05-28T13:57:09Z</time>
      </trkpt>
      <trkpt lat="42.479336" lon="2.408576">
        <ele>2207.077</ele>
        <time>2021-05-28T13:57:11Z</time>
      </trkpt>
      <trkpt lat="42.479357" lon="2.408577">
        <ele>2206.678</ele>
        <time>2021-05-28T13:57:14Z</time>
      </trkpt>
      <trkpt lat="42.479372" lon="2.408561">
        <ele>2205.687</ele>
        <time>2021-05-28T13:57:20Z</time>
      </trkpt>
      <trkpt lat="42.479374" lon="2.408536">
        <ele>2204.614</ele>
        <time>2021-05-28T13:57:46Z</time>
      </trkpt>
      <trkpt lat="42.479433" lon="2.408536">
        <ele>2203.399</ele>
        <time>2021-05-28T13:58:03Z</time>
      </trkpt>
      <trkpt lat="42.479449" lon="2.408549">
        <ele>2203.536</ele>
        <time>2021-05-28T13:58:08Z</time>
      </trkpt>
      <trkpt lat="42.479472" lon="2.408547">
        <ele>2203.094</ele>
        <time>2021-05-28T13:58:11Z</time>
      </trkpt>
      <trkpt lat="42.479498" lon="2.408556">
        <ele>2202.923</ele>
        <time>2021-05-28T13:58:14Z</time>
      </trkpt>
      <trkpt lat="42.479516" lon="2.408555">
        <ele>2202.683</ele>
        <time>2021-05-28T13:58:16Z</time>
      </trkpt>
      <trkpt lat="42.479534" lon="2.408551">
        <ele>2202.111</ele>
        <time>2021-05-28T13:58:18Z</time>
      </trkpt>
      <trkpt lat="42.479554" lon="2.408541">
        <ele>2201.508</ele>
        <time>2021-05-28T13:58:20Z</time>
      </trkpt>
      <trkpt lat="42.479576" lon="2.408535">
        <ele>2200.959</ele>
        <time>2021-05-28T13:58:23Z</time>
      </trkpt>
      <trkpt lat="42.479602" lon="2.408545">
        <ele>2200.896</ele>
        <time>2021-05-28T13:58:26Z</time>
      </trkpt>
      <trkpt lat="42.479618" lon="2.408567">
        <ele>2201.367</ele>
        <time>2021-05-28T13:58:28Z</time>
      </trkpt>
      <trkpt lat="42.479642" lon="2.408551">
        <ele>2200.486</ele>
        <time>2021-05-28T13:58:30Z</time>
      </trkpt>
      <trkpt lat="42.479660" lon="2.408545">
        <ele>2199.913</ele>
        <time>2021-05-28T13:58:32Z</time>
      </trkpt>
      <trkpt lat="42.479679" lon="2.408540">
        <ele>2199.488</ele>
        <time>2021-05-28T13:58:35Z</time>
      </trkpt>
      <trkpt lat="42.479706" lon="2.408546">
        <ele>2199.245</ele>
        <time>2021-05-28T13:58:37Z</time>
      </trkpt>
      <trkpt lat="42.479733" lon="2.408535">
        <ele>2198.513</ele>
        <time>2021-05-28T13:58:38Z</time>
      </trkpt>
      <trkpt lat="42.479749" lon="2.408513">
        <ele>2197.677</ele>
        <time>2021-05-28T13:58:41Z</time>
      </trkpt>
      <trkpt lat="42.479765" lon="2.408493">
        <ele>2196.961</ele>
        <time>2021-05-28T13:58:43Z</time>
      </trkpt>
      <trkpt lat="42.479785" lon="2.408477">
        <ele>2196.227</ele>
        <time>2021-05-28T13:58:45Z</time>
      </trkpt>
      <trkpt lat="42.479805" lon="2.408468">
        <ele>2195.808</ele>
        <time>2021-05-28T13:58:46Z</time>
      </trkpt>
      <trkpt lat="42.479831" lon="2.408473">
        <ele>2195.784</ele>
        <time>2021-05-28T13:58:49Z</time>
      </trkpt>
      <trkpt lat="42.479853" lon="2.408466">
        <ele>2195.431</ele>
        <time>2021-05-28T13:58:52Z</time>
      </trkpt>
      <trkpt lat="42.479874" lon="2.408457">
        <ele>2194.992</ele>
        <time>2021-05-28T13:58:53Z</time>
      </trkpt>
      <trkpt lat="42.479891" lon="2.408466">
        <ele>2195.121</ele>
        <time>2021-05-28T13:58:55Z</time>
      </trkpt>
      <trkpt lat="42.479912" lon="2.408469">
        <ele>2195.018</ele>
        <time>2021-05-28T13:58:58Z</time>
      </trkpt>
      <trkpt lat="42.479931" lon="2.408459">
        <ele>2194.643</ele>
        <time>2021-05-28T13:59:01Z</time>
      </trkpt>
      <trkpt lat="42.479950" lon="2.408438">
        <ele>2193.810</ele>
        <time>2021-05-28T13:59:05Z</time>
      </trkpt>
      <trkpt lat="42.479974" lon="2.408419">
        <ele>2193.028</ele>
        <time>2021-05-28T13:59:08Z</time>
      </trkpt>
      <trkpt lat="42.479990" lon="2.408405">
        <ele>2192.429</ele>
        <time>2021-05-28T13:59:12Z</time>
      </trkpt>
      <trkpt lat="42.480011" lon="2.408403">
        <ele>2192.100</ele>
        <time>2021-05-28T13:59:16Z</time>
      </trkpt>
      <trkpt lat="42.480027" lon="2.408390">
        <ele>2191.420</ele>
        <time>2021-05-28T13:59:20Z</time>
      </trkpt>
      <trkpt lat="42.480050" lon="2.408370">
        <ele>2190.308</ele>
        <time>2021-05-28T13:59:23Z</time>
      </trkpt>
      <trkpt lat="42.480076" lon="2.408375">
        <ele>2190.129</ele>
        <time>2021-05-28T13:59:31Z</time>
      </trkpt>
      <trkpt lat="42.480098" lon="2.408385">
        <ele>2190.016</ele>
        <time>2021-05-28T13:59:34Z</time>
      </trkpt>
      <trkpt lat="42.480117" lon="2.408378">
        <ele>2189.557</ele>
        <time>2021-05-28T13:59:37Z</time>
      </trkpt>
      <trkpt lat="42.480139" lon="2.408386">
        <ele>2189.476</ele>
        <time>2021-05-28T13:59:42Z</time>
      </trkpt>
      <trkpt lat="42.480162" lon="2.408387">
        <ele>2189.053</ele>
        <time>2021-05-28T13:59:45Z</time>
      </trkpt>
      <trkpt lat="42.480178" lon="2.408372">
        <ele>2188.268</ele>
        <time>2021-05-28T13:59:48Z</time>
      </trkpt>
      <trkpt lat="42.480192" lon="2.408357">
        <ele>2187.475</ele>
        <time>2021-05-28T13:59:50Z</time>
      </trkpt>
      <trkpt lat="42.480205" lon="2.408323">
        <ele>2186.083</ele>
        <time>2021-05-28T13:59:53Z</time>
      </trkpt>
      <trkpt lat="42.480220" lon="2.408305">
        <ele>2185.244</ele>
        <time>2021-05-28T13:59:55Z</time>
      </trkpt>
      <trkpt lat="42.480236" lon="2.408287">
        <ele>2184.305</ele>
        <time>2021-05-28T13:59:58Z</time>
      </trkpt>
      <trkpt lat="42.480251" lon="2.408260">
        <ele>2183.315</ele>
        <time>2021-05-28T14:00:01Z</time>
      </trkpt>
      <trkpt lat="42.480269" lon="2.408243">
        <ele>2182.508</ele>
        <time>2021-05-28T14:00:06Z</time>
      </trkpt>
      <trkpt lat="42.480285" lon="2.408226">
        <ele>2181.881</ele>
        <time>2021-05-28T14:00:12Z</time>
      </trkpt>
      <trkpt lat="42.480302" lon="2.408219">
        <ele>2181.418</ele>
        <time>2021-05-28T14:00:16Z</time>
      </trkpt>
      <trkpt lat="42.480319" lon="2.408207">
        <ele>2180.969</ele>
        <time>2021-05-28T14:00:18Z</time>
      </trkpt>
      <trkpt lat="42.480341" lon="2.408194">
        <ele>2180.368</ele>
        <time>2021-05-28T14:00:21Z</time>
      </trkpt>
      <trkpt lat="42.480359" lon="2.408188">
        <ele>2179.995</ele>
        <time>2021-05-28T14:00:23Z</time>
      </trkpt>
      <trkpt lat="42.480378" lon="2.408180">
        <ele>2179.570</ele>
        <time>2021-05-28T14:00:25Z</time>
      </trkpt>
      <trkpt lat="42.480400" lon="2.408167">
        <ele>2178.977</ele>
        <time>2021-05-28T14:00:28Z</time>
      </trkpt>
      <trkpt lat="42.480417" lon="2.408156">
        <ele>2178.475</ele>
        <time>2021-05-28T14:00:30Z</time>
      </trkpt>
      <trkpt lat="42.480441" lon="2.408140">
        <ele>2177.767</ele>
        <time>2021-05-28T14:00:33Z</time>
      </trkpt>
      <trkpt lat="42.480523" lon="2.408083">
        <ele>2175.181</ele>
        <time>2021-05-28T14:00:43Z</time>
      </trkpt>
      <trkpt lat="42.480618" lon="2.408108">
        <ele>2174.719</ele>
        <time>2021-05-28T14:00:50Z</time>
      </trkpt>
      <trkpt lat="42.480681" lon="2.408063">
        <ele>2172.808</ele>
        <time>2021-05-28T14:00:56Z</time>
      </trkpt>
      <trkpt lat="42.480706" lon="2.408041">
        <ele>2171.913</ele>
        <time>2021-05-28T14:00:58Z</time>
      </trkpt>
      <trkpt lat="42.480729" lon="2.408025">
        <ele>2171.210</ele>
        <time>2021-05-28T14:01:00Z</time>
      </trkpt>
      <trkpt lat="42.480750" lon="2.408012">
        <ele>2170.691</ele>
        <time>2021-05-28T14:01:02Z</time>
      </trkpt>
      <trkpt lat="42.480769" lon="2.408004">
        <ele>2170.110</ele>
        <time>2021-05-28T14:01:05Z</time>
      </trkpt>
      <trkpt lat="42.480789" lon="2.408007">
        <ele>2170.037</ele>
        <time>2021-05-28T14:01:07Z</time>
      </trkpt>
      <trkpt lat="42.480809" lon="2.408010">
        <ele>2169.922</ele>
        <time>2021-05-28T14:01:09Z</time>
      </trkpt>
      <trkpt lat="42.480832" lon="2.408000">
        <ele>2169.419</ele>
        <time>2021-05-28T14:01:11Z</time>
      </trkpt>
      <trkpt lat="42.480855" lon="2.407985">
        <ele>2168.797</ele>
        <time>2021-05-28T14:01:14Z</time>
      </trkpt>
      <trkpt lat="42.480879" lon="2.407976">
        <ele>2168.169</ele>
        <time>2021-05-28T14:01:16Z</time>
      </trkpt>
      <trkpt lat="42.480905" lon="2.407960">
        <ele>2167.404</ele>
        <time>2021-05-28T14:01:19Z</time>
      </trkpt>
      <trkpt lat="42.480929" lon="2.407955">
        <ele>2167.024</ele>
        <time>2021-05-28T14:01:21Z</time>
      </trkpt>
      <trkpt lat="42.480957" lon="2.407941">
        <ele>2166.308</ele>
        <time>2021-05-28T14:01:23Z</time>
      </trkpt>
      <trkpt lat="42.481024" lon="2.407966">
        <ele>2166.193</ele>
        <time>2021-05-28T14:01:28Z</time>
      </trkpt>
      <trkpt lat="42.481051" lon="2.407972">
        <ele>2165.990</ele>
        <time>2021-05-28T14:01:30Z</time>
      </trkpt>
      <trkpt lat="42.481080" lon="2.407976">
        <ele>2165.761</ele>
        <time>2021-05-28T14:01:32Z</time>
      </trkpt>
      <trkpt lat="42.481100" lon="2.407977">
        <ele>2165.470</ele>
        <time>2021-05-28T14:01:35Z</time>
      </trkpt>
      <trkpt lat="42.481122" lon="2.407982">
        <ele>2165.177</ele>
        <time>2021-05-28T14:01:40Z</time>
      </trkpt>
      <trkpt lat="42.481214" lon="2.408004">
        <ele>2162.692</ele>
        <time>2021-05-28T14:01:48Z</time>
      </trkpt>
      <trkpt lat="42.481239" lon="2.408034">
        <ele>2162.429</ele>
        <time>2021-05-28T14:01:52Z</time>
      </trkpt>
      <trkpt lat="42.481330" lon="2.408068">
        <ele>2160.067</ele>
        <time>2021-05-28T14:02:02Z</time>
      </trkpt>
      <trkpt lat="42.481432" lon="2.408077">
        <ele>2156.812</ele>
        <time>2021-05-28T14:02:10Z</time>
      </trkpt>
      <trkpt lat="42.481450" lon="2.408081">
        <ele>2156.332</ele>
        <time>2021-05-28T14:02:12Z</time>
      </trkpt>
      <trkpt lat="42.481463" lon="2.408098">
        <ele>2156.005</ele>
        <time>2021-05-28T14:02:14Z</time>
      </trkpt>
      <trkpt lat="42.481479" lon="2.408123">
        <ele>2155.608</ele>
        <time>2021-05-28T14:02:16Z</time>
      </trkpt>
      <trkpt lat="42.481499" lon="2.408152">
        <ele>2155.258</ele>
        <time>2021-05-28T14:02:18Z</time>
      </trkpt>
      <trkpt lat="42.481511" lon="2.408172">
        <ele>2154.965</ele>
        <time>2021-05-28T14:02:20Z</time>
      </trkpt>
      <trkpt lat="42.481530" lon="2.408164">
        <ele>2154.316</ele>
        <time>2021-05-28T14:02:22Z</time>
      </trkpt>
      <trkpt lat="42.481554" lon="2.408109">
        <ele>2153.415</ele>
        <time>2021-05-28T14:02:25Z</time>
      </trkpt>
      <trkpt lat="42.481568" lon="2.408083">
        <ele>2152.942</ele>
        <time>2021-05-28T14:02:27Z</time>
      </trkpt>
      <trkpt lat="42.481582" lon="2.408068">
        <ele>2152.547</ele>
        <time>2021-05-28T14:02:29Z</time>
      </trkpt>
      <trkpt lat="42.481615" lon="2.408027">
        <ele>2151.154</ele>
        <time>2021-05-28T14:02:33Z</time>
      </trkpt>
      <trkpt lat="42.481630" lon="2.408014">
        <ele>2150.452</ele>
        <time>2021-05-28T14:02:34Z</time>
      </trkpt>
      <trkpt lat="42.481718" lon="2.407940">
        <ele>2147.521</ele>
        <time>2021-05-28T14:02:42Z</time>
      </trkpt>
      <trkpt lat="42.481779" lon="2.407931">
        <ele>2146.441</ele>
        <time>2021-05-28T14:02:47Z</time>
      </trkpt>
      <trkpt lat="42.481863" lon="2.407887">
        <ele>2144.305</ele>
        <time>2021-05-28T14:02:55Z</time>
      </trkpt>
      <trkpt lat="42.481861" lon="2.407845">
        <ele>2143.608</ele>
        <time>2021-05-28T14:02:59Z</time>
      </trkpt>
      <trkpt lat="42.481847" lon="2.407830">
        <ele>2143.689</ele>
        <time>2021-05-28T14:03:00Z</time>
      </trkpt>
      <trkpt lat="42.481784" lon="2.407767">
        <ele>2143.776</ele>
        <time>2021-05-28T14:03:06Z</time>
      </trkpt>
      <trkpt lat="42.481767" lon="2.407740">
        <ele>2143.557</ele>
        <time>2021-05-28T14:03:07Z</time>
      </trkpt>
      <trkpt lat="42.481753" lon="2.407709">
        <ele>2143.136</ele>
        <time>2021-05-28T14:03:09Z</time>
      </trkpt>
      <trkpt lat="42.481739" lon="2.407681">
        <ele>2142.943</ele>
        <time>2021-05-28T14:03:11Z</time>
      </trkpt>
      <trkpt lat="42.481735" lon="2.407640">
        <ele>2142.278</ele>
        <time>2021-05-28T14:03:13Z</time>
      </trkpt>
      <trkpt lat="42.481724" lon="2.407609">
        <ele>2141.825</ele>
        <time>2021-05-28T14:03:15Z</time>
      </trkpt>
      <trkpt lat="42.481720" lon="2.407580">
        <ele>2141.313</ele>
        <time>2021-05-28T14:03:17Z</time>
      </trkpt>
      <trkpt lat="42.481715" lon="2.407555">
        <ele>2141.034</ele>
        <time>2021-05-28T14:03:19Z</time>
      </trkpt>
      <trkpt lat="42.481686" lon="2.407428">
        <ele>2138.855</ele>
        <time>2021-05-28T14:03:34Z</time>
      </trkpt>
      <trkpt lat="42.481658" lon="2.407302">
        <ele>2136.210</ele>
        <time>2021-05-28T14:03:44Z</time>
      </trkpt>
      <trkpt lat="42.481747" lon="2.407264">
        <ele>2133.108</ele>
        <time>2021-05-28T14:03:53Z</time>
      </trkpt>
      <trkpt lat="42.481848" lon="2.407292">
        <ele>2131.470</ele>
        <time>2021-05-28T14:04:02Z</time>
      </trkpt>
      <trkpt lat="42.481953" lon="2.407327">
        <ele>2129.777</ele>
        <time>2021-05-28T14:04:09Z</time>
      </trkpt>
      <trkpt lat="42.482049" lon="2.407366">
        <ele>2127.838</ele>
        <time>2021-05-28T14:04:15Z</time>
      </trkpt>
      <trkpt lat="42.482143" lon="2.407350">
        <ele>2124.277</ele>
        <time>2021-05-28T14:04:22Z</time>
      </trkpt>
      <trkpt lat="42.482236" lon="2.407364">
        <ele>2121.784</ele>
        <time>2021-05-28T14:04:33Z</time>
      </trkpt>
      <trkpt lat="42.482262" lon="2.407406">
        <ele>2122.119</ele>
        <time>2021-05-28T14:04:37Z</time>
      </trkpt>
      <trkpt lat="42.482279" lon="2.407424">
        <ele>2122.086</ele>
        <time>2021-05-28T14:04:41Z</time>
      </trkpt>
      <trkpt lat="42.482296" lon="2.407435">
        <ele>2121.844</ele>
        <time>2021-05-28T14:04:44Z</time>
      </trkpt>
      <trkpt lat="42.482316" lon="2.407419">
        <ele>2120.714</ele>
        <time>2021-05-28T14:04:48Z</time>
      </trkpt>
      <trkpt lat="42.482339" lon="2.407403">
        <ele>2119.654</ele>
        <time>2021-05-28T14:04:50Z</time>
      </trkpt>
      <trkpt lat="42.482362" lon="2.407387">
        <ele>2118.409</ele>
        <time>2021-05-28T14:04:52Z</time>
      </trkpt>
      <trkpt lat="42.482436" lon="2.407307">
        <ele>2114.108</ele>
        <time>2021-05-28T14:05:02Z</time>
      </trkpt>
      <trkpt lat="42.482528" lon="2.407353">
        <ele>2112.488</ele>
        <time>2021-05-28T14:05:12Z</time>
      </trkpt>
      <trkpt lat="42.482613" lon="2.407414">
        <ele>2111.185</ele>
        <time>2021-05-28T14:05:22Z</time>
      </trkpt>
      <trkpt lat="42.482650" lon="2.407424">
        <ele>2110.126</ele>
        <time>2021-05-28T14:05:27Z</time>
      </trkpt>
      <trkpt lat="42.482684" lon="2.407434">
        <ele>2109.295</ele>
        <time>2021-05-28T14:05:30Z</time>
      </trkpt>
      <trkpt lat="42.482739" lon="2.407440">
        <ele>2107.472</ele>
        <time>2021-05-28T14:05:37Z</time>
      </trkpt>
      <trkpt lat="42.482757" lon="2.407427">
        <ele>2106.637</ele>
        <time>2021-05-28T14:06:19Z</time>
      </trkpt>
      <trkpt lat="42.482739" lon="2.407423">
        <ele>2107.264</ele>
        <time>2021-05-28T14:07:04Z</time>
      </trkpt>
      <trkpt lat="42.482764" lon="2.407434">
        <ele>2106.542</ele>
        <time>2021-05-28T14:08:17Z</time>
      </trkpt>
      <trkpt lat="42.482782" lon="2.407412">
        <ele>2105.619</ele>
        <time>2021-05-28T14:08:21Z</time>
      </trkpt>
      <trkpt lat="42.482806" lon="2.407375">
        <ele>2104.109</ele>
        <time>2021-05-28T14:08:24Z</time>
      </trkpt>
      <trkpt lat="42.482900" lon="2.407314">
        <ele>2100.119</ele>
        <time>2021-05-28T14:08:31Z</time>
      </trkpt>
      <trkpt lat="42.482980" lon="2.407227">
        <ele>2097.208</ele>
        <time>2021-05-28T14:08:38Z</time>
      </trkpt>
      <trkpt lat="42.483063" lon="2.407155">
        <ele>2094.348</ele>
        <time>2021-05-28T14:08:46Z</time>
      </trkpt>
      <trkpt lat="42.483124" lon="2.407127">
        <ele>2092.265</ele>
        <time>2021-05-28T14:08:54Z</time>
      </trkpt>
      <trkpt lat="42.483204" lon="2.407068">
        <ele>2089.736</ele>
        <time>2021-05-28T14:09:04Z</time>
      </trkpt>
      <trkpt lat="42.483221" lon="2.406935">
        <ele>2089.315</ele>
        <time>2021-05-28T14:09:20Z</time>
      </trkpt>
      <trkpt lat="42.483244" lon="2.406816">
        <ele>2086.942</ele>
        <time>2021-05-28T14:09:27Z</time>
      </trkpt>
      <trkpt lat="42.483266" lon="2.406786">
        <ele>2086.087</ele>
        <time>2021-05-28T14:09:31Z</time>
      </trkpt>
      <trkpt lat="42.483305" lon="2.406764">
        <ele>2084.924</ele>
        <time>2021-05-28T14:09:35Z</time>
      </trkpt>
      <trkpt lat="42.483391" lon="2.406696">
        <ele>2082.422</ele>
        <time>2021-05-28T14:09:42Z</time>
      </trkpt>
      <trkpt lat="42.483417" lon="2.406684">
        <ele>2081.962</ele>
        <time>2021-05-28T14:09:45Z</time>
      </trkpt>
      <trkpt lat="42.483438" lon="2.406670">
        <ele>2081.583</ele>
        <time>2021-05-28T14:09:47Z</time>
      </trkpt>
      <trkpt lat="42.483455" lon="2.406655">
        <ele>2081.111</ele>
        <time>2021-05-28T14:09:49Z</time>
      </trkpt>
      <trkpt lat="42.483479" lon="2.406651">
        <ele>2080.808</ele>
        <time>2021-05-28T14:09:52Z</time>
      </trkpt>
      <trkpt lat="42.483503" lon="2.406646">
        <ele>2080.453</ele>
        <time>2021-05-28T14:09:54Z</time>
      </trkpt>
      <trkpt lat="42.483529" lon="2.406635">
        <ele>2080.080</ele>
        <time>2021-05-28T14:09:56Z</time>
      </trkpt>
      <trkpt lat="42.483554" lon="2.406624">
        <ele>2079.771</ele>
        <time>2021-05-28T14:09:58Z</time>
      </trkpt>
      <trkpt lat="42.483575" lon="2.406615">
        <ele>2079.410</ele>
        <time>2021-05-28T14:10:00Z</time>
      </trkpt>
      <trkpt lat="42.483597" lon="2.406603">
        <ele>2079.127</ele>
        <time>2021-05-28T14:10:03Z</time>
      </trkpt>
      <trkpt lat="42.483620" lon="2.406581">
        <ele>2078.842</ele>
        <time>2021-05-28T14:10:04Z</time>
      </trkpt>
      <trkpt lat="42.483639" lon="2.406566">
        <ele>2078.519</ele>
        <time>2021-05-28T14:10:06Z</time>
      </trkpt>
      <trkpt lat="42.483658" lon="2.406565">
        <ele>2078.177</ele>
        <time>2021-05-28T14:10:09Z</time>
      </trkpt>
      <trkpt lat="42.483672" lon="2.406582">
        <ele>2077.815</ele>
        <time>2021-05-28T14:10:13Z</time>
      </trkpt>
      <trkpt lat="42.483687" lon="2.406609">
        <ele>2077.365</ele>
        <time>2021-05-28T14:10:16Z</time>
      </trkpt>
      <trkpt lat="42.483696" lon="2.406643">
        <ele>2076.811</ele>
        <time>2021-05-28T14:10:19Z</time>
      </trkpt>
      <trkpt lat="42.483703" lon="2.406669">
        <ele>2076.308</ele>
        <time>2021-05-28T14:10:24Z</time>
      </trkpt>
      <trkpt lat="42.483721" lon="2.406673">
        <ele>2075.738</ele>
        <time>2021-05-28T14:10:27Z</time>
      </trkpt>
      <trkpt lat="42.483740" lon="2.406675">
        <ele>2075.155</ele>
        <time>2021-05-28T14:10:30Z</time>
      </trkpt>
      <trkpt lat="42.483762" lon="2.406680">
        <ele>2074.376</ele>
        <time>2021-05-28T14:10:32Z</time>
      </trkpt>
      <trkpt lat="42.483773" lon="2.406701">
        <ele>2073.475</ele>
        <time>2021-05-28T14:10:34Z</time>
      </trkpt>
      <trkpt lat="42.483772" lon="2.406731">
        <ele>2072.672</ele>
        <time>2021-05-28T14:10:38Z</time>
      </trkpt>
      <trkpt lat="42.483791" lon="2.406727">
        <ele>2072.117</ele>
        <time>2021-05-28T14:10:42Z</time>
      </trkpt>
      <trkpt lat="42.483814" lon="2.406704">
        <ele>2072.164</ele>
        <time>2021-05-28T14:10:44Z</time>
      </trkpt>
      <trkpt lat="42.483837" lon="2.406707">
        <ele>2071.392</ele>
        <time>2021-05-28T14:10:48Z</time>
      </trkpt>
      <trkpt lat="42.483858" lon="2.406719">
        <ele>2070.392</ele>
        <time>2021-05-28T14:10:51Z</time>
      </trkpt>
      <trkpt lat="42.483882" lon="2.406731">
        <ele>2069.173</ele>
        <time>2021-05-28T14:10:54Z</time>
      </trkpt>
      <trkpt lat="42.483897" lon="2.406747">
        <ele>2068.220</ele>
        <time>2021-05-28T14:10:56Z</time>
      </trkpt>
      <trkpt lat="42.483938" lon="2.406728">
        <ele>2067.808</ele>
        <time>2021-05-28T14:11:02Z</time>
      </trkpt>
      <trkpt lat="42.483960" lon="2.406729">
        <ele>2067.386</ele>
        <time>2021-05-28T14:11:03Z</time>
      </trkpt>
      <trkpt lat="42.483979" lon="2.406725">
        <ele>2067.083</ele>
        <time>2021-05-28T14:11:08Z</time>
      </trkpt>
      <trkpt lat="42.484001" lon="2.406734">
        <ele>2066.174</ele>
        <time>2021-05-28T14:11:13Z</time>
      </trkpt>
      <trkpt lat="42.484013" lon="2.406756">
        <ele>2065.013</ele>
        <time>2021-05-28T14:11:28Z</time>
      </trkpt>
      <trkpt lat="42.484037" lon="2.406756">
        <ele>2064.480</ele>
        <time>2021-05-28T14:11:31Z</time>
      </trkpt>
      <trkpt lat="42.484055" lon="2.406791">
        <ele>2062.675</ele>
        <time>2021-05-28T14:11:34Z</time>
      </trkpt>
      <trkpt lat="42.484053" lon="2.406821">
        <ele>2061.542</ele>
        <time>2021-05-28T14:11:36Z</time>
      </trkpt>
      <trkpt lat="42.484055" lon="2.406849">
        <ele>2060.320</ele>
        <time>2021-05-28T14:11:38Z</time>
      </trkpt>
      <trkpt lat="42.484100" lon="2.406958">
        <ele>2054.626</ele>
        <time>2021-05-28T14:11:54Z</time>
      </trkpt>
      <trkpt lat="42.484084" lon="2.407083">
        <ele>2050.247</ele>
        <time>2021-05-28T14:12:04Z</time>
      </trkpt>
      <trkpt lat="42.484062" lon="2.407218">
        <ele>2045.611</ele>
        <time>2021-05-28T14:12:14Z</time>
      </trkpt>
      <trkpt lat="42.484032" lon="2.407340">
        <ele>2043.208</ele>
        <time>2021-05-28T14:12:23Z</time>
      </trkpt>
      <trkpt lat="42.484001" lon="2.407459">
        <ele>2041.169</ele>
        <time>2021-05-28T14:12:30Z</time>
      </trkpt>
      <trkpt lat="42.483985" lon="2.407585">
        <ele>2039.796</ele>
        <time>2021-05-28T14:12:40Z</time>
      </trkpt>
      <trkpt lat="42.484004" lon="2.407629">
        <ele>2038.547</ele>
        <time>2021-05-28T14:12:45Z</time>
      </trkpt>
      <trkpt lat="42.484014" lon="2.407652">
        <ele>2037.976</ele>
        <time>2021-05-28T14:12:48Z</time>
      </trkpt>
      <trkpt lat="42.484065" lon="2.407760">
        <ele>2034.633</ele>
        <time>2021-05-28T14:12:57Z</time>
      </trkpt>
      <trkpt lat="42.484117" lon="2.407863">
        <ele>2030.738</ele>
        <time>2021-05-28T14:13:09Z</time>
      </trkpt>
      <trkpt lat="42.484109" lon="2.407904">
        <ele>2030.485</ele>
        <time>2021-05-28T14:13:14Z</time>
      </trkpt>
      <trkpt lat="42.484172" lon="2.408007">
        <ele>2025.893</ele>
        <time>2021-05-28T14:13:22Z</time>
      </trkpt>
      <trkpt lat="42.484188" lon="2.408137">
        <ele>2023.674</ele>
        <time>2021-05-28T14:13:35Z</time>
      </trkpt>
      <trkpt lat="42.484171" lon="2.408265">
        <ele>2021.956</ele>
        <time>2021-05-28T14:13:43Z</time>
      </trkpt>
      <trkpt lat="42.484174" lon="2.408389">
        <ele>2020.321</ele>
        <time>2021-05-28T14:14:00Z</time>
      </trkpt>
      <trkpt lat="42.484233" lon="2.408497">
        <ele>2018.008</ele>
        <time>2021-05-28T14:14:08Z</time>
      </trkpt>
      <trkpt lat="42.484262" lon="2.408619">
        <ele>2015.514</ele>
        <time>2021-05-28T14:14:16Z</time>
      </trkpt>
      <trkpt lat="42.484322" lon="2.408731">
        <ele>2011.311</ele>
        <time>2021-05-28T14:14:24Z</time>
      </trkpt>
      <trkpt lat="42.484371" lon="2.408843">
        <ele>2006.712</ele>
        <time>2021-05-28T14:14:31Z</time>
      </trkpt>
      <trkpt lat="42.484422" lon="2.408951">
        <ele>2001.361</ele>
        <time>2021-05-28T14:14:40Z</time>
      </trkpt>
      <trkpt lat="42.484398" lon="2.409082">
        <ele>1999.178</ele>
        <time>2021-05-28T14:14:52Z</time>
      </trkpt>
      <trkpt lat="42.484385" lon="2.409219">
        <ele>1996.783</ele>
        <time>2021-05-28T14:15:06Z</time>
      </trkpt>
      <trkpt lat="42.484364" lon="2.409355">
        <ele>1995.510</ele>
        <time>2021-05-28T14:15:15Z</time>
      </trkpt>
      <trkpt lat="42.484378" lon="2.409483">
        <ele>1992.278</ele>
        <time>2021-05-28T14:15:32Z</time>
      </trkpt>
      <trkpt lat="42.484393" lon="2.409506">
        <ele>1990.853</ele>
        <time>2021-05-28T14:15:35Z</time>
      </trkpt>
      <trkpt lat="42.484389" lon="2.409541">
        <ele>1990.204</ele>
        <time>2021-05-28T14:15:40Z</time>
      </trkpt>
      <trkpt lat="42.484378" lon="2.409571">
        <ele>1990.214</ele>
        <time>2021-05-28T14:15:43Z</time>
      </trkpt>
      <trkpt lat="42.484377" lon="2.409599">
        <ele>1989.708</ele>
        <time>2021-05-28T14:15:46Z</time>
      </trkpt>
      <trkpt lat="42.484389" lon="2.409641">
        <ele>1988.022</ele>
        <time>2021-05-28T14:15:48Z</time>
      </trkpt>
      <trkpt lat="42.484388" lon="2.409673">
        <ele>1987.399</ele>
        <time>2021-05-28T14:15:52Z</time>
      </trkpt>
      <trkpt lat="42.484390" lon="2.409705">
        <ele>1986.520</ele>
        <time>2021-05-28T14:15:54Z</time>
      </trkpt>
      <trkpt lat="42.484392" lon="2.409732">
        <ele>1985.749</ele>
        <time>2021-05-28T14:15:57Z</time>
      </trkpt>
      <trkpt lat="42.484389" lon="2.409761">
        <ele>1985.146</ele>
        <time>2021-05-28T14:15:58Z</time>
      </trkpt>
      <trkpt lat="42.484393" lon="2.409798">
        <ele>1983.841</ele>
        <time>2021-05-28T14:16:01Z</time>
      </trkpt>
      <trkpt lat="42.484388" lon="2.409826">
        <ele>1983.368</ele>
        <time>2021-05-28T14:16:04Z</time>
      </trkpt>
      <trkpt lat="42.484380" lon="2.409852">
        <ele>1983.066</ele>
        <time>2021-05-28T14:16:08Z</time>
      </trkpt>
      <trkpt lat="42.484387" lon="2.409896">
        <ele>1981.363</ele>
        <time>2021-05-28T14:16:12Z</time>
      </trkpt>
      <trkpt lat="42.484394" lon="2.409930">
        <ele>1979.944</ele>
        <time>2021-05-28T14:16:15Z</time>
      </trkpt>
      <trkpt lat="42.484384" lon="2.409956">
        <ele>1979.718</ele>
        <time>2021-05-28T14:16:18Z</time>
      </trkpt>
      <trkpt lat="42.484393" lon="2.409981">
        <ele>1978.508</ele>
        <time>2021-05-28T14:16:21Z</time>
      </trkpt>
      <trkpt lat="42.484401" lon="2.410009">
        <ele>1977.333</ele>
        <time>2021-05-28T14:16:24Z</time>
      </trkpt>
      <trkpt lat="42.484379" lon="2.410043">
        <ele>1977.790</ele>
        <time>2021-05-28T14:16:27Z</time>
      </trkpt>
      <trkpt lat="42.484362" lon="2.410060">
        <ele>1978.251</ele>
        <time>2021-05-28T14:16:28Z</time>
      </trkpt>
      <trkpt lat="42.484376" lon="2.410084">
        <ele>1976.840</ele>
        <time>2021-05-28T14:16:32Z</time>
      </trkpt>
      <trkpt lat="42.484392" lon="2.410102">
        <ele>1975.477</ele>
        <time>2021-05-28T14:16:34Z</time>
      </trkpt>
      <trkpt lat="42.484384" lon="2.410131">
        <ele>1975.192</ele>
        <time>2021-05-28T14:16:37Z</time>
      </trkpt>
      <trkpt lat="42.484367" lon="2.410156">
        <ele>1975.479</ele>
        <time>2021-05-28T14:16:40Z</time>
      </trkpt>
      <trkpt lat="42.484358" lon="2.410192">
        <ele>1974.977</ele>
        <time>2021-05-28T14:16:41Z</time>
      </trkpt>
      <trkpt lat="42.484353" lon="2.410225">
        <ele>1974.394</ele>
        <time>2021-05-28T14:16:43Z</time>
      </trkpt>
      <trkpt lat="42.484346" lon="2.410251">
        <ele>1974.057</ele>
        <time>2021-05-28T14:16:45Z</time>
      </trkpt>
      <trkpt lat="42.484336" lon="2.410278">
        <ele>1973.922</ele>
        <time>2021-05-28T14:16:48Z</time>
      </trkpt>
      <trkpt lat="42.484345" lon="2.410321">
        <ele>1972.408</ele>
        <time>2021-05-28T14:16:53Z</time>
      </trkpt>
      <trkpt lat="42.484337" lon="2.410355">
        <ele>1972.096</ele>
        <time>2021-05-28T14:16:58Z</time>
      </trkpt>
      <trkpt lat="42.484333" lon="2.410390">
        <ele>1971.463</ele>
        <time>2021-05-28T14:17:00Z</time>
      </trkpt>
      <trkpt lat="42.484331" lon="2.410421">
        <ele>1970.854</ele>
        <time>2021-05-28T14:17:01Z</time>
      </trkpt>
      <trkpt lat="42.484335" lon="2.410477">
        <ele>1969.393</ele>
        <time>2021-05-28T14:17:05Z</time>
      </trkpt>
      <trkpt lat="42.484320" lon="2.410599">
        <ele>1967.250</ele>
        <time>2021-05-28T14:17:18Z</time>
      </trkpt>
      <trkpt lat="42.484323" lon="2.410725">
        <ele>1963.945</ele>
        <time>2021-05-28T14:17:26Z</time>
      </trkpt>
      <trkpt lat="42.484323" lon="2.410768">
        <ele>1962.942</ele>
        <time>2021-05-28T14:17:30Z</time>
      </trkpt>
      <trkpt lat="42.484341" lon="2.410770">
        <ele>1962.030</ele>
        <time>2021-05-28T14:17:34Z</time>
      </trkpt>
      <trkpt lat="42.484337" lon="2.410798">
        <ele>1961.575</ele>
        <time>2021-05-28T14:17:38Z</time>
      </trkpt>
      <trkpt lat="42.484340" lon="2.410833">
        <ele>1960.528</ele>
        <time>2021-05-28T14:17:41Z</time>
      </trkpt>
      <trkpt lat="42.484340" lon="2.410858">
        <ele>1959.920</ele>
        <time>2021-05-28T14:17:44Z</time>
      </trkpt>
      <trkpt lat="42.484335" lon="2.410884">
        <ele>1959.508</ele>
        <time>2021-05-28T14:17:50Z</time>
      </trkpt>
      <trkpt lat="42.484358" lon="2.410863">
        <ele>1959.074</ele>
        <time>2021-05-28T14:17:56Z</time>
      </trkpt>
      <trkpt lat="42.484376" lon="2.410860">
        <ele>1958.381</ele>
        <time>2021-05-28T14:17:59Z</time>
      </trkpt>
      <trkpt lat="42.484398" lon="2.410864">
        <ele>1957.222</ele>
        <time>2021-05-28T14:18:01Z</time>
      </trkpt>
      <trkpt lat="42.484459" lon="2.410826">
        <ele>1955.681</ele>
        <time>2021-05-28T14:18:07Z</time>
      </trkpt>
      <trkpt lat="42.484483" lon="2.410844">
        <ele>1954.268</ele>
        <time>2021-05-28T14:18:11Z</time>
      </trkpt>
      <trkpt lat="42.484490" lon="2.410810">
        <ele>1954.753</ele>
        <time>2021-05-28T14:18:15Z</time>
      </trkpt>
      <trkpt lat="42.484504" lon="2.410832">
        <ele>1953.750</ele>
        <time>2021-05-28T14:18:23Z</time>
      </trkpt>
      <trkpt lat="42.484525" lon="2.410835">
        <ele>1952.838</ele>
        <time>2021-05-28T14:18:25Z</time>
      </trkpt>
      <trkpt lat="42.484543" lon="2.410856">
        <ele>1951.685</ele>
        <time>2021-05-28T14:18:27Z</time>
      </trkpt>
      <trkpt lat="42.484558" lon="2.410884">
        <ele>1950.489</ele>
        <time>2021-05-28T14:18:30Z</time>
      </trkpt>
      <trkpt lat="42.484563" lon="2.410942">
        <ele>1948.917</ele>
        <time>2021-05-28T14:18:33Z</time>
      </trkpt>
      <trkpt lat="42.484555" lon="2.410985">
        <ele>1948.208</ele>
        <time>2021-05-28T14:18:35Z</time>
      </trkpt>
      <trkpt lat="42.484649" lon="2.411012">
        <ele>1944.395</ele>
        <time>2021-05-28T14:18:45Z</time>
      </trkpt>
      <trkpt lat="42.484601" lon="2.411099">
        <ele>1944.242</ele>
        <time>2021-05-28T14:18:51Z</time>
      </trkpt>
      <trkpt lat="42.484598" lon="2.411140">
        <ele>1943.343</ele>
        <time>2021-05-28T14:19:00Z</time>
      </trkpt>
      <trkpt lat="42.484600" lon="2.411166">
        <ele>1942.682</ele>
        <time>2021-05-28T14:19:03Z</time>
      </trkpt>
      <trkpt lat="42.484624" lon="2.411180">
        <ele>1941.419</ele>
        <time>2021-05-28T14:19:07Z</time>
      </trkpt>
      <trkpt lat="42.484652" lon="2.411195">
        <ele>1940.274</ele>
        <time>2021-05-28T14:19:09Z</time>
      </trkpt>
      <trkpt lat="42.484670" lon="2.411190">
        <ele>1939.721</ele>
        <time>2021-05-28T14:19:10Z</time>
      </trkpt>
      <trkpt lat="42.484687" lon="2.411218">
        <ele>1938.459</ele>
        <time>2021-05-28T14:19:15Z</time>
      </trkpt>
      <trkpt lat="42.484707" lon="2.411235">
        <ele>1937.482</ele>
        <time>2021-05-28T14:19:16Z</time>
      </trkpt>
      <trkpt lat="42.484715" lon="2.411270">
        <ele>1936.243</ele>
        <time>2021-05-28T14:19:19Z</time>
      </trkpt>
      <trkpt lat="42.484704" lon="2.411302">
        <ele>1935.817</ele>
        <time>2021-05-28T14:19:21Z</time>
      </trkpt>
      <trkpt lat="42.484699" lon="2.411341">
        <ele>1935.008</ele>
        <time>2021-05-28T14:19:23Z</time>
      </trkpt>
      <trkpt lat="42.484698" lon="2.411380">
        <ele>1934.035</ele>
        <time>2021-05-28T14:19:25Z</time>
      </trkpt>
      <trkpt lat="42.484718" lon="2.411418">
        <ele>1932.452</ele>
        <time>2021-05-28T14:19:29Z</time>
      </trkpt>
      <trkpt lat="42.484729" lon="2.411449">
        <ele>1931.363</ele>
        <time>2021-05-28T14:19:30Z</time>
      </trkpt>
      <trkpt lat="42.484738" lon="2.411479">
        <ele>1930.382</ele>
        <time>2021-05-28T14:19:33Z</time>
      </trkpt>
      <trkpt lat="42.484758" lon="2.411492">
        <ele>1929.519</ele>
        <time>2021-05-28T14:19:35Z</time>
      </trkpt>
      <trkpt lat="42.484773" lon="2.411505">
        <ele>1928.874</ele>
        <time>2021-05-28T14:19:37Z</time>
      </trkpt>
      <trkpt lat="42.484781" lon="2.411532">
        <ele>1927.961</ele>
        <time>2021-05-28T14:19:40Z</time>
      </trkpt>
      <trkpt lat="42.484781" lon="2.411570">
        <ele>1927.039</ele>
        <time>2021-05-28T14:19:41Z</time>
      </trkpt>
      <trkpt lat="42.484799" lon="2.411584">
        <ele>1926.395</ele>
        <time>2021-05-28T14:19:46Z</time>
      </trkpt>
      <trkpt lat="42.484804" lon="2.411609">
        <ele>1925.649</ele>
        <time>2021-05-28T14:19:49Z</time>
      </trkpt>
      <trkpt lat="42.484804" lon="2.411636">
        <ele>1924.923</ele>
        <time>2021-05-28T14:19:51Z</time>
      </trkpt>
      <trkpt lat="42.484815" lon="2.411677">
        <ele>1923.808</ele>
        <time>2021-05-28T14:19:53Z</time>
      </trkpt>
      <trkpt lat="42.484837" lon="2.411691">
        <ele>1923.046</ele>
        <time>2021-05-28T14:19:58Z</time>
      </trkpt>
      <trkpt lat="42.484856" lon="2.411702">
        <ele>1922.323</ele>
        <time>2021-05-28T14:20:00Z</time>
      </trkpt>
      <trkpt lat="42.484876" lon="2.411709">
        <ele>1921.894</ele>
        <time>2021-05-28T14:20:02Z</time>
      </trkpt>
      <trkpt lat="42.484885" lon="2.411750">
        <ele>1920.743</ele>
        <time>2021-05-28T14:20:05Z</time>
      </trkpt>
      <trkpt lat="42.484891" lon="2.411783">
        <ele>1919.890</ele>
        <time>2021-05-28T14:20:07Z</time>
      </trkpt>
      <trkpt lat="42.484902" lon="2.411823">
        <ele>1918.775</ele>
        <time>2021-05-28T14:20:09Z</time>
      </trkpt>
      <trkpt lat="42.484908" lon="2.411863">
        <ele>1917.752</ele>
        <time>2021-05-28T14:20:12Z</time>
      </trkpt>
      <trkpt lat="42.484918" lon="2.411889">
        <ele>1917.040</ele>
        <time>2021-05-28T14:20:14Z</time>
      </trkpt>
      <trkpt lat="42.484935" lon="2.411901">
        <ele>1916.395</ele>
        <time>2021-05-28T14:20:16Z</time>
      </trkpt>
      <trkpt lat="42.484959" lon="2.411912">
        <ele>1915.649</ele>
        <time>2021-05-28T14:20:18Z</time>
      </trkpt>
      <trkpt lat="42.484974" lon="2.411950">
        <ele>1914.423</ele>
        <time>2021-05-28T14:20:21Z</time>
      </trkpt>
      <trkpt lat="42.484978" lon="2.411982">
        <ele>1913.508</ele>
        <time>2021-05-28T14:20:23Z</time>
      </trkpt>
      <trkpt lat="42.485022" lon="2.412079">
        <ele>1910.096</ele>
        <time>2021-05-28T14:20:29Z</time>
      </trkpt>
      <trkpt lat="42.485098" lon="2.412153">
        <ele>1906.153</ele>
        <time>2021-05-28T14:20:40Z</time>
      </trkpt>
      <trkpt lat="42.485127" lon="2.412285">
        <ele>1902.334</ele>
        <time>2021-05-28T14:20:51Z</time>
      </trkpt>
      <trkpt lat="42.485089" lon="2.412387">
        <ele>1901.073</ele>
        <time>2021-05-28T14:21:02Z</time>
      </trkpt>
      <trkpt lat="42.485092" lon="2.412420">
        <ele>1900.220</ele>
        <time>2021-05-28T14:21:09Z</time>
      </trkpt>
      <trkpt lat="42.485097" lon="2.412454">
        <ele>1899.335</ele>
        <time>2021-05-28T14:21:13Z</time>
      </trkpt>
      <trkpt lat="42.485106" lon="2.412480">
        <ele>1898.432</ele>
        <time>2021-05-28T14:21:15Z</time>
      </trkpt>
      <trkpt lat="42.485092" lon="2.412502">
        <ele>1898.380</ele>
        <time>2021-05-28T14:21:20Z</time>
      </trkpt>
      <trkpt lat="42.485085" lon="2.412532">
        <ele>1897.554</ele>
        <time>2021-05-28T14:21:23Z</time>
      </trkpt>
      <trkpt lat="42.485073" lon="2.412551">
        <ele>1897.256</ele>
        <time>2021-05-28T14:21:26Z</time>
      </trkpt>
      <trkpt lat="42.485057" lon="2.412575">
        <ele>1896.911</ele>
        <time>2021-05-28T14:21:28Z</time>
      </trkpt>
      <trkpt lat="42.485048" lon="2.412597">
        <ele>1896.508</ele>
        <time>2021-05-28T14:21:31Z</time>
      </trkpt>
      <trkpt lat="42.485043" lon="2.412621">
        <ele>1895.812</ele>
        <time>2021-05-28T14:21:34Z</time>
      </trkpt>
      <trkpt lat="42.485037" lon="2.412652">
        <ele>1895.099</ele>
        <time>2021-05-28T14:21:35Z</time>
      </trkpt>
      <trkpt lat="42.485041" lon="2.412677">
        <ele>1894.190</ele>
        <time>2021-05-28T14:21:41Z</time>
      </trkpt>
      <trkpt lat="42.485133" lon="2.412688">
        <ele>1891.189</ele>
        <time>2021-05-28T14:22:02Z</time>
      </trkpt>
      <trkpt lat="42.485134" lon="2.412750">
        <ele>1889.096</ele>
        <time>2021-05-28T14:22:08Z</time>
      </trkpt>
      <trkpt lat="42.485143" lon="2.412876">
        <ele>1885.411</ele>
        <time>2021-05-28T14:22:19Z</time>
      </trkpt>
      <trkpt lat="42.485178" lon="2.412912">
        <ele>1883.668</ele>
        <time>2021-05-28T14:22:31Z</time>
      </trkpt>
      <trkpt lat="42.485228" lon="2.412804">
        <ele>1884.866</ele>
        <time>2021-05-28T14:22:44Z</time>
      </trkpt>
      <trkpt lat="42.485268" lon="2.412741">
        <ele>1885.536</ele>
        <time>2021-05-28T14:22:50Z</time>
      </trkpt>
      <trkpt lat="42.485296" lon="2.412708">
        <ele>1885.517</ele>
        <time>2021-05-28T14:22:52Z</time>
      </trkpt>
      <trkpt lat="42.485324" lon="2.412703">
        <ele>1884.418</ele>
        <time>2021-05-28T14:22:55Z</time>
      </trkpt>
      <trkpt lat="42.485353" lon="2.412691">
        <ele>1883.608</ele>
        <time>2021-05-28T14:22:56Z</time>
      </trkpt>
      <trkpt lat="42.485452" lon="2.412640">
        <ele>1880.970</ele>
        <time>2021-05-28T14:23:03Z</time>
      </trkpt>
      <trkpt lat="42.485545" lon="2.412619">
        <ele>1877.627</ele>
        <time>2021-05-28T14:23:08Z</time>
      </trkpt>
      <trkpt lat="42.485635" lon="2.412554">
        <ele>1876.818</ele>
        <time>2021-05-28T14:23:14Z</time>
      </trkpt>
      <trkpt lat="42.485712" lon="2.412465">
        <ele>1876.827</ele>
        <time>2021-05-28T14:23:18Z</time>
      </trkpt>
      <trkpt lat="42.485786" lon="2.412382">
        <ele>1875.994</ele>
        <time>2021-05-28T14:23:24Z</time>
      </trkpt>
      <trkpt lat="42.485861" lon="2.412293">
        <ele>1875.469</ele>
        <time>2021-05-28T14:23:29Z</time>
      </trkpt>
      <trkpt lat="42.485904" lon="2.412169">
        <ele>1877.486</ele>
        <time>2021-05-28T14:23:35Z</time>
      </trkpt>
      <trkpt lat="42.485887" lon="2.412147">
        <ele>1878.074</ele>
        <time>2021-05-28T14:23:46Z</time>
      </trkpt>
      <trkpt lat="42.485887" lon="2.412115">
        <ele>1878.617</ele>
        <time>2021-05-28T14:23:51Z</time>
      </trkpt>
      <trkpt lat="42.485916" lon="2.412138">
        <ele>1878.087</ele>
        <time>2021-05-28T14:24:08Z</time>
      </trkpt>
      <trkpt lat="42.485902" lon="2.412154">
        <ele>1877.715</ele>
        <time>2021-05-28T14:24:10Z</time>
      </trkpt>
      <trkpt lat="42.485919" lon="2.412166">
        <ele>1877.308</ele>
        <time>2021-05-28T14:24:19Z</time>
      </trkpt>
      <trkpt lat="42.485900" lon="2.412172">
        <ele>1877.428</ele>
        <time>2021-05-28T14:24:32Z</time>
      </trkpt>
      <trkpt lat="42.485913" lon="2.412202">
        <ele>1876.655</ele>
        <time>2021-05-28T14:24:34Z</time>
      </trkpt>
      <trkpt lat="42.485949" lon="2.412237">
        <ele>1875.436</ele>
        <time>2021-05-28T14:24:37Z</time>
      </trkpt>
      <trkpt lat="42.485977" lon="2.412266">
        <ele>1874.435</ele>
        <time>2021-05-28T14:24:39Z</time>
      </trkpt>
      <trkpt lat="42.485994" lon="2.412289">
        <ele>1873.672</ele>
        <time>2021-05-28T14:24:40Z</time>
      </trkpt>
      <trkpt lat="42.486010" lon="2.412312">
        <ele>1872.927</ele>
        <time>2021-05-28T14:24:41Z</time>
      </trkpt>
      <trkpt lat="42.486028" lon="2.412335">
        <ele>1872.074</ele>
        <time>2021-05-28T14:24:42Z</time>
      </trkpt>
      <trkpt lat="42.486105" lon="2.412429">
        <ele>1868.262</ele>
        <time>2021-05-28T14:24:47Z</time>
      </trkpt>
      <trkpt lat="42.486208" lon="2.412449">
        <ele>1867.557</ele>
        <time>2021-05-28T14:24:54Z</time>
      </trkpt>
      <trkpt lat="42.486298" lon="2.412421">
        <ele>1868.500</ele>
        <time>2021-05-28T14:25:00Z</time>
      </trkpt>
      <trkpt lat="42.486324" lon="2.412412">
        <ele>1868.820</ele>
        <time>2021-05-28T14:25:07Z</time>
      </trkpt>
      <trkpt lat="42.486301" lon="2.412416">
        <ele>1868.608</ele>
        <time>2021-05-28T14:25:10Z</time>
      </trkpt>
      <trkpt lat="42.486265" lon="2.412429">
        <ele>1868.212</ele>
        <time>2021-05-28T14:25:14Z</time>
      </trkpt>
      <trkpt lat="42.486250" lon="2.412448">
        <ele>1867.619</ele>
        <time>2021-05-28T14:25:16Z</time>
      </trkpt>
      <trkpt lat="42.486227" lon="2.412449">
        <ele>1867.560</ele>
        <time>2021-05-28T14:25:18Z</time>
      </trkpt>
      <trkpt lat="42.486206" lon="2.412445">
        <ele>1867.769</ele>
        <time>2021-05-28T14:25:20Z</time>
      </trkpt>
      <trkpt lat="42.486186" lon="2.412434">
        <ele>1868.016</ele>
        <time>2021-05-28T14:25:26Z</time>
      </trkpt>
      <trkpt lat="42.486204" lon="2.412430">
        <ele>1868.161</ele>
        <time>2021-05-28T14:25:34Z</time>
      </trkpt>
      <trkpt lat="42.486227" lon="2.412418">
        <ele>1868.518</ele>
        <time>2021-05-28T14:25:36Z</time>
      </trkpt>
      <trkpt lat="42.486258" lon="2.412399">
        <ele>1869.126</ele>
        <time>2021-05-28T14:25:38Z</time>
      </trkpt>
      <trkpt lat="42.486293" lon="2.412384">
        <ele>1869.665</ele>
        <time>2021-05-28T14:25:40Z</time>
      </trkpt>
      <trkpt lat="42.486396" lon="2.412405">
        <ele>1869.268</ele>
        <time>2021-05-28T14:25:44Z</time>
      </trkpt>
      <trkpt lat="42.486461" lon="2.412501">
        <ele>1867.314</ele>
        <time>2021-05-28T14:25:50Z</time>
      </trkpt>
      <trkpt lat="42.486499" lon="2.412624">
        <ele>1863.108</ele>
        <time>2021-05-28T14:25:54Z</time>
      </trkpt>
      <trkpt lat="42.486537" lon="2.412738">
        <ele>1858.793</ele>
        <time>2021-05-28T14:25:59Z</time>
      </trkpt>
      <trkpt lat="42.486615" lon="2.412807">
        <ele>1856.290</ele>
        <time>2021-05-28T14:26:03Z</time>
      </trkpt>
      <trkpt lat="42.486720" lon="2.412813">
        <ele>1856.371</ele>
        <time>2021-05-28T14:26:09Z</time>
      </trkpt>
      <trkpt lat="42.486806" lon="2.412894">
        <ele>1853.810</ele>
        <time>2021-05-28T14:26:15Z</time>
      </trkpt>
      <trkpt lat="42.486879" lon="2.412985">
        <ele>1850.337</ele>
        <time>2021-05-28T14:26:19Z</time>
      </trkpt>
      <trkpt lat="42.486976" lon="2.413009">
        <ele>1849.122</ele>
        <time>2021-05-28T14:26:24Z</time>
      </trkpt>
      <trkpt lat="42.487062" lon="2.413045">
        <ele>1847.579</ele>
        <time>2021-05-28T14:26:30Z</time>
      </trkpt>
      <trkpt lat="42.487154" lon="2.413096">
        <ele>1845.467</ele>
        <time>2021-05-28T14:26:35Z</time>
      </trkpt>
      <trkpt lat="42.487253" lon="2.413131">
        <ele>1844.333</ele>
        <time>2021-05-28T14:26:41Z</time>
      </trkpt>
      <trkpt lat="42.487347" lon="2.413176">
        <ele>1843.623</ele>
        <time>2021-05-28T14:26:45Z</time>
      </trkpt>
      <trkpt lat="42.487438" lon="2.413268">
        <ele>1839.115</ele>
        <time>2021-05-28T14:26:50Z</time>
      </trkpt>
      <trkpt lat="42.487519" lon="2.413334">
        <ele>1835.208</ele>
        <time>2021-05-28T14:26:55Z</time>
      </trkpt>
      <trkpt lat="42.487608" lon="2.413362">
        <ele>1835.360</ele>
        <time>2021-05-28T14:27:00Z</time>
      </trkpt>
      <trkpt lat="42.487697" lon="2.413383">
        <ele>1835.497</ele>
        <time>2021-05-28T14:27:07Z</time>
      </trkpt>
      <trkpt lat="42.487783" lon="2.413439">
        <ele>1833.498</ele>
        <time>2021-05-28T14:27:12Z</time>
      </trkpt>
      <trkpt lat="42.487860" lon="2.413510">
        <ele>1830.687</ele>
        <time>2021-05-28T14:27:17Z</time>
      </trkpt>
      <trkpt lat="42.487947" lon="2.413548">
        <ele>1829.834</ele>
        <time>2021-05-28T14:27:23Z</time>
      </trkpt>
      <trkpt lat="42.488039" lon="2.413595">
        <ele>1828.679</ele>
        <time>2021-05-28T14:27:28Z</time>
      </trkpt>
      <trkpt lat="42.488140" lon="2.413635">
        <ele>1828.246</ele>
        <time>2021-05-28T14:27:34Z</time>
      </trkpt>
      <trkpt lat="42.488233" lon="2.413672">
        <ele>1827.914</ele>
        <time>2021-05-28T14:27:41Z</time>
      </trkpt>
      <trkpt lat="42.488335" lon="2.413700">
        <ele>1827.878</ele>
        <time>2021-05-28T14:27:46Z</time>
      </trkpt>
      <trkpt lat="42.488430" lon="2.413722">
        <ele>1828.233</ele>
        <time>2021-05-28T14:27:51Z</time>
      </trkpt>
      <trkpt lat="42.488515" lon="2.413673">
        <ele>1830.926</ele>
        <time>2021-05-28T14:27:56Z</time>
      </trkpt>
      <trkpt lat="42.488620" lon="2.413638">
        <ele>1832.908</ele>
        <time>2021-05-28T14:28:02Z</time>
      </trkpt>
      <trkpt lat="42.488687" lon="2.413546">
        <ele>1834.654</ele>
        <time>2021-05-28T14:28:07Z</time>
      </trkpt>
      <trkpt lat="42.488788" lon="2.413473">
        <ele>1834.531</ele>
        <time>2021-05-28T14:28:13Z</time>
      </trkpt>
      <trkpt lat="42.488892" lon="2.413433">
        <ele>1833.022</ele>
        <time>2021-05-28T14:28:18Z</time>
      </trkpt>
      <trkpt lat="42.488980" lon="2.413387">
        <ele>1830.951</ele>
        <time>2021-05-28T14:28:23Z</time>
      </trkpt>
      <trkpt lat="42.489077" lon="2.413347">
        <ele>1828.718</ele>
        <time>2021-05-28T14:28:29Z</time>
      </trkpt>
      <trkpt lat="42.489176" lon="2.413319">
        <ele>1826.183</ele>
        <time>2021-05-28T14:28:34Z</time>
      </trkpt>
      <trkpt lat="42.489261" lon="2.413229">
        <ele>1826.010</ele>
        <time>2021-05-28T14:28:39Z</time>
      </trkpt>
      <trkpt lat="42.489351" lon="2.413168">
        <ele>1824.718</ele>
        <time>2021-05-28T14:28:45Z</time>
      </trkpt>
      <trkpt lat="42.489456" lon="2.413139">
        <ele>1821.621</ele>
        <time>2021-05-28T14:28:49Z</time>
      </trkpt>
      <trkpt lat="42.489541" lon="2.413071">
        <ele>1821.141</ele>
        <time>2021-05-28T14:28:55Z</time>
      </trkpt>
      <trkpt lat="42.489635" lon="2.413003">
        <ele>1820.005</ele>
        <time>2021-05-28T14:29:01Z</time>
      </trkpt>
      <trkpt lat="42.489704" lon="2.412915">
        <ele>1820.908</ele>
        <time>2021-05-28T14:29:06Z</time>
      </trkpt>
      <trkpt lat="42.489800" lon="2.412834">
        <ele>1819.449</ele>
        <time>2021-05-28T14:29:11Z</time>
      </trkpt>
      <trkpt lat="42.489882" lon="2.412770">
        <ele>1817.726</ele>
        <time>2021-05-28T14:29:16Z</time>
      </trkpt>
      <trkpt lat="42.489973" lon="2.412718">
        <ele>1815.427</ele>
        <time>2021-05-28T14:29:21Z</time>
      </trkpt>
      <trkpt lat="42.490055" lon="2.412628">
        <ele>1815.326</ele>
        <time>2021-05-28T14:29:28Z</time>
      </trkpt>
      <trkpt lat="42.490142" lon="2.412579">
        <ele>1812.933</ele>
        <time>2021-05-28T14:29:34Z</time>
      </trkpt>
      <trkpt lat="42.490212" lon="2.412499">
        <ele>1813.618</ele>
        <time>2021-05-28T14:29:41Z</time>
      </trkpt>
      <trkpt lat="42.490304" lon="2.412444">
        <ele>1811.175</ele>
        <time>2021-05-28T14:29:46Z</time>
      </trkpt>
      <trkpt lat="42.490387" lon="2.412373">
        <ele>1809.593</ele>
        <time>2021-05-28T14:29:52Z</time>
      </trkpt>
      <trkpt lat="42.490473" lon="2.412293">
        <ele>1807.974</ele>
        <time>2021-05-28T14:29:59Z</time>
      </trkpt>
      <trkpt lat="42.490544" lon="2.412213">
        <ele>1807.156</ele>
        <time>2021-05-28T14:30:03Z</time>
      </trkpt>
      <trkpt lat="42.490608" lon="2.412109">
        <ele>1808.021</ele>
        <time>2021-05-28T14:30:08Z</time>
      </trkpt>
      <trkpt lat="42.490670" lon="2.411996">
        <ele>1809.308</ele>
        <time>2021-05-28T14:30:13Z</time>
      </trkpt>
      <trkpt lat="42.490755" lon="2.411919">
        <ele>1807.674</ele>
        <time>2021-05-28T14:30:18Z</time>
      </trkpt>
      <trkpt lat="42.490793" lon="2.411803">
        <ele>1808.731</ele>
        <time>2021-05-28T14:30:24Z</time>
      </trkpt>
      <trkpt lat="42.490871" lon="2.411705">
        <ele>1807.352</ele>
        <time>2021-05-28T14:30:29Z</time>
      </trkpt>
      <trkpt lat="42.490968" lon="2.411694">
        <ele>1803.081</ele>
        <time>2021-05-28T14:30:35Z</time>
      </trkpt>
      <trkpt lat="42.491066" lon="2.411716">
        <ele>1797.738</ele>
        <time>2021-05-28T14:30:41Z</time>
      </trkpt>
      <trkpt lat="42.491176" lon="2.411734">
        <ele>1793.013</ele>
        <time>2021-05-28T14:30:48Z</time>
      </trkpt>
      <trkpt lat="42.491275" lon="2.411710">
        <ele>1790.770</ele>
        <time>2021-05-28T14:30:54Z</time>
      </trkpt>
      <trkpt lat="42.491382" lon="2.411679">
        <ele>1788.718</ele>
        <time>2021-05-28T14:31:01Z</time>
      </trkpt>
      <trkpt lat="42.491477" lon="2.411628">
        <ele>1789.529</ele>
        <time>2021-05-28T14:31:08Z</time>
      </trkpt>
      <trkpt lat="42.491573" lon="2.411619">
        <ele>1788.100</ele>
        <time>2021-05-28T14:31:11Z</time>
      </trkpt>
      <trkpt lat="42.491650" lon="2.411527">
        <ele>1790.920</ele>
        <time>2021-05-28T14:31:19Z</time>
      </trkpt>
      <trkpt lat="42.491740" lon="2.411464">
        <ele>1790.208</ele>
        <time>2021-05-28T14:31:25Z</time>
      </trkpt>
      <trkpt lat="42.491823" lon="2.411416">
        <ele>1788.959</ele>
        <time>2021-05-28T14:31:29Z</time>
      </trkpt>
      <trkpt lat="42.491901" lon="2.411344">
        <ele>1789.616</ele>
        <time>2021-05-28T14:31:34Z</time>
      </trkpt>
      <trkpt lat="42.491995" lon="2.411325">
        <ele>1786.897</ele>
        <time>2021-05-28T14:31:41Z</time>
      </trkpt>
      <trkpt lat="42.492090" lon="2.411297">
        <ele>1784.346</ele>
        <time>2021-05-28T14:31:47Z</time>
      </trkpt>
      <trkpt lat="42.492173" lon="2.411244">
        <ele>1783.513</ele>
        <time>2021-05-28T14:31:53Z</time>
      </trkpt>
      <trkpt lat="42.492264" lon="2.411168">
        <ele>1783.428</ele>
        <time>2021-05-28T14:31:59Z</time>
      </trkpt>
      <trkpt lat="42.492320" lon="2.411068">
        <ele>1785.965</ele>
        <time>2021-05-28T14:32:04Z</time>
      </trkpt>
      <trkpt lat="42.492403" lon="2.411019">
        <ele>1784.533</ele>
        <time>2021-05-28T14:32:09Z</time>
      </trkpt>
      <trkpt lat="42.492477" lon="2.410944">
        <ele>1784.484</ele>
        <time>2021-05-28T14:32:16Z</time>
      </trkpt>
      <trkpt lat="42.492561" lon="2.410874">
        <ele>1783.407</ele>
        <time>2021-05-28T14:32:22Z</time>
      </trkpt>
      <trkpt lat="42.492651" lon="2.410801">
        <ele>1782.117</ele>
        <time>2021-05-28T14:32:27Z</time>
      </trkpt>
      <trkpt lat="42.492708" lon="2.410698">
        <ele>1783.008</ele>
        <time>2021-05-28T14:32:31Z</time>
      </trkpt>
      <trkpt lat="42.492780" lon="2.410609">
        <ele>1782.285</ele>
        <time>2021-05-28T14:32:36Z</time>
      </trkpt>
      <trkpt lat="42.492853" lon="2.410531">
        <ele>1780.572</ele>
        <time>2021-05-28T14:32:39Z</time>
      </trkpt>
      <trkpt lat="42.492926" lon="2.410442">
        <ele>1779.333</ele>
        <time>2021-05-28T14:32:45Z</time>
      </trkpt>
      <trkpt lat="42.493012" lon="2.410389">
        <ele>1777.432</ele>
        <time>2021-05-28T14:32:54Z</time>
      </trkpt>
      <trkpt lat="42.493094" lon="2.410446">
        <ele>1773.159</ele>
        <time>2021-05-28T14:33:00Z</time>
      </trkpt>
      <trkpt lat="42.493155" lon="2.410537">
        <ele>1768.864</ele>
        <time>2021-05-28T14:33:08Z</time>
      </trkpt>
      <trkpt lat="42.493242" lon="2.410599">
        <ele>1764.471</ele>
        <time>2021-05-28T14:33:15Z</time>
      </trkpt>
      <trkpt lat="42.493337" lon="2.410611">
        <ele>1761.789</ele>
        <time>2021-05-28T14:33:22Z</time>
      </trkpt>
      <trkpt lat="42.493433" lon="2.410618">
        <ele>1759.361</ele>
        <time>2021-05-28T14:33:28Z</time>
      </trkpt>
      <trkpt lat="42.493525" lon="2.410596">
        <ele>1759.021</ele>
        <time>2021-05-28T14:33:32Z</time>
      </trkpt>
      <trkpt lat="42.493625" lon="2.410570">
        <ele>1758.613</ele>
        <time>2021-05-28T14:33:38Z</time>
      </trkpt>
      <trkpt lat="42.493690" lon="2.410484">
        <ele>1761.608</ele>
        <time>2021-05-28T14:33:43Z</time>
      </trkpt>
      <trkpt lat="42.493775" lon="2.410423">
        <ele>1762.133</ele>
        <time>2021-05-28T14:33:48Z</time>
      </trkpt>
      <trkpt lat="42.493861" lon="2.410363">
        <ele>1762.020</ele>
        <time>2021-05-28T14:33:54Z</time>
      </trkpt>
      <trkpt lat="42.493956" lon="2.410333">
        <ele>1760.011</ele>
        <time>2021-05-28T14:34:00Z</time>
      </trkpt>
      <trkpt lat="42.494053" lon="2.410338">
        <ele>1756.450</ele>
        <time>2021-05-28T14:34:05Z</time>
      </trkpt>
      <trkpt lat="42.494145" lon="2.410322">
        <ele>1754.097</ele>
        <time>2021-05-28T14:34:10Z</time>
      </trkpt>
      <trkpt lat="42.494239" lon="2.410263">
        <ele>1754.562</ele>
        <time>2021-05-28T14:34:17Z</time>
      </trkpt>
      <trkpt lat="42.494326" lon="2.410201">
        <ele>1755.389</ele>
        <time>2021-05-28T14:34:24Z</time>
      </trkpt>
      <trkpt lat="42.494421" lon="2.410166">
        <ele>1754.287</ele>
        <time>2021-05-28T14:34:29Z</time>
      </trkpt>
      <trkpt lat="42.494511" lon="2.410162">
        <ele>1751.971</ele>
        <time>2021-05-28T14:34:33Z</time>
      </trkpt>
      <trkpt lat="42.494604" lon="2.410175">
        <ele>1748.541</ele>
        <time>2021-05-28T14:34:38Z</time>
      </trkpt>
      <trkpt lat="42.494702" lon="2.410119">
        <ele>1749.315</ele>
        <time>2021-05-28T14:34:44Z</time>
      </trkpt>
      <trkpt lat="42.494796" lon="2.410082">
        <ele>1749.008</ele>
        <time>2021-05-28T14:34:49Z</time>
      </trkpt>
      <trkpt lat="42.494885" lon="2.410031">
        <ele>1749.914</ele>
        <time>2021-05-28T14:34:54Z</time>
      </trkpt>
      <trkpt lat="42.494989" lon="2.409986">
        <ele>1750.281</ele>
        <time>2021-05-28T14:34:59Z</time>
      </trkpt>
      <trkpt lat="42.495094" lon="2.409943">
        <ele>1749.242</ele>
        <time>2021-05-28T14:35:04Z</time>
      </trkpt>
      <trkpt lat="42.495189" lon="2.409922">
        <ele>1747.151</ele>
        <time>2021-05-28T14:35:10Z</time>
      </trkpt>
      <trkpt lat="42.495278" lon="2.409852">
        <ele>1748.088</ele>
        <time>2021-05-28T14:35:16Z</time>
      </trkpt>
      <trkpt lat="42.495362" lon="2.409807">
        <ele>1748.193</ele>
        <time>2021-05-28T14:35:23Z</time>
      </trkpt>
      <trkpt lat="42.495461" lon="2.409752">
        <ele>1748.210</ele>
        <time>2021-05-28T14:35:29Z</time>
      </trkpt>
      <trkpt lat="42.495566" lon="2.409741">
        <ele>1745.858</ele>
        <time>2021-05-28T14:35:34Z</time>
      </trkpt>
      <trkpt lat="42.495672" lon="2.409748">
        <ele>1745.063</ele>
        <time>2021-05-28T14:35:40Z</time>
      </trkpt>
      <trkpt lat="42.495772" lon="2.409740">
        <ele>1745.144</ele>
        <time>2021-05-28T14:35:45Z</time>
      </trkpt>
      <trkpt lat="42.495864" lon="2.409788">
        <ele>1742.318</ele>
        <time>2021-05-28T14:35:52Z</time>
      </trkpt>
      <trkpt lat="42.495953" lon="2.409836">
        <ele>1740.308</ele>
        <time>2021-05-28T14:35:57Z</time>
      </trkpt>
      <trkpt lat="42.496061" lon="2.409848">
        <ele>1740.883</ele>
        <time>2021-05-28T14:36:02Z</time>
      </trkpt>
      <trkpt lat="42.496161" lon="2.409896">
        <ele>1739.180</ele>
        <time>2021-05-28T14:36:07Z</time>
      </trkpt>
      <trkpt lat="42.496252" lon="2.409972">
        <ele>1735.791</ele>
        <time>2021-05-28T14:36:12Z</time>
      </trkpt>
      <trkpt lat="42.496359" lon="2.410038">
        <ele>1733.480</ele>
        <time>2021-05-28T14:36:18Z</time>
      </trkpt>
      <trkpt lat="42.496448" lon="2.410065">
        <ele>1733.787</ele>
        <time>2021-05-28T14:36:23Z</time>
      </trkpt>
      <trkpt lat="42.496552" lon="2.410123">
        <ele>1733.242</ele>
        <time>2021-05-28T14:36:28Z</time>
      </trkpt>
      <trkpt lat="42.496640" lon="2.410202">
        <ele>1731.889</ele>
        <time>2021-05-28T14:36:34Z</time>
      </trkpt>
      <trkpt lat="42.496719" lon="2.410270">
        <ele>1730.967</ele>
        <time>2021-05-28T14:36:41Z</time>
      </trkpt>
      <trkpt lat="42.496787" lon="2.410351">
        <ele>1729.993</ele>
        <time>2021-05-28T14:36:46Z</time>
      </trkpt>
      <trkpt lat="42.496880" lon="2.410421">
        <ele>1730.765</ele>
        <time>2021-05-28T14:36:51Z</time>
      </trkpt>
      <trkpt lat="42.496993" lon="2.410455">
        <ele>1731.421</ele>
        <time>2021-05-28T14:36:56Z</time>
      </trkpt>
      <trkpt lat="42.497097" lon="2.410420">
        <ele>1731.308</ele>
        <time>2021-05-28T14:37:02Z</time>
      </trkpt>
      <trkpt lat="42.497158" lon="2.410326">
        <ele>1733.396</ele>
        <time>2021-05-28T14:37:05Z</time>
      </trkpt>
      <trkpt lat="42.497222" lon="2.410240">
        <ele>1735.253</ele>
        <time>2021-05-28T14:37:09Z</time>
      </trkpt>
      <trkpt lat="42.497298" lon="2.410147">
        <ele>1734.864</ele>
        <time>2021-05-28T14:37:14Z</time>
      </trkpt>
      <trkpt lat="42.497386" lon="2.410068">
        <ele>1733.353</ele>
        <time>2021-05-28T14:37:20Z</time>
      </trkpt>
      <trkpt lat="42.497475" lon="2.409984">
        <ele>1731.730</ele>
        <time>2021-05-28T14:37:25Z</time>
      </trkpt>
      <trkpt lat="42.497540" lon="2.409880">
        <ele>1732.285</ele>
        <time>2021-05-28T14:37:30Z</time>
      </trkpt>
      <trkpt lat="42.497622" lon="2.409801">
        <ele>1731.012</ele>
        <time>2021-05-28T14:37:35Z</time>
      </trkpt>
      <trkpt lat="42.497677" lon="2.409703">
        <ele>1731.350</ele>
        <time>2021-05-28T14:37:41Z</time>
      </trkpt>
      <trkpt lat="42.497741" lon="2.409599">
        <ele>1731.414</ele>
        <time>2021-05-28T14:37:48Z</time>
      </trkpt>
      <trkpt lat="42.497817" lon="2.409530">
        <ele>1730.054</ele>
        <time>2021-05-28T14:37:52Z</time>
      </trkpt>
      <trkpt lat="42.497870" lon="2.409414">
        <ele>1731.409</ele>
        <time>2021-05-28T14:37:57Z</time>
      </trkpt>
      <trkpt lat="42.497951" lon="2.409329">
        <ele>1731.008</ele>
        <time>2021-05-28T14:38:02Z</time>
      </trkpt>
      <trkpt lat="42.498030" lon="2.409241">
        <ele>1730.728</ele>
        <time>2021-05-28T14:38:08Z</time>
      </trkpt>
      <trkpt lat="42.498129" lon="2.409184">
        <ele>1729.315</ele>
        <time>2021-05-28T14:38:14Z</time>
      </trkpt>
      <trkpt lat="42.498230" lon="2.409114">
        <ele>1729.226</ele>
        <time>2021-05-28T14:38:19Z</time>
      </trkpt>
      <trkpt lat="42.498323" lon="2.409115">
        <ele>1726.525</ele>
        <time>2021-05-28T14:38:23Z</time>
      </trkpt>
      <trkpt lat="42.498418" lon="2.409102">
        <ele>1724.752</ele>
        <time>2021-05-28T14:38:31Z</time>
      </trkpt>
      <trkpt lat="42.498513" lon="2.409106">
        <ele>1722.277</ele>
        <time>2021-05-28T14:38:37Z</time>
      </trkpt>
      <trkpt lat="42.498604" lon="2.409047">
        <ele>1722.864</ele>
        <time>2021-05-28T14:38:43Z</time>
      </trkpt>
      <trkpt lat="42.498695" lon="2.409015">
        <ele>1723.322</ele>
        <time>2021-05-28T14:38:49Z</time>
      </trkpt>
      <trkpt lat="42.498798" lon="2.408982">
        <ele>1723.826</ele>
        <time>2021-05-28T14:38:54Z</time>
      </trkpt>
      <trkpt lat="42.498887" lon="2.409002">
        <ele>1722.147</ele>
        <time>2021-05-28T14:38:58Z</time>
      </trkpt>
      <trkpt lat="42.499000" lon="2.409000">
        <ele>1720.811</ele>
        <time>2021-05-28T14:39:05Z</time>
      </trkpt>
      <trkpt lat="42.499091" lon="2.408963">
        <ele>1721.108</ele>
        <time>2021-05-28T14:39:11Z</time>
      </trkpt>
      <trkpt lat="42.499179" lon="2.408905">
        <ele>1722.219</ele>
        <time>2021-05-28T14:39:15Z</time>
      </trkpt>
      <trkpt lat="42.499285" lon="2.408874">
        <ele>1721.956</ele>
        <time>2021-05-28T14:39:20Z</time>
      </trkpt>
      <trkpt lat="42.499386" lon="2.408832">
        <ele>1721.847</ele>
        <time>2021-05-28T14:39:26Z</time>
      </trkpt>
      <trkpt lat="42.499484" lon="2.408805">
        <ele>1721.286</ele>
        <time>2021-05-28T14:39:30Z</time>
      </trkpt>
      <trkpt lat="42.499595" lon="2.408770">
        <ele>1720.553</ele>
        <time>2021-05-28T14:39:37Z</time>
      </trkpt>
      <trkpt lat="42.499651" lon="2.408743">
        <ele>1720.358</ele>
        <time>2021-05-28T14:39:39Z</time>
      </trkpt>
      <trkpt lat="42.499686" lon="2.408728">
        <ele>1720.155</ele>
        <time>2021-05-28T14:39:42Z</time>
      </trkpt>
      <trkpt lat="42.499704" lon="2.408721">
        <ele>1719.943</ele>
        <time>2021-05-28T14:39:43Z</time>
      </trkpt>
      <trkpt lat="42.499737" lon="2.408709">
        <ele>1719.812</ele>
        <time>2021-05-28T14:39:44Z</time>
      </trkpt>
      <trkpt lat="42.499754" lon="2.408705">
        <ele>1719.732</ele>
        <time>2021-05-28T14:39:45Z</time>
      </trkpt>
      <trkpt lat="42.499772" lon="2.408699">
        <ele>1719.705</ele>
        <time>2021-05-28T14:39:46Z</time>
      </trkpt>
      <trkpt lat="42.499807" lon="2.408689">
        <ele>1719.708</ele>
        <time>2021-05-28T14:39:48Z</time>
      </trkpt>
      <trkpt lat="42.499839" lon="2.408677">
        <ele>1719.738</ele>
        <time>2021-05-28T14:39:50Z</time>
      </trkpt>
      <trkpt lat="42.499875" lon="2.408664">
        <ele>1719.885</ele>
        <time>2021-05-28T14:39:52Z</time>
      </trkpt>
      <trkpt lat="42.499895" lon="2.408659">
        <ele>1719.796</ele>
        <time>2021-05-28T14:39:53Z</time>
      </trkpt>
      <trkpt lat="42.499914" lon="2.408652">
        <ele>1719.715</ele>
        <time>2021-05-28T14:39:54Z</time>
      </trkpt>
      <trkpt lat="42.499933" lon="2.408646">
        <ele>1719.712</ele>
        <time>2021-05-28T14:39:55Z</time>
      </trkpt>
      <trkpt lat="42.499951" lon="2.408640">
        <ele>1719.727</ele>
        <time>2021-05-28T14:39:56Z</time>
      </trkpt>
      <trkpt lat="42.499970" lon="2.408633">
        <ele>1719.754</ele>
        <time>2021-05-28T14:39:57Z</time>
      </trkpt>
      <trkpt lat="42.499987" lon="2.408627">
        <ele>1719.862</ele>
        <time>2021-05-28T14:39:58Z</time>
      </trkpt>
      <trkpt lat="42.500019" lon="2.408618">
        <ele>1719.727</ele>
        <time>2021-05-28T14:40:01Z</time>
      </trkpt>
      <trkpt lat="42.500043" lon="2.408618">
        <ele>1719.468</ele>
        <time>2021-05-28T14:40:03Z</time>
      </trkpt>
      <trkpt lat="42.500064" lon="2.408622">
        <ele>1719.114</ele>
        <time>2021-05-28T14:40:05Z</time>
      </trkpt>
      <trkpt lat="42.500090" lon="2.408628">
        <ele>1718.808</ele>
        <time>2021-05-28T14:40:08Z</time>
      </trkpt>
      <trkpt lat="42.500097" lon="2.408653">
        <ele>1718.499</ele>
        <time>2021-05-28T14:40:10Z</time>
      </trkpt>
      <trkpt lat="42.500110" lon="2.408678">
        <ele>1717.916</ele>
        <time>2021-05-28T14:40:13Z</time>
      </trkpt>
      <trkpt lat="42.500130" lon="2.408682">
        <ele>1717.877</ele>
        <time>2021-05-28T14:40:17Z</time>
      </trkpt>
      <trkpt lat="42.500150" lon="2.408681">
        <ele>1717.786</ele>
        <time>2021-05-28T14:40:47Z</time>
      </trkpt>
      <trkpt lat="42.500139" lon="2.408708">
        <ele>1717.553</ele>
        <time>2021-05-28T14:41:10Z</time>
      </trkpt>
      <trkpt lat="42.500131" lon="2.408734">
        <ele>1717.298</ele>
        <time>2021-05-28T14:41:12Z</time>
      </trkpt>
      <trkpt lat="42.500119" lon="2.408760">
        <ele>1716.985</ele>
        <time>2021-05-28T14:41:14Z</time>
      </trkpt>
      <trkpt lat="42.500101" lon="2.408782">
        <ele>1716.623</ele>
        <time>2021-05-28T14:41:16Z</time>
      </trkpt>
      <trkpt lat="42.500081" lon="2.408805">
        <ele>1716.228</ele>
        <time>2021-05-28T14:41:18Z</time>
      </trkpt>
      <trkpt lat="42.500067" lon="2.408821">
        <ele>1715.889</ele>
        <time>2021-05-28T14:41:20Z</time>
      </trkpt>
      <trkpt lat="42.500050" lon="2.408842">
        <ele>1715.417</ele>
        <time>2021-05-28T14:41:46Z</time>
      </trkpt>
      <trkpt lat="42.500034" lon="2.408856">
        <ele>1715.008</ele>
        <time>2021-05-28T14:42:01Z</time>
      </trkpt>
      <trkpt lat="42.500011" lon="2.408866">
        <ele>1714.699</ele>
        <time>2021-05-28T14:42:04Z</time>
      </trkpt>
      <trkpt lat="42.499988" lon="2.408877">
        <ele>1714.396</ele>
        <time>2021-05-28T14:42:06Z</time>
      </trkpt>
      <trkpt lat="42.499968" lon="2.408886">
        <ele>1714.347</ele>
        <time>2021-05-28T14:42:08Z</time>
      </trkpt>
      <trkpt lat="42.499948" lon="2.408891">
        <ele>1714.396</ele>
        <time>2021-05-28T14:42:10Z</time>
      </trkpt>
      <trkpt lat="42.499929" lon="2.408899">
        <ele>1714.233</ele>
        <time>2021-05-28T14:42:12Z</time>
      </trkpt>
      <trkpt lat="42.499908" lon="2.408905">
        <ele>1714.148</ele>
        <time>2021-05-28T14:42:14Z</time>
      </trkpt>
      <trkpt lat="42.499889" lon="2.408916">
        <ele>1713.915</ele>
        <time>2021-05-28T14:42:16Z</time>
      </trkpt>
      <trkpt lat="42.499868" lon="2.408928">
        <ele>1713.683</ele>
        <time>2021-05-28T14:42:18Z</time>
      </trkpt>
      <trkpt lat="42.499848" lon="2.408933">
        <ele>1713.614</ele>
        <time>2021-05-28T14:42:20Z</time>
      </trkpt>
      <trkpt lat="42.499826" lon="2.408937">
        <ele>1713.554</ele>
        <time>2021-05-28T14:42:22Z</time>
      </trkpt>
      <trkpt lat="42.499808" lon="2.408947">
        <ele>1713.309</ele>
        <time>2021-05-28T14:42:24Z</time>
      </trkpt>
      <trkpt lat="42.499786" lon="2.408959">
        <ele>1712.908</ele>
        <time>2021-05-28T14:42:26Z</time>
      </trkpt>
      <trkpt lat="42.499766" lon="2.408967">
        <ele>1712.718</ele>
        <time>2021-05-28T14:42:28Z</time>
      </trkpt>
      <trkpt lat="42.499746" lon="2.408976">
        <ele>1712.555</ele>
        <time>2021-05-28T14:42:30Z</time>
      </trkpt>
      <trkpt lat="42.499724" lon="2.408985">
        <ele>1712.296</ele>
        <time>2021-05-28T14:42:33Z</time>
      </trkpt>
      <trkpt lat="42.499704" lon="2.408971">
        <ele>1713.095</ele>
        <time>2021-05-28T14:42:47Z</time>
      </trkpt>
      <trkpt lat="42.499685" lon="2.408960">
        <ele>1713.682</ele>
        <time>2021-05-28T14:42:49Z</time>
      </trkpt>
      <trkpt lat="42.499666" lon="2.408959">
        <ele>1713.997</ele>
        <time>2021-05-28T14:43:35Z</time>
      </trkpt>
      <trkpt lat="42.499648" lon="2.408972">
        <ele>1713.644</ele>
        <time>2021-05-28T14:43:56Z</time>
      </trkpt>
      <trkpt lat="42.499629" lon="2.408977">
        <ele>1713.632</ele>
        <time>2021-05-28T14:44:04Z</time>
      </trkpt>
      <trkpt lat="42.499610" lon="2.408983">
        <ele>1713.656</ele>
        <time>2021-05-28T14:44:07Z</time>
      </trkpt>
      <trkpt lat="42.499589" lon="2.408993">
        <ele>1713.559</ele>
        <time>2021-05-28T14:44:11Z</time>
      </trkpt>
      <trkpt lat="42.499562" lon="2.409003">
        <ele>1713.414</ele>
        <time>2021-05-28T14:44:14Z</time>
      </trkpt>
      <trkpt lat="42.499537" lon="2.409023">
        <ele>1713.008</ele>
        <time>2021-05-28T14:44:16Z</time>
      </trkpt>
      <trkpt lat="42.499463" lon="2.409096">
        <ele>1711.342</ele>
        <time>2021-05-28T14:44:38Z</time>
      </trkpt>
      <trkpt lat="42.499370" lon="2.409106">
        <ele>1712.039</ele>
        <time>2021-05-28T14:44:43Z</time>
      </trkpt>
      <trkpt lat="42.499279" lon="2.409129">
        <ele>1712.220</ele>
        <time>2021-05-28T14:44:48Z</time>
      </trkpt>
      <trkpt lat="42.499176" lon="2.409141">
        <ele>1712.949</ele>
        <time>2021-05-28T14:44:52Z</time>
      </trkpt>
      <trkpt lat="42.499100" lon="2.409208">
        <ele>1710.886</ele>
        <time>2021-05-28T14:45:00Z</time>
      </trkpt>
      <trkpt lat="42.499012" lon="2.409242">
        <ele>1710.371</ele>
        <time>2021-05-28T14:45:09Z</time>
      </trkpt>
      <trkpt lat="42.498912" lon="2.409286">
        <ele>1709.638</ele>
        <time>2021-05-28T14:45:14Z</time>
      </trkpt>
      <trkpt lat="42.498817" lon="2.409318">
        <ele>1709.396</ele>
        <time>2021-05-28T14:45:18Z</time>
      </trkpt>
      <trkpt lat="42.498720" lon="2.409359">
        <ele>1708.795</ele>
        <time>2021-05-28T14:45:23Z</time>
      </trkpt>
      <trkpt lat="42.498633" lon="2.409416">
        <ele>1707.749</ele>
        <time>2021-05-28T14:45:29Z</time>
      </trkpt>
      <trkpt lat="42.498553" lon="2.409472">
        <ele>1707.323</ele>
        <time>2021-05-28T14:45:35Z</time>
      </trkpt>
      <trkpt lat="42.498503" lon="2.409504">
        <ele>1707.408</ele>
        <time>2021-05-28T14:45:39Z</time>
      </trkpt>
      <trkpt lat="42.498431" lon="2.409577">
        <ele>1706.786</ele>
        <time>2021-05-28T14:45:43Z</time>
      </trkpt>
      <trkpt lat="42.498364" lon="2.409672">
        <ele>1705.613</ele>
        <time>2021-05-28T14:45:49Z</time>
      </trkpt>
      <trkpt lat="42.498275" lon="2.409741">
        <ele>1706.824</ele>
        <time>2021-05-28T14:45:53Z</time>
      </trkpt>
      <trkpt lat="42.498196" lon="2.409858">
        <ele>1707.043</ele>
        <time>2021-05-28T14:45:59Z</time>
      </trkpt>
      <trkpt lat="42.498121" lon="2.409945">
        <ele>1707.850</ele>
        <time>2021-05-28T14:46:08Z</time>
      </trkpt>
      <trkpt lat="42.498094" lon="2.410072">
        <ele>1705.285</ele>
        <time>2021-05-28T14:46:15Z</time>
      </trkpt>
      <trkpt lat="42.498017" lon="2.410169">
        <ele>1705.242</ele>
        <time>2021-05-28T14:46:25Z</time>
      </trkpt>
      <trkpt lat="42.497970" lon="2.410281">
        <ele>1703.940</ele>
        <time>2021-05-28T14:46:30Z</time>
      </trkpt>
      <trkpt lat="42.497919" lon="2.410406">
        <ele>1702.531</ele>
        <time>2021-05-28T14:46:37Z</time>
      </trkpt>
      <trkpt lat="42.497863" lon="2.410519">
        <ele>1701.861</ele>
        <time>2021-05-28T14:46:41Z</time>
      </trkpt>
      <trkpt lat="42.497789" lon="2.410600">
        <ele>1703.207</ele>
        <time>2021-05-28T14:46:46Z</time>
      </trkpt>
      <trkpt lat="42.497715" lon="2.410702">
        <ele>1703.508</ele>
        <time>2021-05-28T14:46:50Z</time>
      </trkpt>
      <trkpt lat="42.497655" lon="2.410794">
        <ele>1703.870</ele>
        <time>2021-05-28T14:46:55Z</time>
      </trkpt>
      <trkpt lat="42.497598" lon="2.410907">
        <ele>1703.767</ele>
        <time>2021-05-28T14:47:00Z</time>
      </trkpt>
      <trkpt lat="42.497550" lon="2.411028">
        <ele>1702.938</ele>
        <time>2021-05-28T14:47:07Z</time>
      </trkpt>
      <trkpt lat="42.497495" lon="2.411125">
        <ele>1702.787</ele>
        <time>2021-05-28T14:47:11Z</time>
      </trkpt>
      <trkpt lat="42.497417" lon="2.411225">
        <ele>1702.124</ele>
        <time>2021-05-28T14:47:16Z</time>
      </trkpt>
      <trkpt lat="42.497359" lon="2.411343">
        <ele>1700.439</ele>
        <time>2021-05-28T14:47:20Z</time>
      </trkpt>
      <trkpt lat="42.497293" lon="2.411455">
        <ele>1698.596</ele>
        <time>2021-05-28T14:47:24Z</time>
      </trkpt>
      <trkpt lat="42.497200" lon="2.411497">
        <ele>1697.754</ele>
        <time>2021-05-28T14:47:30Z</time>
      </trkpt>
      <trkpt lat="42.497127" lon="2.411420">
        <ele>1697.888</ele>
        <time>2021-05-28T14:47:37Z</time>
      </trkpt>
      <trkpt lat="42.497021" lon="2.411385">
        <ele>1695.224</ele>
        <time>2021-05-28T14:47:42Z</time>
      </trkpt>
      <trkpt lat="42.496927" lon="2.411306">
        <ele>1695.126</ele>
        <time>2021-05-28T14:47:47Z</time>
      </trkpt>
      <trkpt lat="42.496837" lon="2.411242">
        <ele>1694.108</ele>
        <time>2021-05-28T14:47:53Z</time>
      </trkpt>
      <trkpt lat="42.496741" lon="2.411201">
        <ele>1692.065</ele>
        <time>2021-05-28T14:48:01Z</time>
      </trkpt>
      <trkpt lat="42.496658" lon="2.411142">
        <ele>1691.842</ele>
        <time>2021-05-28T14:48:08Z</time>
      </trkpt>
      <trkpt lat="42.496556" lon="2.411093">
        <ele>1688.933</ele>
        <time>2021-05-28T14:48:19Z</time>
      </trkpt>
      <trkpt lat="42.496467" lon="2.411024">
        <ele>1687.932</ele>
        <time>2021-05-28T14:48:24Z</time>
      </trkpt>
      <trkpt lat="42.496388" lon="2.410954">
        <ele>1688.029</ele>
        <time>2021-05-28T14:48:31Z</time>
      </trkpt>
      <trkpt lat="42.496325" lon="2.410846">
        <ele>1692.074</ele>
        <time>2021-05-28T14:48:38Z</time>
      </trkpt>
      <trkpt lat="42.496230" lon="2.410799">
        <ele>1691.051</ele>
        <time>2021-05-28T14:48:43Z</time>
      </trkpt>
      <trkpt lat="42.496141" lon="2.410782">
        <ele>1688.839</ele>
        <time>2021-05-28T14:48:47Z</time>
      </trkpt>
      <trkpt lat="42.496034" lon="2.410736">
        <ele>1689.172</ele>
        <time>2021-05-28T14:48:51Z</time>
      </trkpt>
      <trkpt lat="42.495935" lon="2.410690">
        <ele>1690.213</ele>
        <time>2021-05-28T14:48:57Z</time>
      </trkpt>
      <trkpt lat="42.495847" lon="2.410645">
        <ele>1691.414</ele>
        <time>2021-05-28T14:49:03Z</time>
      </trkpt>
      <trkpt lat="42.495751" lon="2.410636">
        <ele>1691.808</ele>
        <time>2021-05-28T14:49:07Z</time>
      </trkpt>
      <trkpt lat="42.495655" lon="2.410621">
        <ele>1692.814</ele>
        <time>2021-05-28T14:49:11Z</time>
      </trkpt>
      <trkpt lat="42.495565" lon="2.410649">
        <ele>1691.351</ele>
        <time>2021-05-28T14:49:14Z</time>
      </trkpt>
      <trkpt lat="42.495472" lon="2.410719">
        <ele>1688.662</ele>
        <time>2021-05-28T14:49:19Z</time>
      </trkpt>
      <trkpt lat="42.495390" lon="2.410786">
        <ele>1686.041</ele>
        <time>2021-05-28T14:49:24Z</time>
      </trkpt>
      <trkpt lat="42.495308" lon="2.410841">
        <ele>1684.278</ele>
        <time>2021-05-28T14:49:29Z</time>
      </trkpt>
      <trkpt lat="42.495213" lon="2.410893">
        <ele>1685.243</ele>
        <time>2021-05-28T14:49:35Z</time>
      </trkpt>
      <trkpt lat="42.495108" lon="2.410948">
        <ele>1686.690</ele>
        <time>2021-05-28T14:49:39Z</time>
      </trkpt>
      <trkpt lat="42.495042" lon="2.411037">
        <ele>1685.038</ele>
        <time>2021-05-28T14:49:45Z</time>
      </trkpt>
      <trkpt lat="42.494968" lon="2.411113">
        <ele>1683.961</ele>
        <time>2021-05-28T14:50:00Z</time>
      </trkpt>
      <trkpt lat="42.494888" lon="2.411167">
        <ele>1685.921</ele>
        <time>2021-05-28T14:50:10Z</time>
      </trkpt>
      <trkpt lat="42.494798" lon="2.411217">
        <ele>1687.913</ele>
        <time>2021-05-28T14:50:15Z</time>
      </trkpt>
      <trkpt lat="42.494698" lon="2.411241">
        <ele>1690.108</ele>
        <time>2021-05-28T14:50:22Z</time>
      </trkpt>
      <trkpt lat="42.494633" lon="2.411330">
        <ele>1689.663</ele>
        <time>2021-05-28T14:50:27Z</time>
      </trkpt>
      <trkpt lat="42.494537" lon="2.411376">
        <ele>1689.160</ele>
        <time>2021-05-28T14:50:34Z</time>
      </trkpt>
      <trkpt lat="42.494504" lon="2.411492">
        <ele>1691.051</ele>
        <time>2021-05-28T14:50:48Z</time>
      </trkpt>
      <trkpt lat="42.494574" lon="2.411590">
        <ele>1692.990</ele>
        <time>2021-05-28T14:51:22Z</time>
      </trkpt>
      <trkpt lat="42.494641" lon="2.411675">
        <ele>1694.877</ele>
        <time>2021-05-28T14:51:29Z</time>
      </trkpt>
      <trkpt lat="42.494643" lon="2.411546">
        <ele>1691.792</ele>
        <time>2021-05-28T14:51:41Z</time>
      </trkpt>
      <trkpt lat="42.494726" lon="2.411488">
        <ele>1690.119</ele>
        <time>2021-05-28T14:51:47Z</time>
      </trkpt>
      <trkpt lat="42.494828" lon="2.411513">
        <ele>1689.877</ele>
        <time>2021-05-28T14:51:54Z</time>
      </trkpt>
      <trkpt lat="42.494916" lon="2.411564">
        <ele>1691.175</ele>
        <time>2021-05-28T14:51:59Z</time>
      </trkpt>
      <trkpt lat="42.494991" lon="2.411492">
        <ele>1687.328</ele>
        <time>2021-05-28T14:52:11Z</time>
      </trkpt>
      <trkpt lat="42.495091" lon="2.411534">
        <ele>1689.020</ele>
        <time>2021-05-28T14:52:18Z</time>
      </trkpt>
      <trkpt lat="42.495189" lon="2.411623">
        <ele>1693.608</ele>
        <time>2021-05-28T14:52:20Z</time>
      </trkpt>
      <trkpt lat="42.495282" lon="2.411647">
        <ele>1694.884</ele>
        <time>2021-05-28T14:52:27Z</time>
      </trkpt>
      <trkpt lat="42.495358" lon="2.411714">
        <ele>1695.831</ele>
        <time>2021-05-28T14:52:33Z</time>
      </trkpt>
      <trkpt lat="42.495429" lon="2.411795">
        <ele>1696.732</ele>
        <time>2021-05-28T14:52:38Z</time>
      </trkpt>
      <trkpt lat="42.495487" lon="2.411893">
        <ele>1698.011</ele>
        <time>2021-05-28T14:52:47Z</time>
      </trkpt>
      <trkpt lat="42.495538" lon="2.411997">
        <ele>1699.028</ele>
        <time>2021-05-28T14:52:52Z</time>
      </trkpt>
      <trkpt lat="42.495535" lon="2.412122">
        <ele>1702.393</ele>
        <time>2021-05-28T14:53:01Z</time>
      </trkpt>
      <trkpt lat="42.495587" lon="2.412233">
        <ele>1702.420</ele>
        <time>2021-05-28T14:53:07Z</time>
      </trkpt>
      <trkpt lat="42.495627" lon="2.412360">
        <ele>1702.418</ele>
        <time>2021-05-28T14:53:15Z</time>
      </trkpt>
      <trkpt lat="42.495615" lon="2.412484">
        <ele>1705.374</ele>
        <time>2021-05-28T14:53:24Z</time>
      </trkpt>
      <trkpt lat="42.495630" lon="2.412614">
        <ele>1706.856</ele>
        <time>2021-05-28T14:53:32Z</time>
      </trkpt>
      <trkpt lat="42.495627" lon="2.412737">
        <ele>1709.221</ele>
        <time>2021-05-28T14:53:40Z</time>
      </trkpt>
      <trkpt lat="42.495626" lon="2.412862">
        <ele>1711.508</ele>
        <time>2021-05-28T14:53:49Z</time>
      </trkpt>
      <trkpt lat="42.495645" lon="2.412990">
        <ele>1712.724</ele>
        <time>2021-05-28T14:53:57Z</time>
      </trkpt>
      <trkpt lat="42.495684" lon="2.413111">
        <ele>1712.831</ele>
        <time>2021-05-28T14:54:04Z</time>
      </trkpt>
      <trkpt lat="42.495694" lon="2.413236">
        <ele>1714.912</ele>
        <time>2021-05-28T14:54:12Z</time>
      </trkpt>
      <trkpt lat="42.495724" lon="2.413371">
        <ele>1716.261</ele>
        <time>2021-05-28T14:54:21Z</time>
      </trkpt>
      <trkpt lat="42.495753" lon="2.413457">
        <ele>1716.728</ele>
        <time>2021-05-28T14:54:27Z</time>
      </trkpt>
      <trkpt lat="42.495775" lon="2.413588">
        <ele>1718.833</ele>
        <time>2021-05-28T14:54:36Z</time>
      </trkpt>
      <trkpt lat="42.495824" lon="2.413696">
        <ele>1718.730</ele>
        <time>2021-05-28T14:54:43Z</time>
      </trkpt>
      <trkpt lat="42.495862" lon="2.413816">
        <ele>1719.588</ele>
        <time>2021-05-28T14:54:51Z</time>
      </trkpt>
      <trkpt lat="42.495845" lon="2.413943">
        <ele>1723.515</ele>
        <time>2021-05-28T14:55:00Z</time>
      </trkpt>
      <trkpt lat="42.495865" lon="2.413972">
        <ele>1722.965</ele>
        <time>2021-05-28T14:55:03Z</time>
      </trkpt>
      <trkpt lat="42.495875" lon="2.413999">
        <ele>1722.911</ele>
        <time>2021-05-28T14:55:05Z</time>
      </trkpt>
      <trkpt lat="42.495883" lon="2.414022">
        <ele>1722.908</ele>
        <time>2021-05-28T14:55:06Z</time>
      </trkpt>
      <trkpt lat="42.495894" lon="2.414049">
        <ele>1722.888</ele>
        <time>2021-05-28T14:55:08Z</time>
      </trkpt>
      <trkpt lat="42.495909" lon="2.414088">
        <ele>1722.745</ele>
        <time>2021-05-28T14:55:11Z</time>
      </trkpt>
      <trkpt lat="42.495914" lon="2.414120">
        <ele>1723.136</ele>
        <time>2021-05-28T14:55:13Z</time>
      </trkpt>
      <trkpt lat="42.495931" lon="2.414249">
        <ele>1724.785</ele>
        <time>2021-05-28T14:55:23Z</time>
      </trkpt>
      <trkpt lat="42.495928" lon="2.414381">
        <ele>1727.652</ele>
        <time>2021-05-28T14:55:32Z</time>
      </trkpt>
      <trkpt lat="42.495923" lon="2.414504">
        <ele>1730.947</ele>
        <time>2021-05-28T14:55:41Z</time>
      </trkpt>
      <trkpt lat="42.495997" lon="2.414588">
        <ele>1729.774</ele>
        <time>2021-05-28T14:55:49Z</time>
      </trkpt>
      <trkpt lat="42.496086" lon="2.414639">
        <ele>1727.272</ele>
        <time>2021-05-28T14:55:59Z</time>
      </trkpt>
      <trkpt lat="42.496144" lon="2.414753">
        <ele>1729.031</ele>
        <time>2021-05-28T14:56:08Z</time>
      </trkpt>
      <trkpt lat="42.496220" lon="2.414855">
        <ele>1730.261</ele>
        <time>2021-05-28T14:56:13Z</time>
      </trkpt>
      <trkpt lat="42.496285" lon="2.414959">
        <ele>1731.607</ele>
        <time>2021-05-28T14:56:19Z</time>
      </trkpt>
      <trkpt lat="42.496336" lon="2.415060">
        <ele>1733.208</ele>
        <time>2021-05-28T14:56:25Z</time>
      </trkpt>
      <trkpt lat="42.496392" lon="2.415156">
        <ele>1734.570</ele>
        <time>2021-05-28T14:56:32Z</time>
      </trkpt>
      <trkpt lat="42.496462" lon="2.415238">
        <ele>1735.287</ele>
        <time>2021-05-28T14:56:40Z</time>
      </trkpt>
      <trkpt lat="42.496521" lon="2.415331">
        <ele>1737.298</ele>
        <time>2021-05-28T14:56:46Z</time>
      </trkpt>
      <trkpt lat="42.496565" lon="2.415441">
        <ele>1740.897</ele>
        <time>2021-05-28T14:56:58Z</time>
      </trkpt>
      <trkpt lat="42.496644" lon="2.415527">
        <ele>1741.654</ele>
        <time>2021-05-28T14:57:11Z</time>
      </trkpt>
      <trkpt lat="42.496725" lon="2.415597">
        <ele>1742.219</ele>
        <time>2021-05-28T14:57:18Z</time>
      </trkpt>
      <trkpt lat="42.496795" lon="2.415683">
        <ele>1744.156</ele>
        <time>2021-05-28T14:57:31Z</time>
      </trkpt>
      <trkpt lat="42.496873" lon="2.415762">
        <ele>1745.254</ele>
        <time>2021-05-28T14:57:37Z</time>
      </trkpt>
      <trkpt lat="42.496938" lon="2.415849">
        <ele>1746.978</ele>
        <time>2021-05-28T14:57:43Z</time>
      </trkpt>
      <trkpt lat="42.497024" lon="2.415913">
        <ele>1747.433</ele>
        <time>2021-05-28T14:57:52Z</time>
      </trkpt>
      <trkpt lat="42.497098" lon="2.416000">
        <ele>1749.326</ele>
        <time>2021-05-28T14:58:01Z</time>
      </trkpt>
      <trkpt lat="42.497176" lon="2.416069">
        <ele>1750.308</ele>
        <time>2021-05-28T14:58:09Z</time>
      </trkpt>
      <trkpt lat="42.497266" lon="2.416075">
        <ele>1748.044</ele>
        <time>2021-05-28T14:58:20Z</time>
      </trkpt>
      <trkpt lat="42.497338" lon="2.416151">
        <ele>1748.961</ele>
        <time>2021-05-28T14:58:27Z</time>
      </trkpt>
      <trkpt lat="42.497404" lon="2.416234">
        <ele>1750.382</ele>
        <time>2021-05-28T14:58:31Z</time>
      </trkpt>
      <trkpt lat="42.497469" lon="2.416338">
        <ele>1752.751</ele>
        <time>2021-05-28T14:58:37Z</time>
      </trkpt>
      <trkpt lat="42.497530" lon="2.416447">
        <ele>1753.738</ele>
        <time>2021-05-28T14:58:43Z</time>
      </trkpt>
      <trkpt lat="42.497528" lon="2.416585">
        <ele>1756.643</ele>
        <time>2021-05-28T14:58:53Z</time>
      </trkpt>
      <trkpt lat="42.497538" lon="2.416714">
        <ele>1757.940</ele>
        <time>2021-05-28T14:58:59Z</time>
      </trkpt>
      <trkpt lat="42.497566" lon="2.416838">
        <ele>1756.728</ele>
        <time>2021-05-28T14:59:05Z</time>
      </trkpt>
      <trkpt lat="42.497552" lon="2.416971">
        <ele>1758.238</ele>
        <time>2021-05-28T14:59:15Z</time>
      </trkpt>
      <trkpt lat="42.497495" lon="2.417068">
        <ele>1762.070</ele>
        <time>2021-05-28T14:59:21Z</time>
      </trkpt>
      <trkpt lat="42.497484" lon="2.417206">
        <ele>1761.417</ele>
        <time>2021-05-28T14:59:30Z</time>
      </trkpt>
      <trkpt lat="42.497499" lon="2.417327">
        <ele>1757.808</ele>
        <time>2021-05-28T14:59:35Z</time>
      </trkpt>
      <trkpt lat="42.497501" lon="2.417461">
        <ele>1754.840</ele>
        <time>2021-05-28T14:59:45Z</time>
      </trkpt>
      <trkpt lat="42.497456" lon="2.417581">
        <ele>1755.767</ele>
        <time>2021-05-28T14:59:53Z</time>
      </trkpt>
      <trkpt lat="42.497415" lon="2.417693">
        <ele>1756.658</ele>
        <time>2021-05-28T15:00:00Z</time>
      </trkpt>
      <trkpt lat="42.497342" lon="2.417780">
        <ele>1760.327</ele>
        <time>2021-05-28T15:00:09Z</time>
      </trkpt>
      <trkpt lat="42.497299" lon="2.417908">
        <ele>1761.964</ele>
        <time>2021-05-28T15:00:18Z</time>
      </trkpt>
      <trkpt lat="42.497275" lon="2.418046">
        <ele>1762.199</ele>
        <time>2021-05-28T15:00:26Z</time>
      </trkpt>
      <trkpt lat="42.497222" lon="2.418152">
        <ele>1765.036</ele>
        <time>2021-05-28T15:00:37Z</time>
      </trkpt>
      <trkpt lat="42.497169" lon="2.418261">
        <ele>1767.554</ele>
        <time>2021-05-28T15:00:45Z</time>
      </trkpt>
      <trkpt lat="42.497168" lon="2.418387">
        <ele>1765.916</ele>
        <time>2021-05-28T15:00:54Z</time>
      </trkpt>
      <trkpt lat="42.497133" lon="2.418499">
        <ele>1766.276</ele>
        <time>2021-05-28T15:01:01Z</time>
      </trkpt>
      <trkpt lat="42.497113" lon="2.418524">
        <ele>1767.213</ele>
        <time>2021-05-28T15:01:03Z</time>
      </trkpt>
      <trkpt lat="42.497100" lon="2.418542">
        <ele>1767.708</ele>
        <time>2021-05-28T15:01:05Z</time>
      </trkpt>
      <trkpt lat="42.497089" lon="2.418564">
        <ele>1768.068</ele>
        <time>2021-05-28T15:01:07Z</time>
      </trkpt>
      <trkpt lat="42.497061" lon="2.418446">
        <ele>1772.355</ele>
        <time>2021-05-28T15:01:23Z</time>
      </trkpt>
      <trkpt lat="42.497059" lon="2.418312">
        <ele>1774.986</ele>
        <time>2021-05-28T15:01:33Z</time>
      </trkpt>
      <trkpt lat="42.497021" lon="2.418198">
        <ele>1778.265</ele>
        <time>2021-05-28T15:01:39Z</time>
      </trkpt>
      <trkpt lat="42.497046" lon="2.418069">
        <ele>1777.352</ele>
        <time>2021-05-28T15:01:48Z</time>
      </trkpt>
      <trkpt lat="42.497047" lon="2.417929">
        <ele>1778.147</ele>
        <time>2021-05-28T15:01:55Z</time>
      </trkpt>
      <trkpt lat="42.497037" lon="2.417808">
        <ele>1779.574</ele>
        <time>2021-05-28T15:02:03Z</time>
      </trkpt>
      <trkpt lat="42.497043" lon="2.417686">
        <ele>1781.222</ele>
        <time>2021-05-28T15:02:11Z</time>
      </trkpt>
      <trkpt lat="42.496986" lon="2.417792">
        <ele>1782.589</ele>
        <time>2021-05-28T15:02:28Z</time>
      </trkpt>
      <trkpt lat="42.496968" lon="2.417912">
        <ele>1783.106</ele>
        <time>2021-05-28T15:02:38Z</time>
      </trkpt>
      <trkpt lat="42.496945" lon="2.418038">
        <ele>1784.026</ele>
        <time>2021-05-28T15:02:47Z</time>
      </trkpt>
      <trkpt lat="42.496917" lon="2.418168">
        <ele>1785.408</ele>
        <time>2021-05-28T15:02:56Z</time>
      </trkpt>
      <trkpt lat="42.496884" lon="2.418298">
        <ele>1787.155</ele>
        <time>2021-05-28T15:03:04Z</time>
      </trkpt>
      <trkpt lat="42.496843" lon="2.418429">
        <ele>1787.662</ele>
        <time>2021-05-28T15:03:15Z</time>
      </trkpt>
      <trkpt lat="42.496776" lon="2.418528">
        <ele>1790.153</ele>
        <time>2021-05-28T15:03:23Z</time>
      </trkpt>
      <trkpt lat="42.496699" lon="2.418614">
        <ele>1793.732</ele>
        <time>2021-05-28T15:03:30Z</time>
      </trkpt>
      <trkpt lat="42.496619" lon="2.418675">
        <ele>1797.479</ele>
        <time>2021-05-28T15:03:37Z</time>
      </trkpt>
      <trkpt lat="42.496527" lon="2.418711">
        <ele>1803.254</ele>
        <time>2021-05-28T15:03:48Z</time>
      </trkpt>
      <trkpt lat="42.496522" lon="2.418756">
        <ele>1802.391</ele>
        <time>2021-05-28T15:03:51Z</time>
      </trkpt>
      <trkpt lat="42.496502" lon="2.418805">
        <ele>1802.439</ele>
        <time>2021-05-28T15:03:56Z</time>
      </trkpt>
      <trkpt lat="42.496485" lon="2.418816">
        <ele>1803.436</ele>
        <time>2021-05-28T15:03:59Z</time>
      </trkpt>
      <trkpt lat="42.496472" lon="2.418838">
        <ele>1803.817</ele>
        <time>2021-05-28T15:04:01Z</time>
      </trkpt>
      <trkpt lat="42.496457" lon="2.418873">
        <ele>1804.018</ele>
        <time>2021-05-28T15:04:04Z</time>
      </trkpt>
      <trkpt lat="42.496442" lon="2.418889">
        <ele>1804.808</ele>
        <time>2021-05-28T15:04:06Z</time>
      </trkpt>
      <trkpt lat="42.496426" lon="2.418904">
        <ele>1805.770</ele>
        <time>2021-05-28T15:04:07Z</time>
      </trkpt>
      <trkpt lat="42.496401" lon="2.418930">
        <ele>1806.837</ele>
        <time>2021-05-28T15:04:10Z</time>
      </trkpt>
      <trkpt lat="42.496384" lon="2.418959">
        <ele>1807.218</ele>
        <time>2021-05-28T15:04:14Z</time>
      </trkpt>
      <trkpt lat="42.496358" lon="2.418994">
        <ele>1808.387</ele>
        <time>2021-05-28T15:04:17Z</time>
      </trkpt>
      <trkpt lat="42.496318" lon="2.419035">
        <ele>1810.774</ele>
        <time>2021-05-28T15:04:25Z</time>
      </trkpt>
      <trkpt lat="42.496250" lon="2.419129">
        <ele>1814.119</ele>
        <time>2021-05-28T15:04:36Z</time>
      </trkpt>
      <trkpt lat="42.496246" lon="2.419252">
        <ele>1812.496</ele>
        <time>2021-05-28T15:04:41Z</time>
      </trkpt>
      <trkpt lat="42.496218" lon="2.419282">
        <ele>1814.034</ele>
        <time>2021-05-28T15:04:44Z</time>
      </trkpt>
      <trkpt lat="42.496182" lon="2.419321">
        <ele>1815.565</ele>
        <time>2021-05-28T15:04:49Z</time>
      </trkpt>
      <trkpt lat="42.496114" lon="2.419406">
        <ele>1816.468</ele>
        <time>2021-05-28T15:04:58Z</time>
      </trkpt>
      <trkpt lat="42.496099" lon="2.419426">
        <ele>1816.814</ele>
        <time>2021-05-28T15:05:02Z</time>
      </trkpt>
      <trkpt lat="42.496086" lon="2.419444">
        <ele>1817.308</ele>
        <time>2021-05-28T15:05:05Z</time>
      </trkpt>
      <trkpt lat="42.496080" lon="2.419469">
        <ele>1817.743</ele>
        <time>2021-05-28T15:05:07Z</time>
      </trkpt>
      <trkpt lat="42.496078" lon="2.419506">
        <ele>1817.820</ele>
        <time>2021-05-28T15:05:08Z</time>
      </trkpt>
      <trkpt lat="42.496080" lon="2.419532">
        <ele>1817.691</ele>
        <time>2021-05-28T15:05:10Z</time>
      </trkpt>
      <trkpt lat="42.496075" lon="2.419564">
        <ele>1817.980</ele>
        <time>2021-05-28T15:05:13Z</time>
      </trkpt>
      <trkpt lat="42.496064" lon="2.419588">
        <ele>1818.717</ele>
        <time>2021-05-28T15:05:15Z</time>
      </trkpt>
      <trkpt lat="42.496048" lon="2.419605">
        <ele>1819.942</ele>
        <time>2021-05-28T15:05:17Z</time>
      </trkpt>
      <trkpt lat="42.496030" lon="2.419624">
        <ele>1821.299</ele>
        <time>2021-05-28T15:05:19Z</time>
      </trkpt>
      <trkpt lat="42.496015" lon="2.419652">
        <ele>1822.197</ele>
        <time>2021-05-28T15:05:21Z</time>
      </trkpt>
      <trkpt lat="42.496007" lon="2.419691">
        <ele>1822.479</ele>
        <time>2021-05-28T15:05:23Z</time>
      </trkpt>
      <trkpt lat="42.495988" lon="2.419720">
        <ele>1823.405</ele>
        <time>2021-05-28T15:05:25Z</time>
      </trkpt>
      <trkpt lat="42.495972" lon="2.419733">
        <ele>1824.925</ele>
        <time>2021-05-28T15:05:27Z</time>
      </trkpt>
      <trkpt lat="42.495956" lon="2.419753">
        <ele>1826.608</ele>
        <time>2021-05-28T15:05:29Z</time>
      </trkpt>
      <trkpt lat="42.495934" lon="2.419774">
        <ele>1828.484</ele>
        <time>2021-05-28T15:05:31Z</time>
      </trkpt>
      <trkpt lat="42.495933" lon="2.419800">
        <ele>1829.081</ele>
        <time>2021-05-28T15:05:35Z</time>
      </trkpt>
      <trkpt lat="42.495954" lon="2.419792">
        <ele>1827.972</ele>
        <time>2021-05-28T15:05:37Z</time>
      </trkpt>
      <trkpt lat="42.495951" lon="2.419669">
        <ele>1826.691</ele>
        <time>2021-05-28T15:05:50Z</time>
      </trkpt>
      <trkpt lat="42.496032" lon="2.419589">
        <ele>1821.288</ele>
        <time>2021-05-28T15:05:59Z</time>
      </trkpt>
      <trkpt lat="42.496082" lon="2.419470">
        <ele>1817.643</ele>
        <time>2021-05-28T15:06:08Z</time>
      </trkpt>
      <trkpt lat="42.496175" lon="2.419493">
        <ele>1813.420</ele>
        <time>2021-05-28T15:06:13Z</time>
      </trkpt>
      <trkpt lat="42.496257" lon="2.419563">
        <ele>1813.858</ele>
        <time>2021-05-28T15:06:19Z</time>
      </trkpt>
      <trkpt lat="42.496340" lon="2.419612">
        <ele>1815.732</ele>
        <time>2021-05-28T15:06:23Z</time>
      </trkpt>
      <trkpt lat="42.496410" lon="2.419688">
        <ele>1821.192</ele>
        <time>2021-05-28T15:06:28Z</time>
      </trkpt>
      <trkpt lat="42.496514" lon="2.419703">
        <ele>1823.711</ele>
        <time>2021-05-28T15:06:36Z</time>
      </trkpt>
      <trkpt lat="42.496585" lon="2.419775">
        <ele>1828.108</ele>
        <time>2021-05-28T15:06:44Z</time>
      </trkpt>
      <trkpt lat="42.496603" lon="2.419770">
        <ele>1828.070</ele>
        <time>2021-05-28T15:06:53Z</time>
      </trkpt>
      <trkpt lat="42.496602" lon="2.419796">
        <ele>1829.167</ele>
        <time>2021-05-28T15:07:11Z</time>
      </trkpt>
      <trkpt lat="42.496612" lon="2.419831">
        <ele>1830.658</ele>
        <time>2021-05-28T15:07:15Z</time>
      </trkpt>
      <trkpt lat="42.496633" lon="2.419851">
        <ele>1831.527</ele>
        <time>2021-05-28T15:07:19Z</time>
      </trkpt>
      <trkpt lat="42.496651" lon="2.419873">
        <ele>1832.454</ele>
        <time>2021-05-28T15:07:22Z</time>
      </trkpt>
      <trkpt lat="42.496662" lon="2.419893">
        <ele>1833.169</ele>
        <time>2021-05-28T15:07:25Z</time>
      </trkpt>
      <trkpt lat="42.496674" lon="2.419911">
        <ele>1833.786</ele>
        <time>2021-05-28T15:07:27Z</time>
      </trkpt>
      <trkpt lat="42.496693" lon="2.419912">
        <ele>1833.414</ele>
        <time>2021-05-28T15:07:28Z</time>
      </trkpt>
      <trkpt lat="42.496714" lon="2.419928">
        <ele>1833.672</ele>
        <time>2021-05-28T15:07:31Z</time>
      </trkpt>
      <trkpt lat="42.496728" lon="2.419945">
        <ele>1833.913</ele>
        <time>2021-05-28T15:07:32Z</time>
      </trkpt>
      <trkpt lat="42.496751" lon="2.419966">
        <ele>1834.314</ele>
        <time>2021-05-28T15:07:33Z</time>
      </trkpt>
      <trkpt lat="42.496766" lon="2.419985">
        <ele>1834.708</ele>
        <time>2021-05-28T15:07:37Z</time>
      </trkpt>
      <trkpt lat="42.496783" lon="2.419994">
        <ele>1834.714</ele>
        <time>2021-05-28T15:07:39Z</time>
      </trkpt>
      <trkpt lat="42.496803" lon="2.420016">
        <ele>1835.141</ele>
        <time>2021-05-28T15:07:42Z</time>
      </trkpt>
      <trkpt lat="42.496818" lon="2.420036">
        <ele>1835.562</ele>
        <time>2021-05-28T15:07:47Z</time>
      </trkpt>
      <trkpt lat="42.496847" lon="2.420095">
        <ele>1837.051</ele>
        <time>2021-05-28T15:08:01Z</time>
      </trkpt>
      <trkpt lat="42.496863" lon="2.420119">
        <ele>1837.498</ele>
        <time>2021-05-28T15:08:03Z</time>
      </trkpt>
      <trkpt lat="42.496875" lon="2.420139">
        <ele>1837.973</ele>
        <time>2021-05-28T15:08:05Z</time>
      </trkpt>
      <trkpt lat="42.496890" lon="2.420157">
        <ele>1838.250</ele>
        <time>2021-05-28T15:08:07Z</time>
      </trkpt>
      <trkpt lat="42.496962" lon="2.420233">
        <ele>1839.048</ele>
        <time>2021-05-28T15:08:16Z</time>
      </trkpt>
      <trkpt lat="42.497031" lon="2.420311">
        <ele>1839.741</ele>
        <time>2021-05-28T15:08:23Z</time>
      </trkpt>
      <trkpt lat="42.497105" lon="2.420387">
        <ele>1840.581</ele>
        <time>2021-05-28T15:08:37Z</time>
      </trkpt>
      <trkpt lat="42.497169" lon="2.420491">
        <ele>1842.809</ele>
        <time>2021-05-28T15:08:51Z</time>
      </trkpt>
      <trkpt lat="42.497253" lon="2.420534">
        <ele>1842.608</ele>
        <time>2021-05-28T15:09:01Z</time>
      </trkpt>
      <trkpt lat="42.497339" lon="2.420616">
        <ele>1844.441</ele>
        <time>2021-05-28T15:09:11Z</time>
      </trkpt>
      <trkpt lat="42.497417" lon="2.420697">
        <ele>1846.548</ele>
        <time>2021-05-28T15:09:20Z</time>
      </trkpt>
      <trkpt lat="42.497506" lon="2.420775">
        <ele>1848.449</ele>
        <time>2021-05-28T15:09:30Z</time>
      </trkpt>
      <trkpt lat="42.497593" lon="2.420836">
        <ele>1850.428</ele>
        <time>2021-05-28T15:09:38Z</time>
      </trkpt>
      <trkpt lat="42.497684" lon="2.420847">
        <ele>1850.295</ele>
        <time>2021-05-28T15:09:50Z</time>
      </trkpt>
      <trkpt lat="42.497775" lon="2.420892">
        <ele>1851.190</ele>
        <time>2021-05-28T15:09:56Z</time>
      </trkpt>
      <trkpt lat="42.497853" lon="2.420958">
        <ele>1853.617</ele>
        <time>2021-05-28T15:10:03Z</time>
      </trkpt>
      <trkpt lat="42.497941" lon="2.421006">
        <ele>1855.465</ele>
        <time>2021-05-28T15:10:09Z</time>
      </trkpt>
      <trkpt lat="42.498006" lon="2.421089">
        <ele>1858.336</ele>
        <time>2021-05-28T15:10:16Z</time>
      </trkpt>
      <trkpt lat="42.498095" lon="2.421138">
        <ele>1859.217</ele>
        <time>2021-05-28T15:10:27Z</time>
      </trkpt>
      <trkpt lat="42.498194" lon="2.421139">
        <ele>1858.418</ele>
        <time>2021-05-28T15:10:35Z</time>
      </trkpt>
      <trkpt lat="42.498220" lon="2.421154">
        <ele>1858.308</ele>
        <time>2021-05-28T15:10:37Z</time>
      </trkpt>
      <trkpt lat="42.498247" lon="2.421180">
        <ele>1858.320</ele>
        <time>2021-05-28T15:10:39Z</time>
      </trkpt>
      <trkpt lat="42.498271" lon="2.421195">
        <ele>1858.137</ele>
        <time>2021-05-28T15:10:41Z</time>
      </trkpt>
      <trkpt lat="42.498293" lon="2.421198">
        <ele>1857.878</ele>
        <time>2021-05-28T15:10:43Z</time>
      </trkpt>
      <trkpt lat="42.498306" lon="2.421217">
        <ele>1857.817</ele>
        <time>2021-05-28T15:10:44Z</time>
      </trkpt>
      <trkpt lat="42.498315" lon="2.421243">
        <ele>1857.824</ele>
        <time>2021-05-28T15:10:48Z</time>
      </trkpt>
      <trkpt lat="42.498315" lon="2.421271">
        <ele>1857.919</ele>
        <time>2021-05-28T15:10:51Z</time>
      </trkpt>
      <trkpt lat="42.498312" lon="2.421299">
        <ele>1858.156</ele>
        <time>2021-05-28T15:10:57Z</time>
      </trkpt>
      <trkpt lat="42.498315" lon="2.421326">
        <ele>1858.234</ele>
        <time>2021-05-28T15:10:59Z</time>
      </trkpt>
      <trkpt lat="42.498318" lon="2.421360">
        <ele>1858.328</ele>
        <time>2021-05-28T15:11:01Z</time>
      </trkpt>
      <trkpt lat="42.498320" lon="2.421393">
        <ele>1858.389</ele>
        <time>2021-05-28T15:11:03Z</time>
      </trkpt>
      <trkpt lat="42.498316" lon="2.421425">
        <ele>1858.317</ele>
        <time>2021-05-28T15:11:05Z</time>
      </trkpt>
      <trkpt lat="42.498317" lon="2.421455">
        <ele>1858.208</ele>
        <time>2021-05-28T15:11:06Z</time>
      </trkpt>
      <trkpt lat="42.498312" lon="2.421483">
        <ele>1858.359</ele>
        <time>2021-05-28T15:11:09Z</time>
      </trkpt>
      <trkpt lat="42.498307" lon="2.421511">
        <ele>1858.466</ele>
        <time>2021-05-28T15:11:11Z</time>
      </trkpt>
      <trkpt lat="42.498299" lon="2.421540">
        <ele>1858.657</ele>
        <time>2021-05-28T15:11:13Z</time>
      </trkpt>
      <trkpt lat="42.498290" lon="2.421568">
        <ele>1858.816</ele>
        <time>2021-05-28T15:11:14Z</time>
      </trkpt>
      <trkpt lat="42.498279" lon="2.421590">
        <ele>1859.253</ele>
        <time>2021-05-28T15:11:16Z</time>
      </trkpt>
      <trkpt lat="42.498267" lon="2.421618">
        <ele>1859.638</ele>
        <time>2021-05-28T15:11:20Z</time>
      </trkpt>
      <trkpt lat="42.498263" lon="2.421644">
        <ele>1859.875</ele>
        <time>2021-05-28T15:11:22Z</time>
      </trkpt>
      <trkpt lat="42.498256" lon="2.421777">
        <ele>1860.113</ele>
        <time>2021-05-28T15:11:31Z</time>
      </trkpt>
      <trkpt lat="42.498239" lon="2.421906">
        <ele>1861.043</ele>
        <time>2021-05-28T15:11:39Z</time>
      </trkpt>
      <trkpt lat="42.498222" lon="2.422032">
        <ele>1862.364</ele>
        <time>2021-05-28T15:11:46Z</time>
      </trkpt>
      <trkpt lat="42.498191" lon="2.422146">
        <ele>1864.410</ele>
        <time>2021-05-28T15:11:54Z</time>
      </trkpt>
      <trkpt lat="42.498160" lon="2.422234">
        <ele>1866.708</ele>
        <time>2021-05-28T15:12:02Z</time>
      </trkpt>
      <trkpt lat="42.498141" lon="2.422358">
        <ele>1868.411</ele>
        <time>2021-05-28T15:12:11Z</time>
      </trkpt>
      <trkpt lat="42.498149" lon="2.422397">
        <ele>1868.118</ele>
        <time>2021-05-28T15:12:13Z</time>
      </trkpt>
      <trkpt lat="42.498143" lon="2.422427">
        <ele>1868.789</ele>
        <time>2021-05-28T15:12:15Z</time>
      </trkpt>
      <trkpt lat="42.498141" lon="2.422454">
        <ele>1868.948</ele>
        <time>2021-05-28T15:12:17Z</time>
      </trkpt>
      <trkpt lat="42.498143" lon="2.422478">
        <ele>1868.965</ele>
        <time>2021-05-28T15:12:19Z</time>
      </trkpt>
      <trkpt lat="42.498144" lon="2.422509">
        <ele>1869.040</ele>
        <time>2021-05-28T15:12:20Z</time>
      </trkpt>
      <trkpt lat="42.498141" lon="2.422537">
        <ele>1869.577</ele>
        <time>2021-05-28T15:12:23Z</time>
      </trkpt>
      <trkpt lat="42.498142" lon="2.422565">
        <ele>1869.735</ele>
        <time>2021-05-28T15:12:25Z</time>
      </trkpt>
      <trkpt lat="42.498147" lon="2.422607">
        <ele>1869.875</ele>
        <time>2021-05-28T15:12:27Z</time>
      </trkpt>
      <trkpt lat="42.498136" lon="2.422670">
        <ele>1871.228</ele>
        <time>2021-05-28T15:12:31Z</time>
      </trkpt>
      <trkpt lat="42.498135" lon="2.422700">
        <ele>1871.520</ele>
        <time>2021-05-28T15:12:33Z</time>
      </trkpt>
      <trkpt lat="42.498135" lon="2.422730">
        <ele>1871.808</ele>
        <time>2021-05-28T15:12:35Z</time>
      </trkpt>
      <trkpt lat="42.498130" lon="2.422767">
        <ele>1872.564</ele>
        <time>2021-05-28T15:12:37Z</time>
      </trkpt>
      <trkpt lat="42.498130" lon="2.422807">
        <ele>1873.131</ele>
        <time>2021-05-28T15:12:39Z</time>
      </trkpt>
      <trkpt lat="42.498113" lon="2.422839">
        <ele>1874.722</ele>
        <time>2021-05-28T15:12:41Z</time>
      </trkpt>
      <trkpt lat="42.498108" lon="2.422864">
        <ele>1875.551</ele>
        <time>2021-05-28T15:12:43Z</time>
      </trkpt>
      <trkpt lat="42.498126" lon="2.422931">
        <ele>1875.188</ele>
        <time>2021-05-28T15:12:47Z</time>
      </trkpt>
      <trkpt lat="42.498137" lon="2.422963">
        <ele>1874.893</ele>
        <time>2021-05-28T15:12:49Z</time>
      </trkpt>
      <trkpt lat="42.498160" lon="2.423089">
        <ele>1875.070</ele>
        <time>2021-05-28T15:13:01Z</time>
      </trkpt>
      <trkpt lat="42.498168" lon="2.423219">
        <ele>1876.618</ele>
        <time>2021-05-28T15:13:09Z</time>
      </trkpt>
      <trkpt lat="42.498159" lon="2.423340">
        <ele>1879.376</ele>
        <time>2021-05-28T15:13:18Z</time>
      </trkpt>
      <trkpt lat="42.498195" lon="2.423453">
        <ele>1879.090</ele>
        <time>2021-05-28T15:13:25Z</time>
      </trkpt>
      <trkpt lat="42.498220" lon="2.423579">
        <ele>1879.919</ele>
        <time>2021-05-28T15:13:32Z</time>
      </trkpt>
      <trkpt lat="42.498257" lon="2.423698">
        <ele>1879.608</ele>
        <time>2021-05-28T15:13:42Z</time>
      </trkpt>
      <trkpt lat="42.498273" lon="2.423773">
        <ele>1880.174</ele>
        <time>2021-05-28T15:13:47Z</time>
      </trkpt>
      <trkpt lat="42.498279" lon="2.423801">
        <ele>1880.281</ele>
        <time>2021-05-28T15:13:49Z</time>
      </trkpt>
      <trkpt lat="42.498288" lon="2.423827">
        <ele>1880.132</ele>
        <time>2021-05-28T15:13:51Z</time>
      </trkpt>
      <trkpt lat="42.498297" lon="2.423863">
        <ele>1880.281</ele>
        <time>2021-05-28T15:13:53Z</time>
      </trkpt>
      <trkpt lat="42.498297" lon="2.423895">
        <ele>1880.968</ele>
        <time>2021-05-28T15:13:55Z</time>
      </trkpt>
      <trkpt lat="42.498298" lon="2.423922">
        <ele>1881.553</ele>
        <time>2021-05-28T15:13:57Z</time>
      </trkpt>
      <trkpt lat="42.498302" lon="2.423953">
        <ele>1882.020</ele>
        <time>2021-05-28T15:13:59Z</time>
      </trkpt>
      <trkpt lat="42.498311" lon="2.423980">
        <ele>1882.048</ele>
        <time>2021-05-28T15:14:01Z</time>
      </trkpt>
      <trkpt lat="42.498315" lon="2.424011">
        <ele>1882.413</ele>
        <time>2021-05-28T15:14:03Z</time>
      </trkpt>
      <trkpt lat="42.498320" lon="2.424048">
        <ele>1883.043</ele>
        <time>2021-05-28T15:14:05Z</time>
      </trkpt>
      <trkpt lat="42.498322" lon="2.424079">
        <ele>1883.607</ele>
        <time>2021-05-28T15:14:07Z</time>
      </trkpt>
      <trkpt lat="42.498336" lon="2.424113">
        <ele>1883.508</ele>
        <time>2021-05-28T15:14:09Z</time>
      </trkpt>
      <trkpt lat="42.498338" lon="2.424141">
        <ele>1884.098</ele>
        <time>2021-05-28T15:14:10Z</time>
      </trkpt>
      <trkpt lat="42.498344" lon="2.424169">
        <ele>1884.295</ele>
        <time>2021-05-28T15:14:13Z</time>
      </trkpt>
      <trkpt lat="42.498356" lon="2.424198">
        <ele>1883.816</ele>
        <time>2021-05-28T15:14:15Z</time>
      </trkpt>
      <trkpt lat="42.498364" lon="2.424223">
        <ele>1883.745</ele>
        <time>2021-05-28T15:14:17Z</time>
      </trkpt>
      <trkpt lat="42.498372" lon="2.424256">
        <ele>1883.782</ele>
        <time>2021-05-28T15:14:20Z</time>
      </trkpt>
      <trkpt lat="42.498376" lon="2.424281">
        <ele>1883.827</ele>
        <time>2021-05-28T15:14:22Z</time>
      </trkpt>
      <trkpt lat="42.498382" lon="2.424304">
        <ele>1883.874</ele>
        <time>2021-05-28T15:14:24Z</time>
      </trkpt>
      <trkpt lat="42.498392" lon="2.424352">
        <ele>1883.922</ele>
        <time>2021-05-28T15:14:27Z</time>
      </trkpt>
      <trkpt lat="42.498397" lon="2.424380">
        <ele>1884.025</ele>
        <time>2021-05-28T15:14:29Z</time>
      </trkpt>
      <trkpt lat="42.498395" lon="2.424408">
        <ele>1884.726</ele>
        <time>2021-05-28T15:14:32Z</time>
      </trkpt>
      <trkpt lat="42.498391" lon="2.424546">
        <ele>1886.708</ele>
        <time>2021-05-28T15:14:43Z</time>
      </trkpt>
      <trkpt lat="42.498395" lon="2.424591">
        <ele>1886.908</ele>
        <time>2021-05-28T15:14:48Z</time>
      </trkpt>
      <trkpt lat="42.498397" lon="2.424615">
        <ele>1887.059</ele>
        <time>2021-05-28T15:14:50Z</time>
      </trkpt>
      <trkpt lat="42.498401" lon="2.424644">
        <ele>1887.036</ele>
        <time>2021-05-28T15:14:52Z</time>
      </trkpt>
      <trkpt lat="42.498402" lon="2.424673">
        <ele>1887.367</ele>
        <time>2021-05-28T15:14:54Z</time>
      </trkpt>
      <trkpt lat="42.498403" lon="2.424708">
        <ele>1887.696</ele>
        <time>2021-05-28T15:14:57Z</time>
      </trkpt>
      <trkpt lat="42.498409" lon="2.424735">
        <ele>1887.383</ele>
        <time>2021-05-28T15:14:59Z</time>
      </trkpt>
      <trkpt lat="42.498414" lon="2.424759">
        <ele>1886.948</ele>
        <time>2021-05-28T15:15:01Z</time>
      </trkpt>
      <trkpt lat="42.498417" lon="2.424788">
        <ele>1886.795</ele>
        <time>2021-05-28T15:15:03Z</time>
      </trkpt>
      <trkpt lat="42.498414" lon="2.424821">
        <ele>1886.943</ele>
        <time>2021-05-28T15:15:05Z</time>
      </trkpt>
      <trkpt lat="42.498415" lon="2.424847">
        <ele>1886.981</ele>
        <time>2021-05-28T15:15:07Z</time>
      </trkpt>
      <trkpt lat="42.498401" lon="2.424866">
        <ele>1888.061</ele>
        <time>2021-05-28T15:15:09Z</time>
      </trkpt>
      <trkpt lat="42.498383" lon="2.424892">
        <ele>1889.517</ele>
        <time>2021-05-28T15:15:11Z</time>
      </trkpt>
      <trkpt lat="42.498371" lon="2.424917">
        <ele>1890.608</ele>
        <time>2021-05-28T15:15:14Z</time>
      </trkpt>
      <trkpt lat="42.498365" lon="2.424948">
        <ele>1891.145</ele>
        <time>2021-05-28T15:15:16Z</time>
      </trkpt>
      <trkpt lat="42.498356" lon="2.424975">
        <ele>1892.012</ele>
        <time>2021-05-28T15:15:18Z</time>
      </trkpt>
      <trkpt lat="42.498350" lon="2.424998">
        <ele>1892.643</ele>
        <time>2021-05-28T15:15:20Z</time>
      </trkpt>
      <trkpt lat="42.498344" lon="2.425023">
        <ele>1893.122</ele>
        <time>2021-05-28T15:15:22Z</time>
      </trkpt>
      <trkpt lat="42.498335" lon="2.425058">
        <ele>1893.999</ele>
        <time>2021-05-28T15:15:25Z</time>
      </trkpt>
      <trkpt lat="42.498325" lon="2.425079">
        <ele>1894.644</ele>
        <time>2021-05-28T15:15:27Z</time>
      </trkpt>
      <trkpt lat="42.498310" lon="2.425108">
        <ele>1895.711</ele>
        <time>2021-05-28T15:15:30Z</time>
      </trkpt>
      <trkpt lat="42.498301" lon="2.425144">
        <ele>1896.499</ele>
        <time>2021-05-28T15:15:33Z</time>
      </trkpt>
      <trkpt lat="42.498311" lon="2.425176">
        <ele>1895.733</ele>
        <time>2021-05-28T15:15:36Z</time>
      </trkpt>
      <trkpt lat="42.498307" lon="2.425206">
        <ele>1896.023</ele>
        <time>2021-05-28T15:15:38Z</time>
      </trkpt>
      <trkpt lat="42.498302" lon="2.425238">
        <ele>1896.415</ele>
        <time>2021-05-28T15:15:40Z</time>
      </trkpt>
      <trkpt lat="42.498305" lon="2.425266">
        <ele>1896.108</ele>
        <time>2021-05-28T15:15:42Z</time>
      </trkpt>
      <trkpt lat="42.498306" lon="2.425298">
        <ele>1896.690</ele>
        <time>2021-05-28T15:15:44Z</time>
      </trkpt>
      <trkpt lat="42.498310" lon="2.425326">
        <ele>1896.997</ele>
        <time>2021-05-28T15:15:46Z</time>
      </trkpt>
      <trkpt lat="42.498305" lon="2.425349">
        <ele>1897.978</ele>
        <time>2021-05-28T15:15:49Z</time>
      </trkpt>
      <trkpt lat="42.498305" lon="2.425381">
        <ele>1898.687</ele>
        <time>2021-05-28T15:15:51Z</time>
      </trkpt>
      <trkpt lat="42.498313" lon="2.425409">
        <ele>1898.714</ele>
        <time>2021-05-28T15:15:53Z</time>
      </trkpt>
      <trkpt lat="42.498319" lon="2.425437">
        <ele>1899.059</ele>
        <time>2021-05-28T15:15:55Z</time>
      </trkpt>
      <trkpt lat="42.498322" lon="2.425468">
        <ele>1899.696</ele>
        <time>2021-05-28T15:15:58Z</time>
      </trkpt>
      <trkpt lat="42.498335" lon="2.425542">
        <ele>1900.544</ele>
        <time>2021-05-28T15:16:03Z</time>
      </trkpt>
      <trkpt lat="42.498364" lon="2.425602">
        <ele>1900.126</ele>
        <time>2021-05-28T15:16:08Z</time>
      </trkpt>
      <trkpt lat="42.498376" lon="2.425625">
        <ele>1899.947</ele>
        <time>2021-05-28T15:16:12Z</time>
      </trkpt>
      <trkpt lat="42.498386" lon="2.425651">
        <ele>1899.911</ele>
        <time>2021-05-28T15:16:14Z</time>
      </trkpt>
      <trkpt lat="42.498398" lon="2.425672">
        <ele>1899.808</ele>
        <time>2021-05-28T15:16:16Z</time>
      </trkpt>
      <trkpt lat="42.498407" lon="2.425695">
        <ele>1899.989</ele>
        <time>2021-05-28T15:16:19Z</time>
      </trkpt>
      <trkpt lat="42.498421" lon="2.425719">
        <ele>1899.746</ele>
        <time>2021-05-28T15:16:21Z</time>
      </trkpt>
      <trkpt lat="42.498429" lon="2.425744">
        <ele>1900.017</ele>
        <time>2021-05-28T15:16:23Z</time>
      </trkpt>
      <trkpt lat="42.498432" lon="2.425772">
        <ele>1900.756</ele>
        <time>2021-05-28T15:16:26Z</time>
      </trkpt>
      <trkpt lat="42.498443" lon="2.425796">
        <ele>1900.913</ele>
        <time>2021-05-28T15:16:29Z</time>
      </trkpt>
      <trkpt lat="42.498450" lon="2.425824">
        <ele>1901.448</ele>
        <time>2021-05-28T15:16:31Z</time>
      </trkpt>
      <trkpt lat="42.498460" lon="2.425845">
        <ele>1901.475</ele>
        <time>2021-05-28T15:16:33Z</time>
      </trkpt>
      <trkpt lat="42.498472" lon="2.425870">
        <ele>1901.353</ele>
        <time>2021-05-28T15:16:35Z</time>
      </trkpt>
      <trkpt lat="42.498475" lon="2.425900">
        <ele>1901.824</ele>
        <time>2021-05-28T15:16:37Z</time>
      </trkpt>
      <trkpt lat="42.498478" lon="2.425930">
        <ele>1902.304</ele>
        <time>2021-05-28T15:16:39Z</time>
      </trkpt>
      <trkpt lat="42.498486" lon="2.425953">
        <ele>1902.414</ele>
        <time>2021-05-28T15:16:41Z</time>
      </trkpt>
      <trkpt lat="42.498505" lon="2.425978">
        <ele>1902.008</ele>
        <time>2021-05-28T15:16:43Z</time>
      </trkpt>
      <trkpt lat="42.498505" lon="2.426005">
        <ele>1902.649</ele>
        <time>2021-05-28T15:16:45Z</time>
      </trkpt>
      <trkpt lat="42.498507" lon="2.426030">
        <ele>1903.096</ele>
        <time>2021-05-28T15:16:47Z</time>
      </trkpt>
      <trkpt lat="42.498509" lon="2.426058">
        <ele>1903.677</ele>
        <time>2021-05-28T15:16:49Z</time>
      </trkpt>
      <trkpt lat="42.498514" lon="2.426091">
        <ele>1904.136</ele>
        <time>2021-05-28T15:16:52Z</time>
      </trkpt>
      <trkpt lat="42.498525" lon="2.426120">
        <ele>1904.293</ele>
        <time>2021-05-28T15:16:54Z</time>
      </trkpt>
      <trkpt lat="42.498533" lon="2.426146">
        <ele>1904.258</ele>
        <time>2021-05-28T15:16:56Z</time>
      </trkpt>
      <trkpt lat="42.498538" lon="2.426178">
        <ele>1904.495</ele>
        <time>2021-05-28T15:16:58Z</time>
      </trkpt>
      <trkpt lat="42.498553" lon="2.426208">
        <ele>1904.243</ele>
        <time>2021-05-28T15:16:59Z</time>
      </trkpt>
      <trkpt lat="42.498564" lon="2.426236">
        <ele>1904.177</ele>
        <time>2021-05-28T15:17:02Z</time>
      </trkpt>
      <trkpt lat="42.498572" lon="2.426269">
        <ele>1904.261</ele>
        <time>2021-05-28T15:17:04Z</time>
      </trkpt>
      <trkpt lat="42.498580" lon="2.426295">
        <ele>1904.227</ele>
        <time>2021-05-28T15:17:06Z</time>
      </trkpt>
      <trkpt lat="42.498588" lon="2.426319">
        <ele>1904.108</ele>
        <time>2021-05-28T15:17:08Z</time>
      </trkpt>
      <trkpt lat="42.498586" lon="2.426344">
        <ele>1904.624</ele>
        <time>2021-05-28T15:17:10Z</time>
      </trkpt>
      <trkpt lat="42.498584" lon="2.426382">
        <ele>1905.371</ele>
        <time>2021-05-28T15:17:13Z</time>
      </trkpt>
      <trkpt lat="42.498583" lon="2.426408">
        <ele>1905.532</ele>
        <time>2021-05-28T15:17:15Z</time>
      </trkpt>
      <trkpt lat="42.498583" lon="2.426436">
        <ele>1905.651</ele>
        <time>2021-05-28T15:17:17Z</time>
      </trkpt>
      <trkpt lat="42.498595" lon="2.426469">
        <ele>1905.178</ele>
        <time>2021-05-28T15:17:19Z</time>
      </trkpt>
      <trkpt lat="42.498610" lon="2.426501">
        <ele>1904.583</ele>
        <time>2021-05-28T15:17:21Z</time>
      </trkpt>
      <trkpt lat="42.498619" lon="2.426527">
        <ele>1904.080</ele>
        <time>2021-05-28T15:17:23Z</time>
      </trkpt>
      <trkpt lat="42.498626" lon="2.426563">
        <ele>1903.758</ele>
        <time>2021-05-28T15:17:26Z</time>
      </trkpt>
      <trkpt lat="42.498631" lon="2.426595">
        <ele>1903.628</ele>
        <time>2021-05-28T15:17:28Z</time>
      </trkpt>
      <trkpt lat="42.498631" lon="2.426627">
        <ele>1903.789</ele>
        <time>2021-05-28T15:17:30Z</time>
      </trkpt>
      <trkpt lat="42.498625" lon="2.426660">
        <ele>1904.217</ele>
        <time>2021-05-28T15:17:31Z</time>
      </trkpt>
      <trkpt lat="42.498616" lon="2.426692">
        <ele>1905.708</ele>
        <time>2021-05-28T15:17:34Z</time>
      </trkpt>
      <trkpt lat="42.498606" lon="2.426720">
        <ele>1907.229</ele>
        <time>2021-05-28T15:17:36Z</time>
      </trkpt>
      <trkpt lat="42.498591" lon="2.426751">
        <ele>1909.116</ele>
        <time>2021-05-28T15:17:38Z</time>
      </trkpt>
      <trkpt lat="42.498579" lon="2.426780">
        <ele>1910.787</ele>
        <time>2021-05-28T15:17:40Z</time>
      </trkpt>
      <trkpt lat="42.498559" lon="2.426797">
        <ele>1912.316</ele>
        <time>2021-05-28T15:17:42Z</time>
      </trkpt>
      <trkpt lat="42.498542" lon="2.426811">
        <ele>1913.513</ele>
        <time>2021-05-28T15:17:43Z</time>
      </trkpt>
      <trkpt lat="42.498518" lon="2.426819">
        <ele>1914.918</ele>
        <time>2021-05-28T15:17:47Z</time>
      </trkpt>
      <trkpt lat="42.498503" lon="2.426834">
        <ele>1916.145</ele>
        <time>2021-05-28T15:17:49Z</time>
      </trkpt>
      <trkpt lat="42.498492" lon="2.426854">
        <ele>1917.253</ele>
        <time>2021-05-28T15:17:52Z</time>
      </trkpt>
      <trkpt lat="42.498502" lon="2.426875">
        <ele>1917.376</ele>
        <time>2021-05-28T15:17:55Z</time>
      </trkpt>
      <trkpt lat="42.498527" lon="2.426896">
        <ele>1916.990</ele>
        <time>2021-05-28T15:17:58Z</time>
      </trkpt>
      <trkpt lat="42.498546" lon="2.426918">
        <ele>1916.719</ele>
        <time>2021-05-28T15:18:00Z</time>
      </trkpt>
      <trkpt lat="42.498549" lon="2.426946">
        <ele>1917.508</ele>
        <time>2021-05-28T15:18:02Z</time>
      </trkpt>
      <trkpt lat="42.498555" lon="2.426971">
        <ele>1918.294</ele>
        <time>2021-05-28T15:18:04Z</time>
      </trkpt>
      <trkpt lat="42.498572" lon="2.426991">
        <ele>1918.281</ele>
        <time>2021-05-28T15:18:07Z</time>
      </trkpt>
      <trkpt lat="42.498592" lon="2.427001">
        <ele>1917.832</ele>
        <time>2021-05-28T15:18:09Z</time>
      </trkpt>
      <trkpt lat="42.498611" lon="2.427013">
        <ele>1917.541</ele>
        <time>2021-05-28T15:18:11Z</time>
      </trkpt>
      <trkpt lat="42.498630" lon="2.427025">
        <ele>1917.088</ele>
        <time>2021-05-28T15:18:15Z</time>
      </trkpt>
      <trkpt lat="42.498647" lon="2.427049">
        <ele>1917.093</ele>
        <time>2021-05-28T15:18:17Z</time>
      </trkpt>
      <trkpt lat="42.498653" lon="2.427072">
        <ele>1917.590</ele>
        <time>2021-05-28T15:18:20Z</time>
      </trkpt>
      <trkpt lat="42.498664" lon="2.427105">
        <ele>1918.148</ele>
        <time>2021-05-28T15:18:23Z</time>
      </trkpt>
      <trkpt lat="42.498678" lon="2.427133">
        <ele>1918.333</ele>
        <time>2021-05-28T15:18:24Z</time>
      </trkpt>
      <trkpt lat="42.498698" lon="2.427167">
        <ele>1918.423</ele>
        <time>2021-05-28T15:18:27Z</time>
      </trkpt>
      <trkpt lat="42.498718" lon="2.427200">
        <ele>1918.515</ele>
        <time>2021-05-28T15:18:28Z</time>
      </trkpt>
      <trkpt lat="42.498730" lon="2.427230">
        <ele>1918.808</ele>
        <time>2021-05-28T15:18:30Z</time>
      </trkpt>
      <trkpt lat="42.498745" lon="2.427262">
        <ele>1918.830</ele>
        <time>2021-05-28T15:18:32Z</time>
      </trkpt>
      <trkpt lat="42.498757" lon="2.427294">
        <ele>1918.977</ele>
        <time>2021-05-28T15:18:34Z</time>
      </trkpt>
      <trkpt lat="42.498765" lon="2.427326">
        <ele>1919.378</ele>
        <time>2021-05-28T15:18:36Z</time>
      </trkpt>
      <trkpt lat="42.498782" lon="2.427356">
        <ele>1919.177</ele>
        <time>2021-05-28T15:18:39Z</time>
      </trkpt>
      <trkpt lat="42.498793" lon="2.427385">
        <ele>1919.314</ele>
        <time>2021-05-28T15:18:41Z</time>
      </trkpt>
      <trkpt lat="42.498797" lon="2.427412">
        <ele>1919.759</ele>
        <time>2021-05-28T15:18:43Z</time>
      </trkpt>
      <trkpt lat="42.498810" lon="2.427443">
        <ele>1919.816</ele>
        <time>2021-05-28T15:18:45Z</time>
      </trkpt>
      <trkpt lat="42.498816" lon="2.427472">
        <ele>1920.234</ele>
        <time>2021-05-28T15:18:47Z</time>
      </trkpt>
      <trkpt lat="42.498824" lon="2.427502">
        <ele>1920.577</ele>
        <time>2021-05-28T15:18:49Z</time>
      </trkpt>
      <trkpt lat="42.498825" lon="2.427533">
        <ele>1921.161</ele>
        <time>2021-05-28T15:18:51Z</time>
      </trkpt>
      <trkpt lat="42.498833" lon="2.427556">
        <ele>1921.227</ele>
        <time>2021-05-28T15:18:53Z</time>
      </trkpt>
      <trkpt lat="42.498841" lon="2.427581">
        <ele>1921.308</ele>
        <time>2021-05-28T15:18:55Z</time>
      </trkpt>
      <trkpt lat="42.498848" lon="2.427612">
        <ele>1921.614</ele>
        <time>2021-05-28T15:18:57Z</time>
      </trkpt>
      <trkpt lat="42.498858" lon="2.427638">
        <ele>1921.611</ele>
        <time>2021-05-28T15:18:59Z</time>
      </trkpt>
      <trkpt lat="42.498869" lon="2.427660">
        <ele>1921.512</ele>
        <time>2021-05-28T15:19:01Z</time>
      </trkpt>
      <trkpt lat="42.498880" lon="2.427680">
        <ele>1921.391</ele>
        <time>2021-05-28T15:19:03Z</time>
      </trkpt>
      <trkpt lat="42.498887" lon="2.427707">
        <ele>1921.688</ele>
        <time>2021-05-28T15:19:05Z</time>
      </trkpt>
      <trkpt lat="42.498894" lon="2.427741">
        <ele>1921.883</ele>
        <time>2021-05-28T15:19:07Z</time>
      </trkpt>
      <trkpt lat="42.498900" lon="2.427765">
        <ele>1921.950</ele>
        <time>2021-05-28T15:19:09Z</time>
      </trkpt>
      <trkpt lat="42.498901" lon="2.427794">
        <ele>1922.398</ele>
        <time>2021-05-28T15:19:12Z</time>
      </trkpt>
      <trkpt lat="42.498909" lon="2.427823">
        <ele>1922.094</ele>
        <time>2021-05-28T15:19:14Z</time>
      </trkpt>
      <trkpt lat="42.498907" lon="2.427848">
        <ele>1922.557</ele>
        <time>2021-05-28T15:19:16Z</time>
      </trkpt>
      <trkpt lat="42.498907" lon="2.427874">
        <ele>1922.722</ele>
        <time>2021-05-28T15:19:18Z</time>
      </trkpt>
      <trkpt lat="42.498907" lon="2.427907">
        <ele>1923.108</ele>
        <time>2021-05-28T15:19:21Z</time>
      </trkpt>
      <trkpt lat="42.498909" lon="2.427934">
        <ele>1923.226</ele>
        <time>2021-05-28T15:19:23Z</time>
      </trkpt>
      <trkpt lat="42.498904" lon="2.427962">
        <ele>1923.993</ele>
        <time>2021-05-28T15:19:25Z</time>
      </trkpt>
      <trkpt lat="42.498903" lon="2.427994">
        <ele>1924.314</ele>
        <time>2021-05-28T15:19:27Z</time>
      </trkpt>
      <trkpt lat="42.498905" lon="2.428029">
        <ele>1924.663</ele>
        <time>2021-05-28T15:19:29Z</time>
      </trkpt>
      <trkpt lat="42.498917" lon="2.428063">
        <ele>1924.030</ele>
        <time>2021-05-28T15:19:31Z</time>
      </trkpt>
      <trkpt lat="42.498925" lon="2.428092">
        <ele>1923.585</ele>
        <time>2021-05-28T15:19:33Z</time>
      </trkpt>
      <trkpt lat="42.498926" lon="2.428128">
        <ele>1923.572</ele>
        <time>2021-05-28T15:19:36Z</time>
      </trkpt>
      <trkpt lat="42.498933" lon="2.428160">
        <ele>1923.160</ele>
        <time>2021-05-28T15:19:38Z</time>
      </trkpt>
      <trkpt lat="42.498937" lon="2.428189">
        <ele>1922.887</ele>
        <time>2021-05-28T15:19:40Z</time>
      </trkpt>
      <trkpt lat="42.498942" lon="2.428223">
        <ele>1922.542</ele>
        <time>2021-05-28T15:19:42Z</time>
      </trkpt>
      <trkpt lat="42.498948" lon="2.428255">
        <ele>1922.226</ele>
        <time>2021-05-28T15:19:44Z</time>
      </trkpt>
      <trkpt lat="42.498954" lon="2.428287">
        <ele>1921.808</ele>
        <time>2021-05-28T15:19:46Z</time>
      </trkpt>
      <trkpt lat="42.498956" lon="2.428317">
        <ele>1921.735</ele>
        <time>2021-05-28T15:19:48Z</time>
      </trkpt>
      <trkpt lat="42.498951" lon="2.428347">
        <ele>1922.262</ele>
        <time>2021-05-28T15:19:50Z</time>
      </trkpt>
      <trkpt lat="42.498944" lon="2.428378">
        <ele>1923.223</ele>
        <time>2021-05-28T15:19:52Z</time>
      </trkpt>
      <trkpt lat="42.498941" lon="2.428407">
        <ele>1923.882</ele>
        <time>2021-05-28T15:19:54Z</time>
      </trkpt>
      <trkpt lat="42.498935" lon="2.428434">
        <ele>1924.629</ele>
        <time>2021-05-28T15:19:56Z</time>
      </trkpt>
      <trkpt lat="42.498929" lon="2.428470">
        <ele>1925.414</ele>
        <time>2021-05-28T15:19:57Z</time>
      </trkpt>
      <trkpt lat="42.498927" lon="2.428502">
        <ele>1926.061</ele>
        <time>2021-05-28T15:19:59Z</time>
      </trkpt>
      <trkpt lat="42.498935" lon="2.428533">
        <ele>1925.759</ele>
        <time>2021-05-28T15:20:01Z</time>
      </trkpt>
      <trkpt lat="42.498939" lon="2.428569">
        <ele>1925.922</ele>
        <time>2021-05-28T15:20:03Z</time>
      </trkpt>
      <trkpt lat="42.498935" lon="2.428597">
        <ele>1926.562</ele>
        <time>2021-05-28T15:20:06Z</time>
      </trkpt>
      <trkpt lat="42.498927" lon="2.428626">
        <ele>1927.508</ele>
        <time>2021-05-28T15:20:07Z</time>
      </trkpt>
      <trkpt lat="42.498930" lon="2.428662">
        <ele>1927.908</ele>
        <time>2021-05-28T15:20:10Z</time>
      </trkpt>
      <trkpt lat="42.498932" lon="2.428697">
        <ele>1928.339</ele>
        <time>2021-05-28T15:20:13Z</time>
      </trkpt>
      <trkpt lat="42.498932" lon="2.428724">
        <ele>1928.856</ele>
        <time>2021-05-28T15:20:15Z</time>
      </trkpt>
      <trkpt lat="42.498938" lon="2.428747">
        <ele>1928.837</ele>
        <time>2021-05-28T15:20:17Z</time>
      </trkpt>
      <trkpt lat="42.498947" lon="2.428775">
        <ele>1928.766</ele>
        <time>2021-05-28T15:20:19Z</time>
      </trkpt>
      <trkpt lat="42.498955" lon="2.428804">
        <ele>1928.733</ele>
        <time>2021-05-28T15:20:21Z</time>
      </trkpt>
      <trkpt lat="42.498958" lon="2.428840">
        <ele>1929.158</ele>
        <time>2021-05-28T15:20:23Z</time>
      </trkpt>
      <trkpt lat="42.498969" lon="2.428868">
        <ele>1929.065</ele>
        <time>2021-05-28T15:20:25Z</time>
      </trkpt>
      <trkpt lat="42.498990" lon="2.428895">
        <ele>1928.113</ele>
        <time>2021-05-28T15:20:28Z</time>
      </trkpt>
      <trkpt lat="42.499007" lon="2.428925">
        <ele>1926.764</ele>
        <time>2021-05-28T15:20:31Z</time>
      </trkpt>
      <trkpt lat="42.499019" lon="2.428949">
        <ele>1925.706</ele>
        <time>2021-05-28T15:20:33Z</time>
      </trkpt>
      <trkpt lat="42.499036" lon="2.428967">
        <ele>1924.416</ele>
        <time>2021-05-28T15:20:35Z</time>
      </trkpt>
      <trkpt lat="42.499054" lon="2.428984">
        <ele>1923.108</ele>
        <time>2021-05-28T15:20:37Z</time>
      </trkpt>
      <trkpt lat="42.499069" lon="2.429004">
        <ele>1921.893</ele>
        <time>2021-05-28T15:20:39Z</time>
      </trkpt>
      <trkpt lat="42.499081" lon="2.429036">
        <ele>1920.690</ele>
        <time>2021-05-28T15:20:42Z</time>
      </trkpt>
      <trkpt lat="42.499089" lon="2.429065">
        <ele>1919.741</ele>
        <time>2021-05-28T15:20:44Z</time>
      </trkpt>
      <trkpt lat="42.499099" lon="2.429096">
        <ele>1918.530</ele>
        <time>2021-05-28T15:20:47Z</time>
      </trkpt>
      <trkpt lat="42.499088" lon="2.429119">
        <ele>1918.917</ele>
        <time>2021-05-28T15:21:00Z</time>
      </trkpt>
      <trkpt lat="42.499076" lon="2.429146">
        <ele>1919.212</ele>
        <time>2021-05-28T15:21:02Z</time>
      </trkpt>
      <trkpt lat="42.499058" lon="2.429167">
        <ele>1920.069</ele>
        <time>2021-05-28T15:21:04Z</time>
      </trkpt>
      <trkpt lat="42.499037" lon="2.429188">
        <ele>1920.797</ele>
        <time>2021-05-28T15:21:06Z</time>
      </trkpt>
      <trkpt lat="42.499017" lon="2.429203">
        <ele>1921.672</ele>
        <time>2021-05-28T15:21:08Z</time>
      </trkpt>
      <trkpt lat="42.498999" lon="2.429219">
        <ele>1922.313</ele>
        <time>2021-05-28T15:21:10Z</time>
      </trkpt>
      <trkpt lat="42.498979" lon="2.429235">
        <ele>1923.214</ele>
        <time>2021-05-28T15:21:12Z</time>
      </trkpt>
      <trkpt lat="42.498963" lon="2.429251">
        <ele>1923.808</ele>
        <time>2021-05-28T15:21:14Z</time>
      </trkpt>
      <trkpt lat="42.498945" lon="2.429265">
        <ele>1924.724</ele>
        <time>2021-05-28T15:21:17Z</time>
      </trkpt>
      <trkpt lat="42.498928" lon="2.429278">
        <ele>1925.581</ele>
        <time>2021-05-28T15:21:20Z</time>
      </trkpt>
      <trkpt lat="42.498912" lon="2.429299">
        <ele>1926.022</ele>
        <time>2021-05-28T15:21:22Z</time>
      </trkpt>
      <trkpt lat="42.498882" lon="2.429330">
        <ele>1927.511</ele>
        <time>2021-05-28T15:21:24Z</time>
      </trkpt>
      <trkpt lat="42.498864" lon="2.429350">
        <ele>1928.718</ele>
        <time>2021-05-28T15:21:26Z</time>
      </trkpt>
      <trkpt lat="42.498847" lon="2.429379">
        <ele>1929.713</ele>
        <time>2021-05-28T15:21:28Z</time>
      </trkpt>
      <trkpt lat="42.498829" lon="2.429410">
        <ele>1930.810</ele>
        <time>2021-05-28T15:21:31Z</time>
      </trkpt>
      <trkpt lat="42.498815" lon="2.429441">
        <ele>1931.558</ele>
        <time>2021-05-28T15:21:33Z</time>
      </trkpt>
      <trkpt lat="42.498805" lon="2.429473">
        <ele>1932.611</ele>
        <time>2021-05-28T15:21:35Z</time>
      </trkpt>
      <trkpt lat="42.498802" lon="2.429509">
        <ele>1933.221</ele>
        <time>2021-05-28T15:21:37Z</time>
      </trkpt>
      <trkpt lat="42.498809" lon="2.429546">
        <ele>1932.703</ele>
        <time>2021-05-28T15:21:39Z</time>
      </trkpt>
      <trkpt lat="42.498819" lon="2.429568">
        <ele>1931.908</ele>
        <time>2021-05-28T15:21:40Z</time>
      </trkpt>
      <trkpt lat="42.498820" lon="2.429594">
        <ele>1932.028</ele>
        <time>2021-05-28T15:21:41Z</time>
      </trkpt>
      <trkpt lat="42.498814" lon="2.429622">
        <ele>1932.815</ele>
        <time>2021-05-28T15:21:42Z</time>
      </trkpt>
      <trkpt lat="42.498809" lon="2.429648">
        <ele>1933.466</ele>
        <time>2021-05-28T15:21:43Z</time>
      </trkpt>
      <trkpt lat="42.498807" lon="2.429688">
        <ele>1933.985</ele>
        <time>2021-05-28T15:21:45Z</time>
      </trkpt>
      <trkpt lat="42.498806" lon="2.429721">
        <ele>1934.282</ele>
        <time>2021-05-28T15:21:47Z</time>
      </trkpt>
      <trkpt lat="42.498801" lon="2.429749">
        <ele>1935.497</ele>
        <time>2021-05-28T15:21:50Z</time>
      </trkpt>
      <trkpt lat="42.498794" lon="2.429773">
        <ele>1936.794</ele>
        <time>2021-05-28T15:21:52Z</time>
      </trkpt>
      <trkpt lat="42.498790" lon="2.429798">
        <ele>1937.852</ele>
        <time>2021-05-28T15:21:54Z</time>
      </trkpt>
      <trkpt lat="42.498787" lon="2.429826">
        <ele>1938.973</ele>
        <time>2021-05-28T15:21:57Z</time>
      </trkpt>
      <trkpt lat="42.498789" lon="2.429861">
        <ele>1939.885</ele>
        <time>2021-05-28T15:22:00Z</time>
      </trkpt>
      <trkpt lat="42.498796" lon="2.429892">
        <ele>1940.113</ele>
        <time>2021-05-28T15:22:04Z</time>
      </trkpt>
      <trkpt lat="42.498814" lon="2.429912">
        <ele>1939.108</ele>
        <time>2021-05-28T15:22:07Z</time>
      </trkpt>
      <trkpt lat="42.498839" lon="2.429920">
        <ele>1937.124</ele>
        <time>2021-05-28T15:22:09Z</time>
      </trkpt>
      <trkpt lat="42.498863" lon="2.429932">
        <ele>1935.381</ele>
        <time>2021-05-28T15:22:10Z</time>
      </trkpt>
      <trkpt lat="42.498882" lon="2.429942">
        <ele>1933.982</ele>
        <time>2021-05-28T15:22:13Z</time>
      </trkpt>
      <trkpt lat="42.498891" lon="2.429966">
        <ele>1933.951</ele>
        <time>2021-05-28T15:22:15Z</time>
      </trkpt>
      <trkpt lat="42.498901" lon="2.429989">
        <ele>1933.828</ele>
        <time>2021-05-28T15:22:18Z</time>
      </trkpt>
      <trkpt lat="42.498911" lon="2.430022">
        <ele>1934.053</ele>
        <time>2021-05-28T15:22:20Z</time>
      </trkpt>
      <trkpt lat="42.498909" lon="2.430052">
        <ele>1935.070</ele>
        <time>2021-05-28T15:22:22Z</time>
      </trkpt>
      <trkpt lat="42.498902" lon="2.430082">
        <ele>1936.218</ele>
        <time>2021-05-28T15:22:23Z</time>
      </trkpt>
      <trkpt lat="42.498901" lon="2.430119">
        <ele>1937.399</ele>
        <time>2021-05-28T15:22:26Z</time>
      </trkpt>
      <trkpt lat="42.498903" lon="2.430150">
        <ele>1938.007</ele>
        <time>2021-05-28T15:22:28Z</time>
      </trkpt>
      <trkpt lat="42.498901" lon="2.430179">
        <ele>1938.827</ele>
        <time>2021-05-28T15:22:30Z</time>
      </trkpt>
      <trkpt lat="42.498894" lon="2.430205">
        <ele>1939.908</ele>
        <time>2021-05-28T15:22:32Z</time>
      </trkpt>
      <trkpt lat="42.498890" lon="2.430232">
        <ele>1940.856</ele>
        <time>2021-05-28T15:22:34Z</time>
      </trkpt>
      <trkpt lat="42.498881" lon="2.430255">
        <ele>1942.033</ele>
        <time>2021-05-28T15:23:11Z</time>
      </trkpt>
      <trkpt lat="42.498900" lon="2.430265">
        <ele>1941.124</ele>
        <time>2021-05-28T15:23:48Z</time>
      </trkpt>
      <trkpt lat="42.498992" lon="2.430319">
        <ele>1939.643</ele>
        <time>2021-05-28T15:23:59Z</time>
      </trkpt>
      <trkpt lat="42.499072" lon="2.430384">
        <ele>1939.180</ele>
        <time>2021-05-28T15:24:10Z</time>
      </trkpt>
      <trkpt lat="42.499153" lon="2.430445">
        <ele>1937.625</ele>
        <time>2021-05-28T15:24:19Z</time>
      </trkpt>
      <trkpt lat="42.499218" lon="2.430540">
        <ele>1938.142</ele>
        <time>2021-05-28T15:24:29Z</time>
      </trkpt>
      <trkpt lat="42.499243" lon="2.430572">
        <ele>1937.910</ele>
        <time>2021-05-28T15:24:32Z</time>
      </trkpt>
      <trkpt lat="42.499266" lon="2.430599">
        <ele>1937.474</ele>
        <time>2021-05-28T15:24:34Z</time>
      </trkpt>
      <trkpt lat="42.499280" lon="2.430627">
        <ele>1937.556</ele>
        <time>2021-05-28T15:24:37Z</time>
      </trkpt>
      <trkpt lat="42.499295" lon="2.430658">
        <ele>1937.621</ele>
        <time>2021-05-28T15:24:40Z</time>
      </trkpt>
      <trkpt lat="42.499294" lon="2.430683">
        <ele>1938.508</ele>
        <time>2021-05-28T15:24:42Z</time>
      </trkpt>
      <trkpt lat="42.499319" lon="2.430726">
        <ele>1938.544</ele>
        <time>2021-05-28T15:24:44Z</time>
      </trkpt>
      <trkpt lat="42.499340" lon="2.430751">
        <ele>1938.271</ele>
        <time>2021-05-28T15:24:47Z</time>
      </trkpt>
      <trkpt lat="42.499355" lon="2.430774">
        <ele>1938.162</ele>
        <time>2021-05-28T15:24:49Z</time>
      </trkpt>
      <trkpt lat="42.499381" lon="2.430797">
        <ele>1937.441</ele>
        <time>2021-05-28T15:24:51Z</time>
      </trkpt>
      <trkpt lat="42.499402" lon="2.430833">
        <ele>1937.428</ele>
        <time>2021-05-28T15:24:53Z</time>
      </trkpt>
      <trkpt lat="42.499416" lon="2.430870">
        <ele>1937.233</ele>
        <time>2021-05-28T15:24:55Z</time>
      </trkpt>
      <trkpt lat="42.499421" lon="2.430901">
        <ele>1937.320</ele>
        <time>2021-05-28T15:24:57Z</time>
      </trkpt>
      <trkpt lat="42.499432" lon="2.430937">
        <ele>1937.248</ele>
        <time>2021-05-28T15:25:00Z</time>
      </trkpt>
      <trkpt lat="42.499443" lon="2.430965">
        <ele>1937.086</ele>
        <time>2021-05-28T15:25:01Z</time>
      </trkpt>
      <trkpt lat="42.499445" lon="2.430999">
        <ele>1937.360</ele>
        <time>2021-05-28T15:25:03Z</time>
      </trkpt>
      <trkpt lat="42.499449" lon="2.431025">
        <ele>1937.426</ele>
        <time>2021-05-28T15:25:06Z</time>
      </trkpt>
      <trkpt lat="42.499456" lon="2.431050">
        <ele>1937.208</ele>
        <time>2021-05-28T15:25:08Z</time>
      </trkpt>
      <trkpt lat="42.499464" lon="2.431074">
        <ele>1937.025</ele>
        <time>2021-05-28T15:25:10Z</time>
      </trkpt>
      <trkpt lat="42.499471" lon="2.431108">
        <ele>1936.992</ele>
        <time>2021-05-28T15:25:12Z</time>
      </trkpt>
      <trkpt lat="42.499469" lon="2.431143">
        <ele>1937.273</ele>
        <time>2021-05-28T15:25:14Z</time>
      </trkpt>
      <trkpt lat="42.499461" lon="2.431172">
        <ele>1937.992</ele>
        <time>2021-05-28T15:25:16Z</time>
      </trkpt>
      <trkpt lat="42.499463" lon="2.431199">
        <ele>1937.969</ele>
        <time>2021-05-28T15:25:18Z</time>
      </trkpt>
      <trkpt lat="42.499462" lon="2.431235">
        <ele>1938.184</ele>
        <time>2021-05-28T15:25:20Z</time>
      </trkpt>
      <trkpt lat="42.499459" lon="2.431266">
        <ele>1938.451</ele>
        <time>2021-05-28T15:25:22Z</time>
      </trkpt>
      <trkpt lat="42.499477" lon="2.431302">
        <ele>1937.149</ele>
        <time>2021-05-28T15:25:24Z</time>
      </trkpt>
      <trkpt lat="42.499491" lon="2.431323">
        <ele>1936.054</ele>
        <time>2021-05-28T15:25:26Z</time>
      </trkpt>
      <trkpt lat="42.499490" lon="2.431352">
        <ele>1936.156</ele>
        <time>2021-05-28T15:25:28Z</time>
      </trkpt>
      <trkpt lat="42.499496" lon="2.431376">
        <ele>1935.711</ele>
        <time>2021-05-28T15:25:29Z</time>
      </trkpt>
      <trkpt lat="42.499494" lon="2.431405">
        <ele>1935.908</ele>
        <time>2021-05-28T15:25:30Z</time>
      </trkpt>
      <trkpt lat="42.499485" lon="2.431431">
        <ele>1936.622</ele>
        <time>2021-05-28T15:25:31Z</time>
      </trkpt>
      <trkpt lat="42.499483" lon="2.431470">
        <ele>1936.859</ele>
        <time>2021-05-28T15:25:33Z</time>
      </trkpt>
      <trkpt lat="42.499474" lon="2.431495">
        <ele>1937.560</ele>
        <time>2021-05-28T15:25:35Z</time>
      </trkpt>
      <trkpt lat="42.499467" lon="2.431523">
        <ele>1938.169</ele>
        <time>2021-05-28T15:25:37Z</time>
      </trkpt>
      <trkpt lat="42.499476" lon="2.431559">
        <ele>1937.326</ele>
        <time>2021-05-28T15:25:39Z</time>
      </trkpt>
      <trkpt lat="42.499480" lon="2.431588">
        <ele>1937.061</ele>
        <time>2021-05-28T15:25:43Z</time>
      </trkpt>
      <trkpt lat="42.499487" lon="2.431611">
        <ele>1936.438</ele>
        <time>2021-05-28T15:25:45Z</time>
      </trkpt>
      <trkpt lat="42.499495" lon="2.431636">
        <ele>1935.716</ele>
        <time>2021-05-28T15:25:47Z</time>
      </trkpt>
      <trkpt lat="42.499501" lon="2.431661">
        <ele>1935.135</ele>
        <time>2021-05-28T15:25:49Z</time>
      </trkpt>
      <trkpt lat="42.499498" lon="2.431687">
        <ele>1935.386</ele>
        <time>2021-05-28T15:25:51Z</time>
      </trkpt>
      <trkpt lat="42.499497" lon="2.431714">
        <ele>1935.414</ele>
        <time>2021-05-28T15:25:53Z</time>
      </trkpt>
      <trkpt lat="42.499496" lon="2.431752">
        <ele>1935.408</ele>
        <time>2021-05-28T15:25:56Z</time>
      </trkpt>
      <trkpt lat="42.499500" lon="2.431784">
        <ele>1934.940</ele>
        <time>2021-05-28T15:25:59Z</time>
      </trkpt>
      <trkpt lat="42.499493" lon="2.431810">
        <ele>1935.567</ele>
        <time>2021-05-28T15:26:01Z</time>
      </trkpt>
      <trkpt lat="42.499502" lon="2.431842">
        <ele>1934.728</ele>
        <time>2021-05-28T15:26:03Z</time>
      </trkpt>
      <trkpt lat="42.499504" lon="2.431874">
        <ele>1934.457</ele>
        <time>2021-05-28T15:26:05Z</time>
      </trkpt>
      <trkpt lat="42.499505" lon="2.431908">
        <ele>1934.334</ele>
        <time>2021-05-28T15:26:08Z</time>
      </trkpt>
      <trkpt lat="42.499512" lon="2.431935">
        <ele>1933.729</ele>
        <time>2021-05-28T15:26:11Z</time>
      </trkpt>
      <trkpt lat="42.499519" lon="2.431975">
        <ele>1933.376</ele>
        <time>2021-05-28T15:26:14Z</time>
      </trkpt>
      <trkpt lat="42.499516" lon="2.432008">
        <ele>1933.824</ele>
        <time>2021-05-28T15:26:17Z</time>
      </trkpt>
      <trkpt lat="42.499496" lon="2.432035">
        <ele>1935.551</ele>
        <time>2021-05-28T15:26:19Z</time>
      </trkpt>
      <trkpt lat="42.499483" lon="2.432053">
        <ele>1936.601</ele>
        <time>2021-05-28T15:26:21Z</time>
      </trkpt>
      <trkpt lat="42.499485" lon="2.432082">
        <ele>1936.611</ele>
        <time>2021-05-28T15:26:23Z</time>
      </trkpt>
      <trkpt lat="42.499488" lon="2.432111">
        <ele>1936.508</ele>
        <time>2021-05-28T15:26:25Z</time>
      </trkpt>
      <trkpt lat="42.499498" lon="2.432145">
        <ele>1936.072</ele>
        <time>2021-05-28T15:26:27Z</time>
      </trkpt>
      <trkpt lat="42.499506" lon="2.432179">
        <ele>1935.719</ele>
        <time>2021-05-28T15:26:29Z</time>
      </trkpt>
      <trkpt lat="42.499506" lon="2.432211">
        <ele>1935.920</ele>
        <time>2021-05-28T15:26:31Z</time>
      </trkpt>
      <trkpt lat="42.499499" lon="2.432243">
        <ele>1936.879</ele>
        <time>2021-05-28T15:26:33Z</time>
      </trkpt>
      <trkpt lat="42.499486" lon="2.432279">
        <ele>1938.256</ele>
        <time>2021-05-28T15:26:36Z</time>
      </trkpt>
      <trkpt lat="42.499488" lon="2.432309">
        <ele>1938.661</ele>
        <time>2021-05-28T15:26:39Z</time>
      </trkpt>
      <trkpt lat="42.499501" lon="2.432328">
        <ele>1938.268</ele>
        <time>2021-05-28T15:26:43Z</time>
      </trkpt>
      <trkpt lat="42.499528" lon="2.432334">
        <ele>1936.746</ele>
        <time>2021-05-28T15:26:45Z</time>
      </trkpt>
      <trkpt lat="42.499544" lon="2.432364">
        <ele>1936.353</ele>
        <time>2021-05-28T15:26:47Z</time>
      </trkpt>
      <trkpt lat="42.499537" lon="2.432394">
        <ele>1937.304</ele>
        <time>2021-05-28T15:26:50Z</time>
      </trkpt>
      <trkpt lat="42.499529" lon="2.432418">
        <ele>1938.214</ele>
        <time>2021-05-28T15:26:52Z</time>
      </trkpt>
      <trkpt lat="42.499518" lon="2.432439">
        <ele>1939.208</ele>
        <time>2021-05-28T15:26:54Z</time>
      </trkpt>
      <trkpt lat="42.499512" lon="2.432471">
        <ele>1940.112</ele>
        <time>2021-05-28T15:26:57Z</time>
      </trkpt>
      <trkpt lat="42.499514" lon="2.432500">
        <ele>1940.539</ele>
        <time>2021-05-28T15:26:59Z</time>
      </trkpt>
      <trkpt lat="42.499532" lon="2.432524">
        <ele>1940.480</ele>
        <time>2021-05-28T15:27:01Z</time>
      </trkpt>
      <trkpt lat="42.499550" lon="2.432543">
        <ele>1940.159</ele>
        <time>2021-05-28T15:27:03Z</time>
      </trkpt>
      <trkpt lat="42.499567" lon="2.432562">
        <ele>1939.916</ele>
        <time>2021-05-28T15:27:05Z</time>
      </trkpt>
      <trkpt lat="42.499581" lon="2.432579">
        <ele>1939.821</ele>
        <time>2021-05-28T15:27:07Z</time>
      </trkpt>
      <trkpt lat="42.499595" lon="2.432597">
        <ele>1939.738</ele>
        <time>2021-05-28T15:27:10Z</time>
      </trkpt>
      <trkpt lat="42.499609" lon="2.432613">
        <ele>1939.696</ele>
        <time>2021-05-28T15:27:12Z</time>
      </trkpt>
      <trkpt lat="42.499597" lon="2.432639">
        <ele>1941.152</ele>
        <time>2021-05-28T15:27:16Z</time>
      </trkpt>
      <trkpt lat="42.499583" lon="2.432662">
        <ele>1942.653</ele>
        <time>2021-05-28T15:27:19Z</time>
      </trkpt>
      <trkpt lat="42.499597" lon="2.432683">
        <ele>1942.608</ele>
        <time>2021-05-28T15:27:21Z</time>
      </trkpt>
      <trkpt lat="42.499606" lon="2.432712">
        <ele>1943.208</ele>
        <time>2021-05-28T15:27:26Z</time>
      </trkpt>
      <trkpt lat="42.499612" lon="2.432742">
        <ele>1943.992</ele>
        <time>2021-05-28T15:27:29Z</time>
      </trkpt>
      <trkpt lat="42.499626" lon="2.432766">
        <ele>1944.139</ele>
        <time>2021-05-28T15:27:32Z</time>
      </trkpt>
      <trkpt lat="42.499645" lon="2.432779">
        <ele>1943.730</ele>
        <time>2021-05-28T15:27:35Z</time>
      </trkpt>
      <trkpt lat="42.499660" lon="2.432793">
        <ele>1943.399</ele>
        <time>2021-05-28T15:27:38Z</time>
      </trkpt>
      <trkpt lat="42.499668" lon="2.432816">
        <ele>1943.666</ele>
        <time>2021-05-28T15:27:42Z</time>
      </trkpt>
      <trkpt lat="42.499674" lon="2.432844">
        <ele>1944.141</ele>
        <time>2021-05-28T15:27:46Z</time>
      </trkpt>
      <trkpt lat="42.499692" lon="2.432861">
        <ele>1943.678</ele>
        <time>2021-05-28T15:27:49Z</time>
      </trkpt>
      <trkpt lat="42.499708" lon="2.432879">
        <ele>1943.376</ele>
        <time>2021-05-28T15:27:51Z</time>
      </trkpt>
      <trkpt lat="42.499707" lon="2.432906">
        <ele>1944.078</ele>
        <time>2021-05-28T15:27:55Z</time>
      </trkpt>
      <trkpt lat="42.499710" lon="2.432931">
        <ele>1944.533</ele>
        <time>2021-05-28T15:27:58Z</time>
      </trkpt>
      <trkpt lat="42.499710" lon="2.432968">
        <ele>1945.526</ele>
        <time>2021-05-28T15:28:01Z</time>
      </trkpt>
      <trkpt lat="42.499703" lon="2.432999">
        <ele>1946.708</ele>
        <time>2021-05-28T15:28:04Z</time>
      </trkpt>
      <trkpt lat="42.499714" lon="2.433031">
        <ele>1946.984</ele>
        <time>2021-05-28T15:28:07Z</time>
      </trkpt>
      <trkpt lat="42.499724" lon="2.433057">
        <ele>1946.921</ele>
        <time>2021-05-28T15:28:10Z</time>
      </trkpt>
      <trkpt lat="42.499724" lon="2.433085">
        <ele>1947.072</ele>
        <time>2021-05-28T15:28:13Z</time>
      </trkpt>
      <trkpt lat="42.499731" lon="2.433119">
        <ele>1946.981</ele>
        <time>2021-05-28T15:28:16Z</time>
      </trkpt>
      <trkpt lat="42.499729" lon="2.433150">
        <ele>1947.198</ele>
        <time>2021-05-28T15:28:19Z</time>
      </trkpt>
      <trkpt lat="42.499730" lon="2.433176">
        <ele>1947.273</ele>
        <time>2021-05-28T15:28:21Z</time>
      </trkpt>
      <trkpt lat="42.499735" lon="2.433210">
        <ele>1947.120</ele>
        <time>2021-05-28T15:28:23Z</time>
      </trkpt>
      <trkpt lat="42.499732" lon="2.433242">
        <ele>1947.478</ele>
        <time>2021-05-28T15:28:25Z</time>
      </trkpt>
      <trkpt lat="42.499721" lon="2.433272">
        <ele>1947.873</ele>
        <time>2021-05-28T15:28:27Z</time>
      </trkpt>
      <trkpt lat="42.499717" lon="2.433300">
        <ele>1948.285</ele>
        <time>2021-05-28T15:28:30Z</time>
      </trkpt>
      <trkpt lat="42.499711" lon="2.433323">
        <ele>1948.613</ele>
        <time>2021-05-28T15:28:32Z</time>
      </trkpt>
      <trkpt lat="42.499710" lon="2.433359">
        <ele>1948.908</ele>
        <time>2021-05-28T15:28:35Z</time>
      </trkpt>
      <trkpt lat="42.499711" lon="2.433383">
        <ele>1949.174</ele>
        <time>2021-05-28T15:28:36Z</time>
      </trkpt>
      <trkpt lat="42.499702" lon="2.433414">
        <ele>1949.911</ele>
        <time>2021-05-28T15:28:39Z</time>
      </trkpt>
      <trkpt lat="42.499695" lon="2.433447">
        <ele>1950.672</ele>
        <time>2021-05-28T15:28:41Z</time>
      </trkpt>
      <trkpt lat="42.499696" lon="2.433480">
        <ele>1950.991</ele>
        <time>2021-05-28T15:28:43Z</time>
      </trkpt>
      <trkpt lat="42.499701" lon="2.433506">
        <ele>1950.918</ele>
        <time>2021-05-28T15:28:45Z</time>
      </trkpt>
      <trkpt lat="42.499708" lon="2.433533">
        <ele>1950.933</ele>
        <time>2021-05-28T15:28:47Z</time>
      </trkpt>
      <trkpt lat="42.499707" lon="2.433558">
        <ele>1951.210</ele>
        <time>2021-05-28T15:28:49Z</time>
      </trkpt>
      <trkpt lat="42.499709" lon="2.433583">
        <ele>1951.358</ele>
        <time>2021-05-28T15:28:51Z</time>
      </trkpt>
      <trkpt lat="42.499706" lon="2.433613">
        <ele>1951.864</ele>
        <time>2021-05-28T15:28:53Z</time>
      </trkpt>
      <trkpt lat="42.499706" lon="2.433637">
        <ele>1952.106</ele>
        <time>2021-05-28T15:28:55Z</time>
      </trkpt>
      <trkpt lat="42.499707" lon="2.433672">
        <ele>1952.616</ele>
        <time>2021-05-28T15:28:58Z</time>
      </trkpt>
      <trkpt lat="42.499715" lon="2.433704">
        <ele>1952.708</ele>
        <time>2021-05-28T15:29:00Z</time>
      </trkpt>
      <trkpt lat="42.499724" lon="2.433730">
        <ele>1952.693</ele>
        <time>2021-05-28T15:29:02Z</time>
      </trkpt>
      <trkpt lat="42.499738" lon="2.433749">
        <ele>1952.450</ele>
        <time>2021-05-28T15:29:04Z</time>
      </trkpt>
      <trkpt lat="42.499749" lon="2.433775">
        <ele>1952.381</ele>
        <time>2021-05-28T15:29:06Z</time>
      </trkpt>
      <trkpt lat="42.499758" lon="2.433800">
        <ele>1952.360</ele>
        <time>2021-05-28T15:29:08Z</time>
      </trkpt>
      <trkpt lat="42.499767" lon="2.433824">
        <ele>1952.217</ele>
        <time>2021-05-28T15:29:10Z</time>
      </trkpt>
      <trkpt lat="42.499768" lon="2.433849">
        <ele>1952.582</ele>
        <time>2021-05-28T15:29:12Z</time>
      </trkpt>
      <trkpt lat="42.499774" lon="2.433876">
        <ele>1952.629</ele>
        <time>2021-05-28T15:29:14Z</time>
      </trkpt>
      <trkpt lat="42.499773" lon="2.433905">
        <ele>1953.117</ele>
        <time>2021-05-28T15:29:16Z</time>
      </trkpt>
      <trkpt lat="42.499765" lon="2.433936">
        <ele>1953.978</ele>
        <time>2021-05-28T15:29:18Z</time>
      </trkpt>
      <trkpt lat="42.499754" lon="2.433959">
        <ele>1954.733</ele>
        <time>2021-05-28T15:29:20Z</time>
      </trkpt>
      <trkpt lat="42.499746" lon="2.433981">
        <ele>1955.426</ele>
        <time>2021-05-28T15:29:22Z</time>
      </trkpt>
      <trkpt lat="42.499754" lon="2.434003">
        <ele>1955.408</ele>
        <time>2021-05-28T15:29:24Z</time>
      </trkpt>
      <trkpt lat="42.499764" lon="2.434036">
        <ele>1955.594</ele>
        <time>2021-05-28T15:29:26Z</time>
      </trkpt>
      <trkpt lat="42.499769" lon="2.434065">
        <ele>1955.781</ele>
        <time>2021-05-28T15:29:29Z</time>
      </trkpt>
      <trkpt lat="42.499763" lon="2.434096">
        <ele>1956.442</ele>
        <time>2021-05-28T15:29:31Z</time>
      </trkpt>
      <trkpt lat="42.499763" lon="2.434128">
        <ele>1956.961</ele>
        <time>2021-05-28T15:29:34Z</time>
      </trkpt>
      <trkpt lat="42.499767" lon="2.434157">
        <ele>1957.288</ele>
        <time>2021-05-28T15:29:36Z</time>
      </trkpt>
      <trkpt lat="42.499772" lon="2.434192">
        <ele>1957.633</ele>
        <time>2021-05-28T15:29:38Z</time>
      </trkpt>
      <trkpt lat="42.499778" lon="2.434222">
        <ele>1957.990</ele>
        <time>2021-05-28T15:29:40Z</time>
      </trkpt>
      <trkpt lat="42.499787" lon="2.434258">
        <ele>1958.258</ele>
        <time>2021-05-28T15:29:42Z</time>
      </trkpt>
      <trkpt lat="42.499794" lon="2.434284">
        <ele>1958.349</ele>
        <time>2021-05-28T15:29:45Z</time>
      </trkpt>
      <trkpt lat="42.499802" lon="2.434310">
        <ele>1958.402</ele>
        <time>2021-05-28T15:29:47Z</time>
      </trkpt>
      <trkpt lat="42.499811" lon="2.434337">
        <ele>1958.522</ele>
        <time>2021-05-28T15:29:52Z</time>
      </trkpt>
      <trkpt lat="42.499820" lon="2.434372">
        <ele>1958.708</ele>
        <time>2021-05-28T15:29:55Z</time>
      </trkpt>
      <trkpt lat="42.499820" lon="2.434403">
        <ele>1959.111</ele>
        <time>2021-05-28T15:29:57Z</time>
      </trkpt>
      <trkpt lat="42.499827" lon="2.434428">
        <ele>1959.248</ele>
        <time>2021-05-28T15:29:59Z</time>
      </trkpt>
      <trkpt lat="42.499835" lon="2.434460">
        <ele>1959.259</ele>
        <time>2021-05-28T15:30:01Z</time>
      </trkpt>
      <trkpt lat="42.499841" lon="2.434492">
        <ele>1959.078</ele>
        <time>2021-05-28T15:30:03Z</time>
      </trkpt>
      <trkpt lat="42.499847" lon="2.434518">
        <ele>1958.935</ele>
        <time>2021-05-28T15:30:05Z</time>
      </trkpt>
      <trkpt lat="42.499855" lon="2.434545">
        <ele>1958.620</ele>
        <time>2021-05-28T15:30:07Z</time>
      </trkpt>
      <trkpt lat="42.499872" lon="2.434572">
        <ele>1958.087</ele>
        <time>2021-05-28T15:30:10Z</time>
      </trkpt>
      <trkpt lat="42.499876" lon="2.434599">
        <ele>1957.955</ele>
        <time>2021-05-28T15:30:12Z</time>
      </trkpt>
      <trkpt lat="42.499883" lon="2.434623">
        <ele>1957.722</ele>
        <time>2021-05-28T15:30:14Z</time>
      </trkpt>
      <trkpt lat="42.499898" lon="2.434652">
        <ele>1957.262</ele>
        <time>2021-05-28T15:30:17Z</time>
      </trkpt>
      <trkpt lat="42.499915" lon="2.434681">
        <ele>1956.508</ele>
        <time>2021-05-28T15:30:20Z</time>
      </trkpt>
      <trkpt lat="42.499919" lon="2.434709">
        <ele>1956.508</ele>
        <time>2021-05-28T15:30:22Z</time>
      </trkpt>
      <trkpt lat="42.499914" lon="2.434738">
        <ele>1957.069</ele>
        <time>2021-05-28T15:30:24Z</time>
      </trkpt>
      <trkpt lat="42.499905" lon="2.434765">
        <ele>1957.856</ele>
        <time>2021-05-28T15:30:26Z</time>
      </trkpt>
      <trkpt lat="42.499888" lon="2.434780">
        <ele>1958.817</ele>
        <time>2021-05-28T15:30:29Z</time>
      </trkpt>
      <trkpt lat="42.499872" lon="2.434801">
        <ele>1959.716</ele>
        <time>2021-05-28T15:30:32Z</time>
      </trkpt>
      <trkpt lat="42.499863" lon="2.434828">
        <ele>1960.513</ele>
        <time>2021-05-28T15:30:35Z</time>
      </trkpt>
      <trkpt lat="42.499843" lon="2.434848">
        <ele>1961.538</ele>
        <time>2021-05-28T15:30:38Z</time>
      </trkpt>
      <trkpt lat="42.499829" lon="2.434865">
        <ele>1962.265</ele>
        <time>2021-05-28T15:30:41Z</time>
      </trkpt>
      <trkpt lat="42.499815" lon="2.434887">
        <ele>1963.013</ele>
        <time>2021-05-28T15:30:44Z</time>
      </trkpt>
      <trkpt lat="42.499833" lon="2.434914">
        <ele>1962.719</ele>
        <time>2021-05-28T15:30:48Z</time>
      </trkpt>
      <trkpt lat="42.499854" lon="2.434923">
        <ele>1962.109</ele>
        <time>2021-05-28T15:30:50Z</time>
      </trkpt>
      <trkpt lat="42.499872" lon="2.434937">
        <ele>1961.719</ele>
        <time>2021-05-28T15:30:52Z</time>
      </trkpt>
      <trkpt lat="42.499885" lon="2.434955">
        <ele>1961.608</ele>
        <time>2021-05-28T15:30:54Z</time>
      </trkpt>
      <trkpt lat="42.499904" lon="2.434985">
        <ele>1961.538</ele>
        <time>2021-05-28T15:30:55Z</time>
      </trkpt>
      <trkpt lat="42.499910" lon="2.435019">
        <ele>1961.665</ele>
        <time>2021-05-28T15:30:58Z</time>
      </trkpt>
      <trkpt lat="42.499906" lon="2.435054">
        <ele>1961.846</ele>
        <time>2021-05-28T15:31:00Z</time>
      </trkpt>
      <trkpt lat="42.499898" lon="2.435085">
        <ele>1962.285</ele>
        <time>2021-05-28T15:31:02Z</time>
      </trkpt>
      <trkpt lat="42.499884" lon="2.435110">
        <ele>1962.752</ele>
        <time>2021-05-28T15:31:03Z</time>
      </trkpt>
      <trkpt lat="42.499867" lon="2.435122">
        <ele>1963.337</ele>
        <time>2021-05-28T15:31:07Z</time>
      </trkpt>
      <trkpt lat="42.499857" lon="2.435157">
        <ele>1963.724</ele>
        <time>2021-05-28T15:31:10Z</time>
      </trkpt>
      <trkpt lat="42.499845" lon="2.435202">
        <ele>1964.332</ele>
        <time>2021-05-28T15:31:13Z</time>
      </trkpt>
      <trkpt lat="42.499832" lon="2.435228">
        <ele>1964.831</ele>
        <time>2021-05-28T15:31:15Z</time>
      </trkpt>
      <trkpt lat="42.499833" lon="2.435255">
        <ele>1964.961</ele>
        <time>2021-05-28T15:31:17Z</time>
      </trkpt>
      <trkpt lat="42.499832" lon="2.435287">
        <ele>1965.007</ele>
        <time>2021-05-28T15:31:19Z</time>
      </trkpt>
      <trkpt lat="42.499830" lon="2.435319">
        <ele>1965.108</ele>
        <time>2021-05-28T15:31:21Z</time>
      </trkpt>
      <trkpt lat="42.499829" lon="2.435349">
        <ele>1965.290</ele>
        <time>2021-05-28T15:31:23Z</time>
      </trkpt>
      <trkpt lat="42.499830" lon="2.435381">
        <ele>1965.177</ele>
        <time>2021-05-28T15:31:25Z</time>
      </trkpt>
      <trkpt lat="42.499836" lon="2.435407">
        <ele>1964.948</ele>
        <time>2021-05-28T15:31:27Z</time>
      </trkpt>
      <trkpt lat="42.499836" lon="2.435435">
        <ele>1964.967</ele>
        <time>2021-05-28T15:31:29Z</time>
      </trkpt>
      <trkpt lat="42.499843" lon="2.435467">
        <ele>1964.744</ele>
        <time>2021-05-28T15:31:31Z</time>
      </trkpt>
      <trkpt lat="42.499844" lon="2.435504">
        <ele>1964.619</ele>
        <time>2021-05-28T15:31:33Z</time>
      </trkpt>
      <trkpt lat="42.499837" lon="2.435537">
        <ele>1964.916</ele>
        <time>2021-05-28T15:31:35Z</time>
      </trkpt>
      <trkpt lat="42.499834" lon="2.435566">
        <ele>1965.094</ele>
        <time>2021-05-28T15:31:37Z</time>
      </trkpt>
      <trkpt lat="42.499826" lon="2.435599">
        <ele>1965.457</ele>
        <time>2021-05-28T15:31:38Z</time>
      </trkpt>
      <trkpt lat="42.499817" lon="2.435629">
        <ele>1965.800</ele>
        <time>2021-05-28T15:31:41Z</time>
      </trkpt>
      <trkpt lat="42.499808" lon="2.435657">
        <ele>1966.120</ele>
        <time>2021-05-28T15:31:43Z</time>
      </trkpt>
      <trkpt lat="42.499802" lon="2.435681">
        <ele>1966.408</ele>
        <time>2021-05-28T15:31:45Z</time>
      </trkpt>
      <trkpt lat="42.499793" lon="2.435712">
        <ele>1966.782</ele>
        <time>2021-05-28T15:31:48Z</time>
      </trkpt>
      <trkpt lat="42.499780" lon="2.435744">
        <ele>1967.279</ele>
        <time>2021-05-28T15:31:51Z</time>
      </trkpt>
      <trkpt lat="42.499770" lon="2.435774">
        <ele>1967.640</ele>
        <time>2021-05-28T15:31:55Z</time>
      </trkpt>
      <trkpt lat="42.499767" lon="2.435781">
        <ele>1967.739</ele>
        <time>2021-05-28T15:31:56Z</time>
      </trkpt>
      <trkpt lat="42.499740" lon="2.436015">
        <ele>1970.436</ele>
        <time>2021-05-28T15:32:16Z</time>
      </trkpt>
      <trkpt lat="42.499744" lon="2.436041">
        <ele>1970.651</ele>
        <time>2021-05-28T15:32:20Z</time>
      </trkpt>
      <trkpt lat="42.499754" lon="2.436071">
        <ele>1970.668</ele>
        <time>2021-05-28T15:32:23Z</time>
      </trkpt>
      <trkpt lat="42.499764" lon="2.436092">
        <ele>1970.546</ele>
        <time>2021-05-28T15:32:25Z</time>
      </trkpt>
      <trkpt lat="42.499787" lon="2.436136">
        <ele>1970.085</ele>
        <time>2021-05-28T15:32:27Z</time>
      </trkpt>
      <trkpt lat="42.499789" lon="2.436172">
        <ele>1970.289</ele>
        <time>2021-05-28T15:32:30Z</time>
      </trkpt>
      <trkpt lat="42.499787" lon="2.436201">
        <ele>1970.417</ele>
        <time>2021-05-28T15:32:32Z</time>
      </trkpt>
      <trkpt lat="42.499798" lon="2.436233">
        <ele>1970.208</ele>
        <time>2021-05-28T15:32:34Z</time>
      </trkpt>
      <trkpt lat="42.499804" lon="2.436260">
        <ele>1970.165</ele>
        <time>2021-05-28T15:32:36Z</time>
      </trkpt>
      <trkpt lat="42.499809" lon="2.436290">
        <ele>1970.182</ele>
        <time>2021-05-28T15:32:38Z</time>
      </trkpt>
      <trkpt lat="42.499805" lon="2.436319">
        <ele>1970.423</ele>
        <time>2021-05-28T15:32:40Z</time>
      </trkpt>
      <trkpt lat="42.499805" lon="2.436349">
        <ele>1970.572</ele>
        <time>2021-05-28T15:32:42Z</time>
      </trkpt>
      <trkpt lat="42.499812" lon="2.436375">
        <ele>1970.489</ele>
        <time>2021-05-28T15:32:44Z</time>
      </trkpt>
      <trkpt lat="42.499819" lon="2.436399">
        <ele>1970.244</ele>
        <time>2021-05-28T15:32:46Z</time>
      </trkpt>
      <trkpt lat="42.499829" lon="2.436425">
        <ele>1969.881</ele>
        <time>2021-05-28T15:32:48Z</time>
      </trkpt>
      <trkpt lat="42.499834" lon="2.436457">
        <ele>1969.659</ele>
        <time>2021-05-28T15:32:50Z</time>
      </trkpt>
      <trkpt lat="42.499833" lon="2.436486">
        <ele>1969.626</ele>
        <time>2021-05-28T15:32:52Z</time>
      </trkpt>
      <trkpt lat="42.499834" lon="2.436515">
        <ele>1969.647</ele>
        <time>2021-05-28T15:32:54Z</time>
      </trkpt>
      <trkpt lat="42.499842" lon="2.436539">
        <ele>1969.211</ele>
        <time>2021-05-28T15:32:56Z</time>
      </trkpt>
      <trkpt lat="42.499853" lon="2.436561">
        <ele>1968.608</ele>
        <time>2021-05-28T15:32:58Z</time>
      </trkpt>
      <trkpt lat="42.499860" lon="2.436590">
        <ele>1968.239</ele>
        <time>2021-05-28T15:33:00Z</time>
      </trkpt>
      <trkpt lat="42.499868" lon="2.436614">
        <ele>1967.726</ele>
        <time>2021-05-28T15:33:02Z</time>
      </trkpt>
      <trkpt lat="42.499877" lon="2.436641">
        <ele>1967.287</ele>
        <time>2021-05-28T15:33:04Z</time>
      </trkpt>
      <trkpt lat="42.499879" lon="2.436672">
        <ele>1966.976</ele>
        <time>2021-05-28T15:33:06Z</time>
      </trkpt>
      <trkpt lat="42.499881" lon="2.436698">
        <ele>1966.493</ele>
        <time>2021-05-28T15:33:08Z</time>
      </trkpt>
      <trkpt lat="42.499883" lon="2.436723">
        <ele>1965.998</ele>
        <time>2021-05-28T15:33:10Z</time>
      </trkpt>
      <trkpt lat="42.499886" lon="2.436756">
        <ele>1965.345</ele>
        <time>2021-05-28T15:33:12Z</time>
      </trkpt>
      <trkpt lat="42.499873" lon="2.436820">
        <ele>1965.353</ele>
        <time>2021-05-28T15:33:15Z</time>
      </trkpt>
      <trkpt lat="42.499870" lon="2.436844">
        <ele>1965.233</ele>
        <time>2021-05-28T15:33:16Z</time>
      </trkpt>
      <trkpt lat="42.499867" lon="2.436888">
        <ele>1964.823</ele>
        <time>2021-05-28T15:33:18Z</time>
      </trkpt>
      <trkpt lat="42.499861" lon="2.436912">
        <ele>1964.915</ele>
        <time>2021-05-28T15:33:19Z</time>
      </trkpt>
      <trkpt lat="42.499851" lon="2.436949">
        <ele>1965.208</ele>
        <time>2021-05-28T15:33:21Z</time>
      </trkpt>
      <trkpt lat="42.499837" lon="2.436977">
        <ele>1965.910</ele>
        <time>2021-05-28T15:33:23Z</time>
      </trkpt>
      <trkpt lat="42.499822" lon="2.437004">
        <ele>1966.647</ele>
        <time>2021-05-28T15:33:25Z</time>
      </trkpt>
      <trkpt lat="42.499809" lon="2.437021">
        <ele>1967.388</ele>
        <time>2021-05-28T15:33:26Z</time>
      </trkpt>
      <trkpt lat="42.499796" lon="2.437040">
        <ele>1968.027</ele>
        <time>2021-05-28T15:33:27Z</time>
      </trkpt>
      <trkpt lat="42.499784" lon="2.437065">
        <ele>1968.674</ele>
        <time>2021-05-28T15:33:29Z</time>
      </trkpt>
      <trkpt lat="42.499781" lon="2.437089">
        <ele>1968.569</ele>
        <time>2021-05-28T15:33:31Z</time>
      </trkpt>
      <trkpt lat="42.499770" lon="2.437132">
        <ele>1968.726</ele>
        <time>2021-05-28T15:33:33Z</time>
      </trkpt>
      <trkpt lat="42.499762" lon="2.437154">
        <ele>1969.084</ele>
        <time>2021-05-28T15:33:34Z</time>
      </trkpt>
      <trkpt lat="42.499745" lon="2.437191">
        <ele>1969.786</ele>
        <time>2021-05-28T15:33:36Z</time>
      </trkpt>
      <trkpt lat="42.499734" lon="2.437222">
        <ele>1970.160</ele>
        <time>2021-05-28T15:33:38Z</time>
      </trkpt>
      <trkpt lat="42.499720" lon="2.437250">
        <ele>1971.026</ele>
        <time>2021-05-28T15:33:40Z</time>
      </trkpt>
      <trkpt lat="42.499715" lon="2.437282">
        <ele>1971.308</ele>
        <time>2021-05-28T15:33:42Z</time>
      </trkpt>
      <trkpt lat="42.499716" lon="2.437330">
        <ele>1971.055</ele>
        <time>2021-05-28T15:33:44Z</time>
      </trkpt>
      <trkpt lat="42.499716" lon="2.437370">
        <ele>1970.912</ele>
        <time>2021-05-28T15:33:46Z</time>
      </trkpt>
      <trkpt lat="42.499712" lon="2.437412">
        <ele>1971.123</ele>
        <time>2021-05-28T15:33:48Z</time>
      </trkpt>
      <trkpt lat="42.499715" lon="2.437455">
        <ele>1970.752</ele>
        <time>2021-05-28T15:33:50Z</time>
      </trkpt>
      <trkpt lat="42.499717" lon="2.437502">
        <ele>1970.479</ele>
        <time>2021-05-28T15:33:52Z</time>
      </trkpt>
      <trkpt lat="42.499720" lon="2.437538">
        <ele>1969.994</ele>
        <time>2021-05-28T15:33:54Z</time>
      </trkpt>
      <trkpt lat="42.499730" lon="2.437578">
        <ele>1968.941</ele>
        <time>2021-05-28T15:33:56Z</time>
      </trkpt>
      <trkpt lat="42.499734" lon="2.437626">
        <ele>1968.239</ele>
        <time>2021-05-28T15:33:58Z</time>
      </trkpt>
      <trkpt lat="42.499753" lon="2.437699">
        <ele>1966.442</ele>
        <time>2021-05-28T15:34:00Z</time>
      </trkpt>
      <trkpt lat="42.499751" lon="2.437733">
        <ele>1966.322</ele>
        <time>2021-05-28T15:34:03Z</time>
      </trkpt>
      <trkpt lat="42.499747" lon="2.437767">
        <ele>1966.414</ele>
        <time>2021-05-28T15:34:05Z</time>
      </trkpt>
      <trkpt lat="42.499747" lon="2.437795">
        <ele>1966.108</ele>
        <time>2021-05-28T15:34:07Z</time>
      </trkpt>
      <trkpt lat="42.499745" lon="2.437830">
        <ele>1965.751</ele>
        <time>2021-05-28T15:34:09Z</time>
      </trkpt>
      <trkpt lat="42.499736" lon="2.437874">
        <ele>1965.798</ele>
        <time>2021-05-28T15:34:11Z</time>
      </trkpt>
      <trkpt lat="42.499729" lon="2.437921">
        <ele>1965.519</ele>
        <time>2021-05-28T15:34:13Z</time>
      </trkpt>
      <trkpt lat="42.499708" lon="2.437961">
        <ele>1966.518</ele>
        <time>2021-05-28T15:34:15Z</time>
      </trkpt>
      <trkpt lat="42.499694" lon="2.437981">
        <ele>1967.465</ele>
        <time>2021-05-28T15:34:16Z</time>
      </trkpt>
      <trkpt lat="42.499676" lon="2.438017">
        <ele>1968.410</ele>
        <time>2021-05-28T15:34:18Z</time>
      </trkpt>
      <trkpt lat="42.499665" lon="2.438047">
        <ele>1968.937</ele>
        <time>2021-05-28T15:34:20Z</time>
      </trkpt>
      <trkpt lat="42.499664" lon="2.438082">
        <ele>1968.265</ele>
        <time>2021-05-28T15:34:22Z</time>
      </trkpt>
      <trkpt lat="42.499672" lon="2.438118">
        <ele>1966.732</ele>
        <time>2021-05-28T15:34:24Z</time>
      </trkpt>
      <trkpt lat="42.499674" lon="2.438155">
        <ele>1965.792</ele>
        <time>2021-05-28T15:34:26Z</time>
      </trkpt>
      <trkpt lat="42.499670" lon="2.438190">
        <ele>1965.311</ele>
        <time>2021-05-28T15:34:28Z</time>
      </trkpt>
      <trkpt lat="42.499661" lon="2.438222">
        <ele>1965.408</ele>
        <time>2021-05-28T15:34:30Z</time>
      </trkpt>
      <trkpt lat="42.499653" lon="2.438251">
        <ele>1965.550</ele>
        <time>2021-05-28T15:34:32Z</time>
      </trkpt>
      <trkpt lat="42.499647" lon="2.438283">
        <ele>1965.457</ele>
        <time>2021-05-28T15:34:34Z</time>
      </trkpt>
      <trkpt lat="42.499641" lon="2.438326">
        <ele>1965.078</ele>
        <time>2021-05-28T15:34:36Z</time>
      </trkpt>
      <trkpt lat="42.499631" lon="2.438351">
        <ele>1965.557</ele>
        <time>2021-05-28T15:34:38Z</time>
      </trkpt>
      <trkpt lat="42.499621" lon="2.438379">
        <ele>1965.884</ele>
        <time>2021-05-28T15:34:40Z</time>
      </trkpt>
      <trkpt lat="42.499609" lon="2.438411">
        <ele>1966.169</ele>
        <time>2021-05-28T15:34:42Z</time>
      </trkpt>
      <trkpt lat="42.499601" lon="2.438438">
        <ele>1966.276</ele>
        <time>2021-05-28T15:34:44Z</time>
      </trkpt>
      <trkpt lat="42.499593" lon="2.438463">
        <ele>1966.224</ele>
        <time>2021-05-28T15:34:46Z</time>
      </trkpt>
      <trkpt lat="42.499576" lon="2.438482">
        <ele>1967.142</ele>
        <time>2021-05-28T15:34:48Z</time>
      </trkpt>
      <trkpt lat="42.499558" lon="2.438506">
        <ele>1967.822</ele>
        <time>2021-05-28T15:34:51Z</time>
      </trkpt>
      <trkpt lat="42.499548" lon="2.438530">
        <ele>1967.814</ele>
        <time>2021-05-28T15:34:54Z</time>
      </trkpt>
      <trkpt lat="42.499536" lon="2.438550">
        <ele>1968.108</ele>
        <time>2021-05-28T15:34:56Z</time>
      </trkpt>
      <trkpt lat="42.499526" lon="2.438573">
        <ele>1968.071</ele>
        <time>2021-05-28T15:34:58Z</time>
      </trkpt>
      <trkpt lat="42.499519" lon="2.438596">
        <ele>1967.768</ele>
        <time>2021-05-28T15:35:00Z</time>
      </trkpt>
      <trkpt lat="42.499491" lon="2.438685">
        <ele>1967.899</ele>
        <time>2021-05-28T15:35:07Z</time>
      </trkpt>
      <trkpt lat="42.499473" lon="2.438700">
        <ele>1968.598</ele>
        <time>2021-05-28T15:35:09Z</time>
      </trkpt>
      <trkpt lat="42.499453" lon="2.438710">
        <ele>1969.455</ele>
        <time>2021-05-28T15:35:12Z</time>
      </trkpt>
      <trkpt lat="42.499438" lon="2.438738">
        <ele>1969.970</ele>
        <time>2021-05-28T15:35:16Z</time>
      </trkpt>
      <trkpt lat="42.499447" lon="2.438783">
        <ele>1968.267</ele>
        <time>2021-05-28T15:35:18Z</time>
      </trkpt>
      <trkpt lat="42.499440" lon="2.438817">
        <ele>1968.085</ele>
        <time>2021-05-28T15:35:20Z</time>
      </trkpt>
      <trkpt lat="42.499424" lon="2.438841">
        <ele>1968.934</ele>
        <time>2021-05-28T15:35:23Z</time>
      </trkpt>
      <trkpt lat="42.499415" lon="2.438881">
        <ele>1968.855</ele>
        <time>2021-05-28T15:35:27Z</time>
      </trkpt>
      <trkpt lat="42.499416" lon="2.438914">
        <ele>1968.510</ele>
        <time>2021-05-28T15:35:31Z</time>
      </trkpt>
      <trkpt lat="42.499416" lon="2.438942">
        <ele>1968.508</ele>
        <time>2021-05-28T15:35:35Z</time>
      </trkpt>
      <trkpt lat="42.499386" lon="2.438978">
        <ele>1970.930</ele>
        <time>2021-05-28T15:35:41Z</time>
      </trkpt>
      <trkpt lat="42.499378" lon="2.439008">
        <ele>1971.597</ele>
        <time>2021-05-28T15:35:47Z</time>
      </trkpt>
      <trkpt lat="42.499388" lon="2.439030">
        <ele>1970.688</ele>
        <time>2021-05-28T15:35:51Z</time>
      </trkpt>
      <trkpt lat="42.499395" lon="2.439056">
        <ele>1969.937</ele>
        <time>2021-05-28T15:35:56Z</time>
      </trkpt>
      <trkpt lat="42.499410" lon="2.439074">
        <ele>1968.724</ele>
        <time>2021-05-28T15:36:00Z</time>
      </trkpt>
      <trkpt lat="42.499420" lon="2.439109">
        <ele>1967.959</ele>
        <time>2021-05-28T15:36:03Z</time>
      </trkpt>
      <trkpt lat="42.499410" lon="2.439135">
        <ele>1968.636</ele>
        <time>2021-05-28T15:36:05Z</time>
      </trkpt>
      <trkpt lat="42.499409" lon="2.439164">
        <ele>1968.614</ele>
        <time>2021-05-28T15:36:07Z</time>
      </trkpt>
      <trkpt lat="42.499395" lon="2.439190">
        <ele>1970.062</ele>
        <time>2021-05-28T15:36:09Z</time>
      </trkpt>
      <trkpt lat="42.499389" lon="2.439220">
        <ele>1970.983</ele>
        <time>2021-05-28T15:36:12Z</time>
      </trkpt>
      <trkpt lat="42.499397" lon="2.439252">
        <ele>1970.811</ele>
        <time>2021-05-28T15:36:15Z</time>
      </trkpt>
      <trkpt lat="42.499416" lon="2.439265">
        <ele>1969.708</ele>
        <time>2021-05-28T15:36:20Z</time>
      </trkpt>
      <trkpt lat="42.499438" lon="2.439280">
        <ele>1968.523</ele>
        <time>2021-05-28T15:36:22Z</time>
      </trkpt>
      <trkpt lat="42.499457" lon="2.439287">
        <ele>1967.910</ele>
        <time>2021-05-28T15:36:25Z</time>
      </trkpt>
      <trkpt lat="42.499481" lon="2.439309">
        <ele>1967.941</ele>
        <time>2021-05-28T15:36:27Z</time>
      </trkpt>
      <trkpt lat="42.499497" lon="2.439325">
        <ele>1967.970</ele>
        <time>2021-05-28T15:36:28Z</time>
      </trkpt>
      <trkpt lat="42.499527" lon="2.439340">
        <ele>1967.687</ele>
        <time>2021-05-28T15:36:29Z</time>
      </trkpt>
      <trkpt lat="42.499551" lon="2.439359">
        <ele>1967.462</ele>
        <time>2021-05-28T15:36:32Z</time>
      </trkpt>
      <trkpt lat="42.499563" lon="2.439387">
        <ele>1967.659</ele>
        <time>2021-05-28T15:36:34Z</time>
      </trkpt>
      <trkpt lat="42.499577" lon="2.439413">
        <ele>1967.727</ele>
        <time>2021-05-28T15:36:36Z</time>
      </trkpt>
      <trkpt lat="42.499598" lon="2.439444">
        <ele>1967.776</ele>
        <time>2021-05-28T15:36:39Z</time>
      </trkpt>
      <trkpt lat="42.499609" lon="2.439470">
        <ele>1967.990</ele>
        <time>2021-05-28T15:36:41Z</time>
      </trkpt>
      <trkpt lat="42.499593" lon="2.439480">
        <ele>1968.419</ele>
        <time>2021-05-28T15:36:49Z</time>
      </trkpt>
      <trkpt lat="42.499673" lon="2.439531">
        <ele>1967.408</ele>
        <time>2021-05-28T15:37:42Z</time>
      </trkpt>
      <trkpt lat="42.499680" lon="2.439507">
        <ele>1966.874</ele>
        <time>2021-05-28T15:37:47Z</time>
      </trkpt>
      <trkpt lat="42.499695" lon="2.439488">
        <ele>1966.241</ele>
        <time>2021-05-28T15:38:01Z</time>
      </trkpt>
      <trkpt lat="42.499686" lon="2.439517">
        <ele>1966.912</ele>
        <time>2021-05-28T15:38:07Z</time>
      </trkpt>
      <trkpt lat="42.499709" lon="2.439512">
        <ele>1966.321</ele>
        <time>2021-05-28T15:38:16Z</time>
      </trkpt>
      <trkpt lat="42.499750" lon="2.439500">
        <ele>1966.458</ele>
        <time>2021-05-28T15:38:19Z</time>
      </trkpt>
      <trkpt lat="42.499767" lon="2.439508">
        <ele>1966.993</ele>
        <time>2021-05-28T15:38:22Z</time>
      </trkpt>
      <trkpt lat="42.499783" lon="2.439528">
        <ele>1967.590</ele>
        <time>2021-05-28T15:38:23Z</time>
      </trkpt>
      <trkpt lat="42.499794" lon="2.439554">
        <ele>1968.158</ele>
        <time>2021-05-28T15:38:29Z</time>
      </trkpt>
      <trkpt lat="42.499775" lon="2.439562">
        <ele>1967.892</ele>
        <time>2021-05-28T15:38:35Z</time>
      </trkpt>
      <trkpt lat="42.499828" lon="2.439568">
        <ele>1968.973</ele>
        <time>2021-05-28T15:38:43Z</time>
      </trkpt>
      <trkpt lat="42.499853" lon="2.439576">
        <ele>1969.520</ele>
        <time>2021-05-28T15:38:46Z</time>
      </trkpt>
      <trkpt lat="42.499875" lon="2.439585">
        <ele>1970.008</ele>
        <time>2021-05-28T15:38:49Z</time>
      </trkpt>
      <trkpt lat="42.499904" lon="2.439600">
        <ele>1970.716</ele>
        <time>2021-05-28T15:38:52Z</time>
      </trkpt>
      <trkpt lat="42.499961" lon="2.439638">
        <ele>1972.073</ele>
        <time>2021-05-28T15:39:01Z</time>
      </trkpt>
      <trkpt lat="42.499979" lon="2.439653">
        <ele>1972.454</ele>
        <time>2021-05-28T15:39:04Z</time>
      </trkpt>
      <trkpt lat="42.499997" lon="2.439661">
        <ele>1972.723</ele>
        <time>2021-05-28T15:39:08Z</time>
      </trkpt>
      <trkpt lat="42.500013" lon="2.439678">
        <ele>1973.330</ele>
        <time>2021-05-28T15:39:12Z</time>
      </trkpt>
      <trkpt lat="42.500030" lon="2.439697">
        <ele>1973.945</ele>
        <time>2021-05-28T15:39:15Z</time>
      </trkpt>
      <trkpt lat="42.500055" lon="2.439695">
        <ele>1974.742</ele>
        <time>2021-05-28T15:39:17Z</time>
      </trkpt>
      <trkpt lat="42.500071" lon="2.439709">
        <ele>1975.360</ele>
        <time>2021-05-28T15:39:20Z</time>
      </trkpt>
      <trkpt lat="42.500096" lon="2.439697">
        <ele>1976.038</ele>
        <time>2021-05-28T15:39:26Z</time>
      </trkpt>
      <trkpt lat="42.500115" lon="2.439693">
        <ele>1976.670</ele>
        <time>2021-05-28T15:39:28Z</time>
      </trkpt>
      <trkpt lat="42.500137" lon="2.439681">
        <ele>1977.317</ele>
        <time>2021-05-28T15:39:30Z</time>
      </trkpt>
      <trkpt lat="42.500160" lon="2.439671">
        <ele>1978.008</ele>
        <time>2021-05-28T15:39:32Z</time>
      </trkpt>
      <trkpt lat="42.500179" lon="2.439647">
        <ele>1978.570</ele>
        <time>2021-05-28T15:39:34Z</time>
      </trkpt>
      <trkpt lat="42.500191" lon="2.439628">
        <ele>1978.847</ele>
        <time>2021-05-28T15:39:36Z</time>
      </trkpt>
      <trkpt lat="42.500211" lon="2.439623">
        <ele>1979.578</ele>
        <time>2021-05-28T15:39:39Z</time>
      </trkpt>
      <trkpt lat="42.500220" lon="2.439593">
        <ele>1979.717</ele>
        <time>2021-05-28T15:39:42Z</time>
      </trkpt>
      <trkpt lat="42.500222" lon="2.439565">
        <ele>1979.634</ele>
        <time>2021-05-28T15:39:44Z</time>
      </trkpt>
      <trkpt lat="42.500220" lon="2.439534">
        <ele>1979.569</ele>
        <time>2021-05-28T15:39:46Z</time>
      </trkpt>
      <trkpt lat="42.500206" lon="2.439501">
        <ele>1978.936</ele>
        <time>2021-05-28T15:39:48Z</time>
      </trkpt>
      <trkpt lat="42.500197" lon="2.439462">
        <ele>1978.424</ele>
        <time>2021-05-28T15:39:50Z</time>
      </trkpt>
      <trkpt lat="42.500198" lon="2.439430">
        <ele>1978.387</ele>
        <time>2021-05-28T15:39:52Z</time>
      </trkpt>
      <trkpt lat="42.500202" lon="2.439405">
        <ele>1978.342</ele>
        <time>2021-05-28T15:39:54Z</time>
      </trkpt>
      <trkpt lat="42.500211" lon="2.439379">
        <ele>1978.526</ele>
        <time>2021-05-28T15:39:56Z</time>
      </trkpt>
      <trkpt lat="42.500227" lon="2.439352">
        <ele>1978.808</ele>
        <time>2021-05-28T15:39:58Z</time>
      </trkpt>
      <trkpt lat="42.500240" lon="2.439326">
        <ele>1979.085</ele>
        <time>2021-05-28T15:40:00Z</time>
      </trkpt>
      <trkpt lat="42.500248" lon="2.439299">
        <ele>1979.142</ele>
        <time>2021-05-28T15:40:02Z</time>
      </trkpt>
      <trkpt lat="42.500248" lon="2.439239">
        <ele>1978.723</ele>
        <time>2021-05-28T15:40:05Z</time>
      </trkpt>
      <trkpt lat="42.500256" lon="2.439204">
        <ele>1978.782</ele>
        <time>2021-05-28T15:40:07Z</time>
      </trkpt>
      <trkpt lat="42.500285" lon="2.439142">
        <ele>1978.749</ele>
        <time>2021-05-28T15:40:12Z</time>
      </trkpt>
      <trkpt lat="42.500307" lon="2.439127">
        <ele>1979.194</ele>
        <time>2021-05-28T15:40:14Z</time>
      </trkpt>
      <trkpt lat="42.500331" lon="2.439123">
        <ele>1979.881</ele>
        <time>2021-05-28T15:40:15Z</time>
      </trkpt>
      <trkpt lat="42.500344" lon="2.439105">
        <ele>1979.959</ele>
        <time>2021-05-28T15:40:18Z</time>
      </trkpt>
      <trkpt lat="42.500367" lon="2.439086">
        <ele>1980.333</ele>
        <time>2021-05-28T15:40:20Z</time>
      </trkpt>
      <trkpt lat="42.500432" lon="2.438992">
        <ele>1980.923</ele>
        <time>2021-05-28T15:40:26Z</time>
      </trkpt>
      <trkpt lat="42.500486" lon="2.438872">
        <ele>1980.915</ele>
        <time>2021-05-28T15:40:33Z</time>
      </trkpt>
      <trkpt lat="42.500514" lon="2.438762">
        <ele>1979.908</ele>
        <time>2021-05-28T15:40:40Z</time>
      </trkpt>
      <trkpt lat="42.500528" lon="2.438729">
        <ele>1979.910</ele>
        <time>2021-05-28T15:40:42Z</time>
      </trkpt>
      <trkpt lat="42.500537" lon="2.438704">
        <ele>1979.847</ele>
        <time>2021-05-28T15:40:44Z</time>
      </trkpt>
      <trkpt lat="42.500552" lon="2.438681">
        <ele>1980.158</ele>
        <time>2021-05-28T15:40:46Z</time>
      </trkpt>
      <trkpt lat="42.500568" lon="2.438659">
        <ele>1980.587</ele>
        <time>2021-05-28T15:40:48Z</time>
      </trkpt>
      <trkpt lat="42.500591" lon="2.438620">
        <ele>1980.984</ele>
        <time>2021-05-28T15:40:50Z</time>
      </trkpt>
      <trkpt lat="42.500597" lon="2.438596">
        <ele>1980.799</ele>
        <time>2021-05-28T15:40:53Z</time>
      </trkpt>
      <trkpt lat="42.500663" lon="2.438502">
        <ele>1981.756</ele>
        <time>2021-05-28T15:41:02Z</time>
      </trkpt>
      <trkpt lat="42.500681" lon="2.438481">
        <ele>1982.214</ele>
        <time>2021-05-28T15:41:04Z</time>
      </trkpt>
      <trkpt lat="42.500700" lon="2.438458">
        <ele>1982.741</ele>
        <time>2021-05-28T15:41:06Z</time>
      </trkpt>
      <trkpt lat="42.500720" lon="2.438438">
        <ele>1983.481</ele>
        <time>2021-05-28T15:41:09Z</time>
      </trkpt>
      <trkpt lat="42.500730" lon="2.438409">
        <ele>1983.309</ele>
        <time>2021-05-28T15:41:12Z</time>
      </trkpt>
      <trkpt lat="42.500763" lon="2.438340">
        <ele>1983.808</ele>
        <time>2021-05-28T15:41:17Z</time>
      </trkpt>
      <trkpt lat="42.500793" lon="2.438289">
        <ele>1984.371</ele>
        <time>2021-05-28T15:41:22Z</time>
      </trkpt>
      <trkpt lat="42.500809" lon="2.438269">
        <ele>1984.768</ele>
        <time>2021-05-28T15:41:24Z</time>
      </trkpt>
      <trkpt lat="42.500819" lon="2.438240">
        <ele>1984.469</ele>
        <time>2021-05-28T15:41:26Z</time>
      </trkpt>
      <trkpt lat="42.500834" lon="2.438213">
        <ele>1984.648</ele>
        <time>2021-05-28T15:41:27Z</time>
      </trkpt>
      <trkpt lat="42.500848" lon="2.438191">
        <ele>1984.385</ele>
        <time>2021-05-28T15:41:30Z</time>
      </trkpt>
      <trkpt lat="42.500860" lon="2.438167">
        <ele>1983.950</ele>
        <time>2021-05-28T15:41:32Z</time>
      </trkpt>
      <trkpt lat="42.500876" lon="2.438152">
        <ele>1983.957</ele>
        <time>2021-05-28T15:41:34Z</time>
      </trkpt>
      <trkpt lat="42.500890" lon="2.438120">
        <ele>1983.495</ele>
        <time>2021-05-28T15:41:37Z</time>
      </trkpt>
      <trkpt lat="42.500905" lon="2.438098">
        <ele>1983.232</ele>
        <time>2021-05-28T15:41:39Z</time>
      </trkpt>
      <trkpt lat="42.500919" lon="2.438071">
        <ele>1982.992</ele>
        <time>2021-05-28T15:41:41Z</time>
      </trkpt>
      <trkpt lat="42.500940" lon="2.438068">
        <ele>1983.411</ele>
        <time>2021-05-28T15:41:43Z</time>
      </trkpt>
      <trkpt lat="42.500957" lon="2.438057">
        <ele>1983.608</ele>
        <time>2021-05-28T15:41:46Z</time>
      </trkpt>
      <trkpt lat="42.501049" lon="2.438035">
        <ele>1985.610</ele>
        <time>2021-05-28T15:41:55Z</time>
      </trkpt>
      <trkpt lat="42.501116" lon="2.437997">
        <ele>1986.477</ele>
        <time>2021-05-28T15:42:01Z</time>
      </trkpt>
      <trkpt lat="42.501143" lon="2.437995">
        <ele>1986.788</ele>
        <time>2021-05-28T15:42:03Z</time>
      </trkpt>
      <trkpt lat="42.501170" lon="2.437984">
        <ele>1986.897</ele>
        <time>2021-05-28T15:42:05Z</time>
      </trkpt>
      <trkpt lat="42.501195" lon="2.437979">
        <ele>1987.034</ele>
        <time>2021-05-28T15:42:07Z</time>
      </trkpt>
      <trkpt lat="42.501216" lon="2.437965">
        <ele>1986.989</ele>
        <time>2021-05-28T15:42:09Z</time>
      </trkpt>
      <trkpt lat="42.501260" lon="2.437947">
        <ele>1987.046</ele>
        <time>2021-05-28T15:42:12Z</time>
      </trkpt>
      <trkpt lat="42.501276" lon="2.437934">
        <ele>1986.994</ele>
        <time>2021-05-28T15:42:15Z</time>
      </trkpt>
      <trkpt lat="42.501302" lon="2.437930">
        <ele>1987.156</ele>
        <time>2021-05-28T15:42:17Z</time>
      </trkpt>
      <trkpt lat="42.501322" lon="2.437920">
        <ele>1987.159</ele>
        <time>2021-05-28T15:42:19Z</time>
      </trkpt>
      <trkpt lat="42.501342" lon="2.437911">
        <ele>1987.214</ele>
        <time>2021-05-28T15:42:21Z</time>
      </trkpt>
      <trkpt lat="42.501375" lon="2.437904">
        <ele>1987.408</ele>
        <time>2021-05-28T15:42:24Z</time>
      </trkpt>
      <trkpt lat="42.501399" lon="2.437893">
        <ele>1987.642</ele>
        <time>2021-05-28T15:42:26Z</time>
      </trkpt>
      <trkpt lat="42.501425" lon="2.437880">
        <ele>1988.059</ele>
        <time>2021-05-28T15:42:28Z</time>
      </trkpt>
      <trkpt lat="42.501451" lon="2.437878">
        <ele>1988.890</ele>
        <time>2021-05-28T15:42:30Z</time>
      </trkpt>
      <trkpt lat="42.501479" lon="2.437879">
        <ele>1989.619</ele>
        <time>2021-05-28T15:42:32Z</time>
      </trkpt>
      <trkpt lat="42.501499" lon="2.437878">
        <ele>1990.276</ele>
        <time>2021-05-28T15:42:34Z</time>
      </trkpt>
      <trkpt lat="42.501523" lon="2.437867">
        <ele>1990.641</ele>
        <time>2021-05-28T15:42:37Z</time>
      </trkpt>
      <trkpt lat="42.501542" lon="2.437852">
        <ele>1990.758</ele>
        <time>2021-05-28T15:42:39Z</time>
      </trkpt>
      <trkpt lat="42.501562" lon="2.437835">
        <ele>1990.826</ele>
        <time>2021-05-28T15:42:42Z</time>
      </trkpt>
      <trkpt lat="42.501570" lon="2.437811">
        <ele>1990.316</ele>
        <time>2021-05-28T15:42:44Z</time>
      </trkpt>
      <trkpt lat="42.501583" lon="2.437791">
        <ele>1990.076</ele>
        <time>2021-05-28T15:42:46Z</time>
      </trkpt>
      <trkpt lat="42.501596" lon="2.437771">
        <ele>1989.813</ele>
        <time>2021-05-28T15:42:48Z</time>
      </trkpt>
      <trkpt lat="42.501602" lon="2.437743">
        <ele>1989.408</ele>
        <time>2021-05-28T15:42:49Z</time>
      </trkpt>
      <trkpt lat="42.501609" lon="2.437713">
        <ele>1988.978</ele>
        <time>2021-05-28T15:42:52Z</time>
      </trkpt>
      <trkpt lat="42.501673" lon="2.437668">
        <ele>1989.985</ele>
        <time>2021-05-28T15:43:00Z</time>
      </trkpt>
      <trkpt lat="42.501699" lon="2.437645">
        <ele>1990.536</ele>
        <time>2021-05-28T15:43:04Z</time>
      </trkpt>
      <trkpt lat="42.501716" lon="2.437628">
        <ele>1990.935</ele>
        <time>2021-05-28T15:43:07Z</time>
      </trkpt>
      <trkpt lat="42.501736" lon="2.437605">
        <ele>1991.292</ele>
        <time>2021-05-28T15:43:10Z</time>
      </trkpt>
      <trkpt lat="42.501752" lon="2.437585">
        <ele>1991.427</ele>
        <time>2021-05-28T15:43:13Z</time>
      </trkpt>
      <trkpt lat="42.501775" lon="2.437568">
        <ele>1992.044</ele>
        <time>2021-05-28T15:43:16Z</time>
      </trkpt>
      <trkpt lat="42.501793" lon="2.437553">
        <ele>1992.382</ele>
        <time>2021-05-28T15:43:18Z</time>
      </trkpt>
      <trkpt lat="42.501813" lon="2.437537">
        <ele>1992.788</ele>
        <time>2021-05-28T15:43:21Z</time>
      </trkpt>
      <trkpt lat="42.501833" lon="2.437515">
        <ele>1993.024</ele>
        <time>2021-05-28T15:43:24Z</time>
      </trkpt>
      <trkpt lat="42.501852" lon="2.437495">
        <ele>1993.226</ele>
        <time>2021-05-28T15:43:27Z</time>
      </trkpt>
      <trkpt lat="42.501866" lon="2.437473">
        <ele>1993.308</ele>
        <time>2021-05-28T15:43:29Z</time>
      </trkpt>
      <trkpt lat="42.501881" lon="2.437446">
        <ele>1993.265</ele>
        <time>2021-05-28T15:43:31Z</time>
      </trkpt>
      <trkpt lat="42.501894" lon="2.437423">
        <ele>1993.242</ele>
        <time>2021-05-28T15:43:33Z</time>
      </trkpt>
      <trkpt lat="42.501901" lon="2.437399">
        <ele>1992.843</ele>
        <time>2021-05-28T15:43:35Z</time>
      </trkpt>
      <trkpt lat="42.501929" lon="2.437355">
        <ele>1992.882</ele>
        <time>2021-05-28T15:43:38Z</time>
      </trkpt>
      <trkpt lat="42.502015" lon="2.437289">
        <ele>1992.699</ele>
        <time>2021-05-28T15:43:46Z</time>
      </trkpt>
      <trkpt lat="42.502042" lon="2.437287">
        <ele>1992.894</ele>
        <time>2021-05-28T15:43:48Z</time>
      </trkpt>
      <trkpt lat="42.502065" lon="2.437284">
        <ele>1993.041</ele>
        <time>2021-05-28T15:43:50Z</time>
      </trkpt>
      <trkpt lat="42.502087" lon="2.437282">
        <ele>1993.219</ele>
        <time>2021-05-28T15:43:51Z</time>
      </trkpt>
      <trkpt lat="42.502103" lon="2.437294">
        <ele>1993.825</ele>
        <time>2021-05-28T15:43:55Z</time>
      </trkpt>
      <trkpt lat="42.502165" lon="2.437320">
        <ele>1995.726</ele>
        <time>2021-05-28T15:44:00Z</time>
      </trkpt>
      <trkpt lat="42.502196" lon="2.437318">
        <ele>1996.108</ele>
        <time>2021-05-28T15:44:03Z</time>
      </trkpt>
      <trkpt lat="42.502222" lon="2.437321">
        <ele>1996.608</ele>
        <time>2021-05-28T15:44:05Z</time>
      </trkpt>
      <trkpt lat="42.502243" lon="2.437321">
        <ele>1997.199</ele>
        <time>2021-05-28T15:44:07Z</time>
      </trkpt>
      <trkpt lat="42.502264" lon="2.437329">
        <ele>1997.916</ele>
        <time>2021-05-28T15:44:09Z</time>
      </trkpt>
      <trkpt lat="42.502284" lon="2.437330">
        <ele>1998.467</ele>
        <time>2021-05-28T15:44:11Z</time>
      </trkpt>
      <trkpt lat="42.502313" lon="2.437332">
        <ele>1999.126</ele>
        <time>2021-05-28T15:44:14Z</time>
      </trkpt>
      <trkpt lat="42.502334" lon="2.437334">
        <ele>1999.623</ele>
        <time>2021-05-28T15:44:16Z</time>
      </trkpt>
      <trkpt lat="42.502357" lon="2.437329">
        <ele>1999.988</ele>
        <time>2021-05-28T15:44:18Z</time>
      </trkpt>
      <trkpt lat="42.502381" lon="2.437313">
        <ele>1999.725</ele>
        <time>2021-05-28T15:44:20Z</time>
      </trkpt>
      <trkpt lat="42.502400" lon="2.437313">
        <ele>2000.163</ele>
        <time>2021-05-28T15:44:22Z</time>
      </trkpt>
      <trkpt lat="42.502426" lon="2.437309">
        <ele>2000.563</ele>
        <time>2021-05-28T15:44:24Z</time>
      </trkpt>
      <trkpt lat="42.502446" lon="2.437302">
        <ele>2000.644</ele>
        <time>2021-05-28T15:44:26Z</time>
      </trkpt>
      <trkpt lat="42.502473" lon="2.437299">
        <ele>2001.018</ele>
        <time>2021-05-28T15:44:28Z</time>
      </trkpt>
      <trkpt lat="42.502495" lon="2.437306">
        <ele>2001.808</ele>
        <time>2021-05-28T15:44:30Z</time>
      </trkpt>
      <trkpt lat="42.502514" lon="2.437307">
        <ele>2002.653</ele>
        <time>2021-05-28T15:44:32Z</time>
      </trkpt>
      <trkpt lat="42.502529" lon="2.437288">
        <ele>2002.510</ele>
        <time>2021-05-28T15:44:37Z</time>
      </trkpt>
      <trkpt lat="42.502540" lon="2.437268">
        <ele>2002.241</ele>
        <time>2021-05-28T15:44:41Z</time>
      </trkpt>
      <trkpt lat="42.502544" lon="2.437244">
        <ele>2001.450</ele>
        <time>2021-05-28T15:44:43Z</time>
      </trkpt>
      <trkpt lat="42.502550" lon="2.437214">
        <ele>2000.977</ele>
        <time>2021-05-28T15:44:46Z</time>
      </trkpt>
      <trkpt lat="42.502538" lon="2.437178">
        <ele>2000.152</ele>
        <time>2021-05-28T15:44:50Z</time>
      </trkpt>
      <trkpt lat="42.502529" lon="2.437147">
        <ele>1999.449</ele>
        <time>2021-05-28T15:44:52Z</time>
      </trkpt>
      <trkpt lat="42.502535" lon="2.437121">
        <ele>1999.777</ele>
        <time>2021-05-28T15:44:54Z</time>
      </trkpt>
      <trkpt lat="42.502536" lon="2.437088">
        <ele>1999.755</ele>
        <time>2021-05-28T15:44:55Z</time>
      </trkpt>
      <trkpt lat="42.502531" lon="2.437053">
        <ele>1999.207</ele>
        <time>2021-05-28T15:44:59Z</time>
      </trkpt>
      <trkpt lat="42.502528" lon="2.437018">
        <ele>1999.017</ele>
        <time>2021-05-28T15:45:02Z</time>
      </trkpt>
      <trkpt lat="42.502527" lon="2.436989">
        <ele>1998.808</ele>
        <time>2021-05-28T15:45:05Z</time>
      </trkpt>
      <trkpt lat="42.502539" lon="2.436958">
        <ele>1999.422</ele>
        <time>2021-05-28T15:45:08Z</time>
      </trkpt>
      <trkpt lat="42.502548" lon="2.436931">
        <ele>2000.089</ele>
        <time>2021-05-28T15:45:11Z</time>
      </trkpt>
      <trkpt lat="42.502556" lon="2.436898">
        <ele>2000.580</ele>
        <time>2021-05-28T15:45:14Z</time>
      </trkpt>
      <trkpt lat="42.502558" lon="2.436870">
        <ele>2000.739</ele>
        <time>2021-05-28T15:45:19Z</time>
      </trkpt>
      <trkpt lat="42.502575" lon="2.436790">
        <ele>2001.716</ele>
        <time>2021-05-28T15:45:24Z</time>
      </trkpt>
      <trkpt lat="42.502587" lon="2.436761">
        <ele>2002.481</ele>
        <time>2021-05-28T15:45:26Z</time>
      </trkpt>
      <trkpt lat="42.502631" lon="2.436646">
        <ele>2004.348</ele>
        <time>2021-05-28T15:45:34Z</time>
      </trkpt>
      <trkpt lat="42.502696" lon="2.436542">
        <ele>2005.986</ele>
        <time>2021-05-28T15:45:43Z</time>
      </trkpt>
      <trkpt lat="42.502742" lon="2.436435">
        <ele>2006.292</ele>
        <time>2021-05-28T15:45:54Z</time>
      </trkpt>
      <trkpt lat="42.502805" lon="2.436328">
        <ele>2007.573</ele>
        <time>2021-05-28T15:46:05Z</time>
      </trkpt>
      <trkpt lat="42.502864" lon="2.436226">
        <ele>2009.020</ele>
        <time>2021-05-28T15:46:14Z</time>
      </trkpt>
      <trkpt lat="42.502938" lon="2.436152">
        <ele>2011.708</ele>
        <time>2021-05-28T15:46:22Z</time>
      </trkpt>
      <trkpt lat="42.502979" lon="2.436034">
        <ele>2012.136</ele>
        <time>2021-05-28T15:46:31Z</time>
      </trkpt>
      <trkpt lat="42.502998" lon="2.435914">
        <ele>2011.473</ele>
        <time>2021-05-28T15:46:39Z</time>
      </trkpt>
      <trkpt lat="42.503030" lon="2.435791">
        <ele>2011.254</ele>
        <time>2021-05-28T15:46:48Z</time>
      </trkpt>
      <trkpt lat="42.503083" lon="2.435669">
        <ele>2012.133</ele>
        <time>2021-05-28T15:46:58Z</time>
      </trkpt>
      <trkpt lat="42.503109" lon="2.435549">
        <ele>2011.880</ele>
        <time>2021-05-28T15:47:05Z</time>
      </trkpt>
      <trkpt lat="42.503168" lon="2.435438">
        <ele>2013.675</ele>
        <time>2021-05-28T15:47:15Z</time>
      </trkpt>
      <trkpt lat="42.503232" lon="2.435349">
        <ele>2016.052</ele>
        <time>2021-05-28T15:47:21Z</time>
      </trkpt>
      <trkpt lat="42.503291" lon="2.435254">
        <ele>2018.210</ele>
        <time>2021-05-28T15:47:30Z</time>
      </trkpt>
      <trkpt lat="42.503318" lon="2.435128">
        <ele>2018.034</ele>
        <time>2021-05-28T15:47:38Z</time>
      </trkpt>
      <trkpt lat="42.503362" lon="2.435020">
        <ele>2018.555</ele>
        <time>2021-05-28T15:47:47Z</time>
      </trkpt>
      <trkpt lat="42.503378" lon="2.434948">
        <ele>2018.410</ele>
        <time>2021-05-28T15:47:52Z</time>
      </trkpt>
      <trkpt lat="42.503414" lon="2.434955">
        <ele>2020.008</ele>
        <time>2021-05-28T15:48:02Z</time>
      </trkpt>
      <trkpt lat="42.503413" lon="2.434985">
        <ele>2020.390</ele>
        <time>2021-05-28T15:48:04Z</time>
      </trkpt>
      <trkpt lat="42.503410" lon="2.435010">
        <ele>2020.477</ele>
        <time>2021-05-28T15:48:06Z</time>
      </trkpt>
      <trkpt lat="42.503405" lon="2.435035">
        <ele>2020.698</ele>
        <time>2021-05-28T15:48:07Z</time>
      </trkpt>
      <trkpt lat="42.503404" lon="2.435064">
        <ele>2020.937</ele>
        <time>2021-05-28T15:48:10Z</time>
      </trkpt>
      <trkpt lat="42.503406" lon="2.435089">
        <ele>2021.354</ele>
        <time>2021-05-28T15:48:12Z</time>
      </trkpt>
      <trkpt lat="42.503404" lon="2.435120">
        <ele>2021.769</ele>
        <time>2021-05-28T15:48:15Z</time>
      </trkpt>
      <trkpt lat="42.503386" lon="2.435185">
        <ele>2021.896</ele>
        <time>2021-05-28T15:48:21Z</time>
      </trkpt>
      <trkpt lat="42.503382" lon="2.435229">
        <ele>2022.364</ele>
        <time>2021-05-28T15:48:25Z</time>
      </trkpt>
      <trkpt lat="42.503383" lon="2.435273">
        <ele>2022.955</ele>
        <time>2021-05-28T15:48:28Z</time>
      </trkpt>
      <trkpt lat="42.503386" lon="2.435305">
        <ele>2023.407</ele>
        <time>2021-05-28T15:48:30Z</time>
      </trkpt>
      <trkpt lat="42.503376" lon="2.435436">
        <ele>2024.417</ele>
        <time>2021-05-28T15:48:37Z</time>
      </trkpt>
      <trkpt lat="42.503348" lon="2.435565">
        <ele>2024.708</ele>
        <time>2021-05-28T15:48:48Z</time>
      </trkpt>
      <trkpt lat="42.503307" lon="2.435691">
        <ele>2024.582</ele>
        <time>2021-05-28T15:48:56Z</time>
      </trkpt>
      <trkpt lat="42.503274" lon="2.435817">
        <ele>2024.649</ele>
        <time>2021-05-28T15:49:02Z</time>
      </trkpt>
      <trkpt lat="42.503259" lon="2.435962">
        <ele>2025.560</ele>
        <time>2021-05-28T15:49:11Z</time>
      </trkpt>
      <trkpt lat="42.503293" lon="2.436084">
        <ele>2028.719</ele>
        <time>2021-05-28T15:49:19Z</time>
      </trkpt>
      <trkpt lat="42.503279" lon="2.436216">
        <ele>2029.586</ele>
        <time>2021-05-28T15:49:30Z</time>
      </trkpt>
      <trkpt lat="42.503277" lon="2.436339">
        <ele>2030.881</ele>
        <time>2021-05-28T15:49:38Z</time>
      </trkpt>
      <trkpt lat="42.503290" lon="2.436467">
        <ele>2033.168</ele>
        <time>2021-05-28T15:49:47Z</time>
      </trkpt>
      <trkpt lat="42.503265" lon="2.436593">
        <ele>2033.726</ele>
        <time>2021-05-28T15:49:59Z</time>
      </trkpt>
      <trkpt lat="42.503230" lon="2.436709">
        <ele>2033.856</ele>
        <time>2021-05-28T15:50:09Z</time>
      </trkpt>
      <trkpt lat="42.503211" lon="2.436706">
        <ele>2032.859</ele>
        <time>2021-05-28T15:51:15Z</time>
      </trkpt>
      <trkpt lat="42.503225" lon="2.436690">
        <ele>2033.314</ele>
        <time>2021-05-28T15:51:50Z</time>
      </trkpt>
      <trkpt lat="42.503212" lon="2.436714">
        <ele>2033.008</ele>
        <time>2021-05-28T15:52:01Z</time>
      </trkpt>
      <trkpt lat="42.503207" lon="2.436753">
        <ele>2033.362</ele>
        <time>2021-05-28T15:52:03Z</time>
      </trkpt>
      <trkpt lat="42.503202" lon="2.436791">
        <ele>2033.639</ele>
        <time>2021-05-28T15:52:05Z</time>
      </trkpt>
      <trkpt lat="42.503203" lon="2.436821">
        <ele>2034.150</ele>
        <time>2021-05-28T15:52:07Z</time>
      </trkpt>
      <trkpt lat="42.503190" lon="2.436882">
        <ele>2034.439</ele>
        <time>2021-05-28T15:52:11Z</time>
      </trkpt>
      <trkpt lat="42.503179" lon="2.436958">
        <ele>2034.926</ele>
        <time>2021-05-28T15:52:15Z</time>
      </trkpt>
      <trkpt lat="42.503166" lon="2.436993">
        <ele>2034.571</ele>
        <time>2021-05-28T15:52:17Z</time>
      </trkpt>
      <trkpt lat="42.503158" lon="2.437081">
        <ele>2034.668</ele>
        <time>2021-05-28T15:52:22Z</time>
      </trkpt>
      <trkpt lat="42.503149" lon="2.437122">
        <ele>2034.496</ele>
        <time>2021-05-28T15:52:24Z</time>
      </trkpt>
      <trkpt lat="42.503141" lon="2.437165">
        <ele>2034.358</ele>
        <time>2021-05-28T15:52:26Z</time>
      </trkpt>
      <trkpt lat="42.503134" lon="2.437207">
        <ele>2034.252</ele>
        <time>2021-05-28T15:52:28Z</time>
      </trkpt>
      <trkpt lat="42.503140" lon="2.437244">
        <ele>2034.217</ele>
        <time>2021-05-28T15:52:30Z</time>
      </trkpt>
      <trkpt lat="42.503146" lon="2.437290">
        <ele>2033.708</ele>
        <time>2021-05-28T15:52:32Z</time>
      </trkpt>
      <trkpt lat="42.503156" lon="2.437328">
        <ele>2033.552</ele>
        <time>2021-05-28T15:52:34Z</time>
      </trkpt>
      <trkpt lat="42.503166" lon="2.437360">
        <ele>2033.529</ele>
        <time>2021-05-28T15:52:36Z</time>
      </trkpt>
      <trkpt lat="42.503182" lon="2.437385">
        <ele>2033.920</ele>
        <time>2021-05-28T15:52:38Z</time>
      </trkpt>
      <trkpt lat="42.503202" lon="2.437399">
        <ele>2034.799</ele>
        <time>2021-05-28T15:52:40Z</time>
      </trkpt>
      <trkpt lat="42.503222" lon="2.437411">
        <ele>2035.636</ele>
        <time>2021-05-28T15:52:42Z</time>
      </trkpt>
      <trkpt lat="42.503250" lon="2.437436">
        <ele>2036.741</ele>
        <time>2021-05-28T15:52:44Z</time>
      </trkpt>
      <trkpt lat="42.503274" lon="2.437458">
        <ele>2037.688</ele>
        <time>2021-05-28T15:52:46Z</time>
      </trkpt>
      <trkpt lat="42.503287" lon="2.437474">
        <ele>2038.086</ele>
        <time>2021-05-28T15:52:48Z</time>
      </trkpt>
      <trkpt lat="42.503299" lon="2.437506">
        <ele>2038.173</ele>
        <time>2021-05-28T15:52:51Z</time>
      </trkpt>
      <trkpt lat="42.503356" lon="2.437619">
        <ele>2039.685</ele>
        <time>2021-05-28T15:52:57Z</time>
      </trkpt>
      <trkpt lat="42.503426" lon="2.437719">
        <ele>2042.413</ele>
        <time>2021-05-28T15:53:03Z</time>
      </trkpt>
      <trkpt lat="42.503461" lon="2.437833">
        <ele>2043.008</ele>
        <time>2021-05-28T15:53:07Z</time>
      </trkpt>
      <trkpt lat="42.503503" lon="2.437960">
        <ele>2043.514</ele>
        <time>2021-05-28T15:53:14Z</time>
      </trkpt>
      <trkpt lat="42.503569" lon="2.438047">
        <ele>2045.281</ele>
        <time>2021-05-28T15:53:20Z</time>
      </trkpt>
      <trkpt lat="42.503585" lon="2.438085">
        <ele>2045.842</ele>
        <time>2021-05-28T15:53:22Z</time>
      </trkpt>
      <trkpt lat="42.503598" lon="2.438108">
        <ele>2046.441</ele>
        <time>2021-05-28T15:53:24Z</time>
      </trkpt>
      <trkpt lat="42.503610" lon="2.438132">
        <ele>2047.048</ele>
        <time>2021-05-28T15:53:26Z</time>
      </trkpt>
      <trkpt lat="42.503620" lon="2.438161">
        <ele>2047.573</ele>
        <time>2021-05-28T15:53:28Z</time>
      </trkpt>
      <trkpt lat="42.503617" lon="2.438193">
        <ele>2047.380</ele>
        <time>2021-05-28T15:53:30Z</time>
      </trkpt>
      <trkpt lat="42.503617" lon="2.438222">
        <ele>2047.398</ele>
        <time>2021-05-28T15:53:32Z</time>
      </trkpt>
      <trkpt lat="42.503614" lon="2.438259">
        <ele>2047.265</ele>
        <time>2021-05-28T15:53:34Z</time>
      </trkpt>
      <trkpt lat="42.503606" lon="2.438294">
        <ele>2046.868</ele>
        <time>2021-05-28T15:53:36Z</time>
      </trkpt>
      <trkpt lat="42.503597" lon="2.438319">
        <ele>2046.514</ele>
        <time>2021-05-28T15:53:38Z</time>
      </trkpt>
      <trkpt lat="42.503588" lon="2.438353">
        <ele>2046.708</ele>
        <time>2021-05-28T15:53:41Z</time>
      </trkpt>
      <trkpt lat="42.503572" lon="2.438363">
        <ele>2046.523</ele>
        <time>2021-05-28T15:53:43Z</time>
      </trkpt>
      <trkpt lat="42.503557" lon="2.438380">
        <ele>2046.470</ele>
        <time>2021-05-28T15:53:45Z</time>
      </trkpt>
      <trkpt lat="42.503540" lon="2.438412">
        <ele>2046.511</ele>
        <time>2021-05-28T15:53:48Z</time>
      </trkpt>
      <trkpt lat="42.503516" lon="2.438440">
        <ele>2046.310</ele>
        <time>2021-05-28T15:53:50Z</time>
      </trkpt>
      <trkpt lat="42.503512" lon="2.438570">
        <ele>2049.147</ele>
        <time>2021-05-28T15:53:56Z</time>
      </trkpt>
      <trkpt lat="42.503498" lon="2.438697">
        <ele>2052.482</ele>
        <time>2021-05-28T15:54:02Z</time>
      </trkpt>
      <trkpt lat="42.503434" lon="2.438787">
        <ele>2053.369</ele>
        <time>2021-05-28T15:54:07Z</time>
      </trkpt>
      <trkpt lat="42.503374" lon="2.438811">
        <ele>2052.237</ele>
        <time>2021-05-28T15:54:11Z</time>
      </trkpt>
      <trkpt lat="42.503349" lon="2.438821">
        <ele>2051.889</ele>
        <time>2021-05-28T15:54:13Z</time>
      </trkpt>
      <trkpt lat="42.503324" lon="2.438835">
        <ele>2051.906</ele>
        <time>2021-05-28T15:54:15Z</time>
      </trkpt>
      <trkpt lat="42.503303" lon="2.438842">
        <ele>2052.426</ele>
        <time>2021-05-28T15:54:17Z</time>
      </trkpt>
      <trkpt lat="42.503280" lon="2.438837">
        <ele>2052.308</ele>
        <time>2021-05-28T15:54:20Z</time>
      </trkpt>
      <trkpt lat="42.503261" lon="2.438843">
        <ele>2052.775</ele>
        <time>2021-05-28T15:54:22Z</time>
      </trkpt>
      <trkpt lat="42.503236" lon="2.438839">
        <ele>2052.722</ele>
        <time>2021-05-28T15:54:24Z</time>
      </trkpt>
      <trkpt lat="42.503215" lon="2.438850">
        <ele>2053.313</ele>
        <time>2021-05-28T15:54:26Z</time>
      </trkpt>
      <trkpt lat="42.503166" lon="2.438828">
        <ele>2052.812</ele>
        <time>2021-05-28T15:54:30Z</time>
      </trkpt>
      <trkpt lat="42.503147" lon="2.438823">
        <ele>2052.769</ele>
        <time>2021-05-28T15:54:32Z</time>
      </trkpt>
      <trkpt lat="42.503050" lon="2.438775">
        <ele>2051.594</ele>
        <time>2021-05-28T15:54:39Z</time>
      </trkpt>
      <trkpt lat="42.503027" lon="2.438761">
        <ele>2051.071</ele>
        <time>2021-05-28T15:54:41Z</time>
      </trkpt>
      <trkpt lat="42.503007" lon="2.438749">
        <ele>2050.619</ele>
        <time>2021-05-28T15:54:43Z</time>
      </trkpt>
      <trkpt lat="42.502985" lon="2.438739">
        <ele>2050.428</ele>
        <time>2021-05-28T15:54:45Z</time>
      </trkpt>
      <trkpt lat="42.502972" lon="2.438720">
        <ele>2049.989</ele>
        <time>2021-05-28T15:54:47Z</time>
      </trkpt>
      <trkpt lat="42.502951" lon="2.438699">
        <ele>2049.417</ele>
        <time>2021-05-28T15:54:50Z</time>
      </trkpt>
      <trkpt lat="42.502925" lon="2.438697">
        <ele>2049.608</ele>
        <time>2021-05-28T15:54:54Z</time>
      </trkpt>
      <trkpt lat="42.502903" lon="2.438699">
        <ele>2049.849</ele>
        <time>2021-05-28T15:54:56Z</time>
      </trkpt>
      <trkpt lat="42.502878" lon="2.438703">
        <ele>2050.126</ele>
        <time>2021-05-28T15:54:59Z</time>
      </trkpt>
      <trkpt lat="42.502856" lon="2.438721">
        <ele>2050.747</ele>
        <time>2021-05-28T15:55:01Z</time>
      </trkpt>
      <trkpt lat="42.502836" lon="2.438743">
        <ele>2051.226</ele>
        <time>2021-05-28T15:55:04Z</time>
      </trkpt>
      <trkpt lat="42.502817" lon="2.438766">
        <ele>2051.633</ele>
        <time>2021-05-28T15:55:06Z</time>
      </trkpt>
      <trkpt lat="42.502806" lon="2.438795">
        <ele>2052.058</ele>
        <time>2021-05-28T15:55:08Z</time>
      </trkpt>
      <trkpt lat="42.502806" lon="2.438822">
        <ele>2052.435</ele>
        <time>2021-05-28T15:55:10Z</time>
      </trkpt>
      <trkpt lat="42.502805" lon="2.438858">
        <ele>2052.933</ele>
        <time>2021-05-28T15:55:12Z</time>
      </trkpt>
      <trkpt lat="42.502803" lon="2.438894">
        <ele>2053.311</ele>
        <time>2021-05-28T15:55:14Z</time>
      </trkpt>
      <trkpt lat="42.502805" lon="2.438925">
        <ele>2053.621</ele>
        <time>2021-05-28T15:55:16Z</time>
      </trkpt>
      <trkpt lat="42.502810" lon="2.438957">
        <ele>2054.003</ele>
        <time>2021-05-28T15:55:18Z</time>
      </trkpt>
      <trkpt lat="42.502804" lon="2.438989">
        <ele>2054.108</ele>
        <time>2021-05-28T15:55:20Z</time>
      </trkpt>
      <trkpt lat="42.502817" lon="2.439025">
        <ele>2054.748</ele>
        <time>2021-05-28T15:55:23Z</time>
      </trkpt>
      <trkpt lat="42.502824" lon="2.439056">
        <ele>2055.135</ele>
        <time>2021-05-28T15:55:25Z</time>
      </trkpt>
      <trkpt lat="42.502831" lon="2.439079">
        <ele>2055.576</ele>
        <time>2021-05-28T15:55:27Z</time>
      </trkpt>
      <trkpt lat="42.502829" lon="2.439109">
        <ele>2055.725</ele>
        <time>2021-05-28T15:55:29Z</time>
      </trkpt>
      <trkpt lat="42.502827" lon="2.439150">
        <ele>2056.122</ele>
        <time>2021-05-28T15:55:31Z</time>
      </trkpt>
      <trkpt lat="42.502823" lon="2.439187">
        <ele>2056.497</ele>
        <time>2021-05-28T15:55:33Z</time>
      </trkpt>
      <trkpt lat="42.502812" lon="2.439222">
        <ele>2056.544</ele>
        <time>2021-05-28T15:55:35Z</time>
      </trkpt>
      <trkpt lat="42.502808" lon="2.439258">
        <ele>2056.812</ele>
        <time>2021-05-28T15:55:37Z</time>
      </trkpt>
      <trkpt lat="42.502817" lon="2.439291">
        <ele>2057.589</ele>
        <time>2021-05-28T15:55:39Z</time>
      </trkpt>
      <trkpt lat="42.502820" lon="2.439320">
        <ele>2057.906</ele>
        <time>2021-05-28T15:55:42Z</time>
      </trkpt>
      <trkpt lat="42.502829" lon="2.439350">
        <ele>2058.526</ele>
        <time>2021-05-28T15:55:44Z</time>
      </trkpt>
      <trkpt lat="42.502829" lon="2.439386">
        <ele>2059.008</ele>
        <time>2021-05-28T15:55:47Z</time>
      </trkpt>
      <trkpt lat="42.502840" lon="2.439416">
        <ele>2059.735</ele>
        <time>2021-05-28T15:55:49Z</time>
      </trkpt>
      <trkpt lat="42.502853" lon="2.439448">
        <ele>2060.562</ele>
        <time>2021-05-28T15:55:51Z</time>
      </trkpt>
      <trkpt lat="42.502861" lon="2.439479">
        <ele>2061.063</ele>
        <time>2021-05-28T15:55:53Z</time>
      </trkpt>
      <trkpt lat="42.502866" lon="2.439515">
        <ele>2061.542</ele>
        <time>2021-05-28T15:55:55Z</time>
      </trkpt>
      <trkpt lat="42.502874" lon="2.439537">
        <ele>2062.019</ele>
        <time>2021-05-28T15:55:57Z</time>
      </trkpt>
      <trkpt lat="42.502883" lon="2.439573">
        <ele>2062.794</ele>
        <time>2021-05-28T15:56:00Z</time>
      </trkpt>
      <trkpt lat="42.502877" lon="2.439606">
        <ele>2062.891</ele>
        <time>2021-05-28T15:56:02Z</time>
      </trkpt>
      <trkpt lat="42.502869" lon="2.439641">
        <ele>2062.889</ele>
        <time>2021-05-28T15:56:04Z</time>
      </trkpt>
      <trkpt lat="42.502871" lon="2.439671">
        <ele>2063.227</ele>
        <time>2021-05-28T15:56:06Z</time>
      </trkpt>
      <trkpt lat="42.502869" lon="2.439697">
        <ele>2063.468</ele>
        <time>2021-05-28T15:56:08Z</time>
      </trkpt>
      <trkpt lat="42.502871" lon="2.439725">
        <ele>2063.714</ele>
        <time>2021-05-28T15:56:10Z</time>
      </trkpt>
      <trkpt lat="42.502883" lon="2.439748">
        <ele>2064.508</ele>
        <time>2021-05-28T15:56:12Z</time>
      </trkpt>
      <trkpt lat="42.502887" lon="2.439780">
        <ele>2065.059</ele>
        <time>2021-05-28T15:56:15Z</time>
      </trkpt>
      <trkpt lat="42.502892" lon="2.439811">
        <ele>2065.696</ele>
        <time>2021-05-28T15:56:17Z</time>
      </trkpt>
      <trkpt lat="42.502890" lon="2.439845">
        <ele>2065.967</ele>
        <time>2021-05-28T15:56:19Z</time>
      </trkpt>
      <trkpt lat="42.502887" lon="2.439874">
        <ele>2066.246</ele>
        <time>2021-05-28T15:56:21Z</time>
      </trkpt>
      <trkpt lat="42.502892" lon="2.439905">
        <ele>2066.813</ele>
        <time>2021-05-28T15:56:23Z</time>
      </trkpt>
      <trkpt lat="42.502891" lon="2.439937">
        <ele>2067.148</ele>
        <time>2021-05-28T15:56:25Z</time>
      </trkpt>
      <trkpt lat="42.502884" lon="2.439966">
        <ele>2067.265</ele>
        <time>2021-05-28T15:56:27Z</time>
      </trkpt>
      <trkpt lat="42.502888" lon="2.439995">
        <ele>2067.773</ele>
        <time>2021-05-28T15:56:30Z</time>
      </trkpt>
      <trkpt lat="42.502889" lon="2.440020">
        <ele>2068.178</ele>
        <time>2021-05-28T15:56:32Z</time>
      </trkpt>
      <trkpt lat="42.502894" lon="2.440048">
        <ele>2068.633</ele>
        <time>2021-05-28T15:56:34Z</time>
      </trkpt>
      <trkpt lat="42.502886" lon="2.440103">
        <ele>2069.026</ele>
        <time>2021-05-28T15:56:38Z</time>
      </trkpt>
      <trkpt lat="42.502883" lon="2.440136">
        <ele>2069.308</ele>
        <time>2021-05-28T15:56:40Z</time>
      </trkpt>
      <trkpt lat="42.502877" lon="2.440163">
        <ele>2069.434</ele>
        <time>2021-05-28T15:56:42Z</time>
      </trkpt>
      <trkpt lat="42.502871" lon="2.440200">
        <ele>2069.751</ele>
        <time>2021-05-28T15:56:45Z</time>
      </trkpt>
      <trkpt lat="42.502867" lon="2.440229">
        <ele>2069.982</ele>
        <time>2021-05-28T15:56:47Z</time>
      </trkpt>
      <trkpt lat="42.502865" lon="2.440259">
        <ele>2070.261</ele>
        <time>2021-05-28T15:56:49Z</time>
      </trkpt>
      <trkpt lat="42.502858" lon="2.440304">
        <ele>2070.788</ele>
        <time>2021-05-28T15:56:51Z</time>
      </trkpt>
      <trkpt lat="42.502853" lon="2.440338">
        <ele>2071.153</ele>
        <time>2021-05-28T15:56:53Z</time>
      </trkpt>
      <trkpt lat="42.502849" lon="2.440364">
        <ele>2071.440</ele>
        <time>2021-05-28T15:56:55Z</time>
      </trkpt>
      <trkpt lat="42.502852" lon="2.440398">
        <ele>2072.298</ele>
        <time>2021-05-28T15:56:57Z</time>
      </trkpt>
      <trkpt lat="42.502855" lon="2.440430">
        <ele>2072.968</ele>
        <time>2021-05-28T15:57:00Z</time>
      </trkpt>
      <trkpt lat="42.502853" lon="2.440461">
        <ele>2073.442</ele>
        <time>2021-05-28T15:57:03Z</time>
      </trkpt>
      <trkpt lat="42.502840" lon="2.440483">
        <ele>2073.426</ele>
        <time>2021-05-28T15:57:05Z</time>
      </trkpt>
      <trkpt lat="42.502821" lon="2.440502">
        <ele>2073.208</ele>
        <time>2021-05-28T15:57:07Z</time>
      </trkpt>
      <trkpt lat="42.502801" lon="2.440519">
        <ele>2072.993</ele>
        <time>2021-05-28T15:57:09Z</time>
      </trkpt>
      <trkpt lat="42.502781" lon="2.440537">
        <ele>2072.790</ele>
        <time>2021-05-28T15:57:11Z</time>
      </trkpt>
      <trkpt lat="42.502758" lon="2.440555">
        <ele>2072.691</ele>
        <time>2021-05-28T15:57:13Z</time>
      </trkpt>
      <trkpt lat="42.502740" lon="2.440577">
        <ele>2072.690</ele>
        <time>2021-05-28T15:57:15Z</time>
      </trkpt>
      <trkpt lat="42.502722" lon="2.440595">
        <ele>2072.417</ele>
        <time>2021-05-28T15:57:17Z</time>
      </trkpt>
      <trkpt lat="42.502697" lon="2.440614">
        <ele>2072.212</ele>
        <time>2021-05-28T15:57:20Z</time>
      </trkpt>
      <trkpt lat="42.502680" lon="2.440628">
        <ele>2072.099</ele>
        <time>2021-05-28T15:57:22Z</time>
      </trkpt>
      <trkpt lat="42.502663" lon="2.440641">
        <ele>2071.967</ele>
        <time>2021-05-28T15:57:24Z</time>
      </trkpt>
      <trkpt lat="42.502642" lon="2.440658">
        <ele>2071.799</ele>
        <time>2021-05-28T15:57:26Z</time>
      </trkpt>
      <trkpt lat="42.502626" lon="2.440675">
        <ele>2071.607</ele>
        <time>2021-05-28T15:57:28Z</time>
      </trkpt>
      <trkpt lat="42.502611" lon="2.440708">
        <ele>2071.627</ele>
        <time>2021-05-28T15:57:31Z</time>
      </trkpt>
      <trkpt lat="42.502600" lon="2.440732">
        <ele>2071.708</ele>
        <time>2021-05-28T15:57:33Z</time>
      </trkpt>
      <trkpt lat="42.502586" lon="2.440758">
        <ele>2071.766</ele>
        <time>2021-05-28T15:57:36Z</time>
      </trkpt>
      <trkpt lat="42.502584" lon="2.440785">
        <ele>2072.053</ele>
        <time>2021-05-28T15:57:38Z</time>
      </trkpt>
      <trkpt lat="42.502572" lon="2.440814">
        <ele>2072.114</ele>
        <time>2021-05-28T15:57:40Z</time>
      </trkpt>
      <trkpt lat="42.502569" lon="2.440841">
        <ele>2072.393</ele>
        <time>2021-05-28T15:57:42Z</time>
      </trkpt>
      <trkpt lat="42.502563" lon="2.440876">
        <ele>2072.790</ele>
        <time>2021-05-28T15:57:44Z</time>
      </trkpt>
      <trkpt lat="42.502559" lon="2.440907">
        <ele>2073.085</ele>
        <time>2021-05-28T15:57:46Z</time>
      </trkpt>
      <trkpt lat="42.502564" lon="2.440940">
        <ele>2073.512</ele>
        <time>2021-05-28T15:57:49Z</time>
      </trkpt>
      <trkpt lat="42.502567" lon="2.440971">
        <ele>2073.910</ele>
        <time>2021-05-28T15:57:51Z</time>
      </trkpt>
      <trkpt lat="42.502583" lon="2.441079">
        <ele>2075.515</ele>
        <time>2021-05-28T15:57:57Z</time>
      </trkpt>
      <trkpt lat="42.502577" lon="2.441121">
        <ele>2076.065</ele>
        <time>2021-05-28T15:57:59Z</time>
      </trkpt>
      <trkpt lat="42.502569" lon="2.441153">
        <ele>2076.311</ele>
        <time>2021-05-28T15:58:01Z</time>
      </trkpt>
      <trkpt lat="42.502561" lon="2.441187">
        <ele>2076.708</ele>
        <time>2021-05-28T15:58:03Z</time>
      </trkpt>
      <trkpt lat="42.502552" lon="2.441212">
        <ele>2076.978</ele>
        <time>2021-05-28T15:58:05Z</time>
      </trkpt>
      <trkpt lat="42.502549" lon="2.441237">
        <ele>2077.315</ele>
        <time>2021-05-28T15:58:07Z</time>
      </trkpt>
      <trkpt lat="42.502549" lon="2.441265">
        <ele>2077.686</ele>
        <time>2021-05-28T15:58:09Z</time>
      </trkpt>
      <trkpt lat="42.502553" lon="2.441290">
        <ele>2078.015</ele>
        <time>2021-05-28T15:58:11Z</time>
      </trkpt>
      <trkpt lat="42.502543" lon="2.441317">
        <ele>2078.362</ele>
        <time>2021-05-28T15:58:13Z</time>
      </trkpt>
      <trkpt lat="42.502530" lon="2.441344">
        <ele>2078.637</ele>
        <time>2021-05-28T15:58:15Z</time>
      </trkpt>
      <trkpt lat="42.502512" lon="2.441371">
        <ele>2078.864</ele>
        <time>2021-05-28T15:58:17Z</time>
      </trkpt>
      <trkpt lat="42.502502" lon="2.441407">
        <ele>2079.322</ele>
        <time>2021-05-28T15:58:19Z</time>
      </trkpt>
      <trkpt lat="42.502487" lon="2.441439">
        <ele>2079.789</ele>
        <time>2021-05-28T15:58:21Z</time>
      </trkpt>
      <trkpt lat="42.502480" lon="2.441468">
        <ele>2080.006</ele>
        <time>2021-05-28T15:58:23Z</time>
      </trkpt>
      <trkpt lat="42.502475" lon="2.441501">
        <ele>2080.526</ele>
        <time>2021-05-28T15:58:25Z</time>
      </trkpt>
      <trkpt lat="42.502468" lon="2.441533">
        <ele>2081.008</ele>
        <time>2021-05-28T15:58:27Z</time>
      </trkpt>
      <trkpt lat="42.502457" lon="2.441559">
        <ele>2081.295</ele>
        <time>2021-05-28T15:58:29Z</time>
      </trkpt>
      <trkpt lat="42.502453" lon="2.441596">
        <ele>2081.842</ele>
        <time>2021-05-28T15:58:32Z</time>
      </trkpt>
      <trkpt lat="42.502448" lon="2.441639">
        <ele>2082.493</ele>
        <time>2021-05-28T15:58:34Z</time>
      </trkpt>
      <trkpt lat="42.502440" lon="2.441666">
        <ele>2082.792</ele>
        <time>2021-05-28T15:58:36Z</time>
      </trkpt>
      <trkpt lat="42.502435" lon="2.441699">
        <ele>2083.129</ele>
        <time>2021-05-28T15:58:38Z</time>
      </trkpt>
      <trkpt lat="42.502426" lon="2.441721">
        <ele>2083.354</ele>
        <time>2021-05-28T15:58:40Z</time>
      </trkpt>
      <trkpt lat="42.502415" lon="2.441775">
        <ele>2083.911</ele>
        <time>2021-05-28T15:58:45Z</time>
      </trkpt>
      <trkpt lat="42.502408" lon="2.441800">
        <ele>2084.129</ele>
        <time>2021-05-28T15:58:47Z</time>
      </trkpt>
      <trkpt lat="42.502405" lon="2.441835">
        <ele>2084.643</ele>
        <time>2021-05-28T15:58:49Z</time>
      </trkpt>
      <trkpt lat="42.502395" lon="2.441869">
        <ele>2084.864</ele>
        <time>2021-05-28T15:58:51Z</time>
      </trkpt>
      <trkpt lat="42.502381" lon="2.441898">
        <ele>2084.910</ele>
        <time>2021-05-28T15:58:53Z</time>
      </trkpt>
      <trkpt lat="42.502371" lon="2.441929">
        <ele>2085.108</ele>
        <time>2021-05-28T15:58:55Z</time>
      </trkpt>
      <trkpt lat="42.502366" lon="2.441960">
        <ele>2085.331</ele>
        <time>2021-05-28T15:58:57Z</time>
      </trkpt>
      <trkpt lat="42.502371" lon="2.441990">
        <ele>2085.768</ele>
        <time>2021-05-28T15:58:59Z</time>
      </trkpt>
      <trkpt lat="42.502391" lon="2.442118">
        <ele>2087.559</ele>
        <time>2021-05-28T15:59:10Z</time>
      </trkpt>
      <trkpt lat="42.502389" lon="2.442154">
        <ele>2087.878</ele>
        <time>2021-05-28T15:59:14Z</time>
      </trkpt>
      <trkpt lat="42.502388" lon="2.442179">
        <ele>2088.075</ele>
        <time>2021-05-28T15:59:16Z</time>
      </trkpt>
      <trkpt lat="42.502392" lon="2.442209">
        <ele>2088.480</ele>
        <time>2021-05-28T15:59:18Z</time>
      </trkpt>
      <trkpt lat="42.502399" lon="2.442232">
        <ele>2088.837</ele>
        <time>2021-05-28T15:59:20Z</time>
      </trkpt>
      <trkpt lat="42.502407" lon="2.442261">
        <ele>2089.175</ele>
        <time>2021-05-28T15:59:23Z</time>
      </trkpt>
      <trkpt lat="42.502413" lon="2.442296">
        <ele>2089.539</ele>
        <time>2021-05-28T15:59:26Z</time>
      </trkpt>
      <trkpt lat="42.502418" lon="2.442327">
        <ele>2089.801</ele>
        <time>2021-05-28T15:59:29Z</time>
      </trkpt>
      <trkpt lat="42.502422" lon="2.442359">
        <ele>2090.021</ele>
        <time>2021-05-28T15:59:32Z</time>
      </trkpt>
      <trkpt lat="42.502426" lon="2.442383">
        <ele>2090.308</ele>
        <time>2021-05-28T15:59:34Z</time>
      </trkpt>
      <trkpt lat="42.502433" lon="2.442410">
        <ele>2090.710</ele>
        <time>2021-05-28T15:59:36Z</time>
      </trkpt>
      <trkpt lat="42.502445" lon="2.442433">
        <ele>2091.347</ele>
        <time>2021-05-28T15:59:38Z</time>
      </trkpt>
      <trkpt lat="42.502451" lon="2.442462">
        <ele>2091.728</ele>
        <time>2021-05-28T15:59:41Z</time>
      </trkpt>
      <trkpt lat="42.502461" lon="2.442485">
        <ele>2092.257</ele>
        <time>2021-05-28T15:59:43Z</time>
      </trkpt>
      <trkpt lat="42.502474" lon="2.442515">
        <ele>2092.894</ele>
        <time>2021-05-28T15:59:46Z</time>
      </trkpt>
      <trkpt lat="42.502484" lon="2.442543">
        <ele>2093.089</ele>
        <time>2021-05-28T15:59:48Z</time>
      </trkpt>
      <trkpt lat="42.502503" lon="2.442571">
        <ele>2093.656</ele>
        <time>2021-05-28T15:59:51Z</time>
      </trkpt>
      <trkpt lat="42.502512" lon="2.442592">
        <ele>2093.634</ele>
        <time>2021-05-28T15:59:53Z</time>
      </trkpt>
      <trkpt lat="42.502517" lon="2.442616">
        <ele>2093.611</ele>
        <time>2021-05-28T15:59:55Z</time>
      </trkpt>
      <trkpt lat="42.502532" lon="2.442647">
        <ele>2093.821</ele>
        <time>2021-05-28T15:59:58Z</time>
      </trkpt>
      <trkpt lat="42.502547" lon="2.442673">
        <ele>2094.003</ele>
        <time>2021-05-28T16:00:00Z</time>
      </trkpt>
      <trkpt lat="42.502560" lon="2.442691">
        <ele>2094.308</ele>
        <time>2021-05-28T16:00:03Z</time>
      </trkpt>
      <trkpt lat="42.502577" lon="2.442717">
        <ele>2094.748</ele>
        <time>2021-05-28T16:00:06Z</time>
      </trkpt>
      <trkpt lat="42.502589" lon="2.442745">
        <ele>2095.055</ele>
        <time>2021-05-28T16:00:09Z</time>
      </trkpt>
      <trkpt lat="42.502601" lon="2.442766">
        <ele>2095.316</ele>
        <time>2021-05-28T16:00:11Z</time>
      </trkpt>
      <trkpt lat="42.502618" lon="2.442797">
        <ele>2095.825</ele>
        <time>2021-05-28T16:00:14Z</time>
      </trkpt>
      <trkpt lat="42.502632" lon="2.442823">
        <ele>2096.242</ele>
        <time>2021-05-28T16:00:16Z</time>
      </trkpt>
      <trkpt lat="42.502635" lon="2.442856">
        <ele>2096.287</ele>
        <time>2021-05-28T16:00:19Z</time>
      </trkpt>
      <trkpt lat="42.502649" lon="2.442882">
        <ele>2096.714</ele>
        <time>2021-05-28T16:00:22Z</time>
      </trkpt>
      <trkpt lat="42.502664" lon="2.442907">
        <ele>2097.192</ele>
        <time>2021-05-28T16:00:25Z</time>
      </trkpt>
      <trkpt lat="42.502675" lon="2.442932">
        <ele>2097.529</ele>
        <time>2021-05-28T16:00:27Z</time>
      </trkpt>
      <trkpt lat="42.502685" lon="2.442962">
        <ele>2097.800</ele>
        <time>2021-05-28T16:00:29Z</time>
      </trkpt>
      <trkpt lat="42.502689" lon="2.442985">
        <ele>2097.920</ele>
        <time>2021-05-28T16:00:31Z</time>
      </trkpt>
      <trkpt lat="42.502708" lon="2.443008">
        <ele>2098.508</ele>
        <time>2021-05-28T16:00:34Z</time>
      </trkpt>
      <trkpt lat="42.502723" lon="2.443029">
        <ele>2099.049</ele>
        <time>2021-05-28T16:00:36Z</time>
      </trkpt>
      <trkpt lat="42.502738" lon="2.443052">
        <ele>2099.666</ele>
        <time>2021-05-28T16:00:38Z</time>
      </trkpt>
      <trkpt lat="42.502751" lon="2.443074">
        <ele>2099.997</ele>
        <time>2021-05-28T16:00:40Z</time>
      </trkpt>
      <trkpt lat="42.502767" lon="2.443096">
        <ele>2100.346</ele>
        <time>2021-05-28T16:00:42Z</time>
      </trkpt>
      <trkpt lat="42.502776" lon="2.443119">
        <ele>2100.513</ele>
        <time>2021-05-28T16:00:44Z</time>
      </trkpt>
      <trkpt lat="42.502795" lon="2.443179">
        <ele>2100.688</ele>
        <time>2021-05-28T16:00:49Z</time>
      </trkpt>
      <trkpt lat="42.502806" lon="2.443215">
        <ele>2100.635</ele>
        <time>2021-05-28T16:00:52Z</time>
      </trkpt>
      <trkpt lat="42.502825" lon="2.443254">
        <ele>2101.023</ele>
        <time>2021-05-28T16:00:56Z</time>
      </trkpt>
      <trkpt lat="42.502835" lon="2.443276">
        <ele>2101.189</ele>
        <time>2021-05-28T16:00:58Z</time>
      </trkpt>
      <trkpt lat="42.502851" lon="2.443291">
        <ele>2101.606</ele>
        <time>2021-05-28T16:01:00Z</time>
      </trkpt>
      <trkpt lat="42.502865" lon="2.443311">
        <ele>2101.926</ele>
        <time>2021-05-28T16:01:02Z</time>
      </trkpt>
      <trkpt lat="42.502874" lon="2.443336">
        <ele>2102.108</ele>
        <time>2021-05-28T16:01:04Z</time>
      </trkpt>
      <trkpt lat="42.502881" lon="2.443370">
        <ele>2101.935</ele>
        <time>2021-05-28T16:01:07Z</time>
      </trkpt>
      <trkpt lat="42.502890" lon="2.443392">
        <ele>2102.022</ele>
        <time>2021-05-28T16:01:09Z</time>
      </trkpt>
      <trkpt lat="42.502905" lon="2.443413">
        <ele>2102.233</ele>
        <time>2021-05-28T16:01:11Z</time>
      </trkpt>
      <trkpt lat="42.502916" lon="2.443443">
        <ele>2102.332</ele>
        <time>2021-05-28T16:01:13Z</time>
      </trkpt>
      <trkpt lat="42.502929" lon="2.443470">
        <ele>2102.529</ele>
        <time>2021-05-28T16:01:15Z</time>
      </trkpt>
      <trkpt lat="42.502947" lon="2.443494">
        <ele>2102.994</ele>
        <time>2021-05-28T16:01:17Z</time>
      </trkpt>
      <trkpt lat="42.502969" lon="2.443513">
        <ele>2103.531</ele>
        <time>2021-05-28T16:01:19Z</time>
      </trkpt>
      <trkpt lat="42.502986" lon="2.443533">
        <ele>2103.919</ele>
        <time>2021-05-28T16:01:21Z</time>
      </trkpt>
      <trkpt lat="42.503004" lon="2.443553">
        <ele>2104.531</ele>
        <time>2021-05-28T16:01:23Z</time>
      </trkpt>
      <trkpt lat="42.503025" lon="2.443570">
        <ele>2105.161</ele>
        <time>2021-05-28T16:01:25Z</time>
      </trkpt>
      <trkpt lat="42.503042" lon="2.443594">
        <ele>2105.607</ele>
        <time>2021-05-28T16:01:27Z</time>
      </trkpt>
      <trkpt lat="42.503057" lon="2.443609">
        <ele>2106.108</ele>
        <time>2021-05-28T16:01:29Z</time>
      </trkpt>
      <trkpt lat="42.503076" lon="2.443624">
        <ele>2106.580</ele>
        <time>2021-05-28T16:01:31Z</time>
      </trkpt>
      <trkpt lat="42.503103" lon="2.443635">
        <ele>2107.317</ele>
        <time>2021-05-28T16:01:34Z</time>
      </trkpt>
      <trkpt lat="42.503120" lon="2.443653">
        <ele>2107.638</ele>
        <time>2021-05-28T16:01:36Z</time>
      </trkpt>
      <trkpt lat="42.503136" lon="2.443673">
        <ele>2107.887</ele>
        <time>2021-05-28T16:01:38Z</time>
      </trkpt>
      <trkpt lat="42.503154" lon="2.443691">
        <ele>2108.224</ele>
        <time>2021-05-28T16:01:40Z</time>
      </trkpt>
      <trkpt lat="42.503167" lon="2.443712">
        <ele>2108.349</ele>
        <time>2021-05-28T16:01:42Z</time>
      </trkpt>
      <trkpt lat="42.503183" lon="2.443730">
        <ele>2108.666</ele>
        <time>2021-05-28T16:01:44Z</time>
      </trkpt>
      <trkpt lat="42.503202" lon="2.443752">
        <ele>2109.054</ele>
        <time>2021-05-28T16:01:46Z</time>
      </trkpt>
      <trkpt lat="42.503219" lon="2.443773">
        <ele>2109.382</ele>
        <time>2021-05-28T16:01:48Z</time>
      </trkpt>
      <trkpt lat="42.503242" lon="2.443792">
        <ele>2109.943</ele>
        <time>2021-05-28T16:01:50Z</time>
      </trkpt>
      <trkpt lat="42.503260" lon="2.443806">
        <ele>2110.417</ele>
        <time>2021-05-28T16:01:52Z</time>
      </trkpt>
      <trkpt lat="42.503277" lon="2.443824">
        <ele>2110.808</ele>
        <time>2021-05-28T16:01:54Z</time>
      </trkpt>
      <trkpt lat="42.503289" lon="2.443845">
        <ele>2110.945</ele>
        <time>2021-05-28T16:01:56Z</time>
      </trkpt>
      <trkpt lat="42.503351" lon="2.443940">
        <ele>2112.162</ele>
        <time>2021-05-28T16:02:04Z</time>
      </trkpt>
      <trkpt lat="42.503395" lon="2.444015">
        <ele>2113.113</ele>
        <time>2021-05-28T16:02:10Z</time>
      </trkpt>
      <trkpt lat="42.503450" lon="2.444123">
        <ele>2114.182</ele>
        <time>2021-05-28T16:02:19Z</time>
      </trkpt>
      <trkpt lat="42.503502" lon="2.444235">
        <ele>2114.919</ele>
        <time>2021-05-28T16:02:27Z</time>
      </trkpt>
      <trkpt lat="42.503519" lon="2.444288">
        <ele>2115.044</ele>
        <time>2021-05-28T16:02:32Z</time>
      </trkpt>
      <trkpt lat="42.503562" lon="2.444345">
        <ele>2116.111</ele>
        <time>2021-05-28T16:02:37Z</time>
      </trkpt>
      <trkpt lat="42.503579" lon="2.444374">
        <ele>2116.599</ele>
        <time>2021-05-28T16:02:39Z</time>
      </trkpt>
      <trkpt lat="42.503599" lon="2.444417">
        <ele>2116.896</ele>
        <time>2021-05-28T16:02:42Z</time>
      </trkpt>
      <trkpt lat="42.503610" lon="2.444444">
        <ele>2117.031</ele>
        <time>2021-05-28T16:02:44Z</time>
      </trkpt>
      <trkpt lat="42.503621" lon="2.444478">
        <ele>2116.924</ele>
        <time>2021-05-28T16:02:46Z</time>
      </trkpt>
      <trkpt lat="42.503636" lon="2.444507">
        <ele>2117.008</ele>
        <time>2021-05-28T16:02:48Z</time>
      </trkpt>
      <trkpt lat="42.503653" lon="2.444532">
        <ele>2117.336</ele>
        <time>2021-05-28T16:02:50Z</time>
      </trkpt>
      <trkpt lat="42.503671" lon="2.444559">
        <ele>2117.673</ele>
        <time>2021-05-28T16:02:52Z</time>
      </trkpt>
      <trkpt lat="42.503683" lon="2.444585">
        <ele>2117.734</ele>
        <time>2021-05-28T16:02:54Z</time>
      </trkpt>
      <trkpt lat="42.503699" lon="2.444607">
        <ele>2118.063</ele>
        <time>2021-05-28T16:02:56Z</time>
      </trkpt>
      <trkpt lat="42.503714" lon="2.444626">
        <ele>2118.350</ele>
        <time>2021-05-28T16:02:58Z</time>
      </trkpt>
      <trkpt lat="42.503729" lon="2.444646">
        <ele>2118.725</ele>
        <time>2021-05-28T16:03:00Z</time>
      </trkpt>
      <trkpt lat="42.503744" lon="2.444670">
        <ele>2118.912</ele>
        <time>2021-05-28T16:03:02Z</time>
      </trkpt>
      <trkpt lat="42.503761" lon="2.444703">
        <ele>2119.280</ele>
        <time>2021-05-28T16:03:05Z</time>
      </trkpt>
      <trkpt lat="42.503774" lon="2.444731">
        <ele>2119.437</ele>
        <time>2021-05-28T16:03:07Z</time>
      </trkpt>
      <trkpt lat="42.503781" lon="2.444760">
        <ele>2119.749</ele>
        <time>2021-05-28T16:03:09Z</time>
      </trkpt>
      <trkpt lat="42.503789" lon="2.444790">
        <ele>2120.013</ele>
        <time>2021-05-28T16:03:11Z</time>
      </trkpt>
      <trkpt lat="42.503805" lon="2.444807">
        <ele>2120.608</ele>
        <time>2021-05-28T16:03:13Z</time>
      </trkpt>
      <trkpt lat="42.503824" lon="2.444825">
        <ele>2121.290</ele>
        <time>2021-05-28T16:03:16Z</time>
      </trkpt>
      <trkpt lat="42.503830" lon="2.444854">
        <ele>2121.427</ele>
        <time>2021-05-28T16:03:19Z</time>
      </trkpt>
      <trkpt lat="42.503833" lon="2.444888">
        <ele>2121.468</ele>
        <time>2021-05-28T16:03:21Z</time>
      </trkpt>
      <trkpt lat="42.503836" lon="2.444926">
        <ele>2121.567</ele>
        <time>2021-05-28T16:03:23Z</time>
      </trkpt>
      <trkpt lat="42.503836" lon="2.444964">
        <ele>2121.454</ele>
        <time>2021-05-28T16:03:25Z</time>
      </trkpt>
      <trkpt lat="42.503836" lon="2.445004">
        <ele>2121.319</ele>
        <time>2021-05-28T16:03:27Z</time>
      </trkpt>
      <trkpt lat="42.503840" lon="2.445036">
        <ele>2121.386</ele>
        <time>2021-05-28T16:03:29Z</time>
      </trkpt>
      <trkpt lat="42.503847" lon="2.445064">
        <ele>2121.444</ele>
        <time>2021-05-28T16:03:31Z</time>
      </trkpt>
      <trkpt lat="42.503853" lon="2.445094">
        <ele>2121.528</ele>
        <time>2021-05-28T16:03:33Z</time>
      </trkpt>
      <trkpt lat="42.503862" lon="2.445125">
        <ele>2121.789</ele>
        <time>2021-05-28T16:03:35Z</time>
      </trkpt>
      <trkpt lat="42.503871" lon="2.445156">
        <ele>2121.917</ele>
        <time>2021-05-28T16:03:37Z</time>
      </trkpt>
      <trkpt lat="42.503884" lon="2.445183">
        <ele>2122.208</ele>
        <time>2021-05-28T16:03:39Z</time>
      </trkpt>
      <trkpt lat="42.503892" lon="2.445208">
        <ele>2122.459</ele>
        <time>2021-05-28T16:03:41Z</time>
      </trkpt>
      <trkpt lat="42.503904" lon="2.445232">
        <ele>2122.856</ele>
        <time>2021-05-28T16:03:43Z</time>
      </trkpt>
      <trkpt lat="42.503922" lon="2.445255">
        <ele>2123.427</ele>
        <time>2021-05-28T16:03:45Z</time>
      </trkpt>
      <trkpt lat="42.503937" lon="2.445281">
        <ele>2123.926</ele>
        <time>2021-05-28T16:03:47Z</time>
      </trkpt>
      <trkpt lat="42.503948" lon="2.445308">
        <ele>2124.443</ele>
        <time>2021-05-28T16:03:49Z</time>
      </trkpt>
      <trkpt lat="42.503957" lon="2.445339">
        <ele>2124.838</ele>
        <time>2021-05-28T16:03:51Z</time>
      </trkpt>
      <trkpt lat="42.503964" lon="2.445376">
        <ele>2125.055</ele>
        <time>2021-05-28T16:03:53Z</time>
      </trkpt>
      <trkpt lat="42.503965" lon="2.445416">
        <ele>2125.113</ele>
        <time>2021-05-28T16:03:55Z</time>
      </trkpt>
      <trkpt lat="42.503971" lon="2.445439">
        <ele>2125.362</ele>
        <time>2021-05-28T16:04:03Z</time>
      </trkpt>
      <trkpt lat="42.503984" lon="2.445463">
        <ele>2125.783</ele>
        <time>2021-05-28T16:04:07Z</time>
      </trkpt>
      <trkpt lat="42.503997" lon="2.445493">
        <ele>2126.211</ele>
        <time>2021-05-28T16:04:09Z</time>
      </trkpt>
      <trkpt lat="42.504013" lon="2.445525">
        <ele>2126.608</ele>
        <time>2021-05-28T16:04:11Z</time>
      </trkpt>
      <trkpt lat="42.504021" lon="2.445555">
        <ele>2126.813</ele>
        <time>2021-05-28T16:04:13Z</time>
      </trkpt>
      <trkpt lat="42.504022" lon="2.445582">
        <ele>2127.040</ele>
        <time>2021-05-28T16:04:15Z</time>
      </trkpt>
      <trkpt lat="42.504026" lon="2.445612">
        <ele>2127.381</ele>
        <time>2021-05-28T16:04:17Z</time>
      </trkpt>
      <trkpt lat="42.504041" lon="2.445642">
        <ele>2127.870</ele>
        <time>2021-05-28T16:04:22Z</time>
      </trkpt>
      <trkpt lat="42.504047" lon="2.445683">
        <ele>2128.247</ele>
        <time>2021-05-28T16:04:24Z</time>
      </trkpt>
      <trkpt lat="42.504045" lon="2.445726">
        <ele>2128.462</ele>
        <time>2021-05-28T16:04:26Z</time>
      </trkpt>
      <trkpt lat="42.504053" lon="2.445761">
        <ele>2128.899</ele>
        <time>2021-05-28T16:04:28Z</time>
      </trkpt>
      <trkpt lat="42.504062" lon="2.445789">
        <ele>2129.177</ele>
        <time>2021-05-28T16:04:30Z</time>
      </trkpt>
      <trkpt lat="42.504063" lon="2.445820">
        <ele>2129.357</ele>
        <time>2021-05-28T16:04:32Z</time>
      </trkpt>
      <trkpt lat="42.504061" lon="2.445855">
        <ele>2129.400</ele>
        <time>2021-05-28T16:04:34Z</time>
      </trkpt>
      <trkpt lat="42.504059" lon="2.445891">
        <ele>2129.420</ele>
        <time>2021-05-28T16:04:36Z</time>
      </trkpt>
      <trkpt lat="42.504062" lon="2.445925">
        <ele>2129.608</ele>
        <time>2021-05-28T16:04:38Z</time>
      </trkpt>
      <trkpt lat="42.504068" lon="2.445962">
        <ele>2129.862</ele>
        <time>2021-05-28T16:04:41Z</time>
      </trkpt>
      <trkpt lat="42.504073" lon="2.445999">
        <ele>2130.089</ele>
        <time>2021-05-28T16:04:43Z</time>
      </trkpt>
      <trkpt lat="42.504086" lon="2.446031">
        <ele>2130.490</ele>
        <time>2021-05-28T16:04:45Z</time>
      </trkpt>
      <trkpt lat="42.504097" lon="2.446059">
        <ele>2130.729</ele>
        <time>2021-05-28T16:04:47Z</time>
      </trkpt>
      <trkpt lat="42.504108" lon="2.446089">
        <ele>2130.936</ele>
        <time>2021-05-28T16:04:49Z</time>
      </trkpt>
      <trkpt lat="42.504126" lon="2.446107">
        <ele>2131.361</ele>
        <time>2021-05-28T16:04:52Z</time>
      </trkpt>
      <trkpt lat="42.504141" lon="2.446141">
        <ele>2131.718</ele>
        <time>2021-05-28T16:04:55Z</time>
      </trkpt>
      <trkpt lat="42.504159" lon="2.446170">
        <ele>2132.196</ele>
        <time>2021-05-28T16:04:58Z</time>
      </trkpt>
      <trkpt lat="42.504166" lon="2.446196">
        <ele>2132.323</ele>
        <time>2021-05-28T16:05:00Z</time>
      </trkpt>
      <trkpt lat="42.504178" lon="2.446220">
        <ele>2132.783</ele>
        <time>2021-05-28T16:05:02Z</time>
      </trkpt>
      <trkpt lat="42.504195" lon="2.446233">
        <ele>2133.211</ele>
        <time>2021-05-28T16:05:04Z</time>
      </trkpt>
      <trkpt lat="42.504213" lon="2.446247">
        <ele>2133.708</ele>
        <time>2021-05-28T16:05:07Z</time>
      </trkpt>
      <trkpt lat="42.504226" lon="2.446274">
        <ele>2134.079</ele>
        <time>2021-05-28T16:05:10Z</time>
      </trkpt>
      <trkpt lat="42.504242" lon="2.446287">
        <ele>2134.536</ele>
        <time>2021-05-28T16:05:12Z</time>
      </trkpt>
      <trkpt lat="42.504265" lon="2.446298">
        <ele>2135.067</ele>
        <time>2021-05-28T16:05:15Z</time>
      </trkpt>
      <trkpt lat="42.504284" lon="2.446310">
        <ele>2135.576</ele>
        <time>2021-05-28T16:05:18Z</time>
      </trkpt>
      <trkpt lat="42.504300" lon="2.446326">
        <ele>2135.973</ele>
        <time>2021-05-28T16:05:21Z</time>
      </trkpt>
      <trkpt lat="42.504321" lon="2.446330">
        <ele>2136.418</ele>
        <time>2021-05-28T16:05:24Z</time>
      </trkpt>
      <trkpt lat="42.504336" lon="2.446347">
        <ele>2136.765</ele>
        <time>2021-05-28T16:05:27Z</time>
      </trkpt>
      <trkpt lat="42.504350" lon="2.446373">
        <ele>2137.033</ele>
        <time>2021-05-28T16:05:31Z</time>
      </trkpt>
      <trkpt lat="42.504356" lon="2.446401">
        <ele>2137.189</ele>
        <time>2021-05-28T16:05:35Z</time>
      </trkpt>
      <trkpt lat="42.504374" lon="2.446421">
        <ele>2137.606</ele>
        <time>2021-05-28T16:05:38Z</time>
      </trkpt>
      <trkpt lat="42.504394" lon="2.446440">
        <ele>2138.126</ele>
        <time>2021-05-28T16:05:41Z</time>
      </trkpt>
      <trkpt lat="42.504409" lon="2.446458">
        <ele>2138.508</ele>
        <time>2021-05-28T16:05:44Z</time>
      </trkpt>
      <trkpt lat="42.504420" lon="2.446486">
        <ele>2138.955</ele>
        <time>2021-05-28T16:05:47Z</time>
      </trkpt>
      <trkpt lat="42.504429" lon="2.446509">
        <ele>2139.182</ele>
        <time>2021-05-28T16:05:50Z</time>
      </trkpt>
      <trkpt lat="42.504439" lon="2.446530">
        <ele>2139.473</ele>
        <time>2021-05-28T16:05:52Z</time>
      </trkpt>
      <trkpt lat="42.504444" lon="2.446564">
        <ele>2139.612</ele>
        <time>2021-05-28T16:05:55Z</time>
      </trkpt>
      <trkpt lat="42.504450" lon="2.446589">
        <ele>2139.979</ele>
        <time>2021-05-28T16:05:57Z</time>
      </trkpt>
      <trkpt lat="42.504460" lon="2.446611">
        <ele>2140.274</ele>
        <time>2021-05-28T16:05:59Z</time>
      </trkpt>
      <trkpt lat="42.504472" lon="2.446642">
        <ele>2140.661</ele>
        <time>2021-05-28T16:06:02Z</time>
      </trkpt>
      <trkpt lat="42.504481" lon="2.446664">
        <ele>2140.939</ele>
        <time>2021-05-28T16:06:04Z</time>
      </trkpt>
      <trkpt lat="42.504493" lon="2.446690">
        <ele>2141.413</ele>
        <time>2021-05-28T16:06:07Z</time>
      </trkpt>
      <trkpt lat="42.504489" lon="2.446733">
        <ele>2141.543</ele>
        <time>2021-05-28T16:06:11Z</time>
      </trkpt>
      <trkpt lat="42.504486" lon="2.446765">
        <ele>2141.607</ele>
        <time>2021-05-28T16:06:14Z</time>
      </trkpt>
      <trkpt lat="42.504481" lon="2.446798">
        <ele>2141.708</ele>
        <time>2021-05-28T16:06:17Z</time>
      </trkpt>
      <trkpt lat="42.504469" lon="2.446827">
        <ele>2141.728</ele>
        <time>2021-05-28T16:06:20Z</time>
      </trkpt>
      <trkpt lat="42.504463" lon="2.446853">
        <ele>2141.745</ele>
        <time>2021-05-28T16:06:22Z</time>
      </trkpt>
      <trkpt lat="42.504457" lon="2.446890">
        <ele>2141.946</ele>
        <time>2021-05-28T16:06:25Z</time>
      </trkpt>
      <trkpt lat="42.504454" lon="2.446917">
        <ele>2142.035</ele>
        <time>2021-05-28T16:06:27Z</time>
      </trkpt>
      <trkpt lat="42.504453" lon="2.446961">
        <ele>2142.392</ele>
        <time>2021-05-28T16:06:30Z</time>
      </trkpt>
      <trkpt lat="42.504446" lon="2.446990">
        <ele>2142.497</ele>
        <time>2021-05-28T16:06:32Z</time>
      </trkpt>
      <trkpt lat="42.504449" lon="2.447019">
        <ele>2142.654</ele>
        <time>2021-05-28T16:06:34Z</time>
      </trkpt>
      <trkpt lat="42.504450" lon="2.447046">
        <ele>2142.862</ele>
        <time>2021-05-28T16:06:36Z</time>
      </trkpt>
      <trkpt lat="42.504452" lon="2.447071">
        <ele>2143.032</ele>
        <time>2021-05-28T16:06:38Z</time>
      </trkpt>
      <trkpt lat="42.504456" lon="2.447097">
        <ele>2143.392</ele>
        <time>2021-05-28T16:06:40Z</time>
      </trkpt>
      <trkpt lat="42.504458" lon="2.447128">
        <ele>2143.511</ele>
        <time>2021-05-28T16:06:42Z</time>
      </trkpt>
      <trkpt lat="42.504476" lon="2.447154">
        <ele>2143.908</ele>
        <time>2021-05-28T16:06:45Z</time>
      </trkpt>
      <trkpt lat="42.504498" lon="2.447192">
        <ele>2144.480</ele>
        <time>2021-05-28T16:06:49Z</time>
      </trkpt>
      <trkpt lat="42.504504" lon="2.447215">
        <ele>2144.657</ele>
        <time>2021-05-28T16:06:51Z</time>
      </trkpt>
      <trkpt lat="42.504508" lon="2.447241">
        <ele>2144.898</ele>
        <time>2021-05-28T16:06:53Z</time>
      </trkpt>
      <trkpt lat="42.504511" lon="2.447269">
        <ele>2145.187</ele>
        <time>2021-05-28T16:06:55Z</time>
      </trkpt>
      <trkpt lat="42.504517" lon="2.447298">
        <ele>2145.344</ele>
        <time>2021-05-28T16:06:57Z</time>
      </trkpt>
      <trkpt lat="42.504524" lon="2.447327">
        <ele>2145.679</ele>
        <time>2021-05-28T16:06:59Z</time>
      </trkpt>
      <trkpt lat="42.504532" lon="2.447351">
        <ele>2145.996</ele>
        <time>2021-05-28T16:07:01Z</time>
      </trkpt>
      <trkpt lat="42.504541" lon="2.447373">
        <ele>2146.164</ele>
        <time>2021-05-28T16:07:03Z</time>
      </trkpt>
      <trkpt lat="42.504550" lon="2.447400">
        <ele>2146.452</ele>
        <time>2021-05-28T16:07:05Z</time>
      </trkpt>
      <trkpt lat="42.504565" lon="2.447436">
        <ele>2146.853</ele>
        <time>2021-05-28T16:07:08Z</time>
      </trkpt>
      <trkpt lat="42.504573" lon="2.447460">
        <ele>2147.108</ele>
        <time>2021-05-28T16:07:10Z</time>
      </trkpt>
      <trkpt lat="42.504583" lon="2.447483">
        <ele>2147.408</ele>
        <time>2021-05-28T16:07:12Z</time>
      </trkpt>
      <trkpt lat="42.504592" lon="2.447505">
        <ele>2147.652</ele>
        <time>2021-05-28T16:07:14Z</time>
      </trkpt>
      <trkpt lat="42.504604" lon="2.447525">
        <ele>2147.919</ele>
        <time>2021-05-28T16:07:16Z</time>
      </trkpt>
      <trkpt lat="42.504618" lon="2.447543">
        <ele>2148.290</ele>
        <time>2021-05-28T16:07:18Z</time>
      </trkpt>
      <trkpt lat="42.504633" lon="2.447567">
        <ele>2148.519</ele>
        <time>2021-05-28T16:07:21Z</time>
      </trkpt>
      <trkpt lat="42.504649" lon="2.447587">
        <ele>2148.896</ele>
        <time>2021-05-28T16:07:24Z</time>
      </trkpt>
      <trkpt lat="42.504669" lon="2.447607">
        <ele>2149.261</ele>
        <time>2021-05-28T16:07:27Z</time>
      </trkpt>
      <trkpt lat="42.504686" lon="2.447629">
        <ele>2149.568</ele>
        <time>2021-05-28T16:07:30Z</time>
      </trkpt>
      <trkpt lat="42.504700" lon="2.447645">
        <ele>2149.886</ele>
        <time>2021-05-28T16:07:32Z</time>
      </trkpt>
      <trkpt lat="42.504711" lon="2.447666">
        <ele>2150.192</ele>
        <time>2021-05-28T16:07:34Z</time>
      </trkpt>
      <trkpt lat="42.504724" lon="2.447683">
        <ele>2150.373</ele>
        <time>2021-05-28T16:07:36Z</time>
      </trkpt>
      <trkpt lat="42.504738" lon="2.447700">
        <ele>2150.720</ele>
        <time>2021-05-28T16:07:38Z</time>
      </trkpt>
      <trkpt lat="42.504752" lon="2.447717">
        <ele>2151.108</ele>
        <time>2021-05-28T16:07:40Z</time>
      </trkpt>
      <trkpt lat="42.504766" lon="2.447734">
        <ele>2151.526</ele>
        <time>2021-05-28T16:07:42Z</time>
      </trkpt>
      <trkpt lat="42.504779" lon="2.447755">
        <ele>2151.963</ele>
        <time>2021-05-28T16:07:44Z</time>
      </trkpt>
      <trkpt lat="42.504794" lon="2.447772">
        <ele>2152.284</ele>
        <time>2021-05-28T16:07:46Z</time>
      </trkpt>
      <trkpt lat="42.504808" lon="2.447789">
        <ele>2152.633</ele>
        <time>2021-05-28T16:07:48Z</time>
      </trkpt>
      <trkpt lat="42.504824" lon="2.447805">
        <ele>2153.050</ele>
        <time>2021-05-28T16:07:51Z</time>
      </trkpt>
      <trkpt lat="42.504837" lon="2.447825">
        <ele>2153.395</ele>
        <time>2021-05-28T16:07:54Z</time>
      </trkpt>
      <trkpt lat="42.504850" lon="2.447852">
        <ele>2153.762</ele>
        <time>2021-05-28T16:07:57Z</time>
      </trkpt>
      <trkpt lat="42.504862" lon="2.447889">
        <ele>2154.140</ele>
        <time>2021-05-28T16:08:00Z</time>
      </trkpt>
      <trkpt lat="42.504876" lon="2.447910">
        <ele>2154.586</ele>
        <time>2021-05-28T16:08:02Z</time>
      </trkpt>
      <trkpt lat="42.504895" lon="2.447935">
        <ele>2154.960</ele>
        <time>2021-05-28T16:08:05Z</time>
      </trkpt>
      <trkpt lat="42.504915" lon="2.447956">
        <ele>2155.326</ele>
        <time>2021-05-28T16:08:08Z</time>
      </trkpt>
      <trkpt lat="42.504929" lon="2.447974">
        <ele>2155.608</ele>
        <time>2021-05-28T16:08:10Z</time>
      </trkpt>
      <trkpt lat="42.504940" lon="2.447994">
        <ele>2155.975</ele>
        <time>2021-05-28T16:08:12Z</time>
      </trkpt>
      <trkpt lat="42.504956" lon="2.448018">
        <ele>2156.292</ele>
        <time>2021-05-28T16:08:15Z</time>
      </trkpt>
      <trkpt lat="42.504973" lon="2.448040">
        <ele>2156.623</ele>
        <time>2021-05-28T16:08:18Z</time>
      </trkpt>
      <trkpt lat="42.504990" lon="2.448067">
        <ele>2157.052</ele>
        <time>2021-05-28T16:08:21Z</time>
      </trkpt>
      <trkpt lat="42.505003" lon="2.448086">
        <ele>2157.499</ele>
        <time>2021-05-28T16:08:23Z</time>
      </trkpt>
      <trkpt lat="42.505019" lon="2.448112">
        <ele>2158.114</ele>
        <time>2021-05-28T16:08:26Z</time>
      </trkpt>
      <trkpt lat="42.505036" lon="2.448142">
        <ele>2158.891</ele>
        <time>2021-05-28T16:08:41Z</time>
      </trkpt>
      <trkpt lat="42.505053" lon="2.448163">
        <ele>2159.369</ele>
        <time>2021-05-28T16:08:44Z</time>
      </trkpt>
      <trkpt lat="42.505069" lon="2.448183">
        <ele>2159.928</ele>
        <time>2021-05-28T16:08:47Z</time>
      </trkpt>
      <trkpt lat="42.505094" lon="2.448195">
        <ele>2160.589</ele>
        <time>2021-05-28T16:08:50Z</time>
      </trkpt>
      <trkpt lat="42.505115" lon="2.448210">
        <ele>2161.117</ele>
        <time>2021-05-28T16:08:53Z</time>
      </trkpt>
      <trkpt lat="42.505136" lon="2.448222">
        <ele>2161.608</ele>
        <time>2021-05-28T16:08:56Z</time>
      </trkpt>
      <trkpt lat="42.505148" lon="2.448243">
        <ele>2162.099</ele>
        <time>2021-05-28T16:08:59Z</time>
      </trkpt>
      <trkpt lat="42.505165" lon="2.448261">
        <ele>2162.546</ele>
        <time>2021-05-28T16:09:02Z</time>
      </trkpt>
      <trkpt lat="42.505183" lon="2.448280">
        <ele>2163.097</ele>
        <time>2021-05-28T16:09:05Z</time>
      </trkpt>
      <trkpt lat="42.505202" lon="2.448306">
        <ele>2163.596</ele>
        <time>2021-05-28T16:09:08Z</time>
      </trkpt>
      <trkpt lat="42.505215" lon="2.448333">
        <ele>2163.923</ele>
        <time>2021-05-28T16:09:11Z</time>
      </trkpt>
      <trkpt lat="42.505221" lon="2.448357">
        <ele>2164.288</ele>
        <time>2021-05-28T16:09:14Z</time>
      </trkpt>
      <trkpt lat="42.505227" lon="2.448381">
        <ele>2164.575</ele>
        <time>2021-05-28T16:09:17Z</time>
      </trkpt>
      <trkpt lat="42.505237" lon="2.448405">
        <ele>2164.853</ele>
        <time>2021-05-28T16:09:26Z</time>
      </trkpt>
      <trkpt lat="42.505244" lon="2.448428">
        <ele>2165.197</ele>
        <time>2021-05-28T16:09:36Z</time>
      </trkpt>
      <trkpt lat="42.505249" lon="2.448454">
        <ele>2165.423</ele>
        <time>2021-05-28T16:09:39Z</time>
      </trkpt>
      <trkpt lat="42.505261" lon="2.448479">
        <ele>2165.825</ele>
        <time>2021-05-28T16:09:42Z</time>
      </trkpt>
      <trkpt lat="42.505268" lon="2.448509">
        <ele>2166.108</ele>
        <time>2021-05-28T16:09:45Z</time>
      </trkpt>
      <trkpt lat="42.505278" lon="2.448530">
        <ele>2166.496</ele>
        <time>2021-05-28T16:09:47Z</time>
      </trkpt>
      <trkpt lat="42.505296" lon="2.448554">
        <ele>2167.053</ele>
        <time>2021-05-28T16:09:50Z</time>
      </trkpt>
      <trkpt lat="42.505313" lon="2.448573">
        <ele>2167.564</ele>
        <time>2021-05-28T16:09:53Z</time>
      </trkpt>
      <trkpt lat="42.505324" lon="2.448600">
        <ele>2167.913</ele>
        <time>2021-05-28T16:09:56Z</time>
      </trkpt>
      <trkpt lat="42.505335" lon="2.448627">
        <ele>2168.380</ele>
        <time>2021-05-28T16:09:59Z</time>
      </trkpt>
      <trkpt lat="42.505344" lon="2.448653">
        <ele>2168.775</ele>
        <time>2021-05-28T16:10:02Z</time>
      </trkpt>
      <trkpt lat="42.505356" lon="2.448679">
        <ele>2169.252</ele>
        <time>2021-05-28T16:10:06Z</time>
      </trkpt>
      <trkpt lat="42.505366" lon="2.448706">
        <ele>2169.680</ele>
        <time>2021-05-28T16:10:09Z</time>
      </trkpt>
      <trkpt lat="42.505370" lon="2.448732">
        <ele>2169.962</ele>
        <time>2021-05-28T16:10:11Z</time>
      </trkpt>
      <trkpt lat="42.505377" lon="2.448755">
        <ele>2170.283</ele>
        <time>2021-05-28T16:10:13Z</time>
      </trkpt>
      <trkpt lat="42.505386" lon="2.448780">
        <ele>2170.611</ele>
        <time>2021-05-28T16:10:15Z</time>
      </trkpt>
      <trkpt lat="42.505398" lon="2.448814">
        <ele>2171.108</ele>
        <time>2021-05-28T16:10:18Z</time>
      </trkpt>
      <trkpt lat="42.505409" lon="2.448833">
        <ele>2171.493</ele>
        <time>2021-05-28T16:10:20Z</time>
      </trkpt>
      <trkpt lat="42.505422" lon="2.448853">
        <ele>2171.960</ele>
        <time>2021-05-28T16:10:22Z</time>
      </trkpt>
      <trkpt lat="42.505435" lon="2.448873">
        <ele>2172.311</ele>
        <time>2021-05-28T16:10:24Z</time>
      </trkpt>
      <trkpt lat="42.505455" lon="2.448896">
        <ele>2172.930</ele>
        <time>2021-05-28T16:10:27Z</time>
      </trkpt>
      <trkpt lat="42.505473" lon="2.448919">
        <ele>2173.457</ele>
        <time>2021-05-28T16:10:30Z</time>
      </trkpt>
      <trkpt lat="42.505491" lon="2.448942">
        <ele>2173.972</ele>
        <time>2021-05-28T16:10:33Z</time>
      </trkpt>
      <trkpt lat="42.505514" lon="2.448978">
        <ele>2174.579</ele>
        <time>2021-05-28T16:10:37Z</time>
      </trkpt>
      <trkpt lat="42.505531" lon="2.449004">
        <ele>2175.067</ele>
        <time>2021-05-28T16:10:40Z</time>
      </trkpt>
      <trkpt lat="42.505548" lon="2.449031">
        <ele>2175.412</ele>
        <time>2021-05-28T16:10:43Z</time>
      </trkpt>
      <trkpt lat="42.505562" lon="2.449050">
        <ele>2175.732</ele>
        <time>2021-05-28T16:10:45Z</time>
      </trkpt>
      <trkpt lat="42.505577" lon="2.449067">
        <ele>2176.105</ele>
        <time>2021-05-28T16:10:47Z</time>
      </trkpt>
      <trkpt lat="42.505590" lon="2.449085">
        <ele>2176.508</ele>
        <time>2021-05-28T16:10:49Z</time>
      </trkpt>
      <trkpt lat="42.505602" lon="2.449105">
        <ele>2176.878</ele>
        <time>2021-05-28T16:10:51Z</time>
      </trkpt>
      <trkpt lat="42.505608" lon="2.449130">
        <ele>2177.065</ele>
        <time>2021-05-28T16:10:53Z</time>
      </trkpt>
      <trkpt lat="42.505611" lon="2.449156">
        <ele>2177.256</ele>
        <time>2021-05-28T16:10:55Z</time>
      </trkpt>
      <trkpt lat="42.505609" lon="2.449182">
        <ele>2177.425</ele>
        <time>2021-05-28T16:10:57Z</time>
      </trkpt>
      <trkpt lat="42.505607" lon="2.449211">
        <ele>2177.752</ele>
        <time>2021-05-28T16:10:59Z</time>
      </trkpt>
      <trkpt lat="42.505609" lon="2.449237">
        <ele>2178.167</ele>
        <time>2021-05-28T16:11:01Z</time>
      </trkpt>
      <trkpt lat="42.505613" lon="2.449263">
        <ele>2178.654</ele>
        <time>2021-05-28T16:11:03Z</time>
      </trkpt>
      <trkpt lat="42.505620" lon="2.449291">
        <ele>2179.112</ele>
        <time>2021-05-28T16:11:06Z</time>
      </trkpt>
      <trkpt lat="42.505625" lon="2.449317">
        <ele>2179.511</ele>
        <time>2021-05-28T16:11:09Z</time>
      </trkpt>
      <trkpt lat="42.505634" lon="2.449345">
        <ele>2180.121</ele>
        <time>2021-05-28T16:11:12Z</time>
      </trkpt>
      <trkpt lat="42.505648" lon="2.449380">
        <ele>2180.803</ele>
        <time>2021-05-28T16:11:15Z</time>
      </trkpt>
      <trkpt lat="42.505660" lon="2.449407">
        <ele>2181.408</ele>
        <time>2021-05-28T16:11:19Z</time>
      </trkpt>
      <trkpt lat="42.505670" lon="2.449434">
        <ele>2181.988</ele>
        <time>2021-05-28T16:11:22Z</time>
      </trkpt>
      <trkpt lat="42.505680" lon="2.449460">
        <ele>2182.585</ele>
        <time>2021-05-28T16:11:25Z</time>
      </trkpt>
      <trkpt lat="42.505691" lon="2.449486">
        <ele>2183.046</ele>
        <time>2021-05-28T16:11:28Z</time>
      </trkpt>
      <trkpt lat="42.505696" lon="2.449517">
        <ele>2183.645</ele>
        <time>2021-05-28T16:11:31Z</time>
      </trkpt>
      <trkpt lat="42.505702" lon="2.449547">
        <ele>2184.112</ele>
        <time>2021-05-28T16:11:34Z</time>
      </trkpt>
      <trkpt lat="42.505707" lon="2.449577">
        <ele>2184.647</ele>
        <time>2021-05-28T16:11:37Z</time>
      </trkpt>
      <trkpt lat="42.505712" lon="2.449609">
        <ele>2185.234</ele>
        <time>2021-05-28T16:11:40Z</time>
      </trkpt>
      <trkpt lat="42.505724" lon="2.449633">
        <ele>2185.792</ele>
        <time>2021-05-28T16:11:43Z</time>
      </trkpt>
      <trkpt lat="42.505730" lon="2.449657">
        <ele>2186.217</ele>
        <time>2021-05-28T16:11:47Z</time>
      </trkpt>
      <trkpt lat="42.505732" lon="2.449682">
        <ele>2186.687</ele>
        <time>2021-05-28T16:11:52Z</time>
      </trkpt>
      <trkpt lat="42.505750" lon="2.449693">
        <ele>2187.115</ele>
        <time>2021-05-28T16:11:58Z</time>
      </trkpt>
      <trkpt lat="42.505764" lon="2.449709">
        <ele>2187.608</ele>
        <time>2021-05-28T16:12:03Z</time>
      </trkpt>
      <trkpt lat="42.505776" lon="2.449731">
        <ele>2188.168</ele>
        <time>2021-05-28T16:12:07Z</time>
      </trkpt>
      <trkpt lat="42.505788" lon="2.449757">
        <ele>2188.845</ele>
        <time>2021-05-28T16:12:12Z</time>
      </trkpt>
      <trkpt lat="42.505798" lon="2.449785">
        <ele>2189.526</ele>
        <time>2021-05-28T16:12:16Z</time>
      </trkpt>
      <trkpt lat="42.505812" lon="2.449807">
        <ele>2190.175</ele>
        <time>2021-05-28T16:12:20Z</time>
      </trkpt>
      <trkpt lat="42.505835" lon="2.449817">
        <ele>2190.852</ele>
        <time>2021-05-28T16:12:24Z</time>
      </trkpt>
      <trkpt lat="42.505857" lon="2.449832">
        <ele>2191.777</ele>
        <time>2021-05-28T16:12:27Z</time>
      </trkpt>
      <trkpt lat="42.505873" lon="2.449847">
        <ele>2192.464</ele>
        <time>2021-05-28T16:12:30Z</time>
      </trkpt>
      <trkpt lat="42.505894" lon="2.449861">
        <ele>2193.262</ele>
        <time>2021-05-28T16:12:33Z</time>
      </trkpt>
      <trkpt lat="42.505917" lon="2.449870">
        <ele>2194.124</ele>
        <time>2021-05-28T16:12:36Z</time>
      </trkpt>
      <trkpt lat="42.505937" lon="2.449874">
        <ele>2194.704</ele>
        <time>2021-05-28T16:12:39Z</time>
      </trkpt>
      <trkpt lat="42.505954" lon="2.449890">
        <ele>2195.414</ele>
        <time>2021-05-28T16:12:43Z</time>
      </trkpt>
      <trkpt lat="42.505968" lon="2.449909">
        <ele>2196.108</ele>
        <time>2021-05-28T16:12:46Z</time>
      </trkpt>
      <trkpt lat="42.505978" lon="2.449933">
        <ele>2196.719</ele>
        <time>2021-05-28T16:12:50Z</time>
      </trkpt>
      <trkpt lat="42.505986" lon="2.449956">
        <ele>2197.286</ele>
        <time>2021-05-28T16:12:53Z</time>
      </trkpt>
      <trkpt lat="42.505983" lon="2.449983">
        <ele>2197.537</ele>
        <time>2021-05-28T16:12:56Z</time>
      </trkpt>
      <trkpt lat="42.505988" lon="2.450011">
        <ele>2198.046</ele>
        <time>2021-05-28T16:13:00Z</time>
      </trkpt>
      <trkpt lat="42.506000" lon="2.450036">
        <ele>2198.613</ele>
        <time>2021-05-28T16:13:04Z</time>
      </trkpt>
      <trkpt lat="42.506015" lon="2.450056">
        <ele>2199.268</ele>
        <time>2021-05-28T16:13:07Z</time>
      </trkpt>
      <trkpt lat="42.506038" lon="2.450060">
        <ele>2199.895</ele>
        <time>2021-05-28T16:13:10Z</time>
      </trkpt>
      <trkpt lat="42.506058" lon="2.450061">
        <ele>2200.343</ele>
        <time>2021-05-28T16:13:14Z</time>
      </trkpt>
      <trkpt lat="42.506071" lon="2.450080">
        <ele>2200.923</ele>
        <time>2021-05-28T16:13:18Z</time>
      </trkpt>
      <trkpt lat="42.506088" lon="2.450089">
        <ele>2201.483</ele>
        <time>2021-05-28T16:13:22Z</time>
      </trkpt>
      <trkpt lat="42.506108" lon="2.450083">
        <ele>2201.811</ele>
        <time>2021-05-28T16:13:28Z</time>
      </trkpt>
      <trkpt lat="42.506129" lon="2.450096">
        <ele>2202.808</ele>
        <time>2021-05-28T16:13:32Z</time>
      </trkpt>
      <trkpt lat="42.506144" lon="2.450112">
        <ele>2203.589</ele>
        <time>2021-05-28T16:13:36Z</time>
      </trkpt>
      <trkpt lat="42.506157" lon="2.450133">
        <ele>2204.316</ele>
        <time>2021-05-28T16:13:40Z</time>
      </trkpt>
      <trkpt lat="42.506171" lon="2.450148">
        <ele>2205.037</ele>
        <time>2021-05-28T16:13:44Z</time>
      </trkpt>
      <trkpt lat="42.506178" lon="2.450177">
        <ele>2205.546</ele>
        <time>2021-05-28T16:13:51Z</time>
      </trkpt>
      <trkpt lat="42.506184" lon="2.450203">
        <ele>2206.093</ele>
        <time>2021-05-28T16:13:54Z</time>
      </trkpt>
      <trkpt lat="42.506192" lon="2.450227">
        <ele>2206.528</ele>
        <time>2021-05-28T16:13:57Z</time>
      </trkpt>
      <trkpt lat="42.506210" lon="2.450243">
        <ele>2207.365</ele>
        <time>2021-05-28T16:14:01Z</time>
      </trkpt>
      <trkpt lat="42.506217" lon="2.450266">
        <ele>2207.793</ele>
        <time>2021-05-28T16:14:05Z</time>
      </trkpt>
      <trkpt lat="42.506217" lon="2.450292">
        <ele>2207.994</ele>
        <time>2021-05-28T16:14:08Z</time>
      </trkpt>
      <trkpt lat="42.506235" lon="2.450304">
        <ele>2208.757</ele>
        <time>2021-05-28T16:14:12Z</time>
      </trkpt>
      <trkpt lat="42.506254" lon="2.450318">
        <ele>2209.422</ele>
        <time>2021-05-28T16:14:16Z</time>
      </trkpt>
      <trkpt lat="42.506265" lon="2.450343">
        <ele>2210.008</ele>
        <time>2021-05-28T16:14:21Z</time>
      </trkpt>
      <trkpt lat="42.506276" lon="2.450365">
        <ele>2210.556</ele>
        <time>2021-05-28T16:14:25Z</time>
      </trkpt>
      <trkpt lat="42.506289" lon="2.450386">
        <ele>2211.193</ele>
        <time>2021-05-28T16:14:29Z</time>
      </trkpt>
      <trkpt lat="42.506292" lon="2.450419">
        <ele>2211.484</ele>
        <time>2021-05-28T16:14:33Z</time>
      </trkpt>
      <trkpt lat="42.506296" lon="2.450449">
        <ele>2211.773</ele>
        <time>2021-05-28T16:14:36Z</time>
      </trkpt>
      <trkpt lat="42.506312" lon="2.450467">
        <ele>2212.360</ele>
        <time>2021-05-28T16:14:40Z</time>
      </trkpt>
      <trkpt lat="42.506329" lon="2.450487">
        <ele>2212.925</ele>
        <time>2021-05-28T16:14:44Z</time>
      </trkpt>
      <trkpt lat="42.506342" lon="2.450509">
        <ele>2213.442</ele>
        <time>2021-05-28T16:14:47Z</time>
      </trkpt>
      <trkpt lat="42.506356" lon="2.450539">
        <ele>2214.090</ele>
        <time>2021-05-28T16:14:51Z</time>
      </trkpt>
      <trkpt lat="42.506368" lon="2.450559">
        <ele>2214.471</ele>
        <time>2021-05-28T16:14:54Z</time>
      </trkpt>
      <trkpt lat="42.506374" lon="2.450587">
        <ele>2214.841</ele>
        <time>2021-05-28T16:14:57Z</time>
      </trkpt>
      <trkpt lat="42.506373" lon="2.450611">
        <ele>2215.015</ele>
        <time>2021-05-28T16:15:00Z</time>
      </trkpt>
      <trkpt lat="42.506379" lon="2.450637">
        <ele>2215.308</ele>
        <time>2021-05-28T16:15:03Z</time>
      </trkpt>
      <trkpt lat="42.506391" lon="2.450660">
        <ele>2215.884</ele>
        <time>2021-05-28T16:15:06Z</time>
      </trkpt>
      <trkpt lat="42.506407" lon="2.450676">
        <ele>2216.521</ele>
        <time>2021-05-28T16:15:09Z</time>
      </trkpt>
      <trkpt lat="42.506422" lon="2.450692">
        <ele>2217.152</ele>
        <time>2021-05-28T16:15:12Z</time>
      </trkpt>
      <trkpt lat="42.506443" lon="2.450704">
        <ele>2217.921</ele>
        <time>2021-05-28T16:15:16Z</time>
      </trkpt>
      <trkpt lat="42.506459" lon="2.450717">
        <ele>2218.578</ele>
        <time>2021-05-28T16:15:19Z</time>
      </trkpt>
      <trkpt lat="42.506471" lon="2.450740">
        <ele>2219.173</ele>
        <time>2021-05-28T16:15:23Z</time>
      </trkpt>
      <trkpt lat="42.506473" lon="2.450767">
        <ele>2219.380</ele>
        <time>2021-05-28T16:15:26Z</time>
      </trkpt>
      <trkpt lat="42.506480" lon="2.450792">
        <ele>2219.778</ele>
        <time>2021-05-28T16:15:29Z</time>
      </trkpt>
      <trkpt lat="42.506485" lon="2.450822">
        <ele>2220.076</ele>
        <time>2021-05-28T16:15:33Z</time>
      </trkpt>
      <trkpt lat="42.506488" lon="2.450849">
        <ele>2220.390</ele>
        <time>2021-05-28T16:15:35Z</time>
      </trkpt>
      <trkpt lat="42.506499" lon="2.450874">
        <ele>2220.819</ele>
        <time>2021-05-28T16:15:38Z</time>
      </trkpt>
      <trkpt lat="42.506505" lon="2.450898">
        <ele>2221.108</ele>
        <time>2021-05-28T16:15:41Z</time>
      </trkpt>
      <trkpt lat="42.506516" lon="2.450923">
        <ele>2221.684</ele>
        <time>2021-05-28T16:15:44Z</time>
      </trkpt>
      <trkpt lat="42.506536" lon="2.450934">
        <ele>2222.351</ele>
        <time>2021-05-28T16:15:47Z</time>
      </trkpt>
      <trkpt lat="42.506555" lon="2.450935">
        <ele>2222.992</ele>
        <time>2021-05-28T16:15:51Z</time>
      </trkpt>
      <trkpt lat="42.506570" lon="2.450951">
        <ele>2223.421</ele>
        <time>2021-05-28T16:15:54Z</time>
      </trkpt>
      <trkpt lat="42.506583" lon="2.450973">
        <ele>2223.948</ele>
        <time>2021-05-28T16:15:57Z</time>
      </trkpt>
      <trkpt lat="42.506598" lon="2.450996">
        <ele>2224.583</ele>
        <time>2021-05-28T16:16:01Z</time>
      </trkpt>
      <trkpt lat="42.506616" lon="2.451015">
        <ele>2225.160</ele>
        <time>2021-05-28T16:16:05Z</time>
      </trkpt>
      <trkpt lat="42.506621" lon="2.451044">
        <ele>2225.478</ele>
        <time>2021-05-28T16:16:09Z</time>
      </trkpt>
      <trkpt lat="42.506630" lon="2.451074">
        <ele>2225.868</ele>
        <time>2021-05-28T16:16:13Z</time>
      </trkpt>
      <trkpt lat="42.506636" lon="2.451099">
        <ele>2226.142</ele>
        <time>2021-05-28T16:16:16Z</time>
      </trkpt>
      <trkpt lat="42.506645" lon="2.451123">
        <ele>2226.526</ele>
        <time>2021-05-28T16:16:19Z</time>
      </trkpt>
      <trkpt lat="42.506656" lon="2.451147">
        <ele>2227.008</ele>
        <time>2021-05-28T16:16:22Z</time>
      </trkpt>
      <trkpt lat="42.506661" lon="2.451173">
        <ele>2227.323</ele>
        <time>2021-05-28T16:16:25Z</time>
      </trkpt>
      <trkpt lat="42.506666" lon="2.451205">
        <ele>2227.760</ele>
        <time>2021-05-28T16:16:28Z</time>
      </trkpt>
      <trkpt lat="42.506682" lon="2.451226">
        <ele>2228.461</ele>
        <time>2021-05-28T16:16:31Z</time>
      </trkpt>
      <trkpt lat="42.506698" lon="2.451243">
        <ele>2229.110</ele>
        <time>2021-05-28T16:16:34Z</time>
      </trkpt>
      <trkpt lat="42.506712" lon="2.451264">
        <ele>2229.817</ele>
        <time>2021-05-28T16:16:38Z</time>
      </trkpt>
      <trkpt lat="42.506722" lon="2.451290">
        <ele>2230.452</ele>
        <time>2021-05-28T16:16:41Z</time>
      </trkpt>
      <trkpt lat="42.506732" lon="2.451319">
        <ele>2230.949</ele>
        <time>2021-05-28T16:16:45Z</time>
      </trkpt>
      <trkpt lat="42.506744" lon="2.451342">
        <ele>2231.557</ele>
        <time>2021-05-28T16:16:48Z</time>
      </trkpt>
      <trkpt lat="42.506752" lon="2.451366">
        <ele>2231.993</ele>
        <time>2021-05-28T16:16:51Z</time>
      </trkpt>
      <trkpt lat="42.506765" lon="2.451388">
        <ele>2232.565</ele>
        <time>2021-05-28T16:16:55Z</time>
      </trkpt>
      <trkpt lat="42.506775" lon="2.451409">
        <ele>2233.121</ele>
        <time>2021-05-28T16:16:58Z</time>
      </trkpt>
      <trkpt lat="42.506780" lon="2.451434">
        <ele>2233.608</ele>
        <time>2021-05-28T16:17:01Z</time>
      </trkpt>
      <trkpt lat="42.506797" lon="2.451446">
        <ele>2234.366</ele>
        <time>2021-05-28T16:17:05Z</time>
      </trkpt>
      <trkpt lat="42.506816" lon="2.451438">
        <ele>2234.943</ele>
        <time>2021-05-28T16:17:10Z</time>
      </trkpt>
      <trkpt lat="42.506827" lon="2.451458">
        <ele>2235.594</ele>
        <time>2021-05-28T16:17:15Z</time>
      </trkpt>
      <trkpt lat="42.506841" lon="2.451480">
        <ele>2236.333</ele>
        <time>2021-05-28T16:17:22Z</time>
      </trkpt>
      <trkpt lat="42.506850" lon="2.451503">
        <ele>2236.850</ele>
        <time>2021-05-28T16:17:25Z</time>
      </trkpt>
      <trkpt lat="42.506869" lon="2.451513">
        <ele>2237.665</ele>
        <time>2021-05-28T16:17:30Z</time>
      </trkpt>
      <trkpt lat="42.506881" lon="2.451539">
        <ele>2238.322</ele>
        <time>2021-05-28T16:17:35Z</time>
      </trkpt>
      <trkpt lat="42.506892" lon="2.451561">
        <ele>2239.080</ele>
        <time>2021-05-28T16:17:39Z</time>
      </trkpt>
      <trkpt lat="42.506899" lon="2.451587">
        <ele>2239.511</ele>
        <time>2021-05-28T16:17:43Z</time>
      </trkpt>
      <trkpt lat="42.506915" lon="2.451600">
        <ele>2240.221</ele>
        <time>2021-05-28T16:17:47Z</time>
      </trkpt>
      <trkpt lat="42.506935" lon="2.451619">
        <ele>2241.103</ele>
        <time>2021-05-28T16:17:51Z</time>
      </trkpt>
      <trkpt lat="42.506954" lon="2.451605">
        <ele>2241.608</ele>
        <time>2021-05-28T16:17:54Z</time>
      </trkpt>
      <trkpt lat="42.506976" lon="2.451596">
        <ele>2242.268</ele>
        <time>2021-05-28T16:17:58Z</time>
      </trkpt>
      <trkpt lat="42.506998" lon="2.451605">
        <ele>2243.095</ele>
        <time>2021-05-28T16:18:02Z</time>
      </trkpt>
      <trkpt lat="42.507016" lon="2.451612">
        <ele>2243.636</ele>
        <time>2021-05-28T16:18:05Z</time>
      </trkpt>
      <trkpt lat="42.507034" lon="2.451618">
        <ele>2244.265</ele>
        <time>2021-05-28T16:18:08Z</time>
      </trkpt>
      <trkpt lat="42.507053" lon="2.451636">
        <ele>2244.952</ele>
        <time>2021-05-28T16:18:13Z</time>
      </trkpt>
      <trkpt lat="42.507071" lon="2.451648">
        <ele>2245.537</ele>
        <time>2021-05-28T16:18:16Z</time>
      </trkpt>
      <trkpt lat="42.507090" lon="2.451642">
        <ele>2246.074</ele>
        <time>2021-05-28T16:18:21Z</time>
      </trkpt>
      <trkpt lat="42.507094" lon="2.451676">
        <ele>2246.442</ele>
        <time>2021-05-28T16:18:25Z</time>
      </trkpt>
      <trkpt lat="42.507097" lon="2.451704">
        <ele>2246.714</ele>
        <time>2021-05-28T16:18:28Z</time>
      </trkpt>
      <trkpt lat="42.507106" lon="2.451729">
        <ele>2247.254</ele>
        <time>2021-05-28T16:18:31Z</time>
      </trkpt>
      <trkpt lat="42.507118" lon="2.451753">
        <ele>2247.709</ele>
        <time>2021-05-28T16:18:35Z</time>
      </trkpt>
      <trkpt lat="42.507129" lon="2.451775">
        <ele>2248.208</ele>
        <time>2021-05-28T16:18:39Z</time>
      </trkpt>
      <trkpt lat="42.507140" lon="2.451798">
        <ele>2248.748</ele>
        <time>2021-05-28T16:18:44Z</time>
      </trkpt>
      <trkpt lat="42.507158" lon="2.451819">
        <ele>2249.485</ele>
        <time>2021-05-28T16:18:48Z</time>
      </trkpt>
      <trkpt lat="42.507169" lon="2.451844">
        <ele>2249.976</ele>
        <time>2021-05-28T16:18:53Z</time>
      </trkpt>
      <trkpt lat="42.507185" lon="2.451856">
        <ele>2250.455</ele>
        <time>2021-05-28T16:18:57Z</time>
      </trkpt>
      <trkpt lat="42.507198" lon="2.451880">
        <ele>2250.922</ele>
        <time>2021-05-28T16:19:01Z</time>
      </trkpt>
      <trkpt lat="42.507215" lon="2.451896">
        <ele>2251.517</ele>
        <time>2021-05-28T16:19:07Z</time>
      </trkpt>
      <trkpt lat="42.507230" lon="2.451911">
        <ele>2252.084</ele>
        <time>2021-05-28T16:19:10Z</time>
      </trkpt>
      <trkpt lat="42.507242" lon="2.451940">
        <ele>2252.532</ele>
        <time>2021-05-28T16:19:14Z</time>
      </trkpt>
      <trkpt lat="42.507244" lon="2.451966">
        <ele>2252.894</ele>
        <time>2021-05-28T16:19:17Z</time>
      </trkpt>
      <trkpt lat="42.507244" lon="2.451998">
        <ele>2253.057</ele>
        <time>2021-05-28T16:19:21Z</time>
      </trkpt>
      <trkpt lat="42.507240" lon="2.452031">
        <ele>2253.122</ele>
        <time>2021-05-28T16:19:24Z</time>
      </trkpt>
      <trkpt lat="42.507244" lon="2.452061">
        <ele>2253.408</ele>
        <time>2021-05-28T16:19:27Z</time>
      </trkpt>
      <trkpt lat="42.507257" lon="2.452080">
        <ele>2253.966</ele>
        <time>2021-05-28T16:19:30Z</time>
      </trkpt>
      <trkpt lat="42.507267" lon="2.452107">
        <ele>2254.443</ele>
        <time>2021-05-28T16:19:35Z</time>
      </trkpt>
      <trkpt lat="42.507274" lon="2.452133">
        <ele>2254.734</ele>
        <time>2021-05-28T16:19:39Z</time>
      </trkpt>
      <trkpt lat="42.507285" lon="2.452161">
        <ele>2255.233</ele>
        <time>2021-05-28T16:19:43Z</time>
      </trkpt>
      <trkpt lat="42.507303" lon="2.452182">
        <ele>2255.820</ele>
        <time>2021-05-28T16:19:48Z</time>
      </trkpt>
      <trkpt lat="42.507311" lon="2.452205">
        <ele>2256.155</ele>
        <time>2021-05-28T16:19:52Z</time>
      </trkpt>
      <trkpt lat="42.507327" lon="2.452224">
        <ele>2256.622</ele>
        <time>2021-05-28T16:19:57Z</time>
      </trkpt>
      <trkpt lat="42.507347" lon="2.452225">
        <ele>2257.240</ele>
        <time>2021-05-28T16:20:00Z</time>
      </trkpt>
      <trkpt lat="42.507370" lon="2.452225">
        <ele>2257.754</ele>
        <time>2021-05-28T16:20:04Z</time>
      </trkpt>
      <trkpt lat="42.507387" lon="2.452234">
        <ele>2258.256</ele>
        <time>2021-05-28T16:20:09Z</time>
      </trkpt>
      <trkpt lat="42.507393" lon="2.452261">
        <ele>2258.511</ele>
        <time>2021-05-28T16:20:13Z</time>
      </trkpt>
      <trkpt lat="42.507392" lon="2.452290">
        <ele>2258.708</ele>
        <time>2021-05-28T16:20:16Z</time>
      </trkpt>
      <trkpt lat="42.507393" lon="2.452315">
        <ele>2258.812</ele>
        <time>2021-05-28T16:20:19Z</time>
      </trkpt>
      <trkpt lat="42.507400" lon="2.452343">
        <ele>2259.249</ele>
        <time>2021-05-28T16:20:22Z</time>
      </trkpt>
      <trkpt lat="42.507417" lon="2.452354">
        <ele>2259.770</ele>
        <time>2021-05-28T16:20:25Z</time>
      </trkpt>
      <trkpt lat="42.507437" lon="2.452357">
        <ele>2260.339</ele>
        <time>2021-05-28T16:20:29Z</time>
      </trkpt>
      <trkpt lat="42.507455" lon="2.452372">
        <ele>2260.976</ele>
        <time>2021-05-28T16:20:33Z</time>
      </trkpt>
      <trkpt lat="42.507467" lon="2.452397">
        <ele>2261.441</ele>
        <time>2021-05-28T16:20:37Z</time>
      </trkpt>
      <trkpt lat="42.507480" lon="2.452418">
        <ele>2261.968</ele>
        <time>2021-05-28T16:20:41Z</time>
      </trkpt>
      <trkpt lat="42.507500" lon="2.452425">
        <ele>2262.556</ele>
        <time>2021-05-28T16:20:48Z</time>
      </trkpt>
      <trkpt lat="42.507518" lon="2.452432">
        <ele>2263.061</ele>
        <time>2021-05-28T16:20:52Z</time>
      </trkpt>
      <trkpt lat="42.507532" lon="2.452451">
        <ele>2263.521</ele>
        <time>2021-05-28T16:20:56Z</time>
      </trkpt>
      <trkpt lat="42.507548" lon="2.452464">
        <ele>2264.013</ele>
        <time>2021-05-28T16:20:59Z</time>
      </trkpt>
      <trkpt lat="42.507568" lon="2.452476">
        <ele>2264.608</ele>
        <time>2021-05-28T16:21:03Z</time>
      </trkpt>
      <trkpt lat="42.507586" lon="2.452492">
        <ele>2265.153</ele>
        <time>2021-05-28T16:21:07Z</time>
      </trkpt>
      <trkpt lat="42.507592" lon="2.452520">
        <ele>2265.370</ele>
        <time>2021-05-28T16:21:11Z</time>
      </trkpt>
      <trkpt lat="42.507599" lon="2.452552">
        <ele>2265.581</ele>
        <time>2021-05-28T16:21:14Z</time>
      </trkpt>
      <trkpt lat="42.507610" lon="2.452584">
        <ele>2265.810</ele>
        <time>2021-05-28T16:21:17Z</time>
      </trkpt>
      <trkpt lat="42.507622" lon="2.452615">
        <ele>2266.117</ele>
        <time>2021-05-28T16:21:20Z</time>
      </trkpt>
      <trkpt lat="42.507627" lon="2.452642">
        <ele>2266.232</ele>
        <time>2021-05-28T16:21:23Z</time>
      </trkpt>
      <trkpt lat="42.507625" lon="2.452676">
        <ele>2266.239</ele>
        <time>2021-05-28T16:21:26Z</time>
      </trkpt>
      <trkpt lat="42.507620" lon="2.452700">
        <ele>2266.077</ele>
        <time>2021-05-28T16:21:28Z</time>
      </trkpt>
      <trkpt lat="42.507615" lon="2.452737">
        <ele>2265.987</ele>
        <time>2021-05-28T16:21:31Z</time>
      </trkpt>
      <trkpt lat="42.507608" lon="2.452762">
        <ele>2265.742</ele>
        <time>2021-05-28T16:21:33Z</time>
      </trkpt>
      <trkpt lat="42.507606" lon="2.452789">
        <ele>2265.526</ele>
        <time>2021-05-28T16:21:35Z</time>
      </trkpt>
      <trkpt lat="42.507605" lon="2.452815">
        <ele>2265.208</ele>
        <time>2021-05-28T16:21:37Z</time>
      </trkpt>
      <trkpt lat="42.507610" lon="2.452849">
        <ele>2264.985</ele>
        <time>2021-05-28T16:21:40Z</time>
      </trkpt>
      <trkpt lat="42.507622" lon="2.452870">
        <ele>2264.922</ele>
        <time>2021-05-28T16:21:42Z</time>
      </trkpt>
      <trkpt lat="42.507641" lon="2.452889">
        <ele>2265.183</ele>
        <time>2021-05-28T16:21:45Z</time>
      </trkpt>
      <trkpt lat="42.507654" lon="2.452914">
        <ele>2265.142</ele>
        <time>2021-05-28T16:21:48Z</time>
      </trkpt>
      <trkpt lat="42.507663" lon="2.452937">
        <ele>2265.179</ele>
        <time>2021-05-28T16:21:50Z</time>
      </trkpt>
      <trkpt lat="42.507673" lon="2.452961">
        <ele>2265.084</ele>
        <time>2021-05-28T16:21:52Z</time>
      </trkpt>
      <trkpt lat="42.507685" lon="2.452991">
        <ele>2264.891</ele>
        <time>2021-05-28T16:21:55Z</time>
      </trkpt>
      <trkpt lat="42.507696" lon="2.453016">
        <ele>2264.869</ele>
        <time>2021-05-28T16:21:58Z</time>
      </trkpt>
      <trkpt lat="42.507714" lon="2.453030">
        <ele>2265.012</ele>
        <time>2021-05-28T16:22:00Z</time>
      </trkpt>
      <trkpt lat="42.507732" lon="2.453044">
        <ele>2265.232</ele>
        <time>2021-05-28T16:22:04Z</time>
      </trkpt>
      <trkpt lat="42.507748" lon="2.453057">
        <ele>2265.305</ele>
        <time>2021-05-28T16:22:07Z</time>
      </trkpt>
      <trkpt lat="42.507764" lon="2.453075">
        <ele>2265.508</ele>
        <time>2021-05-28T16:22:13Z</time>
      </trkpt>
      <trkpt lat="42.507771" lon="2.453099">
        <ele>2265.488</ele>
        <time>2021-05-28T16:22:16Z</time>
      </trkpt>
      <trkpt lat="42.507798" lon="2.453120">
        <ele>2266.085</ele>
        <time>2021-05-28T16:22:20Z</time>
      </trkpt>
      <trkpt lat="42.507822" lon="2.453133">
        <ele>2266.746</ele>
        <time>2021-05-28T16:22:23Z</time>
      </trkpt>
      <trkpt lat="42.507840" lon="2.453139">
        <ele>2267.355</ele>
        <time>2021-05-28T16:22:25Z</time>
      </trkpt>
      <trkpt lat="42.507865" lon="2.453138">
        <ele>2268.232</ele>
        <time>2021-05-28T16:22:28Z</time>
      </trkpt>
      <trkpt lat="42.507886" lon="2.453156">
        <ele>2268.777</ele>
        <time>2021-05-28T16:22:31Z</time>
      </trkpt>
      <trkpt lat="42.507902" lon="2.453170">
        <ele>2269.164</ele>
        <time>2021-05-28T16:22:33Z</time>
      </trkpt>
      <trkpt lat="42.507924" lon="2.453191">
        <ele>2269.532</ele>
        <time>2021-05-28T16:22:36Z</time>
      </trkpt>
      <trkpt lat="42.507940" lon="2.453204">
        <ele>2269.954</ele>
        <time>2021-05-28T16:23:01Z</time>
      </trkpt>
      <trkpt lat="42.507948" lon="2.453228">
        <ele>2269.956</ele>
        <time>2021-05-28T16:23:04Z</time>
      </trkpt>
      <trkpt lat="42.507966" lon="2.453247">
        <ele>2270.211</ele>
        <time>2021-05-28T16:23:13Z</time>
      </trkpt>
      <trkpt lat="42.507977" lon="2.453270">
        <ele>2270.308</ele>
        <time>2021-05-28T16:23:15Z</time>
      </trkpt>
      <trkpt lat="42.507988" lon="2.453295">
        <ele>2270.372</ele>
        <time>2021-05-28T16:23:17Z</time>
      </trkpt>
      <trkpt lat="42.508005" lon="2.453312">
        <ele>2270.729</ele>
        <time>2021-05-28T16:23:19Z</time>
      </trkpt>
      <trkpt lat="42.508018" lon="2.453330">
        <ele>2270.890</ele>
        <time>2021-05-28T16:23:21Z</time>
      </trkpt>
      <trkpt lat="42.508032" lon="2.453348">
        <ele>2271.329</ele>
        <time>2021-05-28T16:23:23Z</time>
      </trkpt>
      <trkpt lat="42.508044" lon="2.453371">
        <ele>2271.776</ele>
        <time>2021-05-28T16:23:25Z</time>
      </trkpt>
      <trkpt lat="42.508056" lon="2.453394">
        <ele>2272.051</ele>
        <time>2021-05-28T16:23:27Z</time>
      </trkpt>
      <trkpt lat="42.508064" lon="2.453419">
        <ele>2272.468</ele>
        <time>2021-05-28T16:23:29Z</time>
      </trkpt>
      <trkpt lat="42.508077" lon="2.453438">
        <ele>2273.046</ele>
        <time>2021-05-28T16:23:31Z</time>
      </trkpt>
      <trkpt lat="42.508094" lon="2.453457">
        <ele>2273.825</ele>
        <time>2021-05-28T16:23:33Z</time>
      </trkpt>
      <trkpt lat="42.508110" lon="2.453484">
        <ele>2274.426</ele>
        <time>2021-05-28T16:23:36Z</time>
      </trkpt>
      <trkpt lat="42.508123" lon="2.453507">
        <ele>2274.908</ele>
        <time>2021-05-28T16:23:38Z</time>
      </trkpt>
      <trkpt lat="42.508140" lon="2.453527">
        <ele>2275.608</ele>
        <time>2021-05-28T16:23:41Z</time>
      </trkpt>
      <trkpt lat="42.508153" lon="2.453554">
        <ele>2276.159</ele>
        <time>2021-05-28T16:23:44Z</time>
      </trkpt>
      <trkpt lat="42.508166" lon="2.453577">
        <ele>2276.556</ele>
        <time>2021-05-28T16:23:46Z</time>
      </trkpt>
      <trkpt lat="42.508178" lon="2.453597">
        <ele>2276.967</ele>
        <time>2021-05-28T16:23:48Z</time>
      </trkpt>
      <trkpt lat="42.508192" lon="2.453626">
        <ele>2277.546</ele>
        <time>2021-05-28T16:23:51Z</time>
      </trkpt>
      <trkpt lat="42.508206" lon="2.453652">
        <ele>2278.233</ele>
        <time>2021-05-28T16:23:53Z</time>
      </trkpt>
      <trkpt lat="42.508212" lon="2.453679">
        <ele>2278.698</ele>
        <time>2021-05-28T16:23:55Z</time>
      </trkpt>
      <trkpt lat="42.508217" lon="2.453710">
        <ele>2278.925</ele>
        <time>2021-05-28T16:23:57Z</time>
      </trkpt>
      <trkpt lat="42.508223" lon="2.453736">
        <ele>2279.213</ele>
        <time>2021-05-28T16:23:59Z</time>
      </trkpt>
      <trkpt lat="42.508230" lon="2.453773">
        <ele>2279.595</ele>
        <time>2021-05-28T16:24:02Z</time>
      </trkpt>
      <trkpt lat="42.508239" lon="2.453796">
        <ele>2279.749</ele>
        <time>2021-05-28T16:24:04Z</time>
      </trkpt>
      <trkpt lat="42.508248" lon="2.453821">
        <ele>2280.023</ele>
        <time>2021-05-28T16:24:06Z</time>
      </trkpt>
      <trkpt lat="42.508258" lon="2.453848">
        <ele>2280.208</ele>
        <time>2021-05-28T16:24:08Z</time>
      </trkpt>
      <trkpt lat="42.508272" lon="2.453867">
        <ele>2280.476</ele>
        <time>2021-05-28T16:24:10Z</time>
      </trkpt>
      <trkpt lat="42.508286" lon="2.453886">
        <ele>2280.563</ele>
        <time>2021-05-28T16:24:12Z</time>
      </trkpt>
      <trkpt lat="42.508298" lon="2.453905">
        <ele>2280.844</ele>
        <time>2021-05-28T16:24:14Z</time>
      </trkpt>
      <trkpt lat="42.508312" lon="2.453932">
        <ele>2281.233</ele>
        <time>2021-05-28T16:24:17Z</time>
      </trkpt>
      <trkpt lat="42.508335" lon="2.453951">
        <ele>2281.710</ele>
        <time>2021-05-28T16:24:21Z</time>
      </trkpt>
      <trkpt lat="42.508341" lon="2.453981">
        <ele>2282.395</ele>
        <time>2021-05-28T16:24:26Z</time>
      </trkpt>
      <trkpt lat="42.508337" lon="2.454007">
        <ele>2282.412</ele>
        <time>2021-05-28T16:24:28Z</time>
      </trkpt>
      <trkpt lat="42.508355" lon="2.453999">
        <ele>2282.920</ele>
        <time>2021-05-28T16:24:52Z</time>
      </trkpt>
      <trkpt lat="42.508364" lon="2.454021">
        <ele>2283.472</ele>
        <time>2021-05-28T16:25:14Z</time>
      </trkpt>
      <trkpt lat="42.508381" lon="2.454003">
        <ele>2283.813</ele>
        <time>2021-05-28T16:25:52Z</time>
      </trkpt>
      <trkpt lat="42.508381" lon="2.453973">
        <ele>2283.614</ele>
        <time>2021-05-28T16:25:55Z</time>
      </trkpt>
      <trkpt lat="42.508363" lon="2.453964">
        <ele>2282.908</ele>
        <time>2021-05-28T16:38:57Z</time>
      </trkpt>
      <trkpt lat="42.508341" lon="2.453963">
        <ele>2282.194</ele>
        <time>2021-05-28T16:40:58Z</time>
      </trkpt>
      <trkpt lat="42.508340" lon="2.453995">
        <ele>2282.491</ele>
        <time>2021-05-28T16:41:01Z</time>
      </trkpt>
      <trkpt lat="42.508325" lon="2.454008">
        <ele>2282.252</ele>
        <time>2021-05-28T16:41:04Z</time>
      </trkpt>
      <trkpt lat="42.508306" lon="2.454014">
        <ele>2282.111</ele>
        <time>2021-05-28T16:41:06Z</time>
      </trkpt>
      <trkpt lat="42.508282" lon="2.454003">
        <ele>2281.828</ele>
        <time>2021-05-28T16:41:09Z</time>
      </trkpt>
      <trkpt lat="42.508262" lon="2.453999">
        <ele>2281.593</ele>
        <time>2021-05-28T16:41:11Z</time>
      </trkpt>
      <trkpt lat="42.508242" lon="2.453994">
        <ele>2281.370</ele>
        <time>2021-05-28T16:41:13Z</time>
      </trkpt>
      <trkpt lat="42.508219" lon="2.453993">
        <ele>2281.048</ele>
        <time>2021-05-28T16:41:15Z</time>
      </trkpt>
      <trkpt lat="42.508200" lon="2.453987">
        <ele>2280.868</ele>
        <time>2021-05-28T16:41:17Z</time>
      </trkpt>
      <trkpt lat="42.508173" lon="2.453969">
        <ele>2280.342</ele>
        <time>2021-05-28T16:41:19Z</time>
      </trkpt>
      <trkpt lat="42.508148" lon="2.453945">
        <ele>2279.726</ele>
        <time>2021-05-28T16:41:21Z</time>
      </trkpt>
      <trkpt lat="42.508129" lon="2.453921">
        <ele>2279.208</ele>
        <time>2021-05-28T16:41:23Z</time>
      </trkpt>
      <trkpt lat="42.508104" lon="2.453902">
        <ele>2278.713</ele>
        <time>2021-05-28T16:41:25Z</time>
      </trkpt>
      <trkpt lat="42.508088" lon="2.453888">
        <ele>2278.310</ele>
        <time>2021-05-28T16:41:27Z</time>
      </trkpt>
      <trkpt lat="42.508073" lon="2.453868">
        <ele>2277.811</ele>
        <time>2021-05-28T16:41:29Z</time>
      </trkpt>
      <trkpt lat="42.508054" lon="2.453861">
        <ele>2277.480</ele>
        <time>2021-05-28T16:41:31Z</time>
      </trkpt>
      <trkpt lat="42.508034" lon="2.453865">
        <ele>2277.367</ele>
        <time>2021-05-28T16:41:33Z</time>
      </trkpt>
      <trkpt lat="42.508019" lon="2.453890">
        <ele>2277.612</ele>
        <time>2021-05-28T16:41:35Z</time>
      </trkpt>
      <trkpt lat="42.508003" lon="2.453914">
        <ele>2277.869</ele>
        <time>2021-05-28T16:41:37Z</time>
      </trkpt>
      <trkpt lat="42.507987" lon="2.453937">
        <ele>2278.017</ele>
        <time>2021-05-28T16:41:39Z</time>
      </trkpt>
      <trkpt lat="42.507976" lon="2.453959">
        <ele>2278.223</ele>
        <time>2021-05-28T16:41:41Z</time>
      </trkpt>
      <trkpt lat="42.507961" lon="2.453984">
        <ele>2278.583</ele>
        <time>2021-05-28T16:41:43Z</time>
      </trkpt>
      <trkpt lat="42.507950" lon="2.454006">
        <ele>2278.711</ele>
        <time>2021-05-28T16:41:45Z</time>
      </trkpt>
      <trkpt lat="42.507932" lon="2.454031">
        <ele>2278.908</ele>
        <time>2021-05-28T16:41:48Z</time>
      </trkpt>
      <trkpt lat="42.507919" lon="2.454049">
        <ele>2279.169</ele>
        <time>2021-05-28T16:41:50Z</time>
      </trkpt>
      <trkpt lat="42.507909" lon="2.454079">
        <ele>2279.526</ele>
        <time>2021-05-28T16:41:53Z</time>
      </trkpt>
      <trkpt lat="42.507892" lon="2.454102">
        <ele>2279.897</ele>
        <time>2021-05-28T16:41:56Z</time>
      </trkpt>
      <trkpt lat="42.507878" lon="2.454131">
        <ele>2280.186</ele>
        <time>2021-05-28T16:41:59Z</time>
      </trkpt>
      <trkpt lat="42.507870" lon="2.454156">
        <ele>2280.533</ele>
        <time>2021-05-28T16:42:01Z</time>
      </trkpt>
      <trkpt lat="42.507858" lon="2.454181">
        <ele>2280.768</ele>
        <time>2021-05-28T16:42:04Z</time>
      </trkpt>
      <trkpt lat="42.507848" lon="2.454207">
        <ele>2281.085</ele>
        <time>2021-05-28T16:42:06Z</time>
      </trkpt>
      <trkpt lat="42.507841" lon="2.454232">
        <ele>2281.233</ele>
        <time>2021-05-28T16:42:08Z</time>
      </trkpt>
      <trkpt lat="42.507829" lon="2.454252">
        <ele>2281.347</ele>
        <time>2021-05-28T16:42:10Z</time>
      </trkpt>
      <trkpt lat="42.507815" lon="2.454274">
        <ele>2281.529</ele>
        <time>2021-05-28T16:42:12Z</time>
      </trkpt>
      <trkpt lat="42.507805" lon="2.454301">
        <ele>2281.721</ele>
        <time>2021-05-28T16:42:15Z</time>
      </trkpt>
      <trkpt lat="42.507799" lon="2.454333">
        <ele>2282.008</ele>
        <time>2021-05-28T16:42:18Z</time>
      </trkpt>
      <trkpt lat="42.507793" lon="2.454358">
        <ele>2282.271</ele>
        <time>2021-05-28T16:42:21Z</time>
      </trkpt>
      <trkpt lat="42.507784" lon="2.454385">
        <ele>2282.448</ele>
        <time>2021-05-28T16:42:29Z</time>
      </trkpt>
      <trkpt lat="42.507778" lon="2.454411">
        <ele>2282.649</ele>
        <time>2021-05-28T16:42:32Z</time>
      </trkpt>
      <trkpt lat="42.507768" lon="2.454447">
        <ele>2282.958</ele>
        <time>2021-05-28T16:42:35Z</time>
      </trkpt>
      <trkpt lat="42.507757" lon="2.454476">
        <ele>2283.165</ele>
        <time>2021-05-28T16:42:38Z</time>
      </trkpt>
      <trkpt lat="42.507757" lon="2.454503">
        <ele>2283.380</ele>
        <time>2021-05-28T16:42:41Z</time>
      </trkpt>
      <trkpt lat="42.507750" lon="2.454541">
        <ele>2283.737</ele>
        <time>2021-05-28T16:42:45Z</time>
      </trkpt>
      <trkpt lat="42.507744" lon="2.454571">
        <ele>2283.945</ele>
        <time>2021-05-28T16:42:47Z</time>
      </trkpt>
      <trkpt lat="42.507736" lon="2.454596">
        <ele>2284.145</ele>
        <time>2021-05-28T16:42:49Z</time>
      </trkpt>
      <trkpt lat="42.507730" lon="2.454620">
        <ele>2284.347</ele>
        <time>2021-05-28T16:42:51Z</time>
      </trkpt>
      <trkpt lat="42.507725" lon="2.454654">
        <ele>2284.611</ele>
        <time>2021-05-28T16:42:54Z</time>
      </trkpt>
      <trkpt lat="42.507717" lon="2.454682">
        <ele>2284.908</ele>
        <time>2021-05-28T16:42:56Z</time>
      </trkpt>
      <trkpt lat="42.507710" lon="2.454713">
        <ele>2285.241</ele>
        <time>2021-05-28T16:42:58Z</time>
      </trkpt>
      <trkpt lat="42.507702" lon="2.454741">
        <ele>2285.568</ele>
        <time>2021-05-28T16:43:00Z</time>
      </trkpt>
      <trkpt lat="42.507695" lon="2.454767">
        <ele>2285.849</ele>
        <time>2021-05-28T16:43:02Z</time>
      </trkpt>
      <trkpt lat="42.507690" lon="2.454791">
        <ele>2286.058</ele>
        <time>2021-05-28T16:43:04Z</time>
      </trkpt>
      <trkpt lat="42.507682" lon="2.454822">
        <ele>2286.465</ele>
        <time>2021-05-28T16:43:07Z</time>
      </trkpt>
      <trkpt lat="42.507682" lon="2.454847">
        <ele>2286.880</ele>
        <time>2021-05-28T16:43:10Z</time>
      </trkpt>
      <trkpt lat="42.507669" lon="2.454878">
        <ele>2287.167</ele>
        <time>2021-05-28T16:43:28Z</time>
      </trkpt>
      <trkpt lat="42.507660" lon="2.454909">
        <ele>2287.415</ele>
        <time>2021-05-28T16:43:39Z</time>
      </trkpt>
      <trkpt lat="42.507653" lon="2.454938">
        <ele>2287.833</ele>
        <time>2021-05-28T16:43:42Z</time>
      </trkpt>
      <trkpt lat="42.507647" lon="2.454962">
        <ele>2288.023</ele>
        <time>2021-05-28T16:43:44Z</time>
      </trkpt>
      <trkpt lat="42.507637" lon="2.455000">
        <ele>2288.515</ele>
        <time>2021-05-28T16:43:47Z</time>
      </trkpt>
      <trkpt lat="42.507630" lon="2.455024">
        <ele>2288.808</ele>
        <time>2021-05-28T16:43:49Z</time>
      </trkpt>
      <trkpt lat="42.507622" lon="2.455049">
        <ele>2289.050</ele>
        <time>2021-05-28T16:43:51Z</time>
      </trkpt>
      <trkpt lat="42.507616" lon="2.455075">
        <ele>2289.327</ele>
        <time>2021-05-28T16:43:53Z</time>
      </trkpt>
      <trkpt lat="42.507608" lon="2.455102">
        <ele>2289.668</ele>
        <time>2021-05-28T16:43:55Z</time>
      </trkpt>
      <trkpt lat="42.507597" lon="2.455123">
        <ele>2289.817</ele>
        <time>2021-05-28T16:43:57Z</time>
      </trkpt>
      <trkpt lat="42.507580" lon="2.455139">
        <ele>2289.914</ele>
        <time>2021-05-28T16:43:59Z</time>
      </trkpt>
      <trkpt lat="42.507562" lon="2.455152">
        <ele>2289.939</ele>
        <time>2021-05-28T16:44:01Z</time>
      </trkpt>
      <trkpt lat="42.507545" lon="2.455167">
        <ele>2289.946</ele>
        <time>2021-05-28T16:44:03Z</time>
      </trkpt>
      <trkpt lat="42.507524" lon="2.455183">
        <ele>2289.994</ele>
        <time>2021-05-28T16:44:05Z</time>
      </trkpt>
      <trkpt lat="42.507506" lon="2.455201">
        <ele>2290.028</ele>
        <time>2021-05-28T16:44:07Z</time>
      </trkpt>
      <trkpt lat="42.507488" lon="2.455229">
        <ele>2290.089</ele>
        <time>2021-05-28T16:44:09Z</time>
      </trkpt>
      <trkpt lat="42.507464" lon="2.455257">
        <ele>2289.917</ele>
        <time>2021-05-28T16:44:11Z</time>
      </trkpt>
      <trkpt lat="42.507449" lon="2.455280">
        <ele>2289.908</ele>
        <time>2021-05-28T16:44:13Z</time>
      </trkpt>
      <trkpt lat="42.507435" lon="2.455298">
        <ele>2289.829</ele>
        <time>2021-05-28T16:44:15Z</time>
      </trkpt>
      <trkpt lat="42.507420" lon="2.455323">
        <ele>2289.696</ele>
        <time>2021-05-28T16:44:17Z</time>
      </trkpt>
      <trkpt lat="42.507411" lon="2.455344">
        <ele>2289.627</ele>
        <time>2021-05-28T16:44:19Z</time>
      </trkpt>
      <trkpt lat="42.507404" lon="2.455370">
        <ele>2289.776</ele>
        <time>2021-05-28T16:44:21Z</time>
      </trkpt>
      <trkpt lat="42.507402" lon="2.455401">
        <ele>2289.913</ele>
        <time>2021-05-28T16:44:23Z</time>
      </trkpt>
      <trkpt lat="42.507398" lon="2.455427">
        <ele>2290.198</ele>
        <time>2021-05-28T16:44:25Z</time>
      </trkpt>
      <trkpt lat="42.507394" lon="2.455460">
        <ele>2290.315</ele>
        <time>2021-05-28T16:44:27Z</time>
      </trkpt>
      <trkpt lat="42.507400" lon="2.455487">
        <ele>2290.613</ele>
        <time>2021-05-28T16:44:29Z</time>
      </trkpt>
      <trkpt lat="42.507402" lon="2.455515">
        <ele>2290.968</ele>
        <time>2021-05-28T16:44:31Z</time>
      </trkpt>
      <trkpt lat="42.507402" lon="2.455542">
        <ele>2291.142</ele>
        <time>2021-05-28T16:44:33Z</time>
      </trkpt>
      <trkpt lat="42.507401" lon="2.455575">
        <ele>2291.426</ele>
        <time>2021-05-28T16:44:35Z</time>
      </trkpt>
      <trkpt lat="42.507409" lon="2.455601">
        <ele>2291.808</ele>
        <time>2021-05-28T16:44:37Z</time>
      </trkpt>
      <trkpt lat="42.507418" lon="2.455627">
        <ele>2292.213</ele>
        <time>2021-05-28T16:44:39Z</time>
      </trkpt>
      <trkpt lat="42.507429" lon="2.455652">
        <ele>2292.710</ele>
        <time>2021-05-28T16:44:41Z</time>
      </trkpt>
      <trkpt lat="42.507436" lon="2.455677">
        <ele>2293.181</ele>
        <time>2021-05-28T16:44:43Z</time>
      </trkpt>
      <trkpt lat="42.507445" lon="2.455703">
        <ele>2293.560</ele>
        <time>2021-05-28T16:44:45Z</time>
      </trkpt>
      <trkpt lat="42.507455" lon="2.455729">
        <ele>2294.047</ele>
        <time>2021-05-28T16:44:47Z</time>
      </trkpt>
      <trkpt lat="42.507457" lon="2.455756">
        <ele>2294.392</ele>
        <time>2021-05-28T16:44:49Z</time>
      </trkpt>
      <trkpt lat="42.507460" lon="2.455787">
        <ele>2294.719</ele>
        <time>2021-05-28T16:44:51Z</time>
      </trkpt>
      <trkpt lat="42.507468" lon="2.455815">
        <ele>2295.117</ele>
        <time>2021-05-28T16:44:53Z</time>
      </trkpt>
      <trkpt lat="42.507474" lon="2.455842">
        <ele>2295.543</ele>
        <time>2021-05-28T16:44:55Z</time>
      </trkpt>
      <trkpt lat="42.507480" lon="2.455873">
        <ele>2296.064</ele>
        <time>2021-05-28T16:44:57Z</time>
      </trkpt>
      <trkpt lat="42.507489" lon="2.455898">
        <ele>2296.510</ele>
        <time>2021-05-28T16:44:59Z</time>
      </trkpt>
      <trkpt lat="42.507494" lon="2.455928">
        <ele>2296.908</ele>
        <time>2021-05-28T16:45:01Z</time>
      </trkpt>
      <trkpt lat="42.507503" lon="2.455952">
        <ele>2297.321</ele>
        <time>2021-05-28T16:45:03Z</time>
      </trkpt>
      <trkpt lat="42.507513" lon="2.455976">
        <ele>2297.838</ele>
        <time>2021-05-28T16:45:05Z</time>
      </trkpt>
      <trkpt lat="42.507518" lon="2.456000">
        <ele>2298.289</ele>
        <time>2021-05-28T16:45:07Z</time>
      </trkpt>
      <trkpt lat="42.507525" lon="2.456024">
        <ele>2298.658</ele>
        <time>2021-05-28T16:45:09Z</time>
      </trkpt>
      <trkpt lat="42.507531" lon="2.456057">
        <ele>2299.175</ele>
        <time>2021-05-28T16:45:12Z</time>
      </trkpt>
      <trkpt lat="42.507537" lon="2.456088">
        <ele>2299.510</ele>
        <time>2021-05-28T16:45:14Z</time>
      </trkpt>
      <trkpt lat="42.507544" lon="2.456117">
        <ele>2300.037</ele>
        <time>2021-05-28T16:45:17Z</time>
      </trkpt>
      <trkpt lat="42.507546" lon="2.456145">
        <ele>2300.335</ele>
        <time>2021-05-28T16:45:19Z</time>
      </trkpt>
      <trkpt lat="42.507549" lon="2.456182">
        <ele>2300.689</ele>
        <time>2021-05-28T16:45:22Z</time>
      </trkpt>
      <trkpt lat="42.507553" lon="2.456209">
        <ele>2300.906</ele>
        <time>2021-05-28T16:45:24Z</time>
      </trkpt>
      <trkpt lat="42.507554" lon="2.456237">
        <ele>2301.226</ele>
        <time>2021-05-28T16:45:26Z</time>
      </trkpt>
      <trkpt lat="42.507557" lon="2.456262">
        <ele>2301.408</ele>
        <time>2021-05-28T16:45:28Z</time>
      </trkpt>
      <trkpt lat="42.507559" lon="2.456298">
        <ele>2301.835</ele>
        <time>2021-05-28T16:45:31Z</time>
      </trkpt>
      <trkpt lat="42.507568" lon="2.456321">
        <ele>2302.222</ele>
        <time>2021-05-28T16:45:33Z</time>
      </trkpt>
      <trkpt lat="42.507576" lon="2.456350">
        <ele>2302.663</ele>
        <time>2021-05-28T16:45:36Z</time>
      </trkpt>
      <trkpt lat="42.507577" lon="2.456382">
        <ele>2302.952</ele>
        <time>2021-05-28T16:45:40Z</time>
      </trkpt>
      <trkpt lat="42.507576" lon="2.456420">
        <ele>2303.289</ele>
        <time>2021-05-28T16:45:43Z</time>
      </trkpt>
      <trkpt lat="42.507578" lon="2.456452">
        <ele>2303.674</ele>
        <time>2021-05-28T16:45:45Z</time>
      </trkpt>
      <trkpt lat="42.507566" lon="2.456485">
        <ele>2303.631</ele>
        <time>2021-05-28T16:45:49Z</time>
      </trkpt>
      <trkpt lat="42.507565" lon="2.456514">
        <ele>2303.949</ele>
        <time>2021-05-28T16:45:51Z</time>
      </trkpt>
      <trkpt lat="42.507565" lon="2.456540">
        <ele>2304.146</ele>
        <time>2021-05-28T16:45:53Z</time>
      </trkpt>
      <trkpt lat="42.507564" lon="2.456566">
        <ele>2304.488</ele>
        <time>2021-05-28T16:45:55Z</time>
      </trkpt>
      <trkpt lat="42.507573" lon="2.456599">
        <ele>2304.916</ele>
        <time>2021-05-28T16:45:58Z</time>
      </trkpt>
      <trkpt lat="42.507581" lon="2.456629">
        <ele>2305.408</ele>
        <time>2021-05-28T16:46:01Z</time>
      </trkpt>
      <trkpt lat="42.507588" lon="2.456658">
        <ele>2305.821</ele>
        <time>2021-05-28T16:46:04Z</time>
      </trkpt>
      <trkpt lat="42.507586" lon="2.456687">
        <ele>2306.028</ele>
        <time>2021-05-28T16:46:07Z</time>
      </trkpt>
      <trkpt lat="42.507584" lon="2.456714">
        <ele>2306.119</ele>
        <time>2021-05-28T16:46:09Z</time>
      </trkpt>
      <trkpt lat="42.507584" lon="2.456739">
        <ele>2306.238</ele>
        <time>2021-05-28T16:46:11Z</time>
      </trkpt>
      <trkpt lat="42.507588" lon="2.456773">
        <ele>2306.435</ele>
        <time>2021-05-28T16:46:14Z</time>
      </trkpt>
      <trkpt lat="42.507599" lon="2.456801">
        <ele>2306.840</ele>
        <time>2021-05-28T16:46:17Z</time>
      </trkpt>
      <trkpt lat="42.507610" lon="2.456828">
        <ele>2307.177</ele>
        <time>2021-05-28T16:46:20Z</time>
      </trkpt>
      <trkpt lat="42.507636" lon="2.456825">
        <ele>2307.525</ele>
        <time>2021-05-28T16:46:23Z</time>
      </trkpt>
      <trkpt lat="42.507661" lon="2.456802">
        <ele>2307.942</ele>
        <time>2021-05-28T16:46:26Z</time>
      </trkpt>
      <trkpt lat="42.507672" lon="2.456774">
        <ele>2308.022</ele>
        <time>2021-05-28T16:46:28Z</time>
      </trkpt>
      <trkpt lat="42.507684" lon="2.456750">
        <ele>2308.214</ele>
        <time>2021-05-28T16:46:30Z</time>
      </trkpt>
      <trkpt lat="42.507697" lon="2.456723">
        <ele>2308.408</ele>
        <time>2021-05-28T16:46:32Z</time>
      </trkpt>
      <trkpt lat="42.507711" lon="2.456699">
        <ele>2308.661</ele>
        <time>2021-05-28T16:46:34Z</time>
      </trkpt>
      <trkpt lat="42.507725" lon="2.456673">
        <ele>2308.998</ele>
        <time>2021-05-28T16:46:36Z</time>
      </trkpt>
      <trkpt lat="42.507739" lon="2.456650">
        <ele>2309.099</ele>
        <time>2021-05-28T16:46:38Z</time>
      </trkpt>
      <trkpt lat="42.507752" lon="2.456631">
        <ele>2309.238</ele>
        <time>2021-05-28T16:46:40Z</time>
      </trkpt>
      <trkpt lat="42.507760" lon="2.456608">
        <ele>2309.215</ele>
        <time>2021-05-28T16:47:06Z</time>
      </trkpt>
      <trkpt lat="42.507777" lon="2.456584">
        <ele>2309.440</ele>
        <time>2021-05-28T16:47:09Z</time>
      </trkpt>
      <trkpt lat="42.507802" lon="2.456567">
        <ele>2309.587</ele>
        <time>2021-05-28T16:47:12Z</time>
      </trkpt>
      <trkpt lat="42.507821" lon="2.456553">
        <ele>2309.585</ele>
        <time>2021-05-28T16:47:14Z</time>
      </trkpt>
      <trkpt lat="42.507846" lon="2.456536">
        <ele>2309.674</ele>
        <time>2021-05-28T16:47:16Z</time>
      </trkpt>
      <trkpt lat="42.507871" lon="2.456518">
        <ele>2309.656</ele>
        <time>2021-05-28T16:47:18Z</time>
      </trkpt>
      <trkpt lat="42.507895" lon="2.456501">
        <ele>2309.721</ele>
        <time>2021-05-28T16:47:20Z</time>
      </trkpt>
      <trkpt lat="42.507923" lon="2.456486">
        <ele>2309.708</ele>
        <time>2021-05-28T16:47:22Z</time>
      </trkpt>
      <trkpt lat="42.507941" lon="2.456477">
        <ele>2309.834</ele>
        <time>2021-05-28T16:47:23Z</time>
      </trkpt>
      <trkpt lat="42.507963" lon="2.456470">
        <ele>2309.941</ele>
        <time>2021-05-28T16:47:24Z</time>
      </trkpt>
      <trkpt lat="42.507979" lon="2.456465">
        <ele>2310.022</ele>
        <time>2021-05-28T16:47:25Z</time>
      </trkpt>
      <trkpt lat="42.507998" lon="2.456460">
        <ele>2310.181</ele>
        <time>2021-05-28T16:47:26Z</time>
      </trkpt>
      <trkpt lat="42.508017" lon="2.456454">
        <ele>2310.258</ele>
        <time>2021-05-28T16:47:27Z</time>
      </trkpt>
      <trkpt lat="42.508053" lon="2.456443">
        <ele>2310.433</ele>
        <time>2021-05-28T16:47:29Z</time>
      </trkpt>
      <trkpt lat="42.508072" lon="2.456439">
        <ele>2310.520</ele>
        <time>2021-05-28T16:47:30Z</time>
      </trkpt>
      <trkpt lat="42.508092" lon="2.456438">
        <ele>2310.668</ele>
        <time>2021-05-28T16:47:31Z</time>
      </trkpt>
      <trkpt lat="42.508127" lon="2.456436">
        <ele>2310.928</ele>
        <time>2021-05-28T16:47:33Z</time>
      </trkpt>
      <trkpt lat="42.508161" lon="2.456441">
        <ele>2311.189</ele>
        <time>2021-05-28T16:47:35Z</time>
      </trkpt>
      <trkpt lat="42.508193" lon="2.456452">
        <ele>2311.417</ele>
        <time>2021-05-28T16:47:37Z</time>
      </trkpt>
      <trkpt lat="42.508218" lon="2.456464">
        <ele>2311.708</ele>
        <time>2021-05-28T16:47:39Z</time>
      </trkpt>
      <trkpt lat="42.508236" lon="2.456471">
        <ele>2311.989</ele>
        <time>2021-05-28T16:47:41Z</time>
      </trkpt>
      <trkpt lat="42.508253" lon="2.456491">
        <ele>2312.226</ele>
        <time>2021-05-28T16:47:44Z</time>
      </trkpt>
      <trkpt lat="42.508268" lon="2.456517">
        <ele>2312.567</ele>
        <time>2021-05-28T16:47:47Z</time>
      </trkpt>
      <trkpt lat="42.508288" lon="2.456529">
        <ele>2312.716</ele>
        <time>2021-05-28T16:47:50Z</time>
      </trkpt>
      <trkpt lat="42.508310" lon="2.456547">
        <ele>2313.023</ele>
        <time>2021-05-28T16:47:53Z</time>
      </trkpt>
      <trkpt lat="42.508325" lon="2.456563">
        <ele>2313.268</ele>
        <time>2021-05-28T16:47:55Z</time>
      </trkpt>
      <trkpt lat="42.508341" lon="2.456579">
        <ele>2313.455</ele>
        <time>2021-05-28T16:47:57Z</time>
      </trkpt>
      <trkpt lat="42.508361" lon="2.456593">
        <ele>2313.653</ele>
        <time>2021-05-28T16:47:59Z</time>
      </trkpt>
      <trkpt lat="42.508386" lon="2.456621">
        <ele>2314.087</ele>
        <time>2021-05-28T16:48:01Z</time>
      </trkpt>
      <trkpt lat="42.508398" lon="2.456642">
        <ele>2314.342</ele>
        <time>2021-05-28T16:48:02Z</time>
      </trkpt>
      <trkpt lat="42.508410" lon="2.456661">
        <ele>2314.526</ele>
        <time>2021-05-28T16:48:03Z</time>
      </trkpt>
      <trkpt lat="42.508426" lon="2.456698">
        <ele>2314.908</ele>
        <time>2021-05-28T16:48:05Z</time>
      </trkpt>
      <trkpt lat="42.508433" lon="2.456727">
        <ele>2315.235</ele>
        <time>2021-05-28T16:48:07Z</time>
      </trkpt>
      <trkpt lat="42.508442" lon="2.456763">
        <ele>2315.622</ele>
        <time>2021-05-28T16:48:09Z</time>
      </trkpt>
      <trkpt lat="42.508458" lon="2.456805">
        <ele>2316.163</ele>
        <time>2021-05-28T16:48:11Z</time>
      </trkpt>
      <trkpt lat="42.508473" lon="2.456842">
        <ele>2316.672</ele>
        <time>2021-05-28T16:48:13Z</time>
      </trkpt>
      <trkpt lat="42.508491" lon="2.456868">
        <ele>2317.029</ele>
        <time>2021-05-28T16:48:15Z</time>
      </trkpt>
      <trkpt lat="42.508510" lon="2.456893">
        <ele>2317.484</ele>
        <time>2021-05-28T16:48:17Z</time>
      </trkpt>
      <trkpt lat="42.508524" lon="2.456920">
        <ele>2317.861</ele>
        <time>2021-05-28T16:48:19Z</time>
      </trkpt>
      <trkpt lat="42.508546" lon="2.456934">
        <ele>2318.219</ele>
        <time>2021-05-28T16:48:21Z</time>
      </trkpt>
      <trkpt lat="42.508567" lon="2.456952">
        <ele>2318.524</ele>
        <time>2021-05-28T16:48:23Z</time>
      </trkpt>
      <trkpt lat="42.508586" lon="2.456964">
        <ele>2318.804</ele>
        <time>2021-05-28T16:48:25Z</time>
      </trkpt>
      <trkpt lat="42.508606" lon="2.456979">
        <ele>2319.114</ele>
        <time>2021-05-28T16:48:27Z</time>
      </trkpt>
      <trkpt lat="42.508628" lon="2.456989">
        <ele>2319.408</ele>
        <time>2021-05-28T16:48:29Z</time>
      </trkpt>
      <trkpt lat="42.508654" lon="2.456989">
        <ele>2319.859</ele>
        <time>2021-05-28T16:48:32Z</time>
      </trkpt>
      <trkpt lat="42.508674" lon="2.456988">
        <ele>2320.186</ele>
        <time>2021-05-28T16:48:34Z</time>
      </trkpt>
      <trkpt lat="42.508696" lon="2.457004">
        <ele>2320.667</ele>
        <time>2021-05-28T16:48:37Z</time>
      </trkpt>
      <trkpt lat="42.508716" lon="2.457022">
        <ele>2321.046</ele>
        <time>2021-05-28T16:48:40Z</time>
      </trkpt>
      <trkpt lat="42.508724" lon="2.457053">
        <ele>2321.323</ele>
        <time>2021-05-28T16:48:43Z</time>
      </trkpt>
      <trkpt lat="42.508745" lon="2.457075">
        <ele>2321.988</ele>
        <time>2021-05-28T16:48:46Z</time>
      </trkpt>
      <trkpt lat="42.508764" lon="2.457083">
        <ele>2322.265</ele>
        <time>2021-05-28T16:48:49Z</time>
      </trkpt>
      <trkpt lat="42.508778" lon="2.457098">
        <ele>2322.643</ele>
        <time>2021-05-28T16:48:52Z</time>
      </trkpt>
      <trkpt lat="42.508796" lon="2.457122">
        <ele>2323.275</ele>
        <time>2021-05-28T16:48:55Z</time>
      </trkpt>
      <trkpt lat="42.508815" lon="2.457147">
        <ele>2323.728</ele>
        <time>2021-05-28T16:48:58Z</time>
      </trkpt>
      <trkpt lat="42.508832" lon="2.457172">
        <ele>2324.320</ele>
        <time>2021-05-28T16:49:01Z</time>
      </trkpt>
      <trkpt lat="42.508849" lon="2.457191">
        <ele>2324.808</ele>
        <time>2021-05-28T16:49:04Z</time>
      </trkpt>
      <trkpt lat="42.508863" lon="2.457215">
        <ele>2325.454</ele>
        <time>2021-05-28T16:49:08Z</time>
      </trkpt>
      <trkpt lat="42.508879" lon="2.457235">
        <ele>2325.951</ele>
        <time>2021-05-28T16:49:11Z</time>
      </trkpt>
      <trkpt lat="42.508894" lon="2.457252">
        <ele>2326.332</ele>
        <time>2021-05-28T16:49:14Z</time>
      </trkpt>
      <trkpt lat="42.508910" lon="2.457275">
        <ele>2326.741</ele>
        <time>2021-05-28T16:49:18Z</time>
      </trkpt>
      <trkpt lat="42.508925" lon="2.457292">
        <ele>2327.168</ele>
        <time>2021-05-28T16:49:22Z</time>
      </trkpt>
      <trkpt lat="42.508939" lon="2.457312">
        <ele>2327.533</ele>
        <time>2021-05-28T16:49:25Z</time>
      </trkpt>
      <trkpt lat="42.508945" lon="2.457340">
        <ele>2327.880</ele>
        <time>2021-05-28T16:49:28Z</time>
      </trkpt>
      <trkpt lat="42.508961" lon="2.457360">
        <ele>2328.368</ele>
        <time>2021-05-28T16:49:31Z</time>
      </trkpt>
      <trkpt lat="42.508976" lon="2.457380">
        <ele>2328.779</ele>
        <time>2021-05-28T16:49:34Z</time>
      </trkpt>
      <trkpt lat="42.508983" lon="2.457408">
        <ele>2329.105</ele>
        <time>2021-05-28T16:49:37Z</time>
      </trkpt>
      <trkpt lat="42.509002" lon="2.457425">
        <ele>2329.725</ele>
        <time>2021-05-28T16:49:42Z</time>
      </trkpt>
      <trkpt lat="42.509018" lon="2.457435">
        <ele>2330.108</ele>
        <time>2021-05-28T16:49:45Z</time>
      </trkpt>
      <trkpt lat="42.509035" lon="2.457454">
        <ele>2330.724</ele>
        <time>2021-05-28T16:49:49Z</time>
      </trkpt>
      <trkpt lat="42.509052" lon="2.457481">
        <ele>2331.371</ele>
        <time>2021-05-28T16:49:53Z</time>
      </trkpt>
      <trkpt lat="42.509068" lon="2.457498">
        <ele>2331.842</ele>
        <time>2021-05-28T16:49:56Z</time>
      </trkpt>
      <trkpt lat="42.509083" lon="2.457513">
        <ele>2332.461</ele>
        <time>2021-05-28T16:49:59Z</time>
      </trkpt>
      <trkpt lat="42.509099" lon="2.457536">
        <ele>2333.138</ele>
        <time>2021-05-28T16:50:02Z</time>
      </trkpt>
      <trkpt lat="42.509109" lon="2.457556">
        <ele>2333.623</ele>
        <time>2021-05-28T16:50:05Z</time>
      </trkpt>
      <trkpt lat="42.509119" lon="2.457578">
        <ele>2334.140</ele>
        <time>2021-05-28T16:50:08Z</time>
      </trkpt>
      <trkpt lat="42.509131" lon="2.457610">
        <ele>2334.858</ele>
        <time>2021-05-28T16:50:12Z</time>
      </trkpt>
      <trkpt lat="42.509140" lon="2.457633">
        <ele>2335.375</ele>
        <time>2021-05-28T16:50:15Z</time>
      </trkpt>
      <trkpt lat="42.509152" lon="2.457662">
        <ele>2336.028</ele>
        <time>2021-05-28T16:50:19Z</time>
      </trkpt>
      <trkpt lat="42.509157" lon="2.457693">
        <ele>2336.620</ele>
        <time>2021-05-28T16:50:22Z</time>
      </trkpt>
      <trkpt lat="42.509171" lon="2.457713">
        <ele>2337.108</ele>
        <time>2021-05-28T16:50:25Z</time>
      </trkpt>
      <trkpt lat="42.509176" lon="2.457740">
        <ele>2337.424</ele>
        <time>2021-05-28T16:50:28Z</time>
      </trkpt>
      <trkpt lat="42.509176" lon="2.457773">
        <ele>2337.911</ele>
        <time>2021-05-28T16:50:31Z</time>
      </trkpt>
      <trkpt lat="42.509186" lon="2.457805">
        <ele>2338.472</ele>
        <time>2021-05-28T16:50:35Z</time>
      </trkpt>
      <trkpt lat="42.509200" lon="2.457837">
        <ele>2338.951</ele>
        <time>2021-05-28T16:50:38Z</time>
      </trkpt>
      <trkpt lat="42.509215" lon="2.457853">
        <ele>2339.188</ele>
        <time>2021-05-28T16:50:40Z</time>
      </trkpt>
      <trkpt lat="42.509229" lon="2.457878">
        <ele>2339.593</ele>
        <time>2021-05-28T16:50:42Z</time>
      </trkpt>
      <trkpt lat="42.509247" lon="2.457888">
        <ele>2339.690</ele>
        <time>2021-05-28T16:50:44Z</time>
      </trkpt>
      <trkpt lat="42.509268" lon="2.457885">
        <ele>2339.488</ele>
        <time>2021-05-28T16:50:46Z</time>
      </trkpt>
      <trkpt lat="42.509286" lon="2.457890">
        <ele>2339.489</ele>
        <time>2021-05-28T16:50:48Z</time>
      </trkpt>
      <trkpt lat="42.509301" lon="2.457907">
        <ele>2339.606</ele>
        <time>2021-05-28T16:50:50Z</time>
      </trkpt>
      <trkpt lat="42.509315" lon="2.457926">
        <ele>2339.826</ele>
        <time>2021-05-28T16:50:52Z</time>
      </trkpt>
      <trkpt lat="42.509321" lon="2.457950">
        <ele>2340.208</ele>
        <time>2021-05-28T16:50:54Z</time>
      </trkpt>
      <trkpt lat="42.509323" lon="2.457976">
        <ele>2340.665</ele>
        <time>2021-05-28T16:50:56Z</time>
      </trkpt>
      <trkpt lat="42.509318" lon="2.458001">
        <ele>2341.052</ele>
        <time>2021-05-28T16:50:58Z</time>
      </trkpt>
      <trkpt lat="42.509318" lon="2.458027">
        <ele>2341.573</ele>
        <time>2021-05-28T16:51:00Z</time>
      </trkpt>
      <trkpt lat="42.509324" lon="2.458051">
        <ele>2341.892</ele>
        <time>2021-05-28T16:51:02Z</time>
      </trkpt>
      <trkpt lat="42.509340" lon="2.458064">
        <ele>2341.919</ele>
        <time>2021-05-28T16:51:04Z</time>
      </trkpt>
      <trkpt lat="42.509360" lon="2.458065">
        <ele>2341.744</ele>
        <time>2021-05-28T16:51:06Z</time>
      </trkpt>
      <trkpt lat="42.509383" lon="2.458069">
        <ele>2341.611</ele>
        <time>2021-05-28T16:51:09Z</time>
      </trkpt>
      <trkpt lat="42.509406" lon="2.458075">
        <ele>2341.619</ele>
        <time>2021-05-28T16:51:12Z</time>
      </trkpt>
      <trkpt lat="42.509421" lon="2.458094">
        <ele>2341.716</ele>
        <time>2021-05-28T16:51:15Z</time>
      </trkpt>
      <trkpt lat="42.509427" lon="2.458125">
        <ele>2342.176</ele>
        <time>2021-05-28T16:51:18Z</time>
      </trkpt>
      <trkpt lat="42.509431" lon="2.458158">
        <ele>2342.613</ele>
        <time>2021-05-28T16:51:21Z</time>
      </trkpt>
      <trkpt lat="42.509433" lon="2.458192">
        <ele>2343.008</ele>
        <time>2021-05-28T16:51:24Z</time>
      </trkpt>
      <trkpt lat="42.509440" lon="2.458217">
        <ele>2343.478</ele>
        <time>2021-05-28T16:51:27Z</time>
      </trkpt>
      <trkpt lat="42.509440" lon="2.458246">
        <ele>2343.895</ele>
        <time>2021-05-28T16:51:30Z</time>
      </trkpt>
      <trkpt lat="42.509443" lon="2.458271">
        <ele>2344.166</ele>
        <time>2021-05-28T16:51:33Z</time>
      </trkpt>
      <trkpt lat="42.509455" lon="2.458293">
        <ele>2344.695</ele>
        <time>2021-05-28T16:51:43Z</time>
      </trkpt>
      <trkpt lat="42.509471" lon="2.458303">
        <ele>2345.042</ele>
        <time>2021-05-28T16:51:45Z</time>
      </trkpt>
      <trkpt lat="42.509490" lon="2.458317">
        <ele>2345.647</ele>
        <time>2021-05-28T16:51:47Z</time>
      </trkpt>
      <trkpt lat="42.509511" lon="2.458316">
        <ele>2345.974</ele>
        <time>2021-05-28T16:51:49Z</time>
      </trkpt>
      <trkpt lat="42.509534" lon="2.458305">
        <ele>2346.142</ele>
        <time>2021-05-28T16:51:51Z</time>
      </trkpt>
      <trkpt lat="42.509558" lon="2.458289">
        <ele>2346.314</ele>
        <time>2021-05-28T16:51:54Z</time>
      </trkpt>
      <trkpt lat="42.509577" lon="2.458283">
        <ele>2346.554</ele>
        <time>2021-05-28T16:51:56Z</time>
      </trkpt>
      <trkpt lat="42.509600" lon="2.458281">
        <ele>2346.809</ele>
        <time>2021-05-28T16:51:58Z</time>
      </trkpt>
      <trkpt lat="42.509620" lon="2.458290">
        <ele>2347.308</ele>
        <time>2021-05-28T16:52:00Z</time>
      </trkpt>
      <trkpt lat="42.509639" lon="2.458295">
        <ele>2347.888</ele>
        <time>2021-05-28T16:52:02Z</time>
      </trkpt>
      <trkpt lat="42.509665" lon="2.458288">
        <ele>2348.185</ele>
        <time>2021-05-28T16:52:05Z</time>
      </trkpt>
      <trkpt lat="42.509680" lon="2.458272">
        <ele>2348.086</ele>
        <time>2021-05-28T16:52:07Z</time>
      </trkpt>
      <trkpt lat="42.509692" lon="2.458247">
        <ele>2347.755</ele>
        <time>2021-05-28T16:52:12Z</time>
      </trkpt>
      <trkpt lat="42.509716" lon="2.458236">
        <ele>2347.812</ele>
        <time>2021-05-28T16:52:14Z</time>
      </trkpt>
      <trkpt lat="42.509738" lon="2.458229">
        <ele>2347.757</ele>
        <time>2021-05-28T16:52:16Z</time>
      </trkpt>
      <trkpt lat="42.509760" lon="2.458249">
        <ele>2347.994</ele>
        <time>2021-05-28T16:52:19Z</time>
      </trkpt>
      <trkpt lat="42.509777" lon="2.458269">
        <ele>2348.352</ele>
        <time>2021-05-28T16:52:21Z</time>
      </trkpt>
      <trkpt lat="42.509791" lon="2.458299">
        <ele>2348.896</ele>
        <time>2021-05-28T16:52:24Z</time>
      </trkpt>
      <trkpt lat="42.509801" lon="2.458321">
        <ele>2349.231</ele>
        <time>2021-05-28T16:52:26Z</time>
      </trkpt>
      <trkpt lat="42.509811" lon="2.458358">
        <ele>2350.024</ele>
        <time>2021-05-28T16:52:29Z</time>
      </trkpt>
      <trkpt lat="42.509815" lon="2.458382">
        <ele>2350.608</ele>
        <time>2021-05-28T16:52:31Z</time>
      </trkpt>
      <trkpt lat="42.509832" lon="2.458404">
        <ele>2351.086</ele>
        <time>2021-05-28T16:52:34Z</time>
      </trkpt>
      <trkpt lat="42.509848" lon="2.458425">
        <ele>2351.433</ele>
        <time>2021-05-28T16:52:37Z</time>
      </trkpt>
      <trkpt lat="42.509863" lon="2.458451">
        <ele>2352.014</ele>
        <time>2021-05-28T16:52:40Z</time>
      </trkpt>
      <trkpt lat="42.509878" lon="2.458477">
        <ele>2352.583</ele>
        <time>2021-05-28T16:52:43Z</time>
      </trkpt>
      <trkpt lat="42.509893" lon="2.458496">
        <ele>2352.990</ele>
        <time>2021-05-28T16:52:45Z</time>
      </trkpt>
      <trkpt lat="42.509917" lon="2.458512">
        <ele>2353.175</ele>
        <time>2021-05-28T16:52:48Z</time>
      </trkpt>
      <trkpt lat="42.509928" lon="2.458542">
        <ele>2353.842</ele>
        <time>2021-05-28T16:52:51Z</time>
      </trkpt>
      <trkpt lat="42.509946" lon="2.458563">
        <ele>2354.240</ele>
        <time>2021-05-28T16:52:54Z</time>
      </trkpt>
      <trkpt lat="42.509963" lon="2.458586">
        <ele>2354.619</ele>
        <time>2021-05-28T16:52:57Z</time>
      </trkpt>
      <trkpt lat="42.509975" lon="2.458605">
        <ele>2355.009</ele>
        <time>2021-05-28T16:53:00Z</time>
      </trkpt>
      <trkpt lat="42.509989" lon="2.458621">
        <ele>2355.319</ele>
        <time>2021-05-28T16:53:03Z</time>
      </trkpt>
      <trkpt lat="42.510002" lon="2.458639">
        <ele>2355.708</ele>
        <time>2021-05-28T16:53:05Z</time>
      </trkpt>
      <trkpt lat="42.510025" lon="2.458661">
        <ele>2356.198</ele>
        <time>2021-05-28T16:53:08Z</time>
      </trkpt>
      <trkpt lat="42.510039" lon="2.458678">
        <ele>2356.565</ele>
        <time>2021-05-28T16:53:10Z</time>
      </trkpt>
      <trkpt lat="42.510053" lon="2.458697">
        <ele>2356.976</ele>
        <time>2021-05-28T16:53:13Z</time>
      </trkpt>
      <trkpt lat="42.510071" lon="2.458721">
        <ele>2357.345</ele>
        <time>2021-05-28T16:53:17Z</time>
      </trkpt>
      <trkpt lat="42.510088" lon="2.458739">
        <ele>2357.682</ele>
        <time>2021-05-28T16:53:20Z</time>
      </trkpt>
      <trkpt lat="42.510106" lon="2.458758">
        <ele>2357.957</ele>
        <time>2021-05-28T16:53:23Z</time>
      </trkpt>
      <trkpt lat="42.510125" lon="2.458769">
        <ele>2358.024</ele>
        <time>2021-05-28T16:53:25Z</time>
      </trkpt>
      <trkpt lat="42.510147" lon="2.458779">
        <ele>2358.152</ele>
        <time>2021-05-28T16:53:27Z</time>
      </trkpt>
      <trkpt lat="42.510174" lon="2.458797">
        <ele>2358.225</ele>
        <time>2021-05-28T16:53:29Z</time>
      </trkpt>
      <trkpt lat="42.510204" lon="2.458815">
        <ele>2358.326</ele>
        <time>2021-05-28T16:53:31Z</time>
      </trkpt>
      <trkpt lat="42.510229" lon="2.458840">
        <ele>2358.608</ele>
        <time>2021-05-28T16:53:33Z</time>
      </trkpt>
      <trkpt lat="42.510244" lon="2.458858">
        <ele>2358.808</ele>
        <time>2021-05-28T16:53:34Z</time>
      </trkpt>
      <trkpt lat="42.510258" lon="2.458876">
        <ele>2359.049</ele>
        <time>2021-05-28T16:53:35Z</time>
      </trkpt>
      <trkpt lat="42.510286" lon="2.458908">
        <ele>2359.766</ele>
        <time>2021-05-28T16:53:37Z</time>
      </trkpt>
      <trkpt lat="42.510305" lon="2.458921">
        <ele>2360.287</ele>
        <time>2021-05-28T16:53:38Z</time>
      </trkpt>
      <trkpt lat="42.510327" lon="2.458945">
        <ele>2361.196</ele>
        <time>2021-05-28T16:53:40Z</time>
      </trkpt>
      <trkpt lat="42.510348" lon="2.458953">
        <ele>2361.593</ele>
        <time>2021-05-28T16:53:42Z</time>
      </trkpt>
      <trkpt lat="42.510365" lon="2.458963">
        <ele>2361.998</ele>
        <time>2021-05-28T16:53:44Z</time>
      </trkpt>
      <trkpt lat="42.510394" lon="2.458979">
        <ele>2362.595</ele>
        <time>2021-05-28T16:53:46Z</time>
      </trkpt>
      <trkpt lat="42.510425" lon="2.458990">
        <ele>2362.973</ele>
        <time>2021-05-28T16:53:48Z</time>
      </trkpt>
      <trkpt lat="42.510455" lon="2.459000">
        <ele>2363.475</ele>
        <time>2021-05-28T16:53:50Z</time>
      </trkpt>
      <trkpt lat="42.510490" lon="2.459006">
        <ele>2363.728</ele>
        <time>2021-05-28T16:53:52Z</time>
      </trkpt>
      <trkpt lat="42.510521" lon="2.459005">
        <ele>2363.820</ele>
        <time>2021-05-28T16:53:54Z</time>
      </trkpt>
      <trkpt lat="42.510547" lon="2.458999">
        <ele>2363.708</ele>
        <time>2021-05-28T16:53:56Z</time>
      </trkpt>
      <trkpt lat="42.510570" lon="2.459002">
        <ele>2364.054</ele>
        <time>2021-05-28T16:53:58Z</time>
      </trkpt>
      <trkpt lat="42.510595" lon="2.458999">
        <ele>2364.281</ele>
        <time>2021-05-28T16:53:59Z</time>
      </trkpt>
      <trkpt lat="42.510624" lon="2.459001">
        <ele>2364.652</ele>
        <time>2021-05-28T16:54:03Z</time>
      </trkpt>
      <trkpt lat="42.510649" lon="2.458996">
        <ele>2364.841</ele>
        <time>2021-05-28T16:54:05Z</time>
      </trkpt>
      <trkpt lat="42.510671" lon="2.458996">
        <ele>2365.078</ele>
        <time>2021-05-28T16:54:07Z</time>
      </trkpt>
      <trkpt lat="42.510699" lon="2.459004">
        <ele>2365.533</ele>
        <time>2021-05-28T16:54:10Z</time>
      </trkpt>
      <trkpt lat="42.510716" lon="2.459016">
        <ele>2366.030</ele>
        <time>2021-05-28T16:54:12Z</time>
      </trkpt>
      <trkpt lat="42.510738" lon="2.459012">
        <ele>2366.178</ele>
        <time>2021-05-28T16:54:14Z</time>
      </trkpt>
      <trkpt lat="42.510763" lon="2.458998">
        <ele>2366.292</ele>
        <time>2021-05-28T16:54:16Z</time>
      </trkpt>
      <trkpt lat="42.510782" lon="2.458982">
        <ele>2366.173</ele>
        <time>2021-05-28T16:54:18Z</time>
      </trkpt>
      <trkpt lat="42.510801" lon="2.458971">
        <ele>2366.120</ele>
        <time>2021-05-28T16:54:20Z</time>
      </trkpt>
      <trkpt lat="42.510820" lon="2.458966">
        <ele>2366.208</ele>
        <time>2021-05-28T16:54:23Z</time>
      </trkpt>
      <trkpt lat="42.510840" lon="2.458976">
        <ele>2366.646</ele>
        <time>2021-05-28T16:54:25Z</time>
      </trkpt>
      <trkpt lat="42.510855" lon="2.458991">
        <ele>2367.163</ele>
        <time>2021-05-28T16:54:27Z</time>
      </trkpt>
      <trkpt lat="42.510873" lon="2.459006">
        <ele>2367.614</ele>
        <time>2021-05-28T16:54:29Z</time>
      </trkpt>
      <trkpt lat="42.510891" lon="2.459020">
        <ele>2368.043</ele>
        <time>2021-05-28T16:54:32Z</time>
      </trkpt>
      <trkpt lat="42.510909" lon="2.459029">
        <ele>2368.380</ele>
        <time>2021-05-28T16:54:34Z</time>
      </trkpt>
      <trkpt lat="42.510937" lon="2.459035">
        <ele>2368.755</ele>
        <time>2021-05-28T16:54:37Z</time>
      </trkpt>
      <trkpt lat="42.510959" lon="2.459052">
        <ele>2369.282</ele>
        <time>2021-05-28T16:54:40Z</time>
      </trkpt>
      <trkpt lat="42.510976" lon="2.459063">
        <ele>2369.510</ele>
        <time>2021-05-28T16:54:42Z</time>
      </trkpt>
      <trkpt lat="42.511000" lon="2.459072">
        <ele>2369.994</ele>
        <time>2021-05-28T16:54:45Z</time>
      </trkpt>
      <trkpt lat="42.511026" lon="2.459089">
        <ele>2370.457</ele>
        <time>2021-05-28T16:54:48Z</time>
      </trkpt>
      <trkpt lat="42.511045" lon="2.459087">
        <ele>2370.522</ele>
        <time>2021-05-28T16:54:50Z</time>
      </trkpt>
      <trkpt lat="42.511062" lon="2.459099">
        <ele>2370.808</ele>
        <time>2021-05-28T16:54:55Z</time>
      </trkpt>
      <trkpt lat="42.511084" lon="2.459112">
        <ele>2371.286</ele>
        <time>2021-05-28T16:54:58Z</time>
      </trkpt>
      <trkpt lat="42.511101" lon="2.459108">
        <ele>2371.333</ele>
        <time>2021-05-28T16:55:01Z</time>
      </trkpt>
      <trkpt lat="42.511120" lon="2.459120">
        <ele>2371.814</ele>
        <time>2021-05-28T16:55:05Z</time>
      </trkpt>
      <trkpt lat="42.511139" lon="2.459111">
        <ele>2372.353</ele>
        <time>2021-05-28T16:55:08Z</time>
      </trkpt>
      <trkpt lat="42.511158" lon="2.459101">
        <ele>2372.810</ele>
        <time>2021-05-28T16:55:10Z</time>
      </trkpt>
      <trkpt lat="42.511175" lon="2.459086">
        <ele>2373.325</ele>
        <time>2021-05-28T16:55:12Z</time>
      </trkpt>
      <trkpt lat="42.511195" lon="2.459061">
        <ele>2373.762</ele>
        <time>2021-05-28T16:55:15Z</time>
      </trkpt>
      <trkpt lat="42.511207" lon="2.459037">
        <ele>2373.980</ele>
        <time>2021-05-28T16:55:17Z</time>
      </trkpt>
      <trkpt lat="42.511218" lon="2.459012">
        <ele>2374.095</ele>
        <time>2021-05-28T16:55:19Z</time>
      </trkpt>
      <trkpt lat="42.511226" lon="2.458985">
        <ele>2374.049</ele>
        <time>2021-05-28T16:55:21Z</time>
      </trkpt>
      <trkpt lat="42.511233" lon="2.458960">
        <ele>2374.023</ele>
        <time>2021-05-28T16:55:23Z</time>
      </trkpt>
      <trkpt lat="42.511238" lon="2.458935">
        <ele>2374.008</ele>
        <time>2021-05-28T16:55:25Z</time>
      </trkpt>
      <trkpt lat="42.511248" lon="2.458905">
        <ele>2374.146</ele>
        <time>2021-05-28T16:55:28Z</time>
      </trkpt>
      <trkpt lat="42.511254" lon="2.458869">
        <ele>2374.043</ele>
        <time>2021-05-28T16:55:31Z</time>
      </trkpt>
      <trkpt lat="42.511256" lon="2.458844">
        <ele>2373.994</ele>
        <time>2021-05-28T16:55:33Z</time>
      </trkpt>
      <trkpt lat="42.511260" lon="2.458816">
        <ele>2373.863</ele>
        <time>2021-05-28T16:55:35Z</time>
      </trkpt>
      <trkpt lat="42.511261" lon="2.458785">
        <ele>2373.640</ele>
        <time>2021-05-28T16:55:37Z</time>
      </trkpt>
      <trkpt lat="42.511264" lon="2.458757">
        <ele>2373.565</ele>
        <time>2021-05-28T16:55:39Z</time>
      </trkpt>
      <trkpt lat="42.511272" lon="2.458729">
        <ele>2373.612</ele>
        <time>2021-05-28T16:55:41Z</time>
      </trkpt>
      <trkpt lat="42.511282" lon="2.458707">
        <ele>2373.780</ele>
        <time>2021-05-28T16:55:43Z</time>
      </trkpt>
      <trkpt lat="42.511292" lon="2.458682">
        <ele>2373.846</ele>
        <time>2021-05-28T16:55:45Z</time>
      </trkpt>
      <trkpt lat="42.511303" lon="2.458663">
        <ele>2374.088</ele>
        <time>2021-05-28T16:55:47Z</time>
      </trkpt>
      <trkpt lat="42.511322" lon="2.458643">
        <ele>2374.416</ele>
        <time>2021-05-28T16:55:49Z</time>
      </trkpt>
      <trkpt lat="42.511347" lon="2.458625">
        <ele>2374.908</ele>
        <time>2021-05-28T16:55:51Z</time>
      </trkpt>
      <trkpt lat="42.511367" lon="2.458607">
        <ele>2375.321</ele>
        <time>2021-05-28T16:55:53Z</time>
      </trkpt>
      <trkpt lat="42.511389" lon="2.458591">
        <ele>2375.648</ele>
        <time>2021-05-28T16:55:56Z</time>
      </trkpt>
      <trkpt lat="42.511412" lon="2.458575">
        <ele>2375.569</ele>
        <time>2021-05-28T16:55:59Z</time>
      </trkpt>
      <trkpt lat="42.511430" lon="2.458568">
        <ele>2375.528</ele>
        <time>2021-05-28T16:56:01Z</time>
      </trkpt>
      <trkpt lat="42.511452" lon="2.458561">
        <ele>2375.655</ele>
        <time>2021-05-28T16:56:04Z</time>
      </trkpt>
      <trkpt lat="42.511472" lon="2.458556">
        <ele>2375.870</ele>
        <time>2021-05-28T16:56:06Z</time>
      </trkpt>
      <trkpt lat="42.511498" lon="2.458564">
        <ele>2376.287</ele>
        <time>2021-05-28T16:56:10Z</time>
      </trkpt>
      <trkpt lat="42.511522" lon="2.458570">
        <ele>2376.655</ele>
        <time>2021-05-28T16:56:13Z</time>
      </trkpt>
      <trkpt lat="42.511550" lon="2.458575">
        <ele>2377.075</ele>
        <time>2021-05-28T16:56:16Z</time>
      </trkpt>
      <trkpt lat="42.511573" lon="2.458580">
        <ele>2377.428</ele>
        <time>2021-05-28T16:56:18Z</time>
      </trkpt>
      <trkpt lat="42.511592" lon="2.458589">
        <ele>2377.820</ele>
        <time>2021-05-28T16:56:21Z</time>
      </trkpt>
      <trkpt lat="42.511606" lon="2.458606">
        <ele>2378.208</ele>
        <time>2021-05-28T16:56:24Z</time>
      </trkpt>
      <trkpt lat="42.511628" lon="2.458624">
        <ele>2378.824</ele>
        <time>2021-05-28T16:56:28Z</time>
      </trkpt>
      <trkpt lat="42.511645" lon="2.458641">
        <ele>2379.341</ele>
        <time>2021-05-28T16:56:32Z</time>
      </trkpt>
      <trkpt lat="42.511664" lon="2.458660">
        <ele>2379.852</ele>
        <time>2021-05-28T16:56:35Z</time>
      </trkpt>
      <trkpt lat="42.511678" lon="2.458690">
        <ele>2380.541</ele>
        <time>2021-05-28T16:56:38Z</time>
      </trkpt>
      <trkpt lat="42.511696" lon="2.458714">
        <ele>2381.128</ele>
        <time>2021-05-28T16:56:41Z</time>
      </trkpt>
      <trkpt lat="42.511704" lon="2.458736">
        <ele>2381.613</ele>
        <time>2021-05-28T16:56:43Z</time>
      </trkpt>
      <trkpt lat="42.511720" lon="2.458755">
        <ele>2382.170</ele>
        <time>2021-05-28T16:56:46Z</time>
      </trkpt>
      <trkpt lat="42.511736" lon="2.458777">
        <ele>2382.618</ele>
        <time>2021-05-28T16:56:49Z</time>
      </trkpt>
      <trkpt lat="42.511747" lon="2.458803">
        <ele>2383.248</ele>
        <time>2021-05-28T16:56:52Z</time>
      </trkpt>
      <trkpt lat="42.511760" lon="2.458825">
        <ele>2383.861</ele>
        <time>2021-05-28T16:56:55Z</time>
      </trkpt>
      <trkpt lat="42.511776" lon="2.458846">
        <ele>2384.317</ele>
        <time>2021-05-28T16:56:59Z</time>
      </trkpt>
      <trkpt lat="42.511793" lon="2.458866">
        <ele>2384.908</ele>
        <time>2021-05-28T16:57:02Z</time>
      </trkpt>
      <trkpt lat="42.511810" lon="2.458884">
        <ele>2385.581</ele>
        <time>2021-05-28T16:57:05Z</time>
      </trkpt>
      <trkpt lat="42.511828" lon="2.458900">
        <ele>2386.038</ele>
        <time>2021-05-28T16:57:09Z</time>
      </trkpt>
      <trkpt lat="42.511849" lon="2.458917">
        <ele>2386.619</ele>
        <time>2021-05-28T16:57:12Z</time>
      </trkpt>
      <trkpt lat="42.511867" lon="2.458926">
        <ele>2387.058</ele>
        <time>2021-05-28T16:57:14Z</time>
      </trkpt>
      <trkpt lat="42.511885" lon="2.458929">
        <ele>2387.385</ele>
        <time>2021-05-28T16:57:16Z</time>
      </trkpt>
      <trkpt lat="42.511906" lon="2.458938">
        <ele>2387.880</ele>
        <time>2021-05-28T16:57:19Z</time>
      </trkpt>
      <trkpt lat="42.511929" lon="2.458949">
        <ele>2388.357</ele>
        <time>2021-05-28T16:57:23Z</time>
      </trkpt>
      <trkpt lat="42.511953" lon="2.458947">
        <ele>2388.655</ele>
        <time>2021-05-28T16:57:26Z</time>
      </trkpt>
      <trkpt lat="42.511982" lon="2.458952">
        <ele>2389.337</ele>
        <time>2021-05-28T16:57:29Z</time>
      </trkpt>
      <trkpt lat="42.512006" lon="2.458966">
        <ele>2390.149</ele>
        <time>2021-05-28T16:57:32Z</time>
      </trkpt>
      <trkpt lat="42.512034" lon="2.458970">
        <ele>2390.813</ele>
        <time>2021-05-28T16:57:35Z</time>
      </trkpt>
      <trkpt lat="42.512053" lon="2.458980">
        <ele>2391.408</ele>
        <time>2021-05-28T16:57:37Z</time>
      </trkpt>
      <trkpt lat="42.512072" lon="2.458986">
        <ele>2391.950</ele>
        <time>2021-05-28T16:57:40Z</time>
      </trkpt>
      <trkpt lat="42.512090" lon="2.458993">
        <ele>2392.477</ele>
        <time>2021-05-28T16:57:43Z</time>
      </trkpt>
      <trkpt lat="42.512110" lon="2.458995">
        <ele>2392.938</ele>
        <time>2021-05-28T16:57:47Z</time>
      </trkpt>
      <trkpt lat="42.512128" lon="2.458991">
        <ele>2393.147</ele>
        <time>2021-05-28T16:57:51Z</time>
      </trkpt>
      <trkpt lat="42.512149" lon="2.458986">
        <ele>2393.454</ele>
        <time>2021-05-28T16:57:55Z</time>
      </trkpt>
      <trkpt lat="42.512174" lon="2.458983">
        <ele>2393.829</ele>
        <time>2021-05-28T16:57:58Z</time>
      </trkpt>
      <trkpt lat="42.512201" lon="2.458978">
        <ele>2394.246</ele>
        <time>2021-05-28T16:58:01Z</time>
      </trkpt>
      <trkpt lat="42.512222" lon="2.458977">
        <ele>2394.514</ele>
        <time>2021-05-28T16:58:04Z</time>
      </trkpt>
      <trkpt lat="42.512241" lon="2.458968">
        <ele>2395.073</ele>
        <time>2021-05-28T16:58:07Z</time>
      </trkpt>
      <trkpt lat="42.512260" lon="2.458962">
        <ele>2395.585</ele>
        <time>2021-05-28T16:58:10Z</time>
      </trkpt>
      <trkpt lat="42.512282" lon="2.458953">
        <ele>2396.013</ele>
        <time>2021-05-28T16:58:13Z</time>
      </trkpt>
      <trkpt lat="42.512299" lon="2.458938">
        <ele>2396.208</ele>
        <time>2021-05-28T16:58:15Z</time>
      </trkpt>
      <trkpt lat="42.512322" lon="2.458923">
        <ele>2396.684</ele>
        <time>2021-05-28T16:58:18Z</time>
      </trkpt>
      <trkpt lat="42.512350" lon="2.458904">
        <ele>2397.061</ele>
        <time>2021-05-28T16:58:21Z</time>
      </trkpt>
      <trkpt lat="42.512367" lon="2.458888">
        <ele>2397.282</ele>
        <time>2021-05-28T16:58:23Z</time>
      </trkpt>
      <trkpt lat="42.512385" lon="2.458866">
        <ele>2397.591</ele>
        <time>2021-05-28T16:58:26Z</time>
      </trkpt>
      <trkpt lat="42.512398" lon="2.458842">
        <ele>2397.658</ele>
        <time>2021-05-28T16:58:29Z</time>
      </trkpt>
      <trkpt lat="42.512411" lon="2.458824">
        <ele>2397.853</ele>
        <time>2021-05-28T16:58:31Z</time>
      </trkpt>
      <trkpt lat="42.512427" lon="2.458804">
        <ele>2398.020</ele>
        <time>2021-05-28T16:58:33Z</time>
      </trkpt>
      <trkpt lat="42.512440" lon="2.458784">
        <ele>2398.138</ele>
        <time>2021-05-28T16:58:36Z</time>
      </trkpt>
      <trkpt lat="42.512476" lon="2.458761">
        <ele>2398.974</ele>
        <time>2021-05-28T16:58:40Z</time>
      </trkpt>
      <trkpt lat="42.512494" lon="2.458752">
        <ele>2399.356</ele>
        <time>2021-05-28T16:58:45Z</time>
      </trkpt>
      <trkpt lat="42.512504" lon="2.458778">
        <ele>2400.221</ele>
        <time>2021-05-28T16:58:49Z</time>
      </trkpt>
      <trkpt lat="42.512497" lon="2.458815">
        <ele>2400.608</ele>
        <time>2021-05-28T16:58:52Z</time>
      </trkpt>
      <trkpt lat="42.512488" lon="2.458843">
        <ele>2400.834</ele>
        <time>2021-05-28T16:58:54Z</time>
      </trkpt>
      <trkpt lat="42.512479" lon="2.458875">
        <ele>2401.081</ele>
        <time>2021-05-28T16:58:56Z</time>
      </trkpt>
      <trkpt lat="42.512466" lon="2.458900">
        <ele>2401.162</ele>
        <time>2021-05-28T16:58:58Z</time>
      </trkpt>
      <trkpt lat="42.512458" lon="2.458933">
        <ele>2401.821</ele>
        <time>2021-05-28T16:59:00Z</time>
      </trkpt>
      <trkpt lat="42.512452" lon="2.458960">
        <ele>2402.388</ele>
        <time>2021-05-28T16:59:02Z</time>
      </trkpt>
      <trkpt lat="42.512443" lon="2.458984">
        <ele>2402.753</ele>
        <time>2021-05-28T16:59:04Z</time>
      </trkpt>
      <trkpt lat="42.512431" lon="2.459014">
        <ele>2403.110</ele>
        <time>2021-05-28T16:59:06Z</time>
      </trkpt>
      <trkpt lat="42.512421" lon="2.459036">
        <ele>2403.428</ele>
        <time>2021-05-28T16:59:08Z</time>
      </trkpt>
      <trkpt lat="42.512410" lon="2.459057">
        <ele>2403.681</ele>
        <time>2021-05-28T16:59:10Z</time>
      </trkpt>
      <trkpt lat="42.512397" lon="2.459075">
        <ele>2403.761</ele>
        <time>2021-05-28T16:59:12Z</time>
      </trkpt>
      <trkpt lat="42.512383" lon="2.459100">
        <ele>2403.917</ele>
        <time>2021-05-28T16:59:14Z</time>
      </trkpt>
      <trkpt lat="42.512374" lon="2.459124">
        <ele>2404.208</ele>
        <time>2021-05-28T16:59:16Z</time>
      </trkpt>
      <trkpt lat="42.512363" lon="2.459148">
        <ele>2404.515</ele>
        <time>2021-05-28T16:59:18Z</time>
      </trkpt>
      <trkpt lat="42.512353" lon="2.459168">
        <ele>2404.752</ele>
        <time>2021-05-28T16:59:20Z</time>
      </trkpt>
      <trkpt lat="42.512336" lon="2.459196">
        <ele>2405.053</ele>
        <time>2021-05-28T16:59:23Z</time>
      </trkpt>
      <trkpt lat="42.512321" lon="2.459212">
        <ele>2405.072</ele>
        <time>2021-05-28T16:59:25Z</time>
      </trkpt>
      <trkpt lat="42.512302" lon="2.459232">
        <ele>2404.949</ele>
        <time>2021-05-28T16:59:28Z</time>
      </trkpt>
      <trkpt lat="42.512280" lon="2.459250">
        <ele>2404.774</ele>
        <time>2021-05-28T16:59:31Z</time>
      </trkpt>
      <trkpt lat="42.512261" lon="2.459272">
        <ele>2404.891</ele>
        <time>2021-05-28T16:59:34Z</time>
      </trkpt>
      <trkpt lat="42.512242" lon="2.459291">
        <ele>2404.789</ele>
        <time>2021-05-28T16:59:37Z</time>
      </trkpt>
      <trkpt lat="42.512227" lon="2.459307">
        <ele>2404.763</ele>
        <time>2021-05-28T16:59:39Z</time>
      </trkpt>
      <trkpt lat="42.512217" lon="2.459328">
        <ele>2405.144</ele>
        <time>2021-05-28T16:59:41Z</time>
      </trkpt>
      <trkpt lat="42.512205" lon="2.459350">
        <ele>2405.418</ele>
        <time>2021-05-28T16:59:43Z</time>
      </trkpt>
      <trkpt lat="42.512192" lon="2.459374">
        <ele>2405.808</ele>
        <time>2021-05-28T16:59:46Z</time>
      </trkpt>
      <trkpt lat="42.512176" lon="2.459396">
        <ele>2406.073</ele>
        <time>2021-05-28T16:59:49Z</time>
      </trkpt>
      <trkpt lat="42.512167" lon="2.459418">
        <ele>2406.430</ele>
        <time>2021-05-28T16:59:51Z</time>
      </trkpt>
      <trkpt lat="42.512163" lon="2.459442">
        <ele>2407.021</ele>
        <time>2021-05-28T16:59:54Z</time>
      </trkpt>
      <trkpt lat="42.512167" lon="2.459470">
        <ele>2407.910</ele>
        <time>2021-05-28T16:59:58Z</time>
      </trkpt>
      <trkpt lat="42.512159" lon="2.459504">
        <ele>2408.727</ele>
        <time>2021-05-28T17:00:01Z</time>
      </trkpt>
      <trkpt lat="42.512153" lon="2.459536">
        <ele>2409.482</ele>
        <time>2021-05-28T17:00:03Z</time>
      </trkpt>
      <trkpt lat="42.512150" lon="2.459563">
        <ele>2410.189</ele>
        <time>2021-05-28T17:00:06Z</time>
      </trkpt>
      <trkpt lat="42.512151" lon="2.459589">
        <ele>2410.957</ele>
        <time>2021-05-28T17:00:09Z</time>
      </trkpt>
      <trkpt lat="42.512148" lon="2.459614">
        <ele>2411.574</ele>
        <time>2021-05-28T17:00:13Z</time>
      </trkpt>
      <trkpt lat="42.512128" lon="2.459631">
        <ele>2411.356</ele>
        <time>2021-05-28T17:00:20Z</time>
      </trkpt>
      <trkpt lat="42.512108" lon="2.459652">
        <ele>2411.321</ele>
        <time>2021-05-28T17:00:23Z</time>
      </trkpt>
      <trkpt lat="42.512093" lon="2.459671">
        <ele>2411.308</ele>
        <time>2021-05-28T17:00:26Z</time>
      </trkpt>
      <trkpt lat="42.512068" lon="2.459705">
        <ele>2411.534</ele>
        <time>2021-05-28T17:00:29Z</time>
      </trkpt>
      <trkpt lat="42.512054" lon="2.459724">
        <ele>2411.691</ele>
        <time>2021-05-28T17:00:31Z</time>
      </trkpt>
      <trkpt lat="42.512038" lon="2.459750">
        <ele>2411.872</ele>
        <time>2021-05-28T17:00:34Z</time>
      </trkpt>
      <trkpt lat="42.512024" lon="2.459777">
        <ele>2412.271</ele>
        <time>2021-05-28T17:00:37Z</time>
      </trkpt>
      <trkpt lat="42.512003" lon="2.459796">
        <ele>2412.088</ele>
        <time>2021-05-28T17:00:40Z</time>
      </trkpt>
      <trkpt lat="42.511984" lon="2.459804">
        <ele>2411.683</ele>
        <time>2021-05-28T17:00:44Z</time>
      </trkpt>
      <trkpt lat="42.511972" lon="2.459832">
        <ele>2412.170</ele>
        <time>2021-05-28T17:00:47Z</time>
      </trkpt>
      <trkpt lat="42.511970" lon="2.459857">
        <ele>2412.788</ele>
        <time>2021-05-28T17:00:49Z</time>
      </trkpt>
      <trkpt lat="42.511962" lon="2.459880">
        <ele>2413.195</ele>
        <time>2021-05-28T17:00:51Z</time>
      </trkpt>
      <trkpt lat="42.511959" lon="2.459910">
        <ele>2413.949</ele>
        <time>2021-05-28T17:00:55Z</time>
      </trkpt>
      <trkpt lat="42.511951" lon="2.459946">
        <ele>2414.723</ele>
        <time>2021-05-28T17:00:58Z</time>
      </trkpt>
      <trkpt lat="42.511938" lon="2.459965">
        <ele>2414.708</ele>
        <time>2021-05-28T17:01:02Z</time>
      </trkpt>
      <trkpt lat="42.511926" lon="2.459989">
        <ele>2415.026</ele>
        <time>2021-05-28T17:01:05Z</time>
      </trkpt>
      <trkpt lat="42.511925" lon="2.460018">
        <ele>2415.863</ele>
        <time>2021-05-28T17:01:08Z</time>
      </trkpt>
      <trkpt lat="42.511922" lon="2.460047">
        <ele>2416.624</ele>
        <time>2021-05-28T17:01:11Z</time>
      </trkpt>
      <trkpt lat="42.511910" lon="2.460067">
        <ele>2416.843</ele>
        <time>2021-05-28T17:01:15Z</time>
      </trkpt>
      <trkpt lat="42.511891" lon="2.460095">
        <ele>2417.080</ele>
        <time>2021-05-28T17:01:18Z</time>
      </trkpt>
      <trkpt lat="42.511873" lon="2.460120">
        <ele>2417.235</ele>
        <time>2021-05-28T17:01:21Z</time>
      </trkpt>
      <trkpt lat="42.511860" lon="2.460141">
        <ele>2417.482</ele>
        <time>2021-05-28T17:01:24Z</time>
      </trkpt>
      <trkpt lat="42.511845" lon="2.460156">
        <ele>2417.320</ele>
        <time>2021-05-28T17:01:28Z</time>
      </trkpt>
      <trkpt lat="42.511831" lon="2.460183">
        <ele>2417.791</ele>
        <time>2021-05-28T17:01:31Z</time>
      </trkpt>
      <trkpt lat="42.511821" lon="2.460207">
        <ele>2418.281</ele>
        <time>2021-05-28T17:01:33Z</time>
      </trkpt>
      <trkpt lat="42.511801" lon="2.460224">
        <ele>2418.019</ele>
        <time>2021-05-28T17:01:36Z</time>
      </trkpt>
      <trkpt lat="42.511791" lon="2.460244">
        <ele>2418.308</ele>
        <time>2021-05-28T17:01:39Z</time>
      </trkpt>
      <trkpt lat="42.511799" lon="2.460274">
        <ele>2419.696</ele>
        <time>2021-05-28T17:01:46Z</time>
      </trkpt>
      <trkpt lat="42.511790" lon="2.460297">
        <ele>2420.343</ele>
        <time>2021-05-28T17:01:48Z</time>
      </trkpt>
      <trkpt lat="42.511774" lon="2.460320">
        <ele>2420.844</ele>
        <time>2021-05-28T17:01:50Z</time>
      </trkpt>
      <trkpt lat="42.511767" lon="2.460351">
        <ele>2421.913</ele>
        <time>2021-05-28T17:01:53Z</time>
      </trkpt>
      <trkpt lat="42.511751" lon="2.460367">
        <ele>2422.150</ele>
        <time>2021-05-28T17:01:57Z</time>
      </trkpt>
      <trkpt lat="42.511741" lon="2.460389">
        <ele>2422.825</ele>
        <time>2021-05-28T17:02:02Z</time>
      </trkpt>
      <trkpt lat="42.511731" lon="2.460416">
        <ele>2423.752</ele>
        <time>2021-05-28T17:02:05Z</time>
      </trkpt>
      <trkpt lat="42.511716" lon="2.460437">
        <ele>2424.190</ele>
        <time>2021-05-28T17:02:09Z</time>
      </trkpt>
      <trkpt lat="42.511708" lon="2.460461">
        <ele>2425.024</ele>
        <time>2021-05-28T17:02:12Z</time>
      </trkpt>
      <trkpt lat="42.511695" lon="2.460483">
        <ele>2425.504</ele>
        <time>2021-05-28T17:02:19Z</time>
      </trkpt>
      <trkpt lat="42.511679" lon="2.460499">
        <ele>2425.814</ele>
        <time>2021-05-28T17:02:33Z</time>
      </trkpt>
      <trkpt lat="42.511661" lon="2.460508">
        <ele>2425.708</ele>
        <time>2021-05-28T17:02:39Z</time>
      </trkpt>
      <trkpt lat="42.511668" lon="2.460486">
        <ele>2424.819</ele>
        <time>2021-05-28T17:03:30Z</time>
      </trkpt>
      <trkpt lat="42.511692" lon="2.460489">
        <ele>2425.766</ele>
        <time>2021-05-28T17:03:55Z</time>
      </trkpt>
      <trkpt lat="42.511710" lon="2.460474">
        <ele>2425.687</ele>
        <time>2021-05-28T17:03:57Z</time>
      </trkpt>
      <trkpt lat="42.511724" lon="2.460457">
        <ele>2425.376</ele>
        <time>2021-05-28T17:03:59Z</time>
      </trkpt>
      <trkpt lat="42.511743" lon="2.460435">
        <ele>2424.973</ele>
        <time>2021-05-28T17:04:02Z</time>
      </trkpt>
      <trkpt lat="42.511764" lon="2.460423">
        <ele>2425.198</ele>
        <time>2021-05-28T17:04:05Z</time>
      </trkpt>
      <trkpt lat="42.511784" lon="2.460407">
        <ele>2425.155</ele>
        <time>2021-05-28T17:04:08Z</time>
      </trkpt>
      <trkpt lat="42.511802" lon="2.460391">
        <ele>2425.053</ele>
        <time>2021-05-28T17:04:11Z</time>
      </trkpt>
      <trkpt lat="42.511817" lon="2.460373">
        <ele>2424.753</ele>
        <time>2021-05-28T17:04:14Z</time>
      </trkpt>
      <trkpt lat="42.511836" lon="2.460367">
        <ele>2425.104</ele>
        <time>2021-05-28T17:04:17Z</time>
      </trkpt>
      <trkpt lat="42.511859" lon="2.460361">
        <ele>2425.614</ele>
        <time>2021-05-28T17:04:20Z</time>
      </trkpt>
      <trkpt lat="42.511882" lon="2.460351">
        <ele>2426.008</ele>
        <time>2021-05-28T17:04:25Z</time>
      </trkpt>
      <trkpt lat="42.511906" lon="2.460344">
        <ele>2426.532</ele>
        <time>2021-05-28T17:04:28Z</time>
      </trkpt>
      <trkpt lat="42.511924" lon="2.460340">
        <ele>2427.039</ele>
        <time>2021-05-28T17:04:30Z</time>
      </trkpt>
      <trkpt lat="42.511943" lon="2.460329">
        <ele>2427.250</ele>
        <time>2021-05-28T17:04:33Z</time>
      </trkpt>
      <trkpt lat="42.511960" lon="2.460300">
        <ele>2426.619</ele>
        <time>2021-05-28T17:04:36Z</time>
      </trkpt>
      <trkpt lat="42.511979" lon="2.460276">
        <ele>2426.316</ele>
        <time>2021-05-28T17:04:39Z</time>
      </trkpt>
      <trkpt lat="42.511997" lon="2.460264">
        <ele>2426.611</ele>
        <time>2021-05-28T17:04:41Z</time>
      </trkpt>
      <trkpt lat="42.512016" lon="2.460246">
        <ele>2426.798</ele>
        <time>2021-05-28T17:04:44Z</time>
      </trkpt>
      <trkpt lat="42.512037" lon="2.460241">
        <ele>2427.496</ele>
        <time>2021-05-28T17:04:47Z</time>
      </trkpt>
      <trkpt lat="42.512059" lon="2.460241">
        <ele>2428.235</ele>
        <time>2021-05-28T17:04:50Z</time>
      </trkpt>
      <trkpt lat="42.512082" lon="2.460247">
        <ele>2429.386</ele>
        <time>2021-05-28T17:04:53Z</time>
      </trkpt>
      <trkpt lat="42.512100" lon="2.460241">
        <ele>2429.814</ele>
        <time>2021-05-28T17:04:56Z</time>
      </trkpt>
      <trkpt lat="42.512118" lon="2.460228">
        <ele>2430.008</ele>
        <time>2021-05-28T17:05:00Z</time>
      </trkpt>
      <trkpt lat="42.512138" lon="2.460220">
        <ele>2430.540</ele>
        <time>2021-05-28T17:05:03Z</time>
      </trkpt>
      <trkpt lat="42.512157" lon="2.460211">
        <ele>2430.987</ele>
        <time>2021-05-28T17:05:06Z</time>
      </trkpt>
      <trkpt lat="42.512182" lon="2.460203">
        <ele>2431.548</ele>
        <time>2021-05-28T17:05:08Z</time>
      </trkpt>
      <trkpt lat="42.512209" lon="2.460197">
        <ele>2432.327</ele>
        <time>2021-05-28T17:05:11Z</time>
      </trkpt>
      <trkpt lat="42.512223" lon="2.460181">
        <ele>2432.284</ele>
        <time>2021-05-28T17:05:14Z</time>
      </trkpt>
      <trkpt lat="42.512246" lon="2.460171">
        <ele>2432.929</ele>
        <time>2021-05-28T17:05:18Z</time>
      </trkpt>
      <trkpt lat="42.512264" lon="2.460154">
        <ele>2433.056</ele>
        <time>2021-05-28T17:05:21Z</time>
      </trkpt>
      <trkpt lat="42.512279" lon="2.460141">
        <ele>2433.124</ele>
        <time>2021-05-28T17:05:24Z</time>
      </trkpt>
      <trkpt lat="42.512298" lon="2.460115">
        <ele>2432.941</ele>
        <time>2021-05-28T17:05:27Z</time>
      </trkpt>
      <trkpt lat="42.512310" lon="2.460096">
        <ele>2432.781</ele>
        <time>2021-05-28T17:05:29Z</time>
      </trkpt>
      <trkpt lat="42.512331" lon="2.460076">
        <ele>2432.809</ele>
        <time>2021-05-28T17:05:32Z</time>
      </trkpt>
      <trkpt lat="42.512357" lon="2.460056">
        <ele>2433.108</ele>
        <time>2021-05-28T17:05:35Z</time>
      </trkpt>
      <trkpt lat="42.512378" lon="2.460041">
        <ele>2433.421</ele>
        <time>2021-05-28T17:05:37Z</time>
      </trkpt>
      <trkpt lat="42.512398" lon="2.460032">
        <ele>2433.948</ele>
        <time>2021-05-28T17:05:40Z</time>
      </trkpt>
      <trkpt lat="42.512421" lon="2.460023">
        <ele>2434.659</ele>
        <time>2021-05-28T17:05:43Z</time>
      </trkpt>
      <trkpt lat="42.512439" lon="2.460015">
        <ele>2435.038</ele>
        <time>2021-05-28T17:05:45Z</time>
      </trkpt>
      <trkpt lat="42.512457" lon="2.460005">
        <ele>2435.465</ele>
        <time>2021-05-28T17:05:47Z</time>
      </trkpt>
      <trkpt lat="42.512476" lon="2.459991">
        <ele>2435.610</ele>
        <time>2021-05-28T17:05:50Z</time>
      </trkpt>
      <trkpt lat="42.512494" lon="2.459982">
        <ele>2436.157</ele>
        <time>2021-05-28T17:05:54Z</time>
      </trkpt>
      <trkpt lat="42.512518" lon="2.459988">
        <ele>2437.225</ele>
        <time>2021-05-28T17:05:58Z</time>
      </trkpt>
      <trkpt lat="42.512539" lon="2.459974">
        <ele>2437.447</ele>
        <time>2021-05-28T17:06:01Z</time>
      </trkpt>
      <trkpt lat="42.512564" lon="2.459959">
        <ele>2437.829</ele>
        <time>2021-05-28T17:06:05Z</time>
      </trkpt>
      <trkpt lat="42.512588" lon="2.459951">
        <ele>2438.321</ele>
        <time>2021-05-28T17:06:08Z</time>
      </trkpt>
      <trkpt lat="42.512607" lon="2.459946">
        <ele>2438.808</ele>
        <time>2021-05-28T17:06:11Z</time>
      </trkpt>
      <trkpt lat="42.512629" lon="2.459938">
        <ele>2439.291</ele>
        <time>2021-05-28T17:06:14Z</time>
      </trkpt>
      <trkpt lat="42.512653" lon="2.459938">
        <ele>2440.058</ele>
        <time>2021-05-28T17:06:18Z</time>
      </trkpt>
      <trkpt lat="42.512674" lon="2.459939">
        <ele>2440.849</ele>
        <time>2021-05-28T17:06:21Z</time>
      </trkpt>
      <trkpt lat="42.512694" lon="2.459935">
        <ele>2441.388</ele>
        <time>2021-05-28T17:06:25Z</time>
      </trkpt>
      <trkpt lat="42.512713" lon="2.459938">
        <ele>2442.165</ele>
        <time>2021-05-28T17:06:28Z</time>
      </trkpt>
      <trkpt lat="42.512732" lon="2.459936">
        <ele>2442.780</ele>
        <time>2021-05-28T17:06:30Z</time>
      </trkpt>
      <trkpt lat="42.512754" lon="2.459933">
        <ele>2443.377</ele>
        <time>2021-05-28T17:06:34Z</time>
      </trkpt>
      <trkpt lat="42.512778" lon="2.459929">
        <ele>2443.975</ele>
        <time>2021-05-28T17:06:38Z</time>
      </trkpt>
      <trkpt lat="42.512799" lon="2.459931">
        <ele>2444.898</ele>
        <time>2021-05-28T17:06:41Z</time>
      </trkpt>
      <trkpt lat="42.512818" lon="2.459929">
        <ele>2445.415</ele>
        <time>2021-05-28T17:06:44Z</time>
      </trkpt>
      <trkpt lat="42.512839" lon="2.459927">
        <ele>2446.126</ele>
        <time>2021-05-28T17:06:47Z</time>
      </trkpt>
      <trkpt lat="42.512822" lon="2.459939">
        <ele>2446.008</ele>
        <time>2021-05-28T17:06:51Z</time>
      </trkpt>
      <trkpt lat="42.512802" lon="2.459959">
        <ele>2446.156</ele>
        <time>2021-05-28T17:06:54Z</time>
      </trkpt>
      <trkpt lat="42.512792" lon="2.459987">
        <ele>2447.053</ele>
        <time>2021-05-28T17:06:57Z</time>
      </trkpt>
      <trkpt lat="42.512779" lon="2.460009">
        <ele>2447.524</ele>
        <time>2021-05-28T17:07:00Z</time>
      </trkpt>
      <trkpt lat="42.512758" lon="2.460028">
        <ele>2447.763</ele>
        <time>2021-05-28T17:07:03Z</time>
      </trkpt>
      <trkpt lat="42.512735" lon="2.460047">
        <ele>2447.880</ele>
        <time>2021-05-28T17:07:06Z</time>
      </trkpt>
      <trkpt lat="42.512717" lon="2.460058">
        <ele>2447.615</ele>
        <time>2021-05-28T17:07:08Z</time>
      </trkpt>
      <trkpt lat="42.512701" lon="2.460067">
        <ele>2447.532</ele>
        <time>2021-05-28T17:07:10Z</time>
      </trkpt>
      <trkpt lat="42.512683" lon="2.460084">
        <ele>2447.660</ele>
        <time>2021-05-28T17:07:12Z</time>
      </trkpt>
      <trkpt lat="42.512662" lon="2.460104">
        <ele>2447.811</ele>
        <time>2021-05-28T17:07:15Z</time>
      </trkpt>
      <trkpt lat="42.512648" lon="2.460122">
        <ele>2448.121</ele>
        <time>2021-05-28T17:07:18Z</time>
      </trkpt>
      <trkpt lat="42.512636" lon="2.460145">
        <ele>2448.703</ele>
        <time>2021-05-28T17:07:21Z</time>
      </trkpt>
      <trkpt lat="42.512626" lon="2.460173">
        <ele>2449.608</ele>
        <time>2021-05-28T17:07:25Z</time>
      </trkpt>
      <trkpt lat="42.512618" lon="2.460199">
        <ele>2450.528</ele>
        <time>2021-05-28T17:07:29Z</time>
      </trkpt>
      <trkpt lat="42.512616" lon="2.460224">
        <ele>2451.525</ele>
        <time>2021-05-28T17:07:32Z</time>
      </trkpt>
      <trkpt lat="42.512628" lon="2.460259">
        <ele>2453.786</ele>
        <time>2021-05-28T17:07:37Z</time>
      </trkpt>
      <trkpt lat="42.512647" lon="2.460271">
        <ele>2455.015</ele>
        <time>2021-05-28T17:07:44Z</time>
      </trkpt>
      <trkpt lat="42.512661" lon="2.460287">
        <ele>2456.412</ele>
        <time>2021-05-28T17:07:49Z</time>
      </trkpt>
      <trkpt lat="42.512673" lon="2.460267">
        <ele>2456.027</ele>
        <time>2021-05-28T17:07:52Z</time>
      </trkpt>
      <trkpt lat="42.512692" lon="2.460260">
        <ele>2456.474</ele>
        <time>2021-05-28T17:07:56Z</time>
      </trkpt>
      <trkpt lat="42.512708" lon="2.460246">
        <ele>2456.412</ele>
        <time>2021-05-28T17:07:58Z</time>
      </trkpt>
      <trkpt lat="42.512724" lon="2.460227">
        <ele>2456.242</ele>
        <time>2021-05-28T17:08:01Z</time>
      </trkpt>
      <trkpt lat="42.512742" lon="2.460216">
        <ele>2456.422</ele>
        <time>2021-05-28T17:08:04Z</time>
      </trkpt>
      <trkpt lat="42.512764" lon="2.460221">
        <ele>2457.614</ele>
        <time>2021-05-28T17:08:08Z</time>
      </trkpt>
      <trkpt lat="42.512784" lon="2.460209">
        <ele>2457.808</ele>
        <time>2021-05-28T17:08:11Z</time>
      </trkpt>
      <trkpt lat="42.512803" lon="2.460198">
        <ele>2458.081</ele>
        <time>2021-05-28T17:08:17Z</time>
      </trkpt>
      <trkpt lat="42.512822" lon="2.460186">
        <ele>2458.138</ele>
        <time>2021-05-28T17:08:20Z</time>
      </trkpt>
      <trkpt lat="42.512840" lon="2.460180">
        <ele>2458.589</ele>
        <time>2021-05-28T17:08:23Z</time>
      </trkpt>
      <trkpt lat="42.512863" lon="2.460172">
        <ele>2458.948</ele>
        <time>2021-05-28T17:08:27Z</time>
      </trkpt>
      <trkpt lat="42.512883" lon="2.460170">
        <ele>2459.615</ele>
        <time>2021-05-28T17:08:30Z</time>
      </trkpt>
      <trkpt lat="42.512892" lon="2.460195">
        <ele>2461.250</ele>
        <time>2021-05-28T17:08:33Z</time>
      </trkpt>
      <trkpt lat="42.512914" lon="2.460198">
        <ele>2462.217</ele>
        <time>2021-05-28T17:08:38Z</time>
      </trkpt>
      <trkpt lat="42.512937" lon="2.460186">
        <ele>2462.545</ele>
        <time>2021-05-28T17:08:43Z</time>
      </trkpt>
      <trkpt lat="42.512954" lon="2.460178">
        <ele>2462.751</ele>
        <time>2021-05-28T17:08:46Z</time>
      </trkpt>
      <trkpt lat="42.512970" lon="2.460165">
        <ele>2462.601</ele>
        <time>2021-05-28T17:08:49Z</time>
      </trkpt>
      <trkpt lat="42.512990" lon="2.460159">
        <ele>2463.111</ele>
        <time>2021-05-28T17:08:54Z</time>
      </trkpt>
      <trkpt lat="42.513009" lon="2.460163">
        <ele>2464.008</ele>
        <time>2021-05-28T17:08:59Z</time>
      </trkpt>
      <trkpt lat="42.513031" lon="2.460157">
        <ele>2464.572</ele>
        <time>2021-05-28T17:09:02Z</time>
      </trkpt>
      <trkpt lat="42.513057" lon="2.460146">
        <ele>2465.079</ele>
        <time>2021-05-28T17:09:06Z</time>
      </trkpt>
      <trkpt lat="42.513077" lon="2.460144">
        <ele>2466.170</ele>
        <time>2021-05-28T17:09:09Z</time>
      </trkpt>
      <trkpt lat="42.513098" lon="2.460144">
        <ele>2467.329</ele>
        <time>2021-05-28T17:09:13Z</time>
      </trkpt>
      <trkpt lat="42.513117" lon="2.460135">
        <ele>2467.946</ele>
        <time>2021-05-28T17:09:18Z</time>
      </trkpt>
      <trkpt lat="42.513139" lon="2.460127">
        <ele>2468.881</ele>
        <time>2021-05-28T17:09:20Z</time>
      </trkpt>
      <trkpt lat="42.513167" lon="2.460119">
        <ele>2469.958</ele>
        <time>2021-05-28T17:09:24Z</time>
      </trkpt>
      <trkpt lat="42.513164" lon="2.460144">
        <ele>2471.366</ele>
        <time>2021-05-28T17:09:30Z</time>
      </trkpt>
      <trkpt lat="42.513156" lon="2.460177">
        <ele>2472.874</ele>
        <time>2021-05-28T17:09:33Z</time>
      </trkpt>
      <trkpt lat="42.513141" lon="2.460197">
        <ele>2473.056</ele>
        <time>2021-05-28T17:09:36Z</time>
      </trkpt>
      <trkpt lat="42.513124" lon="2.460222">
        <ele>2473.421</ele>
        <time>2021-05-28T17:09:39Z</time>
      </trkpt>
      <trkpt lat="42.513105" lon="2.460248">
        <ele>2473.708</ele>
        <time>2021-05-28T17:09:42Z</time>
      </trkpt>
      <trkpt lat="42.513085" lon="2.460268">
        <ele>2473.594</ele>
        <time>2021-05-28T17:09:45Z</time>
      </trkpt>
      <trkpt lat="42.513064" lon="2.460290">
        <ele>2473.351</ele>
        <time>2021-05-28T17:09:48Z</time>
      </trkpt>
      <trkpt lat="42.513051" lon="2.460313">
        <ele>2473.882</ele>
        <time>2021-05-28T17:09:51Z</time>
      </trkpt>
      <trkpt lat="42.513040" lon="2.460333">
        <ele>2474.581</ele>
        <time>2021-05-28T17:09:54Z</time>
      </trkpt>
      <trkpt lat="42.513025" lon="2.460353">
        <ele>2475.178</ele>
        <time>2021-05-28T17:09:57Z</time>
      </trkpt>
      <trkpt lat="42.513011" lon="2.460371">
        <ele>2475.513</ele>
        <time>2021-05-28T17:10:00Z</time>
      </trkpt>
      <trkpt lat="42.512997" lon="2.460388">
        <ele>2475.940</ele>
        <time>2021-05-28T17:10:03Z</time>
      </trkpt>
      <trkpt lat="42.512983" lon="2.460408">
        <ele>2476.468</ele>
        <time>2021-05-28T17:10:06Z</time>
      </trkpt>
      <trkpt lat="42.512965" lon="2.460433">
        <ele>2477.086</ele>
        <time>2021-05-28T17:10:09Z</time>
      </trkpt>
      <trkpt lat="42.512950" lon="2.460458">
        <ele>2477.760</ele>
        <time>2021-05-28T17:10:12Z</time>
      </trkpt>
      <trkpt lat="42.512935" lon="2.460478">
        <ele>2478.126</ele>
        <time>2021-05-28T17:10:16Z</time>
      </trkpt>
      <trkpt lat="42.512915" lon="2.460492">
        <ele>2478.008</ele>
        <time>2021-05-28T17:10:21Z</time>
      </trkpt>
      <trkpt lat="42.512897" lon="2.460505">
        <ele>2477.985</ele>
        <time>2021-05-28T17:10:25Z</time>
      </trkpt>
      <trkpt lat="42.512880" lon="2.460518">
        <ele>2477.892</ele>
        <time>2021-05-28T17:10:28Z</time>
      </trkpt>
      <trkpt lat="42.512862" lon="2.460536">
        <ele>2477.913</ele>
        <time>2021-05-28T17:10:32Z</time>
      </trkpt>
      <trkpt lat="42.512853" lon="2.460560">
        <ele>2478.882</ele>
        <time>2021-05-28T17:10:37Z</time>
      </trkpt>
      <trkpt lat="42.512833" lon="2.460579">
        <ele>2479.019</ele>
        <time>2021-05-28T17:10:42Z</time>
      </trkpt>
      <trkpt lat="42.512817" lon="2.460594">
        <ele>2479.114</ele>
        <time>2021-05-28T17:10:45Z</time>
      </trkpt>
      <trkpt lat="42.512800" lon="2.460613">
        <ele>2479.431</ele>
        <time>2021-05-28T17:10:49Z</time>
      </trkpt>
      <trkpt lat="42.512797" lon="2.460638">
        <ele>2480.769</ele>
        <time>2021-05-28T17:10:54Z</time>
      </trkpt>
      <trkpt lat="42.512782" lon="2.460656">
        <ele>2481.076</ele>
        <time>2021-05-28T17:11:02Z</time>
      </trkpt>
      <trkpt lat="42.512783" lon="2.460683">
        <ele>2482.690</ele>
        <time>2021-05-28T17:11:06Z</time>
      </trkpt>
      <trkpt lat="42.512770" lon="2.460703">
        <ele>2483.219</ele>
        <time>2021-05-28T17:11:11Z</time>
      </trkpt>
      <trkpt lat="42.512759" lon="2.460724">
        <ele>2483.908</ele>
        <time>2021-05-28T17:11:16Z</time>
      </trkpt>
      <trkpt lat="42.512736" lon="2.460730">
        <ele>2483.344</ele>
        <time>2021-05-28T17:11:21Z</time>
      </trkpt>
      <trkpt lat="42.512717" lon="2.460737">
        <ele>2482.951</ele>
        <time>2021-05-28T17:11:24Z</time>
      </trkpt>
      <trkpt lat="42.512701" lon="2.460757">
        <ele>2483.412</ele>
        <time>2021-05-28T17:11:28Z</time>
      </trkpt>
      <trkpt lat="42.512695" lon="2.460783">
        <ele>2484.631</ele>
        <time>2021-05-28T17:11:33Z</time>
      </trkpt>
      <trkpt lat="42.512677" lon="2.460795">
        <ele>2484.558</ele>
        <time>2021-05-28T17:11:36Z</time>
      </trkpt>
      <trkpt lat="42.512659" lon="2.460811">
        <ele>2484.613</ele>
        <time>2021-05-28T17:11:39Z</time>
      </trkpt>
      <trkpt lat="42.512640" lon="2.460829">
        <ele>2484.880</ele>
        <time>2021-05-28T17:11:42Z</time>
      </trkpt>
      <trkpt lat="42.512638" lon="2.460858">
        <ele>2486.268</ele>
        <time>2021-05-28T17:11:45Z</time>
      </trkpt>
      <trkpt lat="42.512629" lon="2.460879">
        <ele>2486.929</ele>
        <time>2021-05-28T17:11:51Z</time>
      </trkpt>
      <trkpt lat="42.512612" lon="2.460906">
        <ele>2487.500</ele>
        <time>2021-05-28T17:11:54Z</time>
      </trkpt>
      <trkpt lat="42.512597" lon="2.460921">
        <ele>2487.620</ele>
        <time>2021-05-28T17:11:56Z</time>
      </trkpt>
      <trkpt lat="42.512582" lon="2.460946">
        <ele>2488.208</ele>
        <time>2021-05-28T17:11:59Z</time>
      </trkpt>
      <trkpt lat="42.512571" lon="2.460969">
        <ele>2488.979</ele>
        <time>2021-05-28T17:12:03Z</time>
      </trkpt>
      <trkpt lat="42.512552" lon="2.460993">
        <ele>2489.346</ele>
        <time>2021-05-28T17:12:06Z</time>
      </trkpt>
      <trkpt lat="42.512542" lon="2.461016">
        <ele>2490.017</ele>
        <time>2021-05-28T17:12:09Z</time>
      </trkpt>
      <trkpt lat="42.512525" lon="2.461028">
        <ele>2489.986</ele>
        <time>2021-05-28T17:12:12Z</time>
      </trkpt>
      <trkpt lat="42.512504" lon="2.461035">
        <ele>2489.353</ele>
        <time>2021-05-28T17:12:15Z</time>
      </trkpt>
      <trkpt lat="42.512484" lon="2.461035">
        <ele>2488.568</ele>
        <time>2021-05-28T17:12:17Z</time>
      </trkpt>
      <trkpt lat="42.512467" lon="2.461044">
        <ele>2488.375</ele>
        <time>2021-05-28T17:12:19Z</time>
      </trkpt>
      <trkpt lat="42.512452" lon="2.461068">
        <ele>2488.933</ele>
        <time>2021-05-28T17:12:22Z</time>
      </trkpt>
      <trkpt lat="42.512436" lon="2.461088">
        <ele>2489.381</ele>
        <time>2021-05-28T17:12:25Z</time>
      </trkpt>
      <trkpt lat="42.512419" lon="2.461101">
        <ele>2489.361</ele>
        <time>2021-05-28T17:12:28Z</time>
      </trkpt>
      <trkpt lat="42.512402" lon="2.461115">
        <ele>2489.417</ele>
        <time>2021-05-28T17:12:31Z</time>
      </trkpt>
      <trkpt lat="42.512386" lon="2.461137">
        <ele>2490.108</ele>
        <time>2021-05-28T17:12:35Z</time>
      </trkpt>
      <trkpt lat="42.512396" lon="2.461164">
        <ele>2492.185</ele>
        <time>2021-05-28T17:12:39Z</time>
      </trkpt>
      <trkpt lat="42.512416" lon="2.461160">
        <ele>2492.662</ele>
        <time>2021-05-28T17:12:44Z</time>
      </trkpt>
      <trkpt lat="42.512435" lon="2.461157">
        <ele>2493.173</ele>
        <time>2021-05-28T17:12:49Z</time>
      </trkpt>
      <trkpt lat="42.512456" lon="2.461163">
        <ele>2494.342</ele>
        <time>2021-05-28T17:12:54Z</time>
      </trkpt>
      <trkpt lat="42.512474" lon="2.461160">
        <ele>2494.859</ele>
        <time>2021-05-28T17:12:57Z</time>
      </trkpt>
      <trkpt lat="42.512493" lon="2.461156">
        <ele>2495.364</ele>
        <time>2021-05-28T17:13:00Z</time>
      </trkpt>
      <trkpt lat="42.512514" lon="2.461154">
        <ele>2496.131</ele>
        <time>2021-05-28T17:13:03Z</time>
      </trkpt>
      <trkpt lat="42.512532" lon="2.461148">
        <ele>2496.519</ele>
        <time>2021-05-28T17:13:10Z</time>
      </trkpt>
      <trkpt lat="42.512551" lon="2.461138">
        <ele>2496.817</ele>
        <time>2021-05-28T17:13:13Z</time>
      </trkpt>
      <trkpt lat="42.512566" lon="2.461122">
        <ele>2496.587</ele>
        <time>2021-05-28T17:13:16Z</time>
      </trkpt>
      <trkpt lat="42.512583" lon="2.461106">
        <ele>2496.315</ele>
        <time>2021-05-28T17:13:19Z</time>
      </trkpt>
      <trkpt lat="42.512598" lon="2.461087">
        <ele>2496.008</ele>
        <time>2021-05-28T17:13:22Z</time>
      </trkpt>
      <trkpt lat="42.512620" lon="2.461077">
        <ele>2496.538</ele>
        <time>2021-05-28T17:13:24Z</time>
      </trkpt>
      <trkpt lat="42.512645" lon="2.461068">
        <ele>2497.175</ele>
        <time>2021-05-28T17:13:26Z</time>
      </trkpt>
      <trkpt lat="42.512668" lon="2.461061">
        <ele>2497.776</ele>
        <time>2021-05-28T17:13:29Z</time>
      </trkpt>
      <trkpt lat="42.512666" lon="2.461096">
        <ele>2499.495</ele>
        <time>2021-05-28T17:13:38Z</time>
      </trkpt>
      <trkpt lat="42.512683" lon="2.461112">
        <ele>2501.052</ele>
        <time>2021-05-28T17:13:49Z</time>
      </trkpt>
      <trkpt lat="42.512703" lon="2.461104">
        <ele>2501.447</ele>
        <time>2021-05-28T17:13:53Z</time>
      </trkpt>
      <trkpt lat="42.512724" lon="2.461101">
        <ele>2502.264</ele>
        <time>2021-05-28T17:13:58Z</time>
      </trkpt>
      <trkpt lat="42.512746" lon="2.461108">
        <ele>2503.542</ele>
        <time>2021-05-28T17:14:06Z</time>
      </trkpt>
      <trkpt lat="42.512764" lon="2.461118">
        <ele>2504.887</ele>
        <time>2021-05-28T17:14:11Z</time>
      </trkpt>
      <trkpt lat="42.512783" lon="2.461124">
        <ele>2506.042</ele>
        <time>2021-05-28T17:14:15Z</time>
      </trkpt>
      <trkpt lat="42.512803" lon="2.461116">
        <ele>2506.626</ele>
        <time>2021-05-28T17:14:19Z</time>
      </trkpt>
      <trkpt lat="42.512825" lon="2.461117">
        <ele>2507.908</ele>
        <time>2021-05-28T17:14:23Z</time>
      </trkpt>
      <trkpt lat="42.512841" lon="2.461130">
        <ele>2509.575</ele>
        <time>2021-05-28T17:14:29Z</time>
      </trkpt>
      <trkpt lat="42.512864" lon="2.461136">
        <ele>2511.022</ele>
        <time>2021-05-28T17:14:50Z</time>
      </trkpt>
      <trkpt lat="42.512877" lon="2.461161">
        <ele>2513.083</ele>
        <time>2021-05-28T17:14:55Z</time>
      </trkpt>
      <trkpt lat="42.512901" lon="2.461161">
        <ele>2514.372</ele>
        <time>2021-05-28T17:15:01Z</time>
      </trkpt>
      <trkpt lat="42.512919" lon="2.461155">
        <ele>2514.929</ele>
        <time>2021-05-28T17:15:05Z</time>
      </trkpt>
      <trkpt lat="42.512937" lon="2.461158">
        <ele>2516.044</ele>
        <time>2021-05-28T17:15:11Z</time>
      </trkpt>
      <trkpt lat="42.512957" lon="2.461158">
        <ele>2517.151</ele>
        <time>2021-05-28T17:15:16Z</time>
      </trkpt>
      <trkpt lat="42.512954" lon="2.461189">
        <ele>2518.549</ele>
        <time>2021-05-28T17:15:36Z</time>
      </trkpt>
      <trkpt lat="42.512943" lon="2.461218">
        <ele>2519.433</ele>
        <time>2021-05-28T17:15:40Z</time>
      </trkpt>
      <trkpt lat="42.512961" lon="2.461237">
        <ele>2521.223</ele>
        <time>2021-05-28T17:15:51Z</time>
      </trkpt>
      <trkpt lat="42.512981" lon="2.461238">
        <ele>2522.315</ele>
        <time>2021-05-28T17:15:56Z</time>
      </trkpt>
      <trkpt lat="42.513000" lon="2.461224">
        <ele>2522.508</ele>
        <time>2021-05-28T17:16:02Z</time>
      </trkpt>
      <trkpt lat="42.513017" lon="2.461235">
        <ele>2523.990</ele>
        <time>2021-05-28T17:16:10Z</time>
      </trkpt>
      <trkpt lat="42.513037" lon="2.461250">
        <ele>2525.667</ele>
        <time>2021-05-28T17:16:15Z</time>
      </trkpt>
      <trkpt lat="42.513058" lon="2.461251">
        <ele>2526.748</ele>
        <time>2021-05-28T17:16:26Z</time>
      </trkpt>
      <trkpt lat="42.513065" lon="2.461276">
        <ele>2528.397</ele>
        <time>2021-05-28T17:16:58Z</time>
      </trkpt>
      <trkpt lat="42.513082" lon="2.461284">
        <ele>2529.614</ele>
        <time>2021-05-28T17:17:07Z</time>
      </trkpt>
      <trkpt lat="42.513087" lon="2.461312">
        <ele>2531.159</ele>
        <time>2021-05-28T17:17:15Z</time>
      </trkpt>
      <trkpt lat="42.513078" lon="2.461335">
        <ele>2531.766</ele>
        <time>2021-05-28T17:17:19Z</time>
      </trkpt>
      <trkpt lat="42.513094" lon="2.461357">
        <ele>2533.594</ele>
        <time>2021-05-28T17:17:28Z</time>
      </trkpt>
      <trkpt lat="42.513113" lon="2.461352">
        <ele>2534.337</ele>
        <time>2021-05-28T17:17:32Z</time>
      </trkpt>
      <trkpt lat="42.513132" lon="2.461353">
        <ele>2535.449</ele>
        <time>2021-05-28T17:17:36Z</time>
      </trkpt>
      <trkpt lat="42.513151" lon="2.461342">
        <ele>2535.913</ele>
        <time>2021-05-28T17:17:40Z</time>
      </trkpt>
      <trkpt lat="42.513170" lon="2.461325">
        <ele>2536.308</ele>
        <time>2021-05-28T17:17:53Z</time>
      </trkpt>
      <trkpt lat="42.513188" lon="2.461321">
        <ele>2537.150</ele>
        <time>2021-05-28T17:18:00Z</time>
      </trkpt>
      <trkpt lat="42.513210" lon="2.461315">
        <ele>2538.157</ele>
        <time>2021-05-28T17:18:06Z</time>
      </trkpt>
      <trkpt lat="42.513228" lon="2.461295">
        <ele>2538.318</ele>
        <time>2021-05-28T17:18:10Z</time>
      </trkpt>
      <trkpt lat="42.513246" lon="2.461287">
        <ele>2539.177</ele>
        <time>2021-05-28T17:18:16Z</time>
      </trkpt>
      <trkpt lat="42.513264" lon="2.461283">
        <ele>2540.084</ele>
        <time>2021-05-28T17:18:19Z</time>
      </trkpt>
      <trkpt lat="42.513276" lon="2.461264">
        <ele>2540.139</ele>
        <time>2021-05-28T17:18:22Z</time>
      </trkpt>
      <trkpt lat="42.513283" lon="2.461237">
        <ele>2539.686</ele>
        <time>2021-05-28T17:18:26Z</time>
      </trkpt>
      <trkpt lat="42.513299" lon="2.461224">
        <ele>2540.234</ele>
        <time>2021-05-28T17:18:30Z</time>
      </trkpt>
      <trkpt lat="42.513314" lon="2.461246">
        <ele>2541.768</ele>
        <time>2021-05-28T17:18:39Z</time>
      </trkpt>
      <trkpt lat="42.513329" lon="2.461263">
        <ele>2543.142</ele>
        <time>2021-05-28T17:18:44Z</time>
      </trkpt>
      <trkpt lat="42.513350" lon="2.461256">
        <ele>2544.226</ele>
        <time>2021-05-28T17:19:04Z</time>
      </trkpt>
      <trkpt lat="42.513368" lon="2.461257">
        <ele>2545.308</ele>
        <time>2021-05-28T17:19:07Z</time>
      </trkpt>
      <trkpt lat="42.513387" lon="2.461267">
        <ele>2546.873</ele>
        <time>2021-05-28T17:19:12Z</time>
      </trkpt>
      <trkpt lat="42.513396" lon="2.461295">
        <ele>2548.160</ele>
        <time>2021-05-28T17:19:17Z</time>
      </trkpt>
      <trkpt lat="42.513407" lon="2.461316">
        <ele>2549.351</ele>
        <time>2021-05-28T17:19:25Z</time>
      </trkpt>
      <trkpt lat="42.513415" lon="2.461341">
        <ele>2550.410</ele>
        <time>2021-05-28T17:19:30Z</time>
      </trkpt>
      <trkpt lat="42.513431" lon="2.461325">
        <ele>2550.927</ele>
        <time>2021-05-28T17:19:37Z</time>
      </trkpt>
      <trkpt lat="42.513442" lon="2.461350">
        <ele>2552.242</ele>
        <time>2021-05-28T17:19:49Z</time>
      </trkpt>
      <trkpt lat="42.513445" lon="2.461375">
        <ele>2553.179</ele>
        <time>2021-05-28T17:19:56Z</time>
      </trkpt>
      <trkpt lat="42.513460" lon="2.461400">
        <ele>2554.617</ele>
        <time>2021-05-28T17:20:02Z</time>
      </trkpt>
      <trkpt lat="42.513459" lon="2.461429">
        <ele>2555.469</ele>
        <time>2021-05-28T17:20:07Z</time>
      </trkpt>
      <trkpt lat="42.513450" lon="2.461451">
        <ele>2555.504</ele>
        <time>2021-05-28T17:20:14Z</time>
      </trkpt>
      <trkpt lat="42.513451" lon="2.461479">
        <ele>2556.424</ele>
        <time>2021-05-28T17:20:19Z</time>
      </trkpt>
      <trkpt lat="42.513448" lon="2.461510">
        <ele>2557.208</ele>
        <time>2021-05-28T17:20:24Z</time>
      </trkpt>
      <trkpt lat="42.513440" lon="2.461538">
        <ele>2557.623</ele>
        <time>2021-05-28T17:20:27Z</time>
      </trkpt>
      <trkpt lat="42.513435" lon="2.461563">
        <ele>2558.070</ele>
        <time>2021-05-28T17:20:30Z</time>
      </trkpt>
      <trkpt lat="42.513436" lon="2.461589">
        <ele>2558.961</ele>
        <time>2021-05-28T17:20:33Z</time>
      </trkpt>
      <trkpt lat="42.513430" lon="2.461619">
        <ele>2559.410</ele>
        <time>2021-05-28T17:20:40Z</time>
      </trkpt>
      <trkpt lat="42.513424" lon="2.461648">
        <ele>2560.017</ele>
        <time>2021-05-28T17:20:44Z</time>
      </trkpt>
      <trkpt lat="42.513437" lon="2.461665">
        <ele>2561.292</ele>
        <time>2021-05-28T17:20:50Z</time>
      </trkpt>
      <trkpt lat="42.513455" lon="2.461649">
        <ele>2561.699</ele>
        <time>2021-05-28T17:20:54Z</time>
      </trkpt>
      <trkpt lat="42.513473" lon="2.461632">
        <ele>2562.027</ele>
        <time>2021-05-28T17:21:05Z</time>
      </trkpt>
      <trkpt lat="42.513490" lon="2.461618">
        <ele>2562.596</ele>
        <time>2021-05-28T17:21:08Z</time>
      </trkpt>
      <trkpt lat="42.513509" lon="2.461607">
        <ele>2563.231</ele>
        <time>2021-05-28T17:21:12Z</time>
      </trkpt>
      <trkpt lat="42.513528" lon="2.461590">
        <ele>2563.724</ele>
        <time>2021-05-28T17:21:16Z</time>
      </trkpt>
      <trkpt lat="42.513540" lon="2.461571">
        <ele>2563.808</ele>
        <time>2021-05-28T17:21:18Z</time>
      </trkpt>
      <trkpt lat="42.513555" lon="2.461549">
        <ele>2564.056</ele>
        <time>2021-05-28T17:21:20Z</time>
      </trkpt>
      <trkpt lat="42.513570" lon="2.461525">
        <ele>2564.283</ele>
        <time>2021-05-28T17:21:22Z</time>
      </trkpt>
      <trkpt lat="42.513581" lon="2.461500">
        <ele>2564.224</ele>
        <time>2021-05-28T17:21:24Z</time>
      </trkpt>
      <trkpt lat="42.513593" lon="2.461477">
        <ele>2564.263</ele>
        <time>2021-05-28T17:21:26Z</time>
      </trkpt>
      <trkpt lat="42.513605" lon="2.461449">
        <ele>2564.230</ele>
        <time>2021-05-28T17:21:29Z</time>
      </trkpt>
      <trkpt lat="42.513616" lon="2.461425">
        <ele>2564.255</ele>
        <time>2021-05-28T17:21:32Z</time>
      </trkpt>
      <trkpt lat="42.513625" lon="2.461400">
        <ele>2564.192</ele>
        <time>2021-05-28T17:21:35Z</time>
      </trkpt>
      <trkpt lat="42.513638" lon="2.461374">
        <ele>2564.290</ele>
        <time>2021-05-28T17:21:39Z</time>
      </trkpt>
      <trkpt lat="42.513648" lon="2.461345">
        <ele>2564.138</ele>
        <time>2021-05-28T17:21:43Z</time>
      </trkpt>
      <trkpt lat="42.513655" lon="2.461319">
        <ele>2563.970</ele>
        <time>2021-05-28T17:21:46Z</time>
      </trkpt>
      <trkpt lat="42.513668" lon="2.461300">
        <ele>2564.117</ele>
        <time>2021-05-28T17:21:49Z</time>
      </trkpt>
      <trkpt lat="42.513680" lon="2.461274">
        <ele>2564.108</ele>
        <time>2021-05-28T17:21:53Z</time>
      </trkpt>
      <trkpt lat="42.513690" lon="2.461252">
        <ele>2564.070</ele>
        <time>2021-05-28T17:21:56Z</time>
      </trkpt>
      <trkpt lat="42.513705" lon="2.461235">
        <ele>2564.317</ele>
        <time>2021-05-28T17:21:59Z</time>
      </trkpt>
      <trkpt lat="42.513722" lon="2.461221">
        <ele>2564.828</ele>
        <time>2021-05-28T17:22:02Z</time>
      </trkpt>
      <trkpt lat="42.513734" lon="2.461196">
        <ele>2564.747</ele>
        <time>2021-05-28T17:22:05Z</time>
      </trkpt>
      <trkpt lat="42.513748" lon="2.461174">
        <ele>2564.714</ele>
        <time>2021-05-28T17:22:09Z</time>
      </trkpt>
      <trkpt lat="42.513763" lon="2.461147">
        <ele>2564.619</ele>
        <time>2021-05-28T17:22:12Z</time>
      </trkpt>
      <trkpt lat="42.513780" lon="2.461122">
        <ele>2564.636</ele>
        <time>2021-05-28T17:22:15Z</time>
      </trkpt>
      <trkpt lat="42.513794" lon="2.461105">
        <ele>2564.594</ele>
        <time>2021-05-28T17:22:18Z</time>
      </trkpt>
      <trkpt lat="42.513814" lon="2.461094">
        <ele>2564.782</ele>
        <time>2021-05-28T17:22:21Z</time>
      </trkpt>
      <trkpt lat="42.513833" lon="2.461088">
        <ele>2565.243</ele>
        <time>2021-05-28T17:22:24Z</time>
      </trkpt>
      <trkpt lat="42.513853" lon="2.461078">
        <ele>2565.417</ele>
        <time>2021-05-28T17:22:29Z</time>
      </trkpt>
      <trkpt lat="42.513875" lon="2.461073">
        <ele>2566.008</ele>
        <time>2021-05-28T17:22:33Z</time>
      </trkpt>
      <trkpt lat="42.513898" lon="2.461084">
        <ele>2567.555</ele>
        <time>2021-05-28T17:22:41Z</time>
      </trkpt>
      <trkpt lat="42.513916" lon="2.461096">
        <ele>2568.832</ele>
        <time>2021-05-28T17:22:44Z</time>
      </trkpt>
      <trkpt lat="42.513934" lon="2.461104">
        <ele>2569.823</ele>
        <time>2021-05-28T17:22:46Z</time>
      </trkpt>
      <trkpt lat="42.513956" lon="2.461115">
        <ele>2571.142</ele>
        <time>2021-05-28T17:22:49Z</time>
      </trkpt>
      <trkpt lat="42.513972" lon="2.461128">
        <ele>2572.139</ele>
        <time>2021-05-28T17:22:51Z</time>
      </trkpt>
      <trkpt lat="42.513985" lon="2.461148">
        <ele>2573.334</ele>
        <time>2021-05-28T17:22:55Z</time>
      </trkpt>
      <trkpt lat="42.514000" lon="2.461163">
        <ele>2574.441</ele>
        <time>2021-05-28T17:22:59Z</time>
      </trkpt>
      <trkpt lat="42.514022" lon="2.461175">
        <ele>2575.749</ele>
        <time>2021-05-28T17:23:03Z</time>
      </trkpt>
      <trkpt lat="42.514038" lon="2.461187">
        <ele>2576.875</ele>
        <time>2021-05-28T17:23:06Z</time>
      </trkpt>
      <trkpt lat="42.514064" lon="2.461191">
        <ele>2577.828</ele>
        <time>2021-05-28T17:23:09Z</time>
      </trkpt>
      <trkpt lat="42.514081" lon="2.461202">
        <ele>2578.920</ele>
        <time>2021-05-28T17:23:13Z</time>
      </trkpt>
      <trkpt lat="42.514102" lon="2.461206">
        <ele>2579.908</ele>
        <time>2021-05-28T17:23:18Z</time>
      </trkpt>
      <trkpt lat="42.514127" lon="2.461204">
        <ele>2580.614</ele>
        <time>2021-05-28T17:23:23Z</time>
      </trkpt>
      <trkpt lat="42.514148" lon="2.461186">
        <ele>2580.411</ele>
        <time>2021-05-28T17:23:26Z</time>
      </trkpt>
      <trkpt lat="42.514166" lon="2.461171">
        <ele>2580.282</ele>
        <time>2021-05-28T17:23:28Z</time>
      </trkpt>
      <trkpt lat="42.514185" lon="2.461149">
        <ele>2579.811</ele>
        <time>2021-05-28T17:23:31Z</time>
      </trkpt>
      <trkpt lat="42.514204" lon="2.461123">
        <ele>2579.228</ele>
        <time>2021-05-28T17:23:35Z</time>
      </trkpt>
      <trkpt lat="42.514221" lon="2.461102">
        <ele>2578.843</ele>
        <time>2021-05-28T17:23:38Z</time>
      </trkpt>
      <trkpt lat="42.514242" lon="2.461088">
        <ele>2578.930</ele>
        <time>2021-05-28T17:23:40Z</time>
      </trkpt>
      <trkpt lat="42.514260" lon="2.461074">
        <ele>2579.018</ele>
        <time>2021-05-28T17:23:43Z</time>
      </trkpt>
      <trkpt lat="42.514285" lon="2.461066">
        <ele>2579.736</ele>
        <time>2021-05-28T17:23:46Z</time>
      </trkpt>
      <trkpt lat="42.514304" lon="2.461066">
        <ele>2580.717</ele>
        <time>2021-05-28T17:23:48Z</time>
      </trkpt>
      <trkpt lat="42.514324" lon="2.461062">
        <ele>2581.418</ele>
        <time>2021-05-28T17:23:53Z</time>
      </trkpt>
      <trkpt lat="42.514344" lon="2.461055">
        <ele>2582.108</ele>
        <time>2021-05-28T17:23:55Z</time>
      </trkpt>
      <trkpt lat="42.514371" lon="2.461028">
        <ele>2582.250</ele>
        <time>2021-05-28T17:23:58Z</time>
      </trkpt>
      <trkpt lat="42.514386" lon="2.461006">
        <ele>2582.177</ele>
        <time>2021-05-28T17:24:00Z</time>
      </trkpt>
      <trkpt lat="42.514400" lon="2.460982">
        <ele>2581.898</ele>
        <time>2021-05-28T17:24:02Z</time>
      </trkpt>
      <trkpt lat="42.514415" lon="2.460963">
        <ele>2581.977</ele>
        <time>2021-05-28T17:24:04Z</time>
      </trkpt>
      <trkpt lat="42.514432" lon="2.460944">
        <ele>2582.264</ele>
        <time>2021-05-28T17:24:07Z</time>
      </trkpt>
      <trkpt lat="42.514446" lon="2.460926">
        <ele>2582.569</ele>
        <time>2021-05-28T17:24:12Z</time>
      </trkpt>
      <trkpt lat="42.514462" lon="2.460907">
        <ele>2583.016</ele>
        <time>2021-05-28T17:24:21Z</time>
      </trkpt>
      <trkpt lat="42.514469" lon="2.460875">
        <ele>2582.474</ele>
        <time>2021-05-28T17:24:26Z</time>
      </trkpt>
      <trkpt lat="42.514478" lon="2.460847">
        <ele>2582.075</ele>
        <time>2021-05-28T17:24:29Z</time>
      </trkpt>
      <trkpt lat="42.514482" lon="2.460816">
        <ele>2581.228</ele>
        <time>2021-05-28T17:24:32Z</time>
      </trkpt>
      <trkpt lat="42.514493" lon="2.460785">
        <ele>2580.820</ele>
        <time>2021-05-28T17:24:35Z</time>
      </trkpt>
      <trkpt lat="42.514510" lon="2.460768">
        <ele>2581.408</ele>
        <time>2021-05-28T17:24:38Z</time>
      </trkpt>
      <trkpt lat="42.514529" lon="2.460762">
        <ele>2582.614</ele>
        <time>2021-05-28T17:24:41Z</time>
      </trkpt>
      <trkpt lat="42.514549" lon="2.460755">
        <ele>2583.811</ele>
        <time>2021-05-28T17:24:44Z</time>
      </trkpt>
      <trkpt lat="42.514565" lon="2.460738">
        <ele>2584.292</ele>
        <time>2021-05-28T17:24:48Z</time>
      </trkpt>
      <trkpt lat="42.514585" lon="2.460729">
        <ele>2585.331</ele>
        <time>2021-05-28T17:24:57Z</time>
      </trkpt>
      <trkpt lat="42.514604" lon="2.460720">
        <ele>2586.398</ele>
        <time>2021-05-28T17:25:00Z</time>
      </trkpt>
      <trkpt lat="42.514622" lon="2.460710">
        <ele>2587.163</ele>
        <time>2021-05-28T17:25:02Z</time>
      </trkpt>
      <trkpt lat="42.514642" lon="2.460706">
        <ele>2588.480</ele>
        <time>2021-05-28T17:25:04Z</time>
      </trkpt>
      <trkpt lat="42.514662" lon="2.460702">
        <ele>2589.668</ele>
        <time>2021-05-28T17:25:06Z</time>
      </trkpt>
      <trkpt lat="42.514684" lon="2.460696">
        <ele>2590.961</ele>
        <time>2021-05-28T17:25:09Z</time>
      </trkpt>
      <trkpt lat="42.514707" lon="2.460699">
        <ele>2592.621</ele>
        <time>2021-05-28T17:25:11Z</time>
      </trkpt>
      <trkpt lat="42.514734" lon="2.460707">
        <ele>2594.913</ele>
        <time>2021-05-28T17:25:15Z</time>
      </trkpt>
      <trkpt lat="42.514745" lon="2.460686">
        <ele>2594.608</ele>
        <time>2021-05-28T17:25:25Z</time>
      </trkpt>
      <trkpt lat="42.514766" lon="2.460674">
        <ele>2595.513</ele>
        <time>2021-05-28T17:25:28Z</time>
      </trkpt>
      <trkpt lat="42.514782" lon="2.460652">
        <ele>2595.520</ele>
        <time>2021-05-28T17:25:31Z</time>
      </trkpt>
      <trkpt lat="42.514795" lon="2.460631">
        <ele>2595.471</ele>
        <time>2021-05-28T17:25:34Z</time>
      </trkpt>
      <trkpt lat="42.514807" lon="2.460609">
        <ele>2595.220</ele>
        <time>2021-05-28T17:25:36Z</time>
      </trkpt>
      <trkpt lat="42.514819" lon="2.460583">
        <ele>2594.997</ele>
        <time>2021-05-28T17:25:39Z</time>
      </trkpt>
      <trkpt lat="42.514836" lon="2.460565">
        <ele>2595.232</ele>
        <time>2021-05-28T17:25:43Z</time>
      </trkpt>
      <trkpt lat="42.514851" lon="2.460550">
        <ele>2595.629</ele>
        <time>2021-05-28T17:25:49Z</time>
      </trkpt>
      <trkpt lat="42.514874" lon="2.460536">
        <ele>2596.567</ele>
        <time>2021-05-28T17:25:53Z</time>
      </trkpt>
      <trkpt lat="42.514889" lon="2.460520">
        <ele>2596.867</ele>
        <time>2021-05-28T17:25:55Z</time>
      </trkpt>
      <trkpt lat="42.514907" lon="2.460510">
        <ele>2597.681</ele>
        <time>2021-05-28T17:25:57Z</time>
      </trkpt>
      <trkpt lat="42.514918" lon="2.460482">
        <ele>2597.119</ele>
        <time>2021-05-28T17:26:00Z</time>
      </trkpt>
      <trkpt lat="42.514924" lon="2.460453">
        <ele>2596.308</ele>
        <time>2021-05-28T17:26:02Z</time>
      </trkpt>
      <trkpt lat="42.514951" lon="2.460387">
        <ele>2595.343</ele>
        <time>2021-05-28T17:26:07Z</time>
      </trkpt>
      <trkpt lat="42.514957" lon="2.460359">
        <ele>2594.530</ele>
        <time>2021-05-28T17:26:10Z</time>
      </trkpt>
      <trkpt lat="42.514976" lon="2.460334">
        <ele>2594.741</ele>
        <time>2021-05-28T17:26:13Z</time>
      </trkpt>
      <trkpt lat="42.514992" lon="2.460317">
        <ele>2595.110</ele>
        <time>2021-05-28T17:26:15Z</time>
      </trkpt>
      <trkpt lat="42.515006" lon="2.460301">
        <ele>2595.437</ele>
        <time>2021-05-28T17:26:17Z</time>
      </trkpt>
      <trkpt lat="42.515029" lon="2.460292">
        <ele>2596.722</ele>
        <time>2021-05-28T17:26:21Z</time>
      </trkpt>
      <trkpt lat="42.515038" lon="2.460268">
        <ele>2596.369</ele>
        <time>2021-05-28T17:26:24Z</time>
      </trkpt>
      <trkpt lat="42.515060" lon="2.460250">
        <ele>2597.137</ele>
        <time>2021-05-28T17:26:28Z</time>
      </trkpt>
      <trkpt lat="42.515080" lon="2.460250">
        <ele>2598.519</ele>
        <time>2021-05-28T17:26:33Z</time>
      </trkpt>
      <trkpt lat="42.515106" lon="2.460220">
        <ele>2599.109</ele>
        <time>2021-05-28T17:26:38Z</time>
      </trkpt>
      <trkpt lat="42.515122" lon="2.460189">
        <ele>2598.819</ele>
        <time>2021-05-28T17:26:42Z</time>
      </trkpt>
      <trkpt lat="42.515146" lon="2.460198">
        <ele>2600.908</ele>
        <time>2021-05-28T17:26:47Z</time>
      </trkpt>
      <trkpt lat="42.515164" lon="2.460202">
        <ele>2602.448</ele>
        <time>2021-05-28T17:26:49Z</time>
      </trkpt>
      <trkpt lat="42.515180" lon="2.460182">
        <ele>2602.645</ele>
        <time>2021-05-28T17:26:51Z</time>
      </trkpt>
      <trkpt lat="42.515195" lon="2.460169">
        <ele>2603.166</ele>
        <time>2021-05-28T17:26:54Z</time>
      </trkpt>
      <trkpt lat="42.515203" lon="2.460140">
        <ele>2602.385</ele>
        <time>2021-05-28T17:26:57Z</time>
      </trkpt>
      <trkpt lat="42.515207" lon="2.460115">
        <ele>2601.452</ele>
        <time>2021-05-28T17:27:04Z</time>
      </trkpt>
      <trkpt lat="42.515233" lon="2.460101">
        <ele>2602.637</ele>
        <time>2021-05-28T17:27:07Z</time>
      </trkpt>
      <trkpt lat="42.515250" lon="2.460083">
        <ele>2603.074</ele>
        <time>2021-05-28T17:27:10Z</time>
      </trkpt>
      <trkpt lat="42.515258" lon="2.460060">
        <ele>2602.462</ele>
        <time>2021-05-28T17:27:14Z</time>
      </trkpt>
      <trkpt lat="42.515286" lon="2.460060">
        <ele>2604.412</ele>
        <time>2021-05-28T17:27:18Z</time>
      </trkpt>
      <trkpt lat="42.515294" lon="2.460035">
        <ele>2603.932</ele>
        <time>2021-05-28T17:27:21Z</time>
      </trkpt>
      <trkpt lat="42.515307" lon="2.460013">
        <ele>2603.805</ele>
        <time>2021-05-28T17:27:25Z</time>
      </trkpt>
      <trkpt lat="42.515320" lon="2.459992">
        <ele>2603.908</ele>
        <time>2021-05-28T17:27:32Z</time>
      </trkpt>
      <trkpt lat="42.515335" lon="2.459975">
        <ele>2604.418</ele>
        <time>2021-05-28T17:27:35Z</time>
      </trkpt>
      <trkpt lat="42.515340" lon="2.459952">
        <ele>2603.915</ele>
        <time>2021-05-28T17:27:37Z</time>
      </trkpt>
      <trkpt lat="42.515344" lon="2.459919">
        <ele>2603.066</ele>
        <time>2021-05-28T17:27:41Z</time>
      </trkpt>
      <trkpt lat="42.515351" lon="2.459888">
        <ele>2602.465</ele>
        <time>2021-05-28T17:27:45Z</time>
      </trkpt>
      <trkpt lat="42.515361" lon="2.459855">
        <ele>2601.912</ele>
        <time>2021-05-28T17:27:48Z</time>
      </trkpt>
      <trkpt lat="42.515379" lon="2.459826">
        <ele>2602.297</ele>
        <time>2021-05-28T17:27:53Z</time>
      </trkpt>
      <trkpt lat="42.515398" lon="2.459812">
        <ele>2603.014</ele>
        <time>2021-05-28T17:27:56Z</time>
      </trkpt>
      <trkpt lat="42.515419" lon="2.459811">
        <ele>2604.522</ele>
        <time>2021-05-28T17:27:59Z</time>
      </trkpt>
      <trkpt lat="42.515437" lon="2.459795">
        <ele>2605.268</ele>
        <time>2021-05-28T17:28:02Z</time>
      </trkpt>
      <trkpt lat="42.515459" lon="2.459784">
        <ele>2606.442</ele>
        <time>2021-05-28T17:28:05Z</time>
      </trkpt>
      <trkpt lat="42.515482" lon="2.459791">
        <ele>2608.426</ele>
        <time>2021-05-28T17:28:08Z</time>
      </trkpt>
      <trkpt lat="42.515504" lon="2.459775">
        <ele>2609.308</ele>
        <time>2021-05-28T17:28:10Z</time>
      </trkpt>
      <trkpt lat="42.515515" lon="2.459751">
        <ele>2609.283</ele>
        <time>2021-05-28T17:28:12Z</time>
      </trkpt>
      <trkpt lat="42.515531" lon="2.459726">
        <ele>2609.480</ele>
        <time>2021-05-28T17:28:18Z</time>
      </trkpt>
      <trkpt lat="42.515543" lon="2.459693">
        <ele>2609.161</ele>
        <time>2021-05-28T17:28:23Z</time>
      </trkpt>
      <trkpt lat="42.515549" lon="2.459665">
        <ele>2608.790</ele>
        <time>2021-05-28T17:28:25Z</time>
      </trkpt>
      <trkpt lat="42.515560" lon="2.459687">
        <ele>2610.227</ele>
        <time>2021-05-28T17:28:28Z</time>
      </trkpt>
      <trkpt lat="42.515576" lon="2.459705">
        <ele>2612.172</ele>
        <time>2021-05-28T17:28:33Z</time>
      </trkpt>
      <trkpt lat="42.515595" lon="2.459689">
        <ele>2613.019</ele>
        <time>2021-05-28T17:28:37Z</time>
      </trkpt>
      <trkpt lat="42.515612" lon="2.459669">
        <ele>2613.737</ele>
        <time>2021-05-28T17:28:41Z</time>
      </trkpt>
      <trkpt lat="42.515621" lon="2.459638">
        <ele>2613.411</ele>
        <time>2021-05-28T17:28:45Z</time>
      </trkpt>
      <trkpt lat="42.515630" lon="2.459602">
        <ele>2612.921</ele>
        <time>2021-05-28T17:28:50Z</time>
      </trkpt>
      <trkpt lat="42.515635" lon="2.459570">
        <ele>2612.203</ele>
        <time>2021-05-28T17:28:53Z</time>
      </trkpt>
      <trkpt lat="42.515650" lon="2.459551">
        <ele>2612.708</ele>
        <time>2021-05-28T17:28:56Z</time>
      </trkpt>
      <trkpt lat="42.515663" lon="2.459529">
        <ele>2613.028</ele>
        <time>2021-05-28T17:29:00Z</time>
      </trkpt>
      <trkpt lat="42.515678" lon="2.459512">
        <ele>2613.695</ele>
        <time>2021-05-28T17:29:07Z</time>
      </trkpt>
      <trkpt lat="42.515682" lon="2.459488">
        <ele>2613.016</ele>
        <time>2021-05-28T17:29:11Z</time>
      </trkpt>
      <trkpt lat="42.515689" lon="2.459463">
        <ele>2612.745</ele>
        <time>2021-05-28T17:29:14Z</time>
      </trkpt>
      <trkpt lat="42.515699" lon="2.459433">
        <ele>2612.332</ele>
        <time>2021-05-28T17:29:20Z</time>
      </trkpt>
      <trkpt lat="42.515712" lon="2.459409">
        <ele>2612.237</ele>
        <time>2021-05-28T17:29:23Z</time>
      </trkpt>
      <trkpt lat="42.515728" lon="2.459388">
        <ele>2612.484</ele>
        <time>2021-05-28T17:29:27Z</time>
      </trkpt>
      <trkpt lat="42.515743" lon="2.459368">
        <ele>2612.692</ele>
        <time>2021-05-28T17:29:30Z</time>
      </trkpt>
      <trkpt lat="42.515765" lon="2.459355">
        <ele>2613.661</ele>
        <time>2021-05-28T17:29:33Z</time>
      </trkpt>
      <trkpt lat="42.515787" lon="2.459352">
        <ele>2615.021</ele>
        <time>2021-05-28T17:29:37Z</time>
      </trkpt>
      <trkpt lat="42.515812" lon="2.459347">
        <ele>2616.613</ele>
        <time>2021-05-28T17:29:40Z</time>
      </trkpt>
      <trkpt lat="42.515839" lon="2.459346">
        <ele>2618.408</ele>
        <time>2021-05-28T17:29:43Z</time>
      </trkpt>
      <trkpt lat="42.515857" lon="2.459340">
        <ele>2619.423</ele>
        <time>2021-05-28T17:29:45Z</time>
      </trkpt>
      <trkpt lat="42.515880" lon="2.459330">
        <ele>2620.510</ele>
        <time>2021-05-28T17:29:48Z</time>
      </trkpt>
      <trkpt lat="42.515897" lon="2.459317">
        <ele>2621.051</ele>
        <time>2021-05-28T17:29:51Z</time>
      </trkpt>
      <trkpt lat="42.515915" lon="2.459292">
        <ele>2621.150</ele>
        <time>2021-05-28T17:29:54Z</time>
      </trkpt>
      <trkpt lat="42.515927" lon="2.459275">
        <ele>2621.147</ele>
        <time>2021-05-28T17:29:56Z</time>
      </trkpt>
      <trkpt lat="42.515953" lon="2.459270">
        <ele>2622.862</ele>
        <time>2021-05-28T17:29:58Z</time>
      </trkpt>
      <trkpt lat="42.515970" lon="2.459262">
        <ele>2623.699</ele>
        <time>2021-05-28T17:30:01Z</time>
      </trkpt>
      <trkpt lat="42.515987" lon="2.459255">
        <ele>2624.547</ele>
        <time>2021-05-28T17:30:04Z</time>
      </trkpt>
      <trkpt lat="42.516008" lon="2.459241">
        <ele>2625.496</ele>
        <time>2021-05-28T17:30:07Z</time>
      </trkpt>
      <trkpt lat="42.516027" lon="2.459227">
        <ele>2626.231</ele>
        <time>2021-05-28T17:30:10Z</time>
      </trkpt>
      <trkpt lat="42.516041" lon="2.459197">
        <ele>2626.024</ele>
        <time>2021-05-28T17:30:13Z</time>
      </trkpt>
      <trkpt lat="42.516060" lon="2.459196">
        <ele>2627.408</ele>
        <time>2021-05-28T17:30:16Z</time>
      </trkpt>
      <trkpt lat="42.516069" lon="2.459169">
        <ele>2626.936</ele>
        <time>2021-05-28T17:30:20Z</time>
      </trkpt>
      <trkpt lat="42.516080" lon="2.459149">
        <ele>2626.953</ele>
        <time>2021-05-28T17:30:26Z</time>
      </trkpt>
      <trkpt lat="42.516094" lon="2.459125">
        <ele>2626.954</ele>
        <time>2021-05-28T17:30:30Z</time>
      </trkpt>
      <trkpt lat="42.516097" lon="2.459101">
        <ele>2626.113</ele>
        <time>2021-05-28T17:30:32Z</time>
      </trkpt>
      <trkpt lat="42.516109" lon="2.459075">
        <ele>2625.960</ele>
        <time>2021-05-28T17:30:35Z</time>
      </trkpt>
      <trkpt lat="42.516123" lon="2.459058">
        <ele>2626.145</ele>
        <time>2021-05-28T17:30:39Z</time>
      </trkpt>
      <trkpt lat="42.516130" lon="2.459031">
        <ele>2625.492</ele>
        <time>2021-05-28T17:30:42Z</time>
      </trkpt>
      <trkpt lat="42.516143" lon="2.459008">
        <ele>2625.260</ele>
        <time>2021-05-28T17:30:46Z</time>
      </trkpt>
      <trkpt lat="42.516154" lon="2.458989">
        <ele>2625.124</ele>
        <time>2021-05-28T17:30:49Z</time>
      </trkpt>
      <trkpt lat="42.516173" lon="2.458976">
        <ele>2625.804</ele>
        <time>2021-05-28T17:30:52Z</time>
      </trkpt>
      <trkpt lat="42.516185" lon="2.458947">
        <ele>2625.314</ele>
        <time>2021-05-28T17:30:56Z</time>
      </trkpt>
      <trkpt lat="42.516206" lon="2.458931">
        <ele>2626.008</ele>
        <time>2021-05-28T17:31:01Z</time>
      </trkpt>
      <trkpt lat="42.516225" lon="2.458921">
        <ele>2626.819</ele>
        <time>2021-05-28T17:31:04Z</time>
      </trkpt>
      <trkpt lat="42.516245" lon="2.458915">
        <ele>2627.866</ele>
        <time>2021-05-28T17:31:08Z</time>
      </trkpt>
      <trkpt lat="42.516260" lon="2.458936">
        <ele>2629.757</ele>
        <time>2021-05-28T17:31:13Z</time>
      </trkpt>
      <trkpt lat="42.516277" lon="2.458920">
        <ele>2630.156</ele>
        <time>2021-05-28T17:31:17Z</time>
      </trkpt>
      <trkpt lat="42.516294" lon="2.458908">
        <ele>2630.783</ele>
        <time>2021-05-28T17:31:19Z</time>
      </trkpt>
      <trkpt lat="42.516315" lon="2.458906">
        <ele>2632.088</ele>
        <time>2021-05-28T17:31:22Z</time>
      </trkpt>
      <trkpt lat="42.516335" lon="2.458893">
        <ele>2632.765</ele>
        <time>2021-05-28T17:31:25Z</time>
      </trkpt>
      <trkpt lat="42.516353" lon="2.458882">
        <ele>2633.573</ele>
        <time>2021-05-28T17:31:28Z</time>
      </trkpt>
      <trkpt lat="42.516370" lon="2.458877">
        <ele>2634.416</ele>
        <time>2021-05-28T17:31:32Z</time>
      </trkpt>
      <trkpt lat="42.516389" lon="2.458871">
        <ele>2635.576</ele>
        <time>2021-05-28T17:31:36Z</time>
      </trkpt>
      <trkpt lat="42.516398" lon="2.458848">
        <ele>2635.513</ele>
        <time>2021-05-28T17:31:38Z</time>
      </trkpt>
      <trkpt lat="42.516409" lon="2.458820">
        <ele>2635.608</ele>
        <time>2021-05-28T17:31:41Z</time>
      </trkpt>
      <trkpt lat="42.516424" lon="2.458791">
        <ele>2635.998</ele>
        <time>2021-05-28T17:31:44Z</time>
      </trkpt>
      <trkpt lat="42.516437" lon="2.458763">
        <ele>2636.195</ele>
        <time>2021-05-28T17:31:47Z</time>
      </trkpt>
      <trkpt lat="42.516446" lon="2.458740">
        <ele>2636.116</ele>
        <time>2021-05-28T17:31:50Z</time>
      </trkpt>
      <trkpt lat="42.516454" lon="2.458708">
        <ele>2635.815</ele>
        <time>2021-05-28T17:31:53Z</time>
      </trkpt>
      <trkpt lat="42.516464" lon="2.458687">
        <ele>2635.962</ele>
        <time>2021-05-28T17:32:00Z</time>
      </trkpt>
      <trkpt lat="42.516476" lon="2.458668">
        <ele>2636.357</ele>
        <time>2021-05-28T17:32:03Z</time>
      </trkpt>
      <trkpt lat="42.516493" lon="2.458653">
        <ele>2637.174</ele>
        <time>2021-05-28T17:32:07Z</time>
      </trkpt>
      <trkpt lat="42.516509" lon="2.458631">
        <ele>2637.762</ele>
        <time>2021-05-28T17:32:09Z</time>
      </trkpt>
      <trkpt lat="42.516523" lon="2.458616">
        <ele>2638.322</ele>
        <time>2021-05-28T17:32:12Z</time>
      </trkpt>
      <trkpt lat="42.516539" lon="2.458591">
        <ele>2638.762</ele>
        <time>2021-05-28T17:32:16Z</time>
      </trkpt>
      <trkpt lat="42.516546" lon="2.458557">
        <ele>2638.208</ele>
        <time>2021-05-28T17:32:19Z</time>
      </trkpt>
      <trkpt lat="42.516557" lon="2.458532">
        <ele>2638.308</ele>
        <time>2021-05-28T17:32:27Z</time>
      </trkpt>
      <trkpt lat="42.516565" lon="2.458509">
        <ele>2638.119</ele>
        <time>2021-05-28T17:32:30Z</time>
      </trkpt>
      <trkpt lat="42.516569" lon="2.458480">
        <ele>2637.516</ele>
        <time>2021-05-28T17:32:34Z</time>
      </trkpt>
      <trkpt lat="42.516581" lon="2.458448">
        <ele>2637.487</ele>
        <time>2021-05-28T17:32:37Z</time>
      </trkpt>
      <trkpt lat="42.516587" lon="2.458412">
        <ele>2636.726</ele>
        <time>2021-05-28T17:32:40Z</time>
      </trkpt>
      <trkpt lat="42.516586" lon="2.458382">
        <ele>2635.793</ele>
        <time>2021-05-28T17:32:43Z</time>
      </trkpt>
      <trkpt lat="42.516599" lon="2.458358">
        <ele>2635.918</ele>
        <time>2021-05-28T17:32:48Z</time>
      </trkpt>
      <trkpt lat="42.516615" lon="2.458339">
        <ele>2636.565</ele>
        <time>2021-05-28T17:32:51Z</time>
      </trkpt>
      <trkpt lat="42.516633" lon="2.458323">
        <ele>2637.293</ele>
        <time>2021-05-28T17:32:55Z</time>
      </trkpt>
      <trkpt lat="42.516651" lon="2.458301">
        <ele>2637.846</ele>
        <time>2021-05-28T17:32:58Z</time>
      </trkpt>
      <trkpt lat="42.516665" lon="2.458283">
        <ele>2638.288</ele>
        <time>2021-05-28T17:33:01Z</time>
      </trkpt>
      <trkpt lat="42.516683" lon="2.458267">
        <ele>2638.716</ele>
        <time>2021-05-28T17:33:05Z</time>
      </trkpt>
      <trkpt lat="42.516694" lon="2.458245">
        <ele>2638.608</ele>
        <time>2021-05-28T17:33:09Z</time>
      </trkpt>
      <trkpt lat="42.516703" lon="2.458222">
        <ele>2638.471</ele>
        <time>2021-05-28T17:33:12Z</time>
      </trkpt>
      <trkpt lat="42.516715" lon="2.458197">
        <ele>2638.348</ele>
        <time>2021-05-28T17:33:21Z</time>
      </trkpt>
      <trkpt lat="42.516728" lon="2.458167">
        <ele>2638.199</ele>
        <time>2021-05-28T17:33:24Z</time>
      </trkpt>
      <trkpt lat="42.516741" lon="2.458141">
        <ele>2638.098</ele>
        <time>2021-05-28T17:33:26Z</time>
      </trkpt>
      <trkpt lat="42.516751" lon="2.458119">
        <ele>2637.865</ele>
        <time>2021-05-28T17:33:28Z</time>
      </trkpt>
      <trkpt lat="42.516767" lon="2.458097">
        <ele>2638.110</ele>
        <time>2021-05-28T17:33:31Z</time>
      </trkpt>
      <trkpt lat="42.516782" lon="2.458075">
        <ele>2638.287</ele>
        <time>2021-05-28T17:33:34Z</time>
      </trkpt>
      <trkpt lat="42.516800" lon="2.458054">
        <ele>2638.625</ele>
        <time>2021-05-28T17:33:37Z</time>
      </trkpt>
      <trkpt lat="42.516820" lon="2.458036">
        <ele>2639.212</ele>
        <time>2021-05-28T17:33:40Z</time>
      </trkpt>
      <trkpt lat="42.516839" lon="2.458017">
        <ele>2639.832</ele>
        <time>2021-05-28T17:33:43Z</time>
      </trkpt>
      <trkpt lat="42.516861" lon="2.458016">
        <ele>2641.005</ele>
        <time>2021-05-28T17:33:47Z</time>
      </trkpt>
      <trkpt lat="42.516884" lon="2.458005">
        <ele>2642.008</ele>
        <time>2021-05-28T17:33:51Z</time>
      </trkpt>
      <trkpt lat="42.516898" lon="2.457984">
        <ele>2642.248</ele>
        <time>2021-05-28T17:33:54Z</time>
      </trkpt>
      <trkpt lat="42.516912" lon="2.457963">
        <ele>2642.435</ele>
        <time>2021-05-28T17:33:57Z</time>
      </trkpt>
      <trkpt lat="42.516931" lon="2.457942">
        <ele>2642.916</ele>
        <time>2021-05-28T17:34:01Z</time>
      </trkpt>
      <trkpt lat="42.516951" lon="2.457929">
        <ele>2643.385</ele>
        <time>2021-05-28T17:34:04Z</time>
      </trkpt>
      <trkpt lat="42.516970" lon="2.457918">
        <ele>2642.892</ele>
        <time>2021-05-28T17:34:07Z</time>
      </trkpt>
      <trkpt lat="42.516986" lon="2.457903">
        <ele>2642.377</ele>
        <time>2021-05-28T17:34:10Z</time>
      </trkpt>
      <trkpt lat="42.517001" lon="2.457880">
        <ele>2642.074</ele>
        <time>2021-05-28T17:34:14Z</time>
      </trkpt>
      <trkpt lat="42.517012" lon="2.457860">
        <ele>2641.952</ele>
        <time>2021-05-28T17:34:16Z</time>
      </trkpt>
      <trkpt lat="42.517028" lon="2.457839">
        <ele>2642.056</ele>
        <time>2021-05-28T17:34:19Z</time>
      </trkpt>
      <trkpt lat="42.517044" lon="2.457824">
        <ele>2642.459</ele>
        <time>2021-05-28T17:34:21Z</time>
      </trkpt>
      <trkpt lat="42.517065" lon="2.457806">
        <ele>2643.014</ele>
        <time>2021-05-28T17:34:24Z</time>
      </trkpt>
      <trkpt lat="42.517085" lon="2.457790">
        <ele>2643.808</ele>
        <time>2021-05-28T17:34:27Z</time>
      </trkpt>
      <trkpt lat="42.517099" lon="2.457774">
        <ele>2644.532</ele>
        <time>2021-05-28T17:34:29Z</time>
      </trkpt>
      <trkpt lat="42.517116" lon="2.457752">
        <ele>2644.679</ele>
        <time>2021-05-28T17:34:32Z</time>
      </trkpt>
      <trkpt lat="42.517133" lon="2.457741">
        <ele>2645.130</ele>
        <time>2021-05-28T17:34:34Z</time>
      </trkpt>
      <trkpt lat="42.517146" lon="2.457767">
        <ele>2646.159</ele>
        <time>2021-05-28T17:34:39Z</time>
      </trkpt>
      <trkpt lat="42.517148" lon="2.457742">
        <ele>2645.796</ele>
        <time>2021-05-28T17:34:51Z</time>
      </trkpt>
      <trkpt lat="42.517159" lon="2.457719">
        <ele>2645.741</ele>
        <time>2021-05-28T17:35:53Z</time>
      </trkpt>
      <trkpt lat="42.517173" lon="2.457700">
        <ele>2646.078</ele>
        <time>2021-05-28T17:36:00Z</time>
      </trkpt>
      <trkpt lat="42.517193" lon="2.457688">
        <ele>2646.716</ele>
        <time>2021-05-28T17:36:03Z</time>
      </trkpt>
      <trkpt lat="42.517208" lon="2.457670">
        <ele>2647.251</ele>
        <time>2021-05-28T17:36:06Z</time>
      </trkpt>
      <trkpt lat="42.517219" lon="2.457649">
        <ele>2647.401</ele>
        <time>2021-05-28T17:36:08Z</time>
      </trkpt>
      <trkpt lat="42.517230" lon="2.457624">
        <ele>2647.811</ele>
        <time>2021-05-28T17:36:10Z</time>
      </trkpt>
      <trkpt lat="42.517243" lon="2.457607">
        <ele>2648.508</ele>
        <time>2021-05-28T17:36:12Z</time>
      </trkpt>
      <trkpt lat="42.517256" lon="2.457585">
        <ele>2649.122</ele>
        <time>2021-05-28T17:36:15Z</time>
      </trkpt>
      <trkpt lat="42.517266" lon="2.457557">
        <ele>2649.579</ele>
        <time>2021-05-28T17:36:18Z</time>
      </trkpt>
      <trkpt lat="42.517279" lon="2.457533">
        <ele>2650.230</ele>
        <time>2021-05-28T17:36:20Z</time>
      </trkpt>
      <trkpt lat="42.517295" lon="2.457520">
        <ele>2651.119</ele>
        <time>2021-05-28T17:36:22Z</time>
      </trkpt>
      <trkpt lat="42.517316" lon="2.457511">
        <ele>2652.536</ele>
        <time>2021-05-28T17:36:25Z</time>
      </trkpt>
      <trkpt lat="42.517337" lon="2.457497">
        <ele>2653.761</ele>
        <time>2021-05-28T17:36:28Z</time>
      </trkpt>
      <trkpt lat="42.517354" lon="2.457489">
        <ele>2654.638</ele>
        <time>2021-05-28T17:36:31Z</time>
      </trkpt>
      <trkpt lat="42.517379" lon="2.457473">
        <ele>2655.836</ele>
        <time>2021-05-28T17:36:34Z</time>
      </trkpt>
      <trkpt lat="42.517395" lon="2.457463">
        <ele>2656.574</ele>
        <time>2021-05-28T17:36:36Z</time>
      </trkpt>
      <trkpt lat="42.517412" lon="2.457439">
        <ele>2656.856</ele>
        <time>2021-05-28T17:36:40Z</time>
      </trkpt>
      <trkpt lat="42.517430" lon="2.457427">
        <ele>2657.621</ele>
        <time>2021-05-28T17:36:43Z</time>
      </trkpt>
      <trkpt lat="42.517447" lon="2.457407">
        <ele>2658.008</ele>
        <time>2021-05-28T17:36:49Z</time>
      </trkpt>
      <trkpt lat="42.517463" lon="2.457393">
        <ele>2658.674</ele>
        <time>2021-05-28T17:36:53Z</time>
      </trkpt>
      <trkpt lat="42.517474" lon="2.457370">
        <ele>2658.521</ele>
        <time>2021-05-28T17:36:56Z</time>
      </trkpt>
      <trkpt lat="42.517488" lon="2.457339">
        <ele>2658.422</ele>
        <time>2021-05-28T17:36:59Z</time>
      </trkpt>
      <trkpt lat="42.517504" lon="2.457320">
        <ele>2658.841</ele>
        <time>2021-05-28T17:37:02Z</time>
      </trkpt>
      <trkpt lat="42.517515" lon="2.457299">
        <ele>2658.718</ele>
        <time>2021-05-28T17:37:05Z</time>
      </trkpt>
      <trkpt lat="42.517531" lon="2.457284">
        <ele>2659.263</ele>
        <time>2021-05-28T17:37:15Z</time>
      </trkpt>
      <trkpt lat="42.517551" lon="2.457275">
        <ele>2660.210</ele>
        <time>2021-05-28T17:37:19Z</time>
      </trkpt>
      <trkpt lat="42.517572" lon="2.457263">
        <ele>2661.158</ele>
        <time>2021-05-28T17:37:23Z</time>
      </trkpt>
      <trkpt lat="42.517590" lon="2.457263">
        <ele>2662.382</ele>
        <time>2021-05-28T17:37:29Z</time>
      </trkpt>
      <trkpt lat="42.517611" lon="2.457250">
        <ele>2663.243</ele>
        <time>2021-05-28T17:37:35Z</time>
      </trkpt>
      <trkpt lat="42.517629" lon="2.457247">
        <ele>2664.217</ele>
        <time>2021-05-28T17:37:38Z</time>
      </trkpt>
      <trkpt lat="42.517654" lon="2.457242">
        <ele>2665.708</ele>
        <time>2021-05-28T17:37:42Z</time>
      </trkpt>
      <trkpt lat="42.517671" lon="2.457234">
        <ele>2666.515</ele>
        <time>2021-05-28T17:37:53Z</time>
      </trkpt>
      <trkpt lat="42.517664" lon="2.457258">
        <ele>2666.812</ele>
        <time>2021-05-28T17:38:05Z</time>
      </trkpt>
      <trkpt lat="42.517648" lon="2.457286">
        <ele>2666.873</ele>
        <time>2021-05-28T17:38:10Z</time>
      </trkpt>
      <trkpt lat="42.517637" lon="2.457308">
        <ele>2666.872</ele>
        <time>2021-05-28T17:38:13Z</time>
      </trkpt>
      <trkpt lat="42.517656" lon="2.457323">
        <ele>2668.579</ele>
        <time>2021-05-28T17:38:19Z</time>
      </trkpt>
      <trkpt lat="42.517676" lon="2.457327">
        <ele>2669.954</ele>
        <time>2021-05-28T17:38:24Z</time>
      </trkpt>
      <trkpt lat="42.517700" lon="2.457318">
        <ele>2671.281</ele>
        <time>2021-05-28T17:38:32Z</time>
      </trkpt>
      <trkpt lat="42.517716" lon="2.457304">
        <ele>2671.739</ele>
        <time>2021-05-28T17:38:36Z</time>
      </trkpt>
      <trkpt lat="42.517730" lon="2.457321">
        <ele>2673.226</ele>
        <time>2021-05-28T17:38:48Z</time>
      </trkpt>
      <trkpt lat="42.517731" lon="2.457353">
        <ele>2674.347</ele>
        <time>2021-05-28T17:38:52Z</time>
      </trkpt>
      <trkpt lat="42.517740" lon="2.457378">
        <ele>2675.711</ele>
        <time>2021-05-28T17:38:56Z</time>
      </trkpt>
      <trkpt lat="42.517765" lon="2.457367">
        <ele>2676.908</ele>
        <time>2021-05-28T17:39:02Z</time>
      </trkpt>
      <trkpt lat="42.517780" lon="2.457349">
        <ele>2677.339</ele>
        <time>2021-05-28T17:39:05Z</time>
      </trkpt>
      <trkpt lat="42.517795" lon="2.457330">
        <ele>2677.726</ele>
        <time>2021-05-28T17:39:08Z</time>
      </trkpt>
      <trkpt lat="42.517811" lon="2.457316">
        <ele>2678.487</ele>
        <time>2021-05-28T17:39:12Z</time>
      </trkpt>
      <trkpt lat="42.517824" lon="2.457294">
        <ele>2678.636</ele>
        <time>2021-05-28T17:39:18Z</time>
      </trkpt>
      <trkpt lat="42.517835" lon="2.457271">
        <ele>2678.793</ele>
        <time>2021-05-28T17:39:24Z</time>
      </trkpt>
      <trkpt lat="42.517855" lon="2.457264">
        <ele>2679.968</ele>
        <time>2021-05-28T17:39:29Z</time>
      </trkpt>
      <trkpt lat="42.517857" lon="2.457289">
        <ele>2680.845</ele>
        <time>2021-05-28T17:39:52Z</time>
      </trkpt>
      <trkpt lat="42.517876" lon="2.457296">
        <ele>2682.413</ele>
        <time>2021-05-28T17:40:24Z</time>
      </trkpt>
      <trkpt lat="42.517889" lon="2.457279">
        <ele>2682.832</ele>
        <time>2021-05-28T17:40:27Z</time>
      </trkpt>
      <trkpt lat="42.517910" lon="2.457271">
        <ele>2684.092</ele>
        <time>2021-05-28T17:40:31Z</time>
      </trkpt>
      <trkpt lat="42.517928" lon="2.457260">
        <ele>2685.011</ele>
        <time>2021-05-28T17:40:33Z</time>
      </trkpt>
      <trkpt lat="42.517939" lon="2.457240">
        <ele>2685.108</ele>
        <time>2021-05-28T17:40:36Z</time>
      </trkpt>
      <trkpt lat="42.517957" lon="2.457223">
        <ele>2685.990</ele>
        <time>2021-05-28T17:40:39Z</time>
      </trkpt>
      <trkpt lat="42.517974" lon="2.457213">
        <ele>2686.947</ele>
        <time>2021-05-28T17:40:44Z</time>
      </trkpt>
      <trkpt lat="42.517993" lon="2.457200">
        <ele>2688.128</ele>
        <time>2021-05-28T17:40:49Z</time>
      </trkpt>
      <trkpt lat="42.518012" lon="2.457199">
        <ele>2689.497</ele>
        <time>2021-05-28T17:40:53Z</time>
      </trkpt>
      <trkpt lat="42.518024" lon="2.457220">
        <ele>2690.724</ele>
        <time>2021-05-28T17:40:59Z</time>
      </trkpt>
      <trkpt lat="42.518043" lon="2.457215">
        <ele>2692.089</ele>
        <time>2021-05-28T17:41:03Z</time>
      </trkpt>
      <trkpt lat="42.518057" lon="2.457194">
        <ele>2692.686</ele>
        <time>2021-05-28T17:41:08Z</time>
      </trkpt>
      <trkpt lat="42.518075" lon="2.457183">
        <ele>2693.954</ele>
        <time>2021-05-28T17:41:12Z</time>
      </trkpt>
      <trkpt lat="42.518089" lon="2.457167">
        <ele>2694.821</ele>
        <time>2021-05-28T17:41:21Z</time>
      </trkpt>
      <trkpt lat="42.518101" lon="2.457149">
        <ele>2695.541</ele>
        <time>2021-05-28T17:41:26Z</time>
      </trkpt>
      <trkpt lat="42.518123" lon="2.457157">
        <ele>2697.505</ele>
        <time>2021-05-28T17:41:31Z</time>
      </trkpt>
      <trkpt lat="42.518138" lon="2.457144">
        <ele>2698.608</ele>
        <time>2021-05-28T17:41:35Z</time>
      </trkpt>
      <trkpt lat="42.518150" lon="2.457125">
        <ele>2699.369</ele>
        <time>2021-05-28T17:41:40Z</time>
      </trkpt>
      <trkpt lat="42.518163" lon="2.457102">
        <ele>2700.166</ele>
        <time>2021-05-28T17:41:47Z</time>
      </trkpt>
      <trkpt lat="42.518178" lon="2.457086">
        <ele>2701.117</ele>
        <time>2021-05-28T17:41:51Z</time>
      </trkpt>
      <trkpt lat="42.518196" lon="2.457078">
        <ele>2702.696</ele>
        <time>2021-05-28T17:41:55Z</time>
      </trkpt>
      <trkpt lat="42.518214" lon="2.457074">
        <ele>2704.133</ele>
        <time>2021-05-28T17:41:58Z</time>
      </trkpt>
      <trkpt lat="42.518234" lon="2.457071">
        <ele>2705.898</ele>
        <time>2021-05-28T17:42:03Z</time>
      </trkpt>
      <trkpt lat="42.518254" lon="2.457076">
        <ele>2707.615</ele>
        <time>2021-05-28T17:42:05Z</time>
      </trkpt>
      <trkpt lat="42.518257" lon="2.457046">
        <ele>2707.473</ele>
        <time>2021-05-28T17:42:13Z</time>
      </trkpt>
      <trkpt lat="42.518274" lon="2.457033">
        <ele>2708.846</ele>
        <time>2021-05-28T17:42:17Z</time>
      </trkpt>
      <trkpt lat="42.518293" lon="2.457026">
        <ele>2710.388</ele>
        <time>2021-05-28T17:42:25Z</time>
      </trkpt>
      <trkpt lat="42.518307" lon="2.457009">
        <ele>2711.416</ele>
        <time>2021-05-28T17:42:29Z</time>
      </trkpt>
      <trkpt lat="42.518328" lon="2.457003">
        <ele>2713.208</ele>
        <time>2021-05-28T17:42:33Z</time>
      </trkpt>
      <trkpt lat="42.518335" lon="2.456975">
        <ele>2713.531</ele>
        <time>2021-05-28T17:42:37Z</time>
      </trkpt>
      <trkpt lat="42.518339" lon="2.456943">
        <ele>2713.698</ele>
        <time>2021-05-28T17:42:46Z</time>
      </trkpt>
      <trkpt lat="42.518351" lon="2.456925">
        <ele>2714.699</ele>
        <time>2021-05-28T17:42:51Z</time>
      </trkpt>
      <trkpt lat="42.518357" lon="2.456900">
        <ele>2714.928</ele>
        <time>2021-05-28T17:42:57Z</time>
      </trkpt>
      <trkpt lat="42.518354" lon="2.456875">
        <ele>2714.485</ele>
        <time>2021-05-28T17:43:01Z</time>
      </trkpt>
      <trkpt lat="42.518370" lon="2.456889">
        <ele>2716.250</ele>
        <time>2021-05-28T17:43:12Z</time>
      </trkpt>
      <trkpt lat="42.518374" lon="2.456915">
        <ele>2716.897</ele>
        <time>2021-05-28T17:43:19Z</time>
      </trkpt>
      <trkpt lat="42.518378" lon="2.456954">
        <ele>2717.575</ele>
        <time>2021-05-28T17:43:24Z</time>
      </trkpt>
      <trkpt lat="42.518396" lon="2.456940">
        <ele>2719.374</ele>
        <time>2021-05-28T17:43:29Z</time>
      </trkpt>
      <trkpt lat="42.518416" lon="2.456958">
        <ele>2721.256</ele>
        <time>2021-05-28T17:43:38Z</time>
      </trkpt>
      <trkpt lat="42.518428" lon="2.456986">
        <ele>2722.121</ele>
        <time>2021-05-28T17:43:43Z</time>
      </trkpt>
      <trkpt lat="42.518449" lon="2.456987">
        <ele>2724.008</ele>
        <time>2021-05-28T17:43:50Z</time>
      </trkpt>
      <trkpt lat="42.518465" lon="2.457001">
        <ele>2725.254</ele>
        <time>2021-05-28T17:43:56Z</time>
      </trkpt>
      <trkpt lat="42.518474" lon="2.456977">
        <ele>2726.521</ele>
        <time>2021-05-28T17:44:04Z</time>
      </trkpt>
      <trkpt lat="42.518488" lon="2.456994">
        <ele>2727.492</ele>
        <time>2021-05-28T17:44:13Z</time>
      </trkpt>
      <trkpt lat="42.518505" lon="2.457009">
        <ele>2728.651</ele>
        <time>2021-05-28T17:44:21Z</time>
      </trkpt>
      <trkpt lat="42.518523" lon="2.456993">
        <ele>2730.628</ele>
        <time>2021-05-28T17:44:37Z</time>
      </trkpt>
      <trkpt lat="42.518545" lon="2.456996">
        <ele>2732.523</ele>
        <time>2021-05-28T17:44:42Z</time>
      </trkpt>
      <trkpt lat="42.518565" lon="2.456982">
        <ele>2734.810</ele>
        <time>2021-05-28T17:44:50Z</time>
      </trkpt>
      <trkpt lat="42.518546" lon="2.456959">
        <ele>2733.958</ele>
        <time>2021-05-28T17:45:49Z</time>
      </trkpt>
      <trkpt lat="42.518553" lon="2.456933">
        <ele>2735.149</ele>
        <time>2021-05-28T17:45:55Z</time>
      </trkpt>
      <trkpt lat="42.518572" lon="2.456930">
        <ele>2737.002</ele>
        <time>2021-05-28T17:46:07Z</time>
      </trkpt>
      <trkpt lat="42.518592" lon="2.456931">
        <ele>2739.122</ele>
        <time>2021-05-28T17:46:12Z</time>
      </trkpt>
      <trkpt lat="42.518625" lon="2.456958">
        <ele>2740.408</ele>
        <time>2021-05-28T17:46:15Z</time>
      </trkpt>
      <trkpt lat="42.518645" lon="2.456962">
        <ele>2740.291</ele>
        <time>2021-05-28T17:46:17Z</time>
      </trkpt>
      <trkpt lat="42.518665" lon="2.456969">
        <ele>2739.888</ele>
        <time>2021-05-28T17:46:22Z</time>
      </trkpt>
      <trkpt lat="42.518688" lon="2.456970">
        <ele>2739.749</ele>
        <time>2021-05-28T17:46:26Z</time>
      </trkpt>
      <trkpt lat="42.518703" lon="2.456955">
        <ele>2740.888</ele>
        <time>2021-05-28T17:46:31Z</time>
      </trkpt>
      <trkpt lat="42.518729" lon="2.456962">
        <ele>2740.385</ele>
        <time>2021-05-28T17:46:40Z</time>
      </trkpt>
      <trkpt lat="42.518714" lon="2.456990">
        <ele>2738.010</ele>
        <time>2021-05-28T17:46:49Z</time>
      </trkpt>
      <trkpt lat="42.518734" lon="2.456991">
        <ele>2737.857</ele>
        <time>2021-05-28T17:47:43Z</time>
      </trkpt>
      <trkpt lat="42.518738" lon="2.456967">
        <ele>2739.975</ele>
        <time>2021-05-28T17:47:52Z</time>
      </trkpt>
      <trkpt lat="42.518751" lon="2.456988">
        <ele>2738.067</ele>
        <time>2021-05-28T17:48:01Z</time>
      </trkpt>
      <trkpt lat="42.518774" lon="2.456996">
        <ele>2737.181</ele>
        <time>2021-05-28T17:48:09Z</time>
      </trkpt>
      <trkpt lat="42.518793" lon="2.457009">
        <ele>2735.619</ele>
        <time>2021-05-28T17:48:18Z</time>
      </trkpt>
      <trkpt lat="42.518806" lon="2.456992">
        <ele>2737.208</ele>
        <time>2021-05-28T17:48:25Z</time>
      </trkpt>
      <trkpt lat="42.518802" lon="2.456966">
        <ele>2740.153</ele>
        <time>2021-05-28T17:48:35Z</time>
      </trkpt>
      <trkpt lat="42.518809" lon="2.456942">
        <ele>2742.640</ele>
        <time>2021-05-28T17:48:40Z</time>
      </trkpt>
      <trkpt lat="42.518810" lon="2.456916">
        <ele>2744.051</ele>
        <time>2021-05-28T17:48:44Z</time>
      </trkpt>
      <trkpt lat="42.518833" lon="2.456927">
        <ele>2743.720</ele>
        <time>2021-05-28T17:48:54Z</time>
      </trkpt>
      <trkpt lat="42.518849" lon="2.456915">
        <ele>2744.697</ele>
        <time>2021-05-28T17:49:00Z</time>
      </trkpt>
      <trkpt lat="42.518857" lon="2.456888">
        <ele>2746.512</ele>
        <time>2021-05-28T17:49:04Z</time>
      </trkpt>
      <trkpt lat="42.518873" lon="2.456874">
        <ele>2747.969</ele>
        <time>2021-05-28T17:49:38Z</time>
      </trkpt>
      <trkpt lat="42.518878" lon="2.456848">
        <ele>2749.997</ele>
        <time>2021-05-28T17:49:53Z</time>
      </trkpt>
      <trkpt lat="42.518891" lon="2.456817">
        <ele>2752.655</ele>
        <time>2021-05-28T17:50:03Z</time>
      </trkpt>
      <trkpt lat="42.518899" lon="2.456793">
        <ele>2754.307</ele>
        <time>2021-05-28T17:50:16Z</time>
      </trkpt>
      <trkpt lat="42.518910" lon="2.456770">
        <ele>2755.917</ele>
        <time>2021-05-28T17:50:30Z</time>
      </trkpt>
      <trkpt lat="42.518927" lon="2.456760">
        <ele>2756.508</ele>
        <time>2021-05-28T17:50:37Z</time>
      </trkpt>
      <trkpt lat="42.518946" lon="2.456747">
        <ele>2757.332</ele>
        <time>2021-05-28T17:50:43Z</time>
      </trkpt>
      <trkpt lat="42.518936" lon="2.456723">
        <ele>2759.489</ele>
        <time>2021-05-28T17:50:59Z</time>
      </trkpt>
      <trkpt lat="42.518952" lon="2.456737">
        <ele>2758.180</ele>
        <time>2021-05-28T17:51:08Z</time>
      </trkpt>
      <trkpt lat="42.518970" lon="2.456727">
        <ele>2758.869</ele>
        <time>2021-05-28T17:51:58Z</time>
      </trkpt>
      <trkpt lat="42.518986" lon="2.456713">
        <ele>2759.986</ele>
        <time>2021-05-28T17:52:27Z</time>
      </trkpt>
      <trkpt lat="42.518990" lon="2.456679">
        <ele>2762.971</ele>
        <time>2021-05-28T17:52:35Z</time>
      </trkpt>
      <trkpt lat="42.518971" lon="2.456661">
        <ele>2764.038</ele>
        <time>2021-05-28T17:52:41Z</time>
      </trkpt>
      <trkpt lat="42.518964" lon="2.456634">
        <ele>2764.256</ele>
        <time>2021-05-28T17:52:45Z</time>
      </trkpt>
      <trkpt lat="42.518949" lon="2.456605">
        <ele>2764.455</ele>
        <time>2021-05-28T17:52:48Z</time>
      </trkpt>
      <trkpt lat="42.518952" lon="2.456579">
        <ele>2764.607</ele>
        <time>2021-05-28T17:52:59Z</time>
      </trkpt>
      <trkpt lat="42.518943" lon="2.456602">
        <ele>2764.417</ele>
        <time>2021-05-28T17:53:19Z</time>
      </trkpt>
      <trkpt lat="42.518950" lon="2.456579">
        <ele>2764.608</ele>
        <time>2021-05-28T17:53:46Z</time>
      </trkpt>
      <trkpt lat="42.518928" lon="2.456572">
        <ele>2764.542</ele>
        <time>2021-05-28T17:55:28Z</time>
      </trkpt>
      <trkpt lat="42.518948" lon="2.456584">
        <ele>2764.619</ele>
        <time>2021-05-28T18:00:01Z</time>
      </trkpt>
      <trkpt lat="42.518964" lon="2.456572">
        <ele>2764.740</ele>
        <time>2021-05-28T18:01:11Z</time>
      </trkpt>
      <trkpt lat="42.518948" lon="2.456583">
        <ele>2764.689</ele>
        <time>2021-05-28T18:02:05Z</time>
      </trkpt>
      <trkpt lat="42.518953" lon="2.456557">
        <ele>2764.836</ele>
        <time>2021-05-28T18:05:41Z</time>
      </trkpt>
      <trkpt lat="42.518972" lon="2.456546">
        <ele>2765.071</ele>
        <time>2021-05-28T18:06:40Z</time>
      </trkpt>
      <trkpt lat="42.518988" lon="2.456559">
        <ele>2764.968</ele>
        <time>2021-05-28T18:07:25Z</time>
      </trkpt>
      <trkpt lat="42.519000" lon="2.456589">
        <ele>2764.746</ele>
        <time>2021-05-28T18:07:29Z</time>
      </trkpt>
      <trkpt lat="42.519017" lon="2.456596">
        <ele>2764.775</ele>
        <time>2021-05-28T18:07:51Z</time>
      </trkpt>
      <trkpt lat="42.519037" lon="2.456610">
        <ele>2764.628</ele>
        <time>2021-05-28T18:09:46Z</time>
      </trkpt>
      <trkpt lat="42.519056" lon="2.456621">
        <ele>2764.620</ele>
        <time>2021-05-28T18:09:48Z</time>
      </trkpt>
      <trkpt lat="42.519077" lon="2.456620">
        <ele>2764.608</ele>
        <time>2021-05-28T18:09:51Z</time>
      </trkpt>
      <trkpt lat="42.519091" lon="2.456605">
        <ele>2764.914</ele>
        <time>2021-05-28T18:09:58Z</time>
      </trkpt>
      <trkpt lat="42.519112" lon="2.456599">
        <ele>2765.041</ele>
        <time>2021-05-28T18:10:01Z</time>
      </trkpt>
      <trkpt lat="42.519134" lon="2.456598">
        <ele>2765.142</ele>
        <time>2021-05-28T18:10:25Z</time>
      </trkpt>
      <trkpt lat="42.519154" lon="2.456591">
        <ele>2765.381</ele>
        <time>2021-05-28T18:10:27Z</time>
      </trkpt>
      <trkpt lat="42.519177" lon="2.456602">
        <ele>2764.938</ele>
        <time>2021-05-28T18:10:29Z</time>
      </trkpt>
      <trkpt lat="42.519198" lon="2.456602">
        <ele>2764.443</ele>
        <time>2021-05-28T18:10:31Z</time>
      </trkpt>
      <trkpt lat="42.519216" lon="2.456589">
        <ele>2764.260</ele>
        <time>2021-05-28T18:10:34Z</time>
      </trkpt>
      <trkpt lat="42.519236" lon="2.456598">
        <ele>2763.668</ele>
        <time>2021-05-28T18:10:36Z</time>
      </trkpt>
      <trkpt lat="42.519260" lon="2.456605">
        <ele>2762.921</ele>
        <time>2021-05-28T18:10:38Z</time>
      </trkpt>
      <trkpt lat="42.519282" lon="2.456606">
        <ele>2762.341</ele>
        <time>2021-05-28T18:10:41Z</time>
      </trkpt>
      <trkpt lat="42.519308" lon="2.456610">
        <ele>2761.705</ele>
        <time>2021-05-28T18:11:09Z</time>
      </trkpt>
      <trkpt lat="42.519329" lon="2.456613">
        <ele>2761.108</ele>
        <time>2021-05-28T18:11:12Z</time>
      </trkpt>
      <trkpt lat="42.519354" lon="2.456623">
        <ele>2760.449</ele>
        <time>2021-05-28T18:11:14Z</time>
      </trkpt>
      <trkpt lat="42.519362" lon="2.456598">
        <ele>2760.536</ele>
        <time>2021-05-28T18:11:50Z</time>
      </trkpt>
      <trkpt lat="42.519353" lon="2.456576">
        <ele>2760.977</ele>
        <time>2021-05-28T18:11:52Z</time>
      </trkpt>
      <trkpt lat="42.519324" lon="2.456547">
        <ele>2762.076</ele>
        <time>2021-05-28T18:11:54Z</time>
      </trkpt>
      <trkpt lat="42.519306" lon="2.456533">
        <ele>2762.713</ele>
        <time>2021-05-28T18:11:56Z</time>
      </trkpt>
      <trkpt lat="42.519287" lon="2.456506">
        <ele>2763.568</ele>
        <time>2021-05-28T18:11:57Z</time>
      </trkpt>
      <trkpt lat="42.519274" lon="2.456487">
        <ele>2764.215</ele>
        <time>2021-05-28T18:11:59Z</time>
      </trkpt>
      <trkpt lat="42.519258" lon="2.456454">
        <ele>2765.183</ele>
        <time>2021-05-28T18:12:02Z</time>
      </trkpt>
      <trkpt lat="42.519283" lon="2.456452">
        <ele>2764.491</ele>
        <time>2021-05-28T18:12:11Z</time>
      </trkpt>
      <trkpt lat="42.519307" lon="2.456458">
        <ele>2763.681</ele>
        <time>2021-05-28T18:12:14Z</time>
      </trkpt>
      <trkpt lat="42.519331" lon="2.456465">
        <ele>2762.819</ele>
        <time>2021-05-28T18:12:16Z</time>
      </trkpt>
      <trkpt lat="42.519359" lon="2.456475">
        <ele>2761.908</ele>
        <time>2021-05-28T18:12:18Z</time>
      </trkpt>
      <trkpt lat="42.519381" lon="2.456483">
        <ele>2761.146</ele>
        <time>2021-05-28T18:12:20Z</time>
      </trkpt>
      <trkpt lat="42.519403" lon="2.456488">
        <ele>2760.513</ele>
        <time>2021-05-28T18:12:23Z</time>
      </trkpt>
      <trkpt lat="42.519424" lon="2.456488">
        <ele>2759.984</ele>
        <time>2021-05-28T18:12:28Z</time>
      </trkpt>
      <trkpt lat="42.519450" lon="2.456487">
        <ele>2759.033</ele>
        <time>2021-05-28T18:12:31Z</time>
      </trkpt>
      <trkpt lat="42.519469" lon="2.456494">
        <ele>2757.810</ele>
        <time>2021-05-28T18:12:33Z</time>
      </trkpt>
      <trkpt lat="42.519489" lon="2.456496">
        <ele>2756.625</ele>
        <time>2021-05-28T18:12:35Z</time>
      </trkpt>
      <trkpt lat="42.519507" lon="2.456502">
        <ele>2755.432</ele>
        <time>2021-05-28T18:12:37Z</time>
      </trkpt>
      <trkpt lat="42.519527" lon="2.456505">
        <ele>2754.220</ele>
        <time>2021-05-28T18:12:39Z</time>
      </trkpt>
      <trkpt lat="42.519545" lon="2.456513">
        <ele>2752.994</ele>
        <time>2021-05-28T18:12:41Z</time>
      </trkpt>
      <trkpt lat="42.519572" lon="2.456496">
        <ele>2751.757</ele>
        <time>2021-05-28T18:12:45Z</time>
      </trkpt>
      <trkpt lat="42.519597" lon="2.456485">
        <ele>2750.622</ele>
        <time>2021-05-28T18:12:47Z</time>
      </trkpt>
      <trkpt lat="42.519616" lon="2.456476">
        <ele>2749.908</ele>
        <time>2021-05-28T18:12:52Z</time>
      </trkpt>
      <trkpt lat="42.519607" lon="2.456453">
        <ele>2751.276</ele>
        <time>2021-05-28T18:12:54Z</time>
      </trkpt>
      <trkpt lat="42.519586" lon="2.456436">
        <ele>2752.813</ele>
        <time>2021-05-28T18:12:57Z</time>
      </trkpt>
      <trkpt lat="42.519565" lon="2.456430">
        <ele>2754.064</ele>
        <time>2021-05-28T18:13:00Z</time>
      </trkpt>
      <trkpt lat="42.519539" lon="2.456415">
        <ele>2755.653</ele>
        <time>2021-05-28T18:13:02Z</time>
      </trkpt>
      <trkpt lat="42.519518" lon="2.456392">
        <ele>2757.090</ele>
        <time>2021-05-28T18:13:04Z</time>
      </trkpt>
      <trkpt lat="42.519495" lon="2.456366">
        <ele>2756.885</ele>
        <time>2021-05-28T18:13:06Z</time>
      </trkpt>
      <trkpt lat="42.519474" lon="2.456339">
        <ele>2756.212</ele>
        <time>2021-05-28T18:13:08Z</time>
      </trkpt>
      <trkpt lat="42.519452" lon="2.456306">
        <ele>2755.240</ele>
        <time>2021-05-28T18:13:10Z</time>
      </trkpt>
      <trkpt lat="42.519429" lon="2.456279">
        <ele>2754.533</ele>
        <time>2021-05-28T18:13:12Z</time>
      </trkpt>
      <trkpt lat="42.519408" lon="2.456263">
        <ele>2754.223</ele>
        <time>2021-05-28T18:13:14Z</time>
      </trkpt>
      <trkpt lat="42.519389" lon="2.456249">
        <ele>2753.915</ele>
        <time>2021-05-28T18:13:18Z</time>
      </trkpt>
      <trkpt lat="42.519369" lon="2.456228">
        <ele>2753.308</ele>
        <time>2021-05-28T18:13:22Z</time>
      </trkpt>
      <trkpt lat="42.519355" lon="2.456213">
        <ele>2752.810</ele>
        <time>2021-05-28T18:13:24Z</time>
      </trkpt>
      <trkpt lat="42.519336" lon="2.456200">
        <ele>2752.517</ele>
        <time>2021-05-28T18:13:26Z</time>
      </trkpt>
      <trkpt lat="42.519315" lon="2.456185">
        <ele>2752.288</ele>
        <time>2021-05-28T18:13:29Z</time>
      </trkpt>
      <trkpt lat="42.519290" lon="2.456164">
        <ele>2751.557</ele>
        <time>2021-05-28T18:13:30Z</time>
      </trkpt>
      <trkpt lat="42.519303" lon="2.456145">
        <ele>2750.144</ele>
        <time>2021-05-28T18:13:41Z</time>
      </trkpt>
      <trkpt lat="42.519329" lon="2.456161">
        <ele>2750.429</ele>
        <time>2021-05-28T18:13:44Z</time>
      </trkpt>
      <trkpt lat="42.519356" lon="2.456174">
        <ele>2750.596</ele>
        <time>2021-05-28T18:13:46Z</time>
      </trkpt>
      <trkpt lat="42.519378" lon="2.456172">
        <ele>2749.934</ele>
        <time>2021-05-28T18:13:48Z</time>
      </trkpt>
      <trkpt lat="42.519401" lon="2.456173">
        <ele>2749.491</ele>
        <time>2021-05-28T18:13:50Z</time>
      </trkpt>
      <trkpt lat="42.519425" lon="2.456179">
        <ele>2749.181</ele>
        <time>2021-05-28T18:13:53Z</time>
      </trkpt>
      <trkpt lat="42.519452" lon="2.456184">
        <ele>2748.719</ele>
        <time>2021-05-28T18:13:55Z</time>
      </trkpt>
      <trkpt lat="42.519473" lon="2.456191">
        <ele>2748.308</ele>
        <time>2021-05-28T18:13:57Z</time>
      </trkpt>
      <trkpt lat="42.519495" lon="2.456203">
        <ele>2748.236</ele>
        <time>2021-05-28T18:14:00Z</time>
      </trkpt>
      <trkpt lat="42.519514" lon="2.456202">
        <ele>2747.513</ele>
        <time>2021-05-28T18:14:02Z</time>
      </trkpt>
      <trkpt lat="42.519539" lon="2.456192">
        <ele>2746.184</ele>
        <time>2021-05-28T18:14:06Z</time>
      </trkpt>
      <trkpt lat="42.519566" lon="2.456201">
        <ele>2745.623</ele>
        <time>2021-05-28T18:14:08Z</time>
      </trkpt>
      <trkpt lat="42.519588" lon="2.456210">
        <ele>2745.360</ele>
        <time>2021-05-28T18:14:10Z</time>
      </trkpt>
      <trkpt lat="42.519607" lon="2.456216">
        <ele>2745.025</ele>
        <time>2021-05-28T18:14:12Z</time>
      </trkpt>
      <trkpt lat="42.519628" lon="2.456219">
        <ele>2744.462</ele>
        <time>2021-05-28T18:14:16Z</time>
      </trkpt>
      <trkpt lat="42.519647" lon="2.456217">
        <ele>2743.620</ele>
        <time>2021-05-28T18:14:20Z</time>
      </trkpt>
      <trkpt lat="42.519667" lon="2.456225">
        <ele>2743.375</ele>
        <time>2021-05-28T18:14:23Z</time>
      </trkpt>
      <trkpt lat="42.519692" lon="2.456218">
        <ele>2742.128</ele>
        <time>2021-05-28T18:14:26Z</time>
      </trkpt>
      <trkpt lat="42.519718" lon="2.456221">
        <ele>2741.320</ele>
        <time>2021-05-28T18:14:29Z</time>
      </trkpt>
      <trkpt lat="42.519740" lon="2.456233">
        <ele>2740.808</ele>
        <time>2021-05-28T18:14:31Z</time>
      </trkpt>
      <trkpt lat="42.519762" lon="2.456238">
        <ele>2739.824</ele>
        <time>2021-05-28T18:14:34Z</time>
      </trkpt>
      <trkpt lat="42.519783" lon="2.456255">
        <ele>2739.461</ele>
        <time>2021-05-28T18:14:39Z</time>
      </trkpt>
      <trkpt lat="42.519802" lon="2.456261">
        <ele>2738.692</ele>
        <time>2021-05-28T18:14:43Z</time>
      </trkpt>
      <trkpt lat="42.519825" lon="2.456274">
        <ele>2737.881</ele>
        <time>2021-05-28T18:14:54Z</time>
      </trkpt>
      <trkpt lat="42.519831" lon="2.456251">
        <ele>2736.788</ele>
        <time>2021-05-28T18:15:01Z</time>
      </trkpt>
      <trkpt lat="42.519825" lon="2.456225">
        <ele>2736.083</ele>
        <time>2021-05-28T18:15:08Z</time>
      </trkpt>
      <trkpt lat="42.519828" lon="2.456193">
        <ele>2734.720</ele>
        <time>2021-05-28T18:15:15Z</time>
      </trkpt>
      <trkpt lat="42.519813" lon="2.456162">
        <ele>2734.398</ele>
        <time>2021-05-28T18:15:18Z</time>
      </trkpt>
      <trkpt lat="42.519799" lon="2.456139">
        <ele>2734.097</ele>
        <time>2021-05-28T18:15:20Z</time>
      </trkpt>
      <trkpt lat="42.519776" lon="2.456117">
        <ele>2734.123</ele>
        <time>2021-05-28T18:15:23Z</time>
      </trkpt>
      <trkpt lat="42.519763" lon="2.456098">
        <ele>2733.725</ele>
        <time>2021-05-28T18:15:26Z</time>
      </trkpt>
      <trkpt lat="42.519786" lon="2.456103">
        <ele>2733.108</ele>
        <time>2021-05-28T18:15:32Z</time>
      </trkpt>
      <trkpt lat="42.519795" lon="2.456072">
        <ele>2731.156</ele>
        <time>2021-05-28T18:15:40Z</time>
      </trkpt>
      <trkpt lat="42.519807" lon="2.456052">
        <ele>2729.773</ele>
        <time>2021-05-28T18:15:43Z</time>
      </trkpt>
      <trkpt lat="42.519798" lon="2.456030">
        <ele>2728.914</ele>
        <time>2021-05-28T18:15:45Z</time>
      </trkpt>
      <trkpt lat="42.519783" lon="2.456010">
        <ele>2728.573</ele>
        <time>2021-05-28T18:15:48Z</time>
      </trkpt>
      <trkpt lat="42.519802" lon="2.456002">
        <ele>2727.320</ele>
        <time>2021-05-28T18:15:53Z</time>
      </trkpt>
      <trkpt lat="42.519820" lon="2.455979">
        <ele>2725.565</ele>
        <time>2021-05-28T18:15:56Z</time>
      </trkpt>
      <trkpt lat="42.519846" lon="2.455986">
        <ele>2724.872</ele>
        <time>2021-05-28T18:15:59Z</time>
      </trkpt>
      <trkpt lat="42.519868" lon="2.455997">
        <ele>2724.560</ele>
        <time>2021-05-28T18:16:01Z</time>
      </trkpt>
      <trkpt lat="42.519892" lon="2.456009">
        <ele>2724.122</ele>
        <time>2021-05-28T18:16:03Z</time>
      </trkpt>
      <trkpt lat="42.519908" lon="2.456020">
        <ele>2724.162</ele>
        <time>2021-05-28T18:16:05Z</time>
      </trkpt>
      <trkpt lat="42.519928" lon="2.456040">
        <ele>2724.308</ele>
        <time>2021-05-28T18:16:08Z</time>
      </trkpt>
      <trkpt lat="42.519944" lon="2.456050">
        <ele>2724.108</ele>
        <time>2021-05-28T18:16:11Z</time>
      </trkpt>
      <trkpt lat="42.519970" lon="2.456060">
        <ele>2723.659</ele>
        <time>2021-05-28T18:16:14Z</time>
      </trkpt>
      <trkpt lat="42.519995" lon="2.456067">
        <ele>2723.086</ele>
        <time>2021-05-28T18:16:17Z</time>
      </trkpt>
      <trkpt lat="42.520013" lon="2.456073">
        <ele>2722.517</ele>
        <time>2021-05-28T18:16:19Z</time>
      </trkpt>
      <trkpt lat="42.520037" lon="2.456073">
        <ele>2721.436</ele>
        <time>2021-05-28T18:16:21Z</time>
      </trkpt>
      <trkpt lat="42.520064" lon="2.456083">
        <ele>2720.893</ele>
        <time>2021-05-28T18:16:23Z</time>
      </trkpt>
      <trkpt lat="42.520082" lon="2.456073">
        <ele>2719.558</ele>
        <time>2021-05-28T18:16:31Z</time>
      </trkpt>
      <trkpt lat="42.520088" lon="2.456047">
        <ele>2717.865</ele>
        <time>2021-05-28T18:16:43Z</time>
      </trkpt>
      <trkpt lat="42.520106" lon="2.456034">
        <ele>2716.323</ele>
        <time>2021-05-28T18:17:04Z</time>
      </trkpt>
      <trkpt lat="42.520126" lon="2.456040">
        <ele>2715.745</ele>
        <time>2021-05-28T18:17:07Z</time>
      </trkpt>
      <trkpt lat="42.520147" lon="2.456037">
        <ele>2714.647</ele>
        <time>2021-05-28T18:17:09Z</time>
      </trkpt>
      <trkpt lat="42.520134" lon="2.456009">
        <ele>2713.711</ele>
        <time>2021-05-28T18:17:14Z</time>
      </trkpt>
      <trkpt lat="42.520151" lon="2.456001">
        <ele>2712.508</ele>
        <time>2021-05-28T18:17:26Z</time>
      </trkpt>
      <trkpt lat="42.520170" lon="2.455997">
        <ele>2711.471</ele>
        <time>2021-05-28T18:17:29Z</time>
      </trkpt>
      <trkpt lat="42.520171" lon="2.455972">
        <ele>2710.078</ele>
        <time>2021-05-28T18:17:33Z</time>
      </trkpt>
      <trkpt lat="42.520162" lon="2.455943">
        <ele>2708.839</ele>
        <time>2021-05-28T18:17:37Z</time>
      </trkpt>
      <trkpt lat="42.520146" lon="2.455924">
        <ele>2708.638</ele>
        <time>2021-05-28T18:17:43Z</time>
      </trkpt>
      <trkpt lat="42.520133" lon="2.455900">
        <ele>2707.925</ele>
        <time>2021-05-28T18:17:48Z</time>
      </trkpt>
      <trkpt lat="42.520117" lon="2.455881">
        <ele>2707.760</ele>
        <time>2021-05-28T18:17:50Z</time>
      </trkpt>
      <trkpt lat="42.520093" lon="2.455858">
        <ele>2707.697</ele>
        <time>2021-05-28T18:17:52Z</time>
      </trkpt>
      <trkpt lat="42.520071" lon="2.455830">
        <ele>2707.235</ele>
        <time>2021-05-28T18:17:55Z</time>
      </trkpt>
      <trkpt lat="42.520061" lon="2.455804">
        <ele>2706.241</ele>
        <time>2021-05-28T18:17:56Z</time>
      </trkpt>
      <trkpt lat="42.520046" lon="2.455783">
        <ele>2705.781</ele>
        <time>2021-05-28T18:17:58Z</time>
      </trkpt>
      <trkpt lat="42.520030" lon="2.455753">
        <ele>2704.709</ele>
        <time>2021-05-28T18:18:00Z</time>
      </trkpt>
      <trkpt lat="42.520014" lon="2.455727">
        <ele>2703.808</ele>
        <time>2021-05-28T18:18:02Z</time>
      </trkpt>
      <trkpt lat="42.520000" lon="2.455707">
        <ele>2703.361</ele>
        <time>2021-05-28T18:18:04Z</time>
      </trkpt>
      <trkpt lat="42.519982" lon="2.455688">
        <ele>2702.898</ele>
        <time>2021-05-28T18:18:07Z</time>
      </trkpt>
      <trkpt lat="42.519971" lon="2.455663">
        <ele>2701.729</ele>
        <time>2021-05-28T18:18:10Z</time>
      </trkpt>
      <trkpt lat="42.519963" lon="2.455640">
        <ele>2700.618</ele>
        <time>2021-05-28T18:18:12Z</time>
      </trkpt>
      <trkpt lat="42.519950" lon="2.455616">
        <ele>2699.735</ele>
        <time>2021-05-28T18:18:14Z</time>
      </trkpt>
      <trkpt lat="42.519934" lon="2.455601">
        <ele>2699.490</ele>
        <time>2021-05-28T18:18:16Z</time>
      </trkpt>
      <trkpt lat="42.519910" lon="2.455586">
        <ele>2699.487</ele>
        <time>2021-05-28T18:18:20Z</time>
      </trkpt>
      <trkpt lat="42.519895" lon="2.455562">
        <ele>2698.685</ele>
        <time>2021-05-28T18:18:23Z</time>
      </trkpt>
      <trkpt lat="42.519873" lon="2.455546">
        <ele>2698.597</ele>
        <time>2021-05-28T18:18:27Z</time>
      </trkpt>
      <trkpt lat="42.519869" lon="2.455517">
        <ele>2697.223</ele>
        <time>2021-05-28T18:18:30Z</time>
      </trkpt>
      <trkpt lat="42.519860" lon="2.455495">
        <ele>2696.425</ele>
        <time>2021-05-28T18:18:32Z</time>
      </trkpt>
      <trkpt lat="42.519843" lon="2.455477">
        <ele>2696.108</ele>
        <time>2021-05-28T18:18:34Z</time>
      </trkpt>
      <trkpt lat="42.519824" lon="2.455457">
        <ele>2695.716</ele>
        <time>2021-05-28T18:18:36Z</time>
      </trkpt>
      <trkpt lat="42.519802" lon="2.455445">
        <ele>2695.843</ele>
        <time>2021-05-28T18:18:38Z</time>
      </trkpt>
      <trkpt lat="42.519780" lon="2.455433">
        <ele>2695.964</ele>
        <time>2021-05-28T18:18:41Z</time>
      </trkpt>
      <trkpt lat="42.519765" lon="2.455417">
        <ele>2695.653</ele>
        <time>2021-05-28T18:18:46Z</time>
      </trkpt>
      <trkpt lat="42.519761" lon="2.455388">
        <ele>2694.190</ele>
        <time>2021-05-28T18:18:53Z</time>
      </trkpt>
      <trkpt lat="42.519742" lon="2.455367">
        <ele>2693.565</ele>
        <time>2021-05-28T18:18:56Z</time>
      </trkpt>
      <trkpt lat="42.519723" lon="2.455352">
        <ele>2693.332</ele>
        <time>2021-05-28T18:18:57Z</time>
      </trkpt>
      <trkpt lat="42.519704" lon="2.455331">
        <ele>2692.450</ele>
        <time>2021-05-28T18:18:59Z</time>
      </trkpt>
      <trkpt lat="42.519685" lon="2.455324">
        <ele>2692.223</ele>
        <time>2021-05-28T18:19:02Z</time>
      </trkpt>
      <trkpt lat="42.519673" lon="2.455302">
        <ele>2691.183</ele>
        <time>2021-05-28T18:19:08Z</time>
      </trkpt>
      <trkpt lat="42.519682" lon="2.455273">
        <ele>2689.311</ele>
        <time>2021-05-28T18:19:13Z</time>
      </trkpt>
      <trkpt lat="42.519702" lon="2.455291">
        <ele>2690.108</ele>
        <time>2021-05-28T18:19:15Z</time>
      </trkpt>
      <trkpt lat="42.519723" lon="2.455308">
        <ele>2690.749</ele>
        <time>2021-05-28T18:19:17Z</time>
      </trkpt>
      <trkpt lat="42.519747" lon="2.455315">
        <ele>2690.426</ele>
        <time>2021-05-28T18:19:20Z</time>
      </trkpt>
      <trkpt lat="42.519768" lon="2.455327">
        <ele>2690.417</ele>
        <time>2021-05-28T18:19:22Z</time>
      </trkpt>
      <trkpt lat="42.519787" lon="2.455337">
        <ele>2690.436</ele>
        <time>2021-05-28T18:19:24Z</time>
      </trkpt>
      <trkpt lat="42.519805" lon="2.455339">
        <ele>2689.923</ele>
        <time>2021-05-28T18:19:26Z</time>
      </trkpt>
      <trkpt lat="42.519825" lon="2.455347">
        <ele>2689.878</ele>
        <time>2021-05-28T18:19:28Z</time>
      </trkpt>
      <trkpt lat="42.519847" lon="2.455359">
        <ele>2689.725</ele>
        <time>2021-05-28T18:19:31Z</time>
      </trkpt>
      <trkpt lat="42.519874" lon="2.455364">
        <ele>2689.193</ele>
        <time>2021-05-28T18:19:33Z</time>
      </trkpt>
      <trkpt lat="42.519898" lon="2.455366">
        <ele>2688.442</ele>
        <time>2021-05-28T18:19:35Z</time>
      </trkpt>
      <trkpt lat="42.519916" lon="2.455369">
        <ele>2688.022</ele>
        <time>2021-05-28T18:19:38Z</time>
      </trkpt>
      <trkpt lat="42.519935" lon="2.455377">
        <ele>2687.814</ele>
        <time>2021-05-28T18:19:40Z</time>
      </trkpt>
      <trkpt lat="42.519957" lon="2.455391">
        <ele>2687.708</ele>
        <time>2021-05-28T18:19:42Z</time>
      </trkpt>
      <trkpt lat="42.519978" lon="2.455403">
        <ele>2687.651</ele>
        <time>2021-05-28T18:19:44Z</time>
      </trkpt>
      <trkpt lat="42.519996" lon="2.455411">
        <ele>2687.458</ele>
        <time>2021-05-28T18:19:46Z</time>
      </trkpt>
      <trkpt lat="42.520014" lon="2.455407">
        <ele>2686.519</ele>
        <time>2021-05-28T18:19:51Z</time>
      </trkpt>
      <trkpt lat="42.520031" lon="2.455412">
        <ele>2686.088</ele>
        <time>2021-05-28T18:19:54Z</time>
      </trkpt>
      <trkpt lat="42.520053" lon="2.455415">
        <ele>2685.255</ele>
        <time>2021-05-28T18:19:56Z</time>
      </trkpt>
      <trkpt lat="42.520077" lon="2.455413">
        <ele>2684.140</ele>
        <time>2021-05-28T18:19:58Z</time>
      </trkpt>
      <trkpt lat="42.520099" lon="2.455422">
        <ele>2683.787</ele>
        <time>2021-05-28T18:20:01Z</time>
      </trkpt>
      <trkpt lat="42.520123" lon="2.455427">
        <ele>2682.995</ele>
        <time>2021-05-28T18:20:04Z</time>
      </trkpt>
      <trkpt lat="42.520148" lon="2.455439">
        <ele>2682.566</ele>
        <time>2021-05-28T18:20:08Z</time>
      </trkpt>
      <trkpt lat="42.520171" lon="2.455439">
        <ele>2681.529</ele>
        <time>2021-05-28T18:20:10Z</time>
      </trkpt>
      <trkpt lat="42.520187" lon="2.455457">
        <ele>2681.721</ele>
        <time>2021-05-28T18:20:13Z</time>
      </trkpt>
      <trkpt lat="42.520208" lon="2.455465">
        <ele>2681.308</ele>
        <time>2021-05-28T18:20:16Z</time>
      </trkpt>
      <trkpt lat="42.520232" lon="2.455472">
        <ele>2680.733</ele>
        <time>2021-05-28T18:20:18Z</time>
      </trkpt>
      <trkpt lat="42.520253" lon="2.455490">
        <ele>2680.730</ele>
        <time>2021-05-28T18:20:21Z</time>
      </trkpt>
      <trkpt lat="42.520269" lon="2.455503">
        <ele>2680.741</ele>
        <time>2021-05-28T18:20:23Z</time>
      </trkpt>
      <trkpt lat="42.520291" lon="2.455510">
        <ele>2679.940</ele>
        <time>2021-05-28T18:20:27Z</time>
      </trkpt>
      <trkpt lat="42.520314" lon="2.455508">
        <ele>2678.517</ele>
        <time>2021-05-28T18:20:29Z</time>
      </trkpt>
      <trkpt lat="42.520334" lon="2.455521">
        <ele>2678.052</ele>
        <time>2021-05-28T18:20:36Z</time>
      </trkpt>
      <trkpt lat="42.520361" lon="2.455539">
        <ele>2677.429</ele>
        <time>2021-05-28T18:20:39Z</time>
      </trkpt>
      <trkpt lat="42.520387" lon="2.455548">
        <ele>2676.397</ele>
        <time>2021-05-28T18:20:41Z</time>
      </trkpt>
      <trkpt lat="42.520413" lon="2.455553">
        <ele>2675.114</ele>
        <time>2021-05-28T18:20:43Z</time>
      </trkpt>
      <trkpt lat="42.520434" lon="2.455560">
        <ele>2674.254</ele>
        <time>2021-05-28T18:20:46Z</time>
      </trkpt>
      <trkpt lat="42.520456" lon="2.455573">
        <ele>2673.709</ele>
        <time>2021-05-28T18:20:47Z</time>
      </trkpt>
      <trkpt lat="42.520472" lon="2.455590">
        <ele>2673.608</ele>
        <time>2021-05-28T18:20:49Z</time>
      </trkpt>
      <trkpt lat="42.520487" lon="2.455611">
        <ele>2673.988</ele>
        <time>2021-05-28T18:20:51Z</time>
      </trkpt>
      <trkpt lat="42.520504" lon="2.455621">
        <ele>2673.585</ele>
        <time>2021-05-28T18:20:53Z</time>
      </trkpt>
      <trkpt lat="42.520521" lon="2.455641">
        <ele>2673.696</ele>
        <time>2021-05-28T18:20:55Z</time>
      </trkpt>
      <trkpt lat="42.520540" lon="2.455659">
        <ele>2673.595</ele>
        <time>2021-05-28T18:20:58Z</time>
      </trkpt>
      <trkpt lat="42.520548" lon="2.455687">
        <ele>2674.522</ele>
        <time>2021-05-28T18:21:05Z</time>
      </trkpt>
      <trkpt lat="42.520565" lon="2.455703">
        <ele>2674.767</ele>
        <time>2021-05-28T18:21:13Z</time>
      </trkpt>
      <trkpt lat="42.520583" lon="2.455699">
        <ele>2673.964</ele>
        <time>2021-05-28T18:21:16Z</time>
      </trkpt>
      <trkpt lat="42.520604" lon="2.455713">
        <ele>2674.062</ele>
        <time>2021-05-28T18:21:19Z</time>
      </trkpt>
      <trkpt lat="42.520624" lon="2.455731">
        <ele>2674.344</ele>
        <time>2021-05-28T18:21:22Z</time>
      </trkpt>
      <trkpt lat="42.520651" lon="2.455741">
        <ele>2674.005</ele>
        <time>2021-05-28T18:21:25Z</time>
      </trkpt>
      <trkpt lat="42.520670" lon="2.455738">
        <ele>2673.315</ele>
        <time>2021-05-28T18:21:27Z</time>
      </trkpt>
      <trkpt lat="42.520695" lon="2.455743">
        <ele>2672.808</ele>
        <time>2021-05-28T18:21:31Z</time>
      </trkpt>
      <trkpt lat="42.520716" lon="2.455739">
        <ele>2671.931</ele>
        <time>2021-05-28T18:21:39Z</time>
      </trkpt>
      <trkpt lat="42.520731" lon="2.455720">
        <ele>2670.348</ele>
        <time>2021-05-28T18:21:44Z</time>
      </trkpt>
      <trkpt lat="42.520749" lon="2.455711">
        <ele>2669.229</ele>
        <time>2021-05-28T18:21:46Z</time>
      </trkpt>
      <trkpt lat="42.520774" lon="2.455709">
        <ele>2668.378</ele>
        <time>2021-05-28T18:21:48Z</time>
      </trkpt>
      <trkpt lat="42.520801" lon="2.455712">
        <ele>2667.635</ele>
        <time>2021-05-28T18:21:50Z</time>
      </trkpt>
      <trkpt lat="42.520831" lon="2.455720">
        <ele>2667.130</ele>
        <time>2021-05-28T18:21:52Z</time>
      </trkpt>
      <trkpt lat="42.520857" lon="2.455713">
        <ele>2666.017</ele>
        <time>2021-05-28T18:21:54Z</time>
      </trkpt>
      <trkpt lat="42.520881" lon="2.455715">
        <ele>2665.565</ele>
        <time>2021-05-28T18:21:56Z</time>
      </trkpt>
      <trkpt lat="42.520905" lon="2.455732">
        <ele>2665.866</ele>
        <time>2021-05-28T18:21:58Z</time>
      </trkpt>
      <trkpt lat="42.520934" lon="2.455759">
        <ele>2666.429</ele>
        <time>2021-05-28T18:22:00Z</time>
      </trkpt>
      <trkpt lat="42.520955" lon="2.455768">
        <ele>2666.221</ele>
        <time>2021-05-28T18:22:02Z</time>
      </trkpt>
      <trkpt lat="42.520976" lon="2.455771">
        <ele>2665.708</ele>
        <time>2021-05-28T18:22:04Z</time>
      </trkpt>
      <trkpt lat="42.520999" lon="2.455754">
        <ele>2664.293</ele>
        <time>2021-05-28T18:22:06Z</time>
      </trkpt>
      <trkpt lat="42.521021" lon="2.455733">
        <ele>2662.630</ele>
        <time>2021-05-28T18:22:09Z</time>
      </trkpt>
      <trkpt lat="42.521046" lon="2.455738">
        <ele>2662.141</ele>
        <time>2021-05-28T18:22:11Z</time>
      </trkpt>
      <trkpt lat="42.521072" lon="2.455764">
        <ele>2662.570</ele>
        <time>2021-05-28T18:22:13Z</time>
      </trkpt>
      <trkpt lat="42.521101" lon="2.455781">
        <ele>2662.287</ele>
        <time>2021-05-28T18:22:15Z</time>
      </trkpt>
      <trkpt lat="42.521126" lon="2.455783">
        <ele>2661.312</ele>
        <time>2021-05-28T18:22:17Z</time>
      </trkpt>
      <trkpt lat="42.521158" lon="2.455787">
        <ele>2659.899</ele>
        <time>2021-05-28T18:22:19Z</time>
      </trkpt>
      <trkpt lat="42.521179" lon="2.455789">
        <ele>2658.877</ele>
        <time>2021-05-28T18:22:21Z</time>
      </trkpt>
      <trkpt lat="42.521200" lon="2.455789">
        <ele>2657.889</ele>
        <time>2021-05-28T18:22:23Z</time>
      </trkpt>
      <trkpt lat="42.521224" lon="2.455797">
        <ele>2656.806</ele>
        <time>2021-05-28T18:22:25Z</time>
      </trkpt>
      <trkpt lat="42.521245" lon="2.455801">
        <ele>2655.826</ele>
        <time>2021-05-28T18:22:28Z</time>
      </trkpt>
      <trkpt lat="42.521252" lon="2.455776">
        <ele>2654.808</ele>
        <time>2021-05-28T18:22:30Z</time>
      </trkpt>
      <trkpt lat="42.521246" lon="2.455751">
        <ele>2654.345</ele>
        <time>2021-05-28T18:22:32Z</time>
      </trkpt>
      <trkpt lat="42.521228" lon="2.455727">
        <ele>2654.492</ele>
        <time>2021-05-28T18:22:34Z</time>
      </trkpt>
      <trkpt lat="42.521244" lon="2.455699">
        <ele>2652.923</ele>
        <time>2021-05-28T18:22:37Z</time>
      </trkpt>
      <trkpt lat="42.521266" lon="2.455701">
        <ele>2652.072</ele>
        <time>2021-05-28T18:22:39Z</time>
      </trkpt>
      <trkpt lat="42.521287" lon="2.455705">
        <ele>2651.219</ele>
        <time>2021-05-28T18:22:42Z</time>
      </trkpt>
      <trkpt lat="42.521312" lon="2.455727">
        <ele>2650.654</ele>
        <time>2021-05-28T18:22:45Z</time>
      </trkpt>
      <trkpt lat="42.521335" lon="2.455741">
        <ele>2649.951</ele>
        <time>2021-05-28T18:22:48Z</time>
      </trkpt>
      <trkpt lat="42.521353" lon="2.455739">
        <ele>2649.059</ele>
        <time>2021-05-28T18:22:57Z</time>
      </trkpt>
      <trkpt lat="42.521373" lon="2.455753">
        <ele>2648.362</ele>
        <time>2021-05-28T18:23:01Z</time>
      </trkpt>
      <trkpt lat="42.521377" lon="2.455729">
        <ele>2647.783</ele>
        <time>2021-05-28T18:23:03Z</time>
      </trkpt>
      <trkpt lat="42.521366" lon="2.455706">
        <ele>2647.711</ele>
        <time>2021-05-28T18:23:05Z</time>
      </trkpt>
      <trkpt lat="42.521360" lon="2.455682">
        <ele>2647.508</ele>
        <time>2021-05-28T18:23:11Z</time>
      </trkpt>
      <trkpt lat="42.521356" lon="2.455655">
        <ele>2647.133</ele>
        <time>2021-05-28T18:23:16Z</time>
      </trkpt>
      <trkpt lat="42.521351" lon="2.455616">
        <ele>2646.590</ele>
        <time>2021-05-28T18:23:20Z</time>
      </trkpt>
      <trkpt lat="42.521341" lon="2.455595">
        <ele>2646.411</ele>
        <time>2021-05-28T18:23:21Z</time>
      </trkpt>
      <trkpt lat="42.521327" lon="2.455574">
        <ele>2646.440</ele>
        <time>2021-05-28T18:23:22Z</time>
      </trkpt>
      <trkpt lat="42.521316" lon="2.455551">
        <ele>2646.177</ele>
        <time>2021-05-28T18:23:23Z</time>
      </trkpt>
      <trkpt lat="42.521306" lon="2.455527">
        <ele>2645.352</ele>
        <time>2021-05-28T18:23:24Z</time>
      </trkpt>
      <trkpt lat="42.521297" lon="2.455504">
        <ele>2644.429</ele>
        <time>2021-05-28T18:23:25Z</time>
      </trkpt>
      <trkpt lat="42.521281" lon="2.455480">
        <ele>2643.717</ele>
        <time>2021-05-28T18:23:27Z</time>
      </trkpt>
      <trkpt lat="42.521271" lon="2.455458">
        <ele>2643.047</ele>
        <time>2021-05-28T18:23:29Z</time>
      </trkpt>
      <trkpt lat="42.521262" lon="2.455425">
        <ele>2641.629</ele>
        <time>2021-05-28T18:23:31Z</time>
      </trkpt>
      <trkpt lat="42.521284" lon="2.455416">
        <ele>2640.521</ele>
        <time>2021-05-28T18:23:35Z</time>
      </trkpt>
      <trkpt lat="42.521300" lon="2.455431">
        <ele>2640.808</ele>
        <time>2021-05-28T18:23:37Z</time>
      </trkpt>
      <trkpt lat="42.521321" lon="2.455459">
        <ele>2641.541</ele>
        <time>2021-05-28T18:23:38Z</time>
      </trkpt>
      <trkpt lat="42.521340" lon="2.455474">
        <ele>2641.768</ele>
        <time>2021-05-28T18:23:40Z</time>
      </trkpt>
      <trkpt lat="42.521355" lon="2.455491">
        <ele>2642.029</ele>
        <time>2021-05-28T18:23:42Z</time>
      </trkpt>
      <trkpt lat="42.521368" lon="2.455513">
        <ele>2642.778</ele>
        <time>2021-05-28T18:23:44Z</time>
      </trkpt>
      <trkpt lat="42.521383" lon="2.455533">
        <ele>2643.195</ele>
        <time>2021-05-28T18:23:46Z</time>
      </trkpt>
      <trkpt lat="42.521405" lon="2.455552">
        <ele>2643.120</ele>
        <time>2021-05-28T18:23:48Z</time>
      </trkpt>
      <trkpt lat="42.521427" lon="2.455577">
        <ele>2642.697</ele>
        <time>2021-05-28T18:23:50Z</time>
      </trkpt>
      <trkpt lat="42.521454" lon="2.455597">
        <ele>2641.685</ele>
        <time>2021-05-28T18:23:52Z</time>
      </trkpt>
      <trkpt lat="42.521480" lon="2.455620">
        <ele>2640.623</ele>
        <time>2021-05-28T18:23:54Z</time>
      </trkpt>
      <trkpt lat="42.521496" lon="2.455634">
        <ele>2640.083</ele>
        <time>2021-05-28T18:23:55Z</time>
      </trkpt>
      <trkpt lat="42.521519" lon="2.455648">
        <ele>2639.011</ele>
        <time>2021-05-28T18:23:57Z</time>
      </trkpt>
      <trkpt lat="42.521544" lon="2.455658">
        <ele>2637.808</ele>
        <time>2021-05-28T18:23:59Z</time>
      </trkpt>
      <trkpt lat="42.521562" lon="2.455674">
        <ele>2637.039</ele>
        <time>2021-05-28T18:24:03Z</time>
      </trkpt>
      <trkpt lat="42.521582" lon="2.455680">
        <ele>2636.076</ele>
        <time>2021-05-28T18:24:07Z</time>
      </trkpt>
      <trkpt lat="42.521605" lon="2.455684">
        <ele>2634.897</ele>
        <time>2021-05-28T18:24:13Z</time>
      </trkpt>
      <trkpt lat="42.521628" lon="2.455687">
        <ele>2633.556</ele>
        <time>2021-05-28T18:24:16Z</time>
      </trkpt>
      <trkpt lat="42.521631" lon="2.455662">
        <ele>2633.243</ele>
        <time>2021-05-28T18:24:20Z</time>
      </trkpt>
      <trkpt lat="42.521628" lon="2.455635">
        <ele>2633.338</ele>
        <time>2021-05-28T18:24:22Z</time>
      </trkpt>
      <trkpt lat="42.521619" lon="2.455612">
        <ele>2633.655</ele>
        <time>2021-05-28T18:24:24Z</time>
      </trkpt>
      <trkpt lat="42.521606" lon="2.455593">
        <ele>2634.133</ele>
        <time>2021-05-28T18:24:26Z</time>
      </trkpt>
      <trkpt lat="42.521596" lon="2.455572">
        <ele>2634.442</ele>
        <time>2021-05-28T18:24:28Z</time>
      </trkpt>
      <trkpt lat="42.521590" lon="2.455541">
        <ele>2633.922</ele>
        <time>2021-05-28T18:24:30Z</time>
      </trkpt>
      <trkpt lat="42.521572" lon="2.455511">
        <ele>2633.314</ele>
        <time>2021-05-28T18:24:32Z</time>
      </trkpt>
      <trkpt lat="42.521560" lon="2.455481">
        <ele>2632.508</ele>
        <time>2021-05-28T18:24:35Z</time>
      </trkpt>
      <trkpt lat="42.521547" lon="2.455449">
        <ele>2631.611</ele>
        <time>2021-05-28T18:24:37Z</time>
      </trkpt>
      <trkpt lat="42.521541" lon="2.455418">
        <ele>2630.488</ele>
        <time>2021-05-28T18:24:39Z</time>
      </trkpt>
      <trkpt lat="42.521524" lon="2.455378">
        <ele>2629.419</ele>
        <time>2021-05-28T18:24:41Z</time>
      </trkpt>
      <trkpt lat="42.521512" lon="2.455348">
        <ele>2628.588</ele>
        <time>2021-05-28T18:24:43Z</time>
      </trkpt>
      <trkpt lat="42.521495" lon="2.455318">
        <ele>2627.995</ele>
        <time>2021-05-28T18:24:46Z</time>
      </trkpt>
      <trkpt lat="42.521475" lon="2.455286">
        <ele>2627.420</ele>
        <time>2021-05-28T18:24:48Z</time>
      </trkpt>
      <trkpt lat="42.521457" lon="2.455258">
        <ele>2626.757</ele>
        <time>2021-05-28T18:24:50Z</time>
      </trkpt>
      <trkpt lat="42.521441" lon="2.455236">
        <ele>2626.325</ele>
        <time>2021-05-28T18:24:53Z</time>
      </trkpt>
      <trkpt lat="42.521424" lon="2.455227">
        <ele>2626.642</ele>
        <time>2021-05-28T18:24:55Z</time>
      </trkpt>
      <trkpt lat="42.521409" lon="2.455204">
        <ele>2626.122</ele>
        <time>2021-05-28T18:24:58Z</time>
      </trkpt>
      <trkpt lat="42.521427" lon="2.455228">
        <ele>2626.514</ele>
        <time>2021-05-28T18:25:04Z</time>
      </trkpt>
      <trkpt lat="42.521451" lon="2.455239">
        <ele>2626.008</ele>
        <time>2021-05-28T18:25:06Z</time>
      </trkpt>
      <trkpt lat="42.521473" lon="2.455253">
        <ele>2625.791</ele>
        <time>2021-05-28T18:25:08Z</time>
      </trkpt>
      <trkpt lat="42.521495" lon="2.455261">
        <ele>2625.198</ele>
        <time>2021-05-28T18:25:10Z</time>
      </trkpt>
      <trkpt lat="42.521516" lon="2.455278">
        <ele>2625.149</ele>
        <time>2021-05-28T18:25:12Z</time>
      </trkpt>
      <trkpt lat="42.521530" lon="2.455293">
        <ele>2625.188</ele>
        <time>2021-05-28T18:25:14Z</time>
      </trkpt>
      <trkpt lat="42.521548" lon="2.455303">
        <ele>2624.725</ele>
        <time>2021-05-28T18:25:16Z</time>
      </trkpt>
      <trkpt lat="42.521565" lon="2.455312">
        <ele>2624.470</ele>
        <time>2021-05-28T18:25:18Z</time>
      </trkpt>
      <trkpt lat="42.521583" lon="2.455320">
        <ele>2623.997</ele>
        <time>2021-05-28T18:25:20Z</time>
      </trkpt>
      <trkpt lat="42.521616" lon="2.455347">
        <ele>2623.695</ele>
        <time>2021-05-28T18:25:22Z</time>
      </trkpt>
      <trkpt lat="42.521641" lon="2.455373">
        <ele>2623.784</ele>
        <time>2021-05-28T18:25:24Z</time>
      </trkpt>
      <trkpt lat="42.521659" lon="2.455378">
        <ele>2623.007</ele>
        <time>2021-05-28T18:25:25Z</time>
      </trkpt>
      <trkpt lat="42.521677" lon="2.455384">
        <ele>2622.417</ele>
        <time>2021-05-28T18:25:26Z</time>
      </trkpt>
      <trkpt lat="42.521697" lon="2.455404">
        <ele>2622.408</ele>
        <time>2021-05-28T18:25:28Z</time>
      </trkpt>
      <trkpt lat="42.521711" lon="2.455421">
        <ele>2622.565</ele>
        <time>2021-05-28T18:25:31Z</time>
      </trkpt>
      <trkpt lat="42.521732" lon="2.455428">
        <ele>2621.892</ele>
        <time>2021-05-28T18:25:34Z</time>
      </trkpt>
      <trkpt lat="42.521756" lon="2.455443">
        <ele>2621.313</ele>
        <time>2021-05-28T18:25:37Z</time>
      </trkpt>
      <trkpt lat="42.521774" lon="2.455456">
        <ele>2621.032</ele>
        <time>2021-05-28T18:25:39Z</time>
      </trkpt>
      <trkpt lat="42.521797" lon="2.455472">
        <ele>2620.799</ele>
        <time>2021-05-28T18:25:41Z</time>
      </trkpt>
      <trkpt lat="42.521823" lon="2.455489">
        <ele>2620.324</ele>
        <time>2021-05-28T18:25:43Z</time>
      </trkpt>
      <trkpt lat="42.521845" lon="2.455505">
        <ele>2620.141</ele>
        <time>2021-05-28T18:25:45Z</time>
      </trkpt>
      <trkpt lat="42.521865" lon="2.455524">
        <ele>2620.119</ele>
        <time>2021-05-28T18:25:47Z</time>
      </trkpt>
      <trkpt lat="42.521897" lon="2.455526">
        <ele>2618.766</ele>
        <time>2021-05-28T18:25:49Z</time>
      </trkpt>
      <trkpt lat="42.521923" lon="2.455542">
        <ele>2618.329</ele>
        <time>2021-05-28T18:25:51Z</time>
      </trkpt>
      <trkpt lat="42.521948" lon="2.455561">
        <ele>2617.921</ele>
        <time>2021-05-28T18:25:53Z</time>
      </trkpt>
      <trkpt lat="42.521968" lon="2.455569">
        <ele>2617.008</ele>
        <time>2021-05-28T18:25:55Z</time>
      </trkpt>
      <trkpt lat="42.521993" lon="2.455577">
        <ele>2615.953</ele>
        <time>2021-05-28T18:25:57Z</time>
      </trkpt>
      <trkpt lat="42.522010" lon="2.455590">
        <ele>2615.270</ele>
        <time>2021-05-28T18:25:59Z</time>
      </trkpt>
      <trkpt lat="42.522031" lon="2.455593">
        <ele>2614.321</ele>
        <time>2021-05-28T18:26:04Z</time>
      </trkpt>
      <trkpt lat="42.522048" lon="2.455579">
        <ele>2613.450</ele>
        <time>2021-05-28T18:26:08Z</time>
      </trkpt>
      <trkpt lat="42.522033" lon="2.455565">
        <ele>2613.927</ele>
        <time>2021-05-28T18:26:45Z</time>
      </trkpt>
      <trkpt lat="42.522052" lon="2.455581">
        <ele>2613.292</ele>
        <time>2021-05-28T18:27:00Z</time>
      </trkpt>
      <trkpt lat="42.522071" lon="2.455596">
        <ele>2612.579</ele>
        <time>2021-05-28T18:27:03Z</time>
      </trkpt>
      <trkpt lat="42.522094" lon="2.455605">
        <ele>2611.547</ele>
        <time>2021-05-28T18:27:05Z</time>
      </trkpt>
      <trkpt lat="42.522115" lon="2.455616">
        <ele>2610.751</ele>
        <time>2021-05-28T18:27:07Z</time>
      </trkpt>
      <trkpt lat="42.522135" lon="2.455626">
        <ele>2609.901</ele>
        <time>2021-05-28T18:27:09Z</time>
      </trkpt>
      <trkpt lat="42.522162" lon="2.455645">
        <ele>2609.011</ele>
        <time>2021-05-28T18:27:11Z</time>
      </trkpt>
      <trkpt lat="42.522186" lon="2.455657">
        <ele>2608.108</ele>
        <time>2021-05-28T18:27:13Z</time>
      </trkpt>
      <trkpt lat="42.522206" lon="2.455668">
        <ele>2607.312</ele>
        <time>2021-05-28T18:27:15Z</time>
      </trkpt>
      <trkpt lat="42.522230" lon="2.455683">
        <ele>2606.649</ele>
        <time>2021-05-28T18:27:18Z</time>
      </trkpt>
      <trkpt lat="42.522252" lon="2.455694">
        <ele>2605.950</ele>
        <time>2021-05-28T18:27:20Z</time>
      </trkpt>
      <trkpt lat="42.522272" lon="2.455708">
        <ele>2605.479</ele>
        <time>2021-05-28T18:27:22Z</time>
      </trkpt>
      <trkpt lat="42.522288" lon="2.455721">
        <ele>2605.056</ele>
        <time>2021-05-28T18:27:25Z</time>
      </trkpt>
      <trkpt lat="42.522301" lon="2.455701">
        <ele>2604.361</ele>
        <time>2021-05-28T18:27:28Z</time>
      </trkpt>
      <trkpt lat="42.522293" lon="2.455678">
        <ele>2604.298</ele>
        <time>2021-05-28T18:27:32Z</time>
      </trkpt>
      <trkpt lat="42.522309" lon="2.455662">
        <ele>2603.416</ele>
        <time>2021-05-28T18:27:43Z</time>
      </trkpt>
      <trkpt lat="42.522328" lon="2.455658">
        <ele>2602.758</ele>
        <time>2021-05-28T18:27:56Z</time>
      </trkpt>
      <trkpt lat="42.522347" lon="2.455652">
        <ele>2601.952</ele>
        <time>2021-05-28T18:28:00Z</time>
      </trkpt>
      <trkpt lat="42.522368" lon="2.455651">
        <ele>2601.117</ele>
        <time>2021-05-28T18:28:06Z</time>
      </trkpt>
      <trkpt lat="42.522391" lon="2.455663">
        <ele>2600.508</ele>
        <time>2021-05-28T18:28:08Z</time>
      </trkpt>
      <trkpt lat="42.522410" lon="2.455669">
        <ele>2599.912</ele>
        <time>2021-05-28T18:28:10Z</time>
      </trkpt>
      <trkpt lat="42.522432" lon="2.455680">
        <ele>2599.299</ele>
        <time>2021-05-28T18:28:12Z</time>
      </trkpt>
      <trkpt lat="42.522454" lon="2.455692">
        <ele>2598.630</ele>
        <time>2021-05-28T18:28:14Z</time>
      </trkpt>
      <trkpt lat="42.522475" lon="2.455707">
        <ele>2598.169</ele>
        <time>2021-05-28T18:28:17Z</time>
      </trkpt>
      <trkpt lat="42.522494" lon="2.455709">
        <ele>2597.476</ele>
        <time>2021-05-28T18:28:19Z</time>
      </trkpt>
      <trkpt lat="42.522496" lon="2.455679">
        <ele>2596.921</ele>
        <time>2021-05-28T18:28:22Z</time>
      </trkpt>
      <trkpt lat="42.522520" lon="2.455681">
        <ele>2596.498</ele>
        <time>2021-05-28T18:28:25Z</time>
      </trkpt>
      <trkpt lat="42.522554" lon="2.455683">
        <ele>2595.686</ele>
        <time>2021-05-28T18:28:27Z</time>
      </trkpt>
      <trkpt lat="42.522582" lon="2.455683">
        <ele>2595.095</ele>
        <time>2021-05-28T18:28:29Z</time>
      </trkpt>
      <trkpt lat="42.522610" lon="2.455686">
        <ele>2594.449</ele>
        <time>2021-05-28T18:28:31Z</time>
      </trkpt>
      <trkpt lat="42.522641" lon="2.455696">
        <ele>2593.723</ele>
        <time>2021-05-28T18:28:33Z</time>
      </trkpt>
      <trkpt lat="42.522671" lon="2.455695">
        <ele>2593.008</ele>
        <time>2021-05-28T18:28:35Z</time>
      </trkpt>
      <trkpt lat="42.522688" lon="2.455705">
        <ele>2592.656</ele>
        <time>2021-05-28T18:28:37Z</time>
      </trkpt>
      <trkpt lat="42.522708" lon="2.455706">
        <ele>2592.113</ele>
        <time>2021-05-28T18:28:40Z</time>
      </trkpt>
      <trkpt lat="42.522735" lon="2.455685">
        <ele>2591.574</ele>
        <time>2021-05-28T18:28:42Z</time>
      </trkpt>
      <trkpt lat="42.522772" lon="2.455681">
        <ele>2590.753</ele>
        <time>2021-05-28T18:28:44Z</time>
      </trkpt>
      <trkpt lat="42.522792" lon="2.455682">
        <ele>2590.370</ele>
        <time>2021-05-28T18:28:45Z</time>
      </trkpt>
      <trkpt lat="42.522810" lon="2.455687">
        <ele>2590.125</ele>
        <time>2021-05-28T18:28:46Z</time>
      </trkpt>
      <trkpt lat="42.522842" lon="2.455701">
        <ele>2589.572</ele>
        <time>2021-05-28T18:28:48Z</time>
      </trkpt>
      <trkpt lat="42.522866" lon="2.455722">
        <ele>2589.010</ele>
        <time>2021-05-28T18:28:50Z</time>
      </trkpt>
      <trkpt lat="42.522888" lon="2.455736">
        <ele>2588.539</ele>
        <time>2021-05-28T18:28:53Z</time>
      </trkpt>
      <trkpt lat="42.522920" lon="2.455741">
        <ele>2587.901</ele>
        <time>2021-05-28T18:28:55Z</time>
      </trkpt>
      <trkpt lat="42.522948" lon="2.455728">
        <ele>2587.621</ele>
        <time>2021-05-28T18:28:57Z</time>
      </trkpt>
      <trkpt lat="42.522974" lon="2.455725">
        <ele>2587.308</ele>
        <time>2021-05-28T18:29:00Z</time>
      </trkpt>
      <trkpt lat="42.522997" lon="2.455728">
        <ele>2586.880</ele>
        <time>2021-05-28T18:29:02Z</time>
      </trkpt>
      <trkpt lat="42.523022" lon="2.455723">
        <ele>2586.547</ele>
        <time>2021-05-28T18:29:06Z</time>
      </trkpt>
      <trkpt lat="42.523040" lon="2.455722">
        <ele>2586.288</ele>
        <time>2021-05-28T18:29:08Z</time>
      </trkpt>
      <trkpt lat="42.523059" lon="2.455711">
        <ele>2586.317</ele>
        <time>2021-05-28T18:29:12Z</time>
      </trkpt>
      <trkpt lat="42.523085" lon="2.455710">
        <ele>2586.724</ele>
        <time>2021-05-28T18:29:16Z</time>
      </trkpt>
      <trkpt lat="42.523107" lon="2.455697">
        <ele>2587.379</ele>
        <time>2021-05-28T18:29:19Z</time>
      </trkpt>
      <trkpt lat="42.523113" lon="2.455671">
        <ele>2587.886</ele>
        <time>2021-05-28T18:29:21Z</time>
      </trkpt>
      <trkpt lat="42.523127" lon="2.455640">
        <ele>2588.674</ele>
        <time>2021-05-28T18:29:24Z</time>
      </trkpt>
      <trkpt lat="42.523141" lon="2.455615">
        <ele>2589.298</ele>
        <time>2021-05-28T18:29:27Z</time>
      </trkpt>
      <trkpt lat="42.523162" lon="2.455600">
        <ele>2589.815</ele>
        <time>2021-05-28T18:29:29Z</time>
      </trkpt>
      <trkpt lat="42.523176" lon="2.455581">
        <ele>2590.326</ele>
        <time>2021-05-28T18:29:31Z</time>
      </trkpt>
      <trkpt lat="42.523200" lon="2.455569">
        <ele>2590.908</ele>
        <time>2021-05-28T18:29:33Z</time>
      </trkpt>
      <trkpt lat="42.523222" lon="2.455564">
        <ele>2591.336</ele>
        <time>2021-05-28T18:29:35Z</time>
      </trkpt>
      <trkpt lat="42.523243" lon="2.455546">
        <ele>2591.253</ele>
        <time>2021-05-28T18:29:37Z</time>
      </trkpt>
      <trkpt lat="42.523276" lon="2.455539">
        <ele>2591.234</ele>
        <time>2021-05-28T18:29:39Z</time>
      </trkpt>
      <trkpt lat="42.523294" lon="2.455523">
        <ele>2590.633</ele>
        <time>2021-05-28T18:29:41Z</time>
      </trkpt>
      <trkpt lat="42.523320" lon="2.455515">
        <ele>2590.530</ele>
        <time>2021-05-28T18:29:44Z</time>
      </trkpt>
      <trkpt lat="42.523342" lon="2.455513">
        <ele>2590.535</ele>
        <time>2021-05-28T18:29:46Z</time>
      </trkpt>
      <trkpt lat="42.523360" lon="2.455503">
        <ele>2590.072</ele>
        <time>2021-05-28T18:29:48Z</time>
      </trkpt>
      <trkpt lat="42.523377" lon="2.455482">
        <ele>2588.940</ele>
        <time>2021-05-28T18:29:51Z</time>
      </trkpt>
      <trkpt lat="42.523395" lon="2.455465">
        <ele>2588.011</ele>
        <time>2021-05-28T18:29:57Z</time>
      </trkpt>
      <trkpt lat="42.523406" lon="2.455435">
        <ele>2586.521</ele>
        <time>2021-05-28T18:30:02Z</time>
      </trkpt>
      <trkpt lat="42.523411" lon="2.455410">
        <ele>2585.203</ele>
        <time>2021-05-28T18:30:04Z</time>
      </trkpt>
      <trkpt lat="42.523438" lon="2.455397">
        <ele>2584.808</ele>
        <time>2021-05-28T18:30:07Z</time>
      </trkpt>
      <trkpt lat="42.523459" lon="2.455377">
        <ele>2584.048</ele>
        <time>2021-05-28T18:30:09Z</time>
      </trkpt>
      <trkpt lat="42.523481" lon="2.455355">
        <ele>2583.265</ele>
        <time>2021-05-28T18:30:11Z</time>
      </trkpt>
      <trkpt lat="42.523498" lon="2.455370">
        <ele>2584.136</ele>
        <time>2021-05-28T18:30:14Z</time>
      </trkpt>
      <trkpt lat="42.523517" lon="2.455349">
        <ele>2583.415</ele>
        <time>2021-05-28T18:30:16Z</time>
      </trkpt>
      <trkpt lat="42.523535" lon="2.455329">
        <ele>2582.872</ele>
        <time>2021-05-28T18:30:19Z</time>
      </trkpt>
      <trkpt lat="42.523551" lon="2.455312">
        <ele>2582.347</ele>
        <time>2021-05-28T18:30:22Z</time>
      </trkpt>
      <trkpt lat="42.523572" lon="2.455308">
        <ele>2582.514</ele>
        <time>2021-05-28T18:30:24Z</time>
      </trkpt>
      <trkpt lat="42.523590" lon="2.455291">
        <ele>2582.122</ele>
        <time>2021-05-28T18:30:26Z</time>
      </trkpt>
      <trkpt lat="42.523613" lon="2.455294">
        <ele>2582.627</ele>
        <time>2021-05-28T18:30:29Z</time>
      </trkpt>
      <trkpt lat="42.523639" lon="2.455292">
        <ele>2582.868</ele>
        <time>2021-05-28T18:30:31Z</time>
      </trkpt>
      <trkpt lat="42.523670" lon="2.455278">
        <ele>2582.614</ele>
        <time>2021-05-28T18:30:33Z</time>
      </trkpt>
      <trkpt lat="42.523689" lon="2.455269">
        <ele>2582.308</ele>
        <time>2021-05-28T18:30:35Z</time>
      </trkpt>
      <trkpt lat="42.523708" lon="2.455266">
        <ele>2582.329</ele>
        <time>2021-05-28T18:30:37Z</time>
      </trkpt>
      <trkpt lat="42.523725" lon="2.455243">
        <ele>2581.016</ele>
        <time>2021-05-28T18:30:39Z</time>
      </trkpt>
      <trkpt lat="42.523741" lon="2.455231">
        <ele>2580.427</ele>
        <time>2021-05-28T18:30:40Z</time>
      </trkpt>
      <trkpt lat="42.523757" lon="2.455221">
        <ele>2579.916</ele>
        <time>2021-05-28T18:30:41Z</time>
      </trkpt>
      <trkpt lat="42.523792" lon="2.455213">
        <ele>2579.843</ele>
        <time>2021-05-28T18:30:43Z</time>
      </trkpt>
      <trkpt lat="42.523823" lon="2.455200">
        <ele>2579.448</ele>
        <time>2021-05-28T18:30:45Z</time>
      </trkpt>
      <trkpt lat="42.523865" lon="2.455183">
        <ele>2578.975</ele>
        <time>2021-05-28T18:30:48Z</time>
      </trkpt>
      <trkpt lat="42.523893" lon="2.455165">
        <ele>2578.123</ele>
        <time>2021-05-28T18:30:50Z</time>
      </trkpt>
      <trkpt lat="42.523909" lon="2.455152">
        <ele>2577.444</ele>
        <time>2021-05-28T18:30:51Z</time>
      </trkpt>
      <trkpt lat="42.523930" lon="2.455127">
        <ele>2576.105</ele>
        <time>2021-05-28T18:30:53Z</time>
      </trkpt>
      <trkpt lat="42.523961" lon="2.455134">
        <ele>2576.715</ele>
        <time>2021-05-28T18:30:56Z</time>
      </trkpt>
      <trkpt lat="42.523980" lon="2.455129">
        <ele>2576.608</ele>
        <time>2021-05-28T18:31:00Z</time>
      </trkpt>
      <trkpt lat="42.523992" lon="2.455109">
        <ele>2575.581</ele>
        <time>2021-05-28T18:31:03Z</time>
      </trkpt>
      <trkpt lat="42.524011" lon="2.455107">
        <ele>2575.558</ele>
        <time>2021-05-28T18:31:05Z</time>
      </trkpt>
      <trkpt lat="42.524031" lon="2.455097">
        <ele>2575.119</ele>
        <time>2021-05-28T18:31:07Z</time>
      </trkpt>
      <trkpt lat="42.524048" lon="2.455085">
        <ele>2574.638</ele>
        <time>2021-05-28T18:31:09Z</time>
      </trkpt>
      <trkpt lat="42.524067" lon="2.455082">
        <ele>2574.675</ele>
        <time>2021-05-28T18:31:11Z</time>
      </trkpt>
      <trkpt lat="42.524095" lon="2.455070">
        <ele>2574.180</ele>
        <time>2021-05-28T18:31:14Z</time>
      </trkpt>
      <trkpt lat="42.524117" lon="2.455053">
        <ele>2573.467</ele>
        <time>2021-05-28T18:31:17Z</time>
      </trkpt>
      <trkpt lat="42.524139" lon="2.455035">
        <ele>2572.685</ele>
        <time>2021-05-28T18:31:20Z</time>
      </trkpt>
      <trkpt lat="42.524171" lon="2.455033">
        <ele>2572.751</ele>
        <time>2021-05-28T18:31:23Z</time>
      </trkpt>
      <trkpt lat="42.524194" lon="2.455020">
        <ele>2571.801</ele>
        <time>2021-05-28T18:31:25Z</time>
      </trkpt>
      <trkpt lat="42.524214" lon="2.454998">
        <ele>2570.411</ele>
        <time>2021-05-28T18:31:27Z</time>
      </trkpt>
      <trkpt lat="42.524237" lon="2.454986">
        <ele>2569.408</ele>
        <time>2021-05-28T18:31:29Z</time>
      </trkpt>
      <trkpt lat="42.524259" lon="2.454982">
        <ele>2568.992</ele>
        <time>2021-05-28T18:31:31Z</time>
      </trkpt>
      <trkpt lat="42.524273" lon="2.454964">
        <ele>2567.769</ele>
        <time>2021-05-28T18:31:33Z</time>
      </trkpt>
      <trkpt lat="42.524297" lon="2.454947">
        <ele>2566.570</ele>
        <time>2021-05-28T18:31:35Z</time>
      </trkpt>
      <trkpt lat="42.524319" lon="2.454933">
        <ele>2565.589</ele>
        <time>2021-05-28T18:31:37Z</time>
      </trkpt>
      <trkpt lat="42.524341" lon="2.454931">
        <ele>2565.256</ele>
        <time>2021-05-28T18:31:39Z</time>
      </trkpt>
      <trkpt lat="42.524369" lon="2.454935">
        <ele>2565.281</ele>
        <time>2021-05-28T18:31:42Z</time>
      </trkpt>
      <trkpt lat="42.524391" lon="2.454942">
        <ele>2565.428</ele>
        <time>2021-05-28T18:31:44Z</time>
      </trkpt>
      <trkpt lat="42.524416" lon="2.454950">
        <ele>2565.626</ele>
        <time>2021-05-28T18:31:47Z</time>
      </trkpt>
      <trkpt lat="42.524437" lon="2.454941">
        <ele>2564.985</ele>
        <time>2021-05-28T18:31:49Z</time>
      </trkpt>
      <trkpt lat="42.524457" lon="2.454931">
        <ele>2564.189</ele>
        <time>2021-05-28T18:31:52Z</time>
      </trkpt>
      <trkpt lat="42.524486" lon="2.454934">
        <ele>2563.917</ele>
        <time>2021-05-28T18:31:55Z</time>
      </trkpt>
      <trkpt lat="42.524508" lon="2.454937">
        <ele>2563.708</ele>
        <time>2021-05-28T18:31:57Z</time>
      </trkpt>
      <trkpt lat="42.524531" lon="2.454937">
        <ele>2563.435</ele>
        <time>2021-05-28T18:31:59Z</time>
      </trkpt>
      <trkpt lat="42.524555" lon="2.454930">
        <ele>2562.742</ele>
        <time>2021-05-28T18:32:01Z</time>
      </trkpt>
      <trkpt lat="42.524575" lon="2.454921">
        <ele>2562.033</ele>
        <time>2021-05-28T18:32:03Z</time>
      </trkpt>
      <trkpt lat="42.524598" lon="2.454923">
        <ele>2561.882</ele>
        <time>2021-05-28T18:32:05Z</time>
      </trkpt>
      <trkpt lat="42.524619" lon="2.454931">
        <ele>2561.929</ele>
        <time>2021-05-28T18:32:07Z</time>
      </trkpt>
      <trkpt lat="42.524640" lon="2.454922">
        <ele>2561.224</ele>
        <time>2021-05-28T18:32:09Z</time>
      </trkpt>
      <trkpt lat="42.524659" lon="2.454913">
        <ele>2560.541</ele>
        <time>2021-05-28T18:32:11Z</time>
      </trkpt>
      <trkpt lat="42.524678" lon="2.454905">
        <ele>2559.889</ele>
        <time>2021-05-28T18:32:13Z</time>
      </trkpt>
      <trkpt lat="42.524701" lon="2.454898">
        <ele>2559.167</ele>
        <time>2021-05-28T18:32:16Z</time>
      </trkpt>
      <trkpt lat="42.524718" lon="2.454895">
        <ele>2558.881</ele>
        <time>2021-05-28T18:32:19Z</time>
      </trkpt>
      <trkpt lat="42.524736" lon="2.454886">
        <ele>2558.119</ele>
        <time>2021-05-28T18:32:21Z</time>
      </trkpt>
      <trkpt lat="42.524759" lon="2.454875">
        <ele>2557.408</ele>
        <time>2021-05-28T18:32:23Z</time>
      </trkpt>
      <trkpt lat="42.524785" lon="2.454865">
        <ele>2556.693</ele>
        <time>2021-05-28T18:32:25Z</time>
      </trkpt>
      <trkpt lat="42.524818" lon="2.454855">
        <ele>2555.830</ele>
        <time>2021-05-28T18:32:27Z</time>
      </trkpt>
      <trkpt lat="42.524847" lon="2.454847">
        <ele>2555.261</ele>
        <time>2021-05-28T18:32:29Z</time>
      </trkpt>
      <trkpt lat="42.524873" lon="2.454836">
        <ele>2554.410</ele>
        <time>2021-05-28T18:32:31Z</time>
      </trkpt>
      <trkpt lat="42.524890" lon="2.454824">
        <ele>2553.737</ele>
        <time>2021-05-28T18:32:34Z</time>
      </trkpt>
      <trkpt lat="42.524907" lon="2.454814">
        <ele>2553.192</ele>
        <time>2021-05-28T18:32:37Z</time>
      </trkpt>
      <trkpt lat="42.524923" lon="2.454799">
        <ele>2552.299</ele>
        <time>2021-05-28T18:32:40Z</time>
      </trkpt>
      <trkpt lat="42.524951" lon="2.454792">
        <ele>2551.727</ele>
        <time>2021-05-28T18:32:43Z</time>
      </trkpt>
      <trkpt lat="42.524975" lon="2.454790">
        <ele>2551.465</ele>
        <time>2021-05-28T18:32:45Z</time>
      </trkpt>
      <trkpt lat="42.524995" lon="2.454802">
        <ele>2551.868</ele>
        <time>2021-05-28T18:32:48Z</time>
      </trkpt>
      <trkpt lat="42.525015" lon="2.454779">
        <ele>2550.614</ele>
        <time>2021-05-28T18:32:52Z</time>
      </trkpt>
      <trkpt lat="42.525042" lon="2.454769">
        <ele>2549.908</ele>
        <time>2021-05-28T18:32:56Z</time>
      </trkpt>
      <trkpt lat="42.525064" lon="2.454765">
        <ele>2549.663</ele>
        <time>2021-05-28T18:32:58Z</time>
      </trkpt>
      <trkpt lat="42.525086" lon="2.454758">
        <ele>2549.140</ele>
        <time>2021-05-28T18:33:01Z</time>
      </trkpt>
      <trkpt lat="42.525108" lon="2.454758">
        <ele>2548.961</ele>
        <time>2021-05-28T18:33:04Z</time>
      </trkpt>
      <trkpt lat="42.525131" lon="2.454755">
        <ele>2548.630</ele>
        <time>2021-05-28T18:33:06Z</time>
      </trkpt>
      <trkpt lat="42.525148" lon="2.454740">
        <ele>2547.847</ele>
        <time>2021-05-28T18:33:08Z</time>
      </trkpt>
      <trkpt lat="42.525166" lon="2.454742">
        <ele>2547.842</ele>
        <time>2021-05-28T18:33:10Z</time>
      </trkpt>
      <trkpt lat="42.525190" lon="2.454747">
        <ele>2547.999</ele>
        <time>2021-05-28T18:33:12Z</time>
      </trkpt>
      <trkpt lat="42.525213" lon="2.454758">
        <ele>2548.267</ele>
        <time>2021-05-28T18:33:14Z</time>
      </trkpt>
      <trkpt lat="42.525229" lon="2.454744">
        <ele>2547.419</ele>
        <time>2021-05-28T18:33:16Z</time>
      </trkpt>
      <trkpt lat="42.525253" lon="2.454734">
        <ele>2546.809</ele>
        <time>2021-05-28T18:33:19Z</time>
      </trkpt>
      <trkpt lat="42.525280" lon="2.454728">
        <ele>2546.319</ele>
        <time>2021-05-28T18:33:21Z</time>
      </trkpt>
      <trkpt lat="42.525304" lon="2.454724">
        <ele>2545.908</ele>
        <time>2021-05-28T18:33:23Z</time>
      </trkpt>
      <trkpt lat="42.525322" lon="2.454727">
        <ele>2545.988</ele>
        <time>2021-05-28T18:33:25Z</time>
      </trkpt>
      <trkpt lat="42.525347" lon="2.454726">
        <ele>2545.725</ele>
        <time>2021-05-28T18:33:28Z</time>
      </trkpt>
      <trkpt lat="42.525365" lon="2.454717">
        <ele>2545.196</ele>
        <time>2021-05-28T18:33:31Z</time>
      </trkpt>
      <trkpt lat="42.525388" lon="2.454716">
        <ele>2544.995</ele>
        <time>2021-05-28T18:33:34Z</time>
      </trkpt>
      <trkpt lat="42.525410" lon="2.454713">
        <ele>2544.722</ele>
        <time>2021-05-28T18:33:36Z</time>
      </trkpt>
      <trkpt lat="42.525429" lon="2.454715">
        <ele>2544.617</ele>
        <time>2021-05-28T18:33:38Z</time>
      </trkpt>
      <trkpt lat="42.525447" lon="2.454706">
        <ele>2544.164</ele>
        <time>2021-05-28T18:33:41Z</time>
      </trkpt>
      <trkpt lat="42.525466" lon="2.454704">
        <ele>2543.922</ele>
        <time>2021-05-28T18:33:43Z</time>
      </trkpt>
      <trkpt lat="42.525486" lon="2.454692">
        <ele>2543.299</ele>
        <time>2021-05-28T18:33:45Z</time>
      </trkpt>
      <trkpt lat="42.525504" lon="2.454684">
        <ele>2542.707</ele>
        <time>2021-05-28T18:33:47Z</time>
      </trkpt>
      <trkpt lat="42.525523" lon="2.454685">
        <ele>2542.627</ele>
        <time>2021-05-28T18:33:49Z</time>
      </trkpt>
      <trkpt lat="42.525542" lon="2.454664">
        <ele>2541.608</ele>
        <time>2021-05-28T18:33:51Z</time>
      </trkpt>
      <trkpt lat="42.525558" lon="2.454649">
        <ele>2540.846</ele>
        <time>2021-05-28T18:33:53Z</time>
      </trkpt>
      <trkpt lat="42.525583" lon="2.454652">
        <ele>2540.623</ele>
        <time>2021-05-28T18:33:55Z</time>
      </trkpt>
      <trkpt lat="42.525606" lon="2.454652">
        <ele>2540.354</ele>
        <time>2021-05-28T18:33:57Z</time>
      </trkpt>
      <trkpt lat="42.525630" lon="2.454647">
        <ele>2539.823</ele>
        <time>2021-05-28T18:33:59Z</time>
      </trkpt>
      <trkpt lat="42.525656" lon="2.454636">
        <ele>2538.910</ele>
        <time>2021-05-28T18:34:01Z</time>
      </trkpt>
      <trkpt lat="42.525672" lon="2.454611">
        <ele>2537.725</ele>
        <time>2021-05-28T18:34:03Z</time>
      </trkpt>
      <trkpt lat="42.525693" lon="2.454603">
        <ele>2537.182</ele>
        <time>2021-05-28T18:34:05Z</time>
      </trkpt>
      <trkpt lat="42.525714" lon="2.454609">
        <ele>2537.110</ele>
        <time>2021-05-28T18:34:07Z</time>
      </trkpt>
      <trkpt lat="42.525742" lon="2.454612">
        <ele>2536.829</ele>
        <time>2021-05-28T18:34:09Z</time>
      </trkpt>
      <trkpt lat="42.525763" lon="2.454602">
        <ele>2536.100</ele>
        <time>2021-05-28T18:34:11Z</time>
      </trkpt>
      <trkpt lat="42.525784" lon="2.454591">
        <ele>2535.420</ele>
        <time>2021-05-28T18:34:13Z</time>
      </trkpt>
      <trkpt lat="42.525809" lon="2.454590">
        <ele>2535.108</ele>
        <time>2021-05-28T18:34:16Z</time>
      </trkpt>
      <trkpt lat="42.525832" lon="2.454580">
        <ele>2534.499</ele>
        <time>2021-05-28T18:34:19Z</time>
      </trkpt>
      <trkpt lat="42.525851" lon="2.454569">
        <ele>2533.636</ele>
        <time>2021-05-28T18:34:22Z</time>
      </trkpt>
      <trkpt lat="42.525872" lon="2.454559">
        <ele>2532.857</ele>
        <time>2021-05-28T18:34:26Z</time>
      </trkpt>
      <trkpt lat="42.525902" lon="2.454554">
        <ele>2532.196</ele>
        <time>2021-05-28T18:34:29Z</time>
      </trkpt>
      <trkpt lat="42.525926" lon="2.454550">
        <ele>2531.553</ele>
        <time>2021-05-28T18:34:31Z</time>
      </trkpt>
      <trkpt lat="42.525942" lon="2.454534">
        <ele>2530.668</ele>
        <time>2021-05-28T18:34:33Z</time>
      </trkpt>
      <trkpt lat="42.525960" lon="2.454528">
        <ele>2530.165</ele>
        <time>2021-05-28T18:34:35Z</time>
      </trkpt>
      <trkpt lat="42.525984" lon="2.454517">
        <ele>2529.323</ele>
        <time>2021-05-28T18:34:38Z</time>
      </trkpt>
      <trkpt lat="42.526007" lon="2.454516">
        <ele>2528.822</ele>
        <time>2021-05-28T18:34:40Z</time>
      </trkpt>
      <trkpt lat="42.526028" lon="2.454518">
        <ele>2528.662</ele>
        <time>2021-05-28T18:34:41Z</time>
      </trkpt>
      <trkpt lat="42.526056" lon="2.454520">
        <ele>2528.108</ele>
        <time>2021-05-28T18:34:43Z</time>
      </trkpt>
      <trkpt lat="42.526077" lon="2.454513">
        <ele>2527.608</ele>
        <time>2021-05-28T18:34:47Z</time>
      </trkpt>
      <trkpt lat="42.526099" lon="2.454499">
        <ele>2526.849</ele>
        <time>2021-05-28T18:34:50Z</time>
      </trkpt>
      <trkpt lat="42.526115" lon="2.454486">
        <ele>2526.236</ele>
        <time>2021-05-28T18:34:52Z</time>
      </trkpt>
      <trkpt lat="42.526138" lon="2.454476">
        <ele>2525.647</ele>
        <time>2021-05-28T18:34:56Z</time>
      </trkpt>
      <trkpt lat="42.526154" lon="2.454461">
        <ele>2525.026</ele>
        <time>2021-05-28T18:34:58Z</time>
      </trkpt>
      <trkpt lat="42.526178" lon="2.454454">
        <ele>2524.643</ele>
        <time>2021-05-28T18:35:01Z</time>
      </trkpt>
      <trkpt lat="42.526204" lon="2.454461">
        <ele>2524.588</ele>
        <time>2021-05-28T18:35:02Z</time>
      </trkpt>
      <trkpt lat="42.526233" lon="2.454460">
        <ele>2524.165</ele>
        <time>2021-05-28T18:35:04Z</time>
      </trkpt>
      <trkpt lat="42.526262" lon="2.454449">
        <ele>2523.573</ele>
        <time>2021-05-28T18:35:06Z</time>
      </trkpt>
      <trkpt lat="42.526290" lon="2.454434">
        <ele>2522.763</ele>
        <time>2021-05-28T18:35:08Z</time>
      </trkpt>
      <trkpt lat="42.526320" lon="2.454418">
        <ele>2521.944</ele>
        <time>2021-05-28T18:35:10Z</time>
      </trkpt>
      <trkpt lat="42.526351" lon="2.454402">
        <ele>2521.018</ele>
        <time>2021-05-28T18:35:12Z</time>
      </trkpt>
      <trkpt lat="42.526380" lon="2.454395">
        <ele>2520.508</ele>
        <time>2021-05-28T18:35:14Z</time>
      </trkpt>
      <trkpt lat="42.526410" lon="2.454381">
        <ele>2519.823</ele>
        <time>2021-05-28T18:35:16Z</time>
      </trkpt>
      <trkpt lat="42.526434" lon="2.454353">
        <ele>2518.780</ele>
        <time>2021-05-28T18:35:18Z</time>
      </trkpt>
      <trkpt lat="42.526462" lon="2.454336">
        <ele>2518.081</ele>
        <time>2021-05-28T18:35:20Z</time>
      </trkpt>
      <trkpt lat="42.526486" lon="2.454336">
        <ele>2517.820</ele>
        <time>2021-05-28T18:35:22Z</time>
      </trkpt>
      <trkpt lat="42.526509" lon="2.454349">
        <ele>2518.017</ele>
        <time>2021-05-28T18:35:24Z</time>
      </trkpt>
      <trkpt lat="42.526530" lon="2.454338">
        <ele>2517.532</ele>
        <time>2021-05-28T18:35:27Z</time>
      </trkpt>
      <trkpt lat="42.526554" lon="2.454319">
        <ele>2516.759</ele>
        <time>2021-05-28T18:35:29Z</time>
      </trkpt>
      <trkpt lat="42.526582" lon="2.454299">
        <ele>2515.917</ele>
        <time>2021-05-28T18:35:31Z</time>
      </trkpt>
      <trkpt lat="42.526612" lon="2.454281">
        <ele>2515.166</ele>
        <time>2021-05-28T18:35:33Z</time>
      </trkpt>
      <trkpt lat="42.526640" lon="2.454266">
        <ele>2514.429</ele>
        <time>2021-05-28T18:35:35Z</time>
      </trkpt>
      <trkpt lat="42.526671" lon="2.454254">
        <ele>2513.821</ele>
        <time>2021-05-28T18:35:37Z</time>
      </trkpt>
      <trkpt lat="42.526702" lon="2.454235">
        <ele>2512.908</ele>
        <time>2021-05-28T18:35:39Z</time>
      </trkpt>
      <trkpt lat="42.526725" lon="2.454221">
        <ele>2512.333</ele>
        <time>2021-05-28T18:35:41Z</time>
      </trkpt>
      <trkpt lat="42.526755" lon="2.454199">
        <ele>2511.440</ele>
        <time>2021-05-28T18:35:43Z</time>
      </trkpt>
      <trkpt lat="42.526771" lon="2.454173">
        <ele>2510.441</ele>
        <time>2021-05-28T18:35:45Z</time>
      </trkpt>
      <trkpt lat="42.526792" lon="2.454154">
        <ele>2509.650</ele>
        <time>2021-05-28T18:35:47Z</time>
      </trkpt>
      <trkpt lat="42.526808" lon="2.454166">
        <ele>2510.057</ele>
        <time>2021-05-28T18:35:49Z</time>
      </trkpt>
      <trkpt lat="42.526834" lon="2.454152">
        <ele>2509.312</ele>
        <time>2021-05-28T18:35:51Z</time>
      </trkpt>
      <trkpt lat="42.526847" lon="2.454119">
        <ele>2508.039</ele>
        <time>2021-05-28T18:35:53Z</time>
      </trkpt>
      <trkpt lat="42.526862" lon="2.454098">
        <ele>2507.157</ele>
        <time>2021-05-28T18:35:56Z</time>
      </trkpt>
      <trkpt lat="42.526880" lon="2.454085">
        <ele>2506.574</ele>
        <time>2021-05-28T18:35:58Z</time>
      </trkpt>
      <trkpt lat="42.526907" lon="2.454085">
        <ele>2506.356</ele>
        <time>2021-05-28T18:36:00Z</time>
      </trkpt>
      <trkpt lat="42.526933" lon="2.454068">
        <ele>2505.521</ele>
        <time>2021-05-28T18:36:02Z</time>
      </trkpt>
      <trkpt lat="42.526955" lon="2.454054">
        <ele>2504.808</ele>
        <time>2021-05-28T18:36:04Z</time>
      </trkpt>
      <trkpt lat="42.526972" lon="2.454046">
        <ele>2504.314</ele>
        <time>2021-05-28T18:36:06Z</time>
      </trkpt>
      <trkpt lat="42.526999" lon="2.454027">
        <ele>2503.391</ele>
        <time>2021-05-28T18:36:08Z</time>
      </trkpt>
      <trkpt lat="42.527034" lon="2.454019">
        <ele>2502.612</ele>
        <time>2021-05-28T18:36:10Z</time>
      </trkpt>
      <trkpt lat="42.527057" lon="2.454010">
        <ele>2502.041</ele>
        <time>2021-05-28T18:36:12Z</time>
      </trkpt>
      <trkpt lat="42.527075" lon="2.454007">
        <ele>2501.688</ele>
        <time>2021-05-28T18:36:14Z</time>
      </trkpt>
      <trkpt lat="42.527098" lon="2.453997">
        <ele>2501.053</ele>
        <time>2021-05-28T18:36:16Z</time>
      </trkpt>
      <trkpt lat="42.527119" lon="2.453993">
        <ele>2500.670</ele>
        <time>2021-05-28T18:36:18Z</time>
      </trkpt>
      <trkpt lat="42.527139" lon="2.453988">
        <ele>2500.248</ele>
        <time>2021-05-28T18:36:20Z</time>
      </trkpt>
      <trkpt lat="42.527158" lon="2.453979">
        <ele>2499.776</ele>
        <time>2021-05-28T18:36:22Z</time>
      </trkpt>
      <trkpt lat="42.527181" lon="2.453969">
        <ele>2499.190</ele>
        <time>2021-05-28T18:36:25Z</time>
      </trkpt>
      <trkpt lat="42.527202" lon="2.453964">
        <ele>2498.719</ele>
        <time>2021-05-28T18:36:27Z</time>
      </trkpt>
      <trkpt lat="42.527227" lon="2.453966">
        <ele>2498.408</ele>
        <time>2021-05-28T18:36:30Z</time>
      </trkpt>
      <trkpt lat="42.527244" lon="2.453957">
        <ele>2497.674</ele>
        <time>2021-05-28T18:36:32Z</time>
      </trkpt>
      <trkpt lat="42.527265" lon="2.453963">
        <ele>2497.281</ele>
        <time>2021-05-28T18:36:34Z</time>
      </trkpt>
      <trkpt lat="42.527287" lon="2.453967">
        <ele>2496.832</ele>
        <time>2021-05-28T18:36:36Z</time>
      </trkpt>
      <trkpt lat="42.527316" lon="2.453964">
        <ele>2495.991</ele>
        <time>2021-05-28T18:36:38Z</time>
      </trkpt>
      <trkpt lat="42.527339" lon="2.453962">
        <ele>2495.278</ele>
        <time>2021-05-28T18:36:40Z</time>
      </trkpt>
      <trkpt lat="42.527366" lon="2.453959">
        <ele>2494.473</ele>
        <time>2021-05-28T18:36:42Z</time>
      </trkpt>
      <trkpt lat="42.527396" lon="2.453951">
        <ele>2493.450</ele>
        <time>2021-05-28T18:36:44Z</time>
      </trkpt>
      <trkpt lat="42.527419" lon="2.453954">
        <ele>2492.858</ele>
        <time>2021-05-28T18:36:46Z</time>
      </trkpt>
      <trkpt lat="42.527445" lon="2.453958">
        <ele>2492.251</ele>
        <time>2021-05-28T18:36:48Z</time>
      </trkpt>
      <trkpt lat="42.527465" lon="2.453962">
        <ele>2491.801</ele>
        <time>2021-05-28T18:36:50Z</time>
      </trkpt>
      <trkpt lat="42.527486" lon="2.453963">
        <ele>2491.211</ele>
        <time>2021-05-28T18:37:04Z</time>
      </trkpt>
      <trkpt lat="42.527510" lon="2.453967">
        <ele>2490.608</ele>
        <time>2021-05-28T18:37:07Z</time>
      </trkpt>
      <trkpt lat="42.527528" lon="2.453971">
        <ele>2490.112</ele>
        <time>2021-05-28T18:37:11Z</time>
      </trkpt>
      <trkpt lat="42.527554" lon="2.453985">
        <ele>2489.569</ele>
        <time>2021-05-28T18:37:22Z</time>
      </trkpt>
      <trkpt lat="42.527580" lon="2.453999">
        <ele>2488.930</ele>
        <time>2021-05-28T18:37:24Z</time>
      </trkpt>
      <trkpt lat="42.527605" lon="2.454004">
        <ele>2488.119</ele>
        <time>2021-05-28T18:37:26Z</time>
      </trkpt>
      <trkpt lat="42.527633" lon="2.454011">
        <ele>2487.366</ele>
        <time>2021-05-28T18:37:28Z</time>
      </trkpt>
      <trkpt lat="42.527661" lon="2.454031">
        <ele>2486.841</ele>
        <time>2021-05-28T18:37:30Z</time>
      </trkpt>
      <trkpt lat="42.527687" lon="2.454054">
        <ele>2486.458</ele>
        <time>2021-05-28T18:37:32Z</time>
      </trkpt>
      <trkpt lat="42.527718" lon="2.454071">
        <ele>2485.746</ele>
        <time>2021-05-28T18:37:34Z</time>
      </trkpt>
      <trkpt lat="42.527736" lon="2.454073">
        <ele>2485.135</ele>
        <time>2021-05-28T18:37:35Z</time>
      </trkpt>
      <trkpt lat="42.527754" lon="2.454075">
        <ele>2484.586</ele>
        <time>2021-05-28T18:37:36Z</time>
      </trkpt>
      <trkpt lat="42.527772" lon="2.454078">
        <ele>2484.014</ele>
        <time>2021-05-28T18:37:37Z</time>
      </trkpt>
      <trkpt lat="42.527805" lon="2.454084">
        <ele>2482.908</ele>
        <time>2021-05-28T18:37:39Z</time>
      </trkpt>
      <trkpt lat="42.527831" lon="2.454097">
        <ele>2482.380</ele>
        <time>2021-05-28T18:37:41Z</time>
      </trkpt>
      <trkpt lat="42.527857" lon="2.454106">
        <ele>2481.697</ele>
        <time>2021-05-28T18:37:43Z</time>
      </trkpt>
      <trkpt lat="42.527879" lon="2.454112">
        <ele>2481.028</ele>
        <time>2021-05-28T18:37:45Z</time>
      </trkpt>
      <trkpt lat="42.527908" lon="2.454129">
        <ele>2480.427</ele>
        <time>2021-05-28T18:37:47Z</time>
      </trkpt>
      <trkpt lat="42.527940" lon="2.454148">
        <ele>2479.784</ele>
        <time>2021-05-28T18:37:49Z</time>
      </trkpt>
      <trkpt lat="42.527961" lon="2.454164">
        <ele>2479.369</ele>
        <time>2021-05-28T18:37:51Z</time>
      </trkpt>
      <trkpt lat="42.527987" lon="2.454184">
        <ele>2478.736</ele>
        <time>2021-05-28T18:37:53Z</time>
      </trkpt>
      <trkpt lat="42.528014" lon="2.454195">
        <ele>2477.944</ele>
        <time>2021-05-28T18:37:55Z</time>
      </trkpt>
      <trkpt lat="42.528045" lon="2.454206">
        <ele>2477.095</ele>
        <time>2021-05-28T18:37:57Z</time>
      </trkpt>
      <trkpt lat="42.528076" lon="2.454226">
        <ele>2476.049</ele>
        <time>2021-05-28T18:37:59Z</time>
      </trkpt>
      <trkpt lat="42.528104" lon="2.454238">
        <ele>2474.923</ele>
        <time>2021-05-28T18:38:01Z</time>
      </trkpt>
      <trkpt lat="42.528126" lon="2.454250">
        <ele>2474.108</ele>
        <time>2021-05-28T18:38:03Z</time>
      </trkpt>
      <trkpt lat="42.528155" lon="2.454262">
        <ele>2473.016</ele>
        <time>2021-05-28T18:38:05Z</time>
      </trkpt>
      <trkpt lat="42.528173" lon="2.454291">
        <ele>2472.533</ele>
        <time>2021-05-28T18:38:07Z</time>
      </trkpt>
      <trkpt lat="42.528187" lon="2.454313">
        <ele>2472.294</ele>
        <time>2021-05-28T18:38:09Z</time>
      </trkpt>
      <trkpt lat="42.528204" lon="2.454333">
        <ele>2471.793</ele>
        <time>2021-05-28T18:38:12Z</time>
      </trkpt>
      <trkpt lat="42.528223" lon="2.454358">
        <ele>2471.110</ele>
        <time>2021-05-28T18:38:14Z</time>
      </trkpt>
      <trkpt lat="42.528236" lon="2.454379">
        <ele>2470.845</ele>
        <time>2021-05-28T18:38:16Z</time>
      </trkpt>
      <trkpt lat="42.528259" lon="2.454397">
        <ele>2469.942</ele>
        <time>2021-05-28T18:38:19Z</time>
      </trkpt>
      <trkpt lat="42.528281" lon="2.454417">
        <ele>2469.150</ele>
        <time>2021-05-28T18:38:22Z</time>
      </trkpt>
      <trkpt lat="42.528298" lon="2.454432">
        <ele>2468.596</ele>
        <time>2021-05-28T18:38:24Z</time>
      </trkpt>
      <trkpt lat="42.528315" lon="2.454457">
        <ele>2467.731</ele>
        <time>2021-05-28T18:38:26Z</time>
      </trkpt>
      <trkpt lat="42.528331" lon="2.454492">
        <ele>2466.624</ele>
        <time>2021-05-28T18:38:28Z</time>
      </trkpt>
      <trkpt lat="42.528352" lon="2.454519">
        <ele>2465.808</ele>
        <time>2021-05-28T18:38:30Z</time>
      </trkpt>
      <trkpt lat="42.528368" lon="2.454542">
        <ele>2465.216</ele>
        <time>2021-05-28T18:38:32Z</time>
      </trkpt>
      <trkpt lat="42.528383" lon="2.454572">
        <ele>2464.553</ele>
        <time>2021-05-28T18:38:34Z</time>
      </trkpt>
      <trkpt lat="42.528392" lon="2.454608">
        <ele>2464.074</ele>
        <time>2021-05-28T18:38:36Z</time>
      </trkpt>
      <trkpt lat="42.528407" lon="2.454635">
        <ele>2463.463</ele>
        <time>2021-05-28T18:38:38Z</time>
      </trkpt>
      <trkpt lat="42.528421" lon="2.454652">
        <ele>2463.080</ele>
        <time>2021-05-28T18:38:40Z</time>
      </trkpt>
      <trkpt lat="42.528435" lon="2.454674">
        <ele>2462.655</ele>
        <time>2021-05-28T18:38:43Z</time>
      </trkpt>
      <trkpt lat="42.528452" lon="2.454685">
        <ele>2462.262</ele>
        <time>2021-05-28T18:38:46Z</time>
      </trkpt>
      <trkpt lat="42.528478" lon="2.454670">
        <ele>2461.830</ele>
        <time>2021-05-28T18:38:49Z</time>
      </trkpt>
      <trkpt lat="42.528494" lon="2.454651">
        <ele>2461.624</ele>
        <time>2021-05-28T18:38:50Z</time>
      </trkpt>
      <trkpt lat="42.528513" lon="2.454634">
        <ele>2461.304</ele>
        <time>2021-05-28T18:38:53Z</time>
      </trkpt>
      <trkpt lat="42.528528" lon="2.454610">
        <ele>2461.114</ele>
        <time>2021-05-28T18:38:55Z</time>
      </trkpt>
      <trkpt lat="42.528535" lon="2.454571">
        <ele>2461.208</ele>
        <time>2021-05-28T18:38:57Z</time>
      </trkpt>
      <trkpt lat="42.528540" lon="2.454526">
        <ele>2461.359</ele>
        <time>2021-05-28T18:38:59Z</time>
      </trkpt>
      <trkpt lat="42.528541" lon="2.454482">
        <ele>2461.636</ele>
        <time>2021-05-28T18:39:01Z</time>
      </trkpt>
      <trkpt lat="42.528549" lon="2.454442">
        <ele>2461.517</ele>
        <time>2021-05-28T18:39:03Z</time>
      </trkpt>
      <trkpt lat="42.528552" lon="2.454397">
        <ele>2460.756</ele>
        <time>2021-05-28T18:39:05Z</time>
      </trkpt>
      <trkpt lat="42.528546" lon="2.454374">
        <ele>2460.583</ele>
        <time>2021-05-28T18:39:06Z</time>
      </trkpt>
      <trkpt lat="42.528538" lon="2.454332">
        <ele>2460.048</ele>
        <time>2021-05-28T18:39:08Z</time>
      </trkpt>
      <trkpt lat="42.528539" lon="2.454291">
        <ele>2459.345</ele>
        <time>2021-05-28T18:39:10Z</time>
      </trkpt>
      <trkpt lat="42.528527" lon="2.454255">
        <ele>2459.123</ele>
        <time>2021-05-28T18:39:12Z</time>
      </trkpt>
      <trkpt lat="42.528516" lon="2.454223">
        <ele>2459.096</ele>
        <time>2021-05-28T18:39:14Z</time>
      </trkpt>
      <trkpt lat="42.528511" lon="2.454185">
        <ele>2458.531</ele>
        <time>2021-05-28T18:39:16Z</time>
      </trkpt>
      <trkpt lat="42.528506" lon="2.454149">
        <ele>2457.924</ele>
        <time>2021-05-28T18:39:18Z</time>
      </trkpt>
      <trkpt lat="42.528510" lon="2.454113">
        <ele>2456.708</ele>
        <time>2021-05-28T18:39:20Z</time>
      </trkpt>
      <trkpt lat="42.528512" lon="2.454085">
        <ele>2455.876</ele>
        <time>2021-05-28T18:39:22Z</time>
      </trkpt>
      <trkpt lat="42.528503" lon="2.454056">
        <ele>2455.213</ele>
        <time>2021-05-28T18:39:24Z</time>
      </trkpt>
      <trkpt lat="42.528492" lon="2.454030">
        <ele>2454.954</ele>
        <time>2021-05-28T18:39:27Z</time>
      </trkpt>
      <trkpt lat="42.528503" lon="2.454004">
        <ele>2453.793</ele>
        <time>2021-05-28T18:39:29Z</time>
      </trkpt>
      <trkpt lat="42.528528" lon="2.454027">
        <ele>2453.580</ele>
        <time>2021-05-28T18:39:31Z</time>
      </trkpt>
      <trkpt lat="42.528555" lon="2.454061">
        <ele>2453.545</ele>
        <time>2021-05-28T18:39:33Z</time>
      </trkpt>
      <trkpt lat="42.528568" lon="2.454080">
        <ele>2453.712</ele>
        <time>2021-05-28T18:39:34Z</time>
      </trkpt>
      <trkpt lat="42.528583" lon="2.454097">
        <ele>2453.760</ele>
        <time>2021-05-28T18:39:35Z</time>
      </trkpt>
      <trkpt lat="42.528612" lon="2.454122">
        <ele>2453.595</ele>
        <time>2021-05-28T18:39:37Z</time>
      </trkpt>
      <trkpt lat="42.528629" lon="2.454132">
        <ele>2453.649</ele>
        <time>2021-05-28T18:39:38Z</time>
      </trkpt>
      <trkpt lat="42.528660" lon="2.454137">
        <ele>2453.323</ele>
        <time>2021-05-28T18:39:40Z</time>
      </trkpt>
      <trkpt lat="42.528689" lon="2.454139">
        <ele>2453.008</ele>
        <time>2021-05-28T18:39:42Z</time>
      </trkpt>
      <trkpt lat="42.528722" lon="2.454130">
        <ele>2452.226</ele>
        <time>2021-05-28T18:39:44Z</time>
      </trkpt>
      <trkpt lat="42.528743" lon="2.454127">
        <ele>2451.723</ele>
        <time>2021-05-28T18:39:46Z</time>
      </trkpt>
      <trkpt lat="42.528765" lon="2.454127">
        <ele>2451.474</ele>
        <time>2021-05-28T18:39:48Z</time>
      </trkpt>
      <trkpt lat="42.528784" lon="2.454117">
        <ele>2450.863</ele>
        <time>2021-05-28T18:39:50Z</time>
      </trkpt>
      <trkpt lat="42.528810" lon="2.454110">
        <ele>2450.270</ele>
        <time>2021-05-28T18:39:53Z</time>
      </trkpt>
      <trkpt lat="42.528834" lon="2.454108">
        <ele>2449.755</ele>
        <time>2021-05-28T18:39:56Z</time>
      </trkpt>
      <trkpt lat="42.528854" lon="2.454100">
        <ele>2449.192</ele>
        <time>2021-05-28T18:39:58Z</time>
      </trkpt>
      <trkpt lat="42.528859" lon="2.454075">
        <ele>2448.220</ele>
        <time>2021-05-28T18:40:00Z</time>
      </trkpt>
      <trkpt lat="42.528875" lon="2.454058">
        <ele>2447.364</ele>
        <time>2021-05-28T18:40:02Z</time>
      </trkpt>
      <trkpt lat="42.528897" lon="2.454046">
        <ele>2446.606</ele>
        <time>2021-05-28T18:40:04Z</time>
      </trkpt>
      <trkpt lat="42.528916" lon="2.454045">
        <ele>2446.416</ele>
        <time>2021-05-28T18:40:06Z</time>
      </trkpt>
      <trkpt lat="42.528935" lon="2.454038">
        <ele>2446.008</ele>
        <time>2021-05-28T18:40:08Z</time>
      </trkpt>
      <trkpt lat="42.528950" lon="2.454024">
        <ele>2445.363</ele>
        <time>2021-05-28T18:40:10Z</time>
      </trkpt>
      <trkpt lat="42.528973" lon="2.454010">
        <ele>2444.690</ele>
        <time>2021-05-28T18:40:13Z</time>
      </trkpt>
      <trkpt lat="42.529002" lon="2.453999">
        <ele>2443.981</ele>
        <time>2021-05-28T18:40:15Z</time>
      </trkpt>
      <trkpt lat="42.529026" lon="2.453991">
        <ele>2443.490</ele>
        <time>2021-05-28T18:40:17Z</time>
      </trkpt>
      <trkpt lat="42.529049" lon="2.453996">
        <ele>2443.347</ele>
        <time>2021-05-28T18:40:20Z</time>
      </trkpt>
      <trkpt lat="42.529067" lon="2.454004">
        <ele>2443.582</ele>
        <time>2021-05-28T18:40:23Z</time>
      </trkpt>
      <trkpt lat="42.529083" lon="2.453989">
        <ele>2442.879</ele>
        <time>2021-05-28T18:40:25Z</time>
      </trkpt>
      <trkpt lat="42.529106" lon="2.453983">
        <ele>2442.377</ele>
        <time>2021-05-28T18:40:28Z</time>
      </trkpt>
      <trkpt lat="42.529125" lon="2.453974">
        <ele>2441.816</ele>
        <time>2021-05-28T18:40:31Z</time>
      </trkpt>
      <trkpt lat="42.529147" lon="2.453975">
        <ele>2441.676</ele>
        <time>2021-05-28T18:40:34Z</time>
      </trkpt>
      <trkpt lat="42.529165" lon="2.453963">
        <ele>2441.013</ele>
        <time>2021-05-28T18:40:36Z</time>
      </trkpt>
      <trkpt lat="42.529190" lon="2.453955">
        <ele>2440.508</ele>
        <time>2021-05-28T18:40:40Z</time>
      </trkpt>
      <trkpt lat="42.529214" lon="2.453952">
        <ele>2440.388</ele>
        <time>2021-05-28T18:40:42Z</time>
      </trkpt>
      <trkpt lat="42.529237" lon="2.453936">
        <ele>2439.555</ele>
        <time>2021-05-28T18:40:45Z</time>
      </trkpt>
      <trkpt lat="42.529256" lon="2.453925">
        <ele>2439.056</ele>
        <time>2021-05-28T18:40:48Z</time>
      </trkpt>
      <trkpt lat="42.529273" lon="2.453913">
        <ele>2438.515</ele>
        <time>2021-05-28T18:40:50Z</time>
      </trkpt>
      <trkpt lat="42.529290" lon="2.453895">
        <ele>2437.842</ele>
        <time>2021-05-28T18:40:52Z</time>
      </trkpt>
      <trkpt lat="42.529315" lon="2.453879">
        <ele>2437.017</ele>
        <time>2021-05-28T18:40:54Z</time>
      </trkpt>
      <trkpt lat="42.529349" lon="2.453868">
        <ele>2436.494</ele>
        <time>2021-05-28T18:40:56Z</time>
      </trkpt>
      <trkpt lat="42.529379" lon="2.453851">
        <ele>2435.592</ele>
        <time>2021-05-28T18:40:58Z</time>
      </trkpt>
      <trkpt lat="42.529409" lon="2.453841">
        <ele>2434.919</ele>
        <time>2021-05-28T18:41:00Z</time>
      </trkpt>
      <trkpt lat="42.529438" lon="2.453844">
        <ele>2434.909</ele>
        <time>2021-05-28T18:41:02Z</time>
      </trkpt>
      <trkpt lat="42.529465" lon="2.453827">
        <ele>2434.019</ele>
        <time>2021-05-28T18:41:04Z</time>
      </trkpt>
      <trkpt lat="42.529491" lon="2.453801">
        <ele>2432.608</ele>
        <time>2021-05-28T18:41:06Z</time>
      </trkpt>
      <trkpt lat="42.529515" lon="2.453782">
        <ele>2431.678</ele>
        <time>2021-05-28T18:41:08Z</time>
      </trkpt>
      <trkpt lat="42.529539" lon="2.453786">
        <ele>2431.695</ele>
        <time>2021-05-28T18:41:10Z</time>
      </trkpt>
      <trkpt lat="42.529563" lon="2.453784">
        <ele>2431.446</ele>
        <time>2021-05-28T18:41:12Z</time>
      </trkpt>
      <trkpt lat="42.529585" lon="2.453771">
        <ele>2430.745</ele>
        <time>2021-05-28T18:41:14Z</time>
      </trkpt>
      <trkpt lat="42.529605" lon="2.453764">
        <ele>2430.312</ele>
        <time>2021-05-28T18:41:16Z</time>
      </trkpt>
      <trkpt lat="42.529621" lon="2.453751">
        <ele>2429.627</ele>
        <time>2021-05-28T18:41:17Z</time>
      </trkpt>
      <trkpt lat="42.529646" lon="2.453732">
        <ele>2428.634</ele>
        <time>2021-05-28T18:41:19Z</time>
      </trkpt>
      <trkpt lat="42.529666" lon="2.453721">
        <ele>2428.012</ele>
        <time>2021-05-28T18:41:21Z</time>
      </trkpt>
      <trkpt lat="42.529684" lon="2.453708">
        <ele>2427.422</ele>
        <time>2021-05-28T18:41:23Z</time>
      </trkpt>
      <trkpt lat="42.529705" lon="2.453699">
        <ele>2426.962</ele>
        <time>2021-05-28T18:41:25Z</time>
      </trkpt>
      <trkpt lat="42.529724" lon="2.453684">
        <ele>2426.108</ele>
        <time>2021-05-28T18:41:27Z</time>
      </trkpt>
      <trkpt lat="42.529745" lon="2.453678">
        <ele>2425.608</ele>
        <time>2021-05-28T18:41:29Z</time>
      </trkpt>
      <trkpt lat="42.529771" lon="2.453664">
        <ele>2424.619</ele>
        <time>2021-05-28T18:41:31Z</time>
      </trkpt>
      <trkpt lat="42.529794" lon="2.453653">
        <ele>2423.896</ele>
        <time>2021-05-28T18:41:33Z</time>
      </trkpt>
      <trkpt lat="42.529814" lon="2.453656">
        <ele>2423.687</ele>
        <time>2021-05-28T18:41:35Z</time>
      </trkpt>
      <trkpt lat="42.529841" lon="2.453658">
        <ele>2423.376</ele>
        <time>2021-05-28T18:41:38Z</time>
      </trkpt>
      <trkpt lat="42.529871" lon="2.453650">
        <ele>2422.563</ele>
        <time>2021-05-28T18:41:40Z</time>
      </trkpt>
      <trkpt lat="42.529896" lon="2.453643">
        <ele>2421.978</ele>
        <time>2021-05-28T18:41:42Z</time>
      </trkpt>
      <trkpt lat="42.529917" lon="2.453641">
        <ele>2421.525</ele>
        <time>2021-05-28T18:41:44Z</time>
      </trkpt>
      <trkpt lat="42.529939" lon="2.453626">
        <ele>2420.513</ele>
        <time>2021-05-28T18:41:46Z</time>
      </trkpt>
      <trkpt lat="42.529947" lon="2.453598">
        <ele>2419.136</ele>
        <time>2021-05-28T18:41:50Z</time>
      </trkpt>
      <trkpt lat="42.529972" lon="2.453612">
        <ele>2419.417</ele>
        <time>2021-05-28T18:41:53Z</time>
      </trkpt>
      <trkpt lat="42.529996" lon="2.453612">
        <ele>2419.118</ele>
        <time>2021-05-28T18:41:55Z</time>
      </trkpt>
      <trkpt lat="42.530020" lon="2.453610">
        <ele>2418.708</ele>
        <time>2021-05-28T18:41:57Z</time>
      </trkpt>
      <trkpt lat="42.530047" lon="2.453610">
        <ele>2418.340</ele>
        <time>2021-05-28T18:41:59Z</time>
      </trkpt>
      <trkpt lat="42.530071" lon="2.453596">
        <ele>2417.337</ele>
        <time>2021-05-28T18:42:01Z</time>
      </trkpt>
      <trkpt lat="42.530093" lon="2.453591">
        <ele>2416.788</ele>
        <time>2021-05-28T18:42:03Z</time>
      </trkpt>
      <trkpt lat="42.530122" lon="2.453590">
        <ele>2416.337</ele>
        <time>2021-05-28T18:42:05Z</time>
      </trkpt>
      <trkpt lat="42.530148" lon="2.453587">
        <ele>2415.894</ele>
        <time>2021-05-28T18:42:07Z</time>
      </trkpt>
      <trkpt lat="42.530171" lon="2.453589">
        <ele>2415.679</ele>
        <time>2021-05-28T18:42:10Z</time>
      </trkpt>
      <trkpt lat="42.530196" lon="2.453580">
        <ele>2414.886</ele>
        <time>2021-05-28T18:42:12Z</time>
      </trkpt>
      <trkpt lat="42.530223" lon="2.453576">
        <ele>2414.224</ele>
        <time>2021-05-28T18:42:14Z</time>
      </trkpt>
      <trkpt lat="42.530242" lon="2.453564">
        <ele>2413.533</ele>
        <time>2021-05-28T18:42:16Z</time>
      </trkpt>
      <trkpt lat="42.530267" lon="2.453562">
        <ele>2413.023</ele>
        <time>2021-05-28T18:42:18Z</time>
      </trkpt>
      <trkpt lat="42.530288" lon="2.453569">
        <ele>2413.015</ele>
        <time>2021-05-28T18:42:20Z</time>
      </trkpt>
      <trkpt lat="42.530312" lon="2.453562">
        <ele>2412.308</ele>
        <time>2021-05-28T18:42:22Z</time>
      </trkpt>
      <trkpt lat="42.530332" lon="2.453558">
        <ele>2411.740</ele>
        <time>2021-05-28T18:42:24Z</time>
      </trkpt>
      <trkpt lat="42.530353" lon="2.453556">
        <ele>2411.327</ele>
        <time>2021-05-28T18:42:26Z</time>
      </trkpt>
      <trkpt lat="42.530373" lon="2.453556">
        <ele>2410.998</ele>
        <time>2021-05-28T18:42:28Z</time>
      </trkpt>
      <trkpt lat="42.530399" lon="2.453551">
        <ele>2410.217</ele>
        <time>2021-05-28T18:42:30Z</time>
      </trkpt>
      <trkpt lat="42.530420" lon="2.453545">
        <ele>2409.624</ele>
        <time>2021-05-28T18:42:32Z</time>
      </trkpt>
      <trkpt lat="42.530440" lon="2.453531">
        <ele>2408.639</ele>
        <time>2021-05-28T18:42:34Z</time>
      </trkpt>
      <trkpt lat="42.530455" lon="2.453509">
        <ele>2407.436</ele>
        <time>2021-05-28T18:42:37Z</time>
      </trkpt>
      <trkpt lat="42.530478" lon="2.453495">
        <ele>2406.464</ele>
        <time>2021-05-28T18:42:40Z</time>
      </trkpt>
      <trkpt lat="42.530500" lon="2.453494">
        <ele>2405.983</ele>
        <time>2021-05-28T18:42:42Z</time>
      </trkpt>
      <trkpt lat="42.530522" lon="2.453496">
        <ele>2405.625</ele>
        <time>2021-05-28T18:42:44Z</time>
      </trkpt>
      <trkpt lat="42.530544" lon="2.453494">
        <ele>2405.117</ele>
        <time>2021-05-28T18:42:46Z</time>
      </trkpt>
      <trkpt lat="42.530564" lon="2.453489">
        <ele>2404.608</ele>
        <time>2021-05-28T18:42:48Z</time>
      </trkpt>
      <trkpt lat="42.530582" lon="2.453470">
        <ele>2403.465</ele>
        <time>2021-05-28T18:42:50Z</time>
      </trkpt>
      <trkpt lat="42.530601" lon="2.453462">
        <ele>2402.832</ele>
        <time>2021-05-28T18:42:52Z</time>
      </trkpt>
      <trkpt lat="42.530627" lon="2.453462">
        <ele>2402.363</ele>
        <time>2021-05-28T18:42:54Z</time>
      </trkpt>
      <trkpt lat="42.530653" lon="2.453451">
        <ele>2401.462</ele>
        <time>2021-05-28T18:42:56Z</time>
      </trkpt>
      <trkpt lat="42.530680" lon="2.453436">
        <ele>2400.469</ele>
        <time>2021-05-28T18:42:58Z</time>
      </trkpt>
      <trkpt lat="42.530700" lon="2.453420">
        <ele>2399.544</ele>
        <time>2021-05-28T18:43:00Z</time>
      </trkpt>
      <trkpt lat="42.530720" lon="2.453409">
        <ele>2398.821</ele>
        <time>2021-05-28T18:43:03Z</time>
      </trkpt>
      <trkpt lat="42.530739" lon="2.453399">
        <ele>2398.249</ele>
        <time>2021-05-28T18:43:05Z</time>
      </trkpt>
      <trkpt lat="42.530759" lon="2.453387">
        <ele>2397.624</ele>
        <time>2021-05-28T18:43:08Z</time>
      </trkpt>
      <trkpt lat="42.530778" lon="2.453380">
        <ele>2397.104</ele>
        <time>2021-05-28T18:43:13Z</time>
      </trkpt>
      <trkpt lat="42.530805" lon="2.453376">
        <ele>2396.614</ele>
        <time>2021-05-28T18:43:15Z</time>
      </trkpt>
      <trkpt lat="42.530826" lon="2.453368">
        <ele>2396.108</ele>
        <time>2021-05-28T18:43:17Z</time>
      </trkpt>
      <trkpt lat="42.530845" lon="2.453352">
        <ele>2395.319</ele>
        <time>2021-05-28T18:43:19Z</time>
      </trkpt>
      <trkpt lat="42.530872" lon="2.453336">
        <ele>2394.436</ele>
        <time>2021-05-28T18:43:21Z</time>
      </trkpt>
      <trkpt lat="42.530895" lon="2.453328">
        <ele>2393.767</ele>
        <time>2021-05-28T18:43:23Z</time>
      </trkpt>
      <trkpt lat="42.530921" lon="2.453306">
        <ele>2392.556</ele>
        <time>2021-05-28T18:43:25Z</time>
      </trkpt>
      <trkpt lat="42.530949" lon="2.453294">
        <ele>2391.653</ele>
        <time>2021-05-28T18:43:27Z</time>
      </trkpt>
      <trkpt lat="42.530977" lon="2.453292">
        <ele>2391.188</ele>
        <time>2021-05-28T18:43:29Z</time>
      </trkpt>
      <trkpt lat="42.531004" lon="2.453288">
        <ele>2390.595</ele>
        <time>2021-05-28T18:43:32Z</time>
      </trkpt>
      <trkpt lat="42.531024" lon="2.453291">
        <ele>2390.383</ele>
        <time>2021-05-28T18:43:35Z</time>
      </trkpt>
      <trkpt lat="42.531045" lon="2.453283">
        <ele>2389.744</ele>
        <time>2021-05-28T18:43:38Z</time>
      </trkpt>
      <trkpt lat="42.531064" lon="2.453274">
        <ele>2389.205</ele>
        <time>2021-05-28T18:43:40Z</time>
      </trkpt>
      <trkpt lat="42.531093" lon="2.453270">
        <ele>2388.715</ele>
        <time>2021-05-28T18:43:42Z</time>
      </trkpt>
      <trkpt lat="42.531118" lon="2.453273">
        <ele>2388.408</ele>
        <time>2021-05-28T18:43:44Z</time>
      </trkpt>
      <trkpt lat="42.531134" lon="2.453262">
        <ele>2388.061</ele>
        <time>2021-05-28T18:43:46Z</time>
      </trkpt>
      <trkpt lat="42.531154" lon="2.453255">
        <ele>2387.648</ele>
        <time>2021-05-28T18:43:48Z</time>
      </trkpt>
      <trkpt lat="42.531178" lon="2.453262">
        <ele>2387.569</ele>
        <time>2021-05-28T18:43:51Z</time>
      </trkpt>
      <trkpt lat="42.531204" lon="2.453255">
        <ele>2387.098</ele>
        <time>2021-05-28T18:43:53Z</time>
      </trkpt>
      <trkpt lat="42.531228" lon="2.453238">
        <ele>2386.375</ele>
        <time>2021-05-28T18:43:55Z</time>
      </trkpt>
      <trkpt lat="42.531253" lon="2.453239">
        <ele>2386.180</ele>
        <time>2021-05-28T18:43:57Z</time>
      </trkpt>
      <trkpt lat="42.531279" lon="2.453241">
        <ele>2385.967</ele>
        <time>2021-05-28T18:43:59Z</time>
      </trkpt>
      <trkpt lat="42.531299" lon="2.453226">
        <ele>2385.355</ele>
        <time>2021-05-28T18:44:01Z</time>
      </trkpt>
      <trkpt lat="42.531314" lon="2.453197">
        <ele>2384.451</ele>
        <time>2021-05-28T18:44:03Z</time>
      </trkpt>
      <trkpt lat="42.531333" lon="2.453180">
        <ele>2383.701</ele>
        <time>2021-05-28T18:44:05Z</time>
      </trkpt>
      <trkpt lat="42.531361" lon="2.453171">
        <ele>2383.211</ele>
        <time>2021-05-28T18:44:07Z</time>
      </trkpt>
      <trkpt lat="42.531389" lon="2.453159">
        <ele>2382.608</ele>
        <time>2021-05-28T18:44:09Z</time>
      </trkpt>
      <trkpt lat="42.531418" lon="2.453141">
        <ele>2381.882</ele>
        <time>2021-05-28T18:44:11Z</time>
      </trkpt>
      <trkpt lat="42.531447" lon="2.453119">
        <ele>2381.049</ele>
        <time>2021-05-28T18:44:13Z</time>
      </trkpt>
      <trkpt lat="42.531469" lon="2.453102">
        <ele>2380.460</ele>
        <time>2021-05-28T18:44:15Z</time>
      </trkpt>
      <trkpt lat="42.531482" lon="2.453082">
        <ele>2379.979</ele>
        <time>2021-05-28T18:44:17Z</time>
      </trkpt>
      <trkpt lat="42.531502" lon="2.453069">
        <ele>2379.466</ele>
        <time>2021-05-28T18:44:19Z</time>
      </trkpt>
      <trkpt lat="42.531527" lon="2.453040">
        <ele>2378.681</ele>
        <time>2021-05-28T18:44:21Z</time>
      </trkpt>
      <trkpt lat="42.531548" lon="2.453023">
        <ele>2377.958</ele>
        <time>2021-05-28T18:44:23Z</time>
      </trkpt>
      <trkpt lat="42.531570" lon="2.453022">
        <ele>2377.856</ele>
        <time>2021-05-28T18:44:25Z</time>
      </trkpt>
      <trkpt lat="42.531599" lon="2.453014">
        <ele>2377.412</ele>
        <time>2021-05-28T18:44:27Z</time>
      </trkpt>
      <trkpt lat="42.531621" lon="2.452995">
        <ele>2376.732</ele>
        <time>2021-05-28T18:44:29Z</time>
      </trkpt>
      <trkpt lat="42.531643" lon="2.452969">
        <ele>2375.905</ele>
        <time>2021-05-28T18:44:31Z</time>
      </trkpt>
      <trkpt lat="42.531662" lon="2.452961">
        <ele>2375.608</ele>
        <time>2021-05-28T18:44:33Z</time>
      </trkpt>
      <trkpt lat="42.531685" lon="2.452954">
        <ele>2375.218</ele>
        <time>2021-05-28T18:44:35Z</time>
      </trkpt>
      <trkpt lat="42.531708" lon="2.452938">
        <ele>2374.615</ele>
        <time>2021-05-28T18:44:37Z</time>
      </trkpt>
      <trkpt lat="42.531735" lon="2.452925">
        <ele>2374.056</ele>
        <time>2021-05-28T18:44:39Z</time>
      </trkpt>
      <trkpt lat="42.531760" lon="2.452924">
        <ele>2373.755</ele>
        <time>2021-05-28T18:44:41Z</time>
      </trkpt>
      <trkpt lat="42.531782" lon="2.452919">
        <ele>2373.352</ele>
        <time>2021-05-28T18:44:43Z</time>
      </trkpt>
      <trkpt lat="42.531800" lon="2.452925">
        <ele>2373.247</ele>
        <time>2021-05-28T18:44:45Z</time>
      </trkpt>
      <trkpt lat="42.531823" lon="2.452926">
        <ele>2373.014</ele>
        <time>2021-05-28T18:44:47Z</time>
      </trkpt>
      <trkpt lat="42.531841" lon="2.452914">
        <ele>2372.642</ele>
        <time>2021-05-28T18:44:49Z</time>
      </trkpt>
      <trkpt lat="42.531865" lon="2.452909">
        <ele>2372.297</ele>
        <time>2021-05-28T18:44:54Z</time>
      </trkpt>
      <trkpt lat="42.531885" lon="2.452903">
        <ele>2371.923</ele>
        <time>2021-05-28T18:44:56Z</time>
      </trkpt>
      <trkpt lat="42.531908" lon="2.452882">
        <ele>2371.225</ele>
        <time>2021-05-28T18:44:58Z</time>
      </trkpt>
      <trkpt lat="42.531930" lon="2.452865">
        <ele>2370.708</ele>
        <time>2021-05-28T18:45:00Z</time>
      </trkpt>
      <trkpt lat="42.531957" lon="2.452861">
        <ele>2370.396</ele>
        <time>2021-05-28T18:45:02Z</time>
      </trkpt>
      <trkpt lat="42.531973" lon="2.452838">
        <ele>2369.873</ele>
        <time>2021-05-28T18:45:04Z</time>
      </trkpt>
      <trkpt lat="42.531993" lon="2.452818">
        <ele>2369.344</ele>
        <time>2021-05-28T18:45:06Z</time>
      </trkpt>
      <trkpt lat="42.532010" lon="2.452806">
        <ele>2369.193</ele>
        <time>2021-05-28T18:45:09Z</time>
      </trkpt>
      <trkpt lat="42.532029" lon="2.452792">
        <ele>2368.840</ele>
        <time>2021-05-28T18:45:10Z</time>
      </trkpt>
      <trkpt lat="42.532048" lon="2.452777">
        <ele>2368.695</ele>
        <time>2021-05-28T18:45:12Z</time>
      </trkpt>
      <trkpt lat="42.532068" lon="2.452764">
        <ele>2368.392</ele>
        <time>2021-05-28T18:45:14Z</time>
      </trkpt>
      <trkpt lat="42.532081" lon="2.452735">
        <ele>2367.750</ele>
        <time>2021-05-28T18:45:16Z</time>
      </trkpt>
      <trkpt lat="42.532100" lon="2.452702">
        <ele>2367.117</ele>
        <time>2021-05-28T18:45:18Z</time>
      </trkpt>
      <trkpt lat="42.532121" lon="2.452674">
        <ele>2366.787</ele>
        <time>2021-05-28T18:45:20Z</time>
      </trkpt>
      <trkpt lat="42.532138" lon="2.452645">
        <ele>2366.315</ele>
        <time>2021-05-28T18:45:22Z</time>
      </trkpt>
      <trkpt lat="42.532146" lon="2.452608">
        <ele>2365.808</ele>
        <time>2021-05-28T18:45:24Z</time>
      </trkpt>
      <trkpt lat="42.532159" lon="2.452568">
        <ele>2365.318</ele>
        <time>2021-05-28T18:45:26Z</time>
      </trkpt>
      <trkpt lat="42.532173" lon="2.452538">
        <ele>2365.075</ele>
        <time>2021-05-28T18:45:28Z</time>
      </trkpt>
      <trkpt lat="42.532190" lon="2.452512">
        <ele>2364.876</ele>
        <time>2021-05-28T18:45:30Z</time>
      </trkpt>
      <trkpt lat="42.532200" lon="2.452489">
        <ele>2364.515</ele>
        <time>2021-05-28T18:45:32Z</time>
      </trkpt>
      <trkpt lat="42.532217" lon="2.452455">
        <ele>2363.882</ele>
        <time>2021-05-28T18:45:35Z</time>
      </trkpt>
      <trkpt lat="42.532240" lon="2.452452">
        <ele>2363.337</ele>
        <time>2021-05-28T18:45:39Z</time>
      </trkpt>
      <trkpt lat="42.532255" lon="2.452434">
        <ele>2362.434</ele>
        <time>2021-05-28T18:45:41Z</time>
      </trkpt>
      <trkpt lat="42.532269" lon="2.452405">
        <ele>2361.542</ele>
        <time>2021-05-28T18:45:44Z</time>
      </trkpt>
      <trkpt lat="42.532284" lon="2.452390">
        <ele>2360.933</ele>
        <time>2021-05-28T18:45:46Z</time>
      </trkpt>
      <trkpt lat="42.532289" lon="2.452361">
        <ele>2360.323</ele>
        <time>2021-05-28T18:45:49Z</time>
      </trkpt>
      <trkpt lat="42.532298" lon="2.452333">
        <ele>2359.715</ele>
        <time>2021-05-28T18:45:52Z</time>
      </trkpt>
      <trkpt lat="42.532310" lon="2.452306">
        <ele>2359.208</ele>
        <time>2021-05-28T18:46:09Z</time>
      </trkpt>
      <trkpt lat="42.532327" lon="2.452292">
        <ele>2358.840</ele>
        <time>2021-05-28T18:46:12Z</time>
      </trkpt>
      <trkpt lat="42.532359" lon="2.452283">
        <ele>2358.587</ele>
        <time>2021-05-28T18:46:16Z</time>
      </trkpt>
      <trkpt lat="42.532379" lon="2.452285">
        <ele>2358.358</ele>
        <time>2021-05-28T18:46:17Z</time>
      </trkpt>
      <trkpt lat="42.532398" lon="2.452287">
        <ele>2358.227</ele>
        <time>2021-05-28T18:46:18Z</time>
      </trkpt>
      <trkpt lat="42.532427" lon="2.452291">
        <ele>2357.914</ele>
        <time>2021-05-28T18:46:20Z</time>
      </trkpt>
      <trkpt lat="42.532458" lon="2.452284">
        <ele>2357.769</ele>
        <time>2021-05-28T18:46:22Z</time>
      </trkpt>
      <trkpt lat="42.532476" lon="2.452278">
        <ele>2357.646</ele>
        <time>2021-05-28T18:46:23Z</time>
      </trkpt>
      <trkpt lat="42.532502" lon="2.452270">
        <ele>2357.474</ele>
        <time>2021-05-28T18:46:25Z</time>
      </trkpt>
      <trkpt lat="42.532527" lon="2.452257">
        <ele>2356.527</ele>
        <time>2021-05-28T18:46:27Z</time>
      </trkpt>
      <trkpt lat="42.532551" lon="2.452250">
        <ele>2355.568</ele>
        <time>2021-05-28T18:46:29Z</time>
      </trkpt>
      <trkpt lat="42.532571" lon="2.452234">
        <ele>2354.814</ele>
        <time>2021-05-28T18:46:32Z</time>
      </trkpt>
      <trkpt lat="42.532588" lon="2.452250">
        <ele>2353.908</ele>
        <time>2021-05-28T18:46:37Z</time>
      </trkpt>
      <trkpt lat="42.532612" lon="2.452257">
        <ele>2352.849</ele>
        <time>2021-05-28T18:46:40Z</time>
      </trkpt>
      <trkpt lat="42.532631" lon="2.452268">
        <ele>2351.866</ele>
        <time>2021-05-28T18:46:43Z</time>
      </trkpt>
      <trkpt lat="42.532652" lon="2.452289">
        <ele>2350.757</ele>
        <time>2021-05-28T18:46:46Z</time>
      </trkpt>
      <trkpt lat="42.532670" lon="2.452294">
        <ele>2349.986</ele>
        <time>2021-05-28T18:46:48Z</time>
      </trkpt>
      <trkpt lat="42.532694" lon="2.452282">
        <ele>2349.033</ele>
        <time>2021-05-28T18:46:50Z</time>
      </trkpt>
      <trkpt lat="42.532716" lon="2.452263">
        <ele>2348.278</ele>
        <time>2021-05-28T18:46:52Z</time>
      </trkpt>
      <trkpt lat="42.532729" lon="2.452230">
        <ele>2348.015</ele>
        <time>2021-05-28T18:46:54Z</time>
      </trkpt>
      <trkpt lat="42.532739" lon="2.452195">
        <ele>2347.953</ele>
        <time>2021-05-28T18:46:56Z</time>
      </trkpt>
      <trkpt lat="42.532744" lon="2.452170">
        <ele>2347.964</ele>
        <time>2021-05-28T18:46:57Z</time>
      </trkpt>
      <trkpt lat="42.532755" lon="2.452127">
        <ele>2347.906</ele>
        <time>2021-05-28T18:46:59Z</time>
      </trkpt>
      <trkpt lat="42.532763" lon="2.452104">
        <ele>2347.816</ele>
        <time>2021-05-28T18:47:00Z</time>
      </trkpt>
      <trkpt lat="42.532773" lon="2.452074">
        <ele>2347.808</ele>
        <time>2021-05-28T18:47:02Z</time>
      </trkpt>
      <trkpt lat="42.532795" lon="2.452059">
        <ele>2346.893</ele>
        <time>2021-05-28T18:47:05Z</time>
      </trkpt>
      <trkpt lat="42.532817" lon="2.452044">
        <ele>2345.770</ele>
        <time>2021-05-28T18:47:07Z</time>
      </trkpt>
      <trkpt lat="42.532835" lon="2.452033">
        <ele>2344.811</ele>
        <time>2021-05-28T18:47:10Z</time>
      </trkpt>
      <trkpt lat="42.532857" lon="2.451999">
        <ele>2343.980</ele>
        <time>2021-05-28T18:47:13Z</time>
      </trkpt>
      <trkpt lat="42.532870" lon="2.451961">
        <ele>2343.547</ele>
        <time>2021-05-28T18:47:15Z</time>
      </trkpt>
      <trkpt lat="42.532876" lon="2.451932">
        <ele>2343.432</ele>
        <time>2021-05-28T18:47:18Z</time>
      </trkpt>
      <trkpt lat="42.532885" lon="2.451912">
        <ele>2343.069</ele>
        <time>2021-05-28T18:47:25Z</time>
      </trkpt>
      <trkpt lat="42.532895" lon="2.451887">
        <ele>2342.567</ele>
        <time>2021-05-28T18:47:29Z</time>
      </trkpt>
      <trkpt lat="42.532913" lon="2.451868">
        <ele>2341.678</ele>
        <time>2021-05-28T18:47:37Z</time>
      </trkpt>
      <trkpt lat="42.532931" lon="2.451850">
        <ele>2340.733</ele>
        <time>2021-05-28T18:47:41Z</time>
      </trkpt>
      <trkpt lat="42.532935" lon="2.451873">
        <ele>2340.326</ele>
        <time>2021-05-28T18:47:45Z</time>
      </trkpt>
      <trkpt lat="42.532934" lon="2.451900">
        <ele>2340.308</ele>
        <time>2021-05-28T18:47:50Z</time>
      </trkpt>
      <trkpt lat="42.532929" lon="2.451933">
        <ele>2340.484</ele>
        <time>2021-05-28T18:47:53Z</time>
      </trkpt>
      <trkpt lat="42.532930" lon="2.451960">
        <ele>2340.151</ele>
        <time>2021-05-28T18:47:55Z</time>
      </trkpt>
      <trkpt lat="42.532933" lon="2.451991">
        <ele>2339.762</ele>
        <time>2021-05-28T18:47:57Z</time>
      </trkpt>
      <trkpt lat="42.532936" lon="2.452024">
        <ele>2339.281</ele>
        <time>2021-05-28T18:47:59Z</time>
      </trkpt>
      <trkpt lat="42.532926" lon="2.452057">
        <ele>2339.558</ele>
        <time>2021-05-28T18:48:01Z</time>
      </trkpt>
      <trkpt lat="42.532923" lon="2.452082">
        <ele>2339.433</ele>
        <time>2021-05-28T18:48:03Z</time>
      </trkpt>
      <trkpt lat="42.532922" lon="2.452109">
        <ele>2339.260</ele>
        <time>2021-05-28T18:48:06Z</time>
      </trkpt>
      <trkpt lat="42.532934" lon="2.452138">
        <ele>2338.338</ele>
        <time>2021-05-28T18:48:09Z</time>
      </trkpt>
      <trkpt lat="42.532943" lon="2.452162">
        <ele>2337.687</ele>
        <time>2021-05-28T18:48:14Z</time>
      </trkpt>
      <trkpt lat="42.532948" lon="2.452187">
        <ele>2337.142</ele>
        <time>2021-05-28T18:48:17Z</time>
      </trkpt>
      <trkpt lat="42.532958" lon="2.452212">
        <ele>2336.426</ele>
        <time>2021-05-28T18:48:19Z</time>
      </trkpt>
      <trkpt lat="42.532962" lon="2.452243">
        <ele>2335.908</ele>
        <time>2021-05-28T18:48:21Z</time>
      </trkpt>
      <trkpt lat="42.532955" lon="2.452273">
        <ele>2336.085</ele>
        <time>2021-05-28T18:48:23Z</time>
      </trkpt>
      <trkpt lat="42.532957" lon="2.452302">
        <ele>2335.662</ele>
        <time>2021-05-28T18:48:25Z</time>
      </trkpt>
      <trkpt lat="42.532965" lon="2.452330">
        <ele>2335.013</ele>
        <time>2021-05-28T18:48:27Z</time>
      </trkpt>
      <trkpt lat="42.532969" lon="2.452363">
        <ele>2334.512</ele>
        <time>2021-05-28T18:48:29Z</time>
      </trkpt>
      <trkpt lat="42.532966" lon="2.452397">
        <ele>2334.429</ele>
        <time>2021-05-28T18:48:31Z</time>
      </trkpt>
      <trkpt lat="42.532971" lon="2.452430">
        <ele>2333.884</ele>
        <time>2021-05-28T18:48:33Z</time>
      </trkpt>
      <trkpt lat="42.532981" lon="2.452461">
        <ele>2333.141</ele>
        <time>2021-05-28T18:48:35Z</time>
      </trkpt>
      <trkpt lat="42.532980" lon="2.452487">
        <ele>2332.939</ele>
        <time>2021-05-28T18:48:37Z</time>
      </trkpt>
      <trkpt lat="42.532979" lon="2.452518">
        <ele>2332.615</ele>
        <time>2021-05-28T18:48:39Z</time>
      </trkpt>
      <trkpt lat="42.532984" lon="2.452548">
        <ele>2332.065</ele>
        <time>2021-05-28T18:48:41Z</time>
      </trkpt>
      <trkpt lat="42.532987" lon="2.452589">
        <ele>2331.411</ele>
        <time>2021-05-28T18:48:44Z</time>
      </trkpt>
      <trkpt lat="42.532992" lon="2.452618">
        <ele>2330.808</ele>
        <time>2021-05-28T18:48:46Z</time>
      </trkpt>
      <trkpt lat="42.532997" lon="2.452657">
        <ele>2330.168</ele>
        <time>2021-05-28T18:48:48Z</time>
      </trkpt>
      <trkpt lat="42.533008" lon="2.452687">
        <ele>2329.365</ele>
        <time>2021-05-28T18:48:50Z</time>
      </trkpt>
      <trkpt lat="42.533024" lon="2.452710">
        <ele>2328.266</ele>
        <time>2021-05-28T18:48:52Z</time>
      </trkpt>
      <trkpt lat="42.533038" lon="2.452740">
        <ele>2327.235</ele>
        <time>2021-05-28T18:48:55Z</time>
      </trkpt>
      <trkpt lat="42.533045" lon="2.452779">
        <ele>2326.562</ele>
        <time>2021-05-28T18:48:58Z</time>
      </trkpt>
      <trkpt lat="42.533057" lon="2.452813">
        <ele>2325.737</ele>
        <time>2021-05-28T18:49:00Z</time>
      </trkpt>
      <trkpt lat="42.533062" lon="2.452850">
        <ele>2325.254</ele>
        <time>2021-05-28T18:49:02Z</time>
      </trkpt>
      <trkpt lat="42.533057" lon="2.452882">
        <ele>2325.292</ele>
        <time>2021-05-28T18:49:04Z</time>
      </trkpt>
      <trkpt lat="42.533053" lon="2.452908">
        <ele>2325.293</ele>
        <time>2021-05-28T18:49:06Z</time>
      </trkpt>
      <trkpt lat="42.533062" lon="2.452933">
        <ele>2324.665</ele>
        <time>2021-05-28T18:49:08Z</time>
      </trkpt>
      <trkpt lat="42.533080" lon="2.452955">
        <ele>2323.521</ele>
        <time>2021-05-28T18:49:11Z</time>
      </trkpt>
      <trkpt lat="42.533083" lon="2.452985">
        <ele>2323.208</ele>
        <time>2021-05-28T18:49:13Z</time>
      </trkpt>
      <trkpt lat="42.533071" lon="2.453004">
        <ele>2323.656</ele>
        <time>2021-05-28T18:49:15Z</time>
      </trkpt>
      <trkpt lat="42.533059" lon="2.453028">
        <ele>2324.083</ele>
        <time>2021-05-28T18:49:17Z</time>
      </trkpt>
      <trkpt lat="42.533056" lon="2.453054">
        <ele>2324.024</ele>
        <time>2021-05-28T18:49:19Z</time>
      </trkpt>
      <trkpt lat="42.533058" lon="2.453079">
        <ele>2323.673</ele>
        <time>2021-05-28T18:49:21Z</time>
      </trkpt>
      <trkpt lat="42.533072" lon="2.453110">
        <ele>2322.790</ele>
        <time>2021-05-28T18:49:24Z</time>
      </trkpt>
      <trkpt lat="42.533092" lon="2.453137">
        <ele>2321.555</ele>
        <time>2021-05-28T18:49:26Z</time>
      </trkpt>
      <trkpt lat="42.533110" lon="2.453165">
        <ele>2320.372</ele>
        <time>2021-05-28T18:49:28Z</time>
      </trkpt>
      <trkpt lat="42.533110" lon="2.453197">
        <ele>2320.070</ele>
        <time>2021-05-28T18:49:30Z</time>
      </trkpt>
      <trkpt lat="42.533113" lon="2.453240">
        <ele>2319.553</ele>
        <time>2021-05-28T18:49:32Z</time>
      </trkpt>
      <trkpt lat="42.533127" lon="2.453277">
        <ele>2318.504</ele>
        <time>2021-05-28T18:49:34Z</time>
      </trkpt>
      <trkpt lat="42.533130" lon="2.453316">
        <ele>2318.014</ele>
        <time>2021-05-28T18:49:36Z</time>
      </trkpt>
      <trkpt lat="42.533127" lon="2.453359">
        <ele>2317.608</ele>
        <time>2021-05-28T18:49:38Z</time>
      </trkpt>
      <trkpt lat="42.533120" lon="2.453399">
        <ele>2317.512</ele>
        <time>2021-05-28T18:49:40Z</time>
      </trkpt>
      <trkpt lat="42.533125" lon="2.453424">
        <ele>2317.069</ele>
        <time>2021-05-28T18:49:41Z</time>
      </trkpt>
      <trkpt lat="42.533133" lon="2.453446">
        <ele>2316.470</ele>
        <time>2021-05-28T18:49:42Z</time>
      </trkpt>
      <trkpt lat="42.533137" lon="2.453473">
        <ele>2316.099</ele>
        <time>2021-05-28T18:49:44Z</time>
      </trkpt>
      <trkpt lat="42.533129" lon="2.453508">
        <ele>2315.916</ele>
        <time>2021-05-28T18:49:46Z</time>
      </trkpt>
      <trkpt lat="42.533129" lon="2.453547">
        <ele>2315.511</ele>
        <time>2021-05-28T18:49:48Z</time>
      </trkpt>
      <trkpt lat="42.533134" lon="2.453578">
        <ele>2315.058</ele>
        <time>2021-05-28T18:49:50Z</time>
      </trkpt>
      <trkpt lat="42.533136" lon="2.453613">
        <ele>2314.556</ele>
        <time>2021-05-28T18:49:52Z</time>
      </trkpt>
      <trkpt lat="42.533136" lon="2.453656">
        <ele>2313.726</ele>
        <time>2021-05-28T18:49:54Z</time>
      </trkpt>
      <trkpt lat="42.533138" lon="2.453688">
        <ele>2313.147</ele>
        <time>2021-05-28T18:49:56Z</time>
      </trkpt>
      <trkpt lat="42.533138" lon="2.453717">
        <ele>2312.511</ele>
        <time>2021-05-28T18:49:58Z</time>
      </trkpt>
      <trkpt lat="42.533135" lon="2.453743">
        <ele>2312.208</ele>
        <time>2021-05-28T18:50:00Z</time>
      </trkpt>
      <trkpt lat="42.533132" lon="2.453775">
        <ele>2311.739</ele>
        <time>2021-05-28T18:50:02Z</time>
      </trkpt>
      <trkpt lat="42.533134" lon="2.453811">
        <ele>2311.026</ele>
        <time>2021-05-28T18:50:06Z</time>
      </trkpt>
      <trkpt lat="42.533134" lon="2.453838">
        <ele>2310.577</ele>
        <time>2021-05-28T18:50:08Z</time>
      </trkpt>
      <trkpt lat="42.533132" lon="2.453863">
        <ele>2310.266</ele>
        <time>2021-05-28T18:50:10Z</time>
      </trkpt>
      <trkpt lat="42.533132" lon="2.453893">
        <ele>2309.673</ele>
        <time>2021-05-28T18:50:12Z</time>
      </trkpt>
      <trkpt lat="42.533136" lon="2.453925">
        <ele>2308.788</ele>
        <time>2021-05-28T18:50:15Z</time>
      </trkpt>
      <trkpt lat="42.533145" lon="2.453950">
        <ele>2307.715</ele>
        <time>2021-05-28T18:50:18Z</time>
      </trkpt>
      <trkpt lat="42.533145" lon="2.453985">
        <ele>2306.923</ele>
        <time>2021-05-28T18:50:21Z</time>
      </trkpt>
      <trkpt lat="42.533138" lon="2.454013">
        <ele>2306.622</ele>
        <time>2021-05-28T18:50:23Z</time>
      </trkpt>
      <trkpt lat="42.533144" lon="2.454038">
        <ele>2305.862</ele>
        <time>2021-05-28T18:50:25Z</time>
      </trkpt>
      <trkpt lat="42.533146" lon="2.454072">
        <ele>2304.908</ele>
        <time>2021-05-28T18:50:28Z</time>
      </trkpt>
      <trkpt lat="42.533149" lon="2.454098">
        <ele>2304.208</ele>
        <time>2021-05-28T18:50:30Z</time>
      </trkpt>
      <trkpt lat="42.533143" lon="2.454124">
        <ele>2303.859</ele>
        <time>2021-05-28T18:50:33Z</time>
      </trkpt>
      <trkpt lat="42.533164" lon="2.454115">
        <ele>2303.316</ele>
        <time>2021-05-28T18:50:38Z</time>
      </trkpt>
      <trkpt lat="42.533181" lon="2.454121">
        <ele>2302.537</ele>
        <time>2021-05-28T18:50:41Z</time>
      </trkpt>
      <trkpt lat="42.533205" lon="2.454114">
        <ele>2301.736</ele>
        <time>2021-05-28T18:50:44Z</time>
      </trkpt>
      <trkpt lat="42.533226" lon="2.454107">
        <ele>2301.123</ele>
        <time>2021-05-28T18:50:46Z</time>
      </trkpt>
      <trkpt lat="42.533248" lon="2.454105">
        <ele>2300.388</ele>
        <time>2021-05-28T18:50:48Z</time>
      </trkpt>
      <trkpt lat="42.533265" lon="2.454097">
        <ele>2299.845</ele>
        <time>2021-05-28T18:50:50Z</time>
      </trkpt>
      <trkpt lat="42.533291" lon="2.454099">
        <ele>2298.843</ele>
        <time>2021-05-28T18:50:53Z</time>
      </trkpt>
      <trkpt lat="42.533314" lon="2.454099">
        <ele>2297.981</ele>
        <time>2021-05-28T18:50:55Z</time>
      </trkpt>
      <trkpt lat="42.533343" lon="2.454088">
        <ele>2297.061</ele>
        <time>2021-05-28T18:50:57Z</time>
      </trkpt>
      <trkpt lat="42.533369" lon="2.454069">
        <ele>2296.317</ele>
        <time>2021-05-28T18:50:59Z</time>
      </trkpt>
      <trkpt lat="42.533389" lon="2.454054">
        <ele>2295.708</ele>
        <time>2021-05-28T18:51:01Z</time>
      </trkpt>
      <trkpt lat="42.533404" lon="2.454039">
        <ele>2295.445</ele>
        <time>2021-05-28T18:51:03Z</time>
      </trkpt>
      <trkpt lat="42.533424" lon="2.454017">
        <ele>2295.082</ele>
        <time>2021-05-28T18:51:05Z</time>
      </trkpt>
      <trkpt lat="42.533444" lon="2.453990">
        <ele>2294.723</ele>
        <time>2021-05-28T18:51:07Z</time>
      </trkpt>
      <trkpt lat="42.533456" lon="2.453969">
        <ele>2294.672</ele>
        <time>2021-05-28T18:51:09Z</time>
      </trkpt>
      <trkpt lat="42.533474" lon="2.453946">
        <ele>2294.349</ele>
        <time>2021-05-28T18:51:12Z</time>
      </trkpt>
      <trkpt lat="42.533496" lon="2.453929">
        <ele>2293.894</ele>
        <time>2021-05-28T18:51:15Z</time>
      </trkpt>
      <trkpt lat="42.533518" lon="2.453913">
        <ele>2293.271</ele>
        <time>2021-05-28T18:51:17Z</time>
      </trkpt>
      <trkpt lat="42.533534" lon="2.453901">
        <ele>2292.829</ele>
        <time>2021-05-28T18:51:19Z</time>
      </trkpt>
      <trkpt lat="42.533557" lon="2.453894">
        <ele>2292.047</ele>
        <time>2021-05-28T18:51:21Z</time>
      </trkpt>
      <trkpt lat="42.533571" lon="2.453879">
        <ele>2291.729</ele>
        <time>2021-05-28T18:51:23Z</time>
      </trkpt>
      <trkpt lat="42.533591" lon="2.453863">
        <ele>2291.221</ele>
        <time>2021-05-28T18:51:26Z</time>
      </trkpt>
      <trkpt lat="42.533609" lon="2.453849">
        <ele>2290.708</ele>
        <time>2021-05-28T18:51:29Z</time>
      </trkpt>
      <trkpt lat="42.533623" lon="2.453829">
        <ele>2290.331</ele>
        <time>2021-05-28T18:51:31Z</time>
      </trkpt>
      <trkpt lat="42.533647" lon="2.453815">
        <ele>2289.498</ele>
        <time>2021-05-28T18:51:33Z</time>
      </trkpt>
      <trkpt lat="42.533675" lon="2.453806">
        <ele>2288.359</ele>
        <time>2021-05-28T18:51:35Z</time>
      </trkpt>
      <trkpt lat="42.533688" lon="2.453775">
        <ele>2288.158</ele>
        <time>2021-05-28T18:51:37Z</time>
      </trkpt>
      <trkpt lat="42.533705" lon="2.453749">
        <ele>2287.615</ele>
        <time>2021-05-28T18:51:39Z</time>
      </trkpt>
      <trkpt lat="42.533730" lon="2.453725">
        <ele>2286.770</ele>
        <time>2021-05-28T18:51:41Z</time>
      </trkpt>
      <trkpt lat="42.533754" lon="2.453699">
        <ele>2285.937</ele>
        <time>2021-05-28T18:51:43Z</time>
      </trkpt>
      <trkpt lat="42.533766" lon="2.453664">
        <ele>2285.695</ele>
        <time>2021-05-28T18:51:45Z</time>
      </trkpt>
      <trkpt lat="42.533783" lon="2.453628">
        <ele>2285.232</ele>
        <time>2021-05-28T18:51:47Z</time>
      </trkpt>
      <trkpt lat="42.533801" lon="2.453598">
        <ele>2284.492</ele>
        <time>2021-05-28T18:51:49Z</time>
      </trkpt>
      <trkpt lat="42.533806" lon="2.453575">
        <ele>2284.111</ele>
        <time>2021-05-28T18:51:51Z</time>
      </trkpt>
      <trkpt lat="42.533820" lon="2.453553">
        <ele>2283.408</ele>
        <time>2021-05-28T18:51:53Z</time>
      </trkpt>
      <trkpt lat="42.533835" lon="2.453576">
        <ele>2282.640</ele>
        <time>2021-05-28T18:51:57Z</time>
      </trkpt>
      <trkpt lat="42.533829" lon="2.453614">
        <ele>2283.027</ele>
        <time>2021-05-28T18:52:00Z</time>
      </trkpt>
      <trkpt lat="42.533816" lon="2.453646">
        <ele>2283.458</ele>
        <time>2021-05-28T18:52:02Z</time>
      </trkpt>
      <trkpt lat="42.533814" lon="2.453676">
        <ele>2283.287</ele>
        <time>2021-05-28T18:52:04Z</time>
      </trkpt>
      <trkpt lat="42.533814" lon="2.453717">
        <ele>2282.844</ele>
        <time>2021-05-28T18:52:06Z</time>
      </trkpt>
      <trkpt lat="42.533809" lon="2.453758">
        <ele>2282.749</ele>
        <time>2021-05-28T18:52:08Z</time>
      </trkpt>
      <trkpt lat="42.533803" lon="2.453782">
        <ele>2282.716</ele>
        <time>2021-05-28T18:52:09Z</time>
      </trkpt>
      <trkpt lat="42.533799" lon="2.453808">
        <ele>2282.754</ele>
        <time>2021-05-28T18:52:10Z</time>
      </trkpt>
      <trkpt lat="42.533791" lon="2.453847">
        <ele>2282.688</ele>
        <time>2021-05-28T18:52:12Z</time>
      </trkpt>
      <trkpt lat="42.533795" lon="2.453893">
        <ele>2282.024</ele>
        <time>2021-05-28T18:52:14Z</time>
      </trkpt>
      <trkpt lat="42.533790" lon="2.453941">
        <ele>2281.326</ele>
        <time>2021-05-28T18:52:16Z</time>
      </trkpt>
      <trkpt lat="42.533786" lon="2.453987">
        <ele>2280.508</ele>
        <time>2021-05-28T18:52:18Z</time>
      </trkpt>
      <trkpt lat="42.533791" lon="2.454031">
        <ele>2279.575</ele>
        <time>2021-05-28T18:52:20Z</time>
      </trkpt>
      <trkpt lat="42.533784" lon="2.454067">
        <ele>2279.122</ele>
        <time>2021-05-28T18:52:22Z</time>
      </trkpt>
      <trkpt lat="42.533777" lon="2.454111">
        <ele>2278.563</ele>
        <time>2021-05-28T18:52:24Z</time>
      </trkpt>
      <trkpt lat="42.533764" lon="2.454147">
        <ele>2278.382</ele>
        <time>2021-05-28T18:52:26Z</time>
      </trkpt>
      <trkpt lat="42.533743" lon="2.454173">
        <ele>2278.759</ele>
        <time>2021-05-28T18:52:28Z</time>
      </trkpt>
      <trkpt lat="42.533733" lon="2.454207">
        <ele>2278.544</ele>
        <time>2021-05-28T18:52:31Z</time>
      </trkpt>
      <trkpt lat="42.533737" lon="2.454235">
        <ele>2277.911</ele>
        <time>2021-05-28T18:52:33Z</time>
      </trkpt>
      <trkpt lat="42.533739" lon="2.454264">
        <ele>2277.319</ele>
        <time>2021-05-28T18:52:35Z</time>
      </trkpt>
      <trkpt lat="42.533748" lon="2.454293">
        <ele>2276.589</ele>
        <time>2021-05-28T18:52:37Z</time>
      </trkpt>
      <trkpt lat="42.533754" lon="2.454323">
        <ele>2275.806</ele>
        <time>2021-05-28T18:52:39Z</time>
      </trkpt>
      <trkpt lat="42.533752" lon="2.454350">
        <ele>2275.526</ele>
        <time>2021-05-28T18:52:41Z</time>
      </trkpt>
      <trkpt lat="42.533743" lon="2.454381">
        <ele>2275.308</ele>
        <time>2021-05-28T18:52:51Z</time>
      </trkpt>
      <trkpt lat="42.533735" lon="2.454423">
        <ele>2274.995</ele>
        <time>2021-05-28T18:52:53Z</time>
      </trkpt>
      <trkpt lat="42.533728" lon="2.454465">
        <ele>2274.572</ele>
        <time>2021-05-28T18:52:55Z</time>
      </trkpt>
      <trkpt lat="42.533731" lon="2.454508">
        <ele>2273.653</ele>
        <time>2021-05-28T18:52:57Z</time>
      </trkpt>
      <trkpt lat="42.533727" lon="2.454550">
        <ele>2273.172</ele>
        <time>2021-05-28T18:52:59Z</time>
      </trkpt>
      <trkpt lat="42.533734" lon="2.454594">
        <ele>2272.169</ele>
        <time>2021-05-28T18:53:01Z</time>
      </trkpt>
      <trkpt lat="42.533736" lon="2.454619">
        <ele>2271.634</ele>
        <time>2021-05-28T18:53:02Z</time>
      </trkpt>
      <trkpt lat="42.533743" lon="2.454666">
        <ele>2270.611</ele>
        <time>2021-05-28T18:53:04Z</time>
      </trkpt>
      <trkpt lat="42.533736" lon="2.454710">
        <ele>2270.219</ele>
        <time>2021-05-28T18:53:06Z</time>
      </trkpt>
      <trkpt lat="42.533722" lon="2.454736">
        <ele>2270.153</ele>
        <time>2021-05-28T18:53:08Z</time>
      </trkpt>
      <trkpt lat="42.533716" lon="2.454765">
        <ele>2269.704</ele>
        <time>2021-05-28T18:53:11Z</time>
      </trkpt>
      <trkpt lat="42.533726" lon="2.454801">
        <ele>2268.614</ele>
        <time>2021-05-28T18:53:13Z</time>
      </trkpt>
      <trkpt lat="42.533721" lon="2.454841">
        <ele>2267.908</ele>
        <time>2021-05-28T18:53:15Z</time>
      </trkpt>
      <trkpt lat="42.533717" lon="2.454879">
        <ele>2267.242</ele>
        <time>2021-05-28T18:53:17Z</time>
      </trkpt>
      <trkpt lat="42.533705" lon="2.454912">
        <ele>2266.969</ele>
        <time>2021-05-28T18:53:20Z</time>
      </trkpt>
      <trkpt lat="42.533708" lon="2.454946">
        <ele>2266.030</ele>
        <time>2021-05-28T18:53:22Z</time>
      </trkpt>
      <trkpt lat="42.533713" lon="2.454988">
        <ele>2265.079</ele>
        <time>2021-05-28T18:53:24Z</time>
      </trkpt>
      <trkpt lat="42.533707" lon="2.455020">
        <ele>2264.526</ele>
        <time>2021-05-28T18:53:26Z</time>
      </trkpt>
      <trkpt lat="42.533692" lon="2.455053">
        <ele>2264.261</ele>
        <time>2021-05-28T18:53:28Z</time>
      </trkpt>
      <trkpt lat="42.533680" lon="2.455080">
        <ele>2264.098</ele>
        <time>2021-05-28T18:53:31Z</time>
      </trkpt>
      <trkpt lat="42.533671" lon="2.455112">
        <ele>2263.646</ele>
        <time>2021-05-28T18:53:34Z</time>
      </trkpt>
      <trkpt lat="42.533666" lon="2.455144">
        <ele>2263.184</ele>
        <time>2021-05-28T18:53:36Z</time>
      </trkpt>
      <trkpt lat="42.533660" lon="2.455172">
        <ele>2262.707</ele>
        <time>2021-05-28T18:53:39Z</time>
      </trkpt>
      <trkpt lat="42.533655" lon="2.455199">
        <ele>2262.317</ele>
        <time>2021-05-28T18:53:42Z</time>
      </trkpt>
      <trkpt lat="42.533647" lon="2.455232">
        <ele>2261.808</ele>
        <time>2021-05-28T18:53:43Z</time>
      </trkpt>
      <trkpt lat="42.533639" lon="2.455254">
        <ele>2261.665</ele>
        <time>2021-05-28T18:53:45Z</time>
      </trkpt>
      <trkpt lat="42.533627" lon="2.455285">
        <ele>2261.362</ele>
        <time>2021-05-28T18:53:51Z</time>
      </trkpt>
      <trkpt lat="42.533631" lon="2.455309">
        <ele>2260.513</ele>
        <time>2021-05-28T18:53:54Z</time>
      </trkpt>
      <trkpt lat="42.533623" lon="2.455348">
        <ele>2259.662</ele>
        <time>2021-05-28T18:54:01Z</time>
      </trkpt>
      <trkpt lat="42.533608" lon="2.455384">
        <ele>2259.079</ele>
        <time>2021-05-28T18:54:03Z</time>
      </trkpt>
      <trkpt lat="42.533595" lon="2.455419">
        <ele>2258.554</ele>
        <time>2021-05-28T18:54:05Z</time>
      </trkpt>
      <trkpt lat="42.533580" lon="2.455452">
        <ele>2258.031</ele>
        <time>2021-05-28T18:54:07Z</time>
      </trkpt>
      <trkpt lat="42.533573" lon="2.455489">
        <ele>2257.249</ele>
        <time>2021-05-28T18:54:09Z</time>
      </trkpt>
      <trkpt lat="42.533561" lon="2.455528">
        <ele>2256.454</ele>
        <time>2021-05-28T18:54:11Z</time>
      </trkpt>
      <trkpt lat="42.533549" lon="2.455557">
        <ele>2256.056</ele>
        <time>2021-05-28T18:54:13Z</time>
      </trkpt>
      <trkpt lat="42.533533" lon="2.455593">
        <ele>2255.411</ele>
        <time>2021-05-28T18:54:15Z</time>
      </trkpt>
      <trkpt lat="42.533515" lon="2.455623">
        <ele>2255.008</ele>
        <time>2021-05-28T18:54:17Z</time>
      </trkpt>
      <trkpt lat="42.533506" lon="2.455661">
        <ele>2254.182</ele>
        <time>2021-05-28T18:54:19Z</time>
      </trkpt>
      <trkpt lat="42.533496" lon="2.455697">
        <ele>2253.469</ele>
        <time>2021-05-28T18:54:21Z</time>
      </trkpt>
      <trkpt lat="42.533478" lon="2.455727">
        <ele>2253.170</ele>
        <time>2021-05-28T18:54:23Z</time>
      </trkpt>
      <trkpt lat="42.533461" lon="2.455759">
        <ele>2252.799</ele>
        <time>2021-05-28T18:54:25Z</time>
      </trkpt>
      <trkpt lat="42.533443" lon="2.455790">
        <ele>2252.476</ele>
        <time>2021-05-28T18:54:27Z</time>
      </trkpt>
      <trkpt lat="42.533428" lon="2.455824">
        <ele>2251.951</ele>
        <time>2021-05-28T18:54:29Z</time>
      </trkpt>
      <trkpt lat="42.533417" lon="2.455856">
        <ele>2251.558</ele>
        <time>2021-05-28T18:54:31Z</time>
      </trkpt>
      <trkpt lat="42.533407" lon="2.455885">
        <ele>2251.256</ele>
        <time>2021-05-28T18:54:33Z</time>
      </trkpt>
      <trkpt lat="42.533398" lon="2.455913">
        <ele>2250.981</ele>
        <time>2021-05-28T18:54:35Z</time>
      </trkpt>
      <trkpt lat="42.533390" lon="2.455943">
        <ele>2250.561</ele>
        <time>2021-05-28T18:54:37Z</time>
      </trkpt>
      <trkpt lat="42.533383" lon="2.455982">
        <ele>2249.917</ele>
        <time>2021-05-28T18:54:39Z</time>
      </trkpt>
      <trkpt lat="42.533381" lon="2.456013">
        <ele>2249.308</ele>
        <time>2021-05-28T18:54:41Z</time>
      </trkpt>
      <trkpt lat="42.533373" lon="2.456050">
        <ele>2248.835</ele>
        <time>2021-05-28T18:54:43Z</time>
      </trkpt>
      <trkpt lat="42.533365" lon="2.456087">
        <ele>2248.362</ele>
        <time>2021-05-28T18:54:45Z</time>
      </trkpt>
      <trkpt lat="42.533363" lon="2.456129">
        <ele>2247.423</ele>
        <time>2021-05-28T18:54:47Z</time>
      </trkpt>
      <trkpt lat="42.533356" lon="2.456162">
        <ele>2246.872</ele>
        <time>2021-05-28T18:54:49Z</time>
      </trkpt>
      <trkpt lat="42.533352" lon="2.456195">
        <ele>2246.299</ele>
        <time>2021-05-28T18:54:51Z</time>
      </trkpt>
      <trkpt lat="42.533350" lon="2.456235">
        <ele>2245.294</ele>
        <time>2021-05-28T18:54:53Z</time>
      </trkpt>
      <trkpt lat="42.533340" lon="2.456265">
        <ele>2244.931</ele>
        <time>2021-05-28T18:54:55Z</time>
      </trkpt>
      <trkpt lat="42.533336" lon="2.456309">
        <ele>2243.999</ele>
        <time>2021-05-28T18:54:57Z</time>
      </trkpt>
      <trkpt lat="42.533332" lon="2.456340">
        <ele>2243.368</ele>
        <time>2021-05-28T18:54:59Z</time>
      </trkpt>
      <trkpt lat="42.533323" lon="2.456374">
        <ele>2242.842</ele>
        <time>2021-05-28T18:55:01Z</time>
      </trkpt>
      <trkpt lat="42.533316" lon="2.456413">
        <ele>2242.126</ele>
        <time>2021-05-28T18:55:03Z</time>
      </trkpt>
      <trkpt lat="42.533309" lon="2.456448">
        <ele>2241.508</ele>
        <time>2021-05-28T18:55:05Z</time>
      </trkpt>
      <trkpt lat="42.533295" lon="2.456485">
        <ele>2241.073</ele>
        <time>2021-05-28T18:55:07Z</time>
      </trkpt>
      <trkpt lat="42.533277" lon="2.456518">
        <ele>2240.940</ele>
        <time>2021-05-28T18:55:09Z</time>
      </trkpt>
      <trkpt lat="42.533260" lon="2.456556">
        <ele>2240.581</ele>
        <time>2021-05-28T18:55:11Z</time>
      </trkpt>
      <trkpt lat="42.533251" lon="2.456579">
        <ele>2240.390</ele>
        <time>2021-05-28T18:55:12Z</time>
      </trkpt>
      <trkpt lat="42.533240" lon="2.456618">
        <ele>2239.657</ele>
        <time>2021-05-28T18:55:14Z</time>
      </trkpt>
      <trkpt lat="42.533231" lon="2.456645">
        <ele>2239.362</ele>
        <time>2021-05-28T18:55:16Z</time>
      </trkpt>
      <trkpt lat="42.533222" lon="2.456686">
        <ele>2238.629</ele>
        <time>2021-05-28T18:55:18Z</time>
      </trkpt>
      <trkpt lat="42.533213" lon="2.456719">
        <ele>2238.227</ele>
        <time>2021-05-28T18:55:20Z</time>
      </trkpt>
      <trkpt lat="42.533201" lon="2.456753">
        <ele>2237.991</ele>
        <time>2021-05-28T18:55:22Z</time>
      </trkpt>
      <trkpt lat="42.533188" lon="2.456787">
        <ele>2237.681</ele>
        <time>2021-05-28T18:55:24Z</time>
      </trkpt>
      <trkpt lat="42.533187" lon="2.456825">
        <ele>2236.819</ele>
        <time>2021-05-28T18:55:26Z</time>
      </trkpt>
      <trkpt lat="42.533187" lon="2.456859">
        <ele>2236.108</ele>
        <time>2021-05-28T18:55:28Z</time>
      </trkpt>
      <trkpt lat="42.533182" lon="2.456896">
        <ele>2235.516</ele>
        <time>2021-05-28T18:55:30Z</time>
      </trkpt>
      <trkpt lat="42.533173" lon="2.456919">
        <ele>2235.343</ele>
        <time>2021-05-28T18:55:32Z</time>
      </trkpt>
      <trkpt lat="42.533166" lon="2.456959">
        <ele>2234.694</ele>
        <time>2021-05-28T18:55:34Z</time>
      </trkpt>
      <trkpt lat="42.533159" lon="2.457001">
        <ele>2233.563</ele>
        <time>2021-05-28T18:55:36Z</time>
      </trkpt>
      <trkpt lat="42.533149" lon="2.457042">
        <ele>2232.610</ele>
        <time>2021-05-28T18:55:38Z</time>
      </trkpt>
      <trkpt lat="42.533135" lon="2.457077">
        <ele>2232.085</ele>
        <time>2021-05-28T18:55:40Z</time>
      </trkpt>
      <trkpt lat="42.533125" lon="2.457117">
        <ele>2231.172</ele>
        <time>2021-05-28T18:55:42Z</time>
      </trkpt>
      <trkpt lat="42.533109" lon="2.457155">
        <ele>2230.410</ele>
        <time>2021-05-28T18:55:44Z</time>
      </trkpt>
      <trkpt lat="42.533096" lon="2.457190">
        <ele>2229.784</ele>
        <time>2021-05-28T18:55:46Z</time>
      </trkpt>
      <trkpt lat="42.533077" lon="2.457222">
        <ele>2229.307</ele>
        <time>2021-05-28T18:55:48Z</time>
      </trkpt>
      <trkpt lat="42.533060" lon="2.457249">
        <ele>2229.017</ele>
        <time>2021-05-28T18:55:50Z</time>
      </trkpt>
      <trkpt lat="42.533037" lon="2.457285">
        <ele>2228.808</ele>
        <time>2021-05-28T18:55:52Z</time>
      </trkpt>
      <trkpt lat="42.533022" lon="2.457308">
        <ele>2228.645</ele>
        <time>2021-05-28T18:55:53Z</time>
      </trkpt>
      <trkpt lat="42.533009" lon="2.457326">
        <ele>2228.692</ele>
        <time>2021-05-28T18:55:55Z</time>
      </trkpt>
      <trkpt lat="42.532991" lon="2.457359">
        <ele>2228.243</ele>
        <time>2021-05-28T18:55:56Z</time>
      </trkpt>
      <trkpt lat="42.532975" lon="2.457391">
        <ele>2227.832</ele>
        <time>2021-05-28T18:55:58Z</time>
      </trkpt>
      <trkpt lat="42.532962" lon="2.457434">
        <ele>2226.969</ele>
        <time>2021-05-28T18:56:00Z</time>
      </trkpt>
      <trkpt lat="42.532956" lon="2.457458">
        <ele>2226.424</ele>
        <time>2021-05-28T18:56:01Z</time>
      </trkpt>
      <trkpt lat="42.532939" lon="2.457497">
        <ele>2225.751</ele>
        <time>2021-05-28T18:56:03Z</time>
      </trkpt>
      <trkpt lat="42.532922" lon="2.457537">
        <ele>2225.079</ele>
        <time>2021-05-28T18:56:05Z</time>
      </trkpt>
      <trkpt lat="42.532903" lon="2.457571">
        <ele>2224.685</ele>
        <time>2021-05-28T18:56:07Z</time>
      </trkpt>
      <trkpt lat="42.532884" lon="2.457602">
        <ele>2224.289</ele>
        <time>2021-05-28T18:56:09Z</time>
      </trkpt>
      <trkpt lat="42.532860" lon="2.457631">
        <ele>2224.017</ele>
        <time>2021-05-28T18:56:11Z</time>
      </trkpt>
      <trkpt lat="42.532837" lon="2.457657">
        <ele>2223.808</ele>
        <time>2021-05-28T18:56:13Z</time>
      </trkpt>
      <trkpt lat="42.532818" lon="2.457679">
        <ele>2223.695</ele>
        <time>2021-05-28T18:56:15Z</time>
      </trkpt>
      <trkpt lat="42.532800" lon="2.457690">
        <ele>2223.882</ele>
        <time>2021-05-28T18:56:17Z</time>
      </trkpt>
      <trkpt lat="42.532775" lon="2.457697">
        <ele>2224.283</ele>
        <time>2021-05-28T18:56:19Z</time>
      </trkpt>
      <trkpt lat="42.532748" lon="2.457711">
        <ele>2224.232</ele>
        <time>2021-05-28T18:56:21Z</time>
      </trkpt>
      <trkpt lat="42.532723" lon="2.457723">
        <ele>2224.129</ele>
        <time>2021-05-28T18:56:23Z</time>
      </trkpt>
      <trkpt lat="42.532702" lon="2.457753">
        <ele>2223.154</ele>
        <time>2021-05-28T18:56:25Z</time>
      </trkpt>
      <trkpt lat="42.532678" lon="2.457775">
        <ele>2222.681</ele>
        <time>2021-05-28T18:56:27Z</time>
      </trkpt>
      <trkpt lat="42.532652" lon="2.457795">
        <ele>2222.099</ele>
        <time>2021-05-28T18:56:29Z</time>
      </trkpt>
      <trkpt lat="42.532636" lon="2.457809">
        <ele>2221.619</ele>
        <time>2021-05-28T18:56:30Z</time>
      </trkpt>
      <trkpt lat="42.532607" lon="2.457832">
        <ele>2220.909</ele>
        <time>2021-05-28T18:56:33Z</time>
      </trkpt>
      <trkpt lat="42.532584" lon="2.457856">
        <ele>2220.019</ele>
        <time>2021-05-28T18:56:34Z</time>
      </trkpt>
      <trkpt lat="42.532566" lon="2.457866">
        <ele>2219.808</ele>
        <time>2021-05-28T18:56:36Z</time>
      </trkpt>
      <trkpt lat="42.532535" lon="2.457872">
        <ele>2219.868</ele>
        <time>2021-05-28T18:56:39Z</time>
      </trkpt>
      <trkpt lat="42.532519" lon="2.457884">
        <ele>2219.495</ele>
        <time>2021-05-28T18:56:40Z</time>
      </trkpt>
      <trkpt lat="42.532493" lon="2.457906">
        <ele>2218.776</ele>
        <time>2021-05-28T18:56:42Z</time>
      </trkpt>
      <trkpt lat="42.532478" lon="2.457924">
        <ele>2218.115</ele>
        <time>2021-05-28T18:56:44Z</time>
      </trkpt>
      <trkpt lat="42.532458" lon="2.457930">
        <ele>2218.362</ele>
        <time>2021-05-28T18:56:46Z</time>
      </trkpt>
      <trkpt lat="42.532439" lon="2.457935">
        <ele>2218.517</ele>
        <time>2021-05-28T18:56:48Z</time>
      </trkpt>
      <trkpt lat="42.532413" lon="2.457956">
        <ele>2218.074</ele>
        <time>2021-05-28T18:56:50Z</time>
      </trkpt>
      <trkpt lat="42.532385" lon="2.457983">
        <ele>2217.232</ele>
        <time>2021-05-28T18:56:52Z</time>
      </trkpt>
      <trkpt lat="42.532372" lon="2.458002">
        <ele>2216.631</ele>
        <time>2021-05-28T18:56:53Z</time>
      </trkpt>
      <trkpt lat="42.532346" lon="2.458030">
        <ele>2215.761</ele>
        <time>2021-05-28T18:56:55Z</time>
      </trkpt>
      <trkpt lat="42.532329" lon="2.458040">
        <ele>2215.507</ele>
        <time>2021-05-28T18:56:56Z</time>
      </trkpt>
      <trkpt lat="42.532299" lon="2.458060">
        <ele>2215.108</ele>
        <time>2021-05-28T18:56:58Z</time>
      </trkpt>
      <trkpt lat="42.532268" lon="2.458081">
        <ele>2214.620</ele>
        <time>2021-05-28T18:57:00Z</time>
      </trkpt>
      <trkpt lat="42.532244" lon="2.458099">
        <ele>2214.247</ele>
        <time>2021-05-28T18:57:02Z</time>
      </trkpt>
      <trkpt lat="42.532217" lon="2.458112">
        <ele>2214.198</ele>
        <time>2021-05-28T18:57:04Z</time>
      </trkpt>
      <trkpt lat="42.532197" lon="2.458113">
        <ele>2214.497</ele>
        <time>2021-05-28T18:57:06Z</time>
      </trkpt>
      <trkpt lat="42.532181" lon="2.458126">
        <ele>2214.074</ele>
        <time>2021-05-28T18:57:08Z</time>
      </trkpt>
      <trkpt lat="42.532158" lon="2.458130">
        <ele>2214.299</ele>
        <time>2021-05-28T18:57:10Z</time>
      </trkpt>
      <trkpt lat="42.532139" lon="2.458135">
        <ele>2214.376</ele>
        <time>2021-05-28T18:57:12Z</time>
      </trkpt>
      <trkpt lat="42.532122" lon="2.458149">
        <ele>2213.914</ele>
        <time>2021-05-28T18:57:14Z</time>
      </trkpt>
      <trkpt lat="42.532099" lon="2.458155">
        <ele>2214.093</ele>
        <time>2021-05-28T18:57:16Z</time>
      </trkpt>
      <trkpt lat="42.532079" lon="2.458155">
        <ele>2214.465</ele>
        <time>2021-05-28T18:57:18Z</time>
      </trkpt>
      <trkpt lat="42.532058" lon="2.458156">
        <ele>2214.721</ele>
        <time>2021-05-28T18:57:20Z</time>
      </trkpt>
      <trkpt lat="42.532039" lon="2.458163">
        <ele>2214.808</ele>
        <time>2021-05-28T18:57:22Z</time>
      </trkpt>
      <trkpt lat="42.532014" lon="2.458178">
        <ele>2214.576</ele>
        <time>2021-05-28T18:57:24Z</time>
      </trkpt>
      <trkpt lat="42.531987" lon="2.458189">
        <ele>2214.473</ele>
        <time>2021-05-28T18:57:26Z</time>
      </trkpt>
      <trkpt lat="42.531954" lon="2.458203">
        <ele>2214.454</ele>
        <time>2021-05-28T18:57:28Z</time>
      </trkpt>
      <trkpt lat="42.531938" lon="2.458217">
        <ele>2214.043</ele>
        <time>2021-05-28T18:57:29Z</time>
      </trkpt>
      <trkpt lat="42.531922" lon="2.458232">
        <ele>2213.750</ele>
        <time>2021-05-28T18:57:30Z</time>
      </trkpt>
      <trkpt lat="42.531894" lon="2.458265">
        <ele>2212.965</ele>
        <time>2021-05-28T18:57:32Z</time>
      </trkpt>
      <trkpt lat="42.531869" lon="2.458288">
        <ele>2212.442</ele>
        <time>2021-05-28T18:57:34Z</time>
      </trkpt>
      <trkpt lat="42.531846" lon="2.458318">
        <ele>2211.660</ele>
        <time>2021-05-28T18:57:36Z</time>
      </trkpt>
      <trkpt lat="42.531828" lon="2.458346">
        <ele>2210.921</ele>
        <time>2021-05-28T18:57:38Z</time>
      </trkpt>
      <trkpt lat="42.531808" lon="2.458378">
        <ele>2210.241</ele>
        <time>2021-05-28T18:57:40Z</time>
      </trkpt>
      <trkpt lat="42.531791" lon="2.458406">
        <ele>2209.705</ele>
        <time>2021-05-28T18:57:42Z</time>
      </trkpt>
      <trkpt lat="42.531770" lon="2.458427">
        <ele>2209.508</ele>
        <time>2021-05-28T18:57:44Z</time>
      </trkpt>
      <trkpt lat="42.531750" lon="2.458455">
        <ele>2209.199</ele>
        <time>2021-05-28T18:57:46Z</time>
      </trkpt>
      <trkpt lat="42.531732" lon="2.458486">
        <ele>2208.516</ele>
        <time>2021-05-28T18:57:48Z</time>
      </trkpt>
      <trkpt lat="42.531714" lon="2.458521">
        <ele>2207.817</ele>
        <time>2021-05-28T18:57:50Z</time>
      </trkpt>
      <trkpt lat="42.531700" lon="2.458558">
        <ele>2206.946</ele>
        <time>2021-05-28T18:57:52Z</time>
      </trkpt>
      <trkpt lat="42.531687" lon="2.458584">
        <ele>2206.373</ele>
        <time>2021-05-28T18:57:54Z</time>
      </trkpt>
      <trkpt lat="42.531667" lon="2.458610">
        <ele>2206.068</ele>
        <time>2021-05-28T18:57:56Z</time>
      </trkpt>
      <trkpt lat="42.531649" lon="2.458649">
        <ele>2205.645</ele>
        <time>2021-05-28T18:57:58Z</time>
      </trkpt>
      <trkpt lat="42.531633" lon="2.458671">
        <ele>2205.643</ele>
        <time>2021-05-28T18:58:00Z</time>
      </trkpt>
      <trkpt lat="42.531614" lon="2.458679">
        <ele>2206.021</ele>
        <time>2021-05-28T18:58:02Z</time>
      </trkpt>
      <trkpt lat="42.531595" lon="2.458699">
        <ele>2206.141</ele>
        <time>2021-05-28T18:58:04Z</time>
      </trkpt>
      <trkpt lat="42.531583" lon="2.458733">
        <ele>2205.505</ele>
        <time>2021-05-28T18:58:06Z</time>
      </trkpt>
      <trkpt lat="42.531560" lon="2.458764">
        <ele>2205.408</ele>
        <time>2021-05-28T18:58:08Z</time>
      </trkpt>
      <trkpt lat="42.531550" lon="2.458784">
        <ele>2205.149</ele>
        <time>2021-05-28T18:58:10Z</time>
      </trkpt>
      <trkpt lat="42.531543" lon="2.458812">
        <ele>2204.536</ele>
        <time>2021-05-28T18:58:12Z</time>
      </trkpt>
      <trkpt lat="42.531533" lon="2.458838">
        <ele>2204.087</ele>
        <time>2021-05-28T18:58:14Z</time>
      </trkpt>
      <trkpt lat="42.531522" lon="2.458877">
        <ele>2203.196</ele>
        <time>2021-05-28T18:58:16Z</time>
      </trkpt>
      <trkpt lat="42.531509" lon="2.458907">
        <ele>2202.653</ele>
        <time>2021-05-28T18:58:18Z</time>
      </trkpt>
      <trkpt lat="42.531492" lon="2.458931">
        <ele>2202.458</ele>
        <time>2021-05-28T18:58:20Z</time>
      </trkpt>
      <trkpt lat="42.531477" lon="2.458951">
        <ele>2202.475</ele>
        <time>2021-05-28T18:58:22Z</time>
      </trkpt>
      <trkpt lat="42.531462" lon="2.458976">
        <ele>2202.173</ele>
        <time>2021-05-28T18:58:24Z</time>
      </trkpt>
      <trkpt lat="42.531451" lon="2.459003">
        <ele>2201.758</ele>
        <time>2021-05-28T18:58:26Z</time>
      </trkpt>
      <trkpt lat="42.531434" lon="2.459029">
        <ele>2201.552</ele>
        <time>2021-05-28T18:58:29Z</time>
      </trkpt>
      <trkpt lat="42.531420" lon="2.459048">
        <ele>2201.417</ele>
        <time>2021-05-28T18:58:31Z</time>
      </trkpt>
      <trkpt lat="42.531416" lon="2.459077">
        <ele>2200.708</ele>
        <time>2021-05-28T18:58:34Z</time>
      </trkpt>
      <trkpt lat="42.531411" lon="2.459102">
        <ele>2200.152</ele>
        <time>2021-05-28T18:58:37Z</time>
      </trkpt>
      <trkpt lat="42.531395" lon="2.459123">
        <ele>2200.119</ele>
        <time>2021-05-28T18:58:40Z</time>
      </trkpt>
      <trkpt lat="42.531377" lon="2.459154">
        <ele>2199.610</ele>
        <time>2021-05-28T18:58:46Z</time>
      </trkpt>
      <trkpt lat="42.531387" lon="2.459182">
        <ele>2198.689</ele>
        <time>2021-05-28T18:58:49Z</time>
      </trkpt>
      <trkpt lat="42.531397" lon="2.459209">
        <ele>2197.516</ele>
        <time>2021-05-28T18:58:52Z</time>
      </trkpt>
      <trkpt lat="42.531394" lon="2.459235">
        <ele>2196.911</ele>
        <time>2021-05-28T18:58:57Z</time>
      </trkpt>
      <trkpt lat="42.531385" lon="2.459261">
        <ele>2196.458</ele>
        <time>2021-05-28T18:59:02Z</time>
      </trkpt>
      <trkpt lat="42.531369" lon="2.459278">
        <ele>2196.316</ele>
        <time>2021-05-28T18:59:05Z</time>
      </trkpt>
      <trkpt lat="42.531362" lon="2.459307">
        <ele>2195.687</ele>
        <time>2021-05-28T18:59:09Z</time>
      </trkpt>
      <trkpt lat="42.531348" lon="2.459327">
        <ele>2195.442</ele>
        <time>2021-05-28T18:59:11Z</time>
      </trkpt>
      <trkpt lat="42.531335" lon="2.459351">
        <ele>2195.026</ele>
        <time>2021-05-28T18:59:15Z</time>
      </trkpt>
      <trkpt lat="42.531316" lon="2.459384">
        <ele>2194.508</ele>
        <time>2021-05-28T18:59:18Z</time>
      </trkpt>
      <trkpt lat="42.531300" lon="2.459409">
        <ele>2194.215</ele>
        <time>2021-05-28T18:59:20Z</time>
      </trkpt>
      <trkpt lat="42.531285" lon="2.459426">
        <ele>2194.152</ele>
        <time>2021-05-28T18:59:22Z</time>
      </trkpt>
      <trkpt lat="42.531274" lon="2.459447">
        <ele>2193.943</ele>
        <time>2021-05-28T18:59:24Z</time>
      </trkpt>
      <trkpt lat="42.531264" lon="2.459474">
        <ele>2193.842</ele>
        <time>2021-05-28T18:59:27Z</time>
      </trkpt>
      <trkpt lat="42.531265" lon="2.459501">
        <ele>2193.419</ele>
        <time>2021-05-28T18:59:29Z</time>
      </trkpt>
      <trkpt lat="42.531261" lon="2.459532">
        <ele>2193.114</ele>
        <time>2021-05-28T18:59:32Z</time>
      </trkpt>
      <trkpt lat="42.531254" lon="2.459556">
        <ele>2193.051</ele>
        <time>2021-05-28T18:59:35Z</time>
      </trkpt>
      <trkpt lat="42.531262" lon="2.459583">
        <ele>2192.569</ele>
        <time>2021-05-28T18:59:38Z</time>
      </trkpt>
      <trkpt lat="42.531263" lon="2.459609">
        <ele>2192.183</ele>
        <time>2021-05-28T18:59:40Z</time>
      </trkpt>
      <trkpt lat="42.531254" lon="2.459636">
        <ele>2192.025</ele>
        <time>2021-05-28T18:59:43Z</time>
      </trkpt>
      <trkpt lat="42.531246" lon="2.459672">
        <ele>2191.717</ele>
        <time>2021-05-28T18:59:46Z</time>
      </trkpt>
      <trkpt lat="42.531246" lon="2.459709">
        <ele>2191.308</ele>
        <time>2021-05-28T18:59:48Z</time>
      </trkpt>
      <trkpt lat="42.531253" lon="2.459742">
        <ele>2190.885</ele>
        <time>2021-05-28T18:59:50Z</time>
      </trkpt>
      <trkpt lat="42.531268" lon="2.459767">
        <ele>2190.412</ele>
        <time>2021-05-28T18:59:52Z</time>
      </trkpt>
      <trkpt lat="42.531279" lon="2.459788">
        <ele>2190.163</ele>
        <time>2021-05-28T18:59:54Z</time>
      </trkpt>
      <trkpt lat="42.531306" lon="2.459788">
        <ele>2189.632</ele>
        <time>2021-05-28T18:59:57Z</time>
      </trkpt>
      <trkpt lat="42.531322" lon="2.459801">
        <ele>2189.249</ele>
        <time>2021-05-28T18:59:59Z</time>
      </trkpt>
      <trkpt lat="42.531354" lon="2.459819">
        <ele>2188.634</ele>
        <time>2021-05-28T19:00:02Z</time>
      </trkpt>
      <trkpt lat="42.531378" lon="2.459820">
        <ele>2188.281</ele>
        <time>2021-05-28T19:00:04Z</time>
      </trkpt>
      <trkpt lat="42.531399" lon="2.459823">
        <ele>2187.829</ele>
        <time>2021-05-28T19:00:06Z</time>
      </trkpt>
      <trkpt lat="42.531413" lon="2.459840">
        <ele>2187.578</ele>
        <time>2021-05-28T19:00:08Z</time>
      </trkpt>
      <trkpt lat="42.531434" lon="2.459843">
        <ele>2187.133</ele>
        <time>2021-05-28T19:00:10Z</time>
      </trkpt>
      <trkpt lat="42.531456" lon="2.459843">
        <ele>2186.726</ele>
        <time>2021-05-28T19:00:12Z</time>
      </trkpt>
      <trkpt lat="42.531472" lon="2.459872">
        <ele>2186.408</ele>
        <time>2021-05-28T19:00:14Z</time>
      </trkpt>
      <trkpt lat="42.531480" lon="2.459899">
        <ele>2186.214</ele>
        <time>2021-05-28T19:00:15Z</time>
      </trkpt>
      <trkpt lat="42.531489" lon="2.459926">
        <ele>2186.151</ele>
        <time>2021-05-28T19:00:16Z</time>
      </trkpt>
      <trkpt lat="42.531499" lon="2.459953">
        <ele>2186.092</ele>
        <time>2021-05-28T19:00:17Z</time>
      </trkpt>
      <trkpt lat="42.531509" lon="2.459980">
        <ele>2185.871</ele>
        <time>2021-05-28T19:00:18Z</time>
      </trkpt>
      <trkpt lat="42.531519" lon="2.460007">
        <ele>2185.678</ele>
        <time>2021-05-28T19:00:19Z</time>
      </trkpt>
      <trkpt lat="42.531529" lon="2.460034">
        <ele>2185.423</ele>
        <time>2021-05-28T19:00:20Z</time>
      </trkpt>
      <trkpt lat="42.531541" lon="2.460057">
        <ele>2185.270</ele>
        <time>2021-05-28T19:00:21Z</time>
      </trkpt>
      <trkpt lat="42.531553" lon="2.460080">
        <ele>2184.968</ele>
        <time>2021-05-28T19:00:22Z</time>
      </trkpt>
      <trkpt lat="42.531565" lon="2.460101">
        <ele>2184.754</ele>
        <time>2021-05-28T19:00:23Z</time>
      </trkpt>
      <trkpt lat="42.531583" lon="2.460142">
        <ele>2184.456</ele>
        <time>2021-05-28T19:00:25Z</time>
      </trkpt>
      <trkpt lat="42.531595" lon="2.460163">
        <ele>2184.111</ele>
        <time>2021-05-28T19:00:26Z</time>
      </trkpt>
      <trkpt lat="42.531606" lon="2.460185">
        <ele>2183.908</ele>
        <time>2021-05-28T19:00:27Z</time>
      </trkpt>
      <trkpt lat="42.531619" lon="2.460209">
        <ele>2183.792</ele>
        <time>2021-05-28T19:00:28Z</time>
      </trkpt>
      <trkpt lat="42.531629" lon="2.460229">
        <ele>2183.659</ele>
        <time>2021-05-28T19:00:29Z</time>
      </trkpt>
      <trkpt lat="42.531635" lon="2.460254">
        <ele>2183.540</ele>
        <time>2021-05-28T19:00:30Z</time>
      </trkpt>
      <trkpt lat="42.531647" lon="2.460302">
        <ele>2183.119</ele>
        <time>2021-05-28T19:00:32Z</time>
      </trkpt>
      <trkpt lat="42.531654" lon="2.460327">
        <ele>2182.816</ele>
        <time>2021-05-28T19:00:33Z</time>
      </trkpt>
      <trkpt lat="42.531667" lon="2.460361">
        <ele>2182.451</ele>
        <time>2021-05-28T19:00:35Z</time>
      </trkpt>
      <trkpt lat="42.531678" lon="2.460385">
        <ele>2182.238</ele>
        <time>2021-05-28T19:00:37Z</time>
      </trkpt>
      <trkpt lat="42.531695" lon="2.460403">
        <ele>2181.966</ele>
        <time>2021-05-28T19:00:40Z</time>
      </trkpt>
      <trkpt lat="42.531711" lon="2.460419">
        <ele>2181.758</ele>
        <time>2021-05-28T19:00:41Z</time>
      </trkpt>
      <trkpt lat="42.531720" lon="2.460447">
        <ele>2181.552</ele>
        <time>2021-05-28T19:00:44Z</time>
      </trkpt>
      <trkpt lat="42.531723" lon="2.460474">
        <ele>2181.317</ele>
        <time>2021-05-28T19:00:48Z</time>
      </trkpt>
      <trkpt lat="42.531736" lon="2.460505">
        <ele>2181.108</ele>
        <time>2021-05-28T19:00:51Z</time>
      </trkpt>
      <trkpt lat="42.531743" lon="2.460540">
        <ele>2180.892</ele>
        <time>2021-05-28T19:00:54Z</time>
      </trkpt>
      <trkpt lat="42.531747" lon="2.460571">
        <ele>2180.569</ele>
        <time>2021-05-28T19:00:57Z</time>
      </trkpt>
      <trkpt lat="42.531752" lon="2.460598">
        <ele>2180.080</ele>
        <time>2021-05-28T19:00:59Z</time>
      </trkpt>
      <trkpt lat="42.531757" lon="2.460629">
        <ele>2179.539</ele>
        <time>2021-05-28T19:01:02Z</time>
      </trkpt>
      <trkpt lat="42.531754" lon="2.460660">
        <ele>2179.146</ele>
        <time>2021-05-28T19:01:05Z</time>
      </trkpt>
      <trkpt lat="42.531769" lon="2.460682">
        <ele>2178.611</ele>
        <time>2021-05-28T19:01:08Z</time>
      </trkpt>
      <trkpt lat="42.531788" lon="2.460669">
        <ele>2178.868</ele>
        <time>2021-05-28T19:01:11Z</time>
      </trkpt>
      <trkpt lat="42.531807" lon="2.460672">
        <ele>2178.686</ele>
        <time>2021-05-28T19:01:25Z</time>
      </trkpt>
      <trkpt lat="42.531837" lon="2.460685">
        <ele>2178.274</ele>
        <time>2021-05-28T19:01:27Z</time>
      </trkpt>
      <trkpt lat="42.531867" lon="2.460690">
        <ele>2178.056</ele>
        <time>2021-05-28T19:01:29Z</time>
      </trkpt>
      <trkpt lat="42.531900" lon="2.460703">
        <ele>2177.621</ele>
        <time>2021-05-28T19:01:31Z</time>
      </trkpt>
      <trkpt lat="42.531932" lon="2.460712">
        <ele>2177.308</ele>
        <time>2021-05-28T19:01:33Z</time>
      </trkpt>
      <trkpt lat="42.531951" lon="2.460726">
        <ele>2176.824</ele>
        <time>2021-05-28T19:01:35Z</time>
      </trkpt>
      <trkpt lat="42.531970" lon="2.460743">
        <ele>2176.321</ele>
        <time>2021-05-28T19:01:37Z</time>
      </trkpt>
      <trkpt lat="42.531991" lon="2.460749">
        <ele>2175.812</ele>
        <time>2021-05-28T19:01:39Z</time>
      </trkpt>
      <trkpt lat="42.532014" lon="2.460760">
        <ele>2175.341</ele>
        <time>2021-05-28T19:01:42Z</time>
      </trkpt>
      <trkpt lat="42.532037" lon="2.460768">
        <ele>2174.898</ele>
        <time>2021-05-28T19:01:48Z</time>
      </trkpt>
      <trkpt lat="42.532059" lon="2.460789">
        <ele>2174.153</ele>
        <time>2021-05-28T19:01:51Z</time>
      </trkpt>
      <trkpt lat="42.532072" lon="2.460805">
        <ele>2173.770</ele>
        <time>2021-05-28T19:01:54Z</time>
      </trkpt>
      <trkpt lat="42.532092" lon="2.460817">
        <ele>2173.278</ele>
        <time>2021-05-28T19:01:57Z</time>
      </trkpt>
      <trkpt lat="42.532113" lon="2.460831">
        <ele>2172.667</ele>
        <time>2021-05-28T19:02:01Z</time>
      </trkpt>
      <trkpt lat="42.532130" lon="2.460843">
        <ele>2172.281</ele>
        <time>2021-05-28T19:02:03Z</time>
      </trkpt>
      <trkpt lat="42.532135" lon="2.460872">
        <ele>2171.919</ele>
        <time>2021-05-28T19:02:06Z</time>
      </trkpt>
      <trkpt lat="42.532158" lon="2.460887">
        <ele>2171.608</ele>
        <time>2021-05-28T19:02:09Z</time>
      </trkpt>
      <trkpt lat="42.532177" lon="2.460892">
        <ele>2171.383</ele>
        <time>2021-05-28T19:02:11Z</time>
      </trkpt>
      <trkpt lat="42.532203" lon="2.460881">
        <ele>2171.130</ele>
        <time>2021-05-28T19:02:14Z</time>
      </trkpt>
      <trkpt lat="42.532226" lon="2.460873">
        <ele>2170.891</ele>
        <time>2021-05-28T19:02:15Z</time>
      </trkpt>
      <trkpt lat="42.532250" lon="2.460867">
        <ele>2170.880</ele>
        <time>2021-05-28T19:02:17Z</time>
      </trkpt>
      <trkpt lat="42.532276" lon="2.460868">
        <ele>2170.767</ele>
        <time>2021-05-28T19:02:19Z</time>
      </trkpt>
      <trkpt lat="42.532298" lon="2.460881">
        <ele>2170.682</ele>
        <time>2021-05-28T19:02:22Z</time>
      </trkpt>
      <trkpt lat="42.532308" lon="2.460902">
        <ele>2170.529</ele>
        <time>2021-05-28T19:02:24Z</time>
      </trkpt>
      <trkpt lat="42.532325" lon="2.460928">
        <ele>2170.477</ele>
        <time>2021-05-28T19:02:27Z</time>
      </trkpt>
      <trkpt lat="42.532340" lon="2.460955">
        <ele>2170.397</ele>
        <time>2021-05-28T19:02:29Z</time>
      </trkpt>
      <trkpt lat="42.532368" lon="2.460980">
        <ele>2170.223</ele>
        <time>2021-05-28T19:02:31Z</time>
      </trkpt>
      <trkpt lat="42.532399" lon="2.460994">
        <ele>2170.225</ele>
        <time>2021-05-28T19:02:33Z</time>
      </trkpt>
      <trkpt lat="42.532419" lon="2.461011">
        <ele>2170.108</ele>
        <time>2021-05-28T19:02:35Z</time>
      </trkpt>
      <trkpt lat="42.532431" lon="2.461036">
        <ele>2170.136</ele>
        <time>2021-05-28T19:02:37Z</time>
      </trkpt>
      <trkpt lat="42.532441" lon="2.461066">
        <ele>2170.013</ele>
        <time>2021-05-28T19:02:40Z</time>
      </trkpt>
      <trkpt lat="42.532429" lon="2.461087">
        <ele>2170.094</ele>
        <time>2021-05-28T19:02:46Z</time>
      </trkpt>
      <trkpt lat="42.532447" lon="2.461062">
        <ele>2170.043</ele>
        <time>2021-05-28T19:03:03Z</time>
      </trkpt>
      <trkpt lat="42.532467" lon="2.461043">
        <ele>2170.020</ele>
        <time>2021-05-28T19:03:05Z</time>
      </trkpt>
      <trkpt lat="42.532483" lon="2.461033">
        <ele>2170.015</ele>
        <time>2021-05-28T19:03:07Z</time>
      </trkpt>
      <trkpt lat="42.532502" lon="2.461026">
        <ele>2170.092</ele>
        <time>2021-05-28T19:03:13Z</time>
      </trkpt>
      <trkpt lat="42.532523" lon="2.461025">
        <ele>2169.760</ele>
        <time>2021-05-28T19:03:16Z</time>
      </trkpt>
      <trkpt lat="42.532541" lon="2.461029">
        <ele>2169.533</ele>
        <time>2021-05-28T19:03:18Z</time>
      </trkpt>
      <trkpt lat="42.532566" lon="2.461037">
        <ele>2169.223</ele>
        <time>2021-05-28T19:03:21Z</time>
      </trkpt>
      <trkpt lat="42.532584" lon="2.461045">
        <ele>2168.915</ele>
        <time>2021-05-28T19:03:23Z</time>
      </trkpt>
      <trkpt lat="42.532602" lon="2.461051">
        <ele>2168.708</ele>
        <time>2021-05-28T19:03:25Z</time>
      </trkpt>
      <trkpt lat="42.532619" lon="2.461058">
        <ele>2168.440</ele>
        <time>2021-05-28T19:03:27Z</time>
      </trkpt>
      <trkpt lat="42.532635" lon="2.461072">
        <ele>2168.277</ele>
        <time>2021-05-28T19:03:29Z</time>
      </trkpt>
      <trkpt lat="42.532654" lon="2.461086">
        <ele>2167.978</ele>
        <time>2021-05-28T19:03:31Z</time>
      </trkpt>
      <trkpt lat="42.532670" lon="2.461101">
        <ele>2167.617</ele>
        <time>2021-05-28T19:03:33Z</time>
      </trkpt>
      <trkpt lat="42.532690" lon="2.461113">
        <ele>2167.314</ele>
        <time>2021-05-28T19:03:35Z</time>
      </trkpt>
      <trkpt lat="42.532704" lon="2.461140">
        <ele>2167.179</ele>
        <time>2021-05-28T19:03:38Z</time>
      </trkpt>
      <trkpt lat="42.532720" lon="2.461159">
        <ele>2166.856</ele>
        <time>2021-05-28T19:03:40Z</time>
      </trkpt>
      <trkpt lat="42.532735" lon="2.461182">
        <ele>2166.644</ele>
        <time>2021-05-28T19:03:42Z</time>
      </trkpt>
      <trkpt lat="42.532747" lon="2.461207">
        <ele>2166.455</ele>
        <time>2021-05-28T19:03:44Z</time>
      </trkpt>
      <trkpt lat="42.532757" lon="2.461237">
        <ele>2166.307</ele>
        <time>2021-05-28T19:03:46Z</time>
      </trkpt>
      <trkpt lat="42.532766" lon="2.461269">
        <ele>2166.217</ele>
        <time>2021-05-28T19:03:48Z</time>
      </trkpt>
      <trkpt lat="42.532770" lon="2.461305">
        <ele>2166.108</ele>
        <time>2021-05-28T19:03:51Z</time>
      </trkpt>
      <trkpt lat="42.532779" lon="2.461336">
        <ele>2166.052</ele>
        <time>2021-05-28T19:03:53Z</time>
      </trkpt>
      <trkpt lat="42.532795" lon="2.461367">
        <ele>2165.769</ele>
        <time>2021-05-28T19:03:55Z</time>
      </trkpt>
      <trkpt lat="42.532813" lon="2.461380">
        <ele>2165.450</ele>
        <time>2021-05-28T19:03:57Z</time>
      </trkpt>
      <trkpt lat="42.532832" lon="2.461393">
        <ele>2165.049</ele>
        <time>2021-05-28T19:03:59Z</time>
      </trkpt>
      <trkpt lat="42.532844" lon="2.461413">
        <ele>2164.746</ele>
        <time>2021-05-28T19:04:01Z</time>
      </trkpt>
      <trkpt lat="42.532849" lon="2.461440">
        <ele>2164.611</ele>
        <time>2021-05-28T19:04:03Z</time>
      </trkpt>
      <trkpt lat="42.532856" lon="2.461468">
        <ele>2164.468</ele>
        <time>2021-05-28T19:04:05Z</time>
      </trkpt>
      <trkpt lat="42.532861" lon="2.461496">
        <ele>2164.246</ele>
        <time>2021-05-28T19:04:07Z</time>
      </trkpt>
      <trkpt lat="42.532865" lon="2.461525">
        <ele>2164.152</ele>
        <time>2021-05-28T19:04:09Z</time>
      </trkpt>
      <trkpt lat="42.532870" lon="2.461549">
        <ele>2164.053</ele>
        <time>2021-05-28T19:04:11Z</time>
      </trkpt>
      <trkpt lat="42.532876" lon="2.461574">
        <ele>2163.808</ele>
        <time>2021-05-28T19:04:13Z</time>
      </trkpt>
      <trkpt lat="42.532869" lon="2.461597">
        <ele>2163.908</ele>
        <time>2021-05-28T19:04:30Z</time>
      </trkpt>
      <trkpt lat="42.532862" lon="2.461628">
        <ele>2163.962</ele>
        <time>2021-05-28T19:04:48Z</time>
      </trkpt>
      <trkpt lat="42.532861" lon="2.461655">
        <ele>2163.889</ele>
        <time>2021-05-28T19:04:51Z</time>
      </trkpt>
      <trkpt lat="42.532858" lon="2.461683">
        <ele>2163.840</ele>
        <time>2021-05-28T19:04:57Z</time>
      </trkpt>
      <trkpt lat="42.532858" lon="2.461708">
        <ele>2163.729</ele>
        <time>2021-05-28T19:05:00Z</time>
      </trkpt>
      <trkpt lat="42.532855" lon="2.461739">
        <ele>2163.626</ele>
        <time>2021-05-28T19:05:03Z</time>
      </trkpt>
      <trkpt lat="42.532852" lon="2.461774">
        <ele>2163.551</ele>
        <time>2021-05-28T19:05:06Z</time>
      </trkpt>
      <trkpt lat="42.532855" lon="2.461807">
        <ele>2163.498</ele>
        <time>2021-05-28T19:05:08Z</time>
      </trkpt>
      <trkpt lat="42.532856" lon="2.461847">
        <ele>2163.226</ele>
        <time>2021-05-28T19:05:11Z</time>
      </trkpt>
      <trkpt lat="42.532857" lon="2.461891">
        <ele>2163.175</ele>
        <time>2021-05-28T19:05:12Z</time>
      </trkpt>
      <trkpt lat="42.532860" lon="2.461928">
        <ele>2162.928</ele>
        <time>2021-05-28T19:05:14Z</time>
      </trkpt>
      <trkpt lat="42.532869" lon="2.461958">
        <ele>2162.820</ele>
        <time>2021-05-28T19:05:16Z</time>
      </trkpt>
      <trkpt lat="42.532872" lon="2.461985">
        <ele>2163.108</ele>
        <time>2021-05-28T19:05:18Z</time>
      </trkpt>
      <trkpt lat="42.532875" lon="2.462020">
        <ele>2163.484</ele>
        <time>2021-05-28T19:05:21Z</time>
      </trkpt>
      <trkpt lat="42.532876" lon="2.462047">
        <ele>2163.781</ele>
        <time>2021-05-28T19:05:23Z</time>
      </trkpt>
      <trkpt lat="42.532884" lon="2.462076">
        <ele>2163.972</ele>
        <time>2021-05-28T19:05:25Z</time>
      </trkpt>
      <trkpt lat="42.532886" lon="2.462109">
        <ele>2164.261</ele>
        <time>2021-05-28T19:05:27Z</time>
      </trkpt>
      <trkpt lat="42.532896" lon="2.462136">
        <ele>2164.478</ele>
        <time>2021-05-28T19:05:29Z</time>
      </trkpt>
      <trkpt lat="42.532911" lon="2.462157">
        <ele>2164.493</ele>
        <time>2021-05-28T19:05:31Z</time>
      </trkpt>
      <trkpt lat="42.532929" lon="2.462174">
        <ele>2164.360</ele>
        <time>2021-05-28T19:05:33Z</time>
      </trkpt>
      <trkpt lat="42.532951" lon="2.462191">
        <ele>2164.228</ele>
        <time>2021-05-28T19:05:35Z</time>
      </trkpt>
      <trkpt lat="42.532970" lon="2.462195">
        <ele>2163.913</ele>
        <time>2021-05-28T19:05:37Z</time>
      </trkpt>
      <trkpt lat="42.532993" lon="2.462192">
        <ele>2163.643</ele>
        <time>2021-05-28T19:05:39Z</time>
      </trkpt>
      <trkpt lat="42.533016" lon="2.462197">
        <ele>2163.307</ele>
        <time>2021-05-28T19:05:42Z</time>
      </trkpt>
      <trkpt lat="42.533032" lon="2.462184">
        <ele>2162.908</ele>
        <time>2021-05-28T19:05:46Z</time>
      </trkpt>
      <trkpt lat="42.533055" lon="2.462196">
        <ele>2162.798</ele>
        <time>2021-05-28T19:05:48Z</time>
      </trkpt>
      <trkpt lat="42.533065" lon="2.462217">
        <ele>2162.655</ele>
        <time>2021-05-28T19:05:49Z</time>
      </trkpt>
      <trkpt lat="42.533077" lon="2.462238">
        <ele>2162.426</ele>
        <time>2021-05-28T19:05:50Z</time>
      </trkpt>
      <trkpt lat="42.533098" lon="2.462270">
        <ele>2162.095</ele>
        <time>2021-05-28T19:05:52Z</time>
      </trkpt>
      <trkpt lat="42.533119" lon="2.462291">
        <ele>2161.652</ele>
        <time>2021-05-28T19:05:54Z</time>
      </trkpt>
      <trkpt lat="42.533145" lon="2.462309">
        <ele>2160.997</ele>
        <time>2021-05-28T19:05:56Z</time>
      </trkpt>
      <trkpt lat="42.533175" lon="2.462331">
        <ele>2160.284</ele>
        <time>2021-05-28T19:05:58Z</time>
      </trkpt>
      <trkpt lat="42.533192" lon="2.462360">
        <ele>2160.182</ele>
        <time>2021-05-28T19:06:00Z</time>
      </trkpt>
      <trkpt lat="42.533191" lon="2.462388">
        <ele>2160.437</ele>
        <time>2021-05-28T19:06:03Z</time>
      </trkpt>
      <trkpt lat="42.533199" lon="2.462415">
        <ele>2160.549</ele>
        <time>2021-05-28T19:06:05Z</time>
      </trkpt>
      <trkpt lat="42.533208" lon="2.462437">
        <ele>2160.513</ele>
        <time>2021-05-28T19:06:07Z</time>
      </trkpt>
      <trkpt lat="42.533210" lon="2.462465">
        <ele>2160.708</ele>
        <time>2021-05-28T19:06:09Z</time>
      </trkpt>
      <trkpt lat="42.533227" lon="2.462515">
        <ele>2160.530</ele>
        <time>2021-05-28T19:06:12Z</time>
      </trkpt>
      <trkpt lat="42.533237" lon="2.462558">
        <ele>2159.757</ele>
        <time>2021-05-28T19:06:13Z</time>
      </trkpt>
      <trkpt lat="42.533243" lon="2.462600">
        <ele>2159.188</ele>
        <time>2021-05-28T19:06:15Z</time>
      </trkpt>
      <trkpt lat="42.533238" lon="2.462651">
        <ele>2158.657</ele>
        <time>2021-05-28T19:06:17Z</time>
      </trkpt>
      <trkpt lat="42.533242" lon="2.462680">
        <ele>2158.124</ele>
        <time>2021-05-28T19:06:18Z</time>
      </trkpt>
      <trkpt lat="42.533250" lon="2.462706">
        <ele>2157.779</ele>
        <time>2021-05-28T19:06:19Z</time>
      </trkpt>
      <trkpt lat="42.533241" lon="2.462764">
        <ele>2157.296</ele>
        <time>2021-05-28T19:06:22Z</time>
      </trkpt>
      <trkpt lat="42.533241" lon="2.462804">
        <ele>2156.424</ele>
        <time>2021-05-28T19:06:24Z</time>
      </trkpt>
      <trkpt lat="42.533248" lon="2.462831">
        <ele>2155.715</ele>
        <time>2021-05-28T19:06:26Z</time>
      </trkpt>
      <trkpt lat="42.533247" lon="2.462856">
        <ele>2155.265</ele>
        <time>2021-05-28T19:06:28Z</time>
      </trkpt>
      <trkpt lat="42.533250" lon="2.462888">
        <ele>2154.511</ele>
        <time>2021-05-28T19:06:30Z</time>
      </trkpt>
      <trkpt lat="42.533230" lon="2.462916">
        <ele>2154.208</ele>
        <time>2021-05-28T19:06:32Z</time>
      </trkpt>
      <trkpt lat="42.533218" lon="2.462938">
        <ele>2153.958</ele>
        <time>2021-05-28T19:06:34Z</time>
      </trkpt>
      <trkpt lat="42.533204" lon="2.462959">
        <ele>2153.675</ele>
        <time>2021-05-28T19:06:36Z</time>
      </trkpt>
      <trkpt lat="42.533198" lon="2.462990">
        <ele>2153.066</ele>
        <time>2021-05-28T19:06:38Z</time>
      </trkpt>
      <trkpt lat="42.533186" lon="2.463018">
        <ele>2152.595</ele>
        <time>2021-05-28T19:06:40Z</time>
      </trkpt>
      <trkpt lat="42.533158" lon="2.463026">
        <ele>2152.612</ele>
        <time>2021-05-28T19:06:43Z</time>
      </trkpt>
      <trkpt lat="42.533137" lon="2.463046">
        <ele>2152.487</ele>
        <time>2021-05-28T19:06:45Z</time>
      </trkpt>
      <trkpt lat="42.533115" lon="2.463062">
        <ele>2152.374</ele>
        <time>2021-05-28T19:06:48Z</time>
      </trkpt>
      <trkpt lat="42.533092" lon="2.463077">
        <ele>2152.322</ele>
        <time>2021-05-28T19:06:50Z</time>
      </trkpt>
      <trkpt lat="42.533073" lon="2.463092">
        <ele>2152.347</ele>
        <time>2021-05-28T19:06:52Z</time>
      </trkpt>
      <trkpt lat="42.533056" lon="2.463104">
        <ele>2152.329</ele>
        <time>2021-05-28T19:06:54Z</time>
      </trkpt>
      <trkpt lat="42.533034" lon="2.463122">
        <ele>2152.521</ele>
        <time>2021-05-28T19:06:56Z</time>
      </trkpt>
      <trkpt lat="42.533009" lon="2.463136">
        <ele>2152.808</ele>
        <time>2021-05-28T19:06:58Z</time>
      </trkpt>
      <trkpt lat="42.532993" lon="2.463158">
        <ele>2152.871</ele>
        <time>2021-05-28T19:07:00Z</time>
      </trkpt>
      <trkpt lat="42.532979" lon="2.463175">
        <ele>2152.818</ele>
        <time>2021-05-28T19:07:02Z</time>
      </trkpt>
      <trkpt lat="42.532960" lon="2.463188">
        <ele>2153.069</ele>
        <time>2021-05-28T19:07:05Z</time>
      </trkpt>
      <trkpt lat="42.532949" lon="2.463210">
        <ele>2152.958</ele>
        <time>2021-05-28T19:07:08Z</time>
      </trkpt>
      <trkpt lat="42.532930" lon="2.463231">
        <ele>2152.975</ele>
        <time>2021-05-28T19:07:10Z</time>
      </trkpt>
      <trkpt lat="42.532927" lon="2.463272">
        <ele>2152.320</ele>
        <time>2021-05-28T19:07:12Z</time>
      </trkpt>
      <trkpt lat="42.532930" lon="2.463298">
        <ele>2151.897</ele>
        <time>2021-05-28T19:07:13Z</time>
      </trkpt>
      <trkpt lat="42.532925" lon="2.463331">
        <ele>2151.415</ele>
        <time>2021-05-28T19:07:15Z</time>
      </trkpt>
      <trkpt lat="42.532922" lon="2.463367">
        <ele>2151.236</ele>
        <time>2021-05-28T19:07:17Z</time>
      </trkpt>
      <trkpt lat="42.532918" lon="2.463406">
        <ele>2151.017</ele>
        <time>2021-05-28T19:07:19Z</time>
      </trkpt>
      <trkpt lat="42.532920" lon="2.463454">
        <ele>2150.618</ele>
        <time>2021-05-28T19:07:21Z</time>
      </trkpt>
      <trkpt lat="42.532922" lon="2.463495">
        <ele>2150.308</ele>
        <time>2021-05-28T19:07:23Z</time>
      </trkpt>
      <trkpt lat="42.532927" lon="2.463534">
        <ele>2150.010</ele>
        <time>2021-05-28T19:07:25Z</time>
      </trkpt>
      <trkpt lat="42.532921" lon="2.463568">
        <ele>2149.897</ele>
        <time>2021-05-28T19:07:27Z</time>
      </trkpt>
      <trkpt lat="42.532911" lon="2.463599">
        <ele>2149.668</ele>
        <time>2021-05-28T19:07:29Z</time>
      </trkpt>
      <trkpt lat="42.532899" lon="2.463623">
        <ele>2149.587</ele>
        <time>2021-05-28T19:07:31Z</time>
      </trkpt>
      <trkpt lat="42.532881" lon="2.463653">
        <ele>2149.584</ele>
        <time>2021-05-28T19:07:33Z</time>
      </trkpt>
      <trkpt lat="42.532877" lon="2.463698">
        <ele>2149.429</ele>
        <time>2021-05-28T19:07:35Z</time>
      </trkpt>
      <trkpt lat="42.532885" lon="2.463768">
        <ele>2149.366</ele>
        <time>2021-05-28T19:07:38Z</time>
      </trkpt>
      <trkpt lat="42.532901" lon="2.463805">
        <ele>2149.294</ele>
        <time>2021-05-28T19:07:40Z</time>
      </trkpt>
      <trkpt lat="42.532923" lon="2.463827">
        <ele>2149.163</ele>
        <time>2021-05-28T19:07:42Z</time>
      </trkpt>
      <trkpt lat="42.532952" lon="2.463839">
        <ele>2149.144</ele>
        <time>2021-05-28T19:07:44Z</time>
      </trkpt>
      <trkpt lat="42.532977" lon="2.463864">
        <ele>2149.018</ele>
        <time>2021-05-28T19:07:46Z</time>
      </trkpt>
      <trkpt lat="42.532988" lon="2.463892">
        <ele>2149.008</ele>
        <time>2021-05-28T19:07:48Z</time>
      </trkpt>
      <trkpt lat="42.533004" lon="2.463915">
        <ele>2149.053</ele>
        <time>2021-05-28T19:07:50Z</time>
      </trkpt>
      <trkpt lat="42.533018" lon="2.463940">
        <ele>2149.050</ele>
        <time>2021-05-28T19:07:53Z</time>
      </trkpt>
      <trkpt lat="42.533035" lon="2.463962">
        <ele>2149.051</ele>
        <time>2021-05-28T19:07:57Z</time>
      </trkpt>
      <trkpt lat="42.533054" lon="2.463980">
        <ele>2149.050</ele>
        <time>2021-05-28T19:08:00Z</time>
      </trkpt>
      <trkpt lat="42.533068" lon="2.463997">
        <ele>2149.027</ele>
        <time>2021-05-28T19:08:04Z</time>
      </trkpt>
      <trkpt lat="42.533067" lon="2.464027">
        <ele>2149.072</ele>
        <time>2021-05-28T19:08:25Z</time>
      </trkpt>
      <trkpt lat="42.533065" lon="2.464055">
        <ele>2149.019</ele>
        <time>2021-05-28T19:08:28Z</time>
      </trkpt>
      <trkpt lat="42.533069" lon="2.464079">
        <ele>2149.067</ele>
        <time>2021-05-28T19:08:30Z</time>
      </trkpt>
      <trkpt lat="42.533092" lon="2.464099">
        <ele>2149.017</ele>
        <time>2021-05-28T19:08:32Z</time>
      </trkpt>
      <trkpt lat="42.533118" lon="2.464107">
        <ele>2149.087</ele>
        <time>2021-05-28T19:08:35Z</time>
      </trkpt>
      <trkpt lat="42.533145" lon="2.464121">
        <ele>2149.015</ele>
        <time>2021-05-28T19:08:36Z</time>
      </trkpt>
      <trkpt lat="42.533175" lon="2.464132">
        <ele>2149.008</ele>
        <time>2021-05-28T19:08:38Z</time>
      </trkpt>
      <trkpt lat="42.533208" lon="2.464138">
        <ele>2149.028</ele>
        <time>2021-05-28T19:08:40Z</time>
      </trkpt>
      <trkpt lat="42.533238" lon="2.464142">
        <ele>2149.015</ele>
        <time>2021-05-28T19:08:42Z</time>
      </trkpt>
      <trkpt lat="42.533263" lon="2.464140">
        <ele>2149.046</ele>
        <time>2021-05-28T19:08:44Z</time>
      </trkpt>
      <trkpt lat="42.533291" lon="2.464137">
        <ele>2149.095</ele>
        <time>2021-05-28T19:08:46Z</time>
      </trkpt>
      <trkpt lat="42.533317" lon="2.464145">
        <ele>2149.062</ele>
        <time>2021-05-28T19:08:48Z</time>
      </trkpt>
      <trkpt lat="42.533346" lon="2.464163">
        <ele>2148.967</ele>
        <time>2021-05-28T19:08:50Z</time>
      </trkpt>
      <trkpt lat="42.533368" lon="2.464175">
        <ele>2148.864</ele>
        <time>2021-05-28T19:08:52Z</time>
      </trkpt>
      <trkpt lat="42.533390" lon="2.464193">
        <ele>2148.752</ele>
        <time>2021-05-28T19:08:54Z</time>
      </trkpt>
      <trkpt lat="42.533407" lon="2.464222">
        <ele>2148.735</ele>
        <time>2021-05-28T19:08:56Z</time>
      </trkpt>
      <trkpt lat="42.533420" lon="2.464260">
        <ele>2148.786</ele>
        <time>2021-05-28T19:08:58Z</time>
      </trkpt>
      <trkpt lat="42.533434" lon="2.464293">
        <ele>2148.714</ele>
        <time>2021-05-28T19:09:00Z</time>
      </trkpt>
      <trkpt lat="42.533452" lon="2.464331">
        <ele>2148.708</ele>
        <time>2021-05-28T19:09:02Z</time>
      </trkpt>
      <trkpt lat="42.533462" lon="2.464353">
        <ele>2148.760</ele>
        <time>2021-05-28T19:09:03Z</time>
      </trkpt>
      <trkpt lat="42.533480" lon="2.464378">
        <ele>2148.737</ele>
        <time>2021-05-28T19:09:05Z</time>
      </trkpt>
      <trkpt lat="42.533498" lon="2.464402">
        <ele>2148.748</ele>
        <time>2021-05-28T19:09:07Z</time>
      </trkpt>
      <trkpt lat="42.533521" lon="2.464428">
        <ele>2148.637</ele>
        <time>2021-05-28T19:09:09Z</time>
      </trkpt>
      <trkpt lat="42.533551" lon="2.464444">
        <ele>2148.494</ele>
        <time>2021-05-28T19:09:11Z</time>
      </trkpt>
      <trkpt lat="42.533581" lon="2.464470">
        <ele>2148.399</ele>
        <time>2021-05-28T19:09:13Z</time>
      </trkpt>
      <trkpt lat="42.533596" lon="2.464484">
        <ele>2148.356</ele>
        <time>2021-05-28T19:09:14Z</time>
      </trkpt>
      <trkpt lat="42.533615" lon="2.464494">
        <ele>2148.214</ele>
        <time>2021-05-28T19:09:15Z</time>
      </trkpt>
      <trkpt lat="42.533631" lon="2.464507">
        <ele>2148.247</ele>
        <time>2021-05-28T19:09:16Z</time>
      </trkpt>
      <trkpt lat="42.533656" lon="2.464523">
        <ele>2148.229</ele>
        <time>2021-05-28T19:09:18Z</time>
      </trkpt>
      <trkpt lat="42.533684" lon="2.464542">
        <ele>2148.221</ele>
        <time>2021-05-28T19:09:20Z</time>
      </trkpt>
      <trkpt lat="42.533715" lon="2.464564">
        <ele>2148.208</ele>
        <time>2021-05-28T19:09:22Z</time>
      </trkpt>
      <trkpt lat="42.533745" lon="2.464584">
        <ele>2148.341</ele>
        <time>2021-05-28T19:09:24Z</time>
      </trkpt>
      <trkpt lat="42.533774" lon="2.464599">
        <ele>2148.318</ele>
        <time>2021-05-28T19:09:26Z</time>
      </trkpt>
      <trkpt lat="42.533806" lon="2.464603">
        <ele>2148.359</ele>
        <time>2021-05-28T19:09:28Z</time>
      </trkpt>
      <trkpt lat="42.533834" lon="2.464610">
        <ele>2148.368</ele>
        <time>2021-05-28T19:09:30Z</time>
      </trkpt>
      <trkpt lat="42.533862" lon="2.464627">
        <ele>2148.355</ele>
        <time>2021-05-28T19:09:32Z</time>
      </trkpt>
      <trkpt lat="42.533887" lon="2.464649">
        <ele>2148.520</ele>
        <time>2021-05-28T19:09:34Z</time>
      </trkpt>
      <trkpt lat="42.533917" lon="2.464674">
        <ele>2148.657</ele>
        <time>2021-05-28T19:09:36Z</time>
      </trkpt>
      <trkpt lat="42.533943" lon="2.464693">
        <ele>2148.665</ele>
        <time>2021-05-28T19:09:38Z</time>
      </trkpt>
      <trkpt lat="42.533966" lon="2.464694">
        <ele>2148.514</ele>
        <time>2021-05-28T19:09:40Z</time>
      </trkpt>
      <trkpt lat="42.533981" lon="2.464728">
        <ele>2148.754</ele>
        <time>2021-05-28T19:09:43Z</time>
      </trkpt>
      <trkpt lat="42.534003" lon="2.464751">
        <ele>2148.709</ele>
        <time>2021-05-28T19:09:45Z</time>
      </trkpt>
      <trkpt lat="42.534026" lon="2.464777">
        <ele>2148.608</ele>
        <time>2021-05-28T19:09:47Z</time>
      </trkpt>
      <trkpt lat="42.534045" lon="2.464797">
        <ele>2148.648</ele>
        <time>2021-05-28T19:09:49Z</time>
      </trkpt>
      <trkpt lat="42.534060" lon="2.464826">
        <ele>2148.525</ele>
        <time>2021-05-28T19:09:51Z</time>
      </trkpt>
      <trkpt lat="42.534073" lon="2.464852">
        <ele>2148.576</ele>
        <time>2021-05-28T19:09:53Z</time>
      </trkpt>
      <trkpt lat="42.534090" lon="2.464881">
        <ele>2148.495</ele>
        <time>2021-05-28T19:09:55Z</time>
      </trkpt>
      <trkpt lat="42.534110" lon="2.464904">
        <ele>2148.352</ele>
        <time>2021-05-28T19:09:57Z</time>
      </trkpt>
      <trkpt lat="42.534134" lon="2.464925">
        <ele>2148.287</ele>
        <time>2021-05-28T19:09:59Z</time>
      </trkpt>
      <trkpt lat="42.534157" lon="2.464944">
        <ele>2148.134</ele>
        <time>2021-05-28T19:10:01Z</time>
      </trkpt>
      <trkpt lat="42.534176" lon="2.464954">
        <ele>2147.962</ele>
        <time>2021-05-28T19:10:03Z</time>
      </trkpt>
      <trkpt lat="42.534192" lon="2.464969">
        <ele>2147.824</ele>
        <time>2021-05-28T19:10:07Z</time>
      </trkpt>
      <trkpt lat="42.534184" lon="2.464993">
        <ele>2147.904</ele>
        <time>2021-05-28T19:10:10Z</time>
      </trkpt>
      <trkpt lat="42.534186" lon="2.465021">
        <ele>2147.614</ele>
        <time>2021-05-28T19:10:12Z</time>
      </trkpt>
      <trkpt lat="42.534186" lon="2.465047">
        <ele>2147.408</ele>
        <time>2021-05-28T19:10:14Z</time>
      </trkpt>
      <trkpt lat="42.534177" lon="2.465072">
        <ele>2147.139</ele>
        <time>2021-05-28T19:10:16Z</time>
      </trkpt>
      <trkpt lat="42.534178" lon="2.465114">
        <ele>2146.766</ele>
        <time>2021-05-28T19:10:18Z</time>
      </trkpt>
      <trkpt lat="42.534189" lon="2.465144">
        <ele>2146.347</ele>
        <time>2021-05-28T19:10:20Z</time>
      </trkpt>
      <trkpt lat="42.534197" lon="2.465166">
        <ele>2146.046</ele>
        <time>2021-05-28T19:10:21Z</time>
      </trkpt>
      <trkpt lat="42.534209" lon="2.465190">
        <ele>2145.663</ele>
        <time>2021-05-28T19:10:22Z</time>
      </trkpt>
      <trkpt lat="42.534225" lon="2.465223">
        <ele>2145.258</ele>
        <time>2021-05-28T19:10:24Z</time>
      </trkpt>
      <trkpt lat="42.534236" lon="2.465252">
        <ele>2144.845</ele>
        <time>2021-05-28T19:10:26Z</time>
      </trkpt>
      <trkpt lat="42.534251" lon="2.465279">
        <ele>2144.493</ele>
        <time>2021-05-28T19:10:29Z</time>
      </trkpt>
      <trkpt lat="42.534266" lon="2.465296">
        <ele>2144.094</ele>
        <time>2021-05-28T19:10:31Z</time>
      </trkpt>
      <trkpt lat="42.534284" lon="2.465309">
        <ele>2143.657</ele>
        <time>2021-05-28T19:10:33Z</time>
      </trkpt>
      <trkpt lat="42.534297" lon="2.465330">
        <ele>2143.222</ele>
        <time>2021-05-28T19:10:35Z</time>
      </trkpt>
      <trkpt lat="42.534312" lon="2.465347">
        <ele>2142.808</ele>
        <time>2021-05-28T19:10:37Z</time>
      </trkpt>
      <trkpt lat="42.534333" lon="2.465370">
        <ele>2142.346</ele>
        <time>2021-05-28T19:10:40Z</time>
      </trkpt>
      <trkpt lat="42.534347" lon="2.465395">
        <ele>2141.963</ele>
        <time>2021-05-28T19:10:42Z</time>
      </trkpt>
      <trkpt lat="42.534370" lon="2.465405">
        <ele>2141.654</ele>
        <time>2021-05-28T19:10:44Z</time>
      </trkpt>
      <trkpt lat="42.534389" lon="2.465412">
        <ele>2141.423</ele>
        <time>2021-05-28T19:10:46Z</time>
      </trkpt>
      <trkpt lat="42.534408" lon="2.465422">
        <ele>2141.170</ele>
        <time>2021-05-28T19:10:48Z</time>
      </trkpt>
      <trkpt lat="42.534423" lon="2.465437">
        <ele>2140.895</ele>
        <time>2021-05-28T19:10:50Z</time>
      </trkpt>
      <trkpt lat="42.534442" lon="2.465463">
        <ele>2140.382</ele>
        <time>2021-05-28T19:10:53Z</time>
      </trkpt>
      <trkpt lat="42.534463" lon="2.465473">
        <ele>2140.130</ele>
        <time>2021-05-28T19:10:56Z</time>
      </trkpt>
      <trkpt lat="42.534480" lon="2.465494">
        <ele>2139.823</ele>
        <time>2021-05-28T19:11:00Z</time>
      </trkpt>
      <trkpt lat="42.534492" lon="2.465516">
        <ele>2139.483</ele>
        <time>2021-05-28T19:11:04Z</time>
      </trkpt>
      <trkpt lat="42.534507" lon="2.465539">
        <ele>2139.011</ele>
        <time>2021-05-28T19:11:07Z</time>
      </trkpt>
      <trkpt lat="42.534523" lon="2.465561">
        <ele>2138.508</ele>
        <time>2021-05-28T19:11:09Z</time>
      </trkpt>
      <trkpt lat="42.534536" lon="2.465578">
        <ele>2137.819</ele>
        <time>2021-05-28T19:11:10Z</time>
      </trkpt>
      <trkpt lat="42.534551" lon="2.465600">
        <ele>2136.886</ele>
        <time>2021-05-28T19:11:12Z</time>
      </trkpt>
      <trkpt lat="42.534578" lon="2.465608">
        <ele>2136.417</ele>
        <time>2021-05-28T19:11:15Z</time>
      </trkpt>
      <trkpt lat="42.534598" lon="2.465628">
        <ele>2135.486</ele>
        <time>2021-05-28T19:11:17Z</time>
      </trkpt>
      <trkpt lat="42.534612" lon="2.465647">
        <ele>2134.613</ele>
        <time>2021-05-28T19:11:19Z</time>
      </trkpt>
      <trkpt lat="42.534625" lon="2.465674">
        <ele>2133.438</ele>
        <time>2021-05-28T19:11:23Z</time>
      </trkpt>
      <trkpt lat="42.534650" lon="2.465711">
        <ele>2131.755</ele>
        <time>2021-05-28T19:11:26Z</time>
      </trkpt>
      <trkpt lat="42.534662" lon="2.465739">
        <ele>2130.413</ele>
        <time>2021-05-28T19:11:28Z</time>
      </trkpt>
      <trkpt lat="42.534680" lon="2.465761">
        <ele>2129.482</ele>
        <time>2021-05-28T19:11:30Z</time>
      </trkpt>
      <trkpt lat="42.534708" lon="2.465783">
        <ele>2128.343</ele>
        <time>2021-05-28T19:11:32Z</time>
      </trkpt>
      <trkpt lat="42.534730" lon="2.465790">
        <ele>2127.817</ele>
        <time>2021-05-28T19:11:33Z</time>
      </trkpt>
      <trkpt lat="42.534749" lon="2.465795">
        <ele>2127.408</ele>
        <time>2021-05-28T19:11:34Z</time>
      </trkpt>
      <trkpt lat="42.534780" lon="2.465799">
        <ele>2126.985</ele>
        <time>2021-05-28T19:11:36Z</time>
      </trkpt>
      <trkpt lat="42.534807" lon="2.465803">
        <ele>2126.472</ele>
        <time>2021-05-28T19:11:38Z</time>
      </trkpt>
      <trkpt lat="42.534835" lon="2.465807">
        <ele>2126.073</ele>
        <time>2021-05-28T19:11:40Z</time>
      </trkpt>
      <trkpt lat="42.534859" lon="2.465807">
        <ele>2125.752</ele>
        <time>2021-05-28T19:11:42Z</time>
      </trkpt>
      <trkpt lat="42.534880" lon="2.465815">
        <ele>2125.169</ele>
        <time>2021-05-28T19:11:44Z</time>
      </trkpt>
      <trkpt lat="42.534903" lon="2.465817">
        <ele>2124.824</ele>
        <time>2021-05-28T19:11:46Z</time>
      </trkpt>
      <trkpt lat="42.534931" lon="2.465832">
        <ele>2123.821</ele>
        <time>2021-05-28T19:11:48Z</time>
      </trkpt>
      <trkpt lat="42.534958" lon="2.465835">
        <ele>2123.459</ele>
        <time>2021-05-28T19:11:50Z</time>
      </trkpt>
      <trkpt lat="42.534984" lon="2.465835">
        <ele>2123.145</ele>
        <time>2021-05-28T19:11:52Z</time>
      </trkpt>
      <trkpt lat="42.535002" lon="2.465845">
        <ele>2122.547</ele>
        <time>2021-05-28T19:11:54Z</time>
      </trkpt>
      <trkpt lat="42.535020" lon="2.465846">
        <ele>2122.211</ele>
        <time>2021-05-28T19:11:56Z</time>
      </trkpt>
      <trkpt lat="42.535046" lon="2.465834">
        <ele>2122.508</ele>
        <time>2021-05-28T19:11:58Z</time>
      </trkpt>
      <trkpt lat="42.535144" lon="2.465792">
        <ele>2123.521</ele>
        <time>2021-05-28T19:12:06Z</time>
      </trkpt>
      <trkpt lat="42.535140" lon="2.465818">
        <ele>2122.388</ele>
        <time>2021-05-28T19:12:09Z</time>
      </trkpt>
      <trkpt lat="42.535159" lon="2.465841">
        <ele>2121.069</ele>
        <time>2021-05-28T19:12:13Z</time>
      </trkpt>
      <trkpt lat="42.535185" lon="2.465844">
        <ele>2120.598</ele>
        <time>2021-05-28T19:12:15Z</time>
      </trkpt>
      <trkpt lat="42.535213" lon="2.465839">
        <ele>2120.555</ele>
        <time>2021-05-28T19:12:17Z</time>
      </trkpt>
      <trkpt lat="42.535236" lon="2.465839">
        <ele>2120.210</ele>
        <time>2021-05-28T19:12:20Z</time>
      </trkpt>
      <trkpt lat="42.535257" lon="2.465842">
        <ele>2119.867</ele>
        <time>2021-05-28T19:12:23Z</time>
      </trkpt>
      <trkpt lat="42.535276" lon="2.465851">
        <ele>2119.375</ele>
        <time>2021-05-28T19:12:26Z</time>
      </trkpt>
      <trkpt lat="42.535255" lon="2.465867">
        <ele>2118.821</ele>
        <time>2021-05-28T19:12:30Z</time>
      </trkpt>
      <trkpt lat="42.535208" lon="2.465891">
        <ele>2118.341</ele>
        <time>2021-05-28T19:12:33Z</time>
      </trkpt>
      <trkpt lat="42.535180" lon="2.465896">
        <ele>2118.305</ele>
        <time>2021-05-28T19:12:35Z</time>
      </trkpt>
      <trkpt lat="42.535158" lon="2.465897">
        <ele>2118.508</ele>
        <time>2021-05-28T19:12:37Z</time>
      </trkpt>
      <trkpt lat="42.535131" lon="2.465911">
        <ele>2118.289</ele>
        <time>2021-05-28T19:12:39Z</time>
      </trkpt>
      <trkpt lat="42.535113" lon="2.465938">
        <ele>2117.376</ele>
        <time>2021-05-28T19:12:41Z</time>
      </trkpt>
      <trkpt lat="42.535103" lon="2.465966">
        <ele>2116.227</ele>
        <time>2021-05-28T19:12:43Z</time>
      </trkpt>
      <trkpt lat="42.535115" lon="2.465993">
        <ele>2114.956</ele>
        <time>2021-05-28T19:12:45Z</time>
      </trkpt>
      <trkpt lat="42.535128" lon="2.466012">
        <ele>2113.923</ele>
        <time>2021-05-28T19:12:47Z</time>
      </trkpt>
      <trkpt lat="42.535149" lon="2.466033">
        <ele>2112.868</ele>
        <time>2021-05-28T19:12:50Z</time>
      </trkpt>
      <trkpt lat="42.535191" lon="2.466046">
        <ele>2111.825</ele>
        <time>2021-05-28T19:12:53Z</time>
      </trkpt>
      <trkpt lat="42.535208" lon="2.466057">
        <ele>2111.133</ele>
        <time>2021-05-28T19:12:54Z</time>
      </trkpt>
      <trkpt lat="42.535294" lon="2.466098">
        <ele>2108.623</ele>
        <time>2021-05-28T19:13:02Z</time>
      </trkpt>
      <trkpt lat="42.535389" lon="2.466146">
        <ele>2106.583</ele>
        <time>2021-05-28T19:13:10Z</time>
      </trkpt>
      <trkpt lat="42.535379" lon="2.466201">
        <ele>2103.611</ele>
        <time>2021-05-28T19:13:29Z</time>
      </trkpt>
      <trkpt lat="42.535359" lon="2.466204">
        <ele>2103.408</ele>
        <time>2021-05-28T19:13:31Z</time>
      </trkpt>
      <trkpt lat="42.535335" lon="2.466198">
        <ele>2103.759</ele>
        <time>2021-05-28T19:13:34Z</time>
      </trkpt>
      <trkpt lat="42.535326" lon="2.466229">
        <ele>2102.116</ele>
        <time>2021-05-28T19:13:37Z</time>
      </trkpt>
      <trkpt lat="42.535344" lon="2.466260">
        <ele>2100.547</ele>
        <time>2021-05-28T19:13:39Z</time>
      </trkpt>
      <trkpt lat="42.535442" lon="2.466319">
        <ele>2097.286</ele>
        <time>2021-05-28T19:13:47Z</time>
      </trkpt>
      <trkpt lat="42.535527" lon="2.466373">
        <ele>2094.093</ele>
        <time>2021-05-28T19:13:57Z</time>
      </trkpt>
      <trkpt lat="42.535606" lon="2.466447">
        <ele>2091.338</ele>
        <time>2021-05-28T19:14:06Z</time>
      </trkpt>
      <trkpt lat="42.535697" lon="2.466484">
        <ele>2091.165</ele>
        <time>2021-05-28T19:14:13Z</time>
      </trkpt>
      <trkpt lat="42.535770" lon="2.466557">
        <ele>2088.733</ele>
        <time>2021-05-28T19:14:22Z</time>
      </trkpt>
      <trkpt lat="42.535855" lon="2.466612">
        <ele>2087.042</ele>
        <time>2021-05-28T19:14:34Z</time>
      </trkpt>
      <trkpt lat="42.535920" lon="2.466700">
        <ele>2083.122</ele>
        <time>2021-05-28T19:14:41Z</time>
      </trkpt>
      <trkpt lat="42.536022" lon="2.466724">
        <ele>2082.914</ele>
        <time>2021-05-28T19:14:48Z</time>
      </trkpt>
      <trkpt lat="42.536122" lon="2.466731">
        <ele>2083.408</ele>
        <time>2021-05-28T19:14:53Z</time>
      </trkpt>
      <trkpt lat="42.536217" lon="2.466736">
        <ele>2082.571</ele>
        <time>2021-05-28T19:14:59Z</time>
      </trkpt>
      <trkpt lat="42.536314" lon="2.466732">
        <ele>2082.078</ele>
        <time>2021-05-28T19:15:07Z</time>
      </trkpt>
      <trkpt lat="42.536339" lon="2.466736">
        <ele>2081.699</ele>
        <time>2021-05-28T19:15:09Z</time>
      </trkpt>
      <trkpt lat="42.536358" lon="2.466739">
        <ele>2081.428</ele>
        <time>2021-05-28T19:15:10Z</time>
      </trkpt>
      <trkpt lat="42.536381" lon="2.466748">
        <ele>2080.855</ele>
        <time>2021-05-28T19:15:12Z</time>
      </trkpt>
      <trkpt lat="42.536398" lon="2.466759">
        <ele>2080.270</ele>
        <time>2021-05-28T19:15:14Z</time>
      </trkpt>
      <trkpt lat="42.536435" lon="2.466733">
        <ele>2080.827</ele>
        <time>2021-05-28T19:15:16Z</time>
      </trkpt>
      <trkpt lat="42.536453" lon="2.466716">
        <ele>2081.275</ele>
        <time>2021-05-28T19:15:17Z</time>
      </trkpt>
      <trkpt lat="42.536469" lon="2.466704">
        <ele>2081.467</ele>
        <time>2021-05-28T19:15:18Z</time>
      </trkpt>
      <trkpt lat="42.536497" lon="2.466694">
        <ele>2081.481</ele>
        <time>2021-05-28T19:15:20Z</time>
      </trkpt>
      <trkpt lat="42.536524" lon="2.466677">
        <ele>2081.719</ele>
        <time>2021-05-28T19:15:22Z</time>
      </trkpt>
      <trkpt lat="42.536548" lon="2.466667">
        <ele>2081.708</ele>
        <time>2021-05-28T19:15:24Z</time>
      </trkpt>
      <trkpt lat="42.536572" lon="2.466650">
        <ele>2081.853</ele>
        <time>2021-05-28T19:15:26Z</time>
      </trkpt>
      <trkpt lat="42.536590" lon="2.466639">
        <ele>2081.970</ele>
        <time>2021-05-28T19:15:27Z</time>
      </trkpt>
      <trkpt lat="42.536620" lon="2.466625">
        <ele>2081.821</ele>
        <time>2021-05-28T19:15:29Z</time>
      </trkpt>
      <trkpt lat="42.536652" lon="2.466617">
        <ele>2081.530</ele>
        <time>2021-05-28T19:15:31Z</time>
      </trkpt>
      <trkpt lat="42.536673" lon="2.466606">
        <ele>2081.597</ele>
        <time>2021-05-28T19:15:32Z</time>
      </trkpt>
      <trkpt lat="42.536699" lon="2.466580">
        <ele>2082.082</ele>
        <time>2021-05-28T19:15:34Z</time>
      </trkpt>
      <trkpt lat="42.536724" lon="2.466563">
        <ele>2082.369</ele>
        <time>2021-05-28T19:15:36Z</time>
      </trkpt>
      <trkpt lat="42.536746" lon="2.466556">
        <ele>2082.387</ele>
        <time>2021-05-28T19:15:38Z</time>
      </trkpt>
      <trkpt lat="42.536766" lon="2.466550">
        <ele>2082.374</ele>
        <time>2021-05-28T19:15:40Z</time>
      </trkpt>
      <trkpt lat="42.536791" lon="2.466535">
        <ele>2082.556</ele>
        <time>2021-05-28T19:15:43Z</time>
      </trkpt>
      <trkpt lat="42.536810" lon="2.466530">
        <ele>2082.421</ele>
        <time>2021-05-28T19:15:44Z</time>
      </trkpt>
      <trkpt lat="42.536840" lon="2.466517">
        <ele>2082.408</ele>
        <time>2021-05-28T19:15:46Z</time>
      </trkpt>
      <trkpt lat="42.536855" lon="2.466488">
        <ele>2082.884</ele>
        <time>2021-05-28T19:15:48Z</time>
      </trkpt>
      <trkpt lat="42.536871" lon="2.466462">
        <ele>2083.091</ele>
        <time>2021-05-28T19:15:50Z</time>
      </trkpt>
      <trkpt lat="42.536870" lon="2.466434">
        <ele>2083.412</ele>
        <time>2021-05-28T19:15:56Z</time>
      </trkpt>
      <trkpt lat="42.536886" lon="2.466411">
        <ele>2083.581</ele>
        <time>2021-05-28T19:16:04Z</time>
      </trkpt>
      <trkpt lat="42.536903" lon="2.466403">
        <ele>2083.498</ele>
        <time>2021-05-28T19:16:10Z</time>
      </trkpt>
      <trkpt lat="42.536925" lon="2.466408">
        <ele>2083.133</ele>
        <time>2021-05-28T19:16:14Z</time>
      </trkpt>
      <trkpt lat="42.536941" lon="2.466425">
        <ele>2082.790</ele>
        <time>2021-05-28T19:16:18Z</time>
      </trkpt>
      <trkpt lat="42.536966" lon="2.466438">
        <ele>2082.348</ele>
        <time>2021-05-28T19:16:21Z</time>
      </trkpt>
      <trkpt lat="42.536991" lon="2.466441">
        <ele>2082.045</ele>
        <time>2021-05-28T19:16:23Z</time>
      </trkpt>
      <trkpt lat="42.537025" lon="2.466442">
        <ele>2081.747</ele>
        <time>2021-05-28T19:16:25Z</time>
      </trkpt>
      <trkpt lat="42.537043" lon="2.466435">
        <ele>2081.611</ele>
        <time>2021-05-28T19:16:26Z</time>
      </trkpt>
      <trkpt lat="42.537063" lon="2.466426">
        <ele>2081.508</ele>
        <time>2021-05-28T19:16:27Z</time>
      </trkpt>
      <trkpt lat="42.537089" lon="2.466401">
        <ele>2081.421</ele>
        <time>2021-05-28T19:16:29Z</time>
      </trkpt>
      <trkpt lat="42.537103" lon="2.466384">
        <ele>2081.388</ele>
        <time>2021-05-28T19:16:30Z</time>
      </trkpt>
      <trkpt lat="42.537117" lon="2.466352">
        <ele>2081.219</ele>
        <time>2021-05-28T19:16:32Z</time>
      </trkpt>
      <trkpt lat="42.537131" lon="2.466313">
        <ele>2081.288</ele>
        <time>2021-05-28T19:16:34Z</time>
      </trkpt>
      <trkpt lat="42.537148" lon="2.466274">
        <ele>2081.015</ele>
        <time>2021-05-28T19:16:36Z</time>
      </trkpt>
      <trkpt lat="42.537160" lon="2.466234">
        <ele>2080.920</ele>
        <time>2021-05-28T19:16:38Z</time>
      </trkpt>
      <trkpt lat="42.537168" lon="2.466195">
        <ele>2080.927</ele>
        <time>2021-05-28T19:16:40Z</time>
      </trkpt>
      <trkpt lat="42.537179" lon="2.466164">
        <ele>2080.745</ele>
        <time>2021-05-28T19:16:42Z</time>
      </trkpt>
      <trkpt lat="42.537195" lon="2.466140">
        <ele>2080.522</ele>
        <time>2021-05-28T19:16:44Z</time>
      </trkpt>
      <trkpt lat="42.537217" lon="2.466119">
        <ele>2080.162</ele>
        <time>2021-05-28T19:16:46Z</time>
      </trkpt>
      <trkpt lat="42.537234" lon="2.466100">
        <ele>2080.008</ele>
        <time>2021-05-28T19:16:48Z</time>
      </trkpt>
      <trkpt lat="42.537253" lon="2.466070">
        <ele>2079.908</ele>
        <time>2021-05-28T19:16:50Z</time>
      </trkpt>
      <trkpt lat="42.537263" lon="2.466041">
        <ele>2079.929</ele>
        <time>2021-05-28T19:16:52Z</time>
      </trkpt>
      <trkpt lat="42.537279" lon="2.466017">
        <ele>2079.876</ele>
        <time>2021-05-28T19:16:54Z</time>
      </trkpt>
      <trkpt lat="42.537303" lon="2.465991">
        <ele>2079.677</ele>
        <time>2021-05-28T19:16:56Z</time>
      </trkpt>
      <trkpt lat="42.537335" lon="2.465970">
        <ele>2079.366</ele>
        <time>2021-05-28T19:16:58Z</time>
      </trkpt>
      <trkpt lat="42.537362" lon="2.465951">
        <ele>2079.093</ele>
        <time>2021-05-28T19:17:00Z</time>
      </trkpt>
      <trkpt lat="42.537379" lon="2.465928">
        <ele>2078.828</ele>
        <time>2021-05-28T19:17:02Z</time>
      </trkpt>
      <trkpt lat="42.537407" lon="2.465917">
        <ele>2078.455</ele>
        <time>2021-05-28T19:17:04Z</time>
      </trkpt>
      <trkpt lat="42.537427" lon="2.465918">
        <ele>2078.213</ele>
        <time>2021-05-28T19:17:06Z</time>
      </trkpt>
      <trkpt lat="42.537448" lon="2.465920">
        <ele>2077.947</ele>
        <time>2021-05-28T19:17:08Z</time>
      </trkpt>
      <trkpt lat="42.537466" lon="2.465928">
        <ele>2077.729</ele>
        <time>2021-05-28T19:17:10Z</time>
      </trkpt>
      <trkpt lat="42.537485" lon="2.465941">
        <ele>2077.621</ele>
        <time>2021-05-28T19:17:12Z</time>
      </trkpt>
      <trkpt lat="42.537501" lon="2.465954">
        <ele>2077.408</ele>
        <time>2021-05-28T19:17:14Z</time>
      </trkpt>
      <trkpt lat="42.537521" lon="2.465968">
        <ele>2077.311</ele>
        <time>2021-05-28T19:17:16Z</time>
      </trkpt>
      <trkpt lat="42.537541" lon="2.465981">
        <ele>2077.138</ele>
        <time>2021-05-28T19:17:18Z</time>
      </trkpt>
      <trkpt lat="42.537561" lon="2.465993">
        <ele>2076.919</ele>
        <time>2021-05-28T19:17:20Z</time>
      </trkpt>
      <trkpt lat="42.537584" lon="2.465997">
        <ele>2076.728</ele>
        <time>2021-05-28T19:17:22Z</time>
      </trkpt>
      <trkpt lat="42.537606" lon="2.465999">
        <ele>2076.545</ele>
        <time>2021-05-28T19:17:24Z</time>
      </trkpt>
      <trkpt lat="42.537633" lon="2.466006">
        <ele>2076.350</ele>
        <time>2021-05-28T19:17:27Z</time>
      </trkpt>
      <trkpt lat="42.537656" lon="2.466012">
        <ele>2076.117</ele>
        <time>2021-05-28T19:17:29Z</time>
      </trkpt>
      <trkpt lat="42.537676" lon="2.466016">
        <ele>2076.025</ele>
        <time>2021-05-28T19:17:31Z</time>
      </trkpt>
      <trkpt lat="42.537704" lon="2.466025">
        <ele>2075.874</ele>
        <time>2021-05-28T19:17:34Z</time>
      </trkpt>
      <trkpt lat="42.537722" lon="2.466025">
        <ele>2075.656</ele>
        <time>2021-05-28T19:17:36Z</time>
      </trkpt>
      <trkpt lat="42.537742" lon="2.466025">
        <ele>2075.421</ele>
        <time>2021-05-28T19:17:38Z</time>
      </trkpt>
      <trkpt lat="42.537765" lon="2.466031">
        <ele>2075.308</ele>
        <time>2021-05-28T19:17:40Z</time>
      </trkpt>
      <trkpt lat="42.537785" lon="2.466046">
        <ele>2075.214</ele>
        <time>2021-05-28T19:17:42Z</time>
      </trkpt>
      <trkpt lat="42.537803" lon="2.466062">
        <ele>2075.171</ele>
        <time>2021-05-28T19:17:44Z</time>
      </trkpt>
      <trkpt lat="42.537821" lon="2.466071">
        <ele>2075.072</ele>
        <time>2021-05-28T19:17:46Z</time>
      </trkpt>
      <trkpt lat="42.537846" lon="2.466070">
        <ele>2074.681</ele>
        <time>2021-05-28T19:17:48Z</time>
      </trkpt>
      <trkpt lat="42.537868" lon="2.466068">
        <ele>2074.368</ele>
        <time>2021-05-28T19:17:50Z</time>
      </trkpt>
      <trkpt lat="42.537893" lon="2.466071">
        <ele>2074.023</ele>
        <time>2021-05-28T19:17:52Z</time>
      </trkpt>
      <trkpt lat="42.537917" lon="2.466086">
        <ele>2073.830</ele>
        <time>2021-05-28T19:17:54Z</time>
      </trkpt>
      <trkpt lat="42.537941" lon="2.466100">
        <ele>2073.648</ele>
        <time>2021-05-28T19:17:56Z</time>
      </trkpt>
      <trkpt lat="42.537967" lon="2.466114">
        <ele>2073.392</ele>
        <time>2021-05-28T19:17:58Z</time>
      </trkpt>
      <trkpt lat="42.537984" lon="2.466128">
        <ele>2073.173</ele>
        <time>2021-05-28T19:18:00Z</time>
      </trkpt>
      <trkpt lat="42.538006" lon="2.466140">
        <ele>2072.820</ele>
        <time>2021-05-28T19:18:02Z</time>
      </trkpt>
      <trkpt lat="42.538028" lon="2.466164">
        <ele>2072.608</ele>
        <time>2021-05-28T19:18:04Z</time>
      </trkpt>
      <trkpt lat="42.538050" lon="2.466190">
        <ele>2072.436</ele>
        <time>2021-05-28T19:18:06Z</time>
      </trkpt>
      <trkpt lat="42.538068" lon="2.466202">
        <ele>2072.183</ele>
        <time>2021-05-28T19:18:08Z</time>
      </trkpt>
      <trkpt lat="42.538093" lon="2.466190">
        <ele>2071.664</ele>
        <time>2021-05-28T19:18:11Z</time>
      </trkpt>
      <trkpt lat="42.538118" lon="2.466188">
        <ele>2071.293</ele>
        <time>2021-05-28T19:18:14Z</time>
      </trkpt>
      <trkpt lat="42.538140" lon="2.466190">
        <ele>2070.810</ele>
        <time>2021-05-28T19:18:16Z</time>
      </trkpt>
      <trkpt lat="42.538161" lon="2.466181">
        <ele>2070.455</ele>
        <time>2021-05-28T19:18:18Z</time>
      </trkpt>
      <trkpt lat="42.538181" lon="2.466177">
        <ele>2070.192</ele>
        <time>2021-05-28T19:18:20Z</time>
      </trkpt>
      <trkpt lat="42.538200" lon="2.466175">
        <ele>2069.810</ele>
        <time>2021-05-28T19:18:22Z</time>
      </trkpt>
      <trkpt lat="42.538223" lon="2.466172">
        <ele>2069.395</ele>
        <time>2021-05-28T19:18:24Z</time>
      </trkpt>
      <trkpt lat="42.538243" lon="2.466185">
        <ele>2069.149</ele>
        <time>2021-05-28T19:18:26Z</time>
      </trkpt>
      <trkpt lat="42.538259" lon="2.466204">
        <ele>2068.923</ele>
        <time>2021-05-28T19:18:28Z</time>
      </trkpt>
      <trkpt lat="42.538280" lon="2.466216">
        <ele>2068.608</ele>
        <time>2021-05-28T19:18:30Z</time>
      </trkpt>
      <trkpt lat="42.538299" lon="2.466217">
        <ele>2068.356</ele>
        <time>2021-05-28T19:18:32Z</time>
      </trkpt>
      <trkpt lat="42.538321" lon="2.466210">
        <ele>2067.983</ele>
        <time>2021-05-28T19:18:34Z</time>
      </trkpt>
      <trkpt lat="42.538338" lon="2.466199">
        <ele>2067.574</ele>
        <time>2021-05-28T19:18:36Z</time>
      </trkpt>
      <trkpt lat="42.538360" lon="2.466189">
        <ele>2067.053</ele>
        <time>2021-05-28T19:18:39Z</time>
      </trkpt>
      <trkpt lat="42.538383" lon="2.466189">
        <ele>2066.550</ele>
        <time>2021-05-28T19:18:42Z</time>
      </trkpt>
      <trkpt lat="42.538408" lon="2.466188">
        <ele>2065.925</ele>
        <time>2021-05-28T19:18:45Z</time>
      </trkpt>
      <trkpt lat="42.538428" lon="2.466185">
        <ele>2065.522</ele>
        <time>2021-05-28T19:18:47Z</time>
      </trkpt>
      <trkpt lat="42.538447" lon="2.466182">
        <ele>2065.140</ele>
        <time>2021-05-28T19:18:49Z</time>
      </trkpt>
      <trkpt lat="42.538465" lon="2.466184">
        <ele>2064.712</ele>
        <time>2021-05-28T19:18:51Z</time>
      </trkpt>
      <trkpt lat="42.538486" lon="2.466179">
        <ele>2064.232</ele>
        <time>2021-05-28T19:18:53Z</time>
      </trkpt>
      <trkpt lat="42.538504" lon="2.466169">
        <ele>2063.705</ele>
        <time>2021-05-28T19:18:55Z</time>
      </trkpt>
      <trkpt lat="42.538523" lon="2.466166">
        <ele>2063.308</ele>
        <time>2021-05-28T19:18:57Z</time>
      </trkpt>
      <trkpt lat="42.538542" lon="2.466162">
        <ele>2062.998</ele>
        <time>2021-05-28T19:18:59Z</time>
      </trkpt>
      <trkpt lat="42.538564" lon="2.466150">
        <ele>2062.355</ele>
        <time>2021-05-28T19:19:02Z</time>
      </trkpt>
      <trkpt lat="42.538578" lon="2.466121">
        <ele>2061.886</ele>
        <time>2021-05-28T19:19:05Z</time>
      </trkpt>
      <trkpt lat="42.538594" lon="2.466098">
        <ele>2061.365</ele>
        <time>2021-05-28T19:19:08Z</time>
      </trkpt>
      <trkpt lat="42.538615" lon="2.466078">
        <ele>2060.762</ele>
        <time>2021-05-28T19:19:11Z</time>
      </trkpt>
      <trkpt lat="42.538631" lon="2.466068">
        <ele>2060.237</ele>
        <time>2021-05-28T19:19:13Z</time>
      </trkpt>
      <trkpt lat="42.538653" lon="2.466054">
        <ele>2059.554</ele>
        <time>2021-05-28T19:19:16Z</time>
      </trkpt>
      <trkpt lat="42.538676" lon="2.466071">
        <ele>2059.122</ele>
        <time>2021-05-28T19:19:19Z</time>
      </trkpt>
      <trkpt lat="42.538693" lon="2.466097">
        <ele>2058.874</ele>
        <time>2021-05-28T19:19:22Z</time>
      </trkpt>
      <trkpt lat="42.538705" lon="2.466118">
        <ele>2058.756</ele>
        <time>2021-05-28T19:19:24Z</time>
      </trkpt>
      <trkpt lat="42.538727" lon="2.466111">
        <ele>2058.121</ele>
        <time>2021-05-28T19:19:27Z</time>
      </trkpt>
      <trkpt lat="42.538751" lon="2.466113">
        <ele>2057.508</ele>
        <time>2021-05-28T19:19:29Z</time>
      </trkpt>
      <trkpt lat="42.538763" lon="2.466133">
        <ele>2057.354</ele>
        <time>2021-05-28T19:19:31Z</time>
      </trkpt>
      <trkpt lat="42.538777" lon="2.466155">
        <ele>2057.181</ele>
        <time>2021-05-28T19:19:33Z</time>
      </trkpt>
      <trkpt lat="42.538791" lon="2.466179">
        <ele>2057.022</ele>
        <time>2021-05-28T19:19:35Z</time>
      </trkpt>
      <trkpt lat="42.538807" lon="2.466203">
        <ele>2056.791</ele>
        <time>2021-05-28T19:19:37Z</time>
      </trkpt>
      <trkpt lat="42.538824" lon="2.466223">
        <ele>2056.418</ele>
        <time>2021-05-28T19:19:39Z</time>
      </trkpt>
      <trkpt lat="42.538834" lon="2.466244">
        <ele>2056.393</ele>
        <time>2021-05-28T19:19:41Z</time>
      </trkpt>
      <trkpt lat="42.538853" lon="2.466250">
        <ele>2055.950</ele>
        <time>2021-05-28T19:19:43Z</time>
      </trkpt>
      <trkpt lat="42.538873" lon="2.466242">
        <ele>2055.338</ele>
        <time>2021-05-28T19:19:45Z</time>
      </trkpt>
      <trkpt lat="42.538894" lon="2.466254">
        <ele>2054.997</ele>
        <time>2021-05-28T19:19:48Z</time>
      </trkpt>
      <trkpt lat="42.538910" lon="2.466279">
        <ele>2054.623</ele>
        <time>2021-05-28T19:19:51Z</time>
      </trkpt>
      <trkpt lat="42.538922" lon="2.466307">
        <ele>2054.525</ele>
        <time>2021-05-28T19:19:54Z</time>
      </trkpt>
      <trkpt lat="42.538937" lon="2.466334">
        <ele>2054.208</ele>
        <time>2021-05-28T19:19:57Z</time>
      </trkpt>
      <trkpt lat="42.538952" lon="2.466355">
        <ele>2053.956</ele>
        <time>2021-05-28T19:20:00Z</time>
      </trkpt>
      <trkpt lat="42.538959" lon="2.466388">
        <ele>2054.053</ele>
        <time>2021-05-28T19:20:03Z</time>
      </trkpt>
      <trkpt lat="42.538974" lon="2.466407">
        <ele>2053.744</ele>
        <time>2021-05-28T19:20:06Z</time>
      </trkpt>
      <trkpt lat="42.538984" lon="2.466434">
        <ele>2053.633</ele>
        <time>2021-05-28T19:20:09Z</time>
      </trkpt>
      <trkpt lat="42.538991" lon="2.466459">
        <ele>2053.680</ele>
        <time>2021-05-28T19:20:12Z</time>
      </trkpt>
      <trkpt lat="42.539002" lon="2.466487">
        <ele>2053.475</ele>
        <time>2021-05-28T19:20:15Z</time>
      </trkpt>
      <trkpt lat="42.539013" lon="2.466511">
        <ele>2053.322</ele>
        <time>2021-05-28T19:20:17Z</time>
      </trkpt>
      <trkpt lat="42.539025" lon="2.466536">
        <ele>2053.160</ele>
        <time>2021-05-28T19:20:19Z</time>
      </trkpt>
      <trkpt lat="42.539031" lon="2.466562">
        <ele>2053.281</ele>
        <time>2021-05-28T19:20:21Z</time>
      </trkpt>
      <trkpt lat="42.539044" lon="2.466584">
        <ele>2052.961</ele>
        <time>2021-05-28T19:20:23Z</time>
      </trkpt>
      <trkpt lat="42.539053" lon="2.466606">
        <ele>2052.817</ele>
        <time>2021-05-28T19:20:25Z</time>
      </trkpt>
      <trkpt lat="42.539063" lon="2.466634">
        <ele>2052.808</ele>
        <time>2021-05-28T19:20:27Z</time>
      </trkpt>
      <trkpt lat="42.539072" lon="2.466661">
        <ele>2052.715</ele>
        <time>2021-05-28T19:20:29Z</time>
      </trkpt>
      <trkpt lat="42.539083" lon="2.466693">
        <ele>2052.462</ele>
        <time>2021-05-28T19:20:32Z</time>
      </trkpt>
      <trkpt lat="42.539089" lon="2.466718">
        <ele>2052.243</ele>
        <time>2021-05-28T19:20:34Z</time>
      </trkpt>
      <trkpt lat="42.539096" lon="2.466746">
        <ele>2052.082</ele>
        <time>2021-05-28T19:20:36Z</time>
      </trkpt>
      <trkpt lat="42.539104" lon="2.466770">
        <ele>2051.719</ele>
        <time>2021-05-28T19:20:38Z</time>
      </trkpt>
      <trkpt lat="42.539109" lon="2.466796">
        <ele>2051.634</ele>
        <time>2021-05-28T19:20:40Z</time>
      </trkpt>
      <trkpt lat="42.539123" lon="2.466823">
        <ele>2051.251</ele>
        <time>2021-05-28T19:20:43Z</time>
      </trkpt>
      <trkpt lat="42.539132" lon="2.466854">
        <ele>2050.919</ele>
        <time>2021-05-28T19:20:52Z</time>
      </trkpt>
      <trkpt lat="42.539141" lon="2.466881">
        <ele>2050.768</ele>
        <time>2021-05-28T19:20:54Z</time>
      </trkpt>
      <trkpt lat="42.539156" lon="2.466900">
        <ele>2050.342</ele>
        <time>2021-05-28T19:20:57Z</time>
      </trkpt>
      <trkpt lat="42.539178" lon="2.466900">
        <ele>2049.826</ele>
        <time>2021-05-28T19:20:58Z</time>
      </trkpt>
      <trkpt lat="42.539202" lon="2.466890">
        <ele>2049.508</ele>
        <time>2021-05-28T19:21:00Z</time>
      </trkpt>
      <trkpt lat="42.539223" lon="2.466876">
        <ele>2049.153</ele>
        <time>2021-05-28T19:21:02Z</time>
      </trkpt>
      <trkpt lat="42.539247" lon="2.466871">
        <ele>2048.890</ele>
        <time>2021-05-28T19:21:05Z</time>
      </trkpt>
      <trkpt lat="42.539265" lon="2.466876">
        <ele>2048.561</ele>
        <time>2021-05-28T19:21:08Z</time>
      </trkpt>
      <trkpt lat="42.539273" lon="2.466905">
        <ele>2048.650</ele>
        <time>2021-05-28T19:21:18Z</time>
      </trkpt>
      <trkpt lat="42.539283" lon="2.466936">
        <ele>2048.717</ele>
        <time>2021-05-28T19:21:21Z</time>
      </trkpt>
      <trkpt lat="42.539297" lon="2.466958">
        <ele>2048.612</ele>
        <time>2021-05-28T19:21:24Z</time>
      </trkpt>
      <trkpt lat="42.539304" lon="2.466992">
        <ele>2048.469</ele>
        <time>2021-05-28T19:21:27Z</time>
      </trkpt>
      <trkpt lat="42.539315" lon="2.467020">
        <ele>2048.347</ele>
        <time>2021-05-28T19:21:30Z</time>
      </trkpt>
      <trkpt lat="42.539329" lon="2.467043">
        <ele>2048.324</ele>
        <time>2021-05-28T19:21:33Z</time>
      </trkpt>
      <trkpt lat="42.539345" lon="2.467053">
        <ele>2048.404</ele>
        <time>2021-05-28T19:21:36Z</time>
      </trkpt>
      <trkpt lat="42.539360" lon="2.467039">
        <ele>2048.314</ele>
        <time>2021-05-28T19:22:02Z</time>
      </trkpt>
      <trkpt lat="42.539373" lon="2.467019">
        <ele>2048.208</ele>
        <time>2021-05-28T19:22:10Z</time>
      </trkpt>
      <trkpt lat="42.539386" lon="2.466999">
        <ele>2048.059</ele>
        <time>2021-05-28T19:22:13Z</time>
      </trkpt>
      <trkpt lat="42.539412" lon="2.466985">
        <ele>2047.816</ele>
        <time>2021-05-28T19:22:15Z</time>
      </trkpt>
      <trkpt lat="42.539431" lon="2.466981">
        <ele>2047.687</ele>
        <time>2021-05-28T19:22:17Z</time>
      </trkpt>
      <trkpt lat="42.539457" lon="2.466983">
        <ele>2047.566</ele>
        <time>2021-05-28T19:22:21Z</time>
      </trkpt>
      <trkpt lat="42.539484" lon="2.466985">
        <ele>2047.433</ele>
        <time>2021-05-28T19:22:23Z</time>
      </trkpt>
      <trkpt lat="42.539502" lon="2.466990">
        <ele>2047.588</ele>
        <time>2021-05-28T19:22:25Z</time>
      </trkpt>
      <trkpt lat="42.539524" lon="2.466997">
        <ele>2047.665</ele>
        <time>2021-05-28T19:22:29Z</time>
      </trkpt>
      <trkpt lat="42.539550" lon="2.467014">
        <ele>2047.973</ele>
        <time>2021-05-28T19:22:32Z</time>
      </trkpt>
      <trkpt lat="42.539569" lon="2.467028">
        <ele>2048.386</ele>
        <time>2021-05-28T19:22:33Z</time>
      </trkpt>
      <trkpt lat="42.539593" lon="2.467042">
        <ele>2048.760</ele>
        <time>2021-05-28T19:22:36Z</time>
      </trkpt>
      <trkpt lat="42.539614" lon="2.467047">
        <ele>2048.826</ele>
        <time>2021-05-28T19:22:38Z</time>
      </trkpt>
      <trkpt lat="42.539634" lon="2.467048">
        <ele>2048.908</ele>
        <time>2021-05-28T19:22:41Z</time>
      </trkpt>
      <trkpt lat="42.539659" lon="2.467055">
        <ele>2049.275</ele>
        <time>2021-05-28T19:22:44Z</time>
      </trkpt>
      <trkpt lat="42.539682" lon="2.467061">
        <ele>2049.552</ele>
        <time>2021-05-28T19:22:47Z</time>
      </trkpt>
      <trkpt lat="42.539701" lon="2.467073">
        <ele>2050.093</ele>
        <time>2021-05-28T19:22:49Z</time>
      </trkpt>
      <trkpt lat="42.539714" lon="2.467092">
        <ele>2050.882</ele>
        <time>2021-05-28T19:22:52Z</time>
      </trkpt>
      <trkpt lat="42.539736" lon="2.467114">
        <ele>2051.399</ele>
        <time>2021-05-28T19:22:55Z</time>
      </trkpt>
      <trkpt lat="42.539777" lon="2.467143">
        <ele>2051.344</ele>
        <time>2021-05-28T19:22:58Z</time>
      </trkpt>
      <trkpt lat="42.539799" lon="2.467164">
        <ele>2051.541</ele>
        <time>2021-05-28T19:23:00Z</time>
      </trkpt>
      <trkpt lat="42.539814" lon="2.467181">
        <ele>2051.739</ele>
        <time>2021-05-28T19:23:02Z</time>
      </trkpt>
      <trkpt lat="42.539833" lon="2.467193">
        <ele>2051.772</ele>
        <time>2021-05-28T19:23:04Z</time>
      </trkpt>
      <trkpt lat="42.539849" lon="2.467202">
        <ele>2051.513</ele>
        <time>2021-05-28T19:23:06Z</time>
      </trkpt>
      <trkpt lat="42.539871" lon="2.467218">
        <ele>2051.514</ele>
        <time>2021-05-28T19:23:08Z</time>
      </trkpt>
      <trkpt lat="42.539892" lon="2.467231">
        <ele>2051.108</ele>
        <time>2021-05-28T19:23:10Z</time>
      </trkpt>
      <trkpt lat="42.539917" lon="2.467249">
        <ele>2050.494</ele>
        <time>2021-05-28T19:23:12Z</time>
      </trkpt>
      <trkpt lat="42.539935" lon="2.467251">
        <ele>2050.081</ele>
        <time>2021-05-28T19:23:14Z</time>
      </trkpt>
      <trkpt lat="42.539954" lon="2.467268">
        <ele>2049.672</ele>
        <time>2021-05-28T19:23:17Z</time>
      </trkpt>
      <trkpt lat="42.539981" lon="2.467286">
        <ele>2049.141</ele>
        <time>2021-05-28T19:23:19Z</time>
      </trkpt>
      <trkpt lat="42.540008" lon="2.467302">
        <ele>2048.728</ele>
        <time>2021-05-28T19:23:21Z</time>
      </trkpt>
      <trkpt lat="42.540023" lon="2.467319">
        <ele>2048.653</ele>
        <time>2021-05-28T19:23:23Z</time>
      </trkpt>
      <trkpt lat="42.540042" lon="2.467334">
        <ele>2048.560</ele>
        <time>2021-05-28T19:23:25Z</time>
      </trkpt>
      <trkpt lat="42.540067" lon="2.467340">
        <ele>2048.118</ele>
        <time>2021-05-28T19:23:27Z</time>
      </trkpt>
      <trkpt lat="42.540095" lon="2.467344">
        <ele>2047.789</ele>
        <time>2021-05-28T19:23:29Z</time>
      </trkpt>
      <trkpt lat="42.540118" lon="2.467345">
        <ele>2047.306</ele>
        <time>2021-05-28T19:23:31Z</time>
      </trkpt>
      <trkpt lat="42.540139" lon="2.467348">
        <ele>2047.026</ele>
        <time>2021-05-28T19:23:34Z</time>
      </trkpt>
      <trkpt lat="42.540159" lon="2.467355">
        <ele>2046.808</ele>
        <time>2021-05-28T19:23:39Z</time>
      </trkpt>
      <trkpt lat="42.540181" lon="2.467355">
        <ele>2046.495</ele>
        <time>2021-05-28T19:23:42Z</time>
      </trkpt>
      <trkpt lat="42.540199" lon="2.467367">
        <ele>2046.442</ele>
        <time>2021-05-28T19:23:45Z</time>
      </trkpt>
      <trkpt lat="42.540218" lon="2.467370">
        <ele>2046.243</ele>
        <time>2021-05-28T19:23:48Z</time>
      </trkpt>
      <trkpt lat="42.540238" lon="2.467371">
        <ele>2045.992</ele>
        <time>2021-05-28T19:23:51Z</time>
      </trkpt>
      <trkpt lat="42.540257" lon="2.467381">
        <ele>2045.939</ele>
        <time>2021-05-28T19:23:54Z</time>
      </trkpt>
      <trkpt lat="42.540277" lon="2.467395">
        <ele>2046.044</ele>
        <time>2021-05-28T19:23:57Z</time>
      </trkpt>
      <trkpt lat="42.540298" lon="2.467404">
        <ele>2045.871</ele>
        <time>2021-05-28T19:24:05Z</time>
      </trkpt>
      <trkpt lat="42.540317" lon="2.467416">
        <ele>2045.859</ele>
        <time>2021-05-28T19:24:07Z</time>
      </trkpt>
      <trkpt lat="42.540338" lon="2.467416">
        <ele>2045.462</ele>
        <time>2021-05-28T19:24:10Z</time>
      </trkpt>
      <trkpt lat="42.540358" lon="2.467419">
        <ele>2045.183</ele>
        <time>2021-05-28T19:24:13Z</time>
      </trkpt>
      <trkpt lat="42.540376" lon="2.467431">
        <ele>2045.211</ele>
        <time>2021-05-28T19:24:15Z</time>
      </trkpt>
      <trkpt lat="42.540393" lon="2.467442">
        <ele>2045.208</ele>
        <time>2021-05-28T19:24:17Z</time>
      </trkpt>
      <trkpt lat="42.540417" lon="2.467459">
        <ele>2045.293</ele>
        <time>2021-05-28T19:24:19Z</time>
      </trkpt>
      <trkpt lat="42.540439" lon="2.467465">
        <ele>2045.050</ele>
        <time>2021-05-28T19:24:21Z</time>
      </trkpt>
      <trkpt lat="42.540458" lon="2.467474">
        <ele>2044.931</ele>
        <time>2021-05-28T19:24:25Z</time>
      </trkpt>
      <trkpt lat="42.540476" lon="2.467483">
        <ele>2044.960</ele>
        <time>2021-05-28T19:24:26Z</time>
      </trkpt>
      <trkpt lat="42.540494" lon="2.467495">
        <ele>2045.057</ele>
        <time>2021-05-28T19:24:28Z</time>
      </trkpt>
      <trkpt lat="42.540516" lon="2.467487">
        <ele>2044.312</ele>
        <time>2021-05-28T19:24:33Z</time>
      </trkpt>
      <trkpt lat="42.540533" lon="2.467499">
        <ele>2044.449</ele>
        <time>2021-05-28T19:24:38Z</time>
      </trkpt>
      <trkpt lat="42.540551" lon="2.467485">
        <ele>2043.677</ele>
        <time>2021-05-28T19:24:49Z</time>
      </trkpt>
      <trkpt lat="42.540577" lon="2.467486">
        <ele>2043.165</ele>
        <time>2021-05-28T19:24:55Z</time>
      </trkpt>
      <trkpt lat="42.540601" lon="2.467490">
        <ele>2042.768</ele>
        <time>2021-05-28T19:24:56Z</time>
      </trkpt>
      <trkpt lat="42.540619" lon="2.467490">
        <ele>2042.314</ele>
        <time>2021-05-28T19:24:58Z</time>
      </trkpt>
      <trkpt lat="42.540642" lon="2.467489">
        <ele>2041.808</ele>
        <time>2021-05-28T19:25:01Z</time>
      </trkpt>
      <trkpt lat="42.540663" lon="2.467482">
        <ele>2041.083</ele>
        <time>2021-05-28T19:25:04Z</time>
      </trkpt>
      <trkpt lat="42.540692" lon="2.467481">
        <ele>2040.440</ele>
        <time>2021-05-28T19:25:08Z</time>
      </trkpt>
      <trkpt lat="42.540717" lon="2.467491">
        <ele>2040.291</ele>
        <time>2021-05-28T19:25:11Z</time>
      </trkpt>
      <trkpt lat="42.540744" lon="2.467500">
        <ele>2039.980</ele>
        <time>2021-05-28T19:25:14Z</time>
      </trkpt>
      <trkpt lat="42.540763" lon="2.467499">
        <ele>2039.557</ele>
        <time>2021-05-28T19:25:17Z</time>
      </trkpt>
      <trkpt lat="42.540784" lon="2.467487">
        <ele>2038.612</ele>
        <time>2021-05-28T19:25:20Z</time>
      </trkpt>
      <trkpt lat="42.540805" lon="2.467485">
        <ele>2038.059</ele>
        <time>2021-05-28T19:25:23Z</time>
      </trkpt>
      <trkpt lat="42.540828" lon="2.467488">
        <ele>2037.617</ele>
        <time>2021-05-28T19:25:26Z</time>
      </trkpt>
      <trkpt lat="42.540847" lon="2.467492">
        <ele>2037.293</ele>
        <time>2021-05-28T19:25:29Z</time>
      </trkpt>
      <trkpt lat="42.540869" lon="2.467489">
        <ele>2036.465</ele>
        <time>2021-05-28T19:25:32Z</time>
      </trkpt>
      <trkpt lat="42.540895" lon="2.467500">
        <ele>2036.021</ele>
        <time>2021-05-28T19:25:35Z</time>
      </trkpt>
      <trkpt lat="42.540917" lon="2.467508">
        <ele>2035.608</ele>
        <time>2021-05-28T19:25:38Z</time>
      </trkpt>
      <trkpt lat="42.540937" lon="2.467504">
        <ele>2034.856</ele>
        <time>2021-05-28T19:25:41Z</time>
      </trkpt>
      <trkpt lat="42.540960" lon="2.467503">
        <ele>2034.053</ele>
        <time>2021-05-28T19:25:45Z</time>
      </trkpt>
      <trkpt lat="42.540979" lon="2.467518">
        <ele>2034.154</ele>
        <time>2021-05-28T19:25:47Z</time>
      </trkpt>
      <trkpt lat="42.540997" lon="2.467524">
        <ele>2033.813</ele>
        <time>2021-05-28T19:25:51Z</time>
      </trkpt>
      <trkpt lat="42.541013" lon="2.467536">
        <ele>2033.950</ele>
        <time>2021-05-28T19:26:06Z</time>
      </trkpt>
      <trkpt lat="42.541011" lon="2.467565">
        <ele>2035.385</ele>
        <time>2021-05-28T19:26:34Z</time>
      </trkpt>
      <trkpt lat="42.541029" lon="2.467578">
        <ele>2035.322</ele>
        <time>2021-05-28T19:26:39Z</time>
      </trkpt>
      <trkpt lat="42.541049" lon="2.467594">
        <ele>2035.520</ele>
        <time>2021-05-28T19:26:42Z</time>
      </trkpt>
      <trkpt lat="42.541080" lon="2.467606">
        <ele>2035.216</ele>
        <time>2021-05-28T19:26:44Z</time>
      </trkpt>
      <trkpt lat="42.541106" lon="2.467632">
        <ele>2035.876</ele>
        <time>2021-05-28T19:26:45Z</time>
      </trkpt>
      <trkpt lat="42.541128" lon="2.467645">
        <ele>2035.613</ele>
        <time>2021-05-28T19:26:47Z</time>
      </trkpt>
      <trkpt lat="42.541147" lon="2.467655">
        <ele>2035.408</ele>
        <time>2021-05-28T19:26:50Z</time>
      </trkpt>
      <trkpt lat="42.541167" lon="2.467666">
        <ele>2035.188</ele>
        <time>2021-05-28T19:26:52Z</time>
      </trkpt>
      <trkpt lat="42.541183" lon="2.467681">
        <ele>2035.225</ele>
        <time>2021-05-28T19:26:55Z</time>
      </trkpt>
      <trkpt lat="42.541200" lon="2.467701">
        <ele>2035.546</ele>
        <time>2021-05-28T19:26:57Z</time>
      </trkpt>
      <trkpt lat="42.541218" lon="2.467719">
        <ele>2035.645</ele>
        <time>2021-05-28T19:26:59Z</time>
      </trkpt>
      <trkpt lat="42.541239" lon="2.467731">
        <ele>2035.312</ele>
        <time>2021-05-28T19:27:01Z</time>
      </trkpt>
      <trkpt lat="42.541262" lon="2.467735">
        <ele>2034.557</ele>
        <time>2021-05-28T19:27:03Z</time>
      </trkpt>
      <trkpt lat="42.541271" lon="2.467758">
        <ele>2035.234</ele>
        <time>2021-05-28T19:27:05Z</time>
      </trkpt>
      <trkpt lat="42.541289" lon="2.467777">
        <ele>2035.382</ele>
        <time>2021-05-28T19:27:08Z</time>
      </trkpt>
      <trkpt lat="42.541309" lon="2.467799">
        <ele>2035.179</ele>
        <time>2021-05-28T19:27:10Z</time>
      </trkpt>
      <trkpt lat="42.541378" lon="2.467879">
        <ele>2034.405</ele>
        <time>2021-05-28T19:27:19Z</time>
      </trkpt>
      <trkpt lat="42.541428" lon="2.467937">
        <ele>2034.625</ele>
        <time>2021-05-28T19:27:25Z</time>
      </trkpt>
      <trkpt lat="42.541439" lon="2.467960">
        <ele>2035.008</ele>
        <time>2021-05-28T19:27:26Z</time>
      </trkpt>
      <trkpt lat="42.541458" lon="2.467981">
        <ele>2035.174</ele>
        <time>2021-05-28T19:27:28Z</time>
      </trkpt>
      <trkpt lat="42.541473" lon="2.467997">
        <ele>2035.291</ele>
        <time>2021-05-28T19:27:30Z</time>
      </trkpt>
      <trkpt lat="42.541492" lon="2.468010">
        <ele>2035.182</ele>
        <time>2021-05-28T19:27:32Z</time>
      </trkpt>
      <trkpt lat="42.541513" lon="2.468021">
        <ele>2034.921</ele>
        <time>2021-05-28T19:27:34Z</time>
      </trkpt>
      <trkpt lat="42.541530" lon="2.468038">
        <ele>2034.968</ele>
        <time>2021-05-28T19:27:36Z</time>
      </trkpt>
      <trkpt lat="42.541549" lon="2.468051">
        <ele>2034.863</ele>
        <time>2021-05-28T19:27:38Z</time>
      </trkpt>
      <trkpt lat="42.541569" lon="2.468067">
        <ele>2034.710</ele>
        <time>2021-05-28T19:27:40Z</time>
      </trkpt>
      <trkpt lat="42.541586" lon="2.468095">
        <ele>2035.028</ele>
        <time>2021-05-28T19:27:43Z</time>
      </trkpt>
      <trkpt lat="42.541603" lon="2.468115">
        <ele>2035.191</ele>
        <time>2021-05-28T19:27:46Z</time>
      </trkpt>
      <trkpt lat="42.541621" lon="2.468144">
        <ele>2035.381</ele>
        <time>2021-05-28T19:27:49Z</time>
      </trkpt>
      <trkpt lat="42.541636" lon="2.468166">
        <ele>2035.519</ele>
        <time>2021-05-28T19:27:52Z</time>
      </trkpt>
      <trkpt lat="42.541656" lon="2.468182">
        <ele>2035.408</ele>
        <time>2021-05-28T19:27:55Z</time>
      </trkpt>
      <trkpt lat="42.541675" lon="2.468199">
        <ele>2035.446</ele>
        <time>2021-05-28T19:27:58Z</time>
      </trkpt>
      <trkpt lat="42.541691" lon="2.468225">
        <ele>2035.823</ele>
        <time>2021-05-28T19:28:00Z</time>
      </trkpt>
      <trkpt lat="42.541714" lon="2.468248">
        <ele>2035.974</ele>
        <time>2021-05-28T19:28:03Z</time>
      </trkpt>
      <trkpt lat="42.541730" lon="2.468274">
        <ele>2036.343</ele>
        <time>2021-05-28T19:28:05Z</time>
      </trkpt>
      <trkpt lat="42.541746" lon="2.468291">
        <ele>2036.420</ele>
        <time>2021-05-28T19:28:07Z</time>
      </trkpt>
      <trkpt lat="42.541757" lon="2.468312">
        <ele>2036.855</ele>
        <time>2021-05-28T19:28:10Z</time>
      </trkpt>
      <trkpt lat="42.541795" lon="2.468326">
        <ele>2036.542</ele>
        <time>2021-05-28T19:28:16Z</time>
      </trkpt>
      <trkpt lat="42.541810" lon="2.468339">
        <ele>2036.660</ele>
        <time>2021-05-28T19:28:18Z</time>
      </trkpt>
      <trkpt lat="42.541832" lon="2.468366">
        <ele>2036.969</ele>
        <time>2021-05-28T19:28:23Z</time>
      </trkpt>
      <trkpt lat="42.541853" lon="2.468397">
        <ele>2037.304</ele>
        <time>2021-05-28T19:28:24Z</time>
      </trkpt>
      <trkpt lat="42.541875" lon="2.468422">
        <ele>2037.624</ele>
        <time>2021-05-28T19:28:27Z</time>
      </trkpt>
      <trkpt lat="42.541897" lon="2.468439">
        <ele>2037.608</ele>
        <time>2021-05-28T19:28:28Z</time>
      </trkpt>
      <trkpt lat="42.541916" lon="2.468461">
        <ele>2037.823</ele>
        <time>2021-05-28T19:28:30Z</time>
      </trkpt>
      <trkpt lat="42.541932" lon="2.468490">
        <ele>2038.290</ele>
        <time>2021-05-28T19:28:32Z</time>
      </trkpt>
      <trkpt lat="42.541949" lon="2.468523">
        <ele>2038.621</ele>
        <time>2021-05-28T19:28:35Z</time>
      </trkpt>
      <trkpt lat="42.541967" lon="2.468545">
        <ele>2038.690</ele>
        <time>2021-05-28T19:28:37Z</time>
      </trkpt>
      <trkpt lat="42.541982" lon="2.468572">
        <ele>2038.897</ele>
        <time>2021-05-28T19:28:40Z</time>
      </trkpt>
      <trkpt lat="42.541993" lon="2.468595">
        <ele>2039.032</ele>
        <time>2021-05-28T19:28:42Z</time>
      </trkpt>
      <trkpt lat="42.542011" lon="2.468615">
        <ele>2038.969</ele>
        <time>2021-05-28T19:28:44Z</time>
      </trkpt>
      <trkpt lat="42.542026" lon="2.468635">
        <ele>2038.917</ele>
        <time>2021-05-28T19:28:46Z</time>
      </trkpt>
      <trkpt lat="42.542043" lon="2.468657">
        <ele>2038.922</ele>
        <time>2021-05-28T19:28:48Z</time>
      </trkpt>
      <trkpt lat="42.542062" lon="2.468684">
        <ele>2039.062</ele>
        <time>2021-05-28T19:28:50Z</time>
      </trkpt>
      <trkpt lat="42.542076" lon="2.468701">
        <ele>2039.008</ele>
        <time>2021-05-28T19:28:52Z</time>
      </trkpt>
      <trkpt lat="42.542093" lon="2.468716">
        <ele>2038.908</ele>
        <time>2021-05-28T19:28:54Z</time>
      </trkpt>
      <trkpt lat="42.542115" lon="2.468726">
        <ele>2038.599</ele>
        <time>2021-05-28T19:28:56Z</time>
      </trkpt>
      <trkpt lat="42.542137" lon="2.468741">
        <ele>2038.226</ele>
        <time>2021-05-28T19:28:59Z</time>
      </trkpt>
      <trkpt lat="42.542163" lon="2.468754">
        <ele>2037.867</ele>
        <time>2021-05-28T19:29:02Z</time>
      </trkpt>
      <trkpt lat="42.542176" lon="2.468772">
        <ele>2037.966</ele>
        <time>2021-05-28T19:29:05Z</time>
      </trkpt>
      <trkpt lat="42.542194" lon="2.468788">
        <ele>2037.923</ele>
        <time>2021-05-28T19:29:08Z</time>
      </trkpt>
      <trkpt lat="42.542212" lon="2.468790">
        <ele>2037.488</ele>
        <time>2021-05-28T19:29:10Z</time>
      </trkpt>
      <trkpt lat="42.542228" lon="2.468804">
        <ele>2037.425</ele>
        <time>2021-05-28T19:29:12Z</time>
      </trkpt>
      <trkpt lat="42.542298" lon="2.468862">
        <ele>2036.853</ele>
        <time>2021-05-28T19:29:19Z</time>
      </trkpt>
      <trkpt lat="42.542324" lon="2.468893">
        <ele>2036.856</ele>
        <time>2021-05-28T19:29:23Z</time>
      </trkpt>
      <trkpt lat="42.542344" lon="2.468907">
        <ele>2036.459</ele>
        <time>2021-05-28T19:29:25Z</time>
      </trkpt>
      <trkpt lat="42.542366" lon="2.468922">
        <ele>2036.114</ele>
        <time>2021-05-28T19:29:28Z</time>
      </trkpt>
      <trkpt lat="42.542414" lon="2.468958">
        <ele>2035.408</ele>
        <time>2021-05-28T19:29:33Z</time>
      </trkpt>
      <trkpt lat="42.542443" lon="2.468978">
        <ele>2035.062</ele>
        <time>2021-05-28T19:29:38Z</time>
      </trkpt>
      <trkpt lat="42.542528" lon="2.469039">
        <ele>2034.029</ele>
        <time>2021-05-28T19:29:47Z</time>
      </trkpt>
      <trkpt lat="42.542621" lon="2.469086">
        <ele>2032.880</ele>
        <time>2021-05-28T19:29:54Z</time>
      </trkpt>
      <trkpt lat="42.542702" lon="2.469137">
        <ele>2032.149</ele>
        <time>2021-05-28T19:30:02Z</time>
      </trkpt>
      <trkpt lat="42.542791" lon="2.469163">
        <ele>2030.736</ele>
        <time>2021-05-28T19:30:10Z</time>
      </trkpt>
      <trkpt lat="42.542878" lon="2.469209">
        <ele>2031.091</ele>
        <time>2021-05-28T19:30:18Z</time>
      </trkpt>
      <trkpt lat="42.542966" lon="2.469234">
        <ele>2030.818</ele>
        <time>2021-05-28T19:30:25Z</time>
      </trkpt>
      <trkpt lat="42.543055" lon="2.469267">
        <ele>2031.076</ele>
        <time>2021-05-28T19:30:32Z</time>
      </trkpt>
      <trkpt lat="42.543147" lon="2.469300">
        <ele>2032.095</ele>
        <time>2021-05-28T19:30:40Z</time>
      </trkpt>
      <trkpt lat="42.543236" lon="2.469358">
        <ele>2033.749</ele>
        <time>2021-05-28T19:30:50Z</time>
      </trkpt>
      <trkpt lat="42.543314" lon="2.469407">
        <ele>2034.923</ele>
        <time>2021-05-28T19:30:56Z</time>
      </trkpt>
      <trkpt lat="42.543339" lon="2.469408">
        <ele>2034.808</ele>
        <time>2021-05-28T19:30:59Z</time>
      </trkpt>
      <trkpt lat="42.543362" lon="2.469400">
        <ele>2034.366</ele>
        <time>2021-05-28T19:31:01Z</time>
      </trkpt>
      <trkpt lat="42.543437" lon="2.469431">
        <ele>2034.863</ele>
        <time>2021-05-28T19:31:08Z</time>
      </trkpt>
      <trkpt lat="42.543534" lon="2.469452">
        <ele>2034.714</ele>
        <time>2021-05-28T19:31:16Z</time>
      </trkpt>
      <trkpt lat="42.543607" lon="2.469500">
        <ele>2035.223</ele>
        <time>2021-05-28T19:31:24Z</time>
      </trkpt>
      <trkpt lat="42.543641" lon="2.469525">
        <ele>2035.040</ele>
        <time>2021-05-28T19:31:27Z</time>
      </trkpt>
      <trkpt lat="42.543658" lon="2.469540">
        <ele>2034.975</ele>
        <time>2021-05-28T19:31:29Z</time>
      </trkpt>
      <trkpt lat="42.543673" lon="2.469558">
        <ele>2034.912</ele>
        <time>2021-05-28T19:31:31Z</time>
      </trkpt>
      <trkpt lat="42.543698" lon="2.469581">
        <ele>2034.810</ele>
        <time>2021-05-28T19:31:34Z</time>
      </trkpt>
      <trkpt lat="42.543719" lon="2.469593">
        <ele>2034.521</ele>
        <time>2021-05-28T19:31:36Z</time>
      </trkpt>
      <trkpt lat="42.543750" lon="2.469614">
        <ele>2034.241</ele>
        <time>2021-05-28T19:31:39Z</time>
      </trkpt>
      <trkpt lat="42.543778" lon="2.469616">
        <ele>2033.505</ele>
        <time>2021-05-28T19:31:42Z</time>
      </trkpt>
      <trkpt lat="42.543805" lon="2.469630">
        <ele>2033.108</ele>
        <time>2021-05-28T19:31:43Z</time>
      </trkpt>
      <trkpt lat="42.543823" lon="2.469632">
        <ele>2032.759</ele>
        <time>2021-05-28T19:31:45Z</time>
      </trkpt>
      <trkpt lat="42.543852" lon="2.469653">
        <ele>2032.416</ele>
        <time>2021-05-28T19:31:48Z</time>
      </trkpt>
      <trkpt lat="42.543884" lon="2.469667">
        <ele>2031.977</ele>
        <time>2021-05-28T19:31:50Z</time>
      </trkpt>
      <trkpt lat="42.543901" lon="2.469677">
        <ele>2031.816</ele>
        <time>2021-05-28T19:31:51Z</time>
      </trkpt>
      <trkpt lat="42.543920" lon="2.469686">
        <ele>2031.653</ele>
        <time>2021-05-28T19:31:52Z</time>
      </trkpt>
      <trkpt lat="42.543942" lon="2.469698">
        <ele>2031.588</ele>
        <time>2021-05-28T19:31:53Z</time>
      </trkpt>
      <trkpt lat="42.543978" lon="2.469724">
        <ele>2031.455</ele>
        <time>2021-05-28T19:31:55Z</time>
      </trkpt>
      <trkpt lat="42.544040" lon="2.469753">
        <ele>2030.543</ele>
        <time>2021-05-28T19:31:58Z</time>
      </trkpt>
      <trkpt lat="42.544075" lon="2.469761">
        <ele>2029.914</ele>
        <time>2021-05-28T19:32:00Z</time>
      </trkpt>
      <trkpt lat="42.544108" lon="2.469771">
        <ele>2029.354</ele>
        <time>2021-05-28T19:32:02Z</time>
      </trkpt>
      <trkpt lat="42.544135" lon="2.469781">
        <ele>2028.909</ele>
        <time>2021-05-28T19:32:04Z</time>
      </trkpt>
      <trkpt lat="42.544155" lon="2.469789">
        <ele>2028.508</ele>
        <time>2021-05-28T19:32:05Z</time>
      </trkpt>
      <trkpt lat="42.544173" lon="2.469794">
        <ele>2028.268</ele>
        <time>2021-05-28T19:32:06Z</time>
      </trkpt>
      <trkpt lat="42.544207" lon="2.469805">
        <ele>2028.175</ele>
        <time>2021-05-28T19:32:08Z</time>
      </trkpt>
      <trkpt lat="42.544232" lon="2.469821">
        <ele>2028.056</ele>
        <time>2021-05-28T19:32:10Z</time>
      </trkpt>
      <trkpt lat="42.544249" lon="2.469831">
        <ele>2027.955</ele>
        <time>2021-05-28T19:32:11Z</time>
      </trkpt>
      <trkpt lat="42.544269" lon="2.469836">
        <ele>2027.832</ele>
        <time>2021-05-28T19:32:12Z</time>
      </trkpt>
      <trkpt lat="42.544287" lon="2.469843">
        <ele>2027.777</ele>
        <time>2021-05-28T19:32:13Z</time>
      </trkpt>
      <trkpt lat="42.544306" lon="2.469846">
        <ele>2027.674</ele>
        <time>2021-05-28T19:32:14Z</time>
      </trkpt>
      <trkpt lat="42.544324" lon="2.469851">
        <ele>2027.492</ele>
        <time>2021-05-28T19:32:15Z</time>
      </trkpt>
      <trkpt lat="42.544343" lon="2.469848">
        <ele>2027.396</ele>
        <time>2021-05-28T19:32:16Z</time>
      </trkpt>
      <trkpt lat="42.544376" lon="2.469847">
        <ele>2027.131</ele>
        <time>2021-05-28T19:32:18Z</time>
      </trkpt>
      <trkpt lat="42.544405" lon="2.469839">
        <ele>2027.024</ele>
        <time>2021-05-28T19:32:20Z</time>
      </trkpt>
      <trkpt lat="42.544423" lon="2.469826">
        <ele>2027.008</ele>
        <time>2021-05-28T19:32:22Z</time>
      </trkpt>
      <trkpt lat="42.544449" lon="2.469813">
        <ele>2027.016</ele>
        <time>2021-05-28T19:32:24Z</time>
      </trkpt>
      <trkpt lat="42.544469" lon="2.469794">
        <ele>2027.113</ele>
        <time>2021-05-28T19:32:26Z</time>
      </trkpt>
      <trkpt lat="42.544502" lon="2.469795">
        <ele>2027.054</ele>
        <time>2021-05-28T19:32:28Z</time>
      </trkpt>
      <trkpt lat="42.544535" lon="2.469781">
        <ele>2027.153</ele>
        <time>2021-05-28T19:32:30Z</time>
      </trkpt>
      <trkpt lat="42.544553" lon="2.469783">
        <ele>2027.040</ele>
        <time>2021-05-28T19:32:31Z</time>
      </trkpt>
      <trkpt lat="42.544581" lon="2.469777">
        <ele>2027.065</ele>
        <time>2021-05-28T19:32:33Z</time>
      </trkpt>
      <trkpt lat="42.544606" lon="2.469767">
        <ele>2027.142</ele>
        <time>2021-05-28T19:32:35Z</time>
      </trkpt>
      <trkpt lat="42.544626" lon="2.469771">
        <ele>2027.050</ele>
        <time>2021-05-28T19:32:38Z</time>
      </trkpt>
      <trkpt lat="42.544648" lon="2.469772">
        <ele>2026.978</ele>
        <time>2021-05-28T19:32:40Z</time>
      </trkpt>
      <trkpt lat="42.544672" lon="2.469773">
        <ele>2026.933</ele>
        <time>2021-05-28T19:32:42Z</time>
      </trkpt>
      <trkpt lat="42.544703" lon="2.469758">
        <ele>2027.126</ele>
        <time>2021-05-28T19:32:44Z</time>
      </trkpt>
      <trkpt lat="42.544737" lon="2.469760">
        <ele>2027.108</ele>
        <time>2021-05-28T19:32:46Z</time>
      </trkpt>
      <trkpt lat="42.544755" lon="2.469756">
        <ele>2027.264</ele>
        <time>2021-05-28T19:32:47Z</time>
      </trkpt>
      <trkpt lat="42.544783" lon="2.469752">
        <ele>2027.421</ele>
        <time>2021-05-28T19:32:49Z</time>
      </trkpt>
      <trkpt lat="42.544819" lon="2.469745">
        <ele>2027.642</ele>
        <time>2021-05-28T19:32:52Z</time>
      </trkpt>
      <trkpt lat="42.544840" lon="2.469727">
        <ele>2028.351</ele>
        <time>2021-05-28T19:32:55Z</time>
      </trkpt>
      <trkpt lat="42.544876" lon="2.469724">
        <ele>2028.548</ele>
        <time>2021-05-28T19:32:58Z</time>
      </trkpt>
      <trkpt lat="42.544904" lon="2.469718">
        <ele>2028.563</ele>
        <time>2021-05-28T19:33:00Z</time>
      </trkpt>
      <trkpt lat="42.544929" lon="2.469691">
        <ele>2027.410</ele>
        <time>2021-05-28T19:33:02Z</time>
      </trkpt>
      <trkpt lat="42.544943" lon="2.469675">
        <ele>2026.838</ele>
        <time>2021-05-28T19:33:03Z</time>
      </trkpt>
      <trkpt lat="42.544973" lon="2.469656">
        <ele>2026.036</ele>
        <time>2021-05-28T19:33:05Z</time>
      </trkpt>
      <trkpt lat="42.545004" lon="2.469636">
        <ele>2025.317</ele>
        <time>2021-05-28T19:33:08Z</time>
      </trkpt>
      <trkpt lat="42.545028" lon="2.469628">
        <ele>2025.118</ele>
        <time>2021-05-28T19:33:10Z</time>
      </trkpt>
      <trkpt lat="42.545087" lon="2.469588">
        <ele>2023.808</ele>
        <time>2021-05-28T19:33:15Z</time>
      </trkpt>
      <trkpt lat="42.545119" lon="2.469572">
        <ele>2023.460</ele>
        <time>2021-05-28T19:33:17Z</time>
      </trkpt>
      <trkpt lat="42.545148" lon="2.469557">
        <ele>2023.057</ele>
        <time>2021-05-28T19:33:19Z</time>
      </trkpt>
      <trkpt lat="42.545165" lon="2.469545">
        <ele>2022.718</ele>
        <time>2021-05-28T19:33:20Z</time>
      </trkpt>
      <trkpt lat="42.545188" lon="2.469530">
        <ele>2022.357</ele>
        <time>2021-05-28T19:33:22Z</time>
      </trkpt>
      <trkpt lat="42.545222" lon="2.469539">
        <ele>2022.954</ele>
        <time>2021-05-28T19:33:24Z</time>
      </trkpt>
      <trkpt lat="42.545240" lon="2.469545">
        <ele>2023.329</ele>
        <time>2021-05-28T19:33:25Z</time>
      </trkpt>
      <trkpt lat="42.545263" lon="2.469533">
        <ele>2023.196</ele>
        <time>2021-05-28T19:33:26Z</time>
      </trkpt>
      <trkpt lat="42.545294" lon="2.469519">
        <ele>2022.624</ele>
        <time>2021-05-28T19:33:28Z</time>
      </trkpt>
      <trkpt lat="42.545319" lon="2.469524">
        <ele>2022.611</ele>
        <time>2021-05-28T19:33:30Z</time>
      </trkpt>
      <trkpt lat="42.545357" lon="2.469533">
        <ele>2022.621</ele>
        <time>2021-05-28T19:33:32Z</time>
      </trkpt>
      <trkpt lat="42.545380" lon="2.469538">
        <ele>2022.503</ele>
        <time>2021-05-28T19:33:33Z</time>
      </trkpt>
      <trkpt lat="42.545399" lon="2.469542">
        <ele>2022.408</ele>
        <time>2021-05-28T19:33:34Z</time>
      </trkpt>
      <trkpt lat="42.545425" lon="2.469544">
        <ele>2022.338</ele>
        <time>2021-05-28T19:33:36Z</time>
      </trkpt>
      <trkpt lat="42.545451" lon="2.469544">
        <ele>2022.075</ele>
        <time>2021-05-28T19:33:38Z</time>
      </trkpt>
      <trkpt lat="42.545477" lon="2.469530">
        <ele>2021.586</ele>
        <time>2021-05-28T19:33:40Z</time>
      </trkpt>
      <trkpt lat="42.545501" lon="2.469513">
        <ele>2021.165</ele>
        <time>2021-05-28T19:33:42Z</time>
      </trkpt>
      <trkpt lat="42.545530" lon="2.469509">
        <ele>2020.852</ele>
        <time>2021-05-28T19:33:44Z</time>
      </trkpt>
      <trkpt lat="42.545560" lon="2.469507">
        <ele>2020.727</ele>
        <time>2021-05-28T19:33:46Z</time>
      </trkpt>
      <trkpt lat="42.545596" lon="2.469498">
        <ele>2020.644</ele>
        <time>2021-05-28T19:33:48Z</time>
      </trkpt>
      <trkpt lat="42.545613" lon="2.469487">
        <ele>2020.612</ele>
        <time>2021-05-28T19:33:49Z</time>
      </trkpt>
      <trkpt lat="42.545640" lon="2.469474">
        <ele>2020.628</ele>
        <time>2021-05-28T19:33:51Z</time>
      </trkpt>
      <trkpt lat="42.545673" lon="2.469465">
        <ele>2020.889</ele>
        <time>2021-05-28T19:33:53Z</time>
      </trkpt>
      <trkpt lat="42.545699" lon="2.469441">
        <ele>2021.017</ele>
        <time>2021-05-28T19:33:55Z</time>
      </trkpt>
      <trkpt lat="42.545715" lon="2.469429">
        <ele>2020.908</ele>
        <time>2021-05-28T19:33:56Z</time>
      </trkpt>
      <trkpt lat="42.545742" lon="2.469400">
        <ele>2020.799</ele>
        <time>2021-05-28T19:33:58Z</time>
      </trkpt>
      <trkpt lat="42.545754" lon="2.469381">
        <ele>2020.636</ele>
        <time>2021-05-28T19:33:59Z</time>
      </trkpt>
      <trkpt lat="42.545778" lon="2.469348">
        <ele>2020.587</ele>
        <time>2021-05-28T19:34:01Z</time>
      </trkpt>
      <trkpt lat="42.545803" lon="2.469317">
        <ele>2020.676</ele>
        <time>2021-05-28T19:34:03Z</time>
      </trkpt>
      <trkpt lat="42.545823" lon="2.469300">
        <ele>2020.833</ele>
        <time>2021-05-28T19:34:04Z</time>
      </trkpt>
      <trkpt lat="42.545841" lon="2.469279">
        <ele>2021.068</ele>
        <time>2021-05-28T19:34:05Z</time>
      </trkpt>
      <trkpt lat="42.545855" lon="2.469261">
        <ele>2021.155</ele>
        <time>2021-05-28T19:34:06Z</time>
      </trkpt>
      <trkpt lat="42.545866" lon="2.469242">
        <ele>2021.343</ele>
        <time>2021-05-28T19:34:07Z</time>
      </trkpt>
      <trkpt lat="42.545888" lon="2.469209">
        <ele>2021.783</ele>
        <time>2021-05-28T19:34:09Z</time>
      </trkpt>
      <trkpt lat="42.545907" lon="2.469186">
        <ele>2022.125</ele>
        <time>2021-05-28T19:34:11Z</time>
      </trkpt>
      <trkpt lat="42.545926" lon="2.469161">
        <ele>2022.517</ele>
        <time>2021-05-28T19:34:13Z</time>
      </trkpt>
      <trkpt lat="42.545950" lon="2.469137">
        <ele>2022.308</ele>
        <time>2021-05-28T19:34:15Z</time>
      </trkpt>
      <trkpt lat="42.545972" lon="2.469120">
        <ele>2022.375</ele>
        <time>2021-05-28T19:34:17Z</time>
      </trkpt>
      <trkpt lat="42.546000" lon="2.469095">
        <ele>2022.232</ele>
        <time>2021-05-28T19:34:19Z</time>
      </trkpt>
      <trkpt lat="42.546022" lon="2.469083">
        <ele>2022.383</ele>
        <time>2021-05-28T19:34:21Z</time>
      </trkpt>
      <trkpt lat="42.546049" lon="2.469067">
        <ele>2022.462</ele>
        <time>2021-05-28T19:34:23Z</time>
      </trkpt>
      <trkpt lat="42.546074" lon="2.469042">
        <ele>2022.159</ele>
        <time>2021-05-28T19:34:25Z</time>
      </trkpt>
      <trkpt lat="42.546103" lon="2.469033">
        <ele>2022.574</ele>
        <time>2021-05-28T19:34:27Z</time>
      </trkpt>
      <trkpt lat="42.546132" lon="2.469026">
        <ele>2022.551</ele>
        <time>2021-05-28T19:34:29Z</time>
      </trkpt>
      <trkpt lat="42.546159" lon="2.469024">
        <ele>2022.499</ele>
        <time>2021-05-28T19:34:31Z</time>
      </trkpt>
      <trkpt lat="42.546182" lon="2.469021">
        <ele>2022.486</ele>
        <time>2021-05-28T19:34:33Z</time>
      </trkpt>
      <trkpt lat="42.546208" lon="2.469013">
        <ele>2022.160</ele>
        <time>2021-05-28T19:34:35Z</time>
      </trkpt>
      <trkpt lat="42.546234" lon="2.469001">
        <ele>2021.626</ele>
        <time>2021-05-28T19:34:37Z</time>
      </trkpt>
      <trkpt lat="42.546261" lon="2.468991">
        <ele>2021.208</ele>
        <time>2021-05-28T19:34:39Z</time>
      </trkpt>
      <trkpt lat="42.546291" lon="2.468977">
        <ele>2020.745</ele>
        <time>2021-05-28T19:34:41Z</time>
      </trkpt>
      <trkpt lat="42.546317" lon="2.468962">
        <ele>2020.172</ele>
        <time>2021-05-28T19:34:43Z</time>
      </trkpt>
      <trkpt lat="42.546344" lon="2.468950">
        <ele>2019.643</ele>
        <time>2021-05-28T19:34:45Z</time>
      </trkpt>
      <trkpt lat="42.546366" lon="2.468938">
        <ele>2019.192</ele>
        <time>2021-05-28T19:34:47Z</time>
      </trkpt>
      <trkpt lat="42.546391" lon="2.468937">
        <ele>2019.149</ele>
        <time>2021-05-28T19:34:49Z</time>
      </trkpt>
      <trkpt lat="42.546411" lon="2.468933">
        <ele>2018.834</ele>
        <time>2021-05-28T19:34:51Z</time>
      </trkpt>
      <trkpt lat="42.546431" lon="2.468926">
        <ele>2018.421</ele>
        <time>2021-05-28T19:34:53Z</time>
      </trkpt>
      <trkpt lat="42.546454" lon="2.468926">
        <ele>2018.329</ele>
        <time>2021-05-28T19:34:55Z</time>
      </trkpt>
      <trkpt lat="42.546475" lon="2.468920">
        <ele>2018.034</ele>
        <time>2021-05-28T19:34:57Z</time>
      </trkpt>
      <trkpt lat="42.546498" lon="2.468914">
        <ele>2017.855</ele>
        <time>2021-05-28T19:34:59Z</time>
      </trkpt>
      <trkpt lat="42.546525" lon="2.468915">
        <ele>2017.710</ele>
        <time>2021-05-28T19:35:01Z</time>
      </trkpt>
      <trkpt lat="42.546550" lon="2.468912">
        <ele>2017.608</ele>
        <time>2021-05-28T19:35:03Z</time>
      </trkpt>
      <trkpt lat="42.546577" lon="2.468898">
        <ele>2017.280</ele>
        <time>2021-05-28T19:35:05Z</time>
      </trkpt>
      <trkpt lat="42.546596" lon="2.468897">
        <ele>2017.267</ele>
        <time>2021-05-28T19:35:06Z</time>
      </trkpt>
      <trkpt lat="42.546617" lon="2.468898">
        <ele>2017.248</ele>
        <time>2021-05-28T19:35:07Z</time>
      </trkpt>
      <trkpt lat="42.546651" lon="2.468899">
        <ele>2017.157</ele>
        <time>2021-05-28T19:35:09Z</time>
      </trkpt>
      <trkpt lat="42.546672" lon="2.468902">
        <ele>2017.054</ele>
        <time>2021-05-28T19:35:10Z</time>
      </trkpt>
      <trkpt lat="42.546693" lon="2.468907">
        <ele>2016.659</ele>
        <time>2021-05-28T19:35:11Z</time>
      </trkpt>
      <trkpt lat="42.546712" lon="2.468909">
        <ele>2016.296</ele>
        <time>2021-05-28T19:35:12Z</time>
      </trkpt>
      <trkpt lat="42.546731" lon="2.468911">
        <ele>2015.754</ele>
        <time>2021-05-28T19:35:13Z</time>
      </trkpt>
      <trkpt lat="42.546757" lon="2.468925">
        <ele>2015.128</ele>
        <time>2021-05-28T19:35:15Z</time>
      </trkpt>
      <trkpt lat="42.546781" lon="2.468939">
        <ele>2014.689</ele>
        <time>2021-05-28T19:35:17Z</time>
      </trkpt>
      <trkpt lat="42.546810" lon="2.468933">
        <ele>2013.817</ele>
        <time>2021-05-28T19:35:19Z</time>
      </trkpt>
      <trkpt lat="42.546845" lon="2.468930">
        <ele>2012.908</ele>
        <time>2021-05-28T19:35:21Z</time>
      </trkpt>
      <trkpt lat="42.546877" lon="2.468928">
        <ele>2012.169</ele>
        <time>2021-05-28T19:35:23Z</time>
      </trkpt>
      <trkpt lat="42.546908" lon="2.468930">
        <ele>2011.316</ele>
        <time>2021-05-28T19:35:25Z</time>
      </trkpt>
      <trkpt lat="42.546927" lon="2.468931">
        <ele>2010.897</ele>
        <time>2021-05-28T19:35:26Z</time>
      </trkpt>
      <trkpt lat="42.546945" lon="2.468935">
        <ele>2010.396</ele>
        <time>2021-05-28T19:35:27Z</time>
      </trkpt>
      <trkpt lat="42.546977" lon="2.468948">
        <ele>2010.453</ele>
        <time>2021-05-28T19:35:30Z</time>
      </trkpt>
      <trkpt lat="42.547006" lon="2.468958">
        <ele>2010.478</ele>
        <time>2021-05-28T19:35:31Z</time>
      </trkpt>
      <trkpt lat="42.547025" lon="2.468961">
        <ele>2010.545</ele>
        <time>2021-05-28T19:35:32Z</time>
      </trkpt>
      <trkpt lat="42.547057" lon="2.468971">
        <ele>2010.493</ele>
        <time>2021-05-28T19:35:34Z</time>
      </trkpt>
      <trkpt lat="42.547083" lon="2.468970">
        <ele>2010.649</ele>
        <time>2021-05-28T19:35:36Z</time>
      </trkpt>
      <trkpt lat="42.547111" lon="2.468980">
        <ele>2010.502</ele>
        <time>2021-05-28T19:35:38Z</time>
      </trkpt>
      <trkpt lat="42.547136" lon="2.469001">
        <ele>2010.122</ele>
        <time>2021-05-28T19:35:40Z</time>
      </trkpt>
      <trkpt lat="42.547148" lon="2.469029">
        <ele>2009.308</ele>
        <time>2021-05-28T19:35:42Z</time>
      </trkpt>
      <trkpt lat="42.547143" lon="2.469058">
        <ele>2008.541</ele>
        <time>2021-05-28T19:35:44Z</time>
      </trkpt>
      <trkpt lat="42.547146" lon="2.469096">
        <ele>2007.598</ele>
        <time>2021-05-28T19:35:46Z</time>
      </trkpt>
      <trkpt lat="42.547162" lon="2.469128">
        <ele>2006.579</ele>
        <time>2021-05-28T19:35:48Z</time>
      </trkpt>
      <trkpt lat="42.547177" lon="2.469153">
        <ele>2005.798</ele>
        <time>2021-05-28T19:35:50Z</time>
      </trkpt>
      <trkpt lat="42.547197" lon="2.469172">
        <ele>2004.985</ele>
        <time>2021-05-28T19:35:52Z</time>
      </trkpt>
      <trkpt lat="42.547226" lon="2.469192">
        <ele>2004.150</ele>
        <time>2021-05-28T19:35:54Z</time>
      </trkpt>
      <trkpt lat="42.547251" lon="2.469213">
        <ele>2004.117</ele>
        <time>2021-05-28T19:35:56Z</time>
      </trkpt>
      <trkpt lat="42.547276" lon="2.469227">
        <ele>2004.475</ele>
        <time>2021-05-28T19:35:58Z</time>
      </trkpt>
      <trkpt lat="42.547296" lon="2.469247">
        <ele>2004.253</ele>
        <time>2021-05-28T19:36:01Z</time>
      </trkpt>
      <trkpt lat="42.547311" lon="2.469270">
        <ele>2003.704</ele>
        <time>2021-05-28T19:36:03Z</time>
      </trkpt>
      <trkpt lat="42.547325" lon="2.469302">
        <ele>2002.714</ele>
        <time>2021-05-28T19:36:05Z</time>
      </trkpt>
      <trkpt lat="42.547341" lon="2.469333">
        <ele>2001.808</ele>
        <time>2021-05-28T19:36:08Z</time>
      </trkpt>
      <trkpt lat="42.547360" lon="2.469360">
        <ele>2001.192</ele>
        <time>2021-05-28T19:36:09Z</time>
      </trkpt>
      <trkpt lat="42.547376" lon="2.469375">
        <ele>2000.879</ele>
        <time>2021-05-28T19:36:11Z</time>
      </trkpt>
      <trkpt lat="42.547391" lon="2.469391">
        <ele>2000.510</ele>
        <time>2021-05-28T19:36:13Z</time>
      </trkpt>
      <trkpt lat="42.547405" lon="2.469408">
        <ele>2000.179</ele>
        <time>2021-05-28T19:36:15Z</time>
      </trkpt>
      <trkpt lat="42.547424" lon="2.469419">
        <ele>2000.176</ele>
        <time>2021-05-28T19:36:17Z</time>
      </trkpt>
      <trkpt lat="42.547444" lon="2.469431">
        <ele>2000.181</ele>
        <time>2021-05-28T19:36:19Z</time>
      </trkpt>
      <trkpt lat="42.547461" lon="2.469456">
        <ele>1999.378</ele>
        <time>2021-05-28T19:36:22Z</time>
      </trkpt>
      <trkpt lat="42.547477" lon="2.469476">
        <ele>1998.816</ele>
        <time>2021-05-28T19:36:24Z</time>
      </trkpt>
      <trkpt lat="42.547496" lon="2.469492">
        <ele>1998.687</ele>
        <time>2021-05-28T19:36:26Z</time>
      </trkpt>
      <trkpt lat="42.547517" lon="2.469495">
        <ele>1999.042</ele>
        <time>2021-05-28T19:36:29Z</time>
      </trkpt>
      <trkpt lat="42.547534" lon="2.469504">
        <ele>1998.926</ele>
        <time>2021-05-28T19:36:31Z</time>
      </trkpt>
      <trkpt lat="42.547557" lon="2.469511">
        <ele>1999.008</ele>
        <time>2021-05-28T19:36:33Z</time>
      </trkpt>
      <trkpt lat="42.547590" lon="2.469524">
        <ele>1998.915</ele>
        <time>2021-05-28T19:36:36Z</time>
      </trkpt>
      <trkpt lat="42.547602" lon="2.469544">
        <ele>1998.122</ele>
        <time>2021-05-28T19:36:38Z</time>
      </trkpt>
      <trkpt lat="42.547625" lon="2.469552">
        <ele>1998.193</ele>
        <time>2021-05-28T19:36:40Z</time>
      </trkpt>
      <trkpt lat="42.547659" lon="2.469548">
        <ele>1998.982</ele>
        <time>2021-05-28T19:36:42Z</time>
      </trkpt>
      <trkpt lat="42.547681" lon="2.469533">
        <ele>2000.159</ele>
        <time>2021-05-28T19:36:43Z</time>
      </trkpt>
      <trkpt lat="42.547758" lon="2.469568">
        <ele>1999.614</ele>
        <time>2021-05-28T19:36:51Z</time>
      </trkpt>
      <trkpt lat="42.547773" lon="2.469586">
        <ele>1998.891</ele>
        <time>2021-05-28T19:36:53Z</time>
      </trkpt>
      <trkpt lat="42.547791" lon="2.469608">
        <ele>1997.899</ele>
        <time>2021-05-28T19:36:55Z</time>
      </trkpt>
      <trkpt lat="42.547833" lon="2.469627">
        <ele>1997.385</ele>
        <time>2021-05-28T19:36:59Z</time>
      </trkpt>
      <trkpt lat="42.547921" lon="2.469687">
        <ele>1995.189</ele>
        <time>2021-05-28T19:37:09Z</time>
      </trkpt>
      <trkpt lat="42.547971" lon="2.469685">
        <ele>1995.917</ele>
        <time>2021-05-28T19:37:14Z</time>
      </trkpt>
      <trkpt lat="42.547990" lon="2.469708">
        <ele>1994.908</ele>
        <time>2021-05-28T19:37:16Z</time>
      </trkpt>
      <trkpt lat="42.548012" lon="2.469724">
        <ele>1994.395</ele>
        <time>2021-05-28T19:37:18Z</time>
      </trkpt>
      <trkpt lat="42.548040" lon="2.469734">
        <ele>1994.172</ele>
        <time>2021-05-28T19:37:20Z</time>
      </trkpt>
      <trkpt lat="42.548061" lon="2.469751">
        <ele>1993.223</ele>
        <time>2021-05-28T19:37:22Z</time>
      </trkpt>
      <trkpt lat="42.548088" lon="2.469758">
        <ele>1992.442</ele>
        <time>2021-05-28T19:37:25Z</time>
      </trkpt>
      <trkpt lat="42.548150" lon="2.469736">
        <ele>1992.569</ele>
        <time>2021-05-28T19:37:29Z</time>
      </trkpt>
      <trkpt lat="42.548176" lon="2.469723">
        <ele>1992.834</ele>
        <time>2021-05-28T19:37:31Z</time>
      </trkpt>
      <trkpt lat="42.548203" lon="2.469717">
        <ele>1992.681</ele>
        <time>2021-05-28T19:37:33Z</time>
      </trkpt>
      <trkpt lat="42.548235" lon="2.469703">
        <ele>1992.879</ele>
        <time>2021-05-28T19:37:35Z</time>
      </trkpt>
      <trkpt lat="42.548272" lon="2.469703">
        <ele>1992.217</ele>
        <time>2021-05-28T19:37:38Z</time>
      </trkpt>
      <trkpt lat="42.548300" lon="2.469706">
        <ele>1991.587</ele>
        <time>2021-05-28T19:37:39Z</time>
      </trkpt>
      <trkpt lat="42.548329" lon="2.469710">
        <ele>1990.715</ele>
        <time>2021-05-28T19:37:41Z</time>
      </trkpt>
      <trkpt lat="42.548354" lon="2.469708">
        <ele>1990.008</ele>
        <time>2021-05-28T19:37:43Z</time>
      </trkpt>
      <trkpt lat="42.548376" lon="2.469693">
        <ele>1990.088</ele>
        <time>2021-05-28T19:37:45Z</time>
      </trkpt>
      <trkpt lat="42.548404" lon="2.469667">
        <ele>1990.415</ele>
        <time>2021-05-28T19:37:47Z</time>
      </trkpt>
      <trkpt lat="42.548424" lon="2.469649">
        <ele>1990.776</ele>
        <time>2021-05-28T19:37:48Z</time>
      </trkpt>
      <trkpt lat="42.548447" lon="2.469621">
        <ele>1991.475</ele>
        <time>2021-05-28T19:37:50Z</time>
      </trkpt>
      <trkpt lat="42.548472" lon="2.469608">
        <ele>1991.282</ele>
        <time>2021-05-28T19:37:52Z</time>
      </trkpt>
      <trkpt lat="42.548492" lon="2.469595">
        <ele>1991.257</ele>
        <time>2021-05-28T19:37:54Z</time>
      </trkpt>
      <trkpt lat="42.548514" lon="2.469576">
        <ele>1991.444</ele>
        <time>2021-05-28T19:37:56Z</time>
      </trkpt>
      <trkpt lat="42.548537" lon="2.469565">
        <ele>1991.262</ele>
        <time>2021-05-28T19:37:58Z</time>
      </trkpt>
      <trkpt lat="42.548563" lon="2.469548">
        <ele>1991.118</ele>
        <time>2021-05-28T19:38:00Z</time>
      </trkpt>
      <trkpt lat="42.548588" lon="2.469534">
        <ele>1991.098</ele>
        <time>2021-05-28T19:38:02Z</time>
      </trkpt>
      <trkpt lat="42.548611" lon="2.469525">
        <ele>1990.717</ele>
        <time>2021-05-28T19:38:04Z</time>
      </trkpt>
      <trkpt lat="42.548631" lon="2.469521">
        <ele>1990.108</ele>
        <time>2021-05-28T19:38:06Z</time>
      </trkpt>
      <trkpt lat="42.548653" lon="2.469501">
        <ele>1990.368</ele>
        <time>2021-05-28T19:38:09Z</time>
      </trkpt>
      <trkpt lat="42.548673" lon="2.469489">
        <ele>1990.215</ele>
        <time>2021-05-28T19:38:11Z</time>
      </trkpt>
      <trkpt lat="42.548696" lon="2.469493">
        <ele>1989.176</ele>
        <time>2021-05-28T19:38:13Z</time>
      </trkpt>
      <trkpt lat="42.548717" lon="2.469490">
        <ele>1988.535</ele>
        <time>2021-05-28T19:38:15Z</time>
      </trkpt>
      <trkpt lat="42.548741" lon="2.469472">
        <ele>1988.532</ele>
        <time>2021-05-28T19:38:17Z</time>
      </trkpt>
      <trkpt lat="42.548757" lon="2.469453">
        <ele>1988.867</ele>
        <time>2021-05-28T19:38:19Z</time>
      </trkpt>
      <trkpt lat="42.548787" lon="2.469415">
        <ele>1989.554</ele>
        <time>2021-05-28T19:38:22Z</time>
      </trkpt>
      <trkpt lat="42.548805" lon="2.469392">
        <ele>1990.082</ele>
        <time>2021-05-28T19:38:24Z</time>
      </trkpt>
      <trkpt lat="42.548826" lon="2.469379">
        <ele>1989.877</ele>
        <time>2021-05-28T19:38:26Z</time>
      </trkpt>
      <trkpt lat="42.548845" lon="2.469367">
        <ele>1989.661</ele>
        <time>2021-05-28T19:38:28Z</time>
      </trkpt>
      <trkpt lat="42.548866" lon="2.469375">
        <ele>1988.427</ele>
        <time>2021-05-28T19:38:30Z</time>
      </trkpt>
      <trkpt lat="42.548889" lon="2.469372">
        <ele>1987.608</ele>
        <time>2021-05-28T19:38:32Z</time>
      </trkpt>
      <trkpt lat="42.548908" lon="2.469360">
        <ele>1987.564</ele>
        <time>2021-05-28T19:38:34Z</time>
      </trkpt>
      <trkpt lat="42.548923" lon="2.469340">
        <ele>1988.061</ele>
        <time>2021-05-28T19:38:35Z</time>
      </trkpt>
      <trkpt lat="42.548951" lon="2.469317">
        <ele>1988.112</ele>
        <time>2021-05-28T19:38:38Z</time>
      </trkpt>
      <trkpt lat="42.548976" lon="2.469302">
        <ele>1987.941</ele>
        <time>2021-05-28T19:38:40Z</time>
      </trkpt>
      <trkpt lat="42.548996" lon="2.469296">
        <ele>1987.418</ele>
        <time>2021-05-28T19:38:41Z</time>
      </trkpt>
      <trkpt lat="42.549014" lon="2.469286">
        <ele>1987.273</ele>
        <time>2021-05-28T19:38:42Z</time>
      </trkpt>
      <trkpt lat="42.549040" lon="2.469272">
        <ele>1986.940</ele>
        <time>2021-05-28T19:38:45Z</time>
      </trkpt>
      <trkpt lat="42.549062" lon="2.469265">
        <ele>1986.428</ele>
        <time>2021-05-28T19:38:47Z</time>
      </trkpt>
      <trkpt lat="42.549086" lon="2.469265">
        <ele>1985.543</ele>
        <time>2021-05-28T19:38:49Z</time>
      </trkpt>
      <trkpt lat="42.549106" lon="2.469263">
        <ele>1984.864</ele>
        <time>2021-05-28T19:38:52Z</time>
      </trkpt>
      <trkpt lat="42.549128" lon="2.469256">
        <ele>1984.310</ele>
        <time>2021-05-28T19:38:54Z</time>
      </trkpt>
      <trkpt lat="42.549152" lon="2.469245">
        <ele>1983.908</ele>
        <time>2021-05-28T19:38:57Z</time>
      </trkpt>
      <trkpt lat="42.549173" lon="2.469245">
        <ele>1983.251</ele>
        <time>2021-05-28T19:38:59Z</time>
      </trkpt>
      <trkpt lat="42.549279" lon="2.469260">
        <ele>1980.998</ele>
        <time>2021-05-28T19:39:11Z</time>
      </trkpt>
      <trkpt lat="42.549309" lon="2.469272">
        <ele>1979.829</ele>
        <time>2021-05-28T19:39:13Z</time>
      </trkpt>
      <trkpt lat="42.549338" lon="2.469289">
        <ele>1978.588</ele>
        <time>2021-05-28T19:39:15Z</time>
      </trkpt>
      <trkpt lat="42.549427" lon="2.469305">
        <ele>1976.365</ele>
        <time>2021-05-28T19:39:23Z</time>
      </trkpt>
      <trkpt lat="42.549504" lon="2.469332">
        <ele>1973.940</ele>
        <time>2021-05-28T19:39:29Z</time>
      </trkpt>
      <trkpt lat="42.549563" lon="2.469354">
        <ele>1972.067</ele>
        <time>2021-05-28T19:39:34Z</time>
      </trkpt>
      <trkpt lat="42.549582" lon="2.469345">
        <ele>1972.255</ele>
        <time>2021-05-28T19:39:35Z</time>
      </trkpt>
      <trkpt lat="42.549625" lon="2.469342">
        <ele>1971.859</ele>
        <time>2021-05-28T19:39:39Z</time>
      </trkpt>
      <trkpt lat="42.549651" lon="2.469347">
        <ele>1971.203</ele>
        <time>2021-05-28T19:39:42Z</time>
      </trkpt>
      <trkpt lat="42.549673" lon="2.469358">
        <ele>1970.323</ele>
        <time>2021-05-28T19:39:44Z</time>
      </trkpt>
      <trkpt lat="42.549756" lon="2.469412">
        <ele>1966.508</ele>
        <time>2021-05-28T19:39:54Z</time>
      </trkpt>
      <trkpt lat="42.549845" lon="2.469450">
        <ele>1963.832</ele>
        <time>2021-05-28T19:40:02Z</time>
      </trkpt>
      <trkpt lat="42.549940" lon="2.469454">
        <ele>1962.919</ele>
        <time>2021-05-28T19:40:11Z</time>
      </trkpt>
      <trkpt lat="42.550026" lon="2.469508">
        <ele>1959.270</ele>
        <time>2021-05-28T19:40:18Z</time>
      </trkpt>
      <trkpt lat="42.550051" lon="2.469513">
        <ele>1958.919</ele>
        <time>2021-05-28T19:40:20Z</time>
      </trkpt>
      <trkpt lat="42.550071" lon="2.469509">
        <ele>1959.086</ele>
        <time>2021-05-28T19:40:22Z</time>
      </trkpt>
      <trkpt lat="42.550100" lon="2.469509">
        <ele>1958.971</ele>
        <time>2021-05-28T19:40:25Z</time>
      </trkpt>
      <trkpt lat="42.550122" lon="2.469516">
        <ele>1958.438</ele>
        <time>2021-05-28T19:40:27Z</time>
      </trkpt>
      <trkpt lat="42.550214" lon="2.469533">
        <ele>1957.146</ele>
        <time>2021-05-28T19:40:34Z</time>
      </trkpt>
      <trkpt lat="42.550306" lon="2.469556">
        <ele>1955.954</ele>
        <time>2021-05-28T19:40:41Z</time>
      </trkpt>
      <trkpt lat="42.550400" lon="2.469529">
        <ele>1958.556</ele>
        <time>2021-05-28T19:40:46Z</time>
      </trkpt>
      <trkpt lat="42.550495" lon="2.469524">
        <ele>1959.811</ele>
        <time>2021-05-28T19:40:51Z</time>
      </trkpt>
      <trkpt lat="42.550582" lon="2.469567">
        <ele>1957.808</ele>
        <time>2021-05-28T19:40:59Z</time>
      </trkpt>
      <trkpt lat="42.550665" lon="2.469647">
        <ele>1953.962</ele>
        <time>2021-05-28T19:41:05Z</time>
      </trkpt>
      <trkpt lat="42.550689" lon="2.469683">
        <ele>1952.619</ele>
        <time>2021-05-28T19:41:07Z</time>
      </trkpt>
      <trkpt lat="42.550702" lon="2.469704">
        <ele>1951.860</ele>
        <time>2021-05-28T19:41:08Z</time>
      </trkpt>
      <trkpt lat="42.550728" lon="2.469734">
        <ele>1951.019</ele>
        <time>2021-05-28T19:41:10Z</time>
      </trkpt>
      <trkpt lat="42.550753" lon="2.469738">
        <ele>1951.246</ele>
        <time>2021-05-28T19:41:12Z</time>
      </trkpt>
      <trkpt lat="42.550781" lon="2.469725">
        <ele>1952.161</ele>
        <time>2021-05-28T19:41:14Z</time>
      </trkpt>
      <trkpt lat="42.550807" lon="2.469724">
        <ele>1952.558</ele>
        <time>2021-05-28T19:41:16Z</time>
      </trkpt>
      <trkpt lat="42.550835" lon="2.469710">
        <ele>1953.236</ele>
        <time>2021-05-28T19:41:18Z</time>
      </trkpt>
      <trkpt lat="42.550859" lon="2.469686">
        <ele>1952.596</ele>
        <time>2021-05-28T19:41:20Z</time>
      </trkpt>
      <trkpt lat="42.550875" lon="2.469651">
        <ele>1952.531</ele>
        <time>2021-05-28T19:41:22Z</time>
      </trkpt>
      <trkpt lat="42.550890" lon="2.469627">
        <ele>1952.224</ele>
        <time>2021-05-28T19:41:24Z</time>
      </trkpt>
      <trkpt lat="42.550891" lon="2.469600">
        <ele>1952.808</ele>
        <time>2021-05-28T19:41:26Z</time>
      </trkpt>
      <trkpt lat="42.550905" lon="2.469571">
        <ele>1952.726</ele>
        <time>2021-05-28T19:41:28Z</time>
      </trkpt>
      <trkpt lat="42.550922" lon="2.469542">
        <ele>1952.373</ele>
        <time>2021-05-28T19:41:30Z</time>
      </trkpt>
      <trkpt lat="42.550944" lon="2.469506">
        <ele>1951.974</ele>
        <time>2021-05-28T19:41:32Z</time>
      </trkpt>
      <trkpt lat="42.550958" lon="2.469487">
        <ele>1951.483</ele>
        <time>2021-05-28T19:41:33Z</time>
      </trkpt>
      <trkpt lat="42.550965" lon="2.469464">
        <ele>1951.570</ele>
        <time>2021-05-28T19:41:34Z</time>
      </trkpt>
      <trkpt lat="42.550979" lon="2.469430">
        <ele>1951.435</ele>
        <time>2021-05-28T19:41:36Z</time>
      </trkpt>
      <trkpt lat="42.550990" lon="2.469395">
        <ele>1951.412</ele>
        <time>2021-05-28T19:41:38Z</time>
      </trkpt>
      <trkpt lat="42.551008" lon="2.469362">
        <ele>1950.940</ele>
        <time>2021-05-28T19:41:40Z</time>
      </trkpt>
      <trkpt lat="42.551027" lon="2.469338">
        <ele>1950.292</ele>
        <time>2021-05-28T19:41:42Z</time>
      </trkpt>
      <trkpt lat="42.551043" lon="2.469314">
        <ele>1949.673</ele>
        <time>2021-05-28T19:41:44Z</time>
      </trkpt>
      <trkpt lat="42.551063" lon="2.469286">
        <ele>1948.920</ele>
        <time>2021-05-28T19:41:46Z</time>
      </trkpt>
      <trkpt lat="42.551081" lon="2.469277">
        <ele>1947.908</ele>
        <time>2021-05-28T19:41:47Z</time>
      </trkpt>
      <trkpt lat="42.551099" lon="2.469267">
        <ele>1947.016</ele>
        <time>2021-05-28T19:41:48Z</time>
      </trkpt>
      <trkpt lat="42.551119" lon="2.469258">
        <ele>1945.723</ele>
        <time>2021-05-28T19:41:49Z</time>
      </trkpt>
      <trkpt lat="42.551136" lon="2.469244">
        <ele>1944.744</ele>
        <time>2021-05-28T19:41:50Z</time>
      </trkpt>
      <trkpt lat="42.551153" lon="2.469236">
        <ele>1943.593</ele>
        <time>2021-05-28T19:41:51Z</time>
      </trkpt>
      <trkpt lat="42.551170" lon="2.469222">
        <ele>1942.460</ele>
        <time>2021-05-28T19:41:52Z</time>
      </trkpt>
      <trkpt lat="42.551192" lon="2.469202">
        <ele>1941.025</ele>
        <time>2021-05-28T19:41:53Z</time>
      </trkpt>
      <trkpt lat="42.551207" lon="2.469184">
        <ele>1940.142</ele>
        <time>2021-05-28T19:41:54Z</time>
      </trkpt>
      <trkpt lat="42.551225" lon="2.469167">
        <ele>1939.040</ele>
        <time>2021-05-28T19:41:57Z</time>
      </trkpt>
      <trkpt lat="42.551240" lon="2.469151">
        <ele>1938.086</ele>
        <time>2021-05-28T19:41:59Z</time>
      </trkpt>
      <trkpt lat="42.551255" lon="2.469126">
        <ele>1937.360</ele>
        <time>2021-05-28T19:42:01Z</time>
      </trkpt>
      <trkpt lat="42.551274" lon="2.469085">
        <ele>1936.426</ele>
        <time>2021-05-28T19:42:04Z</time>
      </trkpt>
      <trkpt lat="42.551280" lon="2.469051">
        <ele>1936.508</ele>
        <time>2021-05-28T19:42:06Z</time>
      </trkpt>
      <trkpt lat="42.551283" lon="2.469027">
        <ele>1936.755</ele>
        <time>2021-05-28T19:42:08Z</time>
      </trkpt>
      <trkpt lat="42.551347" lon="2.468937">
        <ele>1933.352</ele>
        <time>2021-05-28T19:42:16Z</time>
      </trkpt>
      <trkpt lat="42.551363" lon="2.468899">
        <ele>1932.863</ele>
        <time>2021-05-28T19:42:18Z</time>
      </trkpt>
      <trkpt lat="42.551382" lon="2.468868">
        <ele>1931.872</ele>
        <time>2021-05-28T19:42:20Z</time>
      </trkpt>
      <trkpt lat="42.551402" lon="2.468831">
        <ele>1930.859</ele>
        <time>2021-05-28T19:42:22Z</time>
      </trkpt>
      <trkpt lat="42.551409" lon="2.468793">
        <ele>1930.824</ele>
        <time>2021-05-28T19:42:24Z</time>
      </trkpt>
      <trkpt lat="42.551425" lon="2.468773">
        <ele>1929.841</ele>
        <time>2021-05-28T19:42:25Z</time>
      </trkpt>
      <trkpt lat="42.551438" lon="2.468755">
        <ele>1929.069</ele>
        <time>2021-05-28T19:42:26Z</time>
      </trkpt>
      <trkpt lat="42.551507" lon="2.468663">
        <ele>1924.636</ele>
        <time>2021-05-28T19:42:34Z</time>
      </trkpt>
      <trkpt lat="42.551534" lon="2.468649">
        <ele>1922.617</ele>
        <time>2021-05-28T19:42:37Z</time>
      </trkpt>
      <trkpt lat="42.551552" lon="2.468630">
        <ele>1921.318</ele>
        <time>2021-05-28T19:42:40Z</time>
      </trkpt>
      <trkpt lat="42.551572" lon="2.468622">
        <ele>1919.708</ele>
        <time>2021-05-28T19:42:45Z</time>
      </trkpt>
      <trkpt lat="42.551592" lon="2.468597">
        <ele>1918.650</ele>
        <time>2021-05-28T19:42:48Z</time>
      </trkpt>
      <trkpt lat="42.551612" lon="2.468574">
        <ele>1917.517</ele>
        <time>2021-05-28T19:42:51Z</time>
      </trkpt>
      <trkpt lat="42.551636" lon="2.468553">
        <ele>1916.268</ele>
        <time>2021-05-28T19:42:53Z</time>
      </trkpt>
      <trkpt lat="42.551658" lon="2.468521">
        <ele>1915.387</ele>
        <time>2021-05-28T19:42:55Z</time>
      </trkpt>
      <trkpt lat="42.551670" lon="2.468501">
        <ele>1914.974</ele>
        <time>2021-05-28T19:42:56Z</time>
      </trkpt>
      <trkpt lat="42.551694" lon="2.468472">
        <ele>1913.819</ele>
        <time>2021-05-28T19:42:58Z</time>
      </trkpt>
      <trkpt lat="42.551764" lon="2.468368">
        <ele>1911.256</ele>
        <time>2021-05-28T19:43:06Z</time>
      </trkpt>
      <trkpt lat="42.551795" lon="2.468333">
        <ele>1909.844</ele>
        <time>2021-05-28T19:43:09Z</time>
      </trkpt>
      <trkpt lat="42.551819" lon="2.468305">
        <ele>1908.788</ele>
        <time>2021-05-28T19:43:11Z</time>
      </trkpt>
      <trkpt lat="42.551831" lon="2.468271">
        <ele>1908.724</ele>
        <time>2021-05-28T19:43:13Z</time>
      </trkpt>
      <trkpt lat="42.551843" lon="2.468243">
        <ele>1908.526</ele>
        <time>2021-05-28T19:43:15Z</time>
      </trkpt>
      <trkpt lat="42.551862" lon="2.468206">
        <ele>1908.008</ele>
        <time>2021-05-28T19:43:17Z</time>
      </trkpt>
      <trkpt lat="42.551881" lon="2.468172">
        <ele>1907.435</ele>
        <time>2021-05-28T19:43:19Z</time>
      </trkpt>
      <trkpt lat="42.551919" lon="2.468053">
        <ele>1907.382</ele>
        <time>2021-05-28T19:43:26Z</time>
      </trkpt>
      <trkpt lat="42.551895" lon="2.468015">
        <ele>1910.583</ele>
        <time>2021-05-28T19:43:29Z</time>
      </trkpt>
      <trkpt lat="42.551925" lon="2.467900">
        <ele>1911.632</ele>
        <time>2021-05-28T19:43:35Z</time>
      </trkpt>
      <trkpt lat="42.551982" lon="2.467791">
        <ele>1911.249</ele>
        <time>2021-05-28T19:43:42Z</time>
      </trkpt>
      <trkpt lat="42.551958" lon="2.467657">
        <ele>1914.874</ele>
        <time>2021-05-28T19:43:50Z</time>
      </trkpt>
      <trkpt lat="42.551929" lon="2.467640">
        <ele>1917.241</ele>
        <time>2021-05-28T19:43:54Z</time>
      </trkpt>
      <trkpt lat="42.551941" lon="2.467617">
        <ele>1916.659</ele>
        <time>2021-05-28T19:43:59Z</time>
      </trkpt>
      <trkpt lat="42.551952" lon="2.467593">
        <ele>1916.198</ele>
        <time>2021-05-28T19:44:03Z</time>
      </trkpt>
      <trkpt lat="42.551973" lon="2.467576">
        <ele>1914.815</ele>
        <time>2021-05-28T19:44:05Z</time>
      </trkpt>
      <trkpt lat="42.552003" lon="2.467546">
        <ele>1912.926</ele>
        <time>2021-05-28T19:44:17Z</time>
      </trkpt>
      <trkpt lat="42.551992" lon="2.467522">
        <ele>1914.008</ele>
        <time>2021-05-28T19:44:20Z</time>
      </trkpt>
      <trkpt lat="42.552000" lon="2.467497">
        <ele>1913.616</ele>
        <time>2021-05-28T19:44:22Z</time>
      </trkpt>
      <trkpt lat="42.552018" lon="2.467469">
        <ele>1912.053</ele>
        <time>2021-05-28T19:44:24Z</time>
      </trkpt>
      <trkpt lat="42.552033" lon="2.467442">
        <ele>1910.644</ele>
        <time>2021-05-28T19:44:26Z</time>
      </trkpt>
      <trkpt lat="42.552035" lon="2.467403">
        <ele>1910.293</ele>
        <time>2021-05-28T19:44:29Z</time>
      </trkpt>
      <trkpt lat="42.552039" lon="2.467374">
        <ele>1909.840</ele>
        <time>2021-05-28T19:44:31Z</time>
      </trkpt>
      <trkpt lat="42.552057" lon="2.467344">
        <ele>1908.275</ele>
        <time>2021-05-28T19:44:33Z</time>
      </trkpt>
      <trkpt lat="42.552068" lon="2.467315">
        <ele>1907.262</ele>
        <time>2021-05-28T19:44:35Z</time>
      </trkpt>
      <trkpt lat="42.552106" lon="2.467285">
        <ele>1904.190</ele>
        <time>2021-05-28T19:44:39Z</time>
      </trkpt>
      <trkpt lat="42.552201" lon="2.467295">
        <ele>1896.982</ele>
        <time>2021-05-28T19:44:52Z</time>
      </trkpt>
      <trkpt lat="42.552286" lon="2.467242">
        <ele>1889.343</ele>
        <time>2021-05-28T19:45:00Z</time>
      </trkpt>
      <trkpt lat="42.552304" lon="2.467215">
        <ele>1887.917</ele>
        <time>2021-05-28T19:45:03Z</time>
      </trkpt>
      <trkpt lat="42.552364" lon="2.467171">
        <ele>1884.108</ele>
        <time>2021-05-28T19:45:10Z</time>
      </trkpt>
      <trkpt lat="42.552465" lon="2.467118">
        <ele>1877.575</ele>
        <time>2021-05-28T19:45:18Z</time>
      </trkpt>
      <trkpt lat="42.552543" lon="2.467054">
        <ele>1873.972</ele>
        <time>2021-05-28T19:45:25Z</time>
      </trkpt>
      <trkpt lat="42.552539" lon="2.466931">
        <ele>1879.523</ele>
        <time>2021-05-28T19:45:34Z</time>
      </trkpt>
      <trkpt lat="42.552545" lon="2.466906">
        <ele>1880.012</ele>
        <time>2021-05-28T19:45:37Z</time>
      </trkpt>
      <trkpt lat="42.552566" lon="2.466875">
        <ele>1879.659</ele>
        <time>2021-05-28T19:45:39Z</time>
      </trkpt>
      <trkpt lat="42.552577" lon="2.466854">
        <ele>1879.564</ele>
        <time>2021-05-28T19:45:40Z</time>
      </trkpt>
      <trkpt lat="42.552589" lon="2.466830">
        <ele>1879.591</ele>
        <time>2021-05-28T19:45:41Z</time>
      </trkpt>
      <trkpt lat="42.552604" lon="2.466770">
        <ele>1880.679</ele>
        <time>2021-05-28T19:45:44Z</time>
      </trkpt>
      <trkpt lat="42.552620" lon="2.466731">
        <ele>1880.789</ele>
        <time>2021-05-28T19:45:46Z</time>
      </trkpt>
      <trkpt lat="42.552635" lon="2.466609">
        <ele>1883.406</ele>
        <time>2021-05-28T19:46:00Z</time>
      </trkpt>
      <trkpt lat="42.552702" lon="2.466515">
        <ele>1880.026</ele>
        <time>2021-05-28T19:46:16Z</time>
      </trkpt>
      <trkpt lat="42.552723" lon="2.466499">
        <ele>1878.608</ele>
        <time>2021-05-28T19:46:18Z</time>
      </trkpt>
      <trkpt lat="42.552760" lon="2.466443">
        <ele>1877.035</ele>
        <time>2021-05-28T19:46:22Z</time>
      </trkpt>
      <trkpt lat="42.552764" lon="2.466407">
        <ele>1877.722</ele>
        <time>2021-05-28T19:46:26Z</time>
      </trkpt>
      <trkpt lat="42.552834" lon="2.466322">
        <ele>1876.453</ele>
        <time>2021-05-28T19:46:35Z</time>
      </trkpt>
      <trkpt lat="42.552864" lon="2.466308">
        <ele>1875.222</ele>
        <time>2021-05-28T19:46:37Z</time>
      </trkpt>
      <trkpt lat="42.552882" lon="2.466297">
        <ele>1874.699</ele>
        <time>2021-05-28T19:46:38Z</time>
      </trkpt>
      <trkpt lat="42.552906" lon="2.466262">
        <ele>1874.884</ele>
        <time>2021-05-28T19:46:40Z</time>
      </trkpt>
      <trkpt lat="42.552995" lon="2.466187">
        <ele>1873.471</ele>
        <time>2021-05-28T19:46:45Z</time>
      </trkpt>
      <trkpt lat="42.553056" lon="2.466094">
        <ele>1874.929</ele>
        <time>2021-05-28T19:46:51Z</time>
      </trkpt>
      <trkpt lat="42.553112" lon="2.465988">
        <ele>1878.348</ele>
        <time>2021-05-28T19:47:00Z</time>
      </trkpt>
      <trkpt lat="42.553182" lon="2.465903">
        <ele>1879.961</ele>
        <time>2021-05-28T19:47:11Z</time>
      </trkpt>
      <trkpt lat="42.553272" lon="2.465887">
        <ele>1876.917</ele>
        <time>2021-05-28T19:47:19Z</time>
      </trkpt>
      <trkpt lat="42.553327" lon="2.465850">
        <ele>1876.408</ele>
        <time>2021-05-28T19:47:24Z</time>
      </trkpt>
      <trkpt lat="42.553403" lon="2.465777">
        <ele>1876.711</ele>
        <time>2021-05-28T19:47:30Z</time>
      </trkpt>
      <trkpt lat="42.553497" lon="2.465705">
        <ele>1875.688</ele>
        <time>2021-05-28T19:47:36Z</time>
      </trkpt>
      <trkpt lat="42.553575" lon="2.465643">
        <ele>1874.459</ele>
        <time>2021-05-28T19:47:41Z</time>
      </trkpt>
      <trkpt lat="42.553644" lon="2.465560">
        <ele>1873.878</ele>
        <time>2021-05-28T19:47:46Z</time>
      </trkpt>
      <trkpt lat="42.553662" lon="2.465526">
        <ele>1874.115</ele>
        <time>2021-05-28T19:47:48Z</time>
      </trkpt>
      <trkpt lat="42.553689" lon="2.465462">
        <ele>1875.220</ele>
        <time>2021-05-28T19:47:52Z</time>
      </trkpt>
      <trkpt lat="42.553708" lon="2.465440">
        <ele>1875.187</ele>
        <time>2021-05-28T19:47:54Z</time>
      </trkpt>
      <trkpt lat="42.553730" lon="2.465405">
        <ele>1875.435</ele>
        <time>2021-05-28T19:47:56Z</time>
      </trkpt>
      <trkpt lat="42.553746" lon="2.465388">
        <ele>1875.371</ele>
        <time>2021-05-28T19:47:57Z</time>
      </trkpt>
      <trkpt lat="42.553756" lon="2.465367">
        <ele>1875.741</ele>
        <time>2021-05-28T19:47:59Z</time>
      </trkpt>
      <trkpt lat="42.553776" lon="2.465345">
        <ele>1875.615</ele>
        <time>2021-05-28T19:48:01Z</time>
      </trkpt>
      <trkpt lat="42.553800" lon="2.465325">
        <ele>1875.308</ele>
        <time>2021-05-28T19:48:03Z</time>
      </trkpt>
      <trkpt lat="42.553825" lon="2.465302">
        <ele>1875.114</ele>
        <time>2021-05-28T19:48:05Z</time>
      </trkpt>
      <trkpt lat="42.553850" lon="2.465285">
        <ele>1874.641</ele>
        <time>2021-05-28T19:48:07Z</time>
      </trkpt>
      <trkpt lat="42.553885" lon="2.465244">
        <ele>1874.772</ele>
        <time>2021-05-28T19:48:10Z</time>
      </trkpt>
      <trkpt lat="42.553905" lon="2.465226">
        <ele>1874.391</ele>
        <time>2021-05-28T19:48:12Z</time>
      </trkpt>
      <trkpt lat="42.553923" lon="2.465211">
        <ele>1874.028</ele>
        <time>2021-05-28T19:48:13Z</time>
      </trkpt>
      <trkpt lat="42.553941" lon="2.465194">
        <ele>1873.713</ele>
        <time>2021-05-28T19:48:14Z</time>
      </trkpt>
      <trkpt lat="42.553962" lon="2.465182">
        <ele>1873.160</ele>
        <time>2021-05-28T19:48:16Z</time>
      </trkpt>
      <trkpt lat="42.553994" lon="2.465176">
        <ele>1871.678</ele>
        <time>2021-05-28T19:48:18Z</time>
      </trkpt>
      <trkpt lat="42.553998" lon="2.465153">
        <ele>1872.598</ele>
        <time>2021-05-28T19:48:20Z</time>
      </trkpt>
      <trkpt lat="42.554009" lon="2.465122">
        <ele>1873.315</ele>
        <time>2021-05-28T19:48:24Z</time>
      </trkpt>
      <trkpt lat="42.554044" lon="2.465109">
        <ele>1872.026</ele>
        <time>2021-05-28T19:48:27Z</time>
      </trkpt>
      <trkpt lat="42.554112" lon="2.465049">
        <ele>1871.408</ele>
        <time>2021-05-28T19:48:31Z</time>
      </trkpt>
      <trkpt lat="42.554131" lon="2.465029">
        <ele>1871.426</ele>
        <time>2021-05-28T19:48:32Z</time>
      </trkpt>
      <trkpt lat="42.554152" lon="2.465006">
        <ele>1871.463</ele>
        <time>2021-05-28T19:48:33Z</time>
      </trkpt>
      <trkpt lat="42.554167" lon="2.464989">
        <ele>1871.454</ele>
        <time>2021-05-28T19:48:34Z</time>
      </trkpt>
      <trkpt lat="42.554188" lon="2.464969">
        <ele>1871.063</ele>
        <time>2021-05-28T19:48:36Z</time>
      </trkpt>
      <trkpt lat="42.554213" lon="2.464949">
        <ele>1870.470</ele>
        <time>2021-05-28T19:48:38Z</time>
      </trkpt>
      <trkpt lat="42.554234" lon="2.464921">
        <ele>1870.395</ele>
        <time>2021-05-28T19:48:40Z</time>
      </trkpt>
      <trkpt lat="42.554257" lon="2.464890">
        <ele>1870.312</ele>
        <time>2021-05-28T19:48:42Z</time>
      </trkpt>
      <trkpt lat="42.554280" lon="2.464855">
        <ele>1870.510</ele>
        <time>2021-05-28T19:48:44Z</time>
      </trkpt>
      <trkpt lat="42.554298" lon="2.464828">
        <ele>1870.744</ele>
        <time>2021-05-28T19:48:46Z</time>
      </trkpt>
      <trkpt lat="42.554313" lon="2.464802">
        <ele>1871.005</ele>
        <time>2021-05-28T19:48:48Z</time>
      </trkpt>
      <trkpt lat="42.554323" lon="2.464777">
        <ele>1871.515</ele>
        <time>2021-05-28T19:48:50Z</time>
      </trkpt>
      <trkpt lat="42.554327" lon="2.464752">
        <ele>1872.308</ele>
        <time>2021-05-28T19:48:52Z</time>
      </trkpt>
      <trkpt lat="42.554331" lon="2.464722">
        <ele>1873.351</ele>
        <time>2021-05-28T19:48:55Z</time>
      </trkpt>
      <trkpt lat="42.554340" lon="2.464690">
        <ele>1872.778</ele>
        <time>2021-05-28T19:48:58Z</time>
      </trkpt>
      <trkpt lat="42.554357" lon="2.464667">
        <ele>1871.929</ele>
        <time>2021-05-28T19:49:00Z</time>
      </trkpt>
      <trkpt lat="42.554356" lon="2.464630">
        <ele>1871.888</ele>
        <time>2021-05-28T19:49:03Z</time>
      </trkpt>
      <trkpt lat="42.554362" lon="2.464608">
        <ele>1871.595</ele>
        <time>2021-05-28T19:49:06Z</time>
      </trkpt>
      <trkpt lat="42.554381" lon="2.464588">
        <ele>1870.850</ele>
        <time>2021-05-28T19:49:08Z</time>
      </trkpt>
      <trkpt lat="42.554402" lon="2.464601">
        <ele>1870.077</ele>
        <time>2021-05-28T19:49:11Z</time>
      </trkpt>
      <trkpt lat="42.554430" lon="2.464607">
        <ele>1869.035</ele>
        <time>2021-05-28T19:49:14Z</time>
      </trkpt>
      <trkpt lat="42.554455" lon="2.464609">
        <ele>1868.495</ele>
        <time>2021-05-28T19:49:16Z</time>
      </trkpt>
      <trkpt lat="42.554477" lon="2.464600">
        <ele>1868.449</ele>
        <time>2021-05-28T19:49:18Z</time>
      </trkpt>
      <trkpt lat="42.554580" lon="2.464618">
        <ele>1868.123</ele>
        <time>2021-05-28T19:49:28Z</time>
      </trkpt>
      <trkpt lat="42.554629" lon="2.464621">
        <ele>1867.908</ele>
        <time>2021-05-28T19:49:32Z</time>
      </trkpt>
      <trkpt lat="42.554657" lon="2.464628">
        <ele>1867.666</ele>
        <time>2021-05-28T19:49:34Z</time>
      </trkpt>
      <trkpt lat="42.554679" lon="2.464637">
        <ele>1867.333</ele>
        <time>2021-05-28T19:49:35Z</time>
      </trkpt>
      <trkpt lat="42.554709" lon="2.464650">
        <ele>1866.754</ele>
        <time>2021-05-28T19:49:36Z</time>
      </trkpt>
      <trkpt lat="42.554736" lon="2.464657">
        <ele>1866.453</ele>
        <time>2021-05-28T19:49:37Z</time>
      </trkpt>
      <trkpt lat="42.554757" lon="2.464665">
        <ele>1866.240</ele>
        <time>2021-05-28T19:49:38Z</time>
      </trkpt>
      <trkpt lat="42.554797" lon="2.464680">
        <ele>1865.885</ele>
        <time>2021-05-28T19:49:40Z</time>
      </trkpt>
      <trkpt lat="42.554837" lon="2.464688">
        <ele>1865.612</ele>
        <time>2021-05-28T19:49:42Z</time>
      </trkpt>
      <trkpt lat="42.554859" lon="2.464694">
        <ele>1865.560</ele>
        <time>2021-05-28T19:49:43Z</time>
      </trkpt>
      <trkpt lat="42.554886" lon="2.464703">
        <ele>1865.383</ele>
        <time>2021-05-28T19:49:44Z</time>
      </trkpt>
      <trkpt lat="42.554904" lon="2.464712">
        <ele>1865.025</ele>
        <time>2021-05-28T19:49:45Z</time>
      </trkpt>
      <trkpt lat="42.554923" lon="2.464719">
        <ele>1864.817</ele>
        <time>2021-05-28T19:49:46Z</time>
      </trkpt>
      <trkpt lat="42.554957" lon="2.464730">
        <ele>1864.408</ele>
        <time>2021-05-28T19:49:48Z</time>
      </trkpt>
      <trkpt lat="42.554988" lon="2.464741">
        <ele>1863.915</ele>
        <time>2021-05-28T19:49:50Z</time>
      </trkpt>
      <trkpt lat="42.555007" lon="2.464756">
        <ele>1863.032</ele>
        <time>2021-05-28T19:49:52Z</time>
      </trkpt>
      <trkpt lat="42.555028" lon="2.464781">
        <ele>1861.133</ele>
        <time>2021-05-28T19:49:55Z</time>
      </trkpt>
      <trkpt lat="42.555048" lon="2.464790">
        <ele>1860.182</ele>
        <time>2021-05-28T19:49:57Z</time>
      </trkpt>
      <trkpt lat="42.555065" lon="2.464777">
        <ele>1860.459</ele>
        <time>2021-05-28T19:50:00Z</time>
      </trkpt>
      <trkpt lat="42.555086" lon="2.464790">
        <ele>1859.244</ele>
        <time>2021-05-28T19:50:03Z</time>
      </trkpt>
      <trkpt lat="42.555108" lon="2.464787">
        <ele>1858.821</ele>
        <time>2021-05-28T19:50:06Z</time>
      </trkpt>
      <trkpt lat="42.555135" lon="2.464757">
        <ele>1859.579</ele>
        <time>2021-05-28T19:50:08Z</time>
      </trkpt>
      <trkpt lat="42.555160" lon="2.464714">
        <ele>1860.751</ele>
        <time>2021-05-28T19:50:10Z</time>
      </trkpt>
      <trkpt lat="42.555172" lon="2.464692">
        <ele>1861.201</ele>
        <time>2021-05-28T19:50:11Z</time>
      </trkpt>
      <trkpt lat="42.555183" lon="2.464670">
        <ele>1861.711</ele>
        <time>2021-05-28T19:50:12Z</time>
      </trkpt>
      <trkpt lat="42.555196" lon="2.464650">
        <ele>1862.108</ele>
        <time>2021-05-28T19:50:13Z</time>
      </trkpt>
      <trkpt lat="42.555218" lon="2.464644">
        <ele>1861.872</ele>
        <time>2021-05-28T19:50:15Z</time>
      </trkpt>
      <trkpt lat="42.555238" lon="2.464636">
        <ele>1861.589</ele>
        <time>2021-05-28T19:50:16Z</time>
      </trkpt>
      <trkpt lat="42.555262" lon="2.464617">
        <ele>1861.690</ele>
        <time>2021-05-28T19:50:18Z</time>
      </trkpt>
      <trkpt lat="42.555290" lon="2.464606">
        <ele>1861.219</ele>
        <time>2021-05-28T19:50:20Z</time>
      </trkpt>
      <trkpt lat="42.555308" lon="2.464608">
        <ele>1860.696</ele>
        <time>2021-05-28T19:50:22Z</time>
      </trkpt>
      <trkpt lat="42.555330" lon="2.464616">
        <ele>1859.621</ele>
        <time>2021-05-28T19:50:25Z</time>
      </trkpt>
      <trkpt lat="42.555348" lon="2.464619">
        <ele>1858.918</ele>
        <time>2021-05-28T19:50:27Z</time>
      </trkpt>
      <trkpt lat="42.555367" lon="2.464614">
        <ele>1858.586</ele>
        <time>2021-05-28T19:50:29Z</time>
      </trkpt>
      <trkpt lat="42.555387" lon="2.464614">
        <ele>1857.911</ele>
        <time>2021-05-28T19:50:33Z</time>
      </trkpt>
      <trkpt lat="42.555412" lon="2.464629">
        <ele>1856.521</ele>
        <time>2021-05-28T19:50:35Z</time>
      </trkpt>
      <trkpt lat="42.555444" lon="2.464659">
        <ele>1854.303</ele>
        <time>2021-05-28T19:50:37Z</time>
      </trkpt>
      <trkpt lat="42.555468" lon="2.464669">
        <ele>1853.108</ele>
        <time>2021-05-28T19:50:39Z</time>
      </trkpt>
      <trkpt lat="42.555495" lon="2.464658">
        <ele>1852.718</ele>
        <time>2021-05-28T19:50:42Z</time>
      </trkpt>
      <trkpt lat="42.555514" lon="2.464664">
        <ele>1851.895</ele>
        <time>2021-05-28T19:50:44Z</time>
      </trkpt>
      <trkpt lat="42.555538" lon="2.464670">
        <ele>1850.896</ele>
        <time>2021-05-28T19:50:46Z</time>
      </trkpt>
      <trkpt lat="42.555568" lon="2.464671">
        <ele>1850.195</ele>
        <time>2021-05-28T19:50:48Z</time>
      </trkpt>
      <trkpt lat="42.555592" lon="2.464663">
        <ele>1850.162</ele>
        <time>2021-05-28T19:50:50Z</time>
      </trkpt>
      <trkpt lat="42.555618" lon="2.464643">
        <ele>1850.857</ele>
        <time>2021-05-28T19:50:52Z</time>
      </trkpt>
      <trkpt lat="42.555645" lon="2.464624">
        <ele>1851.414</ele>
        <time>2021-05-28T19:50:54Z</time>
      </trkpt>
      <trkpt lat="42.555747" lon="2.464639">
        <ele>1849.792</ele>
        <time>2021-05-28T19:51:05Z</time>
      </trkpt>
      <trkpt lat="42.555843" lon="2.464702">
        <ele>1845.258</ele>
        <time>2021-05-28T19:51:10Z</time>
      </trkpt>
      <trkpt lat="42.555943" lon="2.464756">
        <ele>1842.552</ele>
        <time>2021-05-28T19:51:15Z</time>
      </trkpt>
      <trkpt lat="42.556004" lon="2.464843">
        <ele>1837.917</ele>
        <time>2021-05-28T19:51:20Z</time>
      </trkpt>
      <trkpt lat="42.556092" lon="2.464898">
        <ele>1835.408</ele>
        <time>2021-05-28T19:51:25Z</time>
      </trkpt>
      <trkpt lat="42.556113" lon="2.464912">
        <ele>1834.792</ele>
        <time>2021-05-28T19:51:28Z</time>
      </trkpt>
      <trkpt lat="42.556137" lon="2.464909">
        <ele>1833.919</ele>
        <time>2021-05-28T19:51:34Z</time>
      </trkpt>
      <trkpt lat="42.556184" lon="2.464852">
        <ele>1835.160</ele>
        <time>2021-05-28T19:51:38Z</time>
      </trkpt>
      <trkpt lat="42.556204" lon="2.464837">
        <ele>1835.189</ele>
        <time>2021-05-28T19:51:40Z</time>
      </trkpt>
      <trkpt lat="42.556226" lon="2.464824">
        <ele>1834.846</ele>
        <time>2021-05-28T19:51:42Z</time>
      </trkpt>
      <trkpt lat="42.556245" lon="2.464807">
        <ele>1834.921</ele>
        <time>2021-05-28T19:51:45Z</time>
      </trkpt>
      <trkpt lat="42.556264" lon="2.464797">
        <ele>1834.738</ele>
        <time>2021-05-28T19:51:49Z</time>
      </trkpt>
      <trkpt lat="42.556274" lon="2.464821">
        <ele>1833.066</ele>
        <time>2021-05-28T19:51:55Z</time>
      </trkpt>
      <trkpt lat="42.556296" lon="2.464805">
        <ele>1832.943</ele>
        <time>2021-05-28T19:51:58Z</time>
      </trkpt>
      <trkpt lat="42.556320" lon="2.464772">
        <ele>1833.664</ele>
        <time>2021-05-28T19:51:59Z</time>
      </trkpt>
      <trkpt lat="42.556348" lon="2.464743">
        <ele>1833.810</ele>
        <time>2021-05-28T19:52:01Z</time>
      </trkpt>
      <trkpt lat="42.556369" lon="2.464712">
        <ele>1834.308</ele>
        <time>2021-05-28T19:52:03Z</time>
      </trkpt>
      <trkpt lat="42.556385" lon="2.464699">
        <ele>1834.191</ele>
        <time>2021-05-28T19:52:05Z</time>
      </trkpt>
      <trkpt lat="42.556403" lon="2.464686">
        <ele>1833.578</ele>
        <time>2021-05-28T19:52:07Z</time>
      </trkpt>
      <trkpt lat="42.556432" lon="2.464676">
        <ele>1832.139</ele>
        <time>2021-05-28T19:52:10Z</time>
      </trkpt>
      <trkpt lat="42.556457" lon="2.464672">
        <ele>1830.698</ele>
        <time>2021-05-28T19:52:12Z</time>
      </trkpt>
      <trkpt lat="42.556479" lon="2.464672">
        <ele>1829.285</ele>
        <time>2021-05-28T19:52:14Z</time>
      </trkpt>
      <trkpt lat="42.556498" lon="2.464665">
        <ele>1828.370</ele>
        <time>2021-05-28T19:52:17Z</time>
      </trkpt>
      <trkpt lat="42.556525" lon="2.464666">
        <ele>1826.577</ele>
        <time>2021-05-28T19:52:18Z</time>
      </trkpt>
      <trkpt lat="42.556545" lon="2.464661">
        <ele>1825.455</ele>
        <time>2021-05-28T19:52:19Z</time>
      </trkpt>
      <trkpt lat="42.556562" lon="2.464657">
        <ele>1824.562</ele>
        <time>2021-05-28T19:52:20Z</time>
      </trkpt>
      <trkpt lat="42.556609" lon="2.464651">
        <ele>1821.883</ele>
        <time>2021-05-28T19:52:23Z</time>
      </trkpt>
      <trkpt lat="42.556637" lon="2.464629">
        <ele>1820.911</ele>
        <time>2021-05-28T19:52:25Z</time>
      </trkpt>
      <trkpt lat="42.556672" lon="2.464569">
        <ele>1821.408</ele>
        <time>2021-05-28T19:52:29Z</time>
      </trkpt>
      <trkpt lat="42.556692" lon="2.464449">
        <ele>1826.063</ele>
        <time>2021-05-28T19:52:35Z</time>
      </trkpt>
      <trkpt lat="42.556712" lon="2.464325">
        <ele>1832.340</ele>
        <time>2021-05-28T19:52:43Z</time>
      </trkpt>
      <trkpt lat="42.556791" lon="2.464263">
        <ele>1834.261</ele>
        <time>2021-05-28T19:53:10Z</time>
      </trkpt>
      <trkpt lat="42.556810" lon="2.464263">
        <ele>1833.890</ele>
        <time>2021-05-28T19:53:12Z</time>
      </trkpt>
      <trkpt lat="42.556826" lon="2.464244">
        <ele>1834.737</ele>
        <time>2021-05-28T19:53:27Z</time>
      </trkpt>
      <trkpt lat="42.556851" lon="2.464245">
        <ele>1834.292</ele>
        <time>2021-05-28T19:53:30Z</time>
      </trkpt>
      <trkpt lat="42.556872" lon="2.464241">
        <ele>1834.069</ele>
        <time>2021-05-28T19:53:32Z</time>
      </trkpt>
      <trkpt lat="42.556895" lon="2.464234">
        <ele>1834.127</ele>
        <time>2021-05-28T19:53:34Z</time>
      </trkpt>
      <trkpt lat="42.556915" lon="2.464228">
        <ele>1834.159</ele>
        <time>2021-05-28T19:53:36Z</time>
      </trkpt>
      <trkpt lat="42.556937" lon="2.464236">
        <ele>1833.103</ele>
        <time>2021-05-28T19:53:39Z</time>
      </trkpt>
      <trkpt lat="42.556965" lon="2.464250">
        <ele>1831.423</ele>
        <time>2021-05-28T19:53:44Z</time>
      </trkpt>
      <trkpt lat="42.556986" lon="2.464267">
        <ele>1829.708</ele>
        <time>2021-05-28T19:53:46Z</time>
      </trkpt>
      <trkpt lat="42.557004" lon="2.464279">
        <ele>1828.572</ele>
        <time>2021-05-28T19:53:52Z</time>
      </trkpt>
      <trkpt lat="42.557003" lon="2.464311">
        <ele>1826.429</ele>
        <time>2021-05-28T19:53:54Z</time>
      </trkpt>
      <trkpt lat="42.557017" lon="2.464329">
        <ele>1824.930</ele>
        <time>2021-05-28T19:53:56Z</time>
      </trkpt>
      <trkpt lat="42.557020" lon="2.464355">
        <ele>1823.279</ele>
        <time>2021-05-28T19:54:00Z</time>
      </trkpt>
      <trkpt lat="42.557040" lon="2.464364">
        <ele>1822.396</ele>
        <time>2021-05-28T19:54:17Z</time>
      </trkpt>
      <trkpt lat="42.557057" lon="2.464352">
        <ele>1822.871</ele>
        <time>2021-05-28T19:54:19Z</time>
      </trkpt>
      <trkpt lat="42.557078" lon="2.464332">
        <ele>1823.688</ele>
        <time>2021-05-28T19:54:24Z</time>
      </trkpt>
      <trkpt lat="42.557106" lon="2.464325">
        <ele>1823.416</ele>
        <time>2021-05-28T19:54:26Z</time>
      </trkpt>
      <trkpt lat="42.557128" lon="2.464310">
        <ele>1823.899</ele>
        <time>2021-05-28T19:54:28Z</time>
      </trkpt>
      <trkpt lat="42.557153" lon="2.464295">
        <ele>1824.007</ele>
        <time>2021-05-28T19:54:30Z</time>
      </trkpt>
      <trkpt lat="42.557179" lon="2.464296">
        <ele>1823.427</ele>
        <time>2021-05-28T19:54:33Z</time>
      </trkpt>
      <trkpt lat="42.557204" lon="2.464282">
        <ele>1823.508</ele>
        <time>2021-05-28T19:54:35Z</time>
      </trkpt>
      <trkpt lat="42.557222" lon="2.464271">
        <ele>1823.586</ele>
        <time>2021-05-28T19:54:36Z</time>
      </trkpt>
      <trkpt lat="42.557259" lon="2.464232">
        <ele>1823.173</ele>
        <time>2021-05-28T19:54:39Z</time>
      </trkpt>
      <trkpt lat="42.557306" lon="2.464204">
        <ele>1821.664</ele>
        <time>2021-05-28T19:54:42Z</time>
      </trkpt>
      <trkpt lat="42.557323" lon="2.464197">
        <ele>1820.913</ele>
        <time>2021-05-28T19:54:43Z</time>
      </trkpt>
      <trkpt lat="42.557349" lon="2.464171">
        <ele>1820.590</ele>
        <time>2021-05-28T19:54:45Z</time>
      </trkpt>
      <trkpt lat="42.557376" lon="2.464155">
        <ele>1819.575</ele>
        <time>2021-05-28T19:54:47Z</time>
      </trkpt>
      <trkpt lat="42.557399" lon="2.464136">
        <ele>1818.862</ele>
        <time>2021-05-28T19:54:49Z</time>
      </trkpt>
      <trkpt lat="42.557424" lon="2.464132">
        <ele>1817.520</ele>
        <time>2021-05-28T19:54:51Z</time>
      </trkpt>
      <trkpt lat="42.557445" lon="2.464121">
        <ele>1816.665</ele>
        <time>2021-05-28T19:54:53Z</time>
      </trkpt>
      <trkpt lat="42.557471" lon="2.464090">
        <ele>1816.268</ele>
        <time>2021-05-28T19:54:55Z</time>
      </trkpt>
      <trkpt lat="42.557497" lon="2.464078">
        <ele>1815.014</ele>
        <time>2021-05-28T19:54:57Z</time>
      </trkpt>
      <trkpt lat="42.557517" lon="2.464066">
        <ele>1814.208</ele>
        <time>2021-05-28T19:55:00Z</time>
      </trkpt>
      <trkpt lat="42.557537" lon="2.464041">
        <ele>1813.863</ele>
        <time>2021-05-28T19:55:02Z</time>
      </trkpt>
      <trkpt lat="42.557568" lon="2.464024">
        <ele>1812.570</ele>
        <time>2021-05-28T19:55:04Z</time>
      </trkpt>
      <trkpt lat="42.557587" lon="2.464015">
        <ele>1811.671</ele>
        <time>2021-05-28T19:55:05Z</time>
      </trkpt>
      <trkpt lat="42.557620" lon="2.464001">
        <ele>1810.020</ele>
        <time>2021-05-28T19:55:07Z</time>
      </trkpt>
      <trkpt lat="42.557640" lon="2.463989">
        <ele>1809.287</ele>
        <time>2021-05-28T19:55:09Z</time>
      </trkpt>
      <trkpt lat="42.557664" lon="2.463982">
        <ele>1807.912</ele>
        <time>2021-05-28T19:55:11Z</time>
      </trkpt>
      <trkpt lat="42.557692" lon="2.463971">
        <ele>1806.649</ele>
        <time>2021-05-28T19:55:13Z</time>
      </trkpt>
      <trkpt lat="42.557719" lon="2.463962">
        <ele>1805.237</ele>
        <time>2021-05-28T19:55:15Z</time>
      </trkpt>
      <trkpt lat="42.557753" lon="2.463957">
        <ele>1803.349</ele>
        <time>2021-05-28T19:55:17Z</time>
      </trkpt>
      <trkpt lat="42.557774" lon="2.463946">
        <ele>1802.402</ele>
        <time>2021-05-28T19:55:18Z</time>
      </trkpt>
      <trkpt lat="42.557795" lon="2.463935">
        <ele>1801.522</ele>
        <time>2021-05-28T19:55:19Z</time>
      </trkpt>
      <trkpt lat="42.557815" lon="2.463905">
        <ele>1801.208</ele>
        <time>2021-05-28T19:55:21Z</time>
      </trkpt>
      <trkpt lat="42.557828" lon="2.463886">
        <ele>1801.051</ele>
        <time>2021-05-28T19:55:24Z</time>
      </trkpt>
      <trkpt lat="42.557846" lon="2.463873">
        <ele>1800.248</ele>
        <time>2021-05-28T19:55:27Z</time>
      </trkpt>
      <trkpt lat="42.557863" lon="2.463853">
        <ele>1799.749</ele>
        <time>2021-05-28T19:55:29Z</time>
      </trkpt>
      <trkpt lat="42.557888" lon="2.463840">
        <ele>1798.578</ele>
        <time>2021-05-28T19:55:31Z</time>
      </trkpt>
      <trkpt lat="42.557915" lon="2.463823">
        <ele>1797.395</ele>
        <time>2021-05-28T19:55:33Z</time>
      </trkpt>
      <trkpt lat="42.557948" lon="2.463806">
        <ele>1795.750</ele>
        <time>2021-05-28T19:55:35Z</time>
      </trkpt>
      <trkpt lat="42.557965" lon="2.463790">
        <ele>1795.067</ele>
        <time>2021-05-28T19:55:36Z</time>
      </trkpt>
      <trkpt lat="42.557992" lon="2.463742">
        <ele>1794.685</ele>
        <time>2021-05-28T19:55:39Z</time>
      </trkpt>
      <trkpt lat="42.558013" lon="2.463715">
        <ele>1794.058</ele>
        <time>2021-05-28T19:55:41Z</time>
      </trkpt>
      <trkpt lat="42.558028" lon="2.463685">
        <ele>1793.852</ele>
        <time>2021-05-28T19:55:43Z</time>
      </trkpt>
      <trkpt lat="42.558042" lon="2.463667">
        <ele>1793.417</ele>
        <time>2021-05-28T19:55:44Z</time>
      </trkpt>
      <trkpt lat="42.558057" lon="2.463646">
        <ele>1793.008</ele>
        <time>2021-05-28T19:55:46Z</time>
      </trkpt>
      <trkpt lat="42.558072" lon="2.463614">
        <ele>1792.812</ele>
        <time>2021-05-28T19:55:47Z</time>
      </trkpt>
      <trkpt lat="42.558092" lon="2.463586">
        <ele>1792.189</ele>
        <time>2021-05-28T19:55:49Z</time>
      </trkpt>
      <trkpt lat="42.558109" lon="2.463562">
        <ele>1791.530</ele>
        <time>2021-05-28T19:55:51Z</time>
      </trkpt>
      <trkpt lat="42.558130" lon="2.463537">
        <ele>1790.749</ele>
        <time>2021-05-28T19:55:53Z</time>
      </trkpt>
      <trkpt lat="42.558139" lon="2.463516">
        <ele>1790.616</ele>
        <time>2021-05-28T19:55:55Z</time>
      </trkpt>
      <trkpt lat="42.558157" lon="2.463489">
        <ele>1790.021</ele>
        <time>2021-05-28T19:55:57Z</time>
      </trkpt>
      <trkpt lat="42.558168" lon="2.463468">
        <ele>1789.878</ele>
        <time>2021-05-28T19:55:58Z</time>
      </trkpt>
      <trkpt lat="42.558179" lon="2.463440">
        <ele>1789.866</ele>
        <time>2021-05-28T19:56:00Z</time>
      </trkpt>
      <trkpt lat="42.558194" lon="2.463421">
        <ele>1789.339</ele>
        <time>2021-05-28T19:56:02Z</time>
      </trkpt>
      <trkpt lat="42.558201" lon="2.463391">
        <ele>1789.601</ele>
        <time>2021-05-28T19:56:05Z</time>
      </trkpt>
      <trkpt lat="42.558221" lon="2.463376">
        <ele>1788.821</ele>
        <time>2021-05-28T19:56:08Z</time>
      </trkpt>
      <trkpt lat="42.558219" lon="2.463348">
        <ele>1789.608</ele>
        <time>2021-05-28T19:56:11Z</time>
      </trkpt>
      <trkpt lat="42.558239" lon="2.463343">
        <ele>1788.520</ele>
        <time>2021-05-28T19:56:15Z</time>
      </trkpt>
      <trkpt lat="42.558256" lon="2.463329">
        <ele>1787.957</ele>
        <time>2021-05-28T19:56:20Z</time>
      </trkpt>
      <trkpt lat="42.558266" lon="2.463307">
        <ele>1788.168</ele>
        <time>2021-05-28T19:56:23Z</time>
      </trkpt>
      <trkpt lat="42.558282" lon="2.463286">
        <ele>1787.927</ele>
        <time>2021-05-28T19:56:27Z</time>
      </trkpt>
      <trkpt lat="42.558302" lon="2.463266">
        <ele>1787.524</ele>
        <time>2021-05-28T19:56:29Z</time>
      </trkpt>
      <trkpt lat="42.558334" lon="2.463251">
        <ele>1786.229</ele>
        <time>2021-05-28T19:56:31Z</time>
      </trkpt>
      <trkpt lat="42.558366" lon="2.463233">
        <ele>1786.076</ele>
        <time>2021-05-28T19:56:34Z</time>
      </trkpt>
      <trkpt lat="42.558453" lon="2.463185">
        <ele>1785.554</ele>
        <time>2021-05-28T19:56:45Z</time>
      </trkpt>
      <trkpt lat="42.558538" lon="2.463143">
        <ele>1784.977</ele>
        <time>2021-05-28T19:56:54Z</time>
      </trkpt>
      <trkpt lat="42.558615" lon="2.463066">
        <ele>1786.561</ele>
        <time>2021-05-28T19:57:01Z</time>
      </trkpt>
      <trkpt lat="42.558718" lon="2.463044">
        <ele>1786.927</ele>
        <time>2021-05-28T19:57:12Z</time>
      </trkpt>
      <trkpt lat="42.558810" lon="2.463101">
        <ele>1784.608</ele>
        <time>2021-05-28T19:57:19Z</time>
      </trkpt>
      <trkpt lat="42.558848" lon="2.463144">
        <ele>1783.174</ele>
        <time>2021-05-28T19:57:29Z</time>
      </trkpt>
      <trkpt lat="42.558866" lon="2.463128">
        <ele>1783.651</ele>
        <time>2021-05-28T19:58:05Z</time>
      </trkpt>
      <trkpt lat="42.558886" lon="2.463121">
        <ele>1783.922</ele>
        <time>2021-05-28T19:58:13Z</time>
      </trkpt>
      <trkpt lat="42.558916" lon="2.463135">
        <ele>1783.461</ele>
        <time>2021-05-28T19:58:16Z</time>
      </trkpt>
      <trkpt lat="42.558941" lon="2.463152">
        <ele>1782.928</ele>
        <time>2021-05-28T19:58:18Z</time>
      </trkpt>
      <trkpt lat="42.558966" lon="2.463179">
        <ele>1782.563</ele>
        <time>2021-05-28T19:58:20Z</time>
      </trkpt>
      <trkpt lat="42.558980" lon="2.463197">
        <ele>1782.320</ele>
        <time>2021-05-28T19:58:21Z</time>
      </trkpt>
      <trkpt lat="42.558998" lon="2.463210">
        <ele>1782.328</ele>
        <time>2021-05-28T19:58:22Z</time>
      </trkpt>
      <trkpt lat="42.559017" lon="2.463225">
        <ele>1782.442</ele>
        <time>2021-05-28T19:58:23Z</time>
      </trkpt>
      <trkpt lat="42.559036" lon="2.463239">
        <ele>1782.722</ele>
        <time>2021-05-28T19:58:24Z</time>
      </trkpt>
      <trkpt lat="42.559055" lon="2.463242">
        <ele>1783.014</ele>
        <time>2021-05-28T19:58:25Z</time>
      </trkpt>
      <trkpt lat="42.559076" lon="2.463242">
        <ele>1783.408</ele>
        <time>2021-05-28T19:58:26Z</time>
      </trkpt>
      <trkpt lat="42.559095" lon="2.463236">
        <ele>1783.751</ele>
        <time>2021-05-28T19:58:27Z</time>
      </trkpt>
      <trkpt lat="42.559116" lon="2.463224">
        <ele>1783.978</ele>
        <time>2021-05-28T19:58:28Z</time>
      </trkpt>
      <trkpt lat="42.559166" lon="2.463127">
        <ele>1782.549</ele>
        <time>2021-05-28T19:58:34Z</time>
      </trkpt>
      <trkpt lat="42.559188" lon="2.463065">
        <ele>1780.488</ele>
        <time>2021-05-28T19:58:38Z</time>
      </trkpt>
      <trkpt lat="42.559204" lon="2.463037">
        <ele>1779.355</ele>
        <time>2021-05-28T19:58:40Z</time>
      </trkpt>
      <trkpt lat="42.559239" lon="2.462971">
        <ele>1776.840</ele>
        <time>2021-05-28T19:58:45Z</time>
      </trkpt>
      <trkpt lat="42.559257" lon="2.462951">
        <ele>1775.717</ele>
        <time>2021-05-28T19:58:48Z</time>
      </trkpt>
      <trkpt lat="42.559284" lon="2.462959">
        <ele>1774.955</ele>
        <time>2021-05-28T19:58:51Z</time>
      </trkpt>
      <trkpt lat="42.559305" lon="2.462958">
        <ele>1774.145</ele>
        <time>2021-05-28T19:58:53Z</time>
      </trkpt>
      <trkpt lat="42.559329" lon="2.462975">
        <ele>1773.547</ele>
        <time>2021-05-28T19:58:55Z</time>
      </trkpt>
      <trkpt lat="42.559352" lon="2.463000">
        <ele>1773.211</ele>
        <time>2021-05-28T19:58:57Z</time>
      </trkpt>
      <trkpt lat="42.559366" lon="2.463024">
        <ele>1773.208</ele>
        <time>2021-05-28T19:58:59Z</time>
      </trkpt>
      <trkpt lat="42.559373" lon="2.463047">
        <ele>1773.461</ele>
        <time>2021-05-28T19:59:02Z</time>
      </trkpt>
      <trkpt lat="42.559388" lon="2.463070">
        <ele>1773.588</ele>
        <time>2021-05-28T19:59:05Z</time>
      </trkpt>
      <trkpt lat="42.559408" lon="2.463086">
        <ele>1773.389</ele>
        <time>2021-05-28T19:59:07Z</time>
      </trkpt>
      <trkpt lat="42.559430" lon="2.463103">
        <ele>1773.068</ele>
        <time>2021-05-28T19:59:09Z</time>
      </trkpt>
      <trkpt lat="42.559453" lon="2.463116">
        <ele>1772.645</ele>
        <time>2021-05-28T19:59:11Z</time>
      </trkpt>
      <trkpt lat="42.559472" lon="2.463128">
        <ele>1772.220</ele>
        <time>2021-05-28T19:59:13Z</time>
      </trkpt>
      <trkpt lat="42.559502" lon="2.463157">
        <ele>1771.937</ele>
        <time>2021-05-28T19:59:16Z</time>
      </trkpt>
      <trkpt lat="42.559523" lon="2.463171">
        <ele>1771.525</ele>
        <time>2021-05-28T19:59:18Z</time>
      </trkpt>
      <trkpt lat="42.559546" lon="2.463191">
        <ele>1771.232</ele>
        <time>2021-05-28T19:59:20Z</time>
      </trkpt>
      <trkpt lat="42.559567" lon="2.463212">
        <ele>1771.092</ele>
        <time>2021-05-28T19:59:22Z</time>
      </trkpt>
      <trkpt lat="42.559584" lon="2.463202">
        <ele>1770.011</ele>
        <time>2021-05-28T19:59:24Z</time>
      </trkpt>
      <trkpt lat="42.559583" lon="2.463171">
        <ele>1769.008</ele>
        <time>2021-05-28T19:59:26Z</time>
      </trkpt>
      <trkpt lat="42.559572" lon="2.463134">
        <ele>1768.410</ele>
        <time>2021-05-28T19:59:28Z</time>
      </trkpt>
      <trkpt lat="42.559565" lon="2.463111">
        <ele>1767.957</ele>
        <time>2021-05-28T19:59:29Z</time>
      </trkpt>
      <trkpt lat="42.559558" lon="2.463088">
        <ele>1767.568</ele>
        <time>2021-05-28T19:59:30Z</time>
      </trkpt>
      <trkpt lat="42.559547" lon="2.463052">
        <ele>1766.947</ele>
        <time>2021-05-28T19:59:32Z</time>
      </trkpt>
      <trkpt lat="42.559533" lon="2.463019">
        <ele>1766.754</ele>
        <time>2021-05-28T19:59:34Z</time>
      </trkpt>
      <trkpt lat="42.559520" lon="2.462993">
        <ele>1766.739</ele>
        <time>2021-05-28T19:59:36Z</time>
      </trkpt>
      <trkpt lat="42.559525" lon="2.462963">
        <ele>1765.886</ele>
        <time>2021-05-28T19:59:38Z</time>
      </trkpt>
      <trkpt lat="42.559518" lon="2.462923">
        <ele>1765.244</ele>
        <time>2021-05-28T19:59:40Z</time>
      </trkpt>
      <trkpt lat="42.559516" lon="2.462898">
        <ele>1764.834</ele>
        <time>2021-05-28T19:59:41Z</time>
      </trkpt>
      <trkpt lat="42.559521" lon="2.462850">
        <ele>1763.555</ele>
        <time>2021-05-28T19:59:43Z</time>
      </trkpt>
      <trkpt lat="42.559518" lon="2.462824">
        <ele>1763.110</ele>
        <time>2021-05-28T19:59:44Z</time>
      </trkpt>
      <trkpt lat="42.559511" lon="2.462794">
        <ele>1762.708</ele>
        <time>2021-05-28T19:59:45Z</time>
      </trkpt>
      <trkpt lat="42.559505" lon="2.462766">
        <ele>1762.340</ele>
        <time>2021-05-28T19:59:46Z</time>
      </trkpt>
      <trkpt lat="42.559490" lon="2.462641">
        <ele>1760.257</ele>
        <time>2021-05-28T19:59:52Z</time>
      </trkpt>
      <trkpt lat="42.559497" lon="2.462508">
        <ele>1756.948</ele>
        <time>2021-05-28T19:59:58Z</time>
      </trkpt>
      <trkpt lat="42.559512" lon="2.462373">
        <ele>1753.837</ele>
        <time>2021-05-28T20:00:03Z</time>
      </trkpt>
      <trkpt lat="42.559519" lon="2.462233">
        <ele>1751.084</ele>
        <time>2021-05-28T20:00:08Z</time>
      </trkpt>
      <trkpt lat="42.559506" lon="2.462101">
        <ele>1749.949</ele>
        <time>2021-05-28T20:00:13Z</time>
      </trkpt>
      <trkpt lat="42.559493" lon="2.461964">
        <ele>1749.066</ele>
        <time>2021-05-28T20:00:18Z</time>
      </trkpt>
      <trkpt lat="42.559529" lon="2.461837">
        <ele>1746.094</ele>
        <time>2021-05-28T20:00:24Z</time>
      </trkpt>
      <trkpt lat="42.559587" lon="2.461937">
        <ele>1744.342</ele>
        <time>2021-05-28T20:00:36Z</time>
      </trkpt>
      <trkpt lat="42.559647" lon="2.462029">
        <ele>1742.722</ele>
        <time>2021-05-28T20:00:43Z</time>
      </trkpt>
      <trkpt lat="42.559690" lon="2.462144">
        <ele>1742.314</ele>
        <time>2021-05-28T20:00:48Z</time>
      </trkpt>
      <trkpt lat="42.559747" lon="2.462266">
        <ele>1741.808</ele>
        <time>2021-05-28T20:00:53Z</time>
      </trkpt>
      <trkpt lat="42.559820" lon="2.462368">
        <ele>1740.951</ele>
        <time>2021-05-28T20:00:57Z</time>
      </trkpt>
      <trkpt lat="42.559903" lon="2.462477">
        <ele>1740.038</ele>
        <time>2021-05-28T20:01:02Z</time>
      </trkpt>
      <trkpt lat="42.559999" lon="2.462538">
        <ele>1738.029</ele>
        <time>2021-05-28T20:01:06Z</time>
      </trkpt>
      <trkpt lat="42.560084" lon="2.462619">
        <ele>1736.928</ele>
        <time>2021-05-28T20:01:10Z</time>
      </trkpt>
      <trkpt lat="42.560149" lon="2.462704">
        <ele>1737.025</ele>
        <time>2021-05-28T20:01:14Z</time>
      </trkpt>
      <trkpt lat="42.560233" lon="2.462774">
        <ele>1736.360</ele>
        <time>2021-05-28T20:01:19Z</time>
      </trkpt>
      <trkpt lat="42.560320" lon="2.462825">
        <ele>1734.787</ele>
        <time>2021-05-28T20:01:27Z</time>
      </trkpt>
      <trkpt lat="42.560414" lon="2.462837">
        <ele>1731.715</ele>
        <time>2021-05-28T20:01:37Z</time>
      </trkpt>
      <trkpt lat="42.560406" lon="2.462763">
        <ele>1729.921</ele>
        <time>2021-05-28T20:01:40Z</time>
      </trkpt>
      <trkpt lat="42.560406" lon="2.462718">
        <ele>1728.541</ele>
        <time>2021-05-28T20:01:42Z</time>
      </trkpt>
      <trkpt lat="42.560405" lon="2.462584">
        <ele>1724.505</ele>
        <time>2021-05-28T20:01:48Z</time>
      </trkpt>
      <trkpt lat="42.560361" lon="2.462466">
        <ele>1722.508</ele>
        <time>2021-05-28T20:01:54Z</time>
      </trkpt>
      <trkpt lat="42.560358" lon="2.462335">
        <ele>1719.579</ele>
        <time>2021-05-28T20:02:02Z</time>
      </trkpt>
      <trkpt lat="42.560308" lon="2.462227">
        <ele>1718.996</ele>
        <time>2021-05-28T20:02:07Z</time>
      </trkpt>
      <trkpt lat="42.560223" lon="2.462183">
        <ele>1721.337</ele>
        <time>2021-05-28T20:02:13Z</time>
      </trkpt>
      <trkpt lat="42.560202" lon="2.462047">
        <ele>1719.486</ele>
        <time>2021-05-28T20:02:21Z</time>
      </trkpt>
      <trkpt lat="42.560179" lon="2.461928">
        <ele>1718.183</ele>
        <time>2021-05-28T20:02:27Z</time>
      </trkpt>
      <trkpt lat="42.560174" lon="2.461785">
        <ele>1716.448</ele>
        <time>2021-05-28T20:02:32Z</time>
      </trkpt>
      <trkpt lat="42.560165" lon="2.461639">
        <ele>1715.115</ele>
        <time>2021-05-28T20:02:39Z</time>
      </trkpt>
      <trkpt lat="42.560235" lon="2.461552">
        <ele>1711.263</ele>
        <time>2021-05-28T20:02:47Z</time>
      </trkpt>
      <trkpt lat="42.560314" lon="2.461646">
        <ele>1708.084</ele>
        <time>2021-05-28T20:02:53Z</time>
      </trkpt>
      <trkpt lat="42.560391" lon="2.461749">
        <ele>1705.507</ele>
        <time>2021-05-28T20:02:59Z</time>
      </trkpt>
      <trkpt lat="42.560438" lon="2.461872">
        <ele>1704.917</ele>
        <time>2021-05-28T20:03:05Z</time>
      </trkpt>
      <trkpt lat="42.560492" lon="2.461983">
        <ele>1704.408</ele>
        <time>2021-05-28T20:03:11Z</time>
      </trkpt>
      <trkpt lat="42.560557" lon="2.462078">
        <ele>1704.365</ele>
        <time>2021-05-28T20:03:18Z</time>
      </trkpt>
      <trkpt lat="42.560645" lon="2.462156">
        <ele>1702.862</ele>
        <time>2021-05-28T20:03:23Z</time>
      </trkpt>
      <trkpt lat="42.560735" lon="2.462206">
        <ele>1700.643</ele>
        <time>2021-05-28T20:03:27Z</time>
      </trkpt>
      <trkpt lat="42.560830" lon="2.462221">
        <ele>1697.132</ele>
        <time>2021-05-28T20:03:34Z</time>
      </trkpt>
      <trkpt lat="42.560927" lon="2.462256">
        <ele>1694.489</ele>
        <time>2021-05-28T20:03:41Z</time>
      </trkpt>
      <trkpt lat="42.561041" lon="2.462284">
        <ele>1690.864</ele>
        <time>2021-05-28T20:03:45Z</time>
      </trkpt>
      <trkpt lat="42.561128" lon="2.462331">
        <ele>1689.011</ele>
        <time>2021-05-28T20:03:48Z</time>
      </trkpt>
      <trkpt lat="42.561227" lon="2.462377">
        <ele>1687.359</ele>
        <time>2021-05-28T20:03:54Z</time>
      </trkpt>
      <trkpt lat="42.561320" lon="2.462414">
        <ele>1685.437</ele>
        <time>2021-05-28T20:03:58Z</time>
      </trkpt>
      <trkpt lat="42.561419" lon="2.462450">
        <ele>1683.749</ele>
        <time>2021-05-28T20:04:04Z</time>
      </trkpt>
      <trkpt lat="42.561518" lon="2.462482">
        <ele>1682.613</ele>
        <time>2021-05-28T20:04:10Z</time>
      </trkpt>
      <trkpt lat="42.561622" lon="2.462531">
        <ele>1682.108</ele>
        <time>2021-05-28T20:04:14Z</time>
      </trkpt>
      <trkpt lat="42.561728" lon="2.462615">
        <ele>1681.790</ele>
        <time>2021-05-28T20:04:18Z</time>
      </trkpt>
      <trkpt lat="42.561804" lon="2.462567">
        <ele>1677.257</ele>
        <time>2021-05-28T20:04:29Z</time>
      </trkpt>
      <trkpt lat="42.561798" lon="2.462538">
        <ele>1676.518</ele>
        <time>2021-05-28T20:04:31Z</time>
      </trkpt>
      <trkpt lat="42.561742" lon="2.462430">
        <ele>1674.897</ele>
        <time>2021-05-28T20:04:36Z</time>
      </trkpt>
      <trkpt lat="42.561707" lon="2.462305">
        <ele>1671.574</ele>
        <time>2021-05-28T20:04:43Z</time>
      </trkpt>
      <trkpt lat="42.561637" lon="2.462208">
        <ele>1670.279</ele>
        <time>2021-05-28T20:04:48Z</time>
      </trkpt>
      <trkpt lat="42.561579" lon="2.462101">
        <ele>1668.156</ele>
        <time>2021-05-28T20:04:53Z</time>
      </trkpt>
      <trkpt lat="42.561530" lon="2.462047">
        <ele>1667.844</ele>
        <time>2021-05-28T20:04:56Z</time>
      </trkpt>
      <trkpt lat="42.561442" lon="2.461946">
        <ele>1667.361</ele>
        <time>2021-05-28T20:05:01Z</time>
      </trkpt>
      <trkpt lat="42.561363" lon="2.461861">
        <ele>1666.321</ele>
        <time>2021-05-28T20:05:05Z</time>
      </trkpt>
      <trkpt lat="42.561344" lon="2.461836">
        <ele>1665.713</ele>
        <time>2021-05-28T20:05:06Z</time>
      </trkpt>
      <trkpt lat="42.561333" lon="2.461806">
        <ele>1664.708</ele>
        <time>2021-05-28T20:05:07Z</time>
      </trkpt>
      <trkpt lat="42.561320" lon="2.461784">
        <ele>1664.173</ele>
        <time>2021-05-28T20:05:08Z</time>
      </trkpt>
      <trkpt lat="42.561285" lon="2.461705">
        <ele>1661.840</ele>
        <time>2021-05-28T20:05:12Z</time>
      </trkpt>
      <trkpt lat="42.561270" lon="2.461670">
        <ele>1660.771</ele>
        <time>2021-05-28T20:05:14Z</time>
      </trkpt>
      <trkpt lat="42.561249" lon="2.461612">
        <ele>1659.180</ele>
        <time>2021-05-28T20:05:17Z</time>
      </trkpt>
      <trkpt lat="42.561334" lon="2.461557">
        <ele>1654.837</ele>
        <time>2021-05-28T20:05:29Z</time>
      </trkpt>
      <trkpt lat="42.561419" lon="2.461598">
        <ele>1654.142</ele>
        <time>2021-05-28T20:05:35Z</time>
      </trkpt>
      <trkpt lat="42.561510" lon="2.461662">
        <ele>1653.979</ele>
        <time>2021-05-28T20:05:40Z</time>
      </trkpt>
      <trkpt lat="42.561606" lon="2.461721">
        <ele>1653.117</ele>
        <time>2021-05-28T20:05:45Z</time>
      </trkpt>
      <trkpt lat="42.561710" lon="2.461762">
        <ele>1651.346</ele>
        <time>2021-05-28T20:05:51Z</time>
      </trkpt>
      <trkpt lat="42.561802" lon="2.461830">
        <ele>1650.888</ele>
        <time>2021-05-28T20:05:55Z</time>
      </trkpt>
      <trkpt lat="42.561905" lon="2.461855">
        <ele>1648.216</ele>
        <time>2021-05-28T20:06:00Z</time>
      </trkpt>
      <trkpt lat="42.562000" lon="2.461887">
        <ele>1647.008</ele>
        <time>2021-05-28T20:06:04Z</time>
      </trkpt>
      <trkpt lat="42.562092" lon="2.461917">
        <ele>1646.841</ele>
        <time>2021-05-28T20:06:08Z</time>
      </trkpt>
      <trkpt lat="42.562180" lon="2.461970">
        <ele>1647.548</ele>
        <time>2021-05-28T20:06:14Z</time>
      </trkpt>
      <trkpt lat="42.562273" lon="2.462019">
        <ele>1647.729</ele>
        <time>2021-05-28T20:06:20Z</time>
      </trkpt>
      <trkpt lat="42.562374" lon="2.462047">
        <ele>1646.698</ele>
        <time>2021-05-28T20:06:26Z</time>
      </trkpt>
      <trkpt lat="42.562481" lon="2.462067">
        <ele>1644.955</ele>
        <time>2021-05-28T20:06:31Z</time>
      </trkpt>
      <trkpt lat="42.562562" lon="2.462096">
        <ele>1643.960</ele>
        <time>2021-05-28T20:06:35Z</time>
      </trkpt>
      <trkpt lat="42.562652" lon="2.462078">
        <ele>1641.387</ele>
        <time>2021-05-28T20:06:40Z</time>
      </trkpt>
      <trkpt lat="42.562715" lon="2.462073">
        <ele>1639.695</ele>
        <time>2021-05-28T20:06:45Z</time>
      </trkpt>
      <trkpt lat="42.562743" lon="2.462069">
        <ele>1638.999</ele>
        <time>2021-05-28T20:06:47Z</time>
      </trkpt>
      <trkpt lat="42.562737" lon="2.462042">
        <ele>1638.107</ele>
        <time>2021-05-28T20:06:49Z</time>
      </trkpt>
      <trkpt lat="42.562748" lon="2.462020">
        <ele>1637.227</ele>
        <time>2021-05-28T20:06:51Z</time>
      </trkpt>
      <trkpt lat="42.562766" lon="2.461993">
        <ele>1635.908</ele>
        <time>2021-05-28T20:06:53Z</time>
      </trkpt>
      <trkpt lat="42.562800" lon="2.461995">
        <ele>1635.316</ele>
        <time>2021-05-28T20:06:55Z</time>
      </trkpt>
      <trkpt lat="42.562832" lon="2.461999">
        <ele>1634.883</ele>
        <time>2021-05-28T20:06:57Z</time>
      </trkpt>
      <trkpt lat="42.562858" lon="2.462004">
        <ele>1634.544</ele>
        <time>2021-05-28T20:06:59Z</time>
      </trkpt>
      <trkpt lat="42.562892" lon="2.462006">
        <ele>1634.043</ele>
        <time>2021-05-28T20:07:01Z</time>
      </trkpt>
      <trkpt lat="42.562923" lon="2.462007">
        <ele>1633.590</ele>
        <time>2021-05-28T20:07:03Z</time>
      </trkpt>
      <trkpt lat="42.562947" lon="2.461993">
        <ele>1632.735</ele>
        <time>2021-05-28T20:07:05Z</time>
      </trkpt>
      <trkpt lat="42.562978" lon="2.461987">
        <ele>1632.112</ele>
        <time>2021-05-28T20:07:07Z</time>
      </trkpt>
      <trkpt lat="42.563002" lon="2.461986">
        <ele>1631.660</ele>
        <time>2021-05-28T20:07:09Z</time>
      </trkpt>
      <trkpt lat="42.563041" lon="2.461937">
        <ele>1630.027</ele>
        <time>2021-05-28T20:07:13Z</time>
      </trkpt>
      <trkpt lat="42.563054" lon="2.461910">
        <ele>1629.068</ele>
        <time>2021-05-28T20:07:15Z</time>
      </trkpt>
      <trkpt lat="42.563051" lon="2.461875">
        <ele>1628.114</ele>
        <time>2021-05-28T20:07:17Z</time>
      </trkpt>
      <trkpt lat="42.563043" lon="2.461853">
        <ele>1627.508</ele>
        <time>2021-05-28T20:07:18Z</time>
      </trkpt>
      <trkpt lat="42.563032" lon="2.461831">
        <ele>1627.189</ele>
        <time>2021-05-28T20:07:19Z</time>
      </trkpt>
      <trkpt lat="42.563021" lon="2.461801">
        <ele>1626.496</ele>
        <time>2021-05-28T20:07:21Z</time>
      </trkpt>
      <trkpt lat="42.563007" lon="2.461780">
        <ele>1626.037</ele>
        <time>2021-05-28T20:07:23Z</time>
      </trkpt>
      <trkpt lat="42.562957" lon="2.461666">
        <ele>1623.426</ele>
        <time>2021-05-28T20:07:29Z</time>
      </trkpt>
      <trkpt lat="42.562882" lon="2.461588">
        <ele>1621.393</ele>
        <time>2021-05-28T20:07:34Z</time>
      </trkpt>
      <trkpt lat="42.562868" lon="2.461570">
        <ele>1620.818</ele>
        <time>2021-05-28T20:07:35Z</time>
      </trkpt>
      <trkpt lat="42.562801" lon="2.461475">
        <ele>1618.075</ele>
        <time>2021-05-28T20:07:40Z</time>
      </trkpt>
      <trkpt lat="42.562742" lon="2.461362">
        <ele>1614.473</ele>
        <time>2021-05-28T20:07:48Z</time>
      </trkpt>
      <trkpt lat="42.562693" lon="2.461257">
        <ele>1610.549</ele>
        <time>2021-05-28T20:07:54Z</time>
      </trkpt>
      <trkpt lat="42.562663" lon="2.461187">
        <ele>1607.902</ele>
        <time>2021-05-28T20:08:01Z</time>
      </trkpt>
      <trkpt lat="42.562759" lon="2.461203">
        <ele>1607.222</ele>
        <time>2021-05-28T20:08:12Z</time>
      </trkpt>
      <trkpt lat="42.562867" lon="2.461212">
        <ele>1606.408</ele>
        <time>2021-05-28T20:08:20Z</time>
      </trkpt>
      <trkpt lat="42.562956" lon="2.461177">
        <ele>1604.141</ele>
        <time>2021-05-28T20:08:30Z</time>
      </trkpt>
      <trkpt lat="42.562923" lon="2.461063">
        <ele>1600.158</ele>
        <time>2021-05-28T20:08:39Z</time>
      </trkpt>
      <trkpt lat="42.562907" lon="2.460938">
        <ele>1595.539</ele>
        <time>2021-05-28T20:08:47Z</time>
      </trkpt>
      <trkpt lat="42.562844" lon="2.460849">
        <ele>1591.988</ele>
        <time>2021-05-28T20:08:56Z</time>
      </trkpt>
      <trkpt lat="42.562828" lon="2.460811">
        <ele>1590.515</ele>
        <time>2021-05-28T20:08:59Z</time>
      </trkpt>
      <trkpt lat="42.562748" lon="2.460743">
        <ele>1589.340</ele>
        <time>2021-05-28T20:09:11Z</time>
      </trkpt>
      <trkpt lat="42.562672" lon="2.460678">
        <ele>1590.377</ele>
        <time>2021-05-28T20:09:17Z</time>
      </trkpt>
      <trkpt lat="42.562724" lon="2.460557">
        <ele>1585.625</ele>
        <time>2021-05-28T20:09:30Z</time>
      </trkpt>
      <trkpt lat="42.562825" lon="2.460498">
        <ele>1583.273</ele>
        <time>2021-05-28T20:09:36Z</time>
      </trkpt>
      <trkpt lat="42.562901" lon="2.460415">
        <ele>1581.885</ele>
        <time>2021-05-28T20:09:41Z</time>
      </trkpt>
      <trkpt lat="42.562960" lon="2.460319">
        <ele>1579.313</ele>
        <time>2021-05-28T20:09:48Z</time>
      </trkpt>
      <trkpt lat="42.563058" lon="2.460288">
        <ele>1574.108</ele>
        <time>2021-05-28T20:09:52Z</time>
      </trkpt>
      <trkpt lat="42.563119" lon="2.460182">
        <ele>1572.754</ele>
        <time>2021-05-28T20:09:57Z</time>
      </trkpt>
      <trkpt lat="42.563167" lon="2.460058">
        <ele>1571.681</ele>
        <time>2021-05-28T20:10:02Z</time>
      </trkpt>
      <trkpt lat="42.563234" lon="2.459951">
        <ele>1568.892</ele>
        <time>2021-05-28T20:10:08Z</time>
      </trkpt>
      <trkpt lat="42.563284" lon="2.459847">
        <ele>1567.381</ele>
        <time>2021-05-28T20:10:14Z</time>
      </trkpt>
      <trkpt lat="42.563337" lon="2.459734">
        <ele>1565.648</ele>
        <time>2021-05-28T20:10:19Z</time>
      </trkpt>
      <trkpt lat="42.563346" lon="2.459599">
        <ele>1564.863</ele>
        <time>2021-05-28T20:10:26Z</time>
      </trkpt>
      <trkpt lat="42.563415" lon="2.459509">
        <ele>1559.940</ele>
        <time>2021-05-28T20:10:36Z</time>
      </trkpt>
      <trkpt lat="42.563471" lon="2.459611">
        <ele>1557.148</ele>
        <time>2021-05-28T20:10:45Z</time>
      </trkpt>
      <trkpt lat="42.563528" lon="2.459497">
        <ele>1552.384</ele>
        <time>2021-05-28T20:10:55Z</time>
      </trkpt>
      <trkpt lat="42.563555" lon="2.459372">
        <ele>1548.007</ele>
        <time>2021-05-28T20:11:02Z</time>
      </trkpt>
      <trkpt lat="42.563542" lon="2.459235">
        <ele>1545.417</ele>
        <time>2021-05-28T20:11:08Z</time>
      </trkpt>
      <trkpt lat="42.563524" lon="2.459102">
        <ele>1542.708</ele>
        <time>2021-05-28T20:11:15Z</time>
      </trkpt>
      <trkpt lat="42.563507" lon="2.458959">
        <ele>1538.965</ele>
        <time>2021-05-28T20:11:21Z</time>
      </trkpt>
      <trkpt lat="42.563510" lon="2.458823">
        <ele>1533.932</ele>
        <time>2021-05-28T20:11:29Z</time>
      </trkpt>
      <trkpt lat="42.563552" lon="2.458700">
        <ele>1526.783</ele>
        <time>2021-05-28T20:11:44Z</time>
      </trkpt>
      <trkpt lat="42.563513" lon="2.458574">
        <ele>1524.762</ele>
        <time>2021-05-28T20:11:52Z</time>
      </trkpt>
      <trkpt lat="42.563597" lon="2.458630">
        <ele>1521.599</ele>
        <time>2021-05-28T20:12:09Z</time>
      </trkpt>
      <trkpt lat="42.563682" lon="2.458689">
        <ele>1518.054</ele>
        <time>2021-05-28T20:12:16Z</time>
      </trkpt>
      <trkpt lat="42.563774" lon="2.458670">
        <ele>1511.731</ele>
        <time>2021-05-28T20:12:25Z</time>
      </trkpt>
      <trkpt lat="42.563760" lon="2.458519">
        <ele>1508.149</ele>
        <time>2021-05-28T20:12:33Z</time>
      </trkpt>
      <trkpt lat="42.563747" lon="2.458385">
        <ele>1504.783</ele>
        <time>2021-05-28T20:12:38Z</time>
      </trkpt>
      <trkpt lat="42.563813" lon="2.458296">
        <ele>1498.825</ele>
        <time>2021-05-28T20:12:53Z</time>
      </trkpt>
      <trkpt lat="42.563814" lon="2.458168">
        <ele>1495.417</ele>
        <time>2021-05-28T20:13:00Z</time>
      </trkpt>
      <trkpt lat="42.563802" lon="2.458046">
        <ele>1492.808</ele>
        <time>2021-05-28T20:13:06Z</time>
      </trkpt>
      <trkpt lat="42.563822" lon="2.457922">
        <ele>1488.835</ele>
        <time>2021-05-28T20:13:12Z</time>
      </trkpt>
      <trkpt lat="42.563836" lon="2.457794">
        <ele>1485.172</ele>
        <time>2021-05-28T20:13:18Z</time>
      </trkpt>
      <trkpt lat="42.563811" lon="2.457682">
        <ele>1482.983</ele>
        <time>2021-05-28T20:13:23Z</time>
      </trkpt>
      <trkpt lat="42.563795" lon="2.457661">
        <ele>1482.852</ele>
        <time>2021-05-28T20:13:25Z</time>
      </trkpt>
      <trkpt lat="42.563802" lon="2.457611">
        <ele>1481.249</ele>
        <time>2021-05-28T20:13:30Z</time>
      </trkpt>
      <trkpt lat="42.563811" lon="2.457586">
        <ele>1480.344</ele>
        <time>2021-05-28T20:13:32Z</time>
      </trkpt>
      <trkpt lat="42.563915" lon="2.457644">
        <ele>1477.641</ele>
        <time>2021-05-28T20:13:43Z</time>
      </trkpt>
      <trkpt lat="42.563930" lon="2.457615">
        <ele>1475.749</ele>
        <time>2021-05-28T20:13:46Z</time>
      </trkpt>
      <trkpt lat="42.563937" lon="2.457587">
        <ele>1474.448</ele>
        <time>2021-05-28T20:13:47Z</time>
      </trkpt>
      <trkpt lat="42.563931" lon="2.457540">
        <ele>1473.861</ele>
        <time>2021-05-28T20:13:50Z</time>
      </trkpt>
      <trkpt lat="42.563940" lon="2.457495">
        <ele>1472.017</ele>
        <time>2021-05-28T20:13:53Z</time>
      </trkpt>
      <trkpt lat="42.563938" lon="2.457449">
        <ele>1470.608</ele>
        <time>2021-05-28T20:13:56Z</time>
      </trkpt>
      <trkpt lat="42.563948" lon="2.457404">
        <ele>1468.521</ele>
        <time>2021-05-28T20:13:59Z</time>
      </trkpt>
      <trkpt lat="42.563932" lon="2.457374">
        <ele>1468.668</ele>
        <time>2021-05-28T20:14:01Z</time>
      </trkpt>
      <trkpt lat="42.563914" lon="2.457342">
        <ele>1468.759</ele>
        <time>2021-05-28T20:14:03Z</time>
      </trkpt>
      <trkpt lat="42.563899" lon="2.457307">
        <ele>1468.478</ele>
        <time>2021-05-28T20:14:05Z</time>
      </trkpt>
      <trkpt lat="42.563881" lon="2.457264">
        <ele>1467.715</ele>
        <time>2021-05-28T20:14:07Z</time>
      </trkpt>
      <trkpt lat="42.563860" lon="2.457233">
        <ele>1467.160</ele>
        <time>2021-05-28T20:14:09Z</time>
      </trkpt>
      <trkpt lat="42.563850" lon="2.457193">
        <ele>1465.697</ele>
        <time>2021-05-28T20:14:11Z</time>
      </trkpt>
      <trkpt lat="42.563841" lon="2.457158">
        <ele>1464.215</ele>
        <time>2021-05-28T20:14:13Z</time>
      </trkpt>
      <trkpt lat="42.563823" lon="2.457130">
        <ele>1463.433</ele>
        <time>2021-05-28T20:14:15Z</time>
      </trkpt>
      <trkpt lat="42.563810" lon="2.457101">
        <ele>1462.423</ele>
        <time>2021-05-28T20:14:17Z</time>
      </trkpt>
      <trkpt lat="42.563797" lon="2.457070">
        <ele>1461.415</ele>
        <time>2021-05-28T20:14:19Z</time>
      </trkpt>
      <trkpt lat="42.563786" lon="2.457045">
        <ele>1460.508</ele>
        <time>2021-05-28T20:14:21Z</time>
      </trkpt>
      <trkpt lat="42.563759" lon="2.457009">
        <ele>1459.780</ele>
        <time>2021-05-28T20:14:23Z</time>
      </trkpt>
      <trkpt lat="42.563744" lon="2.456982">
        <ele>1458.997</ele>
        <time>2021-05-28T20:14:25Z</time>
      </trkpt>
      <trkpt lat="42.563730" lon="2.456958">
        <ele>1458.238</ele>
        <time>2021-05-28T20:14:27Z</time>
      </trkpt>
      <trkpt lat="42.563695" lon="2.456909">
        <ele>1456.757</ele>
        <time>2021-05-28T20:14:30Z</time>
      </trkpt>
      <trkpt lat="42.563680" lon="2.456895">
        <ele>1456.444</ele>
        <time>2021-05-28T20:14:31Z</time>
      </trkpt>
      <trkpt lat="42.563658" lon="2.456879">
        <ele>1456.269</ele>
        <time>2021-05-28T20:14:32Z</time>
      </trkpt>
      <trkpt lat="42.563638" lon="2.456861">
        <ele>1455.716</ele>
        <time>2021-05-28T20:14:33Z</time>
      </trkpt>
      <trkpt lat="42.563624" lon="2.456845">
        <ele>1455.384</ele>
        <time>2021-05-28T20:14:34Z</time>
      </trkpt>
      <trkpt lat="42.563607" lon="2.456814">
        <ele>1454.173</ele>
        <time>2021-05-28T20:14:36Z</time>
      </trkpt>
      <trkpt lat="42.563589" lon="2.456788">
        <ele>1453.385</ele>
        <time>2021-05-28T20:14:38Z</time>
      </trkpt>
      <trkpt lat="42.563562" lon="2.456766">
        <ele>1453.113</ele>
        <time>2021-05-28T20:14:40Z</time>
      </trkpt>
      <trkpt lat="42.563547" lon="2.456732">
        <ele>1451.808</ele>
        <time>2021-05-28T20:14:42Z</time>
      </trkpt>
      <trkpt lat="42.563530" lon="2.456709">
        <ele>1451.344</ele>
        <time>2021-05-28T20:14:44Z</time>
      </trkpt>
      <trkpt lat="42.563513" lon="2.456678">
        <ele>1450.451</ele>
        <time>2021-05-28T20:14:47Z</time>
      </trkpt>
      <trkpt lat="42.563492" lon="2.456653">
        <ele>1450.172</ele>
        <time>2021-05-28T20:14:50Z</time>
      </trkpt>
      <trkpt lat="42.563472" lon="2.456623">
        <ele>1449.541</ele>
        <time>2021-05-28T20:14:52Z</time>
      </trkpt>
      <trkpt lat="42.563448" lon="2.456595">
        <ele>1449.268</ele>
        <time>2021-05-28T20:14:54Z</time>
      </trkpt>
      <trkpt lat="42.563437" lon="2.456571">
        <ele>1448.563</ele>
        <time>2021-05-28T20:14:56Z</time>
      </trkpt>
      <trkpt lat="42.563414" lon="2.456528">
        <ele>1447.510</ele>
        <time>2021-05-28T20:14:59Z</time>
      </trkpt>
      <trkpt lat="42.563398" lon="2.456513">
        <ele>1447.478</ele>
        <time>2021-05-28T20:15:00Z</time>
      </trkpt>
      <trkpt lat="42.563378" lon="2.456490">
        <ele>1447.127</ele>
        <time>2021-05-28T20:15:02Z</time>
      </trkpt>
      <trkpt lat="42.563355" lon="2.456477">
        <ele>1447.368</ele>
        <time>2021-05-28T20:15:04Z</time>
      </trkpt>
      <trkpt lat="42.563337" lon="2.456448">
        <ele>1446.614</ele>
        <time>2021-05-28T20:15:06Z</time>
      </trkpt>
      <trkpt lat="42.563314" lon="2.456388">
        <ele>1444.808</ele>
        <time>2021-05-28T20:15:10Z</time>
      </trkpt>
      <trkpt lat="42.563293" lon="2.456335">
        <ele>1443.959</ele>
        <time>2021-05-28T20:15:17Z</time>
      </trkpt>
      <trkpt lat="42.563282" lon="2.456312">
        <ele>1443.656</ele>
        <time>2021-05-28T20:15:21Z</time>
      </trkpt>
      <trkpt lat="42.563277" lon="2.456283">
        <ele>1442.817</ele>
        <time>2021-05-28T20:15:25Z</time>
      </trkpt>
      <trkpt lat="42.563281" lon="2.456256">
        <ele>1441.726</ele>
        <time>2021-05-28T20:15:28Z</time>
      </trkpt>
      <trkpt lat="42.563284" lon="2.456227">
        <ele>1440.563</ele>
        <time>2021-05-28T20:15:31Z</time>
      </trkpt>
      <trkpt lat="42.563294" lon="2.456207">
        <ele>1439.378</ele>
        <time>2021-05-28T20:15:33Z</time>
      </trkpt>
      <trkpt lat="42.563299" lon="2.456183">
        <ele>1438.315</ele>
        <time>2021-05-28T20:15:35Z</time>
      </trkpt>
      <trkpt lat="42.563289" lon="2.456053">
        <ele>1434.033</ele>
        <time>2021-05-28T20:15:46Z</time>
      </trkpt>
      <trkpt lat="42.563257" lon="2.455938">
        <ele>1431.529</ele>
        <time>2021-05-28T20:15:56Z</time>
      </trkpt>
      <trkpt lat="42.563239" lon="2.455816">
        <ele>1428.200</ele>
        <time>2021-05-28T20:16:01Z</time>
      </trkpt>
      <trkpt lat="42.563209" lon="2.455765">
        <ele>1428.320</ele>
        <time>2021-05-28T20:16:05Z</time>
      </trkpt>
      <trkpt lat="42.563214" lon="2.455711">
        <ele>1426.208</ele>
        <time>2021-05-28T20:16:09Z</time>
      </trkpt>
      <trkpt lat="42.563222" lon="2.455672">
        <ele>1424.459</ele>
        <time>2021-05-28T20:16:16Z</time>
      </trkpt>
      <trkpt lat="42.563218" lon="2.455646">
        <ele>1423.856</ele>
        <time>2021-05-28T20:16:18Z</time>
      </trkpt>
      <trkpt lat="42.563209" lon="2.455618">
        <ele>1423.577</ele>
        <time>2021-05-28T20:16:21Z</time>
      </trkpt>
      <trkpt lat="42.563214" lon="2.455589">
        <ele>1422.126</ele>
        <time>2021-05-28T20:16:25Z</time>
      </trkpt>
      <trkpt lat="42.563219" lon="2.455553">
        <ele>1420.693</ele>
        <time>2021-05-28T20:16:28Z</time>
      </trkpt>
      <trkpt lat="42.563226" lon="2.455530">
        <ele>1420.078</ele>
        <time>2021-05-28T20:16:31Z</time>
      </trkpt>
      <trkpt lat="42.563215" lon="2.455508">
        <ele>1420.845</ele>
        <time>2021-05-28T20:16:34Z</time>
      </trkpt>
      <trkpt lat="42.563225" lon="2.455460">
        <ele>1419.883</ele>
        <time>2021-05-28T20:16:38Z</time>
      </trkpt>
      <trkpt lat="42.563240" lon="2.455417">
        <ele>1418.697</ele>
        <time>2021-05-28T20:16:42Z</time>
      </trkpt>
      <trkpt lat="42.563262" lon="2.455289">
        <ele>1416.423</ele>
        <time>2021-05-28T20:16:51Z</time>
      </trkpt>
      <trkpt lat="42.563265" lon="2.455159">
        <ele>1417.925</ele>
        <time>2021-05-28T20:16:57Z</time>
      </trkpt>
      <trkpt lat="42.563281" lon="2.455033">
        <ele>1418.708</ele>
        <time>2021-05-28T20:17:02Z</time>
      </trkpt>
      <trkpt lat="42.563320" lon="2.454906">
        <ele>1418.516</ele>
        <time>2021-05-28T20:17:07Z</time>
      </trkpt>
      <trkpt lat="42.563356" lon="2.454773">
        <ele>1418.823</ele>
        <time>2021-05-28T20:17:13Z</time>
      </trkpt>
      <trkpt lat="42.563405" lon="2.454671">
        <ele>1418.234</ele>
        <time>2021-05-28T20:17:18Z</time>
      </trkpt>
      <trkpt lat="42.563457" lon="2.454570">
        <ele>1417.473</ele>
        <time>2021-05-28T20:17:26Z</time>
      </trkpt>
      <trkpt lat="42.563510" lon="2.454471">
        <ele>1416.380</ele>
        <time>2021-05-28T20:17:31Z</time>
      </trkpt>
      <trkpt lat="42.563584" lon="2.454386">
        <ele>1413.765</ele>
        <time>2021-05-28T20:17:35Z</time>
      </trkpt>
      <trkpt lat="42.563659" lon="2.454308">
        <ele>1410.582</ele>
        <time>2021-05-28T20:17:39Z</time>
      </trkpt>
      <trkpt lat="42.563722" lon="2.454220">
        <ele>1408.350</ele>
        <time>2021-05-28T20:17:43Z</time>
      </trkpt>
      <trkpt lat="42.563749" lon="2.454090">
        <ele>1408.894</ele>
        <time>2021-05-28T20:17:49Z</time>
      </trkpt>
      <trkpt lat="42.563734" lon="2.453964">
        <ele>1411.957</ele>
        <time>2021-05-28T20:17:54Z</time>
      </trkpt>
      <trkpt lat="42.563736" lon="2.453830">
        <ele>1414.422</ele>
        <time>2021-05-28T20:18:00Z</time>
      </trkpt>
      <trkpt lat="42.563759" lon="2.453702">
        <ele>1415.808</ele>
        <time>2021-05-28T20:18:05Z</time>
      </trkpt>
      <trkpt lat="42.563810" lon="2.453621">
        <ele>1414.616</ele>
        <time>2021-05-28T20:18:09Z</time>
      </trkpt>
      <trkpt lat="42.563817" lon="2.453579">
        <ele>1415.123</ele>
        <time>2021-05-28T20:18:11Z</time>
      </trkpt>
      <trkpt lat="42.563821" lon="2.453551">
        <ele>1415.664</ele>
        <time>2021-05-28T20:18:13Z</time>
      </trkpt>
      <trkpt lat="42.563828" lon="2.453521">
        <ele>1415.973</ele>
        <time>2021-05-28T20:18:15Z</time>
      </trkpt>
      <trkpt lat="42.563842" lon="2.453494">
        <ele>1415.710</ele>
        <time>2021-05-28T20:18:17Z</time>
      </trkpt>
      <trkpt lat="42.563845" lon="2.453457">
        <ele>1416.485</ele>
        <time>2021-05-28T20:18:19Z</time>
      </trkpt>
      <trkpt lat="42.563856" lon="2.453422">
        <ele>1416.662</ele>
        <time>2021-05-28T20:18:21Z</time>
      </trkpt>
      <trkpt lat="42.563864" lon="2.453385">
        <ele>1417.130</ele>
        <time>2021-05-28T20:18:23Z</time>
      </trkpt>
      <trkpt lat="42.563861" lon="2.453348">
        <ele>1418.183</ele>
        <time>2021-05-28T20:18:25Z</time>
      </trkpt>
      <trkpt lat="42.563871" lon="2.453323">
        <ele>1418.225</ele>
        <time>2021-05-28T20:18:27Z</time>
      </trkpt>
      <trkpt lat="42.563880" lon="2.453296">
        <ele>1418.217</ele>
        <time>2021-05-28T20:18:29Z</time>
      </trkpt>
      <trkpt lat="42.563898" lon="2.453273">
        <ele>1417.608</ele>
        <time>2021-05-28T20:18:31Z</time>
      </trkpt>
      <trkpt lat="42.563917" lon="2.453251">
        <ele>1417.065</ele>
        <time>2021-05-28T20:18:33Z</time>
      </trkpt>
      <trkpt lat="42.563934" lon="2.453230">
        <ele>1416.532</ele>
        <time>2021-05-28T20:18:34Z</time>
      </trkpt>
      <trkpt lat="42.563952" lon="2.453207">
        <ele>1416.153</ele>
        <time>2021-05-28T20:18:35Z</time>
      </trkpt>
      <trkpt lat="42.563965" lon="2.453179">
        <ele>1416.052</ele>
        <time>2021-05-28T20:18:36Z</time>
      </trkpt>
      <trkpt lat="42.563975" lon="2.453133">
        <ele>1416.499</ele>
        <time>2021-05-28T20:18:38Z</time>
      </trkpt>
      <trkpt lat="42.563986" lon="2.453111">
        <ele>1416.384</ele>
        <time>2021-05-28T20:18:39Z</time>
      </trkpt>
      <trkpt lat="42.563998" lon="2.453090">
        <ele>1416.281</ele>
        <time>2021-05-28T20:18:40Z</time>
      </trkpt>
      <trkpt lat="42.564004" lon="2.453064">
        <ele>1416.429</ele>
        <time>2021-05-28T20:18:41Z</time>
      </trkpt>
      <trkpt lat="42.564003" lon="2.453025">
        <ele>1417.014</ele>
        <time>2021-05-28T20:18:43Z</time>
      </trkpt>
      <trkpt lat="42.564006" lon="2.452993">
        <ele>1417.254</ele>
        <time>2021-05-28T20:18:45Z</time>
      </trkpt>
      <trkpt lat="42.564005" lon="2.452963">
        <ele>1417.609</ele>
        <time>2021-05-28T20:18:47Z</time>
      </trkpt>
      <trkpt lat="42.564009" lon="2.452925">
        <ele>1417.908</ele>
        <time>2021-05-28T20:18:49Z</time>
      </trkpt>
      <trkpt lat="42.564017" lon="2.452899">
        <ele>1417.968</ele>
        <time>2021-05-28T20:18:51Z</time>
      </trkpt>
      <trkpt lat="42.564029" lon="2.452879">
        <ele>1417.765</ele>
        <time>2021-05-28T20:18:53Z</time>
      </trkpt>
      <trkpt lat="42.564047" lon="2.452858">
        <ele>1417.316</ele>
        <time>2021-05-28T20:18:55Z</time>
      </trkpt>
      <trkpt lat="42.564061" lon="2.452832">
        <ele>1417.265</ele>
        <time>2021-05-28T20:18:57Z</time>
      </trkpt>
      <trkpt lat="42.564081" lon="2.452807">
        <ele>1417.062</ele>
        <time>2021-05-28T20:18:59Z</time>
      </trkpt>
      <trkpt lat="42.564092" lon="2.452785">
        <ele>1417.077</ele>
        <time>2021-05-28T20:19:01Z</time>
      </trkpt>
      <trkpt lat="42.564107" lon="2.452769">
        <ele>1416.694</ele>
        <time>2021-05-28T20:19:04Z</time>
      </trkpt>
      <trkpt lat="42.564099" lon="2.452744">
        <ele>1416.542</ele>
        <time>2021-05-28T20:19:31Z</time>
      </trkpt>
      <trkpt lat="42.564114" lon="2.452721">
        <ele>1415.867</ele>
        <time>2021-05-28T20:19:35Z</time>
      </trkpt>
      <trkpt lat="42.564133" lon="2.452707">
        <ele>1415.181</ele>
        <time>2021-05-28T20:19:38Z</time>
      </trkpt>
      <trkpt lat="42.564150" lon="2.452695">
        <ele>1414.519</ele>
        <time>2021-05-28T20:19:39Z</time>
      </trkpt>
      <trkpt lat="42.564168" lon="2.452691">
        <ele>1414.008</ele>
        <time>2021-05-28T20:19:41Z</time>
      </trkpt>
      <trkpt lat="42.564184" lon="2.452666">
        <ele>1413.223</ele>
        <time>2021-05-28T20:19:44Z</time>
      </trkpt>
      <trkpt lat="42.564190" lon="2.452642">
        <ele>1412.850</ele>
        <time>2021-05-28T20:19:46Z</time>
      </trkpt>
      <trkpt lat="42.564202" lon="2.452622">
        <ele>1412.321</ele>
        <time>2021-05-28T20:19:48Z</time>
      </trkpt>
      <trkpt lat="42.564222" lon="2.452599">
        <ele>1411.520</ele>
        <time>2021-05-28T20:19:50Z</time>
      </trkpt>
      <trkpt lat="42.564237" lon="2.452574">
        <ele>1410.927</ele>
        <time>2021-05-28T20:19:52Z</time>
      </trkpt>
      <trkpt lat="42.564251" lon="2.452544">
        <ele>1410.432</ele>
        <time>2021-05-28T20:19:54Z</time>
      </trkpt>
      <trkpt lat="42.564262" lon="2.452523">
        <ele>1410.049</ele>
        <time>2021-05-28T20:19:57Z</time>
      </trkpt>
      <trkpt lat="42.564270" lon="2.452499">
        <ele>1409.777</ele>
        <time>2021-05-28T20:20:01Z</time>
      </trkpt>
      <trkpt lat="42.564288" lon="2.452483">
        <ele>1409.177</ele>
        <time>2021-05-28T20:20:11Z</time>
      </trkpt>
      <trkpt lat="42.564300" lon="2.452460">
        <ele>1408.461</ele>
        <time>2021-05-28T20:20:14Z</time>
      </trkpt>
      <trkpt lat="42.564296" lon="2.452434">
        <ele>1408.027</ele>
        <time>2021-05-28T20:20:19Z</time>
      </trkpt>
      <trkpt lat="42.564291" lon="2.452406">
        <ele>1407.608</ele>
        <time>2021-05-28T20:20:21Z</time>
      </trkpt>
      <trkpt lat="42.564282" lon="2.452384">
        <ele>1407.394</ele>
        <time>2021-05-28T20:20:27Z</time>
      </trkpt>
      <trkpt lat="42.564267" lon="2.452361">
        <ele>1407.161</ele>
        <time>2021-05-28T20:21:25Z</time>
      </trkpt>
      <trkpt lat="42.564266" lon="2.452328">
        <ele>1406.482</ele>
        <time>2021-05-28T20:21:28Z</time>
      </trkpt>
      <trkpt lat="42.564268" lon="2.452302">
        <ele>1405.961</ele>
        <time>2021-05-28T20:21:30Z</time>
      </trkpt>
      <trkpt lat="42.564277" lon="2.452275">
        <ele>1405.258</ele>
        <time>2021-05-28T20:21:33Z</time>
      </trkpt>
      <trkpt lat="42.564290" lon="2.452247">
        <ele>1404.643</ele>
        <time>2021-05-28T20:21:36Z</time>
      </trkpt>
      <trkpt lat="42.564309" lon="2.452224">
        <ele>1404.090</ele>
        <time>2021-05-28T20:21:38Z</time>
      </trkpt>
      <trkpt lat="42.564311" lon="2.452193">
        <ele>1403.398</ele>
        <time>2021-05-28T20:21:40Z</time>
      </trkpt>
      <trkpt lat="42.564309" lon="2.452157">
        <ele>1402.521</ele>
        <time>2021-05-28T20:21:42Z</time>
      </trkpt>
      <trkpt lat="42.564324" lon="2.452130">
        <ele>1401.841</ele>
        <time>2021-05-28T20:21:45Z</time>
      </trkpt>
      <trkpt lat="42.564338" lon="2.452109">
        <ele>1401.305</ele>
        <time>2021-05-28T20:21:47Z</time>
      </trkpt>
      <trkpt lat="42.564342" lon="2.452085">
        <ele>1400.708</ele>
        <time>2021-05-28T20:21:49Z</time>
      </trkpt>
      <trkpt lat="42.564341" lon="2.452054">
        <ele>1400.029</ele>
        <time>2021-05-28T20:21:52Z</time>
      </trkpt>
      <trkpt lat="42.564347" lon="2.452025">
        <ele>1399.466</ele>
        <time>2021-05-28T20:21:56Z</time>
      </trkpt>
      <trkpt lat="42.564357" lon="2.452002">
        <ele>1398.957</ele>
        <time>2021-05-28T20:23:00Z</time>
      </trkpt>
      <trkpt lat="42.564340" lon="2.452012">
        <ele>1399.126</ele>
        <time>2021-05-28T20:26:55Z</time>
      </trkpt>
      <trkpt lat="42.564344" lon="2.451987">
        <ele>1398.673</ele>
        <time>2021-05-28T20:29:26Z</time>
      </trkpt>
      <trkpt lat="42.564365" lon="2.451969">
        <ele>1398.288</ele>
        <time>2021-05-28T20:29:30Z</time>
      </trkpt>
      <trkpt lat="42.564379" lon="2.451945">
        <ele>1397.835</ele>
        <time>2021-05-28T20:29:33Z</time>
      </trkpt>
      <trkpt lat="42.564397" lon="2.451925">
        <ele>1397.453</ele>
        <time>2021-05-28T20:29:35Z</time>
      </trkpt>
      <trkpt lat="42.564409" lon="2.451905">
        <ele>1396.948</ele>
        <time>2021-05-28T20:29:38Z</time>
      </trkpt>
      <trkpt lat="42.564415" lon="2.451870">
        <ele>1396.261</ele>
        <time>2021-05-28T20:29:41Z</time>
      </trkpt>
      <trkpt lat="42.564430" lon="2.451852">
        <ele>1395.917</ele>
        <time>2021-05-28T20:29:43Z</time>
      </trkpt>
      <trkpt lat="42.564443" lon="2.451829">
        <ele>1395.508</ele>
        <time>2021-05-28T20:29:45Z</time>
      </trkpt>
      <trkpt lat="42.564446" lon="2.451797">
        <ele>1394.841</ele>
        <time>2021-05-28T20:29:47Z</time>
      </trkpt>
      <trkpt lat="42.564453" lon="2.451767">
        <ele>1394.068</ele>
        <time>2021-05-28T20:29:49Z</time>
      </trkpt>
      <trkpt lat="42.564465" lon="2.451734">
        <ele>1393.299</ele>
        <time>2021-05-28T20:29:51Z</time>
      </trkpt>
      <trkpt lat="42.564481" lon="2.451704">
        <ele>1392.478</ele>
        <time>2021-05-28T20:29:54Z</time>
      </trkpt>
      <trkpt lat="42.564475" lon="2.451664">
        <ele>1391.695</ele>
        <time>2021-05-28T20:29:56Z</time>
      </trkpt>
      <trkpt lat="42.564468" lon="2.451627">
        <ele>1390.240</ele>
        <time>2021-05-28T20:29:58Z</time>
      </trkpt>
      <trkpt lat="42.564457" lon="2.451600">
        <ele>1389.327</ele>
        <time>2021-05-28T20:30:00Z</time>
      </trkpt>
      <trkpt lat="42.564479" lon="2.451601">
        <ele>1389.295</ele>
        <time>2021-05-28T20:30:03Z</time>
      </trkpt>
      <trkpt lat="42.564498" lon="2.451605">
        <ele>1389.238</ele>
        <time>2021-05-28T20:30:05Z</time>
      </trkpt>
      <trkpt lat="42.564517" lon="2.451585">
        <ele>1388.470</ele>
        <time>2021-05-28T20:30:08Z</time>
      </trkpt>
      <trkpt lat="42.564512" lon="2.451551">
        <ele>1387.217</ele>
        <time>2021-05-28T20:30:11Z</time>
      </trkpt>
      <trkpt lat="42.564516" lon="2.451522">
        <ele>1386.208</ele>
        <time>2021-05-28T20:30:13Z</time>
      </trkpt>
      <trkpt lat="42.564526" lon="2.451491">
        <ele>1385.170</ele>
        <time>2021-05-28T20:30:15Z</time>
      </trkpt>
      <trkpt lat="42.564538" lon="2.451471">
        <ele>1384.447</ele>
        <time>2021-05-28T20:30:17Z</time>
      </trkpt>
      <trkpt lat="42.564562" lon="2.451455">
        <ele>1384.088</ele>
        <time>2021-05-28T20:30:19Z</time>
      </trkpt>
      <trkpt lat="42.564580" lon="2.451439">
        <ele>1383.547</ele>
        <time>2021-05-28T20:30:21Z</time>
      </trkpt>
      <trkpt lat="42.564594" lon="2.451413">
        <ele>1382.834</ele>
        <time>2021-05-28T20:30:23Z</time>
      </trkpt>
      <trkpt lat="42.564607" lon="2.451393">
        <ele>1382.349</ele>
        <time>2021-05-28T20:30:25Z</time>
      </trkpt>
      <trkpt lat="42.564618" lon="2.451365">
        <ele>1381.686</ele>
        <time>2021-05-28T20:30:27Z</time>
      </trkpt>
      <trkpt lat="42.564630" lon="2.451347">
        <ele>1381.194</ele>
        <time>2021-05-28T20:30:29Z</time>
      </trkpt>
      <trkpt lat="42.564649" lon="2.451328">
        <ele>1380.898</ele>
        <time>2021-05-28T20:30:31Z</time>
      </trkpt>
      <trkpt lat="42.564650" lon="2.451303">
        <ele>1380.115</ele>
        <time>2021-05-28T20:30:33Z</time>
      </trkpt>
      <trkpt lat="42.564643" lon="2.451279">
        <ele>1379.326</ele>
        <time>2021-05-28T20:30:35Z</time>
      </trkpt>
      <trkpt lat="42.564660" lon="2.451266">
        <ele>1379.208</ele>
        <time>2021-05-28T20:30:37Z</time>
      </trkpt>
      <trkpt lat="42.564678" lon="2.451250">
        <ele>1378.956</ele>
        <time>2021-05-28T20:30:39Z</time>
      </trkpt>
      <trkpt lat="42.564695" lon="2.451233">
        <ele>1378.783</ele>
        <time>2021-05-28T20:30:41Z</time>
      </trkpt>
      <trkpt lat="42.564710" lon="2.451200">
        <ele>1378.194</ele>
        <time>2021-05-28T20:30:43Z</time>
      </trkpt>
      <trkpt lat="42.564720" lon="2.451159">
        <ele>1377.253</ele>
        <time>2021-05-28T20:30:45Z</time>
      </trkpt>
      <trkpt lat="42.564728" lon="2.451123">
        <ele>1376.250</ele>
        <time>2021-05-28T20:30:47Z</time>
      </trkpt>
      <trkpt lat="42.564730" lon="2.451080">
        <ele>1375.275</ele>
        <time>2021-05-28T20:30:49Z</time>
      </trkpt>
      <trkpt lat="42.564745" lon="2.451047">
        <ele>1374.272</ele>
        <time>2021-05-28T20:30:51Z</time>
      </trkpt>
      <trkpt lat="42.564756" lon="2.451012">
        <ele>1373.470</ele>
        <time>2021-05-28T20:30:53Z</time>
      </trkpt>
      <trkpt lat="42.564772" lon="2.450983">
        <ele>1372.766</ele>
        <time>2021-05-28T20:30:55Z</time>
      </trkpt>
      <trkpt lat="42.564794" lon="2.450958">
        <ele>1372.029</ele>
        <time>2021-05-28T20:30:57Z</time>
      </trkpt>
      <trkpt lat="42.564814" lon="2.450941">
        <ele>1371.621</ele>
        <time>2021-05-28T20:30:59Z</time>
      </trkpt>
      <trkpt lat="42.564824" lon="2.450915">
        <ele>1371.108</ele>
        <time>2021-05-28T20:31:01Z</time>
      </trkpt>
      <trkpt lat="42.564829" lon="2.450877">
        <ele>1370.693</ele>
        <time>2021-05-28T20:31:03Z</time>
      </trkpt>
      <trkpt lat="42.564833" lon="2.450848">
        <ele>1370.290</ele>
        <time>2021-05-28T20:31:05Z</time>
      </trkpt>
      <trkpt lat="42.564851" lon="2.450841">
        <ele>1370.111</ele>
        <time>2021-05-28T20:31:07Z</time>
      </trkpt>
      <trkpt lat="42.564865" lon="2.450821">
        <ele>1369.870</ele>
        <time>2021-05-28T20:31:10Z</time>
      </trkpt>
      <trkpt lat="42.564867" lon="2.450795">
        <ele>1369.217</ele>
        <time>2021-05-28T20:31:12Z</time>
      </trkpt>
      <trkpt lat="42.564869" lon="2.450762">
        <ele>1368.692</ele>
        <time>2021-05-28T20:31:14Z</time>
      </trkpt>
      <trkpt lat="42.564878" lon="2.450731">
        <ele>1368.099</ele>
        <time>2021-05-28T20:31:18Z</time>
      </trkpt>
      <trkpt lat="42.564880" lon="2.450703">
        <ele>1367.547</ele>
        <time>2021-05-28T20:31:20Z</time>
      </trkpt>
      <trkpt lat="42.564882" lon="2.450665">
        <ele>1366.736</ele>
        <time>2021-05-28T20:31:22Z</time>
      </trkpt>
      <trkpt lat="42.564873" lon="2.450627">
        <ele>1365.917</ele>
        <time>2021-05-28T20:31:24Z</time>
      </trkpt>
      <trkpt lat="42.564857" lon="2.450599">
        <ele>1365.318</ele>
        <time>2021-05-28T20:31:27Z</time>
      </trkpt>
      <trkpt lat="42.564848" lon="2.450570">
        <ele>1364.708</ele>
        <time>2021-05-28T20:31:29Z</time>
      </trkpt>
      <trkpt lat="42.564867" lon="2.450565">
        <ele>1364.730</ele>
        <time>2021-05-28T20:31:31Z</time>
      </trkpt>
      <trkpt lat="42.564893" lon="2.450562">
        <ele>1364.767</ele>
        <time>2021-05-28T20:31:33Z</time>
      </trkpt>
      <trkpt lat="42.564915" lon="2.450559">
        <ele>1364.828</ele>
        <time>2021-05-28T20:31:35Z</time>
      </trkpt>
      <trkpt lat="42.564932" lon="2.450553">
        <ele>1364.787</ele>
        <time>2021-05-28T20:31:37Z</time>
      </trkpt>
      <trkpt lat="42.564950" lon="2.450542">
        <ele>1364.544</ele>
        <time>2021-05-28T20:31:39Z</time>
      </trkpt>
      <trkpt lat="42.564965" lon="2.450519">
        <ele>1364.149</ele>
        <time>2021-05-28T20:31:41Z</time>
      </trkpt>
      <trkpt lat="42.564974" lon="2.450490">
        <ele>1363.586</ele>
        <time>2021-05-28T20:31:43Z</time>
      </trkpt>
      <trkpt lat="42.564991" lon="2.450465">
        <ele>1363.084</ele>
        <time>2021-05-28T20:31:45Z</time>
      </trkpt>
      <trkpt lat="42.564990" lon="2.450436">
        <ele>1362.486</ele>
        <time>2021-05-28T20:31:47Z</time>
      </trkpt>
      <trkpt lat="42.564999" lon="2.450411">
        <ele>1361.960</ele>
        <time>2021-05-28T20:31:49Z</time>
      </trkpt>
      <trkpt lat="42.565026" lon="2.450413">
        <ele>1361.326</ele>
        <time>2021-05-28T20:31:52Z</time>
      </trkpt>
      <trkpt lat="42.565056" lon="2.450414">
        <ele>1360.508</ele>
        <time>2021-05-28T20:31:54Z</time>
      </trkpt>
      <trkpt lat="42.565072" lon="2.450402">
        <ele>1360.045</ele>
        <time>2021-05-28T20:31:56Z</time>
      </trkpt>
      <trkpt lat="42.565089" lon="2.450372">
        <ele>1359.252</ele>
        <time>2021-05-28T20:31:58Z</time>
      </trkpt>
      <trkpt lat="42.565109" lon="2.450339">
        <ele>1358.553</ele>
        <time>2021-05-28T20:32:00Z</time>
      </trkpt>
      <trkpt lat="42.565121" lon="2.450312">
        <ele>1358.012</ele>
        <time>2021-05-28T20:32:02Z</time>
      </trkpt>
      <trkpt lat="42.565139" lon="2.450287">
        <ele>1357.649</ele>
        <time>2021-05-28T20:32:04Z</time>
      </trkpt>
      <trkpt lat="42.565161" lon="2.450255">
        <ele>1357.134</ele>
        <time>2021-05-28T20:32:06Z</time>
      </trkpt>
      <trkpt lat="42.565176" lon="2.450224">
        <ele>1356.831</ele>
        <time>2021-05-28T20:32:08Z</time>
      </trkpt>
      <trkpt lat="42.565203" lon="2.450210">
        <ele>1356.759</ele>
        <time>2021-05-28T20:32:10Z</time>
      </trkpt>
      <trkpt lat="42.565227" lon="2.450192">
        <ele>1356.785</ele>
        <time>2021-05-28T20:32:12Z</time>
      </trkpt>
      <trkpt lat="42.565242" lon="2.450165">
        <ele>1356.789</ele>
        <time>2021-05-28T20:32:14Z</time>
      </trkpt>
      <trkpt lat="42.565253" lon="2.450145">
        <ele>1356.817</ele>
        <time>2021-05-28T20:32:15Z</time>
      </trkpt>
      <trkpt lat="42.565269" lon="2.450118">
        <ele>1357.108</ele>
        <time>2021-05-28T20:32:17Z</time>
      </trkpt>
      <trkpt lat="42.565289" lon="2.450130">
        <ele>1356.555</ele>
        <time>2021-05-28T20:32:23Z</time>
      </trkpt>
      <trkpt lat="42.565311" lon="2.450111">
        <ele>1355.522</ele>
        <time>2021-05-28T20:32:27Z</time>
      </trkpt>
      <trkpt lat="42.565344" lon="2.450070">
        <ele>1354.153</ele>
        <time>2021-05-28T20:32:30Z</time>
      </trkpt>
      <trkpt lat="42.565352" lon="2.450028">
        <ele>1354.062</ele>
        <time>2021-05-28T20:32:32Z</time>
      </trkpt>
      <trkpt lat="42.565365" lon="2.450009">
        <ele>1353.529</ele>
        <time>2021-05-28T20:32:34Z</time>
      </trkpt>
      <trkpt lat="42.565382" lon="2.449995">
        <ele>1352.834</ele>
        <time>2021-05-28T20:32:36Z</time>
      </trkpt>
      <trkpt lat="42.565394" lon="2.449971">
        <ele>1352.481</ele>
        <time>2021-05-28T20:32:38Z</time>
      </trkpt>
      <trkpt lat="42.565399" lon="2.449931">
        <ele>1352.519</ele>
        <time>2021-05-28T20:32:40Z</time>
      </trkpt>
      <trkpt lat="42.565410" lon="2.449908">
        <ele>1352.166</ele>
        <time>2021-05-28T20:32:42Z</time>
      </trkpt>
      <trkpt lat="42.565426" lon="2.449884">
        <ele>1351.629</ele>
        <time>2021-05-28T20:32:44Z</time>
      </trkpt>
      <trkpt lat="42.565438" lon="2.449863">
        <ele>1351.321</ele>
        <time>2021-05-28T20:32:48Z</time>
      </trkpt>
      <trkpt lat="42.565455" lon="2.449842">
        <ele>1350.708</ele>
        <time>2021-05-28T20:32:50Z</time>
      </trkpt>
      <trkpt lat="42.565476" lon="2.449819">
        <ele>1350.163</ele>
        <time>2021-05-28T20:32:52Z</time>
      </trkpt>
      <trkpt lat="42.565495" lon="2.449781">
        <ele>1349.780</ele>
        <time>2021-05-28T20:32:54Z</time>
      </trkpt>
      <trkpt lat="42.565508" lon="2.449736">
        <ele>1349.791</ele>
        <time>2021-05-28T20:32:56Z</time>
      </trkpt>
      <trkpt lat="42.565500" lon="2.449700">
        <ele>1350.170</ele>
        <time>2021-05-28T20:32:58Z</time>
      </trkpt>
      <trkpt lat="42.565493" lon="2.449673">
        <ele>1350.127</ele>
        <time>2021-05-28T20:33:01Z</time>
      </trkpt>
      <trkpt lat="42.565493" lon="2.449646">
        <ele>1349.942</ele>
        <time>2021-05-28T20:33:03Z</time>
      </trkpt>
      <trkpt lat="42.565493" lon="2.449622">
        <ele>1349.879</ele>
        <time>2021-05-28T20:33:05Z</time>
      </trkpt>
      <trkpt lat="42.565514" lon="2.449602">
        <ele>1349.227</ele>
        <time>2021-05-28T20:33:08Z</time>
      </trkpt>
      <trkpt lat="42.565538" lon="2.449582">
        <ele>1348.884</ele>
        <time>2021-05-28T20:33:12Z</time>
      </trkpt>
      <trkpt lat="42.565548" lon="2.449558">
        <ele>1348.707</ele>
        <time>2021-05-28T20:33:14Z</time>
      </trkpt>
      <trkpt lat="42.565563" lon="2.449535">
        <ele>1348.317</ele>
        <time>2021-05-28T20:33:17Z</time>
      </trkpt>
      <trkpt lat="42.565579" lon="2.449552">
        <ele>1347.408</ele>
        <time>2021-05-28T20:33:22Z</time>
      </trkpt>
      <trkpt lat="42.565597" lon="2.449564">
        <ele>1346.415</ele>
        <time>2021-05-28T20:33:26Z</time>
      </trkpt>
      <trkpt lat="42.565612" lon="2.449542">
        <ele>1345.742</ele>
        <time>2021-05-28T20:33:28Z</time>
      </trkpt>
      <trkpt lat="42.565624" lon="2.449510">
        <ele>1345.293</ele>
        <time>2021-05-28T20:33:31Z</time>
      </trkpt>
      <trkpt lat="42.565637" lon="2.449487">
        <ele>1344.762</ele>
        <time>2021-05-28T20:33:33Z</time>
      </trkpt>
      <trkpt lat="42.565635" lon="2.449450">
        <ele>1345.059</ele>
        <time>2021-05-28T20:33:35Z</time>
      </trkpt>
      <trkpt lat="42.565645" lon="2.449426">
        <ele>1344.234</ele>
        <time>2021-05-28T20:33:37Z</time>
      </trkpt>
      <trkpt lat="42.565656" lon="2.449401">
        <ele>1343.411</ele>
        <time>2021-05-28T20:33:40Z</time>
      </trkpt>
      <trkpt lat="42.565661" lon="2.449370">
        <ele>1342.779</ele>
        <time>2021-05-28T20:33:43Z</time>
      </trkpt>
      <trkpt lat="42.565675" lon="2.449347">
        <ele>1341.957</ele>
        <time>2021-05-28T20:33:46Z</time>
      </trkpt>
      <trkpt lat="42.565692" lon="2.449328">
        <ele>1341.000</ele>
        <time>2021-05-28T20:33:48Z</time>
      </trkpt>
      <trkpt lat="42.565712" lon="2.449290">
        <ele>1340.020</ele>
        <time>2021-05-28T20:33:50Z</time>
      </trkpt>
      <trkpt lat="42.565720" lon="2.449253">
        <ele>1339.608</ele>
        <time>2021-05-28T20:33:52Z</time>
      </trkpt>
      <trkpt lat="42.565747" lon="2.449224">
        <ele>1338.712</ele>
        <time>2021-05-28T20:33:54Z</time>
      </trkpt>
      <trkpt lat="42.565762" lon="2.449210">
        <ele>1338.349</ele>
        <time>2021-05-28T20:33:55Z</time>
      </trkpt>
      <trkpt lat="42.565786" lon="2.449180">
        <ele>1337.810</ele>
        <time>2021-05-28T20:33:57Z</time>
      </trkpt>
      <trkpt lat="42.565808" lon="2.449152">
        <ele>1337.329</ele>
        <time>2021-05-28T20:33:59Z</time>
      </trkpt>
      <trkpt lat="42.565831" lon="2.449134">
        <ele>1336.766</ele>
        <time>2021-05-28T20:34:01Z</time>
      </trkpt>
      <trkpt lat="42.565842" lon="2.449102">
        <ele>1335.931</ele>
        <time>2021-05-28T20:34:03Z</time>
      </trkpt>
      <trkpt lat="42.565835" lon="2.449069">
        <ele>1335.918</ele>
        <time>2021-05-28T20:34:05Z</time>
      </trkpt>
      <trkpt lat="42.565821" lon="2.449052">
        <ele>1335.816</ele>
        <time>2021-05-28T20:34:07Z</time>
      </trkpt>
      <trkpt lat="42.565816" lon="2.449019">
        <ele>1335.569</ele>
        <time>2021-05-28T20:34:10Z</time>
      </trkpt>
      <trkpt lat="42.565822" lon="2.448991">
        <ele>1335.104</ele>
        <time>2021-05-28T20:34:12Z</time>
      </trkpt>
      <trkpt lat="42.565833" lon="2.448967">
        <ele>1334.824</ele>
        <time>2021-05-28T20:34:14Z</time>
      </trkpt>
      <trkpt lat="42.565843" lon="2.448939">
        <ele>1334.208</ele>
        <time>2021-05-28T20:34:16Z</time>
      </trkpt>
      <trkpt lat="42.565855" lon="2.448907">
        <ele>1333.543</ele>
        <time>2021-05-28T20:34:18Z</time>
      </trkpt>
      <trkpt lat="42.565872" lon="2.448883">
        <ele>1332.520</ele>
        <time>2021-05-28T20:34:20Z</time>
      </trkpt>
      <trkpt lat="42.565889" lon="2.448854">
        <ele>1330.911</ele>
        <time>2021-05-28T20:34:22Z</time>
      </trkpt>
      <trkpt lat="42.565906" lon="2.448833">
        <ele>1329.810</ele>
        <time>2021-05-28T20:34:25Z</time>
      </trkpt>
      <trkpt lat="42.565923" lon="2.448812">
        <ele>1328.797</ele>
        <time>2021-05-28T20:34:27Z</time>
      </trkpt>
      <trkpt lat="42.565940" lon="2.448789">
        <ele>1327.642</ele>
        <time>2021-05-28T20:34:29Z</time>
      </trkpt>
      <trkpt lat="42.565958" lon="2.448770">
        <ele>1326.759</ele>
        <time>2021-05-28T20:34:32Z</time>
      </trkpt>
      <trkpt lat="42.565967" lon="2.448743">
        <ele>1325.987</ele>
        <time>2021-05-28T20:34:35Z</time>
      </trkpt>
      <trkpt lat="42.565987" lon="2.448728">
        <ele>1325.354</ele>
        <time>2021-05-28T20:34:38Z</time>
      </trkpt>
      <trkpt lat="42.565999" lon="2.448700">
        <ele>1324.556</ele>
        <time>2021-05-28T20:34:42Z</time>
      </trkpt>
      <trkpt lat="42.566004" lon="2.448671">
        <ele>1323.911</ele>
        <time>2021-05-28T20:34:45Z</time>
      </trkpt>
      <trkpt lat="42.566017" lon="2.448651">
        <ele>1323.408</ele>
        <time>2021-05-28T20:34:52Z</time>
      </trkpt>
      <trkpt lat="42.566027" lon="2.448621">
        <ele>1322.942</ele>
        <time>2021-05-28T20:34:55Z</time>
      </trkpt>
      <trkpt lat="42.566021" lon="2.448591">
        <ele>1322.019</ele>
        <time>2021-05-28T20:34:57Z</time>
      </trkpt>
      <trkpt lat="42.566016" lon="2.448563">
        <ele>1320.950</ele>
        <time>2021-05-28T20:34:59Z</time>
      </trkpt>
      <trkpt lat="42.566014" lon="2.448530">
        <ele>1319.789</ele>
        <time>2021-05-28T20:35:02Z</time>
      </trkpt>
      <trkpt lat="42.566018" lon="2.448498">
        <ele>1318.626</ele>
        <time>2021-05-28T20:35:05Z</time>
      </trkpt>
      <trkpt lat="42.566015" lon="2.448468">
        <ele>1317.551</ele>
        <time>2021-05-28T20:35:08Z</time>
      </trkpt>
      <trkpt lat="42.566008" lon="2.448444">
        <ele>1316.578</ele>
        <time>2021-05-28T20:35:10Z</time>
      </trkpt>
      <trkpt lat="42.566015" lon="2.448414">
        <ele>1315.526</ele>
        <time>2021-05-28T20:35:12Z</time>
      </trkpt>
      <trkpt lat="42.566023" lon="2.448378">
        <ele>1314.461</ele>
        <time>2021-05-28T20:35:14Z</time>
      </trkpt>
      <trkpt lat="42.566033" lon="2.448344">
        <ele>1313.421</ele>
        <time>2021-05-28T20:35:16Z</time>
      </trkpt>
      <trkpt lat="42.566044" lon="2.448320">
        <ele>1312.813</ele>
        <time>2021-05-28T20:35:18Z</time>
      </trkpt>
      <trkpt lat="42.566069" lon="2.448332">
        <ele>1313.908</ele>
        <time>2021-05-28T20:35:21Z</time>
      </trkpt>
      <trkpt lat="42.566095" lon="2.448336">
        <ele>1314.723</ele>
        <time>2021-05-28T20:35:23Z</time>
      </trkpt>
      <trkpt lat="42.566116" lon="2.448315">
        <ele>1314.120</ele>
        <time>2021-05-28T20:35:26Z</time>
      </trkpt>
      <trkpt lat="42.566134" lon="2.448313">
        <ele>1313.471</ele>
        <time>2021-05-28T20:35:28Z</time>
      </trkpt>
      <trkpt lat="42.566156" lon="2.448309">
        <ele>1312.580</ele>
        <time>2021-05-28T20:35:31Z</time>
      </trkpt>
      <trkpt lat="42.566154" lon="2.448283">
        <ele>1311.787</ele>
        <time>2021-05-28T20:35:34Z</time>
      </trkpt>
      <trkpt lat="42.566174" lon="2.448255">
        <ele>1310.222</ele>
        <time>2021-05-28T20:35:38Z</time>
      </trkpt>
      <trkpt lat="42.566179" lon="2.448227">
        <ele>1309.239</ele>
        <time>2021-05-28T20:35:40Z</time>
      </trkpt>
      <trkpt lat="42.566196" lon="2.448199">
        <ele>1308.027</ele>
        <time>2021-05-28T20:35:42Z</time>
      </trkpt>
      <trkpt lat="42.566215" lon="2.448165">
        <ele>1306.676</ele>
        <time>2021-05-28T20:35:44Z</time>
      </trkpt>
      <trkpt lat="42.566219" lon="2.448131">
        <ele>1305.790</ele>
        <time>2021-05-28T20:35:46Z</time>
      </trkpt>
      <trkpt lat="42.566227" lon="2.448103">
        <ele>1304.819</ele>
        <time>2021-05-28T20:35:49Z</time>
      </trkpt>
      <trkpt lat="42.566240" lon="2.448079">
        <ele>1304.108</ele>
        <time>2021-05-28T20:35:53Z</time>
      </trkpt>
      <trkpt lat="42.566248" lon="2.448056">
        <ele>1303.524</ele>
        <time>2021-05-28T20:35:57Z</time>
      </trkpt>
      <trkpt lat="42.566262" lon="2.448038">
        <ele>1303.011</ele>
        <time>2021-05-28T20:35:59Z</time>
      </trkpt>
      <trkpt lat="42.566269" lon="2.448014">
        <ele>1302.342</ele>
        <time>2021-05-28T20:36:02Z</time>
      </trkpt>
      <trkpt lat="42.566287" lon="2.447990">
        <ele>1301.781</ele>
        <time>2021-05-28T20:36:05Z</time>
      </trkpt>
      <trkpt lat="42.566295" lon="2.447960">
        <ele>1301.048</ele>
        <time>2021-05-28T20:36:07Z</time>
      </trkpt>
      <trkpt lat="42.566306" lon="2.447939">
        <ele>1300.623</ele>
        <time>2021-05-28T20:36:09Z</time>
      </trkpt>
      <trkpt lat="42.566325" lon="2.447914">
        <ele>1300.320</ele>
        <time>2021-05-28T20:36:12Z</time>
      </trkpt>
      <trkpt lat="42.566345" lon="2.447893">
        <ele>1300.168</ele>
        <time>2021-05-28T20:36:15Z</time>
      </trkpt>
      <trkpt lat="42.566359" lon="2.447869">
        <ele>1299.867</ele>
        <time>2021-05-28T20:36:18Z</time>
      </trkpt>
      <trkpt lat="42.566361" lon="2.447845">
        <ele>1299.581</ele>
        <time>2021-05-28T20:36:19Z</time>
      </trkpt>
      <trkpt lat="42.566354" lon="2.447812">
        <ele>1298.719</ele>
        <time>2021-05-28T20:36:21Z</time>
      </trkpt>
      <trkpt lat="42.566362" lon="2.447788">
        <ele>1298.508</ele>
        <time>2021-05-28T20:36:23Z</time>
      </trkpt>
      <trkpt lat="42.566381" lon="2.447771">
        <ele>1298.663</ele>
        <time>2021-05-28T20:36:26Z</time>
      </trkpt>
      <trkpt lat="42.566401" lon="2.447747">
        <ele>1297.510</ele>
        <time>2021-05-28T20:36:29Z</time>
      </trkpt>
      <trkpt lat="42.566416" lon="2.447725">
        <ele>1296.281</ele>
        <time>2021-05-28T20:36:32Z</time>
      </trkpt>
      <trkpt lat="42.566428" lon="2.447705">
        <ele>1295.140</ele>
        <time>2021-05-28T20:36:46Z</time>
      </trkpt>
      <trkpt lat="42.566448" lon="2.447724">
        <ele>1294.997</ele>
        <time>2021-05-28T20:37:01Z</time>
      </trkpt>
      <trkpt lat="42.566463" lon="2.447749">
        <ele>1295.072</ele>
        <time>2021-05-28T20:37:04Z</time>
      </trkpt>
      <trkpt lat="42.566477" lon="2.447764">
        <ele>1294.899</ele>
        <time>2021-05-28T20:37:06Z</time>
      </trkpt>
      <trkpt lat="42.566504" lon="2.447764">
        <ele>1293.757</ele>
        <time>2021-05-28T20:37:11Z</time>
      </trkpt>
      <trkpt lat="42.566518" lon="2.447748">
        <ele>1292.761</ele>
        <time>2021-05-28T20:37:12Z</time>
      </trkpt>
      <trkpt lat="42.566518" lon="2.447720">
        <ele>1292.021</ele>
        <time>2021-05-28T20:37:14Z</time>
      </trkpt>
      <trkpt lat="42.566531" lon="2.447692">
        <ele>1290.913</ele>
        <time>2021-05-28T20:37:17Z</time>
      </trkpt>
      <trkpt lat="42.566526" lon="2.447667">
        <ele>1290.508</ele>
        <time>2021-05-28T20:37:19Z</time>
      </trkpt>
      <trkpt lat="42.566520" lon="2.447632">
        <ele>1289.963</ele>
        <time>2021-05-28T20:37:21Z</time>
      </trkpt>
      <trkpt lat="42.566513" lon="2.447599">
        <ele>1289.310</ele>
        <time>2021-05-28T20:37:23Z</time>
      </trkpt>
      <trkpt lat="42.566509" lon="2.447570">
        <ele>1288.721</ele>
        <time>2021-05-28T20:37:25Z</time>
      </trkpt>
      <trkpt lat="42.566508" lon="2.447542">
        <ele>1288.090</ele>
        <time>2021-05-28T20:37:27Z</time>
      </trkpt>
      <trkpt lat="42.566502" lon="2.447517">
        <ele>1287.677</ele>
        <time>2021-05-28T20:37:29Z</time>
      </trkpt>
      <trkpt lat="42.566497" lon="2.447493">
        <ele>1286.912</ele>
        <time>2021-05-28T20:37:31Z</time>
      </trkpt>
      <trkpt lat="42.566503" lon="2.447469">
        <ele>1285.689</ele>
        <time>2021-05-28T20:37:34Z</time>
      </trkpt>
      <trkpt lat="42.566521" lon="2.447480">
        <ele>1285.777</ele>
        <time>2021-05-28T20:37:35Z</time>
      </trkpt>
      <trkpt lat="42.566541" lon="2.447504">
        <ele>1286.332</ele>
        <time>2021-05-28T20:37:37Z</time>
      </trkpt>
      <trkpt lat="42.566562" lon="2.447530">
        <ele>1286.392</ele>
        <time>2021-05-28T20:37:39Z</time>
      </trkpt>
      <trkpt lat="42.566578" lon="2.447542">
        <ele>1286.111</ele>
        <time>2021-05-28T20:37:41Z</time>
      </trkpt>
      <trkpt lat="42.566608" lon="2.447550">
        <ele>1285.408</ele>
        <time>2021-05-28T20:37:44Z</time>
      </trkpt>
      <trkpt lat="42.566624" lon="2.447563">
        <ele>1285.220</ele>
        <time>2021-05-28T20:37:46Z</time>
      </trkpt>
      <trkpt lat="42.566639" lon="2.447584">
        <ele>1285.177</ele>
        <time>2021-05-28T20:37:48Z</time>
      </trkpt>
      <trkpt lat="42.566655" lon="2.447610">
        <ele>1285.068</ele>
        <time>2021-05-28T20:37:50Z</time>
      </trkpt>
      <trkpt lat="42.566668" lon="2.447628">
        <ele>1284.867</ele>
        <time>2021-05-28T20:37:52Z</time>
      </trkpt>
      <trkpt lat="42.566690" lon="2.447643">
        <ele>1284.164</ele>
        <time>2021-05-28T20:37:55Z</time>
      </trkpt>
      <trkpt lat="42.566712" lon="2.447648">
        <ele>1283.269</ele>
        <time>2021-05-28T20:37:58Z</time>
      </trkpt>
      <trkpt lat="42.566733" lon="2.447636">
        <ele>1282.266</ele>
        <time>2021-05-28T20:38:00Z</time>
      </trkpt>
      <trkpt lat="42.566754" lon="2.447644">
        <ele>1281.534</ele>
        <time>2021-05-28T20:38:02Z</time>
      </trkpt>
      <trkpt lat="42.566769" lon="2.447666">
        <ele>1281.179</ele>
        <time>2021-05-28T20:38:04Z</time>
      </trkpt>
      <trkpt lat="42.566779" lon="2.447698">
        <ele>1281.105</ele>
        <time>2021-05-28T20:38:06Z</time>
      </trkpt>
      <trkpt lat="42.566790" lon="2.447721">
        <ele>1280.925</ele>
        <time>2021-05-28T20:38:08Z</time>
      </trkpt>
      <trkpt lat="42.566809" lon="2.447713">
        <ele>1280.008</ele>
        <time>2021-05-28T20:38:10Z</time>
      </trkpt>
      <trkpt lat="42.566824" lon="2.447694">
        <ele>1279.234</ele>
        <time>2021-05-28T20:38:12Z</time>
      </trkpt>
      <trkpt lat="42.566829" lon="2.447659">
        <ele>1278.521</ele>
        <time>2021-05-28T20:38:14Z</time>
      </trkpt>
      <trkpt lat="42.566833" lon="2.447623">
        <ele>1277.982</ele>
        <time>2021-05-28T20:38:16Z</time>
      </trkpt>
      <trkpt lat="42.566842" lon="2.447599">
        <ele>1277.371</ele>
        <time>2021-05-28T20:38:18Z</time>
      </trkpt>
      <trkpt lat="42.566857" lon="2.447581">
        <ele>1276.468</ele>
        <time>2021-05-28T20:38:20Z</time>
      </trkpt>
      <trkpt lat="42.566866" lon="2.447558">
        <ele>1275.843</ele>
        <time>2021-05-28T20:38:22Z</time>
      </trkpt>
      <trkpt lat="42.566880" lon="2.447530">
        <ele>1274.990</ele>
        <time>2021-05-28T20:38:25Z</time>
      </trkpt>
      <trkpt lat="42.566897" lon="2.447512">
        <ele>1274.068</ele>
        <time>2021-05-28T20:38:27Z</time>
      </trkpt>
      <trkpt lat="42.566916" lon="2.447493">
        <ele>1272.989</ele>
        <time>2021-05-28T20:38:29Z</time>
      </trkpt>
      <trkpt lat="42.566936" lon="2.447512">
        <ele>1272.506</ele>
        <time>2021-05-28T20:38:32Z</time>
      </trkpt>
      <trkpt lat="42.566957" lon="2.447528">
        <ele>1271.826</ele>
        <time>2021-05-28T20:38:35Z</time>
      </trkpt>
      <trkpt lat="42.566979" lon="2.447541">
        <ele>1270.908</ele>
        <time>2021-05-28T20:38:38Z</time>
      </trkpt>
      <trkpt lat="42.567002" lon="2.447534">
        <ele>1269.865</ele>
        <time>2021-05-28T20:38:41Z</time>
      </trkpt>
      <trkpt lat="42.567017" lon="2.447514">
        <ele>1269.032</ele>
        <time>2021-05-28T20:38:43Z</time>
      </trkpt>
      <trkpt lat="42.567041" lon="2.447518">
        <ele>1268.023</ele>
        <time>2021-05-28T20:38:47Z</time>
      </trkpt>
      <trkpt lat="42.567058" lon="2.447541">
        <ele>1267.422</ele>
        <time>2021-05-28T20:38:50Z</time>
      </trkpt>
      <trkpt lat="42.567077" lon="2.447551">
        <ele>1266.629</ele>
        <time>2021-05-28T20:38:51Z</time>
      </trkpt>
      <trkpt lat="42.567093" lon="2.447572">
        <ele>1266.144</ele>
        <time>2021-05-28T20:38:54Z</time>
      </trkpt>
      <trkpt lat="42.567105" lon="2.447594">
        <ele>1265.731</ele>
        <time>2021-05-28T20:38:57Z</time>
      </trkpt>
      <trkpt lat="42.567116" lon="2.447617">
        <ele>1265.369</ele>
        <time>2021-05-28T20:39:00Z</time>
      </trkpt>
      <trkpt lat="42.567140" lon="2.447610">
        <ele>1264.254</ele>
        <time>2021-05-28T20:39:03Z</time>
      </trkpt>
      <trkpt lat="42.567158" lon="2.447589">
        <ele>1263.256</ele>
        <time>2021-05-28T20:39:06Z</time>
      </trkpt>
      <trkpt lat="42.567174" lon="2.447568">
        <ele>1262.411</ele>
        <time>2021-05-28T20:39:10Z</time>
      </trkpt>
      <trkpt lat="42.567180" lon="2.447544">
        <ele>1262.008</ele>
        <time>2021-05-28T20:39:11Z</time>
      </trkpt>
      <trkpt lat="42.567189" lon="2.447518">
        <ele>1261.562</ele>
        <time>2021-05-28T20:39:14Z</time>
      </trkpt>
      <trkpt lat="42.567188" lon="2.447485">
        <ele>1261.159</ele>
        <time>2021-05-28T20:39:15Z</time>
      </trkpt>
      <trkpt lat="42.567205" lon="2.447503">
        <ele>1260.820</ele>
        <time>2021-05-28T20:39:20Z</time>
      </trkpt>
      <trkpt lat="42.567211" lon="2.447526">
        <ele>1260.699</ele>
        <time>2021-05-28T20:39:22Z</time>
      </trkpt>
      <trkpt lat="42.567212" lon="2.447551">
        <ele>1260.666</ele>
        <time>2021-05-28T20:39:24Z</time>
      </trkpt>
      <trkpt lat="42.567223" lon="2.447574">
        <ele>1260.221</ele>
        <time>2021-05-28T20:39:28Z</time>
      </trkpt>
      <trkpt lat="42.567240" lon="2.447600">
        <ele>1259.658</ele>
        <time>2021-05-28T20:39:30Z</time>
      </trkpt>
      <trkpt lat="42.567259" lon="2.447583">
        <ele>1258.796</ele>
        <time>2021-05-28T20:39:32Z</time>
      </trkpt>
      <trkpt lat="42.567271" lon="2.447556">
        <ele>1258.171</ele>
        <time>2021-05-28T20:39:35Z</time>
      </trkpt>
      <trkpt lat="42.567283" lon="2.447535">
        <ele>1257.541</ele>
        <time>2021-05-28T20:39:37Z</time>
      </trkpt>
      <trkpt lat="42.567301" lon="2.447513">
        <ele>1256.615</ele>
        <time>2021-05-28T20:39:40Z</time>
      </trkpt>
      <trkpt lat="42.567322" lon="2.447487">
        <ele>1255.408</ele>
        <time>2021-05-28T20:39:46Z</time>
      </trkpt>
      <trkpt lat="42.567333" lon="2.447463">
        <ele>1254.444</ele>
        <time>2021-05-28T20:39:50Z</time>
      </trkpt>
      <trkpt lat="42.567351" lon="2.447467">
        <ele>1253.761</ele>
        <time>2021-05-28T20:39:52Z</time>
      </trkpt>
      <trkpt lat="42.567372" lon="2.447481">
        <ele>1253.162</ele>
        <time>2021-05-28T20:39:55Z</time>
      </trkpt>
      <trkpt lat="42.567386" lon="2.447500">
        <ele>1252.991</ele>
        <time>2021-05-28T20:39:58Z</time>
      </trkpt>
      <trkpt lat="42.567397" lon="2.447532">
        <ele>1252.578</ele>
        <time>2021-05-28T20:40:00Z</time>
      </trkpt>
      <trkpt lat="42.567403" lon="2.447559">
        <ele>1252.363</ele>
        <time>2021-05-28T20:40:04Z</time>
      </trkpt>
      <trkpt lat="42.567414" lon="2.447591">
        <ele>1251.850</ele>
        <time>2021-05-28T20:40:07Z</time>
      </trkpt>
      <trkpt lat="42.567428" lon="2.447608">
        <ele>1251.238</ele>
        <time>2021-05-28T20:40:09Z</time>
      </trkpt>
      <trkpt lat="42.567442" lon="2.447630">
        <ele>1250.624</ele>
        <time>2021-05-28T20:40:11Z</time>
      </trkpt>
      <trkpt lat="42.567460" lon="2.447637">
        <ele>1249.804</ele>
        <time>2021-05-28T20:40:13Z</time>
      </trkpt>
      <trkpt lat="42.567480" lon="2.447613">
        <ele>1248.914</ele>
        <time>2021-05-28T20:40:15Z</time>
      </trkpt>
      <trkpt lat="42.567499" lon="2.447585">
        <ele>1248.008</ele>
        <time>2021-05-28T20:40:17Z</time>
      </trkpt>
      <trkpt lat="42.567504" lon="2.447546">
        <ele>1247.859</ele>
        <time>2021-05-28T20:40:19Z</time>
      </trkpt>
      <trkpt lat="42.567519" lon="2.447511">
        <ele>1247.096</ele>
        <time>2021-05-28T20:40:21Z</time>
      </trkpt>
      <trkpt lat="42.567528" lon="2.447486">
        <ele>1246.217</ele>
        <time>2021-05-28T20:40:23Z</time>
      </trkpt>
      <trkpt lat="42.567530" lon="2.447457">
        <ele>1245.626</ele>
        <time>2021-05-28T20:40:25Z</time>
      </trkpt>
      <trkpt lat="42.567538" lon="2.447436">
        <ele>1244.943</ele>
        <time>2021-05-28T20:40:27Z</time>
      </trkpt>
      <trkpt lat="42.567552" lon="2.447410">
        <ele>1243.748</ele>
        <time>2021-05-28T20:40:30Z</time>
      </trkpt>
      <trkpt lat="42.567570" lon="2.447391">
        <ele>1242.515</ele>
        <time>2021-05-28T20:40:32Z</time>
      </trkpt>
      <trkpt lat="42.567585" lon="2.447369">
        <ele>1241.333</ele>
        <time>2021-05-28T20:40:35Z</time>
      </trkpt>
      <trkpt lat="42.567610" lon="2.447363">
        <ele>1240.012</ele>
        <time>2021-05-28T20:40:38Z</time>
      </trkpt>
      <trkpt lat="42.567628" lon="2.447348">
        <ele>1238.932</ele>
        <time>2021-05-28T20:40:40Z</time>
      </trkpt>
      <trkpt lat="42.567648" lon="2.447325">
        <ele>1237.505</ele>
        <time>2021-05-28T20:40:42Z</time>
      </trkpt>
      <trkpt lat="42.567660" lon="2.447303">
        <ele>1236.608</ele>
        <time>2021-05-28T20:40:44Z</time>
      </trkpt>
      <trkpt lat="42.567678" lon="2.447283">
        <ele>1235.598</ele>
        <time>2021-05-28T20:40:46Z</time>
      </trkpt>
      <trkpt lat="42.567688" lon="2.447258">
        <ele>1234.785</ele>
        <time>2021-05-28T20:40:48Z</time>
      </trkpt>
      <trkpt lat="42.567698" lon="2.447228">
        <ele>1233.846</ele>
        <time>2021-05-28T20:40:51Z</time>
      </trkpt>
      <trkpt lat="42.567723" lon="2.447225">
        <ele>1232.685</ele>
        <time>2021-05-28T20:40:55Z</time>
      </trkpt>
      <trkpt lat="42.567745" lon="2.447246">
        <ele>1231.852</ele>
        <time>2021-05-28T20:40:56Z</time>
      </trkpt>
      <trkpt lat="42.567763" lon="2.447268">
        <ele>1231.277</ele>
        <time>2021-05-28T20:40:59Z</time>
      </trkpt>
      <trkpt lat="42.567784" lon="2.447281">
        <ele>1230.444</ele>
        <time>2021-05-28T20:41:00Z</time>
      </trkpt>
      <trkpt lat="42.567803" lon="2.447296">
        <ele>1229.792</ele>
        <time>2021-05-28T20:41:02Z</time>
      </trkpt>
      <trkpt lat="42.567816" lon="2.447321">
        <ele>1229.393</ele>
        <time>2021-05-28T20:41:05Z</time>
      </trkpt>
      <trkpt lat="42.567833" lon="2.447331">
        <ele>1228.665</ele>
        <time>2021-05-28T20:41:07Z</time>
      </trkpt>
      <trkpt lat="42.567852" lon="2.447320">
        <ele>1227.721</ele>
        <time>2021-05-28T20:41:08Z</time>
      </trkpt>
      <trkpt lat="42.567881" lon="2.447297">
        <ele>1226.108</ele>
        <time>2021-05-28T20:41:10Z</time>
      </trkpt>
      <trkpt lat="42.567907" lon="2.447277">
        <ele>1224.816</ele>
        <time>2021-05-28T20:41:12Z</time>
      </trkpt>
      <trkpt lat="42.567929" lon="2.447271">
        <ele>1223.843</ele>
        <time>2021-05-28T20:41:15Z</time>
      </trkpt>
      <trkpt lat="42.567950" lon="2.447276">
        <ele>1222.914</ele>
        <time>2021-05-28T20:41:18Z</time>
      </trkpt>
      <trkpt lat="42.567971" lon="2.447260">
        <ele>1221.943</ele>
        <time>2021-05-28T20:41:20Z</time>
      </trkpt>
      <trkpt lat="42.567996" lon="2.447249">
        <ele>1220.710</ele>
        <time>2021-05-28T20:41:21Z</time>
      </trkpt>
      <trkpt lat="42.568005" lon="2.447223">
        <ele>1220.285</ele>
        <time>2021-05-28T20:41:23Z</time>
      </trkpt>
      <trkpt lat="42.568020" lon="2.447195">
        <ele>1218.972</ele>
        <time>2021-05-28T20:41:25Z</time>
      </trkpt>
      <trkpt lat="42.568036" lon="2.447176">
        <ele>1217.850</ele>
        <time>2021-05-28T20:41:27Z</time>
      </trkpt>
      <trkpt lat="42.568041" lon="2.447152">
        <ele>1217.121</ele>
        <time>2021-05-28T20:41:29Z</time>
      </trkpt>
      <trkpt lat="42.568065" lon="2.447165">
        <ele>1216.341</ele>
        <time>2021-05-28T20:41:32Z</time>
      </trkpt>
      <trkpt lat="42.568074" lon="2.447196">
        <ele>1216.505</ele>
        <time>2021-05-28T20:41:34Z</time>
      </trkpt>
      <trkpt lat="42.568083" lon="2.447226">
        <ele>1216.608</ele>
        <time>2021-05-28T20:41:37Z</time>
      </trkpt>
      <trkpt lat="42.568082" lon="2.447252">
        <ele>1216.729</ele>
        <time>2021-05-28T20:41:41Z</time>
      </trkpt>
      <trkpt lat="42.568079" lon="2.447282">
        <ele>1216.966</ele>
        <time>2021-05-28T20:41:43Z</time>
      </trkpt>
      <trkpt lat="42.568082" lon="2.447317">
        <ele>1216.827</ele>
        <time>2021-05-28T20:41:46Z</time>
      </trkpt>
      <trkpt lat="42.568094" lon="2.447343">
        <ele>1216.176</ele>
        <time>2021-05-28T20:41:48Z</time>
      </trkpt>
      <trkpt lat="42.568119" lon="2.447339">
        <ele>1214.693</ele>
        <time>2021-05-28T20:41:50Z</time>
      </trkpt>
      <trkpt lat="42.568137" lon="2.447324">
        <ele>1213.598</ele>
        <time>2021-05-28T20:41:52Z</time>
      </trkpt>
      <trkpt lat="42.568157" lon="2.447288">
        <ele>1212.525</ele>
        <time>2021-05-28T20:41:54Z</time>
      </trkpt>
      <trkpt lat="42.568162" lon="2.447263">
        <ele>1212.413</ele>
        <time>2021-05-28T20:41:55Z</time>
      </trkpt>
      <trkpt lat="42.568180" lon="2.447222">
        <ele>1211.765</ele>
        <time>2021-05-28T20:41:57Z</time>
      </trkpt>
      <trkpt lat="42.568186" lon="2.447198">
        <ele>1211.168</ele>
        <time>2021-05-28T20:41:59Z</time>
      </trkpt>
      <trkpt lat="42.568210" lon="2.447186">
        <ele>1209.714</ele>
        <time>2021-05-28T20:42:02Z</time>
      </trkpt>
      <trkpt lat="42.568222" lon="2.447150">
        <ele>1208.708</ele>
        <time>2021-05-28T20:42:05Z</time>
      </trkpt>
      <trkpt lat="42.568233" lon="2.447112">
        <ele>1207.753</ele>
        <time>2021-05-28T20:42:06Z</time>
      </trkpt>
      <trkpt lat="42.568234" lon="2.447080">
        <ele>1207.260</ele>
        <time>2021-05-28T20:42:08Z</time>
      </trkpt>
      <trkpt lat="42.568241" lon="2.447056">
        <ele>1206.751</ele>
        <time>2021-05-28T20:42:10Z</time>
      </trkpt>
      <trkpt lat="42.568262" lon="2.447048">
        <ele>1205.750</ele>
        <time>2021-05-28T20:42:12Z</time>
      </trkpt>
      <trkpt lat="42.568286" lon="2.447048">
        <ele>1204.727</ele>
        <time>2021-05-28T20:42:14Z</time>
      </trkpt>
      <trkpt lat="42.568315" lon="2.447034">
        <ele>1203.412</ele>
        <time>2021-05-28T20:42:17Z</time>
      </trkpt>
      <trkpt lat="42.568322" lon="2.447001">
        <ele>1202.889</ele>
        <time>2021-05-28T20:42:20Z</time>
      </trkpt>
      <trkpt lat="42.568337" lon="2.446976">
        <ele>1202.097</ele>
        <time>2021-05-28T20:42:22Z</time>
      </trkpt>
      <trkpt lat="42.568349" lon="2.446946">
        <ele>1201.336</ele>
        <time>2021-05-28T20:42:24Z</time>
      </trkpt>
      <trkpt lat="42.568357" lon="2.446915">
        <ele>1200.417</ele>
        <time>2021-05-28T20:42:26Z</time>
      </trkpt>
      <trkpt lat="42.568364" lon="2.446890">
        <ele>1199.718</ele>
        <time>2021-05-28T20:42:28Z</time>
      </trkpt>
      <trkpt lat="42.568375" lon="2.446866">
        <ele>1198.908</ele>
        <time>2021-05-28T20:42:30Z</time>
      </trkpt>
      <trkpt lat="42.568380" lon="2.446841">
        <ele>1198.450</ele>
        <time>2021-05-28T20:42:32Z</time>
      </trkpt>
      <trkpt lat="42.568378" lon="2.446810">
        <ele>1198.097</ele>
        <time>2021-05-28T20:42:34Z</time>
      </trkpt>
      <trkpt lat="42.568368" lon="2.446777">
        <ele>1197.998</ele>
        <time>2021-05-28T20:42:36Z</time>
      </trkpt>
      <trkpt lat="42.568383" lon="2.446747">
        <ele>1197.037</ele>
        <time>2021-05-28T20:42:38Z</time>
      </trkpt>
      <trkpt lat="42.568387" lon="2.446709">
        <ele>1196.444</ele>
        <time>2021-05-28T20:42:40Z</time>
      </trkpt>
      <trkpt lat="42.568387" lon="2.446672">
        <ele>1195.959</ele>
        <time>2021-05-28T20:42:42Z</time>
      </trkpt>
      <trkpt lat="42.568395" lon="2.446621">
        <ele>1195.026</ele>
        <time>2021-05-28T20:42:44Z</time>
      </trkpt>
      <trkpt lat="42.568409" lon="2.446579">
        <ele>1194.214</ele>
        <time>2021-05-28T20:42:46Z</time>
      </trkpt>
      <trkpt lat="42.568416" lon="2.446541">
        <ele>1193.658</ele>
        <time>2021-05-28T20:42:48Z</time>
      </trkpt>
      <trkpt lat="42.568427" lon="2.446509">
        <ele>1193.152</ele>
        <time>2021-05-28T20:42:50Z</time>
      </trkpt>
      <trkpt lat="42.568423" lon="2.446469">
        <ele>1192.717</ele>
        <time>2021-05-28T20:42:52Z</time>
      </trkpt>
      <trkpt lat="42.568424" lon="2.446429">
        <ele>1192.208</ele>
        <time>2021-05-28T20:42:54Z</time>
      </trkpt>
      <trkpt lat="42.568416" lon="2.446406">
        <ele>1191.992</ele>
        <time>2021-05-28T20:42:55Z</time>
      </trkpt>
      <trkpt lat="42.568404" lon="2.446385">
        <ele>1191.779</ele>
        <time>2021-05-28T20:42:56Z</time>
      </trkpt>
      <trkpt lat="42.568393" lon="2.446365">
        <ele>1191.410</ele>
        <time>2021-05-28T20:42:57Z</time>
      </trkpt>
      <trkpt lat="42.568386" lon="2.446340">
        <ele>1191.179</ele>
        <time>2021-05-28T20:42:58Z</time>
      </trkpt>
      <trkpt lat="42.568381" lon="2.446301">
        <ele>1190.516</ele>
        <time>2021-05-28T20:43:00Z</time>
      </trkpt>
      <trkpt lat="42.568377" lon="2.446266">
        <ele>1189.971</ele>
        <time>2021-05-28T20:43:02Z</time>
      </trkpt>
      <trkpt lat="42.568365" lon="2.446235">
        <ele>1189.498</ele>
        <time>2021-05-28T20:43:04Z</time>
      </trkpt>
      <trkpt lat="42.568356" lon="2.446202">
        <ele>1188.816</ele>
        <time>2021-05-28T20:43:06Z</time>
      </trkpt>
      <trkpt lat="42.568355" lon="2.446165">
        <ele>1188.142</ele>
        <time>2021-05-28T20:43:08Z</time>
      </trkpt>
      <trkpt lat="42.568364" lon="2.446133">
        <ele>1187.722</ele>
        <time>2021-05-28T20:43:10Z</time>
      </trkpt>
      <trkpt lat="42.568383" lon="2.446098">
        <ele>1187.114</ele>
        <time>2021-05-28T20:43:12Z</time>
      </trkpt>
      <trkpt lat="42.568397" lon="2.446069">
        <ele>1186.208</ele>
        <time>2021-05-28T20:43:14Z</time>
      </trkpt>
      <trkpt lat="42.568410" lon="2.446047">
        <ele>1185.721</ele>
        <time>2021-05-28T20:43:16Z</time>
      </trkpt>
      <trkpt lat="42.568422" lon="2.446022">
        <ele>1185.018</ele>
        <time>2021-05-28T20:43:18Z</time>
      </trkpt>
      <trkpt lat="42.568430" lon="2.445990">
        <ele>1184.259</ele>
        <time>2021-05-28T20:43:21Z</time>
      </trkpt>
      <trkpt lat="42.568431" lon="2.445962">
        <ele>1183.368</ele>
        <time>2021-05-28T20:43:24Z</time>
      </trkpt>
      <trkpt lat="42.568432" lon="2.445927">
        <ele>1182.265</ele>
        <time>2021-05-28T20:43:27Z</time>
      </trkpt>
      <trkpt lat="42.568433" lon="2.445897">
        <ele>1181.340</ele>
        <time>2021-05-28T20:43:29Z</time>
      </trkpt>
      <trkpt lat="42.568436" lon="2.445872">
        <ele>1180.517</ele>
        <time>2021-05-28T20:43:31Z</time>
      </trkpt>
      <trkpt lat="42.568428" lon="2.445838">
        <ele>1179.235</ele>
        <time>2021-05-28T20:43:35Z</time>
      </trkpt>
      <trkpt lat="42.568423" lon="2.445806">
        <ele>1177.674</ele>
        <time>2021-05-28T20:43:38Z</time>
      </trkpt>
      <trkpt lat="42.568426" lon="2.445780">
        <ele>1176.456</ele>
        <time>2021-05-28T20:43:40Z</time>
      </trkpt>
      <trkpt lat="42.568435" lon="2.445752">
        <ele>1175.421</ele>
        <time>2021-05-28T20:43:42Z</time>
      </trkpt>
      <trkpt lat="42.568450" lon="2.445739">
        <ele>1175.208</ele>
        <time>2021-05-28T20:43:44Z</time>
      </trkpt>
      <trkpt lat="42.568470" lon="2.445720">
        <ele>1174.984</ele>
        <time>2021-05-28T20:43:46Z</time>
      </trkpt>
      <trkpt lat="42.568487" lon="2.445706">
        <ele>1174.811</ele>
        <time>2021-05-28T20:43:48Z</time>
      </trkpt>
      <trkpt lat="42.568505" lon="2.445706">
        <ele>1175.342</ele>
        <time>2021-05-28T20:43:50Z</time>
      </trkpt>
      <trkpt lat="42.568526" lon="2.445708">
        <ele>1176.191</ele>
        <time>2021-05-28T20:43:52Z</time>
      </trkpt>
      <trkpt lat="42.568547" lon="2.445716">
        <ele>1177.148</ele>
        <time>2021-05-28T20:43:54Z</time>
      </trkpt>
      <trkpt lat="42.568569" lon="2.445724">
        <ele>1178.243</ele>
        <time>2021-05-28T20:43:56Z</time>
      </trkpt>
      <trkpt lat="42.568594" lon="2.445721">
        <ele>1178.860</ele>
        <time>2021-05-28T20:43:59Z</time>
      </trkpt>
      <trkpt lat="42.568610" lon="2.445714">
        <ele>1179.068</ele>
        <time>2021-05-28T20:44:02Z</time>
      </trkpt>
      <trkpt lat="42.568635" lon="2.445713">
        <ele>1178.563</ele>
        <time>2021-05-28T20:44:05Z</time>
      </trkpt>
      <trkpt lat="42.568657" lon="2.445714">
        <ele>1178.144</ele>
        <time>2021-05-28T20:44:07Z</time>
      </trkpt>
      <trkpt lat="42.568675" lon="2.445698">
        <ele>1177.018</ele>
        <time>2021-05-28T20:44:10Z</time>
      </trkpt>
      <trkpt lat="42.568697" lon="2.445702">
        <ele>1176.808</ele>
        <time>2021-05-28T20:44:15Z</time>
      </trkpt>
      <trkpt lat="42.568722" lon="2.445705">
        <ele>1176.443</ele>
        <time>2021-05-28T20:44:18Z</time>
      </trkpt>
      <trkpt lat="42.568742" lon="2.445702">
        <ele>1175.940</ele>
        <time>2021-05-28T20:44:20Z</time>
      </trkpt>
      <trkpt lat="42.568756" lon="2.445678">
        <ele>1174.751</ele>
        <time>2021-05-28T20:44:25Z</time>
      </trkpt>
      <trkpt lat="42.568755" lon="2.445642">
        <ele>1173.420</ele>
        <time>2021-05-28T20:44:28Z</time>
      </trkpt>
      <trkpt lat="42.568750" lon="2.445614">
        <ele>1172.367</ele>
        <time>2021-05-28T20:44:30Z</time>
      </trkpt>
      <trkpt lat="42.568743" lon="2.445586">
        <ele>1171.322</ele>
        <time>2021-05-28T20:44:33Z</time>
      </trkpt>
      <trkpt lat="42.568766" lon="2.445591">
        <ele>1171.269</ele>
        <time>2021-05-28T20:44:36Z</time>
      </trkpt>
      <trkpt lat="42.568785" lon="2.445584">
        <ele>1170.827</ele>
        <time>2021-05-28T20:44:39Z</time>
      </trkpt>
      <trkpt lat="42.568796" lon="2.445559">
        <ele>1169.812</ele>
        <time>2021-05-28T20:44:42Z</time>
      </trkpt>
      <trkpt lat="42.568814" lon="2.445554">
        <ele>1169.532</ele>
        <time>2021-05-28T20:44:44Z</time>
      </trkpt>
      <trkpt lat="42.568835" lon="2.445536">
        <ele>1168.805</ele>
        <time>2021-05-28T20:44:47Z</time>
      </trkpt>
      <trkpt lat="42.568841" lon="2.445502">
        <ele>1167.908</ele>
        <time>2021-05-28T20:44:51Z</time>
      </trkpt>
      <trkpt lat="42.568839" lon="2.445476">
        <ele>1167.168</ele>
        <time>2021-05-28T20:44:52Z</time>
      </trkpt>
      <trkpt lat="42.568830" lon="2.445450">
        <ele>1166.485</ele>
        <time>2021-05-28T20:44:54Z</time>
      </trkpt>
      <trkpt lat="42.568829" lon="2.445424">
        <ele>1165.716</ele>
        <time>2021-05-28T20:44:56Z</time>
      </trkpt>
      <trkpt lat="42.568852" lon="2.445439">
        <ele>1166.125</ele>
        <time>2021-05-28T20:45:02Z</time>
      </trkpt>
      <trkpt lat="42.568879" lon="2.445456">
        <ele>1166.562</ele>
        <time>2021-05-28T20:45:03Z</time>
      </trkpt>
      <trkpt lat="42.568899" lon="2.445455">
        <ele>1166.087</ele>
        <time>2021-05-28T20:45:05Z</time>
      </trkpt>
      <trkpt lat="42.568922" lon="2.445459">
        <ele>1165.134</ele>
        <time>2021-05-28T20:45:07Z</time>
      </trkpt>
      <trkpt lat="42.568939" lon="2.445473">
        <ele>1164.772</ele>
        <time>2021-05-28T20:45:10Z</time>
      </trkpt>
      <trkpt lat="42.568955" lon="2.445488">
        <ele>1164.423</ele>
        <time>2021-05-28T20:45:11Z</time>
      </trkpt>
      <trkpt lat="42.568974" lon="2.445492">
        <ele>1163.783</ele>
        <time>2021-05-28T20:45:13Z</time>
      </trkpt>
      <trkpt lat="42.569000" lon="2.445504">
        <ele>1162.811</ele>
        <time>2021-05-28T20:45:17Z</time>
      </trkpt>
      <trkpt lat="42.569013" lon="2.445522">
        <ele>1162.708</ele>
        <time>2021-05-28T20:45:19Z</time>
      </trkpt>
      <trkpt lat="42.569036" lon="2.445526">
        <ele>1161.839</ele>
        <time>2021-05-28T20:45:20Z</time>
      </trkpt>
      <trkpt lat="42.569058" lon="2.445529">
        <ele>1161.026</ele>
        <time>2021-05-28T20:45:23Z</time>
      </trkpt>
      <trkpt lat="42.569085" lon="2.445553">
        <ele>1160.587</ele>
        <time>2021-05-28T20:45:26Z</time>
      </trkpt>
      <trkpt lat="42.569099" lon="2.445571">
        <ele>1160.426</ele>
        <time>2021-05-28T20:45:28Z</time>
      </trkpt>
      <trkpt lat="42.569121" lon="2.445570">
        <ele>1159.483</ele>
        <time>2021-05-28T20:45:31Z</time>
      </trkpt>
      <trkpt lat="42.569140" lon="2.445578">
        <ele>1158.858</ele>
        <time>2021-05-28T20:45:33Z</time>
      </trkpt>
      <trkpt lat="42.569146" lon="2.445551">
        <ele>1157.885</ele>
        <time>2021-05-28T20:45:34Z</time>
      </trkpt>
      <trkpt lat="42.569143" lon="2.445516">
        <ele>1156.943</ele>
        <time>2021-05-28T20:45:36Z</time>
      </trkpt>
      <trkpt lat="42.569146" lon="2.445491">
        <ele>1156.184</ele>
        <time>2021-05-28T20:45:38Z</time>
      </trkpt>
      <trkpt lat="42.569155" lon="2.445468">
        <ele>1155.007</ele>
        <time>2021-05-28T20:45:40Z</time>
      </trkpt>
      <trkpt lat="42.569156" lon="2.445443">
        <ele>1154.217</ele>
        <time>2021-05-28T20:45:42Z</time>
      </trkpt>
      <trkpt lat="42.569166" lon="2.445418">
        <ele>1153.108</ele>
        <time>2021-05-28T20:45:45Z</time>
      </trkpt>
      <trkpt lat="42.569174" lon="2.445384">
        <ele>1151.745</ele>
        <time>2021-05-28T20:45:48Z</time>
      </trkpt>
      <trkpt lat="42.569166" lon="2.445355">
        <ele>1151.342</ele>
        <time>2021-05-28T20:45:51Z</time>
      </trkpt>
      <trkpt lat="42.569161" lon="2.445326">
        <ele>1150.723</ele>
        <time>2021-05-28T20:45:53Z</time>
      </trkpt>
      <trkpt lat="42.569151" lon="2.445290">
        <ele>1150.152</ele>
        <time>2021-05-28T20:45:56Z</time>
      </trkpt>
      <trkpt lat="42.569154" lon="2.445265">
        <ele>1149.359</ele>
        <time>2021-05-28T20:45:59Z</time>
      </trkpt>
      <trkpt lat="42.569161" lon="2.445242">
        <ele>1148.674</ele>
        <time>2021-05-28T20:46:03Z</time>
      </trkpt>
      <trkpt lat="42.569177" lon="2.445222">
        <ele>1147.521</ele>
        <time>2021-05-28T20:46:07Z</time>
      </trkpt>
      <trkpt lat="42.569198" lon="2.445230">
        <ele>1146.629</ele>
        <time>2021-05-28T20:46:10Z</time>
      </trkpt>
      <trkpt lat="42.569218" lon="2.445220">
        <ele>1145.497</ele>
        <time>2021-05-28T20:46:13Z</time>
      </trkpt>
      <trkpt lat="42.569228" lon="2.445195">
        <ele>1144.523</ele>
        <time>2021-05-28T20:46:16Z</time>
      </trkpt>
      <trkpt lat="42.569253" lon="2.445189">
        <ele>1143.225</ele>
        <time>2021-05-28T20:46:19Z</time>
      </trkpt>
      <trkpt lat="42.569264" lon="2.445169">
        <ele>1142.308</ele>
        <time>2021-05-28T20:46:22Z</time>
      </trkpt>
      <trkpt lat="42.569284" lon="2.445159">
        <ele>1141.116</ele>
        <time>2021-05-28T20:46:26Z</time>
      </trkpt>
      <trkpt lat="42.569306" lon="2.445178">
        <ele>1140.453</ele>
        <time>2021-05-28T20:46:29Z</time>
      </trkpt>
      <trkpt lat="42.569323" lon="2.445190">
        <ele>1139.794</ele>
        <time>2021-05-28T20:46:31Z</time>
      </trkpt>
      <trkpt lat="42.569348" lon="2.445202">
        <ele>1138.773</ele>
        <time>2021-05-28T20:46:34Z</time>
      </trkpt>
      <trkpt lat="42.569374" lon="2.445230">
        <ele>1137.810</ele>
        <time>2021-05-28T20:46:37Z</time>
      </trkpt>
      <trkpt lat="42.569389" lon="2.445257">
        <ele>1137.545</ele>
        <time>2021-05-28T20:46:39Z</time>
      </trkpt>
      <trkpt lat="42.569402" lon="2.445277">
        <ele>1137.172</ele>
        <time>2021-05-28T20:46:41Z</time>
      </trkpt>
      <trkpt lat="42.569421" lon="2.445280">
        <ele>1136.210</ele>
        <time>2021-05-28T20:46:43Z</time>
      </trkpt>
      <trkpt lat="42.569440" lon="2.445294">
        <ele>1135.731</ele>
        <time>2021-05-28T20:46:45Z</time>
      </trkpt>
      <trkpt lat="42.569458" lon="2.445311">
        <ele>1135.461</ele>
        <time>2021-05-28T20:46:49Z</time>
      </trkpt>
      <trkpt lat="42.569477" lon="2.445327">
        <ele>1135.007</ele>
        <time>2021-05-28T20:46:50Z</time>
      </trkpt>
      <trkpt lat="42.569494" lon="2.445346">
        <ele>1134.708</ele>
        <time>2021-05-28T20:46:52Z</time>
      </trkpt>
      <trkpt lat="42.569512" lon="2.445367">
        <ele>1134.570</ele>
        <time>2021-05-28T20:46:55Z</time>
      </trkpt>
      <trkpt lat="42.569534" lon="2.445394">
        <ele>1134.237</ele>
        <time>2021-05-28T20:46:58Z</time>
      </trkpt>
      <trkpt lat="42.569555" lon="2.445408">
        <ele>1133.638</ele>
        <time>2021-05-28T20:46:59Z</time>
      </trkpt>
      <trkpt lat="42.569573" lon="2.445417">
        <ele>1133.097</ele>
        <time>2021-05-28T20:47:01Z</time>
      </trkpt>
      <trkpt lat="42.569595" lon="2.445423">
        <ele>1132.174</ele>
        <time>2021-05-28T20:47:03Z</time>
      </trkpt>
      <trkpt lat="42.569614" lon="2.445433">
        <ele>1131.569</ele>
        <time>2021-05-28T20:47:05Z</time>
      </trkpt>
      <trkpt lat="42.569637" lon="2.445448">
        <ele>1130.786</ele>
        <time>2021-05-28T20:47:07Z</time>
      </trkpt>
      <trkpt lat="42.569722" lon="2.445509">
        <ele>1128.074</ele>
        <time>2021-05-28T20:47:15Z</time>
      </trkpt>
      <trkpt lat="42.569750" lon="2.445540">
        <ele>1127.832</ele>
        <time>2021-05-28T20:47:17Z</time>
      </trkpt>
      <trkpt lat="42.569842" lon="2.445567">
        <ele>1125.492</ele>
        <time>2021-05-28T20:47:24Z</time>
      </trkpt>
      <trkpt lat="42.569887" lon="2.445579">
        <ele>1124.111</ele>
        <time>2021-05-28T20:47:29Z</time>
      </trkpt>
      <trkpt lat="42.569920" lon="2.445581">
        <ele>1123.108</ele>
        <time>2021-05-28T20:47:32Z</time>
      </trkpt>
      <trkpt lat="42.569939" lon="2.445588">
        <ele>1122.590</ele>
        <time>2021-05-28T20:47:35Z</time>
      </trkpt>
      <trkpt lat="42.569948" lon="2.445464">
        <ele>1119.747</ele>
        <time>2021-05-28T20:47:45Z</time>
      </trkpt>
      <trkpt lat="42.569949" lon="2.445433">
        <ele>1119.078</ele>
        <time>2021-05-28T20:47:47Z</time>
      </trkpt>
      <trkpt lat="42.569955" lon="2.445408">
        <ele>1118.397</ele>
        <time>2021-05-28T20:47:49Z</time>
      </trkpt>
      <trkpt lat="42.569967" lon="2.445388">
        <ele>1117.534</ele>
        <time>2021-05-28T20:47:51Z</time>
      </trkpt>
      <trkpt lat="42.569991" lon="2.445383">
        <ele>1116.679</ele>
        <time>2021-05-28T20:47:53Z</time>
      </trkpt>
      <trkpt lat="42.570011" lon="2.445384">
        <ele>1115.936</ele>
        <time>2021-05-28T20:47:55Z</time>
      </trkpt>
      <trkpt lat="42.570022" lon="2.445409">
        <ele>1116.054</ele>
        <time>2021-05-28T20:47:57Z</time>
      </trkpt>
      <trkpt lat="42.570035" lon="2.445426">
        <ele>1115.922</ele>
        <time>2021-05-28T20:47:59Z</time>
      </trkpt>
      <trkpt lat="42.570102" lon="2.445520">
        <ele>1115.662</ele>
        <time>2021-05-28T20:48:06Z</time>
      </trkpt>
      <trkpt lat="42.570178" lon="2.445597">
        <ele>1113.908</ele>
        <time>2021-05-28T20:48:13Z</time>
      </trkpt>
      <trkpt lat="42.570251" lon="2.445679">
        <ele>1111.508</ele>
        <time>2021-05-28T20:48:21Z</time>
      </trkpt>
      <trkpt lat="42.570329" lon="2.445781">
        <ele>1107.929</ele>
        <time>2021-05-28T20:48:28Z</time>
      </trkpt>
      <trkpt lat="42.570361" lon="2.445818">
        <ele>1106.266</ele>
        <time>2021-05-28T20:48:31Z</time>
      </trkpt>
      <trkpt lat="42.570384" lon="2.445830">
        <ele>1104.967</ele>
        <time>2021-05-28T20:48:34Z</time>
      </trkpt>
      <trkpt lat="42.570402" lon="2.445824">
        <ele>1103.826</ele>
        <time>2021-05-28T20:48:36Z</time>
      </trkpt>
      <trkpt lat="42.570408" lon="2.445797">
        <ele>1103.433</ele>
        <time>2021-05-28T20:48:39Z</time>
      </trkpt>
      <trkpt lat="42.570397" lon="2.445762">
        <ele>1104.028</ele>
        <time>2021-05-28T20:48:40Z</time>
      </trkpt>
      <trkpt lat="42.570383" lon="2.445725">
        <ele>1104.795</ele>
        <time>2021-05-28T20:48:42Z</time>
      </trkpt>
      <trkpt lat="42.570382" lon="2.445690">
        <ele>1104.733</ele>
        <time>2021-05-28T20:48:44Z</time>
      </trkpt>
      <trkpt lat="42.570382" lon="2.445654">
        <ele>1104.628</ele>
        <time>2021-05-28T20:48:46Z</time>
      </trkpt>
      <trkpt lat="42.570387" lon="2.445622">
        <ele>1104.289</ele>
        <time>2021-05-28T20:48:48Z</time>
      </trkpt>
      <trkpt lat="42.570402" lon="2.445597">
        <ele>1103.417</ele>
        <time>2021-05-28T20:48:50Z</time>
      </trkpt>
      <trkpt lat="42.570408" lon="2.445565">
        <ele>1103.008</ele>
        <time>2021-05-28T20:48:52Z</time>
      </trkpt>
      <trkpt lat="42.570408" lon="2.445535">
        <ele>1102.569</ele>
        <time>2021-05-28T20:48:54Z</time>
      </trkpt>
      <trkpt lat="42.570402" lon="2.445506">
        <ele>1102.146</ele>
        <time>2021-05-28T20:48:56Z</time>
      </trkpt>
      <trkpt lat="42.570396" lon="2.445475">
        <ele>1101.887</ele>
        <time>2021-05-28T20:48:58Z</time>
      </trkpt>
      <trkpt lat="42.570389" lon="2.445444">
        <ele>1101.466</ele>
        <time>2021-05-28T20:49:00Z</time>
      </trkpt>
      <trkpt lat="42.570394" lon="2.445407">
        <ele>1100.313</ele>
        <time>2021-05-28T20:49:02Z</time>
      </trkpt>
      <trkpt lat="42.570396" lon="2.445363">
        <ele>1099.258</ele>
        <time>2021-05-28T20:49:04Z</time>
      </trkpt>
      <trkpt lat="42.570395" lon="2.445336">
        <ele>1098.665</ele>
        <time>2021-05-28T20:49:05Z</time>
      </trkpt>
      <trkpt lat="42.570398" lon="2.445310">
        <ele>1097.863</ele>
        <time>2021-05-28T20:49:06Z</time>
      </trkpt>
      <trkpt lat="42.570414" lon="2.445280">
        <ele>1096.241</ele>
        <time>2021-05-28T20:49:08Z</time>
      </trkpt>
      <trkpt lat="42.570418" lon="2.445243">
        <ele>1095.081</ele>
        <time>2021-05-28T20:49:10Z</time>
      </trkpt>
      <trkpt lat="42.570405" lon="2.445197">
        <ele>1094.509</ele>
        <time>2021-05-28T20:49:12Z</time>
      </trkpt>
      <trkpt lat="42.570392" lon="2.445167">
        <ele>1094.408</ele>
        <time>2021-05-28T20:49:14Z</time>
      </trkpt>
      <trkpt lat="42.570376" lon="2.445139">
        <ele>1094.561</ele>
        <time>2021-05-28T20:49:17Z</time>
      </trkpt>
      <trkpt lat="42.570363" lon="2.445113">
        <ele>1094.588</ele>
        <time>2021-05-28T20:49:18Z</time>
      </trkpt>
      <trkpt lat="42.570359" lon="2.445080">
        <ele>1093.819</ele>
        <time>2021-05-28T20:49:21Z</time>
      </trkpt>
      <trkpt lat="42.570353" lon="2.445054">
        <ele>1093.488</ele>
        <time>2021-05-28T20:49:23Z</time>
      </trkpt>
      <trkpt lat="42.570349" lon="2.445028">
        <ele>1092.995</ele>
        <time>2021-05-28T20:49:27Z</time>
      </trkpt>
      <trkpt lat="42.570358" lon="2.444999">
        <ele>1091.650</ele>
        <time>2021-05-28T20:49:31Z</time>
      </trkpt>
      <trkpt lat="42.570357" lon="2.444973">
        <ele>1091.027</ele>
        <time>2021-05-28T20:49:33Z</time>
      </trkpt>
      <trkpt lat="42.570354" lon="2.444944">
        <ele>1090.335</ele>
        <time>2021-05-28T20:49:34Z</time>
      </trkpt>
      <trkpt lat="42.570359" lon="2.444914">
        <ele>1089.252</ele>
        <time>2021-05-28T20:49:37Z</time>
      </trkpt>
      <trkpt lat="42.570357" lon="2.444885">
        <ele>1088.553</ele>
        <time>2021-05-28T20:49:39Z</time>
      </trkpt>
      <trkpt lat="42.570356" lon="2.444853">
        <ele>1087.708</ele>
        <time>2021-05-28T20:49:42Z</time>
      </trkpt>
      <trkpt lat="42.570355" lon="2.444822">
        <ele>1086.908</ele>
        <time>2021-05-28T20:49:46Z</time>
      </trkpt>
      <trkpt lat="42.570351" lon="2.444785">
        <ele>1086.132</ele>
        <time>2021-05-28T20:49:49Z</time>
      </trkpt>
      <trkpt lat="42.570342" lon="2.444755">
        <ele>1085.729</ele>
        <time>2021-05-28T20:50:23Z</time>
      </trkpt>
      <trkpt lat="42.570336" lon="2.444731">
        <ele>1085.310</ele>
        <time>2021-05-28T20:50:25Z</time>
      </trkpt>
      <trkpt lat="42.570355" lon="2.444722">
        <ele>1084.139</ele>
        <time>2021-05-28T20:50:31Z</time>
      </trkpt>
      <trkpt lat="42.570372" lon="2.444738">
        <ele>1083.736</ele>
        <time>2021-05-28T20:50:32Z</time>
      </trkpt>
      <trkpt lat="42.570388" lon="2.444756">
        <ele>1083.471</ele>
        <time>2021-05-28T20:50:34Z</time>
      </trkpt>
      <trkpt lat="42.570400" lon="2.444774">
        <ele>1083.268</ele>
        <time>2021-05-28T20:50:36Z</time>
      </trkpt>
      <trkpt lat="42.570412" lon="2.444800">
        <ele>1083.346</ele>
        <time>2021-05-28T20:50:38Z</time>
      </trkpt>
      <trkpt lat="42.570429" lon="2.444815">
        <ele>1082.923</ele>
        <time>2021-05-28T20:50:45Z</time>
      </trkpt>
      <trkpt lat="42.570438" lon="2.444788">
        <ele>1081.783</ele>
        <time>2021-05-28T20:50:52Z</time>
      </trkpt>
      <trkpt lat="42.570459" lon="2.444780">
        <ele>1080.411</ele>
        <time>2021-05-28T20:50:58Z</time>
      </trkpt>
      <trkpt lat="42.570477" lon="2.444760">
        <ele>1079.008</ele>
        <time>2021-05-28T20:51:03Z</time>
      </trkpt>
      <trkpt lat="42.570492" lon="2.444744">
        <ele>1077.849</ele>
        <time>2021-05-28T20:51:06Z</time>
      </trkpt>
      <trkpt lat="42.570491" lon="2.444718">
        <ele>1077.136</ele>
        <time>2021-05-28T20:51:15Z</time>
      </trkpt>
      <trkpt lat="42.570479" lon="2.444692">
        <ele>1077.097</ele>
        <time>2021-05-28T20:51:24Z</time>
      </trkpt>
      <trkpt lat="42.570478" lon="2.444659">
        <ele>1076.266</ele>
        <time>2021-05-28T20:51:28Z</time>
      </trkpt>
      <trkpt lat="42.570473" lon="2.444635">
        <ele>1075.863</ele>
        <time>2021-05-28T20:51:30Z</time>
      </trkpt>
      <trkpt lat="42.570463" lon="2.444602">
        <ele>1075.578</ele>
        <time>2021-05-28T20:51:32Z</time>
      </trkpt>
      <trkpt lat="42.570452" lon="2.444572">
        <ele>1075.335</ele>
        <time>2021-05-28T20:51:35Z</time>
      </trkpt>
      <trkpt lat="42.570456" lon="2.444544">
        <ele>1074.373</ele>
        <time>2021-05-28T20:51:39Z</time>
      </trkpt>
      <trkpt lat="42.570457" lon="2.444519">
        <ele>1073.653</ele>
        <time>2021-05-28T20:51:41Z</time>
      </trkpt>
      <trkpt lat="42.570447" lon="2.444486">
        <ele>1073.304</ele>
        <time>2021-05-28T20:51:44Z</time>
      </trkpt>
      <trkpt lat="42.570442" lon="2.444460">
        <ele>1072.914</ele>
        <time>2021-05-28T20:51:45Z</time>
      </trkpt>
      <trkpt lat="42.570436" lon="2.444436">
        <ele>1072.708</ele>
        <time>2021-05-28T20:51:47Z</time>
      </trkpt>
      <trkpt lat="42.570423" lon="2.444402">
        <ele>1072.992</ele>
        <time>2021-05-28T20:51:50Z</time>
      </trkpt>
      <trkpt lat="42.570422" lon="2.444370">
        <ele>1072.379</ele>
        <time>2021-05-28T20:51:54Z</time>
      </trkpt>
      <trkpt lat="42.570429" lon="2.444345">
        <ele>1071.550</ele>
        <time>2021-05-28T20:51:56Z</time>
      </trkpt>
      <trkpt lat="42.570424" lon="2.444311">
        <ele>1071.229</ele>
        <time>2021-05-28T20:51:59Z</time>
      </trkpt>
      <trkpt lat="42.570428" lon="2.444277">
        <ele>1070.366</ele>
        <time>2021-05-28T20:52:02Z</time>
      </trkpt>
      <trkpt lat="42.570420" lon="2.444253">
        <ele>1070.351</ele>
        <time>2021-05-28T20:52:05Z</time>
      </trkpt>
      <trkpt lat="42.570418" lon="2.444215">
        <ele>1069.848</ele>
        <time>2021-05-28T20:52:08Z</time>
      </trkpt>
      <trkpt lat="42.570424" lon="2.444182">
        <ele>1068.856</ele>
        <time>2021-05-28T20:52:11Z</time>
      </trkpt>
      <trkpt lat="42.570432" lon="2.444144">
        <ele>1067.756</ele>
        <time>2021-05-28T20:52:14Z</time>
      </trkpt>
      <trkpt lat="42.570440" lon="2.444115">
        <ele>1066.759</ele>
        <time>2021-05-28T20:52:16Z</time>
      </trkpt>
      <trkpt lat="42.570441" lon="2.444086">
        <ele>1066.314</ele>
        <time>2021-05-28T20:52:18Z</time>
      </trkpt>
      <trkpt lat="42.570434" lon="2.444055">
        <ele>1066.308</ele>
        <time>2021-05-28T20:52:20Z</time>
      </trkpt>
      <trkpt lat="42.570436" lon="2.444031">
        <ele>1065.842</ele>
        <time>2021-05-28T20:52:22Z</time>
      </trkpt>
      <trkpt lat="42.570447" lon="2.443997">
        <ele>1064.639</ele>
        <time>2021-05-28T20:52:25Z</time>
      </trkpt>
      <trkpt lat="42.570448" lon="2.443964">
        <ele>1064.150</ele>
        <time>2021-05-28T20:52:30Z</time>
      </trkpt>
      <trkpt lat="42.570464" lon="2.443940">
        <ele>1062.769</ele>
        <time>2021-05-28T20:52:32Z</time>
      </trkpt>
      <trkpt lat="42.570481" lon="2.443921">
        <ele>1061.336</ele>
        <time>2021-05-28T20:52:35Z</time>
      </trkpt>
      <trkpt lat="42.570484" lon="2.443897">
        <ele>1060.891</ele>
        <time>2021-05-28T20:52:37Z</time>
      </trkpt>
      <trkpt lat="42.570476" lon="2.443862">
        <ele>1060.878</ele>
        <time>2021-05-28T20:52:40Z</time>
      </trkpt>
      <trkpt lat="42.570464" lon="2.443844">
        <ele>1061.326</ele>
        <time>2021-05-28T20:52:42Z</time>
      </trkpt>
      <trkpt lat="42.570451" lon="2.443827">
        <ele>1061.975</ele>
        <time>2021-05-28T20:52:44Z</time>
      </trkpt>
      <trkpt lat="42.570450" lon="2.443799">
        <ele>1061.528</ele>
        <time>2021-05-28T20:52:47Z</time>
      </trkpt>
      <trkpt lat="42.570455" lon="2.443773">
        <ele>1060.820</ele>
        <time>2021-05-28T20:52:49Z</time>
      </trkpt>
      <trkpt lat="42.570451" lon="2.443743">
        <ele>1060.708</ele>
        <time>2021-05-28T20:52:51Z</time>
      </trkpt>
      <trkpt lat="42.570456" lon="2.443703">
        <ele>1059.824</ele>
        <time>2021-05-28T20:52:54Z</time>
      </trkpt>
      <trkpt lat="42.570460" lon="2.443675">
        <ele>1059.131</ele>
        <time>2021-05-28T20:52:56Z</time>
      </trkpt>
      <trkpt lat="42.570459" lon="2.443637">
        <ele>1058.652</ele>
        <time>2021-05-28T20:52:58Z</time>
      </trkpt>
      <trkpt lat="42.570461" lon="2.443607">
        <ele>1058.141</ele>
        <time>2021-05-28T20:53:00Z</time>
      </trkpt>
      <trkpt lat="42.570462" lon="2.443581">
        <ele>1057.798</ele>
        <time>2021-05-28T20:53:02Z</time>
      </trkpt>
      <trkpt lat="42.570457" lon="2.443557">
        <ele>1057.823</ele>
        <time>2021-05-28T20:53:04Z</time>
      </trkpt>
      <trkpt lat="42.570454" lon="2.443532">
        <ele>1057.780</ele>
        <time>2021-05-28T20:53:06Z</time>
      </trkpt>
      <trkpt lat="42.570457" lon="2.443504">
        <ele>1057.218</ele>
        <time>2021-05-28T20:53:09Z</time>
      </trkpt>
      <trkpt lat="42.570461" lon="2.443471">
        <ele>1056.678</ele>
        <time>2021-05-28T20:53:11Z</time>
      </trkpt>
      <trkpt lat="42.570466" lon="2.443438">
        <ele>1055.933</ele>
        <time>2021-05-28T20:53:14Z</time>
      </trkpt>
      <trkpt lat="42.570479" lon="2.443413">
        <ele>1054.826</ele>
        <time>2021-05-28T20:53:16Z</time>
      </trkpt>
      <trkpt lat="42.570482" lon="2.443389">
        <ele>1054.408</ele>
        <time>2021-05-28T20:53:18Z</time>
      </trkpt>
      <trkpt lat="42.570494" lon="2.443367">
        <ele>1053.474</ele>
        <time>2021-05-28T20:53:21Z</time>
      </trkpt>
      <trkpt lat="42.570486" lon="2.443340">
        <ele>1053.691</ele>
        <time>2021-05-28T20:53:23Z</time>
      </trkpt>
      <trkpt lat="42.570485" lon="2.443304">
        <ele>1053.452</ele>
        <time>2021-05-28T20:53:26Z</time>
      </trkpt>
      <trkpt lat="42.570481" lon="2.443271">
        <ele>1053.481</ele>
        <time>2021-05-28T20:53:28Z</time>
      </trkpt>
      <trkpt lat="42.570483" lon="2.443235">
        <ele>1053.018</ele>
        <time>2021-05-28T20:53:31Z</time>
      </trkpt>
      <trkpt lat="42.570492" lon="2.443204">
        <ele>1052.273</ele>
        <time>2021-05-28T20:53:34Z</time>
      </trkpt>
      <trkpt lat="42.570496" lon="2.443174">
        <ele>1051.780</ele>
        <time>2021-05-28T20:53:37Z</time>
      </trkpt>
      <trkpt lat="42.570512" lon="2.443154">
        <ele>1050.558</ele>
        <time>2021-05-28T20:53:40Z</time>
      </trkpt>
      <trkpt lat="42.570512" lon="2.443126">
        <ele>1050.323</ele>
        <time>2021-05-28T20:53:43Z</time>
      </trkpt>
      <trkpt lat="42.570511" lon="2.443091">
        <ele>1050.183</ele>
        <time>2021-05-28T20:53:46Z</time>
      </trkpt>
      <trkpt lat="42.570510" lon="2.443065">
        <ele>1050.011</ele>
        <time>2021-05-28T20:53:49Z</time>
      </trkpt>
      <trkpt lat="42.570519" lon="2.443044">
        <ele>1049.308</ele>
        <time>2021-05-28T20:53:51Z</time>
      </trkpt>
      <trkpt lat="42.570528" lon="2.443015">
        <ele>1048.549</ele>
        <time>2021-05-28T20:53:54Z</time>
      </trkpt>
      <trkpt lat="42.570528" lon="2.442975">
        <ele>1048.126</ele>
        <time>2021-05-28T20:53:56Z</time>
      </trkpt>
      <trkpt lat="42.570530" lon="2.442947">
        <ele>1047.837</ele>
        <time>2021-05-28T20:53:58Z</time>
      </trkpt>
      <trkpt lat="42.570531" lon="2.442915">
        <ele>1047.536</ele>
        <time>2021-05-28T20:54:03Z</time>
      </trkpt>
      <trkpt lat="42.570535" lon="2.442885">
        <ele>1047.043</ele>
        <time>2021-05-28T20:54:05Z</time>
      </trkpt>
      <trkpt lat="42.570539" lon="2.442856">
        <ele>1046.578</ele>
        <time>2021-05-28T20:54:09Z</time>
      </trkpt>
      <trkpt lat="42.570534" lon="2.442832">
        <ele>1046.785</ele>
        <time>2021-05-28T20:54:11Z</time>
      </trkpt>
      <trkpt lat="42.570522" lon="2.442802">
        <ele>1047.123</ele>
        <time>2021-05-28T20:54:13Z</time>
      </trkpt>
      <trkpt lat="42.570508" lon="2.442779">
        <ele>1047.863</ele>
        <time>2021-05-28T20:54:15Z</time>
      </trkpt>
      <trkpt lat="42.570494" lon="2.442740">
        <ele>1047.944</ele>
        <time>2021-05-28T20:54:17Z</time>
      </trkpt>
      <trkpt lat="42.570466" lon="2.442687">
        <ele>1048.418</ele>
        <time>2021-05-28T20:54:20Z</time>
      </trkpt>
      <trkpt lat="42.570438" lon="2.442660">
        <ele>1049.208</ele>
        <time>2021-05-28T20:54:22Z</time>
      </trkpt>
      <trkpt lat="42.570406" lon="2.442645">
        <ele>1050.423</ele>
        <time>2021-05-28T20:54:24Z</time>
      </trkpt>
      <trkpt lat="42.570388" lon="2.442637">
        <ele>1051.060</ele>
        <time>2021-05-28T20:54:25Z</time>
      </trkpt>
      <trkpt lat="42.570365" lon="2.442613">
        <ele>1051.331</ele>
        <time>2021-05-28T20:54:27Z</time>
      </trkpt>
      <trkpt lat="42.570335" lon="2.442592">
        <ele>1052.010</ele>
        <time>2021-05-28T20:54:29Z</time>
      </trkpt>
      <trkpt lat="42.570309" lon="2.442559">
        <ele>1051.957</ele>
        <time>2021-05-28T20:54:31Z</time>
      </trkpt>
      <trkpt lat="42.570294" lon="2.442541">
        <ele>1051.942</ele>
        <time>2021-05-28T20:54:32Z</time>
      </trkpt>
      <trkpt lat="42.570270" lon="2.442511">
        <ele>1051.539</ele>
        <time>2021-05-28T20:54:34Z</time>
      </trkpt>
      <trkpt lat="42.570253" lon="2.442480">
        <ele>1050.577</ele>
        <time>2021-05-28T20:54:36Z</time>
      </trkpt>
      <trkpt lat="42.570241" lon="2.442456">
        <ele>1049.796</ele>
        <time>2021-05-28T20:54:38Z</time>
      </trkpt>
      <trkpt lat="42.570227" lon="2.442422">
        <ele>1048.531</ele>
        <time>2021-05-28T20:54:40Z</time>
      </trkpt>
      <trkpt lat="42.570214" lon="2.442404">
        <ele>1048.024</ele>
        <time>2021-05-28T20:54:42Z</time>
      </trkpt>
      <trkpt lat="42.570200" lon="2.442386">
        <ele>1047.408</ele>
        <time>2021-05-28T20:54:44Z</time>
      </trkpt>
      <trkpt lat="42.570189" lon="2.442364">
        <ele>1046.786</ele>
        <time>2021-05-28T20:54:47Z</time>
      </trkpt>
      <trkpt lat="42.570172" lon="2.442344">
        <ele>1046.253</ele>
        <time>2021-05-28T20:54:50Z</time>
      </trkpt>
      <trkpt lat="42.570151" lon="2.442326">
        <ele>1045.874</ele>
        <time>2021-05-28T20:54:56Z</time>
      </trkpt>
      <trkpt lat="42.570132" lon="2.442304">
        <ele>1045.213</ele>
        <time>2021-05-28T20:54:58Z</time>
      </trkpt>
      <trkpt lat="42.570117" lon="2.442279">
        <ele>1044.450</ele>
        <time>2021-05-28T20:55:01Z</time>
      </trkpt>
      <trkpt lat="42.570095" lon="2.442258">
        <ele>1044.045</ele>
        <time>2021-05-28T20:55:04Z</time>
      </trkpt>
      <trkpt lat="42.570080" lon="2.442241">
        <ele>1043.542</ele>
        <time>2021-05-28T20:55:06Z</time>
      </trkpt>
      <trkpt lat="42.570053" lon="2.442207">
        <ele>1042.730</ele>
        <time>2021-05-28T20:55:09Z</time>
      </trkpt>
      <trkpt lat="42.570040" lon="2.442175">
        <ele>1041.988</ele>
        <time>2021-05-28T20:55:12Z</time>
      </trkpt>
      <trkpt lat="42.570025" lon="2.442147">
        <ele>1041.424</ele>
        <time>2021-05-28T20:55:15Z</time>
      </trkpt>
      <trkpt lat="42.570015" lon="2.442126">
        <ele>1040.926</ele>
        <time>2021-05-28T20:55:17Z</time>
      </trkpt>
      <trkpt lat="42.570006" lon="2.442101">
        <ele>1040.408</ele>
        <time>2021-05-28T20:55:19Z</time>
      </trkpt>
      <trkpt lat="42.569996" lon="2.442069">
        <ele>1039.425</ele>
        <time>2021-05-28T20:55:21Z</time>
      </trkpt>
      <trkpt lat="42.569982" lon="2.442044">
        <ele>1038.072</ele>
        <time>2021-05-28T20:55:23Z</time>
      </trkpt>
      <trkpt lat="42.569968" lon="2.442024">
        <ele>1036.613</ele>
        <time>2021-05-28T20:55:25Z</time>
      </trkpt>
      <trkpt lat="42.569988" lon="2.442020">
        <ele>1037.612</ele>
        <time>2021-05-28T20:55:30Z</time>
      </trkpt>
      <trkpt lat="42.570008" lon="2.442036">
        <ele>1038.449</ele>
        <time>2021-05-28T20:55:34Z</time>
      </trkpt>
      <trkpt lat="42.570027" lon="2.442048">
        <ele>1038.324</ele>
        <time>2021-05-28T20:55:37Z</time>
      </trkpt>
      <trkpt lat="42.570047" lon="2.442056">
        <ele>1038.071</ele>
        <time>2021-05-28T20:55:38Z</time>
      </trkpt>
      <trkpt lat="42.570066" lon="2.442043">
        <ele>1037.129</ele>
        <time>2021-05-28T20:55:41Z</time>
      </trkpt>
      <trkpt lat="42.570074" lon="2.442012">
        <ele>1035.933</ele>
        <time>2021-05-28T20:55:43Z</time>
      </trkpt>
      <trkpt lat="42.570075" lon="2.441986">
        <ele>1035.023</ele>
        <time>2021-05-28T20:55:45Z</time>
      </trkpt>
      <trkpt lat="42.570078" lon="2.441954">
        <ele>1033.815</ele>
        <time>2021-05-28T20:55:48Z</time>
      </trkpt>
      <trkpt lat="42.570078" lon="2.441921">
        <ele>1032.608</ele>
        <time>2021-05-28T20:55:51Z</time>
      </trkpt>
      <trkpt lat="42.570069" lon="2.441894">
        <ele>1032.050</ele>
        <time>2021-05-28T20:55:53Z</time>
      </trkpt>
      <trkpt lat="42.570060" lon="2.441873">
        <ele>1031.647</ele>
        <time>2021-05-28T20:55:56Z</time>
      </trkpt>
      <trkpt lat="42.570059" lon="2.441846">
        <ele>1030.738</ele>
        <time>2021-05-28T20:55:58Z</time>
      </trkpt>
      <trkpt lat="42.570077" lon="2.441866">
        <ele>1030.717</ele>
        <time>2021-05-28T20:56:03Z</time>
      </trkpt>
      <trkpt lat="42.570096" lon="2.441871">
        <ele>1030.234</ele>
        <time>2021-05-28T20:56:06Z</time>
      </trkpt>
      <trkpt lat="42.570117" lon="2.441869">
        <ele>1029.449</ele>
        <time>2021-05-28T20:56:08Z</time>
      </trkpt>
      <trkpt lat="42.570135" lon="2.441876">
        <ele>1029.036</ele>
        <time>2021-05-28T20:56:10Z</time>
      </trkpt>
      <trkpt lat="42.570157" lon="2.441873">
        <ele>1028.214</ele>
        <time>2021-05-28T20:56:12Z</time>
      </trkpt>
      <trkpt lat="42.570179" lon="2.441864">
        <ele>1027.027</ele>
        <time>2021-05-28T20:56:16Z</time>
      </trkpt>
      <trkpt lat="42.570205" lon="2.441859">
        <ele>1025.968</ele>
        <time>2021-05-28T20:56:17Z</time>
      </trkpt>
      <trkpt lat="42.570222" lon="2.441848">
        <ele>1024.814</ele>
        <time>2021-05-28T20:56:19Z</time>
      </trkpt>
      <trkpt lat="42.570242" lon="2.441854">
        <ele>1024.408</ele>
        <time>2021-05-28T20:56:23Z</time>
      </trkpt>
      <trkpt lat="42.570266" lon="2.441854">
        <ele>1023.559</ele>
        <time>2021-05-28T20:56:28Z</time>
      </trkpt>
      <trkpt lat="42.570288" lon="2.441855">
        <ele>1022.896</ele>
        <time>2021-05-28T20:56:30Z</time>
      </trkpt>
      <trkpt lat="42.570313" lon="2.441858">
        <ele>1022.057</ele>
        <time>2021-05-28T20:56:32Z</time>
      </trkpt>
      <trkpt lat="42.570337" lon="2.441853">
        <ele>1020.926</ele>
        <time>2021-05-28T20:56:34Z</time>
      </trkpt>
      <trkpt lat="42.570357" lon="2.441856">
        <ele>1020.383</ele>
        <time>2021-05-28T20:56:37Z</time>
      </trkpt>
      <trkpt lat="42.570378" lon="2.441852">
        <ele>1019.448</ele>
        <time>2021-05-28T20:56:39Z</time>
      </trkpt>
      <trkpt lat="42.570398" lon="2.441859">
        <ele>1019.015</ele>
        <time>2021-05-28T20:56:42Z</time>
      </trkpt>
      <trkpt lat="42.570424" lon="2.441861">
        <ele>1018.173</ele>
        <time>2021-05-28T20:56:44Z</time>
      </trkpt>
      <trkpt lat="42.570449" lon="2.441859">
        <ele>1017.177</ele>
        <time>2021-05-28T20:56:46Z</time>
      </trkpt>
      <trkpt lat="42.570474" lon="2.441855">
        <ele>1016.161</ele>
        <time>2021-05-28T20:56:48Z</time>
      </trkpt>
      <trkpt lat="42.570493" lon="2.441858">
        <ele>1015.527</ele>
        <time>2021-05-28T20:56:50Z</time>
      </trkpt>
      <trkpt lat="42.570516" lon="2.441858">
        <ele>1014.708</ele>
        <time>2021-05-28T20:56:53Z</time>
      </trkpt>
      <trkpt lat="42.570542" lon="2.441867">
        <ele>1014.184</ele>
        <time>2021-05-28T20:56:57Z</time>
      </trkpt>
      <trkpt lat="42.570563" lon="2.441858">
        <ele>1013.111</ele>
        <time>2021-05-28T20:57:00Z</time>
      </trkpt>
      <trkpt lat="42.570586" lon="2.441857">
        <ele>1012.492</ele>
        <time>2021-05-28T20:57:03Z</time>
      </trkpt>
      <trkpt lat="42.570606" lon="2.441842">
        <ele>1011.221</ele>
        <time>2021-05-28T20:57:06Z</time>
      </trkpt>
      <trkpt lat="42.570627" lon="2.441839">
        <ele>1010.428</ele>
        <time>2021-05-28T20:57:09Z</time>
      </trkpt>
      <trkpt lat="42.570649" lon="2.441833">
        <ele>1009.673</ele>
        <time>2021-05-28T20:57:14Z</time>
      </trkpt>
      <trkpt lat="42.570675" lon="2.441829">
        <ele>1008.630</ele>
        <time>2021-05-28T20:57:17Z</time>
      </trkpt>
      <trkpt lat="42.570696" lon="2.441827">
        <ele>1008.078</ele>
        <time>2021-05-28T20:57:21Z</time>
      </trkpt>
      <trkpt lat="42.570715" lon="2.441818">
        <ele>1007.018</ele>
        <time>2021-05-28T20:57:25Z</time>
      </trkpt>
      <trkpt lat="42.570736" lon="2.441808">
        <ele>1005.998</ele>
        <time>2021-05-28T20:57:41Z</time>
      </trkpt>
      <trkpt lat="42.570755" lon="2.441806">
        <ele>1005.317</ele>
        <time>2021-05-28T20:57:43Z</time>
      </trkpt>
      <trkpt lat="42.570779" lon="2.441806">
        <ele>1004.608</ele>
        <time>2021-05-28T20:57:45Z</time>
      </trkpt>
      <trkpt lat="42.570799" lon="2.441805">
        <ele>1004.048</ele>
        <time>2021-05-28T20:57:47Z</time>
      </trkpt>
      <trkpt lat="42.570817" lon="2.441800">
        <ele>1003.255</ele>
        <time>2021-05-28T20:57:50Z</time>
      </trkpt>
      <trkpt lat="42.570835" lon="2.441794">
        <ele>1002.466</ele>
        <time>2021-05-28T20:57:52Z</time>
      </trkpt>
      <trkpt lat="42.570871" lon="2.441776">
        <ele>1000.625</ele>
        <time>2021-05-28T20:57:55Z</time>
      </trkpt>
      <trkpt lat="42.570893" lon="2.441773">
        <ele>999.952</ele>
        <time>2021-05-28T20:57:57Z</time>
      </trkpt>
      <trkpt lat="42.570915" lon="2.441767">
        <ele>999.177</ele>
        <time>2021-05-28T20:57:59Z</time>
      </trkpt>
      <trkpt lat="42.570944" lon="2.441761">
        <ele>998.134</ele>
        <time>2021-05-28T20:58:01Z</time>
      </trkpt>
      <trkpt lat="42.570968" lon="2.441767">
        <ele>997.892</ele>
        <time>2021-05-28T20:58:03Z</time>
      </trkpt>
      <trkpt lat="42.570993" lon="2.441764">
        <ele>997.156</ele>
        <time>2021-05-28T20:58:05Z</time>
      </trkpt>
      <trkpt lat="42.571012" lon="2.441775">
        <ele>997.159</ele>
        <time>2021-05-28T20:58:07Z</time>
      </trkpt>
      <trkpt lat="42.571035" lon="2.441777">
        <ele>996.614</ele>
        <time>2021-05-28T20:58:09Z</time>
      </trkpt>
      <trkpt lat="42.571061" lon="2.441780">
        <ele>996.108</ele>
        <time>2021-05-28T20:58:11Z</time>
      </trkpt>
      <trkpt lat="42.571084" lon="2.441789">
        <ele>996.092</ele>
        <time>2021-05-28T20:58:15Z</time>
      </trkpt>
      <trkpt lat="42.571102" lon="2.441778">
        <ele>995.079</ele>
        <time>2021-05-28T20:58:16Z</time>
      </trkpt>
      <trkpt lat="42.571130" lon="2.441783">
        <ele>994.260</ele>
        <time>2021-05-28T20:58:21Z</time>
      </trkpt>
      <trkpt lat="42.571152" lon="2.441775">
        <ele>992.949</ele>
        <time>2021-05-28T20:58:23Z</time>
      </trkpt>
      <trkpt lat="42.571175" lon="2.441764">
        <ele>991.576</ele>
        <time>2021-05-28T20:58:27Z</time>
      </trkpt>
      <trkpt lat="42.571199" lon="2.441766">
        <ele>990.691</ele>
        <time>2021-05-28T20:58:29Z</time>
      </trkpt>
      <trkpt lat="42.571224" lon="2.441772">
        <ele>989.748</ele>
        <time>2021-05-28T20:58:31Z</time>
      </trkpt>
      <trkpt lat="42.571226" lon="2.441747">
        <ele>988.746</ele>
        <time>2021-05-28T20:58:34Z</time>
      </trkpt>
      <trkpt lat="42.571214" lon="2.441725">
        <ele>988.499</ele>
        <time>2021-05-28T20:58:37Z</time>
      </trkpt>
      <trkpt lat="42.571197" lon="2.441699">
        <ele>988.107</ele>
        <time>2021-05-28T20:58:41Z</time>
      </trkpt>
      <trkpt lat="42.571188" lon="2.441672">
        <ele>987.427</ele>
        <time>2021-05-28T20:58:44Z</time>
      </trkpt>
      <trkpt lat="42.571161" lon="2.441644">
        <ele>987.208</ele>
        <time>2021-05-28T20:58:46Z</time>
      </trkpt>
      <trkpt lat="42.571149" lon="2.441615">
        <ele>986.386</ele>
        <time>2021-05-28T20:58:49Z</time>
      </trkpt>
      <trkpt lat="42.571168" lon="2.441602">
        <ele>985.143</ele>
        <time>2021-05-28T20:58:52Z</time>
      </trkpt>
      <trkpt lat="42.571187" lon="2.441596">
        <ele>984.264</ele>
        <time>2021-05-28T20:58:55Z</time>
      </trkpt>
      <trkpt lat="42.571211" lon="2.441597">
        <ele>983.513</ele>
        <time>2021-05-28T20:58:58Z</time>
      </trkpt>
      <trkpt lat="42.571229" lon="2.441599">
        <ele>983.080</ele>
        <time>2021-05-28T20:59:00Z</time>
      </trkpt>
      <trkpt lat="42.571247" lon="2.441591">
        <ele>982.135</ele>
        <time>2021-05-28T20:59:03Z</time>
      </trkpt>
      <trkpt lat="42.571264" lon="2.441584">
        <ele>981.342</ele>
        <time>2021-05-28T20:59:04Z</time>
      </trkpt>
      <trkpt lat="42.571275" lon="2.441563">
        <ele>980.140</ele>
        <time>2021-05-28T20:59:06Z</time>
      </trkpt>
      <trkpt lat="42.571261" lon="2.441531">
        <ele>979.351</ele>
        <time>2021-05-28T20:59:08Z</time>
      </trkpt>
      <trkpt lat="42.571247" lon="2.441502">
        <ele>978.601</ele>
        <time>2021-05-28T20:59:10Z</time>
      </trkpt>
      <trkpt lat="42.571230" lon="2.441482">
        <ele>978.211</ele>
        <time>2021-05-28T20:59:12Z</time>
      </trkpt>
      <trkpt lat="42.571216" lon="2.441459">
        <ele>977.608</ele>
        <time>2021-05-28T20:59:15Z</time>
      </trkpt>
      <trkpt lat="42.571210" lon="2.441435">
        <ele>976.852</ele>
        <time>2021-05-28T20:59:19Z</time>
      </trkpt>
      <trkpt lat="42.571185" lon="2.441418">
        <ele>976.769</ele>
        <time>2021-05-28T20:59:21Z</time>
      </trkpt>
      <trkpt lat="42.571190" lon="2.441393">
        <ele>975.530</ele>
        <time>2021-05-28T20:59:28Z</time>
      </trkpt>
      <trkpt lat="42.571212" lon="2.441387">
        <ele>974.739</ele>
        <time>2021-05-28T20:59:30Z</time>
      </trkpt>
      <trkpt lat="42.571229" lon="2.441377">
        <ele>974.016</ele>
        <time>2021-05-28T20:59:32Z</time>
      </trkpt>
      <trkpt lat="42.571250" lon="2.441379">
        <ele>973.651</ele>
        <time>2021-05-28T20:59:35Z</time>
      </trkpt>
      <trkpt lat="42.571270" lon="2.441379">
        <ele>973.228</ele>
        <time>2021-05-28T20:59:39Z</time>
      </trkpt>
      <trkpt lat="42.571288" lon="2.441354">
        <ele>971.886</ele>
        <time>2021-05-28T20:59:44Z</time>
      </trkpt>
      <trkpt lat="42.571289" lon="2.441327">
        <ele>970.845</ele>
        <time>2021-05-28T20:59:47Z</time>
      </trkpt>
      <trkpt lat="42.571277" lon="2.441298">
        <ele>969.947</ele>
        <time>2021-05-28T20:59:50Z</time>
      </trkpt>
      <trkpt lat="42.571262" lon="2.441277">
        <ele>969.311</ele>
        <time>2021-05-28T20:59:52Z</time>
      </trkpt>
      <trkpt lat="42.571245" lon="2.441254">
        <ele>968.708</ele>
        <time>2021-05-28T20:59:55Z</time>
      </trkpt>
      <trkpt lat="42.571231" lon="2.441238">
        <ele>968.441</ele>
        <time>2021-05-28T20:59:57Z</time>
      </trkpt>
      <trkpt lat="42.571217" lon="2.441210">
        <ele>967.558</ele>
        <time>2021-05-28T21:00:00Z</time>
      </trkpt>
      <trkpt lat="42.571206" lon="2.441186">
        <ele>966.719</ele>
        <time>2021-05-28T21:00:02Z</time>
      </trkpt>
      <trkpt lat="42.571192" lon="2.441156">
        <ele>965.738</ele>
        <time>2021-05-28T21:00:05Z</time>
      </trkpt>
      <trkpt lat="42.571181" lon="2.441134">
        <ele>964.915</ele>
        <time>2021-05-28T21:00:08Z</time>
      </trkpt>
      <trkpt lat="42.571169" lon="2.441113">
        <ele>964.270</ele>
        <time>2021-05-28T21:00:10Z</time>
      </trkpt>
      <trkpt lat="42.571152" lon="2.441097">
        <ele>963.727</ele>
        <time>2021-05-28T21:00:12Z</time>
      </trkpt>
      <trkpt lat="42.571132" lon="2.441071">
        <ele>962.795</ele>
        <time>2021-05-28T21:00:15Z</time>
      </trkpt>
      <trkpt lat="42.571114" lon="2.441051">
        <ele>961.927</ele>
        <time>2021-05-28T21:00:18Z</time>
      </trkpt>
      <trkpt lat="42.571098" lon="2.441029">
        <ele>961.268</ele>
        <time>2021-05-28T21:00:21Z</time>
      </trkpt>
      <trkpt lat="42.571079" lon="2.441018">
        <ele>961.214</ele>
        <time>2021-05-28T21:00:24Z</time>
      </trkpt>
      <trkpt lat="42.571058" lon="2.441009">
        <ele>961.408</ele>
        <time>2021-05-28T21:00:27Z</time>
      </trkpt>
      <trkpt lat="42.571050" lon="2.440981">
        <ele>960.389</ele>
        <time>2021-05-28T21:00:32Z</time>
      </trkpt>
      <trkpt lat="42.571036" lon="2.440961">
        <ele>959.846</ele>
        <time>2021-05-28T21:00:34Z</time>
      </trkpt>
      <trkpt lat="42.571015" lon="2.440953">
        <ele>960.067</ele>
        <time>2021-05-28T21:00:36Z</time>
      </trkpt>
      <trkpt lat="42.571000" lon="2.440937">
        <ele>959.816</ele>
        <time>2021-05-28T21:00:38Z</time>
      </trkpt>
      <trkpt lat="42.570983" lon="2.440926">
        <ele>959.823</ele>
        <time>2021-05-28T21:00:42Z</time>
      </trkpt>
      <trkpt lat="42.570967" lon="2.440911">
        <ele>959.788</ele>
        <time>2021-05-28T21:00:45Z</time>
      </trkpt>
      <trkpt lat="42.570952" lon="2.440886">
        <ele>959.115</ele>
        <time>2021-05-28T21:00:48Z</time>
      </trkpt>
      <trkpt lat="42.570965" lon="2.440865">
        <ele>957.713</ele>
        <time>2021-05-28T21:00:54Z</time>
      </trkpt>
      <trkpt lat="42.570983" lon="2.440864">
        <ele>957.098</ele>
        <time>2021-05-28T21:00:56Z</time>
      </trkpt>
      <trkpt lat="42.571004" lon="2.440877">
        <ele>956.915</ele>
        <time>2021-05-28T21:01:00Z</time>
      </trkpt>
      <trkpt lat="42.571031" lon="2.440877">
        <ele>955.926</ele>
        <time>2021-05-28T21:01:02Z</time>
      </trkpt>
      <trkpt lat="42.571048" lon="2.440852">
        <ele>954.208</ele>
        <time>2021-05-28T21:01:05Z</time>
      </trkpt>
      <trkpt lat="42.571039" lon="2.440825">
        <ele>953.376</ele>
        <time>2021-05-28T21:01:07Z</time>
      </trkpt>
      <trkpt lat="42.571024" lon="2.440801">
        <ele>952.963</ele>
        <time>2021-05-28T21:01:09Z</time>
      </trkpt>
      <trkpt lat="42.571013" lon="2.440776">
        <ele>952.364</ele>
        <time>2021-05-28T21:01:12Z</time>
      </trkpt>
      <trkpt lat="42.571009" lon="2.440743">
        <ele>951.353</ele>
        <time>2021-05-28T21:01:15Z</time>
      </trkpt>
      <trkpt lat="42.571011" lon="2.440712">
        <ele>950.050</ele>
        <time>2021-05-28T21:01:20Z</time>
      </trkpt>
      <trkpt lat="42.571022" lon="2.440687">
        <ele>948.665</ele>
        <time>2021-05-28T21:01:23Z</time>
      </trkpt>
      <trkpt lat="42.571028" lon="2.440662">
        <ele>947.362</ele>
        <time>2021-05-28T21:01:25Z</time>
      </trkpt>
      <trkpt lat="42.571022" lon="2.440635">
        <ele>946.620</ele>
        <time>2021-05-28T21:01:28Z</time>
      </trkpt>
      <trkpt lat="42.571008" lon="2.440615">
        <ele>946.425</ele>
        <time>2021-05-28T21:01:30Z</time>
      </trkpt>
      <trkpt lat="42.570988" lon="2.440594">
        <ele>946.626</ele>
        <time>2021-05-28T21:01:32Z</time>
      </trkpt>
      <trkpt lat="42.570975" lon="2.440564">
        <ele>946.208</ele>
        <time>2021-05-28T21:01:34Z</time>
      </trkpt>
      <trkpt lat="42.570958" lon="2.440541">
        <ele>946.408</ele>
        <time>2021-05-28T21:01:36Z</time>
      </trkpt>
      <trkpt lat="42.570940" lon="2.440521">
        <ele>946.949</ele>
        <time>2021-05-28T21:01:39Z</time>
      </trkpt>
      <trkpt lat="42.570939" lon="2.440495">
        <ele>946.456</ele>
        <time>2021-05-28T21:01:42Z</time>
      </trkpt>
      <trkpt lat="42.570945" lon="2.440471">
        <ele>945.617</ele>
        <time>2021-05-28T21:01:45Z</time>
      </trkpt>
      <trkpt lat="42.570955" lon="2.440443">
        <ele>944.556</ele>
        <time>2021-05-28T21:01:48Z</time>
      </trkpt>
      <trkpt lat="42.570949" lon="2.440417">
        <ele>944.313</ele>
        <time>2021-05-28T21:01:50Z</time>
      </trkpt>
      <trkpt lat="42.570947" lon="2.440391">
        <ele>943.888</ele>
        <time>2021-05-28T21:01:52Z</time>
      </trkpt>
      <trkpt lat="42.570947" lon="2.440366">
        <ele>943.315</ele>
        <time>2021-05-28T21:01:54Z</time>
      </trkpt>
      <trkpt lat="42.570955" lon="2.440345">
        <ele>942.493</ele>
        <time>2021-05-28T21:01:56Z</time>
      </trkpt>
      <trkpt lat="42.570947" lon="2.440302">
        <ele>942.073</ele>
        <time>2021-05-28T21:01:59Z</time>
      </trkpt>
      <trkpt lat="42.570955" lon="2.440269">
        <ele>940.985</ele>
        <time>2021-05-28T21:02:01Z</time>
      </trkpt>
      <trkpt lat="42.570958" lon="2.440238">
        <ele>940.213</ele>
        <time>2021-05-28T21:02:04Z</time>
      </trkpt>
      <trkpt lat="42.570942" lon="2.440201">
        <ele>940.608</ele>
        <time>2021-05-28T21:02:08Z</time>
      </trkpt>
      <trkpt lat="42.570937" lon="2.440176">
        <ele>940.674</ele>
        <time>2021-05-28T21:02:10Z</time>
      </trkpt>
      <trkpt lat="42.570931" lon="2.440144">
        <ele>940.461</ele>
        <time>2021-05-28T21:02:12Z</time>
      </trkpt>
      <trkpt lat="42.570925" lon="2.440112">
        <ele>940.342</ele>
        <time>2021-05-28T21:02:14Z</time>
      </trkpt>
      <trkpt lat="42.570925" lon="2.440080">
        <ele>939.951</ele>
        <time>2021-05-28T21:02:16Z</time>
      </trkpt>
      <trkpt lat="42.570939" lon="2.440049">
        <ele>938.618</ele>
        <time>2021-05-28T21:02:18Z</time>
      </trkpt>
      <trkpt lat="42.570952" lon="2.440022">
        <ele>937.543</ele>
        <time>2021-05-28T21:02:22Z</time>
      </trkpt>
      <trkpt lat="42.570960" lon="2.440000">
        <ele>936.780</ele>
        <time>2021-05-28T21:02:25Z</time>
      </trkpt>
      <trkpt lat="42.570961" lon="2.439973">
        <ele>936.318</ele>
        <time>2021-05-28T21:02:26Z</time>
      </trkpt>
      <trkpt lat="42.570961" lon="2.439941">
        <ele>935.932</ele>
        <time>2021-05-28T21:02:29Z</time>
      </trkpt>
      <trkpt lat="42.570965" lon="2.439887">
        <ele>935.092</ele>
        <time>2021-05-28T21:02:32Z</time>
      </trkpt>
      <trkpt lat="42.570979" lon="2.439861">
        <ele>933.911</ele>
        <time>2021-05-28T21:02:34Z</time>
      </trkpt>
      <trkpt lat="42.570987" lon="2.439826">
        <ele>933.108</ele>
        <time>2021-05-28T21:02:36Z</time>
      </trkpt>
      <trkpt lat="42.570995" lon="2.439786">
        <ele>932.270</ele>
        <time>2021-05-28T21:02:38Z</time>
      </trkpt>
      <trkpt lat="42.570997" lon="2.439755">
        <ele>931.737</ele>
        <time>2021-05-28T21:02:40Z</time>
      </trkpt>
      <trkpt lat="42.570994" lon="2.439709">
        <ele>931.288</ele>
        <time>2021-05-28T21:02:42Z</time>
      </trkpt>
      <trkpt lat="42.570988" lon="2.439665">
        <ele>930.647</ele>
        <time>2021-05-28T21:02:44Z</time>
      </trkpt>
      <trkpt lat="42.570976" lon="2.439630">
        <ele>930.334</ele>
        <time>2021-05-28T21:02:46Z</time>
      </trkpt>
      <trkpt lat="42.570964" lon="2.439611">
        <ele>930.459</ele>
        <time>2021-05-28T21:02:47Z</time>
      </trkpt>
      <trkpt lat="42.570945" lon="2.439586">
        <ele>930.666</ele>
        <time>2021-05-28T21:02:49Z</time>
      </trkpt>
      <trkpt lat="42.570938" lon="2.439556">
        <ele>930.264</ele>
        <time>2021-05-28T21:02:51Z</time>
      </trkpt>
      <trkpt lat="42.570938" lon="2.439517">
        <ele>929.324</ele>
        <time>2021-05-28T21:02:54Z</time>
      </trkpt>
      <trkpt lat="42.570922" lon="2.439496">
        <ele>929.404</ele>
        <time>2021-05-28T21:02:56Z</time>
      </trkpt>
      <trkpt lat="42.570905" lon="2.439479">
        <ele>929.514</ele>
        <time>2021-05-28T21:02:58Z</time>
      </trkpt>
      <trkpt lat="42.570891" lon="2.439443">
        <ele>929.108</ele>
        <time>2021-05-28T21:03:01Z</time>
      </trkpt>
      <trkpt lat="42.570877" lon="2.439413">
        <ele>928.549</ele>
        <time>2021-05-28T21:03:03Z</time>
      </trkpt>
      <trkpt lat="42.570865" lon="2.439383">
        <ele>927.946</ele>
        <time>2021-05-28T21:03:05Z</time>
      </trkpt>
      <trkpt lat="42.570850" lon="2.439346">
        <ele>927.257</ele>
        <time>2021-05-28T21:03:07Z</time>
      </trkpt>
      <trkpt lat="42.570843" lon="2.439307">
        <ele>926.266</ele>
        <time>2021-05-28T21:03:09Z</time>
      </trkpt>
      <trkpt lat="42.570833" lon="2.439270">
        <ele>925.463</ele>
        <time>2021-05-28T21:03:11Z</time>
      </trkpt>
      <trkpt lat="42.570827" lon="2.439237">
        <ele>924.638</ele>
        <time>2021-05-28T21:03:13Z</time>
      </trkpt>
      <trkpt lat="42.570825" lon="2.439204">
        <ele>923.615</ele>
        <time>2021-05-28T21:03:15Z</time>
      </trkpt>
      <trkpt lat="42.570822" lon="2.439174">
        <ele>922.773</ele>
        <time>2021-05-28T21:03:17Z</time>
      </trkpt>
      <trkpt lat="42.570818" lon="2.439141">
        <ele>922.053</ele>
        <time>2021-05-28T21:03:19Z</time>
      </trkpt>
      <trkpt lat="42.570803" lon="2.439110">
        <ele>921.804</ele>
        <time>2021-05-28T21:03:21Z</time>
      </trkpt>
      <trkpt lat="42.570784" lon="2.439068">
        <ele>921.314</ele>
        <time>2021-05-28T21:03:23Z</time>
      </trkpt>
      <trkpt lat="42.570768" lon="2.439033">
        <ele>920.908</ele>
        <time>2021-05-28T21:03:25Z</time>
      </trkpt>
      <trkpt lat="42.570755" lon="2.439003">
        <ele>920.442</ele>
        <time>2021-05-28T21:03:27Z</time>
      </trkpt>
      <trkpt lat="42.570743" lon="2.438971">
        <ele>919.869</ele>
        <time>2021-05-28T21:03:30Z</time>
      </trkpt>
      <trkpt lat="42.570734" lon="2.438950">
        <ele>919.410</ele>
        <time>2021-05-28T21:03:32Z</time>
      </trkpt>
      <trkpt lat="42.570720" lon="2.438931">
        <ele>919.269</ele>
        <time>2021-05-28T21:03:34Z</time>
      </trkpt>
      <trkpt lat="42.570700" lon="2.438911">
        <ele>919.156</ele>
        <time>2021-05-28T21:03:37Z</time>
      </trkpt>
      <trkpt lat="42.570689" lon="2.438886">
        <ele>918.581</ele>
        <time>2021-05-28T21:03:40Z</time>
      </trkpt>
      <trkpt lat="42.570672" lon="2.438863">
        <ele>918.058</ele>
        <time>2021-05-28T21:03:43Z</time>
      </trkpt>
      <trkpt lat="42.570660" lon="2.438845">
        <ele>917.656</ele>
        <time>2021-05-28T21:03:46Z</time>
      </trkpt>
      <trkpt lat="42.570648" lon="2.438822">
        <ele>916.914</ele>
        <time>2021-05-28T21:04:00Z</time>
      </trkpt>
      <trkpt lat="42.570627" lon="2.438821">
        <ele>917.454</ele>
        <time>2021-05-28T21:04:03Z</time>
      </trkpt>
      <trkpt lat="42.570608" lon="2.438812">
        <ele>917.509</ele>
        <time>2021-05-28T21:04:06Z</time>
      </trkpt>
      <trkpt lat="42.570585" lon="2.438797">
        <ele>917.408</ele>
        <time>2021-05-28T21:04:09Z</time>
      </trkpt>
      <trkpt lat="42.570569" lon="2.438784">
        <ele>917.278</ele>
        <time>2021-05-28T21:04:12Z</time>
      </trkpt>
      <trkpt lat="42.570555" lon="2.438765">
        <ele>916.725</ele>
        <time>2021-05-28T21:04:17Z</time>
      </trkpt>
      <trkpt lat="42.570538" lon="2.438744">
        <ele>916.246</ele>
        <time>2021-05-28T21:04:20Z</time>
      </trkpt>
      <trkpt lat="42.570517" lon="2.438741">
        <ele>916.715</ele>
        <time>2021-05-28T21:04:23Z</time>
      </trkpt>
      <trkpt lat="42.570495" lon="2.438725">
        <ele>916.762</ele>
        <time>2021-05-28T21:04:27Z</time>
      </trkpt>
      <trkpt lat="42.570478" lon="2.438713">
        <ele>916.687</ele>
        <time>2021-05-28T21:04:30Z</time>
      </trkpt>
      <trkpt lat="42.570458" lon="2.438704">
        <ele>916.814</ele>
        <time>2021-05-28T21:04:34Z</time>
      </trkpt>
      <trkpt lat="42.570441" lon="2.438688">
        <ele>916.692</ele>
        <time>2021-05-28T21:04:37Z</time>
      </trkpt>
      <trkpt lat="42.570427" lon="2.438664">
        <ele>916.083</ele>
        <time>2021-05-28T21:04:41Z</time>
      </trkpt>
      <trkpt lat="42.570415" lon="2.438634">
        <ele>915.025</ele>
        <time>2021-05-28T21:04:44Z</time>
      </trkpt>
      <trkpt lat="42.570402" lon="2.438608">
        <ele>914.317</ele>
        <time>2021-05-28T21:04:46Z</time>
      </trkpt>
      <trkpt lat="42.570397" lon="2.438580">
        <ele>913.208</ele>
        <time>2021-05-28T21:04:48Z</time>
      </trkpt>
      <trkpt lat="42.570387" lon="2.438555">
        <ele>912.495</ele>
        <time>2021-05-28T21:04:50Z</time>
      </trkpt>
      <trkpt lat="42.570373" lon="2.438532">
        <ele>911.812</ele>
        <time>2021-05-28T21:04:53Z</time>
      </trkpt>
      <trkpt lat="42.570363" lon="2.438508">
        <ele>911.153</ele>
        <time>2021-05-28T21:04:55Z</time>
      </trkpt>
      <trkpt lat="42.570353" lon="2.438486">
        <ele>910.412</ele>
        <time>2021-05-28T21:04:57Z</time>
      </trkpt>
      <trkpt lat="42.570335" lon="2.438467">
        <ele>910.149</ele>
        <time>2021-05-28T21:04:59Z</time>
      </trkpt>
      <trkpt lat="42.570325" lon="2.438442">
        <ele>909.324</ele>
        <time>2021-05-28T21:05:03Z</time>
      </trkpt>
      <trkpt lat="42.570311" lon="2.438423">
        <ele>908.921</ele>
        <time>2021-05-28T21:05:11Z</time>
      </trkpt>
      <trkpt lat="42.570294" lon="2.438406">
        <ele>908.729</ele>
        <time>2021-05-28T21:05:15Z</time>
      </trkpt>
      <trkpt lat="42.570283" lon="2.438377">
        <ele>907.796</ele>
        <time>2021-05-28T21:05:18Z</time>
      </trkpt>
      <trkpt lat="42.570269" lon="2.438356">
        <ele>907.331</ele>
        <time>2021-05-28T21:05:21Z</time>
      </trkpt>
      <trkpt lat="42.570264" lon="2.438333">
        <ele>906.524</ele>
        <time>2021-05-28T21:05:23Z</time>
      </trkpt>
      <trkpt lat="42.570259" lon="2.438306">
        <ele>905.808</ele>
        <time>2021-05-28T21:05:26Z</time>
      </trkpt>
      <trkpt lat="42.570255" lon="2.438279">
        <ele>905.026</ele>
        <time>2021-05-28T21:05:28Z</time>
      </trkpt>
      <trkpt lat="42.570257" lon="2.438251">
        <ele>904.073</ele>
        <time>2021-05-28T21:05:33Z</time>
      </trkpt>
      <trkpt lat="42.570257" lon="2.438223">
        <ele>903.054</ele>
        <time>2021-05-28T21:05:37Z</time>
      </trkpt>
      <trkpt lat="42.570255" lon="2.438190">
        <ele>902.073</ele>
        <time>2021-05-28T21:05:41Z</time>
      </trkpt>
      <trkpt lat="42.570245" lon="2.438165">
        <ele>901.690</ele>
        <time>2021-05-28T21:05:43Z</time>
      </trkpt>
      <trkpt lat="42.570238" lon="2.438137">
        <ele>901.035</ele>
        <time>2021-05-28T21:05:46Z</time>
      </trkpt>
      <trkpt lat="42.570227" lon="2.438097">
        <ele>900.382</ele>
        <time>2021-05-28T21:05:47Z</time>
      </trkpt>
      <trkpt lat="42.570231" lon="2.438066">
        <ele>899.010</ele>
        <time>2021-05-28T21:05:50Z</time>
      </trkpt>
      <trkpt lat="42.570241" lon="2.438044">
        <ele>897.955</ele>
        <time>2021-05-28T21:05:52Z</time>
      </trkpt>
      <trkpt lat="42.570243" lon="2.438013">
        <ele>897.107</ele>
        <time>2021-05-28T21:05:56Z</time>
      </trkpt>
      <trkpt lat="42.570247" lon="2.437989">
        <ele>896.417</ele>
        <time>2021-05-28T21:06:00Z</time>
      </trkpt>
      <trkpt lat="42.570245" lon="2.437961">
        <ele>895.908</ele>
        <time>2021-05-28T21:06:02Z</time>
      </trkpt>
      <trkpt lat="42.570229" lon="2.437945">
        <ele>896.572</ele>
        <time>2021-05-28T21:06:07Z</time>
      </trkpt>
      <trkpt lat="42.570241" lon="2.437967">
        <ele>896.299</ele>
        <time>2021-05-28T21:06:16Z</time>
      </trkpt>
      <trkpt lat="42.570260" lon="2.437984">
        <ele>895.560</ele>
        <time>2021-05-28T21:06:19Z</time>
      </trkpt>
      <trkpt lat="42.570277" lon="2.438007">
        <ele>895.049</ele>
        <time>2021-05-28T21:06:21Z</time>
      </trkpt>
      <trkpt lat="42.570300" lon="2.438017">
        <ele>894.196</ele>
        <time>2021-05-28T21:06:24Z</time>
      </trkpt>
      <trkpt lat="42.570320" lon="2.438032">
        <ele>893.511</ele>
        <time>2021-05-28T21:06:27Z</time>
      </trkpt>
      <trkpt lat="42.570340" lon="2.438040">
        <ele>892.758</ele>
        <time>2021-05-28T21:06:32Z</time>
      </trkpt>
      <trkpt lat="42.570360" lon="2.438030">
        <ele>891.576</ele>
        <time>2021-05-28T21:06:36Z</time>
      </trkpt>
      <trkpt lat="42.570379" lon="2.438048">
        <ele>891.175</ele>
        <time>2021-05-28T21:06:39Z</time>
      </trkpt>
      <trkpt lat="42.570398" lon="2.438059">
        <ele>890.528</ele>
        <time>2021-05-28T21:06:42Z</time>
      </trkpt>
      <trkpt lat="42.570419" lon="2.438061">
        <ele>889.620</ele>
        <time>2021-05-28T21:06:46Z</time>
      </trkpt>
      <trkpt lat="42.570444" lon="2.438054">
        <ele>888.208</ele>
        <time>2021-05-28T21:06:48Z</time>
      </trkpt>
      <trkpt lat="42.570465" lon="2.438064">
        <ele>887.614</ele>
        <time>2021-05-28T21:06:52Z</time>
      </trkpt>
      <trkpt lat="42.570483" lon="2.438079">
        <ele>887.651</ele>
        <time>2021-05-28T21:06:56Z</time>
      </trkpt>
      <trkpt lat="42.570500" lon="2.438089">
        <ele>887.372</ele>
        <time>2021-05-28T21:06:58Z</time>
      </trkpt>
      <trkpt lat="42.570521" lon="2.438077">
        <ele>885.721</ele>
        <time>2021-05-28T21:07:00Z</time>
      </trkpt>
      <trkpt lat="42.570539" lon="2.438057">
        <ele>883.968</ele>
        <time>2021-05-28T21:07:04Z</time>
      </trkpt>
      <trkpt lat="42.570558" lon="2.438057">
        <ele>883.053</ele>
        <time>2021-05-28T21:07:05Z</time>
      </trkpt>
      <trkpt lat="42.570579" lon="2.438067">
        <ele>883.160</ele>
        <time>2021-05-28T21:07:12Z</time>
      </trkpt>
      <trkpt lat="42.570599" lon="2.438060">
        <ele>882.368</ele>
        <time>2021-05-28T21:07:19Z</time>
      </trkpt>
      <trkpt lat="42.570616" lon="2.438043">
        <ele>881.282</ele>
        <time>2021-05-28T21:07:23Z</time>
      </trkpt>
      <trkpt lat="42.570618" lon="2.438013">
        <ele>880.043</ele>
        <time>2021-05-28T21:07:29Z</time>
      </trkpt>
      <trkpt lat="42.570637" lon="2.437998">
        <ele>879.017</ele>
        <time>2021-05-28T21:07:36Z</time>
      </trkpt>
      <trkpt lat="42.570641" lon="2.437973">
        <ele>878.008</ele>
        <time>2021-05-28T21:07:38Z</time>
      </trkpt>
      <trkpt lat="42.570629" lon="2.437948">
        <ele>877.385</ele>
        <time>2021-05-28T21:07:41Z</time>
      </trkpt>
      <trkpt lat="42.570622" lon="2.437917">
        <ele>876.372</ele>
        <time>2021-05-28T21:07:45Z</time>
      </trkpt>
      <trkpt lat="42.570608" lon="2.437877">
        <ele>875.213</ele>
        <time>2021-05-28T21:07:49Z</time>
      </trkpt>
      <trkpt lat="42.570597" lon="2.437853">
        <ele>874.622</ele>
        <time>2021-05-28T21:07:51Z</time>
      </trkpt>
      <trkpt lat="42.570595" lon="2.437821">
        <ele>873.549</ele>
        <time>2021-05-28T21:07:54Z</time>
      </trkpt>
      <trkpt lat="42.570588" lon="2.437788">
        <ele>872.464</ele>
        <time>2021-05-28T21:07:57Z</time>
      </trkpt>
      <trkpt lat="42.570597" lon="2.437758">
        <ele>871.391</ele>
        <time>2021-05-28T21:08:01Z</time>
      </trkpt>
      <trkpt lat="42.570608" lon="2.437725">
        <ele>870.289</ele>
        <time>2021-05-28T21:08:04Z</time>
      </trkpt>
      <trkpt lat="42.570612" lon="2.437701">
        <ele>869.478</ele>
        <time>2021-05-28T21:08:06Z</time>
      </trkpt>
      <trkpt lat="42.570609" lon="2.437664">
        <ele>868.633</ele>
        <time>2021-05-28T21:08:10Z</time>
      </trkpt>
      <trkpt lat="42.570606" lon="2.437633">
        <ele>867.926</ele>
        <time>2021-05-28T21:08:12Z</time>
      </trkpt>
      <trkpt lat="42.570612" lon="2.437598">
        <ele>866.808</ele>
        <time>2021-05-28T21:08:16Z</time>
      </trkpt>
      <trkpt lat="42.570609" lon="2.437568">
        <ele>866.234</ele>
        <time>2021-05-28T21:08:17Z</time>
      </trkpt>
      <trkpt lat="42.570592" lon="2.437543">
        <ele>866.311</ele>
        <time>2021-05-28T21:08:19Z</time>
      </trkpt>
      <trkpt lat="42.570605" lon="2.437564">
        <ele>866.362</ele>
        <time>2021-05-28T21:08:33Z</time>
      </trkpt>
      <trkpt lat="42.570616" lon="2.437592">
        <ele>866.561</ele>
        <time>2021-05-28T21:08:36Z</time>
      </trkpt>
      <trkpt lat="42.570634" lon="2.437603">
        <ele>866.128</ele>
        <time>2021-05-28T21:08:39Z</time>
      </trkpt>
      <trkpt lat="42.570660" lon="2.437594">
        <ele>864.833</ele>
        <time>2021-05-28T21:08:44Z</time>
      </trkpt>
      <trkpt lat="42.570683" lon="2.437575">
        <ele>863.360</ele>
        <time>2021-05-28T21:08:46Z</time>
      </trkpt>
      <trkpt lat="42.570695" lon="2.437596">
        <ele>863.428</ele>
        <time>2021-05-28T21:08:49Z</time>
      </trkpt>
      <trkpt lat="42.570711" lon="2.437612">
        <ele>863.351</ele>
        <time>2021-05-28T21:08:53Z</time>
      </trkpt>
      <trkpt lat="42.570735" lon="2.437616">
        <ele>862.501</ele>
        <time>2021-05-28T21:08:55Z</time>
      </trkpt>
      <trkpt lat="42.570754" lon="2.437618">
        <ele>861.811</ele>
        <time>2021-05-28T21:08:58Z</time>
      </trkpt>
      <trkpt lat="42.570771" lon="2.437627">
        <ele>861.408</ele>
        <time>2021-05-28T21:09:00Z</time>
      </trkpt>
      <trkpt lat="42.570794" lon="2.437630">
        <ele>860.722</ele>
        <time>2021-05-28T21:09:05Z</time>
      </trkpt>
      <trkpt lat="42.570818" lon="2.437629">
        <ele>859.779</ele>
        <time>2021-05-28T21:09:08Z</time>
      </trkpt>
      <trkpt lat="42.570838" lon="2.437625">
        <ele>858.960</ele>
        <time>2021-05-28T21:09:20Z</time>
      </trkpt>
      <trkpt lat="42.570860" lon="2.437615">
        <ele>858.269</ele>
        <time>2021-05-28T21:09:23Z</time>
      </trkpt>
      <trkpt lat="42.570877" lon="2.437601">
        <ele>857.476</ele>
        <time>2021-05-28T21:09:26Z</time>
      </trkpt>
      <trkpt lat="42.570895" lon="2.437584">
        <ele>856.591</ele>
        <time>2021-05-28T21:09:27Z</time>
      </trkpt>
      <trkpt lat="42.570916" lon="2.437570">
        <ele>855.788</ele>
        <time>2021-05-28T21:09:30Z</time>
      </trkpt>
      <trkpt lat="42.570934" lon="2.437568">
        <ele>855.366</ele>
        <time>2021-05-28T21:09:34Z</time>
      </trkpt>
      <trkpt lat="42.570957" lon="2.437559">
        <ele>854.671</ele>
        <time>2021-05-28T21:09:36Z</time>
      </trkpt>
      <trkpt lat="42.570979" lon="2.437542">
        <ele>853.641</ele>
        <time>2021-05-28T21:09:40Z</time>
      </trkpt>
      <trkpt lat="42.570996" lon="2.437537">
        <ele>853.215</ele>
        <time>2021-05-28T21:09:44Z</time>
      </trkpt>
      <trkpt lat="42.571017" lon="2.437546">
        <ele>853.308</ele>
        <time>2021-05-28T21:09:46Z</time>
      </trkpt>
      <trkpt lat="42.571043" lon="2.437552">
        <ele>853.244</ele>
        <time>2021-05-28T21:09:49Z</time>
      </trkpt>
      <trkpt lat="42.571060" lon="2.437535">
        <ele>852.211</ele>
        <time>2021-05-28T21:09:52Z</time>
      </trkpt>
      <trkpt lat="42.571083" lon="2.437515">
        <ele>851.042</ele>
        <time>2021-05-28T21:09:55Z</time>
      </trkpt>
      <trkpt lat="42.571094" lon="2.437491">
        <ele>849.971</ele>
        <time>2021-05-28T21:09:57Z</time>
      </trkpt>
      <trkpt lat="42.571086" lon="2.437457">
        <ele>848.598</ele>
        <time>2021-05-28T21:10:03Z</time>
      </trkpt>
      <trkpt lat="42.571068" lon="2.437440">
        <ele>848.183</ele>
        <time>2021-05-28T21:10:05Z</time>
      </trkpt>
      <trkpt lat="42.571054" lon="2.437406">
        <ele>847.050</ele>
        <time>2021-05-28T21:10:09Z</time>
      </trkpt>
      <trkpt lat="42.571067" lon="2.437385">
        <ele>845.998</ele>
        <time>2021-05-28T21:10:16Z</time>
      </trkpt>
      <trkpt lat="42.571069" lon="2.437357">
        <ele>844.723</ele>
        <time>2021-05-28T21:10:19Z</time>
      </trkpt>
      <trkpt lat="42.571071" lon="2.437328">
        <ele>843.483</ele>
        <time>2021-05-28T21:10:21Z</time>
      </trkpt>
      <trkpt lat="42.571090" lon="2.437341">
        <ele>843.611</ele>
        <time>2021-05-28T21:10:25Z</time>
      </trkpt>
      <trkpt lat="42.571114" lon="2.437344">
        <ele>843.208</ele>
        <time>2021-05-28T21:10:27Z</time>
      </trkpt>
      <trkpt lat="42.571138" lon="2.437347">
        <ele>843.169</ele>
        <time>2021-05-28T21:10:30Z</time>
      </trkpt>
      <trkpt lat="42.571169" lon="2.437359">
        <ele>843.326</ele>
        <time>2021-05-28T21:10:31Z</time>
      </trkpt>
      <trkpt lat="42.571189" lon="2.437362">
        <ele>843.217</ele>
        <time>2021-05-28T21:10:33Z</time>
      </trkpt>
      <trkpt lat="42.571210" lon="2.437338">
        <ele>841.946</ele>
        <time>2021-05-28T21:10:36Z</time>
      </trkpt>
      <trkpt lat="42.571234" lon="2.437334">
        <ele>841.523</ele>
        <time>2021-05-28T21:10:40Z</time>
      </trkpt>
      <trkpt lat="42.571253" lon="2.437341">
        <ele>841.688</ele>
        <time>2021-05-28T21:10:43Z</time>
      </trkpt>
      <trkpt lat="42.571271" lon="2.437332">
        <ele>841.095</ele>
        <time>2021-05-28T21:10:45Z</time>
      </trkpt>
      <trkpt lat="42.571287" lon="2.437319">
        <ele>840.313</ele>
        <time>2021-05-28T21:10:47Z</time>
      </trkpt>
      <trkpt lat="42.571308" lon="2.437319">
        <ele>840.198</ele>
        <time>2021-05-28T21:10:52Z</time>
      </trkpt>
      <trkpt lat="42.571328" lon="2.437317">
        <ele>839.815</ele>
        <time>2021-05-28T21:10:54Z</time>
      </trkpt>
      <trkpt lat="42.571348" lon="2.437316">
        <ele>839.526</ele>
        <time>2021-05-28T21:10:58Z</time>
      </trkpt>
      <trkpt lat="42.571365" lon="2.437307">
        <ele>838.908</ele>
        <time>2021-05-28T21:11:00Z</time>
      </trkpt>
      <trkpt lat="42.571381" lon="2.437293">
        <ele>838.116</ele>
        <time>2021-05-28T21:11:04Z</time>
      </trkpt>
      <trkpt lat="42.571403" lon="2.437282">
        <ele>837.173</ele>
        <time>2021-05-28T21:11:08Z</time>
      </trkpt>
      <trkpt lat="42.571419" lon="2.437269">
        <ele>836.174</ele>
        <time>2021-05-28T21:11:09Z</time>
      </trkpt>
      <trkpt lat="42.571443" lon="2.437265">
        <ele>835.223</ele>
        <time>2021-05-28T21:11:13Z</time>
      </trkpt>
      <trkpt lat="42.571466" lon="2.437254">
        <ele>834.060</ele>
        <time>2021-05-28T21:11:14Z</time>
      </trkpt>
      <trkpt lat="42.571483" lon="2.437233">
        <ele>832.745</ele>
        <time>2021-05-28T21:11:16Z</time>
      </trkpt>
      <trkpt lat="42.571502" lon="2.437233">
        <ele>832.132</ele>
        <time>2021-05-28T21:11:18Z</time>
      </trkpt>
      <trkpt lat="42.571520" lon="2.437216">
        <ele>831.090</ele>
        <time>2021-05-28T21:11:21Z</time>
      </trkpt>
      <trkpt lat="42.571533" lon="2.437188">
        <ele>829.642</ele>
        <time>2021-05-28T21:11:24Z</time>
      </trkpt>
      <trkpt lat="42.571526" lon="2.437155">
        <ele>828.622</ele>
        <time>2021-05-28T21:11:27Z</time>
      </trkpt>
      <trkpt lat="42.571517" lon="2.437123">
        <ele>827.714</ele>
        <time>2021-05-28T21:11:29Z</time>
      </trkpt>
      <trkpt lat="42.571502" lon="2.437108">
        <ele>827.508</ele>
        <time>2021-05-28T21:11:32Z</time>
      </trkpt>
      <trkpt lat="42.571482" lon="2.437090">
        <ele>827.211</ele>
        <time>2021-05-28T21:11:35Z</time>
      </trkpt>
      <trkpt lat="42.571472" lon="2.437064">
        <ele>826.518</ele>
        <time>2021-05-28T21:11:37Z</time>
      </trkpt>
      <trkpt lat="42.571456" lon="2.437041">
        <ele>825.929</ele>
        <time>2021-05-28T21:11:39Z</time>
      </trkpt>
      <trkpt lat="42.571438" lon="2.437034">
        <ele>825.998</ele>
        <time>2021-05-28T21:11:41Z</time>
      </trkpt>
      <trkpt lat="42.571459" lon="2.437027">
        <ele>825.345</ele>
        <time>2021-05-28T21:11:48Z</time>
      </trkpt>
      <trkpt lat="42.571482" lon="2.437025">
        <ele>824.860</ele>
        <time>2021-05-28T21:11:51Z</time>
      </trkpt>
      <trkpt lat="42.571504" lon="2.437019">
        <ele>824.187</ele>
        <time>2021-05-28T21:11:53Z</time>
      </trkpt>
      <trkpt lat="42.571530" lon="2.437013">
        <ele>823.435</ele>
        <time>2021-05-28T21:11:58Z</time>
      </trkpt>
      <trkpt lat="42.571551" lon="2.437003">
        <ele>822.767</ele>
        <time>2021-05-28T21:12:01Z</time>
      </trkpt>
      <trkpt lat="42.571575" lon="2.436993">
        <ele>821.981</ele>
        <time>2021-05-28T21:12:05Z</time>
      </trkpt>
      <trkpt lat="42.571577" lon="2.436963">
        <ele>820.919</ele>
        <time>2021-05-28T21:12:08Z</time>
      </trkpt>
      <trkpt lat="42.571562" lon="2.436945">
        <ele>820.508</ele>
        <time>2021-05-28T21:12:12Z</time>
      </trkpt>
      <trkpt lat="42.571559" lon="2.436915">
        <ele>819.693</ele>
        <time>2021-05-28T21:12:18Z</time>
      </trkpt>
      <trkpt lat="42.571541" lon="2.436894">
        <ele>819.170</ele>
        <time>2021-05-28T21:12:20Z</time>
      </trkpt>
      <trkpt lat="42.571524" lon="2.436880">
        <ele>818.831</ele>
        <time>2021-05-28T21:12:23Z</time>
      </trkpt>
      <trkpt lat="42.571514" lon="2.436858">
        <ele>818.290</ele>
        <time>2021-05-28T21:12:25Z</time>
      </trkpt>
      <trkpt lat="42.571503" lon="2.436827">
        <ele>817.317</ele>
        <time>2021-05-28T21:12:28Z</time>
      </trkpt>
      <trkpt lat="42.571487" lon="2.436802">
        <ele>816.612</ele>
        <time>2021-05-28T21:12:32Z</time>
      </trkpt>
      <trkpt lat="42.571478" lon="2.436771">
        <ele>815.759</ele>
        <time>2021-05-28T21:12:36Z</time>
      </trkpt>
      <trkpt lat="42.571491" lon="2.436750">
        <ele>814.897</ele>
        <time>2021-05-28T21:12:38Z</time>
      </trkpt>
      <trkpt lat="42.571513" lon="2.436756">
        <ele>814.758</ele>
        <time>2021-05-28T21:12:42Z</time>
      </trkpt>
      <trkpt lat="42.571537" lon="2.436754">
        <ele>814.452</ele>
        <time>2021-05-28T21:12:45Z</time>
      </trkpt>
      <trkpt lat="42.571561" lon="2.436752">
        <ele>814.017</ele>
        <time>2021-05-28T21:12:48Z</time>
      </trkpt>
      <trkpt lat="42.571584" lon="2.436740">
        <ele>813.308</ele>
        <time>2021-05-28T21:12:51Z</time>
      </trkpt>
      <trkpt lat="42.571603" lon="2.436727">
        <ele>812.712</ele>
        <time>2021-05-28T21:12:54Z</time>
      </trkpt>
      <trkpt lat="42.571618" lon="2.436744">
        <ele>813.189</ele>
        <time>2021-05-28T21:13:00Z</time>
      </trkpt>
      <trkpt lat="42.571640" lon="2.436755">
        <ele>813.240</ele>
        <time>2021-05-28T21:13:07Z</time>
      </trkpt>
      <trkpt lat="42.571658" lon="2.436757">
        <ele>813.069</ele>
        <time>2021-05-28T21:13:09Z</time>
      </trkpt>
      <trkpt lat="42.571676" lon="2.436765">
        <ele>812.756</ele>
        <time>2021-05-28T21:13:13Z</time>
      </trkpt>
      <trkpt lat="42.571698" lon="2.436777">
        <ele>812.171</ele>
        <time>2021-05-28T21:13:15Z</time>
      </trkpt>
      <trkpt lat="42.571718" lon="2.436779">
        <ele>811.258</ele>
        <time>2021-05-28T21:13:19Z</time>
      </trkpt>
      <trkpt lat="42.571712" lon="2.436754">
        <ele>810.766</ele>
        <time>2021-05-28T21:13:22Z</time>
      </trkpt>
      <trkpt lat="42.571717" lon="2.436726">
        <ele>809.699</ele>
        <time>2021-05-28T21:13:26Z</time>
      </trkpt>
      <trkpt lat="42.571732" lon="2.436697">
        <ele>807.907</ele>
        <time>2021-05-28T21:13:29Z</time>
      </trkpt>
      <trkpt lat="42.571738" lon="2.436668">
        <ele>806.727</ele>
        <time>2021-05-28T21:13:32Z</time>
      </trkpt>
      <trkpt lat="42.571757" lon="2.436684">
        <ele>806.308</ele>
        <time>2021-05-28T21:13:38Z</time>
      </trkpt>
      <trkpt lat="42.571775" lon="2.436702">
        <ele>806.186</ele>
        <time>2021-05-28T21:13:41Z</time>
      </trkpt>
      <trkpt lat="42.571793" lon="2.436721">
        <ele>805.853</ele>
        <time>2021-05-28T21:13:45Z</time>
      </trkpt>
      <trkpt lat="42.571813" lon="2.436746">
        <ele>805.724</ele>
        <time>2021-05-28T21:13:47Z</time>
      </trkpt>
      <trkpt lat="42.571831" lon="2.436760">
        <ele>805.323</ele>
        <time>2021-05-28T21:13:50Z</time>
      </trkpt>
      <trkpt lat="42.571847" lon="2.436778">
        <ele>805.240</ele>
        <time>2021-05-28T21:13:52Z</time>
      </trkpt>
      <trkpt lat="42.571860" lon="2.436753">
        <ele>803.785</ele>
        <time>2021-05-28T21:13:57Z</time>
      </trkpt>
      <trkpt lat="42.571854" lon="2.436723">
        <ele>803.192</ele>
        <time>2021-05-28T21:14:00Z</time>
      </trkpt>
      <trkpt lat="42.571849" lon="2.436699">
        <ele>802.530</ele>
        <time>2021-05-28T21:14:03Z</time>
      </trkpt>
      <trkpt lat="42.571868" lon="2.436691">
        <ele>801.487</ele>
        <time>2021-05-28T21:14:09Z</time>
      </trkpt>
      <trkpt lat="42.571884" lon="2.436704">
        <ele>801.042</ele>
        <time>2021-05-28T21:14:11Z</time>
      </trkpt>
      <trkpt lat="42.571904" lon="2.436709">
        <ele>800.326</ele>
        <time>2021-05-28T21:14:15Z</time>
      </trkpt>
      <trkpt lat="42.571926" lon="2.436720">
        <ele>799.608</ele>
        <time>2021-05-28T21:14:19Z</time>
      </trkpt>
      <trkpt lat="42.571953" lon="2.436733">
        <ele>798.675</ele>
        <time>2021-05-28T21:14:21Z</time>
      </trkpt>
      <trkpt lat="42.571969" lon="2.436748">
        <ele>798.022</ele>
        <time>2021-05-28T21:14:24Z</time>
      </trkpt>
      <trkpt lat="42.571987" lon="2.436761">
        <ele>797.373</ele>
        <time>2021-05-28T21:14:28Z</time>
      </trkpt>
      <trkpt lat="42.572008" lon="2.436773">
        <ele>796.342</ele>
        <time>2021-05-28T21:14:32Z</time>
      </trkpt>
      <trkpt lat="42.572021" lon="2.436792">
        <ele>796.179</ele>
        <time>2021-05-28T21:14:36Z</time>
      </trkpt>
      <trkpt lat="42.572037" lon="2.436805">
        <ele>795.524</ele>
        <time>2021-05-28T21:14:39Z</time>
      </trkpt>
      <trkpt lat="42.572058" lon="2.436800">
        <ele>794.081</ele>
        <time>2021-05-28T21:14:42Z</time>
      </trkpt>
      <trkpt lat="42.572071" lon="2.436774">
        <ele>792.329</ele>
        <time>2021-05-28T21:14:45Z</time>
      </trkpt>
      <trkpt lat="42.572062" lon="2.436749">
        <ele>792.024</ele>
        <time>2021-05-28T21:14:49Z</time>
      </trkpt>
      <trkpt lat="42.572063" lon="2.436724">
        <ele>791.204</ele>
        <time>2021-05-28T21:14:53Z</time>
      </trkpt>
      <trkpt lat="42.572062" lon="2.436691">
        <ele>790.214</ele>
        <time>2021-05-28T21:14:57Z</time>
      </trkpt>
      <trkpt lat="42.572045" lon="2.436674">
        <ele>790.708</ele>
        <time>2021-05-28T21:15:01Z</time>
      </trkpt>
      <trkpt lat="42.572032" lon="2.436648">
        <ele>790.679</ele>
        <time>2021-05-28T21:15:04Z</time>
      </trkpt>
      <trkpt lat="42.572029" lon="2.436623">
        <ele>789.996</ele>
        <time>2021-05-28T21:15:11Z</time>
      </trkpt>
      <trkpt lat="42.572024" lon="2.436597">
        <ele>789.227</ele>
        <time>2021-05-28T21:15:15Z</time>
      </trkpt>
      <trkpt lat="42.572026" lon="2.436571">
        <ele>788.186</ele>
        <time>2021-05-28T21:15:19Z</time>
      </trkpt>
      <trkpt lat="42.572021" lon="2.436545">
        <ele>787.573</ele>
        <time>2021-05-28T21:15:30Z</time>
      </trkpt>
      <trkpt lat="42.572020" lon="2.436512">
        <ele>786.368</ele>
        <time>2021-05-28T21:15:35Z</time>
      </trkpt>
      <trkpt lat="42.572014" lon="2.436488">
        <ele>785.745</ele>
        <time>2021-05-28T21:15:38Z</time>
      </trkpt>
      <trkpt lat="42.572005" lon="2.436459">
        <ele>785.293</ele>
        <time>2021-05-28T21:15:42Z</time>
      </trkpt>
      <trkpt lat="42.571992" lon="2.436435">
        <ele>785.029</ele>
        <time>2021-05-28T21:15:46Z</time>
      </trkpt>
      <trkpt lat="42.571983" lon="2.436406">
        <ele>784.400</ele>
        <time>2021-05-28T21:15:50Z</time>
      </trkpt>
      <trkpt lat="42.571977" lon="2.436378">
        <ele>783.820</ele>
        <time>2021-05-28T21:15:52Z</time>
      </trkpt>
      <trkpt lat="42.571973" lon="2.436350">
        <ele>783.108</ele>
        <time>2021-05-28T21:15:55Z</time>
      </trkpt>
      <trkpt lat="42.571971" lon="2.436319">
        <ele>782.339</ele>
        <time>2021-05-28T21:15:59Z</time>
      </trkpt>
      <trkpt lat="42.571962" lon="2.436292">
        <ele>781.966</ele>
        <time>2021-05-28T21:16:00Z</time>
      </trkpt>
      <trkpt lat="42.571956" lon="2.436268">
        <ele>781.577</ele>
        <time>2021-05-28T21:16:02Z</time>
      </trkpt>
      <trkpt lat="42.571965" lon="2.436244">
        <ele>780.216</ele>
        <time>2021-05-28T21:16:07Z</time>
      </trkpt>
      <trkpt lat="42.571959" lon="2.436210">
        <ele>779.553</ele>
        <time>2021-05-28T21:16:11Z</time>
      </trkpt>
      <trkpt lat="42.571978" lon="2.436204">
        <ele>778.398</ele>
        <time>2021-05-28T21:16:18Z</time>
      </trkpt>
      <trkpt lat="42.571995" lon="2.436220">
        <ele>777.975</ele>
        <time>2021-05-28T21:16:22Z</time>
      </trkpt>
      <trkpt lat="42.572013" lon="2.436235">
        <ele>777.573</ele>
        <time>2021-05-28T21:16:24Z</time>
      </trkpt>
      <trkpt lat="42.572031" lon="2.436247">
        <ele>776.955</ele>
        <time>2021-05-28T21:16:26Z</time>
      </trkpt>
      <trkpt lat="42.572049" lon="2.436264">
        <ele>776.407</ele>
        <time>2021-05-28T21:16:28Z</time>
      </trkpt>
      <trkpt lat="42.572069" lon="2.436281">
        <ele>775.917</ele>
        <time>2021-05-28T21:16:32Z</time>
      </trkpt>
      <trkpt lat="42.572081" lon="2.436300">
        <ele>775.708</ele>
        <time>2021-05-28T21:16:34Z</time>
      </trkpt>
      <trkpt lat="42.572095" lon="2.436317">
        <ele>775.472</ele>
        <time>2021-05-28T21:16:38Z</time>
      </trkpt>
      <trkpt lat="42.572106" lon="2.436339">
        <ele>775.429</ele>
        <time>2021-05-28T21:16:44Z</time>
      </trkpt>
      <trkpt lat="42.572127" lon="2.436327">
        <ele>773.930</ele>
        <time>2021-05-28T21:16:46Z</time>
      </trkpt>
      <trkpt lat="42.572142" lon="2.436308">
        <ele>772.659</ele>
        <time>2021-05-28T21:16:48Z</time>
      </trkpt>
      <trkpt lat="42.572146" lon="2.436281">
        <ele>771.786</ele>
        <time>2021-05-28T21:16:51Z</time>
      </trkpt>
      <trkpt lat="42.572149" lon="2.436247">
        <ele>770.751</ele>
        <time>2021-05-28T21:16:55Z</time>
      </trkpt>
      <trkpt lat="42.572148" lon="2.436217">
        <ele>770.178</ele>
        <time>2021-05-28T21:16:57Z</time>
      </trkpt>
      <trkpt lat="42.572146" lon="2.436184">
        <ele>769.496</ele>
        <time>2021-05-28T21:16:59Z</time>
      </trkpt>
      <trkpt lat="42.572149" lon="2.436157">
        <ele>768.575</ele>
        <time>2021-05-28T21:17:02Z</time>
      </trkpt>
      <trkpt lat="42.572149" lon="2.436131">
        <ele>767.928</ele>
        <time>2021-05-28T21:17:06Z</time>
      </trkpt>
      <trkpt lat="42.572168" lon="2.436128">
        <ele>766.920</ele>
        <time>2021-05-28T21:17:12Z</time>
      </trkpt>
      <trkpt lat="42.572177" lon="2.436150">
        <ele>767.008</ele>
        <time>2021-05-28T21:17:14Z</time>
      </trkpt>
      <trkpt lat="42.572190" lon="2.436171">
        <ele>766.924</ele>
        <time>2021-05-28T21:17:18Z</time>
      </trkpt>
      <trkpt lat="42.572199" lon="2.436192">
        <ele>766.931</ele>
        <time>2021-05-28T21:17:20Z</time>
      </trkpt>
      <trkpt lat="42.572213" lon="2.436211">
        <ele>766.622</ele>
        <time>2021-05-28T21:17:24Z</time>
      </trkpt>
      <trkpt lat="42.572230" lon="2.436236">
        <ele>766.371</ele>
        <time>2021-05-28T21:17:26Z</time>
      </trkpt>
      <trkpt lat="42.572243" lon="2.436255">
        <ele>766.058</ele>
        <time>2021-05-28T21:17:29Z</time>
      </trkpt>
      <trkpt lat="42.572258" lon="2.436284">
        <ele>765.873</ele>
        <time>2021-05-28T21:17:31Z</time>
      </trkpt>
      <trkpt lat="42.572273" lon="2.436303">
        <ele>765.320</ele>
        <time>2021-05-28T21:17:32Z</time>
      </trkpt>
      <trkpt lat="42.572285" lon="2.436326">
        <ele>765.238</ele>
        <time>2021-05-28T21:17:35Z</time>
      </trkpt>
      <trkpt lat="42.572305" lon="2.436345">
        <ele>764.579</ele>
        <time>2021-05-28T21:17:38Z</time>
      </trkpt>
      <trkpt lat="42.572319" lon="2.436363">
        <ele>764.205</ele>
        <time>2021-05-28T21:17:42Z</time>
      </trkpt>
      <trkpt lat="42.572339" lon="2.436378">
        <ele>763.425</ele>
        <time>2021-05-28T21:17:45Z</time>
      </trkpt>
      <trkpt lat="42.572353" lon="2.436399">
        <ele>763.208</ele>
        <time>2021-05-28T21:17:48Z</time>
      </trkpt>
      <trkpt lat="42.572371" lon="2.436414">
        <ele>762.774</ele>
        <time>2021-05-28T21:17:50Z</time>
      </trkpt>
      <trkpt lat="42.572393" lon="2.436433">
        <ele>762.121</ele>
        <time>2021-05-28T21:17:51Z</time>
      </trkpt>
      <trkpt lat="42.572417" lon="2.436454">
        <ele>761.462</ele>
        <time>2021-05-28T21:17:54Z</time>
      </trkpt>
      <trkpt lat="42.572433" lon="2.436468">
        <ele>761.011</ele>
        <time>2021-05-28T21:17:56Z</time>
      </trkpt>
      <trkpt lat="42.572451" lon="2.436492">
        <ele>760.778</ele>
        <time>2021-05-28T21:17:59Z</time>
      </trkpt>
      <trkpt lat="42.572470" lon="2.436515">
        <ele>760.333</ele>
        <time>2021-05-28T21:18:02Z</time>
      </trkpt>
      <trkpt lat="42.572481" lon="2.436535">
        <ele>760.330</ele>
        <time>2021-05-28T21:18:04Z</time>
      </trkpt>
      <trkpt lat="42.572497" lon="2.436556">
        <ele>760.098</ele>
        <time>2021-05-28T21:18:07Z</time>
      </trkpt>
      <trkpt lat="42.572516" lon="2.436576">
        <ele>759.566</ele>
        <time>2021-05-28T21:18:10Z</time>
      </trkpt>
      <trkpt lat="42.572530" lon="2.436600">
        <ele>759.429</ele>
        <time>2021-05-28T21:18:13Z</time>
      </trkpt>
      <trkpt lat="42.572548" lon="2.436623">
        <ele>759.021</ele>
        <time>2021-05-28T21:18:17Z</time>
      </trkpt>
      <trkpt lat="42.572560" lon="2.436646">
        <ele>759.008</ele>
        <time>2021-05-28T21:18:19Z</time>
      </trkpt>
      <trkpt lat="42.572575" lon="2.436668">
        <ele>758.763</ele>
        <time>2021-05-28T21:18:23Z</time>
      </trkpt>
      <trkpt lat="42.572591" lon="2.436694">
        <ele>758.210</ele>
        <time>2021-05-28T21:18:26Z</time>
      </trkpt>
      <trkpt lat="42.572606" lon="2.436710">
        <ele>757.611</ele>
        <time>2021-05-28T21:18:28Z</time>
      </trkpt>
      <trkpt lat="42.572630" lon="2.436716">
        <ele>756.370</ele>
        <time>2021-05-28T21:18:30Z</time>
      </trkpt>
      <trkpt lat="42.572652" lon="2.436719">
        <ele>755.167</ele>
        <time>2021-05-28T21:18:32Z</time>
      </trkpt>
      <trkpt lat="42.572669" lon="2.436742">
        <ele>754.562</ele>
        <time>2021-05-28T21:18:35Z</time>
      </trkpt>
      <trkpt lat="42.572690" lon="2.436746">
        <ele>753.389</ele>
        <time>2021-05-28T21:18:39Z</time>
      </trkpt>
      <trkpt lat="42.572706" lon="2.436763">
        <ele>752.627</ele>
        <time>2021-05-28T21:18:45Z</time>
      </trkpt>
      <trkpt lat="42.572724" lon="2.436776">
        <ele>751.757</ele>
        <time>2021-05-28T21:18:50Z</time>
      </trkpt>
      <trkpt lat="42.572734" lon="2.436797">
        <ele>751.500</ele>
        <time>2021-05-28T21:18:53Z</time>
      </trkpt>
      <trkpt lat="42.572757" lon="2.436809">
        <ele>750.320</ele>
        <time>2021-05-28T21:18:57Z</time>
      </trkpt>
      <trkpt lat="42.572777" lon="2.436818">
        <ele>749.208</ele>
        <time>2021-05-28T21:19:02Z</time>
      </trkpt>
      <trkpt lat="42.572795" lon="2.436804">
        <ele>748.162</ele>
        <time>2021-05-28T21:19:05Z</time>
      </trkpt>
      <trkpt lat="42.572807" lon="2.436775">
        <ele>747.189</ele>
        <time>2021-05-28T21:19:09Z</time>
      </trkpt>
      <trkpt lat="42.572817" lon="2.436743">
        <ele>746.170</ele>
        <time>2021-05-28T21:19:11Z</time>
      </trkpt>
      <trkpt lat="42.572820" lon="2.436717">
        <ele>745.549</ele>
        <time>2021-05-28T21:19:15Z</time>
      </trkpt>
      <trkpt lat="42.572823" lon="2.436684">
        <ele>744.856</ele>
        <time>2021-05-28T21:19:20Z</time>
      </trkpt>
      <trkpt lat="42.572829" lon="2.436657">
        <ele>744.051</ele>
        <time>2021-05-28T21:19:23Z</time>
      </trkpt>
      <trkpt lat="42.572828" lon="2.436629">
        <ele>743.568</ele>
        <time>2021-05-28T21:19:25Z</time>
      </trkpt>
      <trkpt lat="42.572828" lon="2.436598">
        <ele>742.866</ele>
        <time>2021-05-28T21:19:29Z</time>
      </trkpt>
      <trkpt lat="42.572826" lon="2.436571">
        <ele>742.427</ele>
        <time>2021-05-28T21:19:34Z</time>
      </trkpt>
      <trkpt lat="42.572841" lon="2.436557">
        <ele>741.368</ele>
        <time>2021-05-28T21:19:41Z</time>
      </trkpt>
      <trkpt lat="42.572863" lon="2.436570">
        <ele>740.414</ele>
        <time>2021-05-28T21:19:43Z</time>
      </trkpt>
      <trkpt lat="42.572880" lon="2.436582">
        <ele>739.808</ele>
        <time>2021-05-28T21:19:45Z</time>
      </trkpt>
      <trkpt lat="42.572896" lon="2.436564">
        <ele>738.659</ele>
        <time>2021-05-28T21:19:48Z</time>
      </trkpt>
      <trkpt lat="42.572904" lon="2.436533">
        <ele>737.536</ele>
        <time>2021-05-28T21:19:52Z</time>
      </trkpt>
      <trkpt lat="42.572897" lon="2.436507">
        <ele>737.497</ele>
        <time>2021-05-28T21:19:54Z</time>
      </trkpt>
      <trkpt lat="42.572886" lon="2.436483">
        <ele>737.466</ele>
        <time>2021-05-28T21:19:57Z</time>
      </trkpt>
      <trkpt lat="42.572889" lon="2.436450">
        <ele>736.623</ele>
        <time>2021-05-28T21:20:00Z</time>
      </trkpt>
      <trkpt lat="42.572890" lon="2.436417">
        <ele>735.958</ele>
        <time>2021-05-28T21:20:04Z</time>
      </trkpt>
      <trkpt lat="42.572882" lon="2.436384">
        <ele>735.665</ele>
        <time>2021-05-28T21:20:06Z</time>
      </trkpt>
      <trkpt lat="42.572870" lon="2.436355">
        <ele>735.573</ele>
        <time>2021-05-28T21:20:09Z</time>
      </trkpt>
      <trkpt lat="42.572862" lon="2.436323">
        <ele>735.264</ele>
        <time>2021-05-28T21:20:12Z</time>
      </trkpt>
      <trkpt lat="42.572852" lon="2.436300">
        <ele>735.106</ele>
        <time>2021-05-28T21:20:16Z</time>
      </trkpt>
      <trkpt lat="42.572852" lon="2.436270">
        <ele>734.416</ele>
        <time>2021-05-28T21:20:21Z</time>
      </trkpt>
      <trkpt lat="42.572842" lon="2.436249">
        <ele>734.408</ele>
        <time>2021-05-28T21:20:22Z</time>
      </trkpt>
      <trkpt lat="42.572834" lon="2.436219">
        <ele>734.063</ele>
        <time>2021-05-28T21:20:25Z</time>
      </trkpt>
      <trkpt lat="42.572826" lon="2.436193">
        <ele>733.840</ele>
        <time>2021-05-28T21:20:28Z</time>
      </trkpt>
      <trkpt lat="42.572816" lon="2.436164">
        <ele>733.581</ele>
        <time>2021-05-28T21:20:29Z</time>
      </trkpt>
      <trkpt lat="42.572816" lon="2.436134">
        <ele>732.880</ele>
        <time>2021-05-28T21:20:32Z</time>
      </trkpt>
      <trkpt lat="42.572812" lon="2.436107">
        <ele>732.377</ele>
        <time>2021-05-28T21:20:34Z</time>
      </trkpt>
      <trkpt lat="42.572803" lon="2.436074">
        <ele>731.852</ele>
        <time>2021-05-28T21:20:36Z</time>
      </trkpt>
      <trkpt lat="42.572801" lon="2.436045">
        <ele>731.099</ele>
        <time>2021-05-28T21:20:37Z</time>
      </trkpt>
      <trkpt lat="42.572791" lon="2.436019">
        <ele>730.767</ele>
        <time>2021-05-28T21:20:39Z</time>
      </trkpt>
      <trkpt lat="42.572790" lon="2.435991">
        <ele>730.062</ele>
        <time>2021-05-28T21:20:41Z</time>
      </trkpt>
      <trkpt lat="42.572780" lon="2.435954">
        <ele>729.483</ele>
        <time>2021-05-28T21:20:43Z</time>
      </trkpt>
      <trkpt lat="42.572769" lon="2.435922">
        <ele>729.011</ele>
        <time>2021-05-28T21:20:47Z</time>
      </trkpt>
      <trkpt lat="42.572764" lon="2.435897">
        <ele>728.508</ele>
        <time>2021-05-28T21:20:48Z</time>
      </trkpt>
      <trkpt lat="42.572760" lon="2.435870">
        <ele>728.053</ele>
        <time>2021-05-28T21:20:51Z</time>
      </trkpt>
      <trkpt lat="42.572745" lon="2.435834">
        <ele>727.720</ele>
        <time>2021-05-28T21:20:54Z</time>
      </trkpt>
      <trkpt lat="42.572739" lon="2.435809">
        <ele>727.241</ele>
        <time>2021-05-28T21:20:58Z</time>
      </trkpt>
      <trkpt lat="42.572739" lon="2.435782">
        <ele>726.350</ele>
        <time>2021-05-28T21:21:00Z</time>
      </trkpt>
      <trkpt lat="42.572734" lon="2.435757">
        <ele>725.897</ele>
        <time>2021-05-28T21:21:02Z</time>
      </trkpt>
      <trkpt lat="42.572723" lon="2.435718">
        <ele>725.142</ele>
        <time>2021-05-28T21:21:04Z</time>
      </trkpt>
      <trkpt lat="42.572722" lon="2.435682">
        <ele>724.019</ele>
        <time>2021-05-28T21:21:06Z</time>
      </trkpt>
      <trkpt lat="42.572721" lon="2.435657">
        <ele>723.317</ele>
        <time>2021-05-28T21:21:08Z</time>
      </trkpt>
      <trkpt lat="42.572716" lon="2.435616">
        <ele>722.256</ele>
        <time>2021-05-28T21:21:11Z</time>
      </trkpt>
      <trkpt lat="42.572705" lon="2.435587">
        <ele>721.959</ele>
        <time>2021-05-28T21:21:13Z</time>
      </trkpt>
      <trkpt lat="42.572684" lon="2.435565">
        <ele>722.414</ele>
        <time>2021-05-28T21:21:15Z</time>
      </trkpt>
      <trkpt lat="42.572668" lon="2.435550">
        <ele>722.808</ele>
        <time>2021-05-28T21:21:17Z</time>
      </trkpt>
      <trkpt lat="42.572658" lon="2.435523">
        <ele>722.482</ele>
        <time>2021-05-28T21:21:22Z</time>
      </trkpt>
      <trkpt lat="42.572654" lon="2.435486">
        <ele>721.589</ele>
        <time>2021-05-28T21:21:24Z</time>
      </trkpt>
      <trkpt lat="42.572648" lon="2.435458">
        <ele>720.990</ele>
        <time>2021-05-28T21:21:27Z</time>
      </trkpt>
      <trkpt lat="42.572637" lon="2.435435">
        <ele>720.799</ele>
        <time>2021-05-28T21:21:28Z</time>
      </trkpt>
      <trkpt lat="42.572625" lon="2.435415">
        <ele>720.626</ele>
        <time>2021-05-28T21:21:30Z</time>
      </trkpt>
      <trkpt lat="42.572607" lon="2.435404">
        <ele>721.261</ele>
        <time>2021-05-28T21:21:33Z</time>
      </trkpt>
      <trkpt lat="42.572605" lon="2.435378">
        <ele>720.468</ele>
        <time>2021-05-28T21:21:37Z</time>
      </trkpt>
      <trkpt lat="42.572598" lon="2.435347">
        <ele>719.736</ele>
        <time>2021-05-28T21:21:41Z</time>
      </trkpt>
      <trkpt lat="42.572594" lon="2.435315">
        <ele>718.953</ele>
        <time>2021-05-28T21:21:45Z</time>
      </trkpt>
      <trkpt lat="42.572591" lon="2.435288">
        <ele>718.104</ele>
        <time>2021-05-28T21:21:47Z</time>
      </trkpt>
      <trkpt lat="42.572577" lon="2.435262">
        <ele>717.614</ele>
        <time>2021-05-28T21:21:50Z</time>
      </trkpt>
      <trkpt lat="42.572565" lon="2.435242">
        <ele>717.108</ele>
        <time>2021-05-28T21:21:53Z</time>
      </trkpt>
      <trkpt lat="42.572552" lon="2.435215">
        <ele>716.382</ele>
        <time>2021-05-28T21:21:57Z</time>
      </trkpt>
      <trkpt lat="42.572535" lon="2.435204">
        <ele>716.559</ele>
        <time>2021-05-28T21:21:59Z</time>
      </trkpt>
      <trkpt lat="42.572516" lon="2.435194">
        <ele>716.810</ele>
        <time>2021-05-28T21:22:01Z</time>
      </trkpt>
      <trkpt lat="42.572497" lon="2.435178">
        <ele>716.769</ele>
        <time>2021-05-28T21:22:03Z</time>
      </trkpt>
      <trkpt lat="42.572480" lon="2.435155">
        <ele>715.926</ele>
        <time>2021-05-28T21:22:09Z</time>
      </trkpt>
      <trkpt lat="42.572468" lon="2.435135">
        <ele>715.211</ele>
        <time>2021-05-28T21:22:13Z</time>
      </trkpt>
      <trkpt lat="42.572451" lon="2.435114">
        <ele>714.688</ele>
        <time>2021-05-28T21:22:17Z</time>
      </trkpt>
      <trkpt lat="42.572430" lon="2.435107">
        <ele>714.986</ele>
        <time>2021-05-28T21:22:19Z</time>
      </trkpt>
      <trkpt lat="42.572406" lon="2.435097">
        <ele>715.049</ele>
        <time>2021-05-28T21:22:22Z</time>
      </trkpt>
      <trkpt lat="42.572391" lon="2.435085">
        <ele>714.902</ele>
        <time>2021-05-28T21:22:23Z</time>
      </trkpt>
      <trkpt lat="42.572371" lon="2.435073">
        <ele>714.922</ele>
        <time>2021-05-28T21:22:26Z</time>
      </trkpt>
      <trkpt lat="42.572356" lon="2.435057">
        <ele>714.508</ele>
        <time>2021-05-28T21:22:29Z</time>
      </trkpt>
      <trkpt lat="42.572338" lon="2.435043">
        <ele>714.421</ele>
        <time>2021-05-28T21:22:32Z</time>
      </trkpt>
      <trkpt lat="42.572322" lon="2.435027">
        <ele>714.158</ele>
        <time>2021-05-28T21:22:35Z</time>
      </trkpt>
      <trkpt lat="42.572302" lon="2.435022">
        <ele>714.519</ele>
        <time>2021-05-28T21:22:42Z</time>
      </trkpt>
      <trkpt lat="42.572285" lon="2.435007">
        <ele>714.398</ele>
        <time>2021-05-28T21:22:45Z</time>
      </trkpt>
      <trkpt lat="42.572268" lon="2.434991">
        <ele>714.435</ele>
        <time>2021-05-28T21:22:49Z</time>
      </trkpt>
      <trkpt lat="42.572281" lon="2.434965">
        <ele>713.550</ele>
        <time>2021-05-28T21:22:57Z</time>
      </trkpt>
      <trkpt lat="42.572291" lon="2.434940">
        <ele>712.717</ele>
        <time>2021-05-28T21:23:00Z</time>
      </trkpt>
      <trkpt lat="42.572306" lon="2.434916">
        <ele>711.665</ele>
        <time>2021-05-28T21:23:05Z</time>
      </trkpt>
      <trkpt lat="42.572329" lon="2.434882">
        <ele>710.091</ele>
        <time>2021-05-28T21:23:09Z</time>
      </trkpt>
      <trkpt lat="42.572336" lon="2.434856">
        <ele>709.181</ele>
        <time>2021-05-28T21:23:14Z</time>
      </trkpt>
      <trkpt lat="42.572347" lon="2.434829">
        <ele>707.919</ele>
        <time>2021-05-28T21:23:16Z</time>
      </trkpt>
      <trkpt lat="42.572359" lon="2.434806">
        <ele>706.708</ele>
        <time>2021-05-28T21:23:19Z</time>
      </trkpt>
      <trkpt lat="42.572375" lon="2.434786">
        <ele>705.346</ele>
        <time>2021-05-28T21:23:22Z</time>
      </trkpt>
      <trkpt lat="42.572380" lon="2.434762">
        <ele>704.423</ele>
        <time>2021-05-28T21:23:26Z</time>
      </trkpt>
      <trkpt lat="42.572392" lon="2.434742">
        <ele>703.254</ele>
        <time>2021-05-28T21:23:30Z</time>
      </trkpt>
      <trkpt lat="42.572398" lon="2.434712">
        <ele>702.263</ele>
        <time>2021-05-28T21:23:35Z</time>
      </trkpt>
      <trkpt lat="42.572399" lon="2.434687">
        <ele>702.050</ele>
        <time>2021-05-28T21:23:37Z</time>
      </trkpt>
      <trkpt lat="42.572414" lon="2.434664">
        <ele>700.965</ele>
        <time>2021-05-28T21:23:43Z</time>
      </trkpt>
      <trkpt lat="42.572426" lon="2.434639">
        <ele>700.112</ele>
        <time>2021-05-28T21:23:45Z</time>
      </trkpt>
      <trkpt lat="42.572426" lon="2.434606">
        <ele>699.950</ele>
        <time>2021-05-28T21:23:50Z</time>
      </trkpt>
      <trkpt lat="42.572425" lon="2.434573">
        <ele>699.815</ele>
        <time>2021-05-28T21:23:52Z</time>
      </trkpt>
      <trkpt lat="42.572427" lon="2.434541">
        <ele>699.565</ele>
        <time>2021-05-28T21:23:56Z</time>
      </trkpt>
      <trkpt lat="42.572446" lon="2.434550">
        <ele>698.411</ele>
        <time>2021-05-28T21:24:02Z</time>
      </trkpt>
      <trkpt lat="42.572447" lon="2.434575">
        <ele>698.508</ele>
        <time>2021-05-28T21:24:05Z</time>
      </trkpt>
      <trkpt lat="42.572447" lon="2.434606">
        <ele>698.758</ele>
        <time>2021-05-28T21:24:08Z</time>
      </trkpt>
      <trkpt lat="42.572453" lon="2.434633">
        <ele>698.465</ele>
        <time>2021-05-28T21:24:12Z</time>
      </trkpt>
      <trkpt lat="42.572469" lon="2.434654">
        <ele>697.616</ele>
        <time>2021-05-28T21:24:16Z</time>
      </trkpt>
      <trkpt lat="42.572478" lon="2.434633">
        <ele>697.085</ele>
        <time>2021-05-28T21:24:18Z</time>
      </trkpt>
      <trkpt lat="42.572494" lon="2.434610">
        <ele>695.982</ele>
        <time>2021-05-28T21:24:22Z</time>
      </trkpt>
      <trkpt lat="42.572507" lon="2.434590">
        <ele>695.257</ele>
        <time>2021-05-28T21:24:24Z</time>
      </trkpt>
      <trkpt lat="42.572511" lon="2.434564">
        <ele>694.924</ele>
        <time>2021-05-28T21:24:27Z</time>
      </trkpt>
      <trkpt lat="42.572516" lon="2.434527">
        <ele>694.572</ele>
        <time>2021-05-28T21:24:29Z</time>
      </trkpt>
      <trkpt lat="42.572516" lon="2.434497">
        <ele>694.334</ele>
        <time>2021-05-28T21:24:33Z</time>
      </trkpt>
      <trkpt lat="42.572514" lon="2.434469">
        <ele>694.355</ele>
        <time>2021-05-28T21:24:35Z</time>
      </trkpt>
      <trkpt lat="42.572512" lon="2.434434">
        <ele>694.110</ele>
        <time>2021-05-28T21:24:39Z</time>
      </trkpt>
      <trkpt lat="42.572506" lon="2.434402">
        <ele>693.908</ele>
        <time>2021-05-28T21:24:41Z</time>
      </trkpt>
      <trkpt lat="42.572492" lon="2.434366">
        <ele>694.040</ele>
        <time>2021-05-28T21:24:42Z</time>
      </trkpt>
      <trkpt lat="42.572469" lon="2.434342">
        <ele>694.797</ele>
        <time>2021-05-28T21:24:45Z</time>
      </trkpt>
      <trkpt lat="42.572447" lon="2.434314">
        <ele>695.288</ele>
        <time>2021-05-28T21:24:46Z</time>
      </trkpt>
      <trkpt lat="42.572428" lon="2.434284">
        <ele>695.657</ele>
        <time>2021-05-28T21:24:48Z</time>
      </trkpt>
      <trkpt lat="42.572416" lon="2.434257">
        <ele>695.554</ele>
        <time>2021-05-28T21:24:50Z</time>
      </trkpt>
      <trkpt lat="42.572399" lon="2.434223">
        <ele>695.699</ele>
        <time>2021-05-28T21:24:52Z</time>
      </trkpt>
      <trkpt lat="42.572378" lon="2.434192">
        <ele>695.866</ele>
        <time>2021-05-28T21:24:54Z</time>
      </trkpt>
      <trkpt lat="42.572372" lon="2.434164">
        <ele>695.544</ele>
        <time>2021-05-28T21:24:56Z</time>
      </trkpt>
      <trkpt lat="42.572362" lon="2.434142">
        <ele>695.373</ele>
        <time>2021-05-28T21:24:59Z</time>
      </trkpt>
      <trkpt lat="42.572349" lon="2.434116">
        <ele>695.285</ele>
        <time>2021-05-28T21:25:00Z</time>
      </trkpt>
      <trkpt lat="42.572330" lon="2.434089">
        <ele>695.313</ele>
        <time>2021-05-28T21:25:02Z</time>
      </trkpt>
      <trkpt lat="42.572310" lon="2.434063">
        <ele>695.508</ele>
        <time>2021-05-28T21:25:04Z</time>
      </trkpt>
      <trkpt lat="42.572295" lon="2.434046">
        <ele>695.724</ele>
        <time>2021-05-28T21:25:06Z</time>
      </trkpt>
      <trkpt lat="42.572280" lon="2.434020">
        <ele>695.791</ele>
        <time>2021-05-28T21:25:08Z</time>
      </trkpt>
      <trkpt lat="42.572263" lon="2.433983">
        <ele>695.582</ele>
        <time>2021-05-28T21:25:10Z</time>
      </trkpt>
      <trkpt lat="42.572241" lon="2.433948">
        <ele>695.641</ele>
        <time>2021-05-28T21:25:12Z</time>
      </trkpt>
      <trkpt lat="42.572222" lon="2.433920">
        <ele>695.858</ele>
        <time>2021-05-28T21:25:14Z</time>
      </trkpt>
      <trkpt lat="42.572209" lon="2.433894">
        <ele>695.893</ele>
        <time>2021-05-28T21:25:16Z</time>
      </trkpt>
      <trkpt lat="42.572191" lon="2.433866">
        <ele>695.840</ele>
        <time>2021-05-28T21:25:18Z</time>
      </trkpt>
      <trkpt lat="42.572175" lon="2.433842">
        <ele>695.848</ele>
        <time>2021-05-28T21:25:20Z</time>
      </trkpt>
      <trkpt lat="42.572156" lon="2.433807">
        <ele>695.768</ele>
        <time>2021-05-28T21:25:22Z</time>
      </trkpt>
      <trkpt lat="42.572139" lon="2.433777">
        <ele>695.642</ele>
        <time>2021-05-28T21:25:24Z</time>
      </trkpt>
      <trkpt lat="42.572128" lon="2.433748">
        <ele>695.226</ele>
        <time>2021-05-28T21:25:26Z</time>
      </trkpt>
      <trkpt lat="42.572119" lon="2.433712">
        <ele>694.508</ele>
        <time>2021-05-28T21:25:28Z</time>
      </trkpt>
      <trkpt lat="42.572101" lon="2.433676">
        <ele>694.243</ele>
        <time>2021-05-28T21:25:30Z</time>
      </trkpt>
      <trkpt lat="42.572085" lon="2.433654">
        <ele>694.250</ele>
        <time>2021-05-28T21:25:32Z</time>
      </trkpt>
      <trkpt lat="42.572069" lon="2.433631">
        <ele>694.241</ele>
        <time>2021-05-28T21:25:34Z</time>
      </trkpt>
      <trkpt lat="42.572057" lon="2.433606">
        <ele>694.040</ele>
        <time>2021-05-28T21:25:36Z</time>
      </trkpt>
      <trkpt lat="42.572040" lon="2.433576">
        <ele>693.817</ele>
        <time>2021-05-28T21:25:40Z</time>
      </trkpt>
      <trkpt lat="42.572032" lon="2.433546">
        <ele>693.392</ele>
        <time>2021-05-28T21:25:41Z</time>
      </trkpt>
      <trkpt lat="42.572012" lon="2.433507">
        <ele>693.089</ele>
        <time>2021-05-28T21:25:45Z</time>
      </trkpt>
      <trkpt lat="42.572008" lon="2.433481">
        <ele>692.497</ele>
        <time>2021-05-28T21:25:48Z</time>
      </trkpt>
      <trkpt lat="42.572015" lon="2.433446">
        <ele>691.048</ele>
        <time>2021-05-28T21:25:51Z</time>
      </trkpt>
      <trkpt lat="42.572017" lon="2.433416">
        <ele>690.161</ele>
        <time>2021-05-28T21:25:53Z</time>
      </trkpt>
      <trkpt lat="42.572016" lon="2.433385">
        <ele>689.217</ele>
        <time>2021-05-28T21:25:54Z</time>
      </trkpt>
      <trkpt lat="42.572013" lon="2.433358">
        <ele>688.508</ele>
        <time>2021-05-28T21:25:56Z</time>
      </trkpt>
      <trkpt lat="42.572008" lon="2.433333">
        <ele>688.011</ele>
        <time>2021-05-28T21:25:58Z</time>
      </trkpt>
      <trkpt lat="42.571996" lon="2.433310">
        <ele>687.948</ele>
        <time>2021-05-28T21:26:00Z</time>
      </trkpt>
      <trkpt lat="42.571985" lon="2.433288">
        <ele>687.889</ele>
        <time>2021-05-28T21:26:02Z</time>
      </trkpt>
      <trkpt lat="42.571971" lon="2.433265">
        <ele>687.848</ele>
        <time>2021-05-28T21:26:04Z</time>
      </trkpt>
      <trkpt lat="42.571959" lon="2.433240">
        <ele>687.655</ele>
        <time>2021-05-28T21:26:06Z</time>
      </trkpt>
      <trkpt lat="42.571944" lon="2.433218">
        <ele>687.730</ele>
        <time>2021-05-28T21:26:10Z</time>
      </trkpt>
      <trkpt lat="42.571929" lon="2.433198">
        <ele>687.817</ele>
        <time>2021-05-28T21:26:12Z</time>
      </trkpt>
      <trkpt lat="42.571916" lon="2.433180">
        <ele>687.875</ele>
        <time>2021-05-28T21:26:13Z</time>
      </trkpt>
      <trkpt lat="42.571903" lon="2.433159">
        <ele>687.847</ele>
        <time>2021-05-28T21:26:15Z</time>
      </trkpt>
      <trkpt lat="42.571887" lon="2.433131">
        <ele>687.729</ele>
        <time>2021-05-28T21:26:19Z</time>
      </trkpt>
      <trkpt lat="42.571876" lon="2.433106">
        <ele>687.421</ele>
        <time>2021-05-28T21:26:21Z</time>
      </trkpt>
      <trkpt lat="42.571859" lon="2.433089">
        <ele>687.708</ele>
        <time>2021-05-28T21:26:22Z</time>
      </trkpt>
      <trkpt lat="42.571839" lon="2.433072">
        <ele>688.071</ele>
        <time>2021-05-28T21:26:25Z</time>
      </trkpt>
      <trkpt lat="42.571824" lon="2.433058">
        <ele>688.398</ele>
        <time>2021-05-28T21:26:31Z</time>
      </trkpt>
      <trkpt lat="42.571840" lon="2.433044">
        <ele>687.269</ele>
        <time>2021-05-28T21:26:35Z</time>
      </trkpt>
      <trkpt lat="42.571850" lon="2.433022">
        <ele>686.178</ele>
        <time>2021-05-28T21:26:40Z</time>
      </trkpt>
      <trkpt lat="42.571839" lon="2.432993">
        <ele>685.725</ele>
        <time>2021-05-28T21:26:44Z</time>
      </trkpt>
      <trkpt lat="42.571832" lon="2.432966">
        <ele>685.120</ele>
        <time>2021-05-28T21:26:46Z</time>
      </trkpt>
      <trkpt lat="42.571828" lon="2.432938">
        <ele>684.527</ele>
        <time>2021-05-28T21:26:50Z</time>
      </trkpt>
      <trkpt lat="42.571828" lon="2.432908">
        <ele>683.665</ele>
        <time>2021-05-28T21:26:53Z</time>
      </trkpt>
      <trkpt lat="42.571826" lon="2.432881">
        <ele>682.873</ele>
        <time>2021-05-28T21:26:56Z</time>
      </trkpt>
      <trkpt lat="42.571811" lon="2.432847">
        <ele>682.485</ele>
        <time>2021-05-28T21:26:59Z</time>
      </trkpt>
      <trkpt lat="42.571800" lon="2.432818">
        <ele>682.013</ele>
        <time>2021-05-28T21:27:03Z</time>
      </trkpt>
      <trkpt lat="42.571801" lon="2.432790">
        <ele>681.108</ele>
        <time>2021-05-28T21:27:07Z</time>
      </trkpt>
      <trkpt lat="42.571793" lon="2.432755">
        <ele>680.384</ele>
        <time>2021-05-28T21:27:11Z</time>
      </trkpt>
      <trkpt lat="42.571791" lon="2.432728">
        <ele>679.561</ele>
        <time>2021-05-28T21:27:13Z</time>
      </trkpt>
      <trkpt lat="42.571784" lon="2.432704">
        <ele>679.152</ele>
        <time>2021-05-28T21:27:17Z</time>
      </trkpt>
      <trkpt lat="42.571771" lon="2.432686">
        <ele>679.061</ele>
        <time>2021-05-28T21:27:20Z</time>
      </trkpt>
      <trkpt lat="42.571759" lon="2.432664">
        <ele>678.868</ele>
        <time>2021-05-28T21:27:24Z</time>
      </trkpt>
      <trkpt lat="42.571747" lon="2.432638">
        <ele>678.473</ele>
        <time>2021-05-28T21:27:28Z</time>
      </trkpt>
      <trkpt lat="42.571732" lon="2.432606">
        <ele>678.040</ele>
        <time>2021-05-28T21:27:34Z</time>
      </trkpt>
      <trkpt lat="42.571725" lon="2.432579">
        <ele>677.448</ele>
        <time>2021-05-28T21:27:36Z</time>
      </trkpt>
      <trkpt lat="42.571715" lon="2.432556">
        <ele>677.023</ele>
        <time>2021-05-28T21:27:42Z</time>
      </trkpt>
      <trkpt lat="42.571711" lon="2.432531">
        <ele>676.483</ele>
        <time>2021-05-28T21:27:46Z</time>
      </trkpt>
      <trkpt lat="42.571701" lon="2.432508">
        <ele>676.011</ele>
        <time>2021-05-28T21:27:50Z</time>
      </trkpt>
      <trkpt lat="42.571691" lon="2.432482">
        <ele>675.708</ele>
        <time>2021-05-28T21:27:54Z</time>
      </trkpt>
      <trkpt lat="42.571685" lon="2.432448">
        <ele>675.099</ele>
        <time>2021-05-28T21:27:57Z</time>
      </trkpt>
      <trkpt lat="42.571682" lon="2.432419">
        <ele>674.446</ele>
        <time>2021-05-28T21:27:59Z</time>
      </trkpt>
      <trkpt lat="42.571678" lon="2.432386">
        <ele>673.767</ele>
        <time>2021-05-28T21:28:03Z</time>
      </trkpt>
      <trkpt lat="42.571665" lon="2.432357">
        <ele>673.496</ele>
        <time>2021-05-28T21:28:05Z</time>
      </trkpt>
      <trkpt lat="42.571646" lon="2.432354">
        <ele>673.973</ele>
        <time>2021-05-28T21:28:28Z</time>
      </trkpt>
      <trkpt lat="42.571639" lon="2.432329">
        <ele>673.498</ele>
        <time>2021-05-28T21:29:00Z</time>
      </trkpt>
      <trkpt lat="42.571652" lon="2.432309">
        <ele>672.685</ele>
        <time>2021-05-28T21:29:05Z</time>
      </trkpt>
      <trkpt lat="42.571670" lon="2.432310">
        <ele>672.173</ele>
        <time>2021-05-28T21:29:16Z</time>
      </trkpt>
      <trkpt lat="42.571690" lon="2.432311">
        <ele>671.368</ele>
        <time>2021-05-28T21:29:22Z</time>
      </trkpt>
      <trkpt lat="42.571709" lon="2.432326">
        <ele>671.042</ele>
        <time>2021-05-28T21:29:30Z</time>
      </trkpt>
      <trkpt lat="42.571729" lon="2.432334">
        <ele>670.426</ele>
        <time>2021-05-28T21:29:34Z</time>
      </trkpt>
      <trkpt lat="42.571750" lon="2.432347">
        <ele>670.008</ele>
        <time>2021-05-28T21:29:37Z</time>
      </trkpt>
      <trkpt lat="42.571771" lon="2.432354">
        <ele>669.443</ele>
        <time>2021-05-28T21:29:47Z</time>
      </trkpt>
      <trkpt lat="42.571789" lon="2.432367">
        <ele>669.040</ele>
        <time>2021-05-28T21:29:50Z</time>
      </trkpt>
      <trkpt lat="42.571810" lon="2.432378">
        <ele>668.541</ele>
        <time>2021-05-28T21:29:54Z</time>
      </trkpt>
      <trkpt lat="42.571828" lon="2.432382">
        <ele>668.040</ele>
        <time>2021-05-28T21:29:56Z</time>
      </trkpt>
      <trkpt lat="42.571855" lon="2.432390">
        <ele>667.297</ele>
        <time>2021-05-28T21:29:58Z</time>
      </trkpt>
      <trkpt lat="42.571880" lon="2.432401">
        <ele>666.632</ele>
        <time>2021-05-28T21:30:00Z</time>
      </trkpt>
      <trkpt lat="42.571900" lon="2.432415">
        <ele>666.249</ele>
        <time>2021-05-28T21:30:03Z</time>
      </trkpt>
      <trkpt lat="42.571927" lon="2.432423">
        <ele>665.447</ele>
        <time>2021-05-28T21:30:06Z</time>
      </trkpt>
      <trkpt lat="42.571949" lon="2.432427">
        <ele>664.741</ele>
        <time>2021-05-28T21:30:08Z</time>
      </trkpt>
      <trkpt lat="42.571968" lon="2.432441">
        <ele>664.181</ele>
        <time>2021-05-28T21:30:12Z</time>
      </trkpt>
      <trkpt lat="42.571987" lon="2.432432">
        <ele>662.909</ele>
        <time>2021-05-28T21:30:14Z</time>
      </trkpt>
      <trkpt lat="42.572007" lon="2.432428">
        <ele>661.708</ele>
        <time>2021-05-28T21:30:18Z</time>
      </trkpt>
      <trkpt lat="42.572026" lon="2.432436">
        <ele>661.071</ele>
        <time>2021-05-28T21:30:20Z</time>
      </trkpt>
      <trkpt lat="42.572052" lon="2.432448">
        <ele>660.058</ele>
        <time>2021-05-28T21:30:24Z</time>
      </trkpt>
      <trkpt lat="42.572078" lon="2.432465">
        <ele>659.229</ele>
        <time>2021-05-28T21:30:25Z</time>
      </trkpt>
      <trkpt lat="42.572096" lon="2.432483">
        <ele>658.858</ele>
        <time>2021-05-28T21:30:27Z</time>
      </trkpt>
      <trkpt lat="42.572113" lon="2.432493">
        <ele>658.315</ele>
        <time>2021-05-28T21:30:29Z</time>
      </trkpt>
      <trkpt lat="42.572128" lon="2.432509">
        <ele>658.090</ele>
        <time>2021-05-28T21:30:31Z</time>
      </trkpt>
      <trkpt lat="42.572142" lon="2.432525">
        <ele>657.837</ele>
        <time>2021-05-28T21:30:33Z</time>
      </trkpt>
      <trkpt lat="42.572160" lon="2.432544">
        <ele>657.455</ele>
        <time>2021-05-28T21:30:36Z</time>
      </trkpt>
      <trkpt lat="42.572176" lon="2.432557">
        <ele>657.061</ele>
        <time>2021-05-28T21:30:38Z</time>
      </trkpt>
      <trkpt lat="42.572198" lon="2.432578">
        <ele>656.521</ele>
        <time>2021-05-28T21:30:41Z</time>
      </trkpt>
      <trkpt lat="42.572218" lon="2.432597">
        <ele>656.013</ele>
        <time>2021-05-28T21:30:44Z</time>
      </trkpt>
      <trkpt lat="42.572244" lon="2.432611">
        <ele>655.108</ele>
        <time>2021-05-28T21:30:47Z</time>
      </trkpt>
      <trkpt lat="42.572258" lon="2.432632">
        <ele>654.953</ele>
        <time>2021-05-28T21:30:49Z</time>
      </trkpt>
      <trkpt lat="42.572280" lon="2.432651">
        <ele>654.320</ele>
        <time>2021-05-28T21:30:53Z</time>
      </trkpt>
      <trkpt lat="42.572296" lon="2.432666">
        <ele>654.011</ele>
        <time>2021-05-28T21:30:56Z</time>
      </trkpt>
      <trkpt lat="42.572307" lon="2.432700">
        <ele>654.490</ele>
        <time>2021-05-28T21:30:58Z</time>
      </trkpt>
      <trkpt lat="42.572320" lon="2.432727">
        <ele>654.527</ele>
        <time>2021-05-28T21:31:00Z</time>
      </trkpt>
      <trkpt lat="42.572336" lon="2.432755">
        <ele>654.672</ele>
        <time>2021-05-28T21:31:03Z</time>
      </trkpt>
      <trkpt lat="42.572348" lon="2.432773">
        <ele>654.559</ele>
        <time>2021-05-28T21:31:05Z</time>
      </trkpt>
      <trkpt lat="42.572363" lon="2.432802">
        <ele>654.677</ele>
        <time>2021-05-28T21:31:12Z</time>
      </trkpt>
      <trkpt lat="42.572379" lon="2.432833">
        <ele>654.825</ele>
        <time>2021-05-28T21:31:14Z</time>
      </trkpt>
      <trkpt lat="42.572398" lon="2.432856">
        <ele>654.626</ele>
        <time>2021-05-28T21:31:17Z</time>
      </trkpt>
      <trkpt lat="42.572419" lon="2.432874">
        <ele>654.108</ele>
        <time>2021-05-28T21:31:20Z</time>
      </trkpt>
      <trkpt lat="42.572443" lon="2.432889">
        <ele>653.408</ele>
        <time>2021-05-28T21:31:24Z</time>
      </trkpt>
      <trkpt lat="42.572466" lon="2.432905">
        <ele>652.839</ele>
        <time>2021-05-28T21:31:25Z</time>
      </trkpt>
      <trkpt lat="42.572481" lon="2.432926">
        <ele>652.746</ele>
        <time>2021-05-28T21:31:27Z</time>
      </trkpt>
      <trkpt lat="42.572501" lon="2.432942">
        <ele>652.377</ele>
        <time>2021-05-28T21:31:29Z</time>
      </trkpt>
      <trkpt lat="42.572514" lon="2.432959">
        <ele>652.386</ele>
        <time>2021-05-28T21:31:31Z</time>
      </trkpt>
      <trkpt lat="42.572525" lon="2.432984">
        <ele>652.633</ele>
        <time>2021-05-28T21:31:33Z</time>
      </trkpt>
      <trkpt lat="42.572548" lon="2.433008">
        <ele>652.478</ele>
        <time>2021-05-28T21:31:35Z</time>
      </trkpt>
      <trkpt lat="42.572568" lon="2.433025">
        <ele>652.145</ele>
        <time>2021-05-28T21:31:37Z</time>
      </trkpt>
      <trkpt lat="42.572588" lon="2.433039">
        <ele>651.773</ele>
        <time>2021-05-28T21:31:39Z</time>
      </trkpt>
      <trkpt lat="42.572607" lon="2.433057">
        <ele>651.421</ele>
        <time>2021-05-28T21:31:41Z</time>
      </trkpt>
      <trkpt lat="42.572625" lon="2.433055">
        <ele>650.641</ele>
        <time>2021-05-28T21:31:44Z</time>
      </trkpt>
      <trkpt lat="42.572617" lon="2.433030">
        <ele>650.105</ele>
        <time>2021-05-28T21:31:47Z</time>
      </trkpt>
      <trkpt lat="42.572604" lon="2.433007">
        <ele>649.908</ele>
        <time>2021-05-28T21:31:50Z</time>
      </trkpt>
      <trkpt lat="42.572593" lon="2.432985">
        <ele>649.799</ele>
        <time>2021-05-28T21:31:52Z</time>
      </trkpt>
      <trkpt lat="42.572590" lon="2.432958">
        <ele>649.026</ele>
        <time>2021-05-28T21:31:55Z</time>
      </trkpt>
      <trkpt lat="42.572574" lon="2.432941">
        <ele>649.137</ele>
        <time>2021-05-28T21:31:58Z</time>
      </trkpt>
      <trkpt lat="42.572556" lon="2.432919">
        <ele>649.296</ele>
        <time>2021-05-28T21:32:01Z</time>
      </trkpt>
      <trkpt lat="42.572538" lon="2.432899">
        <ele>649.353</ele>
        <time>2021-05-28T21:32:04Z</time>
      </trkpt>
      <trkpt lat="42.572528" lon="2.432874">
        <ele>648.998</ele>
        <time>2021-05-28T21:32:07Z</time>
      </trkpt>
      <trkpt lat="42.572517" lon="2.432853">
        <ele>648.745</ele>
        <time>2021-05-28T21:32:10Z</time>
      </trkpt>
      <trkpt lat="42.572518" lon="2.432824">
        <ele>647.793</ele>
        <time>2021-05-28T21:32:13Z</time>
      </trkpt>
      <trkpt lat="42.572523" lon="2.432796">
        <ele>646.634</ele>
        <time>2021-05-28T21:32:17Z</time>
      </trkpt>
      <trkpt lat="42.572524" lon="2.432766">
        <ele>645.655</ele>
        <time>2021-05-28T21:32:22Z</time>
      </trkpt>
      <trkpt lat="42.572513" lon="2.432745">
        <ele>645.410</ele>
        <time>2021-05-28T21:32:24Z</time>
      </trkpt>
      <trkpt lat="42.572505" lon="2.432719">
        <ele>644.908</ele>
        <time>2021-05-28T21:32:26Z</time>
      </trkpt>
      <trkpt lat="42.572489" lon="2.432695">
        <ele>644.960</ele>
        <time>2021-05-28T21:32:27Z</time>
      </trkpt>
      <trkpt lat="42.572474" lon="2.432675">
        <ele>645.097</ele>
        <time>2021-05-28T21:32:30Z</time>
      </trkpt>
      <trkpt lat="42.572456" lon="2.432666">
        <ele>645.718</ele>
        <time>2021-05-28T21:32:32Z</time>
      </trkpt>
      <trkpt lat="42.572442" lon="2.432637">
        <ele>645.577</ele>
        <time>2021-05-28T21:32:35Z</time>
      </trkpt>
      <trkpt lat="42.572429" lon="2.432609">
        <ele>645.324</ele>
        <time>2021-05-28T21:32:38Z</time>
      </trkpt>
      <trkpt lat="42.572414" lon="2.432590">
        <ele>645.549</ele>
        <time>2021-05-28T21:32:40Z</time>
      </trkpt>
      <trkpt lat="42.572403" lon="2.432569">
        <ele>645.416</ele>
        <time>2021-05-28T21:32:42Z</time>
      </trkpt>
      <trkpt lat="42.572387" lon="2.432534">
        <ele>645.224</ele>
        <time>2021-05-28T21:32:44Z</time>
      </trkpt>
      <trkpt lat="42.572377" lon="2.432502">
        <ele>644.735</ele>
        <time>2021-05-28T21:32:46Z</time>
      </trkpt>
      <trkpt lat="42.572363" lon="2.432485">
        <ele>644.986</ele>
        <time>2021-05-28T21:32:48Z</time>
      </trkpt>
      <trkpt lat="42.572345" lon="2.432468">
        <ele>645.314</ele>
        <time>2021-05-28T21:32:50Z</time>
      </trkpt>
      <trkpt lat="42.572332" lon="2.432450">
        <ele>645.408</ele>
        <time>2021-05-28T21:32:52Z</time>
      </trkpt>
      <trkpt lat="42.572329" lon="2.432423">
        <ele>644.630</ele>
        <time>2021-05-28T21:32:54Z</time>
      </trkpt>
      <trkpt lat="42.572333" lon="2.432394">
        <ele>643.417</ele>
        <time>2021-05-28T21:32:56Z</time>
      </trkpt>
      <trkpt lat="42.572321" lon="2.432370">
        <ele>643.358</ele>
        <time>2021-05-28T21:32:58Z</time>
      </trkpt>
      <trkpt lat="42.572307" lon="2.432345">
        <ele>643.297</ele>
        <time>2021-05-28T21:33:01Z</time>
      </trkpt>
      <trkpt lat="42.572300" lon="2.432316">
        <ele>642.754</ele>
        <time>2021-05-28T21:33:05Z</time>
      </trkpt>
      <trkpt lat="42.572293" lon="2.432289">
        <ele>642.129</ele>
        <time>2021-05-28T21:33:12Z</time>
      </trkpt>
      <trkpt lat="42.572295" lon="2.432262">
        <ele>641.126</ele>
        <time>2021-05-28T21:33:16Z</time>
      </trkpt>
      <trkpt lat="42.572289" lon="2.432226">
        <ele>640.314</ele>
        <time>2021-05-28T21:33:18Z</time>
      </trkpt>
      <trkpt lat="42.572283" lon="2.432200">
        <ele>639.883</ele>
        <time>2021-05-28T21:33:20Z</time>
      </trkpt>
      <trkpt lat="42.572271" lon="2.432179">
        <ele>639.925</ele>
        <time>2021-05-28T21:33:23Z</time>
      </trkpt>
      <trkpt lat="42.572262" lon="2.432157">
        <ele>639.717</ele>
        <time>2021-05-28T21:33:28Z</time>
      </trkpt>
      <trkpt lat="42.572254" lon="2.432127">
        <ele>639.208</ele>
        <time>2021-05-28T21:33:31Z</time>
      </trkpt>
      <trkpt lat="42.572247" lon="2.432105">
        <ele>638.995</ele>
        <time>2021-05-28T21:33:33Z</time>
      </trkpt>
      <trkpt lat="42.572231" lon="2.432081">
        <ele>639.082</ele>
        <time>2021-05-28T21:33:36Z</time>
      </trkpt>
      <trkpt lat="42.572220" lon="2.432061">
        <ele>638.973</ele>
        <time>2021-05-28T21:33:38Z</time>
      </trkpt>
      <trkpt lat="42.572209" lon="2.432040">
        <ele>638.872</ele>
        <time>2021-05-28T21:33:41Z</time>
      </trkpt>
      <trkpt lat="42.572206" lon="2.432010">
        <ele>638.069</ele>
        <time>2021-05-28T21:33:44Z</time>
      </trkpt>
      <trkpt lat="42.572196" lon="2.431982">
        <ele>637.634</ele>
        <time>2021-05-28T21:33:47Z</time>
      </trkpt>
      <trkpt lat="42.572190" lon="2.431954">
        <ele>637.091</ele>
        <time>2021-05-28T21:33:50Z</time>
      </trkpt>
      <trkpt lat="42.572192" lon="2.431924">
        <ele>636.229</ele>
        <time>2021-05-28T21:33:54Z</time>
      </trkpt>
      <trkpt lat="42.572175" lon="2.431898">
        <ele>636.473</ele>
        <time>2021-05-28T21:33:57Z</time>
      </trkpt>
      <trkpt lat="42.572164" lon="2.431875">
        <ele>636.485</ele>
        <time>2021-05-28T21:33:59Z</time>
      </trkpt>
      <trkpt lat="42.572163" lon="2.431846">
        <ele>635.813</ele>
        <time>2021-05-28T21:34:02Z</time>
      </trkpt>
      <trkpt lat="42.572144" lon="2.431833">
        <ele>636.408</ele>
        <time>2021-05-28T21:34:05Z</time>
      </trkpt>
      <trkpt lat="42.572134" lon="2.431801">
        <ele>636.094</ele>
        <time>2021-05-28T21:34:08Z</time>
      </trkpt>
      <trkpt lat="42.572123" lon="2.431781">
        <ele>636.011</ele>
        <time>2021-05-28T21:34:10Z</time>
      </trkpt>
      <trkpt lat="42.572125" lon="2.431747">
        <ele>635.042</ele>
        <time>2021-05-28T21:34:12Z</time>
      </trkpt>
      <trkpt lat="42.572111" lon="2.431717">
        <ele>634.891</ele>
        <time>2021-05-28T21:34:15Z</time>
      </trkpt>
      <trkpt lat="42.572088" lon="2.431701">
        <ele>635.398</ele>
        <time>2021-05-28T21:34:18Z</time>
      </trkpt>
      <trkpt lat="42.572075" lon="2.431677">
        <ele>635.113</ele>
        <time>2021-05-28T21:34:21Z</time>
      </trkpt>
      <trkpt lat="42.572072" lon="2.431648">
        <ele>634.420</ele>
        <time>2021-05-28T21:34:24Z</time>
      </trkpt>
      <trkpt lat="42.572061" lon="2.431622">
        <ele>634.078</ele>
        <time>2021-05-28T21:34:27Z</time>
      </trkpt>
      <trkpt lat="42.572043" lon="2.431610">
        <ele>634.278</ele>
        <time>2021-05-28T21:34:30Z</time>
      </trkpt>
      <trkpt lat="42.572015" lon="2.431591">
        <ele>634.633</ele>
        <time>2021-05-28T21:34:32Z</time>
      </trkpt>
      <trkpt lat="42.571997" lon="2.431575">
        <ele>634.626</ele>
        <time>2021-05-28T21:34:34Z</time>
      </trkpt>
      <trkpt lat="42.571989" lon="2.431542">
        <ele>633.708</ele>
        <time>2021-05-28T21:34:36Z</time>
      </trkpt>
      <trkpt lat="42.571977" lon="2.431521">
        <ele>633.244</ele>
        <time>2021-05-28T21:34:38Z</time>
      </trkpt>
      <trkpt lat="42.571960" lon="2.431511">
        <ele>633.481</ele>
        <time>2021-05-28T21:34:40Z</time>
      </trkpt>
      <trkpt lat="42.571938" lon="2.431497">
        <ele>633.352</ele>
        <time>2021-05-28T21:34:43Z</time>
      </trkpt>
      <trkpt lat="42.571920" lon="2.431482">
        <ele>632.891</ele>
        <time>2021-05-28T21:34:46Z</time>
      </trkpt>
      <trkpt lat="42.571900" lon="2.431473">
        <ele>632.528</ele>
        <time>2021-05-28T21:34:49Z</time>
      </trkpt>
      <trkpt lat="42.571883" lon="2.431463">
        <ele>632.123</ele>
        <time>2021-05-28T21:34:53Z</time>
      </trkpt>
      <trkpt lat="42.571864" lon="2.431464">
        <ele>632.210</ele>
        <time>2021-05-28T21:34:58Z</time>
      </trkpt>
      <trkpt lat="42.571843" lon="2.431469">
        <ele>632.528</ele>
        <time>2021-05-28T21:35:00Z</time>
      </trkpt>
      <trkpt lat="42.571823" lon="2.431454">
        <ele>631.741</ele>
        <time>2021-05-28T21:35:03Z</time>
      </trkpt>
      <trkpt lat="42.571804" lon="2.431463">
        <ele>632.381</ele>
        <time>2021-05-28T21:35:09Z</time>
      </trkpt>
      <trkpt lat="42.571785" lon="2.431458">
        <ele>632.009</ele>
        <time>2021-05-28T21:35:14Z</time>
      </trkpt>
      <trkpt lat="42.571763" lon="2.431453">
        <ele>631.708</ele>
        <time>2021-05-28T21:35:18Z</time>
      </trkpt>
      <trkpt lat="42.571742" lon="2.431453">
        <ele>631.871</ele>
        <time>2021-05-28T21:35:19Z</time>
      </trkpt>
      <trkpt lat="42.571721" lon="2.431467">
        <ele>632.778</ele>
        <time>2021-05-28T21:35:22Z</time>
      </trkpt>
      <trkpt lat="42.571695" lon="2.431466">
        <ele>632.829</ele>
        <time>2021-05-28T21:35:25Z</time>
      </trkpt>
      <trkpt lat="42.571671" lon="2.431464">
        <ele>632.718</ele>
        <time>2021-05-28T21:35:27Z</time>
      </trkpt>
      <trkpt lat="42.571653" lon="2.431467">
        <ele>632.525</ele>
        <time>2021-05-28T21:35:29Z</time>
      </trkpt>
      <trkpt lat="42.571629" lon="2.431463">
        <ele>631.610</ele>
        <time>2021-05-28T21:35:31Z</time>
      </trkpt>
      <trkpt lat="42.571601" lon="2.431458">
        <ele>630.577</ele>
        <time>2021-05-28T21:35:34Z</time>
      </trkpt>
      <trkpt lat="42.571580" lon="2.431461">
        <ele>630.155</ele>
        <time>2021-05-28T21:35:39Z</time>
      </trkpt>
      <trkpt lat="42.571558" lon="2.431439">
        <ele>628.044</ele>
        <time>2021-05-28T21:35:44Z</time>
      </trkpt>
      <trkpt lat="42.571543" lon="2.431422">
        <ele>626.505</ele>
        <time>2021-05-28T21:35:54Z</time>
      </trkpt>
      <trkpt lat="42.571540" lon="2.431396">
        <ele>624.715</ele>
        <time>2021-05-28T21:36:00Z</time>
      </trkpt>
      <trkpt lat="42.571524" lon="2.431376">
        <ele>623.808</ele>
        <time>2021-05-28T21:36:04Z</time>
      </trkpt>
      <trkpt lat="42.571506" lon="2.431354">
        <ele>623.471</ele>
        <time>2021-05-28T21:36:08Z</time>
      </trkpt>
      <trkpt lat="42.571449" lon="2.431232">
        <ele>623.168</ele>
        <time>2021-05-28T21:36:22Z</time>
      </trkpt>
      <trkpt lat="42.571451" lon="2.431186">
        <ele>623.389</ele>
        <time>2021-05-28T21:36:25Z</time>
      </trkpt>
      <trkpt lat="42.571475" lon="2.431182">
        <ele>623.128</ele>
        <time>2021-05-28T21:36:28Z</time>
      </trkpt>
      <trkpt lat="42.571494" lon="2.431193">
        <ele>622.965</ele>
        <time>2021-05-28T21:36:30Z</time>
      </trkpt>
      <trkpt lat="42.571496" lon="2.431168">
        <ele>622.810</ele>
        <time>2021-05-28T21:36:40Z</time>
      </trkpt>
      <trkpt lat="42.571519" lon="2.431165">
        <ele>622.597</ele>
        <time>2021-05-28T21:36:43Z</time>
      </trkpt>
      <trkpt lat="42.571549" lon="2.431133">
        <ele>621.815</ele>
        <time>2021-05-28T21:36:48Z</time>
      </trkpt>
      <trkpt lat="42.571565" lon="2.431111">
        <ele>621.217</ele>
        <time>2021-05-28T21:36:52Z</time>
      </trkpt>
      <trkpt lat="42.571584" lon="2.431097">
        <ele>620.987</ele>
        <time>2021-05-28T21:36:54Z</time>
      </trkpt>
      <trkpt lat="42.571600" lon="2.431085">
        <ele>620.715</ele>
        <time>2021-05-28T21:36:56Z</time>
      </trkpt>
      <trkpt lat="42.571617" lon="2.431061">
        <ele>620.508</ele>
        <time>2021-05-28T21:37:00Z</time>
      </trkpt>
      <trkpt lat="42.571628" lon="2.431041">
        <ele>620.418</ele>
        <time>2021-05-28T21:37:04Z</time>
      </trkpt>
      <trkpt lat="42.571638" lon="2.431020">
        <ele>620.355</ele>
        <time>2021-05-28T21:37:07Z</time>
      </trkpt>
      <trkpt lat="42.571645" lon="2.430994">
        <ele>620.466</ele>
        <time>2021-05-28T21:37:09Z</time>
      </trkpt>
      <trkpt lat="42.571656" lon="2.430966">
        <ele>620.325</ele>
        <time>2021-05-28T21:37:13Z</time>
      </trkpt>
      <trkpt lat="42.571665" lon="2.430937">
        <ele>620.372</ele>
        <time>2021-05-28T21:37:15Z</time>
      </trkpt>
      <trkpt lat="42.571682" lon="2.430926">
        <ele>620.127</ele>
        <time>2021-05-28T21:37:18Z</time>
      </trkpt>
      <trkpt lat="42.571706" lon="2.430914">
        <ele>619.714</ele>
        <time>2021-05-28T21:37:20Z</time>
      </trkpt>
      <trkpt lat="42.571724" lon="2.430899">
        <ele>619.432</ele>
        <time>2021-05-28T21:37:22Z</time>
      </trkpt>
      <trkpt lat="42.571743" lon="2.430887">
        <ele>619.096</ele>
        <time>2021-05-28T21:37:26Z</time>
      </trkpt>
      <trkpt lat="42.571762" lon="2.430864">
        <ele>618.631</ele>
        <time>2021-05-28T21:37:30Z</time>
      </trkpt>
      <trkpt lat="42.571773" lon="2.430840">
        <ele>618.324</ele>
        <time>2021-05-28T21:37:36Z</time>
      </trkpt>
      <trkpt lat="42.571755" lon="2.430832">
        <ele>618.808</ele>
        <time>2021-05-28T21:37:42Z</time>
      </trkpt>
      <trkpt lat="42.571732" lon="2.430839">
        <ele>619.356</ele>
        <time>2021-05-28T21:37:45Z</time>
      </trkpt>
      <trkpt lat="42.571714" lon="2.430850">
        <ele>619.773</ele>
        <time>2021-05-28T21:37:48Z</time>
      </trkpt>
      <trkpt lat="42.571678" lon="2.430976">
        <ele>619.874</ele>
        <time>2021-05-28T21:37:59Z</time>
      </trkpt>
      <trkpt lat="42.571635" lon="2.431094">
        <ele>619.893</ele>
        <time>2021-05-28T21:38:09Z</time>
      </trkpt>
      <trkpt lat="42.571558" lon="2.431166">
        <ele>622.030</ele>
        <time>2021-05-28T21:38:17Z</time>
      </trkpt>
      <trkpt lat="42.571487" lon="2.431257">
        <ele>623.095</ele>
        <time>2021-05-28T21:38:30Z</time>
      </trkpt>
      <trkpt lat="42.571489" lon="2.431115">
        <ele>622.862</ele>
        <time>2021-05-28T21:38:41Z</time>
      </trkpt>
      <trkpt lat="42.571531" lon="2.431037">
        <ele>622.710</ele>
        <time>2021-05-28T21:38:47Z</time>
      </trkpt>
      <trkpt lat="42.571541" lon="2.431006">
        <ele>622.893</ele>
        <time>2021-05-28T21:38:49Z</time>
      </trkpt>
      <trkpt lat="42.571550" lon="2.430973">
        <ele>622.965</ele>
        <time>2021-05-28T21:38:52Z</time>
      </trkpt>
      <trkpt lat="42.571553" lon="2.430944">
        <ele>623.221</ele>
        <time>2021-05-28T21:38:54Z</time>
      </trkpt>
      <trkpt lat="42.571557" lon="2.430915">
        <ele>623.308</ele>
        <time>2021-05-28T21:38:56Z</time>
      </trkpt>
      <trkpt lat="42.571563" lon="2.430884">
        <ele>623.556</ele>
        <time>2021-05-28T21:38:58Z</time>
      </trkpt>
      <trkpt lat="42.571573" lon="2.430859">
        <ele>623.523</ele>
        <time>2021-05-28T21:39:00Z</time>
      </trkpt>
      <trkpt lat="42.571578" lon="2.430831">
        <ele>623.664</ele>
        <time>2021-05-28T21:39:02Z</time>
      </trkpt>
      <trkpt lat="42.571579" lon="2.430807">
        <ele>623.723</ele>
        <time>2021-05-28T21:39:04Z</time>
      </trkpt>
      <trkpt lat="42.571581" lon="2.430773">
        <ele>624.010</ele>
        <time>2021-05-28T21:39:07Z</time>
      </trkpt>
      <trkpt lat="42.571586" lon="2.430750">
        <ele>624.075</ele>
        <time>2021-05-28T21:39:09Z</time>
      </trkpt>
      <trkpt lat="42.571601" lon="2.430712">
        <ele>624.052</ele>
        <time>2021-05-28T21:39:13Z</time>
      </trkpt>
      <trkpt lat="42.571608" lon="2.430687">
        <ele>624.030</ele>
        <time>2021-05-28T21:39:15Z</time>
      </trkpt>
      <trkpt lat="42.571618" lon="2.430659">
        <ele>624.167</ele>
        <time>2021-05-28T21:39:17Z</time>
      </trkpt>
      <trkpt lat="42.571632" lon="2.430632">
        <ele>624.081</ele>
        <time>2021-05-28T21:39:19Z</time>
      </trkpt>
      <trkpt lat="42.571642" lon="2.430610">
        <ele>624.019</ele>
        <time>2021-05-28T21:39:21Z</time>
      </trkpt>
      <trkpt lat="42.571663" lon="2.430588">
        <ele>623.708</ele>
        <time>2021-05-28T21:39:23Z</time>
      </trkpt>
      <trkpt lat="42.571675" lon="2.430567">
        <ele>623.743</ele>
        <time>2021-05-28T21:39:25Z</time>
      </trkpt>
      <trkpt lat="42.571695" lon="2.430543">
        <ele>623.590</ele>
        <time>2021-05-28T21:39:27Z</time>
      </trkpt>
      <trkpt lat="42.571712" lon="2.430520">
        <ele>623.371</ele>
        <time>2021-05-28T21:39:29Z</time>
      </trkpt>
      <trkpt lat="42.571809" lon="2.430467">
        <ele>621.970</ele>
        <time>2021-05-28T21:39:41Z</time>
      </trkpt>
      <trkpt lat="42.571905" lon="2.430430">
        <ele>620.517</ele>
        <time>2021-05-28T21:39:47Z</time>
      </trkpt>
      <trkpt lat="42.571930" lon="2.430413">
        <ele>620.382</ele>
        <time>2021-05-28T21:39:49Z</time>
      </trkpt>
      <trkpt lat="42.571951" lon="2.430398">
        <ele>620.249</ele>
        <time>2021-05-28T21:39:51Z</time>
      </trkpt>
      <trkpt lat="42.572031" lon="2.430334">
        <ele>619.887</ele>
        <time>2021-05-28T21:39:59Z</time>
      </trkpt>
      <trkpt lat="42.572122" lon="2.430305">
        <ele>618.974</ele>
        <time>2021-05-28T21:40:05Z</time>
      </trkpt>
      <trkpt lat="42.572210" lon="2.430234">
        <ele>618.656</ele>
        <time>2021-05-28T21:40:11Z</time>
      </trkpt>
      <trkpt lat="42.572291" lon="2.430172">
        <ele>617.621</ele>
        <time>2021-05-28T21:40:16Z</time>
      </trkpt>
      <trkpt lat="42.572382" lon="2.430145">
        <ele>616.008</ele>
        <time>2021-05-28T21:40:22Z</time>
      </trkpt>
      <trkpt lat="42.572485" lon="2.430143">
        <ele>613.824</ele>
        <time>2021-05-28T21:40:28Z</time>
      </trkpt>
      <trkpt lat="42.572569" lon="2.430130">
        <ele>613.581</ele>
        <time>2021-05-28T21:40:31Z</time>
      </trkpt>
      <trkpt lat="42.572595" lon="2.430125">
        <ele>613.542</ele>
        <time>2021-05-28T21:40:33Z</time>
      </trkpt>
      <trkpt lat="42.572666" lon="2.430105">
        <ele>613.631</ele>
        <time>2021-05-28T21:40:38Z</time>
      </trkpt>
      <trkpt lat="42.572695" lon="2.430086">
        <ele>613.768</ele>
        <time>2021-05-28T21:40:40Z</time>
      </trkpt>
      <trkpt lat="42.572726" lon="2.430066">
        <ele>613.883</ele>
        <time>2021-05-28T21:40:42Z</time>
      </trkpt>
      <trkpt lat="42.572745" lon="2.430045">
        <ele>613.910</ele>
        <time>2021-05-28T21:40:44Z</time>
      </trkpt>
      <trkpt lat="42.572745" lon="2.430019">
        <ele>614.168</ele>
        <time>2021-05-28T21:40:47Z</time>
      </trkpt>
      <trkpt lat="42.572748" lon="2.429991">
        <ele>614.353</ele>
        <time>2021-05-28T21:40:53Z</time>
      </trkpt>
      <trkpt lat="42.572769" lon="2.429976">
        <ele>614.204</ele>
        <time>2021-05-28T21:40:58Z</time>
      </trkpt>
      <trkpt lat="42.572751" lon="2.429984">
        <ele>614.314</ele>
        <time>2021-05-28T21:41:03Z</time>
      </trkpt>
      <trkpt lat="42.572733" lon="2.429997">
        <ele>614.308</ele>
        <time>2021-05-28T21:41:07Z</time>
      </trkpt>
      <trkpt lat="42.572752" lon="2.429983">
        <ele>614.362</ele>
        <time>2021-05-28T21:41:13Z</time>
      </trkpt>
      <trkpt lat="42.572772" lon="2.429980">
        <ele>614.279</ele>
        <time>2021-05-28T21:41:15Z</time>
      </trkpt>
      <trkpt lat="42.572791" lon="2.429979">
        <ele>614.140</ele>
        <time>2021-05-28T21:41:18Z</time>
      </trkpt>
      <trkpt lat="42.572816" lon="2.429990">
        <ele>613.949</ele>
        <time>2021-05-28T21:41:20Z</time>
      </trkpt>
      <trkpt lat="42.572838" lon="2.429995">
        <ele>613.826</ele>
        <time>2021-05-28T21:41:21Z</time>
      </trkpt>
      <trkpt lat="42.572870" lon="2.429988">
        <ele>613.731</ele>
        <time>2021-05-28T21:41:23Z</time>
      </trkpt>
      <trkpt lat="42.572960" lon="2.429963">
        <ele>613.458</ele>
        <time>2021-05-28T21:41:28Z</time>
      </trkpt>
      <trkpt lat="42.573052" lon="2.429894">
        <ele>613.066</ele>
        <time>2021-05-28T21:41:34Z</time>
      </trkpt>
      <trkpt lat="42.573122" lon="2.429838">
        <ele>612.357</ele>
        <time>2021-05-28T21:41:38Z</time>
      </trkpt>
      <trkpt lat="42.573141" lon="2.429830">
        <ele>612.100</ele>
        <time>2021-05-28T21:41:39Z</time>
      </trkpt>
      <trkpt lat="42.573158" lon="2.429816">
        <ele>611.920</ele>
        <time>2021-05-28T21:41:40Z</time>
      </trkpt>
      <trkpt lat="42.573181" lon="2.429792">
        <ele>611.608</ele>
        <time>2021-05-28T21:41:42Z</time>
      </trkpt>
      <trkpt lat="42.573205" lon="2.429767">
        <ele>611.492</ele>
        <time>2021-05-28T21:41:44Z</time>
      </trkpt>
      <trkpt lat="42.573229" lon="2.429746">
        <ele>611.179</ele>
        <time>2021-05-28T21:41:46Z</time>
      </trkpt>
      <trkpt lat="42.573252" lon="2.429721">
        <ele>610.940</ele>
        <time>2021-05-28T21:41:48Z</time>
      </trkpt>
      <trkpt lat="42.573276" lon="2.429693">
        <ele>610.639</ele>
        <time>2021-05-28T21:41:50Z</time>
      </trkpt>
      <trkpt lat="42.573290" lon="2.429678">
        <ele>610.516</ele>
        <time>2021-05-28T21:41:51Z</time>
      </trkpt>
      <trkpt lat="42.573315" lon="2.429652">
        <ele>610.241</ele>
        <time>2021-05-28T21:41:53Z</time>
      </trkpt>
      <trkpt lat="42.573335" lon="2.429624">
        <ele>610.078</ele>
        <time>2021-05-28T21:41:55Z</time>
      </trkpt>
      <trkpt lat="42.573357" lon="2.429605">
        <ele>609.996</ele>
        <time>2021-05-28T21:41:57Z</time>
      </trkpt>
      <trkpt lat="42.573384" lon="2.429583">
        <ele>609.854</ele>
        <time>2021-05-28T21:41:59Z</time>
      </trkpt>
      <trkpt lat="42.573400" lon="2.429571">
        <ele>609.856</ele>
        <time>2021-05-28T21:42:00Z</time>
      </trkpt>
      <trkpt lat="42.573427" lon="2.429540">
        <ele>609.711</ele>
        <time>2021-05-28T21:42:02Z</time>
      </trkpt>
      <trkpt lat="42.573454" lon="2.429515">
        <ele>609.608</ele>
        <time>2021-05-28T21:42:04Z</time>
      </trkpt>
      <trkpt lat="42.573474" lon="2.429489">
        <ele>609.582</ele>
        <time>2021-05-28T21:42:06Z</time>
      </trkpt>
      <trkpt lat="42.573495" lon="2.429460">
        <ele>609.499</ele>
        <time>2021-05-28T21:42:08Z</time>
      </trkpt>
      <trkpt lat="42.573518" lon="2.429435">
        <ele>609.420</ele>
        <time>2021-05-28T21:42:10Z</time>
      </trkpt>
      <trkpt lat="42.573543" lon="2.429412">
        <ele>609.349</ele>
        <time>2021-05-28T21:42:12Z</time>
      </trkpt>
      <trkpt lat="42.573564" lon="2.429391">
        <ele>609.346</ele>
        <time>2021-05-28T21:42:14Z</time>
      </trkpt>
      <trkpt lat="42.573588" lon="2.429371">
        <ele>609.381</ele>
        <time>2021-05-28T21:42:16Z</time>
      </trkpt>
      <trkpt lat="42.573612" lon="2.429351">
        <ele>609.358</ele>
        <time>2021-05-28T21:42:18Z</time>
      </trkpt>
      <trkpt lat="42.573635" lon="2.429329">
        <ele>609.316</ele>
        <time>2021-05-28T21:42:20Z</time>
      </trkpt>
      <trkpt lat="42.573660" lon="2.429314">
        <ele>609.388</ele>
        <time>2021-05-28T21:42:22Z</time>
      </trkpt>
      <trkpt lat="42.573682" lon="2.429291">
        <ele>609.324</ele>
        <time>2021-05-28T21:42:24Z</time>
      </trkpt>
      <trkpt lat="42.573698" lon="2.429281">
        <ele>609.326</ele>
        <time>2021-05-28T21:42:25Z</time>
      </trkpt>
      <trkpt lat="42.573724" lon="2.429260">
        <ele>609.308</ele>
        <time>2021-05-28T21:42:27Z</time>
      </trkpt>
      <trkpt lat="42.573751" lon="2.429237">
        <ele>609.245</ele>
        <time>2021-05-28T21:42:29Z</time>
      </trkpt>
      <trkpt lat="42.573780" lon="2.429217">
        <ele>609.282</ele>
        <time>2021-05-28T21:42:31Z</time>
      </trkpt>
      <trkpt lat="42.573809" lon="2.429197">
        <ele>609.243</ele>
        <time>2021-05-28T21:42:33Z</time>
      </trkpt>
      <trkpt lat="42.573834" lon="2.429178">
        <ele>609.242</ele>
        <time>2021-05-28T21:42:35Z</time>
      </trkpt>
      <trkpt lat="42.573859" lon="2.429160">
        <ele>609.199</ele>
        <time>2021-05-28T21:42:37Z</time>
      </trkpt>
      <trkpt lat="42.573882" lon="2.429143">
        <ele>609.194</ele>
        <time>2021-05-28T21:42:39Z</time>
      </trkpt>
      <trkpt lat="42.573907" lon="2.429132">
        <ele>609.161</ele>
        <time>2021-05-28T21:42:41Z</time>
      </trkpt>
      <trkpt lat="42.573932" lon="2.429117">
        <ele>609.159</ele>
        <time>2021-05-28T21:42:43Z</time>
      </trkpt>
      <trkpt lat="42.573954" lon="2.429098">
        <ele>609.179</ele>
        <time>2021-05-28T21:42:45Z</time>
      </trkpt>
      <trkpt lat="42.573972" lon="2.429093">
        <ele>609.005</ele>
        <time>2021-05-28T21:42:46Z</time>
      </trkpt>
      <trkpt lat="42.573990" lon="2.429086">
        <ele>609.025</ele>
        <time>2021-05-28T21:42:47Z</time>
      </trkpt>
      <trkpt lat="42.574008" lon="2.429078">
        <ele>609.008</ele>
        <time>2021-05-28T21:42:48Z</time>
      </trkpt>
      <trkpt lat="42.574038" lon="2.429060">
        <ele>609.184</ele>
        <time>2021-05-28T21:42:50Z</time>
      </trkpt>
      <trkpt lat="42.574059" lon="2.429048">
        <ele>609.171</ele>
        <time>2021-05-28T21:42:51Z</time>
      </trkpt>
      <trkpt lat="42.574090" lon="2.429033">
        <ele>609.152</ele>
        <time>2021-05-28T21:42:53Z</time>
      </trkpt>
      <trkpt lat="42.574122" lon="2.429014">
        <ele>609.291</ele>
        <time>2021-05-28T21:42:55Z</time>
      </trkpt>
      <trkpt lat="42.574150" lon="2.429001">
        <ele>609.228</ele>
        <time>2021-05-28T21:42:57Z</time>
      </trkpt>
      <trkpt lat="42.574184" lon="2.428990">
        <ele>609.183</ele>
        <time>2021-05-28T21:42:59Z</time>
      </trkpt>
      <trkpt lat="42.574205" lon="2.428986">
        <ele>609.030</ele>
        <time>2021-05-28T21:43:01Z</time>
      </trkpt>
      <trkpt lat="42.574257" lon="2.428955">
        <ele>608.948</ele>
        <time>2021-05-28T21:43:05Z</time>
      </trkpt>
      <trkpt lat="42.574277" lon="2.428944">
        <ele>608.899</ele>
        <time>2021-05-28T21:43:06Z</time>
      </trkpt>
      <trkpt lat="42.574298" lon="2.428935">
        <ele>608.707</ele>
        <time>2021-05-28T21:43:07Z</time>
      </trkpt>
      <trkpt lat="42.574329" lon="2.428919">
        <ele>608.627</ele>
        <time>2021-05-28T21:43:09Z</time>
      </trkpt>
      <trkpt lat="42.574354" lon="2.428902">
        <ele>608.608</ele>
        <time>2021-05-28T21:43:11Z</time>
      </trkpt>
      <trkpt lat="42.574380" lon="2.428888">
        <ele>608.516</ele>
        <time>2021-05-28T21:43:13Z</time>
      </trkpt>
      <trkpt lat="42.574410" lon="2.428882">
        <ele>608.283</ele>
        <time>2021-05-28T21:43:15Z</time>
      </trkpt>
      <trkpt lat="42.574431" lon="2.428882">
        <ele>608.194</ele>
        <time>2021-05-28T21:43:17Z</time>
      </trkpt>
      <trkpt lat="42.574449" lon="2.428881">
        <ele>607.933</ele>
        <time>2021-05-28T21:43:18Z</time>
      </trkpt>
      <trkpt lat="42.574474" lon="2.428878">
        <ele>607.640</ele>
        <time>2021-05-28T21:43:20Z</time>
      </trkpt>
      <trkpt lat="42.574504" lon="2.428876">
        <ele>607.335</ele>
        <time>2021-05-28T21:43:22Z</time>
      </trkpt>
      <trkpt lat="42.574529" lon="2.428875">
        <ele>607.052</ele>
        <time>2021-05-28T21:43:24Z</time>
      </trkpt>
      <trkpt lat="42.574626" lon="2.428857">
        <ele>605.980</ele>
        <time>2021-05-28T21:43:31Z</time>
      </trkpt>
      <trkpt lat="42.574722" lon="2.428856">
        <ele>604.993</ele>
        <time>2021-05-28T21:43:38Z</time>
      </trkpt>
      <trkpt lat="42.574814" lon="2.428836">
        <ele>603.965</ele>
        <time>2021-05-28T21:43:45Z</time>
      </trkpt>
      <trkpt lat="42.574906" lon="2.428824">
        <ele>602.921</ele>
        <time>2021-05-28T21:43:53Z</time>
      </trkpt>
      <trkpt lat="42.575010" lon="2.428816">
        <ele>601.908</ele>
        <time>2021-05-28T21:43:59Z</time>
      </trkpt>
      <trkpt lat="42.575109" lon="2.428791">
        <ele>600.716</ele>
        <time>2021-05-28T21:44:04Z</time>
      </trkpt>
      <trkpt lat="42.575207" lon="2.428768">
        <ele>599.423</ele>
        <time>2021-05-28T21:44:10Z</time>
      </trkpt>
      <trkpt lat="42.575257" lon="2.428762">
        <ele>598.894</ele>
        <time>2021-05-28T21:44:13Z</time>
      </trkpt>
      <trkpt lat="42.575290" lon="2.428748">
        <ele>598.123</ele>
        <time>2021-05-28T21:44:15Z</time>
      </trkpt>
      <trkpt lat="42.575316" lon="2.428746">
        <ele>597.490</ele>
        <time>2021-05-28T21:44:17Z</time>
      </trkpt>
      <trkpt lat="42.575344" lon="2.428743">
        <ele>596.615</ele>
        <time>2021-05-28T21:44:19Z</time>
      </trkpt>
      <trkpt lat="42.575372" lon="2.428754">
        <ele>595.872</ele>
        <time>2021-05-28T21:44:21Z</time>
      </trkpt>
      <trkpt lat="42.575391" lon="2.428755">
        <ele>595.260</ele>
        <time>2021-05-28T21:44:23Z</time>
      </trkpt>
      <trkpt lat="42.575419" lon="2.428756">
        <ele>594.431</ele>
        <time>2021-05-28T21:44:25Z</time>
      </trkpt>
      <trkpt lat="42.575438" lon="2.428755">
        <ele>593.961</ele>
        <time>2021-05-28T21:44:26Z</time>
      </trkpt>
      <trkpt lat="42.575467" lon="2.428759">
        <ele>593.007</ele>
        <time>2021-05-28T21:44:28Z</time>
      </trkpt>
      <trkpt lat="42.575497" lon="2.428758">
        <ele>592.208</ele>
        <time>2021-05-28T21:44:30Z</time>
      </trkpt>
      <trkpt lat="42.575523" lon="2.428757">
        <ele>591.460</ele>
        <time>2021-05-28T21:44:32Z</time>
      </trkpt>
      <trkpt lat="42.575553" lon="2.428750">
        <ele>590.617</ele>
        <time>2021-05-28T21:44:34Z</time>
      </trkpt>
      <trkpt lat="42.575590" lon="2.428745">
        <ele>590.368</ele>
        <time>2021-05-28T21:44:36Z</time>
      </trkpt>
      <trkpt lat="42.575607" lon="2.428739">
        <ele>590.287</ele>
        <time>2021-05-28T21:44:37Z</time>
      </trkpt>
      <trkpt lat="42.575633" lon="2.428722">
        <ele>590.134</ele>
        <time>2021-05-28T21:44:39Z</time>
      </trkpt>
      <trkpt lat="42.575651" lon="2.428711">
        <ele>590.029</ele>
        <time>2021-05-28T21:44:41Z</time>
      </trkpt>
      <trkpt lat="42.575668" lon="2.428698">
        <ele>590.046</ele>
        <time>2021-05-28T21:44:43Z</time>
      </trkpt>
      <trkpt lat="42.575686" lon="2.428684">
        <ele>590.014</ele>
        <time>2021-05-28T21:44:45Z</time>
      </trkpt>
      <trkpt lat="42.575707" lon="2.428671">
        <ele>590.033</ele>
        <time>2021-05-28T21:44:47Z</time>
      </trkpt>
      <trkpt lat="42.575737" lon="2.428649">
        <ele>590.023</ele>
        <time>2021-05-28T21:44:49Z</time>
      </trkpt>
      <trkpt lat="42.575754" lon="2.428639">
        <ele>590.015</ele>
        <time>2021-05-28T21:44:50Z</time>
      </trkpt>
      <trkpt lat="42.575784" lon="2.428628">
        <ele>590.008</ele>
        <time>2021-05-28T21:44:52Z</time>
      </trkpt>
      <trkpt lat="42.575804" lon="2.428609">
        <ele>590.180</ele>
        <time>2021-05-28T21:44:54Z</time>
      </trkpt>
      <trkpt lat="42.575821" lon="2.428599">
        <ele>590.057</ele>
        <time>2021-05-28T21:44:55Z</time>
      </trkpt>
      <trkpt lat="42.575850" lon="2.428595">
        <ele>590.078</ele>
        <time>2021-05-28T21:44:57Z</time>
      </trkpt>
      <trkpt lat="42.575877" lon="2.428590">
        <ele>590.057</ele>
        <time>2021-05-28T21:44:59Z</time>
      </trkpt>
      <trkpt lat="42.575906" lon="2.428583">
        <ele>590.044</ele>
        <time>2021-05-28T21:45:01Z</time>
      </trkpt>
      <trkpt lat="42.575935" lon="2.428576">
        <ele>590.099</ele>
        <time>2021-05-28T21:45:03Z</time>
      </trkpt>
      <trkpt lat="42.575966" lon="2.428573">
        <ele>590.026</ele>
        <time>2021-05-28T21:45:05Z</time>
      </trkpt>
      <trkpt lat="42.576054" lon="2.428529">
        <ele>590.014</ele>
        <time>2021-05-28T21:45:13Z</time>
      </trkpt>
      <trkpt lat="42.576142" lon="2.428463">
        <ele>589.779</ele>
        <time>2021-05-28T21:45:18Z</time>
      </trkpt>
      <trkpt lat="42.576164" lon="2.428457">
        <ele>589.505</ele>
        <time>2021-05-28T21:45:20Z</time>
      </trkpt>
      <trkpt lat="42.576190" lon="2.428451">
        <ele>589.325</ele>
        <time>2021-05-28T21:45:21Z</time>
      </trkpt>
      <trkpt lat="42.576217" lon="2.428444">
        <ele>589.008</ele>
        <time>2021-05-28T21:45:23Z</time>
      </trkpt>
      <trkpt lat="42.576245" lon="2.428435">
        <ele>588.784</ele>
        <time>2021-05-28T21:45:25Z</time>
      </trkpt>
      <trkpt lat="42.576277" lon="2.428416">
        <ele>588.441</ele>
        <time>2021-05-28T21:45:27Z</time>
      </trkpt>
      <trkpt lat="42.576310" lon="2.428399">
        <ele>588.072</ele>
        <time>2021-05-28T21:45:29Z</time>
      </trkpt>
      <trkpt lat="42.576341" lon="2.428383">
        <ele>587.791</ele>
        <time>2021-05-28T21:45:31Z</time>
      </trkpt>
      <trkpt lat="42.576371" lon="2.428370">
        <ele>587.338</ele>
        <time>2021-05-28T21:45:33Z</time>
      </trkpt>
      <trkpt lat="42.576399" lon="2.428358">
        <ele>587.053</ele>
        <time>2021-05-28T21:45:35Z</time>
      </trkpt>
      <trkpt lat="42.576427" lon="2.428350">
        <ele>586.670</ele>
        <time>2021-05-28T21:45:37Z</time>
      </trkpt>
      <trkpt lat="42.576454" lon="2.428342">
        <ele>586.398</ele>
        <time>2021-05-28T21:45:39Z</time>
      </trkpt>
      <trkpt lat="42.576481" lon="2.428331">
        <ele>586.049</ele>
        <time>2021-05-28T21:45:41Z</time>
      </trkpt>
      <trkpt lat="42.576510" lon="2.428320">
        <ele>585.602</ele>
        <time>2021-05-28T21:45:43Z</time>
      </trkpt>
      <trkpt lat="42.576539" lon="2.428308">
        <ele>585.222</ele>
        <time>2021-05-28T21:45:45Z</time>
      </trkpt>
      <trkpt lat="42.576564" lon="2.428297">
        <ele>584.808</ele>
        <time>2021-05-28T21:45:47Z</time>
      </trkpt>
      <trkpt lat="42.576597" lon="2.428284">
        <ele>584.481</ele>
        <time>2021-05-28T21:45:49Z</time>
      </trkpt>
      <trkpt lat="42.576630" lon="2.428281">
        <ele>584.088</ele>
        <time>2021-05-28T21:45:51Z</time>
      </trkpt>
      <trkpt lat="42.576648" lon="2.428284">
        <ele>583.899</ele>
        <time>2021-05-28T21:45:52Z</time>
      </trkpt>
      <trkpt lat="42.576679" lon="2.428284">
        <ele>583.558</ele>
        <time>2021-05-28T21:45:54Z</time>
      </trkpt>
      <trkpt lat="42.576713" lon="2.428285">
        <ele>583.295</ele>
        <time>2021-05-28T21:45:56Z</time>
      </trkpt>
      <trkpt lat="42.576743" lon="2.428288">
        <ele>582.980</ele>
        <time>2021-05-28T21:45:58Z</time>
      </trkpt>
      <trkpt lat="42.576771" lon="2.428295">
        <ele>582.647</ele>
        <time>2021-05-28T21:46:00Z</time>
      </trkpt>
      <trkpt lat="42.576803" lon="2.428297">
        <ele>582.395</ele>
        <time>2021-05-28T21:46:02Z</time>
      </trkpt>
      <trkpt lat="42.576832" lon="2.428305">
        <ele>582.128</ele>
        <time>2021-05-28T21:46:05Z</time>
      </trkpt>
      <trkpt lat="42.576859" lon="2.428310">
        <ele>581.889</ele>
        <time>2021-05-28T21:46:06Z</time>
      </trkpt>
      <trkpt lat="42.576887" lon="2.428316">
        <ele>581.517</ele>
        <time>2021-05-28T21:46:08Z</time>
      </trkpt>
      <trkpt lat="42.576919" lon="2.428327">
        <ele>581.208</ele>
        <time>2021-05-28T21:46:10Z</time>
      </trkpt>
      <trkpt lat="42.576949" lon="2.428332">
        <ele>580.989</ele>
        <time>2021-05-28T21:46:12Z</time>
      </trkpt>
      <trkpt lat="42.576973" lon="2.428344">
        <ele>580.896</ele>
        <time>2021-05-28T21:46:14Z</time>
      </trkpt>
      <trkpt lat="42.576996" lon="2.428368">
        <ele>580.767</ele>
        <time>2021-05-28T21:46:16Z</time>
      </trkpt>
      <trkpt lat="42.577015" lon="2.428394">
        <ele>580.696</ele>
        <time>2021-05-28T21:46:18Z</time>
      </trkpt>
      <trkpt lat="42.577037" lon="2.428416">
        <ele>580.513</ele>
        <time>2021-05-28T21:46:20Z</time>
      </trkpt>
      <trkpt lat="42.577062" lon="2.428440">
        <ele>580.368</ele>
        <time>2021-05-28T21:46:22Z</time>
      </trkpt>
      <trkpt lat="42.577084" lon="2.428465">
        <ele>580.285</ele>
        <time>2021-05-28T21:46:24Z</time>
      </trkpt>
      <trkpt lat="42.577114" lon="2.428485">
        <ele>579.963</ele>
        <time>2021-05-28T21:46:26Z</time>
      </trkpt>
      <trkpt lat="42.577161" lon="2.428500">
        <ele>579.458</ele>
        <time>2021-05-28T21:46:29Z</time>
      </trkpt>
      <trkpt lat="42.577186" lon="2.428506">
        <ele>579.152</ele>
        <time>2021-05-28T21:46:31Z</time>
      </trkpt>
      <trkpt lat="42.577204" lon="2.428501">
        <ele>578.817</ele>
        <time>2021-05-28T21:46:32Z</time>
      </trkpt>
      <trkpt lat="42.577233" lon="2.428495">
        <ele>578.308</ele>
        <time>2021-05-28T21:46:34Z</time>
      </trkpt>
      <trkpt lat="42.577261" lon="2.428485">
        <ele>577.582</ele>
        <time>2021-05-28T21:46:36Z</time>
      </trkpt>
      <trkpt lat="42.577292" lon="2.428477">
        <ele>576.649</ele>
        <time>2021-05-28T21:46:38Z</time>
      </trkpt>
      <trkpt lat="42.577324" lon="2.428471">
        <ele>575.710</ele>
        <time>2021-05-28T21:46:40Z</time>
      </trkpt>
      <trkpt lat="42.577344" lon="2.428468">
        <ele>575.299</ele>
        <time>2021-05-28T21:46:41Z</time>
      </trkpt>
      <trkpt lat="42.577378" lon="2.428455">
        <ele>574.396</ele>
        <time>2021-05-28T21:46:43Z</time>
      </trkpt>
      <trkpt lat="42.577409" lon="2.428448">
        <ele>573.451</ele>
        <time>2021-05-28T21:46:45Z</time>
      </trkpt>
      <trkpt lat="42.577439" lon="2.428448">
        <ele>572.648</ele>
        <time>2021-05-28T21:46:48Z</time>
      </trkpt>
      <trkpt lat="42.577466" lon="2.428445">
        <ele>571.986</ele>
        <time>2021-05-28T21:46:49Z</time>
      </trkpt>
      <trkpt lat="42.577496" lon="2.428442">
        <ele>571.157</ele>
        <time>2021-05-28T21:46:51Z</time>
      </trkpt>
      <trkpt lat="42.577601" lon="2.428418">
        <ele>570.400</ele>
        <time>2021-05-28T21:46:58Z</time>
      </trkpt>
      <trkpt lat="42.577695" lon="2.428436">
        <ele>569.820</ele>
        <time>2021-05-28T21:47:05Z</time>
      </trkpt>
      <trkpt lat="42.577714" lon="2.428433">
        <ele>569.708</ele>
        <time>2021-05-28T21:47:07Z</time>
      </trkpt>
      <trkpt lat="42.577739" lon="2.428434">
        <ele>569.522</ele>
        <time>2021-05-28T21:47:09Z</time>
      </trkpt>
      <trkpt lat="42.577772" lon="2.428437">
        <ele>569.399</ele>
        <time>2021-05-28T21:47:15Z</time>
      </trkpt>
      <trkpt lat="42.577801" lon="2.428447">
        <ele>569.040</ele>
        <time>2021-05-28T21:47:17Z</time>
      </trkpt>
      <trkpt lat="42.577828" lon="2.428454">
        <ele>568.729</ele>
        <time>2021-05-28T21:47:19Z</time>
      </trkpt>
      <trkpt lat="42.577857" lon="2.428460">
        <ele>568.326</ele>
        <time>2021-05-28T21:47:21Z</time>
      </trkpt>
      <trkpt lat="42.577885" lon="2.428468">
        <ele>567.921</ele>
        <time>2021-05-28T21:47:23Z</time>
      </trkpt>
      <trkpt lat="42.577915" lon="2.428466">
        <ele>567.688</ele>
        <time>2021-05-28T21:47:25Z</time>
      </trkpt>
      <trkpt lat="42.577946" lon="2.428464">
        <ele>567.456</ele>
        <time>2021-05-28T21:47:27Z</time>
      </trkpt>
      <trkpt lat="42.577972" lon="2.428475">
        <ele>566.863</ele>
        <time>2021-05-28T21:47:29Z</time>
      </trkpt>
      <trkpt lat="42.578000" lon="2.428485">
        <ele>566.344</ele>
        <time>2021-05-28T21:47:31Z</time>
      </trkpt>
      <trkpt lat="42.578040" lon="2.428491">
        <ele>565.618</ele>
        <time>2021-05-28T21:47:33Z</time>
      </trkpt>
      <trkpt lat="42.578058" lon="2.428498">
        <ele>565.208</ele>
        <time>2021-05-28T21:47:34Z</time>
      </trkpt>
      <trkpt lat="42.578078" lon="2.428502">
        <ele>565.023</ele>
        <time>2021-05-28T21:47:35Z</time>
      </trkpt>
      <trkpt lat="42.578098" lon="2.428506">
        <ele>564.730</ele>
        <time>2021-05-28T21:47:36Z</time>
      </trkpt>
      <trkpt lat="42.578133" lon="2.428512">
        <ele>564.231</ele>
        <time>2021-05-28T21:47:38Z</time>
      </trkpt>
      <trkpt lat="42.578161" lon="2.428515">
        <ele>563.970</ele>
        <time>2021-05-28T21:47:40Z</time>
      </trkpt>
      <trkpt lat="42.578188" lon="2.428523">
        <ele>563.437</ele>
        <time>2021-05-28T21:47:42Z</time>
      </trkpt>
      <trkpt lat="42.578214" lon="2.428519">
        <ele>563.332</ele>
        <time>2021-05-28T21:47:44Z</time>
      </trkpt>
      <trkpt lat="42.578238" lon="2.428526">
        <ele>562.969</ele>
        <time>2021-05-28T21:47:46Z</time>
      </trkpt>
      <trkpt lat="42.578263" lon="2.428534">
        <ele>562.487</ele>
        <time>2021-05-28T21:47:48Z</time>
      </trkpt>
      <trkpt lat="42.578291" lon="2.428543">
        <ele>561.868</ele>
        <time>2021-05-28T21:47:50Z</time>
      </trkpt>
      <trkpt lat="42.578323" lon="2.428546">
        <ele>561.442</ele>
        <time>2021-05-28T21:47:52Z</time>
      </trkpt>
      <trkpt lat="42.578354" lon="2.428538">
        <ele>561.626</ele>
        <time>2021-05-28T21:47:54Z</time>
      </trkpt>
      <trkpt lat="42.578384" lon="2.428533">
        <ele>561.708</ele>
        <time>2021-05-28T21:47:56Z</time>
      </trkpt>
      <trkpt lat="42.578415" lon="2.428533">
        <ele>561.653</ele>
        <time>2021-05-28T21:47:58Z</time>
      </trkpt>
      <trkpt lat="42.578446" lon="2.428537">
        <ele>561.530</ele>
        <time>2021-05-28T21:48:00Z</time>
      </trkpt>
      <trkpt lat="42.578474" lon="2.428540">
        <ele>561.361</ele>
        <time>2021-05-28T21:48:02Z</time>
      </trkpt>
      <trkpt lat="42.578505" lon="2.428542">
        <ele>561.250</ele>
        <time>2021-05-28T21:48:04Z</time>
      </trkpt>
      <trkpt lat="42.578536" lon="2.428542">
        <ele>561.177</ele>
        <time>2021-05-28T21:48:06Z</time>
      </trkpt>
      <trkpt lat="42.578566" lon="2.428541">
        <ele>561.112</ele>
        <time>2021-05-28T21:48:08Z</time>
      </trkpt>
      <trkpt lat="42.578602" lon="2.428535">
        <ele>561.279</ele>
        <time>2021-05-28T21:48:10Z</time>
      </trkpt>
      <trkpt lat="42.578621" lon="2.428530">
        <ele>561.317</ele>
        <time>2021-05-28T21:48:11Z</time>
      </trkpt>
      <trkpt lat="42.578651" lon="2.428519">
        <ele>561.715</ele>
        <time>2021-05-28T21:48:13Z</time>
      </trkpt>
      <trkpt lat="42.578684" lon="2.428502">
        <ele>562.165</ele>
        <time>2021-05-28T21:48:15Z</time>
      </trkpt>
      <trkpt lat="42.578710" lon="2.428487">
        <ele>562.511</ele>
        <time>2021-05-28T21:48:17Z</time>
      </trkpt>
      <trkpt lat="42.578732" lon="2.428469">
        <ele>562.908</ele>
        <time>2021-05-28T21:48:19Z</time>
      </trkpt>
      <trkpt lat="42.578755" lon="2.428445">
        <ele>563.418</ele>
        <time>2021-05-28T21:48:21Z</time>
      </trkpt>
      <trkpt lat="42.578779" lon="2.428420">
        <ele>563.925</ele>
        <time>2021-05-28T21:48:23Z</time>
      </trkpt>
      <trkpt lat="42.578799" lon="2.428390">
        <ele>564.476</ele>
        <time>2021-05-28T21:48:25Z</time>
      </trkpt>
      <trkpt lat="42.578815" lon="2.428357">
        <ele>565.015</ele>
        <time>2021-05-28T21:48:27Z</time>
      </trkpt>
      <trkpt lat="42.578831" lon="2.428324">
        <ele>565.452</ele>
        <time>2021-05-28T21:48:30Z</time>
      </trkpt>
      <trkpt lat="42.578845" lon="2.428290">
        <ele>565.397</ele>
        <time>2021-05-28T21:48:31Z</time>
      </trkpt>
      <trkpt lat="42.578861" lon="2.428259">
        <ele>565.284</ele>
        <time>2021-05-28T21:48:33Z</time>
      </trkpt>
      <trkpt lat="42.578867" lon="2.428231">
        <ele>565.242</ele>
        <time>2021-05-28T21:48:35Z</time>
      </trkpt>
      <trkpt lat="42.578874" lon="2.428197">
        <ele>565.131</ele>
        <time>2021-05-28T21:48:37Z</time>
      </trkpt>
      <trkpt lat="42.578890" lon="2.428159">
        <ele>565.061</ele>
        <time>2021-05-28T21:48:39Z</time>
      </trkpt>
      <trkpt lat="42.578907" lon="2.428120">
        <ele>564.807</ele>
        <time>2021-05-28T21:48:41Z</time>
      </trkpt>
      <trkpt lat="42.578923" lon="2.428078">
        <ele>564.608</ele>
        <time>2021-05-28T21:48:43Z</time>
      </trkpt>
      <trkpt lat="42.578939" lon="2.428035">
        <ele>564.450</ele>
        <time>2021-05-28T21:48:45Z</time>
      </trkpt>
      <trkpt lat="42.578960" lon="2.427998">
        <ele>564.117</ele>
        <time>2021-05-28T21:48:47Z</time>
      </trkpt>
      <trkpt lat="42.578980" lon="2.427958">
        <ele>563.878</ele>
        <time>2021-05-28T21:48:49Z</time>
      </trkpt>
      <trkpt lat="42.578987" lon="2.427935">
        <ele>563.797</ele>
        <time>2021-05-28T21:48:50Z</time>
      </trkpt>
      <trkpt lat="42.579002" lon="2.427897">
        <ele>563.454</ele>
        <time>2021-05-28T21:48:52Z</time>
      </trkpt>
      <trkpt lat="42.579020" lon="2.427858">
        <ele>563.249</ele>
        <time>2021-05-28T21:48:54Z</time>
      </trkpt>
      <trkpt lat="42.579035" lon="2.427822">
        <ele>563.076</ele>
        <time>2021-05-28T21:48:56Z</time>
      </trkpt>
      <trkpt lat="42.579052" lon="2.427784">
        <ele>562.894</ele>
        <time>2021-05-28T21:48:58Z</time>
      </trkpt>
      <trkpt lat="42.579062" lon="2.427763">
        <ele>562.783</ele>
        <time>2021-05-28T21:48:59Z</time>
      </trkpt>
      <trkpt lat="42.579071" lon="2.427742">
        <ele>562.625</ele>
        <time>2021-05-28T21:49:00Z</time>
      </trkpt>
      <trkpt lat="42.579083" lon="2.427699">
        <ele>562.317</ele>
        <time>2021-05-28T21:49:02Z</time>
      </trkpt>
      <trkpt lat="42.579099" lon="2.427663">
        <ele>562.108</ele>
        <time>2021-05-28T21:49:04Z</time>
      </trkpt>
      <trkpt lat="42.579113" lon="2.427628">
        <ele>561.865</ele>
        <time>2021-05-28T21:49:06Z</time>
      </trkpt>
      <trkpt lat="42.579126" lon="2.427590">
        <ele>561.632</ele>
        <time>2021-05-28T21:49:08Z</time>
      </trkpt>
      <trkpt lat="42.579136" lon="2.427554">
        <ele>561.423</ele>
        <time>2021-05-28T21:49:10Z</time>
      </trkpt>
      <trkpt lat="42.579151" lon="2.427521">
        <ele>561.252</ele>
        <time>2021-05-28T21:49:12Z</time>
      </trkpt>
      <trkpt lat="42.579165" lon="2.427489">
        <ele>561.079</ele>
        <time>2021-05-28T21:49:14Z</time>
      </trkpt>
      <trkpt lat="42.579179" lon="2.427458">
        <ele>560.934</ele>
        <time>2021-05-28T21:49:16Z</time>
      </trkpt>
      <trkpt lat="42.579195" lon="2.427431">
        <ele>560.861</ele>
        <time>2021-05-28T21:49:18Z</time>
      </trkpt>
      <trkpt lat="42.579214" lon="2.427402">
        <ele>560.679</ele>
        <time>2021-05-28T21:49:20Z</time>
      </trkpt>
      <trkpt lat="42.579229" lon="2.427370">
        <ele>560.443</ele>
        <time>2021-05-28T21:49:22Z</time>
      </trkpt>
      <trkpt lat="42.579243" lon="2.427340">
        <ele>560.364</ele>
        <time>2021-05-28T21:49:24Z</time>
      </trkpt>
      <trkpt lat="42.579259" lon="2.427311">
        <ele>560.110</ele>
        <time>2021-05-28T21:49:26Z</time>
      </trkpt>
      <trkpt lat="42.579273" lon="2.427280">
        <ele>559.908</ele>
        <time>2021-05-28T21:49:28Z</time>
      </trkpt>
      <trkpt lat="42.579291" lon="2.427250">
        <ele>559.761</ele>
        <time>2021-05-28T21:49:30Z</time>
      </trkpt>
      <trkpt lat="42.579306" lon="2.427216">
        <ele>559.578</ele>
        <time>2021-05-28T21:49:32Z</time>
      </trkpt>
      <trkpt lat="42.579319" lon="2.427183">
        <ele>559.359</ele>
        <time>2021-05-28T21:49:34Z</time>
      </trkpt>
      <trkpt lat="42.579331" lon="2.427149">
        <ele>559.138</ele>
        <time>2021-05-28T21:49:36Z</time>
      </trkpt>
      <trkpt lat="42.579345" lon="2.427115">
        <ele>558.965</ele>
        <time>2021-05-28T21:49:38Z</time>
      </trkpt>
      <trkpt lat="42.579358" lon="2.427081">
        <ele>558.830</ele>
        <time>2021-05-28T21:49:40Z</time>
      </trkpt>
      <trkpt lat="42.579372" lon="2.427050">
        <ele>558.647</ele>
        <time>2021-05-28T21:49:42Z</time>
      </trkpt>
      <trkpt lat="42.579389" lon="2.427020">
        <ele>558.575</ele>
        <time>2021-05-28T21:49:45Z</time>
      </trkpt>
      <trkpt lat="42.579401" lon="2.426989">
        <ele>558.337</ele>
        <time>2021-05-28T21:49:46Z</time>
      </trkpt>
      <trkpt lat="42.579417" lon="2.426956">
        <ele>558.249</ele>
        <time>2021-05-28T21:49:48Z</time>
      </trkpt>
      <trkpt lat="42.579431" lon="2.426926">
        <ele>558.013</ele>
        <time>2021-05-28T21:49:50Z</time>
      </trkpt>
      <trkpt lat="42.579442" lon="2.426898">
        <ele>557.908</ele>
        <time>2021-05-28T21:49:52Z</time>
      </trkpt>
      <trkpt lat="42.579453" lon="2.426868">
        <ele>557.770</ele>
        <time>2021-05-28T21:49:54Z</time>
      </trkpt>
      <trkpt lat="42.579466" lon="2.426838">
        <ele>557.577</ele>
        <time>2021-05-28T21:49:56Z</time>
      </trkpt>
      <trkpt lat="42.579474" lon="2.426811">
        <ele>557.348</ele>
        <time>2021-05-28T21:50:01Z</time>
      </trkpt>
      <trkpt lat="42.579483" lon="2.426789">
        <ele>557.227</ele>
        <time>2021-05-28T21:50:04Z</time>
      </trkpt>
      <trkpt lat="42.579497" lon="2.426758">
        <ele>557.084</ele>
        <time>2021-05-28T21:50:05Z</time>
      </trkpt>
      <trkpt lat="42.579513" lon="2.426724">
        <ele>556.789</ele>
        <time>2021-05-28T21:50:07Z</time>
      </trkpt>
      <trkpt lat="42.579530" lon="2.426690">
        <ele>556.566</ele>
        <time>2021-05-28T21:50:09Z</time>
      </trkpt>
      <trkpt lat="42.579546" lon="2.426653">
        <ele>556.254</ele>
        <time>2021-05-28T21:50:11Z</time>
      </trkpt>
      <trkpt lat="42.579561" lon="2.426620">
        <ele>555.925</ele>
        <time>2021-05-28T21:50:13Z</time>
      </trkpt>
      <trkpt lat="42.579576" lon="2.426589">
        <ele>555.626</ele>
        <time>2021-05-28T21:50:15Z</time>
      </trkpt>
      <trkpt lat="42.579592" lon="2.426556">
        <ele>555.408</ele>
        <time>2021-05-28T21:50:17Z</time>
      </trkpt>
      <trkpt lat="42.579607" lon="2.426526">
        <ele>555.108</ele>
        <time>2021-05-28T21:50:19Z</time>
      </trkpt>
      <trkpt lat="42.579622" lon="2.426496">
        <ele>554.919</ele>
        <time>2021-05-28T21:50:21Z</time>
      </trkpt>
      <trkpt lat="42.579634" lon="2.426465">
        <ele>554.796</ele>
        <time>2021-05-28T21:50:24Z</time>
      </trkpt>
      <trkpt lat="42.579646" lon="2.426436">
        <ele>554.537</ele>
        <time>2021-05-28T21:50:25Z</time>
      </trkpt>
      <trkpt lat="42.579661" lon="2.426410">
        <ele>554.316</ele>
        <time>2021-05-28T21:50:27Z</time>
      </trkpt>
      <trkpt lat="42.579675" lon="2.426381">
        <ele>554.193</ele>
        <time>2021-05-28T21:50:29Z</time>
      </trkpt>
      <trkpt lat="42.579689" lon="2.426353">
        <ele>554.028</ele>
        <time>2021-05-28T21:50:31Z</time>
      </trkpt>
      <trkpt lat="42.579703" lon="2.426326">
        <ele>553.825</ele>
        <time>2021-05-28T21:50:33Z</time>
      </trkpt>
      <trkpt lat="42.579715" lon="2.426302">
        <ele>553.793</ele>
        <time>2021-05-28T21:50:35Z</time>
      </trkpt>
      <trkpt lat="42.579726" lon="2.426280">
        <ele>553.676</ele>
        <time>2021-05-28T21:50:37Z</time>
      </trkpt>
      <trkpt lat="42.579740" lon="2.426243">
        <ele>553.490</ele>
        <time>2021-05-28T21:50:46Z</time>
      </trkpt>
      <trkpt lat="42.579754" lon="2.426209">
        <ele>553.219</ele>
        <time>2021-05-28T21:50:47Z</time>
      </trkpt>
      <trkpt lat="42.579771" lon="2.426170">
        <ele>553.008</ele>
        <time>2021-05-28T21:50:49Z</time>
      </trkpt>
      <trkpt lat="42.579789" lon="2.426135">
        <ele>552.884</ele>
        <time>2021-05-28T21:50:51Z</time>
      </trkpt>
      <trkpt lat="42.579814" lon="2.426100">
        <ele>552.661</ele>
        <time>2021-05-28T21:50:53Z</time>
      </trkpt>
      <trkpt lat="42.579837" lon="2.426059">
        <ele>552.342</ele>
        <time>2021-05-28T21:50:55Z</time>
      </trkpt>
      <trkpt lat="42.579856" lon="2.426022">
        <ele>552.041</ele>
        <time>2021-05-28T21:50:57Z</time>
      </trkpt>
      <trkpt lat="42.579869" lon="2.426005">
        <ele>551.988</ele>
        <time>2021-05-28T21:50:58Z</time>
      </trkpt>
      <trkpt lat="42.579887" lon="2.425974">
        <ele>551.713</ele>
        <time>2021-05-28T21:51:00Z</time>
      </trkpt>
      <trkpt lat="42.579913" lon="2.425947">
        <ele>551.530</ele>
        <time>2021-05-28T21:51:02Z</time>
      </trkpt>
      <trkpt lat="42.579937" lon="2.425920">
        <ele>551.488</ele>
        <time>2021-05-28T21:51:04Z</time>
      </trkpt>
      <trkpt lat="42.579956" lon="2.425894">
        <ele>551.348</ele>
        <time>2021-05-28T21:51:06Z</time>
      </trkpt>
      <trkpt lat="42.579988" lon="2.425872">
        <ele>551.161</ele>
        <time>2021-05-28T21:51:08Z</time>
      </trkpt>
      <trkpt lat="42.580005" lon="2.425862">
        <ele>551.117</ele>
        <time>2021-05-28T21:51:09Z</time>
      </trkpt>
      <trkpt lat="42.580030" lon="2.425837">
        <ele>550.808</ele>
        <time>2021-05-28T21:51:11Z</time>
      </trkpt>
      <trkpt lat="42.580055" lon="2.425809">
        <ele>550.561</ele>
        <time>2021-05-28T21:51:13Z</time>
      </trkpt>
      <trkpt lat="42.580083" lon="2.425793">
        <ele>550.238</ele>
        <time>2021-05-28T21:51:15Z</time>
      </trkpt>
      <trkpt lat="42.580112" lon="2.425768">
        <ele>549.849</ele>
        <time>2021-05-28T21:51:17Z</time>
      </trkpt>
      <trkpt lat="42.580126" lon="2.425753">
        <ele>549.548</ele>
        <time>2021-05-28T21:51:18Z</time>
      </trkpt>
      <trkpt lat="42.580158" lon="2.425737">
        <ele>549.195</ele>
        <time>2021-05-28T21:51:20Z</time>
      </trkpt>
      <trkpt lat="42.580177" lon="2.425733">
        <ele>548.950</ele>
        <time>2021-05-28T21:51:21Z</time>
      </trkpt>
      <trkpt lat="42.580206" lon="2.425717">
        <ele>548.587</ele>
        <time>2021-05-28T21:51:23Z</time>
      </trkpt>
      <trkpt lat="42.580234" lon="2.425698">
        <ele>548.085</ele>
        <time>2021-05-28T21:51:25Z</time>
      </trkpt>
      <trkpt lat="42.580258" lon="2.425675">
        <ele>547.515</ele>
        <time>2021-05-28T21:51:27Z</time>
      </trkpt>
      <trkpt lat="42.580283" lon="2.425659">
        <ele>547.165</ele>
        <time>2021-05-28T21:51:29Z</time>
      </trkpt>
      <trkpt lat="42.580313" lon="2.425640">
        <ele>546.511</ele>
        <time>2021-05-28T21:51:31Z</time>
      </trkpt>
      <trkpt lat="42.580342" lon="2.425623">
        <ele>546.008</ele>
        <time>2021-05-28T21:51:33Z</time>
      </trkpt>
      <trkpt lat="42.580370" lon="2.425603">
        <ele>545.538</ele>
        <time>2021-05-28T21:51:35Z</time>
      </trkpt>
      <trkpt lat="42.580396" lon="2.425585">
        <ele>545.065</ele>
        <time>2021-05-28T21:51:37Z</time>
      </trkpt>
      <trkpt lat="42.580424" lon="2.425568">
        <ele>544.516</ele>
        <time>2021-05-28T21:51:39Z</time>
      </trkpt>
      <trkpt lat="42.580451" lon="2.425548">
        <ele>544.135</ele>
        <time>2021-05-28T21:51:41Z</time>
      </trkpt>
      <trkpt lat="42.580477" lon="2.425526">
        <ele>543.682</ele>
        <time>2021-05-28T21:51:43Z</time>
      </trkpt>
      <trkpt lat="42.580493" lon="2.425515">
        <ele>543.447</ele>
        <time>2021-05-28T21:51:44Z</time>
      </trkpt>
      <trkpt lat="42.580511" lon="2.425502">
        <ele>543.184</ele>
        <time>2021-05-28T21:51:45Z</time>
      </trkpt>
      <trkpt lat="42.580538" lon="2.425481">
        <ele>542.642</ele>
        <time>2021-05-28T21:51:47Z</time>
      </trkpt>
      <trkpt lat="42.580555" lon="2.425470">
        <ele>542.449</ele>
        <time>2021-05-28T21:51:48Z</time>
      </trkpt>
      <trkpt lat="42.580584" lon="2.425453">
        <ele>542.202</ele>
        <time>2021-05-28T21:51:50Z</time>
      </trkpt>
      <trkpt lat="42.580614" lon="2.425434">
        <ele>542.022</ele>
        <time>2021-05-28T21:51:52Z</time>
      </trkpt>
      <trkpt lat="42.580631" lon="2.425421">
        <ele>541.908</ele>
        <time>2021-05-28T21:51:53Z</time>
      </trkpt>
      <trkpt lat="42.580660" lon="2.425397">
        <ele>541.731</ele>
        <time>2021-05-28T21:51:55Z</time>
      </trkpt>
      <trkpt lat="42.580687" lon="2.425370">
        <ele>541.538</ele>
        <time>2021-05-28T21:51:57Z</time>
      </trkpt>
      <trkpt lat="42.580717" lon="2.425342">
        <ele>541.339</ele>
        <time>2021-05-28T21:51:59Z</time>
      </trkpt>
      <trkpt lat="42.580744" lon="2.425320">
        <ele>541.288</ele>
        <time>2021-05-28T21:52:01Z</time>
      </trkpt>
      <trkpt lat="42.580770" lon="2.425300">
        <ele>541.195</ele>
        <time>2021-05-28T21:52:03Z</time>
      </trkpt>
      <trkpt lat="42.580798" lon="2.425283">
        <ele>541.040</ele>
        <time>2021-05-28T21:52:05Z</time>
      </trkpt>
      <trkpt lat="42.580815" lon="2.425271">
        <ele>541.017</ele>
        <time>2021-05-28T21:52:06Z</time>
      </trkpt>
      <trkpt lat="42.580831" lon="2.425260">
        <ele>540.935</ele>
        <time>2021-05-28T21:52:07Z</time>
      </trkpt>
      <trkpt lat="42.580859" lon="2.425238">
        <ele>540.832</ele>
        <time>2021-05-28T21:52:09Z</time>
      </trkpt>
      <trkpt lat="42.580877" lon="2.425221">
        <ele>540.692</ele>
        <time>2021-05-28T21:52:11Z</time>
      </trkpt>
      <trkpt lat="42.580894" lon="2.425208">
        <ele>540.511</ele>
        <time>2021-05-28T21:52:13Z</time>
      </trkpt>
      <trkpt lat="42.580925" lon="2.425191">
        <ele>540.408</ele>
        <time>2021-05-28T21:52:15Z</time>
      </trkpt>
      <trkpt lat="42.580955" lon="2.425178">
        <ele>540.250</ele>
        <time>2021-05-28T21:52:17Z</time>
      </trkpt>
      <trkpt lat="42.580985" lon="2.425160">
        <ele>540.027</ele>
        <time>2021-05-28T21:52:19Z</time>
      </trkpt>
      <trkpt lat="42.581013" lon="2.425144">
        <ele>539.998</ele>
        <time>2021-05-28T21:52:21Z</time>
      </trkpt>
      <trkpt lat="42.580988" lon="2.425146">
        <ele>540.027</ele>
        <time>2021-05-28T21:52:31Z</time>
      </trkpt>
      <trkpt lat="42.580967" lon="2.425157">
        <ele>540.144</ele>
        <time>2021-05-28T21:53:57Z</time>
      </trkpt>
      <trkpt lat="42.580948" lon="2.425171">
        <ele>540.219</ele>
        <time>2021-05-28T21:54:01Z</time>
      </trkpt>
      <trkpt lat="42.580926" lon="2.425189">
        <ele>540.316</ele>
        <time>2021-05-28T21:54:03Z</time>
      </trkpt>
      <trkpt lat="42.580904" lon="2.425207">
        <ele>540.534</ele>
        <time>2021-05-28T21:54:07Z</time>
      </trkpt>
      <trkpt lat="42.580883" lon="2.425224">
        <ele>540.651</ele>
        <time>2021-05-28T21:54:09Z</time>
      </trkpt>
      <trkpt lat="42.580866" lon="2.425235">
        <ele>540.701</ele>
        <time>2021-05-28T21:54:12Z</time>
      </trkpt>
      <trkpt lat="42.580841" lon="2.425247">
        <ele>540.911</ele>
        <time>2021-05-28T21:54:14Z</time>
      </trkpt>
      <trkpt lat="42.580817" lon="2.425264">
        <ele>541.008</ele>
        <time>2021-05-28T21:54:18Z</time>
      </trkpt>
      <trkpt lat="42.580801" lon="2.425273">
        <ele>541.052</ele>
        <time>2021-05-28T21:54:19Z</time>
      </trkpt>
      <trkpt lat="42.580784" lon="2.425286">
        <ele>541.029</ele>
        <time>2021-05-28T21:54:21Z</time>
      </trkpt>
      <trkpt lat="42.580768" lon="2.425298">
        <ele>541.110</ele>
        <time>2021-05-28T21:54:23Z</time>
      </trkpt>
      <trkpt lat="42.580751" lon="2.425310">
        <ele>541.199</ele>
        <time>2021-05-28T21:54:25Z</time>
      </trkpt>
      <trkpt lat="42.580734" lon="2.425324">
        <ele>541.216</ele>
        <time>2021-05-28T21:54:27Z</time>
      </trkpt>
      <trkpt lat="42.580715" lon="2.425336">
        <ele>541.361</ele>
        <time>2021-05-28T21:54:29Z</time>
      </trkpt>
      <trkpt lat="42.580697" lon="2.425342">
        <ele>541.348</ele>
        <time>2021-05-28T21:54:32Z</time>
      </trkpt>
      <trkpt lat="42.580680" lon="2.425356">
        <ele>541.456</ele>
        <time>2021-05-28T21:54:33Z</time>
      </trkpt>
      <trkpt lat="42.580660" lon="2.425370">
        <ele>541.526</ele>
        <time>2021-05-28T21:54:35Z</time>
      </trkpt>
      <trkpt lat="42.580642" lon="2.425383">
        <ele>541.647</ele>
        <time>2021-05-28T21:54:37Z</time>
      </trkpt>
      <trkpt lat="42.580623" lon="2.425399">
        <ele>541.811</ele>
        <time>2021-05-28T21:54:39Z</time>
      </trkpt>
      <trkpt lat="42.580605" lon="2.425413">
        <ele>541.908</ele>
        <time>2021-05-28T21:54:41Z</time>
      </trkpt>
      <trkpt lat="42.580587" lon="2.425426">
        <ele>542.029</ele>
        <time>2021-05-28T21:54:43Z</time>
      </trkpt>
      <trkpt lat="42.580570" lon="2.425438">
        <ele>542.176</ele>
        <time>2021-05-28T21:54:45Z</time>
      </trkpt>
      <trkpt lat="42.580554" lon="2.425451">
        <ele>542.327</ele>
        <time>2021-05-28T21:54:47Z</time>
      </trkpt>
      <trkpt lat="42.580532" lon="2.425466">
        <ele>542.626</ele>
        <time>2021-05-28T21:54:50Z</time>
      </trkpt>
      <trkpt lat="42.580515" lon="2.425476">
        <ele>542.883</ele>
        <time>2021-05-28T21:54:52Z</time>
      </trkpt>
      <trkpt lat="42.580495" lon="2.425484">
        <ele>543.128</ele>
        <time>2021-05-28T21:54:54Z</time>
      </trkpt>
      <trkpt lat="42.580471" lon="2.425501">
        <ele>543.555</ele>
        <time>2021-05-28T21:54:57Z</time>
      </trkpt>
      <trkpt lat="42.580446" lon="2.425508">
        <ele>543.863</ele>
        <time>2021-05-28T21:55:00Z</time>
      </trkpt>
      <trkpt lat="42.580427" lon="2.425498">
        <ele>543.978</ele>
        <time>2021-05-28T21:55:03Z</time>
      </trkpt>
      <trkpt lat="42.580411" lon="2.425482">
        <ele>543.933</ele>
        <time>2021-05-28T21:55:04Z</time>
      </trkpt>
      <trkpt lat="42.580403" lon="2.425460">
        <ele>543.826</ele>
        <time>2021-05-28T21:55:06Z</time>
      </trkpt>
      <trkpt lat="42.580393" lon="2.425433">
        <ele>543.608</ele>
        <time>2021-05-28T21:55:08Z</time>
      </trkpt>
      <trkpt lat="42.580382" lon="2.425409">
        <ele>543.534</ele>
        <time>2021-05-28T21:55:11Z</time>
      </trkpt>
      <trkpt lat="42.580371" lon="2.425381">
        <ele>543.391</ele>
        <time>2021-05-28T21:55:12Z</time>
      </trkpt>
      <trkpt lat="42.580358" lon="2.425353">
        <ele>543.222</ele>
        <time>2021-05-28T21:55:14Z</time>
      </trkpt>
      <trkpt lat="42.580352" lon="2.425330">
        <ele>543.041</ele>
        <time>2021-05-28T21:55:16Z</time>
      </trkpt>
      <trkpt lat="42.580346" lon="2.425302">
        <ele>542.738</ele>
        <time>2021-05-28T21:55:18Z</time>
      </trkpt>
      <trkpt lat="42.580335" lon="2.425273">
        <ele>542.573</ele>
        <time>2021-05-28T21:55:20Z</time>
      </trkpt>
      <trkpt lat="42.580324" lon="2.425238">
        <ele>542.320</ele>
        <time>2021-05-28T21:55:22Z</time>
      </trkpt>
      <trkpt lat="42.580314" lon="2.425206">
        <ele>542.038</ele>
        <time>2021-05-28T21:55:24Z</time>
      </trkpt>
      <trkpt lat="42.580303" lon="2.425181">
        <ele>541.882</ele>
        <time>2021-05-28T21:55:26Z</time>
      </trkpt>
      <trkpt lat="42.580294" lon="2.425156">
        <ele>541.643</ele>
        <time>2021-05-28T21:55:28Z</time>
      </trkpt>
      <trkpt lat="42.580285" lon="2.425126">
        <ele>541.317</ele>
        <time>2021-05-28T21:55:30Z</time>
      </trkpt>
      <trkpt lat="42.580275" lon="2.425100">
        <ele>541.108</ele>
        <time>2021-05-28T21:55:32Z</time>
      </trkpt>
      <trkpt lat="42.580266" lon="2.425074">
        <ele>540.915</ele>
        <time>2021-05-28T21:55:34Z</time>
      </trkpt>
      <trkpt lat="42.580254" lon="2.425047">
        <ele>540.732</ele>
        <time>2021-05-28T21:55:36Z</time>
      </trkpt>
      <trkpt lat="42.580244" lon="2.425022">
        <ele>540.573</ele>
        <time>2021-05-28T21:55:38Z</time>
      </trkpt>
      <trkpt lat="42.580234" lon="2.424992">
        <ele>540.372</ele>
        <time>2021-05-28T21:55:40Z</time>
      </trkpt>
      <trkpt lat="42.580225" lon="2.424964">
        <ele>540.329</ele>
        <time>2021-05-28T21:55:42Z</time>
      </trkpt>
      <trkpt lat="42.580218" lon="2.424937">
        <ele>540.364</ele>
        <time>2021-05-28T21:55:45Z</time>
      </trkpt>
      <trkpt lat="42.580207" lon="2.424913">
        <ele>540.421</ele>
        <time>2021-05-28T21:55:46Z</time>
      </trkpt>
      <trkpt lat="42.580196" lon="2.424889">
        <ele>540.439</ele>
        <time>2021-05-28T21:55:48Z</time>
      </trkpt>
      <trkpt lat="42.580186" lon="2.424866">
        <ele>540.558</ele>
        <time>2021-05-28T21:55:50Z</time>
      </trkpt>
      <trkpt lat="42.580178" lon="2.424843">
        <ele>540.652</ele>
        <time>2021-05-28T21:55:52Z</time>
      </trkpt>
      <trkpt lat="42.580165" lon="2.424819">
        <ele>540.717</ele>
        <time>2021-05-28T21:55:54Z</time>
      </trkpt>
      <trkpt lat="42.580158" lon="2.424790">
        <ele>540.808</ele>
        <time>2021-05-28T21:55:56Z</time>
      </trkpt>
      <trkpt lat="42.580151" lon="2.424760">
        <ele>540.872</ele>
        <time>2021-05-28T21:55:58Z</time>
      </trkpt>
      <trkpt lat="42.580144" lon="2.424733">
        <ele>540.949</ele>
        <time>2021-05-28T21:56:00Z</time>
      </trkpt>
      <trkpt lat="42.580135" lon="2.424710">
        <ele>541.380</ele>
        <time>2021-05-28T21:56:02Z</time>
      </trkpt>
      <trkpt lat="42.580124" lon="2.424684">
        <ele>541.899</ele>
        <time>2021-05-28T21:56:04Z</time>
      </trkpt>
      <trkpt lat="42.580115" lon="2.424659">
        <ele>542.446</ele>
        <time>2021-05-28T21:56:06Z</time>
      </trkpt>
      <trkpt lat="42.580111" lon="2.424634">
        <ele>542.991</ele>
        <time>2021-05-28T21:56:08Z</time>
      </trkpt>
      <trkpt lat="42.580105" lon="2.424607">
        <ele>543.438</ele>
        <time>2021-05-28T21:56:10Z</time>
      </trkpt>
      <trkpt lat="42.580097" lon="2.424581">
        <ele>544.096</ele>
        <time>2021-05-28T21:56:12Z</time>
      </trkpt>
      <trkpt lat="42.580090" lon="2.424557">
        <ele>544.589</ele>
        <time>2021-05-28T21:56:14Z</time>
      </trkpt>
      <trkpt lat="42.580086" lon="2.424531">
        <ele>545.006</ele>
        <time>2021-05-28T21:56:16Z</time>
      </trkpt>
      <trkpt lat="42.580086" lon="2.424503">
        <ele>545.526</ele>
        <time>2021-05-28T21:56:18Z</time>
      </trkpt>
      <trkpt lat="42.580086" lon="2.424478">
        <ele>545.908</ele>
        <time>2021-05-28T21:56:20Z</time>
      </trkpt>
      <trkpt lat="42.580086" lon="2.424451">
        <ele>546.375</ele>
        <time>2021-05-28T21:56:22Z</time>
      </trkpt>
      <trkpt lat="42.580082" lon="2.424416">
        <ele>547.152</ele>
        <time>2021-05-28T21:56:25Z</time>
      </trkpt>
      <trkpt lat="42.580088" lon="2.424382">
        <ele>547.893</ele>
        <time>2021-05-28T21:56:28Z</time>
      </trkpt>
      <trkpt lat="42.580095" lon="2.424360">
        <ele>548.132</ele>
        <time>2021-05-28T21:56:30Z</time>
      </trkpt>
      <trkpt lat="42.580104" lon="2.424327">
        <ele>548.639</ele>
        <time>2021-05-28T21:56:33Z</time>
      </trkpt>
      <trkpt lat="42.580116" lon="2.424295">
        <ele>549.094</ele>
        <time>2021-05-28T21:56:36Z</time>
      </trkpt>
      <trkpt lat="42.580132" lon="2.424271">
        <ele>549.151</ele>
        <time>2021-05-28T21:56:39Z</time>
      </trkpt>
      <trkpt lat="42.580146" lon="2.424251">
        <ele>549.139</ele>
        <time>2021-05-28T21:56:41Z</time>
      </trkpt>
      <trkpt lat="42.580158" lon="2.424232">
        <ele>549.245</ele>
        <time>2021-05-28T21:56:43Z</time>
      </trkpt>
      <trkpt lat="42.580173" lon="2.424213">
        <ele>549.247</ele>
        <time>2021-05-28T21:56:45Z</time>
      </trkpt>
      <trkpt lat="42.580188" lon="2.424197">
        <ele>549.011</ele>
        <time>2021-05-28T21:56:47Z</time>
      </trkpt>
      <trkpt lat="42.580202" lon="2.424177">
        <ele>549.008</ele>
        <time>2021-05-28T21:56:49Z</time>
      </trkpt>
      <trkpt lat="42.580214" lon="2.424157">
        <ele>549.131</ele>
        <time>2021-05-28T21:56:51Z</time>
      </trkpt>
      <trkpt lat="42.580230" lon="2.424141">
        <ele>549.048</ele>
        <time>2021-05-28T21:56:53Z</time>
      </trkpt>
      <trkpt lat="42.580248" lon="2.424111">
        <ele>549.139</ele>
        <time>2021-05-28T21:56:56Z</time>
      </trkpt>
      <trkpt lat="42.580260" lon="2.424090">
        <ele>549.298</ele>
        <time>2021-05-28T21:56:58Z</time>
      </trkpt>
      <trkpt lat="42.580281" lon="2.424067">
        <ele>549.175</ele>
        <time>2021-05-28T21:57:01Z</time>
      </trkpt>
      <trkpt lat="42.580298" lon="2.424044">
        <ele>549.310</ele>
        <time>2021-05-28T21:57:04Z</time>
      </trkpt>
      <trkpt lat="42.580312" lon="2.424023">
        <ele>549.587</ele>
        <time>2021-05-28T21:57:06Z</time>
      </trkpt>
      <trkpt lat="42.580327" lon="2.424006">
        <ele>549.595</ele>
        <time>2021-05-28T21:57:08Z</time>
      </trkpt>
      <trkpt lat="42.580344" lon="2.423988">
        <ele>549.554</ele>
        <time>2021-05-28T21:57:10Z</time>
      </trkpt>
      <trkpt lat="42.580358" lon="2.423971">
        <ele>549.556</ele>
        <time>2021-05-28T21:57:12Z</time>
      </trkpt>
      <trkpt lat="42.580369" lon="2.423942">
        <ele>549.811</ele>
        <time>2021-05-28T21:57:15Z</time>
      </trkpt>
      <trkpt lat="42.580391" lon="2.423924">
        <ele>549.608</ele>
        <time>2021-05-28T21:57:18Z</time>
      </trkpt>
      <trkpt lat="42.580405" lon="2.423902">
        <ele>549.642</ele>
        <time>2021-05-28T21:57:20Z</time>
      </trkpt>
      <trkpt lat="42.580425" lon="2.423887">
        <ele>549.389</ele>
        <time>2021-05-28T21:57:22Z</time>
      </trkpt>
      <trkpt lat="42.580445" lon="2.423876">
        <ele>549.010</ele>
        <time>2021-05-28T21:57:24Z</time>
      </trkpt>
      <trkpt lat="42.580464" lon="2.423859">
        <ele>548.849</ele>
        <time>2021-05-28T21:57:26Z</time>
      </trkpt>
      <trkpt lat="42.580486" lon="2.423844">
        <ele>548.496</ele>
        <time>2021-05-28T21:57:28Z</time>
      </trkpt>
      <trkpt lat="42.580503" lon="2.423831">
        <ele>548.131</ele>
        <time>2021-05-28T21:57:30Z</time>
      </trkpt>
      <trkpt lat="42.580519" lon="2.423815">
        <ele>547.968</ele>
        <time>2021-05-28T21:57:32Z</time>
      </trkpt>
      <trkpt lat="42.580535" lon="2.423801">
        <ele>547.656</ele>
        <time>2021-05-28T21:57:34Z</time>
      </trkpt>
      <trkpt lat="42.580555" lon="2.423787">
        <ele>547.163</ele>
        <time>2021-05-28T21:57:36Z</time>
      </trkpt>
      <trkpt lat="42.580575" lon="2.423772">
        <ele>547.044</ele>
        <time>2021-05-28T21:57:38Z</time>
      </trkpt>
      <trkpt lat="42.580591" lon="2.423755">
        <ele>546.918</ele>
        <time>2021-05-28T21:57:40Z</time>
      </trkpt>
      <trkpt lat="42.580605" lon="2.423735">
        <ele>547.008</ele>
        <time>2021-05-28T21:57:42Z</time>
      </trkpt>
      <trkpt lat="42.580619" lon="2.423712">
        <ele>547.123</ele>
        <time>2021-05-28T21:57:44Z</time>
      </trkpt>
      <trkpt lat="42.580636" lon="2.423691">
        <ele>547.190</ele>
        <time>2021-05-28T21:57:46Z</time>
      </trkpt>
      <trkpt lat="42.580654" lon="2.423669">
        <ele>547.291</ele>
        <time>2021-05-28T21:57:48Z</time>
      </trkpt>
      <trkpt lat="42.580669" lon="2.423648">
        <ele>547.390</ele>
        <time>2021-05-28T21:57:50Z</time>
      </trkpt>
      <trkpt lat="42.580681" lon="2.423628">
        <ele>547.497</ele>
        <time>2021-05-28T21:57:52Z</time>
      </trkpt>
      <trkpt lat="42.580702" lon="2.423603">
        <ele>547.672</ele>
        <time>2021-05-28T21:57:55Z</time>
      </trkpt>
      <trkpt lat="42.580719" lon="2.423577">
        <ele>547.889</ele>
        <time>2021-05-28T21:57:58Z</time>
      </trkpt>
      <trkpt lat="42.580735" lon="2.423562">
        <ele>547.927</ele>
        <time>2021-05-28T21:58:00Z</time>
      </trkpt>
      <trkpt lat="42.580753" lon="2.423552">
        <ele>548.092</ele>
        <time>2021-05-28T21:58:02Z</time>
      </trkpt>
      <trkpt lat="42.580771" lon="2.423541">
        <ele>548.073</ele>
        <time>2021-05-28T21:58:04Z</time>
      </trkpt>
      <trkpt lat="42.580791" lon="2.423538">
        <ele>547.920</ele>
        <time>2021-05-28T21:58:06Z</time>
      </trkpt>
      <trkpt lat="42.580808" lon="2.423532">
        <ele>547.908</ele>
        <time>2021-05-28T21:58:08Z</time>
      </trkpt>
      <trkpt lat="42.580826" lon="2.423533">
        <ele>547.776</ele>
        <time>2021-05-28T21:58:10Z</time>
      </trkpt>
      <trkpt lat="42.580850" lon="2.423533">
        <ele>547.473</ele>
        <time>2021-05-28T21:58:13Z</time>
      </trkpt>
      <trkpt lat="42.580879" lon="2.423536">
        <ele>546.894</ele>
        <time>2021-05-28T21:58:16Z</time>
      </trkpt>
      <trkpt lat="42.580903" lon="2.423525">
        <ele>546.713</ele>
        <time>2021-05-28T21:58:19Z</time>
      </trkpt>
      <trkpt lat="42.580923" lon="2.423509">
        <ele>546.750</ele>
        <time>2021-05-28T21:58:21Z</time>
      </trkpt>
      <trkpt lat="42.580939" lon="2.423495">
        <ele>546.955</ele>
        <time>2021-05-28T21:58:23Z</time>
      </trkpt>
      <trkpt lat="42.580955" lon="2.423482">
        <ele>547.012</ele>
        <time>2021-05-28T21:58:25Z</time>
      </trkpt>
      <trkpt lat="42.580979" lon="2.423467">
        <ele>547.150</ele>
        <time>2021-05-28T21:58:27Z</time>
      </trkpt>
      <trkpt lat="42.581003" lon="2.423452">
        <ele>547.214</ele>
        <time>2021-05-28T21:58:29Z</time>
      </trkpt>
      <trkpt lat="42.581025" lon="2.423441">
        <ele>547.254</ele>
        <time>2021-05-28T21:58:32Z</time>
      </trkpt>
      <trkpt lat="42.581048" lon="2.423435">
        <ele>547.109</ele>
        <time>2021-05-28T21:58:33Z</time>
      </trkpt>
      <trkpt lat="42.581074" lon="2.423422">
        <ele>547.208</ele>
        <time>2021-05-28T21:58:35Z</time>
      </trkpt>
      <trkpt lat="42.581100" lon="2.423404">
        <ele>547.648</ele>
        <time>2021-05-28T21:58:37Z</time>
      </trkpt>
      <trkpt lat="42.581129" lon="2.423381">
        <ele>547.995</ele>
        <time>2021-05-28T21:58:39Z</time>
      </trkpt>
      <trkpt lat="42.581153" lon="2.423365">
        <ele>548.046</ele>
        <time>2021-05-28T21:58:41Z</time>
      </trkpt>
      <trkpt lat="42.581177" lon="2.423351">
        <ele>548.095</ele>
        <time>2021-05-28T21:58:43Z</time>
      </trkpt>
      <trkpt lat="42.581206" lon="2.423334">
        <ele>547.922</ele>
        <time>2021-05-28T21:58:45Z</time>
      </trkpt>
      <trkpt lat="42.581224" lon="2.423323">
        <ele>548.087</ele>
        <time>2021-05-28T21:58:46Z</time>
      </trkpt>
      <trkpt lat="42.581242" lon="2.423314">
        <ele>547.934</ele>
        <time>2021-05-28T21:58:47Z</time>
      </trkpt>
      <trkpt lat="42.581263" lon="2.423305">
        <ele>547.822</ele>
        <time>2021-05-28T21:58:48Z</time>
      </trkpt>
      <trkpt lat="42.581280" lon="2.423292">
        <ele>547.941</ele>
        <time>2021-05-28T21:58:49Z</time>
      </trkpt>
      <trkpt lat="42.581296" lon="2.423279">
        <ele>548.081</ele>
        <time>2021-05-28T21:58:50Z</time>
      </trkpt>
      <trkpt lat="42.581314" lon="2.423264">
        <ele>548.109</ele>
        <time>2021-05-28T21:58:51Z</time>
      </trkpt>
      <trkpt lat="42.581343" lon="2.423242">
        <ele>548.108</ele>
        <time>2021-05-28T21:58:53Z</time>
      </trkpt>
      <trkpt lat="42.581361" lon="2.423233">
        <ele>548.091</ele>
        <time>2021-05-28T21:58:54Z</time>
      </trkpt>
      <trkpt lat="42.581379" lon="2.423227">
        <ele>547.788</ele>
        <time>2021-05-28T21:58:55Z</time>
      </trkpt>
      <trkpt lat="42.581399" lon="2.423225">
        <ele>547.329</ele>
        <time>2021-05-28T21:58:56Z</time>
      </trkpt>
      <trkpt lat="42.581435" lon="2.423218">
        <ele>546.718</ele>
        <time>2021-05-28T21:58:58Z</time>
      </trkpt>
      <trkpt lat="42.581465" lon="2.423198">
        <ele>546.655</ele>
        <time>2021-05-28T21:59:00Z</time>
      </trkpt>
      <trkpt lat="42.581491" lon="2.423179">
        <ele>546.690</ele>
        <time>2021-05-28T21:59:02Z</time>
      </trkpt>
      <trkpt lat="42.581516" lon="2.423163">
        <ele>546.597</ele>
        <time>2021-05-28T21:59:04Z</time>
      </trkpt>
      <trkpt lat="42.581540" lon="2.423150">
        <ele>546.355</ele>
        <time>2021-05-28T21:59:06Z</time>
      </trkpt>
      <trkpt lat="42.581568" lon="2.423132">
        <ele>546.259</ele>
        <time>2021-05-28T21:59:08Z</time>
      </trkpt>
      <trkpt lat="42.581593" lon="2.423121">
        <ele>545.903</ele>
        <time>2021-05-28T21:59:10Z</time>
      </trkpt>
      <trkpt lat="42.581622" lon="2.423110">
        <ele>545.523</ele>
        <time>2021-05-28T21:59:12Z</time>
      </trkpt>
      <trkpt lat="42.581647" lon="2.423103">
        <ele>545.108</ele>
        <time>2021-05-28T21:59:14Z</time>
      </trkpt>
      <trkpt lat="42.581674" lon="2.423092">
        <ele>544.832</ele>
        <time>2021-05-28T21:59:16Z</time>
      </trkpt>
      <trkpt lat="42.581707" lon="2.423093">
        <ele>543.979</ele>
        <time>2021-05-28T21:59:18Z</time>
      </trkpt>
      <trkpt lat="42.581738" lon="2.423083">
        <ele>543.510</ele>
        <time>2021-05-28T21:59:20Z</time>
      </trkpt>
      <trkpt lat="42.581770" lon="2.423073">
        <ele>542.969</ele>
        <time>2021-05-28T21:59:22Z</time>
      </trkpt>
      <trkpt lat="42.581803" lon="2.423063">
        <ele>542.426</ele>
        <time>2021-05-28T21:59:24Z</time>
      </trkpt>
      <trkpt lat="42.581821" lon="2.423055">
        <ele>542.141</ele>
        <time>2021-05-28T21:59:25Z</time>
      </trkpt>
      <trkpt lat="42.581841" lon="2.423048">
        <ele>541.718</ele>
        <time>2021-05-28T21:59:26Z</time>
      </trkpt>
      <trkpt lat="42.581872" lon="2.423037">
        <ele>541.266</ele>
        <time>2021-05-28T21:59:28Z</time>
      </trkpt>
      <trkpt lat="42.581890" lon="2.423030">
        <ele>540.885</ele>
        <time>2021-05-28T21:59:29Z</time>
      </trkpt>
      <trkpt lat="42.581908" lon="2.423022">
        <ele>540.589</ele>
        <time>2021-05-28T21:59:30Z</time>
      </trkpt>
      <trkpt lat="42.581934" lon="2.423009">
        <ele>540.117</ele>
        <time>2021-05-28T21:59:32Z</time>
      </trkpt>
      <trkpt lat="42.581961" lon="2.422998">
        <ele>539.808</ele>
        <time>2021-05-28T21:59:35Z</time>
      </trkpt>
      <trkpt lat="42.581994" lon="2.422984">
        <ele>539.625</ele>
        <time>2021-05-28T21:59:36Z</time>
      </trkpt>
      <trkpt lat="42.582013" lon="2.422978">
        <ele>539.492</ele>
        <time>2021-05-28T21:59:37Z</time>
      </trkpt>
      <trkpt lat="42.582042" lon="2.422967">
        <ele>539.223</ele>
        <time>2021-05-28T21:59:39Z</time>
      </trkpt>
      <trkpt lat="42.582069" lon="2.422960">
        <ele>538.982</ele>
        <time>2021-05-28T21:59:41Z</time>
      </trkpt>
      <trkpt lat="42.582090" lon="2.422954">
        <ele>538.759</ele>
        <time>2021-05-28T21:59:43Z</time>
      </trkpt>
      <trkpt lat="42.582111" lon="2.422950">
        <ele>538.494</ele>
        <time>2021-05-28T21:59:45Z</time>
      </trkpt>
      <trkpt lat="42.582138" lon="2.422952">
        <ele>538.051</ele>
        <time>2021-05-28T21:59:48Z</time>
      </trkpt>
      <trkpt lat="42.582170" lon="2.422948">
        <ele>537.639</ele>
        <time>2021-05-28T21:59:50Z</time>
      </trkpt>
      <trkpt lat="42.582188" lon="2.422944">
        <ele>537.394</ele>
        <time>2021-05-28T21:59:51Z</time>
      </trkpt>
      <trkpt lat="42.582207" lon="2.422940">
        <ele>537.157</ele>
        <time>2021-05-28T21:59:52Z</time>
      </trkpt>
      <trkpt lat="42.582226" lon="2.422936">
        <ele>536.922</ele>
        <time>2021-05-28T21:59:53Z</time>
      </trkpt>
      <trkpt lat="42.582254" lon="2.422923">
        <ele>536.908</ele>
        <time>2021-05-28T21:59:54Z</time>
      </trkpt>
      <trkpt lat="42.582285" lon="2.422909">
        <ele>536.926</ele>
        <time>2021-05-28T21:59:56Z</time>
      </trkpt>
      <trkpt lat="42.582314" lon="2.422895">
        <ele>537.033</ele>
        <time>2021-05-28T21:59:58Z</time>
      </trkpt>
      <trkpt lat="42.582337" lon="2.422886">
        <ele>537.194</ele>
        <time>2021-05-28T22:00:00Z</time>
      </trkpt>
      <trkpt lat="42.582365" lon="2.422888">
        <ele>537.013</ele>
        <time>2021-05-28T22:00:02Z</time>
      </trkpt>
      <trkpt lat="42.582398" lon="2.422880">
        <ele>537.050</ele>
        <time>2021-05-28T22:00:04Z</time>
      </trkpt>
      <trkpt lat="42.582424" lon="2.422882">
        <ele>537.015</ele>
        <time>2021-05-28T22:00:06Z</time>
      </trkpt>
      <trkpt lat="42.582444" lon="2.422877">
        <ele>537.022</ele>
        <time>2021-05-28T22:00:08Z</time>
      </trkpt>
      <trkpt lat="42.582465" lon="2.422873">
        <ele>537.090</ele>
        <time>2021-05-28T22:00:10Z</time>
      </trkpt>
      <trkpt lat="42.582495" lon="2.422872">
        <ele>537.083</ele>
        <time>2021-05-28T22:00:12Z</time>
      </trkpt>
      <trkpt lat="42.582514" lon="2.422869">
        <ele>536.925</ele>
        <time>2021-05-28T22:00:13Z</time>
      </trkpt>
      <trkpt lat="42.582533" lon="2.422868">
        <ele>536.917</ele>
        <time>2021-05-28T22:00:14Z</time>
      </trkpt>
      <trkpt lat="42.582553" lon="2.422861">
        <ele>536.908</ele>
        <time>2021-05-28T22:00:15Z</time>
      </trkpt>
      <trkpt lat="42.582586" lon="2.422849">
        <ele>536.835</ele>
        <time>2021-05-28T22:00:17Z</time>
      </trkpt>
      <trkpt lat="42.582604" lon="2.422843">
        <ele>536.892</ele>
        <time>2021-05-28T22:00:18Z</time>
      </trkpt>
      <trkpt lat="42.582623" lon="2.422839">
        <ele>536.883</ele>
        <time>2021-05-28T22:00:19Z</time>
      </trkpt>
      <trkpt lat="42.582655" lon="2.422828">
        <ele>536.872</ele>
        <time>2021-05-28T22:00:21Z</time>
      </trkpt>
      <trkpt lat="42.582673" lon="2.422821">
        <ele>536.889</ele>
        <time>2021-05-28T22:00:22Z</time>
      </trkpt>
      <trkpt lat="42.582707" lon="2.422815">
        <ele>536.884</ele>
        <time>2021-05-28T22:00:24Z</time>
      </trkpt>
      <trkpt lat="42.582733" lon="2.422807">
        <ele>536.821</ele>
        <time>2021-05-28T22:00:26Z</time>
      </trkpt>
      <trkpt lat="42.582754" lon="2.422794">
        <ele>536.989</ele>
        <time>2021-05-28T22:00:28Z</time>
      </trkpt>
      <trkpt lat="42.582773" lon="2.422790">
        <ele>536.811</ele>
        <time>2021-05-28T22:00:30Z</time>
      </trkpt>
      <trkpt lat="42.582801" lon="2.422787">
        <ele>536.721</ele>
        <time>2021-05-28T22:00:32Z</time>
      </trkpt>
      <trkpt lat="42.582841" lon="2.422787">
        <ele>536.403</ele>
        <time>2021-05-28T22:00:34Z</time>
      </trkpt>
      <trkpt lat="42.582861" lon="2.422787">
        <ele>536.308</ele>
        <time>2021-05-28T22:00:35Z</time>
      </trkpt>
      <trkpt lat="42.582881" lon="2.422785">
        <ele>536.168</ele>
        <time>2021-05-28T22:00:36Z</time>
      </trkpt>
      <trkpt lat="42.582901" lon="2.422783">
        <ele>536.045</ele>
        <time>2021-05-28T22:00:37Z</time>
      </trkpt>
      <trkpt lat="42.582920" lon="2.422780">
        <ele>535.946</ele>
        <time>2021-05-28T22:00:38Z</time>
      </trkpt>
      <trkpt lat="42.582938" lon="2.422777">
        <ele>535.955</ele>
        <time>2021-05-28T22:00:39Z</time>
      </trkpt>
      <trkpt lat="42.582959" lon="2.422777">
        <ele>535.782</ele>
        <time>2021-05-28T22:00:40Z</time>
      </trkpt>
      <trkpt lat="42.582979" lon="2.422771">
        <ele>535.797</ele>
        <time>2021-05-28T22:00:41Z</time>
      </trkpt>
      <trkpt lat="42.582998" lon="2.422762">
        <ele>535.724</ele>
        <time>2021-05-28T22:00:42Z</time>
      </trkpt>
      <trkpt lat="42.583016" lon="2.422754">
        <ele>535.822</ele>
        <time>2021-05-28T22:00:43Z</time>
      </trkpt>
      <trkpt lat="42.583037" lon="2.422749">
        <ele>535.777</ele>
        <time>2021-05-28T22:00:44Z</time>
      </trkpt>
      <trkpt lat="42.583067" lon="2.422738">
        <ele>535.761</ele>
        <time>2021-05-28T22:00:46Z</time>
      </trkpt>
      <trkpt lat="42.583090" lon="2.422729">
        <ele>535.727</ele>
        <time>2021-05-28T22:00:48Z</time>
      </trkpt>
      <trkpt lat="42.583113" lon="2.422721">
        <ele>535.608</ele>
        <time>2021-05-28T22:00:50Z</time>
      </trkpt>
      <trkpt lat="42.583131" lon="2.422714">
        <ele>535.634</ele>
        <time>2021-05-28T22:00:51Z</time>
      </trkpt>
      <trkpt lat="42.583167" lon="2.422709">
        <ele>535.361</ele>
        <time>2021-05-28T22:00:53Z</time>
      </trkpt>
      <trkpt lat="42.583189" lon="2.422707">
        <ele>535.152</ele>
        <time>2021-05-28T22:00:54Z</time>
      </trkpt>
      <trkpt lat="42.583208" lon="2.422702">
        <ele>535.091</ele>
        <time>2021-05-28T22:00:55Z</time>
      </trkpt>
      <trkpt lat="42.583238" lon="2.422696">
        <ele>534.828</ele>
        <time>2021-05-28T22:00:57Z</time>
      </trkpt>
      <trkpt lat="42.583268" lon="2.422683">
        <ele>534.893</ele>
        <time>2021-05-28T22:00:59Z</time>
      </trkpt>
      <trkpt lat="42.583298" lon="2.422669">
        <ele>534.750</ele>
        <time>2021-05-28T22:01:01Z</time>
      </trkpt>
      <trkpt lat="42.583333" lon="2.422657">
        <ele>534.668</ele>
        <time>2021-05-28T22:01:03Z</time>
      </trkpt>
      <trkpt lat="42.583366" lon="2.422649">
        <ele>534.481</ele>
        <time>2021-05-28T22:01:05Z</time>
      </trkpt>
      <trkpt lat="42.583391" lon="2.422635">
        <ele>534.561</ele>
        <time>2021-05-28T22:01:07Z</time>
      </trkpt>
      <trkpt lat="42.583419" lon="2.422630">
        <ele>534.217</ele>
        <time>2021-05-28T22:01:09Z</time>
      </trkpt>
      <trkpt lat="42.583447" lon="2.422626">
        <ele>534.008</ele>
        <time>2021-05-28T22:01:11Z</time>
      </trkpt>
      <trkpt lat="42.583469" lon="2.422618">
        <ele>533.935</ele>
        <time>2021-05-28T22:01:13Z</time>
      </trkpt>
      <trkpt lat="42.583497" lon="2.422612">
        <ele>533.782</ele>
        <time>2021-05-28T22:01:15Z</time>
      </trkpt>
      <trkpt lat="42.583528" lon="2.422600">
        <ele>533.553</ele>
        <time>2021-05-28T22:01:17Z</time>
      </trkpt>
      <trkpt lat="42.583555" lon="2.422587">
        <ele>533.452</ele>
        <time>2021-05-28T22:01:19Z</time>
      </trkpt>
      <trkpt lat="42.583587" lon="2.422579">
        <ele>533.289</ele>
        <time>2021-05-28T22:01:21Z</time>
      </trkpt>
      <trkpt lat="42.583619" lon="2.422567">
        <ele>533.074</ele>
        <time>2021-05-28T22:01:23Z</time>
      </trkpt>
      <trkpt lat="42.583652" lon="2.422559">
        <ele>532.731</ele>
        <time>2021-05-28T22:01:25Z</time>
      </trkpt>
      <trkpt lat="42.583669" lon="2.422552">
        <ele>532.669</ele>
        <time>2021-05-28T22:01:26Z</time>
      </trkpt>
      <trkpt lat="42.583701" lon="2.422540">
        <ele>532.593</ele>
        <time>2021-05-28T22:01:28Z</time>
      </trkpt>
      <trkpt lat="42.583725" lon="2.422535">
        <ele>532.365</ele>
        <time>2021-05-28T22:01:30Z</time>
      </trkpt>
      <trkpt lat="42.583754" lon="2.422530">
        <ele>532.021</ele>
        <time>2021-05-28T22:01:32Z</time>
      </trkpt>
      <trkpt lat="42.583778" lon="2.422517">
        <ele>532.008</ele>
        <time>2021-05-28T22:01:34Z</time>
      </trkpt>
      <trkpt lat="42.583805" lon="2.422507">
        <ele>531.876</ele>
        <time>2021-05-28T22:01:36Z</time>
      </trkpt>
      <trkpt lat="42.583831" lon="2.422485">
        <ele>531.983</ele>
        <time>2021-05-28T22:01:38Z</time>
      </trkpt>
      <trkpt lat="42.583847" lon="2.422469">
        <ele>532.064</ele>
        <time>2021-05-28T22:01:40Z</time>
      </trkpt>
      <trkpt lat="42.583866" lon="2.422449">
        <ele>532.283</ele>
        <time>2021-05-28T22:01:42Z</time>
      </trkpt>
      <trkpt lat="42.583885" lon="2.422428">
        <ele>532.360</ele>
        <time>2021-05-28T22:01:44Z</time>
      </trkpt>
      <trkpt lat="42.583909" lon="2.422403">
        <ele>532.415</ele>
        <time>2021-05-28T22:01:46Z</time>
      </trkpt>
      <trkpt lat="42.583940" lon="2.422383">
        <ele>532.362</ele>
        <time>2021-05-28T22:01:48Z</time>
      </trkpt>
      <trkpt lat="42.583968" lon="2.422363">
        <ele>532.290</ele>
        <time>2021-05-28T22:01:50Z</time>
      </trkpt>
      <trkpt lat="42.583992" lon="2.422348">
        <ele>532.174</ele>
        <time>2021-05-28T22:01:52Z</time>
      </trkpt>
      <trkpt lat="42.584020" lon="2.422335">
        <ele>531.956</ele>
        <time>2021-05-28T22:01:54Z</time>
      </trkpt>
      <trkpt lat="42.584048" lon="2.422325">
        <ele>531.621</ele>
        <time>2021-05-28T22:01:56Z</time>
      </trkpt>
      <trkpt lat="42.584080" lon="2.422308">
        <ele>531.508</ele>
        <time>2021-05-28T22:01:58Z</time>
      </trkpt>
      <trkpt lat="42.584097" lon="2.422297">
        <ele>531.544</ele>
        <time>2021-05-28T22:01:59Z</time>
      </trkpt>
      <trkpt lat="42.584125" lon="2.422276">
        <ele>531.571</ele>
        <time>2021-05-28T22:02:01Z</time>
      </trkpt>
      <trkpt lat="42.584148" lon="2.422253">
        <ele>531.642</ele>
        <time>2021-05-28T22:02:03Z</time>
      </trkpt>
      <trkpt lat="42.584181" lon="2.422231">
        <ele>531.411</ele>
        <time>2021-05-28T22:02:05Z</time>
      </trkpt>
      <trkpt lat="42.584210" lon="2.422209">
        <ele>531.278</ele>
        <time>2021-05-28T22:02:07Z</time>
      </trkpt>
      <trkpt lat="42.584226" lon="2.422197">
        <ele>531.253</ele>
        <time>2021-05-28T22:02:08Z</time>
      </trkpt>
      <trkpt lat="42.584242" lon="2.422187">
        <ele>531.040</ele>
        <time>2021-05-28T22:02:09Z</time>
      </trkpt>
      <trkpt lat="42.584260" lon="2.422175">
        <ele>530.948</ele>
        <time>2021-05-28T22:02:10Z</time>
      </trkpt>
      <trkpt lat="42.584277" lon="2.422164">
        <ele>530.834</ele>
        <time>2021-05-28T22:02:11Z</time>
      </trkpt>
      <trkpt lat="42.584294" lon="2.422150">
        <ele>530.755</ele>
        <time>2021-05-28T22:02:12Z</time>
      </trkpt>
      <trkpt lat="42.584312" lon="2.422138">
        <ele>530.610</ele>
        <time>2021-05-28T22:02:13Z</time>
      </trkpt>
      <trkpt lat="42.584342" lon="2.422110">
        <ele>530.708</ele>
        <time>2021-05-28T22:02:15Z</time>
      </trkpt>
      <trkpt lat="42.584360" lon="2.422095">
        <ele>530.750</ele>
        <time>2021-05-28T22:02:16Z</time>
      </trkpt>
      <trkpt lat="42.584376" lon="2.422084">
        <ele>530.627</ele>
        <time>2021-05-28T22:02:17Z</time>
      </trkpt>
      <trkpt lat="42.584411" lon="2.422071">
        <ele>530.188</ele>
        <time>2021-05-28T22:02:19Z</time>
      </trkpt>
      <trkpt lat="42.584432" lon="2.422064">
        <ele>529.867</ele>
        <time>2021-05-28T22:02:20Z</time>
      </trkpt>
      <trkpt lat="42.584467" lon="2.422046">
        <ele>529.554</ele>
        <time>2021-05-28T22:02:22Z</time>
      </trkpt>
      <trkpt lat="42.584496" lon="2.422023">
        <ele>529.439</ele>
        <time>2021-05-28T22:02:24Z</time>
      </trkpt>
      <trkpt lat="42.584524" lon="2.422009">
        <ele>529.076</ele>
        <time>2021-05-28T22:02:26Z</time>
      </trkpt>
      <trkpt lat="42.584554" lon="2.421989">
        <ele>528.774</ele>
        <time>2021-05-28T22:02:28Z</time>
      </trkpt>
      <trkpt lat="42.584580" lon="2.421972">
        <ele>528.431</ele>
        <time>2021-05-28T22:02:30Z</time>
      </trkpt>
      <trkpt lat="42.584609" lon="2.421954">
        <ele>528.061</ele>
        <time>2021-05-28T22:02:32Z</time>
      </trkpt>
      <trkpt lat="42.584644" lon="2.421938">
        <ele>527.407</ele>
        <time>2021-05-28T22:02:34Z</time>
      </trkpt>
      <trkpt lat="42.584666" lon="2.421928">
        <ele>527.008</ele>
        <time>2021-05-28T22:02:35Z</time>
      </trkpt>
      <trkpt lat="42.584686" lon="2.421917">
        <ele>526.720</ele>
        <time>2021-05-28T22:02:36Z</time>
      </trkpt>
      <trkpt lat="42.584708" lon="2.421908">
        <ele>526.347</ele>
        <time>2021-05-28T22:02:37Z</time>
      </trkpt>
      <trkpt lat="42.584726" lon="2.421903">
        <ele>526.048</ele>
        <time>2021-05-28T22:02:38Z</time>
      </trkpt>
      <trkpt lat="42.584747" lon="2.421893">
        <ele>525.747</ele>
        <time>2021-05-28T22:02:39Z</time>
      </trkpt>
      <trkpt lat="42.584764" lon="2.421883">
        <ele>525.534</ele>
        <time>2021-05-28T22:02:40Z</time>
      </trkpt>
      <trkpt lat="42.584783" lon="2.421874">
        <ele>525.329</ele>
        <time>2021-05-28T22:02:41Z</time>
      </trkpt>
      <trkpt lat="42.584801" lon="2.421863">
        <ele>525.116</ele>
        <time>2021-05-28T22:02:42Z</time>
      </trkpt>
      <trkpt lat="42.584818" lon="2.421851">
        <ele>525.124</ele>
        <time>2021-05-28T22:02:43Z</time>
      </trkpt>
      <trkpt lat="42.584835" lon="2.421840">
        <ele>524.956</ele>
        <time>2021-05-28T22:02:44Z</time>
      </trkpt>
      <trkpt lat="42.584851" lon="2.421828">
        <ele>524.959</ele>
        <time>2021-05-28T22:02:45Z</time>
      </trkpt>
      <trkpt lat="42.584877" lon="2.421803">
        <ele>524.914</ele>
        <time>2021-05-28T22:02:47Z</time>
      </trkpt>
      <trkpt lat="42.584909" lon="2.421781">
        <ele>524.808</ele>
        <time>2021-05-28T22:02:49Z</time>
      </trkpt>
      <trkpt lat="42.584942" lon="2.421758">
        <ele>524.722</ele>
        <time>2021-05-28T22:02:51Z</time>
      </trkpt>
      <trkpt lat="42.584968" lon="2.421745">
        <ele>524.579</ele>
        <time>2021-05-28T22:02:53Z</time>
      </trkpt>
      <trkpt lat="42.584998" lon="2.421727">
        <ele>524.330</ele>
        <time>2021-05-28T22:02:55Z</time>
      </trkpt>
      <trkpt lat="42.585024" lon="2.421711">
        <ele>524.249</ele>
        <time>2021-05-28T22:02:57Z</time>
      </trkpt>
      <trkpt lat="42.585058" lon="2.421694">
        <ele>524.016</ele>
        <time>2021-05-28T22:02:59Z</time>
      </trkpt>
      <trkpt lat="42.585074" lon="2.421684">
        <ele>523.961</ele>
        <time>2021-05-28T22:03:00Z</time>
      </trkpt>
      <trkpt lat="42.585090" lon="2.421670">
        <ele>524.048</ele>
        <time>2021-05-28T22:03:01Z</time>
      </trkpt>
      <trkpt lat="42.585108" lon="2.421656">
        <ele>524.096</ele>
        <time>2021-05-28T22:03:02Z</time>
      </trkpt>
      <trkpt lat="42.585126" lon="2.421644">
        <ele>524.073</ele>
        <time>2021-05-28T22:03:03Z</time>
      </trkpt>
      <trkpt lat="42.585146" lon="2.421632">
        <ele>524.085</ele>
        <time>2021-05-28T22:03:04Z</time>
      </trkpt>
      <trkpt lat="42.585182" lon="2.421617">
        <ele>523.813</ele>
        <time>2021-05-28T22:03:06Z</time>
      </trkpt>
      <trkpt lat="42.585201" lon="2.421608">
        <ele>523.708</ele>
        <time>2021-05-28T22:03:07Z</time>
      </trkpt>
      <trkpt lat="42.585220" lon="2.421595">
        <ele>523.894</ele>
        <time>2021-05-28T22:03:08Z</time>
      </trkpt>
      <trkpt lat="42.585252" lon="2.421570">
        <ele>524.031</ele>
        <time>2021-05-28T22:03:10Z</time>
      </trkpt>
      <trkpt lat="42.585281" lon="2.421551">
        <ele>524.142</ele>
        <time>2021-05-28T22:03:12Z</time>
      </trkpt>
      <trkpt lat="42.585298" lon="2.421542">
        <ele>524.081</ele>
        <time>2021-05-28T22:03:13Z</time>
      </trkpt>
      <trkpt lat="42.585317" lon="2.421532">
        <ele>523.928</ele>
        <time>2021-05-28T22:03:14Z</time>
      </trkpt>
      <trkpt lat="42.585337" lon="2.421521">
        <ele>523.893</ele>
        <time>2021-05-28T22:03:15Z</time>
      </trkpt>
      <trkpt lat="42.585355" lon="2.421510">
        <ele>523.730</ele>
        <time>2021-05-28T22:03:16Z</time>
      </trkpt>
      <trkpt lat="42.585375" lon="2.421500">
        <ele>523.538</ele>
        <time>2021-05-28T22:03:17Z</time>
      </trkpt>
      <trkpt lat="42.585392" lon="2.421490">
        <ele>523.581</ele>
        <time>2021-05-28T22:03:18Z</time>
      </trkpt>
      <trkpt lat="42.585409" lon="2.421480">
        <ele>523.461</ele>
        <time>2021-05-28T22:03:19Z</time>
      </trkpt>
      <trkpt lat="42.585435" lon="2.421461">
        <ele>523.417</ele>
        <time>2021-05-28T22:03:21Z</time>
      </trkpt>
      <trkpt lat="42.585464" lon="2.421437">
        <ele>523.608</ele>
        <time>2021-05-28T22:03:23Z</time>
      </trkpt>
      <trkpt lat="42.585481" lon="2.421426">
        <ele>523.545</ele>
        <time>2021-05-28T22:03:24Z</time>
      </trkpt>
      <trkpt lat="42.585499" lon="2.421417">
        <ele>523.422</ele>
        <time>2021-05-28T22:03:25Z</time>
      </trkpt>
      <trkpt lat="42.585517" lon="2.421408">
        <ele>523.343</ele>
        <time>2021-05-28T22:03:26Z</time>
      </trkpt>
      <trkpt lat="42.585548" lon="2.421392">
        <ele>523.162</ele>
        <time>2021-05-28T22:03:28Z</time>
      </trkpt>
      <trkpt lat="42.585577" lon="2.421369">
        <ele>523.139</ele>
        <time>2021-05-28T22:03:30Z</time>
      </trkpt>
      <trkpt lat="42.585609" lon="2.421353">
        <ele>522.854</ele>
        <time>2021-05-28T22:03:32Z</time>
      </trkpt>
      <trkpt lat="42.585636" lon="2.421337">
        <ele>522.611</ele>
        <time>2021-05-28T22:03:34Z</time>
      </trkpt>
      <trkpt lat="42.585667" lon="2.421325">
        <ele>522.199</ele>
        <time>2021-05-28T22:03:36Z</time>
      </trkpt>
      <trkpt lat="42.585699" lon="2.421308">
        <ele>521.899</ele>
        <time>2021-05-28T22:03:38Z</time>
      </trkpt>
      <trkpt lat="42.585728" lon="2.421292">
        <ele>521.507</ele>
        <time>2021-05-28T22:03:40Z</time>
      </trkpt>
      <trkpt lat="42.585762" lon="2.421273">
        <ele>521.227</ele>
        <time>2021-05-28T22:03:42Z</time>
      </trkpt>
      <trkpt lat="42.585779" lon="2.421263">
        <ele>521.108</ele>
        <time>2021-05-28T22:03:43Z</time>
      </trkpt>
      <trkpt lat="42.585810" lon="2.421245">
        <ele>520.986</ele>
        <time>2021-05-28T22:03:45Z</time>
      </trkpt>
      <trkpt lat="42.585828" lon="2.421238">
        <ele>520.673</ele>
        <time>2021-05-28T22:03:46Z</time>
      </trkpt>
      <trkpt lat="42.585857" lon="2.421224">
        <ele>520.414</ele>
        <time>2021-05-28T22:03:48Z</time>
      </trkpt>
      <trkpt lat="42.585874" lon="2.421212">
        <ele>520.423</ele>
        <time>2021-05-28T22:03:49Z</time>
      </trkpt>
      <trkpt lat="42.585893" lon="2.421202">
        <ele>520.260</ele>
        <time>2021-05-28T22:03:50Z</time>
      </trkpt>
      <trkpt lat="42.585911" lon="2.421191">
        <ele>520.195</ele>
        <time>2021-05-28T22:03:51Z</time>
      </trkpt>
      <trkpt lat="42.585939" lon="2.421165">
        <ele>520.282</ele>
        <time>2021-05-28T22:03:53Z</time>
      </trkpt>
      <trkpt lat="42.585955" lon="2.421151">
        <ele>520.230</ele>
        <time>2021-05-28T22:03:54Z</time>
      </trkpt>
      <trkpt lat="42.585990" lon="2.421132">
        <ele>519.993</ele>
        <time>2021-05-28T22:03:56Z</time>
      </trkpt>
      <trkpt lat="42.586007" lon="2.421125">
        <ele>519.665</ele>
        <time>2021-05-28T22:03:57Z</time>
      </trkpt>
      <trkpt lat="42.586025" lon="2.421118">
        <ele>519.321</ele>
        <time>2021-05-28T22:03:58Z</time>
      </trkpt>
      <trkpt lat="42.586047" lon="2.421110">
        <ele>518.908</ele>
        <time>2021-05-28T22:03:59Z</time>
      </trkpt>
      <trkpt lat="42.586066" lon="2.421099">
        <ele>518.766</ele>
        <time>2021-05-28T22:04:00Z</time>
      </trkpt>
      <trkpt lat="42.586085" lon="2.421089">
        <ele>518.533</ele>
        <time>2021-05-28T22:04:01Z</time>
      </trkpt>
      <trkpt lat="42.586116" lon="2.421070">
        <ele>518.274</ele>
        <time>2021-05-28T22:04:03Z</time>
      </trkpt>
      <trkpt lat="42.586135" lon="2.421054">
        <ele>518.353</ele>
        <time>2021-05-28T22:04:05Z</time>
      </trkpt>
      <trkpt lat="42.586163" lon="2.421033">
        <ele>518.410</ele>
        <time>2021-05-28T22:04:07Z</time>
      </trkpt>
      <trkpt lat="42.586190" lon="2.421025">
        <ele>518.085</ele>
        <time>2021-05-28T22:04:09Z</time>
      </trkpt>
      <trkpt lat="42.586192" lon="2.421054">
        <ele>517.082</ele>
        <time>2021-05-28T22:04:15Z</time>
      </trkpt>
      <trkpt lat="42.586213" lon="2.421041">
        <ele>517.080</ele>
        <time>2021-05-28T22:04:26Z</time>
      </trkpt>
      <trkpt lat="42.586238" lon="2.421045">
        <ele>516.328</ele>
        <time>2021-05-28T22:04:28Z</time>
      </trkpt>
      <trkpt lat="42.586258" lon="2.421042">
        <ele>515.989</ele>
        <time>2021-05-28T22:04:30Z</time>
      </trkpt>
      <trkpt lat="42.586278" lon="2.421036">
        <ele>515.717</ele>
        <time>2021-05-28T22:04:33Z</time>
      </trkpt>
      <trkpt lat="42.586303" lon="2.421025">
        <ele>515.408</ele>
        <time>2021-05-28T22:04:34Z</time>
      </trkpt>
      <trkpt lat="42.586330" lon="2.421016">
        <ele>515.169</ele>
        <time>2021-05-28T22:04:36Z</time>
      </trkpt>
      <trkpt lat="42.586360" lon="2.421001">
        <ele>514.856</ele>
        <time>2021-05-28T22:04:38Z</time>
      </trkpt>
      <trkpt lat="42.586389" lon="2.420988">
        <ele>514.547</ele>
        <time>2021-05-28T22:04:40Z</time>
      </trkpt>
      <trkpt lat="42.586420" lon="2.420979">
        <ele>514.186</ele>
        <time>2021-05-28T22:04:42Z</time>
      </trkpt>
      <trkpt lat="42.586445" lon="2.420976">
        <ele>513.713</ele>
        <time>2021-05-28T22:04:44Z</time>
      </trkpt>
      <trkpt lat="42.586476" lon="2.420960">
        <ele>513.598</ele>
        <time>2021-05-28T22:04:46Z</time>
      </trkpt>
      <trkpt lat="42.586495" lon="2.420952">
        <ele>513.335</ele>
        <time>2021-05-28T22:04:47Z</time>
      </trkpt>
      <trkpt lat="42.586526" lon="2.420943">
        <ele>513.013</ele>
        <time>2021-05-28T22:04:49Z</time>
      </trkpt>
      <trkpt lat="42.586543" lon="2.420934">
        <ele>512.951</ele>
        <time>2021-05-28T22:04:50Z</time>
      </trkpt>
      <trkpt lat="42.586563" lon="2.420926">
        <ele>512.801</ele>
        <time>2021-05-28T22:04:51Z</time>
      </trkpt>
      <trkpt lat="42.586585" lon="2.420920">
        <ele>512.511</ele>
        <time>2021-05-28T22:04:52Z</time>
      </trkpt>
      <trkpt lat="42.586605" lon="2.420915">
        <ele>512.308</ele>
        <time>2021-05-28T22:04:53Z</time>
      </trkpt>
      <trkpt lat="42.586636" lon="2.420895">
        <ele>512.472</ele>
        <time>2021-05-28T22:04:55Z</time>
      </trkpt>
      <trkpt lat="42.586654" lon="2.420885">
        <ele>512.429</ele>
        <time>2021-05-28T22:04:56Z</time>
      </trkpt>
      <trkpt lat="42.586684" lon="2.420870">
        <ele>512.490</ele>
        <time>2021-05-28T22:04:58Z</time>
      </trkpt>
      <trkpt lat="42.586715" lon="2.420861">
        <ele>512.129</ele>
        <time>2021-05-28T22:05:00Z</time>
      </trkpt>
      <trkpt lat="42.586733" lon="2.420854">
        <ele>512.026</ele>
        <time>2021-05-28T22:05:01Z</time>
      </trkpt>
      <trkpt lat="42.586754" lon="2.420855">
        <ele>511.611</ele>
        <time>2021-05-28T22:05:02Z</time>
      </trkpt>
      <trkpt lat="42.586780" lon="2.420853">
        <ele>511.278</ele>
        <time>2021-05-28T22:05:04Z</time>
      </trkpt>
      <trkpt lat="42.586809" lon="2.420849">
        <ele>510.836</ele>
        <time>2021-05-28T22:05:06Z</time>
      </trkpt>
      <trkpt lat="42.586840" lon="2.420834">
        <ele>510.923</ele>
        <time>2021-05-28T22:05:08Z</time>
      </trkpt>
      <trkpt lat="42.586869" lon="2.420827">
        <ele>510.583</ele>
        <time>2021-05-28T22:05:10Z</time>
      </trkpt>
      <trkpt lat="42.586905" lon="2.420817">
        <ele>510.111</ele>
        <time>2021-05-28T22:05:12Z</time>
      </trkpt>
      <trkpt lat="42.586927" lon="2.420813">
        <ele>509.808</ele>
        <time>2021-05-28T22:05:13Z</time>
      </trkpt>
      <trkpt lat="42.586953" lon="2.420809">
        <ele>509.349</ele>
        <time>2021-05-28T22:05:15Z</time>
      </trkpt>
      <trkpt lat="42.586976" lon="2.420811">
        <ele>508.826</ele>
        <time>2021-05-28T22:05:17Z</time>
      </trkpt>
      <trkpt lat="42.587005" lon="2.420819">
        <ele>508.097</ele>
        <time>2021-05-28T22:05:19Z</time>
      </trkpt>
      <trkpt lat="42.587024" lon="2.420822">
        <ele>507.566</ele>
        <time>2021-05-28T22:05:20Z</time>
      </trkpt>
      <trkpt lat="42.587052" lon="2.420822">
        <ele>506.943</ele>
        <time>2021-05-28T22:05:22Z</time>
      </trkpt>
      <trkpt lat="42.587083" lon="2.420818">
        <ele>506.328</ele>
        <time>2021-05-28T22:05:24Z</time>
      </trkpt>
      <trkpt lat="42.587106" lon="2.420815">
        <ele>505.955</ele>
        <time>2021-05-28T22:05:26Z</time>
      </trkpt>
      <trkpt lat="42.587124" lon="2.420815">
        <ele>505.513</ele>
        <time>2021-05-28T22:05:27Z</time>
      </trkpt>
      <trkpt lat="42.587153" lon="2.420807">
        <ele>505.153</ele>
        <time>2021-05-28T22:05:29Z</time>
      </trkpt>
      <trkpt lat="42.587182" lon="2.420810">
        <ele>504.404</ele>
        <time>2021-05-28T22:05:31Z</time>
      </trkpt>
      <trkpt lat="42.587203" lon="2.420805">
        <ele>504.014</ele>
        <time>2021-05-28T22:05:33Z</time>
      </trkpt>
      <trkpt lat="42.587225" lon="2.420804">
        <ele>503.508</ele>
        <time>2021-05-28T22:05:35Z</time>
      </trkpt>
      <trkpt lat="42.587252" lon="2.420802">
        <ele>502.752</ele>
        <time>2021-05-28T22:05:37Z</time>
      </trkpt>
      <trkpt lat="42.587282" lon="2.420795">
        <ele>501.939</ele>
        <time>2021-05-28T22:05:39Z</time>
      </trkpt>
      <trkpt lat="42.587298" lon="2.420780">
        <ele>501.760</ele>
        <time>2021-05-28T22:05:40Z</time>
      </trkpt>
      <trkpt lat="42.587322" lon="2.420759">
        <ele>501.459</ele>
        <time>2021-05-28T22:05:42Z</time>
      </trkpt>
      <trkpt lat="42.587338" lon="2.420747">
        <ele>501.186</ele>
        <time>2021-05-28T22:05:43Z</time>
      </trkpt>
      <trkpt lat="42.587353" lon="2.420732">
        <ele>501.091</ele>
        <time>2021-05-28T22:05:44Z</time>
      </trkpt>
      <trkpt lat="42.587372" lon="2.420717">
        <ele>500.778</ele>
        <time>2021-05-28T22:05:46Z</time>
      </trkpt>
      <trkpt lat="42.587399" lon="2.420703">
        <ele>500.156</ele>
        <time>2021-05-28T22:05:47Z</time>
      </trkpt>
      <trkpt lat="42.587420" lon="2.420709">
        <ele>499.321</ele>
        <time>2021-05-28T22:05:50Z</time>
      </trkpt>
      <trkpt lat="42.587432" lon="2.420729">
        <ele>498.541</ele>
        <time>2021-05-28T22:05:52Z</time>
      </trkpt>
      <trkpt lat="42.587429" lon="2.420753">
        <ele>498.005</ele>
        <time>2021-05-28T22:05:53Z</time>
      </trkpt>
      <trkpt lat="42.587418" lon="2.420777">
        <ele>497.908</ele>
        <time>2021-05-28T22:05:56Z</time>
      </trkpt>
      <trkpt lat="42.587401" lon="2.420802">
        <ele>497.989</ele>
        <time>2021-05-28T22:05:57Z</time>
      </trkpt>
      <trkpt lat="42.587383" lon="2.420823">
        <ele>498.046</ele>
        <time>2021-05-28T22:05:59Z</time>
      </trkpt>
      <trkpt lat="42.587357" lon="2.420849">
        <ele>498.387</ele>
        <time>2021-05-28T22:06:01Z</time>
      </trkpt>
      <trkpt lat="42.587334" lon="2.420877">
        <ele>498.386</ele>
        <time>2021-05-28T22:06:03Z</time>
      </trkpt>
      <trkpt lat="42.587312" lon="2.420904">
        <ele>498.493</ele>
        <time>2021-05-28T22:06:05Z</time>
      </trkpt>
      <trkpt lat="42.587287" lon="2.420926">
        <ele>498.698</ele>
        <time>2021-05-28T22:06:07Z</time>
      </trkpt>
      <trkpt lat="42.587265" lon="2.420945">
        <ele>498.935</ele>
        <time>2021-05-28T22:06:09Z</time>
      </trkpt>
      <trkpt lat="42.587240" lon="2.420966">
        <ele>499.113</ele>
        <time>2021-05-28T22:06:11Z</time>
      </trkpt>
      <trkpt lat="42.587222" lon="2.420991">
        <ele>499.045</ele>
        <time>2021-05-28T22:06:13Z</time>
      </trkpt>
      <trkpt lat="42.587203" lon="2.421008">
        <ele>498.847</ele>
        <time>2021-05-28T22:06:15Z</time>
      </trkpt>
      <trkpt lat="42.587186" lon="2.421031">
        <ele>498.411</ele>
        <time>2021-05-28T22:06:17Z</time>
      </trkpt>
      <trkpt lat="42.587167" lon="2.421060">
        <ele>497.808</ele>
        <time>2021-05-28T22:06:19Z</time>
      </trkpt>
      <trkpt lat="42.587146" lon="2.421079">
        <ele>497.541</ele>
        <time>2021-05-28T22:06:21Z</time>
      </trkpt>
      <trkpt lat="42.587122" lon="2.421099">
        <ele>497.118</ele>
        <time>2021-05-28T22:06:23Z</time>
      </trkpt>
      <trkpt lat="42.587098" lon="2.421113">
        <ele>496.979</ele>
        <time>2021-05-28T22:06:25Z</time>
      </trkpt>
      <trkpt lat="42.587083" lon="2.421138">
        <ele>496.498</ele>
        <time>2021-05-28T22:06:27Z</time>
      </trkpt>
      <trkpt lat="42.587074" lon="2.421172">
        <ele>495.885</ele>
        <time>2021-05-28T22:06:29Z</time>
      </trkpt>
      <trkpt lat="42.587095" lon="2.421195">
        <ele>495.160</ele>
        <time>2021-05-28T22:06:32Z</time>
      </trkpt>
      <trkpt lat="42.587117" lon="2.421196">
        <ele>494.937</ele>
        <time>2021-05-28T22:06:34Z</time>
      </trkpt>
      <trkpt lat="42.587136" lon="2.421195">
        <ele>494.825</ele>
        <time>2021-05-28T22:06:36Z</time>
      </trkpt>
      <trkpt lat="42.587155" lon="2.421186">
        <ele>494.911</ele>
        <time>2021-05-28T22:06:39Z</time>
      </trkpt>
      <trkpt lat="42.587179" lon="2.421178">
        <ele>494.921</ele>
        <time>2021-05-28T22:06:40Z</time>
      </trkpt>
      <trkpt lat="42.587208" lon="2.421166">
        <ele>494.903</ele>
        <time>2021-05-28T22:06:43Z</time>
      </trkpt>
      <trkpt lat="42.587236" lon="2.421144">
        <ele>494.908</ele>
        <time>2021-05-28T22:06:45Z</time>
      </trkpt>
      <trkpt lat="42.587264" lon="2.421142">
        <ele>494.198</ele>
        <time>2021-05-28T22:06:46Z</time>
      </trkpt>
      <trkpt lat="42.587287" lon="2.421138">
        <ele>493.635</ele>
        <time>2021-05-28T22:06:48Z</time>
      </trkpt>
      <trkpt lat="42.587318" lon="2.421138">
        <ele>492.796</ele>
        <time>2021-05-28T22:06:50Z</time>
      </trkpt>
      <trkpt lat="42.587346" lon="2.421121">
        <ele>492.235</ele>
        <time>2021-05-28T22:06:52Z</time>
      </trkpt>
      <trkpt lat="42.587376" lon="2.421109">
        <ele>491.632</ele>
        <time>2021-05-28T22:06:54Z</time>
      </trkpt>
      <trkpt lat="42.587394" lon="2.421103">
        <ele>491.257</ele>
        <time>2021-05-28T22:06:55Z</time>
      </trkpt>
      <trkpt lat="42.587429" lon="2.421080">
        <ele>490.764</ele>
        <time>2021-05-28T22:06:57Z</time>
      </trkpt>
      <trkpt lat="42.587446" lon="2.421067">
        <ele>490.512</ele>
        <time>2021-05-28T22:06:58Z</time>
      </trkpt>
      <trkpt lat="42.587473" lon="2.421051">
        <ele>490.125</ele>
        <time>2021-05-28T22:07:00Z</time>
      </trkpt>
      <trkpt lat="42.587500" lon="2.421046">
        <ele>489.426</ele>
        <time>2021-05-28T22:07:02Z</time>
      </trkpt>
      <trkpt lat="42.587521" lon="2.421053">
        <ele>488.608</ele>
        <time>2021-05-28T22:07:05Z</time>
      </trkpt>
      <trkpt lat="42.587529" lon="2.421084">
        <ele>487.708</ele>
        <time>2021-05-28T22:07:07Z</time>
      </trkpt>
      <trkpt lat="42.587544" lon="2.421116">
        <ele>486.679</ele>
        <time>2021-05-28T22:07:09Z</time>
      </trkpt>
      <trkpt lat="42.587562" lon="2.421126">
        <ele>486.016</ele>
        <time>2021-05-28T22:07:11Z</time>
      </trkpt>
      <trkpt lat="42.587594" lon="2.421115">
        <ele>485.217</ele>
        <time>2021-05-28T22:07:14Z</time>
      </trkpt>
      <trkpt lat="42.587618" lon="2.421100">
        <ele>484.896</ele>
        <time>2021-05-28T22:07:15Z</time>
      </trkpt>
      <trkpt lat="42.587638" lon="2.421090">
        <ele>484.493</ele>
        <time>2021-05-28T22:07:17Z</time>
      </trkpt>
      <trkpt lat="42.587669" lon="2.421067">
        <ele>483.818</ele>
        <time>2021-05-28T22:07:18Z</time>
      </trkpt>
      <trkpt lat="42.587686" lon="2.421052">
        <ele>483.535</ele>
        <time>2021-05-28T22:07:19Z</time>
      </trkpt>
      <trkpt lat="42.587709" lon="2.421029">
        <ele>483.123</ele>
        <time>2021-05-28T22:07:21Z</time>
      </trkpt>
      <trkpt lat="42.587733" lon="2.421010">
        <ele>482.625</ele>
        <time>2021-05-28T22:07:23Z</time>
      </trkpt>
      <trkpt lat="42.587752" lon="2.420981">
        <ele>482.326</ele>
        <time>2021-05-28T22:07:25Z</time>
      </trkpt>
      <trkpt lat="42.587779" lon="2.420955">
        <ele>481.608</ele>
        <time>2021-05-28T22:07:27Z</time>
      </trkpt>
      <trkpt lat="42.587802" lon="2.420931">
        <ele>481.208</ele>
        <time>2021-05-28T22:07:30Z</time>
      </trkpt>
      <trkpt lat="42.587821" lon="2.420902">
        <ele>480.999</ele>
        <time>2021-05-28T22:07:31Z</time>
      </trkpt>
      <trkpt lat="42.587839" lon="2.420870">
        <ele>480.596</ele>
        <time>2021-05-28T22:07:33Z</time>
      </trkpt>
      <trkpt lat="42.587858" lon="2.420831">
        <ele>480.287</ele>
        <time>2021-05-28T22:07:35Z</time>
      </trkpt>
      <trkpt lat="42.587867" lon="2.420789">
        <ele>480.686</ele>
        <time>2021-05-28T22:07:37Z</time>
      </trkpt>
      <trkpt lat="42.587883" lon="2.420769">
        <ele>480.483</ele>
        <time>2021-05-28T22:07:39Z</time>
      </trkpt>
      <trkpt lat="42.587896" lon="2.420744">
        <ele>480.428</ele>
        <time>2021-05-28T22:07:41Z</time>
      </trkpt>
      <trkpt lat="42.587893" lon="2.420703">
        <ele>481.325</ele>
        <time>2021-05-28T22:07:43Z</time>
      </trkpt>
      <trkpt lat="42.587903" lon="2.420674">
        <ele>481.483</ele>
        <time>2021-05-28T22:07:45Z</time>
      </trkpt>
      <trkpt lat="42.587908" lon="2.420637">
        <ele>481.992</ele>
        <time>2021-05-28T22:07:47Z</time>
      </trkpt>
      <trkpt lat="42.587908" lon="2.420611">
        <ele>482.473</ele>
        <time>2021-05-28T22:07:50Z</time>
      </trkpt>
      <trkpt lat="42.587911" lon="2.420525">
        <ele>483.620</ele>
        <time>2021-05-28T22:07:54Z</time>
      </trkpt>
      <trkpt lat="42.587920" lon="2.420500">
        <ele>483.608</ele>
        <time>2021-05-28T22:07:56Z</time>
      </trkpt>
      <trkpt lat="42.587935" lon="2.420476">
        <ele>483.246</ele>
        <time>2021-05-28T22:07:59Z</time>
      </trkpt>
      <trkpt lat="42.587933" lon="2.420447">
        <ele>483.663</ele>
        <time>2021-05-28T22:08:02Z</time>
      </trkpt>
      <trkpt lat="42.587936" lon="2.420411">
        <ele>483.984</ele>
        <time>2021-05-28T22:08:03Z</time>
      </trkpt>
      <trkpt lat="42.587944" lon="2.420381">
        <ele>484.043</ele>
        <time>2021-05-28T22:08:05Z</time>
      </trkpt>
      <trkpt lat="42.587947" lon="2.420351">
        <ele>484.210</ele>
        <time>2021-05-28T22:08:08Z</time>
      </trkpt>
      <trkpt lat="42.587955" lon="2.420322">
        <ele>484.295</ele>
        <time>2021-05-28T22:08:09Z</time>
      </trkpt>
      <trkpt lat="42.587955" lon="2.420283">
        <ele>484.672</ele>
        <time>2021-05-28T22:08:11Z</time>
      </trkpt>
      <trkpt lat="42.587944" lon="2.420255">
        <ele>485.450</ele>
        <time>2021-05-28T22:08:13Z</time>
      </trkpt>
      <trkpt lat="42.587954" lon="2.420235">
        <ele>485.195</ele>
        <time>2021-05-28T22:08:16Z</time>
      </trkpt>
      <trkpt lat="42.587969" lon="2.420201">
        <ele>484.849</ele>
        <time>2021-05-28T22:08:18Z</time>
      </trkpt>
      <trkpt lat="42.587963" lon="2.420166">
        <ele>485.423</ele>
        <time>2021-05-28T22:08:19Z</time>
      </trkpt>
      <trkpt lat="42.587958" lon="2.420136">
        <ele>485.908</ele>
        <time>2021-05-28T22:08:21Z</time>
      </trkpt>
      <trkpt lat="42.587931" lon="2.420067">
        <ele>487.526</ele>
        <time>2021-05-28T22:08:24Z</time>
      </trkpt>
      <trkpt lat="42.587913" lon="2.420030">
        <ele>488.423</ele>
        <time>2021-05-28T22:08:27Z</time>
      </trkpt>
      <trkpt lat="42.587897" lon="2.419993">
        <ele>489.264</ele>
        <time>2021-05-28T22:08:28Z</time>
      </trkpt>
      <trkpt lat="42.587891" lon="2.419969">
        <ele>489.713</ele>
        <time>2021-05-28T22:08:29Z</time>
      </trkpt>
      <trkpt lat="42.587876" lon="2.419950">
        <ele>490.490</ele>
        <time>2021-05-28T22:08:30Z</time>
      </trkpt>
      <trkpt lat="42.587853" lon="2.419922">
        <ele>491.375</ele>
        <time>2021-05-28T22:08:32Z</time>
      </trkpt>
      <trkpt lat="42.587845" lon="2.419899">
        <ele>491.712</ele>
        <time>2021-05-28T22:08:37Z</time>
      </trkpt>
      <trkpt lat="42.587857" lon="2.419872">
        <ele>491.790</ele>
        <time>2021-05-28T22:08:41Z</time>
      </trkpt>
      <trkpt lat="42.587890" lon="2.419850">
        <ele>491.258</ele>
        <time>2021-05-28T22:08:45Z</time>
      </trkpt>
      <trkpt lat="42.587918" lon="2.419844">
        <ele>490.752</ele>
        <time>2021-05-28T22:08:48Z</time>
      </trkpt>
      <trkpt lat="42.587940" lon="2.419847">
        <ele>490.217</ele>
        <time>2021-05-28T22:08:49Z</time>
      </trkpt>
      <trkpt lat="42.587968" lon="2.419840">
        <ele>489.808</ele>
        <time>2021-05-28T22:08:51Z</time>
      </trkpt>
      <trkpt lat="42.587987" lon="2.419831">
        <ele>489.622</ele>
        <time>2021-05-28T22:08:52Z</time>
      </trkpt>
      <trkpt lat="42.588004" lon="2.419820">
        <ele>489.539</ele>
        <time>2021-05-28T22:08:53Z</time>
      </trkpt>
      <trkpt lat="42.588059" lon="2.419786">
        <ele>489.330</ele>
        <time>2021-05-28T22:08:57Z</time>
      </trkpt>
      <trkpt lat="42.588097" lon="2.419755">
        <ele>488.879</ele>
        <time>2021-05-28T22:08:59Z</time>
      </trkpt>
      <trkpt lat="42.588117" lon="2.419739">
        <ele>488.646</ele>
        <time>2021-05-28T22:09:00Z</time>
      </trkpt>
      <trkpt lat="42.588144" lon="2.419713">
        <ele>488.331</ele>
        <time>2021-05-28T22:09:02Z</time>
      </trkpt>
      <trkpt lat="42.588158" lon="2.419697">
        <ele>488.238</ele>
        <time>2021-05-28T22:09:03Z</time>
      </trkpt>
      <trkpt lat="42.588168" lon="2.419676">
        <ele>488.346</ele>
        <time>2021-05-28T22:09:04Z</time>
      </trkpt>
      <trkpt lat="42.588176" lon="2.419652">
        <ele>488.513</ele>
        <time>2021-05-28T22:09:05Z</time>
      </trkpt>
      <trkpt lat="42.588187" lon="2.419632">
        <ele>488.543</ele>
        <time>2021-05-28T22:09:06Z</time>
      </trkpt>
      <trkpt lat="42.588198" lon="2.419591">
        <ele>489.007</ele>
        <time>2021-05-28T22:09:08Z</time>
      </trkpt>
      <trkpt lat="42.588201" lon="2.419565">
        <ele>489.408</ele>
        <time>2021-05-28T22:09:10Z</time>
      </trkpt>
      <trkpt lat="42.588206" lon="2.419535">
        <ele>489.988</ele>
        <time>2021-05-28T22:09:12Z</time>
      </trkpt>
      <trkpt lat="42.588217" lon="2.419496">
        <ele>490.325</ele>
        <time>2021-05-28T22:09:14Z</time>
      </trkpt>
      <trkpt lat="42.588227" lon="2.419459">
        <ele>490.856</ele>
        <time>2021-05-28T22:09:16Z</time>
      </trkpt>
      <trkpt lat="42.588240" lon="2.419429">
        <ele>490.995</ele>
        <time>2021-05-28T22:09:18Z</time>
      </trkpt>
      <trkpt lat="42.588259" lon="2.419398">
        <ele>490.942</ele>
        <time>2021-05-28T22:09:20Z</time>
      </trkpt>
      <trkpt lat="42.588270" lon="2.419368">
        <ele>491.127</ele>
        <time>2021-05-28T22:09:22Z</time>
      </trkpt>
      <trkpt lat="42.588279" lon="2.419334">
        <ele>491.364</ele>
        <time>2021-05-28T22:09:24Z</time>
      </trkpt>
      <trkpt lat="42.588283" lon="2.419297">
        <ele>491.822</ele>
        <time>2021-05-28T22:09:26Z</time>
      </trkpt>
      <trkpt lat="42.588289" lon="2.419269">
        <ele>492.028</ele>
        <time>2021-05-28T22:09:28Z</time>
      </trkpt>
      <trkpt lat="42.588299" lon="2.419227">
        <ele>492.389</ele>
        <time>2021-05-28T22:09:30Z</time>
      </trkpt>
      <trkpt lat="42.588305" lon="2.419188">
        <ele>492.717</ele>
        <time>2021-05-28T22:09:32Z</time>
      </trkpt>
      <trkpt lat="42.588310" lon="2.419150">
        <ele>493.008</ele>
        <time>2021-05-28T22:09:34Z</time>
      </trkpt>
      <trkpt lat="42.588323" lon="2.419072">
        <ele>493.419</ele>
        <time>2021-05-28T22:09:37Z</time>
      </trkpt>
      <trkpt lat="42.588323" lon="2.419047">
        <ele>493.776</ele>
        <time>2021-05-28T22:09:38Z</time>
      </trkpt>
      <trkpt lat="42.588331" lon="2.418994">
        <ele>494.077</ele>
        <time>2021-05-28T22:09:41Z</time>
      </trkpt>
      <trkpt lat="42.588342" lon="2.418971">
        <ele>493.876</ele>
        <time>2021-05-28T22:09:43Z</time>
      </trkpt>
      <trkpt lat="42.588424" lon="2.418910">
        <ele>492.183</ele>
        <time>2021-05-28T22:09:50Z</time>
      </trkpt>
      <trkpt lat="42.588474" lon="2.418899">
        <ele>490.838</ele>
        <time>2021-05-28T22:09:54Z</time>
      </trkpt>
      <trkpt lat="42.588513" lon="2.418902">
        <ele>489.675</ele>
        <time>2021-05-28T22:09:57Z</time>
      </trkpt>
      <trkpt lat="42.588532" lon="2.418906">
        <ele>488.943</ele>
        <time>2021-05-28T22:09:58Z</time>
      </trkpt>
      <trkpt lat="42.588551" lon="2.418905">
        <ele>488.417</ele>
        <time>2021-05-28T22:09:59Z</time>
      </trkpt>
      <trkpt lat="42.588570" lon="2.418911">
        <ele>487.787</ele>
        <time>2021-05-28T22:10:00Z</time>
      </trkpt>
      <trkpt lat="42.588602" lon="2.418904">
        <ele>486.915</ele>
        <time>2021-05-28T22:10:02Z</time>
      </trkpt>
      <trkpt lat="42.588628" lon="2.418910">
        <ele>486.308</ele>
        <time>2021-05-28T22:10:04Z</time>
      </trkpt>
      <trkpt lat="42.588659" lon="2.418907">
        <ele>486.128</ele>
        <time>2021-05-28T22:10:06Z</time>
      </trkpt>
      <trkpt lat="42.588683" lon="2.418903">
        <ele>486.025</ele>
        <time>2021-05-28T22:10:08Z</time>
      </trkpt>
      <trkpt lat="42.588707" lon="2.418900">
        <ele>485.966</ele>
        <time>2021-05-28T22:10:10Z</time>
      </trkpt>
      <trkpt lat="42.588738" lon="2.418905">
        <ele>485.565</ele>
        <time>2021-05-28T22:10:12Z</time>
      </trkpt>
      <trkpt lat="42.588772" lon="2.418900">
        <ele>485.412</ele>
        <time>2021-05-28T22:10:14Z</time>
      </trkpt>
      <trkpt lat="42.588792" lon="2.418897">
        <ele>485.427</ele>
        <time>2021-05-28T22:10:15Z</time>
      </trkpt>
      <trkpt lat="42.588819" lon="2.418898">
        <ele>485.144</ele>
        <time>2021-05-28T22:10:17Z</time>
      </trkpt>
      <trkpt lat="42.588841" lon="2.418886">
        <ele>485.532</ele>
        <time>2021-05-28T22:10:19Z</time>
      </trkpt>
      <trkpt lat="42.588868" lon="2.418870">
        <ele>486.036</ele>
        <time>2021-05-28T22:10:21Z</time>
      </trkpt>
      <trkpt lat="42.588898" lon="2.418848">
        <ele>486.617</ele>
        <time>2021-05-28T22:10:23Z</time>
      </trkpt>
      <trkpt lat="42.588929" lon="2.418822">
        <ele>487.318</ele>
        <time>2021-05-28T22:10:25Z</time>
      </trkpt>
      <trkpt lat="42.588950" lon="2.418810">
        <ele>487.508</ele>
        <time>2021-05-28T22:10:26Z</time>
      </trkpt>
      <trkpt lat="42.588980" lon="2.418793">
        <ele>487.720</ele>
        <time>2021-05-28T22:10:28Z</time>
      </trkpt>
      <trkpt lat="42.588997" lon="2.418784">
        <ele>487.897</ele>
        <time>2021-05-28T22:10:29Z</time>
      </trkpt>
      <trkpt lat="42.589029" lon="2.418771">
        <ele>487.958</ele>
        <time>2021-05-28T22:10:31Z</time>
      </trkpt>
      <trkpt lat="42.589059" lon="2.418768">
        <ele>487.577</ele>
        <time>2021-05-28T22:10:33Z</time>
      </trkpt>
      <trkpt lat="42.589091" lon="2.418755">
        <ele>487.544</ele>
        <time>2021-05-28T22:10:35Z</time>
      </trkpt>
      <trkpt lat="42.589113" lon="2.418748">
        <ele>487.449</ele>
        <time>2021-05-28T22:10:36Z</time>
      </trkpt>
      <trkpt lat="42.589131" lon="2.418744">
        <ele>487.336</ele>
        <time>2021-05-28T22:10:37Z</time>
      </trkpt>
      <trkpt lat="42.589165" lon="2.418730">
        <ele>487.394</ele>
        <time>2021-05-28T22:10:39Z</time>
      </trkpt>
      <trkpt lat="42.589194" lon="2.418716">
        <ele>487.113</ele>
        <time>2021-05-28T22:10:41Z</time>
      </trkpt>
      <trkpt lat="42.589215" lon="2.418705">
        <ele>486.943</ele>
        <time>2021-05-28T22:10:42Z</time>
      </trkpt>
      <trkpt lat="42.589230" lon="2.418689">
        <ele>487.207</ele>
        <time>2021-05-28T22:10:43Z</time>
      </trkpt>
      <trkpt lat="42.589245" lon="2.418670">
        <ele>487.508</ele>
        <time>2021-05-28T22:10:44Z</time>
      </trkpt>
      <trkpt lat="42.589270" lon="2.418638">
        <ele>488.098</ele>
        <time>2021-05-28T22:10:46Z</time>
      </trkpt>
      <trkpt lat="42.589284" lon="2.418619">
        <ele>488.335</ele>
        <time>2021-05-28T22:10:47Z</time>
      </trkpt>
      <trkpt lat="42.589311" lon="2.418586">
        <ele>488.696</ele>
        <time>2021-05-28T22:10:49Z</time>
      </trkpt>
      <trkpt lat="42.589336" lon="2.418556">
        <ele>488.755</ele>
        <time>2021-05-28T22:10:51Z</time>
      </trkpt>
      <trkpt lat="42.589364" lon="2.418524">
        <ele>488.772</ele>
        <time>2021-05-28T22:10:53Z</time>
      </trkpt>
      <trkpt lat="42.589386" lon="2.418486">
        <ele>489.047</ele>
        <time>2021-05-28T22:10:55Z</time>
      </trkpt>
      <trkpt lat="42.589407" lon="2.418450">
        <ele>489.354</ele>
        <time>2021-05-28T22:10:57Z</time>
      </trkpt>
      <trkpt lat="42.589422" lon="2.418408">
        <ele>489.922</ele>
        <time>2021-05-28T22:10:59Z</time>
      </trkpt>
      <trkpt lat="42.589449" lon="2.418371">
        <ele>489.999</ele>
        <time>2021-05-28T22:11:01Z</time>
      </trkpt>
      <trkpt lat="42.589464" lon="2.418355">
        <ele>489.707</ele>
        <time>2021-05-28T22:11:02Z</time>
      </trkpt>
      <trkpt lat="42.589486" lon="2.418322">
        <ele>489.627</ele>
        <time>2021-05-28T22:11:04Z</time>
      </trkpt>
      <trkpt lat="42.589500" lon="2.418302">
        <ele>489.508</ele>
        <time>2021-05-28T22:11:05Z</time>
      </trkpt>
      <trkpt lat="42.589520" lon="2.418273">
        <ele>489.426</ele>
        <time>2021-05-28T22:11:07Z</time>
      </trkpt>
      <trkpt lat="42.589537" lon="2.418240">
        <ele>489.593</ele>
        <time>2021-05-28T22:11:09Z</time>
      </trkpt>
      <trkpt lat="42.589547" lon="2.418217">
        <ele>489.694</ele>
        <time>2021-05-28T22:11:10Z</time>
      </trkpt>
      <trkpt lat="42.589561" lon="2.418179">
        <ele>490.053</ele>
        <time>2021-05-28T22:11:12Z</time>
      </trkpt>
      <trkpt lat="42.589572" lon="2.418155">
        <ele>490.180</ele>
        <time>2021-05-28T22:11:13Z</time>
      </trkpt>
      <trkpt lat="42.589590" lon="2.418129">
        <ele>490.025</ele>
        <time>2021-05-28T22:11:14Z</time>
      </trkpt>
      <trkpt lat="42.589605" lon="2.418109">
        <ele>490.072</ele>
        <time>2021-05-28T22:11:15Z</time>
      </trkpt>
      <trkpt lat="42.589620" lon="2.418095">
        <ele>489.780</ele>
        <time>2021-05-28T22:11:16Z</time>
      </trkpt>
      <trkpt lat="42.589638" lon="2.418076">
        <ele>489.531</ele>
        <time>2021-05-28T22:11:17Z</time>
      </trkpt>
      <trkpt lat="42.589653" lon="2.418057">
        <ele>489.561</ele>
        <time>2021-05-28T22:11:18Z</time>
      </trkpt>
      <trkpt lat="42.589666" lon="2.418041">
        <ele>489.307</ele>
        <time>2021-05-28T22:11:19Z</time>
      </trkpt>
      <trkpt lat="42.589682" lon="2.418022">
        <ele>489.008</ele>
        <time>2021-05-28T22:11:20Z</time>
      </trkpt>
      <trkpt lat="42.589697" lon="2.418005">
        <ele>488.780</ele>
        <time>2021-05-28T22:11:21Z</time>
      </trkpt>
      <trkpt lat="42.589712" lon="2.417988">
        <ele>488.417</ele>
        <time>2021-05-28T22:11:22Z</time>
      </trkpt>
      <trkpt lat="42.589731" lon="2.417975">
        <ele>487.638</ele>
        <time>2021-05-28T22:11:23Z</time>
      </trkpt>
      <trkpt lat="42.589747" lon="2.417962">
        <ele>486.717</ele>
        <time>2021-05-28T22:11:24Z</time>
      </trkpt>
      <trkpt lat="42.589768" lon="2.417933">
        <ele>485.654</ele>
        <time>2021-05-28T22:11:26Z</time>
      </trkpt>
      <trkpt lat="42.589781" lon="2.417907">
        <ele>485.199</ele>
        <time>2021-05-28T22:11:28Z</time>
      </trkpt>
      <trkpt lat="42.589797" lon="2.417882">
        <ele>484.416</ele>
        <time>2021-05-28T22:11:30Z</time>
      </trkpt>
      <trkpt lat="42.589809" lon="2.417860">
        <ele>483.944</ele>
        <time>2021-05-28T22:11:32Z</time>
      </trkpt>
      <trkpt lat="42.589809" lon="2.417823">
        <ele>484.433</ele>
        <time>2021-05-28T22:11:34Z</time>
      </trkpt>
      <trkpt lat="42.589809" lon="2.417796">
        <ele>484.823</ele>
        <time>2021-05-28T22:11:36Z</time>
      </trkpt>
      <trkpt lat="42.589805" lon="2.417772">
        <ele>485.315</ele>
        <time>2021-05-28T22:11:38Z</time>
      </trkpt>
      <trkpt lat="42.589783" lon="2.417727">
        <ele>486.908</ele>
        <time>2021-05-28T22:11:40Z</time>
      </trkpt>
      <trkpt lat="42.589772" lon="2.417705">
        <ele>487.640</ele>
        <time>2021-05-28T22:11:41Z</time>
      </trkpt>
      <trkpt lat="42.589761" lon="2.417678">
        <ele>488.237</ele>
        <time>2021-05-28T22:11:42Z</time>
      </trkpt>
      <trkpt lat="42.589751" lon="2.417655">
        <ele>488.888</ele>
        <time>2021-05-28T22:11:43Z</time>
      </trkpt>
      <trkpt lat="42.589741" lon="2.417632">
        <ele>489.497</ele>
        <time>2021-05-28T22:11:44Z</time>
      </trkpt>
      <trkpt lat="42.589724" lon="2.417589">
        <ele>490.284</ele>
        <time>2021-05-28T22:11:46Z</time>
      </trkpt>
      <trkpt lat="42.589716" lon="2.417544">
        <ele>490.579</ele>
        <time>2021-05-28T22:11:48Z</time>
      </trkpt>
      <trkpt lat="42.589711" lon="2.417520">
        <ele>490.736</ele>
        <time>2021-05-28T22:11:49Z</time>
      </trkpt>
      <trkpt lat="42.589700" lon="2.417480">
        <ele>491.174</ele>
        <time>2021-05-28T22:11:51Z</time>
      </trkpt>
      <trkpt lat="42.589691" lon="2.417457">
        <ele>491.416</ele>
        <time>2021-05-28T22:11:52Z</time>
      </trkpt>
      <trkpt lat="42.589676" lon="2.417421">
        <ele>491.976</ele>
        <time>2021-05-28T22:11:54Z</time>
      </trkpt>
      <trkpt lat="42.589662" lon="2.417395">
        <ele>492.313</ele>
        <time>2021-05-28T22:11:56Z</time>
      </trkpt>
      <trkpt lat="42.589639" lon="2.417339">
        <ele>492.708</ele>
        <time>2021-05-28T22:11:59Z</time>
      </trkpt>
      <trkpt lat="42.589634" lon="2.417298">
        <ele>492.448</ele>
        <time>2021-05-28T22:12:01Z</time>
      </trkpt>
      <trkpt lat="42.589633" lon="2.417267">
        <ele>492.115</ele>
        <time>2021-05-28T22:12:03Z</time>
      </trkpt>
      <trkpt lat="42.589643" lon="2.417231">
        <ele>491.436</ele>
        <time>2021-05-28T22:12:05Z</time>
      </trkpt>
      <trkpt lat="42.589648" lon="2.417204">
        <ele>491.515</ele>
        <time>2021-05-28T22:12:07Z</time>
      </trkpt>
      <trkpt lat="42.589671" lon="2.417178">
        <ele>491.542</ele>
        <time>2021-05-28T22:12:12Z</time>
      </trkpt>
      <trkpt lat="42.589695" lon="2.417175">
        <ele>491.087</ele>
        <time>2021-05-28T22:12:14Z</time>
      </trkpt>
      <trkpt lat="42.589717" lon="2.417184">
        <ele>490.284</ele>
        <time>2021-05-28T22:12:16Z</time>
      </trkpt>
      <trkpt lat="42.589739" lon="2.417199">
        <ele>489.672</ele>
        <time>2021-05-28T22:12:19Z</time>
      </trkpt>
      <trkpt lat="42.589769" lon="2.417207">
        <ele>489.246</ele>
        <time>2021-05-28T22:12:22Z</time>
      </trkpt>
      <trkpt lat="42.589790" lon="2.417219">
        <ele>488.688</ele>
        <time>2021-05-28T22:12:24Z</time>
      </trkpt>
      <trkpt lat="42.589812" lon="2.417228">
        <ele>488.316</ele>
        <time>2021-05-28T22:12:26Z</time>
      </trkpt>
      <trkpt lat="42.589835" lon="2.417240">
        <ele>487.908</ele>
        <time>2021-05-28T22:12:28Z</time>
      </trkpt>
      <trkpt lat="42.589853" lon="2.417243">
        <ele>487.781</ele>
        <time>2021-05-28T22:12:30Z</time>
      </trkpt>
      <trkpt lat="42.589877" lon="2.417251">
        <ele>487.368</ele>
        <time>2021-05-28T22:12:32Z</time>
      </trkpt>
      <trkpt lat="42.589902" lon="2.417259">
        <ele>486.839</ele>
        <time>2021-05-28T22:12:34Z</time>
      </trkpt>
      <trkpt lat="42.589928" lon="2.417267">
        <ele>486.288</ele>
        <time>2021-05-28T22:12:36Z</time>
      </trkpt>
      <trkpt lat="42.589953" lon="2.417269">
        <ele>485.895</ele>
        <time>2021-05-28T22:12:38Z</time>
      </trkpt>
      <trkpt lat="42.589973" lon="2.417268">
        <ele>485.660</ele>
        <time>2021-05-28T22:12:40Z</time>
      </trkpt>
      <trkpt lat="42.589993" lon="2.417269">
        <ele>485.277</ele>
        <time>2021-05-28T22:12:42Z</time>
      </trkpt>
      <trkpt lat="42.590018" lon="2.417264">
        <ele>485.585</ele>
        <time>2021-05-28T22:12:44Z</time>
      </trkpt>
      <trkpt lat="42.590042" lon="2.417265">
        <ele>485.627</ele>
        <time>2021-05-28T22:12:46Z</time>
      </trkpt>
      <trkpt lat="42.590066" lon="2.417274">
        <ele>485.468</ele>
        <time>2021-05-28T22:12:48Z</time>
      </trkpt>
      <trkpt lat="42.590093" lon="2.417281">
        <ele>485.314</ele>
        <time>2021-05-28T22:12:50Z</time>
      </trkpt>
      <trkpt lat="42.590117" lon="2.417291">
        <ele>485.008</ele>
        <time>2021-05-28T22:12:53Z</time>
      </trkpt>
      <trkpt lat="42.590135" lon="2.417298">
        <ele>484.889</ele>
        <time>2021-05-28T22:12:55Z</time>
      </trkpt>
      <trkpt lat="42.590157" lon="2.417304">
        <ele>484.786</ele>
        <time>2021-05-28T22:12:57Z</time>
      </trkpt>
      <trkpt lat="42.590181" lon="2.417311">
        <ele>484.657</ele>
        <time>2021-05-28T22:12:59Z</time>
      </trkpt>
      <trkpt lat="42.590206" lon="2.417313">
        <ele>484.636</ele>
        <time>2021-05-28T22:13:01Z</time>
      </trkpt>
      <trkpt lat="42.590228" lon="2.417315">
        <ele>484.713</ele>
        <time>2021-05-28T22:13:03Z</time>
      </trkpt>
      <trkpt lat="42.590250" lon="2.417312">
        <ele>485.048</ele>
        <time>2021-05-28T22:13:05Z</time>
      </trkpt>
      <trkpt lat="42.590270" lon="2.417314">
        <ele>485.015</ele>
        <time>2021-05-28T22:13:07Z</time>
      </trkpt>
      <trkpt lat="42.590288" lon="2.417313">
        <ele>485.053</ele>
        <time>2021-05-28T22:13:09Z</time>
      </trkpt>
      <trkpt lat="42.590313" lon="2.417301">
        <ele>485.219</ele>
        <time>2021-05-28T22:13:13Z</time>
      </trkpt>
      <trkpt lat="42.590333" lon="2.417298">
        <ele>485.109</ele>
        <time>2021-05-28T22:13:14Z</time>
      </trkpt>
      <trkpt lat="42.590353" lon="2.417289">
        <ele>485.319</ele>
        <time>2021-05-28T22:13:16Z</time>
      </trkpt>
      <trkpt lat="42.590371" lon="2.417267">
        <ele>485.908</ele>
        <time>2021-05-28T22:13:18Z</time>
      </trkpt>
      <trkpt lat="42.590383" lon="2.417234">
        <ele>487.098</ele>
        <time>2021-05-28T22:13:20Z</time>
      </trkpt>
      <trkpt lat="42.590391" lon="2.417202">
        <ele>487.915</ele>
        <time>2021-05-28T22:13:22Z</time>
      </trkpt>
      <trkpt lat="42.590400" lon="2.417175">
        <ele>488.586</ele>
        <time>2021-05-28T22:13:24Z</time>
      </trkpt>
      <trkpt lat="42.590411" lon="2.417150">
        <ele>488.975</ele>
        <time>2021-05-28T22:13:26Z</time>
      </trkpt>
      <trkpt lat="42.590430" lon="2.417127">
        <ele>489.172</ele>
        <time>2021-05-28T22:13:28Z</time>
      </trkpt>
      <trkpt lat="42.590450" lon="2.417103">
        <ele>489.377</ele>
        <time>2021-05-28T22:13:30Z</time>
      </trkpt>
      <trkpt lat="42.590466" lon="2.417080">
        <ele>489.524</ele>
        <time>2021-05-28T22:13:32Z</time>
      </trkpt>
      <trkpt lat="42.590483" lon="2.417059">
        <ele>489.672</ele>
        <time>2021-05-28T22:13:34Z</time>
      </trkpt>
      <trkpt lat="42.590501" lon="2.417037">
        <ele>489.612</ele>
        <time>2021-05-28T22:13:36Z</time>
      </trkpt>
      <trkpt lat="42.590516" lon="2.417021">
        <ele>489.632</ele>
        <time>2021-05-28T22:13:38Z</time>
      </trkpt>
      <trkpt lat="42.590534" lon="2.417007">
        <ele>489.405</ele>
        <time>2021-05-28T22:13:40Z</time>
      </trkpt>
      <trkpt lat="42.590550" lon="2.416990">
        <ele>489.308</ele>
        <time>2021-05-28T22:13:42Z</time>
      </trkpt>
      <trkpt lat="42.590569" lon="2.416974">
        <ele>489.078</ele>
        <time>2021-05-28T22:13:44Z</time>
      </trkpt>
      <trkpt lat="42.590586" lon="2.416957">
        <ele>488.745</ele>
        <time>2021-05-28T22:13:46Z</time>
      </trkpt>
      <trkpt lat="42.590610" lon="2.416936">
        <ele>488.176</ele>
        <time>2021-05-28T22:13:49Z</time>
      </trkpt>
      <trkpt lat="42.590629" lon="2.416911">
        <ele>487.885</ele>
        <time>2021-05-28T22:13:52Z</time>
      </trkpt>
      <trkpt lat="42.590641" lon="2.416885">
        <ele>487.732</ele>
        <time>2021-05-28T22:13:54Z</time>
      </trkpt>
      <trkpt lat="42.590652" lon="2.416860">
        <ele>487.747</ele>
        <time>2021-05-28T22:13:56Z</time>
      </trkpt>
      <trkpt lat="42.590665" lon="2.416831">
        <ele>487.624</ele>
        <time>2021-05-28T22:13:58Z</time>
      </trkpt>
      <trkpt lat="42.590678" lon="2.416805">
        <ele>487.512</ele>
        <time>2021-05-28T22:14:00Z</time>
      </trkpt>
      <trkpt lat="42.590688" lon="2.416778">
        <ele>487.689</ele>
        <time>2021-05-28T22:14:02Z</time>
      </trkpt>
      <trkpt lat="42.590688" lon="2.416749">
        <ele>488.006</ele>
        <time>2021-05-28T22:14:04Z</time>
      </trkpt>
      <trkpt lat="42.590689" lon="2.416722">
        <ele>488.426</ele>
        <time>2021-05-28T22:14:06Z</time>
      </trkpt>
      <trkpt lat="42.590698" lon="2.416694">
        <ele>488.508</ele>
        <time>2021-05-28T22:14:08Z</time>
      </trkpt>
      <trkpt lat="42.590702" lon="2.416664">
        <ele>488.845</ele>
        <time>2021-05-28T22:14:10Z</time>
      </trkpt>
      <trkpt lat="42.590706" lon="2.416622">
        <ele>488.932</ele>
        <time>2021-05-28T22:14:12Z</time>
      </trkpt>
      <trkpt lat="42.590715" lon="2.416590">
        <ele>488.893</ele>
        <time>2021-05-28T22:14:14Z</time>
      </trkpt>
      <trkpt lat="42.590735" lon="2.416592">
        <ele>488.342</ele>
        <time>2021-05-28T22:14:21Z</time>
      </trkpt>
      <trkpt lat="42.590753" lon="2.416594">
        <ele>487.839</ele>
        <time>2021-05-28T22:14:24Z</time>
      </trkpt>
      <trkpt lat="42.590780" lon="2.416608">
        <ele>486.964</ele>
        <time>2021-05-28T22:14:29Z</time>
      </trkpt>
      <trkpt lat="42.590799" lon="2.416611">
        <ele>486.431</ele>
        <time>2021-05-28T22:14:30Z</time>
      </trkpt>
      <trkpt lat="42.590828" lon="2.416617">
        <ele>485.559</ele>
        <time>2021-05-28T22:14:32Z</time>
      </trkpt>
      <trkpt lat="42.590848" lon="2.416617">
        <ele>484.867</ele>
        <time>2021-05-28T22:14:34Z</time>
      </trkpt>
      <trkpt lat="42.590871" lon="2.416617">
        <ele>484.081</ele>
        <time>2021-05-28T22:14:36Z</time>
      </trkpt>
      <trkpt lat="42.590895" lon="2.416614">
        <ele>483.219</ele>
        <time>2021-05-28T22:14:38Z</time>
      </trkpt>
      <trkpt lat="42.590918" lon="2.416610">
        <ele>482.408</ele>
        <time>2021-05-28T22:14:41Z</time>
      </trkpt>
      <trkpt lat="42.590939" lon="2.416606">
        <ele>481.763</ele>
        <time>2021-05-28T22:14:43Z</time>
      </trkpt>
      <trkpt lat="42.590955" lon="2.416593">
        <ele>481.350</ele>
        <time>2021-05-28T22:14:45Z</time>
      </trkpt>
      <trkpt lat="42.590972" lon="2.416577">
        <ele>480.881</ele>
        <time>2021-05-28T22:14:54Z</time>
      </trkpt>
      <trkpt lat="42.590990" lon="2.416567">
        <ele>480.310</ele>
        <time>2021-05-28T22:14:57Z</time>
      </trkpt>
      <trkpt lat="42.591012" lon="2.416567">
        <ele>479.587</ele>
        <time>2021-05-28T22:15:01Z</time>
      </trkpt>
      <trkpt lat="42.591031" lon="2.416572">
        <ele>478.822</ele>
        <time>2021-05-28T22:15:04Z</time>
      </trkpt>
      <trkpt lat="42.591054" lon="2.416578">
        <ele>477.929</ele>
        <time>2021-05-28T22:15:08Z</time>
      </trkpt>
      <trkpt lat="42.591078" lon="2.416581">
        <ele>477.117</ele>
        <time>2021-05-28T22:15:11Z</time>
      </trkpt>
      <trkpt lat="42.591101" lon="2.416579">
        <ele>476.378</ele>
        <time>2021-05-28T22:15:14Z</time>
      </trkpt>
      <trkpt lat="42.591121" lon="2.416576">
        <ele>475.733</ele>
        <time>2021-05-28T22:15:27Z</time>
      </trkpt>
      <trkpt lat="42.591142" lon="2.416580">
        <ele>475.226</ele>
        <time>2021-05-28T22:15:30Z</time>
      </trkpt>
      <trkpt lat="42.591165" lon="2.416570">
        <ele>474.708</ele>
        <time>2021-05-28T22:15:33Z</time>
      </trkpt>
      <trkpt lat="42.591192" lon="2.416574">
        <ele>474.094</ele>
        <time>2021-05-28T22:15:35Z</time>
      </trkpt>
      <trkpt lat="42.591219" lon="2.416575">
        <ele>473.351</ele>
        <time>2021-05-28T22:15:37Z</time>
      </trkpt>
      <trkpt lat="42.591258" lon="2.416580">
        <ele>472.242</ele>
        <time>2021-05-28T22:15:40Z</time>
      </trkpt>
      <trkpt lat="42.591284" lon="2.416582">
        <ele>471.671</ele>
        <time>2021-05-28T22:15:42Z</time>
      </trkpt>
      <trkpt lat="42.591347" lon="2.416589">
        <ele>469.988</ele>
        <time>2021-05-28T22:15:48Z</time>
      </trkpt>
      <trkpt lat="42.591425" lon="2.416583">
        <ele>468.063</ele>
        <time>2021-05-28T22:15:57Z</time>
      </trkpt>
      <trkpt lat="42.591470" lon="2.416505">
        <ele>467.710</ele>
        <time>2021-05-28T22:16:02Z</time>
      </trkpt>
      <trkpt lat="42.591487" lon="2.416487">
        <ele>467.518</ele>
        <time>2021-05-28T22:16:04Z</time>
      </trkpt>
      <trkpt lat="42.591500" lon="2.416461">
        <ele>467.456</ele>
        <time>2021-05-28T22:16:08Z</time>
      </trkpt>
      <trkpt lat="42.591522" lon="2.416441">
        <ele>467.159</ele>
        <time>2021-05-28T22:16:11Z</time>
      </trkpt>
      <trkpt lat="42.591543" lon="2.416425">
        <ele>466.714</ele>
        <time>2021-05-28T22:16:13Z</time>
      </trkpt>
      <trkpt lat="42.591561" lon="2.416398">
        <ele>466.608</ele>
        <time>2021-05-28T22:16:16Z</time>
      </trkpt>
      <trkpt lat="42.591582" lon="2.416379">
        <ele>466.222</ele>
        <time>2021-05-28T22:16:17Z</time>
      </trkpt>
      <trkpt lat="42.591602" lon="2.416360">
        <ele>466.079</ele>
        <time>2021-05-28T22:16:20Z</time>
      </trkpt>
      <trkpt lat="42.591576" lon="2.416375">
        <ele>466.410</ele>
        <time>2021-05-28T22:16:38Z</time>
      </trkpt>
      <trkpt lat="42.591546" lon="2.416389">
        <ele>467.099</ele>
        <time>2021-05-28T22:16:39Z</time>
      </trkpt>
      <trkpt lat="42.591527" lon="2.416401">
        <ele>467.476</ele>
        <time>2021-05-28T22:16:41Z</time>
      </trkpt>
      <trkpt lat="42.591506" lon="2.416411">
        <ele>467.881</ele>
        <time>2021-05-28T22:16:43Z</time>
      </trkpt>
      <trkpt lat="42.591485" lon="2.416421">
        <ele>468.298</ele>
        <time>2021-05-28T22:16:44Z</time>
      </trkpt>
      <trkpt lat="42.591464" lon="2.416435">
        <ele>468.616</ele>
        <time>2021-05-28T22:16:45Z</time>
      </trkpt>
      <trkpt lat="42.591444" lon="2.416448">
        <ele>469.078</ele>
        <time>2021-05-28T22:16:47Z</time>
      </trkpt>
      <trkpt lat="42.591423" lon="2.416468">
        <ele>469.333</ele>
        <time>2021-05-28T22:16:52Z</time>
      </trkpt>
      <trkpt lat="42.591408" lon="2.416489">
        <ele>469.426</ele>
        <time>2021-05-28T22:16:53Z</time>
      </trkpt>
      <trkpt lat="42.591393" lon="2.416507">
        <ele>469.608</ele>
        <time>2021-05-28T22:16:57Z</time>
      </trkpt>
      <trkpt lat="42.591380" lon="2.416525">
        <ele>469.884</ele>
        <time>2021-05-28T22:16:59Z</time>
      </trkpt>
      <trkpt lat="42.591366" lon="2.416545">
        <ele>469.971</ele>
        <time>2021-05-28T22:17:03Z</time>
      </trkpt>
      <trkpt lat="42.591345" lon="2.416551">
        <ele>470.432</ele>
        <time>2021-05-28T22:17:06Z</time>
      </trkpt>
      <trkpt lat="42.591324" lon="2.416551">
        <ele>470.991</ele>
        <time>2021-05-28T22:17:09Z</time>
      </trkpt>
      <trkpt lat="42.591305" lon="2.416552">
        <ele>471.428</ele>
        <time>2021-05-28T22:17:13Z</time>
      </trkpt>
      <trkpt lat="42.591285" lon="2.416556">
        <ele>471.853</ele>
        <time>2021-05-28T22:17:15Z</time>
      </trkpt>
      <trkpt lat="42.591265" lon="2.416552">
        <ele>472.470</ele>
        <time>2021-05-28T22:17:20Z</time>
      </trkpt>
      <trkpt lat="42.591247" lon="2.416541">
        <ele>472.968</ele>
        <time>2021-05-28T22:17:24Z</time>
      </trkpt>
      <trkpt lat="42.591221" lon="2.416536">
        <ele>473.684</ele>
        <time>2021-05-28T22:17:29Z</time>
      </trkpt>
      <trkpt lat="42.591194" lon="2.416544">
        <ele>474.207</ele>
        <time>2021-05-28T22:17:30Z</time>
      </trkpt>
      <trkpt lat="42.591172" lon="2.416538">
        <ele>474.917</ele>
        <time>2021-05-28T22:17:34Z</time>
      </trkpt>
      <trkpt lat="42.591152" lon="2.416534">
        <ele>475.408</ele>
        <time>2021-05-28T22:17:39Z</time>
      </trkpt>
      <trkpt lat="42.591137" lon="2.416522">
        <ele>475.995</ele>
        <time>2021-05-28T22:17:41Z</time>
      </trkpt>
      <trkpt lat="42.591119" lon="2.416524">
        <ele>476.372</ele>
        <time>2021-05-28T22:17:46Z</time>
      </trkpt>
      <trkpt lat="42.591098" lon="2.416535">
        <ele>476.983</ele>
        <time>2021-05-28T22:17:49Z</time>
      </trkpt>
      <trkpt lat="42.591074" lon="2.416548">
        <ele>477.692</ele>
        <time>2021-05-28T22:17:52Z</time>
      </trkpt>
      <trkpt lat="42.591050" lon="2.416547">
        <ele>478.429</ele>
        <time>2021-05-28T22:17:57Z</time>
      </trkpt>
      <trkpt lat="42.591032" lon="2.416558">
        <ele>478.984</ele>
        <time>2021-05-28T22:17:59Z</time>
      </trkpt>
      <trkpt lat="42.591013" lon="2.416550">
        <ele>479.661</ele>
        <time>2021-05-28T22:18:03Z</time>
      </trkpt>
      <trkpt lat="42.591002" lon="2.416530">
        <ele>480.299</ele>
        <time>2021-05-28T22:18:08Z</time>
      </trkpt>
      <trkpt lat="42.590983" lon="2.416515">
        <ele>481.092</ele>
        <time>2021-05-28T22:18:13Z</time>
      </trkpt>
      <trkpt lat="42.590961" lon="2.416502">
        <ele>481.973</ele>
        <time>2021-05-28T22:18:17Z</time>
      </trkpt>
      <trkpt lat="42.590940" lon="2.416506">
        <ele>482.520</ele>
        <time>2021-05-28T22:18:20Z</time>
      </trkpt>
      <trkpt lat="42.590930" lon="2.416528">
        <ele>482.708</ele>
        <time>2021-05-28T22:18:23Z</time>
      </trkpt>
      <trkpt lat="42.590920" lon="2.416549">
        <ele>482.996</ele>
        <time>2021-05-28T22:18:26Z</time>
      </trkpt>
      <trkpt lat="42.590899" lon="2.416557">
        <ele>483.563</ele>
        <time>2021-05-28T22:18:30Z</time>
      </trkpt>
      <trkpt lat="42.590881" lon="2.416559">
        <ele>484.124</ele>
        <time>2021-05-28T22:18:31Z</time>
      </trkpt>
      <trkpt lat="42.590855" lon="2.416559">
        <ele>485.013</ele>
        <time>2021-05-28T22:18:34Z</time>
      </trkpt>
      <trkpt lat="42.590837" lon="2.416561">
        <ele>485.670</ele>
        <time>2021-05-28T22:18:37Z</time>
      </trkpt>
      <trkpt lat="42.590817" lon="2.416558">
        <ele>486.285</ele>
        <time>2021-05-28T22:18:40Z</time>
      </trkpt>
      <trkpt lat="42.590795" lon="2.416556">
        <ele>486.842</ele>
        <time>2021-05-28T22:18:44Z</time>
      </trkpt>
      <trkpt lat="42.590769" lon="2.416554">
        <ele>487.610</ele>
        <time>2021-05-28T22:18:47Z</time>
      </trkpt>
      <trkpt lat="42.590745" lon="2.416549">
        <ele>488.386</ele>
        <time>2021-05-28T22:18:51Z</time>
      </trkpt>
      <trkpt lat="42.590725" lon="2.416540">
        <ele>488.960</ele>
        <time>2021-05-28T22:18:54Z</time>
      </trkpt>
      <trkpt lat="42.590707" lon="2.416528">
        <ele>489.426</ele>
        <time>2021-05-28T22:19:00Z</time>
      </trkpt>
      <trkpt lat="42.590688" lon="2.416524">
        <ele>489.908</ele>
        <time>2021-05-28T22:19:03Z</time>
      </trkpt>
      <trkpt lat="42.590703" lon="2.416507">
        <ele>489.615</ele>
        <time>2021-05-28T22:19:08Z</time>
      </trkpt>
      <trkpt lat="42.590720" lon="2.416498">
        <ele>489.212</ele>
        <time>2021-05-28T22:19:14Z</time>
      </trkpt>
      <trkpt lat="42.590735" lon="2.416478">
        <ele>488.953</ele>
        <time>2021-05-28T22:19:18Z</time>
      </trkpt>
      <trkpt lat="42.590750" lon="2.416462">
        <ele>488.762</ele>
        <time>2021-05-28T22:19:19Z</time>
      </trkpt>
      <trkpt lat="42.590767" lon="2.416440">
        <ele>488.359</ele>
        <time>2021-05-28T22:19:22Z</time>
      </trkpt>
      <trkpt lat="42.590773" lon="2.416413">
        <ele>488.454</ele>
        <time>2021-05-28T22:19:24Z</time>
      </trkpt>
      <trkpt lat="42.590782" lon="2.416375">
        <ele>488.321</ele>
        <time>2021-05-28T22:19:27Z</time>
      </trkpt>
      <trkpt lat="42.590789" lon="2.416351">
        <ele>488.169</ele>
        <time>2021-05-28T22:19:29Z</time>
      </trkpt>
      <trkpt lat="42.590795" lon="2.416327">
        <ele>488.074</ele>
        <time>2021-05-28T22:19:31Z</time>
      </trkpt>
      <trkpt lat="42.590801" lon="2.416300">
        <ele>487.856</ele>
        <time>2021-05-28T22:19:33Z</time>
      </trkpt>
      <trkpt lat="42.590804" lon="2.416276">
        <ele>487.721</ele>
        <time>2021-05-28T22:19:35Z</time>
      </trkpt>
      <trkpt lat="42.590807" lon="2.416251">
        <ele>487.708</ele>
        <time>2021-05-28T22:19:37Z</time>
      </trkpt>
      <trkpt lat="42.590809" lon="2.416216">
        <ele>487.694</ele>
        <time>2021-05-28T22:19:40Z</time>
      </trkpt>
      <trkpt lat="42.590813" lon="2.416189">
        <ele>487.581</ele>
        <time>2021-05-28T22:19:42Z</time>
      </trkpt>
      <trkpt lat="42.590807" lon="2.416162">
        <ele>487.732</ele>
        <time>2021-05-28T22:19:45Z</time>
      </trkpt>
      <trkpt lat="42.590798" lon="2.416134">
        <ele>487.961</ele>
        <time>2021-05-28T22:19:48Z</time>
      </trkpt>
      <trkpt lat="42.590795" lon="2.416098">
        <ele>488.048</ele>
        <time>2021-05-28T22:19:53Z</time>
      </trkpt>
      <trkpt lat="42.590794" lon="2.416064">
        <ele>488.023</ele>
        <time>2021-05-28T22:19:56Z</time>
      </trkpt>
      <trkpt lat="42.590798" lon="2.416035">
        <ele>488.060</ele>
        <time>2021-05-28T22:19:57Z</time>
      </trkpt>
      <trkpt lat="42.590799" lon="2.416003">
        <ele>488.028</ele>
        <time>2021-05-28T22:19:59Z</time>
      </trkpt>
      <trkpt lat="42.590806" lon="2.415981">
        <ele>487.849</ele>
        <time>2021-05-28T22:20:02Z</time>
      </trkpt>
      <trkpt lat="42.590806" lon="2.415943">
        <ele>487.802</ele>
        <time>2021-05-28T22:20:04Z</time>
      </trkpt>
      <trkpt lat="42.590826" lon="2.415924">
        <ele>487.222</ele>
        <time>2021-05-28T22:20:07Z</time>
      </trkpt>
      <trkpt lat="42.590843" lon="2.415919">
        <ele>486.708</ele>
        <time>2021-05-28T22:20:11Z</time>
      </trkpt>
      <trkpt lat="42.590846" lon="2.415871">
        <ele>486.791</ele>
        <time>2021-05-28T22:20:13Z</time>
      </trkpt>
      <trkpt lat="42.590846" lon="2.415845">
        <ele>486.798</ele>
        <time>2021-05-28T22:20:14Z</time>
      </trkpt>
      <trkpt lat="42.590853" lon="2.415800">
        <ele>486.659</ele>
        <time>2021-05-28T22:20:17Z</time>
      </trkpt>
      <trkpt lat="42.590862" lon="2.415755">
        <ele>486.678</ele>
        <time>2021-05-28T22:20:18Z</time>
      </trkpt>
      <trkpt lat="42.590883" lon="2.415709">
        <ele>486.415</ele>
        <time>2021-05-28T22:20:20Z</time>
      </trkpt>
      <trkpt lat="42.590893" lon="2.415674">
        <ele>486.340</ele>
        <time>2021-05-28T22:20:22Z</time>
      </trkpt>
      <trkpt lat="42.590886" lon="2.415648">
        <ele>486.687</ele>
        <time>2021-05-28T22:20:25Z</time>
      </trkpt>
      <trkpt lat="42.590874" lon="2.415620">
        <ele>487.025</ele>
        <time>2021-05-28T22:20:26Z</time>
      </trkpt>
      <trkpt lat="42.590862" lon="2.415590">
        <ele>487.391</ele>
        <time>2021-05-28T22:20:29Z</time>
      </trkpt>
      <trkpt lat="42.590866" lon="2.415560">
        <ele>487.481</ele>
        <time>2021-05-28T22:20:32Z</time>
      </trkpt>
      <trkpt lat="42.590866" lon="2.415513">
        <ele>487.719</ele>
        <time>2021-05-28T22:20:34Z</time>
      </trkpt>
      <trkpt lat="42.590880" lon="2.415472">
        <ele>487.708</ele>
        <time>2021-05-28T22:20:37Z</time>
      </trkpt>
      <trkpt lat="42.590903" lon="2.415464">
        <ele>487.536</ele>
        <time>2021-05-28T22:20:39Z</time>
      </trkpt>
      <trkpt lat="42.590917" lon="2.415490">
        <ele>487.183</ele>
        <time>2021-05-28T22:20:42Z</time>
      </trkpt>
      <trkpt lat="42.590945" lon="2.415540">
        <ele>486.284</ele>
        <time>2021-05-28T22:20:47Z</time>
      </trkpt>
      <trkpt lat="42.590971" lon="2.415568">
        <ele>485.443</ele>
        <time>2021-05-28T22:20:51Z</time>
      </trkpt>
      <trkpt lat="42.590989" lon="2.415584">
        <ele>485.080</ele>
        <time>2021-05-28T22:20:52Z</time>
      </trkpt>
      <trkpt lat="42.591007" lon="2.415591">
        <ele>484.685</ele>
        <time>2021-05-28T22:20:55Z</time>
      </trkpt>
      <trkpt lat="42.591037" lon="2.415588">
        <ele>484.072</ele>
        <time>2021-05-28T22:20:58Z</time>
      </trkpt>
      <trkpt lat="42.591085" lon="2.415572">
        <ele>483.380</ele>
        <time>2021-05-28T22:21:01Z</time>
      </trkpt>
      <trkpt lat="42.591121" lon="2.415554">
        <ele>482.911</ele>
        <time>2021-05-28T22:21:04Z</time>
      </trkpt>
      <trkpt lat="42.591147" lon="2.415544">
        <ele>482.921</ele>
        <time>2021-05-28T22:21:06Z</time>
      </trkpt>
      <trkpt lat="42.591175" lon="2.415528">
        <ele>482.903</ele>
        <time>2021-05-28T22:21:07Z</time>
      </trkpt>
      <trkpt lat="42.591195" lon="2.415518">
        <ele>482.908</ele>
        <time>2021-05-28T22:21:09Z</time>
      </trkpt>
      <trkpt lat="42.591224" lon="2.415507">
        <ele>482.858</ele>
        <time>2021-05-28T22:21:13Z</time>
      </trkpt>
      <trkpt lat="42.591243" lon="2.415499">
        <ele>482.725</ele>
        <time>2021-05-28T22:21:14Z</time>
      </trkpt>
      <trkpt lat="42.591266" lon="2.415486">
        <ele>482.756</ele>
        <time>2021-05-28T22:21:18Z</time>
      </trkpt>
      <trkpt lat="42.591286" lon="2.415479">
        <ele>482.615</ele>
        <time>2021-05-28T22:21:19Z</time>
      </trkpt>
      <trkpt lat="42.591310" lon="2.415470">
        <ele>482.582</ele>
        <time>2021-05-28T22:21:22Z</time>
      </trkpt>
      <trkpt lat="42.591339" lon="2.415458">
        <ele>482.427</ele>
        <time>2021-05-28T22:21:24Z</time>
      </trkpt>
      <trkpt lat="42.591358" lon="2.415455">
        <ele>482.264</ele>
        <time>2021-05-28T22:21:26Z</time>
      </trkpt>
      <trkpt lat="42.591381" lon="2.415450">
        <ele>482.042</ele>
        <time>2021-05-28T22:21:29Z</time>
      </trkpt>
      <trkpt lat="42.591404" lon="2.415438">
        <ele>482.051</ele>
        <time>2021-05-28T22:21:31Z</time>
      </trkpt>
      <trkpt lat="42.591426" lon="2.415428">
        <ele>481.901</ele>
        <time>2021-05-28T22:21:34Z</time>
      </trkpt>
      <trkpt lat="42.591444" lon="2.415420">
        <ele>481.811</ele>
        <time>2021-05-28T22:21:36Z</time>
      </trkpt>
      <trkpt lat="42.591456" lon="2.415400">
        <ele>482.108</ele>
        <time>2021-05-28T22:21:39Z</time>
      </trkpt>
      <trkpt lat="42.591475" lon="2.415393">
        <ele>482.032</ele>
        <time>2021-05-28T22:21:43Z</time>
      </trkpt>
      <trkpt lat="42.591493" lon="2.415392">
        <ele>481.869</ele>
        <time>2021-05-28T22:21:48Z</time>
      </trkpt>
      <trkpt lat="42.591511" lon="2.415374">
        <ele>481.950</ele>
        <time>2021-05-28T22:21:49Z</time>
      </trkpt>
      <trkpt lat="42.591529" lon="2.415351">
        <ele>482.249</ele>
        <time>2021-05-28T22:21:52Z</time>
      </trkpt>
      <trkpt lat="42.591538" lon="2.415327">
        <ele>482.576</ele>
        <time>2021-05-28T22:21:54Z</time>
      </trkpt>
      <trkpt lat="42.591548" lon="2.415301">
        <ele>482.991</ele>
        <time>2021-05-28T22:22:00Z</time>
      </trkpt>
      <trkpt lat="42.591568" lon="2.415276">
        <ele>483.148</ele>
        <time>2021-05-28T22:22:02Z</time>
      </trkpt>
      <trkpt lat="42.591591" lon="2.415256">
        <ele>483.236</ele>
        <time>2021-05-28T22:22:04Z</time>
      </trkpt>
      <trkpt lat="42.591618" lon="2.415244">
        <ele>483.066</ele>
        <time>2021-05-28T22:22:05Z</time>
      </trkpt>
      <trkpt lat="42.591640" lon="2.415229">
        <ele>483.029</ele>
        <time>2021-05-28T22:22:07Z</time>
      </trkpt>
      <trkpt lat="42.591661" lon="2.415227">
        <ele>482.821</ele>
        <time>2021-05-28T22:22:10Z</time>
      </trkpt>
      <trkpt lat="42.591688" lon="2.415222">
        <ele>482.708</ele>
        <time>2021-05-28T22:22:13Z</time>
      </trkpt>
      <trkpt lat="42.591710" lon="2.415216">
        <ele>482.883</ele>
        <time>2021-05-28T22:22:15Z</time>
      </trkpt>
      <trkpt lat="42.591735" lon="2.415211">
        <ele>482.890</ele>
        <time>2021-05-28T22:22:17Z</time>
      </trkpt>
      <trkpt lat="42.591755" lon="2.415200">
        <ele>482.991</ele>
        <time>2021-05-28T22:22:20Z</time>
      </trkpt>
      <trkpt lat="42.591772" lon="2.415191">
        <ele>483.060</ele>
        <time>2021-05-28T22:22:24Z</time>
      </trkpt>
      <trkpt lat="42.591788" lon="2.415172">
        <ele>483.357</ele>
        <time>2021-05-28T22:22:27Z</time>
      </trkpt>
      <trkpt lat="42.591804" lon="2.415156">
        <ele>483.562</ele>
        <time>2021-05-28T22:22:31Z</time>
      </trkpt>
      <trkpt lat="42.591820" lon="2.415138">
        <ele>483.759</ele>
        <time>2021-05-28T22:22:33Z</time>
      </trkpt>
      <trkpt lat="42.591835" lon="2.415117">
        <ele>484.187</ele>
        <time>2021-05-28T22:22:35Z</time>
      </trkpt>
      <trkpt lat="42.591851" lon="2.415095">
        <ele>484.469</ele>
        <time>2021-05-28T22:22:39Z</time>
      </trkpt>
      <trkpt lat="42.591871" lon="2.415069">
        <ele>484.804</ele>
        <time>2021-05-28T22:22:42Z</time>
      </trkpt>
      <trkpt lat="42.591890" lon="2.415059">
        <ele>485.024</ele>
        <time>2021-05-28T22:22:43Z</time>
      </trkpt>
      <trkpt lat="42.591907" lon="2.415041">
        <ele>485.308</ele>
        <time>2021-05-28T22:22:46Z</time>
      </trkpt>
      <trkpt lat="42.591931" lon="2.415024">
        <ele>485.673</ele>
        <time>2021-05-28T22:22:47Z</time>
      </trkpt>
      <trkpt lat="42.591949" lon="2.415007">
        <ele>485.880</ele>
        <time>2021-05-28T22:22:49Z</time>
      </trkpt>
      <trkpt lat="42.591967" lon="2.414997">
        <ele>485.821</ele>
        <time>2021-05-28T22:22:52Z</time>
      </trkpt>
      <trkpt lat="42.591981" lon="2.414982">
        <ele>485.950</ele>
        <time>2021-05-28T22:22:54Z</time>
      </trkpt>
      <trkpt lat="42.592002" lon="2.414971">
        <ele>485.837</ele>
        <time>2021-05-28T22:23:01Z</time>
      </trkpt>
      <trkpt lat="42.592024" lon="2.414961">
        <ele>485.762</ele>
        <time>2021-05-28T22:23:05Z</time>
      </trkpt>
      <trkpt lat="42.592041" lon="2.414941">
        <ele>485.899</ele>
        <time>2021-05-28T22:23:07Z</time>
      </trkpt>
      <trkpt lat="42.592056" lon="2.414925">
        <ele>485.917</ele>
        <time>2021-05-28T22:23:10Z</time>
      </trkpt>
      <trkpt lat="42.592072" lon="2.414911">
        <ele>485.952</ele>
        <time>2021-05-28T22:23:12Z</time>
      </trkpt>
      <trkpt lat="42.592091" lon="2.414894">
        <ele>485.953</ele>
        <time>2021-05-28T22:23:14Z</time>
      </trkpt>
      <trkpt lat="42.592099" lon="2.414865">
        <ele>486.308</ele>
        <time>2021-05-28T22:23:21Z</time>
      </trkpt>
      <trkpt lat="42.592112" lon="2.414837">
        <ele>486.508</ele>
        <time>2021-05-28T22:23:24Z</time>
      </trkpt>
      <trkpt lat="42.592130" lon="2.414833">
        <ele>486.432</ele>
        <time>2021-05-28T22:23:29Z</time>
      </trkpt>
      <trkpt lat="42.592145" lon="2.414850">
        <ele>486.079</ele>
        <time>2021-05-28T22:23:31Z</time>
      </trkpt>
      <trkpt lat="42.592161" lon="2.414875">
        <ele>485.590</ele>
        <time>2021-05-28T22:23:33Z</time>
      </trkpt>
      <trkpt lat="42.592173" lon="2.414895">
        <ele>485.019</ele>
        <time>2021-05-28T22:23:37Z</time>
      </trkpt>
      <trkpt lat="42.592180" lon="2.414930">
        <ele>484.516</ele>
        <time>2021-05-28T22:23:43Z</time>
      </trkpt>
      <trkpt lat="42.592200" lon="2.414948">
        <ele>484.031</ele>
        <time>2021-05-28T22:23:45Z</time>
      </trkpt>
      <trkpt lat="42.592220" lon="2.414970">
        <ele>483.518</ele>
        <time>2021-05-28T22:23:46Z</time>
      </trkpt>
      <trkpt lat="42.592234" lon="2.414984">
        <ele>483.066</ele>
        <time>2021-05-28T22:23:48Z</time>
      </trkpt>
      <trkpt lat="42.592252" lon="2.415001">
        <ele>482.588</ele>
        <time>2021-05-28T22:23:51Z</time>
      </trkpt>
      <trkpt lat="42.592271" lon="2.415010">
        <ele>482.024</ele>
        <time>2021-05-28T22:23:54Z</time>
      </trkpt>
      <trkpt lat="42.592296" lon="2.414995">
        <ele>481.726</ele>
        <time>2021-05-28T22:24:00Z</time>
      </trkpt>
      <trkpt lat="42.592319" lon="2.414978">
        <ele>481.608</ele>
        <time>2021-05-28T22:24:02Z</time>
      </trkpt>
      <trkpt lat="42.592339" lon="2.414964">
        <ele>481.465</ele>
        <time>2021-05-28T22:24:05Z</time>
      </trkpt>
      <trkpt lat="42.592362" lon="2.414946">
        <ele>481.342</ele>
        <time>2021-05-28T22:24:07Z</time>
      </trkpt>
      <trkpt lat="42.592379" lon="2.414926">
        <ele>481.243</ele>
        <time>2021-05-28T22:24:08Z</time>
      </trkpt>
      <trkpt lat="42.592397" lon="2.414906">
        <ele>481.262</ele>
        <time>2021-05-28T22:24:10Z</time>
      </trkpt>
      <trkpt lat="42.592410" lon="2.414873">
        <ele>481.499</ele>
        <time>2021-05-28T22:24:13Z</time>
      </trkpt>
      <trkpt lat="42.592418" lon="2.414847">
        <ele>481.724</ele>
        <time>2021-05-28T22:24:15Z</time>
      </trkpt>
      <trkpt lat="42.592433" lon="2.414821">
        <ele>481.861</ele>
        <time>2021-05-28T22:24:18Z</time>
      </trkpt>
      <trkpt lat="42.592448" lon="2.414796">
        <ele>481.929</ele>
        <time>2021-05-28T22:24:23Z</time>
      </trkpt>
      <trkpt lat="42.592458" lon="2.414775">
        <ele>482.085</ele>
        <time>2021-05-28T22:24:25Z</time>
      </trkpt>
      <trkpt lat="42.592479" lon="2.414757">
        <ele>481.989</ele>
        <time>2021-05-28T22:24:28Z</time>
      </trkpt>
      <trkpt lat="42.592495" lon="2.414735">
        <ele>481.917</ele>
        <time>2021-05-28T22:24:31Z</time>
      </trkpt>
      <trkpt lat="42.592511" lon="2.414711">
        <ele>482.108</ele>
        <time>2021-05-28T22:24:32Z</time>
      </trkpt>
      <trkpt lat="42.592529" lon="2.414692">
        <ele>482.345</ele>
        <time>2021-05-28T22:24:35Z</time>
      </trkpt>
      <trkpt lat="42.592539" lon="2.414671">
        <ele>482.612</ele>
        <time>2021-05-28T22:24:37Z</time>
      </trkpt>
      <trkpt lat="42.592550" lon="2.414647">
        <ele>483.033</ele>
        <time>2021-05-28T22:24:39Z</time>
      </trkpt>
      <trkpt lat="42.592562" lon="2.414618">
        <ele>483.552</ele>
        <time>2021-05-28T22:24:43Z</time>
      </trkpt>
      <trkpt lat="42.592571" lon="2.414596">
        <ele>483.959</ele>
        <time>2021-05-28T22:24:44Z</time>
      </trkpt>
      <trkpt lat="42.592582" lon="2.414575">
        <ele>484.384</ele>
        <time>2021-05-28T22:24:47Z</time>
      </trkpt>
      <trkpt lat="42.592588" lon="2.414552">
        <ele>484.831</ele>
        <time>2021-05-28T22:24:49Z</time>
      </trkpt>
      <trkpt lat="42.592598" lon="2.414526">
        <ele>485.389</ele>
        <time>2021-05-28T22:24:50Z</time>
      </trkpt>
      <trkpt lat="42.592615" lon="2.414498">
        <ele>485.923</ele>
        <time>2021-05-28T22:24:54Z</time>
      </trkpt>
      <trkpt lat="42.592633" lon="2.414505">
        <ele>485.583</ele>
        <time>2021-05-28T22:24:58Z</time>
      </trkpt>
      <trkpt lat="42.592654" lon="2.414523">
        <ele>484.911</ele>
        <time>2021-05-28T22:25:02Z</time>
      </trkpt>
      <trkpt lat="42.592677" lon="2.414531">
        <ele>484.508</ele>
        <time>2021-05-28T22:25:06Z</time>
      </trkpt>
      <trkpt lat="42.592701" lon="2.414537">
        <ele>484.139</ele>
        <time>2021-05-28T22:25:08Z</time>
      </trkpt>
      <trkpt lat="42.592720" lon="2.414535">
        <ele>483.966</ele>
        <time>2021-05-28T22:25:16Z</time>
      </trkpt>
      <trkpt lat="42.592742" lon="2.414534">
        <ele>483.867</ele>
        <time>2021-05-28T22:25:19Z</time>
      </trkpt>
      <trkpt lat="42.592761" lon="2.414538">
        <ele>483.546</ele>
        <time>2021-05-28T22:25:20Z</time>
      </trkpt>
      <trkpt lat="42.592782" lon="2.414541">
        <ele>483.273</ele>
        <time>2021-05-28T22:25:23Z</time>
      </trkpt>
      <trkpt lat="42.592804" lon="2.414550">
        <ele>483.138</ele>
        <time>2021-05-28T22:25:27Z</time>
      </trkpt>
      <trkpt lat="42.592822" lon="2.414556">
        <ele>483.035</ele>
        <time>2021-05-28T22:25:30Z</time>
      </trkpt>
      <trkpt lat="42.592846" lon="2.414565">
        <ele>482.993</ele>
        <time>2021-05-28T22:25:33Z</time>
      </trkpt>
      <trkpt lat="42.592864" lon="2.414575">
        <ele>482.733</ele>
        <time>2021-05-28T22:25:34Z</time>
      </trkpt>
      <trkpt lat="42.592892" lon="2.414579">
        <ele>482.723</ele>
        <time>2021-05-28T22:25:37Z</time>
      </trkpt>
      <trkpt lat="42.592917" lon="2.414577">
        <ele>482.915</ele>
        <time>2021-05-28T22:25:55Z</time>
      </trkpt>
      <trkpt lat="42.592941" lon="2.414579">
        <ele>483.008</ele>
        <time>2021-05-28T22:25:57Z</time>
      </trkpt>
      <trkpt lat="42.592960" lon="2.414586">
        <ele>482.950</ele>
        <time>2021-05-28T22:26:00Z</time>
      </trkpt>
      <trkpt lat="42.592982" lon="2.414602">
        <ele>482.577</ele>
        <time>2021-05-28T22:26:01Z</time>
      </trkpt>
      <trkpt lat="42.593007" lon="2.414611">
        <ele>482.448</ele>
        <time>2021-05-28T22:26:03Z</time>
      </trkpt>
      <trkpt lat="42.593032" lon="2.414627">
        <ele>482.067</ele>
        <time>2021-05-28T22:26:05Z</time>
      </trkpt>
      <trkpt lat="42.593053" lon="2.414635">
        <ele>481.824</ele>
        <time>2021-05-28T22:26:07Z</time>
      </trkpt>
      <trkpt lat="42.593078" lon="2.414645">
        <ele>481.579</ele>
        <time>2021-05-28T22:26:09Z</time>
      </trkpt>
      <trkpt lat="42.593102" lon="2.414653">
        <ele>481.266</ele>
        <time>2021-05-28T22:26:11Z</time>
      </trkpt>
      <trkpt lat="42.593130" lon="2.414655">
        <ele>481.054</ele>
        <time>2021-05-28T22:26:13Z</time>
      </trkpt>
      <trkpt lat="42.593159" lon="2.414660">
        <ele>480.893</ele>
        <time>2021-05-28T22:26:15Z</time>
      </trkpt>
      <trkpt lat="42.593179" lon="2.414667">
        <ele>480.665</ele>
        <time>2021-05-28T22:26:18Z</time>
      </trkpt>
      <trkpt lat="42.593199" lon="2.414667">
        <ele>480.621</ele>
        <time>2021-05-28T22:26:20Z</time>
      </trkpt>
      <trkpt lat="42.593225" lon="2.414661">
        <ele>480.708</ele>
        <time>2021-05-28T22:26:21Z</time>
      </trkpt>
      <trkpt lat="42.593251" lon="2.414655">
        <ele>480.846</ele>
        <time>2021-05-28T22:26:23Z</time>
      </trkpt>
      <trkpt lat="42.593281" lon="2.414645">
        <ele>481.183</ele>
        <time>2021-05-28T22:26:25Z</time>
      </trkpt>
      <trkpt lat="42.593302" lon="2.414630">
        <ele>481.444</ele>
        <time>2021-05-28T22:26:27Z</time>
      </trkpt>
      <trkpt lat="42.593324" lon="2.414618">
        <ele>481.723</ele>
        <time>2021-05-28T22:26:31Z</time>
      </trkpt>
      <trkpt lat="42.593348" lon="2.414603">
        <ele>481.790</ele>
        <time>2021-05-28T22:26:34Z</time>
      </trkpt>
      <trkpt lat="42.593372" lon="2.414588">
        <ele>481.535</ele>
        <time>2021-05-28T22:26:37Z</time>
      </trkpt>
      <trkpt lat="42.593394" lon="2.414574">
        <ele>481.452</ele>
        <time>2021-05-28T22:26:40Z</time>
      </trkpt>
      <trkpt lat="42.593416" lon="2.414564">
        <ele>481.220</ele>
        <time>2021-05-28T22:26:46Z</time>
      </trkpt>
      <trkpt lat="42.593432" lon="2.414551">
        <ele>481.244</ele>
        <time>2021-05-28T22:26:50Z</time>
      </trkpt>
      <trkpt lat="42.593443" lon="2.414530">
        <ele>481.505</ele>
        <time>2021-05-28T22:26:53Z</time>
      </trkpt>
      <trkpt lat="42.593457" lon="2.414513">
        <ele>481.615</ele>
        <time>2021-05-28T22:26:55Z</time>
      </trkpt>
      <trkpt lat="42.593470" lon="2.414491">
        <ele>481.908</ele>
        <time>2021-05-28T22:26:57Z</time>
      </trkpt>
      <trkpt lat="42.593481" lon="2.414468">
        <ele>482.261</ele>
        <time>2021-05-28T22:26:58Z</time>
      </trkpt>
      <trkpt lat="42.593493" lon="2.414440">
        <ele>482.678</ele>
        <time>2021-05-28T22:27:01Z</time>
      </trkpt>
      <trkpt lat="42.593505" lon="2.414416">
        <ele>482.919</ele>
        <time>2021-05-28T22:27:03Z</time>
      </trkpt>
      <trkpt lat="42.593522" lon="2.414398">
        <ele>482.948</ele>
        <time>2021-05-28T22:27:05Z</time>
      </trkpt>
      <trkpt lat="42.593537" lon="2.414383">
        <ele>482.875</ele>
        <time>2021-05-28T22:27:08Z</time>
      </trkpt>
      <trkpt lat="42.593554" lon="2.414361">
        <ele>482.920</ele>
        <time>2021-05-28T22:27:09Z</time>
      </trkpt>
      <trkpt lat="42.593572" lon="2.414334">
        <ele>482.997</ele>
        <time>2021-05-28T22:27:11Z</time>
      </trkpt>
      <trkpt lat="42.593589" lon="2.414312">
        <ele>482.955</ele>
        <time>2021-05-28T22:27:13Z</time>
      </trkpt>
      <trkpt lat="42.593602" lon="2.414292">
        <ele>483.033</ele>
        <time>2021-05-28T22:27:15Z</time>
      </trkpt>
      <trkpt lat="42.593615" lon="2.414270">
        <ele>483.123</ele>
        <time>2021-05-28T22:27:17Z</time>
      </trkpt>
      <trkpt lat="42.593627" lon="2.414245">
        <ele>483.215</ele>
        <time>2021-05-28T22:27:19Z</time>
      </trkpt>
      <trkpt lat="42.593639" lon="2.414222">
        <ele>483.408</ele>
        <time>2021-05-28T22:27:21Z</time>
      </trkpt>
      <trkpt lat="42.593646" lon="2.414197">
        <ele>483.770</ele>
        <time>2021-05-28T22:27:23Z</time>
      </trkpt>
      <trkpt lat="42.593660" lon="2.414165">
        <ele>484.037</ele>
        <time>2021-05-28T22:27:27Z</time>
      </trkpt>
      <trkpt lat="42.593672" lon="2.414147">
        <ele>484.018</ele>
        <time>2021-05-28T22:27:28Z</time>
      </trkpt>
      <trkpt lat="42.593684" lon="2.414121">
        <ele>484.227</ele>
        <time>2021-05-28T22:27:31Z</time>
      </trkpt>
      <trkpt lat="42.593694" lon="2.414091">
        <ele>484.534</ele>
        <time>2021-05-28T22:27:34Z</time>
      </trkpt>
      <trkpt lat="42.593704" lon="2.414068">
        <ele>484.779</ele>
        <time>2021-05-28T22:27:37Z</time>
      </trkpt>
      <trkpt lat="42.593715" lon="2.414045">
        <ele>484.866</ele>
        <time>2021-05-28T22:27:39Z</time>
      </trkpt>
      <trkpt lat="42.593736" lon="2.414020">
        <ele>484.744</ele>
        <time>2021-05-28T22:27:41Z</time>
      </trkpt>
      <trkpt lat="42.593749" lon="2.414002">
        <ele>484.795</ele>
        <time>2021-05-28T22:27:43Z</time>
      </trkpt>
      <trkpt lat="42.593763" lon="2.413971">
        <ele>484.949</ele>
        <time>2021-05-28T22:27:46Z</time>
      </trkpt>
      <trkpt lat="42.593772" lon="2.413943">
        <ele>485.123</ele>
        <time>2021-05-28T22:27:49Z</time>
      </trkpt>
      <trkpt lat="42.593781" lon="2.413914">
        <ele>485.308</ele>
        <time>2021-05-28T22:27:52Z</time>
      </trkpt>
      <trkpt lat="42.593787" lon="2.413878">
        <ele>485.716</ele>
        <time>2021-05-28T22:27:55Z</time>
      </trkpt>
      <trkpt lat="42.593796" lon="2.413846">
        <ele>485.963</ele>
        <time>2021-05-28T22:27:59Z</time>
      </trkpt>
      <trkpt lat="42.593811" lon="2.413823">
        <ele>485.724</ele>
        <time>2021-05-28T22:28:02Z</time>
      </trkpt>
      <trkpt lat="42.593820" lon="2.413790">
        <ele>485.943</ele>
        <time>2021-05-28T22:28:04Z</time>
      </trkpt>
      <trkpt lat="42.593831" lon="2.413768">
        <ele>485.930</ele>
        <time>2021-05-28T22:28:06Z</time>
      </trkpt>
      <trkpt lat="42.593847" lon="2.413738">
        <ele>485.825</ele>
        <time>2021-05-28T22:28:08Z</time>
      </trkpt>
      <trkpt lat="42.593853" lon="2.413714">
        <ele>485.912</ele>
        <time>2021-05-28T22:28:10Z</time>
      </trkpt>
      <trkpt lat="42.593854" lon="2.413682">
        <ele>486.290</ele>
        <time>2021-05-28T22:28:13Z</time>
      </trkpt>
      <trkpt lat="42.593863" lon="2.413658">
        <ele>486.267</ele>
        <time>2021-05-28T22:28:15Z</time>
      </trkpt>
      <trkpt lat="42.593871" lon="2.413631">
        <ele>486.381</ele>
        <time>2021-05-28T22:28:17Z</time>
      </trkpt>
      <trkpt lat="42.593881" lon="2.413601">
        <ele>486.319</ele>
        <time>2021-05-28T22:28:19Z</time>
      </trkpt>
      <trkpt lat="42.593889" lon="2.413561">
        <ele>486.508</ele>
        <time>2021-05-28T22:28:23Z</time>
      </trkpt>
      <trkpt lat="42.593899" lon="2.413529">
        <ele>486.743</ele>
        <time>2021-05-28T22:28:26Z</time>
      </trkpt>
      <trkpt lat="42.593914" lon="2.413498">
        <ele>486.770</ele>
        <time>2021-05-28T22:28:30Z</time>
      </trkpt>
      <trkpt lat="42.593929" lon="2.413476">
        <ele>486.621</ele>
        <time>2021-05-28T22:28:32Z</time>
      </trkpt>
      <trkpt lat="42.593941" lon="2.413455">
        <ele>486.630</ele>
        <time>2021-05-28T22:28:34Z</time>
      </trkpt>
      <trkpt lat="42.593960" lon="2.413437">
        <ele>486.497</ele>
        <time>2021-05-28T22:28:36Z</time>
      </trkpt>
      <trkpt lat="42.593979" lon="2.413427">
        <ele>486.152</ele>
        <time>2021-05-28T22:28:40Z</time>
      </trkpt>
      <trkpt lat="42.594001" lon="2.413421">
        <ele>485.889</ele>
        <time>2021-05-28T22:28:45Z</time>
      </trkpt>
      <trkpt lat="42.594024" lon="2.413422">
        <ele>485.397</ele>
        <time>2021-05-28T22:28:50Z</time>
      </trkpt>
      <trkpt lat="42.594045" lon="2.413421">
        <ele>484.946</ele>
        <time>2021-05-28T22:28:53Z</time>
      </trkpt>
      <trkpt lat="42.594067" lon="2.413423">
        <ele>484.488</ele>
        <time>2021-05-28T22:28:56Z</time>
      </trkpt>
      <trkpt lat="42.594085" lon="2.413428">
        <ele>484.016</ele>
        <time>2021-05-28T22:29:21Z</time>
      </trkpt>
      <trkpt lat="42.594104" lon="2.413429">
        <ele>483.608</ele>
        <time>2021-05-28T22:29:26Z</time>
      </trkpt>
      <trkpt lat="42.594126" lon="2.413418">
        <ele>483.381</ele>
        <time>2021-05-28T22:30:18Z</time>
      </trkpt>
      <trkpt lat="42.594151" lon="2.413407">
        <ele>483.058</ele>
        <time>2021-05-28T22:30:22Z</time>
      </trkpt>
      <trkpt lat="42.594176" lon="2.413400">
        <ele>482.639</ele>
        <time>2021-05-28T22:30:26Z</time>
      </trkpt>
      <trkpt lat="42.594193" lon="2.413389">
        <ele>482.578</ele>
        <time>2021-05-28T22:30:28Z</time>
      </trkpt>
      <trkpt lat="42.594226" lon="2.413370">
        <ele>482.275</ele>
        <time>2021-05-28T22:30:30Z</time>
      </trkpt>
      <trkpt lat="42.594244" lon="2.413357">
        <ele>482.140</ele>
        <time>2021-05-28T22:31:00Z</time>
      </trkpt>
      <trkpt lat="42.594260" lon="2.413338">
        <ele>482.267</ele>
        <time>2021-05-28T22:31:07Z</time>
      </trkpt>
      <trkpt lat="42.594278" lon="2.413327">
        <ele>482.145</ele>
        <time>2021-05-28T22:31:09Z</time>
      </trkpt>
      <trkpt lat="42.594285" lon="2.413301">
        <ele>482.535</ele>
        <time>2021-05-28T22:32:14Z</time>
      </trkpt>
      <trkpt lat="42.594302" lon="2.413282">
        <ele>482.586</ele>
        <time>2021-05-28T22:32:16Z</time>
      </trkpt>
      <trkpt lat="42.594318" lon="2.413261">
        <ele>482.614</ele>
        <time>2021-05-28T22:32:18Z</time>
      </trkpt>
      <trkpt lat="42.594334" lon="2.413241">
        <ele>482.608</ele>
        <time>2021-05-28T22:32:19Z</time>
      </trkpt>
      <trkpt lat="42.594350" lon="2.413223">
        <ele>482.720</ele>
        <time>2021-05-28T22:32:21Z</time>
      </trkpt>
      <trkpt lat="42.594367" lon="2.413201">
        <ele>482.867</ele>
        <time>2021-05-28T22:32:23Z</time>
      </trkpt>
      <trkpt lat="42.594387" lon="2.413180">
        <ele>482.878</ele>
        <time>2021-05-28T22:32:25Z</time>
      </trkpt>
      <trkpt lat="42.594404" lon="2.413158">
        <ele>482.927</ele>
        <time>2021-05-28T22:32:27Z</time>
      </trkpt>
      <trkpt lat="42.594419" lon="2.413137">
        <ele>483.014</ele>
        <time>2021-05-28T22:32:29Z</time>
      </trkpt>
      <trkpt lat="42.594432" lon="2.413119">
        <ele>483.169</ele>
        <time>2021-05-28T22:32:32Z</time>
      </trkpt>
      <trkpt lat="42.594449" lon="2.413101">
        <ele>483.146</ele>
        <time>2021-05-28T22:32:34Z</time>
      </trkpt>
      <trkpt lat="42.594472" lon="2.413086">
        <ele>483.094</ele>
        <time>2021-05-28T22:32:36Z</time>
      </trkpt>
      <trkpt lat="42.594495" lon="2.413060">
        <ele>483.091</ele>
        <time>2021-05-28T22:32:38Z</time>
      </trkpt>
      <trkpt lat="42.594509" lon="2.413031">
        <ele>483.281</ele>
        <time>2021-05-28T22:32:40Z</time>
      </trkpt>
      <trkpt lat="42.594522" lon="2.413000">
        <ele>483.419</ele>
        <time>2021-05-28T22:32:43Z</time>
      </trkpt>
      <trkpt lat="42.594541" lon="2.412975">
        <ele>483.408</ele>
        <time>2021-05-28T22:32:47Z</time>
      </trkpt>
      <trkpt lat="42.594561" lon="2.412933">
        <ele>483.736</ele>
        <time>2021-05-28T22:32:49Z</time>
      </trkpt>
      <trkpt lat="42.594582" lon="2.412895">
        <ele>483.853</ele>
        <time>2021-05-28T22:32:52Z</time>
      </trkpt>
      <trkpt lat="42.594598" lon="2.412865">
        <ele>484.094</ele>
        <time>2021-05-28T22:32:54Z</time>
      </trkpt>
      <trkpt lat="42.594612" lon="2.412837">
        <ele>484.133</ele>
        <time>2021-05-28T22:32:55Z</time>
      </trkpt>
      <trkpt lat="42.594632" lon="2.412821">
        <ele>484.060</ele>
        <time>2021-05-28T22:32:57Z</time>
      </trkpt>
      <trkpt lat="42.594649" lon="2.412806">
        <ele>483.985</ele>
        <time>2021-05-28T22:33:00Z</time>
      </trkpt>
      <trkpt lat="42.594667" lon="2.412797">
        <ele>483.712</ele>
        <time>2021-05-28T22:33:02Z</time>
      </trkpt>
      <trkpt lat="42.594691" lon="2.412807">
        <ele>483.170</ele>
        <time>2021-05-28T22:33:08Z</time>
      </trkpt>
      <trkpt lat="42.594686" lon="2.412834">
        <ele>482.827</ele>
        <time>2021-05-28T22:34:23Z</time>
      </trkpt>
      <trkpt lat="42.594682" lon="2.412860">
        <ele>482.568</ele>
        <time>2021-05-28T22:34:25Z</time>
      </trkpt>
      <trkpt lat="42.594674" lon="2.412889">
        <ele>482.314</ele>
        <time>2021-05-28T22:34:28Z</time>
      </trkpt>
      <trkpt lat="42.594671" lon="2.412913">
        <ele>482.008</ele>
        <time>2021-05-28T22:34:30Z</time>
      </trkpt>
      <trkpt lat="42.594663" lon="2.412945">
        <ele>481.769</ele>
        <time>2021-05-28T22:34:32Z</time>
      </trkpt>
      <trkpt lat="42.594653" lon="2.412976">
        <ele>481.446</ele>
        <time>2021-05-28T22:34:36Z</time>
      </trkpt>
      <trkpt lat="42.594633" lon="2.413004">
        <ele>481.337</ele>
        <time>2021-05-28T22:34:39Z</time>
      </trkpt>
      <trkpt lat="42.594626" lon="2.413027">
        <ele>481.126</ele>
        <time>2021-05-28T22:34:40Z</time>
      </trkpt>
      <trkpt lat="42.594626" lon="2.413059">
        <ele>480.783</ele>
        <time>2021-05-28T22:34:44Z</time>
      </trkpt>
      <trkpt lat="42.594628" lon="2.413085">
        <ele>480.228</ele>
        <time>2021-05-28T22:34:51Z</time>
      </trkpt>
      <trkpt lat="42.594620" lon="2.413116">
        <ele>479.925</ele>
        <time>2021-05-28T22:34:53Z</time>
      </trkpt>
      <trkpt lat="42.594605" lon="2.413139">
        <ele>479.873</ele>
        <time>2021-05-28T22:34:56Z</time>
      </trkpt>
      <trkpt lat="42.594592" lon="2.413157">
        <ele>479.795</ele>
        <time>2021-05-28T22:34:58Z</time>
      </trkpt>
      <trkpt lat="42.594584" lon="2.413187">
        <ele>479.449</ele>
        <time>2021-05-28T22:35:01Z</time>
      </trkpt>
      <trkpt lat="42.594579" lon="2.413219">
        <ele>478.923</ele>
        <time>2021-05-28T22:35:03Z</time>
      </trkpt>
      <trkpt lat="42.594579" lon="2.413258">
        <ele>478.308</ele>
        <time>2021-05-28T22:35:04Z</time>
      </trkpt>
      <trkpt lat="42.594571" lon="2.413294">
        <ele>477.816</ele>
        <time>2021-05-28T22:35:06Z</time>
      </trkpt>
      <trkpt lat="42.594561" lon="2.413328">
        <ele>477.483</ele>
        <time>2021-05-28T22:35:09Z</time>
      </trkpt>
      <trkpt lat="42.594564" lon="2.413366">
        <ele>476.684</ele>
        <time>2021-05-28T22:35:10Z</time>
      </trkpt>
      <trkpt lat="42.594565" lon="2.413396">
        <ele>475.973</ele>
        <time>2021-05-28T22:35:12Z</time>
      </trkpt>
      <trkpt lat="42.594558" lon="2.413433">
        <ele>475.180</ele>
        <time>2021-05-28T22:35:14Z</time>
      </trkpt>
      <trkpt lat="42.594552" lon="2.413466">
        <ele>474.555</ele>
        <time>2021-05-28T22:35:16Z</time>
      </trkpt>
      <trkpt lat="42.594547" lon="2.413505">
        <ele>473.742</ele>
        <time>2021-05-28T22:35:19Z</time>
      </trkpt>
      <trkpt lat="42.594539" lon="2.413543">
        <ele>472.940</ele>
        <time>2021-05-28T22:35:20Z</time>
      </trkpt>
      <trkpt lat="42.594529" lon="2.413579">
        <ele>472.116</ele>
        <time>2021-05-28T22:35:22Z</time>
      </trkpt>
      <trkpt lat="42.594523" lon="2.413603">
        <ele>471.676</ele>
        <time>2021-05-28T22:35:23Z</time>
      </trkpt>
      <trkpt lat="42.594514" lon="2.413640">
        <ele>470.913</ele>
        <time>2021-05-28T22:35:25Z</time>
      </trkpt>
      <trkpt lat="42.594497" lon="2.413678">
        <ele>470.208</ele>
        <time>2021-05-28T22:35:27Z</time>
      </trkpt>
      <trkpt lat="42.594484" lon="2.413717">
        <ele>469.568</ele>
        <time>2021-05-28T22:35:29Z</time>
      </trkpt>
      <trkpt lat="42.594480" lon="2.413753">
        <ele>468.795</ele>
        <time>2021-05-28T22:35:32Z</time>
      </trkpt>
      <trkpt lat="42.594475" lon="2.413787">
        <ele>468.156</ele>
        <time>2021-05-28T22:35:34Z</time>
      </trkpt>
      <trkpt lat="42.594466" lon="2.413826">
        <ele>467.395</ele>
        <time>2021-05-28T22:35:36Z</time>
      </trkpt>
      <trkpt lat="42.594462" lon="2.413861">
        <ele>466.552</ele>
        <time>2021-05-28T22:35:38Z</time>
      </trkpt>
      <trkpt lat="42.594473" lon="2.413895">
        <ele>465.887</ele>
        <time>2021-05-28T22:35:41Z</time>
      </trkpt>
      <trkpt lat="42.594478" lon="2.413926">
        <ele>465.294</ele>
        <time>2021-05-28T22:35:43Z</time>
      </trkpt>
      <trkpt lat="42.594473" lon="2.413950">
        <ele>464.832</ele>
        <time>2021-05-28T22:35:45Z</time>
      </trkpt>
      <trkpt lat="42.594473" lon="2.413975">
        <ele>464.395</ele>
        <time>2021-05-28T22:35:47Z</time>
      </trkpt>
      <trkpt lat="42.594462" lon="2.414012">
        <ele>463.749</ele>
        <time>2021-05-28T22:35:48Z</time>
      </trkpt>
      <trkpt lat="42.594450" lon="2.414050">
        <ele>463.123</ele>
        <time>2021-05-28T22:35:50Z</time>
      </trkpt>
      <trkpt lat="42.594441" lon="2.414087">
        <ele>462.608</ele>
        <time>2021-05-28T22:35:52Z</time>
      </trkpt>
      <trkpt lat="42.594422" lon="2.414118">
        <ele>462.746</ele>
        <time>2021-05-28T22:35:54Z</time>
      </trkpt>
      <trkpt lat="42.594412" lon="2.414148">
        <ele>462.583</ele>
        <time>2021-05-28T22:35:56Z</time>
      </trkpt>
      <trkpt lat="42.594405" lon="2.414182">
        <ele>462.284</ele>
        <time>2021-05-28T22:35:58Z</time>
      </trkpt>
      <trkpt lat="42.594401" lon="2.414209">
        <ele>462.083</ele>
        <time>2021-05-28T22:36:04Z</time>
      </trkpt>
      <trkpt lat="42.594393" lon="2.414243">
        <ele>461.880</ele>
        <time>2021-05-28T22:36:08Z</time>
      </trkpt>
      <trkpt lat="42.594381" lon="2.414277">
        <ele>461.795</ele>
        <time>2021-05-28T22:36:10Z</time>
      </trkpt>
      <trkpt lat="42.594366" lon="2.414310">
        <ele>461.832</ele>
        <time>2021-05-28T22:36:12Z</time>
      </trkpt>
      <trkpt lat="42.594361" lon="2.414347">
        <ele>461.470</ele>
        <time>2021-05-28T22:36:13Z</time>
      </trkpt>
      <trkpt lat="42.594354" lon="2.414389">
        <ele>461.171</ele>
        <time>2021-05-28T22:36:15Z</time>
      </trkpt>
      <trkpt lat="42.594350" lon="2.414431">
        <ele>460.641</ele>
        <time>2021-05-28T22:36:17Z</time>
      </trkpt>
      <trkpt lat="42.594347" lon="2.414474">
        <ele>460.015</ele>
        <time>2021-05-28T22:36:20Z</time>
      </trkpt>
      <trkpt lat="42.594340" lon="2.414523">
        <ele>459.508</ele>
        <time>2021-05-28T22:36:21Z</time>
      </trkpt>
      <trkpt lat="42.594338" lon="2.414571">
        <ele>458.894</ele>
        <time>2021-05-28T22:36:23Z</time>
      </trkpt>
      <trkpt lat="42.594335" lon="2.414597">
        <ele>458.531</ele>
        <time>2021-05-28T22:36:25Z</time>
      </trkpt>
      <trkpt lat="42.594324" lon="2.414645">
        <ele>458.122</ele>
        <time>2021-05-28T22:36:27Z</time>
      </trkpt>
      <trkpt lat="42.594321" lon="2.414688">
        <ele>457.581</ele>
        <time>2021-05-28T22:36:28Z</time>
      </trkpt>
      <trkpt lat="42.594315" lon="2.414729">
        <ele>457.098</ele>
        <time>2021-05-28T22:36:30Z</time>
      </trkpt>
      <trkpt lat="42.594309" lon="2.414752">
        <ele>456.773</ele>
        <time>2021-05-28T22:36:31Z</time>
      </trkpt>
      <trkpt lat="42.594304" lon="2.414792">
        <ele>455.990</ele>
        <time>2021-05-28T22:36:33Z</time>
      </trkpt>
      <trkpt lat="42.594297" lon="2.414827">
        <ele>455.378</ele>
        <time>2021-05-28T22:36:35Z</time>
      </trkpt>
      <trkpt lat="42.594289" lon="2.414852">
        <ele>455.089</ele>
        <time>2021-05-28T22:36:37Z</time>
      </trkpt>
      <trkpt lat="42.594270" lon="2.414880">
        <ele>454.906</ele>
        <time>2021-05-28T22:36:39Z</time>
      </trkpt>
      <trkpt lat="42.594258" lon="2.414918">
        <ele>454.326</ele>
        <time>2021-05-28T22:36:42Z</time>
      </trkpt>
      <trkpt lat="42.594243" lon="2.414952">
        <ele>454.008</ele>
        <time>2021-05-28T22:36:44Z</time>
      </trkpt>
      <trkpt lat="42.594229" lon="2.414983">
        <ele>453.645</ele>
        <time>2021-05-28T22:36:45Z</time>
      </trkpt>
      <trkpt lat="42.594217" lon="2.415006">
        <ele>453.472</ele>
        <time>2021-05-28T22:36:56Z</time>
      </trkpt>
      <trkpt lat="42.594199" lon="2.415020">
        <ele>453.653</ele>
        <time>2021-05-28T22:37:28Z</time>
      </trkpt>
      <trkpt lat="42.594173" lon="2.415063">
        <ele>453.262</ele>
        <time>2021-05-28T22:37:34Z</time>
      </trkpt>
      <trkpt lat="42.594147" lon="2.415106">
        <ele>452.629</ele>
        <time>2021-05-28T22:37:37Z</time>
      </trkpt>
      <trkpt lat="42.594133" lon="2.415127">
        <ele>452.294</ele>
        <time>2021-05-28T22:37:39Z</time>
      </trkpt>
      <trkpt lat="42.594116" lon="2.415144">
        <ele>452.041</ele>
        <time>2021-05-28T22:37:41Z</time>
      </trkpt>
      <trkpt lat="42.594104" lon="2.415169">
        <ele>451.539</ele>
        <time>2021-05-28T22:37:43Z</time>
      </trkpt>
      <trkpt lat="42.594092" lon="2.415196">
        <ele>450.917</ele>
        <time>2021-05-28T22:37:45Z</time>
      </trkpt>
      <trkpt lat="42.594071" lon="2.415223">
        <ele>450.587</ele>
        <time>2021-05-28T22:37:47Z</time>
      </trkpt>
      <trkpt lat="42.594058" lon="2.415258">
        <ele>449.715</ele>
        <time>2021-05-28T22:37:49Z</time>
      </trkpt>
      <trkpt lat="42.594048" lon="2.415278">
        <ele>449.308</ele>
        <time>2021-05-28T22:37:51Z</time>
      </trkpt>
      <trkpt lat="42.594037" lon="2.415309">
        <ele>448.628</ele>
        <time>2021-05-28T22:37:54Z</time>
      </trkpt>
      <trkpt lat="42.594023" lon="2.415337">
        <ele>448.115</ele>
        <time>2021-05-28T22:37:57Z</time>
      </trkpt>
      <trkpt lat="42.594018" lon="2.415371">
        <ele>447.336</ele>
        <time>2021-05-28T22:38:01Z</time>
      </trkpt>
      <trkpt lat="42.594041" lon="2.415378">
        <ele>446.895</ele>
        <time>2021-05-28T22:38:04Z</time>
      </trkpt>
      <trkpt lat="42.594064" lon="2.415366">
        <ele>446.982</ele>
        <time>2021-05-28T22:38:06Z</time>
      </trkpt>
      <trkpt lat="42.594087" lon="2.415358">
        <ele>446.857</ele>
        <time>2021-05-28T22:38:08Z</time>
      </trkpt>
      <trkpt lat="42.594102" lon="2.415341">
        <ele>447.144</ele>
        <time>2021-05-28T22:38:10Z</time>
      </trkpt>
      <trkpt lat="42.594126" lon="2.415327">
        <ele>447.272</ele>
        <time>2021-05-28T22:38:12Z</time>
      </trkpt>
      <trkpt lat="42.594144" lon="2.415305">
        <ele>447.643</ele>
        <time>2021-05-28T22:38:14Z</time>
      </trkpt>
      <trkpt lat="42.594162" lon="2.415289">
        <ele>447.864</ele>
        <time>2021-05-28T22:38:23Z</time>
      </trkpt>
      <trkpt lat="42.594183" lon="2.415276">
        <ele>447.610</ele>
        <time>2021-05-28T22:38:25Z</time>
      </trkpt>
      <trkpt lat="42.594204" lon="2.415254">
        <ele>447.508</ele>
        <time>2021-05-28T22:38:28Z</time>
      </trkpt>
      <trkpt lat="42.594215" lon="2.415232">
        <ele>447.891</ele>
        <time>2021-05-28T22:38:30Z</time>
      </trkpt>
      <trkpt lat="42.594230" lon="2.415213">
        <ele>447.888</ele>
        <time>2021-05-28T22:38:31Z</time>
      </trkpt>
      <trkpt lat="42.594219" lon="2.415236">
        <ele>447.569</ele>
        <time>2021-05-28T22:38:41Z</time>
      </trkpt>
      <trkpt lat="42.594205" lon="2.415259">
        <ele>447.498</ele>
        <time>2021-05-28T22:38:43Z</time>
      </trkpt>
      <trkpt lat="42.594187" lon="2.415277">
        <ele>447.445</ele>
        <time>2021-05-28T22:38:45Z</time>
      </trkpt>
      <trkpt lat="42.594166" lon="2.415285">
        <ele>447.870</ele>
        <time>2021-05-28T22:38:47Z</time>
      </trkpt>
      <trkpt lat="42.594146" lon="2.415299">
        <ele>447.777</ele>
        <time>2021-05-28T22:38:52Z</time>
      </trkpt>
      <trkpt lat="42.594127" lon="2.415318">
        <ele>447.415</ele>
        <time>2021-05-28T22:38:55Z</time>
      </trkpt>
      <trkpt lat="42.594111" lon="2.415342">
        <ele>447.028</ele>
        <time>2021-05-28T22:38:57Z</time>
      </trkpt>
      <trkpt lat="42.594096" lon="2.415358">
        <ele>446.789</ele>
        <time>2021-05-28T22:38:59Z</time>
      </trkpt>
      <trkpt lat="42.594074" lon="2.415371">
        <ele>446.717</ele>
        <time>2021-05-28T22:39:03Z</time>
      </trkpt>
      <trkpt lat="42.594049" lon="2.415376">
        <ele>446.808</ele>
        <time>2021-05-28T22:39:06Z</time>
      </trkpt>
      <trkpt lat="42.594027" lon="2.415385">
        <ele>446.879</ele>
        <time>2021-05-28T22:39:08Z</time>
      </trkpt>
      <trkpt lat="42.594010" lon="2.415374">
        <ele>447.336</ele>
        <time>2021-05-28T22:39:10Z</time>
      </trkpt>
      <trkpt lat="42.593990" lon="2.415372">
        <ele>447.597</ele>
        <time>2021-05-28T22:39:14Z</time>
      </trkpt>
      <trkpt lat="42.593981" lon="2.415411">
        <ele>446.656</ele>
        <time>2021-05-28T22:39:16Z</time>
      </trkpt>
      <trkpt lat="42.593973" lon="2.415448">
        <ele>445.863</ele>
        <time>2021-05-28T22:39:19Z</time>
      </trkpt>
      <trkpt lat="42.593976" lon="2.415473">
        <ele>445.148</ele>
        <time>2021-05-28T22:39:20Z</time>
      </trkpt>
      <trkpt lat="42.593978" lon="2.415501">
        <ele>444.435</ele>
        <time>2021-05-28T22:39:22Z</time>
      </trkpt>
      <trkpt lat="42.593982" lon="2.415525">
        <ele>443.823</ele>
        <time>2021-05-28T22:39:24Z</time>
      </trkpt>
      <trkpt lat="42.593986" lon="2.415555">
        <ele>443.087</ele>
        <time>2021-05-28T22:39:26Z</time>
      </trkpt>
      <trkpt lat="42.593992" lon="2.415578">
        <ele>442.642</ele>
        <time>2021-05-28T22:39:28Z</time>
      </trkpt>
      <trkpt lat="42.594007" lon="2.415605">
        <ele>442.126</ele>
        <time>2021-05-28T22:39:30Z</time>
      </trkpt>
      <trkpt lat="42.594020" lon="2.415631">
        <ele>441.608</ele>
        <time>2021-05-28T22:39:33Z</time>
      </trkpt>
      <trkpt lat="42.594029" lon="2.415662">
        <ele>441.245</ele>
        <time>2021-05-28T22:39:37Z</time>
      </trkpt>
      <trkpt lat="42.594041" lon="2.415682">
        <ele>440.822</ele>
        <time>2021-05-28T22:39:40Z</time>
      </trkpt>
      <trkpt lat="42.594062" lon="2.415701">
        <ele>440.553</ele>
        <time>2021-05-28T22:39:44Z</time>
      </trkpt>
      <trkpt lat="42.594097" lon="2.415700">
        <ele>440.322</ele>
        <time>2021-05-28T22:39:47Z</time>
      </trkpt>
      <trkpt lat="42.594116" lon="2.415692">
        <ele>440.359</ele>
        <time>2021-05-28T22:39:50Z</time>
      </trkpt>
      <trkpt lat="42.594135" lon="2.415680">
        <ele>440.374</ele>
        <time>2021-05-28T22:39:51Z</time>
      </trkpt>
      <trkpt lat="42.594162" lon="2.415657">
        <ele>440.351</ele>
        <time>2021-05-28T22:39:54Z</time>
      </trkpt>
      <trkpt lat="42.594197" lon="2.415636">
        <ele>439.989</ele>
        <time>2021-05-28T22:39:55Z</time>
      </trkpt>
      <trkpt lat="42.594221" lon="2.415618">
        <ele>439.697</ele>
        <time>2021-05-28T22:39:57Z</time>
      </trkpt>
      <trkpt lat="42.594283" lon="2.415581">
        <ele>438.823</ele>
        <time>2021-05-28T22:40:01Z</time>
      </trkpt>
      <trkpt lat="42.594304" lon="2.415572">
        <ele>438.425</ele>
        <time>2021-05-28T22:40:02Z</time>
      </trkpt>
      <trkpt lat="42.594323" lon="2.415566">
        <ele>438.108</ele>
        <time>2021-05-28T22:40:03Z</time>
      </trkpt>
      <trkpt lat="42.594349" lon="2.415561">
        <ele>437.746</ele>
        <time>2021-05-28T22:40:05Z</time>
      </trkpt>
      <trkpt lat="42.594357" lon="2.415583">
        <ele>437.413</ele>
        <time>2021-05-28T22:40:07Z</time>
      </trkpt>
      <trkpt lat="42.594354" lon="2.415616">
        <ele>437.394</ele>
        <time>2021-05-28T22:40:09Z</time>
      </trkpt>
      <trkpt lat="42.594338" lon="2.415654">
        <ele>437.453</ele>
        <time>2021-05-28T22:40:11Z</time>
      </trkpt>
      <trkpt lat="42.594316" lon="2.415676">
        <ele>437.710</ele>
        <time>2021-05-28T22:40:13Z</time>
      </trkpt>
      <trkpt lat="42.594305" lon="2.415701">
        <ele>437.745</ele>
        <time>2021-05-28T22:40:15Z</time>
      </trkpt>
      <trkpt lat="42.594282" lon="2.415746">
        <ele>437.852</ele>
        <time>2021-05-28T22:40:19Z</time>
      </trkpt>
      <trkpt lat="42.594266" lon="2.415775">
        <ele>437.980</ele>
        <time>2021-05-28T22:40:21Z</time>
      </trkpt>
      <trkpt lat="42.594250" lon="2.415801">
        <ele>438.047</ele>
        <time>2021-05-28T22:40:23Z</time>
      </trkpt>
      <trkpt lat="42.594221" lon="2.415818">
        <ele>438.329</ele>
        <time>2021-05-28T22:40:26Z</time>
      </trkpt>
      <trkpt lat="42.594185" lon="2.415832">
        <ele>438.721</ele>
        <time>2021-05-28T22:40:27Z</time>
      </trkpt>
      <trkpt lat="42.594093" lon="2.415883">
        <ele>439.008</ele>
        <time>2021-05-28T22:40:33Z</time>
      </trkpt>
      <trkpt lat="42.594050" lon="2.415994">
        <ele>439.071</ele>
        <time>2021-05-28T22:40:39Z</time>
      </trkpt>
      <trkpt lat="42.594030" lon="2.416126">
        <ele>439.048</ele>
        <time>2021-05-28T22:40:45Z</time>
      </trkpt>
      <trkpt lat="42.594035" lon="2.416163">
        <ele>439.039</ele>
        <time>2021-05-28T22:40:48Z</time>
      </trkpt>
      <trkpt lat="42.594026" lon="2.416184">
        <ele>439.018</ele>
        <time>2021-05-28T22:40:50Z</time>
      </trkpt>
      <trkpt lat="42.594007" lon="2.416195">
        <ele>439.045</ele>
        <time>2021-05-28T22:41:18Z</time>
      </trkpt>
      <trkpt lat="42.594003" lon="2.416220">
        <ele>439.040</ele>
        <time>2021-05-28T22:41:21Z</time>
      </trkpt>
      <trkpt lat="42.593999" lon="2.416246">
        <ele>439.087</ele>
        <time>2021-05-28T22:41:24Z</time>
      </trkpt>
      <trkpt lat="42.593975" lon="2.416249">
        <ele>439.015</ele>
        <time>2021-05-28T22:41:26Z</time>
      </trkpt>
      <trkpt lat="42.593965" lon="2.416225">
        <ele>439.057</ele>
        <time>2021-05-28T22:41:33Z</time>
      </trkpt>
      <trkpt lat="42.593972" lon="2.416199">
        <ele>439.000</ele>
        <time>2021-05-28T22:41:45Z</time>
      </trkpt>
      <trkpt lat="42.593955" lon="2.416173">
        <ele>439.020</ele>
        <time>2021-05-28T22:41:53Z</time>
      </trkpt>
      <trkpt lat="42.593924" lon="2.416178">
        <ele>439.008</ele>
        <time>2021-05-28T22:42:00Z</time>
      </trkpt>
      <trkpt lat="42.593904" lon="2.416183">
        <ele>439.032</ele>
        <time>2021-05-28T22:42:02Z</time>
      </trkpt>
      <trkpt lat="42.593878" lon="2.416187">
        <ele>439.059</ele>
        <time>2021-05-28T22:42:05Z</time>
      </trkpt>
      <trkpt lat="42.593860" lon="2.416195">
        <ele>439.050</ele>
        <time>2021-05-28T22:42:06Z</time>
      </trkpt>
      <trkpt lat="42.593838" lon="2.416197">
        <ele>439.019</ele>
        <time>2021-05-28T22:42:10Z</time>
      </trkpt>
      <trkpt lat="42.593812" lon="2.416201">
        <ele>439.086</ele>
        <time>2021-05-28T22:42:12Z</time>
      </trkpt>
      <trkpt lat="42.593786" lon="2.416204">
        <ele>439.031</ele>
        <time>2021-05-28T22:42:14Z</time>
      </trkpt>
      <trkpt lat="42.593767" lon="2.416203">
        <ele>439.048</ele>
        <time>2021-05-28T22:42:17Z</time>
      </trkpt>
      <trkpt lat="42.593749" lon="2.416212">
        <ele>439.076</ele>
        <time>2021-05-28T22:42:18Z</time>
      </trkpt>
      <trkpt lat="42.593739" lon="2.416234">
        <ele>439.093</ele>
        <time>2021-05-28T22:42:21Z</time>
      </trkpt>
      <trkpt lat="42.593719" lon="2.416257">
        <ele>439.065</ele>
        <time>2021-05-28T22:42:24Z</time>
      </trkpt>
      <trkpt lat="42.593742" lon="2.416266">
        <ele>439.021</ele>
        <time>2021-05-28T22:42:37Z</time>
      </trkpt>
      <trkpt lat="42.593761" lon="2.416264">
        <ele>439.008</ele>
        <time>2021-05-28T22:42:38Z</time>
      </trkpt>
      <trkpt lat="42.593780" lon="2.416255">
        <ele>439.046</ele>
        <time>2021-05-28T22:42:41Z</time>
      </trkpt>
      <trkpt lat="42.593811" lon="2.416248">
        <ele>439.033</ele>
        <time>2021-05-28T22:42:43Z</time>
      </trkpt>
      <trkpt lat="42.593830" lon="2.416242">
        <ele>439.014</ele>
        <time>2021-05-28T22:42:48Z</time>
      </trkpt>
      <trkpt lat="42.593864" lon="2.416241">
        <ele>439.083</ele>
        <time>2021-05-28T22:42:50Z</time>
      </trkpt>
      <trkpt lat="42.593885" lon="2.416233">
        <ele>439.040</ele>
        <time>2021-05-28T22:42:52Z</time>
      </trkpt>
      <trkpt lat="42.593910" lon="2.416239">
        <ele>439.015</ele>
        <time>2021-05-28T22:42:53Z</time>
      </trkpt>
      <trkpt lat="42.593932" lon="2.416245">
        <ele>439.082</ele>
        <time>2021-05-28T22:42:56Z</time>
      </trkpt>
      <trkpt lat="42.593944" lon="2.416268">
        <ele>439.010</ele>
        <time>2021-05-28T22:42:59Z</time>
      </trkpt>
      <trkpt lat="42.593957" lon="2.416293">
        <ele>439.085</ele>
        <time>2021-05-28T22:43:00Z</time>
      </trkpt>
      <trkpt lat="42.593967" lon="2.416317">
        <ele>439.089</ele>
        <time>2021-05-28T22:43:03Z</time>
      </trkpt>
      <trkpt lat="42.593970" lon="2.416354">
        <ele>439.017</ele>
        <time>2021-05-28T22:43:05Z</time>
      </trkpt>
      <trkpt lat="42.593964" lon="2.416382">
        <ele>439.008</ele>
        <time>2021-05-28T22:43:07Z</time>
      </trkpt>
      <trkpt lat="42.593967" lon="2.416419">
        <ele>439.845</ele>
        <time>2021-05-28T22:43:11Z</time>
      </trkpt>
      <trkpt lat="42.593973" lon="2.416448">
        <ele>440.682</ele>
        <time>2021-05-28T22:43:13Z</time>
      </trkpt>
      <trkpt lat="42.593986" lon="2.416490">
        <ele>441.813</ele>
        <time>2021-05-28T22:43:16Z</time>
      </trkpt>
      <trkpt lat="42.593990" lon="2.416518">
        <ele>442.512</ele>
        <time>2021-05-28T22:43:18Z</time>
      </trkpt>
      <trkpt lat="42.594004" lon="2.416546">
        <ele>443.319</ele>
        <time>2021-05-28T22:43:20Z</time>
      </trkpt>
      <trkpt lat="42.594021" lon="2.416567">
        <ele>443.824</ele>
        <time>2021-05-28T22:43:22Z</time>
      </trkpt>
      <trkpt lat="42.594044" lon="2.416581">
        <ele>444.111</ele>
        <time>2021-05-28T22:43:24Z</time>
      </trkpt>
      <trkpt lat="42.594072" lon="2.416594">
        <ele>444.459</ele>
        <time>2021-05-28T22:43:26Z</time>
      </trkpt>
      <trkpt lat="42.594093" lon="2.416593">
        <ele>444.394</ele>
        <time>2021-05-28T22:43:29Z</time>
      </trkpt>
      <trkpt lat="42.594117" lon="2.416590">
        <ele>444.257</ele>
        <time>2021-05-28T22:43:31Z</time>
      </trkpt>
      <trkpt lat="42.594142" lon="2.416592">
        <ele>444.222</ele>
        <time>2021-05-28T22:43:32Z</time>
      </trkpt>
      <trkpt lat="42.594237" lon="2.416605">
        <ele>444.208</ele>
        <time>2021-05-28T22:43:39Z</time>
      </trkpt>
      <trkpt lat="42.594259" lon="2.416606">
        <ele>444.266</ele>
        <time>2021-05-28T22:43:40Z</time>
      </trkpt>
      <trkpt lat="42.594284" lon="2.416609">
        <ele>444.233</ele>
        <time>2021-05-28T22:43:43Z</time>
      </trkpt>
      <trkpt lat="42.594386" lon="2.416584">
        <ele>443.434</ele>
        <time>2021-05-28T22:43:49Z</time>
      </trkpt>
      <trkpt lat="42.594481" lon="2.416548">
        <ele>442.493</ele>
        <time>2021-05-28T22:43:54Z</time>
      </trkpt>
      <trkpt lat="42.594505" lon="2.416540">
        <ele>442.280</ele>
        <time>2021-05-28T22:43:55Z</time>
      </trkpt>
      <trkpt lat="42.594556" lon="2.416522">
        <ele>441.915</ele>
        <time>2021-05-28T22:43:59Z</time>
      </trkpt>
      <trkpt lat="42.594602" lon="2.416463">
        <ele>440.962</ele>
        <time>2021-05-28T22:44:05Z</time>
      </trkpt>
      <trkpt lat="42.594617" lon="2.416437">
        <ele>440.470</ele>
        <time>2021-05-28T22:44:06Z</time>
      </trkpt>
      <trkpt lat="42.594629" lon="2.416412">
        <ele>440.181</ele>
        <time>2021-05-28T22:44:08Z</time>
      </trkpt>
      <trkpt lat="42.594637" lon="2.416375">
        <ele>439.561</ele>
        <time>2021-05-28T22:44:10Z</time>
      </trkpt>
      <trkpt lat="42.594650" lon="2.416356">
        <ele>439.217</ele>
        <time>2021-05-28T22:44:14Z</time>
      </trkpt>
      <trkpt lat="42.594672" lon="2.416344">
        <ele>439.108</ele>
        <time>2021-05-28T22:44:15Z</time>
      </trkpt>
      <trkpt lat="42.594694" lon="2.416334">
        <ele>439.095</ele>
        <time>2021-05-28T22:44:17Z</time>
      </trkpt>
      <trkpt lat="42.594716" lon="2.416325">
        <ele>438.852</ele>
        <time>2021-05-28T22:44:19Z</time>
      </trkpt>
      <trkpt lat="42.594734" lon="2.416322">
        <ele>438.873</ele>
        <time>2021-05-28T22:44:21Z</time>
      </trkpt>
      <trkpt lat="42.594750" lon="2.416311">
        <ele>438.752</ele>
        <time>2021-05-28T22:44:23Z</time>
      </trkpt>
      <trkpt lat="42.594766" lon="2.416291">
        <ele>438.549</ele>
        <time>2021-05-28T22:44:25Z</time>
      </trkpt>
      <trkpt lat="42.594781" lon="2.416270">
        <ele>438.294</ele>
        <time>2021-05-28T22:44:27Z</time>
      </trkpt>
      <trkpt lat="42.594801" lon="2.416258">
        <ele>438.131</ele>
        <time>2021-05-28T22:44:29Z</time>
      </trkpt>
      <trkpt lat="42.594820" lon="2.416251">
        <ele>438.089</ele>
        <time>2021-05-28T22:44:31Z</time>
      </trkpt>
      <trkpt lat="42.594836" lon="2.416239">
        <ele>437.934</ele>
        <time>2021-05-28T22:44:33Z</time>
      </trkpt>
      <trkpt lat="42.594854" lon="2.416225">
        <ele>437.855</ele>
        <time>2021-05-28T22:44:35Z</time>
      </trkpt>
      <trkpt lat="42.594873" lon="2.416217">
        <ele>437.810</ele>
        <time>2021-05-28T22:44:38Z</time>
      </trkpt>
      <trkpt lat="42.594886" lon="2.416244">
        <ele>438.308</ele>
        <time>2021-05-28T22:44:41Z</time>
      </trkpt>
      <trkpt lat="42.594897" lon="2.416275">
        <ele>438.840</ele>
        <time>2021-05-28T22:44:44Z</time>
      </trkpt>
      <trkpt lat="42.594875" lon="2.416268">
        <ele>438.647</ele>
        <time>2021-05-28T22:44:56Z</time>
      </trkpt>
      <trkpt lat="42.594848" lon="2.416296">
        <ele>438.998</ele>
        <time>2021-05-28T22:45:07Z</time>
      </trkpt>
      <trkpt lat="42.594833" lon="2.416320">
        <ele>439.377</ele>
        <time>2021-05-28T22:45:09Z</time>
      </trkpt>
      <trkpt lat="42.594819" lon="2.416341">
        <ele>439.534</ele>
        <time>2021-05-28T22:45:11Z</time>
      </trkpt>
      <trkpt lat="42.594802" lon="2.416357">
        <ele>439.719</ele>
        <time>2021-05-28T22:45:14Z</time>
      </trkpt>
      <trkpt lat="42.594783" lon="2.416381">
        <ele>440.186</ele>
        <time>2021-05-28T22:45:17Z</time>
      </trkpt>
      <trkpt lat="42.594760" lon="2.416400">
        <ele>440.364</ele>
        <time>2021-05-28T22:45:20Z</time>
      </trkpt>
      <trkpt lat="42.594743" lon="2.416426">
        <ele>440.616</ele>
        <time>2021-05-28T22:45:22Z</time>
      </trkpt>
      <trkpt lat="42.594723" lon="2.416448">
        <ele>440.976</ele>
        <time>2021-05-28T22:45:26Z</time>
      </trkpt>
      <trkpt lat="42.594700" lon="2.416466">
        <ele>441.113</ele>
        <time>2021-05-28T22:45:28Z</time>
      </trkpt>
      <trkpt lat="42.594680" lon="2.416488">
        <ele>441.408</ele>
        <time>2021-05-28T22:45:31Z</time>
      </trkpt>
      <trkpt lat="42.594662" lon="2.416510">
        <ele>441.778</ele>
        <time>2021-05-28T22:45:33Z</time>
      </trkpt>
      <trkpt lat="42.594642" lon="2.416535">
        <ele>442.175</ele>
        <time>2021-05-28T22:45:35Z</time>
      </trkpt>
      <trkpt lat="42.594623" lon="2.416556">
        <ele>442.596</ele>
        <time>2021-05-28T22:45:37Z</time>
      </trkpt>
      <trkpt lat="42.594608" lon="2.416581">
        <ele>442.915</ele>
        <time>2021-05-28T22:45:39Z</time>
      </trkpt>
      <trkpt lat="42.594596" lon="2.416604">
        <ele>443.342</ele>
        <time>2021-05-28T22:45:41Z</time>
      </trkpt>
      <trkpt lat="42.594584" lon="2.416626">
        <ele>443.877</ele>
        <time>2021-05-28T22:45:43Z</time>
      </trkpt>
      <trkpt lat="42.594568" lon="2.416652">
        <ele>444.394</ele>
        <time>2021-05-28T22:45:45Z</time>
      </trkpt>
      <trkpt lat="42.594554" lon="2.416676">
        <ele>444.892</ele>
        <time>2021-05-28T22:45:47Z</time>
      </trkpt>
      <trkpt lat="42.594541" lon="2.416700">
        <ele>445.366</ele>
        <time>2021-05-28T22:45:49Z</time>
      </trkpt>
      <trkpt lat="42.594524" lon="2.416725">
        <ele>445.829</ele>
        <time>2021-05-28T22:45:51Z</time>
      </trkpt>
      <trkpt lat="42.594514" lon="2.416751">
        <ele>446.321</ele>
        <time>2021-05-28T22:45:54Z</time>
      </trkpt>
      <trkpt lat="42.594505" lon="2.416779">
        <ele>446.808</ele>
        <time>2021-05-28T22:45:56Z</time>
      </trkpt>
      <trkpt lat="42.594492" lon="2.416807">
        <ele>447.433</ele>
        <time>2021-05-28T22:45:58Z</time>
      </trkpt>
      <trkpt lat="42.594484" lon="2.416835">
        <ele>447.940</ele>
        <time>2021-05-28T22:45:59Z</time>
      </trkpt>
      <trkpt lat="42.594478" lon="2.416867">
        <ele>448.571</ele>
        <time>2021-05-28T22:46:02Z</time>
      </trkpt>
      <trkpt lat="42.594476" lon="2.416838">
        <ele>448.040</ele>
        <time>2021-05-28T22:46:23Z</time>
      </trkpt>
      <trkpt lat="42.594487" lon="2.416809">
        <ele>447.487</ele>
        <time>2021-05-28T22:46:25Z</time>
      </trkpt>
      <trkpt lat="42.594500" lon="2.416774">
        <ele>446.732</ele>
        <time>2021-05-28T22:46:28Z</time>
      </trkpt>
      <trkpt lat="42.594509" lon="2.416751">
        <ele>446.329</ele>
        <time>2021-05-28T22:46:30Z</time>
      </trkpt>
      <trkpt lat="42.594524" lon="2.416729">
        <ele>445.847</ele>
        <time>2021-05-28T22:46:32Z</time>
      </trkpt>
      <trkpt lat="42.594550" lon="2.416706">
        <ele>445.382</ele>
        <time>2021-05-28T22:46:34Z</time>
      </trkpt>
      <trkpt lat="42.594572" lon="2.416669">
        <ele>444.643</ele>
        <time>2021-05-28T22:46:36Z</time>
      </trkpt>
      <trkpt lat="42.594595" lon="2.416638">
        <ele>444.017</ele>
        <time>2021-05-28T22:46:38Z</time>
      </trkpt>
      <trkpt lat="42.594627" lon="2.416616">
        <ele>443.508</ele>
        <time>2021-05-28T22:46:40Z</time>
      </trkpt>
      <trkpt lat="42.594649" lon="2.416607">
        <ele>443.395</ele>
        <time>2021-05-28T22:46:41Z</time>
      </trkpt>
      <trkpt lat="42.594669" lon="2.416598">
        <ele>443.162</ele>
        <time>2021-05-28T22:46:42Z</time>
      </trkpt>
      <trkpt lat="42.594685" lon="2.416582">
        <ele>442.843</ele>
        <time>2021-05-28T22:46:43Z</time>
      </trkpt>
      <trkpt lat="42.594711" lon="2.416547">
        <ele>442.352</ele>
        <time>2021-05-28T22:46:45Z</time>
      </trkpt>
      <trkpt lat="42.594725" lon="2.416531">
        <ele>442.189</ele>
        <time>2021-05-28T22:46:46Z</time>
      </trkpt>
      <trkpt lat="42.594740" lon="2.416512">
        <ele>441.824</ele>
        <time>2021-05-28T22:46:47Z</time>
      </trkpt>
      <trkpt lat="42.594756" lon="2.416494">
        <ele>441.641</ele>
        <time>2021-05-28T22:46:48Z</time>
      </trkpt>
      <trkpt lat="42.594767" lon="2.416475">
        <ele>441.479</ele>
        <time>2021-05-28T22:46:49Z</time>
      </trkpt>
      <trkpt lat="42.594792" lon="2.416440">
        <ele>440.972</ele>
        <time>2021-05-28T22:46:51Z</time>
      </trkpt>
      <trkpt lat="42.594805" lon="2.416424">
        <ele>440.813</ele>
        <time>2021-05-28T22:46:52Z</time>
      </trkpt>
      <trkpt lat="42.594834" lon="2.416395">
        <ele>440.514</ele>
        <time>2021-05-28T22:46:54Z</time>
      </trkpt>
      <trkpt lat="42.594851" lon="2.416379">
        <ele>440.308</ele>
        <time>2021-05-28T22:46:55Z</time>
      </trkpt>
      <trkpt lat="42.594874" lon="2.416345">
        <ele>439.814</ele>
        <time>2021-05-28T22:46:57Z</time>
      </trkpt>
      <trkpt lat="42.594889" lon="2.416329">
        <ele>439.741</ele>
        <time>2021-05-28T22:46:58Z</time>
      </trkpt>
      <trkpt lat="42.594916" lon="2.416304">
        <ele>439.472</ele>
        <time>2021-05-28T22:47:00Z</time>
      </trkpt>
      <trkpt lat="42.594941" lon="2.416282">
        <ele>439.261</ele>
        <time>2021-05-28T22:47:02Z</time>
      </trkpt>
      <trkpt lat="42.594969" lon="2.416257">
        <ele>438.968</ele>
        <time>2021-05-28T22:47:04Z</time>
      </trkpt>
      <trkpt lat="42.594983" lon="2.416240">
        <ele>438.863</ele>
        <time>2021-05-28T22:47:05Z</time>
      </trkpt>
      <trkpt lat="42.594997" lon="2.416222">
        <ele>438.630</ele>
        <time>2021-05-28T22:47:06Z</time>
      </trkpt>
      <trkpt lat="42.595013" lon="2.416205">
        <ele>438.428</ele>
        <time>2021-05-28T22:47:07Z</time>
      </trkpt>
      <trkpt lat="42.595057" lon="2.416161">
        <ele>438.113</ele>
        <time>2021-05-28T22:47:10Z</time>
      </trkpt>
      <trkpt lat="42.595076" lon="2.416144">
        <ele>438.043</ele>
        <time>2021-05-28T22:47:11Z</time>
      </trkpt>
      <trkpt lat="42.595107" lon="2.416125">
        <ele>437.907</ele>
        <time>2021-05-28T22:47:13Z</time>
      </trkpt>
      <trkpt lat="42.595137" lon="2.416104">
        <ele>437.908</ele>
        <time>2021-05-28T22:47:15Z</time>
      </trkpt>
      <trkpt lat="42.595165" lon="2.416082">
        <ele>437.738</ele>
        <time>2021-05-28T22:47:17Z</time>
      </trkpt>
      <trkpt lat="42.595196" lon="2.416063">
        <ele>437.755</ele>
        <time>2021-05-28T22:47:19Z</time>
      </trkpt>
      <trkpt lat="42.595230" lon="2.416046">
        <ele>437.796</ele>
        <time>2021-05-28T22:47:21Z</time>
      </trkpt>
      <trkpt lat="42.595261" lon="2.416029">
        <ele>437.785</ele>
        <time>2021-05-28T22:47:23Z</time>
      </trkpt>
      <trkpt lat="42.595300" lon="2.416019">
        <ele>437.882</ele>
        <time>2021-05-28T22:47:26Z</time>
      </trkpt>
      <trkpt lat="42.595325" lon="2.416007">
        <ele>437.777</ele>
        <time>2021-05-28T22:47:27Z</time>
      </trkpt>
      <trkpt lat="42.595348" lon="2.416002">
        <ele>437.714</ele>
        <time>2021-05-28T22:47:29Z</time>
      </trkpt>
      <trkpt lat="42.595368" lon="2.415994">
        <ele>437.642</ele>
        <time>2021-05-28T22:47:30Z</time>
      </trkpt>
      <trkpt lat="42.595414" lon="2.415978">
        <ele>437.695</ele>
        <time>2021-05-28T22:47:32Z</time>
      </trkpt>
      <trkpt lat="42.595443" lon="2.415973">
        <ele>437.649</ele>
        <time>2021-05-28T22:47:34Z</time>
      </trkpt>
      <trkpt lat="42.595462" lon="2.415975">
        <ele>437.723</ele>
        <time>2021-05-28T22:47:35Z</time>
      </trkpt>
      <trkpt lat="42.595480" lon="2.415979">
        <ele>437.808</ele>
        <time>2021-05-28T22:47:36Z</time>
      </trkpt>
      <trkpt lat="42.595499" lon="2.415980">
        <ele>437.936</ele>
        <time>2021-05-28T22:47:38Z</time>
      </trkpt>
      <trkpt lat="42.595525" lon="2.415989">
        <ele>438.173</ele>
        <time>2021-05-28T22:47:39Z</time>
      </trkpt>
      <trkpt lat="42.595554" lon="2.415992">
        <ele>438.334</ele>
        <time>2021-05-28T22:47:41Z</time>
      </trkpt>
      <trkpt lat="42.595584" lon="2.415981">
        <ele>437.993</ele>
        <time>2021-05-28T22:47:44Z</time>
      </trkpt>
      <trkpt lat="42.595618" lon="2.415989">
        <ele>437.720</ele>
        <time>2021-05-28T22:47:45Z</time>
      </trkpt>
      <trkpt lat="42.595636" lon="2.415997">
        <ele>437.785</ele>
        <time>2021-05-28T22:47:46Z</time>
      </trkpt>
      <trkpt lat="42.595662" lon="2.416015">
        <ele>437.812</ele>
        <time>2021-05-28T22:47:48Z</time>
      </trkpt>
      <trkpt lat="42.595681" lon="2.416025">
        <ele>437.980</ele>
        <time>2021-05-28T22:47:50Z</time>
      </trkpt>
      <trkpt lat="42.595703" lon="2.416035">
        <ele>437.995</ele>
        <time>2021-05-28T22:47:52Z</time>
      </trkpt>
      <trkpt lat="42.595722" lon="2.416040">
        <ele>437.949</ele>
        <time>2021-05-28T22:47:53Z</time>
      </trkpt>
      <trkpt lat="42.595741" lon="2.416045">
        <ele>437.923</ele>
        <time>2021-05-28T22:47:54Z</time>
      </trkpt>
      <trkpt lat="42.595774" lon="2.416058">
        <ele>438.008</ele>
        <time>2021-05-28T22:47:56Z</time>
      </trkpt>
      <trkpt lat="42.595805" lon="2.416062">
        <ele>437.936</ele>
        <time>2021-05-28T22:47:58Z</time>
      </trkpt>
      <trkpt lat="42.595825" lon="2.416067">
        <ele>437.923</ele>
        <time>2021-05-28T22:47:59Z</time>
      </trkpt>
      <trkpt lat="42.595843" lon="2.416071">
        <ele>437.844</ele>
        <time>2021-05-28T22:48:00Z</time>
      </trkpt>
      <trkpt lat="42.595863" lon="2.416092">
        <ele>438.023</ele>
        <time>2021-05-28T22:48:02Z</time>
      </trkpt>
      <trkpt lat="42.595890" lon="2.416110">
        <ele>438.090</ele>
        <time>2021-05-28T22:48:04Z</time>
      </trkpt>
      <trkpt lat="42.595986" lon="2.416161">
        <ele>437.035</ele>
        <time>2021-05-28T22:48:12Z</time>
      </trkpt>
      <trkpt lat="42.596083" lon="2.416188">
        <ele>436.112</ele>
        <time>2021-05-28T22:48:17Z</time>
      </trkpt>
      <trkpt lat="42.596174" lon="2.416254">
        <ele>435.360</ele>
        <time>2021-05-28T22:48:24Z</time>
      </trkpt>
      <trkpt lat="42.596261" lon="2.416351">
        <ele>434.979</ele>
        <time>2021-05-28T22:48:30Z</time>
      </trkpt>
      <trkpt lat="42.596322" lon="2.416458">
        <ele>434.905</ele>
        <time>2021-05-28T22:48:35Z</time>
      </trkpt>
      <trkpt lat="42.596379" lon="2.416531">
        <ele>434.825</ele>
        <time>2021-05-28T22:48:38Z</time>
      </trkpt>
      <trkpt lat="42.596395" lon="2.416544">
        <ele>434.608</ele>
        <time>2021-05-28T22:48:40Z</time>
      </trkpt>
      <trkpt lat="42.596424" lon="2.416563">
        <ele>434.254</ele>
        <time>2021-05-28T22:48:41Z</time>
      </trkpt>
      <trkpt lat="42.596452" lon="2.416586">
        <ele>433.971</ele>
        <time>2021-05-28T22:48:43Z</time>
      </trkpt>
      <trkpt lat="42.596470" lon="2.416601">
        <ele>433.732</ele>
        <time>2021-05-28T22:48:44Z</time>
      </trkpt>
      <trkpt lat="42.596485" lon="2.416617">
        <ele>433.641</ele>
        <time>2021-05-28T22:48:45Z</time>
      </trkpt>
      <trkpt lat="42.596514" lon="2.416645">
        <ele>433.498</ele>
        <time>2021-05-28T22:48:47Z</time>
      </trkpt>
      <trkpt lat="42.596535" lon="2.416658">
        <ele>433.183</ele>
        <time>2021-05-28T22:48:48Z</time>
      </trkpt>
      <trkpt lat="42.596554" lon="2.416671">
        <ele>432.920</ele>
        <time>2021-05-28T22:48:49Z</time>
      </trkpt>
      <trkpt lat="42.596571" lon="2.416679">
        <ele>432.668</ele>
        <time>2021-05-28T22:48:50Z</time>
      </trkpt>
      <trkpt lat="42.596592" lon="2.416684">
        <ele>432.189</ele>
        <time>2021-05-28T22:48:51Z</time>
      </trkpt>
      <trkpt lat="42.596620" lon="2.416691">
        <ele>431.606</ele>
        <time>2021-05-28T22:48:52Z</time>
      </trkpt>
      <trkpt lat="42.596645" lon="2.416698">
        <ele>431.126</ele>
        <time>2021-05-28T22:48:54Z</time>
      </trkpt>
      <trkpt lat="42.596679" lon="2.416705">
        <ele>430.508</ele>
        <time>2021-05-28T22:48:56Z</time>
      </trkpt>
      <trkpt lat="42.596702" lon="2.416707">
        <ele>430.115</ele>
        <time>2021-05-28T22:48:57Z</time>
      </trkpt>
      <trkpt lat="42.596788" lon="2.416698">
        <ele>428.412</ele>
        <time>2021-05-28T22:49:01Z</time>
      </trkpt>
      <trkpt lat="42.596885" lon="2.416694">
        <ele>426.653</ele>
        <time>2021-05-28T22:49:04Z</time>
      </trkpt>
      <trkpt lat="42.596910" lon="2.416694">
        <ele>426.172</ele>
        <time>2021-05-28T22:49:05Z</time>
      </trkpt>
      <trkpt lat="42.596932" lon="2.416691">
        <ele>425.739</ele>
        <time>2021-05-28T22:49:06Z</time>
      </trkpt>
      <trkpt lat="42.596958" lon="2.416685">
        <ele>425.164</ele>
        <time>2021-05-28T22:49:07Z</time>
      </trkpt>
      <trkpt lat="42.596985" lon="2.416680">
        <ele>424.651</ele>
        <time>2021-05-28T22:49:08Z</time>
      </trkpt>
      <trkpt lat="42.597006" lon="2.416674">
        <ele>424.219</ele>
        <time>2021-05-28T22:49:09Z</time>
      </trkpt>
      <trkpt lat="42.597034" lon="2.416661">
        <ele>423.786</ele>
        <time>2021-05-28T22:49:11Z</time>
      </trkpt>
      <trkpt lat="42.597063" lon="2.416647">
        <ele>423.160</ele>
        <time>2021-05-28T22:49:13Z</time>
      </trkpt>
      <trkpt lat="42.597090" lon="2.416624">
        <ele>422.626</ele>
        <time>2021-05-28T22:49:15Z</time>
      </trkpt>
      <trkpt lat="42.597117" lon="2.416601">
        <ele>422.208</ele>
        <time>2021-05-28T22:49:17Z</time>
      </trkpt>
      <trkpt lat="42.597145" lon="2.416577">
        <ele>421.855</ele>
        <time>2021-05-28T22:49:18Z</time>
      </trkpt>
      <trkpt lat="42.597170" lon="2.416558">
        <ele>421.542</ele>
        <time>2021-05-28T22:49:20Z</time>
      </trkpt>
      <trkpt lat="42.597200" lon="2.416536">
        <ele>421.233</ele>
        <time>2021-05-28T22:49:22Z</time>
      </trkpt>
      <trkpt lat="42.597229" lon="2.416508">
        <ele>421.092</ele>
        <time>2021-05-28T22:49:25Z</time>
      </trkpt>
      <trkpt lat="42.597258" lon="2.416476">
        <ele>421.219</ele>
        <time>2021-05-28T22:49:27Z</time>
      </trkpt>
      <trkpt lat="42.597284" lon="2.416455">
        <ele>421.574</ele>
        <time>2021-05-28T22:49:28Z</time>
      </trkpt>
      <trkpt lat="42.597316" lon="2.416441">
        <ele>421.811</ele>
        <time>2021-05-28T22:49:30Z</time>
      </trkpt>
      <trkpt lat="42.597345" lon="2.416436">
        <ele>422.099</ele>
        <time>2021-05-28T22:49:32Z</time>
      </trkpt>
      <trkpt lat="42.597377" lon="2.416432">
        <ele>422.396</ele>
        <time>2021-05-28T22:49:34Z</time>
      </trkpt>
      <trkpt lat="42.597400" lon="2.416432">
        <ele>422.531</ele>
        <time>2021-05-28T22:49:35Z</time>
      </trkpt>
      <trkpt lat="42.597432" lon="2.416433">
        <ele>422.824</ele>
        <time>2021-05-28T22:49:36Z</time>
      </trkpt>
      <trkpt lat="42.597458" lon="2.416435">
        <ele>423.008</ele>
        <time>2021-05-28T22:49:39Z</time>
      </trkpt>
      <trkpt lat="42.597485" lon="2.416433">
        <ele>423.246</ele>
        <time>2021-05-28T22:49:41Z</time>
      </trkpt>
      <trkpt lat="42.597509" lon="2.416435">
        <ele>423.363</ele>
        <time>2021-05-28T22:49:43Z</time>
      </trkpt>
      <trkpt lat="42.597538" lon="2.416438">
        <ele>423.344</ele>
        <time>2021-05-28T22:49:44Z</time>
      </trkpt>
      <trkpt lat="42.597562" lon="2.416441">
        <ele>423.313</ele>
        <time>2021-05-28T22:49:46Z</time>
      </trkpt>
      <trkpt lat="42.597588" lon="2.416448">
        <ele>423.220</ele>
        <time>2021-05-28T22:49:49Z</time>
      </trkpt>
      <trkpt lat="42.597607" lon="2.416456">
        <ele>423.155</ele>
        <time>2021-05-28T22:49:51Z</time>
      </trkpt>
      <trkpt lat="42.597627" lon="2.416460">
        <ele>423.132</ele>
        <time>2021-05-28T22:49:53Z</time>
      </trkpt>
      <trkpt lat="42.597647" lon="2.416468">
        <ele>423.020</ele>
        <time>2021-05-28T22:49:55Z</time>
      </trkpt>
      <trkpt lat="42.597668" lon="2.416478">
        <ele>422.958</ele>
        <time>2021-05-28T22:49:58Z</time>
      </trkpt>
      <trkpt lat="42.597692" lon="2.416485">
        <ele>422.952</ele>
        <time>2021-05-28T22:49:59Z</time>
      </trkpt>
      <trkpt lat="42.597715" lon="2.416490">
        <ele>422.817</ele>
        <time>2021-05-28T22:50:02Z</time>
      </trkpt>
      <trkpt lat="42.597736" lon="2.416493">
        <ele>422.808</ele>
        <time>2021-05-28T22:50:03Z</time>
      </trkpt>
      <trkpt lat="42.597759" lon="2.416494">
        <ele>422.892</ele>
        <time>2021-05-28T22:50:05Z</time>
      </trkpt>
      <trkpt lat="42.597782" lon="2.416491">
        <ele>422.929</ele>
        <time>2021-05-28T22:50:07Z</time>
      </trkpt>
      <trkpt lat="42.597803" lon="2.416490">
        <ele>422.870</ele>
        <time>2021-05-28T22:50:10Z</time>
      </trkpt>
      <trkpt lat="42.597824" lon="2.416488">
        <ele>422.859</ele>
        <time>2021-05-28T22:50:12Z</time>
      </trkpt>
      <trkpt lat="42.597852" lon="2.416496">
        <ele>422.656</ele>
        <time>2021-05-28T22:50:14Z</time>
      </trkpt>
      <trkpt lat="42.597875" lon="2.416495">
        <ele>422.581</ele>
        <time>2021-05-28T22:50:16Z</time>
      </trkpt>
      <trkpt lat="42.597898" lon="2.416501">
        <ele>422.438</ele>
        <time>2021-05-28T22:50:18Z</time>
      </trkpt>
      <trkpt lat="42.597921" lon="2.416499">
        <ele>422.336</ele>
        <time>2021-05-28T22:50:20Z</time>
      </trkpt>
      <trkpt lat="42.597945" lon="2.416501">
        <ele>422.212</ele>
        <time>2021-05-28T22:50:23Z</time>
      </trkpt>
      <trkpt lat="42.597965" lon="2.416508">
        <ele>422.032</ele>
        <time>2021-05-28T22:50:26Z</time>
      </trkpt>
      <trkpt lat="42.597985" lon="2.416510">
        <ele>421.905</ele>
        <time>2021-05-28T22:50:28Z</time>
      </trkpt>
      <trkpt lat="42.598006" lon="2.416502">
        <ele>422.008</ele>
        <time>2021-05-28T22:50:50Z</time>
      </trkpt>
      <trkpt lat="42.598030" lon="2.416499">
        <ele>421.928</ele>
        <time>2021-05-28T22:50:54Z</time>
      </trkpt>
      <trkpt lat="42.598051" lon="2.416501">
        <ele>421.855</ele>
        <time>2021-05-28T22:50:55Z</time>
      </trkpt>
      <trkpt lat="42.598075" lon="2.416501">
        <ele>421.686</ele>
        <time>2021-05-28T22:50:58Z</time>
      </trkpt>
      <trkpt lat="42.598096" lon="2.416501">
        <ele>421.475</ele>
        <time>2021-05-28T22:51:00Z</time>
      </trkpt>
      <trkpt lat="42.598122" lon="2.416498">
        <ele>421.262</ele>
        <time>2021-05-28T22:51:02Z</time>
      </trkpt>
      <trkpt lat="42.598153" lon="2.416494">
        <ele>420.937</ele>
        <time>2021-05-28T22:51:03Z</time>
      </trkpt>
      <trkpt lat="42.598179" lon="2.416495">
        <ele>420.764</ele>
        <time>2021-05-28T22:51:05Z</time>
      </trkpt>
      <trkpt lat="42.598203" lon="2.416498">
        <ele>420.432</ele>
        <time>2021-05-28T22:51:07Z</time>
      </trkpt>
      <trkpt lat="42.598233" lon="2.416505">
        <ele>420.125</ele>
        <time>2021-05-28T22:51:09Z</time>
      </trkpt>
      <trkpt lat="42.598252" lon="2.416506">
        <ele>419.926</ele>
        <time>2021-05-28T22:51:10Z</time>
      </trkpt>
      <trkpt lat="42.598286" lon="2.416509">
        <ele>419.608</ele>
        <time>2021-05-28T22:51:12Z</time>
      </trkpt>
      <trkpt lat="42.598318" lon="2.416508">
        <ele>419.308</ele>
        <time>2021-05-28T22:51:14Z</time>
      </trkpt>
      <trkpt lat="42.598336" lon="2.416511">
        <ele>419.139</ele>
        <time>2021-05-28T22:51:15Z</time>
      </trkpt>
      <trkpt lat="42.598374" lon="2.416519">
        <ele>419.156</ele>
        <time>2021-05-28T22:51:17Z</time>
      </trkpt>
      <trkpt lat="42.598410" lon="2.416519">
        <ele>419.137</ele>
        <time>2021-05-28T22:51:19Z</time>
      </trkpt>
      <trkpt lat="42.598447" lon="2.416522">
        <ele>419.056</ele>
        <time>2021-05-28T22:51:21Z</time>
      </trkpt>
      <trkpt lat="42.598468" lon="2.416521">
        <ele>419.033</ele>
        <time>2021-05-28T22:51:22Z</time>
      </trkpt>
      <trkpt lat="42.598490" lon="2.416523">
        <ele>419.058</ele>
        <time>2021-05-28T22:51:23Z</time>
      </trkpt>
      <trkpt lat="42.598511" lon="2.416527">
        <ele>419.035</ele>
        <time>2021-05-28T22:51:24Z</time>
      </trkpt>
      <trkpt lat="42.598533" lon="2.416528">
        <ele>419.093</ele>
        <time>2021-05-28T22:51:25Z</time>
      </trkpt>
      <trkpt lat="42.598554" lon="2.416529">
        <ele>419.059</ele>
        <time>2021-05-28T22:51:26Z</time>
      </trkpt>
      <trkpt lat="42.598573" lon="2.416531">
        <ele>419.003</ele>
        <time>2021-05-28T22:51:27Z</time>
      </trkpt>
      <trkpt lat="42.598595" lon="2.416534">
        <ele>419.023</ele>
        <time>2021-05-28T22:51:28Z</time>
      </trkpt>
      <trkpt lat="42.598614" lon="2.416535">
        <ele>418.908</ele>
        <time>2021-05-28T22:51:29Z</time>
      </trkpt>
      <trkpt lat="42.598632" lon="2.416533">
        <ele>418.982</ele>
        <time>2021-05-28T22:51:31Z</time>
      </trkpt>
      <trkpt lat="42.598668" lon="2.416534">
        <ele>418.829</ele>
        <time>2021-05-28T22:51:32Z</time>
      </trkpt>
      <trkpt lat="42.598708" lon="2.416539">
        <ele>418.750</ele>
        <time>2021-05-28T22:51:34Z</time>
      </trkpt>
      <trkpt lat="42.598728" lon="2.416536">
        <ele>418.729</ele>
        <time>2021-05-28T22:51:35Z</time>
      </trkpt>
      <trkpt lat="42.598749" lon="2.416534">
        <ele>418.726</ele>
        <time>2021-05-28T22:51:36Z</time>
      </trkpt>
      <trkpt lat="42.598769" lon="2.416534">
        <ele>418.751</ele>
        <time>2021-05-28T22:51:37Z</time>
      </trkpt>
      <trkpt lat="42.598788" lon="2.416535">
        <ele>418.668</ele>
        <time>2021-05-28T22:51:38Z</time>
      </trkpt>
      <trkpt lat="42.598807" lon="2.416533">
        <ele>418.696</ele>
        <time>2021-05-28T22:51:39Z</time>
      </trkpt>
      <trkpt lat="42.598841" lon="2.416532">
        <ele>418.559</ele>
        <time>2021-05-28T22:51:41Z</time>
      </trkpt>
      <trkpt lat="42.598878" lon="2.416533">
        <ele>418.503</ele>
        <time>2021-05-28T22:51:43Z</time>
      </trkpt>
      <trkpt lat="42.598911" lon="2.416538">
        <ele>418.123</ele>
        <time>2021-05-28T22:51:45Z</time>
      </trkpt>
      <trkpt lat="42.598941" lon="2.416541">
        <ele>417.808</ele>
        <time>2021-05-28T22:51:47Z</time>
      </trkpt>
      <trkpt lat="42.598973" lon="2.416543">
        <ele>417.482</ele>
        <time>2021-05-28T22:51:50Z</time>
      </trkpt>
      <trkpt lat="42.599003" lon="2.416548">
        <ele>417.029</ele>
        <time>2021-05-28T22:51:52Z</time>
      </trkpt>
      <trkpt lat="42.599032" lon="2.416551">
        <ele>416.690</ele>
        <time>2021-05-28T22:51:54Z</time>
      </trkpt>
      <trkpt lat="42.599069" lon="2.416551">
        <ele>416.279</ele>
        <time>2021-05-28T22:51:55Z</time>
      </trkpt>
      <trkpt lat="42.599100" lon="2.416554">
        <ele>415.816</ele>
        <time>2021-05-28T22:51:58Z</time>
      </trkpt>
      <trkpt lat="42.599120" lon="2.416557">
        <ele>415.581</ele>
        <time>2021-05-28T22:51:59Z</time>
      </trkpt>
      <trkpt lat="42.599155" lon="2.416558">
        <ele>415.178</ele>
        <time>2021-05-28T22:52:00Z</time>
      </trkpt>
      <trkpt lat="42.599173" lon="2.416557">
        <ele>415.076</ele>
        <time>2021-05-28T22:52:01Z</time>
      </trkpt>
      <trkpt lat="42.599196" lon="2.416553">
        <ele>414.955</ele>
        <time>2021-05-28T22:52:02Z</time>
      </trkpt>
      <trkpt lat="42.599220" lon="2.416552">
        <ele>414.907</ele>
        <time>2021-05-28T22:52:03Z</time>
      </trkpt>
      <trkpt lat="42.599242" lon="2.416553">
        <ele>414.817</ele>
        <time>2021-05-28T22:52:04Z</time>
      </trkpt>
      <trkpt lat="42.599261" lon="2.416553">
        <ele>414.708</ele>
        <time>2021-05-28T22:52:05Z</time>
      </trkpt>
      <trkpt lat="42.599298" lon="2.416562">
        <ele>414.472</ele>
        <time>2021-05-28T22:52:07Z</time>
      </trkpt>
      <trkpt lat="42.599336" lon="2.416567">
        <ele>414.229</ele>
        <time>2021-05-28T22:52:09Z</time>
      </trkpt>
      <trkpt lat="42.599357" lon="2.416572">
        <ele>414.090</ele>
        <time>2021-05-28T22:52:10Z</time>
      </trkpt>
      <trkpt lat="42.599377" lon="2.416577">
        <ele>413.949</ele>
        <time>2021-05-28T22:52:11Z</time>
      </trkpt>
      <trkpt lat="42.599399" lon="2.416582">
        <ele>413.716</ele>
        <time>2021-05-28T22:52:12Z</time>
      </trkpt>
      <trkpt lat="42.599421" lon="2.416585">
        <ele>413.691</ele>
        <time>2021-05-28T22:52:13Z</time>
      </trkpt>
      <trkpt lat="42.599441" lon="2.416588">
        <ele>413.498</ele>
        <time>2021-05-28T22:52:14Z</time>
      </trkpt>
      <trkpt lat="42.599460" lon="2.416592">
        <ele>413.416</ele>
        <time>2021-05-28T22:52:15Z</time>
      </trkpt>
      <trkpt lat="42.599480" lon="2.416596">
        <ele>413.495</ele>
        <time>2021-05-28T22:52:16Z</time>
      </trkpt>
      <trkpt lat="42.599498" lon="2.416602">
        <ele>413.449</ele>
        <time>2021-05-28T22:52:17Z</time>
      </trkpt>
      <trkpt lat="42.599518" lon="2.416609">
        <ele>413.423</ele>
        <time>2021-05-28T22:52:18Z</time>
      </trkpt>
      <trkpt lat="42.599538" lon="2.416616">
        <ele>413.308</ele>
        <time>2021-05-28T22:52:19Z</time>
      </trkpt>
      <trkpt lat="42.599560" lon="2.416621">
        <ele>413.346</ele>
        <time>2021-05-28T22:52:20Z</time>
      </trkpt>
      <trkpt lat="42.599581" lon="2.416622">
        <ele>413.443</ele>
        <time>2021-05-28T22:52:21Z</time>
      </trkpt>
      <trkpt lat="42.599604" lon="2.416625">
        <ele>413.414</ele>
        <time>2021-05-28T22:52:22Z</time>
      </trkpt>
      <trkpt lat="42.599622" lon="2.416629">
        <ele>413.443</ele>
        <time>2021-05-28T22:52:23Z</time>
      </trkpt>
      <trkpt lat="42.599656" lon="2.416640">
        <ele>413.390</ele>
        <time>2021-05-28T22:52:25Z</time>
      </trkpt>
      <trkpt lat="42.599674" lon="2.416645">
        <ele>413.355</ele>
        <time>2021-05-28T22:52:26Z</time>
      </trkpt>
      <trkpt lat="42.599708" lon="2.416657">
        <ele>413.292</ele>
        <time>2021-05-28T22:52:29Z</time>
      </trkpt>
      <trkpt lat="42.599760" lon="2.416673">
        <ele>413.360</ele>
        <time>2021-05-28T22:52:31Z</time>
      </trkpt>
      <trkpt lat="42.599778" lon="2.416679">
        <ele>413.518</ele>
        <time>2021-05-28T22:52:32Z</time>
      </trkpt>
      <trkpt lat="42.599797" lon="2.416682">
        <ele>413.698</ele>
        <time>2021-05-28T22:52:33Z</time>
      </trkpt>
      <trkpt lat="42.599834" lon="2.416687">
        <ele>413.917</ele>
        <time>2021-05-28T22:52:35Z</time>
      </trkpt>
      <trkpt lat="42.599854" lon="2.416690">
        <ele>414.108</ele>
        <time>2021-05-28T22:52:36Z</time>
      </trkpt>
      <trkpt lat="42.599874" lon="2.416693">
        <ele>414.398</ele>
        <time>2021-05-28T22:52:37Z</time>
      </trkpt>
      <trkpt lat="42.599910" lon="2.416703">
        <ele>414.585</ele>
        <time>2021-05-28T22:52:39Z</time>
      </trkpt>
      <trkpt lat="42.599953" lon="2.416710">
        <ele>414.826</ele>
        <time>2021-05-28T22:52:41Z</time>
      </trkpt>
      <trkpt lat="42.599971" lon="2.416710">
        <ele>414.955</ele>
        <time>2021-05-28T22:52:42Z</time>
      </trkpt>
      <trkpt lat="42.600008" lon="2.416711">
        <ele>415.272</ele>
        <time>2021-05-28T22:52:44Z</time>
      </trkpt>
      <trkpt lat="42.600044" lon="2.416716">
        <ele>415.087</ele>
        <time>2021-05-28T22:52:46Z</time>
      </trkpt>
      <trkpt lat="42.600062" lon="2.416720">
        <ele>414.984</ele>
        <time>2021-05-28T22:52:47Z</time>
      </trkpt>
      <trkpt lat="42.600102" lon="2.416726">
        <ele>414.712</ele>
        <time>2021-05-28T22:52:49Z</time>
      </trkpt>
      <trkpt lat="42.600121" lon="2.416729">
        <ele>414.677</ele>
        <time>2021-05-28T22:52:50Z</time>
      </trkpt>
      <trkpt lat="42.600155" lon="2.416735">
        <ele>414.561</ele>
        <time>2021-05-28T22:52:52Z</time>
      </trkpt>
      <trkpt lat="42.600189" lon="2.416740">
        <ele>414.427</ele>
        <time>2021-05-28T22:52:54Z</time>
      </trkpt>
      <trkpt lat="42.600227" lon="2.416744">
        <ele>414.208</ele>
        <time>2021-05-28T22:52:56Z</time>
      </trkpt>
      <trkpt lat="42.600245" lon="2.416747">
        <ele>414.264</ele>
        <time>2021-05-28T22:52:57Z</time>
      </trkpt>
      <trkpt lat="42.600280" lon="2.416751">
        <ele>414.181</ele>
        <time>2021-05-28T22:52:59Z</time>
      </trkpt>
      <trkpt lat="42.600299" lon="2.416749">
        <ele>413.942</ele>
        <time>2021-05-28T22:53:00Z</time>
      </trkpt>
      <trkpt lat="42.600318" lon="2.416751">
        <ele>413.731</ele>
        <time>2021-05-28T22:53:01Z</time>
      </trkpt>
      <trkpt lat="42.600338" lon="2.416754">
        <ele>413.598</ele>
        <time>2021-05-28T22:53:02Z</time>
      </trkpt>
      <trkpt lat="42.600356" lon="2.416757">
        <ele>413.363</ele>
        <time>2021-05-28T22:53:03Z</time>
      </trkpt>
      <trkpt lat="42.600375" lon="2.416758">
        <ele>413.180</ele>
        <time>2021-05-28T22:53:04Z</time>
      </trkpt>
      <trkpt lat="42.600398" lon="2.416760">
        <ele>412.898</ele>
        <time>2021-05-28T22:53:05Z</time>
      </trkpt>
      <trkpt lat="42.600443" lon="2.416766">
        <ele>412.477</ele>
        <time>2021-05-28T22:53:07Z</time>
      </trkpt>
      <trkpt lat="42.600468" lon="2.416770">
        <ele>412.161</ele>
        <time>2021-05-28T22:53:08Z</time>
      </trkpt>
      <trkpt lat="42.600490" lon="2.416770">
        <ele>411.927</ele>
        <time>2021-05-28T22:53:09Z</time>
      </trkpt>
      <trkpt lat="42.600512" lon="2.416770">
        <ele>411.708</ele>
        <time>2021-05-28T22:53:10Z</time>
      </trkpt>
      <trkpt lat="42.600536" lon="2.416770">
        <ele>411.494</ele>
        <time>2021-05-28T22:53:11Z</time>
      </trkpt>
      <trkpt lat="42.600559" lon="2.416771">
        <ele>411.231</ele>
        <time>2021-05-28T22:53:12Z</time>
      </trkpt>
      <trkpt lat="42.600582" lon="2.416773">
        <ele>411.132</ele>
        <time>2021-05-28T22:53:13Z</time>
      </trkpt>
      <trkpt lat="42.600603" lon="2.416779">
        <ele>411.071</ele>
        <time>2021-05-28T22:53:14Z</time>
      </trkpt>
      <trkpt lat="42.600623" lon="2.416789">
        <ele>410.818</ele>
        <time>2021-05-28T22:53:16Z</time>
      </trkpt>
      <trkpt lat="42.600671" lon="2.416802">
        <ele>410.443</ele>
        <time>2021-05-28T22:53:17Z</time>
      </trkpt>
      <trkpt lat="42.600693" lon="2.416806">
        <ele>410.370</ele>
        <time>2021-05-28T22:53:18Z</time>
      </trkpt>
      <trkpt lat="42.600716" lon="2.416809">
        <ele>410.118</ele>
        <time>2021-05-28T22:53:19Z</time>
      </trkpt>
      <trkpt lat="42.600738" lon="2.416812">
        <ele>410.015</ele>
        <time>2021-05-28T22:53:20Z</time>
      </trkpt>
      <trkpt lat="42.600759" lon="2.416817">
        <ele>409.865</ele>
        <time>2021-05-28T22:53:21Z</time>
      </trkpt>
      <trkpt lat="42.600778" lon="2.416821">
        <ele>409.611</ele>
        <time>2021-05-28T22:53:22Z</time>
      </trkpt>
      <trkpt lat="42.600802" lon="2.416826">
        <ele>409.508</ele>
        <time>2021-05-28T22:53:23Z</time>
      </trkpt>
      <trkpt lat="42.600822" lon="2.416831">
        <ele>409.318</ele>
        <time>2021-05-28T22:53:24Z</time>
      </trkpt>
      <trkpt lat="42.600845" lon="2.416837">
        <ele>409.135</ele>
        <time>2021-05-28T22:53:25Z</time>
      </trkpt>
      <trkpt lat="42.600866" lon="2.416841">
        <ele>408.946</ele>
        <time>2021-05-28T22:53:27Z</time>
      </trkpt>
      <trkpt lat="42.600889" lon="2.416844">
        <ele>408.845</ele>
        <time>2021-05-28T22:53:28Z</time>
      </trkpt>
      <trkpt lat="42.600931" lon="2.416850">
        <ele>408.492</ele>
        <time>2021-05-28T22:53:29Z</time>
      </trkpt>
      <trkpt lat="42.600951" lon="2.416852">
        <ele>408.357</ele>
        <time>2021-05-28T22:53:30Z</time>
      </trkpt>
      <trkpt lat="42.600971" lon="2.416854">
        <ele>408.194</ele>
        <time>2021-05-28T22:53:31Z</time>
      </trkpt>
      <trkpt lat="42.600990" lon="2.416854">
        <ele>408.032</ele>
        <time>2021-05-28T22:53:32Z</time>
      </trkpt>
      <trkpt lat="42.601035" lon="2.416862">
        <ele>407.726</ele>
        <time>2021-05-28T22:53:34Z</time>
      </trkpt>
      <trkpt lat="42.601061" lon="2.416863">
        <ele>407.547</ele>
        <time>2021-05-28T22:53:35Z</time>
      </trkpt>
      <trkpt lat="42.601112" lon="2.416866">
        <ele>407.111</ele>
        <time>2021-05-28T22:53:37Z</time>
      </trkpt>
      <trkpt lat="42.601134" lon="2.416867">
        <ele>407.008</ele>
        <time>2021-05-28T22:53:38Z</time>
      </trkpt>
      <trkpt lat="42.601187" lon="2.416869">
        <ele>406.769</ele>
        <time>2021-05-28T22:53:40Z</time>
      </trkpt>
      <trkpt lat="42.601234" lon="2.416871">
        <ele>406.456</ele>
        <time>2021-05-28T22:53:42Z</time>
      </trkpt>
      <trkpt lat="42.601259" lon="2.416869">
        <ele>406.357</ele>
        <time>2021-05-28T22:53:43Z</time>
      </trkpt>
      <trkpt lat="42.601284" lon="2.416867">
        <ele>406.296</ele>
        <time>2021-05-28T22:53:45Z</time>
      </trkpt>
      <trkpt lat="42.601309" lon="2.416867">
        <ele>406.113</ele>
        <time>2021-05-28T22:53:46Z</time>
      </trkpt>
      <trkpt lat="42.601332" lon="2.416866">
        <ele>406.038</ele>
        <time>2021-05-28T22:53:47Z</time>
      </trkpt>
      <trkpt lat="42.601354" lon="2.416861">
        <ele>406.095</ele>
        <time>2021-05-28T22:53:48Z</time>
      </trkpt>
      <trkpt lat="42.601374" lon="2.416855">
        <ele>406.093</ele>
        <time>2021-05-28T22:53:49Z</time>
      </trkpt>
      <trkpt lat="42.601392" lon="2.416849">
        <ele>406.176</ele>
        <time>2021-05-28T22:53:50Z</time>
      </trkpt>
      <trkpt lat="42.601412" lon="2.416843">
        <ele>406.290</ele>
        <time>2021-05-28T22:53:51Z</time>
      </trkpt>
      <trkpt lat="42.601436" lon="2.416838">
        <ele>406.319</ele>
        <time>2021-05-28T22:53:52Z</time>
      </trkpt>
      <trkpt lat="42.601457" lon="2.416833">
        <ele>406.408</ele>
        <time>2021-05-28T22:53:53Z</time>
      </trkpt>
      <trkpt lat="42.601479" lon="2.416829">
        <ele>406.594</ele>
        <time>2021-05-28T22:53:54Z</time>
      </trkpt>
      <trkpt lat="42.601521" lon="2.416819">
        <ele>406.791</ele>
        <time>2021-05-28T22:53:55Z</time>
      </trkpt>
      <trkpt lat="42.601540" lon="2.416815">
        <ele>406.882</ele>
        <time>2021-05-28T22:53:56Z</time>
      </trkpt>
      <trkpt lat="42.601565" lon="2.416809">
        <ele>406.991</ele>
        <time>2021-05-28T22:53:57Z</time>
      </trkpt>
      <trkpt lat="42.601590" lon="2.416802">
        <ele>407.188</ele>
        <time>2021-05-28T22:53:58Z</time>
      </trkpt>
      <trkpt lat="42.601615" lon="2.416794">
        <ele>407.213</ele>
        <time>2021-05-28T22:53:59Z</time>
      </trkpt>
      <trkpt lat="42.601635" lon="2.416785">
        <ele>407.470</ele>
        <time>2021-05-28T22:54:00Z</time>
      </trkpt>
      <trkpt lat="42.601657" lon="2.416776">
        <ele>407.638</ele>
        <time>2021-05-28T22:54:01Z</time>
      </trkpt>
      <trkpt lat="42.601705" lon="2.416763">
        <ele>407.631</ele>
        <time>2021-05-28T22:54:03Z</time>
      </trkpt>
      <trkpt lat="42.601725" lon="2.416758">
        <ele>407.661</ele>
        <time>2021-05-28T22:54:05Z</time>
      </trkpt>
      <trkpt lat="42.601748" lon="2.416753">
        <ele>407.607</ele>
        <time>2021-05-28T22:54:06Z</time>
      </trkpt>
      <trkpt lat="42.601771" lon="2.416749">
        <ele>407.508</ele>
        <time>2021-05-28T22:54:07Z</time>
      </trkpt>
      <trkpt lat="42.601796" lon="2.416746">
        <ele>407.450</ele>
        <time>2021-05-28T22:54:08Z</time>
      </trkpt>
      <trkpt lat="42.601817" lon="2.416742">
        <ele>407.377</ele>
        <time>2021-05-28T22:54:09Z</time>
      </trkpt>
      <trkpt lat="42.601857" lon="2.416729">
        <ele>407.338</ele>
        <time>2021-05-28T22:54:10Z</time>
      </trkpt>
      <trkpt lat="42.601877" lon="2.416722">
        <ele>407.327</ele>
        <time>2021-05-28T22:54:11Z</time>
      </trkpt>
      <trkpt lat="42.601896" lon="2.416716">
        <ele>407.344</ele>
        <time>2021-05-28T22:54:12Z</time>
      </trkpt>
      <trkpt lat="42.601917" lon="2.416710">
        <ele>407.389</ele>
        <time>2021-05-28T22:54:13Z</time>
      </trkpt>
      <trkpt lat="42.601937" lon="2.416702">
        <ele>407.316</ele>
        <time>2021-05-28T22:54:15Z</time>
      </trkpt>
      <trkpt lat="42.601959" lon="2.416694">
        <ele>407.254</ele>
        <time>2021-05-28T22:54:16Z</time>
      </trkpt>
      <trkpt lat="42.601982" lon="2.416684">
        <ele>407.035</ele>
        <time>2021-05-28T22:54:17Z</time>
      </trkpt>
      <trkpt lat="42.602027" lon="2.416667">
        <ele>406.586</ele>
        <time>2021-05-28T22:54:18Z</time>
      </trkpt>
      <trkpt lat="42.602048" lon="2.416660">
        <ele>406.214</ele>
        <time>2021-05-28T22:54:20Z</time>
      </trkpt>
      <trkpt lat="42.602087" lon="2.416636">
        <ele>405.908</ele>
        <time>2021-05-28T22:54:21Z</time>
      </trkpt>
      <trkpt lat="42.602125" lon="2.416609">
        <ele>405.820</ele>
        <time>2021-05-28T22:54:23Z</time>
      </trkpt>
      <trkpt lat="42.602144" lon="2.416596">
        <ele>405.747</ele>
        <time>2021-05-28T22:54:24Z</time>
      </trkpt>
      <trkpt lat="42.602178" lon="2.416570">
        <ele>405.798</ele>
        <time>2021-05-28T22:54:26Z</time>
      </trkpt>
      <trkpt lat="42.602197" lon="2.416555">
        <ele>405.887</ele>
        <time>2021-05-28T22:54:27Z</time>
      </trkpt>
      <trkpt lat="42.602215" lon="2.416538">
        <ele>405.934</ele>
        <time>2021-05-28T22:54:28Z</time>
      </trkpt>
      <trkpt lat="42.602232" lon="2.416521">
        <ele>405.969</ele>
        <time>2021-05-28T22:54:30Z</time>
      </trkpt>
      <trkpt lat="42.602268" lon="2.416490">
        <ele>405.876</ele>
        <time>2021-05-28T22:54:31Z</time>
      </trkpt>
      <trkpt lat="42.602285" lon="2.416471">
        <ele>405.874</ele>
        <time>2021-05-28T22:54:32Z</time>
      </trkpt>
      <trkpt lat="42.602301" lon="2.416453">
        <ele>405.862</ele>
        <time>2021-05-28T22:54:33Z</time>
      </trkpt>
      <trkpt lat="42.602317" lon="2.416436">
        <ele>405.783</ele>
        <time>2021-05-28T22:54:34Z</time>
      </trkpt>
      <trkpt lat="42.602331" lon="2.416416">
        <ele>405.811</ele>
        <time>2021-05-28T22:54:35Z</time>
      </trkpt>
      <trkpt lat="42.602347" lon="2.416397">
        <ele>405.708</ele>
        <time>2021-05-28T22:54:36Z</time>
      </trkpt>
      <trkpt lat="42.602363" lon="2.416376">
        <ele>405.763</ele>
        <time>2021-05-28T22:54:37Z</time>
      </trkpt>
      <trkpt lat="42.602379" lon="2.416362">
        <ele>405.570</ele>
        <time>2021-05-28T22:54:38Z</time>
      </trkpt>
      <trkpt lat="42.602396" lon="2.416346">
        <ele>405.471</ele>
        <time>2021-05-28T22:54:39Z</time>
      </trkpt>
      <trkpt lat="42.602434" lon="2.416318">
        <ele>405.120</ele>
        <time>2021-05-28T22:54:41Z</time>
      </trkpt>
      <trkpt lat="42.602456" lon="2.416304">
        <ele>405.097</ele>
        <time>2021-05-28T22:54:43Z</time>
      </trkpt>
      <trkpt lat="42.602497" lon="2.416276">
        <ele>404.912</ele>
        <time>2021-05-28T22:54:44Z</time>
      </trkpt>
      <trkpt lat="42.602515" lon="2.416262">
        <ele>404.969</ele>
        <time>2021-05-28T22:54:45Z</time>
      </trkpt>
      <trkpt lat="42.602549" lon="2.416237">
        <ele>404.837</ele>
        <time>2021-05-28T22:54:47Z</time>
      </trkpt>
      <trkpt lat="42.602584" lon="2.416212">
        <ele>404.672</ele>
        <time>2021-05-28T22:54:49Z</time>
      </trkpt>
      <trkpt lat="42.602604" lon="2.416199">
        <ele>404.413</ele>
        <time>2021-05-28T22:54:50Z</time>
      </trkpt>
      <trkpt lat="42.602623" lon="2.416190">
        <ele>404.114</ele>
        <time>2021-05-28T22:54:51Z</time>
      </trkpt>
      <trkpt lat="42.602641" lon="2.416180">
        <ele>403.808</ele>
        <time>2021-05-28T22:54:52Z</time>
      </trkpt>
      <trkpt lat="42.602658" lon="2.416168">
        <ele>403.654</ele>
        <time>2021-05-28T22:54:53Z</time>
      </trkpt>
      <trkpt lat="42.602677" lon="2.416155">
        <ele>403.341</ele>
        <time>2021-05-28T22:54:54Z</time>
      </trkpt>
      <trkpt lat="42.602696" lon="2.416144">
        <ele>402.992</ele>
        <time>2021-05-28T22:54:55Z</time>
      </trkpt>
      <trkpt lat="42.602714" lon="2.416134">
        <ele>402.661</ele>
        <time>2021-05-28T22:54:56Z</time>
      </trkpt>
      <trkpt lat="42.602734" lon="2.416124">
        <ele>402.148</ele>
        <time>2021-05-28T22:54:57Z</time>
      </trkpt>
      <trkpt lat="42.602754" lon="2.416116">
        <ele>401.693</ele>
        <time>2021-05-28T22:54:58Z</time>
      </trkpt>
      <trkpt lat="42.602792" lon="2.416110">
        <ele>400.940</ele>
        <time>2021-05-28T22:55:01Z</time>
      </trkpt>
      <trkpt lat="42.602830" lon="2.416102">
        <ele>400.738</ele>
        <time>2021-05-28T22:55:02Z</time>
      </trkpt>
      <trkpt lat="42.602856" lon="2.416096">
        <ele>400.632</ele>
        <time>2021-05-28T22:55:03Z</time>
      </trkpt>
      <trkpt lat="42.602890" lon="2.416081">
        <ele>400.592</ele>
        <time>2021-05-28T22:55:05Z</time>
      </trkpt>
      <trkpt lat="42.602924" lon="2.416080">
        <ele>400.211</ele>
        <time>2021-05-28T22:55:07Z</time>
      </trkpt>
      <trkpt lat="42.602950" lon="2.416075">
        <ele>400.108</ele>
        <time>2021-05-28T22:55:09Z</time>
      </trkpt>
      <trkpt lat="42.602979" lon="2.416066">
        <ele>399.950</ele>
        <time>2021-05-28T22:55:11Z</time>
      </trkpt>
      <trkpt lat="42.603008" lon="2.416058">
        <ele>399.817</ele>
        <time>2021-05-28T22:55:13Z</time>
      </trkpt>
      <trkpt lat="42.603040" lon="2.416053">
        <ele>399.538</ele>
        <time>2021-05-28T22:55:15Z</time>
      </trkpt>
      <trkpt lat="42.603070" lon="2.416042">
        <ele>399.567</ele>
        <time>2021-05-28T22:55:17Z</time>
      </trkpt>
      <trkpt lat="42.603107" lon="2.416037">
        <ele>399.514</ele>
        <time>2021-05-28T22:55:19Z</time>
      </trkpt>
      <trkpt lat="42.603136" lon="2.416030">
        <ele>399.649</ele>
        <time>2021-05-28T22:55:22Z</time>
      </trkpt>
      <trkpt lat="42.603169" lon="2.416030">
        <ele>399.656</ele>
        <time>2021-05-28T22:55:23Z</time>
      </trkpt>
      <trkpt lat="42.603196" lon="2.416038">
        <ele>399.544</ele>
        <time>2021-05-28T22:55:25Z</time>
      </trkpt>
      <trkpt lat="42.603214" lon="2.416045">
        <ele>399.549</ele>
        <time>2021-05-28T22:55:26Z</time>
      </trkpt>
      <trkpt lat="42.603246" lon="2.416058">
        <ele>399.402</ele>
        <time>2021-05-28T22:55:29Z</time>
      </trkpt>
      <trkpt lat="42.603279" lon="2.416072">
        <ele>399.322</ele>
        <time>2021-05-28T22:55:30Z</time>
      </trkpt>
      <trkpt lat="42.603316" lon="2.416081">
        <ele>399.208</ele>
        <time>2021-05-28T22:55:33Z</time>
      </trkpt>
      <trkpt lat="42.603339" lon="2.416090">
        <ele>399.291</ele>
        <time>2021-05-28T22:55:34Z</time>
      </trkpt>
      <trkpt lat="42.603361" lon="2.416102">
        <ele>399.278</ele>
        <time>2021-05-28T22:55:35Z</time>
      </trkpt>
      <trkpt lat="42.603378" lon="2.416113">
        <ele>399.129</ele>
        <time>2021-05-28T22:55:36Z</time>
      </trkpt>
      <trkpt lat="42.603410" lon="2.416138">
        <ele>399.078</ele>
        <time>2021-05-28T22:55:37Z</time>
      </trkpt>
      <trkpt lat="42.603442" lon="2.416160">
        <ele>398.895</ele>
        <time>2021-05-28T22:55:39Z</time>
      </trkpt>
      <trkpt lat="42.603463" lon="2.416168">
        <ele>398.840</ele>
        <time>2021-05-28T22:55:41Z</time>
      </trkpt>
      <trkpt lat="42.603500" lon="2.416183">
        <ele>398.747</ele>
        <time>2021-05-28T22:55:42Z</time>
      </trkpt>
      <trkpt lat="42.603519" lon="2.416191">
        <ele>398.615</ele>
        <time>2021-05-28T22:55:43Z</time>
      </trkpt>
      <trkpt lat="42.603546" lon="2.416210">
        <ele>398.469</ele>
        <time>2021-05-28T22:55:45Z</time>
      </trkpt>
      <trkpt lat="42.603576" lon="2.416222">
        <ele>398.304</ele>
        <time>2021-05-28T22:55:47Z</time>
      </trkpt>
      <trkpt lat="42.603594" lon="2.416225">
        <ele>398.324</ele>
        <time>2021-05-28T22:55:49Z</time>
      </trkpt>
      <trkpt lat="42.603623" lon="2.416233">
        <ele>398.208</ele>
        <time>2021-05-28T22:55:50Z</time>
      </trkpt>
      <trkpt lat="42.603665" lon="2.416241">
        <ele>397.813</ele>
        <time>2021-05-28T22:55:53Z</time>
      </trkpt>
      <trkpt lat="42.603685" lon="2.416250">
        <ele>397.630</ele>
        <time>2021-05-28T22:55:54Z</time>
      </trkpt>
      <trkpt lat="42.603702" lon="2.416254">
        <ele>397.421</ele>
        <time>2021-05-28T22:55:55Z</time>
      </trkpt>
      <trkpt lat="42.603723" lon="2.416260">
        <ele>397.290</ele>
        <time>2021-05-28T22:55:56Z</time>
      </trkpt>
      <trkpt lat="42.603759" lon="2.416261">
        <ele>397.047</ele>
        <time>2021-05-28T22:55:57Z</time>
      </trkpt>
      <trkpt lat="42.603796" lon="2.416268">
        <ele>396.752</ele>
        <time>2021-05-28T22:55:59Z</time>
      </trkpt>
      <trkpt lat="42.603816" lon="2.416273">
        <ele>396.549</ele>
        <time>2021-05-28T22:56:00Z</time>
      </trkpt>
      <trkpt lat="42.603835" lon="2.416277">
        <ele>396.327</ele>
        <time>2021-05-28T22:56:01Z</time>
      </trkpt>
      <trkpt lat="42.603868" lon="2.416289">
        <ele>395.961</ele>
        <time>2021-05-28T22:56:03Z</time>
      </trkpt>
      <trkpt lat="42.603885" lon="2.416297">
        <ele>395.721</ele>
        <time>2021-05-28T22:56:04Z</time>
      </trkpt>
      <trkpt lat="42.603905" lon="2.416300">
        <ele>395.513</ele>
        <time>2021-05-28T22:56:05Z</time>
      </trkpt>
      <trkpt lat="42.603938" lon="2.416309">
        <ele>395.008</ele>
        <time>2021-05-28T22:56:07Z</time>
      </trkpt>
      <trkpt lat="42.603955" lon="2.416319">
        <ele>394.713</ele>
        <time>2021-05-28T22:56:08Z</time>
      </trkpt>
      <trkpt lat="42.603972" lon="2.416332">
        <ele>394.440</ele>
        <time>2021-05-28T22:56:09Z</time>
      </trkpt>
      <trkpt lat="42.603990" lon="2.416342">
        <ele>394.161</ele>
        <time>2021-05-28T22:56:10Z</time>
      </trkpt>
      <trkpt lat="42.604008" lon="2.416357">
        <ele>393.730</ele>
        <time>2021-05-28T22:56:11Z</time>
      </trkpt>
      <trkpt lat="42.604028" lon="2.416371">
        <ele>393.367</ele>
        <time>2021-05-28T22:56:12Z</time>
      </trkpt>
      <trkpt lat="42.604046" lon="2.416387">
        <ele>392.952</ele>
        <time>2021-05-28T22:56:13Z</time>
      </trkpt>
      <trkpt lat="42.604067" lon="2.416399">
        <ele>392.649</ele>
        <time>2021-05-28T22:56:14Z</time>
      </trkpt>
      <trkpt lat="42.604115" lon="2.416441">
        <ele>391.997</ele>
        <time>2021-05-28T22:56:17Z</time>
      </trkpt>
      <trkpt lat="42.604138" lon="2.416454">
        <ele>391.789</ele>
        <time>2021-05-28T22:56:18Z</time>
      </trkpt>
      <trkpt lat="42.604158" lon="2.416466">
        <ele>391.506</ele>
        <time>2021-05-28T22:56:19Z</time>
      </trkpt>
      <trkpt lat="42.604179" lon="2.416482">
        <ele>391.226</ele>
        <time>2021-05-28T22:56:20Z</time>
      </trkpt>
      <trkpt lat="42.604197" lon="2.416499">
        <ele>390.908</ele>
        <time>2021-05-28T22:56:21Z</time>
      </trkpt>
      <trkpt lat="42.604215" lon="2.416520">
        <ele>390.765</ele>
        <time>2021-05-28T22:56:22Z</time>
      </trkpt>
      <trkpt lat="42.604231" lon="2.416537">
        <ele>390.542</ele>
        <time>2021-05-28T22:56:23Z</time>
      </trkpt>
      <trkpt lat="42.604251" lon="2.416552">
        <ele>390.373</ele>
        <time>2021-05-28T22:56:24Z</time>
      </trkpt>
      <trkpt lat="42.604268" lon="2.416568">
        <ele>390.242</ele>
        <time>2021-05-28T22:56:25Z</time>
      </trkpt>
      <trkpt lat="42.604283" lon="2.416586">
        <ele>390.129</ele>
        <time>2021-05-28T22:56:26Z</time>
      </trkpt>
      <trkpt lat="42.604298" lon="2.416603">
        <ele>390.094</ele>
        <time>2021-05-28T22:56:27Z</time>
      </trkpt>
      <trkpt lat="42.604313" lon="2.416624">
        <ele>390.081</ele>
        <time>2021-05-28T22:56:28Z</time>
      </trkpt>
      <trkpt lat="42.604330" lon="2.416642">
        <ele>390.039</ele>
        <time>2021-05-28T22:56:29Z</time>
      </trkpt>
      <trkpt lat="42.604346" lon="2.416657">
        <ele>390.047</ele>
        <time>2021-05-28T22:56:30Z</time>
      </trkpt>
      <trkpt lat="42.604361" lon="2.416675">
        <ele>390.029</ele>
        <time>2021-05-28T22:56:31Z</time>
      </trkpt>
      <trkpt lat="42.604374" lon="2.416695">
        <ele>390.221</ele>
        <time>2021-05-28T22:56:32Z</time>
      </trkpt>
      <trkpt lat="42.604389" lon="2.416713">
        <ele>390.308</ele>
        <time>2021-05-28T22:56:33Z</time>
      </trkpt>
      <trkpt lat="42.604403" lon="2.416731">
        <ele>390.451</ele>
        <time>2021-05-28T22:56:34Z</time>
      </trkpt>
      <trkpt lat="42.604419" lon="2.416748">
        <ele>390.598</ele>
        <time>2021-05-28T22:56:36Z</time>
      </trkpt>
      <trkpt lat="42.604450" lon="2.416772">
        <ele>390.849</ele>
        <time>2021-05-28T22:56:38Z</time>
      </trkpt>
      <trkpt lat="42.604469" lon="2.416805">
        <ele>391.398</ele>
        <time>2021-05-28T22:56:40Z</time>
      </trkpt>
      <trkpt lat="42.604483" lon="2.416821">
        <ele>391.745</ele>
        <time>2021-05-28T22:56:41Z</time>
      </trkpt>
      <trkpt lat="42.604500" lon="2.416839">
        <ele>392.180</ele>
        <time>2021-05-28T22:56:42Z</time>
      </trkpt>
      <trkpt lat="42.604530" lon="2.416871">
        <ele>393.047</ele>
        <time>2021-05-28T22:56:43Z</time>
      </trkpt>
      <trkpt lat="42.604543" lon="2.416888">
        <ele>393.475</ele>
        <time>2021-05-28T22:56:44Z</time>
      </trkpt>
      <trkpt lat="42.604558" lon="2.416908">
        <ele>394.019</ele>
        <time>2021-05-28T22:56:45Z</time>
      </trkpt>
      <trkpt lat="42.604574" lon="2.416931">
        <ele>394.609</ele>
        <time>2021-05-28T22:56:46Z</time>
      </trkpt>
      <trkpt lat="42.604590" lon="2.416949">
        <ele>395.219</ele>
        <time>2021-05-28T22:56:47Z</time>
      </trkpt>
      <trkpt lat="42.604616" lon="2.416959">
        <ele>395.908</ele>
        <time>2021-05-28T22:56:48Z</time>
      </trkpt>
      <trkpt lat="42.604633" lon="2.416973">
        <ele>396.588</ele>
        <time>2021-05-28T22:56:49Z</time>
      </trkpt>
      <trkpt lat="42.604649" lon="2.416988">
        <ele>397.085</ele>
        <time>2021-05-28T22:56:50Z</time>
      </trkpt>
      <trkpt lat="42.604665" lon="2.417005">
        <ele>397.686</ele>
        <time>2021-05-28T22:56:51Z</time>
      </trkpt>
      <trkpt lat="42.604679" lon="2.417021">
        <ele>398.245</ele>
        <time>2021-05-28T22:56:52Z</time>
      </trkpt>
      <trkpt lat="42.604710" lon="2.417055">
        <ele>399.352</ele>
        <time>2021-05-28T22:56:54Z</time>
      </trkpt>
      <trkpt lat="42.604726" lon="2.417071">
        <ele>399.717</ele>
        <time>2021-05-28T22:56:55Z</time>
      </trkpt>
      <trkpt lat="42.604759" lon="2.417101">
        <ele>399.594</ele>
        <time>2021-05-28T22:56:57Z</time>
      </trkpt>
      <trkpt lat="42.604774" lon="2.417116">
        <ele>399.432</ele>
        <time>2021-05-28T22:56:58Z</time>
      </trkpt>
      <trkpt lat="42.604790" lon="2.417130">
        <ele>399.346</ele>
        <time>2021-05-28T22:57:00Z</time>
      </trkpt>
      <trkpt lat="42.604821" lon="2.417160">
        <ele>399.288</ele>
        <time>2021-05-28T22:57:01Z</time>
      </trkpt>
      <trkpt lat="42.604838" lon="2.417176">
        <ele>399.116</ele>
        <time>2021-05-28T22:57:02Z</time>
      </trkpt>
      <trkpt lat="42.604869" lon="2.417200">
        <ele>399.008</ele>
        <time>2021-05-28T22:57:04Z</time>
      </trkpt>
      <trkpt lat="42.604884" lon="2.417213">
        <ele>398.931</ele>
        <time>2021-05-28T22:57:05Z</time>
      </trkpt>
      <trkpt lat="42.604903" lon="2.417223">
        <ele>398.888</ele>
        <time>2021-05-28T22:57:06Z</time>
      </trkpt>
      <trkpt lat="42.604921" lon="2.417231">
        <ele>398.679</ele>
        <time>2021-05-28T22:57:07Z</time>
      </trkpt>
      <trkpt lat="42.604939" lon="2.417240">
        <ele>398.578</ele>
        <time>2021-05-28T22:57:08Z</time>
      </trkpt>
      <trkpt lat="42.604971" lon="2.417258">
        <ele>398.345</ele>
        <time>2021-05-28T22:57:10Z</time>
      </trkpt>
      <trkpt lat="42.604989" lon="2.417265">
        <ele>398.150</ele>
        <time>2021-05-28T22:57:11Z</time>
      </trkpt>
      <trkpt lat="42.605006" lon="2.417276">
        <ele>398.137</ele>
        <time>2021-05-28T22:57:12Z</time>
      </trkpt>
      <trkpt lat="42.605025" lon="2.417286">
        <ele>398.125</ele>
        <time>2021-05-28T22:57:14Z</time>
      </trkpt>
      <trkpt lat="42.605048" lon="2.417295">
        <ele>398.071</ele>
        <time>2021-05-28T22:57:15Z</time>
      </trkpt>
      <trkpt lat="42.605070" lon="2.417300">
        <ele>397.941</ele>
        <time>2021-05-28T22:57:16Z</time>
      </trkpt>
      <trkpt lat="42.605088" lon="2.417304">
        <ele>397.815</ele>
        <time>2021-05-28T22:57:17Z</time>
      </trkpt>
      <trkpt lat="42.605140" lon="2.417319">
        <ele>397.608</ele>
        <time>2021-05-28T22:57:19Z</time>
      </trkpt>
      <trkpt lat="42.605160" lon="2.417321">
        <ele>397.464</ele>
        <time>2021-05-28T22:57:20Z</time>
      </trkpt>
      <trkpt lat="42.605178" lon="2.417323">
        <ele>397.351</ele>
        <time>2021-05-28T22:57:21Z</time>
      </trkpt>
      <trkpt lat="42.605199" lon="2.417326">
        <ele>397.232</ele>
        <time>2021-05-28T22:57:22Z</time>
      </trkpt>
      <trkpt lat="42.605218" lon="2.417325">
        <ele>397.071</ele>
        <time>2021-05-28T22:57:23Z</time>
      </trkpt>
      <trkpt lat="42.605255" lon="2.417320">
        <ele>396.498</ele>
        <time>2021-05-28T22:57:25Z</time>
      </trkpt>
      <trkpt lat="42.605274" lon="2.417321">
        <ele>396.223</ele>
        <time>2021-05-28T22:57:26Z</time>
      </trkpt>
      <trkpt lat="42.605304" lon="2.417320">
        <ele>396.530</ele>
        <time>2021-05-28T22:57:28Z</time>
      </trkpt>
      <trkpt lat="42.605337" lon="2.417315">
        <ele>396.918</ele>
        <time>2021-05-28T22:57:30Z</time>
      </trkpt>
      <trkpt lat="42.605357" lon="2.417313">
        <ele>397.111</ele>
        <time>2021-05-28T22:57:31Z</time>
      </trkpt>
      <trkpt lat="42.605394" lon="2.417311">
        <ele>397.621</ele>
        <time>2021-05-28T22:57:33Z</time>
      </trkpt>
      <trkpt lat="42.605436" lon="2.417308">
        <ele>398.103</ele>
        <time>2021-05-28T22:57:35Z</time>
      </trkpt>
      <trkpt lat="42.605477" lon="2.417302">
        <ele>398.608</ele>
        <time>2021-05-28T22:57:37Z</time>
      </trkpt>
      <trkpt lat="42.605496" lon="2.417299">
        <ele>398.818</ele>
        <time>2021-05-28T22:57:38Z</time>
      </trkpt>
      <trkpt lat="42.605527" lon="2.417290">
        <ele>399.055</ele>
        <time>2021-05-28T22:57:40Z</time>
      </trkpt>
      <trkpt lat="42.605562" lon="2.417285">
        <ele>399.486</ele>
        <time>2021-05-28T22:57:42Z</time>
      </trkpt>
      <trkpt lat="42.605582" lon="2.417287">
        <ele>399.585</ele>
        <time>2021-05-28T22:57:43Z</time>
      </trkpt>
      <trkpt lat="42.605615" lon="2.417286">
        <ele>399.652</ele>
        <time>2021-05-28T22:57:45Z</time>
      </trkpt>
      <trkpt lat="42.605649" lon="2.417282">
        <ele>399.727</ele>
        <time>2021-05-28T22:57:47Z</time>
      </trkpt>
      <trkpt lat="42.605686" lon="2.417276">
        <ele>399.724</ele>
        <time>2021-05-28T22:57:49Z</time>
      </trkpt>
      <trkpt lat="42.605707" lon="2.417275">
        <ele>399.822</ele>
        <time>2021-05-28T22:57:50Z</time>
      </trkpt>
      <trkpt lat="42.605727" lon="2.417277">
        <ele>399.945</ele>
        <time>2021-05-28T22:57:52Z</time>
      </trkpt>
      <trkpt lat="42.605759" lon="2.417278">
        <ele>400.147</ele>
        <time>2021-05-28T22:57:53Z</time>
      </trkpt>
      <trkpt lat="42.605797" lon="2.417278">
        <ele>400.211</ele>
        <time>2021-05-28T22:57:55Z</time>
      </trkpt>
      <trkpt lat="42.605816" lon="2.417280">
        <ele>400.408</ele>
        <time>2021-05-28T22:57:56Z</time>
      </trkpt>
      <trkpt lat="42.605834" lon="2.417281">
        <ele>400.571</ele>
        <time>2021-05-28T22:57:57Z</time>
      </trkpt>
      <trkpt lat="42.605871" lon="2.417281">
        <ele>400.518</ele>
        <time>2021-05-28T22:57:59Z</time>
      </trkpt>
      <trkpt lat="42.605890" lon="2.417283">
        <ele>400.539</ele>
        <time>2021-05-28T22:58:00Z</time>
      </trkpt>
      <trkpt lat="42.605910" lon="2.417289">
        <ele>400.648</ele>
        <time>2021-05-28T22:58:02Z</time>
      </trkpt>
      <trkpt lat="42.605942" lon="2.417290">
        <ele>400.655</ele>
        <time>2021-05-28T22:58:04Z</time>
      </trkpt>
      <trkpt lat="42.605976" lon="2.417281">
        <ele>400.450</ele>
        <time>2021-05-28T22:58:06Z</time>
      </trkpt>
      <trkpt lat="42.606030" lon="2.417285">
        <ele>400.477</ele>
        <time>2021-05-28T22:58:08Z</time>
      </trkpt>
      <trkpt lat="42.606052" lon="2.417281">
        <ele>400.315</ele>
        <time>2021-05-28T22:58:09Z</time>
      </trkpt>
      <trkpt lat="42.606095" lon="2.417277">
        <ele>400.211</ele>
        <time>2021-05-28T22:58:11Z</time>
      </trkpt>
      <trkpt lat="42.606115" lon="2.417277">
        <ele>400.221</ele>
        <time>2021-05-28T22:58:13Z</time>
      </trkpt>
      <trkpt lat="42.606134" lon="2.417280">
        <ele>400.203</ele>
        <time>2021-05-28T22:58:14Z</time>
      </trkpt>
      <trkpt lat="42.606153" lon="2.417284">
        <ele>400.308</ele>
        <time>2021-05-28T22:58:15Z</time>
      </trkpt>
      <trkpt lat="42.606173" lon="2.417285">
        <ele>400.358</ele>
        <time>2021-05-28T22:58:16Z</time>
      </trkpt>
      <trkpt lat="42.606219" lon="2.417294">
        <ele>400.465</ele>
        <time>2021-05-28T22:58:17Z</time>
      </trkpt>
      <trkpt lat="42.606239" lon="2.417294">
        <ele>400.436</ele>
        <time>2021-05-28T22:58:18Z</time>
      </trkpt>
      <trkpt lat="42.606257" lon="2.417296">
        <ele>400.555</ele>
        <time>2021-05-28T22:58:19Z</time>
      </trkpt>
      <trkpt lat="42.606277" lon="2.417300">
        <ele>400.562</ele>
        <time>2021-05-28T22:58:20Z</time>
      </trkpt>
      <trkpt lat="42.606296" lon="2.417302">
        <ele>400.597</ele>
        <time>2021-05-28T22:58:21Z</time>
      </trkpt>
      <trkpt lat="42.606316" lon="2.417302">
        <ele>400.554</ele>
        <time>2021-05-28T22:58:22Z</time>
      </trkpt>
      <trkpt lat="42.606336" lon="2.417304">
        <ele>400.582</ele>
        <time>2021-05-28T22:58:23Z</time>
      </trkpt>
      <trkpt lat="42.606367" lon="2.417300">
        <ele>400.476</ele>
        <time>2021-05-28T22:58:25Z</time>
      </trkpt>
      <trkpt lat="42.606401" lon="2.417308">
        <ele>400.590</ele>
        <time>2021-05-28T22:58:27Z</time>
      </trkpt>
      <trkpt lat="42.606435" lon="2.417312">
        <ele>400.419</ele>
        <time>2021-05-28T22:58:29Z</time>
      </trkpt>
      <trkpt lat="42.606469" lon="2.417313">
        <ele>400.308</ele>
        <time>2021-05-28T22:58:32Z</time>
      </trkpt>
      <trkpt lat="42.606499" lon="2.417310">
        <ele>400.224</ele>
        <time>2021-05-28T22:58:34Z</time>
      </trkpt>
      <trkpt lat="42.606530" lon="2.417314">
        <ele>400.141</ele>
        <time>2021-05-28T22:58:35Z</time>
      </trkpt>
      <trkpt lat="42.606559" lon="2.417317">
        <ele>400.192</ele>
        <time>2021-05-28T22:58:37Z</time>
      </trkpt>
      <trkpt lat="42.606590" lon="2.417319">
        <ele>400.081</ele>
        <time>2021-05-28T22:58:39Z</time>
      </trkpt>
      <trkpt lat="42.606623" lon="2.417325">
        <ele>400.048</ele>
        <time>2021-05-28T22:58:41Z</time>
      </trkpt>
      <trkpt lat="42.606652" lon="2.417324">
        <ele>399.963</ele>
        <time>2021-05-28T22:58:43Z</time>
      </trkpt>
      <trkpt lat="42.606679" lon="2.417331">
        <ele>400.070</ele>
        <time>2021-05-28T22:58:45Z</time>
      </trkpt>
      <trkpt lat="42.606701" lon="2.417334">
        <ele>400.078</ele>
        <time>2021-05-28T22:58:48Z</time>
      </trkpt>
      <trkpt lat="42.606730" lon="2.417339">
        <ele>400.113</ele>
        <time>2021-05-28T22:58:49Z</time>
      </trkpt>
      <trkpt lat="42.606770" lon="2.417348">
        <ele>400.343</ele>
        <time>2021-05-28T22:58:51Z</time>
      </trkpt>
      <trkpt lat="42.606803" lon="2.417357">
        <ele>400.407</ele>
        <time>2021-05-28T22:58:53Z</time>
      </trkpt>
      <trkpt lat="42.606830" lon="2.417364">
        <ele>400.508</ele>
        <time>2021-05-28T22:58:55Z</time>
      </trkpt>
      <trkpt lat="42.606857" lon="2.417367">
        <ele>400.658</ele>
        <time>2021-05-28T22:58:57Z</time>
      </trkpt>
      <trkpt lat="42.606896" lon="2.417370">
        <ele>400.635</ele>
        <time>2021-05-28T22:58:59Z</time>
      </trkpt>
      <trkpt lat="42.606915" lon="2.417373">
        <ele>400.656</ele>
        <time>2021-05-28T22:59:00Z</time>
      </trkpt>
      <trkpt lat="42.606935" lon="2.417373">
        <ele>400.665</ele>
        <time>2021-05-28T22:59:01Z</time>
      </trkpt>
      <trkpt lat="42.606966" lon="2.417374">
        <ele>400.522</ele>
        <time>2021-05-28T22:59:03Z</time>
      </trkpt>
      <trkpt lat="42.606993" lon="2.417373">
        <ele>400.397</ele>
        <time>2021-05-28T22:59:05Z</time>
      </trkpt>
      <trkpt lat="42.607021" lon="2.417374">
        <ele>400.134</ele>
        <time>2021-05-28T22:59:07Z</time>
      </trkpt>
      <trkpt lat="42.607055" lon="2.417379">
        <ele>400.062</ele>
        <time>2021-05-28T22:59:09Z</time>
      </trkpt>
      <trkpt lat="42.607086" lon="2.417379">
        <ele>399.862</ele>
        <time>2021-05-28T22:59:12Z</time>
      </trkpt>
      <trkpt lat="42.607106" lon="2.417381">
        <ele>399.783</ele>
        <time>2021-05-28T22:59:13Z</time>
      </trkpt>
      <trkpt lat="42.607125" lon="2.417385">
        <ele>399.711</ele>
        <time>2021-05-28T22:59:14Z</time>
      </trkpt>
      <trkpt lat="42.607144" lon="2.417386">
        <ele>399.608</ele>
        <time>2021-05-28T22:59:15Z</time>
      </trkpt>
      <trkpt lat="42.607177" lon="2.417387">
        <ele>399.473</ele>
        <time>2021-05-28T22:59:17Z</time>
      </trkpt>
      <trkpt lat="42.607211" lon="2.417390">
        <ele>399.310</ele>
        <time>2021-05-28T22:59:19Z</time>
      </trkpt>
      <trkpt lat="42.607244" lon="2.417395">
        <ele>399.051</ele>
        <time>2021-05-28T22:59:20Z</time>
      </trkpt>
      <trkpt lat="42.607262" lon="2.417397">
        <ele>398.740</ele>
        <time>2021-05-28T22:59:22Z</time>
      </trkpt>
      <trkpt lat="42.607296" lon="2.417400">
        <ele>398.227</ele>
        <time>2021-05-28T22:59:23Z</time>
      </trkpt>
      <trkpt lat="42.607330" lon="2.417406">
        <ele>397.812</ele>
        <time>2021-05-28T22:59:25Z</time>
      </trkpt>
      <trkpt lat="42.607351" lon="2.417408">
        <ele>397.549</ele>
        <time>2021-05-28T22:59:26Z</time>
      </trkpt>
      <trkpt lat="42.607369" lon="2.417410">
        <ele>397.377</ele>
        <time>2021-05-28T22:59:27Z</time>
      </trkpt>
      <trkpt lat="42.607389" lon="2.417409">
        <ele>396.936</ele>
        <time>2021-05-28T22:59:28Z</time>
      </trkpt>
      <trkpt lat="42.607429" lon="2.417408">
        <ele>396.217</ele>
        <time>2021-05-28T22:59:30Z</time>
      </trkpt>
      <trkpt lat="42.607452" lon="2.417413">
        <ele>396.018</ele>
        <time>2021-05-28T22:59:31Z</time>
      </trkpt>
      <trkpt lat="42.607477" lon="2.417417">
        <ele>395.708</ele>
        <time>2021-05-28T22:59:32Z</time>
      </trkpt>
      <trkpt lat="42.607499" lon="2.417422">
        <ele>395.520</ele>
        <time>2021-05-28T22:59:33Z</time>
      </trkpt>
      <trkpt lat="42.607522" lon="2.417422">
        <ele>395.277</ele>
        <time>2021-05-28T22:59:34Z</time>
      </trkpt>
      <trkpt lat="42.607548" lon="2.417422">
        <ele>394.928</ele>
        <time>2021-05-28T22:59:35Z</time>
      </trkpt>
      <trkpt lat="42.607569" lon="2.417418">
        <ele>394.667</ele>
        <time>2021-05-28T22:59:36Z</time>
      </trkpt>
      <trkpt lat="42.607590" lon="2.417415">
        <ele>394.274</ele>
        <time>2021-05-28T22:59:37Z</time>
      </trkpt>
      <trkpt lat="42.607609" lon="2.417415">
        <ele>394.079</ele>
        <time>2021-05-28T22:59:38Z</time>
      </trkpt>
      <trkpt lat="42.607628" lon="2.417416">
        <ele>393.976</ele>
        <time>2021-05-28T22:59:39Z</time>
      </trkpt>
      <trkpt lat="42.607650" lon="2.417419">
        <ele>393.754</ele>
        <time>2021-05-28T22:59:40Z</time>
      </trkpt>
      <trkpt lat="42.607670" lon="2.417415">
        <ele>393.468</ele>
        <time>2021-05-28T22:59:41Z</time>
      </trkpt>
      <trkpt lat="42.607689" lon="2.417413">
        <ele>393.142</ele>
        <time>2021-05-28T22:59:42Z</time>
      </trkpt>
      <trkpt lat="42.607712" lon="2.417413">
        <ele>392.826</ele>
        <time>2021-05-28T22:59:43Z</time>
      </trkpt>
      <trkpt lat="42.607767" lon="2.417408">
        <ele>392.108</ele>
        <time>2021-05-28T22:59:46Z</time>
      </trkpt>
      <trkpt lat="42.607788" lon="2.417405">
        <ele>391.993</ele>
        <time>2021-05-28T22:59:47Z</time>
      </trkpt>
      <trkpt lat="42.607820" lon="2.417400">
        <ele>391.660</ele>
        <time>2021-05-28T22:59:49Z</time>
      </trkpt>
      <trkpt lat="42.607855" lon="2.417400">
        <ele>391.561</ele>
        <time>2021-05-28T22:59:51Z</time>
      </trkpt>
      <trkpt lat="42.607877" lon="2.417399">
        <ele>391.440</ele>
        <time>2021-05-28T22:59:52Z</time>
      </trkpt>
      <trkpt lat="42.607894" lon="2.417402">
        <ele>391.347</ele>
        <time>2021-05-28T22:59:53Z</time>
      </trkpt>
      <trkpt lat="42.607914" lon="2.417403">
        <ele>391.372</ele>
        <time>2021-05-28T22:59:54Z</time>
      </trkpt>
      <trkpt lat="42.607947" lon="2.417407">
        <ele>391.279</ele>
        <time>2021-05-28T22:59:56Z</time>
      </trkpt>
      <trkpt lat="42.607983" lon="2.417415">
        <ele>391.137</ele>
        <time>2021-05-28T22:59:58Z</time>
      </trkpt>
      <trkpt lat="42.608001" lon="2.417419">
        <ele>391.188</ele>
        <time>2021-05-28T22:59:59Z</time>
      </trkpt>
      <trkpt lat="42.608035" lon="2.417419">
        <ele>390.924</ele>
        <time>2021-05-28T23:00:02Z</time>
      </trkpt>
      <trkpt lat="42.608068" lon="2.417411">
        <ele>390.726</ele>
        <time>2021-05-28T23:00:04Z</time>
      </trkpt>
      <trkpt lat="42.608120" lon="2.417385">
        <ele>390.208</ele>
        <time>2021-05-28T23:00:06Z</time>
      </trkpt>
      <trkpt lat="42.608150" lon="2.417377">
        <ele>390.095</ele>
        <time>2021-05-28T23:00:09Z</time>
      </trkpt>
      <trkpt lat="42.608181" lon="2.417376">
        <ele>390.092</ele>
        <time>2021-05-28T23:00:10Z</time>
      </trkpt>
      <trkpt lat="42.608199" lon="2.417377">
        <ele>389.973</ele>
        <time>2021-05-28T23:00:11Z</time>
      </trkpt>
      <trkpt lat="42.608236" lon="2.417379">
        <ele>389.962</ele>
        <time>2021-05-28T23:00:13Z</time>
      </trkpt>
      <trkpt lat="42.608257" lon="2.417379">
        <ele>389.859</ele>
        <time>2021-05-28T23:00:14Z</time>
      </trkpt>
      <trkpt lat="42.608277" lon="2.417381">
        <ele>389.834</ele>
        <time>2021-05-28T23:00:15Z</time>
      </trkpt>
      <trkpt lat="42.608298" lon="2.417381">
        <ele>389.811</ele>
        <time>2021-05-28T23:00:16Z</time>
      </trkpt>
      <trkpt lat="42.608318" lon="2.417381">
        <ele>389.779</ele>
        <time>2021-05-28T23:00:17Z</time>
      </trkpt>
      <trkpt lat="42.608338" lon="2.417380">
        <ele>389.734</ele>
        <time>2021-05-28T23:00:18Z</time>
      </trkpt>
      <trkpt lat="42.608359" lon="2.417378">
        <ele>389.755</ele>
        <time>2021-05-28T23:00:19Z</time>
      </trkpt>
      <trkpt lat="42.608380" lon="2.417378">
        <ele>389.810</ele>
        <time>2021-05-28T23:00:20Z</time>
      </trkpt>
      <trkpt lat="42.608403" lon="2.417376">
        <ele>389.808</ele>
        <time>2021-05-28T23:00:21Z</time>
      </trkpt>
      <trkpt lat="42.608425" lon="2.417374">
        <ele>389.830</ele>
        <time>2021-05-28T23:00:22Z</time>
      </trkpt>
      <trkpt lat="42.608443" lon="2.417371">
        <ele>389.827</ele>
        <time>2021-05-28T23:00:23Z</time>
      </trkpt>
      <trkpt lat="42.608462" lon="2.417367">
        <ele>389.868</ele>
        <time>2021-05-28T23:00:24Z</time>
      </trkpt>
      <trkpt lat="42.608481" lon="2.417361">
        <ele>389.817</ele>
        <time>2021-05-28T23:00:25Z</time>
      </trkpt>
      <trkpt lat="42.608514" lon="2.417354">
        <ele>389.774</ele>
        <time>2021-05-28T23:00:27Z</time>
      </trkpt>
      <trkpt lat="42.608545" lon="2.417349">
        <ele>389.739</ele>
        <time>2021-05-28T23:00:29Z</time>
      </trkpt>
      <trkpt lat="42.608573" lon="2.417347">
        <ele>389.756</ele>
        <time>2021-05-28T23:00:31Z</time>
      </trkpt>
      <trkpt lat="42.608602" lon="2.417338">
        <ele>389.774</ele>
        <time>2021-05-28T23:00:33Z</time>
      </trkpt>
      <trkpt lat="42.608635" lon="2.417328">
        <ele>389.691</ele>
        <time>2021-05-28T23:00:35Z</time>
      </trkpt>
      <trkpt lat="42.608654" lon="2.417324">
        <ele>389.681</ele>
        <time>2021-05-28T23:00:36Z</time>
      </trkpt>
      <trkpt lat="42.608686" lon="2.417316">
        <ele>389.519</ele>
        <time>2021-05-28T23:00:38Z</time>
      </trkpt>
      <trkpt lat="42.608706" lon="2.417311">
        <ele>389.508</ele>
        <time>2021-05-28T23:00:39Z</time>
      </trkpt>
      <trkpt lat="42.608737" lon="2.417301">
        <ele>389.586</ele>
        <time>2021-05-28T23:00:41Z</time>
      </trkpt>
      <trkpt lat="42.608769" lon="2.417289">
        <ele>389.423</ele>
        <time>2021-05-28T23:00:43Z</time>
      </trkpt>
      <trkpt lat="42.608801" lon="2.417284">
        <ele>389.494</ele>
        <time>2021-05-28T23:00:45Z</time>
      </trkpt>
      <trkpt lat="42.608833" lon="2.417284">
        <ele>389.513</ele>
        <time>2021-05-28T23:00:47Z</time>
      </trkpt>
      <trkpt lat="42.608863" lon="2.417276">
        <ele>389.520</ele>
        <time>2021-05-28T23:00:49Z</time>
      </trkpt>
      <trkpt lat="42.608899" lon="2.417268">
        <ele>389.575</ele>
        <time>2021-05-28T23:00:51Z</time>
      </trkpt>
      <trkpt lat="42.608934" lon="2.417260">
        <ele>389.442</ele>
        <time>2021-05-28T23:00:53Z</time>
      </trkpt>
      <trkpt lat="42.608953" lon="2.417263">
        <ele>389.470</ele>
        <time>2021-05-28T23:00:54Z</time>
      </trkpt>
      <trkpt lat="42.608990" lon="2.417259">
        <ele>389.429</ele>
        <time>2021-05-28T23:00:56Z</time>
      </trkpt>
      <trkpt lat="42.609010" lon="2.417252">
        <ele>389.300</ele>
        <time>2021-05-28T23:00:57Z</time>
      </trkpt>
      <trkpt lat="42.609030" lon="2.417250">
        <ele>389.320</ele>
        <time>2021-05-28T23:00:58Z</time>
      </trkpt>
      <trkpt lat="42.609049" lon="2.417248">
        <ele>389.308</ele>
        <time>2021-05-28T23:00:59Z</time>
      </trkpt>
      <trkpt lat="42.609072" lon="2.417247">
        <ele>389.359</ele>
        <time>2021-05-28T23:01:00Z</time>
      </trkpt>
      <trkpt lat="42.609108" lon="2.417242">
        <ele>389.216</ele>
        <time>2021-05-28T23:01:02Z</time>
      </trkpt>
      <trkpt lat="42.609127" lon="2.417239">
        <ele>389.297</ele>
        <time>2021-05-28T23:01:03Z</time>
      </trkpt>
      <trkpt lat="42.609145" lon="2.417231">
        <ele>389.186</ele>
        <time>2021-05-28T23:01:04Z</time>
      </trkpt>
      <trkpt lat="42.609165" lon="2.417227">
        <ele>389.173</ele>
        <time>2021-05-28T23:01:05Z</time>
      </trkpt>
      <trkpt lat="42.609186" lon="2.417222">
        <ele>388.938</ele>
        <time>2021-05-28T23:01:06Z</time>
      </trkpt>
      <trkpt lat="42.609205" lon="2.417219">
        <ele>388.795</ele>
        <time>2021-05-28T23:01:07Z</time>
      </trkpt>
      <trkpt lat="42.609229" lon="2.417217">
        <ele>388.593</ele>
        <time>2021-05-28T23:01:08Z</time>
      </trkpt>
      <trkpt lat="42.609250" lon="2.417215">
        <ele>388.488</ele>
        <time>2021-05-28T23:01:09Z</time>
      </trkpt>
      <trkpt lat="42.609269" lon="2.417212">
        <ele>388.224</ele>
        <time>2021-05-28T23:01:10Z</time>
      </trkpt>
      <trkpt lat="42.609287" lon="2.417208">
        <ele>388.126</ele>
        <time>2021-05-28T23:01:11Z</time>
      </trkpt>
      <trkpt lat="42.609322" lon="2.417200">
        <ele>387.808</ele>
        <time>2021-05-28T23:01:13Z</time>
      </trkpt>
      <trkpt lat="42.609339" lon="2.417192">
        <ele>387.675</ele>
        <time>2021-05-28T23:01:14Z</time>
      </trkpt>
      <trkpt lat="42.609358" lon="2.417184">
        <ele>387.412</ele>
        <time>2021-05-28T23:01:15Z</time>
      </trkpt>
      <trkpt lat="42.609374" lon="2.417174">
        <ele>387.333</ele>
        <time>2021-05-28T23:01:16Z</time>
      </trkpt>
      <trkpt lat="42.609407" lon="2.417165">
        <ele>387.082</ele>
        <time>2021-05-28T23:01:18Z</time>
      </trkpt>
      <trkpt lat="42.609440" lon="2.417165">
        <ele>386.869</ele>
        <time>2021-05-28T23:01:20Z</time>
      </trkpt>
      <trkpt lat="42.609470" lon="2.417160">
        <ele>386.894</ele>
        <time>2021-05-28T23:01:22Z</time>
      </trkpt>
      <trkpt lat="42.609504" lon="2.417149">
        <ele>386.771</ele>
        <time>2021-05-28T23:01:24Z</time>
      </trkpt>
      <trkpt lat="42.609522" lon="2.417145">
        <ele>386.649</ele>
        <time>2021-05-28T23:01:25Z</time>
      </trkpt>
      <trkpt lat="42.609541" lon="2.417141">
        <ele>386.646</ele>
        <time>2021-05-28T23:01:26Z</time>
      </trkpt>
      <trkpt lat="42.609561" lon="2.417137">
        <ele>386.688</ele>
        <time>2021-05-28T23:01:27Z</time>
      </trkpt>
      <trkpt lat="42.609592" lon="2.417130">
        <ele>386.516</ele>
        <time>2021-05-28T23:01:29Z</time>
      </trkpt>
      <trkpt lat="42.609612" lon="2.417129">
        <ele>386.508</ele>
        <time>2021-05-28T23:01:30Z</time>
      </trkpt>
      <trkpt lat="42.609634" lon="2.417125">
        <ele>386.421</ele>
        <time>2021-05-28T23:01:31Z</time>
      </trkpt>
      <trkpt lat="42.609654" lon="2.417123">
        <ele>386.448</ele>
        <time>2021-05-28T23:01:32Z</time>
      </trkpt>
      <trkpt lat="42.609673" lon="2.417119">
        <ele>386.349</ele>
        <time>2021-05-28T23:01:33Z</time>
      </trkpt>
      <trkpt lat="42.609706" lon="2.417109">
        <ele>386.268</ele>
        <time>2021-05-28T23:01:35Z</time>
      </trkpt>
      <trkpt lat="42.609740" lon="2.417098">
        <ele>385.975</ele>
        <time>2021-05-28T23:01:37Z</time>
      </trkpt>
      <trkpt lat="42.609761" lon="2.417094">
        <ele>385.630</ele>
        <time>2021-05-28T23:01:39Z</time>
      </trkpt>
      <trkpt lat="42.609817" lon="2.417088">
        <ele>384.897</ele>
        <time>2021-05-28T23:01:41Z</time>
      </trkpt>
      <trkpt lat="42.609837" lon="2.417087">
        <ele>384.665</ele>
        <time>2021-05-28T23:01:42Z</time>
      </trkpt>
      <trkpt lat="42.609855" lon="2.417086">
        <ele>384.464</ele>
        <time>2021-05-28T23:01:44Z</time>
      </trkpt>
      <trkpt lat="42.609905" lon="2.417094">
        <ele>383.806</ele>
        <time>2021-05-28T23:01:46Z</time>
      </trkpt>
      <trkpt lat="42.609939" lon="2.417104">
        <ele>383.516</ele>
        <time>2021-05-28T23:01:48Z</time>
      </trkpt>
      <trkpt lat="42.609976" lon="2.417106">
        <ele>383.008</ele>
        <time>2021-05-28T23:01:50Z</time>
      </trkpt>
      <trkpt lat="42.610014" lon="2.417106">
        <ele>382.693</ele>
        <time>2021-05-28T23:01:52Z</time>
      </trkpt>
      <trkpt lat="42.610043" lon="2.417113">
        <ele>382.440</ele>
        <time>2021-05-28T23:01:54Z</time>
      </trkpt>
      <trkpt lat="42.610064" lon="2.417118">
        <ele>382.341</ele>
        <time>2021-05-28T23:01:55Z</time>
      </trkpt>
      <trkpt lat="42.610083" lon="2.417124">
        <ele>382.130</ele>
        <time>2021-05-28T23:01:56Z</time>
      </trkpt>
      <trkpt lat="42.610122" lon="2.417136">
        <ele>381.967</ele>
        <time>2021-05-28T23:01:58Z</time>
      </trkpt>
      <trkpt lat="42.610152" lon="2.417151">
        <ele>381.752</ele>
        <time>2021-05-28T23:02:00Z</time>
      </trkpt>
      <trkpt lat="42.610171" lon="2.417158">
        <ele>381.659</ele>
        <time>2021-05-28T23:02:01Z</time>
      </trkpt>
      <trkpt lat="42.610189" lon="2.417169">
        <ele>381.527</ele>
        <time>2021-05-28T23:02:02Z</time>
      </trkpt>
      <trkpt lat="42.610221" lon="2.417192">
        <ele>381.498</ele>
        <time>2021-05-28T23:02:04Z</time>
      </trkpt>
      <trkpt lat="42.610240" lon="2.417203">
        <ele>381.315</ele>
        <time>2021-05-28T23:02:05Z</time>
      </trkpt>
      <trkpt lat="42.610256" lon="2.417213">
        <ele>381.226</ele>
        <time>2021-05-28T23:02:06Z</time>
      </trkpt>
      <trkpt lat="42.610273" lon="2.417225">
        <ele>381.108</ele>
        <time>2021-05-28T23:02:07Z</time>
      </trkpt>
      <trkpt lat="42.610289" lon="2.417239">
        <ele>381.256</ele>
        <time>2021-05-28T23:02:08Z</time>
      </trkpt>
      <trkpt lat="42.610307" lon="2.417253">
        <ele>381.223</ele>
        <time>2021-05-28T23:02:09Z</time>
      </trkpt>
      <trkpt lat="42.610338" lon="2.417272">
        <ele>381.254</ele>
        <time>2021-05-28T23:02:11Z</time>
      </trkpt>
      <trkpt lat="42.610370" lon="2.417291">
        <ele>381.253</ele>
        <time>2021-05-28T23:02:13Z</time>
      </trkpt>
      <trkpt lat="42.610389" lon="2.417305">
        <ele>381.390</ele>
        <time>2021-05-28T23:02:14Z</time>
      </trkpt>
      <trkpt lat="42.610405" lon="2.417318">
        <ele>381.365</ele>
        <time>2021-05-28T23:02:15Z</time>
      </trkpt>
      <trkpt lat="42.610453" lon="2.417355">
        <ele>381.332</ele>
        <time>2021-05-28T23:02:18Z</time>
      </trkpt>
      <trkpt lat="42.610483" lon="2.417379">
        <ele>381.460</ele>
        <time>2021-05-28T23:02:20Z</time>
      </trkpt>
      <trkpt lat="42.610499" lon="2.417393">
        <ele>381.499</ele>
        <time>2021-05-28T23:02:21Z</time>
      </trkpt>
      <trkpt lat="42.610530" lon="2.417418">
        <ele>381.407</ele>
        <time>2021-05-28T23:02:23Z</time>
      </trkpt>
      <trkpt lat="42.610548" lon="2.417428">
        <ele>381.327</ele>
        <time>2021-05-28T23:02:24Z</time>
      </trkpt>
      <trkpt lat="42.610564" lon="2.417439">
        <ele>381.308</ele>
        <time>2021-05-28T23:02:25Z</time>
      </trkpt>
      <trkpt lat="42.610592" lon="2.417460">
        <ele>381.316</ele>
        <time>2021-05-28T23:02:27Z</time>
      </trkpt>
      <trkpt lat="42.610616" lon="2.417485">
        <ele>381.443</ele>
        <time>2021-05-28T23:02:29Z</time>
      </trkpt>
      <trkpt lat="42.610638" lon="2.417524">
        <ele>381.834</ele>
        <time>2021-05-28T23:02:31Z</time>
      </trkpt>
      <trkpt lat="42.610660" lon="2.417559">
        <ele>382.183</ele>
        <time>2021-05-28T23:02:33Z</time>
      </trkpt>
      <trkpt lat="42.610684" lon="2.417590">
        <ele>382.450</ele>
        <time>2021-05-28T23:02:35Z</time>
      </trkpt>
      <trkpt lat="42.610698" lon="2.417607">
        <ele>382.595</ele>
        <time>2021-05-28T23:02:37Z</time>
      </trkpt>
      <trkpt lat="42.610728" lon="2.417634">
        <ele>382.752</ele>
        <time>2021-05-28T23:02:38Z</time>
      </trkpt>
      <trkpt lat="42.610743" lon="2.417647">
        <ele>382.840</ele>
        <time>2021-05-28T23:02:39Z</time>
      </trkpt>
      <trkpt lat="42.610773" lon="2.417671">
        <ele>382.991</ele>
        <time>2021-05-28T23:02:41Z</time>
      </trkpt>
      <trkpt lat="42.610805" lon="2.417696">
        <ele>383.081</ele>
        <time>2021-05-28T23:02:43Z</time>
      </trkpt>
      <trkpt lat="42.610825" lon="2.417724">
        <ele>383.319</ele>
        <time>2021-05-28T23:02:45Z</time>
      </trkpt>
      <trkpt lat="42.610851" lon="2.417749">
        <ele>383.308</ele>
        <time>2021-05-28T23:02:47Z</time>
      </trkpt>
      <trkpt lat="42.610868" lon="2.417779">
        <ele>383.516</ele>
        <time>2021-05-28T23:02:49Z</time>
      </trkpt>
      <trkpt lat="42.610881" lon="2.417797">
        <ele>383.523</ele>
        <time>2021-05-28T23:02:50Z</time>
      </trkpt>
      <trkpt lat="42.610894" lon="2.417815">
        <ele>383.564</ele>
        <time>2021-05-28T23:02:51Z</time>
      </trkpt>
      <trkpt lat="42.610919" lon="2.417841">
        <ele>383.433</ele>
        <time>2021-05-28T23:02:53Z</time>
      </trkpt>
      <trkpt lat="42.610944" lon="2.417865">
        <ele>383.320</ele>
        <time>2021-05-28T23:02:55Z</time>
      </trkpt>
      <trkpt lat="42.610968" lon="2.417899">
        <ele>383.415</ele>
        <time>2021-05-28T23:02:57Z</time>
      </trkpt>
      <trkpt lat="42.610988" lon="2.417939">
        <ele>383.522</ele>
        <time>2021-05-28T23:02:59Z</time>
      </trkpt>
      <trkpt lat="42.611002" lon="2.417957">
        <ele>383.520</ele>
        <time>2021-05-28T23:03:00Z</time>
      </trkpt>
      <trkpt lat="42.611015" lon="2.417980">
        <ele>383.659</ele>
        <time>2021-05-28T23:03:01Z</time>
      </trkpt>
      <trkpt lat="42.611028" lon="2.417999">
        <ele>383.603</ele>
        <time>2021-05-28T23:03:02Z</time>
      </trkpt>
      <trkpt lat="42.611050" lon="2.418028">
        <ele>383.623</ele>
        <time>2021-05-28T23:03:04Z</time>
      </trkpt>
      <trkpt lat="42.611067" lon="2.418059">
        <ele>383.708</ele>
        <time>2021-05-28T23:03:06Z</time>
      </trkpt>
      <trkpt lat="42.611086" lon="2.418087">
        <ele>383.722</ele>
        <time>2021-05-28T23:03:08Z</time>
      </trkpt>
      <trkpt lat="42.611109" lon="2.418118">
        <ele>383.799</ele>
        <time>2021-05-28T23:03:10Z</time>
      </trkpt>
      <trkpt lat="42.611124" lon="2.418132">
        <ele>383.620</ele>
        <time>2021-05-28T23:03:11Z</time>
      </trkpt>
      <trkpt lat="42.611146" lon="2.418154">
        <ele>383.659</ele>
        <time>2021-05-28T23:03:14Z</time>
      </trkpt>
      <trkpt lat="42.611174" lon="2.418170">
        <ele>383.386</ele>
        <time>2021-05-28T23:03:15Z</time>
      </trkpt>
      <trkpt lat="42.611213" lon="2.418185">
        <ele>382.911</ele>
        <time>2021-05-28T23:03:17Z</time>
      </trkpt>
      <trkpt lat="42.611235" lon="2.418193">
        <ele>382.728</ele>
        <time>2021-05-28T23:03:18Z</time>
      </trkpt>
      <trkpt lat="42.611272" lon="2.418213">
        <ele>382.436</ele>
        <time>2021-05-28T23:03:20Z</time>
      </trkpt>
      <trkpt lat="42.611290" lon="2.418223">
        <ele>382.275</ele>
        <time>2021-05-28T23:03:21Z</time>
      </trkpt>
      <trkpt lat="42.611308" lon="2.418234">
        <ele>382.128</ele>
        <time>2021-05-28T23:03:22Z</time>
      </trkpt>
      <trkpt lat="42.611334" lon="2.418247">
        <ele>381.920</ele>
        <time>2021-05-28T23:03:24Z</time>
      </trkpt>
      <trkpt lat="42.611359" lon="2.418264">
        <ele>381.708</ele>
        <time>2021-05-28T23:03:26Z</time>
      </trkpt>
      <trkpt lat="42.611377" lon="2.418273">
        <ele>381.584</ele>
        <time>2021-05-28T23:03:27Z</time>
      </trkpt>
      <trkpt lat="42.611405" lon="2.418290">
        <ele>381.451</ele>
        <time>2021-05-28T23:03:30Z</time>
      </trkpt>
      <trkpt lat="42.611441" lon="2.418311">
        <ele>381.242</ele>
        <time>2021-05-28T23:03:31Z</time>
      </trkpt>
      <trkpt lat="42.611476" lon="2.418334">
        <ele>381.141</ele>
        <time>2021-05-28T23:03:33Z</time>
      </trkpt>
      <trkpt lat="42.611515" lon="2.418356">
        <ele>380.758</ele>
        <time>2021-05-28T23:03:35Z</time>
      </trkpt>
      <trkpt lat="42.611532" lon="2.418370">
        <ele>380.663</ele>
        <time>2021-05-28T23:03:36Z</time>
      </trkpt>
      <trkpt lat="42.611566" lon="2.418392">
        <ele>380.340</ele>
        <time>2021-05-28T23:03:38Z</time>
      </trkpt>
      <trkpt lat="42.611597" lon="2.418415">
        <ele>380.048</ele>
        <time>2021-05-28T23:03:40Z</time>
      </trkpt>
      <trkpt lat="42.611616" lon="2.418425">
        <ele>379.989</ele>
        <time>2021-05-28T23:03:41Z</time>
      </trkpt>
      <trkpt lat="42.611648" lon="2.418439">
        <ele>379.606</ele>
        <time>2021-05-28T23:03:43Z</time>
      </trkpt>
      <trkpt lat="42.611666" lon="2.418446">
        <ele>379.426</ele>
        <time>2021-05-28T23:03:44Z</time>
      </trkpt>
      <trkpt lat="42.611701" lon="2.418463">
        <ele>379.208</ele>
        <time>2021-05-28T23:03:46Z</time>
      </trkpt>
      <trkpt lat="42.611726" lon="2.418481">
        <ele>379.155</ele>
        <time>2021-05-28T23:03:48Z</time>
      </trkpt>
      <trkpt lat="42.611751" lon="2.418500">
        <ele>379.012</ele>
        <time>2021-05-28T23:03:50Z</time>
      </trkpt>
      <trkpt lat="42.611777" lon="2.418520">
        <ele>378.993</ele>
        <time>2021-05-28T23:03:53Z</time>
      </trkpt>
      <trkpt lat="42.611804" lon="2.418542">
        <ele>378.822</ele>
        <time>2021-05-28T23:03:54Z</time>
      </trkpt>
      <trkpt lat="42.611820" lon="2.418556">
        <ele>378.779</ele>
        <time>2021-05-28T23:03:55Z</time>
      </trkpt>
      <trkpt lat="42.611864" lon="2.418584">
        <ele>378.574</ele>
        <time>2021-05-28T23:03:58Z</time>
      </trkpt>
      <trkpt lat="42.611889" lon="2.418605">
        <ele>378.481</ele>
        <time>2021-05-28T23:04:00Z</time>
      </trkpt>
      <trkpt lat="42.611920" lon="2.418623">
        <ele>378.249</ele>
        <time>2021-05-28T23:04:02Z</time>
      </trkpt>
      <trkpt lat="42.611948" lon="2.418643">
        <ele>378.126</ele>
        <time>2021-05-28T23:04:05Z</time>
      </trkpt>
      <trkpt lat="42.611971" lon="2.418672">
        <ele>378.047</ele>
        <time>2021-05-28T23:04:06Z</time>
      </trkpt>
      <trkpt lat="42.611998" lon="2.418695">
        <ele>377.911</ele>
        <time>2021-05-28T23:04:08Z</time>
      </trkpt>
      <trkpt lat="42.612025" lon="2.418717">
        <ele>377.808</ele>
        <time>2021-05-28T23:04:10Z</time>
      </trkpt>
      <trkpt lat="42.612048" lon="2.418733">
        <ele>377.779</ele>
        <time>2021-05-28T23:04:12Z</time>
      </trkpt>
      <trkpt lat="42.612071" lon="2.418750">
        <ele>377.636</ele>
        <time>2021-05-28T23:04:14Z</time>
      </trkpt>
      <trkpt lat="42.612092" lon="2.418770">
        <ele>377.597</ele>
        <time>2021-05-28T23:04:16Z</time>
      </trkpt>
      <trkpt lat="42.612119" lon="2.418795">
        <ele>377.436</ele>
        <time>2021-05-28T23:04:18Z</time>
      </trkpt>
      <trkpt lat="42.612135" lon="2.418808">
        <ele>377.363</ele>
        <time>2021-05-28T23:04:19Z</time>
      </trkpt>
      <trkpt lat="42.612153" lon="2.418821">
        <ele>377.398</ele>
        <time>2021-05-28T23:04:20Z</time>
      </trkpt>
      <trkpt lat="42.612183" lon="2.418843">
        <ele>377.155</ele>
        <time>2021-05-28T23:04:22Z</time>
      </trkpt>
      <trkpt lat="42.612211" lon="2.418870">
        <ele>377.023</ele>
        <time>2021-05-28T23:04:24Z</time>
      </trkpt>
      <trkpt lat="42.612241" lon="2.418892">
        <ele>376.923</ele>
        <time>2021-05-28T23:04:26Z</time>
      </trkpt>
      <trkpt lat="42.612269" lon="2.418911">
        <ele>376.783</ele>
        <time>2021-05-28T23:04:28Z</time>
      </trkpt>
      <trkpt lat="42.612302" lon="2.418930">
        <ele>376.411</ele>
        <time>2021-05-28T23:04:30Z</time>
      </trkpt>
      <trkpt lat="42.612330" lon="2.418954">
        <ele>376.208</ele>
        <time>2021-05-28T23:04:33Z</time>
      </trkpt>
      <trkpt lat="42.612357" lon="2.418975">
        <ele>376.039</ele>
        <time>2021-05-28T23:04:34Z</time>
      </trkpt>
      <trkpt lat="42.612384" lon="2.418996">
        <ele>375.896</ele>
        <time>2021-05-28T23:04:36Z</time>
      </trkpt>
      <trkpt lat="42.612411" lon="2.419017">
        <ele>375.637</ele>
        <time>2021-05-28T23:04:38Z</time>
      </trkpt>
      <trkpt lat="42.612439" lon="2.419039">
        <ele>375.476</ele>
        <time>2021-05-28T23:04:40Z</time>
      </trkpt>
      <trkpt lat="42.612455" lon="2.419050">
        <ele>375.393</ele>
        <time>2021-05-28T23:04:41Z</time>
      </trkpt>
      <trkpt lat="42.612483" lon="2.419071">
        <ele>375.158</ele>
        <time>2021-05-28T23:04:43Z</time>
      </trkpt>
      <trkpt lat="42.612511" lon="2.419096">
        <ele>374.985</ele>
        <time>2021-05-28T23:04:45Z</time>
      </trkpt>
      <trkpt lat="42.612542" lon="2.419118">
        <ele>374.893</ele>
        <time>2021-05-28T23:04:47Z</time>
      </trkpt>
      <trkpt lat="42.612566" lon="2.419140">
        <ele>374.717</ele>
        <time>2021-05-28T23:04:50Z</time>
      </trkpt>
      <trkpt lat="42.612596" lon="2.419164">
        <ele>374.787</ele>
        <time>2021-05-28T23:04:51Z</time>
      </trkpt>
      <trkpt lat="42.612630" lon="2.419181">
        <ele>374.615</ele>
        <time>2021-05-28T23:04:53Z</time>
      </trkpt>
      <trkpt lat="42.612659" lon="2.419188">
        <ele>374.508</ele>
        <time>2021-05-28T23:04:55Z</time>
      </trkpt>
      <trkpt lat="42.612683" lon="2.419191">
        <ele>374.478</ele>
        <time>2021-05-28T23:04:57Z</time>
      </trkpt>
      <trkpt lat="42.612715" lon="2.419197">
        <ele>374.355</ele>
        <time>2021-05-28T23:04:59Z</time>
      </trkpt>
      <trkpt lat="42.612745" lon="2.419205">
        <ele>374.156</ele>
        <time>2021-05-28T23:05:01Z</time>
      </trkpt>
      <trkpt lat="42.612728" lon="2.419216">
        <ele>374.285</ele>
        <time>2021-05-28T23:05:07Z</time>
      </trkpt>
      <trkpt lat="42.612707" lon="2.419216">
        <ele>374.342</ele>
        <time>2021-05-28T23:05:09Z</time>
      </trkpt>
      <trkpt lat="42.612686" lon="2.419219">
        <ele>374.487</ele>
        <time>2021-05-28T23:05:11Z</time>
      </trkpt>
      <trkpt lat="42.612665" lon="2.419229">
        <ele>374.574</ele>
        <time>2021-05-28T23:05:14Z</time>
      </trkpt>
      <trkpt lat="42.612645" lon="2.419245">
        <ele>374.682</ele>
        <time>2021-05-28T23:05:15Z</time>
      </trkpt>
      <trkpt lat="42.612623" lon="2.419269">
        <ele>374.847</ele>
        <time>2021-05-28T23:05:17Z</time>
      </trkpt>
      <trkpt lat="42.612611" lon="2.419294">
        <ele>374.929</ele>
        <time>2021-05-28T23:05:19Z</time>
      </trkpt>
      <trkpt lat="42.612600" lon="2.419322">
        <ele>375.021</ele>
        <time>2021-05-28T23:05:21Z</time>
      </trkpt>
      <trkpt lat="42.612588" lon="2.419360">
        <ele>375.208</ele>
        <time>2021-05-28T23:05:23Z</time>
      </trkpt>
      <trkpt lat="42.612582" lon="2.419385">
        <ele>375.381</ele>
        <time>2021-05-28T23:05:24Z</time>
      </trkpt>
      <trkpt lat="42.612577" lon="2.419409">
        <ele>375.458</ele>
        <time>2021-05-28T23:05:25Z</time>
      </trkpt>
      <trkpt lat="42.612565" lon="2.419476">
        <ele>375.519</ele>
        <time>2021-05-28T23:05:28Z</time>
      </trkpt>
      <trkpt lat="42.612560" lon="2.419500">
        <ele>375.698</ele>
        <time>2021-05-28T23:05:29Z</time>
      </trkpt>
      <trkpt lat="42.612557" lon="2.419543">
        <ele>375.615</ele>
        <time>2021-05-28T23:05:31Z</time>
      </trkpt>
      <trkpt lat="42.612559" lon="2.419584">
        <ele>375.650</ele>
        <time>2021-05-28T23:05:33Z</time>
      </trkpt>
      <trkpt lat="42.612563" lon="2.419627">
        <ele>375.527</ele>
        <time>2021-05-28T23:05:35Z</time>
      </trkpt>
      <trkpt lat="42.612581" lon="2.419673">
        <ele>375.465</ele>
        <time>2021-05-28T23:05:37Z</time>
      </trkpt>
      <trkpt lat="42.612594" lon="2.419693">
        <ele>375.398</ele>
        <time>2021-05-28T23:05:38Z</time>
      </trkpt>
      <trkpt lat="42.612616" lon="2.419729">
        <ele>375.215</ele>
        <time>2021-05-28T23:05:40Z</time>
      </trkpt>
      <trkpt lat="42.612632" lon="2.419770">
        <ele>375.126</ele>
        <time>2021-05-28T23:05:42Z</time>
      </trkpt>
      <trkpt lat="42.612651" lon="2.419803">
        <ele>375.108</ele>
        <time>2021-05-28T23:05:44Z</time>
      </trkpt>
      <trkpt lat="42.612668" lon="2.419839">
        <ele>375.016</ele>
        <time>2021-05-28T23:05:47Z</time>
      </trkpt>
      <trkpt lat="42.612686" lon="2.419877">
        <ele>375.053</ele>
        <time>2021-05-28T23:05:48Z</time>
      </trkpt>
      <trkpt lat="42.612704" lon="2.419909">
        <ele>375.034</ele>
        <time>2021-05-28T23:05:50Z</time>
      </trkpt>
      <trkpt lat="42.612717" lon="2.419954">
        <ele>375.123</ele>
        <time>2021-05-28T23:05:52Z</time>
      </trkpt>
      <trkpt lat="42.612727" lon="2.419975">
        <ele>375.110</ele>
        <time>2021-05-28T23:05:53Z</time>
      </trkpt>
      <trkpt lat="42.612737" lon="2.419996">
        <ele>375.165</ele>
        <time>2021-05-28T23:05:54Z</time>
      </trkpt>
      <trkpt lat="42.612751" lon="2.420035">
        <ele>375.152</ele>
        <time>2021-05-28T23:05:56Z</time>
      </trkpt>
      <trkpt lat="42.612763" lon="2.420073">
        <ele>375.180</ele>
        <time>2021-05-28T23:05:58Z</time>
      </trkpt>
      <trkpt lat="42.612773" lon="2.420112">
        <ele>375.093</ele>
        <time>2021-05-28T23:06:00Z</time>
      </trkpt>
      <trkpt lat="42.612786" lon="2.420151">
        <ele>374.965</ele>
        <time>2021-05-28T23:06:02Z</time>
      </trkpt>
      <trkpt lat="42.612801" lon="2.420188">
        <ele>374.821</ele>
        <time>2021-05-28T23:06:04Z</time>
      </trkpt>
      <trkpt lat="42.612820" lon="2.420217">
        <ele>374.708</ele>
        <time>2021-05-28T23:06:07Z</time>
      </trkpt>
      <trkpt lat="42.612837" lon="2.420257">
        <ele>374.616</ele>
        <time>2021-05-28T23:06:08Z</time>
      </trkpt>
      <trkpt lat="42.612847" lon="2.420278">
        <ele>374.523</ele>
        <time>2021-05-28T23:06:09Z</time>
      </trkpt>
      <trkpt lat="42.612864" lon="2.420306">
        <ele>374.414</ele>
        <time>2021-05-28T23:06:11Z</time>
      </trkpt>
      <trkpt lat="42.612889" lon="2.420317">
        <ele>374.213</ele>
        <time>2021-05-28T23:06:13Z</time>
      </trkpt>
      <trkpt lat="42.612908" lon="2.420329">
        <ele>374.140</ele>
        <time>2021-05-28T23:06:15Z</time>
      </trkpt>
      <trkpt lat="42.612923" lon="2.420356">
        <ele>374.085</ele>
        <time>2021-05-28T23:06:18Z</time>
      </trkpt>
      <trkpt lat="42.612935" lon="2.420376">
        <ele>373.912</ele>
        <time>2021-05-28T23:06:20Z</time>
      </trkpt>
      <trkpt lat="42.612938" lon="2.420403">
        <ele>373.820</ele>
        <time>2021-05-28T23:06:22Z</time>
      </trkpt>
      <trkpt lat="42.612945" lon="2.420438">
        <ele>373.897</ele>
        <time>2021-05-28T23:06:25Z</time>
      </trkpt>
      <trkpt lat="42.612954" lon="2.420470">
        <ele>373.723</ele>
        <time>2021-05-28T23:06:26Z</time>
      </trkpt>
      <trkpt lat="42.612964" lon="2.420496">
        <ele>373.725</ele>
        <time>2021-05-28T23:06:28Z</time>
      </trkpt>
      <trkpt lat="42.612969" lon="2.420525">
        <ele>373.608</ele>
        <time>2021-05-28T23:06:30Z</time>
      </trkpt>
      <trkpt lat="42.612979" lon="2.420552">
        <ele>373.676</ele>
        <time>2021-05-28T23:06:32Z</time>
      </trkpt>
      <trkpt lat="42.613000" lon="2.420578">
        <ele>373.413</ele>
        <time>2021-05-28T23:06:34Z</time>
      </trkpt>
      <trkpt lat="42.613016" lon="2.420603">
        <ele>373.344</ele>
        <time>2021-05-28T23:06:36Z</time>
      </trkpt>
      <trkpt lat="42.613036" lon="2.420644">
        <ele>373.153</ele>
        <time>2021-05-28T23:06:38Z</time>
      </trkpt>
      <trkpt lat="42.613046" lon="2.420671">
        <ele>373.120</ele>
        <time>2021-05-28T23:06:39Z</time>
      </trkpt>
      <trkpt lat="42.613055" lon="2.420700">
        <ele>373.015</ele>
        <time>2021-05-28T23:06:40Z</time>
      </trkpt>
      <trkpt lat="42.613064" lon="2.420724">
        <ele>373.072</ele>
        <time>2021-05-28T23:06:41Z</time>
      </trkpt>
      <trkpt lat="42.613078" lon="2.420764">
        <ele>372.960</ele>
        <time>2021-05-28T23:06:43Z</time>
      </trkpt>
      <trkpt lat="42.613106" lon="2.420804">
        <ele>372.822</ele>
        <time>2021-05-28T23:06:45Z</time>
      </trkpt>
      <trkpt lat="42.613124" lon="2.420821">
        <ele>372.862</ele>
        <time>2021-05-28T23:06:46Z</time>
      </trkpt>
      <trkpt lat="42.613146" lon="2.420861">
        <ele>372.608</ele>
        <time>2021-05-28T23:06:48Z</time>
      </trkpt>
      <trkpt lat="42.613159" lon="2.420882">
        <ele>372.508</ele>
        <time>2021-05-28T23:06:49Z</time>
      </trkpt>
      <trkpt lat="42.613170" lon="2.420909">
        <ele>372.389</ele>
        <time>2021-05-28T23:06:50Z</time>
      </trkpt>
      <trkpt lat="42.613182" lon="2.420936">
        <ele>372.276</ele>
        <time>2021-05-28T23:06:51Z</time>
      </trkpt>
      <trkpt lat="42.613195" lon="2.420961">
        <ele>372.097</ele>
        <time>2021-05-28T23:06:52Z</time>
      </trkpt>
      <trkpt lat="42.613205" lon="2.420982">
        <ele>371.936</ele>
        <time>2021-05-28T23:06:53Z</time>
      </trkpt>
      <trkpt lat="42.613215" lon="2.421004">
        <ele>371.823</ele>
        <time>2021-05-28T23:06:54Z</time>
      </trkpt>
      <trkpt lat="42.613238" lon="2.421051">
        <ele>371.678</ele>
        <time>2021-05-28T23:06:56Z</time>
      </trkpt>
      <trkpt lat="42.613251" lon="2.421071">
        <ele>371.475</ele>
        <time>2021-05-28T23:06:57Z</time>
      </trkpt>
      <trkpt lat="42.613261" lon="2.421094">
        <ele>371.363</ele>
        <time>2021-05-28T23:06:58Z</time>
      </trkpt>
      <trkpt lat="42.613270" lon="2.421117">
        <ele>371.259</ele>
        <time>2021-05-28T23:06:59Z</time>
      </trkpt>
      <trkpt lat="42.613280" lon="2.421139">
        <ele>371.103</ele>
        <time>2021-05-28T23:07:00Z</time>
      </trkpt>
      <trkpt lat="42.613291" lon="2.421162">
        <ele>371.023</ele>
        <time>2021-05-28T23:07:01Z</time>
      </trkpt>
      <trkpt lat="42.613302" lon="2.421188">
        <ele>370.808</ele>
        <time>2021-05-28T23:07:03Z</time>
      </trkpt>
      <trkpt lat="42.613313" lon="2.421211">
        <ele>370.752</ele>
        <time>2021-05-28T23:07:04Z</time>
      </trkpt>
      <trkpt lat="42.613324" lon="2.421233">
        <ele>370.679</ele>
        <time>2021-05-28T23:07:05Z</time>
      </trkpt>
      <trkpt lat="42.613346" lon="2.421274">
        <ele>370.460</ele>
        <time>2021-05-28T23:07:06Z</time>
      </trkpt>
      <trkpt lat="42.613357" lon="2.421298">
        <ele>370.389</ele>
        <time>2021-05-28T23:07:07Z</time>
      </trkpt>
      <trkpt lat="42.613368" lon="2.421318">
        <ele>370.286</ele>
        <time>2021-05-28T23:07:08Z</time>
      </trkpt>
      <trkpt lat="42.613385" lon="2.421356">
        <ele>370.121</ele>
        <time>2021-05-28T23:07:11Z</time>
      </trkpt>
      <trkpt lat="42.613413" lon="2.421420">
        <ele>370.078</ele>
        <time>2021-05-28T23:07:13Z</time>
      </trkpt>
      <trkpt lat="42.613430" lon="2.421462">
        <ele>369.976</ele>
        <time>2021-05-28T23:07:15Z</time>
      </trkpt>
      <trkpt lat="42.613440" lon="2.421486">
        <ele>369.972</ele>
        <time>2021-05-28T23:07:16Z</time>
      </trkpt>
      <trkpt lat="42.613460" lon="2.421528">
        <ele>369.813</ele>
        <time>2021-05-28T23:07:18Z</time>
      </trkpt>
      <trkpt lat="42.613472" lon="2.421549">
        <ele>369.714</ele>
        <time>2021-05-28T23:07:19Z</time>
      </trkpt>
      <trkpt lat="42.613489" lon="2.421591">
        <ele>369.608</ele>
        <time>2021-05-28T23:07:21Z</time>
      </trkpt>
      <trkpt lat="42.613499" lon="2.421613">
        <ele>369.564</ele>
        <time>2021-05-28T23:07:22Z</time>
      </trkpt>
      <trkpt lat="42.613509" lon="2.421633">
        <ele>369.481</ele>
        <time>2021-05-28T23:07:23Z</time>
      </trkpt>
      <trkpt lat="42.613519" lon="2.421653">
        <ele>369.492</ele>
        <time>2021-05-28T23:07:24Z</time>
      </trkpt>
      <trkpt lat="42.613540" lon="2.421690">
        <ele>369.221</ele>
        <time>2021-05-28T23:07:26Z</time>
      </trkpt>
      <trkpt lat="42.613556" lon="2.421732">
        <ele>369.218</ele>
        <time>2021-05-28T23:07:28Z</time>
      </trkpt>
      <trkpt lat="42.613567" lon="2.421752">
        <ele>369.173</ele>
        <time>2021-05-28T23:07:29Z</time>
      </trkpt>
      <trkpt lat="42.613586" lon="2.421789">
        <ele>369.180</ele>
        <time>2021-05-28T23:07:31Z</time>
      </trkpt>
      <trkpt lat="42.613603" lon="2.421823">
        <ele>369.028</ele>
        <time>2021-05-28T23:07:33Z</time>
      </trkpt>
      <trkpt lat="42.613620" lon="2.421855">
        <ele>369.077</ele>
        <time>2021-05-28T23:07:35Z</time>
      </trkpt>
      <trkpt lat="42.613638" lon="2.421886">
        <ele>368.961</ele>
        <time>2021-05-28T23:07:37Z</time>
      </trkpt>
      <trkpt lat="42.613654" lon="2.421921">
        <ele>368.927</ele>
        <time>2021-05-28T23:07:40Z</time>
      </trkpt>
      <trkpt lat="42.613671" lon="2.421954">
        <ele>368.808</ele>
        <time>2021-05-28T23:07:41Z</time>
      </trkpt>
      <trkpt lat="42.613690" lon="2.421989">
        <ele>368.624</ele>
        <time>2021-05-28T23:07:43Z</time>
      </trkpt>
      <trkpt lat="42.613703" lon="2.422025">
        <ele>368.491</ele>
        <time>2021-05-28T23:07:45Z</time>
      </trkpt>
      <trkpt lat="42.613717" lon="2.422053">
        <ele>368.242</ele>
        <time>2021-05-28T23:07:48Z</time>
      </trkpt>
      <trkpt lat="42.613733" lon="2.422087">
        <ele>368.021</ele>
        <time>2021-05-28T23:07:50Z</time>
      </trkpt>
      <trkpt lat="42.613743" lon="2.422121">
        <ele>367.968</ele>
        <time>2021-05-28T23:07:51Z</time>
      </trkpt>
      <trkpt lat="42.613752" lon="2.422160">
        <ele>367.763</ele>
        <time>2021-05-28T23:07:53Z</time>
      </trkpt>
      <trkpt lat="42.613774" lon="2.422200">
        <ele>367.580</ele>
        <time>2021-05-28T23:07:55Z</time>
      </trkpt>
      <trkpt lat="42.613785" lon="2.422222">
        <ele>367.438</ele>
        <time>2021-05-28T23:07:56Z</time>
      </trkpt>
      <trkpt lat="42.613797" lon="2.422244">
        <ele>367.324</ele>
        <time>2021-05-28T23:07:57Z</time>
      </trkpt>
      <trkpt lat="42.613806" lon="2.422267">
        <ele>367.304</ele>
        <time>2021-05-28T23:07:58Z</time>
      </trkpt>
      <trkpt lat="42.613815" lon="2.422290">
        <ele>367.314</ele>
        <time>2021-05-28T23:07:59Z</time>
      </trkpt>
      <trkpt lat="42.613827" lon="2.422311">
        <ele>367.208</ele>
        <time>2021-05-28T23:08:01Z</time>
      </trkpt>
      <trkpt lat="42.613840" lon="2.422332">
        <ele>367.269</ele>
        <time>2021-05-28T23:08:02Z</time>
      </trkpt>
      <trkpt lat="42.613864" lon="2.422373">
        <ele>367.156</ele>
        <time>2021-05-28T23:08:03Z</time>
      </trkpt>
      <trkpt lat="42.613888" lon="2.422409">
        <ele>367.067</ele>
        <time>2021-05-28T23:08:05Z</time>
      </trkpt>
      <trkpt lat="42.613900" lon="2.422428">
        <ele>366.926</ele>
        <time>2021-05-28T23:08:06Z</time>
      </trkpt>
      <trkpt lat="42.613910" lon="2.422450">
        <ele>366.973</ele>
        <time>2021-05-28T23:08:07Z</time>
      </trkpt>
      <trkpt lat="42.613919" lon="2.422473">
        <ele>366.898</ele>
        <time>2021-05-28T23:08:08Z</time>
      </trkpt>
      <trkpt lat="42.613936" lon="2.422517">
        <ele>366.645</ele>
        <time>2021-05-28T23:08:10Z</time>
      </trkpt>
      <trkpt lat="42.613951" lon="2.422563">
        <ele>366.473</ele>
        <time>2021-05-28T23:08:12Z</time>
      </trkpt>
      <trkpt lat="42.613962" lon="2.422583">
        <ele>366.358</ele>
        <time>2021-05-28T23:08:13Z</time>
      </trkpt>
      <trkpt lat="42.613979" lon="2.422621">
        <ele>366.152</ele>
        <time>2021-05-28T23:08:15Z</time>
      </trkpt>
      <trkpt lat="42.614000" lon="2.422659">
        <ele>365.917</ele>
        <time>2021-05-28T23:08:17Z</time>
      </trkpt>
      <trkpt lat="42.614010" lon="2.422680">
        <ele>365.808</ele>
        <time>2021-05-28T23:08:18Z</time>
      </trkpt>
      <trkpt lat="42.614019" lon="2.422703">
        <ele>365.782</ele>
        <time>2021-05-28T23:08:19Z</time>
      </trkpt>
      <trkpt lat="42.614037" lon="2.422741">
        <ele>365.519</ele>
        <time>2021-05-28T23:08:21Z</time>
      </trkpt>
      <trkpt lat="42.614044" lon="2.422764">
        <ele>365.560</ele>
        <time>2021-05-28T23:08:22Z</time>
      </trkpt>
      <trkpt lat="42.614061" lon="2.422806">
        <ele>365.359</ele>
        <time>2021-05-28T23:08:24Z</time>
      </trkpt>
      <trkpt lat="42.614070" lon="2.422827">
        <ele>365.266</ele>
        <time>2021-05-28T23:08:25Z</time>
      </trkpt>
      <trkpt lat="42.614084" lon="2.422872">
        <ele>365.111</ele>
        <time>2021-05-28T23:08:27Z</time>
      </trkpt>
      <trkpt lat="42.614097" lon="2.422893">
        <ele>364.928</ele>
        <time>2021-05-28T23:08:28Z</time>
      </trkpt>
      <trkpt lat="42.614108" lon="2.422915">
        <ele>364.856</ele>
        <time>2021-05-28T23:08:29Z</time>
      </trkpt>
      <trkpt lat="42.614120" lon="2.422935">
        <ele>364.775</ele>
        <time>2021-05-28T23:08:30Z</time>
      </trkpt>
      <trkpt lat="42.614128" lon="2.422959">
        <ele>364.628</ele>
        <time>2021-05-28T23:08:31Z</time>
      </trkpt>
      <trkpt lat="42.614138" lon="2.422980">
        <ele>364.420</ele>
        <time>2021-05-28T23:08:32Z</time>
      </trkpt>
      <trkpt lat="42.614147" lon="2.423004">
        <ele>364.308</ele>
        <time>2021-05-28T23:08:33Z</time>
      </trkpt>
      <trkpt lat="42.614153" lon="2.423031">
        <ele>364.234</ele>
        <time>2021-05-28T23:08:34Z</time>
      </trkpt>
      <trkpt lat="42.614170" lon="2.423074">
        <ele>364.041</ele>
        <time>2021-05-28T23:08:36Z</time>
      </trkpt>
      <trkpt lat="42.614191" lon="2.423118">
        <ele>363.992</ele>
        <time>2021-05-28T23:08:38Z</time>
      </trkpt>
      <trkpt lat="42.614204" lon="2.423139">
        <ele>363.921</ele>
        <time>2021-05-28T23:08:39Z</time>
      </trkpt>
      <trkpt lat="42.614216" lon="2.423159">
        <ele>363.898</ele>
        <time>2021-05-28T23:08:40Z</time>
      </trkpt>
      <trkpt lat="42.614229" lon="2.423179">
        <ele>363.873</ele>
        <time>2021-05-28T23:08:41Z</time>
      </trkpt>
      <trkpt lat="42.614241" lon="2.423202">
        <ele>363.710</ele>
        <time>2021-05-28T23:08:42Z</time>
      </trkpt>
      <trkpt lat="42.614253" lon="2.423223">
        <ele>363.728</ele>
        <time>2021-05-28T23:08:43Z</time>
      </trkpt>
      <trkpt lat="42.614263" lon="2.423245">
        <ele>363.778</ele>
        <time>2021-05-28T23:08:44Z</time>
      </trkpt>
      <trkpt lat="42.614272" lon="2.423267">
        <ele>363.633</ele>
        <time>2021-05-28T23:08:45Z</time>
      </trkpt>
      <trkpt lat="42.614282" lon="2.423288">
        <ele>363.626</ele>
        <time>2021-05-28T23:08:46Z</time>
      </trkpt>
      <trkpt lat="42.614302" lon="2.423330">
        <ele>363.508</ele>
        <time>2021-05-28T23:08:48Z</time>
      </trkpt>
      <trkpt lat="42.614311" lon="2.423353">
        <ele>363.534</ele>
        <time>2021-05-28T23:08:49Z</time>
      </trkpt>
      <trkpt lat="42.614321" lon="2.423375">
        <ele>363.441</ele>
        <time>2021-05-28T23:08:50Z</time>
      </trkpt>
      <trkpt lat="42.614341" lon="2.423413">
        <ele>363.462</ele>
        <time>2021-05-28T23:08:52Z</time>
      </trkpt>
      <trkpt lat="42.614363" lon="2.423447">
        <ele>363.391</ele>
        <time>2021-05-28T23:08:54Z</time>
      </trkpt>
      <trkpt lat="42.614381" lon="2.423479">
        <ele>363.238</ele>
        <time>2021-05-28T23:08:56Z</time>
      </trkpt>
      <trkpt lat="42.614398" lon="2.423521">
        <ele>363.233</ele>
        <time>2021-05-28T23:08:58Z</time>
      </trkpt>
      <trkpt lat="42.614412" lon="2.423564">
        <ele>363.150</ele>
        <time>2021-05-28T23:09:00Z</time>
      </trkpt>
      <trkpt lat="42.614422" lon="2.423587">
        <ele>363.158</ele>
        <time>2021-05-28T23:09:01Z</time>
      </trkpt>
      <trkpt lat="42.614437" lon="2.423630">
        <ele>363.067</ele>
        <time>2021-05-28T23:09:03Z</time>
      </trkpt>
      <trkpt lat="42.614446" lon="2.423653">
        <ele>363.081</ele>
        <time>2021-05-28T23:09:04Z</time>
      </trkpt>
      <trkpt lat="42.614456" lon="2.423693">
        <ele>362.919</ele>
        <time>2021-05-28T23:09:06Z</time>
      </trkpt>
      <trkpt lat="42.614470" lon="2.423736">
        <ele>362.908</ele>
        <time>2021-05-28T23:09:08Z</time>
      </trkpt>
      <trkpt lat="42.614479" lon="2.423758">
        <ele>362.893</ele>
        <time>2021-05-28T23:09:09Z</time>
      </trkpt>
      <trkpt lat="42.614497" lon="2.423797">
        <ele>362.760</ele>
        <time>2021-05-28T23:09:11Z</time>
      </trkpt>
      <trkpt lat="42.614507" lon="2.423819">
        <ele>362.681</ele>
        <time>2021-05-28T23:09:12Z</time>
      </trkpt>
      <trkpt lat="42.614524" lon="2.423859">
        <ele>362.580</ele>
        <time>2021-05-28T23:09:14Z</time>
      </trkpt>
      <trkpt lat="42.614541" lon="2.423893">
        <ele>362.317</ele>
        <time>2021-05-28T23:09:16Z</time>
      </trkpt>
      <trkpt lat="42.614575" lon="2.423907">
        <ele>362.072</ele>
        <time>2021-05-28T23:09:18Z</time>
      </trkpt>
      <trkpt lat="42.614595" lon="2.423903">
        <ele>361.999</ele>
        <time>2021-05-28T23:09:19Z</time>
      </trkpt>
      <trkpt lat="42.614617" lon="2.423897">
        <ele>361.757</ele>
        <time>2021-05-28T23:09:20Z</time>
      </trkpt>
      <trkpt lat="42.614644" lon="2.423896">
        <ele>361.639</ele>
        <time>2021-05-28T23:09:22Z</time>
      </trkpt>
      <trkpt lat="42.614672" lon="2.423892">
        <ele>361.401</ele>
        <time>2021-05-28T23:09:24Z</time>
      </trkpt>
      <trkpt lat="42.614697" lon="2.423884">
        <ele>361.221</ele>
        <time>2021-05-28T23:09:26Z</time>
      </trkpt>
      <trkpt lat="42.614724" lon="2.423888">
        <ele>361.008</ele>
        <time>2021-05-28T23:09:28Z</time>
      </trkpt>
      <trkpt lat="42.614752" lon="2.423888">
        <ele>361.020</ele>
        <time>2021-05-28T23:09:30Z</time>
      </trkpt>
      <trkpt lat="42.614785" lon="2.423883">
        <ele>361.057</ele>
        <time>2021-05-28T23:09:32Z</time>
      </trkpt>
      <trkpt lat="42.614815" lon="2.423877">
        <ele>361.048</ele>
        <time>2021-05-28T23:09:34Z</time>
      </trkpt>
      <trkpt lat="42.614842" lon="2.423875">
        <ele>361.087</ele>
        <time>2021-05-28T23:09:36Z</time>
      </trkpt>
      <trkpt lat="42.614870" lon="2.423870">
        <ele>361.024</ele>
        <time>2021-05-28T23:09:39Z</time>
      </trkpt>
      <trkpt lat="42.614898" lon="2.423864">
        <ele>361.069</ele>
        <time>2021-05-28T23:09:40Z</time>
      </trkpt>
      <trkpt lat="42.614929" lon="2.423852">
        <ele>361.066</ele>
        <time>2021-05-28T23:09:42Z</time>
      </trkpt>
      <trkpt lat="42.614956" lon="2.423836">
        <ele>361.014</ele>
        <time>2021-05-28T23:09:44Z</time>
      </trkpt>
      <trkpt lat="42.614982" lon="2.423821">
        <ele>361.058</ele>
        <time>2021-05-28T23:09:46Z</time>
      </trkpt>
      <trkpt lat="42.615006" lon="2.423805">
        <ele>361.052</ele>
        <time>2021-05-28T23:09:48Z</time>
      </trkpt>
      <trkpt lat="42.615034" lon="2.423786">
        <ele>360.917</ele>
        <time>2021-05-28T23:09:50Z</time>
      </trkpt>
      <trkpt lat="42.615058" lon="2.423770">
        <ele>360.808</ele>
        <time>2021-05-28T23:09:52Z</time>
      </trkpt>
      <trkpt lat="42.615069" lon="2.423746">
        <ele>360.822</ele>
        <time>2021-05-28T23:10:01Z</time>
      </trkpt>
      <trkpt lat="42.615085" lon="2.423733">
        <ele>360.769</ele>
        <time>2021-05-28T23:10:05Z</time>
      </trkpt>
      <trkpt lat="42.615118" lon="2.423719">
        <ele>360.660</ele>
        <time>2021-05-28T23:10:11Z</time>
      </trkpt>
      <trkpt lat="42.615139" lon="2.423711">
        <ele>360.539</ele>
        <time>2021-05-28T23:10:14Z</time>
      </trkpt>
      <trkpt lat="42.615119" lon="2.423719">
        <ele>360.646</ele>
        <time>2021-05-28T23:10:23Z</time>
      </trkpt>
      <trkpt lat="42.615096" lon="2.423721">
        <ele>360.761</ele>
        <time>2021-05-28T23:10:25Z</time>
      </trkpt>
      <trkpt lat="42.615072" lon="2.423733">
        <ele>360.718</ele>
        <time>2021-05-28T23:10:26Z</time>
      </trkpt>
      <trkpt lat="42.615048" lon="2.423745">
        <ele>360.876</ele>
        <time>2021-05-28T23:10:28Z</time>
      </trkpt>
      <trkpt lat="42.615029" lon="2.423761">
        <ele>360.995</ele>
        <time>2021-05-28T23:10:31Z</time>
      </trkpt>
      <trkpt lat="42.615013" lon="2.423777">
        <ele>361.049</ele>
        <time>2021-05-28T23:10:32Z</time>
      </trkpt>
      <trkpt lat="42.614993" lon="2.423793">
        <ele>361.023</ele>
        <time>2021-05-28T23:10:34Z</time>
      </trkpt>
      <trkpt lat="42.614978" lon="2.423807">
        <ele>361.008</ele>
        <time>2021-05-28T23:10:36Z</time>
      </trkpt>
      <trkpt lat="42.614962" lon="2.423824">
        <ele>361.076</ele>
        <time>2021-05-28T23:10:38Z</time>
      </trkpt>
      <trkpt lat="42.614939" lon="2.423842">
        <ele>361.033</ele>
        <time>2021-05-28T23:10:41Z</time>
      </trkpt>
      <trkpt lat="42.614916" lon="2.423850">
        <ele>361.014</ele>
        <time>2021-05-28T23:10:43Z</time>
      </trkpt>
      <trkpt lat="42.614895" lon="2.423852">
        <ele>361.133</ele>
        <time>2021-05-28T23:10:45Z</time>
      </trkpt>
      <trkpt lat="42.614873" lon="2.423852">
        <ele>361.150</ele>
        <time>2021-05-28T23:10:47Z</time>
      </trkpt>
      <trkpt lat="42.614853" lon="2.423853">
        <ele>361.115</ele>
        <time>2021-05-28T23:10:49Z</time>
      </trkpt>
      <trkpt lat="42.614834" lon="2.423852">
        <ele>361.192</ele>
        <time>2021-05-28T23:10:52Z</time>
      </trkpt>
      <trkpt lat="42.614814" lon="2.423852">
        <ele>361.120</ele>
        <time>2021-05-28T23:10:53Z</time>
      </trkpt>
      <trkpt lat="42.614792" lon="2.423854">
        <ele>361.151</ele>
        <time>2021-05-28T23:10:55Z</time>
      </trkpt>
      <trkpt lat="42.614768" lon="2.423856">
        <ele>361.101</ele>
        <time>2021-05-28T23:10:57Z</time>
      </trkpt>
      <trkpt lat="42.614745" lon="2.423855">
        <ele>361.111</ele>
        <time>2021-05-28T23:10:59Z</time>
      </trkpt>
      <trkpt lat="42.614721" lon="2.423854">
        <ele>361.108</ele>
        <time>2021-05-28T23:11:01Z</time>
      </trkpt>
      <trkpt lat="42.614699" lon="2.423855">
        <ele>361.382</ele>
        <time>2021-05-28T23:11:03Z</time>
      </trkpt>
      <trkpt lat="42.614679" lon="2.423861">
        <ele>361.459</ele>
        <time>2021-05-28T23:11:05Z</time>
      </trkpt>
      <trkpt lat="42.614653" lon="2.423876">
        <ele>361.550</ele>
        <time>2021-05-28T23:11:07Z</time>
      </trkpt>
      <trkpt lat="42.614636" lon="2.423901">
        <ele>361.619</ele>
        <time>2021-05-28T23:11:09Z</time>
      </trkpt>
      <trkpt lat="42.614631" lon="2.423945">
        <ele>361.616</ele>
        <time>2021-05-28T23:11:11Z</time>
      </trkpt>
      <trkpt lat="42.614632" lon="2.423972">
        <ele>361.671</ele>
        <time>2021-05-28T23:11:12Z</time>
      </trkpt>
      <trkpt lat="42.614635" lon="2.424000">
        <ele>361.568</ele>
        <time>2021-05-28T23:11:13Z</time>
      </trkpt>
      <trkpt lat="42.614637" lon="2.424027">
        <ele>361.516</ele>
        <time>2021-05-28T23:11:14Z</time>
      </trkpt>
      <trkpt lat="42.614647" lon="2.424072">
        <ele>361.422</ele>
        <time>2021-05-28T23:11:16Z</time>
      </trkpt>
      <trkpt lat="42.614657" lon="2.424113">
        <ele>361.362</ele>
        <time>2021-05-28T23:11:18Z</time>
      </trkpt>
      <trkpt lat="42.614672" lon="2.424157">
        <ele>361.208</ele>
        <time>2021-05-28T23:11:20Z</time>
      </trkpt>
      <trkpt lat="42.614685" lon="2.424205">
        <ele>361.108</ele>
        <time>2021-05-28T23:11:22Z</time>
      </trkpt>
      <trkpt lat="42.614691" lon="2.424230">
        <ele>361.149</ele>
        <time>2021-05-28T23:11:23Z</time>
      </trkpt>
      <trkpt lat="42.614700" lon="2.424254">
        <ele>361.126</ele>
        <time>2021-05-28T23:11:24Z</time>
      </trkpt>
      <trkpt lat="42.614716" lon="2.424297">
        <ele>361.047</ele>
        <time>2021-05-28T23:11:26Z</time>
      </trkpt>
      <trkpt lat="42.614737" lon="2.424364">
        <ele>360.956</ele>
        <time>2021-05-28T23:11:29Z</time>
      </trkpt>
      <trkpt lat="42.614745" lon="2.424408">
        <ele>360.933</ele>
        <time>2021-05-28T23:11:31Z</time>
      </trkpt>
      <trkpt lat="42.614750" lon="2.424431">
        <ele>360.948</ele>
        <time>2021-05-28T23:11:32Z</time>
      </trkpt>
      <trkpt lat="42.614754" lon="2.424455">
        <ele>360.915</ele>
        <time>2021-05-28T23:11:33Z</time>
      </trkpt>
      <trkpt lat="42.614760" lon="2.424480">
        <ele>360.863</ele>
        <time>2021-05-28T23:11:34Z</time>
      </trkpt>
      <trkpt lat="42.614771" lon="2.424527">
        <ele>360.637</ele>
        <time>2021-05-28T23:11:36Z</time>
      </trkpt>
      <trkpt lat="42.614777" lon="2.424550">
        <ele>360.549</ele>
        <time>2021-05-28T23:11:37Z</time>
      </trkpt>
      <trkpt lat="42.614784" lon="2.424576">
        <ele>360.413</ele>
        <time>2021-05-28T23:11:38Z</time>
      </trkpt>
      <trkpt lat="42.614788" lon="2.424604">
        <ele>360.308</ele>
        <time>2021-05-28T23:11:39Z</time>
      </trkpt>
      <trkpt lat="42.614792" lon="2.424633">
        <ele>360.210</ele>
        <time>2021-05-28T23:11:40Z</time>
      </trkpt>
      <trkpt lat="42.614799" lon="2.424660">
        <ele>360.247</ele>
        <time>2021-05-28T23:11:41Z</time>
      </trkpt>
      <trkpt lat="42.614804" lon="2.424686">
        <ele>360.188</ele>
        <time>2021-05-28T23:11:42Z</time>
      </trkpt>
      <trkpt lat="42.614811" lon="2.424709">
        <ele>360.057</ele>
        <time>2021-05-28T23:11:43Z</time>
      </trkpt>
      <trkpt lat="42.614820" lon="2.424730">
        <ele>360.034</ele>
        <time>2021-05-28T23:11:44Z</time>
      </trkpt>
      <trkpt lat="42.614828" lon="2.424753">
        <ele>360.069</ele>
        <time>2021-05-28T23:11:45Z</time>
      </trkpt>
      <trkpt lat="42.614835" lon="2.424779">
        <ele>360.056</ele>
        <time>2021-05-28T23:11:47Z</time>
      </trkpt>
      <trkpt lat="42.614847" lon="2.424832">
        <ele>360.024</ele>
        <time>2021-05-28T23:11:48Z</time>
      </trkpt>
      <trkpt lat="42.614854" lon="2.424856">
        <ele>360.095</ele>
        <time>2021-05-28T23:11:49Z</time>
      </trkpt>
      <trkpt lat="42.614858" lon="2.424880">
        <ele>360.049</ele>
        <time>2021-05-28T23:11:50Z</time>
      </trkpt>
      <trkpt lat="42.614863" lon="2.424906">
        <ele>360.023</ele>
        <time>2021-05-28T23:11:51Z</time>
      </trkpt>
      <trkpt lat="42.614868" lon="2.424932">
        <ele>360.008</ele>
        <time>2021-05-28T23:11:52Z</time>
      </trkpt>
      <trkpt lat="42.614876" lon="2.424955">
        <ele>360.026</ele>
        <time>2021-05-28T23:11:53Z</time>
      </trkpt>
      <trkpt lat="42.614882" lon="2.424979">
        <ele>360.053</ele>
        <time>2021-05-28T23:11:54Z</time>
      </trkpt>
      <trkpt lat="42.614888" lon="2.425003">
        <ele>360.064</ele>
        <time>2021-05-28T23:11:55Z</time>
      </trkpt>
      <trkpt lat="42.614890" lon="2.425028">
        <ele>360.093</ele>
        <time>2021-05-28T23:11:56Z</time>
      </trkpt>
      <trkpt lat="42.614897" lon="2.425075">
        <ele>360.030</ele>
        <time>2021-05-28T23:11:58Z</time>
      </trkpt>
      <trkpt lat="42.614904" lon="2.425119">
        <ele>360.075</ele>
        <time>2021-05-28T23:12:00Z</time>
      </trkpt>
      <trkpt lat="42.614913" lon="2.425141">
        <ele>360.032</ele>
        <time>2021-05-28T23:12:01Z</time>
      </trkpt>
      <trkpt lat="42.614921" lon="2.425169">
        <ele>360.010</ele>
        <time>2021-05-28T23:12:02Z</time>
      </trkpt>
      <trkpt lat="42.614929" lon="2.425191">
        <ele>360.067</ele>
        <time>2021-05-28T23:12:03Z</time>
      </trkpt>
      <trkpt lat="42.614936" lon="2.425216">
        <ele>360.081</ele>
        <time>2021-05-28T23:12:04Z</time>
      </trkpt>
      <trkpt lat="42.614943" lon="2.425243">
        <ele>360.019</ele>
        <time>2021-05-28T23:12:05Z</time>
      </trkpt>
      <trkpt lat="42.614954" lon="2.425294">
        <ele>360.008</ele>
        <time>2021-05-28T23:12:07Z</time>
      </trkpt>
      <trkpt lat="42.614970" lon="2.425341">
        <ele>360.053</ele>
        <time>2021-05-28T23:12:09Z</time>
      </trkpt>
      <trkpt lat="42.614988" lon="2.425378">
        <ele>360.080</ele>
        <time>2021-05-28T23:12:11Z</time>
      </trkpt>
      <trkpt lat="42.615002" lon="2.425418">
        <ele>360.061</ele>
        <time>2021-05-28T23:12:14Z</time>
      </trkpt>
      <trkpt lat="42.615015" lon="2.425458">
        <ele>360.010</ele>
        <time>2021-05-28T23:12:15Z</time>
      </trkpt>
      <trkpt lat="42.615030" lon="2.425499">
        <ele>360.097</ele>
        <time>2021-05-28T23:12:17Z</time>
      </trkpt>
      <trkpt lat="42.615043" lon="2.425538">
        <ele>360.022</ele>
        <time>2021-05-28T23:12:19Z</time>
      </trkpt>
      <trkpt lat="42.615052" lon="2.425560">
        <ele>360.059</ele>
        <time>2021-05-28T23:12:20Z</time>
      </trkpt>
      <trkpt lat="42.615064" lon="2.425597">
        <ele>360.067</ele>
        <time>2021-05-28T23:12:22Z</time>
      </trkpt>
      <trkpt lat="42.615071" lon="2.425636">
        <ele>360.073</ele>
        <time>2021-05-28T23:12:24Z</time>
      </trkpt>
      <trkpt lat="42.615082" lon="2.425677">
        <ele>360.085</ele>
        <time>2021-05-28T23:12:27Z</time>
      </trkpt>
      <trkpt lat="42.615089" lon="2.425718">
        <ele>360.013</ele>
        <time>2021-05-28T23:12:28Z</time>
      </trkpt>
      <trkpt lat="42.615098" lon="2.425759">
        <ele>360.008</ele>
        <time>2021-05-28T23:12:30Z</time>
      </trkpt>
      <trkpt lat="42.615107" lon="2.425804">
        <ele>360.094</ele>
        <time>2021-05-28T23:12:32Z</time>
      </trkpt>
      <trkpt lat="42.615114" lon="2.425847">
        <ele>360.031</ele>
        <time>2021-05-28T23:12:34Z</time>
      </trkpt>
      <trkpt lat="42.615125" lon="2.425886">
        <ele>359.912</ele>
        <time>2021-05-28T23:12:37Z</time>
      </trkpt>
      <trkpt lat="42.615141" lon="2.425921">
        <ele>359.831</ele>
        <time>2021-05-28T23:12:39Z</time>
      </trkpt>
      <trkpt lat="42.615169" lon="2.425944">
        <ele>359.848</ele>
        <time>2021-05-28T23:12:40Z</time>
      </trkpt>
      <trkpt lat="42.615200" lon="2.425944">
        <ele>359.743</ele>
        <time>2021-05-28T23:12:42Z</time>
      </trkpt>
      <trkpt lat="42.615219" lon="2.425940">
        <ele>359.730</ele>
        <time>2021-05-28T23:12:43Z</time>
      </trkpt>
      <trkpt lat="42.615247" lon="2.425923">
        <ele>359.798</ele>
        <time>2021-05-28T23:12:46Z</time>
      </trkpt>
      <trkpt lat="42.615278" lon="2.425904">
        <ele>359.738</ele>
        <time>2021-05-28T23:12:48Z</time>
      </trkpt>
      <trkpt lat="42.615306" lon="2.425879">
        <ele>359.770</ele>
        <time>2021-05-28T23:12:49Z</time>
      </trkpt>
      <trkpt lat="42.615335" lon="2.425857">
        <ele>359.717</ele>
        <time>2021-05-28T23:12:51Z</time>
      </trkpt>
      <trkpt lat="42.615364" lon="2.425843">
        <ele>359.708</ele>
        <time>2021-05-28T23:12:53Z</time>
      </trkpt>
      <trkpt lat="42.615397" lon="2.425851">
        <ele>359.540</ele>
        <time>2021-05-28T23:12:55Z</time>
      </trkpt>
      <trkpt lat="42.615428" lon="2.425874">
        <ele>359.397</ele>
        <time>2021-05-28T23:12:57Z</time>
      </trkpt>
      <trkpt lat="42.615456" lon="2.425901">
        <ele>359.118</ele>
        <time>2021-05-28T23:12:59Z</time>
      </trkpt>
      <trkpt lat="42.615471" lon="2.425916">
        <ele>359.037</ele>
        <time>2021-05-28T23:13:00Z</time>
      </trkpt>
      <trkpt lat="42.615489" lon="2.425928">
        <ele>358.914</ele>
        <time>2021-05-28T23:13:01Z</time>
      </trkpt>
      <trkpt lat="42.615505" lon="2.425942">
        <ele>358.829</ele>
        <time>2021-05-28T23:13:02Z</time>
      </trkpt>
      <trkpt lat="42.615530" lon="2.425979">
        <ele>358.686</ele>
        <time>2021-05-28T23:13:04Z</time>
      </trkpt>
      <trkpt lat="42.615544" lon="2.425998">
        <ele>358.484</ele>
        <time>2021-05-28T23:13:06Z</time>
      </trkpt>
      <trkpt lat="42.615574" lon="2.426034">
        <ele>358.216</ele>
        <time>2021-05-28T23:13:07Z</time>
      </trkpt>
      <trkpt lat="42.615588" lon="2.426049">
        <ele>358.176</ele>
        <time>2021-05-28T23:13:09Z</time>
      </trkpt>
      <trkpt lat="42.615617" lon="2.426081">
        <ele>357.913</ele>
        <time>2021-05-28T23:13:10Z</time>
      </trkpt>
      <trkpt lat="42.615631" lon="2.426101">
        <ele>357.808</ele>
        <time>2021-05-28T23:13:11Z</time>
      </trkpt>
      <trkpt lat="42.615644" lon="2.426120">
        <ele>357.798</ele>
        <time>2021-05-28T23:13:12Z</time>
      </trkpt>
      <trkpt lat="42.615656" lon="2.426138">
        <ele>357.795</ele>
        <time>2021-05-28T23:13:14Z</time>
      </trkpt>
      <trkpt lat="42.615676" lon="2.426178">
        <ele>357.866</ele>
        <time>2021-05-28T23:13:16Z</time>
      </trkpt>
      <trkpt lat="42.615700" lon="2.426217">
        <ele>357.965</ele>
        <time>2021-05-28T23:13:17Z</time>
      </trkpt>
      <trkpt lat="42.615712" lon="2.426237">
        <ele>357.932</ele>
        <time>2021-05-28T23:13:18Z</time>
      </trkpt>
      <trkpt lat="42.615724" lon="2.426256">
        <ele>357.957</ele>
        <time>2021-05-28T23:13:19Z</time>
      </trkpt>
      <trkpt lat="42.615737" lon="2.426273">
        <ele>357.944</ele>
        <time>2021-05-28T23:13:20Z</time>
      </trkpt>
      <trkpt lat="42.615763" lon="2.426308">
        <ele>358.052</ele>
        <time>2021-05-28T23:13:22Z</time>
      </trkpt>
      <trkpt lat="42.615789" lon="2.426342">
        <ele>358.038</ele>
        <time>2021-05-28T23:13:24Z</time>
      </trkpt>
      <trkpt lat="42.615813" lon="2.426374">
        <ele>358.070</ele>
        <time>2021-05-28T23:13:26Z</time>
      </trkpt>
      <trkpt lat="42.615828" lon="2.426390">
        <ele>358.017</ele>
        <time>2021-05-28T23:13:27Z</time>
      </trkpt>
      <trkpt lat="42.615853" lon="2.426423">
        <ele>357.908</ele>
        <time>2021-05-28T23:13:29Z</time>
      </trkpt>
      <trkpt lat="42.615878" lon="2.426458">
        <ele>357.880</ele>
        <time>2021-05-28T23:13:31Z</time>
      </trkpt>
      <trkpt lat="42.615893" lon="2.426475">
        <ele>357.817</ele>
        <time>2021-05-28T23:13:32Z</time>
      </trkpt>
      <trkpt lat="42.615907" lon="2.426492">
        <ele>357.758</ele>
        <time>2021-05-28T23:13:33Z</time>
      </trkpt>
      <trkpt lat="42.615923" lon="2.426507">
        <ele>357.727</ele>
        <time>2021-05-28T23:13:34Z</time>
      </trkpt>
      <trkpt lat="42.615937" lon="2.426524">
        <ele>357.644</ele>
        <time>2021-05-28T23:13:35Z</time>
      </trkpt>
      <trkpt lat="42.615951" lon="2.426542">
        <ele>357.639</ele>
        <time>2021-05-28T23:13:36Z</time>
      </trkpt>
      <trkpt lat="42.615979" lon="2.426578">
        <ele>357.576</ele>
        <time>2021-05-28T23:13:38Z</time>
      </trkpt>
      <trkpt lat="42.615995" lon="2.426593">
        <ele>357.444</ele>
        <time>2021-05-28T23:13:39Z</time>
      </trkpt>
      <trkpt lat="42.616010" lon="2.426608">
        <ele>357.454</ele>
        <time>2021-05-28T23:13:40Z</time>
      </trkpt>
      <trkpt lat="42.616023" lon="2.426628">
        <ele>357.356</ele>
        <time>2021-05-28T23:13:41Z</time>
      </trkpt>
      <trkpt lat="42.616036" lon="2.426646">
        <ele>357.311</ele>
        <time>2021-05-28T23:13:42Z</time>
      </trkpt>
      <trkpt lat="42.616051" lon="2.426664">
        <ele>357.208</ele>
        <time>2021-05-28T23:13:43Z</time>
      </trkpt>
      <trkpt lat="42.616064" lon="2.426681">
        <ele>357.292</ele>
        <time>2021-05-28T23:13:45Z</time>
      </trkpt>
      <trkpt lat="42.616077" lon="2.426701">
        <ele>357.269</ele>
        <time>2021-05-28T23:13:46Z</time>
      </trkpt>
      <trkpt lat="42.616103" lon="2.426741">
        <ele>357.350</ele>
        <time>2021-05-28T23:13:47Z</time>
      </trkpt>
      <trkpt lat="42.616116" lon="2.426762">
        <ele>357.329</ele>
        <time>2021-05-28T23:13:48Z</time>
      </trkpt>
      <trkpt lat="42.616129" lon="2.426779">
        <ele>357.356</ele>
        <time>2021-05-28T23:13:49Z</time>
      </trkpt>
      <trkpt lat="42.616142" lon="2.426798">
        <ele>357.441</ele>
        <time>2021-05-28T23:13:50Z</time>
      </trkpt>
      <trkpt lat="42.616153" lon="2.426820">
        <ele>357.438</ele>
        <time>2021-05-28T23:13:51Z</time>
      </trkpt>
      <trkpt lat="42.616179" lon="2.426860">
        <ele>357.566</ele>
        <time>2021-05-28T23:13:53Z</time>
      </trkpt>
      <trkpt lat="42.616192" lon="2.426879">
        <ele>357.569</ele>
        <time>2021-05-28T23:13:54Z</time>
      </trkpt>
      <trkpt lat="42.616205" lon="2.426896">
        <ele>357.504</ele>
        <time>2021-05-28T23:13:56Z</time>
      </trkpt>
      <trkpt lat="42.616226" lon="2.426936">
        <ele>357.624</ele>
        <time>2021-05-28T23:13:57Z</time>
      </trkpt>
      <trkpt lat="42.616252" lon="2.426968">
        <ele>357.508</ele>
        <time>2021-05-28T23:13:59Z</time>
      </trkpt>
      <trkpt lat="42.616276" lon="2.427008">
        <ele>357.493</ele>
        <time>2021-05-28T23:14:01Z</time>
      </trkpt>
      <trkpt lat="42.616299" lon="2.427045">
        <ele>357.330</ele>
        <time>2021-05-28T23:14:03Z</time>
      </trkpt>
      <trkpt lat="42.616322" lon="2.427078">
        <ele>357.271</ele>
        <time>2021-05-28T23:14:05Z</time>
      </trkpt>
      <trkpt lat="42.616345" lon="2.427115">
        <ele>357.230</ele>
        <time>2021-05-28T23:14:07Z</time>
      </trkpt>
      <trkpt lat="42.616363" lon="2.427151">
        <ele>357.167</ele>
        <time>2021-05-28T23:14:10Z</time>
      </trkpt>
      <trkpt lat="42.616391" lon="2.427215">
        <ele>357.092</ele>
        <time>2021-05-28T23:14:12Z</time>
      </trkpt>
      <trkpt lat="42.616403" lon="2.427233">
        <ele>357.089</ele>
        <time>2021-05-28T23:14:13Z</time>
      </trkpt>
      <trkpt lat="42.616416" lon="2.427250">
        <ele>357.017</ele>
        <time>2021-05-28T23:14:14Z</time>
      </trkpt>
      <trkpt lat="42.616436" lon="2.427290">
        <ele>357.154</ele>
        <time>2021-05-28T23:14:17Z</time>
      </trkpt>
      <trkpt lat="42.616457" lon="2.427330">
        <ele>357.156</ele>
        <time>2021-05-28T23:14:18Z</time>
      </trkpt>
      <trkpt lat="42.616463" lon="2.427356">
        <ele>357.211</ele>
        <time>2021-05-28T23:14:19Z</time>
      </trkpt>
      <trkpt lat="42.616471" lon="2.427383">
        <ele>357.308</ele>
        <time>2021-05-28T23:14:20Z</time>
      </trkpt>
      <trkpt lat="42.616478" lon="2.427410">
        <ele>357.412</ele>
        <time>2021-05-28T23:14:22Z</time>
      </trkpt>
      <trkpt lat="42.616484" lon="2.427435">
        <ele>357.499</ele>
        <time>2021-05-28T23:14:23Z</time>
      </trkpt>
      <trkpt lat="42.616492" lon="2.427459">
        <ele>357.550</ele>
        <time>2021-05-28T23:14:24Z</time>
      </trkpt>
      <trkpt lat="42.616500" lon="2.427510">
        <ele>357.649</ele>
        <time>2021-05-28T23:14:25Z</time>
      </trkpt>
      <trkpt lat="42.616514" lon="2.427552">
        <ele>357.636</ele>
        <time>2021-05-28T23:14:27Z</time>
      </trkpt>
      <trkpt lat="42.616531" lon="2.427591">
        <ele>357.581</ele>
        <time>2021-05-28T23:14:30Z</time>
      </trkpt>
      <trkpt lat="42.616545" lon="2.427633">
        <ele>357.468</ele>
        <time>2021-05-28T23:14:32Z</time>
      </trkpt>
      <trkpt lat="42.616558" lon="2.427651">
        <ele>357.436</ele>
        <time>2021-05-28T23:14:33Z</time>
      </trkpt>
      <trkpt lat="42.616581" lon="2.427680">
        <ele>357.351</ele>
        <time>2021-05-28T23:14:34Z</time>
      </trkpt>
      <trkpt lat="42.616601" lon="2.427712">
        <ele>357.201</ele>
        <time>2021-05-28T23:14:37Z</time>
      </trkpt>
      <trkpt lat="42.616613" lon="2.427732">
        <ele>357.211</ele>
        <time>2021-05-28T23:14:38Z</time>
      </trkpt>
      <trkpt lat="42.616631" lon="2.427769">
        <ele>357.108</ele>
        <time>2021-05-28T23:14:39Z</time>
      </trkpt>
      <trkpt lat="42.616647" lon="2.427808">
        <ele>357.172</ele>
        <time>2021-05-28T23:14:41Z</time>
      </trkpt>
      <trkpt lat="42.616655" lon="2.427829">
        <ele>357.039</ele>
        <time>2021-05-28T23:14:42Z</time>
      </trkpt>
      <trkpt lat="42.616675" lon="2.427868">
        <ele>357.060</ele>
        <time>2021-05-28T23:14:44Z</time>
      </trkpt>
      <trkpt lat="42.616695" lon="2.427911">
        <ele>356.929</ele>
        <time>2021-05-28T23:14:46Z</time>
      </trkpt>
      <trkpt lat="42.616706" lon="2.427934">
        <ele>356.966</ele>
        <time>2021-05-28T23:14:47Z</time>
      </trkpt>
      <trkpt lat="42.616731" lon="2.427980">
        <ele>356.851</ele>
        <time>2021-05-28T23:14:49Z</time>
      </trkpt>
      <trkpt lat="42.616742" lon="2.428002">
        <ele>356.768</ele>
        <time>2021-05-28T23:14:50Z</time>
      </trkpt>
      <trkpt lat="42.616753" lon="2.428024">
        <ele>356.796</ele>
        <time>2021-05-28T23:14:51Z</time>
      </trkpt>
      <trkpt lat="42.616767" lon="2.428065">
        <ele>356.728</ele>
        <time>2021-05-28T23:14:54Z</time>
      </trkpt>
      <trkpt lat="42.616781" lon="2.428106">
        <ele>356.889</ele>
        <time>2021-05-28T23:14:56Z</time>
      </trkpt>
      <trkpt lat="42.616788" lon="2.428139">
        <ele>356.917</ele>
        <time>2021-05-28T23:14:57Z</time>
      </trkpt>
      <trkpt lat="42.616802" lon="2.428165">
        <ele>356.908</ele>
        <time>2021-05-28T23:15:00Z</time>
      </trkpt>
      <trkpt lat="42.616809" lon="2.428177">
        <ele>356.959</ele>
        <time>2021-05-28T23:15:01Z</time>
      </trkpt>
    </trkseg>
  </trk>
</gpx>
